﻿<?xml version="1.0" encoding="utf-8"?><gpx version="1.1" creator="izvne.com" xmlns="http://www.topografix.com/GPX/1/1"><trk><name>vietnam-overview</name><trkseg><trkpt lat="22.491583" lon="103.978821"><ele>178.0</ele><time>2011-04-22T01:28:25.0000000+00:00</time></trkpt><trkpt lat="22.491865" lon="103.978897"><ele>109.2</ele><time>2011-04-22T01:28:30.0000000+00:00</time></trkpt><trkpt lat="22.491869" lon="103.978882"><ele>98.6</ele><time>2011-04-22T01:28:35.0000000+00:00</time></trkpt><trkpt lat="22.491875" lon="103.978844"><ele>93.8</ele><time>2011-04-22T01:28:40.0000000+00:00</time></trkpt><trkpt lat="22.491871" lon="103.978813"><ele>90.9</ele><time>2011-04-22T01:28:45.0000000+00:00</time></trkpt><trkpt lat="22.491869" lon="103.97879"><ele>89.6</ele><time>2011-04-22T01:28:50.0000000+00:00</time></trkpt><trkpt lat="22.491865" lon="103.978783"><ele>90.0</ele><time>2011-04-22T01:28:55.0000000+00:00</time></trkpt><trkpt lat="22.491865" lon="103.978783"><ele>90.3</ele><time>2011-04-22T01:29:00.0000000+00:00</time></trkpt><trkpt lat="22.491863" lon="103.978783"><ele>90.3</ele><time>2011-04-22T01:29:05.0000000+00:00</time></trkpt><trkpt lat="22.491863" lon="103.978775"><ele>89.7</ele><time>2011-04-22T01:29:10.0000000+00:00</time></trkpt><trkpt lat="22.491865" lon="103.978775"><ele>89.6</ele><time>2011-04-22T01:29:15.0000000+00:00</time></trkpt><trkpt lat="22.491871" lon="103.978745"><ele>88.2</ele><time>2011-04-22T01:29:20.0000000+00:00</time></trkpt><trkpt lat="22.491871" lon="103.978745"><ele>88.0</ele><time>2011-04-22T01:29:25.0000000+00:00</time></trkpt><trkpt lat="22.491869" lon="103.978745"><ele>88.0</ele><time>2011-04-22T01:29:30.0000000+00:00</time></trkpt><trkpt lat="22.491869" lon="103.978745"><ele>88.0</ele><time>2011-04-22T01:29:35.0000000+00:00</time></trkpt><trkpt lat="22.491869" lon="103.978745"><ele>88.1</ele><time>2011-04-22T01:29:40.0000000+00:00</time></trkpt><trkpt lat="22.491867" lon="103.978745"><ele>88.1</ele><time>2011-04-22T01:29:45.0000000+00:00</time></trkpt><trkpt lat="22.491869" lon="103.978745"><ele>88.0</ele><time>2011-04-22T01:29:50.0000000+00:00</time></trkpt><trkpt lat="22.491859" lon="103.978745"><ele>87.8</ele><time>2011-04-22T01:29:55.0000000+00:00</time></trkpt><trkpt lat="22.491859" lon="103.978745"><ele>87.6</ele><time>2011-04-22T01:30:00.0000000+00:00</time></trkpt><trkpt lat="22.491859" lon="103.978745"><ele>87.6</ele><time>2011-04-22T01:30:05.0000000+00:00</time></trkpt><trkpt lat="22.491859" lon="103.978745"><ele>87.6</ele><time>2011-04-22T01:30:10.0000000+00:00</time></trkpt><trkpt lat="22.491858" lon="103.978745"><ele>87.9</ele><time>2011-04-22T01:30:15.0000000+00:00</time></trkpt><trkpt lat="22.49185" lon="103.978745"><ele>88.0</ele><time>2011-04-22T01:30:20.0000000+00:00</time></trkpt><trkpt lat="22.491848" lon="103.978752"><ele>88.1</ele><time>2011-04-22T01:30:25.0000000+00:00</time></trkpt><trkpt lat="22.491854" lon="103.978752"><ele>88.6</ele><time>2011-04-22T01:30:30.0000000+00:00</time></trkpt><trkpt lat="22.491852" lon="103.978752"><ele>88.6</ele><time>2011-04-22T01:30:35.0000000+00:00</time></trkpt><trkpt lat="22.491854" lon="103.978752"><ele>88.8</ele><time>2011-04-22T01:30:40.0000000+00:00</time></trkpt><trkpt lat="22.491854" lon="103.97876"><ele>88.9</ele><time>2011-04-22T01:30:45.0000000+00:00</time></trkpt><trkpt lat="22.491858" lon="103.97876"><ele>89.8</ele><time>2011-04-22T01:30:50.0000000+00:00</time></trkpt><trkpt lat="22.491859" lon="103.97876"><ele>90.7</ele><time>2011-04-22T01:30:55.0000000+00:00</time></trkpt><trkpt lat="22.491859" lon="103.97876"><ele>90.7</ele><time>2011-04-22T01:31:00.0000000+00:00</time></trkpt><trkpt lat="22.491859" lon="103.97876"><ele>90.8</ele><time>2011-04-22T01:31:05.0000000+00:00</time></trkpt><trkpt lat="22.491859" lon="103.97876"><ele>90.8</ele><time>2011-04-22T01:31:10.0000000+00:00</time></trkpt><trkpt lat="22.491859" lon="103.97876"><ele>90.8</ele><time>2011-04-22T01:31:15.0000000+00:00</time></trkpt><trkpt lat="22.491859" lon="103.97876"><ele>90.8</ele><time>2011-04-22T01:31:20.0000000+00:00</time></trkpt><trkpt lat="22.491859" lon="103.97876"><ele>90.8</ele><time>2011-04-22T01:31:25.0000000+00:00</time></trkpt><trkpt lat="22.491859" lon="103.97876"><ele>90.9</ele><time>2011-04-22T01:31:30.0000000+00:00</time></trkpt><trkpt lat="22.491859" lon="103.97876"><ele>90.9</ele><time>2011-04-22T01:31:35.0000000+00:00</time></trkpt><trkpt lat="22.491859" lon="103.97876"><ele>90.9</ele><time>2011-04-22T01:31:40.0000000+00:00</time></trkpt><trkpt lat="22.491859" lon="103.97876"><ele>90.9</ele><time>2011-04-22T01:31:45.0000000+00:00</time></trkpt><trkpt lat="22.491859" lon="103.97876"><ele>90.9</ele><time>2011-04-22T01:31:50.0000000+00:00</time></trkpt><trkpt lat="22.491859" lon="103.97876"><ele>90.9</ele><time>2011-04-22T01:31:55.0000000+00:00</time></trkpt><trkpt lat="22.491859" lon="103.97876"><ele>90.9</ele><time>2011-04-22T01:32:00.0000000+00:00</time></trkpt><trkpt lat="22.491859" lon="103.97876"><ele>90.9</ele><time>2011-04-22T01:32:05.0000000+00:00</time></trkpt><trkpt lat="22.491859" lon="103.97876"><ele>90.9</ele><time>2011-04-22T01:32:10.0000000+00:00</time></trkpt><trkpt lat="22.491859" lon="103.97876"><ele>91.0</ele><time>2011-04-22T01:32:15.0000000+00:00</time></trkpt><trkpt lat="22.491858" lon="103.97876"><ele>91.4</ele><time>2011-04-22T01:32:20.0000000+00:00</time></trkpt><trkpt lat="22.491856" lon="103.97876"><ele>90.8</ele><time>2011-04-22T01:32:25.0000000+00:00</time></trkpt><trkpt lat="22.491858" lon="103.97876"><ele>90.7</ele><time>2011-04-22T01:32:30.0000000+00:00</time></trkpt><trkpt lat="22.491856" lon="103.97876"><ele>90.7</ele><time>2011-04-22T01:32:35.0000000+00:00</time></trkpt><trkpt lat="22.491856" lon="103.97876"><ele>90.7</ele><time>2011-04-22T01:32:40.0000000+00:00</time></trkpt><trkpt lat="22.491856" lon="103.97876"><ele>90.6</ele><time>2011-04-22T01:32:45.0000000+00:00</time></trkpt><trkpt lat="22.491856" lon="103.97876"><ele>90.6</ele><time>2011-04-22T01:32:50.0000000+00:00</time></trkpt><trkpt lat="22.491856" lon="103.97876"><ele>90.6</ele><time>2011-04-22T01:32:55.0000000+00:00</time></trkpt><trkpt lat="22.491856" lon="103.97876"><ele>90.6</ele><time>2011-04-22T01:33:00.0000000+00:00</time></trkpt><trkpt lat="22.491856" lon="103.97876"><ele>90.6</ele><time>2011-04-22T01:33:05.0000000+00:00</time></trkpt><trkpt lat="22.491856" lon="103.97876"><ele>90.6</ele><time>2011-04-22T01:33:10.0000000+00:00</time></trkpt><trkpt lat="22.491856" lon="103.97876"><ele>90.6</ele><time>2011-04-22T01:33:15.0000000+00:00</time></trkpt><trkpt lat="22.491856" lon="103.97876"><ele>90.6</ele><time>2011-04-22T01:33:20.0000000+00:00</time></trkpt><trkpt lat="22.491856" lon="103.97876"><ele>90.6</ele><time>2011-04-22T01:33:25.0000000+00:00</time></trkpt><trkpt lat="22.491856" lon="103.97876"><ele>90.6</ele><time>2011-04-22T01:33:30.0000000+00:00</time></trkpt><trkpt lat="22.491856" lon="103.97876"><ele>90.6</ele><time>2011-04-22T01:33:35.0000000+00:00</time></trkpt><trkpt lat="22.491856" lon="103.97876"><ele>90.6</ele><time>2011-04-22T01:33:40.0000000+00:00</time></trkpt><trkpt lat="22.491856" lon="103.97876"><ele>90.6</ele><time>2011-04-22T01:33:45.0000000+00:00</time></trkpt><trkpt lat="22.491856" lon="103.97876"><ele>90.6</ele><time>2011-04-22T01:33:50.0000000+00:00</time></trkpt><trkpt lat="22.491856" lon="103.97876"><ele>90.6</ele><time>2011-04-22T01:33:55.0000000+00:00</time></trkpt><trkpt lat="22.491856" lon="103.97876"><ele>90.6</ele><time>2011-04-22T01:34:00.0000000+00:00</time></trkpt><trkpt lat="22.491856" lon="103.97876"><ele>90.6</ele><time>2011-04-22T01:34:05.0000000+00:00</time></trkpt><trkpt lat="22.491856" lon="103.97876"><ele>90.6</ele><time>2011-04-22T01:34:10.0000000+00:00</time></trkpt><trkpt lat="22.491856" lon="103.97876"><ele>90.6</ele><time>2011-04-22T01:34:15.0000000+00:00</time></trkpt><trkpt lat="22.491856" lon="103.97876"><ele>90.6</ele><time>2011-04-22T01:34:20.0000000+00:00</time></trkpt><trkpt lat="22.491856" lon="103.97876"><ele>90.6</ele><time>2011-04-22T01:34:25.0000000+00:00</time></trkpt><trkpt lat="22.491856" lon="103.97876"><ele>90.6</ele><time>2011-04-22T01:34:30.0000000+00:00</time></trkpt><trkpt lat="22.491856" lon="103.97876"><ele>90.6</ele><time>2011-04-22T01:34:35.0000000+00:00</time></trkpt><trkpt lat="22.491856" lon="103.97876"><ele>90.5</ele><time>2011-04-22T01:34:40.0000000+00:00</time></trkpt><trkpt lat="22.491856" lon="103.97876"><ele>90.6</ele><time>2011-04-22T01:34:45.0000000+00:00</time></trkpt><trkpt lat="22.491854" lon="103.978745"><ele>90.6</ele><time>2011-04-22T01:34:50.0000000+00:00</time></trkpt><trkpt lat="22.49185" lon="103.978745"><ele>90.6</ele><time>2011-04-22T01:34:55.0000000+00:00</time></trkpt><trkpt lat="22.49185" lon="103.978737"><ele>90.8</ele><time>2011-04-22T01:35:00.0000000+00:00</time></trkpt><trkpt lat="22.491848" lon="103.978745"><ele>90.9</ele><time>2011-04-22T01:35:05.0000000+00:00</time></trkpt><trkpt lat="22.49185" lon="103.978737"><ele>90.9</ele><time>2011-04-22T01:35:10.0000000+00:00</time></trkpt><trkpt lat="22.491863" lon="103.978729"><ele>91.5</ele><time>2011-04-22T01:35:15.0000000+00:00</time></trkpt><trkpt lat="22.491867" lon="103.978737"><ele>91.9</ele><time>2011-04-22T01:35:20.0000000+00:00</time></trkpt><trkpt lat="22.491867" lon="103.978737"><ele>92.2</ele><time>2011-04-22T01:35:25.0000000+00:00</time></trkpt><trkpt lat="22.491865" lon="103.978737"><ele>92.9</ele><time>2011-04-22T01:35:30.0000000+00:00</time></trkpt><trkpt lat="22.491898" lon="103.978722"><ele>93.2</ele><time>2011-04-22T01:35:35.0000000+00:00</time></trkpt><trkpt lat="22.491982" lon="103.978668"><ele>93.1</ele><time>2011-04-22T01:35:40.0000000+00:00</time></trkpt><trkpt lat="22.492111" lon="103.9786"><ele>92.7</ele><time>2011-04-22T01:35:45.0000000+00:00</time></trkpt><trkpt lat="22.492193" lon="103.978508"><ele>93.2</ele><time>2011-04-22T01:35:50.0000000+00:00</time></trkpt><trkpt lat="22.492228" lon="103.978439"><ele>93.1</ele><time>2011-04-22T01:35:55.0000000+00:00</time></trkpt><trkpt lat="22.492207" lon="103.978401"><ele>93.4</ele><time>2011-04-22T01:36:00.0000000+00:00</time></trkpt><trkpt lat="22.492191" lon="103.978386"><ele>93.6</ele><time>2011-04-22T01:36:05.0000000+00:00</time></trkpt><trkpt lat="22.492174" lon="103.978371"><ele>93.9</ele><time>2011-04-22T01:36:10.0000000+00:00</time></trkpt><trkpt lat="22.4921" lon="103.978287"><ele>93.9</ele><time>2011-04-22T01:36:15.0000000+00:00</time></trkpt><trkpt lat="22.492081" lon="103.978203"><ele>92.5</ele><time>2011-04-22T01:36:20.0000000+00:00</time></trkpt><trkpt lat="22.492073" lon="103.978188"><ele>90.9</ele><time>2011-04-22T01:36:25.0000000+00:00</time></trkpt><trkpt lat="22.492075" lon="103.978188"><ele>91.0</ele><time>2011-04-22T01:36:30.0000000+00:00</time></trkpt><trkpt lat="22.492073" lon="103.978188"><ele>90.9</ele><time>2011-04-22T01:36:35.0000000+00:00</time></trkpt><trkpt lat="22.492073" lon="103.978188"><ele>90.8</ele><time>2011-04-22T01:36:40.0000000+00:00</time></trkpt><trkpt lat="22.492069" lon="103.97818"><ele>90.7</ele><time>2011-04-22T01:36:45.0000000+00:00</time></trkpt><trkpt lat="22.492064" lon="103.978172"><ele>90.8</ele><time>2011-04-22T01:36:50.0000000+00:00</time></trkpt><trkpt lat="22.492058" lon="103.978096"><ele>90.8</ele><time>2011-04-22T01:36:55.0000000+00:00</time></trkpt><trkpt lat="22.492035" lon="103.977951"><ele>89.7</ele><time>2011-04-22T01:37:00.0000000+00:00</time></trkpt><trkpt lat="22.492001" lon="103.977837"><ele>89.9</ele><time>2011-04-22T01:37:05.0000000+00:00</time></trkpt><trkpt lat="22.491917" lon="103.977776"><ele>90.6</ele><time>2011-04-22T01:37:10.0000000+00:00</time></trkpt><trkpt lat="22.4918" lon="103.977806"><ele>91.0</ele><time>2011-04-22T01:37:15.0000000+00:00</time></trkpt><trkpt lat="22.491709" lon="103.977852"><ele>92.1</ele><time>2011-04-22T01:37:20.0000000+00:00</time></trkpt><trkpt lat="22.491716" lon="103.977989"><ele>93.7</ele><time>2011-04-22T01:37:25.0000000+00:00</time></trkpt><trkpt lat="22.491728" lon="103.978157"><ele>95.6</ele><time>2011-04-22T01:37:30.0000000+00:00</time></trkpt><trkpt lat="22.491709" lon="103.978271"><ele>96.8</ele><time>2011-04-22T01:37:35.0000000+00:00</time></trkpt><trkpt lat="22.491665" lon="103.97831"><ele>97.0</ele><time>2011-04-22T01:37:40.0000000+00:00</time></trkpt><trkpt lat="22.4916" lon="103.978233"><ele>96.6</ele><time>2011-04-22T01:37:45.0000000+00:00</time></trkpt><trkpt lat="22.491528" lon="103.978065"><ele>96.0</ele><time>2011-04-22T01:37:50.0000000+00:00</time></trkpt><trkpt lat="22.49148" lon="103.977966"><ele>95.9</ele><time>2011-04-22T01:37:55.0000000+00:00</time></trkpt><trkpt lat="22.491453" lon="103.977921"><ele>95.7</ele><time>2011-04-22T01:38:00.0000000+00:00</time></trkpt><trkpt lat="22.491415" lon="103.977844"><ele>95.4</ele><time>2011-04-22T01:38:05.0000000+00:00</time></trkpt><trkpt lat="22.491287" lon="103.977806"><ele>96.0</ele><time>2011-04-22T01:38:10.0000000+00:00</time></trkpt><trkpt lat="22.491089" lon="103.977913"><ele>95.8</ele><time>2011-04-22T01:38:15.0000000+00:00</time></trkpt><trkpt lat="22.490864" lon="103.978035"><ele>96.1</ele><time>2011-04-22T01:38:20.0000000+00:00</time></trkpt><trkpt lat="22.49062" lon="103.978165"><ele>95.9</ele><time>2011-04-22T01:38:25.0000000+00:00</time></trkpt><trkpt lat="22.490364" lon="103.978325"><ele>95.1</ele><time>2011-04-22T01:38:30.0000000+00:00</time></trkpt><trkpt lat="22.490133" lon="103.978447"><ele>95.3</ele><time>2011-04-22T01:38:35.0000000+00:00</time></trkpt><trkpt lat="22.489897" lon="103.978584"><ele>95.8</ele><time>2011-04-22T01:38:40.0000000+00:00</time></trkpt><trkpt lat="22.489658" lon="103.978729"><ele>96.0</ele><time>2011-04-22T01:38:45.0000000+00:00</time></trkpt><trkpt lat="22.48942" lon="103.978867"><ele>95.7</ele><time>2011-04-22T01:38:50.0000000+00:00</time></trkpt><trkpt lat="22.489157" lon="103.979027"><ele>95.8</ele><time>2011-04-22T01:38:55.0000000+00:00</time></trkpt><trkpt lat="22.48888" lon="103.979172"><ele>96.8</ele><time>2011-04-22T01:39:00.0000000+00:00</time></trkpt><trkpt lat="22.488634" lon="103.979309"><ele>96.8</ele><time>2011-04-22T01:39:05.0000000+00:00</time></trkpt><trkpt lat="22.488375" lon="103.979469"><ele>96.9</ele><time>2011-04-22T01:39:10.0000000+00:00</time></trkpt><trkpt lat="22.488123" lon="103.979599"><ele>97.1</ele><time>2011-04-22T01:39:15.0000000+00:00</time></trkpt><trkpt lat="22.487864" lon="103.979706"><ele>98.2</ele><time>2011-04-22T01:39:20.0000000+00:00</time></trkpt><trkpt lat="22.487627" lon="103.979744"><ele>98.7</ele><time>2011-04-22T01:39:25.0000000+00:00</time></trkpt><trkpt lat="22.487396" lon="103.979729"><ele>98.5</ele><time>2011-04-22T01:39:30.0000000+00:00</time></trkpt><trkpt lat="22.487165" lon="103.979652"><ele>97.8</ele><time>2011-04-22T01:39:35.0000000+00:00</time></trkpt><trkpt lat="22.486952" lon="103.979538"><ele>97.6</ele><time>2011-04-22T01:39:40.0000000+00:00</time></trkpt><trkpt lat="22.48674" lon="103.979385"><ele>97.2</ele><time>2011-04-22T01:39:45.0000000+00:00</time></trkpt><trkpt lat="22.486523" lon="103.979233"><ele>96.8</ele><time>2011-04-22T01:39:50.0000000+00:00</time></trkpt><trkpt lat="22.486319" lon="103.979088"><ele>97.2</ele><time>2011-04-22T01:39:55.0000000+00:00</time></trkpt><trkpt lat="22.48612" lon="103.978951"><ele>96.3</ele><time>2011-04-22T01:40:00.0000000+00:00</time></trkpt><trkpt lat="22.485929" lon="103.978806"><ele>96.0</ele><time>2011-04-22T01:40:05.0000000+00:00</time></trkpt><trkpt lat="22.485741" lon="103.978676"><ele>96.1</ele><time>2011-04-22T01:40:10.0000000+00:00</time></trkpt><trkpt lat="22.485546" lon="103.978546"><ele>96.8</ele><time>2011-04-22T01:40:15.0000000+00:00</time></trkpt><trkpt lat="22.485338" lon="103.978401"><ele>96.4</ele><time>2011-04-22T01:40:20.0000000+00:00</time></trkpt><trkpt lat="22.485123" lon="103.978256"><ele>95.5</ele><time>2011-04-22T01:40:25.0000000+00:00</time></trkpt><trkpt lat="22.484907" lon="103.978104"><ele>95.2</ele><time>2011-04-22T01:40:30.0000000+00:00</time></trkpt><trkpt lat="22.48468" lon="103.977943"><ele>94.2</ele><time>2011-04-22T01:40:35.0000000+00:00</time></trkpt><trkpt lat="22.484436" lon="103.977783"><ele>93.7</ele><time>2011-04-22T01:40:40.0000000+00:00</time></trkpt><trkpt lat="22.484192" lon="103.977615"><ele>92.7</ele><time>2011-04-22T01:40:45.0000000+00:00</time></trkpt><trkpt lat="22.483938" lon="103.97744"><ele>92.5</ele><time>2011-04-22T01:40:50.0000000+00:00</time></trkpt><trkpt lat="22.483694" lon="103.977264"><ele>92.5</ele><time>2011-04-22T01:40:55.0000000+00:00</time></trkpt><trkpt lat="22.483473" lon="103.977104"><ele>92.1</ele><time>2011-04-22T01:41:00.0000000+00:00</time></trkpt><trkpt lat="22.483278" lon="103.976959"><ele>92.9</ele><time>2011-04-22T01:41:05.0000000+00:00</time></trkpt><trkpt lat="22.483072" lon="103.976845"><ele>93.2</ele><time>2011-04-22T01:41:10.0000000+00:00</time></trkpt><trkpt lat="22.482838" lon="103.976707"><ele>93.3</ele><time>2011-04-22T01:41:15.0000000+00:00</time></trkpt><trkpt lat="22.482607" lon="103.976524"><ele>93.3</ele><time>2011-04-22T01:41:20.0000000+00:00</time></trkpt><trkpt lat="22.482346" lon="103.976334"><ele>93.2</ele><time>2011-04-22T01:41:25.0000000+00:00</time></trkpt><trkpt lat="22.482069" lon="103.976135"><ele>92.6</ele><time>2011-04-22T01:41:30.0000000+00:00</time></trkpt><trkpt lat="22.481821" lon="103.975975"><ele>92.6</ele><time>2011-04-22T01:41:35.0000000+00:00</time></trkpt><trkpt lat="22.481586" lon="103.975807"><ele>93.2</ele><time>2011-04-22T01:41:40.0000000+00:00</time></trkpt><trkpt lat="22.481379" lon="103.975639"><ele>93.5</ele><time>2011-04-22T01:41:45.0000000+00:00</time></trkpt><trkpt lat="22.481308" lon="103.97541"><ele>94.0</ele><time>2011-04-22T01:41:50.0000000+00:00</time></trkpt><trkpt lat="22.481247" lon="103.975182"><ele>93.5</ele><time>2011-04-22T01:41:55.0000000+00:00</time></trkpt><trkpt lat="22.481104" lon="103.975014"><ele>93.0</ele><time>2011-04-22T01:42:00.0000000+00:00</time></trkpt><trkpt lat="22.480909" lon="103.974945"><ele>92.6</ele><time>2011-04-22T01:42:05.0000000+00:00</time></trkpt><trkpt lat="22.480722" lon="103.974876"><ele>92.3</ele><time>2011-04-22T01:42:10.0000000+00:00</time></trkpt><trkpt lat="22.480623" lon="103.974701"><ele>92.0</ele><time>2011-04-22T01:42:15.0000000+00:00</time></trkpt><trkpt lat="22.480558" lon="103.974541"><ele>92.2</ele><time>2011-04-22T01:42:20.0000000+00:00</time></trkpt><trkpt lat="22.48056" lon="103.974487"><ele>93.5</ele><time>2011-04-22T01:42:25.0000000+00:00</time></trkpt><trkpt lat="22.480566" lon="103.974472"><ele>93.7</ele><time>2011-04-22T01:42:30.0000000+00:00</time></trkpt><trkpt lat="22.480612" lon="103.974411"><ele>93.8</ele><time>2011-04-22T01:42:35.0000000+00:00</time></trkpt><trkpt lat="22.480761" lon="103.974373"><ele>95.7</ele><time>2011-04-22T01:42:40.0000000+00:00</time></trkpt><trkpt lat="22.480886" lon="103.974365"><ele>96.6</ele><time>2011-04-22T01:42:45.0000000+00:00</time></trkpt><trkpt lat="22.480938" lon="103.974365"><ele>96.1</ele><time>2011-04-22T01:42:50.0000000+00:00</time></trkpt><trkpt lat="22.480968" lon="103.974358"><ele>95.7</ele><time>2011-04-22T01:42:55.0000000+00:00</time></trkpt><trkpt lat="22.481123" lon="103.974426"><ele>97.1</ele><time>2011-04-22T01:43:00.0000000+00:00</time></trkpt><trkpt lat="22.481302" lon="103.974556"><ele>99.2</ele><time>2011-04-22T01:43:05.0000000+00:00</time></trkpt><trkpt lat="22.481455" lon="103.974594"><ele>101.5</ele><time>2011-04-22T01:43:10.0000000+00:00</time></trkpt><trkpt lat="22.481579" lon="103.97451"><ele>101.9</ele><time>2011-04-22T01:43:15.0000000+00:00</time></trkpt><trkpt lat="22.481644" lon="103.974457"><ele>100.7</ele><time>2011-04-22T01:43:20.0000000+00:00</time></trkpt><trkpt lat="22.481672" lon="103.974442"><ele>100.8</ele><time>2011-04-22T01:43:25.0000000+00:00</time></trkpt><trkpt lat="22.481674" lon="103.974442"><ele>100.9</ele><time>2011-04-22T01:43:30.0000000+00:00</time></trkpt><trkpt lat="22.481674" lon="103.974434"><ele>101.1</ele><time>2011-04-22T01:43:35.0000000+00:00</time></trkpt><trkpt lat="22.481653" lon="103.974419"><ele>100.8</ele><time>2011-04-22T01:43:40.0000000+00:00</time></trkpt><trkpt lat="22.481548" lon="103.974518"><ele>99.5</ele><time>2011-04-22T01:43:45.0000000+00:00</time></trkpt><trkpt lat="22.481413" lon="103.974678"><ele>96.3</ele><time>2011-04-22T01:43:50.0000000+00:00</time></trkpt><trkpt lat="22.481304" lon="103.974808"><ele>94.5</ele><time>2011-04-22T01:43:55.0000000+00:00</time></trkpt><trkpt lat="22.48118" lon="103.97493"><ele>95.7</ele><time>2011-04-22T01:44:00.0000000+00:00</time></trkpt><trkpt lat="22.481005" lon="103.974983"><ele>94.8</ele><time>2011-04-22T01:44:05.0000000+00:00</time></trkpt><trkpt lat="22.480803" lon="103.975037"><ele>92.9</ele><time>2011-04-22T01:44:10.0000000+00:00</time></trkpt><trkpt lat="22.480633" lon="103.975204"><ele>91.4</ele><time>2011-04-22T01:44:15.0000000+00:00</time></trkpt><trkpt lat="22.480528" lon="103.975441"><ele>89.6</ele><time>2011-04-22T01:44:20.0000000+00:00</time></trkpt><trkpt lat="22.48045" lon="103.975662"><ele>89.0</ele><time>2011-04-22T01:44:25.0000000+00:00</time></trkpt><trkpt lat="22.480297" lon="103.975868"><ele>88.4</ele><time>2011-04-22T01:44:30.0000000+00:00</time></trkpt><trkpt lat="22.480122" lon="103.976059"><ele>88.9</ele><time>2011-04-22T01:44:35.0000000+00:00</time></trkpt><trkpt lat="22.479956" lon="103.976227"><ele>88.8</ele><time>2011-04-22T01:44:40.0000000+00:00</time></trkpt><trkpt lat="22.47983" lon="103.976334"><ele>88.7</ele><time>2011-04-22T01:44:45.0000000+00:00</time></trkpt><trkpt lat="22.479809" lon="103.976349"><ele>88.7</ele><time>2011-04-22T01:44:50.0000000+00:00</time></trkpt><trkpt lat="22.479801" lon="103.976349"><ele>88.6</ele><time>2011-04-22T01:44:55.0000000+00:00</time></trkpt><trkpt lat="22.479794" lon="103.976357"><ele>88.5</ele><time>2011-04-22T01:45:00.0000000+00:00</time></trkpt><trkpt lat="22.479786" lon="103.976334"><ele>88.1</ele><time>2011-04-22T01:45:05.0000000+00:00</time></trkpt><trkpt lat="22.479879" lon="103.976273"><ele>88.2</ele><time>2011-04-22T01:45:10.0000000+00:00</time></trkpt><trkpt lat="22.480026" lon="103.976128"><ele>87.3</ele><time>2011-04-22T01:45:15.0000000+00:00</time></trkpt><trkpt lat="22.480215" lon="103.975937"><ele>87.8</ele><time>2011-04-22T01:45:20.0000000+00:00</time></trkpt><trkpt lat="22.480354" lon="103.975746"><ele>87.3</ele><time>2011-04-22T01:45:25.0000000+00:00</time></trkpt><trkpt lat="22.480303" lon="103.975555"><ele>87.5</ele><time>2011-04-22T01:45:30.0000000+00:00</time></trkpt><trkpt lat="22.480223" lon="103.975441"><ele>86.8</ele><time>2011-04-22T01:45:35.0000000+00:00</time></trkpt><trkpt lat="22.480101" lon="103.97541"><ele>86.2</ele><time>2011-04-22T01:45:40.0000000+00:00</time></trkpt><trkpt lat="22.479975" lon="103.97541"><ele>85.7</ele><time>2011-04-22T01:45:45.0000000+00:00</time></trkpt><trkpt lat="22.479797" lon="103.975426"><ele>85.3</ele><time>2011-04-22T01:45:50.0000000+00:00</time></trkpt><trkpt lat="22.479561" lon="103.975426"><ele>84.8</ele><time>2011-04-22T01:45:55.0000000+00:00</time></trkpt><trkpt lat="22.479288" lon="103.975433"><ele>84.2</ele><time>2011-04-22T01:46:00.0000000+00:00</time></trkpt><trkpt lat="22.479021" lon="103.975449"><ele>84.3</ele><time>2011-04-22T01:46:05.0000000+00:00</time></trkpt><trkpt lat="22.478735" lon="103.975471"><ele>84.2</ele><time>2011-04-22T01:46:10.0000000+00:00</time></trkpt><trkpt lat="22.478411" lon="103.975464"><ele>84.5</ele><time>2011-04-22T01:46:15.0000000+00:00</time></trkpt><trkpt lat="22.478113" lon="103.975471"><ele>84.1</ele><time>2011-04-22T01:46:20.0000000+00:00</time></trkpt><trkpt lat="22.47785" lon="103.975479"><ele>83.6</ele><time>2011-04-22T01:46:25.0000000+00:00</time></trkpt><trkpt lat="22.477581" lon="103.975494"><ele>82.1</ele><time>2011-04-22T01:46:30.0000000+00:00</time></trkpt><trkpt lat="22.477316" lon="103.97551"><ele>83.9</ele><time>2011-04-22T01:46:35.0000000+00:00</time></trkpt><trkpt lat="22.477066" lon="103.97551"><ele>85.4</ele><time>2011-04-22T01:46:40.0000000+00:00</time></trkpt><trkpt lat="22.476831" lon="103.975464"><ele>85.5</ele><time>2011-04-22T01:46:45.0000000+00:00</time></trkpt><trkpt lat="22.476612" lon="103.975357"><ele>86.4</ele><time>2011-04-22T01:46:50.0000000+00:00</time></trkpt><trkpt lat="22.476439" lon="103.975212"><ele>88.4</ele><time>2011-04-22T01:46:55.0000000+00:00</time></trkpt><trkpt lat="22.476274" lon="103.975075"><ele>88.5</ele><time>2011-04-22T01:47:00.0000000+00:00</time></trkpt><trkpt lat="22.476128" lon="103.974983"><ele>88.5</ele><time>2011-04-22T01:47:05.0000000+00:00</time></trkpt><trkpt lat="22.475986" lon="103.974831"><ele>86.6</ele><time>2011-04-22T01:47:10.0000000+00:00</time></trkpt><trkpt lat="22.47584" lon="103.974678"><ele>89.1</ele><time>2011-04-22T01:47:15.0000000+00:00</time></trkpt><trkpt lat="22.475729" lon="103.974541"><ele>89.6</ele><time>2011-04-22T01:47:20.0000000+00:00</time></trkpt><trkpt lat="22.4757" lon="103.97448"><ele>91.1</ele><time>2011-04-22T01:47:25.0000000+00:00</time></trkpt><trkpt lat="22.4757" lon="103.97448"><ele>91.5</ele><time>2011-04-22T01:47:30.0000000+00:00</time></trkpt><trkpt lat="22.4757" lon="103.97448"><ele>91.6</ele><time>2011-04-22T01:47:35.0000000+00:00</time></trkpt><trkpt lat="22.4757" lon="103.974487"><ele>91.6</ele><time>2011-04-22T01:47:40.0000000+00:00</time></trkpt><trkpt lat="22.4757" lon="103.974487"><ele>91.7</ele><time>2011-04-22T01:47:45.0000000+00:00</time></trkpt><trkpt lat="22.47567" lon="103.974457"><ele>91.9</ele><time>2011-04-22T01:47:50.0000000+00:00</time></trkpt><trkpt lat="22.475578" lon="103.974304"><ele>91.8</ele><time>2011-04-22T01:47:55.0000000+00:00</time></trkpt><trkpt lat="22.475473" lon="103.974136"><ele>91.3</ele><time>2011-04-22T01:48:00.0000000+00:00</time></trkpt><trkpt lat="22.475407" lon="103.973946"><ele>91.2</ele><time>2011-04-22T01:48:05.0000000+00:00</time></trkpt><trkpt lat="22.475327" lon="103.973724"><ele>90.2</ele><time>2011-04-22T01:48:10.0000000+00:00</time></trkpt><trkpt lat="22.475245" lon="103.973511"><ele>88.7</ele><time>2011-04-22T01:48:15.0000000+00:00</time></trkpt><trkpt lat="22.475224" lon="103.97345"><ele>88.4</ele><time>2011-04-22T01:48:20.0000000+00:00</time></trkpt><trkpt lat="22.475231" lon="103.973442"><ele>87.7</ele><time>2011-04-22T01:48:25.0000000+00:00</time></trkpt><trkpt lat="22.475233" lon="103.973442"><ele>87.6</ele><time>2011-04-22T01:48:30.0000000+00:00</time></trkpt><trkpt lat="22.475233" lon="103.973442"><ele>87.6</ele><time>2011-04-22T01:48:35.0000000+00:00</time></trkpt><trkpt lat="22.475229" lon="103.973434"><ele>87.7</ele><time>2011-04-22T01:48:40.0000000+00:00</time></trkpt><trkpt lat="22.475166" lon="103.97332"><ele>87.3</ele><time>2011-04-22T01:48:45.0000000+00:00</time></trkpt><trkpt lat="22.474989" lon="103.973221"><ele>87.3</ele><time>2011-04-22T01:48:50.0000000+00:00</time></trkpt><trkpt lat="22.474773" lon="103.97316"><ele>87.4</ele><time>2011-04-22T01:48:55.0000000+00:00</time></trkpt><trkpt lat="22.474554" lon="103.973076"><ele>88.2</ele><time>2011-04-22T01:49:00.0000000+00:00</time></trkpt><trkpt lat="22.474342" lon="103.973007"><ele>89.5</ele><time>2011-04-22T01:49:05.0000000+00:00</time></trkpt><trkpt lat="22.474131" lon="103.972946"><ele>90.8</ele><time>2011-04-22T01:49:10.0000000+00:00</time></trkpt><trkpt lat="22.473921" lon="103.972862"><ele>92.5</ele><time>2011-04-22T01:49:15.0000000+00:00</time></trkpt><trkpt lat="22.47374" lon="103.97271"><ele>93.5</ele><time>2011-04-22T01:49:20.0000000+00:00</time></trkpt><trkpt lat="22.473579" lon="103.972519"><ele>93.3</ele><time>2011-04-22T01:49:25.0000000+00:00</time></trkpt><trkpt lat="22.473421" lon="103.972351"><ele>93.5</ele><time>2011-04-22T01:49:30.0000000+00:00</time></trkpt><trkpt lat="22.473289" lon="103.972115"><ele>91.8</ele><time>2011-04-22T01:49:35.0000000+00:00</time></trkpt><trkpt lat="22.473232" lon="103.971817"><ele>91.2</ele><time>2011-04-22T01:49:40.0000000+00:00</time></trkpt><trkpt lat="22.473175" lon="103.971527"><ele>91.2</ele><time>2011-04-22T01:49:45.0000000+00:00</time></trkpt><trkpt lat="22.473127" lon="103.97123"><ele>91.0</ele><time>2011-04-22T01:49:50.0000000+00:00</time></trkpt><trkpt lat="22.473063" lon="103.970955"><ele>90.9</ele><time>2011-04-22T01:49:55.0000000+00:00</time></trkpt><trkpt lat="22.47298" lon="103.970711"><ele>90.5</ele><time>2011-04-22T01:50:00.0000000+00:00</time></trkpt><trkpt lat="22.472878" lon="103.970482"><ele>91.2</ele><time>2011-04-22T01:50:05.0000000+00:00</time></trkpt><trkpt lat="22.472773" lon="103.970253"><ele>92.5</ele><time>2011-04-22T01:50:10.0000000+00:00</time></trkpt><trkpt lat="22.472736" lon="103.970016"><ele>92.7</ele><time>2011-04-22T01:50:15.0000000+00:00</time></trkpt><trkpt lat="22.472834" lon="103.969788"><ele>91.2</ele><time>2011-04-22T01:50:20.0000000+00:00</time></trkpt><trkpt lat="22.473047" lon="103.969635"><ele>92.7</ele><time>2011-04-22T01:50:25.0000000+00:00</time></trkpt><trkpt lat="22.473276" lon="103.969513"><ele>94.6</ele><time>2011-04-22T01:50:30.0000000+00:00</time></trkpt><trkpt lat="22.473499" lon="103.969391"><ele>95.7</ele><time>2011-04-22T01:50:35.0000000+00:00</time></trkpt><trkpt lat="22.473751" lon="103.969276"><ele>95.0</ele><time>2011-04-22T01:50:40.0000000+00:00</time></trkpt><trkpt lat="22.47402" lon="103.969193"><ele>95.2</ele><time>2011-04-22T01:50:45.0000000+00:00</time></trkpt><trkpt lat="22.474304" lon="103.969124"><ele>95.1</ele><time>2011-04-22T01:50:50.0000000+00:00</time></trkpt><trkpt lat="22.474562" lon="103.969032"><ele>94.7</ele><time>2011-04-22T01:50:55.0000000+00:00</time></trkpt><trkpt lat="22.474812" lon="103.968864"><ele>94.0</ele><time>2011-04-22T01:51:00.0000000+00:00</time></trkpt><trkpt lat="22.474995" lon="103.968636"><ele>91.5</ele><time>2011-04-22T01:51:05.0000000+00:00</time></trkpt><trkpt lat="22.475077" lon="103.968361"><ele>91.6</ele><time>2011-04-22T01:51:10.0000000+00:00</time></trkpt><trkpt lat="22.47505" lon="103.968056"><ele>91.1</ele><time>2011-04-22T01:51:15.0000000+00:00</time></trkpt><trkpt lat="22.475002" lon="103.967758"><ele>90.2</ele><time>2011-04-22T01:51:20.0000000+00:00</time></trkpt><trkpt lat="22.474934" lon="103.967476"><ele>89.7</ele><time>2011-04-22T01:51:25.0000000+00:00</time></trkpt><trkpt lat="22.474806" lon="103.967224"><ele>89.2</ele><time>2011-04-22T01:51:30.0000000+00:00</time></trkpt><trkpt lat="22.474628" lon="103.967003"><ele>90.0</ele><time>2011-04-22T01:51:35.0000000+00:00</time></trkpt><trkpt lat="22.474449" lon="103.96682"><ele>90.3</ele><time>2011-04-22T01:51:40.0000000+00:00</time></trkpt><trkpt lat="22.474283" lon="103.966599"><ele>90.7</ele><time>2011-04-22T01:51:45.0000000+00:00</time></trkpt><trkpt lat="22.474115" lon="103.966324"><ele>90.0</ele><time>2011-04-22T01:51:50.0000000+00:00</time></trkpt><trkpt lat="22.473951" lon="103.966057"><ele>89.4</ele><time>2011-04-22T01:51:55.0000000+00:00</time></trkpt><trkpt lat="22.473745" lon="103.965843"><ele>88.5</ele><time>2011-04-22T01:52:00.0000000+00:00</time></trkpt><trkpt lat="22.47349" lon="103.965698"><ele>87.9</ele><time>2011-04-22T01:52:05.0000000+00:00</time></trkpt><trkpt lat="22.473228" lon="103.965637"><ele>88.3</ele><time>2011-04-22T01:52:10.0000000+00:00</time></trkpt><trkpt lat="22.472946" lon="103.96563"><ele>87.9</ele><time>2011-04-22T01:52:15.0000000+00:00</time></trkpt><trkpt lat="22.472654" lon="103.965622"><ele>87.7</ele><time>2011-04-22T01:52:20.0000000+00:00</time></trkpt><trkpt lat="22.472382" lon="103.965515"><ele>87.6</ele><time>2011-04-22T01:52:25.0000000+00:00</time></trkpt><trkpt lat="22.472191" lon="103.965317"><ele>87.1</ele><time>2011-04-22T01:52:30.0000000+00:00</time></trkpt><trkpt lat="22.472048" lon="103.96508"><ele>87.3</ele><time>2011-04-22T01:52:35.0000000+00:00</time></trkpt><trkpt lat="22.471893" lon="103.964844"><ele>87.2</ele><time>2011-04-22T01:52:40.0000000+00:00</time></trkpt><trkpt lat="22.471706" lon="103.96463"><ele>87.1</ele><time>2011-04-22T01:52:45.0000000+00:00</time></trkpt><trkpt lat="22.471508" lon="103.964432"><ele>87.3</ele><time>2011-04-22T01:52:50.0000000+00:00</time></trkpt><trkpt lat="22.471333" lon="103.964241"><ele>88.3</ele><time>2011-04-22T01:52:55.0000000+00:00</time></trkpt><trkpt lat="22.471186" lon="103.964096"><ele>89.0</ele><time>2011-04-22T01:53:00.0000000+00:00</time></trkpt><trkpt lat="22.471043" lon="103.963966"><ele>89.9</ele><time>2011-04-22T01:53:05.0000000+00:00</time></trkpt><trkpt lat="22.470886" lon="103.963882"><ele>90.7</ele><time>2011-04-22T01:53:10.0000000+00:00</time></trkpt><trkpt lat="22.470676" lon="103.963821"><ele>91.4</ele><time>2011-04-22T01:53:15.0000000+00:00</time></trkpt><trkpt lat="22.47047" lon="103.963753"><ele>92.1</ele><time>2011-04-22T01:53:20.0000000+00:00</time></trkpt><trkpt lat="22.470293" lon="103.9636"><ele>92.5</ele><time>2011-04-22T01:53:25.0000000+00:00</time></trkpt><trkpt lat="22.470156" lon="103.963371"><ele>92.3</ele><time>2011-04-22T01:53:30.0000000+00:00</time></trkpt><trkpt lat="22.469994" lon="103.963066"><ele>91.2</ele><time>2011-04-22T01:53:35.0000000+00:00</time></trkpt><trkpt lat="22.469812" lon="103.962723"><ele>89.7</ele><time>2011-04-22T01:53:40.0000000+00:00</time></trkpt><trkpt lat="22.469629" lon="103.962364"><ele>87.4</ele><time>2011-04-22T01:53:45.0000000+00:00</time></trkpt><trkpt lat="22.469435" lon="103.96199"><ele>86.6</ele><time>2011-04-22T01:53:50.0000000+00:00</time></trkpt><trkpt lat="22.469173" lon="103.9617"><ele>87.2</ele><time>2011-04-22T01:53:55.0000000+00:00</time></trkpt><trkpt lat="22.46887" lon="103.961601"><ele>87.8</ele><time>2011-04-22T01:54:00.0000000+00:00</time></trkpt><trkpt lat="22.468582" lon="103.961647"><ele>87.7</ele><time>2011-04-22T01:54:05.0000000+00:00</time></trkpt><trkpt lat="22.468321" lon="103.961792"><ele>88.8</ele><time>2011-04-22T01:54:10.0000000+00:00</time></trkpt><trkpt lat="22.468107" lon="103.96199"><ele>89.1</ele><time>2011-04-22T01:54:15.0000000+00:00</time></trkpt><trkpt lat="22.467932" lon="103.962181"><ele>89.5</ele><time>2011-04-22T01:54:20.0000000+00:00</time></trkpt><trkpt lat="22.467756" lon="103.962372"><ele>89.4</ele><time>2011-04-22T01:54:25.0000000+00:00</time></trkpt><trkpt lat="22.467588" lon="103.962585"><ele>89.0</ele><time>2011-04-22T01:54:30.0000000+00:00</time></trkpt><trkpt lat="22.467449" lon="103.962845"><ele>88.4</ele><time>2011-04-22T01:54:35.0000000+00:00</time></trkpt><trkpt lat="22.467321" lon="103.963142"><ele>88.9</ele><time>2011-04-22T01:54:40.0000000+00:00</time></trkpt><trkpt lat="22.467173" lon="103.963387"><ele>90.3</ele><time>2011-04-22T01:54:45.0000000+00:00</time></trkpt><trkpt lat="22.46698" lon="103.963547"><ele>90.3</ele><time>2011-04-22T01:54:50.0000000+00:00</time></trkpt><trkpt lat="22.466763" lon="103.963676"><ele>89.6</ele><time>2011-04-22T01:54:55.0000000+00:00</time></trkpt><trkpt lat="22.466503" lon="103.963707"><ele>89.7</ele><time>2011-04-22T01:55:00.0000000+00:00</time></trkpt><trkpt lat="22.466297" lon="103.963554"><ele>90.8</ele><time>2011-04-22T01:55:05.0000000+00:00</time></trkpt><trkpt lat="22.466185" lon="103.96331"><ele>91.0</ele><time>2011-04-22T01:55:10.0000000+00:00</time></trkpt><trkpt lat="22.466066" lon="103.963036"><ele>89.9</ele><time>2011-04-22T01:55:15.0000000+00:00</time></trkpt><trkpt lat="22.465885" lon="103.962791"><ele>90.5</ele><time>2011-04-22T01:55:20.0000000+00:00</time></trkpt><trkpt lat="22.465675" lon="103.962608"><ele>90.7</ele><time>2011-04-22T01:55:25.0000000+00:00</time></trkpt><trkpt lat="22.465477" lon="103.962463"><ele>91.1</ele><time>2011-04-22T01:55:30.0000000+00:00</time></trkpt><trkpt lat="22.465281" lon="103.962311"><ele>92.3</ele><time>2011-04-22T01:55:35.0000000+00:00</time></trkpt><trkpt lat="22.46512" lon="103.962196"><ele>93.2</ele><time>2011-04-22T01:55:40.0000000+00:00</time></trkpt><trkpt lat="22.464972" lon="103.962082"><ele>94.1</ele><time>2011-04-22T01:55:45.0000000+00:00</time></trkpt><trkpt lat="22.4648" lon="103.961929"><ele>93.3</ele><time>2011-04-22T01:55:50.0000000+00:00</time></trkpt><trkpt lat="22.464676" lon="103.961823"><ele>91.8</ele><time>2011-04-22T01:55:55.0000000+00:00</time></trkpt><trkpt lat="22.464619" lon="103.961807"><ele>91.2</ele><time>2011-04-22T01:56:00.0000000+00:00</time></trkpt><trkpt lat="22.464594" lon="103.961823"><ele>91.1</ele><time>2011-04-22T01:56:05.0000000+00:00</time></trkpt><trkpt lat="22.464596" lon="103.96183"><ele>91.1</ele><time>2011-04-22T01:56:10.0000000+00:00</time></trkpt><trkpt lat="22.464596" lon="103.96183"><ele>91.1</ele><time>2011-04-22T01:56:15.0000000+00:00</time></trkpt><trkpt lat="22.464596" lon="103.96183"><ele>91.2</ele><time>2011-04-22T01:56:20.0000000+00:00</time></trkpt><trkpt lat="22.464596" lon="103.961823"><ele>91.2</ele><time>2011-04-22T01:56:25.0000000+00:00</time></trkpt><trkpt lat="22.464594" lon="103.961823"><ele>91.1</ele><time>2011-04-22T01:56:30.0000000+00:00</time></trkpt><trkpt lat="22.46459" lon="103.961815"><ele>91.1</ele><time>2011-04-22T01:56:35.0000000+00:00</time></trkpt><trkpt lat="22.46459" lon="103.961823"><ele>91.2</ele><time>2011-04-22T01:56:40.0000000+00:00</time></trkpt><trkpt lat="22.464588" lon="103.961823"><ele>91.2</ele><time>2011-04-22T01:56:45.0000000+00:00</time></trkpt><trkpt lat="22.46459" lon="103.961823"><ele>91.2</ele><time>2011-04-22T01:56:50.0000000+00:00</time></trkpt><trkpt lat="22.46459" lon="103.961823"><ele>91.2</ele><time>2011-04-22T01:56:55.0000000+00:00</time></trkpt><trkpt lat="22.46459" lon="103.961823"><ele>91.2</ele><time>2011-04-22T01:57:00.0000000+00:00</time></trkpt><trkpt lat="22.464598" lon="103.961823"><ele>91.2</ele><time>2011-04-22T01:57:05.0000000+00:00</time></trkpt><trkpt lat="22.464603" lon="103.961823"><ele>90.2</ele><time>2011-04-22T01:57:10.0000000+00:00</time></trkpt><trkpt lat="22.4646" lon="103.96183"><ele>89.8</ele><time>2011-04-22T01:57:15.0000000+00:00</time></trkpt><trkpt lat="22.464586" lon="103.961815"><ele>89.5</ele><time>2011-04-22T01:57:20.0000000+00:00</time></trkpt><trkpt lat="22.464586" lon="103.961815"><ele>89.3</ele><time>2011-04-22T01:57:25.0000000+00:00</time></trkpt><trkpt lat="22.464563" lon="103.961754"><ele>89.3</ele><time>2011-04-22T01:57:30.0000000+00:00</time></trkpt><trkpt lat="22.464388" lon="103.961662"><ele>88.6</ele><time>2011-04-22T01:57:35.0000000+00:00</time></trkpt><trkpt lat="22.464062" lon="103.961647"><ele>86.6</ele><time>2011-04-22T01:57:40.0000000+00:00</time></trkpt><trkpt lat="22.463684" lon="103.961708"><ele>86.2</ele><time>2011-04-22T01:57:45.0000000+00:00</time></trkpt><trkpt lat="22.463312" lon="103.961777"><ele>86.8</ele><time>2011-04-22T01:57:50.0000000+00:00</time></trkpt><trkpt lat="22.462946" lon="103.961884"><ele>88.0</ele><time>2011-04-22T01:57:55.0000000+00:00</time></trkpt><trkpt lat="22.462593" lon="103.962021"><ele>88.5</ele><time>2011-04-22T01:58:00.0000000+00:00</time></trkpt><trkpt lat="22.462225" lon="103.962151"><ele>89.6</ele><time>2011-04-22T01:58:05.0000000+00:00</time></trkpt><trkpt lat="22.461885" lon="103.962334"><ele>90.2</ele><time>2011-04-22T01:58:10.0000000+00:00</time></trkpt><trkpt lat="22.461576" lon="103.962563"><ele>90.8</ele><time>2011-04-22T01:58:15.0000000+00:00</time></trkpt><trkpt lat="22.461298" lon="103.962723"><ele>92.3</ele><time>2011-04-22T01:58:20.0000000+00:00</time></trkpt><trkpt lat="22.461054" lon="103.962685"><ele>93.1</ele><time>2011-04-22T01:58:25.0000000+00:00</time></trkpt><trkpt lat="22.460886" lon="103.96254"><ele>94.7</ele><time>2011-04-22T01:58:30.0000000+00:00</time></trkpt><trkpt lat="22.460743" lon="103.962387"><ele>96.4</ele><time>2011-04-22T01:58:35.0000000+00:00</time></trkpt><trkpt lat="22.460606" lon="103.962242"><ele>97.4</ele><time>2011-04-22T01:58:40.0000000+00:00</time></trkpt><trkpt lat="22.460455" lon="103.962151"><ele>97.8</ele><time>2011-04-22T01:58:45.0000000+00:00</time></trkpt><trkpt lat="22.460302" lon="103.96209"><ele>98.8</ele><time>2011-04-22T01:58:50.0000000+00:00</time></trkpt><trkpt lat="22.460165" lon="103.962029"><ele>98.8</ele><time>2011-04-22T01:58:55.0000000+00:00</time></trkpt><trkpt lat="22.460032" lon="103.961937"><ele>98.9</ele><time>2011-04-22T01:59:00.0000000+00:00</time></trkpt><trkpt lat="22.459909" lon="103.9618"><ele>98.5</ele><time>2011-04-22T01:59:05.0000000+00:00</time></trkpt><trkpt lat="22.459793" lon="103.961571"><ele>97.3</ele><time>2011-04-22T01:59:10.0000000+00:00</time></trkpt><trkpt lat="22.459681" lon="103.961273"><ele>95.4</ele><time>2011-04-22T01:59:15.0000000+00:00</time></trkpt><trkpt lat="22.459518" lon="103.960991"><ele>94.4</ele><time>2011-04-22T01:59:20.0000000+00:00</time></trkpt><trkpt lat="22.459253" lon="103.9608"><ele>94.3</ele><time>2011-04-22T01:59:25.0000000+00:00</time></trkpt><trkpt lat="22.458981" lon="103.960609"><ele>93.2</ele><time>2011-04-22T01:59:30.0000000+00:00</time></trkpt><trkpt lat="22.458757" lon="103.960335"><ele>91.4</ele><time>2011-04-22T01:59:35.0000000+00:00</time></trkpt><trkpt lat="22.45867" lon="103.960144"><ele>90.8</ele><time>2011-04-22T01:59:40.0000000+00:00</time></trkpt><trkpt lat="22.458637" lon="103.960037"><ele>90.9</ele><time>2011-04-22T01:59:45.0000000+00:00</time></trkpt><trkpt lat="22.458601" lon="103.959892"><ele>90.5</ele><time>2011-04-22T01:59:50.0000000+00:00</time></trkpt><trkpt lat="22.458548" lon="103.959717"><ele>90.0</ele><time>2011-04-22T01:59:55.0000000+00:00</time></trkpt><trkpt lat="22.458511" lon="103.959541"><ele>89.1</ele><time>2011-04-22T02:00:00.0000000+00:00</time></trkpt><trkpt lat="22.458464" lon="103.959465"><ele>88.6</ele><time>2011-04-22T02:00:05.0000000+00:00</time></trkpt><trkpt lat="22.458448" lon="103.959442"><ele>89.3</ele><time>2011-04-22T02:00:10.0000000+00:00</time></trkpt><trkpt lat="22.45845" lon="103.959442"><ele>89.4</ele><time>2011-04-22T02:00:15.0000000+00:00</time></trkpt><trkpt lat="22.45845" lon="103.959435"><ele>89.3</ele><time>2011-04-22T02:00:20.0000000+00:00</time></trkpt><trkpt lat="22.458447" lon="103.959427"><ele>89.3</ele><time>2011-04-22T02:00:25.0000000+00:00</time></trkpt><trkpt lat="22.458441" lon="103.959419"><ele>89.4</ele><time>2011-04-22T02:00:30.0000000+00:00</time></trkpt><trkpt lat="22.458441" lon="103.959419"><ele>89.4</ele><time>2011-04-22T02:00:35.0000000+00:00</time></trkpt><trkpt lat="22.458441" lon="103.959419"><ele>89.4</ele><time>2011-04-22T02:00:40.0000000+00:00</time></trkpt><trkpt lat="22.458441" lon="103.959419"><ele>89.3</ele><time>2011-04-22T02:00:45.0000000+00:00</time></trkpt><trkpt lat="22.458441" lon="103.959419"><ele>89.3</ele><time>2011-04-22T02:00:50.0000000+00:00</time></trkpt><trkpt lat="22.458443" lon="103.959419"><ele>89.2</ele><time>2011-04-22T02:00:55.0000000+00:00</time></trkpt><trkpt lat="22.458443" lon="103.959419"><ele>89.2</ele><time>2011-04-22T02:01:00.0000000+00:00</time></trkpt><trkpt lat="22.458443" lon="103.959419"><ele>89.2</ele><time>2011-04-22T02:01:05.0000000+00:00</time></trkpt><trkpt lat="22.458445" lon="103.959419"><ele>89.2</ele><time>2011-04-22T02:01:10.0000000+00:00</time></trkpt><trkpt lat="22.458445" lon="103.959419"><ele>89.2</ele><time>2011-04-22T02:01:15.0000000+00:00</time></trkpt><trkpt lat="22.458445" lon="103.959419"><ele>89.1</ele><time>2011-04-22T02:01:20.0000000+00:00</time></trkpt><trkpt lat="22.458445" lon="103.959419"><ele>89.1</ele><time>2011-04-22T02:01:25.0000000+00:00</time></trkpt><trkpt lat="22.458445" lon="103.959419"><ele>89.1</ele><time>2011-04-22T02:01:30.0000000+00:00</time></trkpt><trkpt lat="22.458445" lon="103.959419"><ele>89.2</ele><time>2011-04-22T02:01:35.0000000+00:00</time></trkpt><trkpt lat="22.458445" lon="103.959419"><ele>89.2</ele><time>2011-04-22T02:01:40.0000000+00:00</time></trkpt><trkpt lat="22.458445" lon="103.959419"><ele>89.2</ele><time>2011-04-22T02:01:45.0000000+00:00</time></trkpt><trkpt lat="22.458445" lon="103.959419"><ele>89.2</ele><time>2011-04-22T02:01:50.0000000+00:00</time></trkpt><trkpt lat="22.458445" lon="103.959419"><ele>89.2</ele><time>2011-04-22T02:01:55.0000000+00:00</time></trkpt><trkpt lat="22.458445" lon="103.959419"><ele>89.2</ele><time>2011-04-22T02:02:00.0000000+00:00</time></trkpt><trkpt lat="22.458445" lon="103.959419"><ele>89.2</ele><time>2011-04-22T02:02:05.0000000+00:00</time></trkpt><trkpt lat="22.458445" lon="103.959419"><ele>89.2</ele><time>2011-04-22T02:02:10.0000000+00:00</time></trkpt><trkpt lat="22.458447" lon="103.959419"><ele>89.2</ele><time>2011-04-22T02:02:15.0000000+00:00</time></trkpt><trkpt lat="22.458447" lon="103.959419"><ele>89.1</ele><time>2011-04-22T02:02:20.0000000+00:00</time></trkpt><trkpt lat="22.458447" lon="103.959419"><ele>89.1</ele><time>2011-04-22T02:02:25.0000000+00:00</time></trkpt><trkpt lat="22.458447" lon="103.959419"><ele>89.1</ele><time>2011-04-22T02:02:30.0000000+00:00</time></trkpt><trkpt lat="22.458447" lon="103.959419"><ele>89.1</ele><time>2011-04-22T02:02:35.0000000+00:00</time></trkpt><trkpt lat="22.458447" lon="103.959419"><ele>89.0</ele><time>2011-04-22T02:02:40.0000000+00:00</time></trkpt><trkpt lat="22.458447" lon="103.959419"><ele>89.0</ele><time>2011-04-22T02:02:45.0000000+00:00</time></trkpt><trkpt lat="22.458447" lon="103.959419"><ele>89.0</ele><time>2011-04-22T02:02:50.0000000+00:00</time></trkpt><trkpt lat="22.458447" lon="103.959419"><ele>89.0</ele><time>2011-04-22T02:02:55.0000000+00:00</time></trkpt><trkpt lat="22.458447" lon="103.959419"><ele>89.0</ele><time>2011-04-22T02:03:00.0000000+00:00</time></trkpt><trkpt lat="22.458447" lon="103.959419"><ele>89.0</ele><time>2011-04-22T02:03:05.0000000+00:00</time></trkpt><trkpt lat="22.458448" lon="103.959419"><ele>89.0</ele><time>2011-04-22T02:03:10.0000000+00:00</time></trkpt><trkpt lat="22.458448" lon="103.959419"><ele>89.0</ele><time>2011-04-22T02:03:15.0000000+00:00</time></trkpt><trkpt lat="22.458448" lon="103.959427"><ele>88.9</ele><time>2011-04-22T02:03:20.0000000+00:00</time></trkpt><trkpt lat="22.458448" lon="103.959427"><ele>88.9</ele><time>2011-04-22T02:03:25.0000000+00:00</time></trkpt><trkpt lat="22.458448" lon="103.959427"><ele>88.9</ele><time>2011-04-22T02:03:30.0000000+00:00</time></trkpt><trkpt lat="22.458448" lon="103.959427"><ele>88.9</ele><time>2011-04-22T02:03:35.0000000+00:00</time></trkpt><trkpt lat="22.458448" lon="103.959427"><ele>88.9</ele><time>2011-04-22T02:03:40.0000000+00:00</time></trkpt><trkpt lat="22.458448" lon="103.959427"><ele>88.9</ele><time>2011-04-22T02:03:45.0000000+00:00</time></trkpt><trkpt lat="22.458448" lon="103.959427"><ele>88.9</ele><time>2011-04-22T02:03:50.0000000+00:00</time></trkpt><trkpt lat="22.458448" lon="103.959427"><ele>88.9</ele><time>2011-04-22T02:03:55.0000000+00:00</time></trkpt><trkpt lat="22.458448" lon="103.959427"><ele>88.9</ele><time>2011-04-22T02:04:00.0000000+00:00</time></trkpt><trkpt lat="22.458448" lon="103.959427"><ele>88.9</ele><time>2011-04-22T02:04:05.0000000+00:00</time></trkpt><trkpt lat="22.458448" lon="103.959427"><ele>88.9</ele><time>2011-04-22T02:04:10.0000000+00:00</time></trkpt><trkpt lat="22.458435" lon="103.959373"><ele>89.0</ele><time>2011-04-22T02:04:15.0000000+00:00</time></trkpt><trkpt lat="22.45842" lon="103.959229"><ele>89.3</ele><time>2011-04-22T02:04:20.0000000+00:00</time></trkpt><trkpt lat="22.458319" lon="103.958992"><ele>88.3</ele><time>2011-04-22T02:04:25.0000000+00:00</time></trkpt><trkpt lat="22.458223" lon="103.958763"><ele>87.6</ele><time>2011-04-22T02:04:30.0000000+00:00</time></trkpt><trkpt lat="22.458155" lon="103.958603"><ele>87.8</ele><time>2011-04-22T02:04:35.0000000+00:00</time></trkpt><trkpt lat="22.458096" lon="103.958458"><ele>89.4</ele><time>2011-04-22T02:04:40.0000000+00:00</time></trkpt><trkpt lat="22.458023" lon="103.958282"><ele>91.3</ele><time>2011-04-22T02:04:45.0000000+00:00</time></trkpt><trkpt lat="22.45797" lon="103.958138"><ele>92.4</ele><time>2011-04-22T02:04:50.0000000+00:00</time></trkpt><trkpt lat="22.457907" lon="103.958"><ele>94.2</ele><time>2011-04-22T02:04:55.0000000+00:00</time></trkpt><trkpt lat="22.457819" lon="103.957848"><ele>95.0</ele><time>2011-04-22T02:05:00.0000000+00:00</time></trkpt><trkpt lat="22.457676" lon="103.957733"><ele>95.1</ele><time>2011-04-22T02:05:05.0000000+00:00</time></trkpt><trkpt lat="22.457502" lon="103.957634"><ele>94.0</ele><time>2011-04-22T02:05:10.0000000+00:00</time></trkpt><trkpt lat="22.457336" lon="103.957504"><ele>93.6</ele><time>2011-04-22T02:05:15.0000000+00:00</time></trkpt><trkpt lat="22.457207" lon="103.957314"><ele>93.8</ele><time>2011-04-22T02:05:20.0000000+00:00</time></trkpt><trkpt lat="22.457106" lon="103.9571"><ele>93.7</ele><time>2011-04-22T02:05:25.0000000+00:00</time></trkpt><trkpt lat="22.457026" lon="103.956879"><ele>93.5</ele><time>2011-04-22T02:05:30.0000000+00:00</time></trkpt><trkpt lat="22.457003" lon="103.956642"><ele>93.1</ele><time>2011-04-22T02:05:35.0000000+00:00</time></trkpt><trkpt lat="22.457018" lon="103.95639"><ele>92.1</ele><time>2011-04-22T02:05:40.0000000+00:00</time></trkpt><trkpt lat="22.45706" lon="103.956062"><ele>91.4</ele><time>2011-04-22T02:05:45.0000000+00:00</time></trkpt><trkpt lat="22.457115" lon="103.955704"><ele>91.0</ele><time>2011-04-22T02:05:50.0000000+00:00</time></trkpt><trkpt lat="22.457186" lon="103.955391"><ele>91.0</ele><time>2011-04-22T02:05:55.0000000+00:00</time></trkpt><trkpt lat="22.457327" lon="103.955154"><ele>91.5</ele><time>2011-04-22T02:06:00.0000000+00:00</time></trkpt><trkpt lat="22.457476" lon="103.954941"><ele>92.6</ele><time>2011-04-22T02:06:05.0000000+00:00</time></trkpt><trkpt lat="22.457624" lon="103.954735"><ele>94.4</ele><time>2011-04-22T02:06:10.0000000+00:00</time></trkpt><trkpt lat="22.457735" lon="103.954529"><ele>96.0</ele><time>2011-04-22T02:06:15.0000000+00:00</time></trkpt><trkpt lat="22.457808" lon="103.9543"><ele>97.9</ele><time>2011-04-22T02:06:20.0000000+00:00</time></trkpt><trkpt lat="22.457829" lon="103.954102"><ele>99.8</ele><time>2011-04-22T02:06:25.0000000+00:00</time></trkpt><trkpt lat="22.457804" lon="103.953835"><ele>101.1</ele><time>2011-04-22T02:06:30.0000000+00:00</time></trkpt><trkpt lat="22.457733" lon="103.953613"><ele>104.1</ele><time>2011-04-22T02:06:35.0000000+00:00</time></trkpt><trkpt lat="22.45767" lon="103.95343"><ele>106.5</ele><time>2011-04-22T02:06:40.0000000+00:00</time></trkpt><trkpt lat="22.457615" lon="103.953255"><ele>106.8</ele><time>2011-04-22T02:06:45.0000000+00:00</time></trkpt><trkpt lat="22.457602" lon="103.953079"><ele>104.9</ele><time>2011-04-22T02:06:50.0000000+00:00</time></trkpt><trkpt lat="22.457634" lon="103.952911"><ele>106.9</ele><time>2011-04-22T02:06:55.0000000+00:00</time></trkpt><trkpt lat="22.457708" lon="103.952751"><ele>109.9</ele><time>2011-04-22T02:07:00.0000000+00:00</time></trkpt><trkpt lat="22.457819" lon="103.952637"><ele>112.1</ele><time>2011-04-22T02:07:05.0000000+00:00</time></trkpt><trkpt lat="22.457935" lon="103.952538"><ele>114.4</ele><time>2011-04-22T02:07:10.0000000+00:00</time></trkpt><trkpt lat="22.458052" lon="103.952454"><ele>116.1</ele><time>2011-04-22T02:07:15.0000000+00:00</time></trkpt><trkpt lat="22.458178" lon="103.952362"><ele>118.0</ele><time>2011-04-22T02:07:20.0000000+00:00</time></trkpt><trkpt lat="22.4583" lon="103.952271"><ele>119.1</ele><time>2011-04-22T02:07:25.0000000+00:00</time></trkpt><trkpt lat="22.45842" lon="103.952179"><ele>119.7</ele><time>2011-04-22T02:07:30.0000000+00:00</time></trkpt><trkpt lat="22.458549" lon="103.952087"><ele>120.6</ele><time>2011-04-22T02:07:35.0000000+00:00</time></trkpt><trkpt lat="22.458673" lon="103.951988"><ele>121.6</ele><time>2011-04-22T02:07:40.0000000+00:00</time></trkpt><trkpt lat="22.458775" lon="103.951904"><ele>122.4</ele><time>2011-04-22T02:07:45.0000000+00:00</time></trkpt><trkpt lat="22.458866" lon="103.951797"><ele>122.7</ele><time>2011-04-22T02:07:50.0000000+00:00</time></trkpt><trkpt lat="22.458944" lon="103.951675"><ele>124.1</ele><time>2011-04-22T02:07:55.0000000+00:00</time></trkpt><trkpt lat="22.459013" lon="103.951553"><ele>123.8</ele><time>2011-04-22T02:08:00.0000000+00:00</time></trkpt><trkpt lat="22.459078" lon="103.951431"><ele>125.4</ele><time>2011-04-22T02:08:05.0000000+00:00</time></trkpt><trkpt lat="22.459154" lon="103.951302"><ele>127.1</ele><time>2011-04-22T02:08:10.0000000+00:00</time></trkpt><trkpt lat="22.459251" lon="103.951195"><ele>128.4</ele><time>2011-04-22T02:08:15.0000000+00:00</time></trkpt><trkpt lat="22.459356" lon="103.951111"><ele>130.8</ele><time>2011-04-22T02:08:20.0000000+00:00</time></trkpt><trkpt lat="22.459459" lon="103.951019"><ele>131.1</ele><time>2011-04-22T02:08:25.0000000+00:00</time></trkpt><trkpt lat="22.45957" lon="103.950935"><ele>132.6</ele><time>2011-04-22T02:08:30.0000000+00:00</time></trkpt><trkpt lat="22.459663" lon="103.950821"><ele>133.3</ele><time>2011-04-22T02:08:35.0000000+00:00</time></trkpt><trkpt lat="22.459736" lon="103.950653"><ele>132.9</ele><time>2011-04-22T02:08:40.0000000+00:00</time></trkpt><trkpt lat="22.45981" lon="103.950455"><ele>132.5</ele><time>2011-04-22T02:08:45.0000000+00:00</time></trkpt><trkpt lat="22.459887" lon="103.950233"><ele>131.0</ele><time>2011-04-22T02:08:50.0000000+00:00</time></trkpt><trkpt lat="22.459984" lon="103.949989"><ele>130.4</ele><time>2011-04-22T02:08:55.0000000+00:00</time></trkpt><trkpt lat="22.46015" lon="103.949738"><ele>128.6</ele><time>2011-04-22T02:09:00.0000000+00:00</time></trkpt><trkpt lat="22.460392" lon="103.949509"><ele>127.1</ele><time>2011-04-22T02:09:05.0000000+00:00</time></trkpt><trkpt lat="22.46063" lon="103.949234"><ele>126.3</ele><time>2011-04-22T02:09:10.0000000+00:00</time></trkpt><trkpt lat="22.460842" lon="103.948898"><ele>125.8</ele><time>2011-04-22T02:09:15.0000000+00:00</time></trkpt><trkpt lat="22.461069" lon="103.94854"><ele>124.0</ele><time>2011-04-22T02:09:20.0000000+00:00</time></trkpt><trkpt lat="22.461338" lon="103.948219"><ele>122.7</ele><time>2011-04-22T02:09:25.0000000+00:00</time></trkpt><trkpt lat="22.461637" lon="103.947975"><ele>122.8</ele><time>2011-04-22T02:09:30.0000000+00:00</time></trkpt><trkpt lat="22.461927" lon="103.9478"><ele>122.1</ele><time>2011-04-22T02:09:35.0000000+00:00</time></trkpt><trkpt lat="22.462206" lon="103.947701"><ele>120.5</ele><time>2011-04-22T02:09:40.0000000+00:00</time></trkpt><trkpt lat="22.462492" lon="103.947632"><ele>117.3</ele><time>2011-04-22T02:09:45.0000000+00:00</time></trkpt><trkpt lat="22.46278" lon="103.947571"><ele>114.1</ele><time>2011-04-22T02:09:50.0000000+00:00</time></trkpt><trkpt lat="22.463078" lon="103.947495"><ele>112.5</ele><time>2011-04-22T02:09:55.0000000+00:00</time></trkpt><trkpt lat="22.46339" lon="103.947411"><ele>111.9</ele><time>2011-04-22T02:10:00.0000000+00:00</time></trkpt><trkpt lat="22.463665" lon="103.947296"><ele>115.0</ele><time>2011-04-22T02:10:05.0000000+00:00</time></trkpt><trkpt lat="22.463903" lon="103.947159"><ele>111.8</ele><time>2011-04-22T02:10:10.0000000+00:00</time></trkpt><trkpt lat="22.464058" lon="103.94696"><ele>111.9</ele><time>2011-04-22T02:10:15.0000000+00:00</time></trkpt><trkpt lat="22.464178" lon="103.946716"><ele>112.3</ele><time>2011-04-22T02:10:20.0000000+00:00</time></trkpt><trkpt lat="22.464272" lon="103.946472"><ele>112.3</ele><time>2011-04-22T02:10:25.0000000+00:00</time></trkpt><trkpt lat="22.464359" lon="103.946259"><ele>111.3</ele><time>2011-04-22T02:10:30.0000000+00:00</time></trkpt><trkpt lat="22.464434" lon="103.946068"><ele>111.5</ele><time>2011-04-22T02:10:35.0000000+00:00</time></trkpt><trkpt lat="22.464514" lon="103.945854"><ele>110.5</ele><time>2011-04-22T02:10:40.0000000+00:00</time></trkpt><trkpt lat="22.464602" lon="103.945625"><ele>108.4</ele><time>2011-04-22T02:10:45.0000000+00:00</time></trkpt><trkpt lat="22.464706" lon="103.945328"><ele>107.7</ele><time>2011-04-22T02:10:50.0000000+00:00</time></trkpt><trkpt lat="22.464827" lon="103.944977"><ele>107.6</ele><time>2011-04-22T02:10:55.0000000+00:00</time></trkpt><trkpt lat="22.464975" lon="103.944595"><ele>106.5</ele><time>2011-04-22T02:11:00.0000000+00:00</time></trkpt><trkpt lat="22.465115" lon="103.944229"><ele>105.7</ele><time>2011-04-22T02:11:05.0000000+00:00</time></trkpt><trkpt lat="22.465212" lon="103.94397"><ele>105.5</ele><time>2011-04-22T02:11:10.0000000+00:00</time></trkpt><trkpt lat="22.465275" lon="103.943649"><ele>104.6</ele><time>2011-04-22T02:11:15.0000000+00:00</time></trkpt><trkpt lat="22.465214" lon="103.943321"><ele>104.3</ele><time>2011-04-22T02:11:20.0000000+00:00</time></trkpt><trkpt lat="22.465029" lon="103.943047"><ele>102.9</ele><time>2011-04-22T02:11:25.0000000+00:00</time></trkpt><trkpt lat="22.464846" lon="103.942802"><ele>102.6</ele><time>2011-04-22T02:11:30.0000000+00:00</time></trkpt><trkpt lat="22.464674" lon="103.942581"><ele>101.5</ele><time>2011-04-22T02:11:35.0000000+00:00</time></trkpt><trkpt lat="22.464508" lon="103.94236"><ele>101.2</ele><time>2011-04-22T02:11:40.0000000+00:00</time></trkpt><trkpt lat="22.464363" lon="103.942169"><ele>101.0</ele><time>2011-04-22T02:11:45.0000000+00:00</time></trkpt><trkpt lat="22.464222" lon="103.941994"><ele>101.2</ele><time>2011-04-22T02:11:50.0000000+00:00</time></trkpt><trkpt lat="22.464077" lon="103.941795"><ele>101.5</ele><time>2011-04-22T02:11:55.0000000+00:00</time></trkpt><trkpt lat="22.46389" lon="103.941666"><ele>101.7</ele><time>2011-04-22T02:12:00.0000000+00:00</time></trkpt><trkpt lat="22.46373" lon="103.941673"><ele>102.4</ele><time>2011-04-22T02:12:05.0000000+00:00</time></trkpt><trkpt lat="22.463594" lon="103.94175"><ele>103.7</ele><time>2011-04-22T02:12:10.0000000+00:00</time></trkpt><trkpt lat="22.463465" lon="103.941856"><ele>106.0</ele><time>2011-04-22T02:12:15.0000000+00:00</time></trkpt><trkpt lat="22.463348" lon="103.941948"><ele>107.7</ele><time>2011-04-22T02:12:20.0000000+00:00</time></trkpt><trkpt lat="22.463236" lon="103.942047"><ele>108.4</ele><time>2011-04-22T02:12:25.0000000+00:00</time></trkpt><trkpt lat="22.463127" lon="103.942139"><ele>109.3</ele><time>2011-04-22T02:12:30.0000000+00:00</time></trkpt><trkpt lat="22.463017" lon="103.94223"><ele>110.2</ele><time>2011-04-22T02:12:35.0000000+00:00</time></trkpt><trkpt lat="22.462908" lon="103.942314"><ele>110.8</ele><time>2011-04-22T02:12:40.0000000+00:00</time></trkpt><trkpt lat="22.462805" lon="103.942398"><ele>111.6</ele><time>2011-04-22T02:12:45.0000000+00:00</time></trkpt><trkpt lat="22.462698" lon="103.942467"><ele>113.3</ele><time>2011-04-22T02:12:50.0000000+00:00</time></trkpt><trkpt lat="22.462599" lon="103.942535"><ele>114.8</ele><time>2011-04-22T02:12:55.0000000+00:00</time></trkpt><trkpt lat="22.4625" lon="103.942581"><ele>115.7</ele><time>2011-04-22T02:13:00.0000000+00:00</time></trkpt><trkpt lat="22.462404" lon="103.942627"><ele>116.7</ele><time>2011-04-22T02:13:05.0000000+00:00</time></trkpt><trkpt lat="22.462303" lon="103.942703"><ele>118.1</ele><time>2011-04-22T02:13:10.0000000+00:00</time></trkpt><trkpt lat="22.462166" lon="103.942772"><ele>119.0</ele><time>2011-04-22T02:13:15.0000000+00:00</time></trkpt><trkpt lat="22.462046" lon="103.942833"><ele>119.8</ele><time>2011-04-22T02:13:20.0000000+00:00</time></trkpt><trkpt lat="22.461937" lon="103.942894"><ele>120.8</ele><time>2011-04-22T02:13:25.0000000+00:00</time></trkpt><trkpt lat="22.461828" lon="103.942947"><ele>121.7</ele><time>2011-04-22T02:13:30.0000000+00:00</time></trkpt><trkpt lat="22.461725" lon="103.942978"><ele>122.8</ele><time>2011-04-22T02:13:35.0000000+00:00</time></trkpt><trkpt lat="22.461611" lon="103.942993"><ele>123.4</ele><time>2011-04-22T02:13:40.0000000+00:00</time></trkpt><trkpt lat="22.461504" lon="103.942986"><ele>123.7</ele><time>2011-04-22T02:13:45.0000000+00:00</time></trkpt><trkpt lat="22.461401" lon="103.942963"><ele>124.3</ele><time>2011-04-22T02:13:50.0000000+00:00</time></trkpt><trkpt lat="22.461311" lon="103.942924"><ele>124.9</ele><time>2011-04-22T02:13:55.0000000+00:00</time></trkpt><trkpt lat="22.461233" lon="103.942886"><ele>125.9</ele><time>2011-04-22T02:14:00.0000000+00:00</time></trkpt><trkpt lat="22.461174" lon="103.942841"><ele>126.3</ele><time>2011-04-22T02:14:05.0000000+00:00</time></trkpt><trkpt lat="22.461132" lon="103.94281"><ele>126.5</ele><time>2011-04-22T02:14:10.0000000+00:00</time></trkpt><trkpt lat="22.461132" lon="103.94281"><ele>126.1</ele><time>2011-04-22T02:14:15.0000000+00:00</time></trkpt><trkpt lat="22.461117" lon="103.94278"><ele>126.4</ele><time>2011-04-22T02:14:20.0000000+00:00</time></trkpt><trkpt lat="22.461046" lon="103.942711"><ele>127.6</ele><time>2011-04-22T02:14:25.0000000+00:00</time></trkpt><trkpt lat="22.460993" lon="103.942635"><ele>128.6</ele><time>2011-04-22T02:14:30.0000000+00:00</time></trkpt><trkpt lat="22.460949" lon="103.942574"><ele>129.4</ele><time>2011-04-22T02:14:35.0000000+00:00</time></trkpt><trkpt lat="22.460905" lon="103.94252"><ele>130.5</ele><time>2011-04-22T02:14:40.0000000+00:00</time></trkpt><trkpt lat="22.460861" lon="103.942467"><ele>131.7</ele><time>2011-04-22T02:14:45.0000000+00:00</time></trkpt><trkpt lat="22.460817" lon="103.942413"><ele>131.9</ele><time>2011-04-22T02:14:50.0000000+00:00</time></trkpt><trkpt lat="22.460777" lon="103.942345"><ele>131.9</ele><time>2011-04-22T02:14:55.0000000+00:00</time></trkpt><trkpt lat="22.460735" lon="103.942268"><ele>132.2</ele><time>2011-04-22T02:15:00.0000000+00:00</time></trkpt><trkpt lat="22.460691" lon="103.942192"><ele>132.9</ele><time>2011-04-22T02:15:05.0000000+00:00</time></trkpt><trkpt lat="22.460667" lon="103.942108"><ele>133.3</ele><time>2011-04-22T02:15:10.0000000+00:00</time></trkpt><trkpt lat="22.460642" lon="103.942032"><ele>133.5</ele><time>2011-04-22T02:15:15.0000000+00:00</time></trkpt><trkpt lat="22.460617" lon="103.941956"><ele>134.1</ele><time>2011-04-22T02:15:20.0000000+00:00</time></trkpt><trkpt lat="22.460598" lon="103.941872"><ele>134.7</ele><time>2011-04-22T02:15:25.0000000+00:00</time></trkpt><trkpt lat="22.460577" lon="103.941795"><ele>134.7</ele><time>2011-04-22T02:15:30.0000000+00:00</time></trkpt><trkpt lat="22.460571" lon="103.941711"><ele>135.0</ele><time>2011-04-22T02:15:35.0000000+00:00</time></trkpt><trkpt lat="22.460554" lon="103.941628"><ele>136.0</ele><time>2011-04-22T02:15:40.0000000+00:00</time></trkpt><trkpt lat="22.46052" lon="103.941544"><ele>136.3</ele><time>2011-04-22T02:15:45.0000000+00:00</time></trkpt><trkpt lat="22.460466" lon="103.941475"><ele>137.0</ele><time>2011-04-22T02:15:50.0000000+00:00</time></trkpt><trkpt lat="22.46039" lon="103.941444"><ele>137.7</ele><time>2011-04-22T02:15:55.0000000+00:00</time></trkpt><trkpt lat="22.460314" lon="103.941429"><ele>138.2</ele><time>2011-04-22T02:16:00.0000000+00:00</time></trkpt><trkpt lat="22.460251" lon="103.941429"><ele>138.4</ele><time>2011-04-22T02:16:05.0000000+00:00</time></trkpt><trkpt lat="22.460169" lon="103.941437"><ele>139.2</ele><time>2011-04-22T02:16:10.0000000+00:00</time></trkpt><trkpt lat="22.460085" lon="103.941437"><ele>140.2</ele><time>2011-04-22T02:16:15.0000000+00:00</time></trkpt><trkpt lat="22.460005" lon="103.941452"><ele>140.7</ele><time>2011-04-22T02:16:20.0000000+00:00</time></trkpt><trkpt lat="22.459929" lon="103.94146"><ele>141.1</ele><time>2011-04-22T02:16:25.0000000+00:00</time></trkpt><trkpt lat="22.459841" lon="103.94146"><ele>141.7</ele><time>2011-04-22T02:16:30.0000000+00:00</time></trkpt><trkpt lat="22.459789" lon="103.941452"><ele>142.1</ele><time>2011-04-22T02:16:35.0000000+00:00</time></trkpt><trkpt lat="22.459778" lon="103.941452"><ele>141.9</ele><time>2011-04-22T02:16:40.0000000+00:00</time></trkpt><trkpt lat="22.459743" lon="103.941452"><ele>142.6</ele><time>2011-04-22T02:16:45.0000000+00:00</time></trkpt><trkpt lat="22.459663" lon="103.941429"><ele>143.1</ele><time>2011-04-22T02:16:50.0000000+00:00</time></trkpt><trkpt lat="22.459597" lon="103.941391"><ele>143.8</ele><time>2011-04-22T02:16:55.0000000+00:00</time></trkpt><trkpt lat="22.459539" lon="103.941345"><ele>144.1</ele><time>2011-04-22T02:17:00.0000000+00:00</time></trkpt><trkpt lat="22.459488" lon="103.941284"><ele>144.7</ele><time>2011-04-22T02:17:05.0000000+00:00</time></trkpt><trkpt lat="22.459457" lon="103.941216"><ele>145.6</ele><time>2011-04-22T02:17:10.0000000+00:00</time></trkpt><trkpt lat="22.45944" lon="103.941147"><ele>146.5</ele><time>2011-04-22T02:17:15.0000000+00:00</time></trkpt><trkpt lat="22.459433" lon="103.941032"><ele>147.7</ele><time>2011-04-22T02:17:20.0000000+00:00</time></trkpt><trkpt lat="22.459452" lon="103.940918"><ele>149.0</ele><time>2011-04-22T02:17:25.0000000+00:00</time></trkpt><trkpt lat="22.45948" lon="103.940811"><ele>149.9</ele><time>2011-04-22T02:17:30.0000000+00:00</time></trkpt><trkpt lat="22.459476" lon="103.940781"><ele>150.3</ele><time>2011-04-22T02:17:35.0000000+00:00</time></trkpt><trkpt lat="22.459476" lon="103.940788"><ele>150.3</ele><time>2011-04-22T02:17:40.0000000+00:00</time></trkpt><trkpt lat="22.459494" lon="103.940742"><ele>151.1</ele><time>2011-04-22T02:17:45.0000000+00:00</time></trkpt><trkpt lat="22.459522" lon="103.940651"><ele>151.9</ele><time>2011-04-22T02:17:50.0000000+00:00</time></trkpt><trkpt lat="22.459549" lon="103.940559"><ele>152.9</ele><time>2011-04-22T02:17:55.0000000+00:00</time></trkpt><trkpt lat="22.459576" lon="103.940453"><ele>153.1</ele><time>2011-04-22T02:18:00.0000000+00:00</time></trkpt><trkpt lat="22.4596" lon="103.940361"><ele>153.8</ele><time>2011-04-22T02:18:05.0000000+00:00</time></trkpt><trkpt lat="22.459627" lon="103.940224"><ele>154.2</ele><time>2011-04-22T02:18:10.0000000+00:00</time></trkpt><trkpt lat="22.459627" lon="103.940178"><ele>154.8</ele><time>2011-04-22T02:18:15.0000000+00:00</time></trkpt><trkpt lat="22.459627" lon="103.940186"><ele>154.9</ele><time>2011-04-22T02:18:20.0000000+00:00</time></trkpt><trkpt lat="22.459631" lon="103.940186"><ele>155.0</ele><time>2011-04-22T02:18:25.0000000+00:00</time></trkpt><trkpt lat="22.459631" lon="103.940186"><ele>155.1</ele><time>2011-04-22T02:18:30.0000000+00:00</time></trkpt><trkpt lat="22.459631" lon="103.940186"><ele>155.2</ele><time>2011-04-22T02:18:35.0000000+00:00</time></trkpt><trkpt lat="22.459631" lon="103.940186"><ele>155.2</ele><time>2011-04-22T02:18:40.0000000+00:00</time></trkpt><trkpt lat="22.459631" lon="103.940186"><ele>155.2</ele><time>2011-04-22T02:18:45.0000000+00:00</time></trkpt><trkpt lat="22.459633" lon="103.940178"><ele>155.2</ele><time>2011-04-22T02:18:50.0000000+00:00</time></trkpt><trkpt lat="22.459635" lon="103.940163"><ele>155.6</ele><time>2011-04-22T02:18:55.0000000+00:00</time></trkpt><trkpt lat="22.45965" lon="103.940094"><ele>156.2</ele><time>2011-04-22T02:19:00.0000000+00:00</time></trkpt><trkpt lat="22.459648" lon="103.940086"><ele>156.7</ele><time>2011-04-22T02:19:05.0000000+00:00</time></trkpt><trkpt lat="22.459648" lon="103.940086"><ele>156.5</ele><time>2011-04-22T02:19:10.0000000+00:00</time></trkpt><trkpt lat="22.459646" lon="103.940086"><ele>156.3</ele><time>2011-04-22T02:19:15.0000000+00:00</time></trkpt><trkpt lat="22.459646" lon="103.940086"><ele>156.1</ele><time>2011-04-22T02:19:20.0000000+00:00</time></trkpt><trkpt lat="22.459646" lon="103.940086"><ele>156.1</ele><time>2011-04-22T02:19:25.0000000+00:00</time></trkpt><trkpt lat="22.459646" lon="103.940086"><ele>156.1</ele><time>2011-04-22T02:19:30.0000000+00:00</time></trkpt><trkpt lat="22.459646" lon="103.940086"><ele>156.1</ele><time>2011-04-22T02:19:35.0000000+00:00</time></trkpt><trkpt lat="22.459646" lon="103.940086"><ele>156.1</ele><time>2011-04-22T02:19:40.0000000+00:00</time></trkpt><trkpt lat="22.459646" lon="103.940086"><ele>156.1</ele><time>2011-04-22T02:19:45.0000000+00:00</time></trkpt><trkpt lat="22.459646" lon="103.940086"><ele>156.1</ele><time>2011-04-22T02:19:50.0000000+00:00</time></trkpt><trkpt lat="22.459646" lon="103.940086"><ele>156.2</ele><time>2011-04-22T02:19:55.0000000+00:00</time></trkpt><trkpt lat="22.459646" lon="103.940086"><ele>156.2</ele><time>2011-04-22T02:20:00.0000000+00:00</time></trkpt><trkpt lat="22.459646" lon="103.940086"><ele>156.2</ele><time>2011-04-22T02:20:05.0000000+00:00</time></trkpt><trkpt lat="22.459646" lon="103.940086"><ele>156.2</ele><time>2011-04-22T02:20:10.0000000+00:00</time></trkpt><trkpt lat="22.459646" lon="103.940086"><ele>156.2</ele><time>2011-04-22T02:20:15.0000000+00:00</time></trkpt><trkpt lat="22.459646" lon="103.940086"><ele>156.2</ele><time>2011-04-22T02:20:20.0000000+00:00</time></trkpt><trkpt lat="22.459646" lon="103.940086"><ele>156.2</ele><time>2011-04-22T02:20:25.0000000+00:00</time></trkpt><trkpt lat="22.459646" lon="103.940086"><ele>156.2</ele><time>2011-04-22T02:20:30.0000000+00:00</time></trkpt><trkpt lat="22.459648" lon="103.940086"><ele>156.2</ele><time>2011-04-22T02:20:35.0000000+00:00</time></trkpt><trkpt lat="22.459648" lon="103.940086"><ele>156.1</ele><time>2011-04-22T02:20:40.0000000+00:00</time></trkpt><trkpt lat="22.459648" lon="103.940086"><ele>156.1</ele><time>2011-04-22T02:20:45.0000000+00:00</time></trkpt><trkpt lat="22.459648" lon="103.940086"><ele>156.1</ele><time>2011-04-22T02:20:50.0000000+00:00</time></trkpt><trkpt lat="22.459646" lon="103.940086"><ele>156.1</ele><time>2011-04-22T02:20:55.0000000+00:00</time></trkpt><trkpt lat="22.459646" lon="103.940086"><ele>156.2</ele><time>2011-04-22T02:21:00.0000000+00:00</time></trkpt><trkpt lat="22.459646" lon="103.940086"><ele>156.2</ele><time>2011-04-22T02:21:05.0000000+00:00</time></trkpt><trkpt lat="22.459646" lon="103.940079"><ele>156.2</ele><time>2011-04-22T02:21:10.0000000+00:00</time></trkpt><trkpt lat="22.459646" lon="103.940079"><ele>156.3</ele><time>2011-04-22T02:21:15.0000000+00:00</time></trkpt><trkpt lat="22.459646" lon="103.940079"><ele>156.3</ele><time>2011-04-22T02:21:20.0000000+00:00</time></trkpt><trkpt lat="22.459648" lon="103.940079"><ele>156.3</ele><time>2011-04-22T02:21:25.0000000+00:00</time></trkpt><trkpt lat="22.459648" lon="103.940079"><ele>156.3</ele><time>2011-04-22T02:21:30.0000000+00:00</time></trkpt><trkpt lat="22.459648" lon="103.940079"><ele>156.3</ele><time>2011-04-22T02:21:35.0000000+00:00</time></trkpt><trkpt lat="22.459648" lon="103.940079"><ele>156.4</ele><time>2011-04-22T02:21:40.0000000+00:00</time></trkpt><trkpt lat="22.45965" lon="103.940079"><ele>156.4</ele><time>2011-04-22T02:21:45.0000000+00:00</time></trkpt><trkpt lat="22.45965" lon="103.940079"><ele>156.4</ele><time>2011-04-22T02:21:50.0000000+00:00</time></trkpt><trkpt lat="22.45965" lon="103.940079"><ele>156.4</ele><time>2011-04-22T02:21:55.0000000+00:00</time></trkpt><trkpt lat="22.45965" lon="103.940079"><ele>156.5</ele><time>2011-04-22T02:22:00.0000000+00:00</time></trkpt><trkpt lat="22.459648" lon="103.940079"><ele>156.5</ele><time>2011-04-22T02:22:05.0000000+00:00</time></trkpt><trkpt lat="22.459648" lon="103.940079"><ele>156.5</ele><time>2011-04-22T02:22:10.0000000+00:00</time></trkpt><trkpt lat="22.459648" lon="103.940079"><ele>156.6</ele><time>2011-04-22T02:22:15.0000000+00:00</time></trkpt><trkpt lat="22.459648" lon="103.940079"><ele>156.6</ele><time>2011-04-22T02:22:20.0000000+00:00</time></trkpt><trkpt lat="22.459648" lon="103.940079"><ele>156.7</ele><time>2011-04-22T02:22:25.0000000+00:00</time></trkpt><trkpt lat="22.459648" lon="103.940079"><ele>156.7</ele><time>2011-04-22T02:22:30.0000000+00:00</time></trkpt><trkpt lat="22.459648" lon="103.940079"><ele>156.7</ele><time>2011-04-22T02:22:35.0000000+00:00</time></trkpt><trkpt lat="22.459648" lon="103.940079"><ele>156.7</ele><time>2011-04-22T02:22:40.0000000+00:00</time></trkpt><trkpt lat="22.459646" lon="103.940086"><ele>157.3</ele><time>2011-04-22T02:22:45.0000000+00:00</time></trkpt><trkpt lat="22.459646" lon="103.940094"><ele>157.1</ele><time>2011-04-22T02:22:50.0000000+00:00</time></trkpt><trkpt lat="22.459648" lon="103.940094"><ele>157.1</ele><time>2011-04-22T02:22:55.0000000+00:00</time></trkpt><trkpt lat="22.459648" lon="103.940094"><ele>157.2</ele><time>2011-04-22T02:23:00.0000000+00:00</time></trkpt><trkpt lat="22.459648" lon="103.940094"><ele>157.2</ele><time>2011-04-22T02:23:05.0000000+00:00</time></trkpt><trkpt lat="22.459641" lon="103.94001"><ele>157.9</ele><time>2011-04-22T02:23:10.0000000+00:00</time></trkpt><trkpt lat="22.459639" lon="103.93988"><ele>158.5</ele><time>2011-04-22T02:23:15.0000000+00:00</time></trkpt><trkpt lat="22.459621" lon="103.939751"><ele>159.1</ele><time>2011-04-22T02:23:20.0000000+00:00</time></trkpt><trkpt lat="22.459604" lon="103.939621"><ele>160.4</ele><time>2011-04-22T02:23:25.0000000+00:00</time></trkpt><trkpt lat="22.459587" lon="103.939461"><ele>160.8</ele><time>2011-04-22T02:23:30.0000000+00:00</time></trkpt><trkpt lat="22.45956" lon="103.939308"><ele>162.5</ele><time>2011-04-22T02:23:35.0000000+00:00</time></trkpt><trkpt lat="22.459501" lon="103.939186"><ele>163.5</ele><time>2011-04-22T02:23:40.0000000+00:00</time></trkpt><trkpt lat="22.459393" lon="103.93911"><ele>163.9</ele><time>2011-04-22T02:23:45.0000000+00:00</time></trkpt><trkpt lat="22.459251" lon="103.939102"><ele>164.8</ele><time>2011-04-22T02:23:50.0000000+00:00</time></trkpt><trkpt lat="22.459101" lon="103.939133"><ele>167.0</ele><time>2011-04-22T02:23:55.0000000+00:00</time></trkpt><trkpt lat="22.458946" lon="103.939163"><ele>169.1</ele><time>2011-04-22T02:24:00.0000000+00:00</time></trkpt><trkpt lat="22.458809" lon="103.939194"><ele>172.2</ele><time>2011-04-22T02:24:05.0000000+00:00</time></trkpt><trkpt lat="22.458693" lon="103.939217"><ele>172.7</ele><time>2011-04-22T02:24:10.0000000+00:00</time></trkpt><trkpt lat="22.458586" lon="103.939278"><ele>173.5</ele><time>2011-04-22T02:24:15.0000000+00:00</time></trkpt><trkpt lat="22.45849" lon="103.939339"><ele>174.7</ele><time>2011-04-22T02:24:20.0000000+00:00</time></trkpt><trkpt lat="22.458384" lon="103.939384"><ele>175.9</ele><time>2011-04-22T02:24:25.0000000+00:00</time></trkpt><trkpt lat="22.458227" lon="103.93943"><ele>176.9</ele><time>2011-04-22T02:24:30.0000000+00:00</time></trkpt><trkpt lat="22.458086" lon="103.939369"><ele>178.3</ele><time>2011-04-22T02:24:35.0000000+00:00</time></trkpt><trkpt lat="22.457972" lon="103.939293"><ele>178.6</ele><time>2011-04-22T02:24:40.0000000+00:00</time></trkpt><trkpt lat="22.457878" lon="103.939186"><ele>178.7</ele><time>2011-04-22T02:24:45.0000000+00:00</time></trkpt><trkpt lat="22.457819" lon="103.939056"><ele>179.6</ele><time>2011-04-22T02:24:50.0000000+00:00</time></trkpt><trkpt lat="22.457825" lon="103.938927"><ele>180.8</ele><time>2011-04-22T02:24:55.0000000+00:00</time></trkpt><trkpt lat="22.457861" lon="103.93882"><ele>180.9</ele><time>2011-04-22T02:25:00.0000000+00:00</time></trkpt><trkpt lat="22.457924" lon="103.938698"><ele>181.6</ele><time>2011-04-22T02:25:05.0000000+00:00</time></trkpt><trkpt lat="22.457983" lon="103.938591"><ele>183.3</ele><time>2011-04-22T02:25:10.0000000+00:00</time></trkpt><trkpt lat="22.45804" lon="103.938477"><ele>184.9</ele><time>2011-04-22T02:25:15.0000000+00:00</time></trkpt><trkpt lat="22.45809" lon="103.938377"><ele>186.7</ele><time>2011-04-22T02:25:20.0000000+00:00</time></trkpt><trkpt lat="22.458141" lon="103.938271"><ele>188.8</ele><time>2011-04-22T02:25:25.0000000+00:00</time></trkpt><trkpt lat="22.458187" lon="103.938171"><ele>190.7</ele><time>2011-04-22T02:25:30.0000000+00:00</time></trkpt><trkpt lat="22.458237" lon="103.93808"><ele>192.4</ele><time>2011-04-22T02:25:35.0000000+00:00</time></trkpt><trkpt lat="22.458288" lon="103.937973"><ele>194.0</ele><time>2011-04-22T02:25:40.0000000+00:00</time></trkpt><trkpt lat="22.458349" lon="103.937866"><ele>195.7</ele><time>2011-04-22T02:25:45.0000000+00:00</time></trkpt><trkpt lat="22.458401" lon="103.937759"><ele>197.3</ele><time>2011-04-22T02:25:50.0000000+00:00</time></trkpt><trkpt lat="22.458427" lon="103.937653"><ele>200.0</ele><time>2011-04-22T02:25:55.0000000+00:00</time></trkpt><trkpt lat="22.458406" lon="103.937531"><ele>202.2</ele><time>2011-04-22T02:26:00.0000000+00:00</time></trkpt><trkpt lat="22.458349" lon="103.937447"><ele>203.4</ele><time>2011-04-22T02:26:05.0000000+00:00</time></trkpt><trkpt lat="22.458351" lon="103.937439"><ele>201.8</ele><time>2011-04-22T02:26:10.0000000+00:00</time></trkpt><trkpt lat="22.458305" lon="103.937416"><ele>201.9</ele><time>2011-04-22T02:26:15.0000000+00:00</time></trkpt><trkpt lat="22.458206" lon="103.937363"><ele>201.9</ele><time>2011-04-22T02:26:20.0000000+00:00</time></trkpt><trkpt lat="22.458096" lon="103.937386"><ele>201.3</ele><time>2011-04-22T02:26:25.0000000+00:00</time></trkpt><trkpt lat="22.457996" lon="103.937439"><ele>199.7</ele><time>2011-04-22T02:26:30.0000000+00:00</time></trkpt><trkpt lat="22.457899" lon="103.937492"><ele>200.2</ele><time>2011-04-22T02:26:35.0000000+00:00</time></trkpt><trkpt lat="22.457842" lon="103.937531"><ele>199.6</ele><time>2011-04-22T02:26:40.0000000+00:00</time></trkpt><trkpt lat="22.457811" lon="103.937531"><ele>199.8</ele><time>2011-04-22T02:26:45.0000000+00:00</time></trkpt><trkpt lat="22.457809" lon="103.937523"><ele>200.2</ele><time>2011-04-22T02:26:50.0000000+00:00</time></trkpt><trkpt lat="22.457811" lon="103.937523"><ele>200.2</ele><time>2011-04-22T02:26:55.0000000+00:00</time></trkpt><trkpt lat="22.457811" lon="103.937523"><ele>200.1</ele><time>2011-04-22T02:27:00.0000000+00:00</time></trkpt><trkpt lat="22.457811" lon="103.937523"><ele>200.0</ele><time>2011-04-22T02:27:05.0000000+00:00</time></trkpt><trkpt lat="22.457811" lon="103.937523"><ele>200.0</ele><time>2011-04-22T02:27:10.0000000+00:00</time></trkpt><trkpt lat="22.457811" lon="103.937523"><ele>200.0</ele><time>2011-04-22T02:27:15.0000000+00:00</time></trkpt><trkpt lat="22.457811" lon="103.937523"><ele>200.1</ele><time>2011-04-22T02:27:20.0000000+00:00</time></trkpt><trkpt lat="22.457802" lon="103.937531"><ele>200.3</ele><time>2011-04-22T02:27:25.0000000+00:00</time></trkpt><trkpt lat="22.457708" lon="103.937592"><ele>202.2</ele><time>2011-04-22T02:27:30.0000000+00:00</time></trkpt><trkpt lat="22.457598" lon="103.937653"><ele>202.1</ele><time>2011-04-22T02:27:35.0000000+00:00</time></trkpt><trkpt lat="22.457483" lon="103.937698"><ele>202.5</ele><time>2011-04-22T02:27:40.0000000+00:00</time></trkpt><trkpt lat="22.457359" lon="103.937714"><ele>202.5</ele><time>2011-04-22T02:27:45.0000000+00:00</time></trkpt><trkpt lat="22.457235" lon="103.937698"><ele>202.3</ele><time>2011-04-22T02:27:50.0000000+00:00</time></trkpt><trkpt lat="22.457115" lon="103.937668"><ele>202.3</ele><time>2011-04-22T02:27:55.0000000+00:00</time></trkpt><trkpt lat="22.456987" lon="103.937637"><ele>202.5</ele><time>2011-04-22T02:28:00.0000000+00:00</time></trkpt><trkpt lat="22.45686" lon="103.937607"><ele>202.5</ele><time>2011-04-22T02:28:05.0000000+00:00</time></trkpt><trkpt lat="22.456757" lon="103.937576"><ele>202.7</ele><time>2011-04-22T02:28:10.0000000+00:00</time></trkpt><trkpt lat="22.456648" lon="103.937553"><ele>203.5</ele><time>2011-04-22T02:28:15.0000000+00:00</time></trkpt><trkpt lat="22.456528" lon="103.937523"><ele>204.8</ele><time>2011-04-22T02:28:20.0000000+00:00</time></trkpt><trkpt lat="22.456408" lon="103.937538"><ele>206.3</ele><time>2011-04-22T02:28:25.0000000+00:00</time></trkpt><trkpt lat="22.456314" lon="103.9375"><ele>207.1</ele><time>2011-04-22T02:28:30.0000000+00:00</time></trkpt><trkpt lat="22.456253" lon="103.9375"><ele>206.3</ele><time>2011-04-22T02:28:35.0000000+00:00</time></trkpt><trkpt lat="22.456245" lon="103.937492"><ele>206.3</ele><time>2011-04-22T02:28:40.0000000+00:00</time></trkpt><trkpt lat="22.456245" lon="103.937492"><ele>206.0</ele><time>2011-04-22T02:28:45.0000000+00:00</time></trkpt><trkpt lat="22.456247" lon="103.937492"><ele>205.8</ele><time>2011-04-22T02:28:50.0000000+00:00</time></trkpt><trkpt lat="22.456251" lon="103.937492"><ele>205.7</ele><time>2011-04-22T02:28:55.0000000+00:00</time></trkpt><trkpt lat="22.456251" lon="103.937492"><ele>205.7</ele><time>2011-04-22T02:29:00.0000000+00:00</time></trkpt><trkpt lat="22.456251" lon="103.937492"><ele>205.7</ele><time>2011-04-22T02:29:05.0000000+00:00</time></trkpt><trkpt lat="22.456251" lon="103.937492"><ele>205.7</ele><time>2011-04-22T02:29:10.0000000+00:00</time></trkpt><trkpt lat="22.456251" lon="103.937492"><ele>205.7</ele><time>2011-04-22T02:29:15.0000000+00:00</time></trkpt><trkpt lat="22.456251" lon="103.937492"><ele>205.8</ele><time>2011-04-22T02:29:20.0000000+00:00</time></trkpt><trkpt lat="22.456251" lon="103.937492"><ele>205.8</ele><time>2011-04-22T02:29:25.0000000+00:00</time></trkpt><trkpt lat="22.456251" lon="103.937492"><ele>205.8</ele><time>2011-04-22T02:29:30.0000000+00:00</time></trkpt><trkpt lat="22.456251" lon="103.937492"><ele>205.8</ele><time>2011-04-22T02:29:35.0000000+00:00</time></trkpt><trkpt lat="22.456251" lon="103.937492"><ele>205.8</ele><time>2011-04-22T02:29:40.0000000+00:00</time></trkpt><trkpt lat="22.456251" lon="103.937492"><ele>205.8</ele><time>2011-04-22T02:29:45.0000000+00:00</time></trkpt><trkpt lat="22.456251" lon="103.937492"><ele>205.8</ele><time>2011-04-22T02:29:50.0000000+00:00</time></trkpt><trkpt lat="22.456251" lon="103.937492"><ele>205.8</ele><time>2011-04-22T02:29:55.0000000+00:00</time></trkpt><trkpt lat="22.456251" lon="103.937492"><ele>205.8</ele><time>2011-04-22T02:30:00.0000000+00:00</time></trkpt><trkpt lat="22.456251" lon="103.937492"><ele>205.8</ele><time>2011-04-22T02:30:05.0000000+00:00</time></trkpt><trkpt lat="22.456251" lon="103.937492"><ele>205.8</ele><time>2011-04-22T02:30:10.0000000+00:00</time></trkpt><trkpt lat="22.456251" lon="103.937492"><ele>205.8</ele><time>2011-04-22T02:30:15.0000000+00:00</time></trkpt><trkpt lat="22.456251" lon="103.937492"><ele>205.8</ele><time>2011-04-22T02:30:20.0000000+00:00</time></trkpt><trkpt lat="22.456251" lon="103.937492"><ele>205.8</ele><time>2011-04-22T02:30:25.0000000+00:00</time></trkpt><trkpt lat="22.456251" lon="103.937492"><ele>205.8</ele><time>2011-04-22T02:30:30.0000000+00:00</time></trkpt><trkpt lat="22.456251" lon="103.937492"><ele>205.8</ele><time>2011-04-22T02:30:35.0000000+00:00</time></trkpt><trkpt lat="22.456251" lon="103.937492"><ele>205.8</ele><time>2011-04-22T02:30:40.0000000+00:00</time></trkpt><trkpt lat="22.456251" lon="103.937492"><ele>205.9</ele><time>2011-04-22T02:30:45.0000000+00:00</time></trkpt><trkpt lat="22.456251" lon="103.937492"><ele>205.9</ele><time>2011-04-22T02:30:50.0000000+00:00</time></trkpt><trkpt lat="22.456251" lon="103.937492"><ele>205.9</ele><time>2011-04-22T02:30:55.0000000+00:00</time></trkpt><trkpt lat="22.456251" lon="103.937492"><ele>205.9</ele><time>2011-04-22T02:31:00.0000000+00:00</time></trkpt><trkpt lat="22.456251" lon="103.937492"><ele>205.9</ele><time>2011-04-22T02:31:05.0000000+00:00</time></trkpt><trkpt lat="22.456251" lon="103.937492"><ele>205.9</ele><time>2011-04-22T02:31:10.0000000+00:00</time></trkpt><trkpt lat="22.456251" lon="103.937492"><ele>206.0</ele><time>2011-04-22T02:31:15.0000000+00:00</time></trkpt><trkpt lat="22.456251" lon="103.937492"><ele>206.0</ele><time>2011-04-22T02:31:20.0000000+00:00</time></trkpt><trkpt lat="22.456251" lon="103.937492"><ele>206.0</ele><time>2011-04-22T02:31:25.0000000+00:00</time></trkpt><trkpt lat="22.456251" lon="103.937492"><ele>206.0</ele><time>2011-04-22T02:31:30.0000000+00:00</time></trkpt><trkpt lat="22.456251" lon="103.937492"><ele>206.0</ele><time>2011-04-22T02:31:35.0000000+00:00</time></trkpt><trkpt lat="22.456251" lon="103.937492"><ele>206.0</ele><time>2011-04-22T02:31:40.0000000+00:00</time></trkpt><trkpt lat="22.456251" lon="103.937492"><ele>206.0</ele><time>2011-04-22T02:31:45.0000000+00:00</time></trkpt><trkpt lat="22.456251" lon="103.937492"><ele>206.1</ele><time>2011-04-22T02:31:50.0000000+00:00</time></trkpt><trkpt lat="22.456251" lon="103.937492"><ele>206.1</ele><time>2011-04-22T02:31:55.0000000+00:00</time></trkpt><trkpt lat="22.456251" lon="103.937492"><ele>206.1</ele><time>2011-04-22T02:32:00.0000000+00:00</time></trkpt><trkpt lat="22.456251" lon="103.937492"><ele>206.1</ele><time>2011-04-22T02:32:05.0000000+00:00</time></trkpt><trkpt lat="22.456251" lon="103.937492"><ele>206.1</ele><time>2011-04-22T02:32:10.0000000+00:00</time></trkpt><trkpt lat="22.456251" lon="103.937492"><ele>206.1</ele><time>2011-04-22T02:32:15.0000000+00:00</time></trkpt><trkpt lat="22.456251" lon="103.937492"><ele>206.2</ele><time>2011-04-22T02:32:20.0000000+00:00</time></trkpt><trkpt lat="22.456251" lon="103.937492"><ele>206.2</ele><time>2011-04-22T02:32:25.0000000+00:00</time></trkpt><trkpt lat="22.456251" lon="103.937492"><ele>206.2</ele><time>2011-04-22T02:32:30.0000000+00:00</time></trkpt><trkpt lat="22.456251" lon="103.937492"><ele>206.3</ele><time>2011-04-22T02:32:35.0000000+00:00</time></trkpt><trkpt lat="22.456251" lon="103.937492"><ele>206.3</ele><time>2011-04-22T02:32:40.0000000+00:00</time></trkpt><trkpt lat="22.456253" lon="103.937492"><ele>206.3</ele><time>2011-04-22T02:32:45.0000000+00:00</time></trkpt><trkpt lat="22.456253" lon="103.937492"><ele>206.3</ele><time>2011-04-22T02:32:50.0000000+00:00</time></trkpt><trkpt lat="22.456253" lon="103.937492"><ele>206.3</ele><time>2011-04-22T02:32:55.0000000+00:00</time></trkpt><trkpt lat="22.456253" lon="103.937492"><ele>206.4</ele><time>2011-04-22T02:33:00.0000000+00:00</time></trkpt><trkpt lat="22.456253" lon="103.937492"><ele>206.4</ele><time>2011-04-22T02:33:05.0000000+00:00</time></trkpt><trkpt lat="22.456253" lon="103.937492"><ele>206.4</ele><time>2011-04-22T02:33:10.0000000+00:00</time></trkpt><trkpt lat="22.456253" lon="103.937492"><ele>206.4</ele><time>2011-04-22T02:33:15.0000000+00:00</time></trkpt><trkpt lat="22.456253" lon="103.937492"><ele>206.5</ele><time>2011-04-22T02:33:20.0000000+00:00</time></trkpt><trkpt lat="22.456253" lon="103.937492"><ele>206.5</ele><time>2011-04-22T02:33:25.0000000+00:00</time></trkpt><trkpt lat="22.456253" lon="103.937492"><ele>206.5</ele><time>2011-04-22T02:33:30.0000000+00:00</time></trkpt><trkpt lat="22.456253" lon="103.937492"><ele>206.5</ele><time>2011-04-22T02:33:35.0000000+00:00</time></trkpt><trkpt lat="22.456253" lon="103.937492"><ele>206.5</ele><time>2011-04-22T02:33:40.0000000+00:00</time></trkpt><trkpt lat="22.456253" lon="103.937492"><ele>206.5</ele><time>2011-04-22T02:33:45.0000000+00:00</time></trkpt><trkpt lat="22.456253" lon="103.937492"><ele>206.5</ele><time>2011-04-22T02:33:50.0000000+00:00</time></trkpt><trkpt lat="22.456253" lon="103.937492"><ele>206.6</ele><time>2011-04-22T02:33:55.0000000+00:00</time></trkpt><trkpt lat="22.456253" lon="103.937492"><ele>206.6</ele><time>2011-04-22T02:34:00.0000000+00:00</time></trkpt><trkpt lat="22.456253" lon="103.937492"><ele>206.6</ele><time>2011-04-22T02:34:05.0000000+00:00</time></trkpt><trkpt lat="22.456253" lon="103.937492"><ele>206.6</ele><time>2011-04-22T02:34:10.0000000+00:00</time></trkpt><trkpt lat="22.456253" lon="103.937492"><ele>206.7</ele><time>2011-04-22T02:34:15.0000000+00:00</time></trkpt><trkpt lat="22.456253" lon="103.937492"><ele>206.7</ele><time>2011-04-22T02:34:20.0000000+00:00</time></trkpt><trkpt lat="22.456253" lon="103.937492"><ele>206.7</ele><time>2011-04-22T02:34:25.0000000+00:00</time></trkpt><trkpt lat="22.456253" lon="103.937492"><ele>206.7</ele><time>2011-04-22T02:34:30.0000000+00:00</time></trkpt><trkpt lat="22.456253" lon="103.937492"><ele>206.6</ele><time>2011-04-22T02:34:35.0000000+00:00</time></trkpt><trkpt lat="22.456253" lon="103.937492"><ele>206.6</ele><time>2011-04-22T02:34:40.0000000+00:00</time></trkpt><trkpt lat="22.456253" lon="103.937492"><ele>206.6</ele><time>2011-04-22T02:34:45.0000000+00:00</time></trkpt><trkpt lat="22.456251" lon="103.937492"><ele>206.6</ele><time>2011-04-22T02:34:50.0000000+00:00</time></trkpt><trkpt lat="22.456251" lon="103.937492"><ele>206.6</ele><time>2011-04-22T02:34:55.0000000+00:00</time></trkpt><trkpt lat="22.456251" lon="103.937492"><ele>206.6</ele><time>2011-04-22T02:35:00.0000000+00:00</time></trkpt><trkpt lat="22.456251" lon="103.937492"><ele>206.6</ele><time>2011-04-22T02:35:05.0000000+00:00</time></trkpt><trkpt lat="22.456251" lon="103.937492"><ele>206.6</ele><time>2011-04-22T02:35:10.0000000+00:00</time></trkpt><trkpt lat="22.456251" lon="103.937492"><ele>206.6</ele><time>2011-04-22T02:35:15.0000000+00:00</time></trkpt><trkpt lat="22.456249" lon="103.937477"><ele>206.8</ele><time>2011-04-22T02:35:20.0000000+00:00</time></trkpt><trkpt lat="22.456221" lon="103.937393"><ele>207.1</ele><time>2011-04-22T02:35:25.0000000+00:00</time></trkpt><trkpt lat="22.456152" lon="103.937279"><ele>208.1</ele><time>2011-04-22T02:35:30.0000000+00:00</time></trkpt><trkpt lat="22.456051" lon="103.937187"><ele>209.6</ele><time>2011-04-22T02:35:35.0000000+00:00</time></trkpt><trkpt lat="22.455956" lon="103.937111"><ele>209.5</ele><time>2011-04-22T02:35:40.0000000+00:00</time></trkpt><trkpt lat="22.455841" lon="103.93708"><ele>209.8</ele><time>2011-04-22T02:35:45.0000000+00:00</time></trkpt><trkpt lat="22.455706" lon="103.937096"><ele>211.0</ele><time>2011-04-22T02:35:50.0000000+00:00</time></trkpt><trkpt lat="22.455595" lon="103.937149"><ele>213.2</ele><time>2011-04-22T02:35:55.0000000+00:00</time></trkpt><trkpt lat="22.455494" lon="103.937195"><ele>214.2</ele><time>2011-04-22T02:36:00.0000000+00:00</time></trkpt><trkpt lat="22.455404" lon="103.937218"><ele>215.4</ele><time>2011-04-22T02:36:05.0000000+00:00</time></trkpt><trkpt lat="22.455301" lon="103.937256"><ele>215.7</ele><time>2011-04-22T02:36:10.0000000+00:00</time></trkpt><trkpt lat="22.455187" lon="103.937263"><ele>215.7</ele><time>2011-04-22T02:36:15.0000000+00:00</time></trkpt><trkpt lat="22.455103" lon="103.937233"><ele>216.6</ele><time>2011-04-22T02:36:20.0000000+00:00</time></trkpt><trkpt lat="22.455036" lon="103.937141"><ele>217.6</ele><time>2011-04-22T02:36:25.0000000+00:00</time></trkpt><trkpt lat="22.455004" lon="103.937019"><ele>218.4</ele><time>2011-04-22T02:36:30.0000000+00:00</time></trkpt><trkpt lat="22.454987" lon="103.936928"><ele>219.4</ele><time>2011-04-22T02:36:35.0000000+00:00</time></trkpt><trkpt lat="22.454967" lon="103.936836"><ele>221.3</ele><time>2011-04-22T02:36:40.0000000+00:00</time></trkpt><trkpt lat="22.454958" lon="103.936745"><ele>222.2</ele><time>2011-04-22T02:36:45.0000000+00:00</time></trkpt><trkpt lat="22.454956" lon="103.936646"><ele>221.4</ele><time>2011-04-22T02:36:50.0000000+00:00</time></trkpt><trkpt lat="22.454975" lon="103.936562"><ele>223.8</ele><time>2011-04-22T02:36:55.0000000+00:00</time></trkpt><trkpt lat="22.454996" lon="103.936447"><ele>224.4</ele><time>2011-04-22T02:37:00.0000000+00:00</time></trkpt><trkpt lat="22.455042" lon="103.93631"><ele>225.2</ele><time>2011-04-22T02:37:05.0000000+00:00</time></trkpt><trkpt lat="22.455107" lon="103.936195"><ele>227.6</ele><time>2011-04-22T02:37:10.0000000+00:00</time></trkpt><trkpt lat="22.455126" lon="103.936058"><ele>229.3</ele><time>2011-04-22T02:37:15.0000000+00:00</time></trkpt><trkpt lat="22.455105" lon="103.935944"><ele>231.1</ele><time>2011-04-22T02:37:20.0000000+00:00</time></trkpt><trkpt lat="22.455029" lon="103.935867"><ele>231.9</ele><time>2011-04-22T02:37:25.0000000+00:00</time></trkpt><trkpt lat="22.454931" lon="103.935814"><ele>232.3</ele><time>2011-04-22T02:37:30.0000000+00:00</time></trkpt><trkpt lat="22.454819" lon="103.935837"><ele>233.5</ele><time>2011-04-22T02:37:35.0000000+00:00</time></trkpt><trkpt lat="22.454718" lon="103.935905"><ele>234.2</ele><time>2011-04-22T02:37:40.0000000+00:00</time></trkpt><trkpt lat="22.454649" lon="103.936012"><ele>235.8</ele><time>2011-04-22T02:37:45.0000000+00:00</time></trkpt><trkpt lat="22.454607" lon="103.936104"><ele>238.3</ele><time>2011-04-22T02:37:50.0000000+00:00</time></trkpt><trkpt lat="22.454548" lon="103.936218"><ele>240.1</ele><time>2011-04-22T02:37:55.0000000+00:00</time></trkpt><trkpt lat="22.454491" lon="103.936333"><ele>241.9</ele><time>2011-04-22T02:38:00.0000000+00:00</time></trkpt><trkpt lat="22.454433" lon="103.936447"><ele>243.7</ele><time>2011-04-22T02:38:05.0000000+00:00</time></trkpt><trkpt lat="22.45437" lon="103.936562"><ele>246.0</ele><time>2011-04-22T02:38:10.0000000+00:00</time></trkpt><trkpt lat="22.454304" lon="103.936661"><ele>249.3</ele><time>2011-04-22T02:38:15.0000000+00:00</time></trkpt><trkpt lat="22.454214" lon="103.936745"><ele>249.1</ele><time>2011-04-22T02:38:20.0000000+00:00</time></trkpt><trkpt lat="22.454113" lon="103.936775"><ele>248.3</ele><time>2011-04-22T02:38:25.0000000+00:00</time></trkpt><trkpt lat="22.454004" lon="103.936768"><ele>248.0</ele><time>2011-04-22T02:38:30.0000000+00:00</time></trkpt><trkpt lat="22.453905" lon="103.936707"><ele>248.5</ele><time>2011-04-22T02:38:35.0000000+00:00</time></trkpt><trkpt lat="22.453831" lon="103.936615"><ele>249.1</ele><time>2011-04-22T02:38:40.0000000+00:00</time></trkpt><trkpt lat="22.453793" lon="103.936501"><ele>248.6</ele><time>2011-04-22T02:38:45.0000000+00:00</time></trkpt><trkpt lat="22.453779" lon="103.936378"><ele>248.5</ele><time>2011-04-22T02:38:50.0000000+00:00</time></trkpt><trkpt lat="22.453766" lon="103.936256"><ele>249.0</ele><time>2011-04-22T02:38:55.0000000+00:00</time></trkpt><trkpt lat="22.453758" lon="103.936127"><ele>249.7</ele><time>2011-04-22T02:39:00.0000000+00:00</time></trkpt><trkpt lat="22.453747" lon="103.936005"><ele>249.7</ele><time>2011-04-22T02:39:05.0000000+00:00</time></trkpt><trkpt lat="22.453745" lon="103.935966"><ele>249.9</ele><time>2011-04-22T02:39:10.0000000+00:00</time></trkpt><trkpt lat="22.453747" lon="103.935974"><ele>249.5</ele><time>2011-04-22T02:39:15.0000000+00:00</time></trkpt><trkpt lat="22.453747" lon="103.935966"><ele>249.5</ele><time>2011-04-22T02:39:20.0000000+00:00</time></trkpt><trkpt lat="22.453747" lon="103.935974"><ele>249.6</ele><time>2011-04-22T02:39:25.0000000+00:00</time></trkpt><trkpt lat="22.453747" lon="103.935974"><ele>249.6</ele><time>2011-04-22T02:39:30.0000000+00:00</time></trkpt><trkpt lat="22.453747" lon="103.935974"><ele>249.6</ele><time>2011-04-22T02:39:35.0000000+00:00</time></trkpt><trkpt lat="22.453747" lon="103.935974"><ele>249.7</ele><time>2011-04-22T02:39:40.0000000+00:00</time></trkpt><trkpt lat="22.453747" lon="103.935974"><ele>249.7</ele><time>2011-04-22T02:39:45.0000000+00:00</time></trkpt><trkpt lat="22.453747" lon="103.935974"><ele>249.7</ele><time>2011-04-22T02:39:50.0000000+00:00</time></trkpt><trkpt lat="22.453747" lon="103.935974"><ele>249.7</ele><time>2011-04-22T02:39:55.0000000+00:00</time></trkpt><trkpt lat="22.453747" lon="103.935974"><ele>249.7</ele><time>2011-04-22T02:40:00.0000000+00:00</time></trkpt><trkpt lat="22.453747" lon="103.935974"><ele>249.7</ele><time>2011-04-22T02:40:05.0000000+00:00</time></trkpt><trkpt lat="22.453747" lon="103.935974"><ele>249.7</ele><time>2011-04-22T02:40:10.0000000+00:00</time></trkpt><trkpt lat="22.453747" lon="103.935974"><ele>249.7</ele><time>2011-04-22T02:40:15.0000000+00:00</time></trkpt><trkpt lat="22.453747" lon="103.935974"><ele>249.7</ele><time>2011-04-22T02:40:20.0000000+00:00</time></trkpt><trkpt lat="22.453747" lon="103.935974"><ele>249.7</ele><time>2011-04-22T02:40:25.0000000+00:00</time></trkpt><trkpt lat="22.453747" lon="103.935974"><ele>249.7</ele><time>2011-04-22T02:40:30.0000000+00:00</time></trkpt><trkpt lat="22.453747" lon="103.935974"><ele>249.7</ele><time>2011-04-22T02:40:35.0000000+00:00</time></trkpt><trkpt lat="22.453747" lon="103.935974"><ele>249.7</ele><time>2011-04-22T02:40:40.0000000+00:00</time></trkpt><trkpt lat="22.453747" lon="103.935974"><ele>249.7</ele><time>2011-04-22T02:40:45.0000000+00:00</time></trkpt><trkpt lat="22.453747" lon="103.935974"><ele>249.7</ele><time>2011-04-22T02:40:50.0000000+00:00</time></trkpt><trkpt lat="22.453747" lon="103.935974"><ele>249.7</ele><time>2011-04-22T02:40:55.0000000+00:00</time></trkpt><trkpt lat="22.453747" lon="103.935974"><ele>249.7</ele><time>2011-04-22T02:41:00.0000000+00:00</time></trkpt><trkpt lat="22.453747" lon="103.935974"><ele>249.7</ele><time>2011-04-22T02:41:05.0000000+00:00</time></trkpt><trkpt lat="22.453747" lon="103.935974"><ele>249.7</ele><time>2011-04-22T02:41:10.0000000+00:00</time></trkpt><trkpt lat="22.453747" lon="103.935974"><ele>249.8</ele><time>2011-04-22T02:41:15.0000000+00:00</time></trkpt><trkpt lat="22.453749" lon="103.935966"><ele>249.8</ele><time>2011-04-22T02:41:20.0000000+00:00</time></trkpt><trkpt lat="22.453743" lon="103.935936"><ele>250.3</ele><time>2011-04-22T02:41:25.0000000+00:00</time></trkpt><trkpt lat="22.45373" lon="103.935875"><ele>250.8</ele><time>2011-04-22T02:41:30.0000000+00:00</time></trkpt><trkpt lat="22.453695" lon="103.935791"><ele>250.0</ele><time>2011-04-22T02:41:35.0000000+00:00</time></trkpt><trkpt lat="22.453646" lon="103.935699"><ele>250.4</ele><time>2011-04-22T02:41:40.0000000+00:00</time></trkpt><trkpt lat="22.453609" lon="103.935623"><ele>251.0</ele><time>2011-04-22T02:41:45.0000000+00:00</time></trkpt><trkpt lat="22.453575" lon="103.935555"><ele>251.5</ele><time>2011-04-22T02:41:50.0000000+00:00</time></trkpt><trkpt lat="22.453541" lon="103.935486"><ele>251.7</ele><time>2011-04-22T02:41:55.0000000+00:00</time></trkpt><trkpt lat="22.453497" lon="103.935448"><ele>252.9</ele><time>2011-04-22T02:42:00.0000000+00:00</time></trkpt><trkpt lat="22.453474" lon="103.935379"><ele>254.1</ele><time>2011-04-22T02:42:05.0000000+00:00</time></trkpt><trkpt lat="22.453461" lon="103.935333"><ele>254.2</ele><time>2011-04-22T02:42:10.0000000+00:00</time></trkpt><trkpt lat="22.453461" lon="103.935333"><ele>254.1</ele><time>2011-04-22T02:42:15.0000000+00:00</time></trkpt><trkpt lat="22.453461" lon="103.935341"><ele>254.0</ele><time>2011-04-22T02:42:20.0000000+00:00</time></trkpt><trkpt lat="22.453459" lon="103.935341"><ele>254.0</ele><time>2011-04-22T02:42:25.0000000+00:00</time></trkpt><trkpt lat="22.453459" lon="103.935341"><ele>253.9</ele><time>2011-04-22T02:42:30.0000000+00:00</time></trkpt><trkpt lat="22.453459" lon="103.935341"><ele>253.9</ele><time>2011-04-22T02:42:35.0000000+00:00</time></trkpt><trkpt lat="22.453459" lon="103.935341"><ele>254.0</ele><time>2011-04-22T02:42:40.0000000+00:00</time></trkpt><trkpt lat="22.453461" lon="103.935341"><ele>254.0</ele><time>2011-04-22T02:42:45.0000000+00:00</time></trkpt><trkpt lat="22.453459" lon="103.935341"><ele>254.0</ele><time>2011-04-22T02:42:50.0000000+00:00</time></trkpt><trkpt lat="22.453459" lon="103.935341"><ele>254.0</ele><time>2011-04-22T02:42:55.0000000+00:00</time></trkpt><trkpt lat="22.453459" lon="103.935341"><ele>253.9</ele><time>2011-04-22T02:43:00.0000000+00:00</time></trkpt><trkpt lat="22.453459" lon="103.935341"><ele>253.9</ele><time>2011-04-22T02:43:05.0000000+00:00</time></trkpt><trkpt lat="22.453459" lon="103.935341"><ele>253.9</ele><time>2011-04-22T02:43:10.0000000+00:00</time></trkpt><trkpt lat="22.453459" lon="103.935341"><ele>253.9</ele><time>2011-04-22T02:43:15.0000000+00:00</time></trkpt><trkpt lat="22.453459" lon="103.935341"><ele>253.9</ele><time>2011-04-22T02:43:20.0000000+00:00</time></trkpt><trkpt lat="22.453459" lon="103.935341"><ele>253.9</ele><time>2011-04-22T02:43:25.0000000+00:00</time></trkpt><trkpt lat="22.453459" lon="103.935341"><ele>253.8</ele><time>2011-04-22T02:43:30.0000000+00:00</time></trkpt><trkpt lat="22.453459" lon="103.935333"><ele>253.9</ele><time>2011-04-22T02:43:35.0000000+00:00</time></trkpt><trkpt lat="22.453459" lon="103.935333"><ele>253.9</ele><time>2011-04-22T02:43:40.0000000+00:00</time></trkpt><trkpt lat="22.453459" lon="103.935333"><ele>253.8</ele><time>2011-04-22T02:43:45.0000000+00:00</time></trkpt><trkpt lat="22.453459" lon="103.935333"><ele>253.8</ele><time>2011-04-22T02:43:50.0000000+00:00</time></trkpt><trkpt lat="22.453459" lon="103.935333"><ele>253.8</ele><time>2011-04-22T02:43:55.0000000+00:00</time></trkpt><trkpt lat="22.453459" lon="103.935333"><ele>253.9</ele><time>2011-04-22T02:44:00.0000000+00:00</time></trkpt><trkpt lat="22.453459" lon="103.935333"><ele>253.9</ele><time>2011-04-22T02:44:05.0000000+00:00</time></trkpt><trkpt lat="22.453457" lon="103.935341"><ele>253.5</ele><time>2011-04-22T02:44:10.0000000+00:00</time></trkpt><trkpt lat="22.453455" lon="103.935341"><ele>252.7</ele><time>2011-04-22T02:44:15.0000000+00:00</time></trkpt><trkpt lat="22.453455" lon="103.935341"><ele>252.7</ele><time>2011-04-22T02:44:20.0000000+00:00</time></trkpt><trkpt lat="22.453455" lon="103.935341"><ele>252.7</ele><time>2011-04-22T02:44:25.0000000+00:00</time></trkpt><trkpt lat="22.453455" lon="103.935341"><ele>252.7</ele><time>2011-04-22T02:44:30.0000000+00:00</time></trkpt><trkpt lat="22.453455" lon="103.935341"><ele>252.7</ele><time>2011-04-22T02:44:35.0000000+00:00</time></trkpt><trkpt lat="22.453455" lon="103.935341"><ele>252.7</ele><time>2011-04-22T02:44:40.0000000+00:00</time></trkpt><trkpt lat="22.453455" lon="103.935341"><ele>252.7</ele><time>2011-04-22T02:44:45.0000000+00:00</time></trkpt><trkpt lat="22.453455" lon="103.935341"><ele>252.7</ele><time>2011-04-22T02:44:50.0000000+00:00</time></trkpt><trkpt lat="22.453455" lon="103.935341"><ele>252.7</ele><time>2011-04-22T02:44:55.0000000+00:00</time></trkpt><trkpt lat="22.453455" lon="103.935341"><ele>252.7</ele><time>2011-04-22T02:45:00.0000000+00:00</time></trkpt><trkpt lat="22.453455" lon="103.935341"><ele>252.7</ele><time>2011-04-22T02:45:05.0000000+00:00</time></trkpt><trkpt lat="22.453455" lon="103.935341"><ele>252.7</ele><time>2011-04-22T02:45:10.0000000+00:00</time></trkpt><trkpt lat="22.453455" lon="103.935341"><ele>252.7</ele><time>2011-04-22T02:45:15.0000000+00:00</time></trkpt><trkpt lat="22.453455" lon="103.935341"><ele>252.8</ele><time>2011-04-22T02:45:20.0000000+00:00</time></trkpt><trkpt lat="22.453453" lon="103.935341"><ele>252.8</ele><time>2011-04-22T02:45:25.0000000+00:00</time></trkpt><trkpt lat="22.453453" lon="103.935341"><ele>252.8</ele><time>2011-04-22T02:45:30.0000000+00:00</time></trkpt><trkpt lat="22.453453" lon="103.935341"><ele>252.8</ele><time>2011-04-22T02:45:35.0000000+00:00</time></trkpt><trkpt lat="22.453453" lon="103.935341"><ele>252.8</ele><time>2011-04-22T02:45:40.0000000+00:00</time></trkpt><trkpt lat="22.453453" lon="103.935341"><ele>252.8</ele><time>2011-04-22T02:45:45.0000000+00:00</time></trkpt><trkpt lat="22.453453" lon="103.935341"><ele>252.8</ele><time>2011-04-22T02:45:50.0000000+00:00</time></trkpt><trkpt lat="22.453453" lon="103.935341"><ele>252.7</ele><time>2011-04-22T02:45:55.0000000+00:00</time></trkpt><trkpt lat="22.453453" lon="103.935341"><ele>252.7</ele><time>2011-04-22T02:46:00.0000000+00:00</time></trkpt><trkpt lat="22.453453" lon="103.935341"><ele>252.7</ele><time>2011-04-22T02:46:05.0000000+00:00</time></trkpt><trkpt lat="22.453453" lon="103.935341"><ele>252.7</ele><time>2011-04-22T02:46:10.0000000+00:00</time></trkpt><trkpt lat="22.453453" lon="103.935341"><ele>252.7</ele><time>2011-04-22T02:46:15.0000000+00:00</time></trkpt><trkpt lat="22.453453" lon="103.935341"><ele>252.7</ele><time>2011-04-22T02:46:20.0000000+00:00</time></trkpt><trkpt lat="22.453453" lon="103.935341"><ele>252.7</ele><time>2011-04-22T02:46:25.0000000+00:00</time></trkpt><trkpt lat="22.453453" lon="103.935341"><ele>252.6</ele><time>2011-04-22T02:46:30.0000000+00:00</time></trkpt><trkpt lat="22.453453" lon="103.935341"><ele>252.6</ele><time>2011-04-22T02:46:35.0000000+00:00</time></trkpt><trkpt lat="22.453453" lon="103.935341"><ele>252.6</ele><time>2011-04-22T02:46:40.0000000+00:00</time></trkpt><trkpt lat="22.453453" lon="103.935341"><ele>252.6</ele><time>2011-04-22T02:46:45.0000000+00:00</time></trkpt><trkpt lat="22.453453" lon="103.935341"><ele>252.6</ele><time>2011-04-22T02:46:50.0000000+00:00</time></trkpt><trkpt lat="22.453453" lon="103.935341"><ele>252.5</ele><time>2011-04-22T02:46:55.0000000+00:00</time></trkpt><trkpt lat="22.453453" lon="103.935341"><ele>252.5</ele><time>2011-04-22T02:47:00.0000000+00:00</time></trkpt><trkpt lat="22.453453" lon="103.935341"><ele>252.5</ele><time>2011-04-22T02:47:05.0000000+00:00</time></trkpt><trkpt lat="22.453453" lon="103.935341"><ele>252.5</ele><time>2011-04-22T02:47:10.0000000+00:00</time></trkpt><trkpt lat="22.453453" lon="103.935341"><ele>252.5</ele><time>2011-04-22T02:47:15.0000000+00:00</time></trkpt><trkpt lat="22.453453" lon="103.935341"><ele>252.4</ele><time>2011-04-22T02:47:20.0000000+00:00</time></trkpt><trkpt lat="22.453453" lon="103.935341"><ele>252.4</ele><time>2011-04-22T02:47:25.0000000+00:00</time></trkpt><trkpt lat="22.453453" lon="103.935341"><ele>252.3</ele><time>2011-04-22T02:47:30.0000000+00:00</time></trkpt><trkpt lat="22.453453" lon="103.935341"><ele>252.3</ele><time>2011-04-22T02:47:35.0000000+00:00</time></trkpt><trkpt lat="22.453453" lon="103.935341"><ele>252.3</ele><time>2011-04-22T02:47:40.0000000+00:00</time></trkpt><trkpt lat="22.453453" lon="103.935341"><ele>252.3</ele><time>2011-04-22T02:47:45.0000000+00:00</time></trkpt><trkpt lat="22.453453" lon="103.935341"><ele>252.3</ele><time>2011-04-22T02:47:50.0000000+00:00</time></trkpt><trkpt lat="22.453453" lon="103.935341"><ele>252.3</ele><time>2011-04-22T02:47:55.0000000+00:00</time></trkpt><trkpt lat="22.453453" lon="103.935341"><ele>252.3</ele><time>2011-04-22T02:48:00.0000000+00:00</time></trkpt><trkpt lat="22.453453" lon="103.935341"><ele>252.3</ele><time>2011-04-22T02:48:05.0000000+00:00</time></trkpt><trkpt lat="22.453453" lon="103.935341"><ele>252.3</ele><time>2011-04-22T02:48:10.0000000+00:00</time></trkpt><trkpt lat="22.453451" lon="103.935341"><ele>252.3</ele><time>2011-04-22T02:48:15.0000000+00:00</time></trkpt><trkpt lat="22.453453" lon="103.935341"><ele>252.3</ele><time>2011-04-22T02:48:20.0000000+00:00</time></trkpt><trkpt lat="22.453459" lon="103.935333"><ele>252.4</ele><time>2011-04-22T02:48:25.0000000+00:00</time></trkpt><trkpt lat="22.453455" lon="103.935356"><ele>252.6</ele><time>2011-04-22T02:48:30.0000000+00:00</time></trkpt><trkpt lat="22.453442" lon="103.935356"><ele>252.9</ele><time>2011-04-22T02:48:35.0000000+00:00</time></trkpt><trkpt lat="22.453444" lon="103.935356"><ele>253.1</ele><time>2011-04-22T02:48:40.0000000+00:00</time></trkpt><trkpt lat="22.453444" lon="103.935356"><ele>253.3</ele><time>2011-04-22T02:48:45.0000000+00:00</time></trkpt><trkpt lat="22.453445" lon="103.935356"><ele>253.3</ele><time>2011-04-22T02:48:50.0000000+00:00</time></trkpt><trkpt lat="22.453444" lon="103.935356"><ele>253.3</ele><time>2011-04-22T02:48:55.0000000+00:00</time></trkpt><trkpt lat="22.453444" lon="103.935356"><ele>253.3</ele><time>2011-04-22T02:49:00.0000000+00:00</time></trkpt><trkpt lat="22.453444" lon="103.935356"><ele>253.4</ele><time>2011-04-22T02:49:05.0000000+00:00</time></trkpt><trkpt lat="22.453444" lon="103.935356"><ele>253.4</ele><time>2011-04-22T02:49:10.0000000+00:00</time></trkpt><trkpt lat="22.453444" lon="103.935356"><ele>253.4</ele><time>2011-04-22T02:49:15.0000000+00:00</time></trkpt><trkpt lat="22.453444" lon="103.935356"><ele>253.4</ele><time>2011-04-22T02:49:20.0000000+00:00</time></trkpt><trkpt lat="22.453444" lon="103.935356"><ele>253.4</ele><time>2011-04-22T02:49:25.0000000+00:00</time></trkpt><trkpt lat="22.453485" lon="103.935257"><ele>254.3</ele><time>2011-04-22T02:49:30.0000000+00:00</time></trkpt><trkpt lat="22.453501" lon="103.935112"><ele>254.9</ele><time>2011-04-22T02:49:35.0000000+00:00</time></trkpt><trkpt lat="22.45352" lon="103.934944"><ele>255.2</ele><time>2011-04-22T02:49:40.0000000+00:00</time></trkpt><trkpt lat="22.453537" lon="103.934784"><ele>256.3</ele><time>2011-04-22T02:49:45.0000000+00:00</time></trkpt><trkpt lat="22.453533" lon="103.934631"><ele>257.1</ele><time>2011-04-22T02:49:50.0000000+00:00</time></trkpt><trkpt lat="22.453512" lon="103.934471"><ele>259.1</ele><time>2011-04-22T02:49:55.0000000+00:00</time></trkpt><trkpt lat="22.453482" lon="103.934296"><ele>260.7</ele><time>2011-04-22T02:50:00.0000000+00:00</time></trkpt><trkpt lat="22.453484" lon="103.934128"><ele>262.8</ele><time>2011-04-22T02:50:05.0000000+00:00</time></trkpt><trkpt lat="22.453514" lon="103.93396"><ele>264.6</ele><time>2011-04-22T02:50:10.0000000+00:00</time></trkpt><trkpt lat="22.45355" lon="103.933815"><ele>265.4</ele><time>2011-04-22T02:50:15.0000000+00:00</time></trkpt><trkpt lat="22.453587" lon="103.933693"><ele>266.5</ele><time>2011-04-22T02:50:20.0000000+00:00</time></trkpt><trkpt lat="22.453615" lon="103.933571"><ele>267.1</ele><time>2011-04-22T02:50:25.0000000+00:00</time></trkpt><trkpt lat="22.453636" lon="103.933479"><ele>269.0</ele><time>2011-04-22T02:50:30.0000000+00:00</time></trkpt><trkpt lat="22.453653" lon="103.93338"><ele>270.1</ele><time>2011-04-22T02:50:35.0000000+00:00</time></trkpt><trkpt lat="22.453661" lon="103.933289"><ele>270.8</ele><time>2011-04-22T02:50:40.0000000+00:00</time></trkpt><trkpt lat="22.453653" lon="103.933197"><ele>271.7</ele><time>2011-04-22T02:50:45.0000000+00:00</time></trkpt><trkpt lat="22.453632" lon="103.933121"><ele>272.3</ele><time>2011-04-22T02:50:50.0000000+00:00</time></trkpt><trkpt lat="22.453617" lon="103.933044"><ele>270.5</ele><time>2011-04-22T02:50:55.0000000+00:00</time></trkpt><trkpt lat="22.453568" lon="103.932938"><ele>270.1</ele><time>2011-04-22T02:51:00.0000000+00:00</time></trkpt><trkpt lat="22.453468" lon="103.932785"><ele>270.9</ele><time>2011-04-22T02:51:05.0000000+00:00</time></trkpt><trkpt lat="22.453369" lon="103.932701"><ele>271.7</ele><time>2011-04-22T02:51:10.0000000+00:00</time></trkpt><trkpt lat="22.453251" lon="103.932678"><ele>272.9</ele><time>2011-04-22T02:51:15.0000000+00:00</time></trkpt><trkpt lat="22.453131" lon="103.932678"><ele>273.6</ele><time>2011-04-22T02:51:20.0000000+00:00</time></trkpt><trkpt lat="22.453011" lon="103.932686"><ele>275.0</ele><time>2011-04-22T02:51:25.0000000+00:00</time></trkpt><trkpt lat="22.452898" lon="103.932686"><ele>276.3</ele><time>2011-04-22T02:51:30.0000000+00:00</time></trkpt><trkpt lat="22.452787" lon="103.932693"><ele>276.8</ele><time>2011-04-22T02:51:35.0000000+00:00</time></trkpt><trkpt lat="22.452711" lon="103.932686"><ele>277.4</ele><time>2011-04-22T02:51:40.0000000+00:00</time></trkpt><trkpt lat="22.452639" lon="103.932686"><ele>278.3</ele><time>2011-04-22T02:51:45.0000000+00:00</time></trkpt><trkpt lat="22.452566" lon="103.932686"><ele>279.6</ele><time>2011-04-22T02:51:50.0000000+00:00</time></trkpt><trkpt lat="22.452501" lon="103.932678"><ele>280.5</ele><time>2011-04-22T02:51:55.0000000+00:00</time></trkpt><trkpt lat="22.452431" lon="103.932671"><ele>282.4</ele><time>2011-04-22T02:52:00.0000000+00:00</time></trkpt><trkpt lat="22.452358" lon="103.932671"><ele>283.4</ele><time>2011-04-22T02:52:05.0000000+00:00</time></trkpt><trkpt lat="22.452286" lon="103.932678"><ele>284.7</ele><time>2011-04-22T02:52:10.0000000+00:00</time></trkpt><trkpt lat="22.452211" lon="103.932678"><ele>285.0</ele><time>2011-04-22T02:52:15.0000000+00:00</time></trkpt><trkpt lat="22.452137" lon="103.932678"><ele>284.8</ele><time>2011-04-22T02:52:20.0000000+00:00</time></trkpt><trkpt lat="22.452066" lon="103.932671"><ele>285.4</ele><time>2011-04-22T02:52:25.0000000+00:00</time></trkpt><trkpt lat="22.451994" lon="103.932671"><ele>286.1</ele><time>2011-04-22T02:52:30.0000000+00:00</time></trkpt><trkpt lat="22.451918" lon="103.932671"><ele>286.2</ele><time>2011-04-22T02:52:35.0000000+00:00</time></trkpt><trkpt lat="22.451838" lon="103.932671"><ele>287.1</ele><time>2011-04-22T02:52:40.0000000+00:00</time></trkpt><trkpt lat="22.451757" lon="103.932671"><ele>288.0</ele><time>2011-04-22T02:52:45.0000000+00:00</time></trkpt><trkpt lat="22.451685" lon="103.932678"><ele>289.2</ele><time>2011-04-22T02:52:50.0000000+00:00</time></trkpt><trkpt lat="22.451614" lon="103.932709"><ele>290.3</ele><time>2011-04-22T02:52:55.0000000+00:00</time></trkpt><trkpt lat="22.451542" lon="103.932739"><ele>291.3</ele><time>2011-04-22T02:53:00.0000000+00:00</time></trkpt><trkpt lat="22.451488" lon="103.932793"><ele>292.8</ele><time>2011-04-22T02:53:05.0000000+00:00</time></trkpt><trkpt lat="22.451443" lon="103.932846"><ele>293.6</ele><time>2011-04-22T02:53:10.0000000+00:00</time></trkpt><trkpt lat="22.451403" lon="103.932907"><ele>294.5</ele><time>2011-04-22T02:53:15.0000000+00:00</time></trkpt><trkpt lat="22.451378" lon="103.932968"><ele>296.0</ele><time>2011-04-22T02:53:20.0000000+00:00</time></trkpt><trkpt lat="22.451363" lon="103.933052"><ele>297.4</ele><time>2011-04-22T02:53:25.0000000+00:00</time></trkpt><trkpt lat="22.451355" lon="103.933136"><ele>298.5</ele><time>2011-04-22T02:53:30.0000000+00:00</time></trkpt><trkpt lat="22.451359" lon="103.93322"><ele>298.9</ele><time>2011-04-22T02:53:35.0000000+00:00</time></trkpt><trkpt lat="22.451355" lon="103.933296"><ele>297.8</ele><time>2011-04-22T02:53:40.0000000+00:00</time></trkpt><trkpt lat="22.451365" lon="103.933372"><ele>296.0</ele><time>2011-04-22T02:53:45.0000000+00:00</time></trkpt><trkpt lat="22.451382" lon="103.933441"><ele>294.6</ele><time>2011-04-22T02:53:50.0000000+00:00</time></trkpt><trkpt lat="22.451399" lon="103.933517"><ele>292.8</ele><time>2011-04-22T02:53:55.0000000+00:00</time></trkpt><trkpt lat="22.451426" lon="103.933609"><ele>292.6</ele><time>2011-04-22T02:54:00.0000000+00:00</time></trkpt><trkpt lat="22.451447" lon="103.933701"><ele>292.6</ele><time>2011-04-22T02:54:05.0000000+00:00</time></trkpt><trkpt lat="22.451464" lon="103.933792"><ele>293.4</ele><time>2011-04-22T02:54:10.0000000+00:00</time></trkpt><trkpt lat="22.451443" lon="103.933899"><ele>294.1</ele><time>2011-04-22T02:54:15.0000000+00:00</time></trkpt><trkpt lat="22.451401" lon="103.933983"><ele>294.9</ele><time>2011-04-22T02:54:20.0000000+00:00</time></trkpt><trkpt lat="22.451355" lon="103.934044"><ele>296.1</ele><time>2011-04-22T02:54:25.0000000+00:00</time></trkpt><trkpt lat="22.451284" lon="103.934097"><ele>297.3</ele><time>2011-04-22T02:54:30.0000000+00:00</time></trkpt><trkpt lat="22.451208" lon="103.934143"><ele>299.1</ele><time>2011-04-22T02:54:35.0000000+00:00</time></trkpt><trkpt lat="22.451151" lon="103.934174"><ele>300.8</ele><time>2011-04-22T02:54:40.0000000+00:00</time></trkpt><trkpt lat="22.451107" lon="103.934212"><ele>302.9</ele><time>2011-04-22T02:54:45.0000000+00:00</time></trkpt><trkpt lat="22.451048" lon="103.93425"><ele>304.9</ele><time>2011-04-22T02:54:50.0000000+00:00</time></trkpt><trkpt lat="22.450981" lon="103.934288"><ele>307.1</ele><time>2011-04-22T02:54:55.0000000+00:00</time></trkpt><trkpt lat="22.450911" lon="103.934326"><ele>308.8</ele><time>2011-04-22T02:55:00.0000000+00:00</time></trkpt><trkpt lat="22.450832" lon="103.934372"><ele>310.2</ele><time>2011-04-22T02:55:05.0000000+00:00</time></trkpt><trkpt lat="22.450752" lon="103.934418"><ele>311.5</ele><time>2011-04-22T02:55:10.0000000+00:00</time></trkpt><trkpt lat="22.450672" lon="103.934464"><ele>313.3</ele><time>2011-04-22T02:55:15.0000000+00:00</time></trkpt><trkpt lat="22.450603" lon="103.934517"><ele>315.3</ele><time>2011-04-22T02:55:20.0000000+00:00</time></trkpt><trkpt lat="22.450523" lon="103.93457"><ele>316.8</ele><time>2011-04-22T02:55:25.0000000+00:00</time></trkpt><trkpt lat="22.450449" lon="103.934616"><ele>318.5</ele><time>2011-04-22T02:55:30.0000000+00:00</time></trkpt><trkpt lat="22.450359" lon="103.934662"><ele>319.3</ele><time>2011-04-22T02:55:35.0000000+00:00</time></trkpt><trkpt lat="22.450272" lon="103.9347"><ele>320.9</ele><time>2011-04-22T02:55:40.0000000+00:00</time></trkpt><trkpt lat="22.450176" lon="103.934723"><ele>321.8</ele><time>2011-04-22T02:55:45.0000000+00:00</time></trkpt><trkpt lat="22.450089" lon="103.934708"><ele>323.4</ele><time>2011-04-22T02:55:50.0000000+00:00</time></trkpt><trkpt lat="22.450008" lon="103.934677"><ele>325.3</ele><time>2011-04-22T02:55:55.0000000+00:00</time></trkpt><trkpt lat="22.449928" lon="103.934639"><ele>327.3</ele><time>2011-04-22T02:56:00.0000000+00:00</time></trkpt><trkpt lat="22.449846" lon="103.934608"><ele>329.3</ele><time>2011-04-22T02:56:05.0000000+00:00</time></trkpt><trkpt lat="22.449766" lon="103.934563"><ele>330.3</ele><time>2011-04-22T02:56:10.0000000+00:00</time></trkpt><trkpt lat="22.44969" lon="103.934525"><ele>331.1</ele><time>2011-04-22T02:56:15.0000000+00:00</time></trkpt><trkpt lat="22.449621" lon="103.934502"><ele>332.2</ele><time>2011-04-22T02:56:20.0000000+00:00</time></trkpt><trkpt lat="22.449547" lon="103.934471"><ele>333.7</ele><time>2011-04-22T02:56:25.0000000+00:00</time></trkpt><trkpt lat="22.449535" lon="103.934456"><ele>333.7</ele><time>2011-04-22T02:56:30.0000000+00:00</time></trkpt><trkpt lat="22.449505" lon="103.934448"><ele>333.7</ele><time>2011-04-22T02:56:35.0000000+00:00</time></trkpt><trkpt lat="22.449425" lon="103.934418"><ele>334.5</ele><time>2011-04-22T02:56:40.0000000+00:00</time></trkpt><trkpt lat="22.449339" lon="103.934372"><ele>335.3</ele><time>2011-04-22T02:56:45.0000000+00:00</time></trkpt><trkpt lat="22.449253" lon="103.934311"><ele>336.7</ele><time>2011-04-22T02:56:50.0000000+00:00</time></trkpt><trkpt lat="22.449169" lon="103.934258"><ele>337.0</ele><time>2011-04-22T02:56:55.0000000+00:00</time></trkpt><trkpt lat="22.449085" lon="103.934189"><ele>338.3</ele><time>2011-04-22T02:57:00.0000000+00:00</time></trkpt><trkpt lat="22.44899" lon="103.93412"><ele>338.9</ele><time>2011-04-22T02:57:05.0000000+00:00</time></trkpt><trkpt lat="22.448889" lon="103.934052"><ele>339.9</ele><time>2011-04-22T02:57:10.0000000+00:00</time></trkpt><trkpt lat="22.448786" lon="103.933998"><ele>341.3</ele><time>2011-04-22T02:57:15.0000000+00:00</time></trkpt><trkpt lat="22.448675" lon="103.933998"><ele>342.5</ele><time>2011-04-22T02:57:20.0000000+00:00</time></trkpt><trkpt lat="22.448591" lon="103.934029"><ele>345.0</ele><time>2011-04-22T02:57:25.0000000+00:00</time></trkpt><trkpt lat="22.448528" lon="103.934067"><ele>346.5</ele><time>2011-04-22T02:57:30.0000000+00:00</time></trkpt><trkpt lat="22.448473" lon="103.934113"><ele>348.3</ele><time>2011-04-22T02:57:35.0000000+00:00</time></trkpt><trkpt lat="22.448425" lon="103.934135"><ele>349.2</ele><time>2011-04-22T02:57:40.0000000+00:00</time></trkpt><trkpt lat="22.448362" lon="103.934158"><ele>349.3</ele><time>2011-04-22T02:57:45.0000000+00:00</time></trkpt><trkpt lat="22.448309" lon="103.934181"><ele>349.3</ele><time>2011-04-22T02:57:50.0000000+00:00</time></trkpt><trkpt lat="22.448299" lon="103.934181"><ele>348.3</ele><time>2011-04-22T02:57:55.0000000+00:00</time></trkpt><trkpt lat="22.448303" lon="103.934181"><ele>348.8</ele><time>2011-04-22T02:58:00.0000000+00:00</time></trkpt><trkpt lat="22.448307" lon="103.934181"><ele>349.3</ele><time>2011-04-22T02:58:05.0000000+00:00</time></trkpt><trkpt lat="22.448307" lon="103.934181"><ele>349.7</ele><time>2011-04-22T02:58:10.0000000+00:00</time></trkpt><trkpt lat="22.448309" lon="103.934181"><ele>350.1</ele><time>2011-04-22T02:58:15.0000000+00:00</time></trkpt><trkpt lat="22.448311" lon="103.934181"><ele>350.4</ele><time>2011-04-22T02:58:20.0000000+00:00</time></trkpt><trkpt lat="22.448313" lon="103.934181"><ele>350.8</ele><time>2011-04-22T02:58:25.0000000+00:00</time></trkpt><trkpt lat="22.448315" lon="103.934181"><ele>351.1</ele><time>2011-04-22T02:58:30.0000000+00:00</time></trkpt><trkpt lat="22.448317" lon="103.934181"><ele>351.3</ele><time>2011-04-22T02:58:35.0000000+00:00</time></trkpt><trkpt lat="22.448317" lon="103.934181"><ele>351.3</ele><time>2011-04-22T02:58:40.0000000+00:00</time></trkpt><trkpt lat="22.448315" lon="103.934181"><ele>351.3</ele><time>2011-04-22T02:58:45.0000000+00:00</time></trkpt><trkpt lat="22.448315" lon="103.934181"><ele>351.2</ele><time>2011-04-22T02:58:50.0000000+00:00</time></trkpt><trkpt lat="22.448315" lon="103.934181"><ele>351.2</ele><time>2011-04-22T02:58:55.0000000+00:00</time></trkpt><trkpt lat="22.448317" lon="103.934181"><ele>351.2</ele><time>2011-04-22T02:59:00.0000000+00:00</time></trkpt><trkpt lat="22.448315" lon="103.934181"><ele>351.1</ele><time>2011-04-22T02:59:05.0000000+00:00</time></trkpt><trkpt lat="22.448313" lon="103.934181"><ele>350.9</ele><time>2011-04-22T02:59:10.0000000+00:00</time></trkpt><trkpt lat="22.448351" lon="103.934189"><ele>349.3</ele><time>2011-04-22T02:59:15.0000000+00:00</time></trkpt><trkpt lat="22.448385" lon="103.934189"><ele>347.0</ele><time>2011-04-22T02:59:20.0000000+00:00</time></trkpt><trkpt lat="22.448378" lon="103.934181"><ele>345.0</ele><time>2011-04-22T02:59:25.0000000+00:00</time></trkpt><trkpt lat="22.448378" lon="103.934181"><ele>344.7</ele><time>2011-04-22T02:59:30.0000000+00:00</time></trkpt><trkpt lat="22.448378" lon="103.934181"><ele>344.4</ele><time>2011-04-22T02:59:35.0000000+00:00</time></trkpt><trkpt lat="22.448378" lon="103.934181"><ele>344.3</ele><time>2011-04-22T02:59:40.0000000+00:00</time></trkpt><trkpt lat="22.448378" lon="103.934181"><ele>344.3</ele><time>2011-04-22T02:59:45.0000000+00:00</time></trkpt><trkpt lat="22.448378" lon="103.934181"><ele>344.2</ele><time>2011-04-22T02:59:50.0000000+00:00</time></trkpt><trkpt lat="22.448378" lon="103.934181"><ele>344.2</ele><time>2011-04-22T02:59:55.0000000+00:00</time></trkpt><trkpt lat="22.448378" lon="103.934181"><ele>344.1</ele><time>2011-04-22T03:00:00.0000000+00:00</time></trkpt><trkpt lat="22.448378" lon="103.934181"><ele>344.0</ele><time>2011-04-22T03:00:05.0000000+00:00</time></trkpt><trkpt lat="22.448378" lon="103.934181"><ele>344.0</ele><time>2011-04-22T03:00:10.0000000+00:00</time></trkpt><trkpt lat="22.448378" lon="103.934181"><ele>343.9</ele><time>2011-04-22T03:00:15.0000000+00:00</time></trkpt><trkpt lat="22.448376" lon="103.934181"><ele>343.8</ele><time>2011-04-22T03:00:20.0000000+00:00</time></trkpt><trkpt lat="22.448374" lon="103.934181"><ele>343.7</ele><time>2011-04-22T03:00:25.0000000+00:00</time></trkpt><trkpt lat="22.448374" lon="103.934181"><ele>343.6</ele><time>2011-04-22T03:00:30.0000000+00:00</time></trkpt><trkpt lat="22.448374" lon="103.934181"><ele>343.5</ele><time>2011-04-22T03:00:35.0000000+00:00</time></trkpt><trkpt lat="22.448374" lon="103.934181"><ele>343.4</ele><time>2011-04-22T03:00:40.0000000+00:00</time></trkpt><trkpt lat="22.448374" lon="103.934181"><ele>343.4</ele><time>2011-04-22T03:00:45.0000000+00:00</time></trkpt><trkpt lat="22.448374" lon="103.934181"><ele>343.3</ele><time>2011-04-22T03:00:50.0000000+00:00</time></trkpt><trkpt lat="22.448374" lon="103.934181"><ele>343.3</ele><time>2011-04-22T03:00:55.0000000+00:00</time></trkpt><trkpt lat="22.448374" lon="103.934181"><ele>343.2</ele><time>2011-04-22T03:01:00.0000000+00:00</time></trkpt><trkpt lat="22.448372" lon="103.934181"><ele>343.2</ele><time>2011-04-22T03:01:05.0000000+00:00</time></trkpt><trkpt lat="22.448372" lon="103.934181"><ele>343.1</ele><time>2011-04-22T03:01:10.0000000+00:00</time></trkpt><trkpt lat="22.448372" lon="103.934181"><ele>343.1</ele><time>2011-04-22T03:01:15.0000000+00:00</time></trkpt><trkpt lat="22.448372" lon="103.934181"><ele>343.1</ele><time>2011-04-22T03:01:20.0000000+00:00</time></trkpt><trkpt lat="22.448372" lon="103.934181"><ele>343.1</ele><time>2011-04-22T03:01:25.0000000+00:00</time></trkpt><trkpt lat="22.448372" lon="103.934181"><ele>343.0</ele><time>2011-04-22T03:01:30.0000000+00:00</time></trkpt><trkpt lat="22.448372" lon="103.934181"><ele>342.9</ele><time>2011-04-22T03:01:35.0000000+00:00</time></trkpt><trkpt lat="22.448374" lon="103.934181"><ele>342.9</ele><time>2011-04-22T03:01:40.0000000+00:00</time></trkpt><trkpt lat="22.448374" lon="103.934181"><ele>342.8</ele><time>2011-04-22T03:01:45.0000000+00:00</time></trkpt><trkpt lat="22.448374" lon="103.934181"><ele>342.9</ele><time>2011-04-22T03:01:50.0000000+00:00</time></trkpt><trkpt lat="22.448374" lon="103.934181"><ele>342.9</ele><time>2011-04-22T03:01:55.0000000+00:00</time></trkpt><trkpt lat="22.448374" lon="103.934181"><ele>342.9</ele><time>2011-04-22T03:02:00.0000000+00:00</time></trkpt><trkpt lat="22.448374" lon="103.934181"><ele>342.8</ele><time>2011-04-22T03:02:05.0000000+00:00</time></trkpt><trkpt lat="22.448376" lon="103.934181"><ele>342.8</ele><time>2011-04-22T03:02:10.0000000+00:00</time></trkpt><trkpt lat="22.448376" lon="103.934181"><ele>342.7</ele><time>2011-04-22T03:02:15.0000000+00:00</time></trkpt><trkpt lat="22.448376" lon="103.934181"><ele>342.7</ele><time>2011-04-22T03:02:20.0000000+00:00</time></trkpt><trkpt lat="22.448376" lon="103.934181"><ele>342.5</ele><time>2011-04-22T03:02:25.0000000+00:00</time></trkpt><trkpt lat="22.448376" lon="103.934181"><ele>342.3</ele><time>2011-04-22T03:02:30.0000000+00:00</time></trkpt><trkpt lat="22.448372" lon="103.934181"><ele>342.2</ele><time>2011-04-22T03:02:35.0000000+00:00</time></trkpt><trkpt lat="22.448372" lon="103.934181"><ele>342.0</ele><time>2011-04-22T03:02:40.0000000+00:00</time></trkpt><trkpt lat="22.448368" lon="103.934181"><ele>341.8</ele><time>2011-04-22T03:02:45.0000000+00:00</time></trkpt><trkpt lat="22.448368" lon="103.934181"><ele>341.8</ele><time>2011-04-22T03:02:50.0000000+00:00</time></trkpt><trkpt lat="22.448368" lon="103.934181"><ele>341.7</ele><time>2011-04-22T03:02:55.0000000+00:00</time></trkpt><trkpt lat="22.448387" lon="103.934143"><ele>335.7</ele><time>2011-04-22T03:03:00.0000000+00:00</time></trkpt><trkpt lat="22.448381" lon="103.934135"><ele>334.0</ele><time>2011-04-22T03:03:05.0000000+00:00</time></trkpt><trkpt lat="22.448385" lon="103.934135"><ele>333.8</ele><time>2011-04-22T03:03:10.0000000+00:00</time></trkpt><trkpt lat="22.448385" lon="103.934135"><ele>333.8</ele><time>2011-04-22T03:03:15.0000000+00:00</time></trkpt><trkpt lat="22.448385" lon="103.934135"><ele>333.8</ele><time>2011-04-22T03:03:20.0000000+00:00</time></trkpt><trkpt lat="22.448385" lon="103.934135"><ele>333.7</ele><time>2011-04-22T03:03:25.0000000+00:00</time></trkpt><trkpt lat="22.448383" lon="103.934135"><ele>333.7</ele><time>2011-04-22T03:03:30.0000000+00:00</time></trkpt><trkpt lat="22.448374" lon="103.934128"><ele>332.9</ele><time>2011-04-22T03:03:35.0000000+00:00</time></trkpt><trkpt lat="22.44833" lon="103.934158"><ele>330.2</ele><time>2011-04-22T03:03:40.0000000+00:00</time></trkpt><trkpt lat="22.448322" lon="103.934166"><ele>329.2</ele><time>2011-04-22T03:03:45.0000000+00:00</time></trkpt><trkpt lat="22.448318" lon="103.934174"><ele>329.2</ele><time>2011-04-22T03:03:50.0000000+00:00</time></trkpt><trkpt lat="22.448298" lon="103.934181"><ele>329.1</ele><time>2011-04-22T03:03:55.0000000+00:00</time></trkpt><trkpt lat="22.448217" lon="103.934196"><ele>329.4</ele><time>2011-04-22T03:04:00.0000000+00:00</time></trkpt><trkpt lat="22.448147" lon="103.934235"><ele>330.4</ele><time>2011-04-22T03:04:05.0000000+00:00</time></trkpt><trkpt lat="22.448084" lon="103.934258"><ele>331.9</ele><time>2011-04-22T03:04:10.0000000+00:00</time></trkpt><trkpt lat="22.448013" lon="103.934303"><ele>334.2</ele><time>2011-04-22T03:04:15.0000000+00:00</time></trkpt><trkpt lat="22.447937" lon="103.934349"><ele>336.3</ele><time>2011-04-22T03:04:20.0000000+00:00</time></trkpt><trkpt lat="22.44787" lon="103.934402"><ele>339.3</ele><time>2011-04-22T03:04:25.0000000+00:00</time></trkpt><trkpt lat="22.447802" lon="103.934448"><ele>342.1</ele><time>2011-04-22T03:04:30.0000000+00:00</time></trkpt><trkpt lat="22.447721" lon="103.934494"><ele>345.1</ele><time>2011-04-22T03:04:35.0000000+00:00</time></trkpt><trkpt lat="22.447645" lon="103.934547"><ele>348.0</ele><time>2011-04-22T03:04:40.0000000+00:00</time></trkpt><trkpt lat="22.447563" lon="103.934593"><ele>350.9</ele><time>2011-04-22T03:04:45.0000000+00:00</time></trkpt><trkpt lat="22.44747" lon="103.934662"><ele>353.3</ele><time>2011-04-22T03:04:50.0000000+00:00</time></trkpt><trkpt lat="22.447416" lon="103.934746"><ele>355.9</ele><time>2011-04-22T03:04:55.0000000+00:00</time></trkpt><trkpt lat="22.447392" lon="103.934837"><ele>358.3</ele><time>2011-04-22T03:05:00.0000000+00:00</time></trkpt><trkpt lat="22.447382" lon="103.934914"><ele>361.2</ele><time>2011-04-22T03:05:05.0000000+00:00</time></trkpt><trkpt lat="22.447372" lon="103.935013"><ele>362.1</ele><time>2011-04-22T03:05:10.0000000+00:00</time></trkpt><trkpt lat="22.447363" lon="103.935081"><ele>362.5</ele><time>2011-04-22T03:05:15.0000000+00:00</time></trkpt><trkpt lat="22.447344" lon="103.935181"><ele>361.6</ele><time>2011-04-22T03:05:20.0000000+00:00</time></trkpt><trkpt lat="22.447309" lon="103.935295"><ele>360.1</ele><time>2011-04-22T03:05:25.0000000+00:00</time></trkpt><trkpt lat="22.447266" lon="103.935394"><ele>361.1</ele><time>2011-04-22T03:05:30.0000000+00:00</time></trkpt><trkpt lat="22.447199" lon="103.935478"><ele>361.5</ele><time>2011-04-22T03:05:35.0000000+00:00</time></trkpt><trkpt lat="22.447098" lon="103.935524"><ele>355.3</ele><time>2011-04-22T03:05:40.0000000+00:00</time></trkpt><trkpt lat="22.447018" lon="103.935577"><ele>356.7</ele><time>2011-04-22T03:05:45.0000000+00:00</time></trkpt><trkpt lat="22.44693" lon="103.935638"><ele>358.7</ele><time>2011-04-22T03:05:50.0000000+00:00</time></trkpt><trkpt lat="22.446857" lon="103.935692"><ele>361.3</ele><time>2011-04-22T03:05:55.0000000+00:00</time></trkpt><trkpt lat="22.446772" lon="103.935738"><ele>363.8</ele><time>2011-04-22T03:06:00.0000000+00:00</time></trkpt><trkpt lat="22.44669" lon="103.935799"><ele>365.5</ele><time>2011-04-22T03:06:05.0000000+00:00</time></trkpt><trkpt lat="22.446602" lon="103.93586"><ele>367.3</ele><time>2011-04-22T03:06:10.0000000+00:00</time></trkpt><trkpt lat="22.446537" lon="103.935944"><ele>369.3</ele><time>2011-04-22T03:06:15.0000000+00:00</time></trkpt><trkpt lat="22.446501" lon="103.936066"><ele>371.9</ele><time>2011-04-22T03:06:20.0000000+00:00</time></trkpt><trkpt lat="22.446503" lon="103.936195"><ele>375.4</ele><time>2011-04-22T03:06:25.0000000+00:00</time></trkpt><trkpt lat="22.446447" lon="103.936279"><ele>355.3</ele><time>2011-04-22T03:06:30.0000000+00:00</time></trkpt><trkpt lat="22.446455" lon="103.936371"><ele>345.7</ele><time>2011-04-22T03:06:35.0000000+00:00</time></trkpt><trkpt lat="22.446503" lon="103.936447"><ele>344.6</ele><time>2011-04-22T03:06:40.0000000+00:00</time></trkpt><trkpt lat="22.446548" lon="103.936531"><ele>344.7</ele><time>2011-04-22T03:06:45.0000000+00:00</time></trkpt><trkpt lat="22.446608" lon="103.936623"><ele>346.0</ele><time>2011-04-22T03:06:50.0000000+00:00</time></trkpt><trkpt lat="22.446665" lon="103.936722"><ele>346.4</ele><time>2011-04-22T03:06:55.0000000+00:00</time></trkpt><trkpt lat="22.446705" lon="103.936829"><ele>347.8</ele><time>2011-04-22T03:07:00.0000000+00:00</time></trkpt><trkpt lat="22.446712" lon="103.936951"><ele>348.8</ele><time>2011-04-22T03:07:05.0000000+00:00</time></trkpt><trkpt lat="22.446661" lon="103.937065"><ele>349.3</ele><time>2011-04-22T03:07:10.0000000+00:00</time></trkpt><trkpt lat="22.446566" lon="103.937134"><ele>350.5</ele><time>2011-04-22T03:07:15.0000000+00:00</time></trkpt><trkpt lat="22.446444" lon="103.93718"><ele>351.7</ele><time>2011-04-22T03:07:20.0000000+00:00</time></trkpt><trkpt lat="22.446335" lon="103.937202"><ele>353.3</ele><time>2011-04-22T03:07:25.0000000+00:00</time></trkpt><trkpt lat="22.446211" lon="103.93721"><ele>354.8</ele><time>2011-04-22T03:07:30.0000000+00:00</time></trkpt><trkpt lat="22.446085" lon="103.937233"><ele>356.4</ele><time>2011-04-22T03:07:35.0000000+00:00</time></trkpt><trkpt lat="22.445969" lon="103.937248"><ele>357.7</ele><time>2011-04-22T03:07:40.0000000+00:00</time></trkpt><trkpt lat="22.44585" lon="103.937271"><ele>358.9</ele><time>2011-04-22T03:07:45.0000000+00:00</time></trkpt><trkpt lat="22.445759" lon="103.937309"><ele>359.4</ele><time>2011-04-22T03:07:50.0000000+00:00</time></trkpt><trkpt lat="22.445749" lon="103.937309"><ele>359.7</ele><time>2011-04-22T03:07:55.0000000+00:00</time></trkpt><trkpt lat="22.445742" lon="103.937309"><ele>360.1</ele><time>2011-04-22T03:08:00.0000000+00:00</time></trkpt><trkpt lat="22.445745" lon="103.937317"><ele>360.0</ele><time>2011-04-22T03:08:05.0000000+00:00</time></trkpt><trkpt lat="22.445745" lon="103.937317"><ele>360.1</ele><time>2011-04-22T03:08:10.0000000+00:00</time></trkpt><trkpt lat="22.445744" lon="103.937317"><ele>360.1</ele><time>2011-04-22T03:08:15.0000000+00:00</time></trkpt><trkpt lat="22.445742" lon="103.937309"><ele>359.9</ele><time>2011-04-22T03:08:20.0000000+00:00</time></trkpt><trkpt lat="22.445738" lon="103.937332"><ele>360.0</ele><time>2011-04-22T03:08:25.0000000+00:00</time></trkpt><trkpt lat="22.445684" lon="103.937454"><ele>360.2</ele><time>2011-04-22T03:08:30.0000000+00:00</time></trkpt><trkpt lat="22.445629" lon="103.937553"><ele>359.1</ele><time>2011-04-22T03:08:35.0000000+00:00</time></trkpt><trkpt lat="22.445633" lon="103.937645"><ele>357.5</ele><time>2011-04-22T03:08:40.0000000+00:00</time></trkpt><trkpt lat="22.445635" lon="103.937675"><ele>356.8</ele><time>2011-04-22T03:08:45.0000000+00:00</time></trkpt><trkpt lat="22.445635" lon="103.937675"><ele>356.3</ele><time>2011-04-22T03:08:50.0000000+00:00</time></trkpt><trkpt lat="22.445637" lon="103.937675"><ele>356.3</ele><time>2011-04-22T03:08:55.0000000+00:00</time></trkpt><trkpt lat="22.445639" lon="103.937675"><ele>356.5</ele><time>2011-04-22T03:09:00.0000000+00:00</time></trkpt><trkpt lat="22.445639" lon="103.937675"><ele>356.6</ele><time>2011-04-22T03:09:05.0000000+00:00</time></trkpt><trkpt lat="22.445639" lon="103.937675"><ele>356.7</ele><time>2011-04-22T03:09:10.0000000+00:00</time></trkpt><trkpt lat="22.445639" lon="103.937675"><ele>356.7</ele><time>2011-04-22T03:09:15.0000000+00:00</time></trkpt><trkpt lat="22.445639" lon="103.937675"><ele>356.6</ele><time>2011-04-22T03:09:20.0000000+00:00</time></trkpt><trkpt lat="22.445639" lon="103.937668"><ele>356.6</ele><time>2011-04-22T03:09:25.0000000+00:00</time></trkpt><trkpt lat="22.445639" lon="103.937668"><ele>356.6</ele><time>2011-04-22T03:09:30.0000000+00:00</time></trkpt><trkpt lat="22.445639" lon="103.937653"><ele>357.0</ele><time>2011-04-22T03:09:35.0000000+00:00</time></trkpt><trkpt lat="22.445637" lon="103.937584"><ele>357.0</ele><time>2011-04-22T03:09:40.0000000+00:00</time></trkpt><trkpt lat="22.445629" lon="103.937508"><ele>357.0</ele><time>2011-04-22T03:09:45.0000000+00:00</time></trkpt><trkpt lat="22.445629" lon="103.937508"><ele>356.4</ele><time>2011-04-22T03:09:50.0000000+00:00</time></trkpt><trkpt lat="22.445627" lon="103.937508"><ele>355.8</ele><time>2011-04-22T03:09:55.0000000+00:00</time></trkpt><trkpt lat="22.445625" lon="103.937508"><ele>355.2</ele><time>2011-04-22T03:10:00.0000000+00:00</time></trkpt><trkpt lat="22.445625" lon="103.937508"><ele>355.0</ele><time>2011-04-22T03:10:05.0000000+00:00</time></trkpt><trkpt lat="22.445627" lon="103.937508"><ele>354.9</ele><time>2011-04-22T03:10:10.0000000+00:00</time></trkpt><trkpt lat="22.445608" lon="103.9375"><ele>354.0</ele><time>2011-04-22T03:10:15.0000000+00:00</time></trkpt><trkpt lat="22.445568" lon="103.937546"><ele>353.5</ele><time>2011-04-22T03:10:20.0000000+00:00</time></trkpt><trkpt lat="22.445524" lon="103.937599"><ele>353.3</ele><time>2011-04-22T03:10:25.0000000+00:00</time></trkpt><trkpt lat="22.445459" lon="103.937645"><ele>353.5</ele><time>2011-04-22T03:10:30.0000000+00:00</time></trkpt><trkpt lat="22.4454" lon="103.937691"><ele>353.8</ele><time>2011-04-22T03:10:35.0000000+00:00</time></trkpt><trkpt lat="22.445337" lon="103.937752"><ele>354.0</ele><time>2011-04-22T03:10:40.0000000+00:00</time></trkpt><trkpt lat="22.445322" lon="103.937759"><ele>353.9</ele><time>2011-04-22T03:10:45.0000000+00:00</time></trkpt><trkpt lat="22.445303" lon="103.937775"><ele>354.0</ele><time>2011-04-22T03:10:50.0000000+00:00</time></trkpt><trkpt lat="22.44529" lon="103.93779"><ele>354.5</ele><time>2011-04-22T03:10:55.0000000+00:00</time></trkpt><trkpt lat="22.445286" lon="103.93779"><ele>354.3</ele><time>2011-04-22T03:11:00.0000000+00:00</time></trkpt><trkpt lat="22.445286" lon="103.93779"><ele>354.3</ele><time>2011-04-22T03:11:05.0000000+00:00</time></trkpt><trkpt lat="22.445288" lon="103.93779"><ele>354.3</ele><time>2011-04-22T03:11:10.0000000+00:00</time></trkpt><trkpt lat="22.445288" lon="103.93779"><ele>354.3</ele><time>2011-04-22T03:11:15.0000000+00:00</time></trkpt><trkpt lat="22.445288" lon="103.937798"><ele>354.2</ele><time>2011-04-22T03:11:20.0000000+00:00</time></trkpt><trkpt lat="22.445288" lon="103.937805"><ele>354.2</ele><time>2011-04-22T03:11:25.0000000+00:00</time></trkpt><trkpt lat="22.445269" lon="103.93782"><ele>354.2</ele><time>2011-04-22T03:11:30.0000000+00:00</time></trkpt><trkpt lat="22.445255" lon="103.937813"><ele>354.0</ele><time>2011-04-22T03:11:35.0000000+00:00</time></trkpt><trkpt lat="22.445259" lon="103.937813"><ele>353.7</ele><time>2011-04-22T03:11:40.0000000+00:00</time></trkpt><trkpt lat="22.445261" lon="103.937813"><ele>353.7</ele><time>2011-04-22T03:11:45.0000000+00:00</time></trkpt><trkpt lat="22.445265" lon="103.937828"><ele>353.8</ele><time>2011-04-22T03:11:50.0000000+00:00</time></trkpt><trkpt lat="22.445263" lon="103.937828"><ele>353.7</ele><time>2011-04-22T03:11:55.0000000+00:00</time></trkpt><trkpt lat="22.445263" lon="103.93782"><ele>353.9</ele><time>2011-04-22T03:12:00.0000000+00:00</time></trkpt><trkpt lat="22.445286" lon="103.937813"><ele>353.4</ele><time>2011-04-22T03:12:05.0000000+00:00</time></trkpt><trkpt lat="22.445288" lon="103.937813"><ele>353.7</ele><time>2011-04-22T03:12:10.0000000+00:00</time></trkpt><trkpt lat="22.44528" lon="103.937813"><ele>353.8</ele><time>2011-04-22T03:12:15.0000000+00:00</time></trkpt><trkpt lat="22.445278" lon="103.937813"><ele>353.8</ele><time>2011-04-22T03:12:20.0000000+00:00</time></trkpt><trkpt lat="22.445278" lon="103.937813"><ele>353.9</ele><time>2011-04-22T03:12:25.0000000+00:00</time></trkpt><trkpt lat="22.445272" lon="103.937805"><ele>354.0</ele><time>2011-04-22T03:12:30.0000000+00:00</time></trkpt><trkpt lat="22.445271" lon="103.937805"><ele>354.0</ele><time>2011-04-22T03:12:35.0000000+00:00</time></trkpt><trkpt lat="22.445272" lon="103.937805"><ele>354.2</ele><time>2011-04-22T03:12:40.0000000+00:00</time></trkpt><trkpt lat="22.445271" lon="103.93779"><ele>353.5</ele><time>2011-04-22T03:12:45.0000000+00:00</time></trkpt><trkpt lat="22.445265" lon="103.93779"><ele>353.7</ele><time>2011-04-22T03:12:50.0000000+00:00</time></trkpt><trkpt lat="22.445265" lon="103.937798"><ele>353.8</ele><time>2011-04-22T03:12:55.0000000+00:00</time></trkpt><trkpt lat="22.445267" lon="103.93779"><ele>353.8</ele><time>2011-04-22T03:13:00.0000000+00:00</time></trkpt><trkpt lat="22.445267" lon="103.93779"><ele>353.8</ele><time>2011-04-22T03:13:05.0000000+00:00</time></trkpt><trkpt lat="22.445265" lon="103.937798"><ele>353.8</ele><time>2011-04-22T03:13:10.0000000+00:00</time></trkpt><trkpt lat="22.445267" lon="103.937798"><ele>353.8</ele><time>2011-04-22T03:13:15.0000000+00:00</time></trkpt><trkpt lat="22.445267" lon="103.937798"><ele>353.8</ele><time>2011-04-22T03:13:20.0000000+00:00</time></trkpt><trkpt lat="22.445267" lon="103.937798"><ele>353.8</ele><time>2011-04-22T03:13:25.0000000+00:00</time></trkpt><trkpt lat="22.445267" lon="103.937798"><ele>353.8</ele><time>2011-04-22T03:13:30.0000000+00:00</time></trkpt><trkpt lat="22.445267" lon="103.937798"><ele>353.8</ele><time>2011-04-22T03:13:35.0000000+00:00</time></trkpt><trkpt lat="22.445267" lon="103.937798"><ele>353.8</ele><time>2011-04-22T03:13:40.0000000+00:00</time></trkpt><trkpt lat="22.445267" lon="103.937798"><ele>353.8</ele><time>2011-04-22T03:13:45.0000000+00:00</time></trkpt><trkpt lat="22.445267" lon="103.937798"><ele>353.8</ele><time>2011-04-22T03:13:50.0000000+00:00</time></trkpt><trkpt lat="22.445267" lon="103.937798"><ele>353.8</ele><time>2011-04-22T03:13:55.0000000+00:00</time></trkpt><trkpt lat="22.445267" lon="103.937798"><ele>353.7</ele><time>2011-04-22T03:14:00.0000000+00:00</time></trkpt><trkpt lat="22.445267" lon="103.937798"><ele>353.7</ele><time>2011-04-22T03:14:05.0000000+00:00</time></trkpt><trkpt lat="22.445267" lon="103.937798"><ele>353.7</ele><time>2011-04-22T03:14:10.0000000+00:00</time></trkpt><trkpt lat="22.445267" lon="103.937798"><ele>353.7</ele><time>2011-04-22T03:14:15.0000000+00:00</time></trkpt><trkpt lat="22.445267" lon="103.937798"><ele>353.7</ele><time>2011-04-22T03:14:20.0000000+00:00</time></trkpt><trkpt lat="22.445267" lon="103.937798"><ele>353.7</ele><time>2011-04-22T03:14:25.0000000+00:00</time></trkpt><trkpt lat="22.445267" lon="103.937798"><ele>353.7</ele><time>2011-04-22T03:14:30.0000000+00:00</time></trkpt><trkpt lat="22.445267" lon="103.937798"><ele>353.7</ele><time>2011-04-22T03:14:35.0000000+00:00</time></trkpt><trkpt lat="22.445267" lon="103.937798"><ele>353.7</ele><time>2011-04-22T03:14:40.0000000+00:00</time></trkpt><trkpt lat="22.445261" lon="103.937813"><ele>353.6</ele><time>2011-04-22T03:14:45.0000000+00:00</time></trkpt><trkpt lat="22.445257" lon="103.937828"><ele>353.9</ele><time>2011-04-22T03:14:50.0000000+00:00</time></trkpt><trkpt lat="22.445257" lon="103.937836"><ele>353.9</ele><time>2011-04-22T03:14:55.0000000+00:00</time></trkpt><trkpt lat="22.445259" lon="103.937836"><ele>354.0</ele><time>2011-04-22T03:15:00.0000000+00:00</time></trkpt><trkpt lat="22.445259" lon="103.937828"><ele>354.2</ele><time>2011-04-22T03:15:05.0000000+00:00</time></trkpt><trkpt lat="22.445255" lon="103.937828"><ele>354.3</ele><time>2011-04-22T03:15:10.0000000+00:00</time></trkpt><trkpt lat="22.445257" lon="103.937828"><ele>354.4</ele><time>2011-04-22T03:15:15.0000000+00:00</time></trkpt><trkpt lat="22.445261" lon="103.937843"><ele>353.7</ele><time>2011-04-22T03:15:20.0000000+00:00</time></trkpt><trkpt lat="22.445257" lon="103.937843"><ele>353.6</ele><time>2011-04-22T03:15:25.0000000+00:00</time></trkpt><trkpt lat="22.445261" lon="103.937843"><ele>353.6</ele><time>2011-04-22T03:15:30.0000000+00:00</time></trkpt><trkpt lat="22.445261" lon="103.937843"><ele>353.5</ele><time>2011-04-22T03:15:35.0000000+00:00</time></trkpt><trkpt lat="22.445261" lon="103.937843"><ele>353.5</ele><time>2011-04-22T03:15:40.0000000+00:00</time></trkpt><trkpt lat="22.445261" lon="103.937843"><ele>353.5</ele><time>2011-04-22T03:15:45.0000000+00:00</time></trkpt><trkpt lat="22.445261" lon="103.937843"><ele>353.5</ele><time>2011-04-22T03:15:50.0000000+00:00</time></trkpt><trkpt lat="22.445261" lon="103.937843"><ele>353.5</ele><time>2011-04-22T03:15:55.0000000+00:00</time></trkpt><trkpt lat="22.445261" lon="103.937843"><ele>353.5</ele><time>2011-04-22T03:16:00.0000000+00:00</time></trkpt><trkpt lat="22.445263" lon="103.937843"><ele>353.5</ele><time>2011-04-22T03:16:05.0000000+00:00</time></trkpt><trkpt lat="22.445263" lon="103.937843"><ele>353.5</ele><time>2011-04-22T03:16:10.0000000+00:00</time></trkpt><trkpt lat="22.445263" lon="103.937843"><ele>353.4</ele><time>2011-04-22T03:16:15.0000000+00:00</time></trkpt><trkpt lat="22.445263" lon="103.937843"><ele>353.4</ele><time>2011-04-22T03:16:20.0000000+00:00</time></trkpt><trkpt lat="22.445263" lon="103.937843"><ele>353.4</ele><time>2011-04-22T03:16:25.0000000+00:00</time></trkpt><trkpt lat="22.445263" lon="103.937843"><ele>353.4</ele><time>2011-04-22T03:16:30.0000000+00:00</time></trkpt><trkpt lat="22.445261" lon="103.937843"><ele>353.4</ele><time>2011-04-22T03:16:35.0000000+00:00</time></trkpt><trkpt lat="22.445263" lon="103.937843"><ele>353.3</ele><time>2011-04-22T03:16:40.0000000+00:00</time></trkpt><trkpt lat="22.445263" lon="103.937843"><ele>353.3</ele><time>2011-04-22T03:16:45.0000000+00:00</time></trkpt><trkpt lat="22.445261" lon="103.937843"><ele>353.3</ele><time>2011-04-22T03:16:50.0000000+00:00</time></trkpt><trkpt lat="22.445261" lon="103.937843"><ele>353.3</ele><time>2011-04-22T03:16:55.0000000+00:00</time></trkpt><trkpt lat="22.445263" lon="103.937843"><ele>353.3</ele><time>2011-04-22T03:17:00.0000000+00:00</time></trkpt><trkpt lat="22.445263" lon="103.937843"><ele>353.4</ele><time>2011-04-22T03:17:05.0000000+00:00</time></trkpt><trkpt lat="22.445263" lon="103.937843"><ele>353.4</ele><time>2011-04-22T03:17:10.0000000+00:00</time></trkpt><trkpt lat="22.445263" lon="103.937843"><ele>353.4</ele><time>2011-04-22T03:17:15.0000000+00:00</time></trkpt><trkpt lat="22.445263" lon="103.937843"><ele>353.4</ele><time>2011-04-22T03:17:20.0000000+00:00</time></trkpt><trkpt lat="22.445263" lon="103.937843"><ele>353.4</ele><time>2011-04-22T03:17:25.0000000+00:00</time></trkpt><trkpt lat="22.445263" lon="103.937843"><ele>353.4</ele><time>2011-04-22T03:17:30.0000000+00:00</time></trkpt><trkpt lat="22.445263" lon="103.937843"><ele>353.4</ele><time>2011-04-22T03:17:35.0000000+00:00</time></trkpt><trkpt lat="22.445263" lon="103.937843"><ele>353.5</ele><time>2011-04-22T03:17:40.0000000+00:00</time></trkpt><trkpt lat="22.445263" lon="103.937843"><ele>353.5</ele><time>2011-04-22T03:17:45.0000000+00:00</time></trkpt><trkpt lat="22.445263" lon="103.937843"><ele>353.5</ele><time>2011-04-22T03:17:50.0000000+00:00</time></trkpt><trkpt lat="22.445263" lon="103.937843"><ele>353.6</ele><time>2011-04-22T03:17:55.0000000+00:00</time></trkpt><trkpt lat="22.445263" lon="103.937843"><ele>353.6</ele><time>2011-04-22T03:18:00.0000000+00:00</time></trkpt><trkpt lat="22.445263" lon="103.937843"><ele>353.6</ele><time>2011-04-22T03:18:05.0000000+00:00</time></trkpt><trkpt lat="22.445263" lon="103.937843"><ele>353.6</ele><time>2011-04-22T03:18:10.0000000+00:00</time></trkpt><trkpt lat="22.445263" lon="103.937843"><ele>353.6</ele><time>2011-04-22T03:18:15.0000000+00:00</time></trkpt><trkpt lat="22.445263" lon="103.937843"><ele>353.6</ele><time>2011-04-22T03:18:20.0000000+00:00</time></trkpt><trkpt lat="22.445263" lon="103.937843"><ele>353.6</ele><time>2011-04-22T03:18:25.0000000+00:00</time></trkpt><trkpt lat="22.445263" lon="103.937843"><ele>353.6</ele><time>2011-04-22T03:18:30.0000000+00:00</time></trkpt><trkpt lat="22.445263" lon="103.937843"><ele>353.7</ele><time>2011-04-22T03:18:35.0000000+00:00</time></trkpt><trkpt lat="22.445263" lon="103.937843"><ele>353.7</ele><time>2011-04-22T03:18:40.0000000+00:00</time></trkpt><trkpt lat="22.445263" lon="103.937843"><ele>353.7</ele><time>2011-04-22T03:18:45.0000000+00:00</time></trkpt><trkpt lat="22.445263" lon="103.937843"><ele>353.6</ele><time>2011-04-22T03:18:50.0000000+00:00</time></trkpt><trkpt lat="22.445263" lon="103.937843"><ele>353.6</ele><time>2011-04-22T03:18:55.0000000+00:00</time></trkpt><trkpt lat="22.445263" lon="103.937843"><ele>353.6</ele><time>2011-04-22T03:19:00.0000000+00:00</time></trkpt><trkpt lat="22.445263" lon="103.937843"><ele>353.5</ele><time>2011-04-22T03:19:05.0000000+00:00</time></trkpt><trkpt lat="22.445263" lon="103.937843"><ele>353.5</ele><time>2011-04-22T03:19:10.0000000+00:00</time></trkpt><trkpt lat="22.445263" lon="103.937843"><ele>353.5</ele><time>2011-04-22T03:19:15.0000000+00:00</time></trkpt><trkpt lat="22.445263" lon="103.937843"><ele>353.5</ele><time>2011-04-22T03:19:20.0000000+00:00</time></trkpt><trkpt lat="22.445263" lon="103.937843"><ele>353.5</ele><time>2011-04-22T03:19:25.0000000+00:00</time></trkpt><trkpt lat="22.445263" lon="103.937843"><ele>353.5</ele><time>2011-04-22T03:19:30.0000000+00:00</time></trkpt><trkpt lat="22.445263" lon="103.937843"><ele>353.5</ele><time>2011-04-22T03:19:35.0000000+00:00</time></trkpt><trkpt lat="22.445263" lon="103.937843"><ele>353.5</ele><time>2011-04-22T03:19:40.0000000+00:00</time></trkpt><trkpt lat="22.445263" lon="103.937843"><ele>353.5</ele><time>2011-04-22T03:19:45.0000000+00:00</time></trkpt><trkpt lat="22.445263" lon="103.937843"><ele>353.5</ele><time>2011-04-22T03:19:50.0000000+00:00</time></trkpt><trkpt lat="22.445265" lon="103.937843"><ele>353.5</ele><time>2011-04-22T03:19:55.0000000+00:00</time></trkpt><trkpt lat="22.445265" lon="103.937843"><ele>353.5</ele><time>2011-04-22T03:20:00.0000000+00:00</time></trkpt><trkpt lat="22.445265" lon="103.937843"><ele>353.5</ele><time>2011-04-22T03:20:05.0000000+00:00</time></trkpt><trkpt lat="22.445265" lon="103.937843"><ele>353.5</ele><time>2011-04-22T03:20:10.0000000+00:00</time></trkpt><trkpt lat="22.445265" lon="103.937843"><ele>353.5</ele><time>2011-04-22T03:20:15.0000000+00:00</time></trkpt><trkpt lat="22.445265" lon="103.937843"><ele>353.5</ele><time>2011-04-22T03:20:20.0000000+00:00</time></trkpt><trkpt lat="22.445265" lon="103.937843"><ele>353.5</ele><time>2011-04-22T03:20:25.0000000+00:00</time></trkpt><trkpt lat="22.445265" lon="103.937843"><ele>353.6</ele><time>2011-04-22T03:20:30.0000000+00:00</time></trkpt><trkpt lat="22.445265" lon="103.937843"><ele>353.6</ele><time>2011-04-22T03:20:35.0000000+00:00</time></trkpt><trkpt lat="22.445265" lon="103.937843"><ele>353.6</ele><time>2011-04-22T03:20:40.0000000+00:00</time></trkpt><trkpt lat="22.445267" lon="103.937843"><ele>353.6</ele><time>2011-04-22T03:20:45.0000000+00:00</time></trkpt><trkpt lat="22.445267" lon="103.937843"><ele>353.6</ele><time>2011-04-22T03:20:50.0000000+00:00</time></trkpt><trkpt lat="22.445267" lon="103.937843"><ele>353.6</ele><time>2011-04-22T03:20:55.0000000+00:00</time></trkpt><trkpt lat="22.445267" lon="103.937843"><ele>353.6</ele><time>2011-04-22T03:21:00.0000000+00:00</time></trkpt><trkpt lat="22.445267" lon="103.937843"><ele>353.6</ele><time>2011-04-22T03:21:05.0000000+00:00</time></trkpt><trkpt lat="22.445267" lon="103.937843"><ele>353.6</ele><time>2011-04-22T03:21:10.0000000+00:00</time></trkpt><trkpt lat="22.445267" lon="103.937843"><ele>353.6</ele><time>2011-04-22T03:21:15.0000000+00:00</time></trkpt><trkpt lat="22.445267" lon="103.937843"><ele>353.6</ele><time>2011-04-22T03:21:20.0000000+00:00</time></trkpt><trkpt lat="22.445265" lon="103.937843"><ele>353.5</ele><time>2011-04-22T03:21:25.0000000+00:00</time></trkpt><trkpt lat="22.445246" lon="103.937851"><ele>353.4</ele><time>2011-04-22T03:21:30.0000000+00:00</time></trkpt><trkpt lat="22.445192" lon="103.937851"><ele>351.0</ele><time>2011-04-22T03:21:35.0000000+00:00</time></trkpt><trkpt lat="22.445173" lon="103.937866"><ele>349.7</ele><time>2011-04-22T03:21:40.0000000+00:00</time></trkpt><trkpt lat="22.44511" lon="103.937904"><ele>349.8</ele><time>2011-04-22T03:21:45.0000000+00:00</time></trkpt><trkpt lat="22.444996" lon="103.937973"><ele>350.2</ele><time>2011-04-22T03:21:50.0000000+00:00</time></trkpt><trkpt lat="22.444881" lon="103.938026"><ele>350.9</ele><time>2011-04-22T03:21:55.0000000+00:00</time></trkpt><trkpt lat="22.444777" lon="103.938049"><ele>354.1</ele><time>2011-04-22T03:22:00.0000000+00:00</time></trkpt><trkpt lat="22.444679" lon="103.938072"><ele>356.0</ele><time>2011-04-22T03:22:05.0000000+00:00</time></trkpt><trkpt lat="22.444574" lon="103.938103"><ele>356.7</ele><time>2011-04-22T03:22:10.0000000+00:00</time></trkpt><trkpt lat="22.444506" lon="103.93811"><ele>356.4</ele><time>2011-04-22T03:22:15.0000000+00:00</time></trkpt><trkpt lat="22.444418" lon="103.938133"><ele>357.1</ele><time>2011-04-22T03:22:20.0000000+00:00</time></trkpt><trkpt lat="22.444347" lon="103.938148"><ele>357.6</ele><time>2011-04-22T03:22:25.0000000+00:00</time></trkpt><trkpt lat="22.444279" lon="103.938171"><ele>358.2</ele><time>2011-04-22T03:22:30.0000000+00:00</time></trkpt><trkpt lat="22.44421" lon="103.938187"><ele>360.3</ele><time>2011-04-22T03:22:35.0000000+00:00</time></trkpt><trkpt lat="22.444145" lon="103.938202"><ele>361.5</ele><time>2011-04-22T03:22:40.0000000+00:00</time></trkpt><trkpt lat="22.444082" lon="103.93821"><ele>362.4</ele><time>2011-04-22T03:22:45.0000000+00:00</time></trkpt><trkpt lat="22.444033" lon="103.938225"><ele>363.7</ele><time>2011-04-22T03:22:50.0000000+00:00</time></trkpt><trkpt lat="22.443981" lon="103.938232"><ele>365.5</ele><time>2011-04-22T03:22:55.0000000+00:00</time></trkpt><trkpt lat="22.443926" lon="103.938255"><ele>367.0</ele><time>2011-04-22T03:23:00.0000000+00:00</time></trkpt><trkpt lat="22.443859" lon="103.938271"><ele>368.3</ele><time>2011-04-22T03:23:05.0000000+00:00</time></trkpt><trkpt lat="22.443796" lon="103.938286"><ele>370.5</ele><time>2011-04-22T03:23:10.0000000+00:00</time></trkpt><trkpt lat="22.443741" lon="103.938301"><ele>372.4</ele><time>2011-04-22T03:23:15.0000000+00:00</time></trkpt><trkpt lat="22.443663" lon="103.938324"><ele>372.3</ele><time>2011-04-22T03:23:20.0000000+00:00</time></trkpt><trkpt lat="22.443596" lon="103.938332"><ele>372.7</ele><time>2011-04-22T03:23:25.0000000+00:00</time></trkpt><trkpt lat="22.443533" lon="103.938354"><ele>373.4</ele><time>2011-04-22T03:23:30.0000000+00:00</time></trkpt><trkpt lat="22.443459" lon="103.938377"><ele>373.5</ele><time>2011-04-22T03:23:35.0000000+00:00</time></trkpt><trkpt lat="22.443388" lon="103.9384"><ele>374.1</ele><time>2011-04-22T03:23:40.0000000+00:00</time></trkpt><trkpt lat="22.443321" lon="103.938423"><ele>374.5</ele><time>2011-04-22T03:23:45.0000000+00:00</time></trkpt><trkpt lat="22.443253" lon="103.938446"><ele>374.5</ele><time>2011-04-22T03:23:50.0000000+00:00</time></trkpt><trkpt lat="22.443188" lon="103.938469"><ele>374.8</ele><time>2011-04-22T03:23:55.0000000+00:00</time></trkpt><trkpt lat="22.443123" lon="103.938484"><ele>375.3</ele><time>2011-04-22T03:24:00.0000000+00:00</time></trkpt><trkpt lat="22.443058" lon="103.938507"><ele>375.8</ele><time>2011-04-22T03:24:05.0000000+00:00</time></trkpt><trkpt lat="22.442995" lon="103.93853"><ele>376.0</ele><time>2011-04-22T03:24:10.0000000+00:00</time></trkpt><trkpt lat="22.44293" lon="103.938553"><ele>376.1</ele><time>2011-04-22T03:24:15.0000000+00:00</time></trkpt><trkpt lat="22.442863" lon="103.938576"><ele>376.6</ele><time>2011-04-22T03:24:20.0000000+00:00</time></trkpt><trkpt lat="22.442799" lon="103.938606"><ele>377.0</ele><time>2011-04-22T03:24:25.0000000+00:00</time></trkpt><trkpt lat="22.442722" lon="103.938629"><ele>377.2</ele><time>2011-04-22T03:24:30.0000000+00:00</time></trkpt><trkpt lat="22.442654" lon="103.938644"><ele>377.1</ele><time>2011-04-22T03:24:35.0000000+00:00</time></trkpt><trkpt lat="22.442589" lon="103.938644"><ele>377.4</ele><time>2011-04-22T03:24:40.0000000+00:00</time></trkpt><trkpt lat="22.442522" lon="103.938652"><ele>377.5</ele><time>2011-04-22T03:24:45.0000000+00:00</time></trkpt><trkpt lat="22.442461" lon="103.93866"><ele>378.6</ele><time>2011-04-22T03:24:50.0000000+00:00</time></trkpt><trkpt lat="22.44241" lon="103.93866"><ele>380.5</ele><time>2011-04-22T03:24:55.0000000+00:00</time></trkpt><trkpt lat="22.442345" lon="103.93866"><ele>381.4</ele><time>2011-04-22T03:25:00.0000000+00:00</time></trkpt><trkpt lat="22.442272" lon="103.938652"><ele>381.8</ele><time>2011-04-22T03:25:05.0000000+00:00</time></trkpt><trkpt lat="22.442204" lon="103.93866"><ele>381.8</ele><time>2011-04-22T03:25:10.0000000+00:00</time></trkpt><trkpt lat="22.442139" lon="103.93866"><ele>382.4</ele><time>2011-04-22T03:25:15.0000000+00:00</time></trkpt><trkpt lat="22.442074" lon="103.93866"><ele>382.8</ele><time>2011-04-22T03:25:20.0000000+00:00</time></trkpt><trkpt lat="22.442009" lon="103.93866"><ele>384.3</ele><time>2011-04-22T03:25:25.0000000+00:00</time></trkpt><trkpt lat="22.441938" lon="103.938652"><ele>385.0</ele><time>2011-04-22T03:25:30.0000000+00:00</time></trkpt><trkpt lat="22.441864" lon="103.938644"><ele>384.4</ele><time>2011-04-22T03:25:35.0000000+00:00</time></trkpt><trkpt lat="22.441788" lon="103.938644"><ele>384.4</ele><time>2011-04-22T03:25:40.0000000+00:00</time></trkpt><trkpt lat="22.441715" lon="103.938652"><ele>385.2</ele><time>2011-04-22T03:25:45.0000000+00:00</time></trkpt><trkpt lat="22.441648" lon="103.938652"><ele>387.0</ele><time>2011-04-22T03:25:50.0000000+00:00</time></trkpt><trkpt lat="22.441587" lon="103.938667"><ele>387.8</ele><time>2011-04-22T03:25:55.0000000+00:00</time></trkpt><trkpt lat="22.441521" lon="103.93869"><ele>388.7</ele><time>2011-04-22T03:26:00.0000000+00:00</time></trkpt><trkpt lat="22.441446" lon="103.938721"><ele>389.3</ele><time>2011-04-22T03:26:05.0000000+00:00</time></trkpt><trkpt lat="22.441374" lon="103.938759"><ele>389.6</ele><time>2011-04-22T03:26:10.0000000+00:00</time></trkpt><trkpt lat="22.441303" lon="103.938797"><ele>390.4</ele><time>2011-04-22T03:26:15.0000000+00:00</time></trkpt><trkpt lat="22.441229" lon="103.938835"><ele>391.0</ele><time>2011-04-22T03:26:20.0000000+00:00</time></trkpt><trkpt lat="22.441162" lon="103.938873"><ele>391.1</ele><time>2011-04-22T03:26:25.0000000+00:00</time></trkpt><trkpt lat="22.441093" lon="103.938911"><ele>391.5</ele><time>2011-04-22T03:26:30.0000000+00:00</time></trkpt><trkpt lat="22.441023" lon="103.938942"><ele>391.9</ele><time>2011-04-22T03:26:35.0000000+00:00</time></trkpt><trkpt lat="22.440956" lon="103.93898"><ele>392.7</ele><time>2011-04-22T03:26:40.0000000+00:00</time></trkpt><trkpt lat="22.440893" lon="103.939011"><ele>393.2</ele><time>2011-04-22T03:26:45.0000000+00:00</time></trkpt><trkpt lat="22.440828" lon="103.939034"><ele>392.8</ele><time>2011-04-22T03:26:50.0000000+00:00</time></trkpt><trkpt lat="22.440758" lon="103.939072"><ele>392.4</ele><time>2011-04-22T03:26:55.0000000+00:00</time></trkpt><trkpt lat="22.440695" lon="103.939117"><ele>392.4</ele><time>2011-04-22T03:27:00.0000000+00:00</time></trkpt><trkpt lat="22.440643" lon="103.939163"><ele>393.0</ele><time>2011-04-22T03:27:05.0000000+00:00</time></trkpt><trkpt lat="22.440592" lon="103.939217"><ele>393.5</ele><time>2011-04-22T03:27:10.0000000+00:00</time></trkpt><trkpt lat="22.440554" lon="103.939278"><ele>394.0</ele><time>2011-04-22T03:27:15.0000000+00:00</time></trkpt><trkpt lat="22.440527" lon="103.939316"><ele>394.7</ele><time>2011-04-22T03:27:20.0000000+00:00</time></trkpt><trkpt lat="22.440485" lon="103.939384"><ele>395.6</ele><time>2011-04-22T03:27:25.0000000+00:00</time></trkpt><trkpt lat="22.440456" lon="103.939461"><ele>396.3</ele><time>2011-04-22T03:27:30.0000000+00:00</time></trkpt><trkpt lat="22.44043" lon="103.939545"><ele>397.1</ele><time>2011-04-22T03:27:35.0000000+00:00</time></trkpt><trkpt lat="22.440399" lon="103.939621"><ele>397.7</ele><time>2011-04-22T03:27:40.0000000+00:00</time></trkpt><trkpt lat="22.440367" lon="103.939697"><ele>398.3</ele><time>2011-04-22T03:27:45.0000000+00:00</time></trkpt><trkpt lat="22.440346" lon="103.939766"><ele>400.0</ele><time>2011-04-22T03:27:50.0000000+00:00</time></trkpt><trkpt lat="22.44031" lon="103.939835"><ele>400.5</ele><time>2011-04-22T03:27:55.0000000+00:00</time></trkpt><trkpt lat="22.440252" lon="103.939896"><ele>401.1</ele><time>2011-04-22T03:28:00.0000000+00:00</time></trkpt><trkpt lat="22.440193" lon="103.939926"><ele>401.8</ele><time>2011-04-22T03:28:05.0000000+00:00</time></trkpt><trkpt lat="22.440128" lon="103.939941"><ele>402.2</ele><time>2011-04-22T03:28:10.0000000+00:00</time></trkpt><trkpt lat="22.440065" lon="103.939934"><ele>402.2</ele><time>2011-04-22T03:28:15.0000000+00:00</time></trkpt><trkpt lat="22.440006" lon="103.939896"><ele>402.8</ele><time>2011-04-22T03:28:20.0000000+00:00</time></trkpt><trkpt lat="22.439941" lon="103.939842"><ele>402.6</ele><time>2011-04-22T03:28:25.0000000+00:00</time></trkpt><trkpt lat="22.439905" lon="103.939774"><ele>402.3</ele><time>2011-04-22T03:28:30.0000000+00:00</time></trkpt><trkpt lat="22.439894" lon="103.939705"><ele>401.9</ele><time>2011-04-22T03:28:35.0000000+00:00</time></trkpt><trkpt lat="22.439898" lon="103.939636"><ele>401.3</ele><time>2011-04-22T03:28:40.0000000+00:00</time></trkpt><trkpt lat="22.439905" lon="103.939568"><ele>400.2</ele><time>2011-04-22T03:28:45.0000000+00:00</time></trkpt><trkpt lat="22.439911" lon="103.939491"><ele>399.6</ele><time>2011-04-22T03:28:50.0000000+00:00</time></trkpt><trkpt lat="22.439919" lon="103.939423"><ele>399.3</ele><time>2011-04-22T03:28:55.0000000+00:00</time></trkpt><trkpt lat="22.439928" lon="103.939346"><ele>399.6</ele><time>2011-04-22T03:29:00.0000000+00:00</time></trkpt><trkpt lat="22.439943" lon="103.939285"><ele>399.8</ele><time>2011-04-22T03:29:05.0000000+00:00</time></trkpt><trkpt lat="22.439955" lon="103.939209"><ele>400.2</ele><time>2011-04-22T03:29:10.0000000+00:00</time></trkpt><trkpt lat="22.439972" lon="103.939133"><ele>400.5</ele><time>2011-04-22T03:29:15.0000000+00:00</time></trkpt><trkpt lat="22.439985" lon="103.939064"><ele>400.3</ele><time>2011-04-22T03:29:20.0000000+00:00</time></trkpt><trkpt lat="22.440006" lon="103.939003"><ele>400.7</ele><time>2011-04-22T03:29:25.0000000+00:00</time></trkpt><trkpt lat="22.440031" lon="103.938942"><ele>401.4</ele><time>2011-04-22T03:29:30.0000000+00:00</time></trkpt><trkpt lat="22.440054" lon="103.938881"><ele>401.1</ele><time>2011-04-22T03:29:35.0000000+00:00</time></trkpt><trkpt lat="22.440083" lon="103.938805"><ele>402.2</ele><time>2011-04-22T03:29:40.0000000+00:00</time></trkpt><trkpt lat="22.440109" lon="103.938736"><ele>402.7</ele><time>2011-04-22T03:29:45.0000000+00:00</time></trkpt><trkpt lat="22.44014" lon="103.938683"><ele>403.8</ele><time>2011-04-22T03:29:50.0000000+00:00</time></trkpt><trkpt lat="22.440165" lon="103.938637"><ele>404.5</ele><time>2011-04-22T03:29:55.0000000+00:00</time></trkpt><trkpt lat="22.440189" lon="103.938568"><ele>405.2</ele><time>2011-04-22T03:30:00.0000000+00:00</time></trkpt><trkpt lat="22.440207" lon="103.938515"><ele>405.7</ele><time>2011-04-22T03:30:05.0000000+00:00</time></trkpt><trkpt lat="22.440228" lon="103.938446"><ele>406.8</ele><time>2011-04-22T03:30:10.0000000+00:00</time></trkpt><trkpt lat="22.440247" lon="103.938377"><ele>408.0</ele><time>2011-04-22T03:30:15.0000000+00:00</time></trkpt><trkpt lat="22.44025" lon="103.938324"><ele>409.0</ele><time>2011-04-22T03:30:20.0000000+00:00</time></trkpt><trkpt lat="22.440256" lon="103.938255"><ele>410.4</ele><time>2011-04-22T03:30:25.0000000+00:00</time></trkpt><trkpt lat="22.440258" lon="103.938194"><ele>412.3</ele><time>2011-04-22T03:30:30.0000000+00:00</time></trkpt><trkpt lat="22.440277" lon="103.938126"><ele>413.7</ele><time>2011-04-22T03:30:35.0000000+00:00</time></trkpt><trkpt lat="22.440306" lon="103.938042"><ele>415.6</ele><time>2011-04-22T03:30:40.0000000+00:00</time></trkpt><trkpt lat="22.440311" lon="103.937973"><ele>417.0</ele><time>2011-04-22T03:30:45.0000000+00:00</time></trkpt><trkpt lat="22.44031" lon="103.937912"><ele>418.4</ele><time>2011-04-22T03:30:50.0000000+00:00</time></trkpt><trkpt lat="22.44031" lon="103.937851"><ele>420.3</ele><time>2011-04-22T03:30:55.0000000+00:00</time></trkpt><trkpt lat="22.440294" lon="103.93779"><ele>421.5</ele><time>2011-04-22T03:31:00.0000000+00:00</time></trkpt><trkpt lat="22.44031" lon="103.937721"><ele>423.3</ele><time>2011-04-22T03:31:05.0000000+00:00</time></trkpt><trkpt lat="22.440319" lon="103.937614"><ele>422.7</ele><time>2011-04-22T03:31:10.0000000+00:00</time></trkpt><trkpt lat="22.440317" lon="103.937531"><ele>422.3</ele><time>2011-04-22T03:31:15.0000000+00:00</time></trkpt><trkpt lat="22.440327" lon="103.937469"><ele>422.8</ele><time>2011-04-22T03:31:20.0000000+00:00</time></trkpt><trkpt lat="22.440315" lon="103.937393"><ele>423.8</ele><time>2011-04-22T03:31:25.0000000+00:00</time></trkpt><trkpt lat="22.440311" lon="103.937325"><ele>424.2</ele><time>2011-04-22T03:31:30.0000000+00:00</time></trkpt><trkpt lat="22.440315" lon="103.937256"><ele>425.3</ele><time>2011-04-22T03:31:35.0000000+00:00</time></trkpt><trkpt lat="22.440311" lon="103.93718"><ele>425.4</ele><time>2011-04-22T03:31:40.0000000+00:00</time></trkpt><trkpt lat="22.440313" lon="103.937088"><ele>425.5</ele><time>2011-04-22T03:31:45.0000000+00:00</time></trkpt><trkpt lat="22.440321" lon="103.936996"><ele>425.0</ele><time>2011-04-22T03:31:50.0000000+00:00</time></trkpt><trkpt lat="22.440323" lon="103.936897"><ele>424.3</ele><time>2011-04-22T03:31:55.0000000+00:00</time></trkpt><trkpt lat="22.440329" lon="103.936882"><ele>422.6</ele><time>2011-04-22T03:32:00.0000000+00:00</time></trkpt><trkpt lat="22.440334" lon="103.936867"><ele>422.6</ele><time>2011-04-22T03:32:05.0000000+00:00</time></trkpt><trkpt lat="22.440351" lon="103.936752"><ele>422.8</ele><time>2011-04-22T03:32:10.0000000+00:00</time></trkpt><trkpt lat="22.440348" lon="103.936661"><ele>422.6</ele><time>2011-04-22T03:32:15.0000000+00:00</time></trkpt><trkpt lat="22.440357" lon="103.936577"><ele>422.1</ele><time>2011-04-22T03:32:20.0000000+00:00</time></trkpt><trkpt lat="22.440371" lon="103.936508"><ele>421.8</ele><time>2011-04-22T03:32:25.0000000+00:00</time></trkpt><trkpt lat="22.440384" lon="103.93644"><ele>421.7</ele><time>2011-04-22T03:32:30.0000000+00:00</time></trkpt><trkpt lat="22.44042" lon="103.936371"><ele>422.5</ele><time>2011-04-22T03:32:35.0000000+00:00</time></trkpt><trkpt lat="22.440447" lon="103.936272"><ele>421.9</ele><time>2011-04-22T03:32:40.0000000+00:00</time></trkpt><trkpt lat="22.440487" lon="103.936188"><ele>421.9</ele><time>2011-04-22T03:32:45.0000000+00:00</time></trkpt><trkpt lat="22.440504" lon="103.936104"><ele>422.7</ele><time>2011-04-22T03:32:50.0000000+00:00</time></trkpt><trkpt lat="22.440533" lon="103.93602"><ele>422.1</ele><time>2011-04-22T03:32:55.0000000+00:00</time></trkpt><trkpt lat="22.440556" lon="103.935944"><ele>422.5</ele><time>2011-04-22T03:33:00.0000000+00:00</time></trkpt><trkpt lat="22.44059" lon="103.935875"><ele>424.3</ele><time>2011-04-22T03:33:05.0000000+00:00</time></trkpt><trkpt lat="22.440619" lon="103.935814"><ele>425.2</ele><time>2011-04-22T03:33:10.0000000+00:00</time></trkpt><trkpt lat="22.440643" lon="103.935745"><ele>425.2</ele><time>2011-04-22T03:33:15.0000000+00:00</time></trkpt><trkpt lat="22.440638" lon="103.935753"><ele>427.3</ele><time>2011-04-22T03:33:20.0000000+00:00</time></trkpt><trkpt lat="22.440647" lon="103.93573"><ele>426.7</ele><time>2011-04-22T03:33:25.0000000+00:00</time></trkpt><trkpt lat="22.440645" lon="103.93573"><ele>427.3</ele><time>2011-04-22T03:33:30.0000000+00:00</time></trkpt><trkpt lat="22.440647" lon="103.93573"><ele>427.4</ele><time>2011-04-22T03:33:35.0000000+00:00</time></trkpt><trkpt lat="22.440651" lon="103.93573"><ele>427.3</ele><time>2011-04-22T03:33:40.0000000+00:00</time></trkpt><trkpt lat="22.440651" lon="103.93573"><ele>427.3</ele><time>2011-04-22T03:33:45.0000000+00:00</time></trkpt><trkpt lat="22.440651" lon="103.93573"><ele>427.3</ele><time>2011-04-22T03:33:50.0000000+00:00</time></trkpt><trkpt lat="22.440651" lon="103.93573"><ele>427.3</ele><time>2011-04-22T03:33:55.0000000+00:00</time></trkpt><trkpt lat="22.440651" lon="103.93573"><ele>427.3</ele><time>2011-04-22T03:34:00.0000000+00:00</time></trkpt><trkpt lat="22.440651" lon="103.93573"><ele>427.3</ele><time>2011-04-22T03:34:05.0000000+00:00</time></trkpt><trkpt lat="22.440651" lon="103.93573"><ele>427.3</ele><time>2011-04-22T03:34:10.0000000+00:00</time></trkpt><trkpt lat="22.440651" lon="103.93573"><ele>427.3</ele><time>2011-04-22T03:34:15.0000000+00:00</time></trkpt><trkpt lat="22.440651" lon="103.93573"><ele>427.3</ele><time>2011-04-22T03:34:20.0000000+00:00</time></trkpt><trkpt lat="22.440651" lon="103.93573"><ele>427.3</ele><time>2011-04-22T03:34:25.0000000+00:00</time></trkpt><trkpt lat="22.440651" lon="103.93573"><ele>427.3</ele><time>2011-04-22T03:34:30.0000000+00:00</time></trkpt><trkpt lat="22.440651" lon="103.93573"><ele>427.3</ele><time>2011-04-22T03:34:35.0000000+00:00</time></trkpt><trkpt lat="22.440651" lon="103.93573"><ele>427.3</ele><time>2011-04-22T03:34:40.0000000+00:00</time></trkpt><trkpt lat="22.440651" lon="103.93573"><ele>427.3</ele><time>2011-04-22T03:34:45.0000000+00:00</time></trkpt><trkpt lat="22.440651" lon="103.93573"><ele>427.3</ele><time>2011-04-22T03:34:50.0000000+00:00</time></trkpt><trkpt lat="22.440651" lon="103.93573"><ele>427.3</ele><time>2011-04-22T03:34:55.0000000+00:00</time></trkpt><trkpt lat="22.440651" lon="103.93573"><ele>427.3</ele><time>2011-04-22T03:35:00.0000000+00:00</time></trkpt><trkpt lat="22.440651" lon="103.93573"><ele>427.3</ele><time>2011-04-22T03:35:05.0000000+00:00</time></trkpt><trkpt lat="22.440651" lon="103.93573"><ele>427.3</ele><time>2011-04-22T03:35:10.0000000+00:00</time></trkpt><trkpt lat="22.440651" lon="103.93573"><ele>427.3</ele><time>2011-04-22T03:35:15.0000000+00:00</time></trkpt><trkpt lat="22.440651" lon="103.93573"><ele>427.3</ele><time>2011-04-22T03:35:20.0000000+00:00</time></trkpt><trkpt lat="22.440651" lon="103.93573"><ele>427.3</ele><time>2011-04-22T03:35:25.0000000+00:00</time></trkpt><trkpt lat="22.440651" lon="103.93573"><ele>427.3</ele><time>2011-04-22T03:35:30.0000000+00:00</time></trkpt><trkpt lat="22.440651" lon="103.93573"><ele>427.3</ele><time>2011-04-22T03:35:35.0000000+00:00</time></trkpt><trkpt lat="22.440651" lon="103.93573"><ele>427.3</ele><time>2011-04-22T03:35:40.0000000+00:00</time></trkpt><trkpt lat="22.440651" lon="103.93573"><ele>427.3</ele><time>2011-04-22T03:35:45.0000000+00:00</time></trkpt><trkpt lat="22.440651" lon="103.93573"><ele>427.3</ele><time>2011-04-22T03:35:50.0000000+00:00</time></trkpt><trkpt lat="22.440651" lon="103.93573"><ele>427.3</ele><time>2011-04-22T03:35:55.0000000+00:00</time></trkpt><trkpt lat="22.440651" lon="103.93573"><ele>427.3</ele><time>2011-04-22T03:36:00.0000000+00:00</time></trkpt><trkpt lat="22.440649" lon="103.93573"><ele>427.3</ele><time>2011-04-22T03:36:05.0000000+00:00</time></trkpt><trkpt lat="22.440649" lon="103.93573"><ele>427.3</ele><time>2011-04-22T03:36:10.0000000+00:00</time></trkpt><trkpt lat="22.440649" lon="103.93573"><ele>427.3</ele><time>2011-04-22T03:36:15.0000000+00:00</time></trkpt><trkpt lat="22.440649" lon="103.93573"><ele>427.3</ele><time>2011-04-22T03:36:20.0000000+00:00</time></trkpt><trkpt lat="22.440649" lon="103.93573"><ele>427.4</ele><time>2011-04-22T03:36:25.0000000+00:00</time></trkpt><trkpt lat="22.440649" lon="103.93573"><ele>427.4</ele><time>2011-04-22T03:36:30.0000000+00:00</time></trkpt><trkpt lat="22.440649" lon="103.93573"><ele>427.4</ele><time>2011-04-22T03:36:35.0000000+00:00</time></trkpt><trkpt lat="22.440649" lon="103.93573"><ele>427.4</ele><time>2011-04-22T03:36:40.0000000+00:00</time></trkpt><trkpt lat="22.440649" lon="103.93573"><ele>427.4</ele><time>2011-04-22T03:36:45.0000000+00:00</time></trkpt><trkpt lat="22.440649" lon="103.93573"><ele>427.4</ele><time>2011-04-22T03:36:50.0000000+00:00</time></trkpt><trkpt lat="22.440647" lon="103.93573"><ele>427.4</ele><time>2011-04-22T03:36:55.0000000+00:00</time></trkpt><trkpt lat="22.440647" lon="103.93573"><ele>427.4</ele><time>2011-04-22T03:37:00.0000000+00:00</time></trkpt><trkpt lat="22.440647" lon="103.93573"><ele>427.4</ele><time>2011-04-22T03:37:05.0000000+00:00</time></trkpt><trkpt lat="22.440647" lon="103.93573"><ele>427.4</ele><time>2011-04-22T03:37:10.0000000+00:00</time></trkpt><trkpt lat="22.440647" lon="103.93573"><ele>427.4</ele><time>2011-04-22T03:37:15.0000000+00:00</time></trkpt><trkpt lat="22.440647" lon="103.93573"><ele>427.4</ele><time>2011-04-22T03:37:20.0000000+00:00</time></trkpt><trkpt lat="22.440647" lon="103.93573"><ele>427.4</ele><time>2011-04-22T03:37:25.0000000+00:00</time></trkpt><trkpt lat="22.440647" lon="103.93573"><ele>427.4</ele><time>2011-04-22T03:37:30.0000000+00:00</time></trkpt><trkpt lat="22.440647" lon="103.93573"><ele>427.4</ele><time>2011-04-22T03:37:35.0000000+00:00</time></trkpt><trkpt lat="22.440647" lon="103.93573"><ele>427.4</ele><time>2011-04-22T03:37:40.0000000+00:00</time></trkpt><trkpt lat="22.440647" lon="103.93573"><ele>427.4</ele><time>2011-04-22T03:37:45.0000000+00:00</time></trkpt><trkpt lat="22.440647" lon="103.93573"><ele>427.4</ele><time>2011-04-22T03:37:50.0000000+00:00</time></trkpt><trkpt lat="22.440647" lon="103.93573"><ele>427.4</ele><time>2011-04-22T03:37:55.0000000+00:00</time></trkpt><trkpt lat="22.440647" lon="103.93573"><ele>427.4</ele><time>2011-04-22T03:38:00.0000000+00:00</time></trkpt><trkpt lat="22.440647" lon="103.93573"><ele>427.4</ele><time>2011-04-22T03:38:05.0000000+00:00</time></trkpt><trkpt lat="22.440647" lon="103.93573"><ele>427.4</ele><time>2011-04-22T03:38:10.0000000+00:00</time></trkpt><trkpt lat="22.440647" lon="103.93573"><ele>427.4</ele><time>2011-04-22T03:38:15.0000000+00:00</time></trkpt><trkpt lat="22.440647" lon="103.93573"><ele>427.4</ele><time>2011-04-22T03:38:20.0000000+00:00</time></trkpt><trkpt lat="22.440647" lon="103.93573"><ele>427.4</ele><time>2011-04-22T03:38:25.0000000+00:00</time></trkpt><trkpt lat="22.440647" lon="103.93573"><ele>427.4</ele><time>2011-04-22T03:38:30.0000000+00:00</time></trkpt><trkpt lat="22.440647" lon="103.93573"><ele>427.4</ele><time>2011-04-22T03:38:35.0000000+00:00</time></trkpt><trkpt lat="22.440647" lon="103.93573"><ele>427.4</ele><time>2011-04-22T03:38:40.0000000+00:00</time></trkpt><trkpt lat="22.440647" lon="103.93573"><ele>427.4</ele><time>2011-04-22T03:38:45.0000000+00:00</time></trkpt><trkpt lat="22.440647" lon="103.93573"><ele>427.4</ele><time>2011-04-22T03:38:50.0000000+00:00</time></trkpt><trkpt lat="22.440647" lon="103.93573"><ele>427.4</ele><time>2011-04-22T03:38:55.0000000+00:00</time></trkpt><trkpt lat="22.440647" lon="103.93573"><ele>427.4</ele><time>2011-04-22T03:39:00.0000000+00:00</time></trkpt><trkpt lat="22.440647" lon="103.93573"><ele>427.4</ele><time>2011-04-22T03:39:05.0000000+00:00</time></trkpt><trkpt lat="22.440647" lon="103.93573"><ele>427.4</ele><time>2011-04-22T03:39:10.0000000+00:00</time></trkpt><trkpt lat="22.440647" lon="103.93573"><ele>427.4</ele><time>2011-04-22T03:39:15.0000000+00:00</time></trkpt><trkpt lat="22.440647" lon="103.93573"><ele>427.4</ele><time>2011-04-22T03:39:20.0000000+00:00</time></trkpt><trkpt lat="22.440647" lon="103.93573"><ele>427.4</ele><time>2011-04-22T03:39:25.0000000+00:00</time></trkpt><trkpt lat="22.440651" lon="103.93573"><ele>427.6</ele><time>2011-04-22T03:39:30.0000000+00:00</time></trkpt><trkpt lat="22.440672" lon="103.93573"><ele>428.2</ele><time>2011-04-22T03:39:35.0000000+00:00</time></trkpt><trkpt lat="22.440718" lon="103.935669"><ele>429.0</ele><time>2011-04-22T03:39:40.0000000+00:00</time></trkpt><trkpt lat="22.440744" lon="103.93557"><ele>429.5</ele><time>2011-04-22T03:39:45.0000000+00:00</time></trkpt><trkpt lat="22.440758" lon="103.935478"><ele>430.3</ele><time>2011-04-22T03:39:50.0000000+00:00</time></trkpt><trkpt lat="22.440817" lon="103.935364"><ele>431.6</ele><time>2011-04-22T03:39:55.0000000+00:00</time></trkpt><trkpt lat="22.440851" lon="103.935265"><ele>432.9</ele><time>2011-04-22T03:40:00.0000000+00:00</time></trkpt><trkpt lat="22.440884" lon="103.935158"><ele>433.6</ele><time>2011-04-22T03:40:05.0000000+00:00</time></trkpt><trkpt lat="22.440918" lon="103.935066"><ele>435.1</ele><time>2011-04-22T03:40:10.0000000+00:00</time></trkpt><trkpt lat="22.440924" lon="103.934998"><ele>436.6</ele><time>2011-04-22T03:40:15.0000000+00:00</time></trkpt><trkpt lat="22.440935" lon="103.934937"><ele>438.7</ele><time>2011-04-22T03:40:20.0000000+00:00</time></trkpt><trkpt lat="22.440954" lon="103.934868"><ele>439.1</ele><time>2011-04-22T03:40:25.0000000+00:00</time></trkpt><trkpt lat="22.440968" lon="103.934792"><ele>439.0</ele><time>2011-04-22T03:40:30.0000000+00:00</time></trkpt><trkpt lat="22.440977" lon="103.934708"><ele>437.7</ele><time>2011-04-22T03:40:35.0000000+00:00</time></trkpt><trkpt lat="22.44095" lon="103.934616"><ele>438.3</ele><time>2011-04-22T03:40:40.0000000+00:00</time></trkpt><trkpt lat="22.44091" lon="103.934525"><ele>439.4</ele><time>2011-04-22T03:40:45.0000000+00:00</time></trkpt><trkpt lat="22.440882" lon="103.934448"><ele>438.1</ele><time>2011-04-22T03:40:50.0000000+00:00</time></trkpt><trkpt lat="22.440845" lon="103.934395"><ele>437.6</ele><time>2011-04-22T03:40:55.0000000+00:00</time></trkpt><trkpt lat="22.44079" lon="103.934341"><ele>436.8</ele><time>2011-04-22T03:41:00.0000000+00:00</time></trkpt><trkpt lat="22.440722" lon="103.934319"><ele>435.9</ele><time>2011-04-22T03:41:05.0000000+00:00</time></trkpt><trkpt lat="22.440643" lon="103.934288"><ele>435.7</ele><time>2011-04-22T03:41:10.0000000+00:00</time></trkpt><trkpt lat="22.440569" lon="103.934273"><ele>436.1</ele><time>2011-04-22T03:41:15.0000000+00:00</time></trkpt><trkpt lat="22.4405" lon="103.93425"><ele>436.6</ele><time>2011-04-22T03:41:20.0000000+00:00</time></trkpt><trkpt lat="22.440424" lon="103.934242"><ele>437.2</ele><time>2011-04-22T03:41:25.0000000+00:00</time></trkpt><trkpt lat="22.440357" lon="103.934219"><ele>438.4</ele><time>2011-04-22T03:41:30.0000000+00:00</time></trkpt><trkpt lat="22.440281" lon="103.934189"><ele>440.9</ele><time>2011-04-22T03:41:35.0000000+00:00</time></trkpt><trkpt lat="22.440224" lon="103.934174"><ele>441.5</ele><time>2011-04-22T03:41:40.0000000+00:00</time></trkpt><trkpt lat="22.440159" lon="103.934158"><ele>442.2</ele><time>2011-04-22T03:41:45.0000000+00:00</time></trkpt><trkpt lat="22.440081" lon="103.934135"><ele>441.8</ele><time>2011-04-22T03:41:50.0000000+00:00</time></trkpt><trkpt lat="22.440004" lon="103.93412"><ele>443.0</ele><time>2011-04-22T03:41:55.0000000+00:00</time></trkpt><trkpt lat="22.439938" lon="103.934097"><ele>443.9</ele><time>2011-04-22T03:42:00.0000000+00:00</time></trkpt><trkpt lat="22.439884" lon="103.934082"><ele>443.9</ele><time>2011-04-22T03:42:05.0000000+00:00</time></trkpt><trkpt lat="22.439848" lon="103.934059"><ele>444.9</ele><time>2011-04-22T03:42:10.0000000+00:00</time></trkpt><trkpt lat="22.43981" lon="103.934052"><ele>445.6</ele><time>2011-04-22T03:42:15.0000000+00:00</time></trkpt><trkpt lat="22.439774" lon="103.934059"><ele>446.5</ele><time>2011-04-22T03:42:20.0000000+00:00</time></trkpt><trkpt lat="22.439734" lon="103.934013"><ele>446.5</ele><time>2011-04-22T03:42:25.0000000+00:00</time></trkpt><trkpt lat="22.439674" lon="103.933907"><ele>446.5</ele><time>2011-04-22T03:42:30.0000000+00:00</time></trkpt><trkpt lat="22.439619" lon="103.933754"><ele>446.0</ele><time>2011-04-22T03:42:35.0000000+00:00</time></trkpt><trkpt lat="22.439575" lon="103.933578"><ele>446.8</ele><time>2011-04-22T03:42:40.0000000+00:00</time></trkpt><trkpt lat="22.43948" lon="103.933372"><ele>448.2</ele><time>2011-04-22T03:42:45.0000000+00:00</time></trkpt><trkpt lat="22.439281" lon="103.933197"><ele>446.4</ele><time>2011-04-22T03:42:50.0000000+00:00</time></trkpt><trkpt lat="22.439089" lon="103.933044"><ele>446.1</ele><time>2011-04-22T03:42:55.0000000+00:00</time></trkpt><trkpt lat="22.438931" lon="103.9328"><ele>446.5</ele><time>2011-04-22T03:43:00.0000000+00:00</time></trkpt><trkpt lat="22.438789" lon="103.932503"><ele>447.1</ele><time>2011-04-22T03:43:05.0000000+00:00</time></trkpt><trkpt lat="22.438667" lon="103.932228"><ele>448.3</ele><time>2011-04-22T03:43:10.0000000+00:00</time></trkpt><trkpt lat="22.438597" lon="103.932053"><ele>450.0</ele><time>2011-04-22T03:43:15.0000000+00:00</time></trkpt><trkpt lat="22.43856" lon="103.931976"><ele>452.2</ele><time>2011-04-22T03:43:20.0000000+00:00</time></trkpt><trkpt lat="22.438519" lon="103.931892"><ele>454.0</ele><time>2011-04-22T03:43:25.0000000+00:00</time></trkpt><trkpt lat="22.438494" lon="103.931793"><ele>455.7</ele><time>2011-04-22T03:43:30.0000000+00:00</time></trkpt><trkpt lat="22.438471" lon="103.931702"><ele>456.7</ele><time>2011-04-22T03:43:35.0000000+00:00</time></trkpt><trkpt lat="22.438437" lon="103.931618"><ele>458.7</ele><time>2011-04-22T03:43:40.0000000+00:00</time></trkpt><trkpt lat="22.438387" lon="103.931534"><ele>459.5</ele><time>2011-04-22T03:43:45.0000000+00:00</time></trkpt><trkpt lat="22.438324" lon="103.931458"><ele>459.7</ele><time>2011-04-22T03:43:50.0000000+00:00</time></trkpt><trkpt lat="22.438265" lon="103.931419"><ele>460.3</ele><time>2011-04-22T03:43:55.0000000+00:00</time></trkpt><trkpt lat="22.43819" lon="103.931381"><ele>459.7</ele><time>2011-04-22T03:44:00.0000000+00:00</time></trkpt><trkpt lat="22.43812" lon="103.931343"><ele>461.2</ele><time>2011-04-22T03:44:05.0000000+00:00</time></trkpt><trkpt lat="22.438036" lon="103.931313"><ele>461.5</ele><time>2011-04-22T03:44:10.0000000+00:00</time></trkpt><trkpt lat="22.437948" lon="103.931274"><ele>462.0</ele><time>2011-04-22T03:44:15.0000000+00:00</time></trkpt><trkpt lat="22.437855" lon="103.931229"><ele>463.0</ele><time>2011-04-22T03:44:20.0000000+00:00</time></trkpt><trkpt lat="22.437773" lon="103.93116"><ele>464.0</ele><time>2011-04-22T03:44:25.0000000+00:00</time></trkpt><trkpt lat="22.437719" lon="103.931061"><ele>464.5</ele><time>2011-04-22T03:44:30.0000000+00:00</time></trkpt><trkpt lat="22.437714" lon="103.93103"><ele>464.8</ele><time>2011-04-22T03:44:35.0000000+00:00</time></trkpt><trkpt lat="22.437714" lon="103.93103"><ele>464.9</ele><time>2011-04-22T03:44:40.0000000+00:00</time></trkpt><trkpt lat="22.437714" lon="103.93103"><ele>465.0</ele><time>2011-04-22T03:44:45.0000000+00:00</time></trkpt><trkpt lat="22.437716" lon="103.93103"><ele>464.9</ele><time>2011-04-22T03:44:50.0000000+00:00</time></trkpt><trkpt lat="22.437714" lon="103.93103"><ele>464.8</ele><time>2011-04-22T03:44:55.0000000+00:00</time></trkpt><trkpt lat="22.437716" lon="103.93103"><ele>464.8</ele><time>2011-04-22T03:45:00.0000000+00:00</time></trkpt><trkpt lat="22.437717" lon="103.93103"><ele>464.8</ele><time>2011-04-22T03:45:05.0000000+00:00</time></trkpt><trkpt lat="22.437717" lon="103.93103"><ele>464.7</ele><time>2011-04-22T03:45:10.0000000+00:00</time></trkpt><trkpt lat="22.437717" lon="103.93103"><ele>464.7</ele><time>2011-04-22T03:45:15.0000000+00:00</time></trkpt><trkpt lat="22.437717" lon="103.93103"><ele>464.6</ele><time>2011-04-22T03:45:20.0000000+00:00</time></trkpt><trkpt lat="22.437717" lon="103.93103"><ele>464.6</ele><time>2011-04-22T03:45:25.0000000+00:00</time></trkpt><trkpt lat="22.437719" lon="103.93103"><ele>464.7</ele><time>2011-04-22T03:45:30.0000000+00:00</time></trkpt><trkpt lat="22.437719" lon="103.93103"><ele>464.7</ele><time>2011-04-22T03:45:35.0000000+00:00</time></trkpt><trkpt lat="22.437719" lon="103.93103"><ele>464.7</ele><time>2011-04-22T03:45:40.0000000+00:00</time></trkpt><trkpt lat="22.437719" lon="103.93103"><ele>464.6</ele><time>2011-04-22T03:45:45.0000000+00:00</time></trkpt><trkpt lat="22.437716" lon="103.931023"><ele>464.6</ele><time>2011-04-22T03:45:50.0000000+00:00</time></trkpt><trkpt lat="22.437727" lon="103.930962"><ele>465.8</ele><time>2011-04-22T03:45:55.0000000+00:00</time></trkpt><trkpt lat="22.437765" lon="103.930885"><ele>467.4</ele><time>2011-04-22T03:46:00.0000000+00:00</time></trkpt><trkpt lat="22.437815" lon="103.930832"><ele>469.9</ele><time>2011-04-22T03:46:05.0000000+00:00</time></trkpt><trkpt lat="22.437857" lon="103.930771"><ele>471.1</ele><time>2011-04-22T03:46:10.0000000+00:00</time></trkpt><trkpt lat="22.437895" lon="103.930717"><ele>472.1</ele><time>2011-04-22T03:46:15.0000000+00:00</time></trkpt><trkpt lat="22.437948" lon="103.930672"><ele>473.7</ele><time>2011-04-22T03:46:20.0000000+00:00</time></trkpt><trkpt lat="22.437988" lon="103.930634"><ele>474.9</ele><time>2011-04-22T03:46:25.0000000+00:00</time></trkpt><trkpt lat="22.438025" lon="103.93058"><ele>476.5</ele><time>2011-04-22T03:46:30.0000000+00:00</time></trkpt><trkpt lat="22.43807" lon="103.930534"><ele>477.7</ele><time>2011-04-22T03:46:35.0000000+00:00</time></trkpt><trkpt lat="22.438105" lon="103.930473"><ele>479.2</ele><time>2011-04-22T03:46:40.0000000+00:00</time></trkpt><trkpt lat="22.438133" lon="103.93042"><ele>480.3</ele><time>2011-04-22T03:46:45.0000000+00:00</time></trkpt><trkpt lat="22.438194" lon="103.930374"><ele>481.3</ele><time>2011-04-22T03:46:50.0000000+00:00</time></trkpt><trkpt lat="22.438236" lon="103.930321"><ele>482.7</ele><time>2011-04-22T03:46:55.0000000+00:00</time></trkpt><trkpt lat="22.438278" lon="103.930283"><ele>484.2</ele><time>2011-04-22T03:47:00.0000000+00:00</time></trkpt><trkpt lat="22.438286" lon="103.930275"><ele>484.8</ele><time>2011-04-22T03:47:05.0000000+00:00</time></trkpt><trkpt lat="22.438288" lon="103.930283"><ele>484.9</ele><time>2011-04-22T03:47:10.0000000+00:00</time></trkpt><trkpt lat="22.438288" lon="103.930283"><ele>484.9</ele><time>2011-04-22T03:47:15.0000000+00:00</time></trkpt><trkpt lat="22.438284" lon="103.930283"><ele>485.0</ele><time>2011-04-22T03:47:20.0000000+00:00</time></trkpt><trkpt lat="22.438278" lon="103.930283"><ele>485.0</ele><time>2011-04-22T03:47:25.0000000+00:00</time></trkpt><trkpt lat="22.438274" lon="103.930283"><ele>485.0</ele><time>2011-04-22T03:47:30.0000000+00:00</time></trkpt><trkpt lat="22.438272" lon="103.930283"><ele>485.1</ele><time>2011-04-22T03:47:35.0000000+00:00</time></trkpt><trkpt lat="22.438276" lon="103.930283"><ele>485.4</ele><time>2011-04-22T03:47:40.0000000+00:00</time></trkpt><trkpt lat="22.43828" lon="103.930283"><ele>485.9</ele><time>2011-04-22T03:47:45.0000000+00:00</time></trkpt><trkpt lat="22.438286" lon="103.930275"><ele>486.9</ele><time>2011-04-22T03:47:50.0000000+00:00</time></trkpt><trkpt lat="22.438293" lon="103.930275"><ele>488.0</ele><time>2011-04-22T03:47:55.0000000+00:00</time></trkpt><trkpt lat="22.438299" lon="103.930275"><ele>489.1</ele><time>2011-04-22T03:48:00.0000000+00:00</time></trkpt><trkpt lat="22.438305" lon="103.930267"><ele>490.3</ele><time>2011-04-22T03:48:05.0000000+00:00</time></trkpt><trkpt lat="22.438313" lon="103.93026"><ele>491.6</ele><time>2011-04-22T03:48:10.0000000+00:00</time></trkpt><trkpt lat="22.43832" lon="103.930252"><ele>493.0</ele><time>2011-04-22T03:48:15.0000000+00:00</time></trkpt><trkpt lat="22.438326" lon="103.930237"><ele>494.4</ele><time>2011-04-22T03:48:20.0000000+00:00</time></trkpt><trkpt lat="22.438337" lon="103.930222"><ele>496.2</ele><time>2011-04-22T03:48:25.0000000+00:00</time></trkpt><trkpt lat="22.438343" lon="103.930199"><ele>497.8</ele><time>2011-04-22T03:48:30.0000000+00:00</time></trkpt><trkpt lat="22.438339" lon="103.930191"><ele>499.3</ele><time>2011-04-22T03:48:35.0000000+00:00</time></trkpt><trkpt lat="22.438339" lon="103.930183"><ele>500.9</ele><time>2011-04-22T03:48:40.0000000+00:00</time></trkpt><trkpt lat="22.438276" lon="103.930183"><ele>502.5</ele><time>2011-04-22T03:48:45.0000000+00:00</time></trkpt><trkpt lat="22.438225" lon="103.930191"><ele>503.8</ele><time>2011-04-22T03:48:50.0000000+00:00</time></trkpt><trkpt lat="22.438213" lon="103.930199"><ele>504.7</ele><time>2011-04-22T03:48:55.0000000+00:00</time></trkpt><trkpt lat="22.4382" lon="103.930214"><ele>505.6</ele><time>2011-04-22T03:49:00.0000000+00:00</time></trkpt><trkpt lat="22.438164" lon="103.930229"><ele>507.6</ele><time>2011-04-22T03:49:05.0000000+00:00</time></trkpt><trkpt lat="22.438122" lon="103.930267"><ele>509.3</ele><time>2011-04-22T03:49:10.0000000+00:00</time></trkpt><trkpt lat="22.438097" lon="103.93026"><ele>511.6</ele><time>2011-04-22T03:49:15.0000000+00:00</time></trkpt><trkpt lat="22.438089" lon="103.930237"><ele>513.8</ele><time>2011-04-22T03:49:20.0000000+00:00</time></trkpt><trkpt lat="22.438105" lon="103.930244"><ele>515.3</ele><time>2011-04-22T03:49:25.0000000+00:00</time></trkpt><trkpt lat="22.438105" lon="103.930244"><ele>516.7</ele><time>2011-04-22T03:49:30.0000000+00:00</time></trkpt><trkpt lat="22.43811" lon="103.930244"><ele>518.1</ele><time>2011-04-22T03:49:35.0000000+00:00</time></trkpt><trkpt lat="22.438112" lon="103.930252"><ele>519.4</ele><time>2011-04-22T03:49:40.0000000+00:00</time></trkpt><trkpt lat="22.438114" lon="103.93026"><ele>520.6</ele><time>2011-04-22T03:49:45.0000000+00:00</time></trkpt><trkpt lat="22.438116" lon="103.930267"><ele>521.8</ele><time>2011-04-22T03:49:50.0000000+00:00</time></trkpt><trkpt lat="22.438122" lon="103.930275"><ele>522.9</ele><time>2011-04-22T03:49:55.0000000+00:00</time></trkpt><trkpt lat="22.438141" lon="103.930298"><ele>522.7</ele><time>2011-04-22T03:50:00.0000000+00:00</time></trkpt><trkpt lat="22.438126" lon="103.930321"><ele>522.1</ele><time>2011-04-22T03:50:05.0000000+00:00</time></trkpt><trkpt lat="22.438126" lon="103.930328"><ele>522.9</ele><time>2011-04-22T03:50:10.0000000+00:00</time></trkpt><trkpt lat="22.438126" lon="103.930336"><ele>523.7</ele><time>2011-04-22T03:50:15.0000000+00:00</time></trkpt><trkpt lat="22.438131" lon="103.930344"><ele>524.3</ele><time>2011-04-22T03:50:20.0000000+00:00</time></trkpt><trkpt lat="22.438139" lon="103.930351"><ele>524.9</ele><time>2011-04-22T03:50:25.0000000+00:00</time></trkpt><trkpt lat="22.438196" lon="103.930351"><ele>523.3</ele><time>2011-04-22T03:50:30.0000000+00:00</time></trkpt><trkpt lat="22.438269" lon="103.930374"><ele>518.3</ele><time>2011-04-22T03:50:35.0000000+00:00</time></trkpt><trkpt lat="22.438276" lon="103.930344"><ele>516.5</ele><time>2011-04-22T03:50:40.0000000+00:00</time></trkpt><trkpt lat="22.438284" lon="103.930344"><ele>516.3</ele><time>2011-04-22T03:50:45.0000000+00:00</time></trkpt><trkpt lat="22.438288" lon="103.930336"><ele>515.9</ele><time>2011-04-22T03:50:50.0000000+00:00</time></trkpt><trkpt lat="22.438292" lon="103.930336"><ele>515.3</ele><time>2011-04-22T03:50:55.0000000+00:00</time></trkpt><trkpt lat="22.438292" lon="103.930328"><ele>514.7</ele><time>2011-04-22T03:51:00.0000000+00:00</time></trkpt><trkpt lat="22.438292" lon="103.930328"><ele>514.0</ele><time>2011-04-22T03:51:05.0000000+00:00</time></trkpt><trkpt lat="22.438288" lon="103.930328"><ele>513.4</ele><time>2011-04-22T03:51:10.0000000+00:00</time></trkpt><trkpt lat="22.438286" lon="103.930328"><ele>512.8</ele><time>2011-04-22T03:51:15.0000000+00:00</time></trkpt><trkpt lat="22.438284" lon="103.930328"><ele>512.2</ele><time>2011-04-22T03:51:20.0000000+00:00</time></trkpt><trkpt lat="22.438286" lon="103.930321"><ele>511.6</ele><time>2011-04-22T03:51:25.0000000+00:00</time></trkpt><trkpt lat="22.438288" lon="103.930313"><ele>511.1</ele><time>2011-04-22T03:51:30.0000000+00:00</time></trkpt><trkpt lat="22.438292" lon="103.930305"><ele>510.5</ele><time>2011-04-22T03:51:35.0000000+00:00</time></trkpt><trkpt lat="22.438293" lon="103.930305"><ele>509.9</ele><time>2011-04-22T03:51:40.0000000+00:00</time></trkpt><trkpt lat="22.438293" lon="103.930298"><ele>509.2</ele><time>2011-04-22T03:51:45.0000000+00:00</time></trkpt><trkpt lat="22.438295" lon="103.930298"><ele>508.4</ele><time>2011-04-22T03:51:50.0000000+00:00</time></trkpt><trkpt lat="22.438293" lon="103.930298"><ele>507.7</ele><time>2011-04-22T03:51:55.0000000+00:00</time></trkpt><trkpt lat="22.438292" lon="103.93029"><ele>507.2</ele><time>2011-04-22T03:52:00.0000000+00:00</time></trkpt><trkpt lat="22.43829" lon="103.93029"><ele>506.6</ele><time>2011-04-22T03:52:05.0000000+00:00</time></trkpt><trkpt lat="22.438288" lon="103.930283"><ele>506.1</ele><time>2011-04-22T03:52:10.0000000+00:00</time></trkpt><trkpt lat="22.438286" lon="103.930283"><ele>505.5</ele><time>2011-04-22T03:52:15.0000000+00:00</time></trkpt><trkpt lat="22.438286" lon="103.930283"><ele>505.0</ele><time>2011-04-22T03:52:20.0000000+00:00</time></trkpt><trkpt lat="22.438284" lon="103.93029"><ele>504.5</ele><time>2011-04-22T03:52:25.0000000+00:00</time></trkpt><trkpt lat="22.438282" lon="103.93029"><ele>504.0</ele><time>2011-04-22T03:52:30.0000000+00:00</time></trkpt><trkpt lat="22.438274" lon="103.93029"><ele>503.7</ele><time>2011-04-22T03:52:35.0000000+00:00</time></trkpt><trkpt lat="22.438265" lon="103.930283"><ele>503.4</ele><time>2011-04-22T03:52:40.0000000+00:00</time></trkpt><trkpt lat="22.438242" lon="103.930267"><ele>503.2</ele><time>2011-04-22T03:52:45.0000000+00:00</time></trkpt><trkpt lat="22.438198" lon="103.930237"><ele>504.0</ele><time>2011-04-22T03:52:50.0000000+00:00</time></trkpt><trkpt lat="22.438179" lon="103.930229"><ele>504.3</ele><time>2011-04-22T03:52:55.0000000+00:00</time></trkpt><trkpt lat="22.438183" lon="103.930222"><ele>504.4</ele><time>2011-04-22T03:53:00.0000000+00:00</time></trkpt><trkpt lat="22.438181" lon="103.930222"><ele>504.1</ele><time>2011-04-22T03:53:05.0000000+00:00</time></trkpt><trkpt lat="22.438177" lon="103.930214"><ele>503.8</ele><time>2011-04-22T03:53:10.0000000+00:00</time></trkpt><trkpt lat="22.438175" lon="103.930206"><ele>503.5</ele><time>2011-04-22T03:53:15.0000000+00:00</time></trkpt><trkpt lat="22.438175" lon="103.930206"><ele>503.3</ele><time>2011-04-22T03:53:20.0000000+00:00</time></trkpt><trkpt lat="22.438175" lon="103.930206"><ele>503.1</ele><time>2011-04-22T03:53:25.0000000+00:00</time></trkpt><trkpt lat="22.438175" lon="103.930206"><ele>502.9</ele><time>2011-04-22T03:53:30.0000000+00:00</time></trkpt><trkpt lat="22.438177" lon="103.930206"><ele>502.6</ele><time>2011-04-22T03:53:35.0000000+00:00</time></trkpt><trkpt lat="22.438183" lon="103.930206"><ele>502.4</ele><time>2011-04-22T03:53:40.0000000+00:00</time></trkpt><trkpt lat="22.438206" lon="103.930206"><ele>501.9</ele><time>2011-04-22T03:53:45.0000000+00:00</time></trkpt><trkpt lat="22.438221" lon="103.930206"><ele>501.7</ele><time>2011-04-22T03:53:50.0000000+00:00</time></trkpt><trkpt lat="22.438272" lon="103.930168"><ele>500.7</ele><time>2011-04-22T03:53:55.0000000+00:00</time></trkpt><trkpt lat="22.438297" lon="103.930138"><ele>498.0</ele><time>2011-04-22T03:54:00.0000000+00:00</time></trkpt><trkpt lat="22.438324" lon="103.930084"><ele>494.8</ele><time>2011-04-22T03:54:05.0000000+00:00</time></trkpt><trkpt lat="22.438337" lon="103.930016"><ele>492.9</ele><time>2011-04-22T03:54:10.0000000+00:00</time></trkpt><trkpt lat="22.438354" lon="103.929947"><ele>491.6</ele><time>2011-04-22T03:54:15.0000000+00:00</time></trkpt><trkpt lat="22.438374" lon="103.929886"><ele>491.0</ele><time>2011-04-22T03:54:20.0000000+00:00</time></trkpt><trkpt lat="22.438345" lon="103.929832"><ele>490.0</ele><time>2011-04-22T03:54:25.0000000+00:00</time></trkpt><trkpt lat="22.438314" lon="103.929771"><ele>488.4</ele><time>2011-04-22T03:54:30.0000000+00:00</time></trkpt><trkpt lat="22.438278" lon="103.929726"><ele>487.6</ele><time>2011-04-22T03:54:35.0000000+00:00</time></trkpt><trkpt lat="22.438231" lon="103.929688"><ele>487.4</ele><time>2011-04-22T03:54:40.0000000+00:00</time></trkpt><trkpt lat="22.438171" lon="103.929665"><ele>486.9</ele><time>2011-04-22T03:54:45.0000000+00:00</time></trkpt><trkpt lat="22.43811" lon="103.929642"><ele>486.4</ele><time>2011-04-22T03:54:50.0000000+00:00</time></trkpt><trkpt lat="22.438049" lon="103.929634"><ele>485.5</ele><time>2011-04-22T03:54:55.0000000+00:00</time></trkpt><trkpt lat="22.437994" lon="103.929619"><ele>484.5</ele><time>2011-04-22T03:55:00.0000000+00:00</time></trkpt><trkpt lat="22.437933" lon="103.929596"><ele>483.2</ele><time>2011-04-22T03:55:05.0000000+00:00</time></trkpt><trkpt lat="22.437872" lon="103.929581"><ele>482.5</ele><time>2011-04-22T03:55:10.0000000+00:00</time></trkpt><trkpt lat="22.43782" lon="103.929558"><ele>481.9</ele><time>2011-04-22T03:55:15.0000000+00:00</time></trkpt><trkpt lat="22.437756" lon="103.929535"><ele>481.6</ele><time>2011-04-22T03:55:20.0000000+00:00</time></trkpt><trkpt lat="22.437691" lon="103.929527"><ele>481.5</ele><time>2011-04-22T03:55:25.0000000+00:00</time></trkpt><trkpt lat="22.437622" lon="103.929512"><ele>481.6</ele><time>2011-04-22T03:55:30.0000000+00:00</time></trkpt><trkpt lat="22.437569" lon="103.929489"><ele>481.4</ele><time>2011-04-22T03:55:35.0000000+00:00</time></trkpt><trkpt lat="22.437504" lon="103.929489"><ele>481.4</ele><time>2011-04-22T03:55:40.0000000+00:00</time></trkpt><trkpt lat="22.437447" lon="103.929466"><ele>481.5</ele><time>2011-04-22T03:55:45.0000000+00:00</time></trkpt><trkpt lat="22.437386" lon="103.929443"><ele>481.7</ele><time>2011-04-22T03:55:50.0000000+00:00</time></trkpt><trkpt lat="22.437328" lon="103.929436"><ele>482.7</ele><time>2011-04-22T03:55:55.0000000+00:00</time></trkpt><trkpt lat="22.437271" lon="103.929428"><ele>484.0</ele><time>2011-04-22T03:56:00.0000000+00:00</time></trkpt><trkpt lat="22.437216" lon="103.929405"><ele>485.7</ele><time>2011-04-22T03:56:05.0000000+00:00</time></trkpt><trkpt lat="22.437153" lon="103.929398"><ele>486.3</ele><time>2011-04-22T03:56:10.0000000+00:00</time></trkpt><trkpt lat="22.437088" lon="103.92939"><ele>487.8</ele><time>2011-04-22T03:56:15.0000000+00:00</time></trkpt><trkpt lat="22.437029" lon="103.92939"><ele>489.3</ele><time>2011-04-22T03:56:20.0000000+00:00</time></trkpt><trkpt lat="22.436962" lon="103.92939"><ele>489.7</ele><time>2011-04-22T03:56:25.0000000+00:00</time></trkpt><trkpt lat="22.436901" lon="103.92939"><ele>492.1</ele><time>2011-04-22T03:56:30.0000000+00:00</time></trkpt><trkpt lat="22.436844" lon="103.929375"><ele>492.9</ele><time>2011-04-22T03:56:35.0000000+00:00</time></trkpt><trkpt lat="22.436771" lon="103.929375"><ele>493.2</ele><time>2011-04-22T03:56:40.0000000+00:00</time></trkpt><trkpt lat="22.436665" lon="103.929382"><ele>494.0</ele><time>2011-04-22T03:56:45.0000000+00:00</time></trkpt><trkpt lat="22.436581" lon="103.929367"><ele>495.0</ele><time>2011-04-22T03:56:50.0000000+00:00</time></trkpt><trkpt lat="22.436501" lon="103.929329"><ele>495.7</ele><time>2011-04-22T03:56:55.0000000+00:00</time></trkpt><trkpt lat="22.436441" lon="103.929283"><ele>497.1</ele><time>2011-04-22T03:57:00.0000000+00:00</time></trkpt><trkpt lat="22.436405" lon="103.929207"><ele>497.7</ele><time>2011-04-22T03:57:05.0000000+00:00</time></trkpt><trkpt lat="22.436396" lon="103.929108"><ele>498.5</ele><time>2011-04-22T03:57:10.0000000+00:00</time></trkpt><trkpt lat="22.436413" lon="103.929016"><ele>499.5</ele><time>2011-04-22T03:57:15.0000000+00:00</time></trkpt><trkpt lat="22.436422" lon="103.928932"><ele>501.4</ele><time>2011-04-22T03:57:20.0000000+00:00</time></trkpt><trkpt lat="22.436441" lon="103.928833"><ele>503.8</ele><time>2011-04-22T03:57:25.0000000+00:00</time></trkpt><trkpt lat="22.436445" lon="103.928734"><ele>505.6</ele><time>2011-04-22T03:57:30.0000000+00:00</time></trkpt><trkpt lat="22.436438" lon="103.928635"><ele>508.2</ele><time>2011-04-22T03:57:35.0000000+00:00</time></trkpt><trkpt lat="22.436417" lon="103.928535"><ele>510.3</ele><time>2011-04-22T03:57:40.0000000+00:00</time></trkpt><trkpt lat="22.436388" lon="103.928452"><ele>511.9</ele><time>2011-04-22T03:57:45.0000000+00:00</time></trkpt><trkpt lat="22.436342" lon="103.92836"><ele>513.5</ele><time>2011-04-22T03:57:50.0000000+00:00</time></trkpt><trkpt lat="22.436304" lon="103.928268"><ele>514.4</ele><time>2011-04-22T03:57:55.0000000+00:00</time></trkpt><trkpt lat="22.436262" lon="103.9282"><ele>516.1</ele><time>2011-04-22T03:58:00.0000000+00:00</time></trkpt><trkpt lat="22.436232" lon="103.928116"><ele>518.5</ele><time>2011-04-22T03:58:05.0000000+00:00</time></trkpt><trkpt lat="22.436203" lon="103.928024"><ele>520.9</ele><time>2011-04-22T03:58:10.0000000+00:00</time></trkpt><trkpt lat="22.436186" lon="103.927933"><ele>523.1</ele><time>2011-04-22T03:58:15.0000000+00:00</time></trkpt><trkpt lat="22.436192" lon="103.927902"><ele>523.0</ele><time>2011-04-22T03:58:20.0000000+00:00</time></trkpt><trkpt lat="22.436195" lon="103.927895"><ele>523.8</ele><time>2011-04-22T03:58:25.0000000+00:00</time></trkpt><trkpt lat="22.436199" lon="103.927895"><ele>524.6</ele><time>2011-04-22T03:58:30.0000000+00:00</time></trkpt><trkpt lat="22.436199" lon="103.927895"><ele>525.3</ele><time>2011-04-22T03:58:35.0000000+00:00</time></trkpt><trkpt lat="22.436201" lon="103.927895"><ele>526.0</ele><time>2011-04-22T03:58:40.0000000+00:00</time></trkpt><trkpt lat="22.436203" lon="103.927887"><ele>526.7</ele><time>2011-04-22T03:58:45.0000000+00:00</time></trkpt><trkpt lat="22.436203" lon="103.927879"><ele>527.3</ele><time>2011-04-22T03:58:50.0000000+00:00</time></trkpt><trkpt lat="22.436193" lon="103.927803"><ele>527.2</ele><time>2011-04-22T03:58:55.0000000+00:00</time></trkpt><trkpt lat="22.436186" lon="103.927719"><ele>528.2</ele><time>2011-04-22T03:59:00.0000000+00:00</time></trkpt><trkpt lat="22.43618" lon="103.927635"><ele>528.9</ele><time>2011-04-22T03:59:05.0000000+00:00</time></trkpt><trkpt lat="22.436176" lon="103.927544"><ele>529.3</ele><time>2011-04-22T03:59:10.0000000+00:00</time></trkpt><trkpt lat="22.436182" lon="103.92746"><ele>529.7</ele><time>2011-04-22T03:59:15.0000000+00:00</time></trkpt><trkpt lat="22.436207" lon="103.927353"><ele>528.5</ele><time>2011-04-22T03:59:20.0000000+00:00</time></trkpt><trkpt lat="22.436241" lon="103.927261"><ele>527.7</ele><time>2011-04-22T03:59:25.0000000+00:00</time></trkpt><trkpt lat="22.436289" lon="103.927185"><ele>527.2</ele><time>2011-04-22T03:59:30.0000000+00:00</time></trkpt><trkpt lat="22.436348" lon="103.927116"><ele>526.4</ele><time>2011-04-22T03:59:35.0000000+00:00</time></trkpt><trkpt lat="22.436413" lon="103.927048"><ele>526.9</ele><time>2011-04-22T03:59:40.0000000+00:00</time></trkpt><trkpt lat="22.436489" lon="103.926971"><ele>526.8</ele><time>2011-04-22T03:59:45.0000000+00:00</time></trkpt><trkpt lat="22.436563" lon="103.92691"><ele>526.7</ele><time>2011-04-22T03:59:50.0000000+00:00</time></trkpt><trkpt lat="22.436619" lon="103.926857"><ele>527.4</ele><time>2011-04-22T03:59:55.0000000+00:00</time></trkpt><trkpt lat="22.436689" lon="103.926796"><ele>528.3</ele><time>2011-04-22T04:00:00.0000000+00:00</time></trkpt><trkpt lat="22.436758" lon="103.926727"><ele>528.8</ele><time>2011-04-22T04:00:05.0000000+00:00</time></trkpt><trkpt lat="22.436831" lon="103.926666"><ele>529.9</ele><time>2011-04-22T04:00:10.0000000+00:00</time></trkpt><trkpt lat="22.436918" lon="103.92662"><ele>531.6</ele><time>2011-04-22T04:00:15.0000000+00:00</time></trkpt><trkpt lat="22.437008" lon="103.926582"><ele>533.3</ele><time>2011-04-22T04:00:20.0000000+00:00</time></trkpt><trkpt lat="22.437101" lon="103.926552"><ele>535.5</ele><time>2011-04-22T04:00:25.0000000+00:00</time></trkpt><trkpt lat="22.437189" lon="103.926529"><ele>538.8</ele><time>2011-04-22T04:00:30.0000000+00:00</time></trkpt><trkpt lat="22.437281" lon="103.926498"><ele>541.7</ele><time>2011-04-22T04:00:35.0000000+00:00</time></trkpt><trkpt lat="22.437376" lon="103.926468"><ele>544.3</ele><time>2011-04-22T04:00:40.0000000+00:00</time></trkpt><trkpt lat="22.437468" lon="103.926407"><ele>547.2</ele><time>2011-04-22T04:00:45.0000000+00:00</time></trkpt><trkpt lat="22.437534" lon="103.926338"><ele>549.3</ele><time>2011-04-22T04:00:50.0000000+00:00</time></trkpt><trkpt lat="22.437569" lon="103.926292"><ele>551.5</ele><time>2011-04-22T04:00:55.0000000+00:00</time></trkpt><trkpt lat="22.437601" lon="103.926224"><ele>552.5</ele><time>2011-04-22T04:01:00.0000000+00:00</time></trkpt><trkpt lat="22.437595" lon="103.926216"><ele>551.5</ele><time>2011-04-22T04:01:05.0000000+00:00</time></trkpt><trkpt lat="22.437595" lon="103.926216"><ele>551.7</ele><time>2011-04-22T04:01:10.0000000+00:00</time></trkpt><trkpt lat="22.437595" lon="103.926216"><ele>551.7</ele><time>2011-04-22T04:01:15.0000000+00:00</time></trkpt><trkpt lat="22.437595" lon="103.926216"><ele>551.7</ele><time>2011-04-22T04:01:20.0000000+00:00</time></trkpt><trkpt lat="22.437595" lon="103.926216"><ele>551.7</ele><time>2011-04-22T04:01:25.0000000+00:00</time></trkpt><trkpt lat="22.437595" lon="103.926216"><ele>551.6</ele><time>2011-04-22T04:01:30.0000000+00:00</time></trkpt><trkpt lat="22.437595" lon="103.926216"><ele>551.6</ele><time>2011-04-22T04:01:35.0000000+00:00</time></trkpt><trkpt lat="22.437595" lon="103.926216"><ele>551.6</ele><time>2011-04-22T04:01:40.0000000+00:00</time></trkpt><trkpt lat="22.437593" lon="103.926216"><ele>551.6</ele><time>2011-04-22T04:01:45.0000000+00:00</time></trkpt><trkpt lat="22.437593" lon="103.926216"><ele>551.6</ele><time>2011-04-22T04:01:50.0000000+00:00</time></trkpt><trkpt lat="22.437593" lon="103.926216"><ele>551.5</ele><time>2011-04-22T04:01:55.0000000+00:00</time></trkpt><trkpt lat="22.437593" lon="103.926216"><ele>551.5</ele><time>2011-04-22T04:02:00.0000000+00:00</time></trkpt><trkpt lat="22.437593" lon="103.926216"><ele>551.5</ele><time>2011-04-22T04:02:05.0000000+00:00</time></trkpt><trkpt lat="22.437593" lon="103.926216"><ele>551.4</ele><time>2011-04-22T04:02:10.0000000+00:00</time></trkpt><trkpt lat="22.437593" lon="103.926216"><ele>551.4</ele><time>2011-04-22T04:02:15.0000000+00:00</time></trkpt><trkpt lat="22.437611" lon="103.926193"><ele>550.6</ele><time>2011-04-22T04:02:20.0000000+00:00</time></trkpt><trkpt lat="22.43763" lon="103.92617"><ele>549.8</ele><time>2011-04-22T04:02:25.0000000+00:00</time></trkpt><trkpt lat="22.437687" lon="103.926094"><ele>549.5</ele><time>2011-04-22T04:02:30.0000000+00:00</time></trkpt><trkpt lat="22.437756" lon="103.926025"><ele>549.4</ele><time>2011-04-22T04:02:35.0000000+00:00</time></trkpt><trkpt lat="22.43782" lon="103.925957"><ele>549.5</ele><time>2011-04-22T04:02:40.0000000+00:00</time></trkpt><trkpt lat="22.437891" lon="103.925903"><ele>549.0</ele><time>2011-04-22T04:02:45.0000000+00:00</time></trkpt><trkpt lat="22.437952" lon="103.925858"><ele>547.9</ele><time>2011-04-22T04:02:50.0000000+00:00</time></trkpt><trkpt lat="22.438009" lon="103.925819"><ele>547.3</ele><time>2011-04-22T04:02:55.0000000+00:00</time></trkpt><trkpt lat="22.438059" lon="103.925766"><ele>547.2</ele><time>2011-04-22T04:03:00.0000000+00:00</time></trkpt><trkpt lat="22.438114" lon="103.92572"><ele>547.0</ele><time>2011-04-22T04:03:05.0000000+00:00</time></trkpt><trkpt lat="22.438168" lon="103.925667"><ele>546.4</ele><time>2011-04-22T04:03:10.0000000+00:00</time></trkpt><trkpt lat="22.438215" lon="103.925613"><ele>546.1</ele><time>2011-04-22T04:03:15.0000000+00:00</time></trkpt><trkpt lat="22.438259" lon="103.925552"><ele>544.8</ele><time>2011-04-22T04:03:20.0000000+00:00</time></trkpt><trkpt lat="22.438299" lon="103.925491"><ele>544.3</ele><time>2011-04-22T04:03:25.0000000+00:00</time></trkpt><trkpt lat="22.438334" lon="103.925438"><ele>543.6</ele><time>2011-04-22T04:03:30.0000000+00:00</time></trkpt><trkpt lat="22.438377" lon="103.925392"><ele>542.7</ele><time>2011-04-22T04:03:35.0000000+00:00</time></trkpt><trkpt lat="22.438412" lon="103.925339"><ele>542.8</ele><time>2011-04-22T04:03:40.0000000+00:00</time></trkpt><trkpt lat="22.438454" lon="103.925278"><ele>542.6</ele><time>2011-04-22T04:03:45.0000000+00:00</time></trkpt><trkpt lat="22.438486" lon="103.925201"><ele>542.8</ele><time>2011-04-22T04:03:50.0000000+00:00</time></trkpt><trkpt lat="22.438507" lon="103.925133"><ele>544.0</ele><time>2011-04-22T04:03:55.0000000+00:00</time></trkpt><trkpt lat="22.438534" lon="103.925049"><ele>544.3</ele><time>2011-04-22T04:04:00.0000000+00:00</time></trkpt><trkpt lat="22.438572" lon="103.924973"><ele>544.5</ele><time>2011-04-22T04:04:05.0000000+00:00</time></trkpt><trkpt lat="22.438602" lon="103.924889"><ele>545.0</ele><time>2011-04-22T04:04:10.0000000+00:00</time></trkpt><trkpt lat="22.438629" lon="103.924812"><ele>544.8</ele><time>2011-04-22T04:04:15.0000000+00:00</time></trkpt><trkpt lat="22.438648" lon="103.924728"><ele>544.9</ele><time>2011-04-22T04:04:20.0000000+00:00</time></trkpt><trkpt lat="22.438644" lon="103.924629"><ele>545.2</ele><time>2011-04-22T04:04:25.0000000+00:00</time></trkpt><trkpt lat="22.438627" lon="103.924538"><ele>545.2</ele><time>2011-04-22T04:04:30.0000000+00:00</time></trkpt><trkpt lat="22.438597" lon="103.924469"><ele>545.1</ele><time>2011-04-22T04:04:35.0000000+00:00</time></trkpt><trkpt lat="22.438597" lon="103.924461"><ele>544.4</ele><time>2011-04-22T04:04:40.0000000+00:00</time></trkpt><trkpt lat="22.438602" lon="103.924446"><ele>544.8</ele><time>2011-04-22T04:04:45.0000000+00:00</time></trkpt><trkpt lat="22.438606" lon="103.924446"><ele>545.0</ele><time>2011-04-22T04:04:50.0000000+00:00</time></trkpt><trkpt lat="22.438606" lon="103.924454"><ele>545.1</ele><time>2011-04-22T04:04:55.0000000+00:00</time></trkpt><trkpt lat="22.438606" lon="103.924454"><ele>545.1</ele><time>2011-04-22T04:05:00.0000000+00:00</time></trkpt><trkpt lat="22.438606" lon="103.924446"><ele>545.1</ele><time>2011-04-22T04:05:05.0000000+00:00</time></trkpt><trkpt lat="22.438606" lon="103.924446"><ele>545.1</ele><time>2011-04-22T04:05:10.0000000+00:00</time></trkpt><trkpt lat="22.438606" lon="103.924454"><ele>545.1</ele><time>2011-04-22T04:05:15.0000000+00:00</time></trkpt><trkpt lat="22.438606" lon="103.924454"><ele>545.1</ele><time>2011-04-22T04:05:20.0000000+00:00</time></trkpt><trkpt lat="22.438604" lon="103.924454"><ele>545.2</ele><time>2011-04-22T04:05:25.0000000+00:00</time></trkpt><trkpt lat="22.438604" lon="103.924454"><ele>545.2</ele><time>2011-04-22T04:05:30.0000000+00:00</time></trkpt><trkpt lat="22.438604" lon="103.924454"><ele>545.2</ele><time>2011-04-22T04:05:35.0000000+00:00</time></trkpt><trkpt lat="22.438604" lon="103.924454"><ele>545.2</ele><time>2011-04-22T04:05:40.0000000+00:00</time></trkpt><trkpt lat="22.438604" lon="103.924454"><ele>545.2</ele><time>2011-04-22T04:05:45.0000000+00:00</time></trkpt><trkpt lat="22.438604" lon="103.924454"><ele>545.2</ele><time>2011-04-22T04:05:50.0000000+00:00</time></trkpt><trkpt lat="22.438604" lon="103.924454"><ele>545.2</ele><time>2011-04-22T04:05:55.0000000+00:00</time></trkpt><trkpt lat="22.438604" lon="103.924454"><ele>545.3</ele><time>2011-04-22T04:06:00.0000000+00:00</time></trkpt><trkpt lat="22.438604" lon="103.924454"><ele>545.3</ele><time>2011-04-22T04:06:05.0000000+00:00</time></trkpt><trkpt lat="22.438604" lon="103.924454"><ele>545.3</ele><time>2011-04-22T04:06:10.0000000+00:00</time></trkpt><trkpt lat="22.438604" lon="103.924454"><ele>545.3</ele><time>2011-04-22T04:06:15.0000000+00:00</time></trkpt><trkpt lat="22.438604" lon="103.924454"><ele>545.3</ele><time>2011-04-22T04:06:20.0000000+00:00</time></trkpt><trkpt lat="22.438604" lon="103.924454"><ele>545.3</ele><time>2011-04-22T04:06:25.0000000+00:00</time></trkpt><trkpt lat="22.438604" lon="103.924454"><ele>545.4</ele><time>2011-04-22T04:06:30.0000000+00:00</time></trkpt><trkpt lat="22.438604" lon="103.924454"><ele>545.4</ele><time>2011-04-22T04:06:35.0000000+00:00</time></trkpt><trkpt lat="22.438604" lon="103.924454"><ele>545.4</ele><time>2011-04-22T04:06:40.0000000+00:00</time></trkpt><trkpt lat="22.438604" lon="103.924454"><ele>545.4</ele><time>2011-04-22T04:06:45.0000000+00:00</time></trkpt><trkpt lat="22.438604" lon="103.924454"><ele>545.4</ele><time>2011-04-22T04:06:50.0000000+00:00</time></trkpt><trkpt lat="22.438604" lon="103.924454"><ele>545.4</ele><time>2011-04-22T04:06:55.0000000+00:00</time></trkpt><trkpt lat="22.438604" lon="103.924454"><ele>545.4</ele><time>2011-04-22T04:07:00.0000000+00:00</time></trkpt><trkpt lat="22.438604" lon="103.924454"><ele>545.4</ele><time>2011-04-22T04:07:05.0000000+00:00</time></trkpt><trkpt lat="22.438604" lon="103.924454"><ele>545.4</ele><time>2011-04-22T04:07:10.0000000+00:00</time></trkpt><trkpt lat="22.438604" lon="103.924454"><ele>545.4</ele><time>2011-04-22T04:07:15.0000000+00:00</time></trkpt><trkpt lat="22.438604" lon="103.924454"><ele>545.4</ele><time>2011-04-22T04:07:20.0000000+00:00</time></trkpt><trkpt lat="22.438604" lon="103.924454"><ele>545.4</ele><time>2011-04-22T04:07:25.0000000+00:00</time></trkpt><trkpt lat="22.438604" lon="103.924454"><ele>545.4</ele><time>2011-04-22T04:07:30.0000000+00:00</time></trkpt><trkpt lat="22.438604" lon="103.924454"><ele>545.4</ele><time>2011-04-22T04:07:35.0000000+00:00</time></trkpt><trkpt lat="22.438604" lon="103.924454"><ele>545.4</ele><time>2011-04-22T04:07:40.0000000+00:00</time></trkpt><trkpt lat="22.438604" lon="103.924454"><ele>545.5</ele><time>2011-04-22T04:07:45.0000000+00:00</time></trkpt><trkpt lat="22.438604" lon="103.924454"><ele>545.5</ele><time>2011-04-22T04:07:50.0000000+00:00</time></trkpt><trkpt lat="22.438604" lon="103.924454"><ele>545.5</ele><time>2011-04-22T04:07:55.0000000+00:00</time></trkpt><trkpt lat="22.438604" lon="103.924454"><ele>545.5</ele><time>2011-04-22T04:08:00.0000000+00:00</time></trkpt><trkpt lat="22.438604" lon="103.924454"><ele>545.5</ele><time>2011-04-22T04:08:05.0000000+00:00</time></trkpt><trkpt lat="22.438604" lon="103.924454"><ele>545.5</ele><time>2011-04-22T04:08:10.0000000+00:00</time></trkpt><trkpt lat="22.438604" lon="103.924454"><ele>545.6</ele><time>2011-04-22T04:08:15.0000000+00:00</time></trkpt><trkpt lat="22.438604" lon="103.924454"><ele>545.6</ele><time>2011-04-22T04:08:20.0000000+00:00</time></trkpt><trkpt lat="22.438604" lon="103.924454"><ele>545.6</ele><time>2011-04-22T04:08:25.0000000+00:00</time></trkpt><trkpt lat="22.438604" lon="103.924454"><ele>545.7</ele><time>2011-04-22T04:08:30.0000000+00:00</time></trkpt><trkpt lat="22.438604" lon="103.924454"><ele>545.7</ele><time>2011-04-22T04:08:35.0000000+00:00</time></trkpt><trkpt lat="22.438604" lon="103.924454"><ele>545.7</ele><time>2011-04-22T04:08:40.0000000+00:00</time></trkpt><trkpt lat="22.438604" lon="103.924454"><ele>545.8</ele><time>2011-04-22T04:08:45.0000000+00:00</time></trkpt><trkpt lat="22.438604" lon="103.924454"><ele>545.8</ele><time>2011-04-22T04:08:50.0000000+00:00</time></trkpt><trkpt lat="22.438604" lon="103.924454"><ele>545.9</ele><time>2011-04-22T04:08:55.0000000+00:00</time></trkpt><trkpt lat="22.438604" lon="103.924454"><ele>545.9</ele><time>2011-04-22T04:09:00.0000000+00:00</time></trkpt><trkpt lat="22.438604" lon="103.924454"><ele>545.9</ele><time>2011-04-22T04:09:05.0000000+00:00</time></trkpt><trkpt lat="22.438604" lon="103.924454"><ele>545.9</ele><time>2011-04-22T04:09:10.0000000+00:00</time></trkpt><trkpt lat="22.438604" lon="103.924454"><ele>546.0</ele><time>2011-04-22T04:09:15.0000000+00:00</time></trkpt><trkpt lat="22.438604" lon="103.924454"><ele>546.0</ele><time>2011-04-22T04:09:20.0000000+00:00</time></trkpt><trkpt lat="22.438604" lon="103.924454"><ele>546.0</ele><time>2011-04-22T04:09:25.0000000+00:00</time></trkpt><trkpt lat="22.438604" lon="103.924454"><ele>546.0</ele><time>2011-04-22T04:09:30.0000000+00:00</time></trkpt><trkpt lat="22.438604" lon="103.924454"><ele>546.1</ele><time>2011-04-22T04:09:35.0000000+00:00</time></trkpt><trkpt lat="22.438604" lon="103.924446"><ele>546.1</ele><time>2011-04-22T04:09:40.0000000+00:00</time></trkpt><trkpt lat="22.438604" lon="103.924446"><ele>546.2</ele><time>2011-04-22T04:09:45.0000000+00:00</time></trkpt><trkpt lat="22.438604" lon="103.924446"><ele>546.2</ele><time>2011-04-22T04:09:50.0000000+00:00</time></trkpt><trkpt lat="22.438604" lon="103.924446"><ele>546.3</ele><time>2011-04-22T04:09:55.0000000+00:00</time></trkpt><trkpt lat="22.438604" lon="103.924446"><ele>546.3</ele><time>2011-04-22T04:10:00.0000000+00:00</time></trkpt><trkpt lat="22.438604" lon="103.924446"><ele>546.4</ele><time>2011-04-22T04:10:05.0000000+00:00</time></trkpt><trkpt lat="22.438604" lon="103.924446"><ele>546.4</ele><time>2011-04-22T04:10:10.0000000+00:00</time></trkpt><trkpt lat="22.438604" lon="103.924446"><ele>546.4</ele><time>2011-04-22T04:10:15.0000000+00:00</time></trkpt><trkpt lat="22.438604" lon="103.924446"><ele>546.5</ele><time>2011-04-22T04:10:20.0000000+00:00</time></trkpt><trkpt lat="22.438602" lon="103.924446"><ele>546.5</ele><time>2011-04-22T04:10:25.0000000+00:00</time></trkpt><trkpt lat="22.438602" lon="103.924454"><ele>546.5</ele><time>2011-04-22T04:10:30.0000000+00:00</time></trkpt><trkpt lat="22.438602" lon="103.924454"><ele>546.5</ele><time>2011-04-22T04:10:35.0000000+00:00</time></trkpt><trkpt lat="22.438602" lon="103.924454"><ele>546.6</ele><time>2011-04-22T04:10:40.0000000+00:00</time></trkpt><trkpt lat="22.438602" lon="103.924454"><ele>546.6</ele><time>2011-04-22T04:10:45.0000000+00:00</time></trkpt><trkpt lat="22.438602" lon="103.924454"><ele>546.6</ele><time>2011-04-22T04:10:50.0000000+00:00</time></trkpt><trkpt lat="22.438604" lon="103.924454"><ele>546.6</ele><time>2011-04-22T04:10:55.0000000+00:00</time></trkpt><trkpt lat="22.438604" lon="103.924454"><ele>546.6</ele><time>2011-04-22T04:11:00.0000000+00:00</time></trkpt><trkpt lat="22.438604" lon="103.924454"><ele>546.7</ele><time>2011-04-22T04:11:05.0000000+00:00</time></trkpt><trkpt lat="22.438604" lon="103.924454"><ele>546.7</ele><time>2011-04-22T04:11:10.0000000+00:00</time></trkpt><trkpt lat="22.438604" lon="103.924454"><ele>546.7</ele><time>2011-04-22T04:11:15.0000000+00:00</time></trkpt><trkpt lat="22.438604" lon="103.924454"><ele>546.8</ele><time>2011-04-22T04:11:20.0000000+00:00</time></trkpt><trkpt lat="22.438604" lon="103.924446"><ele>546.9</ele><time>2011-04-22T04:11:25.0000000+00:00</time></trkpt><trkpt lat="22.438604" lon="103.924446"><ele>546.9</ele><time>2011-04-22T04:11:30.0000000+00:00</time></trkpt><trkpt lat="22.438604" lon="103.924446"><ele>547.0</ele><time>2011-04-22T04:11:35.0000000+00:00</time></trkpt><trkpt lat="22.438604" lon="103.924446"><ele>547.1</ele><time>2011-04-22T04:11:40.0000000+00:00</time></trkpt><trkpt lat="22.438604" lon="103.924446"><ele>547.1</ele><time>2011-04-22T04:11:45.0000000+00:00</time></trkpt><trkpt lat="22.438604" lon="103.924446"><ele>547.2</ele><time>2011-04-22T04:11:50.0000000+00:00</time></trkpt><trkpt lat="22.438604" lon="103.924446"><ele>547.2</ele><time>2011-04-22T04:11:55.0000000+00:00</time></trkpt><trkpt lat="22.438604" lon="103.924446"><ele>547.2</ele><time>2011-04-22T04:12:00.0000000+00:00</time></trkpt><trkpt lat="22.438604" lon="103.924446"><ele>547.2</ele><time>2011-04-22T04:12:05.0000000+00:00</time></trkpt><trkpt lat="22.438604" lon="103.924446"><ele>547.3</ele><time>2011-04-22T04:12:10.0000000+00:00</time></trkpt><trkpt lat="22.438604" lon="103.924446"><ele>547.3</ele><time>2011-04-22T04:12:15.0000000+00:00</time></trkpt><trkpt lat="22.438591" lon="103.924438"><ele>547.9</ele><time>2011-04-22T04:12:20.0000000+00:00</time></trkpt><trkpt lat="22.438572" lon="103.924431"><ele>549.1</ele><time>2011-04-22T04:12:25.0000000+00:00</time></trkpt><trkpt lat="22.438572" lon="103.924431"><ele>549.2</ele><time>2011-04-22T04:12:30.0000000+00:00</time></trkpt><trkpt lat="22.438572" lon="103.924431"><ele>549.3</ele><time>2011-04-22T04:12:35.0000000+00:00</time></trkpt><trkpt lat="22.438572" lon="103.924431"><ele>549.5</ele><time>2011-04-22T04:12:40.0000000+00:00</time></trkpt><trkpt lat="22.43857" lon="103.924431"><ele>549.4</ele><time>2011-04-22T04:12:45.0000000+00:00</time></trkpt><trkpt lat="22.438572" lon="103.924431"><ele>549.3</ele><time>2011-04-22T04:12:50.0000000+00:00</time></trkpt><trkpt lat="22.438572" lon="103.924431"><ele>549.3</ele><time>2011-04-22T04:12:55.0000000+00:00</time></trkpt><trkpt lat="22.438572" lon="103.924431"><ele>549.3</ele><time>2011-04-22T04:13:00.0000000+00:00</time></trkpt><trkpt lat="22.438572" lon="103.924431"><ele>549.3</ele><time>2011-04-22T04:13:05.0000000+00:00</time></trkpt><trkpt lat="22.438572" lon="103.924431"><ele>549.3</ele><time>2011-04-22T04:13:10.0000000+00:00</time></trkpt><trkpt lat="22.438572" lon="103.924431"><ele>549.3</ele><time>2011-04-22T04:13:15.0000000+00:00</time></trkpt><trkpt lat="22.438572" lon="103.924431"><ele>549.3</ele><time>2011-04-22T04:13:20.0000000+00:00</time></trkpt><trkpt lat="22.438572" lon="103.924431"><ele>549.4</ele><time>2011-04-22T04:13:25.0000000+00:00</time></trkpt><trkpt lat="22.438574" lon="103.924431"><ele>549.4</ele><time>2011-04-22T04:13:30.0000000+00:00</time></trkpt><trkpt lat="22.438572" lon="103.924431"><ele>549.4</ele><time>2011-04-22T04:13:35.0000000+00:00</time></trkpt><trkpt lat="22.438572" lon="103.924431"><ele>550.1</ele><time>2011-04-22T04:13:40.0000000+00:00</time></trkpt><trkpt lat="22.438568" lon="103.924423"><ele>550.0</ele><time>2011-04-22T04:13:45.0000000+00:00</time></trkpt><trkpt lat="22.438555" lon="103.924408"><ele>550.3</ele><time>2011-04-22T04:13:50.0000000+00:00</time></trkpt><trkpt lat="22.438549" lon="103.924408"><ele>550.4</ele><time>2011-04-22T04:13:55.0000000+00:00</time></trkpt><trkpt lat="22.438545" lon="103.924408"><ele>550.5</ele><time>2011-04-22T04:14:00.0000000+00:00</time></trkpt><trkpt lat="22.438572" lon="103.924416"><ele>551.6</ele><time>2011-04-22T04:14:05.0000000+00:00</time></trkpt><trkpt lat="22.438549" lon="103.924385"><ele>552.7</ele><time>2011-04-22T04:14:10.0000000+00:00</time></trkpt><trkpt lat="22.438528" lon="103.924377"><ele>554.3</ele><time>2011-04-22T04:14:15.0000000+00:00</time></trkpt><trkpt lat="22.43853" lon="103.92437"><ele>555.5</ele><time>2011-04-22T04:14:20.0000000+00:00</time></trkpt><trkpt lat="22.438532" lon="103.92437"><ele>555.9</ele><time>2011-04-22T04:14:25.0000000+00:00</time></trkpt><trkpt lat="22.43854" lon="103.924385"><ele>555.7</ele><time>2011-04-22T04:14:30.0000000+00:00</time></trkpt><trkpt lat="22.438541" lon="103.924393"><ele>555.4</ele><time>2011-04-22T04:14:35.0000000+00:00</time></trkpt><trkpt lat="22.438541" lon="103.924393"><ele>555.5</ele><time>2011-04-22T04:14:40.0000000+00:00</time></trkpt></trkseg><trkseg><trkpt lat="22.348923" lon="103.774574"><ele>1977.9</ele><time>2011-04-23T23:01:03.0000000+00:00</time></trkpt><trkpt lat="22.348848" lon="103.774529"><ele>1975.8</ele><time>2011-04-23T23:01:08.0000000+00:00</time></trkpt><trkpt lat="22.348852" lon="103.774529"><ele>1975.8</ele><time>2011-04-23T23:01:13.0000000+00:00</time></trkpt><trkpt lat="22.348852" lon="103.774536"><ele>1975.7</ele><time>2011-04-23T23:01:18.0000000+00:00</time></trkpt><trkpt lat="22.348848" lon="103.774536"><ele>1975.6</ele><time>2011-04-23T23:01:23.0000000+00:00</time></trkpt><trkpt lat="22.348845" lon="103.774544"><ele>1975.5</ele><time>2011-04-23T23:01:28.0000000+00:00</time></trkpt><trkpt lat="22.348833" lon="103.774536"><ele>1975.7</ele><time>2011-04-23T23:01:33.0000000+00:00</time></trkpt><trkpt lat="22.348825" lon="103.774536"><ele>1975.7</ele><time>2011-04-23T23:01:38.0000000+00:00</time></trkpt><trkpt lat="22.348818" lon="103.774544"><ele>1975.7</ele><time>2011-04-23T23:01:43.0000000+00:00</time></trkpt><trkpt lat="22.348782" lon="103.774567"><ele>1974.9</ele><time>2011-04-23T23:01:48.0000000+00:00</time></trkpt><trkpt lat="22.348783" lon="103.774521"><ele>1973.0</ele><time>2011-04-23T23:01:53.0000000+00:00</time></trkpt><trkpt lat="22.348782" lon="103.774521"><ele>1973.0</ele><time>2011-04-23T23:01:58.0000000+00:00</time></trkpt><trkpt lat="22.348783" lon="103.774521"><ele>1973.0</ele><time>2011-04-23T23:02:03.0000000+00:00</time></trkpt><trkpt lat="22.348787" lon="103.774521"><ele>1973.1</ele><time>2011-04-23T23:02:08.0000000+00:00</time></trkpt><trkpt lat="22.348791" lon="103.774521"><ele>1973.1</ele><time>2011-04-23T23:02:13.0000000+00:00</time></trkpt><trkpt lat="22.348791" lon="103.774513"><ele>1973.1</ele><time>2011-04-23T23:02:18.0000000+00:00</time></trkpt><trkpt lat="22.348787" lon="103.774506"><ele>1972.9</ele><time>2011-04-23T23:02:23.0000000+00:00</time></trkpt><trkpt lat="22.348734" lon="103.774506"><ele>1970.8</ele><time>2011-04-23T23:02:28.0000000+00:00</time></trkpt><trkpt lat="22.34873" lon="103.774513"><ele>1969.9</ele><time>2011-04-23T23:02:33.0000000+00:00</time></trkpt><trkpt lat="22.348707" lon="103.77449"><ele>1969.2</ele><time>2011-04-23T23:02:38.0000000+00:00</time></trkpt><trkpt lat="22.348694" lon="103.774483"><ele>1969.3</ele><time>2011-04-23T23:02:43.0000000+00:00</time></trkpt><trkpt lat="22.348665" lon="103.774475"><ele>1968.8</ele><time>2011-04-23T23:02:48.0000000+00:00</time></trkpt><trkpt lat="22.348627" lon="103.77446"><ele>1968.3</ele><time>2011-04-23T23:02:53.0000000+00:00</time></trkpt><trkpt lat="22.348618" lon="103.774445"><ele>1967.0</ele><time>2011-04-23T23:02:58.0000000+00:00</time></trkpt><trkpt lat="22.348576" lon="103.774437"><ele>1966.5</ele><time>2011-04-23T23:03:03.0000000+00:00</time></trkpt><trkpt lat="22.348539" lon="103.774414"><ele>1966.7</ele><time>2011-04-23T23:03:08.0000000+00:00</time></trkpt><trkpt lat="22.348501" lon="103.774414"><ele>1966.3</ele><time>2011-04-23T23:03:13.0000000+00:00</time></trkpt><trkpt lat="22.348444" lon="103.774399"><ele>1966.0</ele><time>2011-04-23T23:03:18.0000000+00:00</time></trkpt><trkpt lat="22.348364" lon="103.774368"><ele>1965.5</ele><time>2011-04-23T23:03:23.0000000+00:00</time></trkpt><trkpt lat="22.348343" lon="103.774338"><ele>1964.8</ele><time>2011-04-23T23:03:28.0000000+00:00</time></trkpt><trkpt lat="22.348289" lon="103.774284"><ele>1965.3</ele><time>2011-04-23T23:03:33.0000000+00:00</time></trkpt><trkpt lat="22.348276" lon="103.774254"><ele>1964.9</ele><time>2011-04-23T23:03:38.0000000+00:00</time></trkpt><trkpt lat="22.348234" lon="103.774208"><ele>1964.6</ele><time>2011-04-23T23:03:43.0000000+00:00</time></trkpt><trkpt lat="22.348221" lon="103.77417"><ele>1963.5</ele><time>2011-04-23T23:03:48.0000000+00:00</time></trkpt><trkpt lat="22.348202" lon="103.774124"><ele>1963.0</ele><time>2011-04-23T23:03:53.0000000+00:00</time></trkpt><trkpt lat="22.348129" lon="103.774109"><ele>1963.2</ele><time>2011-04-23T23:03:58.0000000+00:00</time></trkpt><trkpt lat="22.348072" lon="103.774124"><ele>1963.6</ele><time>2011-04-23T23:04:03.0000000+00:00</time></trkpt><trkpt lat="22.348036" lon="103.774109"><ele>1963.2</ele><time>2011-04-23T23:04:08.0000000+00:00</time></trkpt><trkpt lat="22.348034" lon="103.774078"><ele>1963.4</ele><time>2011-04-23T23:04:13.0000000+00:00</time></trkpt><trkpt lat="22.348013" lon="103.774063"><ele>1963.4</ele><time>2011-04-23T23:04:18.0000000+00:00</time></trkpt><trkpt lat="22.347967" lon="103.77401"><ele>1964.2</ele><time>2011-04-23T23:04:23.0000000+00:00</time></trkpt><trkpt lat="22.34794" lon="103.773972"><ele>1964.7</ele><time>2011-04-23T23:04:28.0000000+00:00</time></trkpt><trkpt lat="22.347895" lon="103.773933"><ele>1965.1</ele><time>2011-04-23T23:04:33.0000000+00:00</time></trkpt><trkpt lat="22.347839" lon="103.77388"><ele>1965.5</ele><time>2011-04-23T23:04:38.0000000+00:00</time></trkpt><trkpt lat="22.347797" lon="103.773827"><ele>1965.7</ele><time>2011-04-23T23:04:43.0000000+00:00</time></trkpt><trkpt lat="22.347765" lon="103.773796"><ele>1965.7</ele><time>2011-04-23T23:04:48.0000000+00:00</time></trkpt><trkpt lat="22.347731" lon="103.773781"><ele>1965.7</ele><time>2011-04-23T23:04:53.0000000+00:00</time></trkpt><trkpt lat="22.347696" lon="103.773766"><ele>1965.8</ele><time>2011-04-23T23:04:58.0000000+00:00</time></trkpt><trkpt lat="22.347692" lon="103.773727"><ele>1965.7</ele><time>2011-04-23T23:05:03.0000000+00:00</time></trkpt><trkpt lat="22.347692" lon="103.773697"><ele>1965.1</ele><time>2011-04-23T23:05:08.0000000+00:00</time></trkpt><trkpt lat="22.347662" lon="103.773697"><ele>1964.5</ele><time>2011-04-23T23:05:13.0000000+00:00</time></trkpt><trkpt lat="22.347616" lon="103.773682"><ele>1964.7</ele><time>2011-04-23T23:05:18.0000000+00:00</time></trkpt><trkpt lat="22.347557" lon="103.773659"><ele>1965.0</ele><time>2011-04-23T23:05:23.0000000+00:00</time></trkpt><trkpt lat="22.347496" lon="103.773636"><ele>1965.2</ele><time>2011-04-23T23:05:28.0000000+00:00</time></trkpt><trkpt lat="22.347492" lon="103.773643"><ele>1965.3</ele><time>2011-04-23T23:05:33.0000000+00:00</time></trkpt><trkpt lat="22.347424" lon="103.773643"><ele>1965.5</ele><time>2011-04-23T23:05:38.0000000+00:00</time></trkpt><trkpt lat="22.347374" lon="103.773666"><ele>1965.8</ele><time>2011-04-23T23:05:43.0000000+00:00</time></trkpt><trkpt lat="22.347328" lon="103.773666"><ele>1965.9</ele><time>2011-04-23T23:05:48.0000000+00:00</time></trkpt><trkpt lat="22.347309" lon="103.773689"><ele>1965.9</ele><time>2011-04-23T23:05:53.0000000+00:00</time></trkpt><trkpt lat="22.347288" lon="103.773712"><ele>1965.9</ele><time>2011-04-23T23:05:58.0000000+00:00</time></trkpt><trkpt lat="22.347282" lon="103.773743"><ele>1966.0</ele><time>2011-04-23T23:06:03.0000000+00:00</time></trkpt><trkpt lat="22.347286" lon="103.773758"><ele>1966.2</ele><time>2011-04-23T23:06:08.0000000+00:00</time></trkpt><trkpt lat="22.347281" lon="103.773766"><ele>1966.5</ele><time>2011-04-23T23:06:13.0000000+00:00</time></trkpt><trkpt lat="22.347279" lon="103.773781"><ele>1967.0</ele><time>2011-04-23T23:06:18.0000000+00:00</time></trkpt><trkpt lat="22.347284" lon="103.773796"><ele>1968.1</ele><time>2011-04-23T23:06:23.0000000+00:00</time></trkpt><trkpt lat="22.347275" lon="103.773788"><ele>1968.4</ele><time>2011-04-23T23:06:28.0000000+00:00</time></trkpt><trkpt lat="22.347265" lon="103.773781"><ele>1968.8</ele><time>2011-04-23T23:06:33.0000000+00:00</time></trkpt><trkpt lat="22.347263" lon="103.773788"><ele>1969.2</ele><time>2011-04-23T23:06:38.0000000+00:00</time></trkpt><trkpt lat="22.347271" lon="103.773895"><ele>1969.7</ele><time>2011-04-23T23:06:43.0000000+00:00</time></trkpt><trkpt lat="22.347256" lon="103.773903"><ele>1970.0</ele><time>2011-04-23T23:06:48.0000000+00:00</time></trkpt><trkpt lat="22.34721" lon="103.773918"><ele>1970.6</ele><time>2011-04-23T23:06:53.0000000+00:00</time></trkpt><trkpt lat="22.347155" lon="103.773911"><ele>1970.6</ele><time>2011-04-23T23:06:58.0000000+00:00</time></trkpt><trkpt lat="22.347109" lon="103.773911"><ele>1970.8</ele><time>2011-04-23T23:07:03.0000000+00:00</time></trkpt><trkpt lat="22.347084" lon="103.773903"><ele>1970.8</ele><time>2011-04-23T23:07:08.0000000+00:00</time></trkpt><trkpt lat="22.34708" lon="103.773895"><ele>1970.7</ele><time>2011-04-23T23:07:13.0000000+00:00</time></trkpt><trkpt lat="22.347044" lon="103.773888"><ele>1970.7</ele><time>2011-04-23T23:07:18.0000000+00:00</time></trkpt><trkpt lat="22.347031" lon="103.773911"><ele>1970.6</ele><time>2011-04-23T23:07:23.0000000+00:00</time></trkpt><trkpt lat="22.347012" lon="103.773918"><ele>1970.8</ele><time>2011-04-23T23:07:28.0000000+00:00</time></trkpt><trkpt lat="22.346981" lon="103.773918"><ele>1971.0</ele><time>2011-04-23T23:07:33.0000000+00:00</time></trkpt><trkpt lat="22.346956" lon="103.773918"><ele>1971.1</ele><time>2011-04-23T23:07:38.0000000+00:00</time></trkpt><trkpt lat="22.346943" lon="103.773933"><ele>1971.2</ele><time>2011-04-23T23:07:43.0000000+00:00</time></trkpt><trkpt lat="22.346951" lon="103.773949"><ele>1971.3</ele><time>2011-04-23T23:07:48.0000000+00:00</time></trkpt><trkpt lat="22.346952" lon="103.773964"><ele>1971.6</ele><time>2011-04-23T23:07:53.0000000+00:00</time></trkpt><trkpt lat="22.346954" lon="103.773972"><ele>1972.0</ele><time>2011-04-23T23:07:58.0000000+00:00</time></trkpt><trkpt lat="22.346937" lon="103.774002"><ele>1972.1</ele><time>2011-04-23T23:08:03.0000000+00:00</time></trkpt><trkpt lat="22.346943" lon="103.774025"><ele>1972.5</ele><time>2011-04-23T23:08:08.0000000+00:00</time></trkpt><trkpt lat="22.346926" lon="103.774055"><ele>1972.8</ele><time>2011-04-23T23:08:13.0000000+00:00</time></trkpt><trkpt lat="22.346851" lon="103.774086"><ele>1973.0</ele><time>2011-04-23T23:08:18.0000000+00:00</time></trkpt><trkpt lat="22.346813" lon="103.774139"><ele>1973.2</ele><time>2011-04-23T23:08:23.0000000+00:00</time></trkpt><trkpt lat="22.346783" lon="103.774147"><ele>1973.2</ele><time>2011-04-23T23:08:28.0000000+00:00</time></trkpt><trkpt lat="22.346785" lon="103.774139"><ele>1973.1</ele><time>2011-04-23T23:08:33.0000000+00:00</time></trkpt><trkpt lat="22.346769" lon="103.774147"><ele>1973.1</ele><time>2011-04-23T23:08:38.0000000+00:00</time></trkpt><trkpt lat="22.346724" lon="103.774162"><ele>1973.0</ele><time>2011-04-23T23:08:43.0000000+00:00</time></trkpt><trkpt lat="22.346687" lon="103.774162"><ele>1972.9</ele><time>2011-04-23T23:08:48.0000000+00:00</time></trkpt><trkpt lat="22.346647" lon="103.774185"><ele>1972.8</ele><time>2011-04-23T23:08:53.0000000+00:00</time></trkpt><trkpt lat="22.346619" lon="103.774185"><ele>1972.7</ele><time>2011-04-23T23:08:58.0000000+00:00</time></trkpt><trkpt lat="22.3466" lon="103.774216"><ele>1972.7</ele><time>2011-04-23T23:09:03.0000000+00:00</time></trkpt><trkpt lat="22.346592" lon="103.774216"><ele>1972.6</ele><time>2011-04-23T23:09:08.0000000+00:00</time></trkpt><trkpt lat="22.346594" lon="103.774223"><ele>1972.5</ele><time>2011-04-23T23:09:13.0000000+00:00</time></trkpt><trkpt lat="22.34656" lon="103.774223"><ele>1972.4</ele><time>2011-04-23T23:09:18.0000000+00:00</time></trkpt><trkpt lat="22.346519" lon="103.774261"><ele>1972.4</ele><time>2011-04-23T23:09:23.0000000+00:00</time></trkpt><trkpt lat="22.346512" lon="103.774292"><ele>1972.4</ele><time>2011-04-23T23:09:28.0000000+00:00</time></trkpt><trkpt lat="22.346478" lon="103.774307"><ele>1972.5</ele><time>2011-04-23T23:09:33.0000000+00:00</time></trkpt><trkpt lat="22.346458" lon="103.774338"><ele>1972.5</ele><time>2011-04-23T23:09:38.0000000+00:00</time></trkpt><trkpt lat="22.346407" lon="103.774368"><ele>1972.7</ele><time>2011-04-23T23:09:43.0000000+00:00</time></trkpt><trkpt lat="22.346399" lon="103.774376"><ele>1972.7</ele><time>2011-04-23T23:09:48.0000000+00:00</time></trkpt><trkpt lat="22.346401" lon="103.774384"><ele>1972.6</ele><time>2011-04-23T23:09:53.0000000+00:00</time></trkpt><trkpt lat="22.346403" lon="103.774406"><ele>1972.6</ele><time>2011-04-23T23:09:58.0000000+00:00</time></trkpt><trkpt lat="22.346407" lon="103.774422"><ele>1972.5</ele><time>2011-04-23T23:10:03.0000000+00:00</time></trkpt><trkpt lat="22.346418" lon="103.774437"><ele>1972.5</ele><time>2011-04-23T23:10:08.0000000+00:00</time></trkpt><trkpt lat="22.346428" lon="103.774452"><ele>1972.5</ele><time>2011-04-23T23:10:13.0000000+00:00</time></trkpt><trkpt lat="22.346437" lon="103.77446"><ele>1972.6</ele><time>2011-04-23T23:10:18.0000000+00:00</time></trkpt><trkpt lat="22.346453" lon="103.774475"><ele>1972.6</ele><time>2011-04-23T23:10:23.0000000+00:00</time></trkpt><trkpt lat="22.346436" lon="103.774529"><ele>1973.1</ele><time>2011-04-23T23:10:28.0000000+00:00</time></trkpt><trkpt lat="22.34639" lon="103.774536"><ele>1973.6</ele><time>2011-04-23T23:10:33.0000000+00:00</time></trkpt><trkpt lat="22.346348" lon="103.774536"><ele>1974.3</ele><time>2011-04-23T23:10:38.0000000+00:00</time></trkpt><trkpt lat="22.346323" lon="103.774551"><ele>1975.2</ele><time>2011-04-23T23:10:43.0000000+00:00</time></trkpt><trkpt lat="22.346321" lon="103.774559"><ele>1976.1</ele><time>2011-04-23T23:10:48.0000000+00:00</time></trkpt><trkpt lat="22.346281" lon="103.774582"><ele>1977.7</ele><time>2011-04-23T23:10:53.0000000+00:00</time></trkpt><trkpt lat="22.346207" lon="103.774605"><ele>1978.4</ele><time>2011-04-23T23:10:58.0000000+00:00</time></trkpt><trkpt lat="22.346157" lon="103.774574"><ele>1979.1</ele><time>2011-04-23T23:11:03.0000000+00:00</time></trkpt><trkpt lat="22.346128" lon="103.774605"><ele>1980.6</ele><time>2011-04-23T23:11:08.0000000+00:00</time></trkpt><trkpt lat="22.34609" lon="103.77462"><ele>1982.2</ele><time>2011-04-23T23:11:13.0000000+00:00</time></trkpt><trkpt lat="22.346069" lon="103.774643"><ele>1984.3</ele><time>2011-04-23T23:11:18.0000000+00:00</time></trkpt><trkpt lat="22.346045" lon="103.774666"><ele>1986.1</ele><time>2011-04-23T23:11:23.0000000+00:00</time></trkpt><trkpt lat="22.346008" lon="103.774673"><ele>1988.1</ele><time>2011-04-23T23:11:28.0000000+00:00</time></trkpt><trkpt lat="22.345976" lon="103.774712"><ele>1990.2</ele><time>2011-04-23T23:11:33.0000000+00:00</time></trkpt><trkpt lat="22.345924" lon="103.77475"><ele>1991.9</ele><time>2011-04-23T23:11:38.0000000+00:00</time></trkpt><trkpt lat="22.345871" lon="103.774788"><ele>1994.8</ele><time>2011-04-23T23:11:43.0000000+00:00</time></trkpt><trkpt lat="22.34585" lon="103.774849"><ele>1997.0</ele><time>2011-04-23T23:11:48.0000000+00:00</time></trkpt><trkpt lat="22.3458" lon="103.774872"><ele>1999.3</ele><time>2011-04-23T23:11:53.0000000+00:00</time></trkpt><trkpt lat="22.345764" lon="103.774895"><ele>2002.2</ele><time>2011-04-23T23:11:58.0000000+00:00</time></trkpt><trkpt lat="22.345732" lon="103.774933"><ele>2006.4</ele><time>2011-04-23T23:12:03.0000000+00:00</time></trkpt><trkpt lat="22.345707" lon="103.774971"><ele>2010.3</ele><time>2011-04-23T23:12:08.0000000+00:00</time></trkpt><trkpt lat="22.345684" lon="103.775024"><ele>2013.0</ele><time>2011-04-23T23:12:13.0000000+00:00</time></trkpt><trkpt lat="22.345663" lon="103.775078"><ele>2017.0</ele><time>2011-04-23T23:12:18.0000000+00:00</time></trkpt><trkpt lat="22.345638" lon="103.775124"><ele>2020.6</ele><time>2011-04-23T23:12:23.0000000+00:00</time></trkpt><trkpt lat="22.345594" lon="103.775146"><ele>2023.9</ele><time>2011-04-23T23:12:28.0000000+00:00</time></trkpt><trkpt lat="22.345537" lon="103.775162"><ele>2026.2</ele><time>2011-04-23T23:12:33.0000000+00:00</time></trkpt><trkpt lat="22.345503" lon="103.775162"><ele>2027.2</ele><time>2011-04-23T23:12:38.0000000+00:00</time></trkpt><trkpt lat="22.345448" lon="103.775177"><ele>2028.4</ele><time>2011-04-23T23:12:43.0000000+00:00</time></trkpt><trkpt lat="22.345392" lon="103.775185"><ele>2029.1</ele><time>2011-04-23T23:12:48.0000000+00:00</time></trkpt><trkpt lat="22.345352" lon="103.775192"><ele>2029.5</ele><time>2011-04-23T23:12:53.0000000+00:00</time></trkpt><trkpt lat="22.345276" lon="103.775223"><ele>2029.8</ele><time>2011-04-23T23:12:58.0000000+00:00</time></trkpt><trkpt lat="22.345243" lon="103.775215"><ele>2029.6</ele><time>2011-04-23T23:13:03.0000000+00:00</time></trkpt><trkpt lat="22.345249" lon="103.77523"><ele>2030.3</ele><time>2011-04-23T23:13:08.0000000+00:00</time></trkpt><trkpt lat="22.34523" lon="103.775208"><ele>2030.6</ele><time>2011-04-23T23:13:13.0000000+00:00</time></trkpt><trkpt lat="22.34519" lon="103.775185"><ele>2029.7</ele><time>2011-04-23T23:13:18.0000000+00:00</time></trkpt><trkpt lat="22.345133" lon="103.775177"><ele>2029.1</ele><time>2011-04-23T23:13:23.0000000+00:00</time></trkpt><trkpt lat="22.345079" lon="103.775192"><ele>2028.4</ele><time>2011-04-23T23:13:28.0000000+00:00</time></trkpt><trkpt lat="22.345028" lon="103.775192"><ele>2028.4</ele><time>2011-04-23T23:13:33.0000000+00:00</time></trkpt><trkpt lat="22.344959" lon="103.7752"><ele>2028.3</ele><time>2011-04-23T23:13:38.0000000+00:00</time></trkpt><trkpt lat="22.344896" lon="103.7752"><ele>2027.9</ele><time>2011-04-23T23:13:43.0000000+00:00</time></trkpt><trkpt lat="22.344837" lon="103.775238"><ele>2028.2</ele><time>2011-04-23T23:13:48.0000000+00:00</time></trkpt><trkpt lat="22.344782" lon="103.775269"><ele>2028.1</ele><time>2011-04-23T23:13:53.0000000+00:00</time></trkpt><trkpt lat="22.344736" lon="103.775291"><ele>2028.7</ele><time>2011-04-23T23:13:58.0000000+00:00</time></trkpt><trkpt lat="22.344687" lon="103.775307"><ele>2028.8</ele><time>2011-04-23T23:14:03.0000000+00:00</time></trkpt><trkpt lat="22.344622" lon="103.775322"><ele>2028.4</ele><time>2011-04-23T23:14:08.0000000+00:00</time></trkpt><trkpt lat="22.344559" lon="103.775337"><ele>2028.6</ele><time>2011-04-23T23:14:13.0000000+00:00</time></trkpt><trkpt lat="22.344492" lon="103.77533"><ele>2028.7</ele><time>2011-04-23T23:14:18.0000000+00:00</time></trkpt><trkpt lat="22.34444" lon="103.775299"><ele>2028.5</ele><time>2011-04-23T23:14:23.0000000+00:00</time></trkpt><trkpt lat="22.344379" lon="103.77533"><ele>2029.9</ele><time>2011-04-23T23:14:28.0000000+00:00</time></trkpt><trkpt lat="22.344326" lon="103.77533"><ele>2030.1</ele><time>2011-04-23T23:14:33.0000000+00:00</time></trkpt><trkpt lat="22.344267" lon="103.77533"><ele>2030.0</ele><time>2011-04-23T23:14:38.0000000+00:00</time></trkpt><trkpt lat="22.344189" lon="103.775337"><ele>2029.5</ele><time>2011-04-23T23:14:43.0000000+00:00</time></trkpt><trkpt lat="22.344116" lon="103.775352"><ele>2030.4</ele><time>2011-04-23T23:14:48.0000000+00:00</time></trkpt><trkpt lat="22.344046" lon="103.775368"><ele>2031.3</ele><time>2011-04-23T23:14:53.0000000+00:00</time></trkpt><trkpt lat="22.343992" lon="103.775383"><ele>2031.1</ele><time>2011-04-23T23:14:58.0000000+00:00</time></trkpt><trkpt lat="22.343937" lon="103.775368"><ele>2030.8</ele><time>2011-04-23T23:15:03.0000000+00:00</time></trkpt><trkpt lat="22.343885" lon="103.77533"><ele>2029.0</ele><time>2011-04-23T23:15:08.0000000+00:00</time></trkpt><trkpt lat="22.343836" lon="103.775291"><ele>2026.7</ele><time>2011-04-23T23:15:13.0000000+00:00</time></trkpt><trkpt lat="22.34376" lon="103.775276"><ele>2025.2</ele><time>2011-04-23T23:15:18.0000000+00:00</time></trkpt><trkpt lat="22.343689" lon="103.775276"><ele>2024.0</ele><time>2011-04-23T23:15:23.0000000+00:00</time></trkpt><trkpt lat="22.343611" lon="103.775276"><ele>2022.8</ele><time>2011-04-23T23:15:28.0000000+00:00</time></trkpt><trkpt lat="22.343559" lon="103.775253"><ele>2022.7</ele><time>2011-04-23T23:15:33.0000000+00:00</time></trkpt><trkpt lat="22.343506" lon="103.775291"><ele>2023.3</ele><time>2011-04-23T23:15:38.0000000+00:00</time></trkpt><trkpt lat="22.343451" lon="103.77533"><ele>2023.3</ele><time>2011-04-23T23:15:43.0000000+00:00</time></trkpt><trkpt lat="22.343403" lon="103.775368"><ele>2023.1</ele><time>2011-04-23T23:15:48.0000000+00:00</time></trkpt><trkpt lat="22.343349" lon="103.775414"><ele>2022.4</ele><time>2011-04-23T23:15:53.0000000+00:00</time></trkpt><trkpt lat="22.343309" lon="103.775467"><ele>2021.0</ele><time>2011-04-23T23:15:58.0000000+00:00</time></trkpt><trkpt lat="22.34326" lon="103.775505"><ele>2020.9</ele><time>2011-04-23T23:16:03.0000000+00:00</time></trkpt><trkpt lat="22.343212" lon="103.77552"><ele>2020.8</ele><time>2011-04-23T23:16:08.0000000+00:00</time></trkpt><trkpt lat="22.343161" lon="103.775551"><ele>2020.9</ele><time>2011-04-23T23:16:13.0000000+00:00</time></trkpt><trkpt lat="22.343126" lon="103.775597"><ele>2021.0</ele><time>2011-04-23T23:16:18.0000000+00:00</time></trkpt><trkpt lat="22.343082" lon="103.775627"><ele>2022.0</ele><time>2011-04-23T23:16:23.0000000+00:00</time></trkpt><trkpt lat="22.343033" lon="103.775665"><ele>2022.9</ele><time>2011-04-23T23:16:28.0000000+00:00</time></trkpt><trkpt lat="22.342979" lon="103.775703"><ele>2024.7</ele><time>2011-04-23T23:16:33.0000000+00:00</time></trkpt><trkpt lat="22.342941" lon="103.775749"><ele>2025.4</ele><time>2011-04-23T23:16:38.0000000+00:00</time></trkpt><trkpt lat="22.342936" lon="103.77578"><ele>2025.9</ele><time>2011-04-23T23:16:43.0000000+00:00</time></trkpt><trkpt lat="22.342915" lon="103.77581"><ele>2026.3</ele><time>2011-04-23T23:16:48.0000000+00:00</time></trkpt><trkpt lat="22.342911" lon="103.775826"><ele>2026.6</ele><time>2011-04-23T23:16:53.0000000+00:00</time></trkpt><trkpt lat="22.342894" lon="103.775856"><ele>2027.0</ele><time>2011-04-23T23:16:58.0000000+00:00</time></trkpt><trkpt lat="22.342907" lon="103.775871"><ele>2026.6</ele><time>2011-04-23T23:17:03.0000000+00:00</time></trkpt><trkpt lat="22.342897" lon="103.775887"><ele>2027.3</ele><time>2011-04-23T23:17:08.0000000+00:00</time></trkpt><trkpt lat="22.342911" lon="103.775932"><ele>2027.7</ele><time>2011-04-23T23:17:13.0000000+00:00</time></trkpt><trkpt lat="22.342913" lon="103.775948"><ele>2028.0</ele><time>2011-04-23T23:17:18.0000000+00:00</time></trkpt><trkpt lat="22.342892" lon="103.775955"><ele>2028.5</ele><time>2011-04-23T23:17:23.0000000+00:00</time></trkpt><trkpt lat="22.342829" lon="103.776031"><ele>2028.1</ele><time>2011-04-23T23:17:28.0000000+00:00</time></trkpt><trkpt lat="22.342827" lon="103.776093"><ele>2028.1</ele><time>2011-04-23T23:17:33.0000000+00:00</time></trkpt><trkpt lat="22.342745" lon="103.776108"><ele>2028.1</ele><time>2011-04-23T23:17:38.0000000+00:00</time></trkpt><trkpt lat="22.342703" lon="103.776161"><ele>2027.9</ele><time>2011-04-23T23:17:43.0000000+00:00</time></trkpt><trkpt lat="22.342672" lon="103.776192"><ele>2027.1</ele><time>2011-04-23T23:17:48.0000000+00:00</time></trkpt><trkpt lat="22.342634" lon="103.776222"><ele>2027.0</ele><time>2011-04-23T23:17:53.0000000+00:00</time></trkpt><trkpt lat="22.342585" lon="103.77623"><ele>2025.9</ele><time>2011-04-23T23:17:58.0000000+00:00</time></trkpt><trkpt lat="22.342556" lon="103.776237"><ele>2024.4</ele><time>2011-04-23T23:18:03.0000000+00:00</time></trkpt><trkpt lat="22.342505" lon="103.776237"><ele>2023.3</ele><time>2011-04-23T23:18:08.0000000+00:00</time></trkpt><trkpt lat="22.34244" lon="103.776276"><ele>2020.2</ele><time>2011-04-23T23:18:13.0000000+00:00</time></trkpt><trkpt lat="22.3424" lon="103.776283"><ele>2019.2</ele><time>2011-04-23T23:18:18.0000000+00:00</time></trkpt><trkpt lat="22.342381" lon="103.776291"><ele>2018.6</ele><time>2011-04-23T23:18:23.0000000+00:00</time></trkpt><trkpt lat="22.342323" lon="103.776344"><ele>2017.7</ele><time>2011-04-23T23:18:28.0000000+00:00</time></trkpt><trkpt lat="22.342287" lon="103.776382"><ele>2017.7</ele><time>2011-04-23T23:18:33.0000000+00:00</time></trkpt><trkpt lat="22.342251" lon="103.776375"><ele>2014.8</ele><time>2011-04-23T23:18:38.0000000+00:00</time></trkpt><trkpt lat="22.342249" lon="103.776352"><ele>2012.1</ele><time>2011-04-23T23:18:43.0000000+00:00</time></trkpt><trkpt lat="22.342234" lon="103.776329"><ele>2010.0</ele><time>2011-04-23T23:18:48.0000000+00:00</time></trkpt><trkpt lat="22.342192" lon="103.776375"><ele>2007.7</ele><time>2011-04-23T23:18:53.0000000+00:00</time></trkpt><trkpt lat="22.342161" lon="103.77639"><ele>2008.7</ele><time>2011-04-23T23:18:58.0000000+00:00</time></trkpt><trkpt lat="22.34215" lon="103.77639"><ele>2007.4</ele><time>2011-04-23T23:19:03.0000000+00:00</time></trkpt><trkpt lat="22.342129" lon="103.776398"><ele>2007.8</ele><time>2011-04-23T23:19:08.0000000+00:00</time></trkpt><trkpt lat="22.342081" lon="103.776405"><ele>2007.7</ele><time>2011-04-23T23:19:13.0000000+00:00</time></trkpt><trkpt lat="22.342045" lon="103.77639"><ele>2008.0</ele><time>2011-04-23T23:19:18.0000000+00:00</time></trkpt><trkpt lat="22.341972" lon="103.776413"><ele>2007.7</ele><time>2011-04-23T23:19:23.0000000+00:00</time></trkpt><trkpt lat="22.341898" lon="103.776405"><ele>2007.0</ele><time>2011-04-23T23:19:28.0000000+00:00</time></trkpt><trkpt lat="22.341829" lon="103.776428"><ele>2004.8</ele><time>2011-04-23T23:19:33.0000000+00:00</time></trkpt><trkpt lat="22.341774" lon="103.776451"><ele>2004.2</ele><time>2011-04-23T23:19:38.0000000+00:00</time></trkpt><trkpt lat="22.341715" lon="103.776459"><ele>2002.0</ele><time>2011-04-23T23:19:43.0000000+00:00</time></trkpt><trkpt lat="22.34166" lon="103.776482"><ele>1999.0</ele><time>2011-04-23T23:19:48.0000000+00:00</time></trkpt><trkpt lat="22.341597" lon="103.776466"><ele>1997.5</ele><time>2011-04-23T23:19:53.0000000+00:00</time></trkpt><trkpt lat="22.341547" lon="103.776466"><ele>1996.3</ele><time>2011-04-23T23:19:58.0000000+00:00</time></trkpt><trkpt lat="22.341522" lon="103.776466"><ele>1993.5</ele><time>2011-04-23T23:20:03.0000000+00:00</time></trkpt><trkpt lat="22.341516" lon="103.776421"><ele>1991.4</ele><time>2011-04-23T23:20:08.0000000+00:00</time></trkpt><trkpt lat="22.341499" lon="103.776405"><ele>1989.8</ele><time>2011-04-23T23:20:13.0000000+00:00</time></trkpt><trkpt lat="22.341494" lon="103.776413"><ele>1988.4</ele><time>2011-04-23T23:20:18.0000000+00:00</time></trkpt><trkpt lat="22.34149" lon="103.776413"><ele>1987.8</ele><time>2011-04-23T23:20:23.0000000+00:00</time></trkpt><trkpt lat="22.341496" lon="103.776413"><ele>1988.1</ele><time>2011-04-23T23:20:28.0000000+00:00</time></trkpt><trkpt lat="22.341503" lon="103.776421"><ele>1987.9</ele><time>2011-04-23T23:20:33.0000000+00:00</time></trkpt><trkpt lat="22.341484" lon="103.776428"><ele>1989.0</ele><time>2011-04-23T23:20:38.0000000+00:00</time></trkpt><trkpt lat="22.341496" lon="103.776443"><ele>1988.7</ele><time>2011-04-23T23:20:43.0000000+00:00</time></trkpt><trkpt lat="22.341497" lon="103.776436"><ele>1988.4</ele><time>2011-04-23T23:20:48.0000000+00:00</time></trkpt><trkpt lat="22.341496" lon="103.776436"><ele>1988.5</ele><time>2011-04-23T23:20:53.0000000+00:00</time></trkpt><trkpt lat="22.341497" lon="103.776428"><ele>1988.3</ele><time>2011-04-23T23:20:58.0000000+00:00</time></trkpt><trkpt lat="22.341499" lon="103.776436"><ele>1988.3</ele><time>2011-04-23T23:21:03.0000000+00:00</time></trkpt><trkpt lat="22.341503" lon="103.776436"><ele>1988.4</ele><time>2011-04-23T23:21:08.0000000+00:00</time></trkpt><trkpt lat="22.341507" lon="103.776436"><ele>1988.4</ele><time>2011-04-23T23:21:13.0000000+00:00</time></trkpt><trkpt lat="22.341507" lon="103.776436"><ele>1988.4</ele><time>2011-04-23T23:21:18.0000000+00:00</time></trkpt><trkpt lat="22.341505" lon="103.776436"><ele>1988.4</ele><time>2011-04-23T23:21:23.0000000+00:00</time></trkpt><trkpt lat="22.341505" lon="103.776443"><ele>1988.4</ele><time>2011-04-23T23:21:28.0000000+00:00</time></trkpt><trkpt lat="22.341511" lon="103.776443"><ele>1988.5</ele><time>2011-04-23T23:21:33.0000000+00:00</time></trkpt><trkpt lat="22.341515" lon="103.776451"><ele>1988.5</ele><time>2011-04-23T23:21:38.0000000+00:00</time></trkpt><trkpt lat="22.341516" lon="103.776451"><ele>1988.5</ele><time>2011-04-23T23:21:43.0000000+00:00</time></trkpt><trkpt lat="22.341515" lon="103.776443"><ele>1988.4</ele><time>2011-04-23T23:21:48.0000000+00:00</time></trkpt><trkpt lat="22.341507" lon="103.776413"><ele>1987.4</ele><time>2011-04-23T23:21:53.0000000+00:00</time></trkpt><trkpt lat="22.341513" lon="103.776421"><ele>1987.5</ele><time>2011-04-23T23:21:58.0000000+00:00</time></trkpt><trkpt lat="22.341509" lon="103.776421"><ele>1987.5</ele><time>2011-04-23T23:22:03.0000000+00:00</time></trkpt><trkpt lat="22.341505" lon="103.776421"><ele>1987.5</ele><time>2011-04-23T23:22:08.0000000+00:00</time></trkpt><trkpt lat="22.341505" lon="103.776421"><ele>1987.5</ele><time>2011-04-23T23:22:13.0000000+00:00</time></trkpt><trkpt lat="22.341503" lon="103.776421"><ele>1987.4</ele><time>2011-04-23T23:22:18.0000000+00:00</time></trkpt><trkpt lat="22.341509" lon="103.776421"><ele>1987.4</ele><time>2011-04-23T23:22:23.0000000+00:00</time></trkpt><trkpt lat="22.341526" lon="103.776405"><ele>1987.5</ele><time>2011-04-23T23:22:28.0000000+00:00</time></trkpt><trkpt lat="22.341536" lon="103.776398"><ele>1986.7</ele><time>2011-04-23T23:22:33.0000000+00:00</time></trkpt><trkpt lat="22.341558" lon="103.776382"><ele>1985.5</ele><time>2011-04-23T23:22:38.0000000+00:00</time></trkpt><trkpt lat="22.341549" lon="103.776382"><ele>1984.8</ele><time>2011-04-23T23:22:43.0000000+00:00</time></trkpt><trkpt lat="22.341524" lon="103.776413"><ele>1983.4</ele><time>2011-04-23T23:22:48.0000000+00:00</time></trkpt><trkpt lat="22.341511" lon="103.776428"><ele>1983.7</ele><time>2011-04-23T23:22:53.0000000+00:00</time></trkpt><trkpt lat="22.341507" lon="103.776428"><ele>1983.9</ele><time>2011-04-23T23:22:58.0000000+00:00</time></trkpt><trkpt lat="22.341501" lon="103.776428"><ele>1983.8</ele><time>2011-04-23T23:23:03.0000000+00:00</time></trkpt><trkpt lat="22.341501" lon="103.776428"><ele>1983.8</ele><time>2011-04-23T23:23:08.0000000+00:00</time></trkpt><trkpt lat="22.341509" lon="103.776428"><ele>1983.7</ele><time>2011-04-23T23:23:13.0000000+00:00</time></trkpt><trkpt lat="22.341516" lon="103.776421"><ele>1983.6</ele><time>2011-04-23T23:23:18.0000000+00:00</time></trkpt><trkpt lat="22.34152" lon="103.776421"><ele>1983.5</ele><time>2011-04-23T23:23:23.0000000+00:00</time></trkpt><trkpt lat="22.34152" lon="103.776421"><ele>1983.3</ele><time>2011-04-23T23:23:28.0000000+00:00</time></trkpt><trkpt lat="22.34152" lon="103.776421"><ele>1983.2</ele><time>2011-04-23T23:23:33.0000000+00:00</time></trkpt><trkpt lat="22.34152" lon="103.776421"><ele>1983.0</ele><time>2011-04-23T23:23:38.0000000+00:00</time></trkpt><trkpt lat="22.341522" lon="103.776421"><ele>1983.0</ele><time>2011-04-23T23:23:43.0000000+00:00</time></trkpt><trkpt lat="22.341522" lon="103.776421"><ele>1982.9</ele><time>2011-04-23T23:23:48.0000000+00:00</time></trkpt><trkpt lat="22.341522" lon="103.776421"><ele>1982.8</ele><time>2011-04-23T23:23:53.0000000+00:00</time></trkpt><trkpt lat="22.341522" lon="103.776421"><ele>1982.7</ele><time>2011-04-23T23:23:58.0000000+00:00</time></trkpt><trkpt lat="22.341522" lon="103.776421"><ele>1982.6</ele><time>2011-04-23T23:24:03.0000000+00:00</time></trkpt><trkpt lat="22.341522" lon="103.776421"><ele>1982.5</ele><time>2011-04-23T23:24:08.0000000+00:00</time></trkpt><trkpt lat="22.34152" lon="103.776428"><ele>1982.4</ele><time>2011-04-23T23:24:13.0000000+00:00</time></trkpt><trkpt lat="22.34152" lon="103.776436"><ele>1982.3</ele><time>2011-04-23T23:24:18.0000000+00:00</time></trkpt><trkpt lat="22.341518" lon="103.776436"><ele>1982.3</ele><time>2011-04-23T23:24:23.0000000+00:00</time></trkpt><trkpt lat="22.341518" lon="103.776436"><ele>1982.2</ele><time>2011-04-23T23:24:28.0000000+00:00</time></trkpt><trkpt lat="22.34152" lon="103.776436"><ele>1982.2</ele><time>2011-04-23T23:24:33.0000000+00:00</time></trkpt><trkpt lat="22.341522" lon="103.776436"><ele>1982.1</ele><time>2011-04-23T23:24:38.0000000+00:00</time></trkpt><trkpt lat="22.341522" lon="103.776436"><ele>1982.1</ele><time>2011-04-23T23:24:43.0000000+00:00</time></trkpt><trkpt lat="22.341522" lon="103.776436"><ele>1982.0</ele><time>2011-04-23T23:24:48.0000000+00:00</time></trkpt><trkpt lat="22.34152" lon="103.776428"><ele>1982.0</ele><time>2011-04-23T23:24:53.0000000+00:00</time></trkpt><trkpt lat="22.341518" lon="103.776428"><ele>1981.9</ele><time>2011-04-23T23:24:58.0000000+00:00</time></trkpt><trkpt lat="22.341518" lon="103.776428"><ele>1982.0</ele><time>2011-04-23T23:25:03.0000000+00:00</time></trkpt><trkpt lat="22.341513" lon="103.776428"><ele>1981.9</ele><time>2011-04-23T23:25:08.0000000+00:00</time></trkpt><trkpt lat="22.341509" lon="103.776421"><ele>1980.9</ele><time>2011-04-23T23:25:13.0000000+00:00</time></trkpt><trkpt lat="22.341509" lon="103.776421"><ele>1980.6</ele><time>2011-04-23T23:25:18.0000000+00:00</time></trkpt><trkpt lat="22.341507" lon="103.776421"><ele>1980.5</ele><time>2011-04-23T23:25:23.0000000+00:00</time></trkpt><trkpt lat="22.341507" lon="103.776421"><ele>1980.5</ele><time>2011-04-23T23:25:28.0000000+00:00</time></trkpt><trkpt lat="22.341507" lon="103.776421"><ele>1980.5</ele><time>2011-04-23T23:25:33.0000000+00:00</time></trkpt><trkpt lat="22.341507" lon="103.776421"><ele>1980.5</ele><time>2011-04-23T23:25:38.0000000+00:00</time></trkpt><trkpt lat="22.341507" lon="103.776421"><ele>1980.4</ele><time>2011-04-23T23:25:43.0000000+00:00</time></trkpt><trkpt lat="22.341497" lon="103.776421"><ele>1980.2</ele><time>2011-04-23T23:25:48.0000000+00:00</time></trkpt><trkpt lat="22.341499" lon="103.776428"><ele>1979.8</ele><time>2011-04-23T23:25:53.0000000+00:00</time></trkpt><trkpt lat="22.341497" lon="103.776428"><ele>1979.9</ele><time>2011-04-23T23:25:58.0000000+00:00</time></trkpt><trkpt lat="22.341476" lon="103.776398"><ele>1979.8</ele><time>2011-04-23T23:26:03.0000000+00:00</time></trkpt><trkpt lat="22.341434" lon="103.77636"><ele>1979.0</ele><time>2011-04-23T23:26:08.0000000+00:00</time></trkpt><trkpt lat="22.341402" lon="103.776306"><ele>1978.7</ele><time>2011-04-23T23:26:13.0000000+00:00</time></trkpt><trkpt lat="22.341354" lon="103.776253"><ele>1979.8</ele><time>2011-04-23T23:26:18.0000000+00:00</time></trkpt><trkpt lat="22.341311" lon="103.776215"><ele>1980.3</ele><time>2011-04-23T23:26:23.0000000+00:00</time></trkpt><trkpt lat="22.341284" lon="103.776169"><ele>1981.9</ele><time>2011-04-23T23:26:28.0000000+00:00</time></trkpt><trkpt lat="22.341238" lon="103.776138"><ele>1982.8</ele><time>2011-04-23T23:26:33.0000000+00:00</time></trkpt><trkpt lat="22.341166" lon="103.776115"><ele>1983.8</ele><time>2011-04-23T23:26:38.0000000+00:00</time></trkpt><trkpt lat="22.341127" lon="103.776093"><ele>1985.3</ele><time>2011-04-23T23:26:43.0000000+00:00</time></trkpt><trkpt lat="22.341057" lon="103.776085"><ele>1987.0</ele><time>2011-04-23T23:26:48.0000000+00:00</time></trkpt><trkpt lat="22.341026" lon="103.77607"><ele>1989.2</ele><time>2011-04-23T23:26:53.0000000+00:00</time></trkpt><trkpt lat="22.341017" lon="103.776085"><ele>1989.8</ele><time>2011-04-23T23:26:58.0000000+00:00</time></trkpt><trkpt lat="22.340984" lon="103.776093"><ele>1990.1</ele><time>2011-04-23T23:27:03.0000000+00:00</time></trkpt><trkpt lat="22.340916" lon="103.7761"><ele>1991.2</ele><time>2011-04-23T23:27:08.0000000+00:00</time></trkpt><trkpt lat="22.34087" lon="103.776131"><ele>1993.5</ele><time>2011-04-23T23:27:13.0000000+00:00</time></trkpt><trkpt lat="22.340818" lon="103.776146"><ele>1994.1</ele><time>2011-04-23T23:27:18.0000000+00:00</time></trkpt><trkpt lat="22.340788" lon="103.776169"><ele>1994.9</ele><time>2011-04-23T23:27:23.0000000+00:00</time></trkpt><trkpt lat="22.340752" lon="103.77623"><ele>1995.4</ele><time>2011-04-23T23:27:28.0000000+00:00</time></trkpt><trkpt lat="22.340727" lon="103.776215"><ele>1995.9</ele><time>2011-04-23T23:27:33.0000000+00:00</time></trkpt><trkpt lat="22.340687" lon="103.776192"><ele>1997.3</ele><time>2011-04-23T23:27:38.0000000+00:00</time></trkpt><trkpt lat="22.340664" lon="103.776192"><ele>1998.8</ele><time>2011-04-23T23:27:43.0000000+00:00</time></trkpt><trkpt lat="22.340645" lon="103.776184"><ele>2000.3</ele><time>2011-04-23T23:27:48.0000000+00:00</time></trkpt><trkpt lat="22.340652" lon="103.776192"><ele>2001.5</ele><time>2011-04-23T23:27:53.0000000+00:00</time></trkpt><trkpt lat="22.340643" lon="103.776184"><ele>2002.7</ele><time>2011-04-23T23:27:58.0000000+00:00</time></trkpt><trkpt lat="22.340641" lon="103.776199"><ele>2002.8</ele><time>2011-04-23T23:28:03.0000000+00:00</time></trkpt><trkpt lat="22.340641" lon="103.776207"><ele>2003.9</ele><time>2011-04-23T23:28:08.0000000+00:00</time></trkpt><trkpt lat="22.340588" lon="103.776237"><ele>2004.5</ele><time>2011-04-23T23:28:13.0000000+00:00</time></trkpt><trkpt lat="22.340546" lon="103.776222"><ele>2005.0</ele><time>2011-04-23T23:28:18.0000000+00:00</time></trkpt><trkpt lat="22.340532" lon="103.776215"><ele>2006.1</ele><time>2011-04-23T23:28:23.0000000+00:00</time></trkpt><trkpt lat="22.340523" lon="103.776207"><ele>2006.8</ele><time>2011-04-23T23:28:28.0000000+00:00</time></trkpt><trkpt lat="22.340504" lon="103.776192"><ele>2008.1</ele><time>2011-04-23T23:28:33.0000000+00:00</time></trkpt><trkpt lat="22.340467" lon="103.776169"><ele>2010.5</ele><time>2011-04-23T23:28:38.0000000+00:00</time></trkpt><trkpt lat="22.340439" lon="103.776169"><ele>2011.5</ele><time>2011-04-23T23:28:43.0000000+00:00</time></trkpt><trkpt lat="22.340406" lon="103.776169"><ele>2012.7</ele><time>2011-04-23T23:28:48.0000000+00:00</time></trkpt><trkpt lat="22.340359" lon="103.776154"><ele>2014.3</ele><time>2011-04-23T23:28:53.0000000+00:00</time></trkpt><trkpt lat="22.340326" lon="103.776146"><ele>2016.1</ele><time>2011-04-23T23:28:58.0000000+00:00</time></trkpt><trkpt lat="22.340317" lon="103.776123"><ele>2017.5</ele><time>2011-04-23T23:29:03.0000000+00:00</time></trkpt><trkpt lat="22.340277" lon="103.776123"><ele>2018.4</ele><time>2011-04-23T23:29:08.0000000+00:00</time></trkpt><trkpt lat="22.340239" lon="103.776123"><ele>2019.1</ele><time>2011-04-23T23:29:13.0000000+00:00</time></trkpt><trkpt lat="22.340219" lon="103.776115"><ele>2020.7</ele><time>2011-04-23T23:29:18.0000000+00:00</time></trkpt><trkpt lat="22.340185" lon="103.776108"><ele>2022.2</ele><time>2011-04-23T23:29:23.0000000+00:00</time></trkpt><trkpt lat="22.34016" lon="103.776108"><ele>2023.3</ele><time>2011-04-23T23:29:28.0000000+00:00</time></trkpt><trkpt lat="22.340149" lon="103.7761"><ele>2024.0</ele><time>2011-04-23T23:29:33.0000000+00:00</time></trkpt><trkpt lat="22.340124" lon="103.776077"><ele>2024.6</ele><time>2011-04-23T23:29:38.0000000+00:00</time></trkpt><trkpt lat="22.340101" lon="103.776062"><ele>2025.6</ele><time>2011-04-23T23:29:43.0000000+00:00</time></trkpt><trkpt lat="22.340065" lon="103.776039"><ele>2027.2</ele><time>2011-04-23T23:29:48.0000000+00:00</time></trkpt><trkpt lat="22.340015" lon="103.776016"><ele>2026.7</ele><time>2011-04-23T23:29:53.0000000+00:00</time></trkpt><trkpt lat="22.339979" lon="103.775993"><ele>2026.6</ele><time>2011-04-23T23:29:58.0000000+00:00</time></trkpt><trkpt lat="22.339947" lon="103.775993"><ele>2028.0</ele><time>2011-04-23T23:30:03.0000000+00:00</time></trkpt><trkpt lat="22.33993" lon="103.775986"><ele>2029.5</ele><time>2011-04-23T23:30:08.0000000+00:00</time></trkpt><trkpt lat="22.339882" lon="103.775986"><ele>2031.0</ele><time>2011-04-23T23:30:13.0000000+00:00</time></trkpt><trkpt lat="22.339834" lon="103.776009"><ele>2032.3</ele><time>2011-04-23T23:30:18.0000000+00:00</time></trkpt><trkpt lat="22.339811" lon="103.775993"><ele>2033.0</ele><time>2011-04-23T23:30:23.0000000+00:00</time></trkpt><trkpt lat="22.339796" lon="103.77597"><ele>2033.2</ele><time>2011-04-23T23:30:28.0000000+00:00</time></trkpt><trkpt lat="22.339771" lon="103.775955"><ele>2033.6</ele><time>2011-04-23T23:30:33.0000000+00:00</time></trkpt><trkpt lat="22.339729" lon="103.775917"><ele>2033.7</ele><time>2011-04-23T23:30:38.0000000+00:00</time></trkpt><trkpt lat="22.339697" lon="103.775909"><ele>2034.3</ele><time>2011-04-23T23:30:43.0000000+00:00</time></trkpt><trkpt lat="22.339687" lon="103.775902"><ele>2035.0</ele><time>2011-04-23T23:30:48.0000000+00:00</time></trkpt><trkpt lat="22.339682" lon="103.775925"><ele>2035.3</ele><time>2011-04-23T23:30:53.0000000+00:00</time></trkpt><trkpt lat="22.339668" lon="103.775932"><ele>2036.2</ele><time>2011-04-23T23:30:58.0000000+00:00</time></trkpt><trkpt lat="22.339651" lon="103.775948"><ele>2036.8</ele><time>2011-04-23T23:31:03.0000000+00:00</time></trkpt><trkpt lat="22.339624" lon="103.77594"><ele>2039.1</ele><time>2011-04-23T23:31:08.0000000+00:00</time></trkpt><trkpt lat="22.339624" lon="103.77594"><ele>2041.4</ele><time>2011-04-23T23:31:13.0000000+00:00</time></trkpt><trkpt lat="22.339613" lon="103.775932"><ele>2041.7</ele><time>2011-04-23T23:31:18.0000000+00:00</time></trkpt><trkpt lat="22.339594" lon="103.775909"><ele>2044.1</ele><time>2011-04-23T23:31:23.0000000+00:00</time></trkpt><trkpt lat="22.339548" lon="103.775925"><ele>2045.4</ele><time>2011-04-23T23:31:28.0000000+00:00</time></trkpt><trkpt lat="22.33951" lon="103.775902"><ele>2047.5</ele><time>2011-04-23T23:31:33.0000000+00:00</time></trkpt><trkpt lat="22.339487" lon="103.775887"><ele>2051.0</ele><time>2011-04-23T23:31:38.0000000+00:00</time></trkpt><trkpt lat="22.339462" lon="103.775894"><ele>2053.1</ele><time>2011-04-23T23:31:43.0000000+00:00</time></trkpt><trkpt lat="22.339441" lon="103.775894"><ele>2054.2</ele><time>2011-04-23T23:31:48.0000000+00:00</time></trkpt><trkpt lat="22.339428" lon="103.775879"><ele>2055.2</ele><time>2011-04-23T23:31:53.0000000+00:00</time></trkpt><trkpt lat="22.339407" lon="103.775879"><ele>2056.3</ele><time>2011-04-23T23:31:58.0000000+00:00</time></trkpt><trkpt lat="22.339394" lon="103.775871"><ele>2057.6</ele><time>2011-04-23T23:32:03.0000000+00:00</time></trkpt><trkpt lat="22.339371" lon="103.775864"><ele>2060.0</ele><time>2011-04-23T23:32:08.0000000+00:00</time></trkpt><trkpt lat="22.339338" lon="103.775864"><ele>2061.2</ele><time>2011-04-23T23:32:13.0000000+00:00</time></trkpt><trkpt lat="22.339321" lon="103.775902"><ele>2063.2</ele><time>2011-04-23T23:32:18.0000000+00:00</time></trkpt><trkpt lat="22.339285" lon="103.775948"><ele>2065.3</ele><time>2011-04-23T23:32:23.0000000+00:00</time></trkpt><trkpt lat="22.339245" lon="103.775986"><ele>2066.7</ele><time>2011-04-23T23:32:28.0000000+00:00</time></trkpt><trkpt lat="22.339212" lon="103.776024"><ele>2066.8</ele><time>2011-04-23T23:32:33.0000000+00:00</time></trkpt><trkpt lat="22.339172" lon="103.776039"><ele>2068.8</ele><time>2011-04-23T23:32:38.0000000+00:00</time></trkpt><trkpt lat="22.33914" lon="103.776085"><ele>2070.2</ele><time>2011-04-23T23:32:43.0000000+00:00</time></trkpt><trkpt lat="22.339121" lon="103.776093"><ele>2071.8</ele><time>2011-04-23T23:32:48.0000000+00:00</time></trkpt><trkpt lat="22.339108" lon="103.776093"><ele>2072.9</ele><time>2011-04-23T23:32:53.0000000+00:00</time></trkpt><trkpt lat="22.339081" lon="103.776093"><ele>2074.2</ele><time>2011-04-23T23:32:58.0000000+00:00</time></trkpt><trkpt lat="22.339041" lon="103.776123"><ele>2074.7</ele><time>2011-04-23T23:33:03.0000000+00:00</time></trkpt><trkpt lat="22.33902" lon="103.776138"><ele>2076.7</ele><time>2011-04-23T23:33:08.0000000+00:00</time></trkpt><trkpt lat="22.33901" lon="103.776176"><ele>2079.3</ele><time>2011-04-23T23:33:13.0000000+00:00</time></trkpt><trkpt lat="22.339003" lon="103.776169"><ele>2080.4</ele><time>2011-04-23T23:33:18.0000000+00:00</time></trkpt><trkpt lat="22.339001" lon="103.776176"><ele>2081.9</ele><time>2011-04-23T23:33:23.0000000+00:00</time></trkpt><trkpt lat="22.338989" lon="103.776184"><ele>2082.7</ele><time>2011-04-23T23:33:28.0000000+00:00</time></trkpt><trkpt lat="22.338993" lon="103.776169"><ele>2082.3</ele><time>2011-04-23T23:33:33.0000000+00:00</time></trkpt><trkpt lat="22.338993" lon="103.776169"><ele>2083.2</ele><time>2011-04-23T23:33:38.0000000+00:00</time></trkpt><trkpt lat="22.338985" lon="103.776237"><ele>2083.9</ele><time>2011-04-23T23:33:43.0000000+00:00</time></trkpt><trkpt lat="22.33898" lon="103.776291"><ele>2085.5</ele><time>2011-04-23T23:33:48.0000000+00:00</time></trkpt><trkpt lat="22.338928" lon="103.776321"><ele>2086.2</ele><time>2011-04-23T23:33:53.0000000+00:00</time></trkpt><trkpt lat="22.338902" lon="103.776337"><ele>2086.7</ele><time>2011-04-23T23:33:58.0000000+00:00</time></trkpt><trkpt lat="22.338911" lon="103.776382"><ele>2089.0</ele><time>2011-04-23T23:34:03.0000000+00:00</time></trkpt><trkpt lat="22.338882" lon="103.776459"><ele>2091.8</ele><time>2011-04-23T23:34:08.0000000+00:00</time></trkpt><trkpt lat="22.338858" lon="103.776505"><ele>2094.2</ele><time>2011-04-23T23:34:13.0000000+00:00</time></trkpt><trkpt lat="22.338848" lon="103.776535"><ele>2095.7</ele><time>2011-04-23T23:34:18.0000000+00:00</time></trkpt><trkpt lat="22.338823" lon="103.776558"><ele>2096.7</ele><time>2011-04-23T23:34:23.0000000+00:00</time></trkpt><trkpt lat="22.338789" lon="103.776588"><ele>2097.8</ele><time>2011-04-23T23:34:28.0000000+00:00</time></trkpt><trkpt lat="22.338774" lon="103.776619"><ele>2097.3</ele><time>2011-04-23T23:34:33.0000000+00:00</time></trkpt><trkpt lat="22.338749" lon="103.776619"><ele>2097.3</ele><time>2011-04-23T23:34:38.0000000+00:00</time></trkpt><trkpt lat="22.338715" lon="103.776604"><ele>2098.5</ele><time>2011-04-23T23:34:43.0000000+00:00</time></trkpt><trkpt lat="22.338673" lon="103.776634"><ele>2100.1</ele><time>2011-04-23T23:34:48.0000000+00:00</time></trkpt><trkpt lat="22.338642" lon="103.776703"><ele>2100.3</ele><time>2011-04-23T23:34:53.0000000+00:00</time></trkpt><trkpt lat="22.338634" lon="103.776726"><ele>2101.6</ele><time>2011-04-23T23:34:58.0000000+00:00</time></trkpt><trkpt lat="22.338602" lon="103.776741"><ele>2103.0</ele><time>2011-04-23T23:35:03.0000000+00:00</time></trkpt><trkpt lat="22.33857" lon="103.776779"><ele>2103.7</ele><time>2011-04-23T23:35:08.0000000+00:00</time></trkpt><trkpt lat="22.338541" lon="103.776817"><ele>2104.8</ele><time>2011-04-23T23:35:13.0000000+00:00</time></trkpt><trkpt lat="22.338533" lon="103.77681"><ele>2105.4</ele><time>2011-04-23T23:35:18.0000000+00:00</time></trkpt><trkpt lat="22.338549" lon="103.776794"><ele>2105.6</ele><time>2011-04-23T23:35:23.0000000+00:00</time></trkpt><trkpt lat="22.338516" lon="103.776787"><ele>2105.8</ele><time>2011-04-23T23:35:28.0000000+00:00</time></trkpt><trkpt lat="22.338522" lon="103.776779"><ele>2105.7</ele><time>2011-04-23T23:35:33.0000000+00:00</time></trkpt><trkpt lat="22.338497" lon="103.776779"><ele>2105.7</ele><time>2011-04-23T23:35:38.0000000+00:00</time></trkpt><trkpt lat="22.338459" lon="103.77681"><ele>2106.0</ele><time>2011-04-23T23:35:43.0000000+00:00</time></trkpt><trkpt lat="22.338428" lon="103.776825"><ele>2106.9</ele><time>2011-04-23T23:35:48.0000000+00:00</time></trkpt><trkpt lat="22.338383" lon="103.77684"><ele>2107.7</ele><time>2011-04-23T23:35:53.0000000+00:00</time></trkpt><trkpt lat="22.33836" lon="103.776917"><ele>2108.3</ele><time>2011-04-23T23:35:58.0000000+00:00</time></trkpt><trkpt lat="22.338348" lon="103.77697"><ele>2109.0</ele><time>2011-04-23T23:36:03.0000000+00:00</time></trkpt><trkpt lat="22.33835" lon="103.777046"><ele>2108.7</ele><time>2011-04-23T23:36:08.0000000+00:00</time></trkpt><trkpt lat="22.338358" lon="103.777145"><ele>2109.0</ele><time>2011-04-23T23:36:13.0000000+00:00</time></trkpt><trkpt lat="22.338327" lon="103.777168"><ele>2108.0</ele><time>2011-04-23T23:36:18.0000000+00:00</time></trkpt><trkpt lat="22.338251" lon="103.77726"><ele>2108.7</ele><time>2011-04-23T23:36:23.0000000+00:00</time></trkpt><trkpt lat="22.338247" lon="103.777313"><ele>2109.3</ele><time>2011-04-23T23:36:28.0000000+00:00</time></trkpt><trkpt lat="22.338228" lon="103.777382"><ele>2110.5</ele><time>2011-04-23T23:36:33.0000000+00:00</time></trkpt><trkpt lat="22.338234" lon="103.777435"><ele>2111.6</ele><time>2011-04-23T23:36:38.0000000+00:00</time></trkpt><trkpt lat="22.338165" lon="103.777489"><ele>2112.7</ele><time>2011-04-23T23:36:43.0000000+00:00</time></trkpt><trkpt lat="22.338133" lon="103.777542"><ele>2113.3</ele><time>2011-04-23T23:36:48.0000000+00:00</time></trkpt><trkpt lat="22.338123" lon="103.77758"><ele>2112.8</ele><time>2011-04-23T23:36:53.0000000+00:00</time></trkpt><trkpt lat="22.338123" lon="103.777664"><ele>2111.2</ele><time>2011-04-23T23:36:58.0000000+00:00</time></trkpt><trkpt lat="22.338104" lon="103.777695"><ele>2109.5</ele><time>2011-04-23T23:37:03.0000000+00:00</time></trkpt><trkpt lat="22.338093" lon="103.77774"><ele>2109.2</ele><time>2011-04-23T23:37:08.0000000+00:00</time></trkpt><trkpt lat="22.338087" lon="103.777779"><ele>2105.1</ele><time>2011-04-23T23:37:13.0000000+00:00</time></trkpt><trkpt lat="22.338074" lon="103.777809"><ele>2104.3</ele><time>2011-04-23T23:37:18.0000000+00:00</time></trkpt><trkpt lat="22.338074" lon="103.777809"><ele>2104.8</ele><time>2011-04-23T23:37:23.0000000+00:00</time></trkpt><trkpt lat="22.338064" lon="103.777809"><ele>2104.4</ele><time>2011-04-23T23:37:28.0000000+00:00</time></trkpt><trkpt lat="22.338058" lon="103.777817"><ele>2100.9</ele><time>2011-04-23T23:37:33.0000000+00:00</time></trkpt><trkpt lat="22.33807" lon="103.777855"><ele>2100.5</ele><time>2011-04-23T23:37:38.0000000+00:00</time></trkpt><trkpt lat="22.338112" lon="103.777908"><ele>2100.6</ele><time>2011-04-23T23:37:43.0000000+00:00</time></trkpt><trkpt lat="22.338133" lon="103.777962"><ele>2101.7</ele><time>2011-04-23T23:37:48.0000000+00:00</time></trkpt><trkpt lat="22.338179" lon="103.778023"><ele>2102.1</ele><time>2011-04-23T23:37:53.0000000+00:00</time></trkpt><trkpt lat="22.338202" lon="103.778076"><ele>2102.6</ele><time>2011-04-23T23:37:58.0000000+00:00</time></trkpt><trkpt lat="22.338236" lon="103.778145"><ele>2100.0</ele><time>2011-04-23T23:38:03.0000000+00:00</time></trkpt><trkpt lat="22.338228" lon="103.778183"><ele>2099.8</ele><time>2011-04-23T23:38:08.0000000+00:00</time></trkpt><trkpt lat="22.338221" lon="103.778214"><ele>2100.4</ele><time>2011-04-23T23:38:13.0000000+00:00</time></trkpt><trkpt lat="22.338198" lon="103.778282"><ele>2099.3</ele><time>2011-04-23T23:38:18.0000000+00:00</time></trkpt><trkpt lat="22.338184" lon="103.77832"><ele>2100.8</ele><time>2011-04-23T23:38:23.0000000+00:00</time></trkpt><trkpt lat="22.338179" lon="103.778366"><ele>2101.5</ele><time>2011-04-23T23:38:28.0000000+00:00</time></trkpt><trkpt lat="22.338156" lon="103.778427"><ele>2102.6</ele><time>2011-04-23T23:38:33.0000000+00:00</time></trkpt><trkpt lat="22.338131" lon="103.778481"><ele>2102.8</ele><time>2011-04-23T23:38:38.0000000+00:00</time></trkpt><trkpt lat="22.338087" lon="103.778496"><ele>2103.8</ele><time>2011-04-23T23:38:43.0000000+00:00</time></trkpt><trkpt lat="22.338039" lon="103.778534"><ele>2104.6</ele><time>2011-04-23T23:38:48.0000000+00:00</time></trkpt><trkpt lat="22.338007" lon="103.778572"><ele>2103.3</ele><time>2011-04-23T23:38:53.0000000+00:00</time></trkpt><trkpt lat="22.337957" lon="103.778603"><ele>2103.6</ele><time>2011-04-23T23:38:58.0000000+00:00</time></trkpt><trkpt lat="22.337906" lon="103.778587"><ele>2105.0</ele><time>2011-04-23T23:39:03.0000000+00:00</time></trkpt><trkpt lat="22.337879" lon="103.778625"><ele>2105.7</ele><time>2011-04-23T23:39:08.0000000+00:00</time></trkpt><trkpt lat="22.337858" lon="103.778679"><ele>2107.2</ele><time>2011-04-23T23:39:13.0000000+00:00</time></trkpt><trkpt lat="22.337837" lon="103.778717"><ele>2108.8</ele><time>2011-04-23T23:39:18.0000000+00:00</time></trkpt><trkpt lat="22.337814" lon="103.778755"><ele>2108.6</ele><time>2011-04-23T23:39:23.0000000+00:00</time></trkpt><trkpt lat="22.33778" lon="103.778786"><ele>2109.7</ele><time>2011-04-23T23:39:28.0000000+00:00</time></trkpt><trkpt lat="22.337719" lon="103.778839"><ele>2110.9</ele><time>2011-04-23T23:39:33.0000000+00:00</time></trkpt><trkpt lat="22.337704" lon="103.778885"><ele>2113.3</ele><time>2011-04-23T23:39:38.0000000+00:00</time></trkpt><trkpt lat="22.337704" lon="103.778938"><ele>2115.2</ele><time>2011-04-23T23:39:43.0000000+00:00</time></trkpt><trkpt lat="22.337673" lon="103.778992"><ele>2113.7</ele><time>2011-04-23T23:39:48.0000000+00:00</time></trkpt><trkpt lat="22.337639" lon="103.77903"><ele>2112.7</ele><time>2011-04-23T23:39:53.0000000+00:00</time></trkpt><trkpt lat="22.337626" lon="103.77906"><ele>2111.7</ele><time>2011-04-23T23:39:58.0000000+00:00</time></trkpt><trkpt lat="22.337626" lon="103.779121"><ele>2106.3</ele><time>2011-04-23T23:40:03.0000000+00:00</time></trkpt><trkpt lat="22.337618" lon="103.779182"><ele>2106.3</ele><time>2011-04-23T23:40:08.0000000+00:00</time></trkpt><trkpt lat="22.337595" lon="103.779243"><ele>2102.2</ele><time>2011-04-23T23:40:13.0000000+00:00</time></trkpt><trkpt lat="22.337584" lon="103.779297"><ele>2100.7</ele><time>2011-04-23T23:40:18.0000000+00:00</time></trkpt><trkpt lat="22.337564" lon="103.779358"><ele>2098.1</ele><time>2011-04-23T23:40:23.0000000+00:00</time></trkpt><trkpt lat="22.337515" lon="103.779404"><ele>2094.2</ele><time>2011-04-23T23:40:28.0000000+00:00</time></trkpt><trkpt lat="22.337477" lon="103.779449"><ele>2090.0</ele><time>2011-04-23T23:40:33.0000000+00:00</time></trkpt><trkpt lat="22.337431" lon="103.779472"><ele>2084.5</ele><time>2011-04-23T23:40:38.0000000+00:00</time></trkpt><trkpt lat="22.337368" lon="103.779465"><ele>2080.5</ele><time>2011-04-23T23:40:43.0000000+00:00</time></trkpt><trkpt lat="22.337313" lon="103.779449"><ele>2079.4</ele><time>2011-04-23T23:40:48.0000000+00:00</time></trkpt><trkpt lat="22.33728" lon="103.779472"><ele>2077.8</ele><time>2011-04-23T23:40:53.0000000+00:00</time></trkpt><trkpt lat="22.337233" lon="103.779488"><ele>2077.7</ele><time>2011-04-23T23:40:58.0000000+00:00</time></trkpt><trkpt lat="22.337185" lon="103.77948"><ele>2078.3</ele><time>2011-04-23T23:41:03.0000000+00:00</time></trkpt><trkpt lat="22.337156" lon="103.77948"><ele>2079.3</ele><time>2011-04-23T23:41:08.0000000+00:00</time></trkpt><trkpt lat="22.337139" lon="103.779495"><ele>2080.3</ele><time>2011-04-23T23:41:13.0000000+00:00</time></trkpt><trkpt lat="22.337112" lon="103.779541"><ele>2081.3</ele><time>2011-04-23T23:41:18.0000000+00:00</time></trkpt><trkpt lat="22.337059" lon="103.779533"><ele>2082.3</ele><time>2011-04-23T23:41:23.0000000+00:00</time></trkpt><trkpt lat="22.336996" lon="103.779503"><ele>2082.6</ele><time>2011-04-23T23:41:28.0000000+00:00</time></trkpt><trkpt lat="22.336946" lon="103.779549"><ele>2083.0</ele><time>2011-04-23T23:41:33.0000000+00:00</time></trkpt><trkpt lat="22.336903" lon="103.779556"><ele>2082.2</ele><time>2011-04-23T23:41:38.0000000+00:00</time></trkpt><trkpt lat="22.336901" lon="103.779579"><ele>2081.9</ele><time>2011-04-23T23:41:43.0000000+00:00</time></trkpt><trkpt lat="22.336893" lon="103.779579"><ele>2080.3</ele><time>2011-04-23T23:41:48.0000000+00:00</time></trkpt><trkpt lat="22.336897" lon="103.779625"><ele>2079.2</ele><time>2011-04-23T23:41:53.0000000+00:00</time></trkpt><trkpt lat="22.336872" lon="103.779633"><ele>2077.2</ele><time>2011-04-23T23:41:58.0000000+00:00</time></trkpt><trkpt lat="22.336815" lon="103.779678"><ele>2076.0</ele><time>2011-04-23T23:42:03.0000000+00:00</time></trkpt><trkpt lat="22.336756" lon="103.779678"><ele>2075.1</ele><time>2011-04-23T23:42:08.0000000+00:00</time></trkpt><trkpt lat="22.336691" lon="103.779709"><ele>2073.2</ele><time>2011-04-23T23:42:13.0000000+00:00</time></trkpt><trkpt lat="22.336634" lon="103.779724"><ele>2072.4</ele><time>2011-04-23T23:42:18.0000000+00:00</time></trkpt><trkpt lat="22.336578" lon="103.779739"><ele>2071.2</ele><time>2011-04-23T23:42:23.0000000+00:00</time></trkpt><trkpt lat="22.336523" lon="103.779747"><ele>2069.5</ele><time>2011-04-23T23:42:28.0000000+00:00</time></trkpt><trkpt lat="22.336458" lon="103.779755"><ele>2067.9</ele><time>2011-04-23T23:42:33.0000000+00:00</time></trkpt><trkpt lat="22.336409" lon="103.779762"><ele>2067.1</ele><time>2011-04-23T23:42:38.0000000+00:00</time></trkpt><trkpt lat="22.336374" lon="103.779747"><ele>2066.3</ele><time>2011-04-23T23:42:43.0000000+00:00</time></trkpt><trkpt lat="22.336329" lon="103.779732"><ele>2065.2</ele><time>2011-04-23T23:42:48.0000000+00:00</time></trkpt><trkpt lat="22.336283" lon="103.779716"><ele>2063.7</ele><time>2011-04-23T23:42:53.0000000+00:00</time></trkpt><trkpt lat="22.336235" lon="103.779678"><ele>2063.1</ele><time>2011-04-23T23:42:58.0000000+00:00</time></trkpt><trkpt lat="22.336184" lon="103.779694"><ele>2062.8</ele><time>2011-04-23T23:43:03.0000000+00:00</time></trkpt><trkpt lat="22.336142" lon="103.779701"><ele>2061.5</ele><time>2011-04-23T23:43:08.0000000+00:00</time></trkpt><trkpt lat="22.336103" lon="103.779701"><ele>2061.1</ele><time>2011-04-23T23:43:13.0000000+00:00</time></trkpt><trkpt lat="22.336063" lon="103.779663"><ele>2061.0</ele><time>2011-04-23T23:43:18.0000000+00:00</time></trkpt><trkpt lat="22.336033" lon="103.779633"><ele>2061.2</ele><time>2011-04-23T23:43:23.0000000+00:00</time></trkpt><trkpt lat="22.335978" lon="103.779594"><ele>2062.2</ele><time>2011-04-23T23:43:28.0000000+00:00</time></trkpt><trkpt lat="22.335938" lon="103.779556"><ele>2063.0</ele><time>2011-04-23T23:43:33.0000000+00:00</time></trkpt><trkpt lat="22.335884" lon="103.779541"><ele>2063.8</ele><time>2011-04-23T23:43:38.0000000+00:00</time></trkpt><trkpt lat="22.335831" lon="103.779594"><ele>2064.8</ele><time>2011-04-23T23:43:43.0000000+00:00</time></trkpt><trkpt lat="22.335768" lon="103.779564"><ele>2064.8</ele><time>2011-04-23T23:43:48.0000000+00:00</time></trkpt><trkpt lat="22.335745" lon="103.779602"><ele>2065.9</ele><time>2011-04-23T23:43:53.0000000+00:00</time></trkpt><trkpt lat="22.335705" lon="103.779633"><ele>2066.3</ele><time>2011-04-23T23:43:58.0000000+00:00</time></trkpt><trkpt lat="22.335669" lon="103.779663"><ele>2068.2</ele><time>2011-04-23T23:44:03.0000000+00:00</time></trkpt><trkpt lat="22.335623" lon="103.779648"><ele>2069.8</ele><time>2011-04-23T23:44:08.0000000+00:00</time></trkpt><trkpt lat="22.335581" lon="103.779671"><ele>2071.2</ele><time>2011-04-23T23:44:13.0000000+00:00</time></trkpt><trkpt lat="22.335524" lon="103.779686"><ele>2072.8</ele><time>2011-04-23T23:44:18.0000000+00:00</time></trkpt><trkpt lat="22.335445" lon="103.779663"><ele>2073.2</ele><time>2011-04-23T23:44:23.0000000+00:00</time></trkpt><trkpt lat="22.335411" lon="103.779625"><ele>2073.8</ele><time>2011-04-23T23:44:28.0000000+00:00</time></trkpt><trkpt lat="22.335367" lon="103.779587"><ele>2072.3</ele><time>2011-04-23T23:44:33.0000000+00:00</time></trkpt><trkpt lat="22.335318" lon="103.779572"><ele>2071.3</ele><time>2011-04-23T23:44:38.0000000+00:00</time></trkpt><trkpt lat="22.335279" lon="103.779549"><ele>2071.7</ele><time>2011-04-23T23:44:43.0000000+00:00</time></trkpt><trkpt lat="22.335243" lon="103.77951"><ele>2070.8</ele><time>2011-04-23T23:44:48.0000000+00:00</time></trkpt><trkpt lat="22.335194" lon="103.779495"><ele>2071.0</ele><time>2011-04-23T23:44:53.0000000+00:00</time></trkpt><trkpt lat="22.335178" lon="103.779465"><ele>2070.0</ele><time>2011-04-23T23:44:58.0000000+00:00</time></trkpt><trkpt lat="22.335167" lon="103.779457"><ele>2068.4</ele><time>2011-04-23T23:45:03.0000000+00:00</time></trkpt><trkpt lat="22.335169" lon="103.779457"><ele>2068.3</ele><time>2011-04-23T23:45:08.0000000+00:00</time></trkpt><trkpt lat="22.335165" lon="103.779442"><ele>2068.5</ele><time>2011-04-23T23:45:13.0000000+00:00</time></trkpt><trkpt lat="22.335165" lon="103.779442"><ele>2068.7</ele><time>2011-04-23T23:45:18.0000000+00:00</time></trkpt><trkpt lat="22.335163" lon="103.779442"><ele>2068.8</ele><time>2011-04-23T23:45:23.0000000+00:00</time></trkpt><trkpt lat="22.335163" lon="103.779442"><ele>2068.9</ele><time>2011-04-23T23:45:28.0000000+00:00</time></trkpt><trkpt lat="22.335163" lon="103.779442"><ele>2068.8</ele><time>2011-04-23T23:45:33.0000000+00:00</time></trkpt><trkpt lat="22.335163" lon="103.779442"><ele>2068.8</ele><time>2011-04-23T23:45:38.0000000+00:00</time></trkpt><trkpt lat="22.335163" lon="103.779442"><ele>2068.8</ele><time>2011-04-23T23:45:43.0000000+00:00</time></trkpt><trkpt lat="22.335163" lon="103.779442"><ele>2068.8</ele><time>2011-04-23T23:45:48.0000000+00:00</time></trkpt><trkpt lat="22.335163" lon="103.779442"><ele>2068.8</ele><time>2011-04-23T23:45:53.0000000+00:00</time></trkpt><trkpt lat="22.335163" lon="103.779434"><ele>2068.8</ele><time>2011-04-23T23:45:58.0000000+00:00</time></trkpt><trkpt lat="22.335163" lon="103.779434"><ele>2068.8</ele><time>2011-04-23T23:46:03.0000000+00:00</time></trkpt><trkpt lat="22.335165" lon="103.779442"><ele>2068.8</ele><time>2011-04-23T23:46:08.0000000+00:00</time></trkpt><trkpt lat="22.335169" lon="103.779449"><ele>2068.8</ele><time>2011-04-23T23:46:13.0000000+00:00</time></trkpt><trkpt lat="22.335169" lon="103.779449"><ele>2068.7</ele><time>2011-04-23T23:46:18.0000000+00:00</time></trkpt><trkpt lat="22.335173" lon="103.779442"><ele>2068.6</ele><time>2011-04-23T23:46:23.0000000+00:00</time></trkpt><trkpt lat="22.335173" lon="103.779442"><ele>2068.5</ele><time>2011-04-23T23:46:28.0000000+00:00</time></trkpt><trkpt lat="22.335173" lon="103.779442"><ele>2068.5</ele><time>2011-04-23T23:46:33.0000000+00:00</time></trkpt><trkpt lat="22.335173" lon="103.779442"><ele>2068.5</ele><time>2011-04-23T23:46:38.0000000+00:00</time></trkpt><trkpt lat="22.335173" lon="103.779442"><ele>2068.4</ele><time>2011-04-23T23:46:43.0000000+00:00</time></trkpt><trkpt lat="22.335173" lon="103.779442"><ele>2068.4</ele><time>2011-04-23T23:46:48.0000000+00:00</time></trkpt><trkpt lat="22.335173" lon="103.779442"><ele>2068.4</ele><time>2011-04-23T23:46:53.0000000+00:00</time></trkpt><trkpt lat="22.335173" lon="103.779442"><ele>2068.5</ele><time>2011-04-23T23:46:58.0000000+00:00</time></trkpt><trkpt lat="22.335173" lon="103.779442"><ele>2068.5</ele><time>2011-04-23T23:47:03.0000000+00:00</time></trkpt><trkpt lat="22.335173" lon="103.779442"><ele>2068.5</ele><time>2011-04-23T23:47:08.0000000+00:00</time></trkpt><trkpt lat="22.335173" lon="103.779442"><ele>2068.5</ele><time>2011-04-23T23:47:13.0000000+00:00</time></trkpt><trkpt lat="22.335173" lon="103.779442"><ele>2068.6</ele><time>2011-04-23T23:47:18.0000000+00:00</time></trkpt><trkpt lat="22.335173" lon="103.779442"><ele>2068.6</ele><time>2011-04-23T23:47:23.0000000+00:00</time></trkpt><trkpt lat="22.335173" lon="103.779442"><ele>2068.5</ele><time>2011-04-23T23:47:28.0000000+00:00</time></trkpt><trkpt lat="22.335171" lon="103.779442"><ele>2068.5</ele><time>2011-04-23T23:47:33.0000000+00:00</time></trkpt><trkpt lat="22.335169" lon="103.779449"><ele>2068.5</ele><time>2011-04-23T23:47:38.0000000+00:00</time></trkpt><trkpt lat="22.335169" lon="103.779449"><ele>2068.5</ele><time>2011-04-23T23:47:43.0000000+00:00</time></trkpt><trkpt lat="22.335169" lon="103.779449"><ele>2068.5</ele><time>2011-04-23T23:47:48.0000000+00:00</time></trkpt><trkpt lat="22.335169" lon="103.779449"><ele>2068.4</ele><time>2011-04-23T23:47:53.0000000+00:00</time></trkpt><trkpt lat="22.335169" lon="103.779449"><ele>2068.4</ele><time>2011-04-23T23:47:58.0000000+00:00</time></trkpt><trkpt lat="22.335169" lon="103.779449"><ele>2068.3</ele><time>2011-04-23T23:48:03.0000000+00:00</time></trkpt><trkpt lat="22.335169" lon="103.779449"><ele>2068.3</ele><time>2011-04-23T23:48:08.0000000+00:00</time></trkpt><trkpt lat="22.335169" lon="103.779449"><ele>2068.3</ele><time>2011-04-23T23:48:13.0000000+00:00</time></trkpt><trkpt lat="22.335169" lon="103.779449"><ele>2068.3</ele><time>2011-04-23T23:48:18.0000000+00:00</time></trkpt><trkpt lat="22.335167" lon="103.779449"><ele>2068.3</ele><time>2011-04-23T23:48:23.0000000+00:00</time></trkpt><trkpt lat="22.335167" lon="103.779449"><ele>2068.2</ele><time>2011-04-23T23:48:28.0000000+00:00</time></trkpt><trkpt lat="22.335167" lon="103.779449"><ele>2068.2</ele><time>2011-04-23T23:48:33.0000000+00:00</time></trkpt><trkpt lat="22.335171" lon="103.779449"><ele>2068.2</ele><time>2011-04-23T23:48:38.0000000+00:00</time></trkpt><trkpt lat="22.335173" lon="103.779442"><ele>2068.2</ele><time>2011-04-23T23:48:43.0000000+00:00</time></trkpt><trkpt lat="22.335176" lon="103.779442"><ele>2068.1</ele><time>2011-04-23T23:48:48.0000000+00:00</time></trkpt><trkpt lat="22.33518" lon="103.779442"><ele>2068.1</ele><time>2011-04-23T23:48:53.0000000+00:00</time></trkpt><trkpt lat="22.33518" lon="103.779442"><ele>2068.0</ele><time>2011-04-23T23:48:58.0000000+00:00</time></trkpt><trkpt lat="22.335178" lon="103.779442"><ele>2068.0</ele><time>2011-04-23T23:49:03.0000000+00:00</time></trkpt><trkpt lat="22.335178" lon="103.779434"><ele>2067.8</ele><time>2011-04-23T23:49:08.0000000+00:00</time></trkpt><trkpt lat="22.335176" lon="103.779434"><ele>2067.7</ele><time>2011-04-23T23:49:13.0000000+00:00</time></trkpt><trkpt lat="22.335173" lon="103.779434"><ele>2067.7</ele><time>2011-04-23T23:49:18.0000000+00:00</time></trkpt><trkpt lat="22.335173" lon="103.779434"><ele>2067.7</ele><time>2011-04-23T23:49:23.0000000+00:00</time></trkpt><trkpt lat="22.335173" lon="103.779434"><ele>2067.7</ele><time>2011-04-23T23:49:28.0000000+00:00</time></trkpt><trkpt lat="22.335173" lon="103.779434"><ele>2067.7</ele><time>2011-04-23T23:49:33.0000000+00:00</time></trkpt><trkpt lat="22.335173" lon="103.779434"><ele>2067.7</ele><time>2011-04-23T23:49:38.0000000+00:00</time></trkpt><trkpt lat="22.335173" lon="103.779434"><ele>2067.8</ele><time>2011-04-23T23:49:43.0000000+00:00</time></trkpt><trkpt lat="22.335173" lon="103.779434"><ele>2067.8</ele><time>2011-04-23T23:49:48.0000000+00:00</time></trkpt><trkpt lat="22.335173" lon="103.779434"><ele>2067.8</ele><time>2011-04-23T23:49:53.0000000+00:00</time></trkpt><trkpt lat="22.335173" lon="103.779434"><ele>2067.8</ele><time>2011-04-23T23:49:58.0000000+00:00</time></trkpt><trkpt lat="22.335173" lon="103.779434"><ele>2067.8</ele><time>2011-04-23T23:50:03.0000000+00:00</time></trkpt><trkpt lat="22.335171" lon="103.779427"><ele>2067.8</ele><time>2011-04-23T23:50:08.0000000+00:00</time></trkpt><trkpt lat="22.335169" lon="103.779427"><ele>2067.8</ele><time>2011-04-23T23:50:13.0000000+00:00</time></trkpt><trkpt lat="22.335167" lon="103.779419"><ele>2067.8</ele><time>2011-04-23T23:50:18.0000000+00:00</time></trkpt><trkpt lat="22.335165" lon="103.779411"><ele>2067.8</ele><time>2011-04-23T23:50:23.0000000+00:00</time></trkpt><trkpt lat="22.335165" lon="103.779411"><ele>2067.7</ele><time>2011-04-23T23:50:28.0000000+00:00</time></trkpt><trkpt lat="22.335161" lon="103.779419"><ele>2067.7</ele><time>2011-04-23T23:50:33.0000000+00:00</time></trkpt><trkpt lat="22.335157" lon="103.779427"><ele>2068.2</ele><time>2011-04-23T23:50:38.0000000+00:00</time></trkpt><trkpt lat="22.335152" lon="103.779427"><ele>2067.5</ele><time>2011-04-23T23:50:43.0000000+00:00</time></trkpt><trkpt lat="22.335104" lon="103.779388"><ele>2067.8</ele><time>2011-04-23T23:50:48.0000000+00:00</time></trkpt><trkpt lat="22.335054" lon="103.779358"><ele>2068.3</ele><time>2011-04-23T23:50:53.0000000+00:00</time></trkpt><trkpt lat="22.335026" lon="103.779297"><ele>2068.2</ele><time>2011-04-23T23:50:58.0000000+00:00</time></trkpt><trkpt lat="22.33499" lon="103.779282"><ele>2066.9</ele><time>2011-04-23T23:51:03.0000000+00:00</time></trkpt><trkpt lat="22.33498" lon="103.779274"><ele>2066.7</ele><time>2011-04-23T23:51:08.0000000+00:00</time></trkpt><trkpt lat="22.334978" lon="103.779266"><ele>2066.1</ele><time>2011-04-23T23:51:13.0000000+00:00</time></trkpt><trkpt lat="22.33498" lon="103.779266"><ele>2066.2</ele><time>2011-04-23T23:51:18.0000000+00:00</time></trkpt><trkpt lat="22.334982" lon="103.779266"><ele>2066.1</ele><time>2011-04-23T23:51:23.0000000+00:00</time></trkpt><trkpt lat="22.33498" lon="103.779259"><ele>2066.2</ele><time>2011-04-23T23:51:28.0000000+00:00</time></trkpt><trkpt lat="22.334974" lon="103.779243"><ele>2066.0</ele><time>2011-04-23T23:51:33.0000000+00:00</time></trkpt><trkpt lat="22.334925" lon="103.779221"><ele>2066.1</ele><time>2011-04-23T23:51:38.0000000+00:00</time></trkpt><trkpt lat="22.334888" lon="103.779205"><ele>2066.8</ele><time>2011-04-23T23:51:43.0000000+00:00</time></trkpt><trkpt lat="22.334867" lon="103.77919"><ele>2066.8</ele><time>2011-04-23T23:51:48.0000000+00:00</time></trkpt><trkpt lat="22.334845" lon="103.779167"><ele>2066.8</ele><time>2011-04-23T23:51:53.0000000+00:00</time></trkpt><trkpt lat="22.334818" lon="103.779121"><ele>2067.2</ele><time>2011-04-23T23:51:58.0000000+00:00</time></trkpt><trkpt lat="22.334764" lon="103.779083"><ele>2067.8</ele><time>2011-04-23T23:52:03.0000000+00:00</time></trkpt><trkpt lat="22.334713" lon="103.779053"><ele>2068.4</ele><time>2011-04-23T23:52:08.0000000+00:00</time></trkpt><trkpt lat="22.334663" lon="103.77903"><ele>2069.1</ele><time>2011-04-23T23:52:13.0000000+00:00</time></trkpt><trkpt lat="22.334616" lon="103.779022"><ele>2070.3</ele><time>2011-04-23T23:52:18.0000000+00:00</time></trkpt><trkpt lat="22.334595" lon="103.779007"><ele>2071.2</ele><time>2011-04-23T23:52:23.0000000+00:00</time></trkpt><trkpt lat="22.334583" lon="103.778984"><ele>2072.0</ele><time>2011-04-23T23:52:28.0000000+00:00</time></trkpt><trkpt lat="22.334553" lon="103.779022"><ele>2072.8</ele><time>2011-04-23T23:52:33.0000000+00:00</time></trkpt><trkpt lat="22.334515" lon="103.77903"><ele>2073.4</ele><time>2011-04-23T23:52:38.0000000+00:00</time></trkpt><trkpt lat="22.334486" lon="103.778999"><ele>2074.1</ele><time>2011-04-23T23:52:43.0000000+00:00</time></trkpt><trkpt lat="22.334467" lon="103.779007"><ele>2075.2</ele><time>2011-04-23T23:52:48.0000000+00:00</time></trkpt><trkpt lat="22.334467" lon="103.778999"><ele>2075.7</ele><time>2011-04-23T23:52:53.0000000+00:00</time></trkpt><trkpt lat="22.334448" lon="103.778999"><ele>2076.5</ele><time>2011-04-23T23:52:58.0000000+00:00</time></trkpt><trkpt lat="22.334421" lon="103.778992"><ele>2077.0</ele><time>2011-04-23T23:53:03.0000000+00:00</time></trkpt><trkpt lat="22.334389" lon="103.778976"><ele>2077.7</ele><time>2011-04-23T23:53:08.0000000+00:00</time></trkpt><trkpt lat="22.33436" lon="103.778976"><ele>2078.1</ele><time>2011-04-23T23:53:13.0000000+00:00</time></trkpt><trkpt lat="22.334332" lon="103.778984"><ele>2078.8</ele><time>2011-04-23T23:53:18.0000000+00:00</time></trkpt><trkpt lat="22.334318" lon="103.779007"><ele>2079.5</ele><time>2011-04-23T23:53:23.0000000+00:00</time></trkpt><trkpt lat="22.334299" lon="103.779076"><ele>2081.1</ele><time>2011-04-23T23:53:28.0000000+00:00</time></trkpt><trkpt lat="22.334259" lon="103.779091"><ele>2081.9</ele><time>2011-04-23T23:53:33.0000000+00:00</time></trkpt><trkpt lat="22.334269" lon="103.779106"><ele>2082.2</ele><time>2011-04-23T23:53:38.0000000+00:00</time></trkpt><trkpt lat="22.334278" lon="103.779106"><ele>2082.7</ele><time>2011-04-23T23:53:43.0000000+00:00</time></trkpt><trkpt lat="22.334278" lon="103.779099"><ele>2083.1</ele><time>2011-04-23T23:53:48.0000000+00:00</time></trkpt><trkpt lat="22.33429" lon="103.779114"><ele>2083.4</ele><time>2011-04-23T23:53:53.0000000+00:00</time></trkpt><trkpt lat="22.334297" lon="103.779114"><ele>2084.0</ele><time>2011-04-23T23:53:58.0000000+00:00</time></trkpt><trkpt lat="22.334305" lon="103.779121"><ele>2084.6</ele><time>2011-04-23T23:54:03.0000000+00:00</time></trkpt><trkpt lat="22.334305" lon="103.779129"><ele>2085.2</ele><time>2011-04-23T23:54:08.0000000+00:00</time></trkpt><trkpt lat="22.334305" lon="103.779144"><ele>2085.8</ele><time>2011-04-23T23:54:13.0000000+00:00</time></trkpt><trkpt lat="22.334282" lon="103.779175"><ele>2086.2</ele><time>2011-04-23T23:54:18.0000000+00:00</time></trkpt><trkpt lat="22.334255" lon="103.77919"><ele>2086.7</ele><time>2011-04-23T23:54:23.0000000+00:00</time></trkpt><trkpt lat="22.334242" lon="103.779205"><ele>2087.3</ele><time>2011-04-23T23:54:28.0000000+00:00</time></trkpt><trkpt lat="22.33423" lon="103.779228"><ele>2087.6</ele><time>2011-04-23T23:54:33.0000000+00:00</time></trkpt><trkpt lat="22.334221" lon="103.779236"><ele>2088.3</ele><time>2011-04-23T23:54:38.0000000+00:00</time></trkpt><trkpt lat="22.334221" lon="103.779266"><ele>2088.8</ele><time>2011-04-23T23:54:43.0000000+00:00</time></trkpt><trkpt lat="22.33423" lon="103.779297"><ele>2089.1</ele><time>2011-04-23T23:54:48.0000000+00:00</time></trkpt><trkpt lat="22.334257" lon="103.779312"><ele>2089.5</ele><time>2011-04-23T23:54:53.0000000+00:00</time></trkpt><trkpt lat="22.334251" lon="103.779327"><ele>2089.7</ele><time>2011-04-23T23:54:58.0000000+00:00</time></trkpt><trkpt lat="22.334263" lon="103.779373"><ele>2089.8</ele><time>2011-04-23T23:55:03.0000000+00:00</time></trkpt><trkpt lat="22.334249" lon="103.779419"><ele>2090.0</ele><time>2011-04-23T23:55:08.0000000+00:00</time></trkpt><trkpt lat="22.334255" lon="103.779434"><ele>2090.2</ele><time>2011-04-23T23:55:13.0000000+00:00</time></trkpt><trkpt lat="22.334269" lon="103.779427"><ele>2090.5</ele><time>2011-04-23T23:55:18.0000000+00:00</time></trkpt><trkpt lat="22.33428" lon="103.779427"><ele>2091.1</ele><time>2011-04-23T23:55:23.0000000+00:00</time></trkpt><trkpt lat="22.334288" lon="103.779427"><ele>2091.5</ele><time>2011-04-23T23:55:28.0000000+00:00</time></trkpt><trkpt lat="22.33428" lon="103.779434"><ele>2092.0</ele><time>2011-04-23T23:55:33.0000000+00:00</time></trkpt><trkpt lat="22.334288" lon="103.779427"><ele>2092.5</ele><time>2011-04-23T23:55:38.0000000+00:00</time></trkpt><trkpt lat="22.334297" lon="103.779449"><ele>2092.8</ele><time>2011-04-23T23:55:43.0000000+00:00</time></trkpt><trkpt lat="22.334343" lon="103.779495"><ele>2094.2</ele><time>2011-04-23T23:55:48.0000000+00:00</time></trkpt><trkpt lat="22.334351" lon="103.77951"><ele>2095.8</ele><time>2011-04-23T23:55:53.0000000+00:00</time></trkpt><trkpt lat="22.334356" lon="103.779556"><ele>2097.7</ele><time>2011-04-23T23:55:58.0000000+00:00</time></trkpt><trkpt lat="22.334358" lon="103.779587"><ele>2099.0</ele><time>2011-04-23T23:56:03.0000000+00:00</time></trkpt><trkpt lat="22.334354" lon="103.779602"><ele>2099.6</ele><time>2011-04-23T23:56:08.0000000+00:00</time></trkpt><trkpt lat="22.334351" lon="103.779617"><ele>2100.0</ele><time>2011-04-23T23:56:13.0000000+00:00</time></trkpt><trkpt lat="22.334345" lon="103.779617"><ele>2100.9</ele><time>2011-04-23T23:56:18.0000000+00:00</time></trkpt><trkpt lat="22.334347" lon="103.779648"><ele>2101.8</ele><time>2011-04-23T23:56:23.0000000+00:00</time></trkpt><trkpt lat="22.334356" lon="103.779671"><ele>2102.4</ele><time>2011-04-23T23:56:28.0000000+00:00</time></trkpt><trkpt lat="22.334354" lon="103.779686"><ele>2103.1</ele><time>2011-04-23T23:56:33.0000000+00:00</time></trkpt><trkpt lat="22.334341" lon="103.779701"><ele>2104.0</ele><time>2011-04-23T23:56:38.0000000+00:00</time></trkpt><trkpt lat="22.334328" lon="103.779694"><ele>2104.2</ele><time>2011-04-23T23:56:43.0000000+00:00</time></trkpt><trkpt lat="22.334314" lon="103.779686"><ele>2105.5</ele><time>2011-04-23T23:56:48.0000000+00:00</time></trkpt><trkpt lat="22.334295" lon="103.779694"><ele>2106.8</ele><time>2011-04-23T23:56:53.0000000+00:00</time></trkpt><trkpt lat="22.33429" lon="103.779716"><ele>2108.0</ele><time>2011-04-23T23:56:58.0000000+00:00</time></trkpt><trkpt lat="22.334284" lon="103.779747"><ele>2109.7</ele><time>2011-04-23T23:57:03.0000000+00:00</time></trkpt><trkpt lat="22.33427" lon="103.779755"><ele>2110.3</ele><time>2011-04-23T23:57:08.0000000+00:00</time></trkpt><trkpt lat="22.334255" lon="103.779755"><ele>2110.8</ele><time>2011-04-23T23:57:13.0000000+00:00</time></trkpt><trkpt lat="22.334227" lon="103.779747"><ele>2111.2</ele><time>2011-04-23T23:57:18.0000000+00:00</time></trkpt><trkpt lat="22.334188" lon="103.779747"><ele>2111.8</ele><time>2011-04-23T23:57:23.0000000+00:00</time></trkpt><trkpt lat="22.334156" lon="103.779724"><ele>2112.8</ele><time>2011-04-23T23:57:28.0000000+00:00</time></trkpt><trkpt lat="22.334145" lon="103.779701"><ele>2113.7</ele><time>2011-04-23T23:57:33.0000000+00:00</time></trkpt><trkpt lat="22.334135" lon="103.779709"><ele>2113.7</ele><time>2011-04-23T23:57:38.0000000+00:00</time></trkpt><trkpt lat="22.334114" lon="103.779724"><ele>2115.8</ele><time>2011-04-23T23:57:43.0000000+00:00</time></trkpt><trkpt lat="22.334087" lon="103.779732"><ele>2116.8</ele><time>2011-04-23T23:57:48.0000000+00:00</time></trkpt><trkpt lat="22.334068" lon="103.779755"><ele>2118.0</ele><time>2011-04-23T23:57:53.0000000+00:00</time></trkpt><trkpt lat="22.334053" lon="103.779755"><ele>2118.7</ele><time>2011-04-23T23:57:58.0000000+00:00</time></trkpt><trkpt lat="22.334019" lon="103.779755"><ele>2119.5</ele><time>2011-04-23T23:58:03.0000000+00:00</time></trkpt><trkpt lat="22.334003" lon="103.779762"><ele>2120.7</ele><time>2011-04-23T23:58:08.0000000+00:00</time></trkpt><trkpt lat="22.334003" lon="103.779755"><ele>2121.5</ele><time>2011-04-23T23:58:13.0000000+00:00</time></trkpt><trkpt lat="22.334055" lon="103.779778"><ele>2123.0</ele><time>2011-04-23T23:58:18.0000000+00:00</time></trkpt><trkpt lat="22.334087" lon="103.779785"><ele>2125.0</ele><time>2011-04-23T23:58:23.0000000+00:00</time></trkpt><trkpt lat="22.334076" lon="103.7798"><ele>2124.9</ele><time>2011-04-23T23:58:28.0000000+00:00</time></trkpt><trkpt lat="22.334057" lon="103.779808"><ele>2126.0</ele><time>2011-04-23T23:58:33.0000000+00:00</time></trkpt><trkpt lat="22.334044" lon="103.779823"><ele>2126.8</ele><time>2011-04-23T23:58:38.0000000+00:00</time></trkpt><trkpt lat="22.334051" lon="103.779839"><ele>2128.2</ele><time>2011-04-23T23:58:43.0000000+00:00</time></trkpt><trkpt lat="22.334045" lon="103.779854"><ele>2129.3</ele><time>2011-04-23T23:58:48.0000000+00:00</time></trkpt><trkpt lat="22.334019" lon="103.779869"><ele>2130.8</ele><time>2011-04-23T23:58:53.0000000+00:00</time></trkpt><trkpt lat="22.333992" lon="103.779869"><ele>2132.2</ele><time>2011-04-23T23:58:58.0000000+00:00</time></trkpt><trkpt lat="22.333977" lon="103.779854"><ele>2133.0</ele><time>2011-04-23T23:59:03.0000000+00:00</time></trkpt><trkpt lat="22.333952" lon="103.779861"><ele>2134.3</ele><time>2011-04-23T23:59:08.0000000+00:00</time></trkpt><trkpt lat="22.333927" lon="103.779854"><ele>2135.4</ele><time>2011-04-23T23:59:13.0000000+00:00</time></trkpt><trkpt lat="22.333921" lon="103.779854"><ele>2137.0</ele><time>2011-04-23T23:59:18.0000000+00:00</time></trkpt><trkpt lat="22.333914" lon="103.779846"><ele>2138.2</ele><time>2011-04-23T23:59:23.0000000+00:00</time></trkpt><trkpt lat="22.333904" lon="103.779846"><ele>2138.2</ele><time>2011-04-23T23:59:28.0000000+00:00</time></trkpt><trkpt lat="22.333881" lon="103.779854"><ele>2139.7</ele><time>2011-04-23T23:59:33.0000000+00:00</time></trkpt><trkpt lat="22.33386" lon="103.779854"><ele>2140.9</ele><time>2011-04-23T23:59:38.0000000+00:00</time></trkpt><trkpt lat="22.333849" lon="103.779869"><ele>2142.3</ele><time>2011-04-23T23:59:43.0000000+00:00</time></trkpt><trkpt lat="22.333838" lon="103.779877"><ele>2144.3</ele><time>2011-04-23T23:59:48.0000000+00:00</time></trkpt><trkpt lat="22.333817" lon="103.779884"><ele>2145.0</ele><time>2011-04-23T23:59:53.0000000+00:00</time></trkpt><trkpt lat="22.333807" lon="103.779892"><ele>2147.1</ele><time>2011-04-23T23:59:58.0000000+00:00</time></trkpt><trkpt lat="22.333813" lon="103.779915"><ele>2148.9</ele><time>2011-04-24T00:00:03.0000000+00:00</time></trkpt><trkpt lat="22.333824" lon="103.779945"><ele>2150.4</ele><time>2011-04-24T00:00:08.0000000+00:00</time></trkpt><trkpt lat="22.333786" lon="103.779961"><ele>2149.5</ele><time>2011-04-24T00:00:13.0000000+00:00</time></trkpt><trkpt lat="22.333761" lon="103.779976"><ele>2148.7</ele><time>2011-04-24T00:00:18.0000000+00:00</time></trkpt><trkpt lat="22.333714" lon="103.779976"><ele>2148.2</ele><time>2011-04-24T00:00:23.0000000+00:00</time></trkpt><trkpt lat="22.333704" lon="103.779976"><ele>2148.2</ele><time>2011-04-24T00:00:28.0000000+00:00</time></trkpt><trkpt lat="22.3337" lon="103.779968"><ele>2148.2</ele><time>2011-04-24T00:00:33.0000000+00:00</time></trkpt><trkpt lat="22.333704" lon="103.779968"><ele>2148.0</ele><time>2011-04-24T00:00:38.0000000+00:00</time></trkpt><trkpt lat="22.333687" lon="103.779953"><ele>2148.5</ele><time>2011-04-24T00:00:43.0000000+00:00</time></trkpt><trkpt lat="22.33367" lon="103.77993"><ele>2149.8</ele><time>2011-04-24T00:00:48.0000000+00:00</time></trkpt><trkpt lat="22.333651" lon="103.779892"><ele>2151.2</ele><time>2011-04-24T00:00:53.0000000+00:00</time></trkpt><trkpt lat="22.333633" lon="103.779839"><ele>2151.3</ele><time>2011-04-24T00:00:58.0000000+00:00</time></trkpt><trkpt lat="22.333607" lon="103.7798"><ele>2152.3</ele><time>2011-04-24T00:01:03.0000000+00:00</time></trkpt><trkpt lat="22.333595" lon="103.779755"><ele>2153.0</ele><time>2011-04-24T00:01:08.0000000+00:00</time></trkpt><trkpt lat="22.333582" lon="103.779747"><ele>2153.9</ele><time>2011-04-24T00:01:13.0000000+00:00</time></trkpt><trkpt lat="22.333563" lon="103.779739"><ele>2155.5</ele><time>2011-04-24T00:01:18.0000000+00:00</time></trkpt><trkpt lat="22.333532" lon="103.779732"><ele>2156.3</ele><time>2011-04-24T00:01:23.0000000+00:00</time></trkpt><trkpt lat="22.333515" lon="103.779709"><ele>2157.6</ele><time>2011-04-24T00:01:28.0000000+00:00</time></trkpt><trkpt lat="22.333496" lon="103.779686"><ele>2159.3</ele><time>2011-04-24T00:01:33.0000000+00:00</time></trkpt><trkpt lat="22.333466" lon="103.779686"><ele>2160.5</ele><time>2011-04-24T00:01:38.0000000+00:00</time></trkpt><trkpt lat="22.333441" lon="103.779663"><ele>2161.7</ele><time>2011-04-24T00:01:43.0000000+00:00</time></trkpt><trkpt lat="22.333412" lon="103.779655"><ele>2162.9</ele><time>2011-04-24T00:01:48.0000000+00:00</time></trkpt><trkpt lat="22.33337" lon="103.779633"><ele>2162.8</ele><time>2011-04-24T00:01:53.0000000+00:00</time></trkpt><trkpt lat="22.333334" lon="103.779617"><ele>2163.1</ele><time>2011-04-24T00:01:58.0000000+00:00</time></trkpt><trkpt lat="22.33329" lon="103.779625"><ele>2163.4</ele><time>2011-04-24T00:02:03.0000000+00:00</time></trkpt><trkpt lat="22.333267" lon="103.779587"><ele>2164.7</ele><time>2011-04-24T00:02:08.0000000+00:00</time></trkpt><trkpt lat="22.333246" lon="103.779556"><ele>2166.2</ele><time>2011-04-24T00:02:13.0000000+00:00</time></trkpt><trkpt lat="22.333199" lon="103.779533"><ele>2167.0</ele><time>2011-04-24T00:02:18.0000000+00:00</time></trkpt><trkpt lat="22.333149" lon="103.779503"><ele>2167.2</ele><time>2011-04-24T00:02:23.0000000+00:00</time></trkpt><trkpt lat="22.333105" lon="103.779488"><ele>2166.0</ele><time>2011-04-24T00:02:28.0000000+00:00</time></trkpt><trkpt lat="22.333059" lon="103.779449"><ele>2165.7</ele><time>2011-04-24T00:02:33.0000000+00:00</time></trkpt><trkpt lat="22.333033" lon="103.779411"><ele>2166.1</ele><time>2011-04-24T00:02:38.0000000+00:00</time></trkpt><trkpt lat="22.332981" lon="103.779388"><ele>2166.0</ele><time>2011-04-24T00:02:43.0000000+00:00</time></trkpt><trkpt lat="22.332947" lon="103.77935"><ele>2166.1</ele><time>2011-04-24T00:02:48.0000000+00:00</time></trkpt><trkpt lat="22.332924" lon="103.779335"><ele>2166.0</ele><time>2011-04-24T00:02:53.0000000+00:00</time></trkpt><trkpt lat="22.332888" lon="103.779297"><ele>2165.6</ele><time>2011-04-24T00:02:58.0000000+00:00</time></trkpt><trkpt lat="22.332857" lon="103.779282"><ele>2165.9</ele><time>2011-04-24T00:03:03.0000000+00:00</time></trkpt><trkpt lat="22.332829" lon="103.779236"><ele>2165.8</ele><time>2011-04-24T00:03:08.0000000+00:00</time></trkpt><trkpt lat="22.332815" lon="103.779205"><ele>2165.8</ele><time>2011-04-24T00:03:13.0000000+00:00</time></trkpt><trkpt lat="22.332781" lon="103.779175"><ele>2166.0</ele><time>2011-04-24T00:03:18.0000000+00:00</time></trkpt><trkpt lat="22.332735" lon="103.779167"><ele>2166.1</ele><time>2011-04-24T00:03:23.0000000+00:00</time></trkpt><trkpt lat="22.332706" lon="103.779167"><ele>2166.0</ele><time>2011-04-24T00:03:28.0000000+00:00</time></trkpt><trkpt lat="22.332684" lon="103.779152"><ele>2166.5</ele><time>2011-04-24T00:03:33.0000000+00:00</time></trkpt><trkpt lat="22.332655" lon="103.77916"><ele>2166.7</ele><time>2011-04-24T00:03:38.0000000+00:00</time></trkpt><trkpt lat="22.332607" lon="103.779175"><ele>2167.7</ele><time>2011-04-24T00:03:43.0000000+00:00</time></trkpt><trkpt lat="22.332582" lon="103.77919"><ele>2169.1</ele><time>2011-04-24T00:03:48.0000000+00:00</time></trkpt><trkpt lat="22.332548" lon="103.77919"><ele>2170.3</ele><time>2011-04-24T00:03:53.0000000+00:00</time></trkpt><trkpt lat="22.332516" lon="103.779182"><ele>2171.1</ele><time>2011-04-24T00:03:58.0000000+00:00</time></trkpt><trkpt lat="22.33247" lon="103.77919"><ele>2172.3</ele><time>2011-04-24T00:04:03.0000000+00:00</time></trkpt><trkpt lat="22.332439" lon="103.779182"><ele>2173.3</ele><time>2011-04-24T00:04:08.0000000+00:00</time></trkpt><trkpt lat="22.332401" lon="103.779198"><ele>2174.3</ele><time>2011-04-24T00:04:13.0000000+00:00</time></trkpt><trkpt lat="22.332357" lon="103.779205"><ele>2175.3</ele><time>2011-04-24T00:04:18.0000000+00:00</time></trkpt><trkpt lat="22.332304" lon="103.779205"><ele>2176.5</ele><time>2011-04-24T00:04:23.0000000+00:00</time></trkpt><trkpt lat="22.332266" lon="103.779198"><ele>2177.5</ele><time>2011-04-24T00:04:28.0000000+00:00</time></trkpt><trkpt lat="22.332222" lon="103.779213"><ele>2178.3</ele><time>2011-04-24T00:04:33.0000000+00:00</time></trkpt><trkpt lat="22.332178" lon="103.779228"><ele>2179.3</ele><time>2011-04-24T00:04:38.0000000+00:00</time></trkpt><trkpt lat="22.332165" lon="103.779259"><ele>2180.5</ele><time>2011-04-24T00:04:43.0000000+00:00</time></trkpt><trkpt lat="22.33214" lon="103.779259"><ele>2182.2</ele><time>2011-04-24T00:04:48.0000000+00:00</time></trkpt><trkpt lat="22.3321" lon="103.779259"><ele>2183.5</ele><time>2011-04-24T00:04:53.0000000+00:00</time></trkpt><trkpt lat="22.332043" lon="103.779243"><ele>2184.5</ele><time>2011-04-24T00:04:58.0000000+00:00</time></trkpt><trkpt lat="22.332012" lon="103.779243"><ele>2185.3</ele><time>2011-04-24T00:05:03.0000000+00:00</time></trkpt><trkpt lat="22.331978" lon="103.779243"><ele>2186.1</ele><time>2011-04-24T00:05:08.0000000+00:00</time></trkpt><trkpt lat="22.331957" lon="103.779243"><ele>2187.1</ele><time>2011-04-24T00:05:13.0000000+00:00</time></trkpt><trkpt lat="22.331923" lon="103.779236"><ele>2187.9</ele><time>2011-04-24T00:05:18.0000000+00:00</time></trkpt><trkpt lat="22.331884" lon="103.779228"><ele>2188.8</ele><time>2011-04-24T00:05:23.0000000+00:00</time></trkpt><trkpt lat="22.331848" lon="103.779221"><ele>2189.8</ele><time>2011-04-24T00:05:28.0000000+00:00</time></trkpt><trkpt lat="22.331839" lon="103.779243"><ele>2190.7</ele><time>2011-04-24T00:05:33.0000000+00:00</time></trkpt><trkpt lat="22.331808" lon="103.779251"><ele>2191.5</ele><time>2011-04-24T00:05:38.0000000+00:00</time></trkpt><trkpt lat="22.331768" lon="103.779236"><ele>2191.5</ele><time>2011-04-24T00:05:43.0000000+00:00</time></trkpt><trkpt lat="22.331724" lon="103.779266"><ele>2191.9</ele><time>2011-04-24T00:05:48.0000000+00:00</time></trkpt><trkpt lat="22.331669" lon="103.779289"><ele>2193.0</ele><time>2011-04-24T00:05:53.0000000+00:00</time></trkpt><trkpt lat="22.331656" lon="103.779266"><ele>2194.5</ele><time>2011-04-24T00:05:58.0000000+00:00</time></trkpt><trkpt lat="22.33161" lon="103.779266"><ele>2195.1</ele><time>2011-04-24T00:06:03.0000000+00:00</time></trkpt><trkpt lat="22.331562" lon="103.779259"><ele>2196.2</ele><time>2011-04-24T00:06:08.0000000+00:00</time></trkpt><trkpt lat="22.331526" lon="103.779251"><ele>2197.2</ele><time>2011-04-24T00:06:13.0000000+00:00</time></trkpt><trkpt lat="22.331463" lon="103.779236"><ele>2198.2</ele><time>2011-04-24T00:06:18.0000000+00:00</time></trkpt><trkpt lat="22.331417" lon="103.779251"><ele>2198.7</ele><time>2011-04-24T00:06:23.0000000+00:00</time></trkpt><trkpt lat="22.331392" lon="103.779266"><ele>2199.7</ele><time>2011-04-24T00:06:28.0000000+00:00</time></trkpt><trkpt lat="22.331337" lon="103.779282"><ele>2201.3</ele><time>2011-04-24T00:06:33.0000000+00:00</time></trkpt><trkpt lat="22.33131" lon="103.77932"><ele>2202.8</ele><time>2011-04-24T00:06:38.0000000+00:00</time></trkpt><trkpt lat="22.331257" lon="103.779327"><ele>2203.7</ele><time>2011-04-24T00:06:43.0000000+00:00</time></trkpt><trkpt lat="22.33123" lon="103.77935"><ele>2204.7</ele><time>2011-04-24T00:06:48.0000000+00:00</time></trkpt><trkpt lat="22.33119" lon="103.779388"><ele>2205.4</ele><time>2011-04-24T00:06:53.0000000+00:00</time></trkpt><trkpt lat="22.33116" lon="103.779411"><ele>2206.2</ele><time>2011-04-24T00:06:58.0000000+00:00</time></trkpt><trkpt lat="22.331133" lon="103.779449"><ele>2207.1</ele><time>2011-04-24T00:07:03.0000000+00:00</time></trkpt><trkpt lat="22.331074" lon="103.779503"><ele>2207.9</ele><time>2011-04-24T00:07:08.0000000+00:00</time></trkpt><trkpt lat="22.331079" lon="103.779518"><ele>2209.0</ele><time>2011-04-24T00:07:13.0000000+00:00</time></trkpt><trkpt lat="22.331072" lon="103.779541"><ele>2209.4</ele><time>2011-04-24T00:07:18.0000000+00:00</time></trkpt><trkpt lat="22.331079" lon="103.779579"><ele>2209.3</ele><time>2011-04-24T00:07:23.0000000+00:00</time></trkpt><trkpt lat="22.33106" lon="103.779617"><ele>2209.2</ele><time>2011-04-24T00:07:28.0000000+00:00</time></trkpt><trkpt lat="22.331074" lon="103.779663"><ele>2209.3</ele><time>2011-04-24T00:07:33.0000000+00:00</time></trkpt><trkpt lat="22.331047" lon="103.779686"><ele>2209.1</ele><time>2011-04-24T00:07:38.0000000+00:00</time></trkpt><trkpt lat="22.331015" lon="103.779701"><ele>2208.9</ele><time>2011-04-24T00:07:43.0000000+00:00</time></trkpt><trkpt lat="22.331009" lon="103.779716"><ele>2208.7</ele><time>2011-04-24T00:07:48.0000000+00:00</time></trkpt><trkpt lat="22.330973" lon="103.779739"><ele>2208.3</ele><time>2011-04-24T00:07:53.0000000+00:00</time></trkpt><trkpt lat="22.330959" lon="103.77977"><ele>2208.0</ele><time>2011-04-24T00:07:58.0000000+00:00</time></trkpt><trkpt lat="22.330933" lon="103.779839"><ele>2208.0</ele><time>2011-04-24T00:08:03.0000000+00:00</time></trkpt><trkpt lat="22.330887" lon="103.779877"><ele>2208.2</ele><time>2011-04-24T00:08:08.0000000+00:00</time></trkpt><trkpt lat="22.33087" lon="103.779922"><ele>2208.5</ele><time>2011-04-24T00:08:13.0000000+00:00</time></trkpt><trkpt lat="22.330833" lon="103.779976"><ele>2209.4</ele><time>2011-04-24T00:08:18.0000000+00:00</time></trkpt><trkpt lat="22.330797" lon="103.780014"><ele>2210.0</ele><time>2011-04-24T00:08:23.0000000+00:00</time></trkpt><trkpt lat="22.33077" lon="103.780037"><ele>2210.6</ele><time>2011-04-24T00:08:28.0000000+00:00</time></trkpt><trkpt lat="22.33073" lon="103.780022"><ele>2210.8</ele><time>2011-04-24T00:08:33.0000000+00:00</time></trkpt><trkpt lat="22.330696" lon="103.780014"><ele>2211.1</ele><time>2011-04-24T00:08:38.0000000+00:00</time></trkpt><trkpt lat="22.330694" lon="103.780014"><ele>2211.2</ele><time>2011-04-24T00:08:43.0000000+00:00</time></trkpt><trkpt lat="22.330666" lon="103.780029"><ele>2211.2</ele><time>2011-04-24T00:08:48.0000000+00:00</time></trkpt><trkpt lat="22.330664" lon="103.780037"><ele>2211.2</ele><time>2011-04-24T00:08:53.0000000+00:00</time></trkpt><trkpt lat="22.330641" lon="103.780083"><ele>2211.3</ele><time>2011-04-24T00:08:58.0000000+00:00</time></trkpt><trkpt lat="22.330593" lon="103.780136"><ele>2211.8</ele><time>2011-04-24T00:09:03.0000000+00:00</time></trkpt><trkpt lat="22.330574" lon="103.780205"><ele>2211.6</ele><time>2011-04-24T00:09:08.0000000+00:00</time></trkpt><trkpt lat="22.330509" lon="103.780235"><ele>2211.7</ele><time>2011-04-24T00:09:13.0000000+00:00</time></trkpt><trkpt lat="22.330488" lon="103.780258"><ele>2211.6</ele><time>2011-04-24T00:09:18.0000000+00:00</time></trkpt><trkpt lat="22.330448" lon="103.780281"><ele>2211.3</ele><time>2011-04-24T00:09:23.0000000+00:00</time></trkpt><trkpt lat="22.330446" lon="103.780296"><ele>2211.3</ele><time>2011-04-24T00:09:28.0000000+00:00</time></trkpt><trkpt lat="22.330433" lon="103.780327"><ele>2211.1</ele><time>2011-04-24T00:09:33.0000000+00:00</time></trkpt><trkpt lat="22.330442" lon="103.780342"><ele>2211.1</ele><time>2011-04-24T00:09:38.0000000+00:00</time></trkpt><trkpt lat="22.330448" lon="103.780357"><ele>2211.7</ele><time>2011-04-24T00:09:43.0000000+00:00</time></trkpt><trkpt lat="22.330435" lon="103.780403"><ele>2212.1</ele><time>2011-04-24T00:09:48.0000000+00:00</time></trkpt><trkpt lat="22.33037" lon="103.780426"><ele>2212.1</ele><time>2011-04-24T00:09:53.0000000+00:00</time></trkpt><trkpt lat="22.330328" lon="103.780441"><ele>2211.9</ele><time>2011-04-24T00:09:58.0000000+00:00</time></trkpt><trkpt lat="22.330307" lon="103.780457"><ele>2212.0</ele><time>2011-04-24T00:10:03.0000000+00:00</time></trkpt><trkpt lat="22.330288" lon="103.780441"><ele>2212.1</ele><time>2011-04-24T00:10:08.0000000+00:00</time></trkpt><trkpt lat="22.330267" lon="103.780457"><ele>2212.1</ele><time>2011-04-24T00:10:13.0000000+00:00</time></trkpt><trkpt lat="22.330256" lon="103.780502"><ele>2212.0</ele><time>2011-04-24T00:10:18.0000000+00:00</time></trkpt><trkpt lat="22.330275" lon="103.780518"><ele>2212.0</ele><time>2011-04-24T00:10:23.0000000+00:00</time></trkpt><trkpt lat="22.330263" lon="103.780525"><ele>2212.2</ele><time>2011-04-24T00:10:28.0000000+00:00</time></trkpt><trkpt lat="22.330263" lon="103.780525"><ele>2212.2</ele><time>2011-04-24T00:10:33.0000000+00:00</time></trkpt><trkpt lat="22.330263" lon="103.780525"><ele>2212.2</ele><time>2011-04-24T00:10:38.0000000+00:00</time></trkpt><trkpt lat="22.330267" lon="103.780533"><ele>2212.2</ele><time>2011-04-24T00:10:43.0000000+00:00</time></trkpt><trkpt lat="22.330263" lon="103.780533"><ele>2212.2</ele><time>2011-04-24T00:10:48.0000000+00:00</time></trkpt><trkpt lat="22.330261" lon="103.78054"><ele>2212.2</ele><time>2011-04-24T00:10:53.0000000+00:00</time></trkpt><trkpt lat="22.330265" lon="103.78054"><ele>2212.2</ele><time>2011-04-24T00:10:58.0000000+00:00</time></trkpt><trkpt lat="22.330273" lon="103.780548"><ele>2212.2</ele><time>2011-04-24T00:11:03.0000000+00:00</time></trkpt><trkpt lat="22.330282" lon="103.780548"><ele>2212.2</ele><time>2011-04-24T00:11:08.0000000+00:00</time></trkpt><trkpt lat="22.330292" lon="103.780548"><ele>2212.3</ele><time>2011-04-24T00:11:13.0000000+00:00</time></trkpt><trkpt lat="22.330299" lon="103.780548"><ele>2212.4</ele><time>2011-04-24T00:11:18.0000000+00:00</time></trkpt><trkpt lat="22.330301" lon="103.780548"><ele>2212.5</ele><time>2011-04-24T00:11:23.0000000+00:00</time></trkpt><trkpt lat="22.330305" lon="103.78054"><ele>2212.5</ele><time>2011-04-24T00:11:28.0000000+00:00</time></trkpt><trkpt lat="22.330307" lon="103.780525"><ele>2212.7</ele><time>2011-04-24T00:11:33.0000000+00:00</time></trkpt><trkpt lat="22.330311" lon="103.780533"><ele>2212.8</ele><time>2011-04-24T00:11:38.0000000+00:00</time></trkpt><trkpt lat="22.330318" lon="103.780525"><ele>2212.8</ele><time>2011-04-24T00:11:43.0000000+00:00</time></trkpt><trkpt lat="22.330326" lon="103.780533"><ele>2212.7</ele><time>2011-04-24T00:11:48.0000000+00:00</time></trkpt><trkpt lat="22.330336" lon="103.780533"><ele>2212.7</ele><time>2011-04-24T00:11:53.0000000+00:00</time></trkpt><trkpt lat="22.330341" lon="103.780533"><ele>2212.7</ele><time>2011-04-24T00:11:58.0000000+00:00</time></trkpt><trkpt lat="22.330345" lon="103.780533"><ele>2212.8</ele><time>2011-04-24T00:12:03.0000000+00:00</time></trkpt><trkpt lat="22.330341" lon="103.780533"><ele>2212.8</ele><time>2011-04-24T00:12:08.0000000+00:00</time></trkpt><trkpt lat="22.330339" lon="103.780533"><ele>2212.9</ele><time>2011-04-24T00:12:13.0000000+00:00</time></trkpt><trkpt lat="22.330338" lon="103.780533"><ele>2213.0</ele><time>2011-04-24T00:12:18.0000000+00:00</time></trkpt><trkpt lat="22.330336" lon="103.780533"><ele>2213.0</ele><time>2011-04-24T00:12:23.0000000+00:00</time></trkpt><trkpt lat="22.33033" lon="103.780533"><ele>2213.0</ele><time>2011-04-24T00:12:28.0000000+00:00</time></trkpt><trkpt lat="22.330322" lon="103.780533"><ele>2213.1</ele><time>2011-04-24T00:12:33.0000000+00:00</time></trkpt><trkpt lat="22.330318" lon="103.780533"><ele>2213.2</ele><time>2011-04-24T00:12:38.0000000+00:00</time></trkpt><trkpt lat="22.330307" lon="103.780556"><ele>2214.2</ele><time>2011-04-24T00:12:43.0000000+00:00</time></trkpt><trkpt lat="22.330303" lon="103.780571"><ele>2214.8</ele><time>2011-04-24T00:12:48.0000000+00:00</time></trkpt><trkpt lat="22.330299" lon="103.780571"><ele>2214.8</ele><time>2011-04-24T00:12:53.0000000+00:00</time></trkpt><trkpt lat="22.330292" lon="103.780579"><ele>2214.8</ele><time>2011-04-24T00:12:58.0000000+00:00</time></trkpt><trkpt lat="22.33029" lon="103.780586"><ele>2214.7</ele><time>2011-04-24T00:13:03.0000000+00:00</time></trkpt><trkpt lat="22.330288" lon="103.780594"><ele>2214.8</ele><time>2011-04-24T00:13:08.0000000+00:00</time></trkpt><trkpt lat="22.330296" lon="103.780594"><ele>2214.8</ele><time>2011-04-24T00:13:13.0000000+00:00</time></trkpt><trkpt lat="22.330299" lon="103.780594"><ele>2214.8</ele><time>2011-04-24T00:13:18.0000000+00:00</time></trkpt><trkpt lat="22.330292" lon="103.780586"><ele>2214.8</ele><time>2011-04-24T00:13:23.0000000+00:00</time></trkpt><trkpt lat="22.330305" lon="103.780602"><ele>2215.1</ele><time>2011-04-24T00:13:28.0000000+00:00</time></trkpt><trkpt lat="22.330294" lon="103.780624"><ele>2215.9</ele><time>2011-04-24T00:13:33.0000000+00:00</time></trkpt><trkpt lat="22.33029" lon="103.780624"><ele>2215.9</ele><time>2011-04-24T00:13:38.0000000+00:00</time></trkpt><trkpt lat="22.330284" lon="103.780624"><ele>2215.9</ele><time>2011-04-24T00:13:43.0000000+00:00</time></trkpt><trkpt lat="22.330278" lon="103.780624"><ele>2216.0</ele><time>2011-04-24T00:13:48.0000000+00:00</time></trkpt><trkpt lat="22.330276" lon="103.780624"><ele>2215.9</ele><time>2011-04-24T00:13:53.0000000+00:00</time></trkpt><trkpt lat="22.330278" lon="103.780632"><ele>2215.9</ele><time>2011-04-24T00:13:58.0000000+00:00</time></trkpt><trkpt lat="22.33028" lon="103.78064"><ele>2215.9</ele><time>2011-04-24T00:14:03.0000000+00:00</time></trkpt><trkpt lat="22.330282" lon="103.78064"><ele>2215.9</ele><time>2011-04-24T00:14:08.0000000+00:00</time></trkpt><trkpt lat="22.330278" lon="103.780647"><ele>2216.0</ele><time>2011-04-24T00:14:13.0000000+00:00</time></trkpt><trkpt lat="22.33028" lon="103.780655"><ele>2216.0</ele><time>2011-04-24T00:14:18.0000000+00:00</time></trkpt><trkpt lat="22.33028" lon="103.780655"><ele>2216.1</ele><time>2011-04-24T00:14:23.0000000+00:00</time></trkpt><trkpt lat="22.330284" lon="103.780678"><ele>2216.2</ele><time>2011-04-24T00:14:28.0000000+00:00</time></trkpt><trkpt lat="22.330284" lon="103.780678"><ele>2216.2</ele><time>2011-04-24T00:14:33.0000000+00:00</time></trkpt><trkpt lat="22.330286" lon="103.780693"><ele>2216.3</ele><time>2011-04-24T00:14:38.0000000+00:00</time></trkpt><trkpt lat="22.330313" lon="103.780701"><ele>2216.6</ele><time>2011-04-24T00:14:43.0000000+00:00</time></trkpt><trkpt lat="22.330328" lon="103.780678"><ele>2217.3</ele><time>2011-04-24T00:14:48.0000000+00:00</time></trkpt><trkpt lat="22.330332" lon="103.780678"><ele>2217.4</ele><time>2011-04-24T00:14:53.0000000+00:00</time></trkpt><trkpt lat="22.330332" lon="103.78067"><ele>2217.4</ele><time>2011-04-24T00:14:58.0000000+00:00</time></trkpt><trkpt lat="22.330334" lon="103.780678"><ele>2217.5</ele><time>2011-04-24T00:15:03.0000000+00:00</time></trkpt><trkpt lat="22.330318" lon="103.780647"><ele>2218.1</ele><time>2011-04-24T00:15:08.0000000+00:00</time></trkpt><trkpt lat="22.330275" lon="103.780632"><ele>2219.1</ele><time>2011-04-24T00:15:13.0000000+00:00</time></trkpt><trkpt lat="22.330261" lon="103.780602"><ele>2219.4</ele><time>2011-04-24T00:15:18.0000000+00:00</time></trkpt><trkpt lat="22.330246" lon="103.780647"><ele>2219.5</ele><time>2011-04-24T00:15:23.0000000+00:00</time></trkpt><trkpt lat="22.330231" lon="103.780609"><ele>2220.5</ele><time>2011-04-24T00:15:28.0000000+00:00</time></trkpt><trkpt lat="22.330227" lon="103.780609"><ele>2220.8</ele><time>2011-04-24T00:15:33.0000000+00:00</time></trkpt><trkpt lat="22.330202" lon="103.780594"><ele>2221.3</ele><time>2011-04-24T00:15:38.0000000+00:00</time></trkpt><trkpt lat="22.3302" lon="103.780586"><ele>2221.4</ele><time>2011-04-24T00:15:43.0000000+00:00</time></trkpt><trkpt lat="22.330202" lon="103.780586"><ele>2222.5</ele><time>2011-04-24T00:15:48.0000000+00:00</time></trkpt><trkpt lat="22.3302" lon="103.780602"><ele>2223.1</ele><time>2011-04-24T00:15:53.0000000+00:00</time></trkpt><trkpt lat="22.330212" lon="103.780624"><ele>2224.0</ele><time>2011-04-24T00:15:58.0000000+00:00</time></trkpt><trkpt lat="22.330225" lon="103.780647"><ele>2225.3</ele><time>2011-04-24T00:16:03.0000000+00:00</time></trkpt><trkpt lat="22.330236" lon="103.780701"><ele>2227.6</ele><time>2011-04-24T00:16:08.0000000+00:00</time></trkpt><trkpt lat="22.330242" lon="103.780754"><ele>2228.9</ele><time>2011-04-24T00:16:13.0000000+00:00</time></trkpt><trkpt lat="22.330225" lon="103.780769"><ele>2229.3</ele><time>2011-04-24T00:16:18.0000000+00:00</time></trkpt><trkpt lat="22.330183" lon="103.7808"><ele>2230.5</ele><time>2011-04-24T00:16:23.0000000+00:00</time></trkpt><trkpt lat="22.330191" lon="103.780853"><ele>2232.3</ele><time>2011-04-24T00:16:28.0000000+00:00</time></trkpt><trkpt lat="22.330172" lon="103.780884"><ele>2233.2</ele><time>2011-04-24T00:16:33.0000000+00:00</time></trkpt><trkpt lat="22.330149" lon="103.780891"><ele>2234.7</ele><time>2011-04-24T00:16:38.0000000+00:00</time></trkpt><trkpt lat="22.330107" lon="103.78093"><ele>2235.8</ele><time>2011-04-24T00:16:43.0000000+00:00</time></trkpt><trkpt lat="22.330137" lon="103.780975"><ele>2236.8</ele><time>2011-04-24T00:16:48.0000000+00:00</time></trkpt><trkpt lat="22.330154" lon="103.781021"><ele>2237.6</ele><time>2011-04-24T00:16:53.0000000+00:00</time></trkpt><trkpt lat="22.330153" lon="103.781059"><ele>2238.5</ele><time>2011-04-24T00:16:58.0000000+00:00</time></trkpt><trkpt lat="22.330153" lon="103.781128"><ele>2239.5</ele><time>2011-04-24T00:17:03.0000000+00:00</time></trkpt><trkpt lat="22.330164" lon="103.781174"><ele>2240.5</ele><time>2011-04-24T00:17:08.0000000+00:00</time></trkpt><trkpt lat="22.330173" lon="103.781242"><ele>2241.8</ele><time>2011-04-24T00:17:13.0000000+00:00</time></trkpt><trkpt lat="22.330179" lon="103.781303"><ele>2243.0</ele><time>2011-04-24T00:17:18.0000000+00:00</time></trkpt><trkpt lat="22.330164" lon="103.781319"><ele>2243.4</ele><time>2011-04-24T00:17:23.0000000+00:00</time></trkpt><trkpt lat="22.330147" lon="103.781342"><ele>2244.2</ele><time>2011-04-24T00:17:28.0000000+00:00</time></trkpt><trkpt lat="22.330141" lon="103.78138"><ele>2244.9</ele><time>2011-04-24T00:17:33.0000000+00:00</time></trkpt><trkpt lat="22.330137" lon="103.781403"><ele>2245.7</ele><time>2011-04-24T00:17:38.0000000+00:00</time></trkpt><trkpt lat="22.330091" lon="103.781433"><ele>2247.7</ele><time>2011-04-24T00:17:43.0000000+00:00</time></trkpt><trkpt lat="22.330082" lon="103.781487"><ele>2248.6</ele><time>2011-04-24T00:17:48.0000000+00:00</time></trkpt><trkpt lat="22.330065" lon="103.781532"><ele>2249.2</ele><time>2011-04-24T00:17:53.0000000+00:00</time></trkpt><trkpt lat="22.33005" lon="103.781563"><ele>2249.8</ele><time>2011-04-24T00:17:58.0000000+00:00</time></trkpt><trkpt lat="22.330067" lon="103.781578"><ele>2250.4</ele><time>2011-04-24T00:18:03.0000000+00:00</time></trkpt><trkpt lat="22.330065" lon="103.781601"><ele>2251.1</ele><time>2011-04-24T00:18:08.0000000+00:00</time></trkpt><trkpt lat="22.330059" lon="103.781647"><ele>2250.9</ele><time>2011-04-24T00:18:13.0000000+00:00</time></trkpt><trkpt lat="22.330038" lon="103.781654"><ele>2251.2</ele><time>2011-04-24T00:18:18.0000000+00:00</time></trkpt><trkpt lat="22.330015" lon="103.7817"><ele>2249.8</ele><time>2011-04-24T00:18:23.0000000+00:00</time></trkpt><trkpt lat="22.330002" lon="103.7817"><ele>2249.8</ele><time>2011-04-24T00:18:28.0000000+00:00</time></trkpt><trkpt lat="22.330002" lon="103.781685"><ele>2249.5</ele><time>2011-04-24T00:18:33.0000000+00:00</time></trkpt><trkpt lat="22.33" lon="103.781654"><ele>2249.1</ele><time>2011-04-24T00:18:38.0000000+00:00</time></trkpt><trkpt lat="22.33" lon="103.781647"><ele>2249.2</ele><time>2011-04-24T00:18:43.0000000+00:00</time></trkpt><trkpt lat="22.330004" lon="103.781647"><ele>2249.2</ele><time>2011-04-24T00:18:48.0000000+00:00</time></trkpt><trkpt lat="22.329967" lon="103.781654"><ele>2249.1</ele><time>2011-04-24T00:18:53.0000000+00:00</time></trkpt><trkpt lat="22.329958" lon="103.781647"><ele>2249.2</ele><time>2011-04-24T00:18:58.0000000+00:00</time></trkpt><trkpt lat="22.329918" lon="103.781639"><ele>2249.1</ele><time>2011-04-24T00:19:03.0000000+00:00</time></trkpt><trkpt lat="22.329889" lon="103.781631"><ele>2249.5</ele><time>2011-04-24T00:19:08.0000000+00:00</time></trkpt><trkpt lat="22.32987" lon="103.781609"><ele>2249.8</ele><time>2011-04-24T00:19:13.0000000+00:00</time></trkpt><trkpt lat="22.329882" lon="103.781616"><ele>2249.6</ele><time>2011-04-24T00:19:18.0000000+00:00</time></trkpt><trkpt lat="22.329845" lon="103.781609"><ele>2249.3</ele><time>2011-04-24T00:19:23.0000000+00:00</time></trkpt><trkpt lat="22.329798" lon="103.78157"><ele>2248.6</ele><time>2011-04-24T00:19:28.0000000+00:00</time></trkpt><trkpt lat="22.329729" lon="103.781555"><ele>2246.9</ele><time>2011-04-24T00:19:33.0000000+00:00</time></trkpt><trkpt lat="22.329706" lon="103.781555"><ele>2247.1</ele><time>2011-04-24T00:19:38.0000000+00:00</time></trkpt><trkpt lat="22.329672" lon="103.781548"><ele>2246.8</ele><time>2011-04-24T00:19:43.0000000+00:00</time></trkpt><trkpt lat="22.329647" lon="103.781532"><ele>2246.5</ele><time>2011-04-24T00:19:48.0000000+00:00</time></trkpt><trkpt lat="22.329626" lon="103.781517"><ele>2247.3</ele><time>2011-04-24T00:19:53.0000000+00:00</time></trkpt><trkpt lat="22.329592" lon="103.781509"><ele>2247.5</ele><time>2011-04-24T00:19:58.0000000+00:00</time></trkpt><trkpt lat="22.329563" lon="103.781502"><ele>2248.7</ele><time>2011-04-24T00:20:03.0000000+00:00</time></trkpt><trkpt lat="22.329535" lon="103.781479"><ele>2248.7</ele><time>2011-04-24T00:20:08.0000000+00:00</time></trkpt><trkpt lat="22.329485" lon="103.781448"><ele>2248.2</ele><time>2011-04-24T00:20:13.0000000+00:00</time></trkpt><trkpt lat="22.32943" lon="103.781425"><ele>2247.7</ele><time>2011-04-24T00:20:18.0000000+00:00</time></trkpt><trkpt lat="22.329361" lon="103.781448"><ele>2247.4</ele><time>2011-04-24T00:20:23.0000000+00:00</time></trkpt><trkpt lat="22.329313" lon="103.781471"><ele>2247.4</ele><time>2011-04-24T00:20:28.0000000+00:00</time></trkpt><trkpt lat="22.32926" lon="103.781487"><ele>2247.1</ele><time>2011-04-24T00:20:33.0000000+00:00</time></trkpt><trkpt lat="22.329195" lon="103.781509"><ele>2245.6</ele><time>2011-04-24T00:20:38.0000000+00:00</time></trkpt><trkpt lat="22.329157" lon="103.781532"><ele>2245.3</ele><time>2011-04-24T00:20:43.0000000+00:00</time></trkpt><trkpt lat="22.329123" lon="103.781555"><ele>2245.3</ele><time>2011-04-24T00:20:48.0000000+00:00</time></trkpt><trkpt lat="22.329058" lon="103.781586"><ele>2244.8</ele><time>2011-04-24T00:20:53.0000000+00:00</time></trkpt><trkpt lat="22.328979" lon="103.781609"><ele>2244.7</ele><time>2011-04-24T00:20:58.0000000+00:00</time></trkpt><trkpt lat="22.328907" lon="103.781631"><ele>2243.7</ele><time>2011-04-24T00:21:03.0000000+00:00</time></trkpt><trkpt lat="22.328831" lon="103.781647"><ele>2241.8</ele><time>2011-04-24T00:21:08.0000000+00:00</time></trkpt><trkpt lat="22.328785" lon="103.781654"><ele>2242.3</ele><time>2011-04-24T00:21:13.0000000+00:00</time></trkpt><trkpt lat="22.328743" lon="103.781677"><ele>2241.8</ele><time>2011-04-24T00:21:18.0000000+00:00</time></trkpt><trkpt lat="22.328695" lon="103.781693"><ele>2241.6</ele><time>2011-04-24T00:21:23.0000000+00:00</time></trkpt><trkpt lat="22.328672" lon="103.781693"><ele>2241.3</ele><time>2011-04-24T00:21:28.0000000+00:00</time></trkpt><trkpt lat="22.328634" lon="103.781715"><ele>2241.1</ele><time>2011-04-24T00:21:33.0000000+00:00</time></trkpt><trkpt lat="22.328575" lon="103.781715"><ele>2241.3</ele><time>2011-04-24T00:21:38.0000000+00:00</time></trkpt><trkpt lat="22.328501" lon="103.781723"><ele>2241.4</ele><time>2011-04-24T00:21:43.0000000+00:00</time></trkpt><trkpt lat="22.328468" lon="103.781723"><ele>2239.7</ele><time>2011-04-24T00:21:48.0000000+00:00</time></trkpt><trkpt lat="22.328432" lon="103.781746"><ele>2238.5</ele><time>2011-04-24T00:21:53.0000000+00:00</time></trkpt><trkpt lat="22.328402" lon="103.781754"><ele>2237.8</ele><time>2011-04-24T00:21:58.0000000+00:00</time></trkpt><trkpt lat="22.328367" lon="103.781761"><ele>2237.2</ele><time>2011-04-24T00:22:03.0000000+00:00</time></trkpt><trkpt lat="22.328327" lon="103.781769"><ele>2236.6</ele><time>2011-04-24T00:22:08.0000000+00:00</time></trkpt><trkpt lat="22.328295" lon="103.781769"><ele>2236.1</ele><time>2011-04-24T00:22:13.0000000+00:00</time></trkpt><trkpt lat="22.328274" lon="103.781784"><ele>2234.6</ele><time>2011-04-24T00:22:18.0000000+00:00</time></trkpt><trkpt lat="22.328264" lon="103.781776"><ele>2234.2</ele><time>2011-04-24T00:22:23.0000000+00:00</time></trkpt><trkpt lat="22.328268" lon="103.781799"><ele>2234.5</ele><time>2011-04-24T00:22:28.0000000+00:00</time></trkpt><trkpt lat="22.32827" lon="103.781799"><ele>2234.8</ele><time>2011-04-24T00:22:33.0000000+00:00</time></trkpt><trkpt lat="22.328268" lon="103.781799"><ele>2234.6</ele><time>2011-04-24T00:22:38.0000000+00:00</time></trkpt><trkpt lat="22.328264" lon="103.781799"><ele>2234.3</ele><time>2011-04-24T00:22:43.0000000+00:00</time></trkpt><trkpt lat="22.328247" lon="103.781815"><ele>2233.0</ele><time>2011-04-24T00:22:48.0000000+00:00</time></trkpt><trkpt lat="22.328255" lon="103.781776"><ele>2233.0</ele><time>2011-04-24T00:22:53.0000000+00:00</time></trkpt><trkpt lat="22.328249" lon="103.781784"><ele>2232.7</ele><time>2011-04-24T00:22:58.0000000+00:00</time></trkpt><trkpt lat="22.328247" lon="103.781776"><ele>2232.6</ele><time>2011-04-24T00:23:03.0000000+00:00</time></trkpt><trkpt lat="22.328247" lon="103.781776"><ele>2232.5</ele><time>2011-04-24T00:23:08.0000000+00:00</time></trkpt><trkpt lat="22.328243" lon="103.781784"><ele>2232.3</ele><time>2011-04-24T00:23:13.0000000+00:00</time></trkpt><trkpt lat="22.328239" lon="103.781784"><ele>2232.0</ele><time>2011-04-24T00:23:18.0000000+00:00</time></trkpt><trkpt lat="22.328218" lon="103.781799"><ele>2232.0</ele><time>2011-04-24T00:23:23.0000000+00:00</time></trkpt><trkpt lat="22.328218" lon="103.781784"><ele>2231.6</ele><time>2011-04-24T00:23:28.0000000+00:00</time></trkpt><trkpt lat="22.328224" lon="103.781784"><ele>2231.3</ele><time>2011-04-24T00:23:33.0000000+00:00</time></trkpt><trkpt lat="22.328224" lon="103.781784"><ele>2231.3</ele><time>2011-04-24T00:23:38.0000000+00:00</time></trkpt><trkpt lat="22.328217" lon="103.781776"><ele>2230.9</ele><time>2011-04-24T00:23:43.0000000+00:00</time></trkpt><trkpt lat="22.328213" lon="103.781784"><ele>2230.5</ele><time>2011-04-24T00:23:48.0000000+00:00</time></trkpt><trkpt lat="22.328213" lon="103.781784"><ele>2230.4</ele><time>2011-04-24T00:23:53.0000000+00:00</time></trkpt><trkpt lat="22.328213" lon="103.781784"><ele>2230.3</ele><time>2011-04-24T00:23:58.0000000+00:00</time></trkpt><trkpt lat="22.328213" lon="103.781784"><ele>2230.3</ele><time>2011-04-24T00:24:03.0000000+00:00</time></trkpt><trkpt lat="22.328213" lon="103.781784"><ele>2230.3</ele><time>2011-04-24T00:24:08.0000000+00:00</time></trkpt><trkpt lat="22.328213" lon="103.781784"><ele>2230.3</ele><time>2011-04-24T00:24:13.0000000+00:00</time></trkpt><trkpt lat="22.328215" lon="103.781784"><ele>2230.3</ele><time>2011-04-24T00:24:18.0000000+00:00</time></trkpt><trkpt lat="22.328217" lon="103.781776"><ele>2230.0</ele><time>2011-04-24T00:24:23.0000000+00:00</time></trkpt><trkpt lat="22.328215" lon="103.781776"><ele>2229.8</ele><time>2011-04-24T00:24:28.0000000+00:00</time></trkpt><trkpt lat="22.328215" lon="103.781784"><ele>2229.8</ele><time>2011-04-24T00:24:33.0000000+00:00</time></trkpt><trkpt lat="22.328213" lon="103.781784"><ele>2229.5</ele><time>2011-04-24T00:24:38.0000000+00:00</time></trkpt><trkpt lat="22.328213" lon="103.781792"><ele>2229.4</ele><time>2011-04-24T00:24:43.0000000+00:00</time></trkpt><trkpt lat="22.328215" lon="103.781792"><ele>2229.7</ele><time>2011-04-24T00:24:48.0000000+00:00</time></trkpt><trkpt lat="22.328217" lon="103.781784"><ele>2229.2</ele><time>2011-04-24T00:24:53.0000000+00:00</time></trkpt><trkpt lat="22.328215" lon="103.781776"><ele>2229.3</ele><time>2011-04-24T00:24:58.0000000+00:00</time></trkpt><trkpt lat="22.328207" lon="103.781769"><ele>2229.7</ele><time>2011-04-24T00:25:03.0000000+00:00</time></trkpt><trkpt lat="22.328207" lon="103.781769"><ele>2229.8</ele><time>2011-04-24T00:25:08.0000000+00:00</time></trkpt><trkpt lat="22.328209" lon="103.781769"><ele>2229.8</ele><time>2011-04-24T00:25:13.0000000+00:00</time></trkpt><trkpt lat="22.328209" lon="103.781769"><ele>2229.8</ele><time>2011-04-24T00:25:18.0000000+00:00</time></trkpt><trkpt lat="22.328209" lon="103.781769"><ele>2229.8</ele><time>2011-04-24T00:25:23.0000000+00:00</time></trkpt><trkpt lat="22.328207" lon="103.781754"><ele>2229.7</ele><time>2011-04-24T00:25:28.0000000+00:00</time></trkpt><trkpt lat="22.328182" lon="103.7817"><ele>2229.7</ele><time>2011-04-24T00:25:33.0000000+00:00</time></trkpt><trkpt lat="22.328146" lon="103.781654"><ele>2229.5</ele><time>2011-04-24T00:25:38.0000000+00:00</time></trkpt><trkpt lat="22.328091" lon="103.781616"><ele>2229.2</ele><time>2011-04-24T00:25:43.0000000+00:00</time></trkpt><trkpt lat="22.328058" lon="103.781578"><ele>2229.0</ele><time>2011-04-24T00:25:48.0000000+00:00</time></trkpt><trkpt lat="22.32803" lon="103.781548"><ele>2229.2</ele><time>2011-04-24T00:25:53.0000000+00:00</time></trkpt><trkpt lat="22.328003" lon="103.781532"><ele>2229.5</ele><time>2011-04-24T00:25:58.0000000+00:00</time></trkpt><trkpt lat="22.327967" lon="103.781487"><ele>2229.7</ele><time>2011-04-24T00:26:03.0000000+00:00</time></trkpt><trkpt lat="22.327959" lon="103.781471"><ele>2230.0</ele><time>2011-04-24T00:26:08.0000000+00:00</time></trkpt><trkpt lat="22.327923" lon="103.781471"><ele>2230.0</ele><time>2011-04-24T00:26:13.0000000+00:00</time></trkpt><trkpt lat="22.327866" lon="103.781502"><ele>2230.5</ele><time>2011-04-24T00:26:18.0000000+00:00</time></trkpt><trkpt lat="22.327812" lon="103.781525"><ele>2230.8</ele><time>2011-04-24T00:26:23.0000000+00:00</time></trkpt><trkpt lat="22.327766" lon="103.78157"><ele>2230.7</ele><time>2011-04-24T00:26:28.0000000+00:00</time></trkpt><trkpt lat="22.327711" lon="103.781616"><ele>2229.2</ele><time>2011-04-24T00:26:33.0000000+00:00</time></trkpt><trkpt lat="22.32769" lon="103.781631"><ele>2229.7</ele><time>2011-04-24T00:26:38.0000000+00:00</time></trkpt><trkpt lat="22.327654" lon="103.78167"><ele>2229.6</ele><time>2011-04-24T00:26:43.0000000+00:00</time></trkpt><trkpt lat="22.327612" lon="103.781624"><ele>2230.4</ele><time>2011-04-24T00:26:48.0000000+00:00</time></trkpt><trkpt lat="22.327578" lon="103.781586"><ele>2230.5</ele><time>2011-04-24T00:26:53.0000000+00:00</time></trkpt><trkpt lat="22.327555" lon="103.781578"><ele>2231.1</ele><time>2011-04-24T00:26:58.0000000+00:00</time></trkpt><trkpt lat="22.327549" lon="103.78157"><ele>2231.4</ele><time>2011-04-24T00:27:03.0000000+00:00</time></trkpt><trkpt lat="22.32756" lon="103.781563"><ele>2231.4</ele><time>2011-04-24T00:27:08.0000000+00:00</time></trkpt><trkpt lat="22.327578" lon="103.781555"><ele>2231.7</ele><time>2011-04-24T00:27:13.0000000+00:00</time></trkpt><trkpt lat="22.327593" lon="103.781525"><ele>2232.0</ele><time>2011-04-24T00:27:18.0000000+00:00</time></trkpt><trkpt lat="22.327591" lon="103.781502"><ele>2231.3</ele><time>2011-04-24T00:27:23.0000000+00:00</time></trkpt><trkpt lat="22.327579" lon="103.781487"><ele>2230.9</ele><time>2011-04-24T00:27:28.0000000+00:00</time></trkpt><trkpt lat="22.327564" lon="103.781502"><ele>2230.7</ele><time>2011-04-24T00:27:33.0000000+00:00</time></trkpt><trkpt lat="22.327555" lon="103.781487"><ele>2230.0</ele><time>2011-04-24T00:27:38.0000000+00:00</time></trkpt><trkpt lat="22.327545" lon="103.781479"><ele>2229.2</ele><time>2011-04-24T00:27:43.0000000+00:00</time></trkpt><trkpt lat="22.327547" lon="103.781471"><ele>2228.7</ele><time>2011-04-24T00:27:48.0000000+00:00</time></trkpt><trkpt lat="22.327539" lon="103.781464"><ele>2227.9</ele><time>2011-04-24T00:27:53.0000000+00:00</time></trkpt><trkpt lat="22.327534" lon="103.781441"><ele>2227.7</ele><time>2011-04-24T00:27:58.0000000+00:00</time></trkpt><trkpt lat="22.32752" lon="103.781418"><ele>2227.5</ele><time>2011-04-24T00:28:03.0000000+00:00</time></trkpt><trkpt lat="22.327513" lon="103.781387"><ele>2227.9</ele><time>2011-04-24T00:28:08.0000000+00:00</time></trkpt><trkpt lat="22.327517" lon="103.781364"><ele>2228.2</ele><time>2011-04-24T00:28:13.0000000+00:00</time></trkpt><trkpt lat="22.327507" lon="103.781342"><ele>2228.5</ele><time>2011-04-24T00:28:18.0000000+00:00</time></trkpt><trkpt lat="22.327478" lon="103.781342"><ele>2229.0</ele><time>2011-04-24T00:28:23.0000000+00:00</time></trkpt><trkpt lat="22.327461" lon="103.781349"><ele>2230.3</ele><time>2011-04-24T00:28:28.0000000+00:00</time></trkpt><trkpt lat="22.327448" lon="103.781342"><ele>2231.5</ele><time>2011-04-24T00:28:33.0000000+00:00</time></trkpt><trkpt lat="22.32744" lon="103.781334"><ele>2234.5</ele><time>2011-04-24T00:28:38.0000000+00:00</time></trkpt><trkpt lat="22.327419" lon="103.781342"><ele>2235.8</ele><time>2011-04-24T00:28:43.0000000+00:00</time></trkpt><trkpt lat="22.327419" lon="103.781326"><ele>2237.7</ele><time>2011-04-24T00:28:48.0000000+00:00</time></trkpt><trkpt lat="22.327414" lon="103.781326"><ele>2238.0</ele><time>2011-04-24T00:28:53.0000000+00:00</time></trkpt><trkpt lat="22.327398" lon="103.781319"><ele>2239.3</ele><time>2011-04-24T00:28:58.0000000+00:00</time></trkpt><trkpt lat="22.327402" lon="103.781311"><ele>2240.8</ele><time>2011-04-24T00:29:03.0000000+00:00</time></trkpt><trkpt lat="22.327374" lon="103.781288"><ele>2241.9</ele><time>2011-04-24T00:29:08.0000000+00:00</time></trkpt><trkpt lat="22.327349" lon="103.781296"><ele>2243.5</ele><time>2011-04-24T00:29:13.0000000+00:00</time></trkpt><trkpt lat="22.327326" lon="103.781311"><ele>2244.7</ele><time>2011-04-24T00:29:18.0000000+00:00</time></trkpt><trkpt lat="22.327299" lon="103.781311"><ele>2246.3</ele><time>2011-04-24T00:29:23.0000000+00:00</time></trkpt><trkpt lat="22.327291" lon="103.781288"><ele>2247.9</ele><time>2011-04-24T00:29:28.0000000+00:00</time></trkpt><trkpt lat="22.327274" lon="103.781281"><ele>2249.8</ele><time>2011-04-24T00:29:33.0000000+00:00</time></trkpt><trkpt lat="22.327244" lon="103.781258"><ele>2251.0</ele><time>2011-04-24T00:29:38.0000000+00:00</time></trkpt><trkpt lat="22.327248" lon="103.781235"><ele>2252.6</ele><time>2011-04-24T00:29:43.0000000+00:00</time></trkpt><trkpt lat="22.327253" lon="103.781204"><ele>2253.7</ele><time>2011-04-24T00:29:48.0000000+00:00</time></trkpt><trkpt lat="22.32723" lon="103.781181"><ele>2255.0</ele><time>2011-04-24T00:29:53.0000000+00:00</time></trkpt><trkpt lat="22.327217" lon="103.781158"><ele>2256.7</ele><time>2011-04-24T00:29:58.0000000+00:00</time></trkpt><trkpt lat="22.3272" lon="103.781136"><ele>2257.5</ele><time>2011-04-24T00:30:03.0000000+00:00</time></trkpt><trkpt lat="22.327171" lon="103.781143"><ele>2259.0</ele><time>2011-04-24T00:30:08.0000000+00:00</time></trkpt><trkpt lat="22.327143" lon="103.781136"><ele>2259.8</ele><time>2011-04-24T00:30:13.0000000+00:00</time></trkpt><trkpt lat="22.327103" lon="103.78112"><ele>2260.8</ele><time>2011-04-24T00:30:18.0000000+00:00</time></trkpt><trkpt lat="22.327078" lon="103.781113"><ele>2262.8</ele><time>2011-04-24T00:30:23.0000000+00:00</time></trkpt><trkpt lat="22.32704" lon="103.78109"><ele>2263.7</ele><time>2011-04-24T00:30:28.0000000+00:00</time></trkpt><trkpt lat="22.326998" lon="103.781067"><ele>2263.8</ele><time>2011-04-24T00:30:33.0000000+00:00</time></trkpt><trkpt lat="22.326996" lon="103.781059"><ele>2263.8</ele><time>2011-04-24T00:30:38.0000000+00:00</time></trkpt><trkpt lat="22.326996" lon="103.781059"><ele>2263.7</ele><time>2011-04-24T00:30:43.0000000+00:00</time></trkpt><trkpt lat="22.326994" lon="103.781059"><ele>2263.8</ele><time>2011-04-24T00:30:48.0000000+00:00</time></trkpt><trkpt lat="22.326984" lon="103.781044"><ele>2264.0</ele><time>2011-04-24T00:30:53.0000000+00:00</time></trkpt><trkpt lat="22.326944" lon="103.780998"><ele>2264.1</ele><time>2011-04-24T00:30:58.0000000+00:00</time></trkpt><trkpt lat="22.326904" lon="103.78096"><ele>2264.7</ele><time>2011-04-24T00:31:03.0000000+00:00</time></trkpt><trkpt lat="22.326866" lon="103.780937"><ele>2266.2</ele><time>2011-04-24T00:31:08.0000000+00:00</time></trkpt><trkpt lat="22.326838" lon="103.780907"><ele>2266.9</ele><time>2011-04-24T00:31:13.0000000+00:00</time></trkpt><trkpt lat="22.326826" lon="103.780869"><ele>2268.3</ele><time>2011-04-24T00:31:18.0000000+00:00</time></trkpt><trkpt lat="22.326805" lon="103.780838"><ele>2269.3</ele><time>2011-04-24T00:31:23.0000000+00:00</time></trkpt><trkpt lat="22.326796" lon="103.780785"><ele>2270.0</ele><time>2011-04-24T00:31:28.0000000+00:00</time></trkpt><trkpt lat="22.326786" lon="103.780739"><ele>2271.3</ele><time>2011-04-24T00:31:33.0000000+00:00</time></trkpt><trkpt lat="22.326765" lon="103.780693"><ele>2271.2</ele><time>2011-04-24T00:31:38.0000000+00:00</time></trkpt><trkpt lat="22.326738" lon="103.780647"><ele>2271.3</ele><time>2011-04-24T00:31:43.0000000+00:00</time></trkpt><trkpt lat="22.326733" lon="103.780609"><ele>2272.1</ele><time>2011-04-24T00:31:48.0000000+00:00</time></trkpt><trkpt lat="22.326727" lon="103.780571"><ele>2272.7</ele><time>2011-04-24T00:31:53.0000000+00:00</time></trkpt><trkpt lat="22.326733" lon="103.780533"><ele>2274.1</ele><time>2011-04-24T00:31:58.0000000+00:00</time></trkpt><trkpt lat="22.326729" lon="103.780495"><ele>2275.1</ele><time>2011-04-24T00:32:03.0000000+00:00</time></trkpt><trkpt lat="22.326727" lon="103.780449"><ele>2276.3</ele><time>2011-04-24T00:32:08.0000000+00:00</time></trkpt><trkpt lat="22.326719" lon="103.780411"><ele>2277.5</ele><time>2011-04-24T00:32:13.0000000+00:00</time></trkpt><trkpt lat="22.326717" lon="103.78038"><ele>2278.6</ele><time>2011-04-24T00:32:18.0000000+00:00</time></trkpt><trkpt lat="22.326721" lon="103.780342"><ele>2280.0</ele><time>2011-04-24T00:32:23.0000000+00:00</time></trkpt><trkpt lat="22.326733" lon="103.780312"><ele>2280.8</ele><time>2011-04-24T00:32:28.0000000+00:00</time></trkpt><trkpt lat="22.326723" lon="103.780273"><ele>2281.3</ele><time>2011-04-24T00:32:33.0000000+00:00</time></trkpt><trkpt lat="22.326719" lon="103.780243"><ele>2281.7</ele><time>2011-04-24T00:32:38.0000000+00:00</time></trkpt><trkpt lat="22.326691" lon="103.780251"><ele>2281.7</ele><time>2011-04-24T00:32:43.0000000+00:00</time></trkpt><trkpt lat="22.326654" lon="103.780266"><ele>2281.9</ele><time>2011-04-24T00:32:48.0000000+00:00</time></trkpt><trkpt lat="22.326605" lon="103.780281"><ele>2282.0</ele><time>2011-04-24T00:32:53.0000000+00:00</time></trkpt><trkpt lat="22.326584" lon="103.780258"><ele>2283.5</ele><time>2011-04-24T00:32:58.0000000+00:00</time></trkpt><trkpt lat="22.326572" lon="103.780251"><ele>2284.5</ele><time>2011-04-24T00:33:03.0000000+00:00</time></trkpt><trkpt lat="22.326555" lon="103.78022"><ele>2286.1</ele><time>2011-04-24T00:33:08.0000000+00:00</time></trkpt><trkpt lat="22.326544" lon="103.780182"><ele>2287.3</ele><time>2011-04-24T00:33:13.0000000+00:00</time></trkpt><trkpt lat="22.326498" lon="103.780167"><ele>2288.5</ele><time>2011-04-24T00:33:18.0000000+00:00</time></trkpt><trkpt lat="22.326452" lon="103.780136"><ele>2289.3</ele><time>2011-04-24T00:33:23.0000000+00:00</time></trkpt><trkpt lat="22.32642" lon="103.780098"><ele>2289.6</ele><time>2011-04-24T00:33:28.0000000+00:00</time></trkpt><trkpt lat="22.326385" lon="103.780075"><ele>2290.2</ele><time>2011-04-24T00:33:33.0000000+00:00</time></trkpt><trkpt lat="22.326336" lon="103.780045"><ele>2290.2</ele><time>2011-04-24T00:33:38.0000000+00:00</time></trkpt><trkpt lat="22.326311" lon="103.780006"><ele>2291.3</ele><time>2011-04-24T00:33:43.0000000+00:00</time></trkpt><trkpt lat="22.326296" lon="103.779984"><ele>2293.0</ele><time>2011-04-24T00:33:48.0000000+00:00</time></trkpt><trkpt lat="22.326279" lon="103.77993"><ele>2294.2</ele><time>2011-04-24T00:33:53.0000000+00:00</time></trkpt><trkpt lat="22.326252" lon="103.779892"><ele>2295.0</ele><time>2011-04-24T00:33:58.0000000+00:00</time></trkpt><trkpt lat="22.326235" lon="103.779846"><ele>2295.1</ele><time>2011-04-24T00:34:03.0000000+00:00</time></trkpt><trkpt lat="22.326208" lon="103.779823"><ele>2296.3</ele><time>2011-04-24T00:34:08.0000000+00:00</time></trkpt><trkpt lat="22.326218" lon="103.779793"><ele>2297.5</ele><time>2011-04-24T00:34:13.0000000+00:00</time></trkpt><trkpt lat="22.326246" lon="103.779778"><ele>2298.6</ele><time>2011-04-24T00:34:18.0000000+00:00</time></trkpt><trkpt lat="22.326283" lon="103.779778"><ele>2300.2</ele><time>2011-04-24T00:34:23.0000000+00:00</time></trkpt><trkpt lat="22.326321" lon="103.779755"><ele>2301.8</ele><time>2011-04-24T00:34:28.0000000+00:00</time></trkpt><trkpt lat="22.326357" lon="103.779747"><ele>2305.7</ele><time>2011-04-24T00:34:33.0000000+00:00</time></trkpt><trkpt lat="22.326365" lon="103.779732"><ele>2307.2</ele><time>2011-04-24T00:34:38.0000000+00:00</time></trkpt><trkpt lat="22.326359" lon="103.779716"><ele>2308.0</ele><time>2011-04-24T00:34:43.0000000+00:00</time></trkpt><trkpt lat="22.32633" lon="103.779701"><ele>2308.9</ele><time>2011-04-24T00:34:48.0000000+00:00</time></trkpt><trkpt lat="22.326309" lon="103.779694"><ele>2309.8</ele><time>2011-04-24T00:34:53.0000000+00:00</time></trkpt><trkpt lat="22.326292" lon="103.779671"><ele>2310.8</ele><time>2011-04-24T00:34:58.0000000+00:00</time></trkpt><trkpt lat="22.32629" lon="103.779648"><ele>2311.5</ele><time>2011-04-24T00:35:03.0000000+00:00</time></trkpt><trkpt lat="22.326273" lon="103.779617"><ele>2312.5</ele><time>2011-04-24T00:35:08.0000000+00:00</time></trkpt><trkpt lat="22.326269" lon="103.77961"><ele>2313.2</ele><time>2011-04-24T00:35:13.0000000+00:00</time></trkpt><trkpt lat="22.326248" lon="103.779579"><ele>2313.2</ele><time>2011-04-24T00:35:18.0000000+00:00</time></trkpt><trkpt lat="22.326258" lon="103.779564"><ele>2314.9</ele><time>2011-04-24T00:35:23.0000000+00:00</time></trkpt><trkpt lat="22.326258" lon="103.779564"><ele>2315.7</ele><time>2011-04-24T00:35:28.0000000+00:00</time></trkpt><trkpt lat="22.326262" lon="103.779564"><ele>2315.7</ele><time>2011-04-24T00:35:33.0000000+00:00</time></trkpt><trkpt lat="22.326263" lon="103.779503"><ele>2317.2</ele><time>2011-04-24T00:35:38.0000000+00:00</time></trkpt><trkpt lat="22.326227" lon="103.779465"><ele>2317.3</ele><time>2011-04-24T00:35:43.0000000+00:00</time></trkpt><trkpt lat="22.326187" lon="103.779411"><ele>2318.3</ele><time>2011-04-24T00:35:48.0000000+00:00</time></trkpt><trkpt lat="22.326155" lon="103.779358"><ele>2319.4</ele><time>2011-04-24T00:35:53.0000000+00:00</time></trkpt><trkpt lat="22.326117" lon="103.779312"><ele>2320.6</ele><time>2011-04-24T00:35:58.0000000+00:00</time></trkpt><trkpt lat="22.326109" lon="103.779243"><ele>2322.3</ele><time>2011-04-24T00:36:03.0000000+00:00</time></trkpt><trkpt lat="22.326094" lon="103.779213"><ele>2323.1</ele><time>2011-04-24T00:36:08.0000000+00:00</time></trkpt><trkpt lat="22.326056" lon="103.77916"><ele>2325.2</ele><time>2011-04-24T00:36:13.0000000+00:00</time></trkpt><trkpt lat="22.326052" lon="103.779129"><ele>2327.2</ele><time>2011-04-24T00:36:18.0000000+00:00</time></trkpt><trkpt lat="22.326044" lon="103.779083"><ele>2328.7</ele><time>2011-04-24T00:36:23.0000000+00:00</time></trkpt><trkpt lat="22.326036" lon="103.77903"><ele>2330.4</ele><time>2011-04-24T00:36:28.0000000+00:00</time></trkpt><trkpt lat="22.32601" lon="103.778984"><ele>2332.4</ele><time>2011-04-24T00:36:33.0000000+00:00</time></trkpt><trkpt lat="22.326012" lon="103.778923"><ele>2333.7</ele><time>2011-04-24T00:36:38.0000000+00:00</time></trkpt><trkpt lat="22.326017" lon="103.778908"><ele>2332.7</ele><time>2011-04-24T00:36:43.0000000+00:00</time></trkpt><trkpt lat="22.32601" lon="103.778847"><ele>2333.4</ele><time>2011-04-24T00:36:48.0000000+00:00</time></trkpt><trkpt lat="22.326002" lon="103.778786"><ele>2334.1</ele><time>2011-04-24T00:36:53.0000000+00:00</time></trkpt><trkpt lat="22.325983" lon="103.77874"><ele>2334.6</ele><time>2011-04-24T00:36:58.0000000+00:00</time></trkpt><trkpt lat="22.32597" lon="103.778694"><ele>2336.0</ele><time>2011-04-24T00:37:03.0000000+00:00</time></trkpt><trkpt lat="22.325958" lon="103.778648"><ele>2337.8</ele><time>2011-04-24T00:37:08.0000000+00:00</time></trkpt><trkpt lat="22.32596" lon="103.778625"><ele>2336.3</ele><time>2011-04-24T00:37:13.0000000+00:00</time></trkpt><trkpt lat="22.325953" lon="103.778603"><ele>2336.8</ele><time>2011-04-24T00:37:18.0000000+00:00</time></trkpt><trkpt lat="22.325958" lon="103.778557"><ele>2337.5</ele><time>2011-04-24T00:37:23.0000000+00:00</time></trkpt><trkpt lat="22.32597" lon="103.778511"><ele>2335.7</ele><time>2011-04-24T00:37:28.0000000+00:00</time></trkpt><trkpt lat="22.325975" lon="103.778481"><ele>2334.8</ele><time>2011-04-24T00:37:33.0000000+00:00</time></trkpt><trkpt lat="22.325981" lon="103.778435"><ele>2336.0</ele><time>2011-04-24T00:37:38.0000000+00:00</time></trkpt><trkpt lat="22.325983" lon="103.778389"><ele>2337.0</ele><time>2011-04-24T00:37:43.0000000+00:00</time></trkpt><trkpt lat="22.325987" lon="103.778343"><ele>2338.2</ele><time>2011-04-24T00:37:48.0000000+00:00</time></trkpt><trkpt lat="22.325996" lon="103.77829"><ele>2337.9</ele><time>2011-04-24T00:37:53.0000000+00:00</time></trkpt><trkpt lat="22.326015" lon="103.778252"><ele>2338.5</ele><time>2011-04-24T00:37:58.0000000+00:00</time></trkpt><trkpt lat="22.326015" lon="103.778259"><ele>2338.5</ele><time>2011-04-24T00:38:03.0000000+00:00</time></trkpt><trkpt lat="22.326033" lon="103.778236"><ele>2337.7</ele><time>2011-04-24T00:38:08.0000000+00:00</time></trkpt><trkpt lat="22.326042" lon="103.778214"><ele>2336.1</ele><time>2011-04-24T00:38:13.0000000+00:00</time></trkpt><trkpt lat="22.326042" lon="103.778214"><ele>2336.0</ele><time>2011-04-24T00:38:18.0000000+00:00</time></trkpt><trkpt lat="22.326025" lon="103.778214"><ele>2334.7</ele><time>2011-04-24T00:38:23.0000000+00:00</time></trkpt><trkpt lat="22.326023" lon="103.778206"><ele>2334.3</ele><time>2011-04-24T00:38:28.0000000+00:00</time></trkpt><trkpt lat="22.326029" lon="103.778198"><ele>2334.2</ele><time>2011-04-24T00:38:33.0000000+00:00</time></trkpt><trkpt lat="22.326033" lon="103.778198"><ele>2333.8</ele><time>2011-04-24T00:38:38.0000000+00:00</time></trkpt><trkpt lat="22.326033" lon="103.778198"><ele>2333.8</ele><time>2011-04-24T00:38:43.0000000+00:00</time></trkpt><trkpt lat="22.326033" lon="103.778183"><ele>2333.8</ele><time>2011-04-24T00:38:48.0000000+00:00</time></trkpt><trkpt lat="22.326042" lon="103.778137"><ele>2333.0</ele><time>2011-04-24T00:38:53.0000000+00:00</time></trkpt><trkpt lat="22.326065" lon="103.778061"><ele>2332.8</ele><time>2011-04-24T00:38:58.0000000+00:00</time></trkpt><trkpt lat="22.326071" lon="103.778"><ele>2333.3</ele><time>2011-04-24T00:39:03.0000000+00:00</time></trkpt><trkpt lat="22.326069" lon="103.777916"><ele>2334.2</ele><time>2011-04-24T00:39:08.0000000+00:00</time></trkpt><trkpt lat="22.326057" lon="103.777847"><ele>2336.7</ele><time>2011-04-24T00:39:13.0000000+00:00</time></trkpt><trkpt lat="22.32604" lon="103.777786"><ele>2337.7</ele><time>2011-04-24T00:39:18.0000000+00:00</time></trkpt><trkpt lat="22.326042" lon="103.77771"><ele>2340.4</ele><time>2011-04-24T00:39:23.0000000+00:00</time></trkpt><trkpt lat="22.32604" lon="103.777634"><ele>2341.0</ele><time>2011-04-24T00:39:28.0000000+00:00</time></trkpt><trkpt lat="22.326029" lon="103.777573"><ele>2341.2</ele><time>2011-04-24T00:39:33.0000000+00:00</time></trkpt><trkpt lat="22.326019" lon="103.777512"><ele>2340.4</ele><time>2011-04-24T00:39:38.0000000+00:00</time></trkpt><trkpt lat="22.326019" lon="103.777466"><ele>2339.5</ele><time>2011-04-24T00:39:43.0000000+00:00</time></trkpt><trkpt lat="22.326019" lon="103.777412"><ele>2338.2</ele><time>2011-04-24T00:39:48.0000000+00:00</time></trkpt><trkpt lat="22.326054" lon="103.777344"><ele>2336.7</ele><time>2011-04-24T00:39:53.0000000+00:00</time></trkpt><trkpt lat="22.326086" lon="103.777283"><ele>2336.5</ele><time>2011-04-24T00:39:58.0000000+00:00</time></trkpt><trkpt lat="22.326126" lon="103.777229"><ele>2334.1</ele><time>2011-04-24T00:40:03.0000000+00:00</time></trkpt><trkpt lat="22.326145" lon="103.777191"><ele>2332.3</ele><time>2011-04-24T00:40:08.0000000+00:00</time></trkpt><trkpt lat="22.326185" lon="103.777153"><ele>2330.5</ele><time>2011-04-24T00:40:13.0000000+00:00</time></trkpt><trkpt lat="22.326214" lon="103.77713"><ele>2329.3</ele><time>2011-04-24T00:40:18.0000000+00:00</time></trkpt><trkpt lat="22.326244" lon="103.777092"><ele>2328.8</ele><time>2011-04-24T00:40:23.0000000+00:00</time></trkpt><trkpt lat="22.326267" lon="103.777031"><ele>2328.1</ele><time>2011-04-24T00:40:28.0000000+00:00</time></trkpt><trkpt lat="22.326284" lon="103.776955"><ele>2328.0</ele><time>2011-04-24T00:40:33.0000000+00:00</time></trkpt><trkpt lat="22.326321" lon="103.776894"><ele>2329.3</ele><time>2011-04-24T00:40:38.0000000+00:00</time></trkpt><trkpt lat="22.326349" lon="103.776848"><ele>2331.3</ele><time>2011-04-24T00:40:43.0000000+00:00</time></trkpt><trkpt lat="22.32637" lon="103.776817"><ele>2333.1</ele><time>2011-04-24T00:40:48.0000000+00:00</time></trkpt><trkpt lat="22.326399" lon="103.776817"><ele>2335.5</ele><time>2011-04-24T00:40:53.0000000+00:00</time></trkpt><trkpt lat="22.326429" lon="103.776794"><ele>2336.8</ele><time>2011-04-24T00:40:58.0000000+00:00</time></trkpt><trkpt lat="22.326466" lon="103.776787"><ele>2337.8</ele><time>2011-04-24T00:41:03.0000000+00:00</time></trkpt><trkpt lat="22.326496" lon="103.776779"><ele>2339.8</ele><time>2011-04-24T00:41:08.0000000+00:00</time></trkpt><trkpt lat="22.32653" lon="103.776779"><ele>2341.9</ele><time>2011-04-24T00:41:13.0000000+00:00</time></trkpt><trkpt lat="22.326563" lon="103.776779"><ele>2343.3</ele><time>2011-04-24T00:41:18.0000000+00:00</time></trkpt><trkpt lat="22.326597" lon="103.776779"><ele>2344.8</ele><time>2011-04-24T00:41:23.0000000+00:00</time></trkpt><trkpt lat="22.326633" lon="103.776787"><ele>2346.1</ele><time>2011-04-24T00:41:28.0000000+00:00</time></trkpt><trkpt lat="22.326653" lon="103.776779"><ele>2346.3</ele><time>2011-04-24T00:41:33.0000000+00:00</time></trkpt><trkpt lat="22.326662" lon="103.776741"><ele>2346.0</ele><time>2011-04-24T00:41:38.0000000+00:00</time></trkpt><trkpt lat="22.326689" lon="103.776718"><ele>2347.1</ele><time>2011-04-24T00:41:43.0000000+00:00</time></trkpt><trkpt lat="22.326706" lon="103.776695"><ele>2348.7</ele><time>2011-04-24T00:41:48.0000000+00:00</time></trkpt><trkpt lat="22.326746" lon="103.776665"><ele>2349.3</ele><time>2011-04-24T00:41:53.0000000+00:00</time></trkpt><trkpt lat="22.326788" lon="103.776649"><ele>2350.5</ele><time>2011-04-24T00:41:58.0000000+00:00</time></trkpt><trkpt lat="22.32682" lon="103.776627"><ele>2350.8</ele><time>2011-04-24T00:42:03.0000000+00:00</time></trkpt><trkpt lat="22.326845" lon="103.776596"><ele>2351.0</ele><time>2011-04-24T00:42:08.0000000+00:00</time></trkpt><trkpt lat="22.326859" lon="103.776558"><ele>2351.7</ele><time>2011-04-24T00:42:13.0000000+00:00</time></trkpt><trkpt lat="22.326899" lon="103.776512"><ele>2351.2</ele><time>2011-04-24T00:42:18.0000000+00:00</time></trkpt><trkpt lat="22.326923" lon="103.776474"><ele>2351.8</ele><time>2011-04-24T00:42:23.0000000+00:00</time></trkpt><trkpt lat="22.326939" lon="103.776436"><ele>2351.8</ele><time>2011-04-24T00:42:28.0000000+00:00</time></trkpt><trkpt lat="22.326941" lon="103.776398"><ele>2351.6</ele><time>2011-04-24T00:42:33.0000000+00:00</time></trkpt><trkpt lat="22.326935" lon="103.776352"><ele>2350.3</ele><time>2011-04-24T00:42:38.0000000+00:00</time></trkpt><trkpt lat="22.326929" lon="103.776306"><ele>2348.2</ele><time>2011-04-24T00:42:43.0000000+00:00</time></trkpt><trkpt lat="22.326921" lon="103.776268"><ele>2347.5</ele><time>2011-04-24T00:42:48.0000000+00:00</time></trkpt><trkpt lat="22.326918" lon="103.776215"><ele>2346.0</ele><time>2011-04-24T00:42:53.0000000+00:00</time></trkpt><trkpt lat="22.32691" lon="103.776161"><ele>2346.6</ele><time>2011-04-24T00:42:58.0000000+00:00</time></trkpt><trkpt lat="22.32691" lon="103.776115"><ele>2346.4</ele><time>2011-04-24T00:43:03.0000000+00:00</time></trkpt><trkpt lat="22.326927" lon="103.776047"><ele>2345.4</ele><time>2011-04-24T00:43:08.0000000+00:00</time></trkpt><trkpt lat="22.326883" lon="103.776009"><ele>2344.3</ele><time>2011-04-24T00:43:13.0000000+00:00</time></trkpt><trkpt lat="22.326872" lon="103.77597"><ele>2343.5</ele><time>2011-04-24T00:43:18.0000000+00:00</time></trkpt><trkpt lat="22.326897" lon="103.775902"><ele>2343.1</ele><time>2011-04-24T00:43:23.0000000+00:00</time></trkpt><trkpt lat="22.326906" lon="103.775833"><ele>2343.3</ele><time>2011-04-24T00:43:28.0000000+00:00</time></trkpt><trkpt lat="22.32691" lon="103.775772"><ele>2343.8</ele><time>2011-04-24T00:43:33.0000000+00:00</time></trkpt><trkpt lat="22.326923" lon="103.775742"><ele>2344.8</ele><time>2011-04-24T00:43:38.0000000+00:00</time></trkpt><trkpt lat="22.326918" lon="103.775711"><ele>2346.3</ele><time>2011-04-24T00:43:43.0000000+00:00</time></trkpt><trkpt lat="22.326908" lon="103.775681"><ele>2347.1</ele><time>2011-04-24T00:43:48.0000000+00:00</time></trkpt><trkpt lat="22.326904" lon="103.775642"><ele>2348.5</ele><time>2011-04-24T00:43:53.0000000+00:00</time></trkpt><trkpt lat="22.326895" lon="103.775604"><ele>2349.5</ele><time>2011-04-24T00:43:58.0000000+00:00</time></trkpt><trkpt lat="22.326906" lon="103.775558"><ele>2350.9</ele><time>2011-04-24T00:44:03.0000000+00:00</time></trkpt><trkpt lat="22.326929" lon="103.775513"><ele>2351.8</ele><time>2011-04-24T00:44:08.0000000+00:00</time></trkpt><trkpt lat="22.326942" lon="103.775459"><ele>2351.1</ele><time>2011-04-24T00:44:13.0000000+00:00</time></trkpt><trkpt lat="22.326946" lon="103.775406"><ele>2350.5</ele><time>2011-04-24T00:44:18.0000000+00:00</time></trkpt><trkpt lat="22.32696" lon="103.775368"><ele>2351.3</ele><time>2011-04-24T00:44:23.0000000+00:00</time></trkpt><trkpt lat="22.326952" lon="103.775345"><ele>2351.5</ele><time>2011-04-24T00:44:28.0000000+00:00</time></trkpt><trkpt lat="22.326962" lon="103.775307"><ele>2353.0</ele><time>2011-04-24T00:44:33.0000000+00:00</time></trkpt><trkpt lat="22.326952" lon="103.775269"><ele>2354.0</ele><time>2011-04-24T00:44:38.0000000+00:00</time></trkpt><trkpt lat="22.326963" lon="103.775223"><ele>2354.7</ele><time>2011-04-24T00:44:43.0000000+00:00</time></trkpt><trkpt lat="22.326994" lon="103.775185"><ele>2356.0</ele><time>2011-04-24T00:44:48.0000000+00:00</time></trkpt><trkpt lat="22.327024" lon="103.775162"><ele>2357.1</ele><time>2011-04-24T00:44:53.0000000+00:00</time></trkpt><trkpt lat="22.327026" lon="103.775139"><ele>2357.7</ele><time>2011-04-24T00:44:58.0000000+00:00</time></trkpt><trkpt lat="22.327013" lon="103.775101"><ele>2358.4</ele><time>2011-04-24T00:45:03.0000000+00:00</time></trkpt><trkpt lat="22.327009" lon="103.77507"><ele>2359.7</ele><time>2011-04-24T00:45:08.0000000+00:00</time></trkpt><trkpt lat="22.327015" lon="103.775047"><ele>2360.7</ele><time>2011-04-24T00:45:13.0000000+00:00</time></trkpt><trkpt lat="22.327009" lon="103.775032"><ele>2361.8</ele><time>2011-04-24T00:45:18.0000000+00:00</time></trkpt><trkpt lat="22.327005" lon="103.775009"><ele>2361.0</ele><time>2011-04-24T00:45:23.0000000+00:00</time></trkpt><trkpt lat="22.326994" lon="103.774971"><ele>2362.5</ele><time>2011-04-24T00:45:28.0000000+00:00</time></trkpt><trkpt lat="22.327" lon="103.774933"><ele>2363.5</ele><time>2011-04-24T00:45:33.0000000+00:00</time></trkpt><trkpt lat="22.327" lon="103.774902"><ele>2363.8</ele><time>2011-04-24T00:45:38.0000000+00:00</time></trkpt><trkpt lat="22.326998" lon="103.774857"><ele>2364.6</ele><time>2011-04-24T00:45:43.0000000+00:00</time></trkpt><trkpt lat="22.327" lon="103.774849"><ele>2364.7</ele><time>2011-04-24T00:45:48.0000000+00:00</time></trkpt><trkpt lat="22.326996" lon="103.774834"><ele>2365.0</ele><time>2011-04-24T00:45:53.0000000+00:00</time></trkpt><trkpt lat="22.327005" lon="103.774796"><ele>2365.4</ele><time>2011-04-24T00:45:58.0000000+00:00</time></trkpt><trkpt lat="22.327015" lon="103.774757"><ele>2365.1</ele><time>2011-04-24T00:46:03.0000000+00:00</time></trkpt><trkpt lat="22.327013" lon="103.774765"><ele>2365.0</ele><time>2011-04-24T00:46:08.0000000+00:00</time></trkpt><trkpt lat="22.327015" lon="103.774765"><ele>2365.2</ele><time>2011-04-24T00:46:13.0000000+00:00</time></trkpt><trkpt lat="22.327019" lon="103.774757"><ele>2365.8</ele><time>2011-04-24T00:46:18.0000000+00:00</time></trkpt><trkpt lat="22.327019" lon="103.774757"><ele>2365.9</ele><time>2011-04-24T00:46:23.0000000+00:00</time></trkpt><trkpt lat="22.327017" lon="103.774757"><ele>2366.0</ele><time>2011-04-24T00:46:28.0000000+00:00</time></trkpt><trkpt lat="22.327017" lon="103.774757"><ele>2366.0</ele><time>2011-04-24T00:46:33.0000000+00:00</time></trkpt><trkpt lat="22.327017" lon="103.774757"><ele>2366.0</ele><time>2011-04-24T00:46:38.0000000+00:00</time></trkpt><trkpt lat="22.327017" lon="103.774757"><ele>2366.0</ele><time>2011-04-24T00:46:43.0000000+00:00</time></trkpt><trkpt lat="22.327017" lon="103.774757"><ele>2366.0</ele><time>2011-04-24T00:46:48.0000000+00:00</time></trkpt><trkpt lat="22.327017" lon="103.774757"><ele>2366.1</ele><time>2011-04-24T00:46:53.0000000+00:00</time></trkpt><trkpt lat="22.327017" lon="103.774757"><ele>2366.1</ele><time>2011-04-24T00:46:58.0000000+00:00</time></trkpt><trkpt lat="22.327017" lon="103.774757"><ele>2366.1</ele><time>2011-04-24T00:47:03.0000000+00:00</time></trkpt><trkpt lat="22.327017" lon="103.774757"><ele>2366.1</ele><time>2011-04-24T00:47:08.0000000+00:00</time></trkpt><trkpt lat="22.327017" lon="103.774757"><ele>2366.2</ele><time>2011-04-24T00:47:13.0000000+00:00</time></trkpt><trkpt lat="22.327017" lon="103.774757"><ele>2366.2</ele><time>2011-04-24T00:47:18.0000000+00:00</time></trkpt><trkpt lat="22.327017" lon="103.774757"><ele>2366.2</ele><time>2011-04-24T00:47:23.0000000+00:00</time></trkpt><trkpt lat="22.327017" lon="103.774757"><ele>2366.2</ele><time>2011-04-24T00:47:28.0000000+00:00</time></trkpt><trkpt lat="22.327017" lon="103.774757"><ele>2366.2</ele><time>2011-04-24T00:47:33.0000000+00:00</time></trkpt><trkpt lat="22.327017" lon="103.774757"><ele>2366.2</ele><time>2011-04-24T00:47:38.0000000+00:00</time></trkpt><trkpt lat="22.327017" lon="103.774757"><ele>2366.2</ele><time>2011-04-24T00:47:43.0000000+00:00</time></trkpt><trkpt lat="22.327017" lon="103.774757"><ele>2366.2</ele><time>2011-04-24T00:47:48.0000000+00:00</time></trkpt><trkpt lat="22.327019" lon="103.774757"><ele>2366.2</ele><time>2011-04-24T00:47:53.0000000+00:00</time></trkpt><trkpt lat="22.327019" lon="103.774757"><ele>2366.2</ele><time>2011-04-24T00:47:58.0000000+00:00</time></trkpt><trkpt lat="22.327017" lon="103.774757"><ele>2366.2</ele><time>2011-04-24T00:48:03.0000000+00:00</time></trkpt><trkpt lat="22.327017" lon="103.774757"><ele>2366.2</ele><time>2011-04-24T00:48:08.0000000+00:00</time></trkpt><trkpt lat="22.327017" lon="103.774757"><ele>2366.2</ele><time>2011-04-24T00:48:13.0000000+00:00</time></trkpt><trkpt lat="22.327017" lon="103.774757"><ele>2366.2</ele><time>2011-04-24T00:48:18.0000000+00:00</time></trkpt><trkpt lat="22.327017" lon="103.774757"><ele>2366.2</ele><time>2011-04-24T00:48:23.0000000+00:00</time></trkpt><trkpt lat="22.327017" lon="103.774757"><ele>2366.2</ele><time>2011-04-24T00:48:28.0000000+00:00</time></trkpt><trkpt lat="22.327017" lon="103.774757"><ele>2366.2</ele><time>2011-04-24T00:48:33.0000000+00:00</time></trkpt><trkpt lat="22.327017" lon="103.774757"><ele>2366.2</ele><time>2011-04-24T00:48:38.0000000+00:00</time></trkpt><trkpt lat="22.327017" lon="103.774757"><ele>2366.2</ele><time>2011-04-24T00:48:43.0000000+00:00</time></trkpt><trkpt lat="22.327017" lon="103.774757"><ele>2366.2</ele><time>2011-04-24T00:48:48.0000000+00:00</time></trkpt><trkpt lat="22.327017" lon="103.774757"><ele>2366.2</ele><time>2011-04-24T00:48:53.0000000+00:00</time></trkpt><trkpt lat="22.327017" lon="103.774757"><ele>2366.2</ele><time>2011-04-24T00:48:58.0000000+00:00</time></trkpt><trkpt lat="22.327017" lon="103.774757"><ele>2366.2</ele><time>2011-04-24T00:49:03.0000000+00:00</time></trkpt><trkpt lat="22.327017" lon="103.774757"><ele>2366.2</ele><time>2011-04-24T00:49:08.0000000+00:00</time></trkpt><trkpt lat="22.327017" lon="103.774757"><ele>2366.2</ele><time>2011-04-24T00:49:13.0000000+00:00</time></trkpt><trkpt lat="22.327017" lon="103.774757"><ele>2366.2</ele><time>2011-04-24T00:49:18.0000000+00:00</time></trkpt><trkpt lat="22.327017" lon="103.774757"><ele>2366.2</ele><time>2011-04-24T00:49:23.0000000+00:00</time></trkpt><trkpt lat="22.327017" lon="103.774757"><ele>2366.2</ele><time>2011-04-24T00:49:28.0000000+00:00</time></trkpt><trkpt lat="22.327017" lon="103.774757"><ele>2366.2</ele><time>2011-04-24T00:49:33.0000000+00:00</time></trkpt><trkpt lat="22.327017" lon="103.774757"><ele>2366.2</ele><time>2011-04-24T00:49:38.0000000+00:00</time></trkpt><trkpt lat="22.327017" lon="103.774757"><ele>2366.2</ele><time>2011-04-24T00:49:43.0000000+00:00</time></trkpt><trkpt lat="22.327017" lon="103.774757"><ele>2366.2</ele><time>2011-04-24T00:49:48.0000000+00:00</time></trkpt><trkpt lat="22.327017" lon="103.774757"><ele>2366.2</ele><time>2011-04-24T00:49:53.0000000+00:00</time></trkpt><trkpt lat="22.327017" lon="103.774757"><ele>2366.3</ele><time>2011-04-24T00:49:58.0000000+00:00</time></trkpt><trkpt lat="22.327017" lon="103.774757"><ele>2366.3</ele><time>2011-04-24T00:50:03.0000000+00:00</time></trkpt><trkpt lat="22.327017" lon="103.774757"><ele>2366.3</ele><time>2011-04-24T00:50:08.0000000+00:00</time></trkpt><trkpt lat="22.327017" lon="103.774757"><ele>2366.3</ele><time>2011-04-24T00:50:13.0000000+00:00</time></trkpt><trkpt lat="22.327017" lon="103.774757"><ele>2366.3</ele><time>2011-04-24T00:50:18.0000000+00:00</time></trkpt><trkpt lat="22.327017" lon="103.774757"><ele>2366.3</ele><time>2011-04-24T00:50:23.0000000+00:00</time></trkpt><trkpt lat="22.327017" lon="103.774757"><ele>2366.3</ele><time>2011-04-24T00:50:28.0000000+00:00</time></trkpt><trkpt lat="22.327017" lon="103.774757"><ele>2366.3</ele><time>2011-04-24T00:50:33.0000000+00:00</time></trkpt><trkpt lat="22.327017" lon="103.774757"><ele>2366.3</ele><time>2011-04-24T00:50:38.0000000+00:00</time></trkpt><trkpt lat="22.327017" lon="103.77475"><ele>2366.3</ele><time>2011-04-24T00:50:43.0000000+00:00</time></trkpt><trkpt lat="22.327017" lon="103.77475"><ele>2366.3</ele><time>2011-04-24T00:50:48.0000000+00:00</time></trkpt><trkpt lat="22.327017" lon="103.77475"><ele>2366.3</ele><time>2011-04-24T00:50:53.0000000+00:00</time></trkpt><trkpt lat="22.327017" lon="103.77475"><ele>2366.3</ele><time>2011-04-24T00:50:58.0000000+00:00</time></trkpt><trkpt lat="22.327017" lon="103.77475"><ele>2366.4</ele><time>2011-04-24T00:51:03.0000000+00:00</time></trkpt><trkpt lat="22.327017" lon="103.77475"><ele>2366.3</ele><time>2011-04-24T00:51:08.0000000+00:00</time></trkpt><trkpt lat="22.327017" lon="103.77475"><ele>2366.4</ele><time>2011-04-24T00:51:13.0000000+00:00</time></trkpt><trkpt lat="22.327017" lon="103.77475"><ele>2366.4</ele><time>2011-04-24T00:51:18.0000000+00:00</time></trkpt><trkpt lat="22.327017" lon="103.77475"><ele>2366.4</ele><time>2011-04-24T00:51:23.0000000+00:00</time></trkpt><trkpt lat="22.327017" lon="103.77475"><ele>2366.4</ele><time>2011-04-24T00:51:28.0000000+00:00</time></trkpt><trkpt lat="22.327017" lon="103.77475"><ele>2366.4</ele><time>2011-04-24T00:51:33.0000000+00:00</time></trkpt><trkpt lat="22.327017" lon="103.77475"><ele>2366.4</ele><time>2011-04-24T00:51:38.0000000+00:00</time></trkpt><trkpt lat="22.327017" lon="103.77475"><ele>2366.4</ele><time>2011-04-24T00:51:43.0000000+00:00</time></trkpt><trkpt lat="22.327017" lon="103.77475"><ele>2366.4</ele><time>2011-04-24T00:51:48.0000000+00:00</time></trkpt><trkpt lat="22.327017" lon="103.77475"><ele>2366.4</ele><time>2011-04-24T00:51:53.0000000+00:00</time></trkpt><trkpt lat="22.327017" lon="103.77475"><ele>2366.4</ele><time>2011-04-24T00:51:58.0000000+00:00</time></trkpt><trkpt lat="22.327017" lon="103.77475"><ele>2366.4</ele><time>2011-04-24T00:52:03.0000000+00:00</time></trkpt><trkpt lat="22.327017" lon="103.77475"><ele>2366.4</ele><time>2011-04-24T00:52:08.0000000+00:00</time></trkpt><trkpt lat="22.327017" lon="103.77475"><ele>2366.4</ele><time>2011-04-24T00:52:13.0000000+00:00</time></trkpt><trkpt lat="22.327017" lon="103.77475"><ele>2366.4</ele><time>2011-04-24T00:52:18.0000000+00:00</time></trkpt><trkpt lat="22.327017" lon="103.77475"><ele>2366.4</ele><time>2011-04-24T00:52:23.0000000+00:00</time></trkpt><trkpt lat="22.327015" lon="103.77475"><ele>2366.4</ele><time>2011-04-24T00:52:28.0000000+00:00</time></trkpt><trkpt lat="22.327015" lon="103.77475"><ele>2366.4</ele><time>2011-04-24T00:52:33.0000000+00:00</time></trkpt><trkpt lat="22.327015" lon="103.77475"><ele>2366.4</ele><time>2011-04-24T00:52:38.0000000+00:00</time></trkpt><trkpt lat="22.327015" lon="103.77475"><ele>2366.5</ele><time>2011-04-24T00:52:43.0000000+00:00</time></trkpt><trkpt lat="22.327017" lon="103.77475"><ele>2366.4</ele><time>2011-04-24T00:52:48.0000000+00:00</time></trkpt><trkpt lat="22.327017" lon="103.77475"><ele>2366.4</ele><time>2011-04-24T00:52:53.0000000+00:00</time></trkpt><trkpt lat="22.327017" lon="103.77475"><ele>2366.4</ele><time>2011-04-24T00:52:58.0000000+00:00</time></trkpt><trkpt lat="22.327017" lon="103.77475"><ele>2366.4</ele><time>2011-04-24T00:53:03.0000000+00:00</time></trkpt><trkpt lat="22.327017" lon="103.77475"><ele>2366.4</ele><time>2011-04-24T00:53:08.0000000+00:00</time></trkpt><trkpt lat="22.327017" lon="103.77475"><ele>2366.3</ele><time>2011-04-24T00:53:13.0000000+00:00</time></trkpt><trkpt lat="22.327017" lon="103.77475"><ele>2366.3</ele><time>2011-04-24T00:53:18.0000000+00:00</time></trkpt><trkpt lat="22.327017" lon="103.77475"><ele>2366.3</ele><time>2011-04-24T00:53:23.0000000+00:00</time></trkpt><trkpt lat="22.327017" lon="103.77475"><ele>2366.3</ele><time>2011-04-24T00:53:28.0000000+00:00</time></trkpt><trkpt lat="22.327017" lon="103.77475"><ele>2366.3</ele><time>2011-04-24T00:53:33.0000000+00:00</time></trkpt><trkpt lat="22.327017" lon="103.77475"><ele>2366.3</ele><time>2011-04-24T00:53:38.0000000+00:00</time></trkpt><trkpt lat="22.327017" lon="103.77475"><ele>2366.3</ele><time>2011-04-24T00:53:43.0000000+00:00</time></trkpt><trkpt lat="22.327017" lon="103.77475"><ele>2366.3</ele><time>2011-04-24T00:53:48.0000000+00:00</time></trkpt><trkpt lat="22.327017" lon="103.77475"><ele>2366.3</ele><time>2011-04-24T00:53:53.0000000+00:00</time></trkpt><trkpt lat="22.327017" lon="103.77475"><ele>2366.3</ele><time>2011-04-24T00:53:58.0000000+00:00</time></trkpt><trkpt lat="22.327017" lon="103.77475"><ele>2366.2</ele><time>2011-04-24T00:54:03.0000000+00:00</time></trkpt><trkpt lat="22.327017" lon="103.77475"><ele>2366.2</ele><time>2011-04-24T00:54:08.0000000+00:00</time></trkpt><trkpt lat="22.327017" lon="103.77475"><ele>2366.2</ele><time>2011-04-24T00:54:13.0000000+00:00</time></trkpt><trkpt lat="22.327017" lon="103.77475"><ele>2366.2</ele><time>2011-04-24T00:54:18.0000000+00:00</time></trkpt><trkpt lat="22.327017" lon="103.77475"><ele>2366.2</ele><time>2011-04-24T00:54:23.0000000+00:00</time></trkpt><trkpt lat="22.327017" lon="103.77475"><ele>2366.2</ele><time>2011-04-24T00:54:28.0000000+00:00</time></trkpt><trkpt lat="22.327017" lon="103.77475"><ele>2366.2</ele><time>2011-04-24T00:54:33.0000000+00:00</time></trkpt><trkpt lat="22.327017" lon="103.77475"><ele>2366.2</ele><time>2011-04-24T00:54:38.0000000+00:00</time></trkpt><trkpt lat="22.327017" lon="103.77475"><ele>2366.2</ele><time>2011-04-24T00:54:43.0000000+00:00</time></trkpt><trkpt lat="22.327017" lon="103.77475"><ele>2366.2</ele><time>2011-04-24T00:54:48.0000000+00:00</time></trkpt><trkpt lat="22.327017" lon="103.77475"><ele>2366.2</ele><time>2011-04-24T00:54:53.0000000+00:00</time></trkpt><trkpt lat="22.327017" lon="103.77475"><ele>2366.2</ele><time>2011-04-24T00:54:58.0000000+00:00</time></trkpt><trkpt lat="22.327017" lon="103.77475"><ele>2366.2</ele><time>2011-04-24T00:55:03.0000000+00:00</time></trkpt><trkpt lat="22.327017" lon="103.77475"><ele>2366.2</ele><time>2011-04-24T00:55:08.0000000+00:00</time></trkpt><trkpt lat="22.327017" lon="103.77475"><ele>2366.2</ele><time>2011-04-24T00:55:13.0000000+00:00</time></trkpt><trkpt lat="22.327017" lon="103.77475"><ele>2366.2</ele><time>2011-04-24T00:55:18.0000000+00:00</time></trkpt><trkpt lat="22.327017" lon="103.77475"><ele>2366.2</ele><time>2011-04-24T00:55:23.0000000+00:00</time></trkpt><trkpt lat="22.327017" lon="103.77475"><ele>2366.2</ele><time>2011-04-24T00:55:28.0000000+00:00</time></trkpt><trkpt lat="22.327017" lon="103.77475"><ele>2366.2</ele><time>2011-04-24T00:55:33.0000000+00:00</time></trkpt><trkpt lat="22.327017" lon="103.77475"><ele>2366.1</ele><time>2011-04-24T00:55:38.0000000+00:00</time></trkpt><trkpt lat="22.327017" lon="103.77475"><ele>2366.1</ele><time>2011-04-24T00:55:43.0000000+00:00</time></trkpt><trkpt lat="22.327017" lon="103.77475"><ele>2366.1</ele><time>2011-04-24T00:55:48.0000000+00:00</time></trkpt><trkpt lat="22.327009" lon="103.774719"><ele>2366.7</ele><time>2011-04-24T00:55:53.0000000+00:00</time></trkpt><trkpt lat="22.327007" lon="103.774712"><ele>2366.8</ele><time>2011-04-24T00:55:58.0000000+00:00</time></trkpt><trkpt lat="22.326992" lon="103.774673"><ele>2367.1</ele><time>2011-04-24T00:56:03.0000000+00:00</time></trkpt><trkpt lat="22.326977" lon="103.774612"><ele>2367.1</ele><time>2011-04-24T00:56:08.0000000+00:00</time></trkpt><trkpt lat="22.326954" lon="103.774544"><ele>2366.2</ele><time>2011-04-24T00:56:13.0000000+00:00</time></trkpt><trkpt lat="22.326944" lon="103.774483"><ele>2366.7</ele><time>2011-04-24T00:56:18.0000000+00:00</time></trkpt><trkpt lat="22.326918" lon="103.774437"><ele>2366.5</ele><time>2011-04-24T00:56:23.0000000+00:00</time></trkpt><trkpt lat="22.326902" lon="103.774391"><ele>2366.6</ele><time>2011-04-24T00:56:28.0000000+00:00</time></trkpt><trkpt lat="22.326885" lon="103.77433"><ele>2367.3</ele><time>2011-04-24T00:56:33.0000000+00:00</time></trkpt><trkpt lat="22.326887" lon="103.774292"><ele>2367.8</ele><time>2011-04-24T00:56:38.0000000+00:00</time></trkpt><trkpt lat="22.326885" lon="103.774231"><ele>2368.5</ele><time>2011-04-24T00:56:43.0000000+00:00</time></trkpt><trkpt lat="22.326883" lon="103.774185"><ele>2369.7</ele><time>2011-04-24T00:56:48.0000000+00:00</time></trkpt><trkpt lat="22.32687" lon="103.77417"><ele>2371.5</ele><time>2011-04-24T00:56:53.0000000+00:00</time></trkpt><trkpt lat="22.326853" lon="103.774139"><ele>2372.3</ele><time>2011-04-24T00:56:58.0000000+00:00</time></trkpt><trkpt lat="22.326834" lon="103.774094"><ele>2372.5</ele><time>2011-04-24T00:57:03.0000000+00:00</time></trkpt><trkpt lat="22.326828" lon="103.774071"><ele>2372.9</ele><time>2011-04-24T00:57:08.0000000+00:00</time></trkpt><trkpt lat="22.32682" lon="103.774048"><ele>2373.5</ele><time>2011-04-24T00:57:13.0000000+00:00</time></trkpt><trkpt lat="22.326796" lon="103.77401"><ele>2374.4</ele><time>2011-04-24T00:57:18.0000000+00:00</time></trkpt><trkpt lat="22.326771" lon="103.773964"><ele>2373.9</ele><time>2011-04-24T00:57:23.0000000+00:00</time></trkpt><trkpt lat="22.326736" lon="103.773911"><ele>2372.8</ele><time>2011-04-24T00:57:28.0000000+00:00</time></trkpt><trkpt lat="22.326712" lon="103.773872"><ele>2371.6</ele><time>2011-04-24T00:57:33.0000000+00:00</time></trkpt><trkpt lat="22.326675" lon="103.773842"><ele>2371.0</ele><time>2011-04-24T00:57:38.0000000+00:00</time></trkpt><trkpt lat="22.326656" lon="103.773773"><ele>2370.5</ele><time>2011-04-24T00:57:43.0000000+00:00</time></trkpt><trkpt lat="22.326653" lon="103.773727"><ele>2369.7</ele><time>2011-04-24T00:57:48.0000000+00:00</time></trkpt><trkpt lat="22.326639" lon="103.773689"><ele>2368.0</ele><time>2011-04-24T00:57:53.0000000+00:00</time></trkpt><trkpt lat="22.326637" lon="103.773659"><ele>2367.5</ele><time>2011-04-24T00:57:58.0000000+00:00</time></trkpt><trkpt lat="22.326618" lon="103.773582"><ele>2367.2</ele><time>2011-04-24T00:58:03.0000000+00:00</time></trkpt><trkpt lat="22.326632" lon="103.773529"><ele>2367.1</ele><time>2011-04-24T00:58:08.0000000+00:00</time></trkpt><trkpt lat="22.326624" lon="103.773491"><ele>2367.0</ele><time>2011-04-24T00:58:13.0000000+00:00</time></trkpt><trkpt lat="22.32659" lon="103.77343"><ele>2366.9</ele><time>2011-04-24T00:58:18.0000000+00:00</time></trkpt><trkpt lat="22.326572" lon="103.773369"><ele>2365.6</ele><time>2011-04-24T00:58:23.0000000+00:00</time></trkpt><trkpt lat="22.326563" lon="103.7733"><ele>2365.3</ele><time>2011-04-24T00:58:28.0000000+00:00</time></trkpt><trkpt lat="22.326544" lon="103.773254"><ele>2364.2</ele><time>2011-04-24T00:58:33.0000000+00:00</time></trkpt><trkpt lat="22.326559" lon="103.773201"><ele>2362.0</ele><time>2011-04-24T00:58:38.0000000+00:00</time></trkpt><trkpt lat="22.326576" lon="103.77314"><ele>2359.7</ele><time>2011-04-24T00:58:43.0000000+00:00</time></trkpt><trkpt lat="22.326605" lon="103.773071"><ele>2359.2</ele><time>2011-04-24T00:58:48.0000000+00:00</time></trkpt><trkpt lat="22.32663" lon="103.772995"><ele>2359.8</ele><time>2011-04-24T00:58:53.0000000+00:00</time></trkpt><trkpt lat="22.326654" lon="103.772926"><ele>2359.4</ele><time>2011-04-24T00:58:58.0000000+00:00</time></trkpt><trkpt lat="22.326643" lon="103.772865"><ele>2358.7</ele><time>2011-04-24T00:59:03.0000000+00:00</time></trkpt><trkpt lat="22.326641" lon="103.772812"><ele>2358.1</ele><time>2011-04-24T00:59:08.0000000+00:00</time></trkpt><trkpt lat="22.326632" lon="103.772751"><ele>2357.5</ele><time>2011-04-24T00:59:13.0000000+00:00</time></trkpt><trkpt lat="22.326637" lon="103.772682"><ele>2356.0</ele><time>2011-04-24T00:59:18.0000000+00:00</time></trkpt><trkpt lat="22.326637" lon="103.772652"><ele>2355.0</ele><time>2011-04-24T00:59:23.0000000+00:00</time></trkpt><trkpt lat="22.32659" lon="103.772621"><ele>2351.8</ele><time>2011-04-24T00:59:28.0000000+00:00</time></trkpt><trkpt lat="22.326551" lon="103.772636"><ele>2350.8</ele><time>2011-04-24T00:59:33.0000000+00:00</time></trkpt><trkpt lat="22.326513" lon="103.772644"><ele>2351.3</ele><time>2011-04-24T00:59:38.0000000+00:00</time></trkpt><trkpt lat="22.326483" lon="103.772629"><ele>2351.8</ele><time>2011-04-24T00:59:43.0000000+00:00</time></trkpt><trkpt lat="22.326469" lon="103.772659"><ele>2352.5</ele><time>2011-04-24T00:59:48.0000000+00:00</time></trkpt><trkpt lat="22.32645" lon="103.772675"><ele>2353.7</ele><time>2011-04-24T00:59:53.0000000+00:00</time></trkpt><trkpt lat="22.326435" lon="103.772682"><ele>2355.0</ele><time>2011-04-24T00:59:58.0000000+00:00</time></trkpt><trkpt lat="22.326401" lon="103.772675"><ele>2355.7</ele><time>2011-04-24T01:00:03.0000000+00:00</time></trkpt><trkpt lat="22.326387" lon="103.772697"><ele>2356.7</ele><time>2011-04-24T01:00:08.0000000+00:00</time></trkpt><trkpt lat="22.326361" lon="103.772728"><ele>2357.3</ele><time>2011-04-24T01:00:13.0000000+00:00</time></trkpt><trkpt lat="22.326336" lon="103.772743"><ele>2358.3</ele><time>2011-04-24T01:00:18.0000000+00:00</time></trkpt><trkpt lat="22.326307" lon="103.772736"><ele>2358.7</ele><time>2011-04-24T01:00:23.0000000+00:00</time></trkpt><trkpt lat="22.326311" lon="103.772736"><ele>2359.3</ele><time>2011-04-24T01:00:28.0000000+00:00</time></trkpt><trkpt lat="22.326313" lon="103.772736"><ele>2359.7</ele><time>2011-04-24T01:00:33.0000000+00:00</time></trkpt><trkpt lat="22.326315" lon="103.772736"><ele>2359.7</ele><time>2011-04-24T01:00:38.0000000+00:00</time></trkpt><trkpt lat="22.326294" lon="103.77272"><ele>2359.5</ele><time>2011-04-24T01:00:43.0000000+00:00</time></trkpt><trkpt lat="22.326254" lon="103.772705"><ele>2360.8</ele><time>2011-04-24T01:00:48.0000000+00:00</time></trkpt><trkpt lat="22.326221" lon="103.772713"><ele>2361.7</ele><time>2011-04-24T01:00:53.0000000+00:00</time></trkpt><trkpt lat="22.326208" lon="103.772728"><ele>2363.2</ele><time>2011-04-24T01:00:58.0000000+00:00</time></trkpt><trkpt lat="22.326185" lon="103.772728"><ele>2364.6</ele><time>2011-04-24T01:01:03.0000000+00:00</time></trkpt><trkpt lat="22.326166" lon="103.772713"><ele>2365.7</ele><time>2011-04-24T01:01:08.0000000+00:00</time></trkpt><trkpt lat="22.326157" lon="103.772705"><ele>2366.7</ele><time>2011-04-24T01:01:13.0000000+00:00</time></trkpt><trkpt lat="22.326162" lon="103.77269"><ele>2368.0</ele><time>2011-04-24T01:01:18.0000000+00:00</time></trkpt><trkpt lat="22.326139" lon="103.772682"><ele>2369.3</ele><time>2011-04-24T01:01:23.0000000+00:00</time></trkpt><trkpt lat="22.32613" lon="103.772659"><ele>2370.3</ele><time>2011-04-24T01:01:28.0000000+00:00</time></trkpt><trkpt lat="22.32613" lon="103.772652"><ele>2370.4</ele><time>2011-04-24T01:01:33.0000000+00:00</time></trkpt><trkpt lat="22.32613" lon="103.772659"><ele>2370.7</ele><time>2011-04-24T01:01:38.0000000+00:00</time></trkpt><trkpt lat="22.326118" lon="103.772636"><ele>2370.8</ele><time>2011-04-24T01:01:43.0000000+00:00</time></trkpt><trkpt lat="22.326099" lon="103.772598"><ele>2370.7</ele><time>2011-04-24T01:01:48.0000000+00:00</time></trkpt><trkpt lat="22.326063" lon="103.772545"><ele>2370.3</ele><time>2011-04-24T01:01:53.0000000+00:00</time></trkpt><trkpt lat="22.326029" lon="103.772514"><ele>2371.3</ele><time>2011-04-24T01:01:58.0000000+00:00</time></trkpt><trkpt lat="22.326025" lon="103.772507"><ele>2371.3</ele><time>2011-04-24T01:02:03.0000000+00:00</time></trkpt><trkpt lat="22.325996" lon="103.772507"><ele>2371.7</ele><time>2011-04-24T01:02:08.0000000+00:00</time></trkpt><trkpt lat="22.325993" lon="103.772514"><ele>2372.0</ele><time>2011-04-24T01:02:13.0000000+00:00</time></trkpt><trkpt lat="22.325979" lon="103.772514"><ele>2372.0</ele><time>2011-04-24T01:02:18.0000000+00:00</time></trkpt><trkpt lat="22.325972" lon="103.772545"><ele>2373.2</ele><time>2011-04-24T01:02:23.0000000+00:00</time></trkpt><trkpt lat="22.325911" lon="103.772522"><ele>2373.0</ele><time>2011-04-24T01:02:28.0000000+00:00</time></trkpt><trkpt lat="22.32584" lon="103.772514"><ele>2373.2</ele><time>2011-04-24T01:02:33.0000000+00:00</time></trkpt><trkpt lat="22.325785" lon="103.77253"><ele>2372.0</ele><time>2011-04-24T01:02:38.0000000+00:00</time></trkpt><trkpt lat="22.325714" lon="103.772522"><ele>2372.1</ele><time>2011-04-24T01:02:43.0000000+00:00</time></trkpt><trkpt lat="22.325661" lon="103.77253"><ele>2374.3</ele><time>2011-04-24T01:02:48.0000000+00:00</time></trkpt><trkpt lat="22.325613" lon="103.772545"><ele>2374.1</ele><time>2011-04-24T01:02:53.0000000+00:00</time></trkpt><trkpt lat="22.325565" lon="103.77256"><ele>2373.0</ele><time>2011-04-24T01:02:58.0000000+00:00</time></trkpt><trkpt lat="22.325521" lon="103.772583"><ele>2373.1</ele><time>2011-04-24T01:03:03.0000000+00:00</time></trkpt><trkpt lat="22.325481" lon="103.772598"><ele>2374.7</ele><time>2011-04-24T01:03:08.0000000+00:00</time></trkpt><trkpt lat="22.325439" lon="103.772606"><ele>2376.7</ele><time>2011-04-24T01:03:13.0000000+00:00</time></trkpt><trkpt lat="22.325384" lon="103.772591"><ele>2378.2</ele><time>2011-04-24T01:03:18.0000000+00:00</time></trkpt><trkpt lat="22.325327" lon="103.772575"><ele>2379.6</ele><time>2011-04-24T01:03:23.0000000+00:00</time></trkpt><trkpt lat="22.325294" lon="103.772545"><ele>2381.0</ele><time>2011-04-24T01:03:28.0000000+00:00</time></trkpt><trkpt lat="22.325293" lon="103.772491"><ele>2380.5</ele><time>2011-04-24T01:03:33.0000000+00:00</time></trkpt><trkpt lat="22.325291" lon="103.772453"><ele>2379.1</ele><time>2011-04-24T01:03:38.0000000+00:00</time></trkpt><trkpt lat="22.325253" lon="103.772408"><ele>2378.2</ele><time>2011-04-24T01:03:43.0000000+00:00</time></trkpt><trkpt lat="22.32523" lon="103.772385"><ele>2378.0</ele><time>2011-04-24T01:03:48.0000000+00:00</time></trkpt><trkpt lat="22.325197" lon="103.772369"><ele>2378.4</ele><time>2011-04-24T01:03:53.0000000+00:00</time></trkpt><trkpt lat="22.325182" lon="103.772362"><ele>2378.8</ele><time>2011-04-24T01:03:58.0000000+00:00</time></trkpt><trkpt lat="22.325159" lon="103.772369"><ele>2379.5</ele><time>2011-04-24T01:04:03.0000000+00:00</time></trkpt><trkpt lat="22.32515" lon="103.772392"><ele>2380.5</ele><time>2011-04-24T01:04:08.0000000+00:00</time></trkpt><trkpt lat="22.325127" lon="103.772415"><ele>2381.1</ele><time>2011-04-24T01:04:13.0000000+00:00</time></trkpt><trkpt lat="22.325111" lon="103.772415"><ele>2381.8</ele><time>2011-04-24T01:04:18.0000000+00:00</time></trkpt><trkpt lat="22.325108" lon="103.772415"><ele>2382.2</ele><time>2011-04-24T01:04:23.0000000+00:00</time></trkpt><trkpt lat="22.325111" lon="103.772408"><ele>2382.6</ele><time>2011-04-24T01:04:28.0000000+00:00</time></trkpt><trkpt lat="22.325119" lon="103.772408"><ele>2382.5</ele><time>2011-04-24T01:04:33.0000000+00:00</time></trkpt><trkpt lat="22.325096" lon="103.772408"><ele>2383.5</ele><time>2011-04-24T01:04:38.0000000+00:00</time></trkpt><trkpt lat="22.32505" lon="103.772408"><ele>2385.2</ele><time>2011-04-24T01:04:43.0000000+00:00</time></trkpt><trkpt lat="22.32501" lon="103.772415"><ele>2385.9</ele><time>2011-04-24T01:04:48.0000000+00:00</time></trkpt><trkpt lat="22.324951" lon="103.772423"><ele>2385.8</ele><time>2011-04-24T01:04:53.0000000+00:00</time></trkpt><trkpt lat="22.324911" lon="103.772461"><ele>2388.0</ele><time>2011-04-24T01:04:58.0000000+00:00</time></trkpt><trkpt lat="22.324888" lon="103.772484"><ele>2390.3</ele><time>2011-04-24T01:05:03.0000000+00:00</time></trkpt><trkpt lat="22.324867" lon="103.772499"><ele>2392.7</ele><time>2011-04-24T01:05:08.0000000+00:00</time></trkpt><trkpt lat="22.324829" lon="103.772507"><ele>2392.7</ele><time>2011-04-24T01:05:13.0000000+00:00</time></trkpt><trkpt lat="22.324802" lon="103.772514"><ele>2393.8</ele><time>2011-04-24T01:05:18.0000000+00:00</time></trkpt><trkpt lat="22.324753" lon="103.772476"><ele>2394.7</ele><time>2011-04-24T01:05:23.0000000+00:00</time></trkpt><trkpt lat="22.324724" lon="103.77243"><ele>2396.8</ele><time>2011-04-24T01:05:28.0000000+00:00</time></trkpt><trkpt lat="22.324707" lon="103.772385"><ele>2397.6</ele><time>2011-04-24T01:05:33.0000000+00:00</time></trkpt><trkpt lat="22.324722" lon="103.772362"><ele>2398.2</ele><time>2011-04-24T01:05:38.0000000+00:00</time></trkpt><trkpt lat="22.324757" lon="103.772339"><ele>2398.9</ele><time>2011-04-24T01:05:43.0000000+00:00</time></trkpt><trkpt lat="22.32476" lon="103.772293"><ele>2400.0</ele><time>2011-04-24T01:05:48.0000000+00:00</time></trkpt><trkpt lat="22.324734" lon="103.772255"><ele>2399.0</ele><time>2011-04-24T01:05:53.0000000+00:00</time></trkpt><trkpt lat="22.324709" lon="103.77224"><ele>2398.3</ele><time>2011-04-24T01:05:58.0000000+00:00</time></trkpt><trkpt lat="22.324686" lon="103.772217"><ele>2398.1</ele><time>2011-04-24T01:06:03.0000000+00:00</time></trkpt><trkpt lat="22.324656" lon="103.772202"><ele>2398.8</ele><time>2011-04-24T01:06:08.0000000+00:00</time></trkpt><trkpt lat="22.324621" lon="103.772179"><ele>2398.6</ele><time>2011-04-24T01:06:13.0000000+00:00</time></trkpt><trkpt lat="22.324579" lon="103.772141"><ele>2397.2</ele><time>2011-04-24T01:06:18.0000000+00:00</time></trkpt><trkpt lat="22.324553" lon="103.772102"><ele>2397.2</ele><time>2011-04-24T01:06:23.0000000+00:00</time></trkpt><trkpt lat="22.32453" lon="103.772057"><ele>2396.9</ele><time>2011-04-24T01:06:28.0000000+00:00</time></trkpt><trkpt lat="22.324509" lon="103.771996"><ele>2395.6</ele><time>2011-04-24T01:06:33.0000000+00:00</time></trkpt><trkpt lat="22.324478" lon="103.771957"><ele>2395.2</ele><time>2011-04-24T01:06:38.0000000+00:00</time></trkpt><trkpt lat="22.324429" lon="103.771942"><ele>2395.6</ele><time>2011-04-24T01:06:43.0000000+00:00</time></trkpt><trkpt lat="22.324413" lon="103.771904"><ele>2396.7</ele><time>2011-04-24T01:06:48.0000000+00:00</time></trkpt><trkpt lat="22.324396" lon="103.771835"><ele>2397.6</ele><time>2011-04-24T01:06:53.0000000+00:00</time></trkpt><trkpt lat="22.324333" lon="103.771812"><ele>2398.8</ele><time>2011-04-24T01:06:58.0000000+00:00</time></trkpt><trkpt lat="22.324282" lon="103.771782"><ele>2399.8</ele><time>2011-04-24T01:07:03.0000000+00:00</time></trkpt><trkpt lat="22.324265" lon="103.771744"><ele>2399.8</ele><time>2011-04-24T01:07:08.0000000+00:00</time></trkpt><trkpt lat="22.324242" lon="103.771713"><ele>2401.9</ele><time>2011-04-24T01:07:13.0000000+00:00</time></trkpt><trkpt lat="22.324196" lon="103.77169"><ele>2403.2</ele><time>2011-04-24T01:07:18.0000000+00:00</time></trkpt><trkpt lat="22.32416" lon="103.771652"><ele>2404.0</ele><time>2011-04-24T01:07:23.0000000+00:00</time></trkpt><trkpt lat="22.324169" lon="103.771622"><ele>2404.5</ele><time>2011-04-24T01:07:28.0000000+00:00</time></trkpt><trkpt lat="22.324188" lon="103.771576"><ele>2405.1</ele><time>2011-04-24T01:07:33.0000000+00:00</time></trkpt><trkpt lat="22.324167" lon="103.77153"><ele>2405.5</ele><time>2011-04-24T01:07:38.0000000+00:00</time></trkpt><trkpt lat="22.32416" lon="103.771507"><ele>2406.6</ele><time>2011-04-24T01:07:43.0000000+00:00</time></trkpt><trkpt lat="22.324177" lon="103.771461"><ele>2407.7</ele><time>2011-04-24T01:07:48.0000000+00:00</time></trkpt><trkpt lat="22.324175" lon="103.771446"><ele>2408.6</ele><time>2011-04-24T01:07:53.0000000+00:00</time></trkpt><trkpt lat="22.324167" lon="103.771446"><ele>2408.8</ele><time>2011-04-24T01:07:58.0000000+00:00</time></trkpt><trkpt lat="22.324148" lon="103.771439"><ele>2409.8</ele><time>2011-04-24T01:08:03.0000000+00:00</time></trkpt><trkpt lat="22.324141" lon="103.771439"><ele>2411.1</ele><time>2011-04-24T01:08:08.0000000+00:00</time></trkpt><trkpt lat="22.324137" lon="103.771454"><ele>2411.2</ele><time>2011-04-24T01:08:13.0000000+00:00</time></trkpt><trkpt lat="22.324118" lon="103.771446"><ele>2412.0</ele><time>2011-04-24T01:08:18.0000000+00:00</time></trkpt><trkpt lat="22.324085" lon="103.771439"><ele>2413.0</ele><time>2011-04-24T01:08:23.0000000+00:00</time></trkpt><trkpt lat="22.324053" lon="103.771431"><ele>2413.7</ele><time>2011-04-24T01:08:28.0000000+00:00</time></trkpt><trkpt lat="22.32403" lon="103.771431"><ele>2414.5</ele><time>2011-04-24T01:08:33.0000000+00:00</time></trkpt><trkpt lat="22.32403" lon="103.771454"><ele>2415.5</ele><time>2011-04-24T01:08:38.0000000+00:00</time></trkpt><trkpt lat="22.324024" lon="103.771454"><ele>2416.3</ele><time>2011-04-24T01:08:43.0000000+00:00</time></trkpt><trkpt lat="22.323992" lon="103.771446"><ele>2417.1</ele><time>2011-04-24T01:08:48.0000000+00:00</time></trkpt><trkpt lat="22.323994" lon="103.771454"><ele>2418.0</ele><time>2011-04-24T01:08:53.0000000+00:00</time></trkpt><trkpt lat="22.323992" lon="103.771461"><ele>2418.4</ele><time>2011-04-24T01:08:58.0000000+00:00</time></trkpt><trkpt lat="22.323961" lon="103.771477"><ele>2419.6</ele><time>2011-04-24T01:09:03.0000000+00:00</time></trkpt><trkpt lat="22.323927" lon="103.7715"><ele>2421.3</ele><time>2011-04-24T01:09:08.0000000+00:00</time></trkpt><trkpt lat="22.323925" lon="103.771507"><ele>2422.1</ele><time>2011-04-24T01:09:13.0000000+00:00</time></trkpt><trkpt lat="22.323921" lon="103.771523"><ele>2422.9</ele><time>2011-04-24T01:09:18.0000000+00:00</time></trkpt><trkpt lat="22.323893" lon="103.771523"><ele>2423.7</ele><time>2011-04-24T01:09:23.0000000+00:00</time></trkpt><trkpt lat="22.323883" lon="103.771523"><ele>2424.5</ele><time>2011-04-24T01:09:28.0000000+00:00</time></trkpt><trkpt lat="22.323851" lon="103.7715"><ele>2425.7</ele><time>2011-04-24T01:09:33.0000000+00:00</time></trkpt><trkpt lat="22.323847" lon="103.7715"><ele>2426.0</ele><time>2011-04-24T01:09:38.0000000+00:00</time></trkpt><trkpt lat="22.323853" lon="103.7715"><ele>2426.0</ele><time>2011-04-24T01:09:43.0000000+00:00</time></trkpt><trkpt lat="22.323837" lon="103.771507"><ele>2426.5</ele><time>2011-04-24T01:09:48.0000000+00:00</time></trkpt><trkpt lat="22.323847" lon="103.771492"><ele>2426.3</ele><time>2011-04-24T01:09:53.0000000+00:00</time></trkpt><trkpt lat="22.323845" lon="103.771492"><ele>2426.3</ele><time>2011-04-24T01:09:58.0000000+00:00</time></trkpt><trkpt lat="22.323837" lon="103.771484"><ele>2426.3</ele><time>2011-04-24T01:10:03.0000000+00:00</time></trkpt><trkpt lat="22.323797" lon="103.771492"><ele>2427.3</ele><time>2011-04-24T01:10:08.0000000+00:00</time></trkpt><trkpt lat="22.323769" lon="103.771477"><ele>2428.6</ele><time>2011-04-24T01:10:13.0000000+00:00</time></trkpt><trkpt lat="22.32374" lon="103.771484"><ele>2429.3</ele><time>2011-04-24T01:10:18.0000000+00:00</time></trkpt><trkpt lat="22.323715" lon="103.771454"><ele>2430.0</ele><time>2011-04-24T01:10:23.0000000+00:00</time></trkpt><trkpt lat="22.323711" lon="103.771454"><ele>2430.8</ele><time>2011-04-24T01:10:28.0000000+00:00</time></trkpt><trkpt lat="22.323732" lon="103.771446"><ele>2432.2</ele><time>2011-04-24T01:10:33.0000000+00:00</time></trkpt><trkpt lat="22.32374" lon="103.771454"><ele>2433.0</ele><time>2011-04-24T01:10:38.0000000+00:00</time></trkpt><trkpt lat="22.323721" lon="103.771461"><ele>2433.6</ele><time>2011-04-24T01:10:43.0000000+00:00</time></trkpt><trkpt lat="22.323721" lon="103.771477"><ele>2435.4</ele><time>2011-04-24T01:10:48.0000000+00:00</time></trkpt><trkpt lat="22.323708" lon="103.771477"><ele>2437.3</ele><time>2011-04-24T01:10:53.0000000+00:00</time></trkpt><trkpt lat="22.323702" lon="103.771477"><ele>2438.2</ele><time>2011-04-24T01:10:58.0000000+00:00</time></trkpt><trkpt lat="22.323685" lon="103.771454"><ele>2439.6</ele><time>2011-04-24T01:11:03.0000000+00:00</time></trkpt><trkpt lat="22.323668" lon="103.771423"><ele>2440.4</ele><time>2011-04-24T01:11:08.0000000+00:00</time></trkpt><trkpt lat="22.323664" lon="103.771416"><ele>2441.7</ele><time>2011-04-24T01:11:13.0000000+00:00</time></trkpt><trkpt lat="22.323662" lon="103.771416"><ele>2441.8</ele><time>2011-04-24T01:11:18.0000000+00:00</time></trkpt><trkpt lat="22.32366" lon="103.771416"><ele>2441.8</ele><time>2011-04-24T01:11:23.0000000+00:00</time></trkpt><trkpt lat="22.323658" lon="103.771416"><ele>2441.8</ele><time>2011-04-24T01:11:28.0000000+00:00</time></trkpt><trkpt lat="22.323658" lon="103.771416"><ele>2441.7</ele><time>2011-04-24T01:11:33.0000000+00:00</time></trkpt><trkpt lat="22.32366" lon="103.771423"><ele>2442.0</ele><time>2011-04-24T01:11:38.0000000+00:00</time></trkpt><trkpt lat="22.323654" lon="103.771423"><ele>2442.1</ele><time>2011-04-24T01:11:43.0000000+00:00</time></trkpt><trkpt lat="22.323652" lon="103.771423"><ele>2442.2</ele><time>2011-04-24T01:11:48.0000000+00:00</time></trkpt><trkpt lat="22.323648" lon="103.771423"><ele>2442.2</ele><time>2011-04-24T01:11:53.0000000+00:00</time></trkpt><trkpt lat="22.32365" lon="103.771423"><ele>2442.3</ele><time>2011-04-24T01:11:58.0000000+00:00</time></trkpt><trkpt lat="22.32365" lon="103.771423"><ele>2442.3</ele><time>2011-04-24T01:12:03.0000000+00:00</time></trkpt><trkpt lat="22.32365" lon="103.771423"><ele>2442.3</ele><time>2011-04-24T01:12:08.0000000+00:00</time></trkpt><trkpt lat="22.32365" lon="103.771423"><ele>2442.3</ele><time>2011-04-24T01:12:13.0000000+00:00</time></trkpt><trkpt lat="22.32365" lon="103.771423"><ele>2442.3</ele><time>2011-04-24T01:12:18.0000000+00:00</time></trkpt><trkpt lat="22.32365" lon="103.771423"><ele>2442.3</ele><time>2011-04-24T01:12:23.0000000+00:00</time></trkpt><trkpt lat="22.323647" lon="103.771423"><ele>2442.3</ele><time>2011-04-24T01:12:28.0000000+00:00</time></trkpt><trkpt lat="22.323647" lon="103.771423"><ele>2442.3</ele><time>2011-04-24T01:12:33.0000000+00:00</time></trkpt><trkpt lat="22.323647" lon="103.771423"><ele>2442.3</ele><time>2011-04-24T01:12:38.0000000+00:00</time></trkpt><trkpt lat="22.323647" lon="103.771423"><ele>2442.4</ele><time>2011-04-24T01:12:43.0000000+00:00</time></trkpt><trkpt lat="22.323647" lon="103.771423"><ele>2442.4</ele><time>2011-04-24T01:12:48.0000000+00:00</time></trkpt><trkpt lat="22.323647" lon="103.771423"><ele>2442.4</ele><time>2011-04-24T01:12:53.0000000+00:00</time></trkpt><trkpt lat="22.323647" lon="103.771423"><ele>2442.4</ele><time>2011-04-24T01:12:58.0000000+00:00</time></trkpt><trkpt lat="22.323647" lon="103.771423"><ele>2442.4</ele><time>2011-04-24T01:13:03.0000000+00:00</time></trkpt><trkpt lat="22.323647" lon="103.771416"><ele>2442.3</ele><time>2011-04-24T01:13:08.0000000+00:00</time></trkpt><trkpt lat="22.323648" lon="103.771416"><ele>2442.5</ele><time>2011-04-24T01:13:13.0000000+00:00</time></trkpt><trkpt lat="22.323648" lon="103.771416"><ele>2442.6</ele><time>2011-04-24T01:13:18.0000000+00:00</time></trkpt><trkpt lat="22.323648" lon="103.771416"><ele>2442.6</ele><time>2011-04-24T01:13:23.0000000+00:00</time></trkpt><trkpt lat="22.323648" lon="103.771416"><ele>2442.6</ele><time>2011-04-24T01:13:28.0000000+00:00</time></trkpt><trkpt lat="22.323648" lon="103.771416"><ele>2442.6</ele><time>2011-04-24T01:13:33.0000000+00:00</time></trkpt><trkpt lat="22.323648" lon="103.771416"><ele>2442.6</ele><time>2011-04-24T01:13:38.0000000+00:00</time></trkpt><trkpt lat="22.323648" lon="103.771416"><ele>2442.6</ele><time>2011-04-24T01:13:43.0000000+00:00</time></trkpt><trkpt lat="22.323648" lon="103.771416"><ele>2442.6</ele><time>2011-04-24T01:13:48.0000000+00:00</time></trkpt><trkpt lat="22.323648" lon="103.771416"><ele>2442.6</ele><time>2011-04-24T01:13:53.0000000+00:00</time></trkpt><trkpt lat="22.323648" lon="103.771416"><ele>2442.7</ele><time>2011-04-24T01:13:58.0000000+00:00</time></trkpt><trkpt lat="22.323648" lon="103.771416"><ele>2442.6</ele><time>2011-04-24T01:14:03.0000000+00:00</time></trkpt><trkpt lat="22.323648" lon="103.771416"><ele>2442.6</ele><time>2011-04-24T01:14:08.0000000+00:00</time></trkpt><trkpt lat="22.323648" lon="103.771416"><ele>2442.6</ele><time>2011-04-24T01:14:13.0000000+00:00</time></trkpt><trkpt lat="22.323648" lon="103.771416"><ele>2442.6</ele><time>2011-04-24T01:14:18.0000000+00:00</time></trkpt><trkpt lat="22.323648" lon="103.771416"><ele>2442.6</ele><time>2011-04-24T01:14:23.0000000+00:00</time></trkpt><trkpt lat="22.323648" lon="103.771416"><ele>2442.6</ele><time>2011-04-24T01:14:28.0000000+00:00</time></trkpt><trkpt lat="22.323648" lon="103.771416"><ele>2442.6</ele><time>2011-04-24T01:14:33.0000000+00:00</time></trkpt><trkpt lat="22.323648" lon="103.771416"><ele>2442.6</ele><time>2011-04-24T01:14:38.0000000+00:00</time></trkpt><trkpt lat="22.323648" lon="103.771416"><ele>2442.6</ele><time>2011-04-24T01:14:43.0000000+00:00</time></trkpt><trkpt lat="22.323648" lon="103.771416"><ele>2442.6</ele><time>2011-04-24T01:14:48.0000000+00:00</time></trkpt><trkpt lat="22.323648" lon="103.771416"><ele>2442.6</ele><time>2011-04-24T01:14:53.0000000+00:00</time></trkpt><trkpt lat="22.323648" lon="103.771416"><ele>2442.6</ele><time>2011-04-24T01:14:58.0000000+00:00</time></trkpt><trkpt lat="22.323648" lon="103.771416"><ele>2442.5</ele><time>2011-04-24T01:15:03.0000000+00:00</time></trkpt><trkpt lat="22.323648" lon="103.771416"><ele>2442.5</ele><time>2011-04-24T01:15:08.0000000+00:00</time></trkpt><trkpt lat="22.323648" lon="103.771416"><ele>2442.5</ele><time>2011-04-24T01:15:13.0000000+00:00</time></trkpt><trkpt lat="22.323648" lon="103.771416"><ele>2442.5</ele><time>2011-04-24T01:15:18.0000000+00:00</time></trkpt><trkpt lat="22.323648" lon="103.771416"><ele>2442.6</ele><time>2011-04-24T01:15:23.0000000+00:00</time></trkpt><trkpt lat="22.323648" lon="103.771416"><ele>2442.7</ele><time>2011-04-24T01:15:28.0000000+00:00</time></trkpt><trkpt lat="22.323648" lon="103.771416"><ele>2442.7</ele><time>2011-04-24T01:15:33.0000000+00:00</time></trkpt><trkpt lat="22.323648" lon="103.771416"><ele>2442.7</ele><time>2011-04-24T01:15:38.0000000+00:00</time></trkpt><trkpt lat="22.323648" lon="103.771416"><ele>2442.7</ele><time>2011-04-24T01:15:43.0000000+00:00</time></trkpt><trkpt lat="22.323648" lon="103.771416"><ele>2442.7</ele><time>2011-04-24T01:15:48.0000000+00:00</time></trkpt><trkpt lat="22.323648" lon="103.771416"><ele>2442.7</ele><time>2011-04-24T01:15:53.0000000+00:00</time></trkpt><trkpt lat="22.323648" lon="103.771416"><ele>2442.7</ele><time>2011-04-24T01:15:58.0000000+00:00</time></trkpt><trkpt lat="22.323648" lon="103.771416"><ele>2442.7</ele><time>2011-04-24T01:16:03.0000000+00:00</time></trkpt><trkpt lat="22.323647" lon="103.771416"><ele>2442.7</ele><time>2011-04-24T01:16:08.0000000+00:00</time></trkpt><trkpt lat="22.323648" lon="103.771416"><ele>2442.7</ele><time>2011-04-24T01:16:13.0000000+00:00</time></trkpt><trkpt lat="22.323648" lon="103.771416"><ele>2442.7</ele><time>2011-04-24T01:16:18.0000000+00:00</time></trkpt><trkpt lat="22.323648" lon="103.771416"><ele>2442.7</ele><time>2011-04-24T01:16:23.0000000+00:00</time></trkpt><trkpt lat="22.323648" lon="103.771416"><ele>2442.7</ele><time>2011-04-24T01:16:28.0000000+00:00</time></trkpt><trkpt lat="22.323648" lon="103.771423"><ele>2442.7</ele><time>2011-04-24T01:16:33.0000000+00:00</time></trkpt><trkpt lat="22.323647" lon="103.771423"><ele>2442.7</ele><time>2011-04-24T01:16:38.0000000+00:00</time></trkpt><trkpt lat="22.323647" lon="103.771423"><ele>2442.7</ele><time>2011-04-24T01:16:43.0000000+00:00</time></trkpt><trkpt lat="22.323647" lon="103.771423"><ele>2442.7</ele><time>2011-04-24T01:16:48.0000000+00:00</time></trkpt><trkpt lat="22.323647" lon="103.771423"><ele>2442.7</ele><time>2011-04-24T01:16:53.0000000+00:00</time></trkpt><trkpt lat="22.323647" lon="103.771423"><ele>2442.7</ele><time>2011-04-24T01:16:58.0000000+00:00</time></trkpt><trkpt lat="22.323647" lon="103.771423"><ele>2442.7</ele><time>2011-04-24T01:17:03.0000000+00:00</time></trkpt><trkpt lat="22.323648" lon="103.771423"><ele>2442.7</ele><time>2011-04-24T01:17:08.0000000+00:00</time></trkpt><trkpt lat="22.323648" lon="103.771423"><ele>2442.7</ele><time>2011-04-24T01:17:13.0000000+00:00</time></trkpt><trkpt lat="22.323648" lon="103.771423"><ele>2442.7</ele><time>2011-04-24T01:17:18.0000000+00:00</time></trkpt><trkpt lat="22.323648" lon="103.771423"><ele>2442.7</ele><time>2011-04-24T01:17:23.0000000+00:00</time></trkpt><trkpt lat="22.323648" lon="103.771423"><ele>2442.7</ele><time>2011-04-24T01:17:28.0000000+00:00</time></trkpt><trkpt lat="22.323648" lon="103.771423"><ele>2442.7</ele><time>2011-04-24T01:17:33.0000000+00:00</time></trkpt><trkpt lat="22.323648" lon="103.771423"><ele>2442.7</ele><time>2011-04-24T01:17:38.0000000+00:00</time></trkpt><trkpt lat="22.323647" lon="103.771423"><ele>2442.7</ele><time>2011-04-24T01:17:43.0000000+00:00</time></trkpt><trkpt lat="22.323648" lon="103.771423"><ele>2442.7</ele><time>2011-04-24T01:17:48.0000000+00:00</time></trkpt><trkpt lat="22.323648" lon="103.771423"><ele>2442.7</ele><time>2011-04-24T01:17:53.0000000+00:00</time></trkpt><trkpt lat="22.323648" lon="103.771423"><ele>2442.7</ele><time>2011-04-24T01:17:58.0000000+00:00</time></trkpt><trkpt lat="22.323648" lon="103.771423"><ele>2442.7</ele><time>2011-04-24T01:18:03.0000000+00:00</time></trkpt><trkpt lat="22.323647" lon="103.771423"><ele>2442.7</ele><time>2011-04-24T01:18:08.0000000+00:00</time></trkpt><trkpt lat="22.32365" lon="103.771416"><ele>2442.7</ele><time>2011-04-24T01:18:13.0000000+00:00</time></trkpt><trkpt lat="22.323656" lon="103.771416"><ele>2442.6</ele><time>2011-04-24T01:18:18.0000000+00:00</time></trkpt><trkpt lat="22.323652" lon="103.771408"><ele>2442.3</ele><time>2011-04-24T01:18:23.0000000+00:00</time></trkpt><trkpt lat="22.32365" lon="103.771408"><ele>2442.2</ele><time>2011-04-24T01:18:28.0000000+00:00</time></trkpt><trkpt lat="22.32365" lon="103.771408"><ele>2442.2</ele><time>2011-04-24T01:18:33.0000000+00:00</time></trkpt><trkpt lat="22.32365" lon="103.771408"><ele>2442.2</ele><time>2011-04-24T01:18:38.0000000+00:00</time></trkpt><trkpt lat="22.32365" lon="103.771408"><ele>2442.2</ele><time>2011-04-24T01:18:43.0000000+00:00</time></trkpt><trkpt lat="22.32365" lon="103.771408"><ele>2442.2</ele><time>2011-04-24T01:18:48.0000000+00:00</time></trkpt><trkpt lat="22.323639" lon="103.771416"><ele>2442.3</ele><time>2011-04-24T01:18:53.0000000+00:00</time></trkpt><trkpt lat="22.323593" lon="103.771423"><ele>2441.2</ele><time>2011-04-24T01:18:58.0000000+00:00</time></trkpt><trkpt lat="22.323584" lon="103.771423"><ele>2441.5</ele><time>2011-04-24T01:19:03.0000000+00:00</time></trkpt><trkpt lat="22.323563" lon="103.771416"><ele>2441.3</ele><time>2011-04-24T01:19:08.0000000+00:00</time></trkpt><trkpt lat="22.323534" lon="103.771408"><ele>2441.7</ele><time>2011-04-24T01:19:13.0000000+00:00</time></trkpt><trkpt lat="22.323521" lon="103.771378"><ele>2441.8</ele><time>2011-04-24T01:19:18.0000000+00:00</time></trkpt><trkpt lat="22.323515" lon="103.771347"><ele>2442.4</ele><time>2011-04-24T01:19:23.0000000+00:00</time></trkpt><trkpt lat="22.323492" lon="103.771339"><ele>2443.3</ele><time>2011-04-24T01:19:28.0000000+00:00</time></trkpt><trkpt lat="22.32349" lon="103.771332"><ele>2444.2</ele><time>2011-04-24T01:19:33.0000000+00:00</time></trkpt><trkpt lat="22.323488" lon="103.771324"><ele>2445.5</ele><time>2011-04-24T01:19:38.0000000+00:00</time></trkpt><trkpt lat="22.323467" lon="103.771309"><ele>2446.5</ele><time>2011-04-24T01:19:43.0000000+00:00</time></trkpt><trkpt lat="22.323456" lon="103.771301"><ele>2448.5</ele><time>2011-04-24T01:19:48.0000000+00:00</time></trkpt><trkpt lat="22.323454" lon="103.771294"><ele>2449.1</ele><time>2011-04-24T01:19:53.0000000+00:00</time></trkpt><trkpt lat="22.323446" lon="103.771278"><ele>2449.3</ele><time>2011-04-24T01:19:58.0000000+00:00</time></trkpt><trkpt lat="22.323429" lon="103.771255"><ele>2449.7</ele><time>2011-04-24T01:20:03.0000000+00:00</time></trkpt><trkpt lat="22.323421" lon="103.771233"><ele>2449.8</ele><time>2011-04-24T01:20:08.0000000+00:00</time></trkpt><trkpt lat="22.323406" lon="103.77121"><ele>2450.7</ele><time>2011-04-24T01:20:13.0000000+00:00</time></trkpt><trkpt lat="22.323395" lon="103.771187"><ele>2452.5</ele><time>2011-04-24T01:20:18.0000000+00:00</time></trkpt><trkpt lat="22.323387" lon="103.771164"><ele>2453.3</ele><time>2011-04-24T01:20:23.0000000+00:00</time></trkpt><trkpt lat="22.323372" lon="103.771179"><ele>2454.7</ele><time>2011-04-24T01:20:28.0000000+00:00</time></trkpt><trkpt lat="22.323347" lon="103.771179"><ele>2455.9</ele><time>2011-04-24T01:20:33.0000000+00:00</time></trkpt><trkpt lat="22.323328" lon="103.771172"><ele>2456.8</ele><time>2011-04-24T01:20:38.0000000+00:00</time></trkpt><trkpt lat="22.32333" lon="103.771172"><ele>2457.1</ele><time>2011-04-24T01:20:43.0000000+00:00</time></trkpt><trkpt lat="22.323317" lon="103.771164"><ele>2457.2</ele><time>2011-04-24T01:20:48.0000000+00:00</time></trkpt><trkpt lat="22.323309" lon="103.771149"><ele>2457.7</ele><time>2011-04-24T01:20:53.0000000+00:00</time></trkpt><trkpt lat="22.323299" lon="103.771156"><ele>2457.9</ele><time>2011-04-24T01:20:58.0000000+00:00</time></trkpt><trkpt lat="22.323273" lon="103.771156"><ele>2457.9</ele><time>2011-04-24T01:21:03.0000000+00:00</time></trkpt><trkpt lat="22.323269" lon="103.771164"><ele>2458.4</ele><time>2011-04-24T01:21:08.0000000+00:00</time></trkpt><trkpt lat="22.323261" lon="103.771179"><ele>2459.3</ele><time>2011-04-24T01:21:13.0000000+00:00</time></trkpt><trkpt lat="22.32324" lon="103.771187"><ele>2460.0</ele><time>2011-04-24T01:21:18.0000000+00:00</time></trkpt><trkpt lat="22.323227" lon="103.771179"><ele>2460.8</ele><time>2011-04-24T01:21:23.0000000+00:00</time></trkpt><trkpt lat="22.323221" lon="103.771172"><ele>2461.2</ele><time>2011-04-24T01:21:28.0000000+00:00</time></trkpt><trkpt lat="22.323206" lon="103.771156"><ele>2461.8</ele><time>2011-04-24T01:21:33.0000000+00:00</time></trkpt><trkpt lat="22.323191" lon="103.771133"><ele>2462.9</ele><time>2011-04-24T01:21:38.0000000+00:00</time></trkpt><trkpt lat="22.323154" lon="103.771118"><ele>2464.3</ele><time>2011-04-24T01:21:43.0000000+00:00</time></trkpt><trkpt lat="22.323143" lon="103.771126"><ele>2465.3</ele><time>2011-04-24T01:21:48.0000000+00:00</time></trkpt><trkpt lat="22.323139" lon="103.771118"><ele>2465.7</ele><time>2011-04-24T01:21:53.0000000+00:00</time></trkpt><trkpt lat="22.323126" lon="103.771111"><ele>2466.3</ele><time>2011-04-24T01:21:58.0000000+00:00</time></trkpt><trkpt lat="22.323099" lon="103.77108"><ele>2467.0</ele><time>2011-04-24T01:22:03.0000000+00:00</time></trkpt><trkpt lat="22.32308" lon="103.771065"><ele>2467.4</ele><time>2011-04-24T01:22:08.0000000+00:00</time></trkpt><trkpt lat="22.323053" lon="103.771049"><ele>2467.8</ele><time>2011-04-24T01:22:13.0000000+00:00</time></trkpt><trkpt lat="22.323034" lon="103.771042"><ele>2468.3</ele><time>2011-04-24T01:22:18.0000000+00:00</time></trkpt><trkpt lat="22.323011" lon="103.771004"><ele>2469.0</ele><time>2011-04-24T01:22:23.0000000+00:00</time></trkpt><trkpt lat="22.322952" lon="103.771004"><ele>2467.9</ele><time>2011-04-24T01:22:28.0000000+00:00</time></trkpt><trkpt lat="22.322916" lon="103.770958"><ele>2468.3</ele><time>2011-04-24T01:22:33.0000000+00:00</time></trkpt><trkpt lat="22.322876" lon="103.770935"><ele>2470.2</ele><time>2011-04-24T01:22:38.0000000+00:00</time></trkpt><trkpt lat="22.322828" lon="103.770935"><ele>2469.6</ele><time>2011-04-24T01:22:43.0000000+00:00</time></trkpt><trkpt lat="22.322781" lon="103.770943"><ele>2469.1</ele><time>2011-04-24T01:22:48.0000000+00:00</time></trkpt><trkpt lat="22.322758" lon="103.770943"><ele>2468.7</ele><time>2011-04-24T01:22:53.0000000+00:00</time></trkpt><trkpt lat="22.322758" lon="103.770943"><ele>2468.2</ele><time>2011-04-24T01:22:58.0000000+00:00</time></trkpt><trkpt lat="22.322721" lon="103.770927"><ele>2468.5</ele><time>2011-04-24T01:23:03.0000000+00:00</time></trkpt><trkpt lat="22.322691" lon="103.770874"><ele>2469.8</ele><time>2011-04-24T01:23:08.0000000+00:00</time></trkpt><trkpt lat="22.322668" lon="103.770836"><ele>2471.0</ele><time>2011-04-24T01:23:13.0000000+00:00</time></trkpt><trkpt lat="22.322649" lon="103.770805"><ele>2472.7</ele><time>2011-04-24T01:23:18.0000000+00:00</time></trkpt><trkpt lat="22.322624" lon="103.770775"><ele>2474.0</ele><time>2011-04-24T01:23:23.0000000+00:00</time></trkpt><trkpt lat="22.322613" lon="103.770752"><ele>2475.1</ele><time>2011-04-24T01:23:28.0000000+00:00</time></trkpt><trkpt lat="22.322594" lon="103.770744"><ele>2476.2</ele><time>2011-04-24T01:23:33.0000000+00:00</time></trkpt><trkpt lat="22.322605" lon="103.770721"><ele>2477.9</ele><time>2011-04-24T01:23:38.0000000+00:00</time></trkpt><trkpt lat="22.322582" lon="103.770706"><ele>2478.5</ele><time>2011-04-24T01:23:43.0000000+00:00</time></trkpt><trkpt lat="22.322573" lon="103.770683"><ele>2479.0</ele><time>2011-04-24T01:23:48.0000000+00:00</time></trkpt><trkpt lat="22.322563" lon="103.770676"><ele>2479.2</ele><time>2011-04-24T01:23:53.0000000+00:00</time></trkpt><trkpt lat="22.322546" lon="103.770668"><ele>2479.6</ele><time>2011-04-24T01:23:58.0000000+00:00</time></trkpt><trkpt lat="22.322523" lon="103.770699"><ele>2479.7</ele><time>2011-04-24T01:24:03.0000000+00:00</time></trkpt><trkpt lat="22.322504" lon="103.770729"><ele>2479.8</ele><time>2011-04-24T01:24:08.0000000+00:00</time></trkpt><trkpt lat="22.322523" lon="103.770752"><ele>2480.7</ele><time>2011-04-24T01:24:13.0000000+00:00</time></trkpt><trkpt lat="22.322512" lon="103.770767"><ele>2480.5</ele><time>2011-04-24T01:24:18.0000000+00:00</time></trkpt><trkpt lat="22.322527" lon="103.770775"><ele>2481.0</ele><time>2011-04-24T01:24:23.0000000+00:00</time></trkpt><trkpt lat="22.322525" lon="103.770805"><ele>2481.0</ele><time>2011-04-24T01:24:28.0000000+00:00</time></trkpt><trkpt lat="22.322496" lon="103.770866"><ele>2481.5</ele><time>2011-04-24T01:24:33.0000000+00:00</time></trkpt><trkpt lat="22.322493" lon="103.770874"><ele>2481.8</ele><time>2011-04-24T01:24:38.0000000+00:00</time></trkpt><trkpt lat="22.322495" lon="103.770882"><ele>2482.1</ele><time>2011-04-24T01:24:43.0000000+00:00</time></trkpt><trkpt lat="22.3225" lon="103.770912"><ele>2482.3</ele><time>2011-04-24T01:24:48.0000000+00:00</time></trkpt><trkpt lat="22.322504" lon="103.770935"><ele>2482.5</ele><time>2011-04-24T01:24:53.0000000+00:00</time></trkpt><trkpt lat="22.322502" lon="103.770935"><ele>2482.8</ele><time>2011-04-24T01:24:58.0000000+00:00</time></trkpt><trkpt lat="22.322498" lon="103.770935"><ele>2482.8</ele><time>2011-04-24T01:25:03.0000000+00:00</time></trkpt><trkpt lat="22.322495" lon="103.770935"><ele>2482.8</ele><time>2011-04-24T01:25:08.0000000+00:00</time></trkpt><trkpt lat="22.322495" lon="103.770927"><ele>2482.8</ele><time>2011-04-24T01:25:13.0000000+00:00</time></trkpt><trkpt lat="22.322502" lon="103.770935"><ele>2482.7</ele><time>2011-04-24T01:25:18.0000000+00:00</time></trkpt><trkpt lat="22.322504" lon="103.770943"><ele>2482.8</ele><time>2011-04-24T01:25:23.0000000+00:00</time></trkpt><trkpt lat="22.322493" lon="103.770966"><ele>2483.0</ele><time>2011-04-24T01:25:28.0000000+00:00</time></trkpt><trkpt lat="22.322487" lon="103.770981"><ele>2483.2</ele><time>2011-04-24T01:25:33.0000000+00:00</time></trkpt><trkpt lat="22.322472" lon="103.770966"><ele>2483.5</ele><time>2011-04-24T01:25:38.0000000+00:00</time></trkpt><trkpt lat="22.322468" lon="103.770966"><ele>2484.7</ele><time>2011-04-24T01:25:43.0000000+00:00</time></trkpt><trkpt lat="22.322466" lon="103.770966"><ele>2484.9</ele><time>2011-04-24T01:25:48.0000000+00:00</time></trkpt><trkpt lat="22.322466" lon="103.770966"><ele>2485.0</ele><time>2011-04-24T01:25:53.0000000+00:00</time></trkpt><trkpt lat="22.322466" lon="103.770966"><ele>2485.0</ele><time>2011-04-24T01:25:58.0000000+00:00</time></trkpt><trkpt lat="22.322466" lon="103.770966"><ele>2485.0</ele><time>2011-04-24T01:26:03.0000000+00:00</time></trkpt><trkpt lat="22.322466" lon="103.770966"><ele>2485.0</ele><time>2011-04-24T01:26:08.0000000+00:00</time></trkpt><trkpt lat="22.322466" lon="103.770966"><ele>2485.1</ele><time>2011-04-24T01:26:13.0000000+00:00</time></trkpt><trkpt lat="22.322466" lon="103.770966"><ele>2485.1</ele><time>2011-04-24T01:26:18.0000000+00:00</time></trkpt><trkpt lat="22.322466" lon="103.770966"><ele>2485.1</ele><time>2011-04-24T01:26:23.0000000+00:00</time></trkpt><trkpt lat="22.322466" lon="103.770966"><ele>2485.2</ele><time>2011-04-24T01:26:28.0000000+00:00</time></trkpt><trkpt lat="22.32246" lon="103.770966"><ele>2485.2</ele><time>2011-04-24T01:26:33.0000000+00:00</time></trkpt><trkpt lat="22.322449" lon="103.770958"><ele>2485.8</ele><time>2011-04-24T01:26:38.0000000+00:00</time></trkpt><trkpt lat="22.322422" lon="103.770943"><ele>2488.2</ele><time>2011-04-24T01:26:43.0000000+00:00</time></trkpt><trkpt lat="22.322397" lon="103.770927"><ele>2490.0</ele><time>2011-04-24T01:26:48.0000000+00:00</time></trkpt><trkpt lat="22.32238" lon="103.77092"><ele>2492.3</ele><time>2011-04-24T01:26:53.0000000+00:00</time></trkpt><trkpt lat="22.322357" lon="103.770912"><ele>2493.2</ele><time>2011-04-24T01:26:58.0000000+00:00</time></trkpt><trkpt lat="22.322353" lon="103.770905"><ele>2494.3</ele><time>2011-04-24T01:27:03.0000000+00:00</time></trkpt><trkpt lat="22.322344" lon="103.770897"><ele>2496.5</ele><time>2011-04-24T01:27:08.0000000+00:00</time></trkpt><trkpt lat="22.322327" lon="103.770882"><ele>2498.0</ele><time>2011-04-24T01:27:13.0000000+00:00</time></trkpt><trkpt lat="22.322315" lon="103.770851"><ele>2499.4</ele><time>2011-04-24T01:27:18.0000000+00:00</time></trkpt><trkpt lat="22.3223" lon="103.770828"><ele>2500.1</ele><time>2011-04-24T01:27:23.0000000+00:00</time></trkpt><trkpt lat="22.322294" lon="103.770805"><ele>2500.7</ele><time>2011-04-24T01:27:28.0000000+00:00</time></trkpt><trkpt lat="22.322287" lon="103.77079"><ele>2501.4</ele><time>2011-04-24T01:27:33.0000000+00:00</time></trkpt><trkpt lat="22.322287" lon="103.770782"><ele>2502.5</ele><time>2011-04-24T01:27:38.0000000+00:00</time></trkpt><trkpt lat="22.32229" lon="103.770782"><ele>2503.1</ele><time>2011-04-24T01:27:43.0000000+00:00</time></trkpt><trkpt lat="22.32229" lon="103.770782"><ele>2503.1</ele><time>2011-04-24T01:27:48.0000000+00:00</time></trkpt><trkpt lat="22.322256" lon="103.770782"><ele>2503.5</ele><time>2011-04-24T01:27:53.0000000+00:00</time></trkpt><trkpt lat="22.322239" lon="103.770798"><ele>2503.5</ele><time>2011-04-24T01:27:58.0000000+00:00</time></trkpt><trkpt lat="22.322187" lon="103.770821"><ele>2504.3</ele><time>2011-04-24T01:28:03.0000000+00:00</time></trkpt><trkpt lat="22.322153" lon="103.770828"><ele>2505.2</ele><time>2011-04-24T01:28:08.0000000+00:00</time></trkpt><trkpt lat="22.322119" lon="103.770821"><ele>2505.5</ele><time>2011-04-24T01:28:13.0000000+00:00</time></trkpt><trkpt lat="22.32209" lon="103.770805"><ele>2506.7</ele><time>2011-04-24T01:28:18.0000000+00:00</time></trkpt><trkpt lat="22.322081" lon="103.770805"><ele>2508.2</ele><time>2011-04-24T01:28:23.0000000+00:00</time></trkpt><trkpt lat="22.32206" lon="103.770821"><ele>2508.8</ele><time>2011-04-24T01:28:28.0000000+00:00</time></trkpt><trkpt lat="22.322042" lon="103.770859"><ele>2510.4</ele><time>2011-04-24T01:28:33.0000000+00:00</time></trkpt><trkpt lat="22.322029" lon="103.770859"><ele>2511.8</ele><time>2011-04-24T01:28:38.0000000+00:00</time></trkpt><trkpt lat="22.322025" lon="103.770874"><ele>2512.5</ele><time>2011-04-24T01:28:43.0000000+00:00</time></trkpt><trkpt lat="22.32202" lon="103.770897"><ele>2514.7</ele><time>2011-04-24T01:28:48.0000000+00:00</time></trkpt><trkpt lat="22.321993" lon="103.770905"><ele>2515.6</ele><time>2011-04-24T01:28:53.0000000+00:00</time></trkpt><trkpt lat="22.321959" lon="103.770905"><ele>2516.5</ele><time>2011-04-24T01:28:58.0000000+00:00</time></trkpt><trkpt lat="22.321949" lon="103.770897"><ele>2516.6</ele><time>2011-04-24T01:29:03.0000000+00:00</time></trkpt><trkpt lat="22.321918" lon="103.770889"><ele>2517.6</ele><time>2011-04-24T01:29:08.0000000+00:00</time></trkpt><trkpt lat="22.321905" lon="103.770889"><ele>2518.9</ele><time>2011-04-24T01:29:13.0000000+00:00</time></trkpt><trkpt lat="22.321888" lon="103.770889"><ele>2520.8</ele><time>2011-04-24T01:29:18.0000000+00:00</time></trkpt><trkpt lat="22.321871" lon="103.770889"><ele>2522.8</ele><time>2011-04-24T01:29:23.0000000+00:00</time></trkpt><trkpt lat="22.321871" lon="103.770897"><ele>2523.4</ele><time>2011-04-24T01:29:28.0000000+00:00</time></trkpt><trkpt lat="22.321865" lon="103.770905"><ele>2524.0</ele><time>2011-04-24T01:29:33.0000000+00:00</time></trkpt><trkpt lat="22.32185" lon="103.77092"><ele>2524.8</ele><time>2011-04-24T01:29:38.0000000+00:00</time></trkpt><trkpt lat="22.321833" lon="103.770935"><ele>2525.2</ele><time>2011-04-24T01:29:43.0000000+00:00</time></trkpt><trkpt lat="22.321815" lon="103.770935"><ele>2526.0</ele><time>2011-04-24T01:29:48.0000000+00:00</time></trkpt><trkpt lat="22.321789" lon="103.770943"><ele>2527.8</ele><time>2011-04-24T01:29:53.0000000+00:00</time></trkpt><trkpt lat="22.321775" lon="103.77095"><ele>2529.0</ele><time>2011-04-24T01:29:58.0000000+00:00</time></trkpt><trkpt lat="22.321762" lon="103.77095"><ele>2529.7</ele><time>2011-04-24T01:30:03.0000000+00:00</time></trkpt><trkpt lat="22.321745" lon="103.77095"><ele>2530.2</ele><time>2011-04-24T01:30:08.0000000+00:00</time></trkpt><trkpt lat="22.32173" lon="103.770958"><ele>2532.0</ele><time>2011-04-24T01:30:13.0000000+00:00</time></trkpt><trkpt lat="22.321728" lon="103.770958"><ele>2532.3</ele><time>2011-04-24T01:30:18.0000000+00:00</time></trkpt><trkpt lat="22.321711" lon="103.77095"><ele>2533.0</ele><time>2011-04-24T01:30:23.0000000+00:00</time></trkpt><trkpt lat="22.321711" lon="103.77095"><ele>2533.6</ele><time>2011-04-24T01:30:28.0000000+00:00</time></trkpt><trkpt lat="22.321707" lon="103.77095"><ele>2533.7</ele><time>2011-04-24T01:30:33.0000000+00:00</time></trkpt><trkpt lat="22.321701" lon="103.770943"><ele>2534.0</ele><time>2011-04-24T01:30:38.0000000+00:00</time></trkpt><trkpt lat="22.321688" lon="103.77095"><ele>2534.7</ele><time>2011-04-24T01:30:43.0000000+00:00</time></trkpt><trkpt lat="22.321678" lon="103.770943"><ele>2535.4</ele><time>2011-04-24T01:30:48.0000000+00:00</time></trkpt><trkpt lat="22.321659" lon="103.770943"><ele>2535.9</ele><time>2011-04-24T01:30:53.0000000+00:00</time></trkpt><trkpt lat="22.32165" lon="103.770935"><ele>2536.8</ele><time>2011-04-24T01:30:58.0000000+00:00</time></trkpt><trkpt lat="22.32164" lon="103.770935"><ele>2537.9</ele><time>2011-04-24T01:31:03.0000000+00:00</time></trkpt><trkpt lat="22.321627" lon="103.77092"><ele>2538.5</ele><time>2011-04-24T01:31:08.0000000+00:00</time></trkpt><trkpt lat="22.321602" lon="103.770905"><ele>2539.6</ele><time>2011-04-24T01:31:13.0000000+00:00</time></trkpt><trkpt lat="22.321585" lon="103.770897"><ele>2540.7</ele><time>2011-04-24T01:31:18.0000000+00:00</time></trkpt><trkpt lat="22.321583" lon="103.770905"><ele>2541.7</ele><time>2011-04-24T01:31:23.0000000+00:00</time></trkpt><trkpt lat="22.321556" lon="103.770912"><ele>2542.7</ele><time>2011-04-24T01:31:28.0000000+00:00</time></trkpt><trkpt lat="22.321543" lon="103.770912"><ele>2543.1</ele><time>2011-04-24T01:31:33.0000000+00:00</time></trkpt><trkpt lat="22.321539" lon="103.770912"><ele>2543.5</ele><time>2011-04-24T01:31:38.0000000+00:00</time></trkpt><trkpt lat="22.321533" lon="103.770935"><ele>2543.8</ele><time>2011-04-24T01:31:43.0000000+00:00</time></trkpt><trkpt lat="22.321522" lon="103.770927"><ele>2545.0</ele><time>2011-04-24T01:31:48.0000000+00:00</time></trkpt><trkpt lat="22.32152" lon="103.77092"><ele>2545.3</ele><time>2011-04-24T01:31:53.0000000+00:00</time></trkpt><trkpt lat="22.32148" lon="103.770905"><ele>2545.8</ele><time>2011-04-24T01:31:58.0000000+00:00</time></trkpt><trkpt lat="22.321442" lon="103.770897"><ele>2547.5</ele><time>2011-04-24T01:32:03.0000000+00:00</time></trkpt><trkpt lat="22.321424" lon="103.77092"><ele>2549.9</ele><time>2011-04-24T01:32:08.0000000+00:00</time></trkpt><trkpt lat="22.3214" lon="103.770927"><ele>2551.2</ele><time>2011-04-24T01:32:13.0000000+00:00</time></trkpt><trkpt lat="22.321386" lon="103.770927"><ele>2552.0</ele><time>2011-04-24T01:32:18.0000000+00:00</time></trkpt><trkpt lat="22.321363" lon="103.770927"><ele>2552.3</ele><time>2011-04-24T01:32:23.0000000+00:00</time></trkpt><trkpt lat="22.321362" lon="103.770927"><ele>2553.0</ele><time>2011-04-24T01:32:28.0000000+00:00</time></trkpt><trkpt lat="22.321352" lon="103.770927"><ele>2553.3</ele><time>2011-04-24T01:32:33.0000000+00:00</time></trkpt><trkpt lat="22.321339" lon="103.770935"><ele>2553.4</ele><time>2011-04-24T01:32:38.0000000+00:00</time></trkpt><trkpt lat="22.321316" lon="103.770935"><ele>2554.9</ele><time>2011-04-24T01:32:43.0000000+00:00</time></trkpt><trkpt lat="22.321283" lon="103.77095"><ele>2555.5</ele><time>2011-04-24T01:32:48.0000000+00:00</time></trkpt><trkpt lat="22.321281" lon="103.770966"><ele>2556.9</ele><time>2011-04-24T01:32:53.0000000+00:00</time></trkpt><trkpt lat="22.32128" lon="103.770966"><ele>2557.8</ele><time>2011-04-24T01:32:58.0000000+00:00</time></trkpt><trkpt lat="22.32127" lon="103.770973"><ele>2558.0</ele><time>2011-04-24T01:33:03.0000000+00:00</time></trkpt><trkpt lat="22.321243" lon="103.770973"><ele>2558.7</ele><time>2011-04-24T01:33:08.0000000+00:00</time></trkpt><trkpt lat="22.321218" lon="103.77095"><ele>2559.8</ele><time>2011-04-24T01:33:13.0000000+00:00</time></trkpt><trkpt lat="22.321194" lon="103.770935"><ele>2560.4</ele><time>2011-04-24T01:33:18.0000000+00:00</time></trkpt><trkpt lat="22.321173" lon="103.770912"><ele>2561.8</ele><time>2011-04-24T01:33:23.0000000+00:00</time></trkpt><trkpt lat="22.321146" lon="103.770905"><ele>2564.0</ele><time>2011-04-24T01:33:28.0000000+00:00</time></trkpt><trkpt lat="22.321133" lon="103.770905"><ele>2565.4</ele><time>2011-04-24T01:33:33.0000000+00:00</time></trkpt><trkpt lat="22.321131" lon="103.770897"><ele>2566.0</ele><time>2011-04-24T01:33:38.0000000+00:00</time></trkpt><trkpt lat="22.321112" lon="103.770905"><ele>2566.4</ele><time>2011-04-24T01:33:43.0000000+00:00</time></trkpt><trkpt lat="22.321095" lon="103.770912"><ele>2567.4</ele><time>2011-04-24T01:33:48.0000000+00:00</time></trkpt><trkpt lat="22.321075" lon="103.770897"><ele>2568.3</ele><time>2011-04-24T01:33:53.0000000+00:00</time></trkpt><trkpt lat="22.321058" lon="103.770905"><ele>2569.3</ele><time>2011-04-24T01:33:58.0000000+00:00</time></trkpt><trkpt lat="22.321054" lon="103.770905"><ele>2570.7</ele><time>2011-04-24T01:34:03.0000000+00:00</time></trkpt><trkpt lat="22.321047" lon="103.770905"><ele>2570.9</ele><time>2011-04-24T01:34:08.0000000+00:00</time></trkpt><trkpt lat="22.321026" lon="103.770905"><ele>2571.3</ele><time>2011-04-24T01:34:13.0000000+00:00</time></trkpt><trkpt lat="22.321001" lon="103.770897"><ele>2571.7</ele><time>2011-04-24T01:34:18.0000000+00:00</time></trkpt><trkpt lat="22.320972" lon="103.770882"><ele>2572.6</ele><time>2011-04-24T01:34:23.0000000+00:00</time></trkpt><trkpt lat="22.320957" lon="103.770874"><ele>2573.3</ele><time>2011-04-24T01:34:28.0000000+00:00</time></trkpt><trkpt lat="22.32094" lon="103.770844"><ele>2573.8</ele><time>2011-04-24T01:34:33.0000000+00:00</time></trkpt><trkpt lat="22.32091" lon="103.770836"><ele>2574.3</ele><time>2011-04-24T01:34:38.0000000+00:00</time></trkpt><trkpt lat="22.320881" lon="103.770805"><ele>2575.3</ele><time>2011-04-24T01:34:43.0000000+00:00</time></trkpt><trkpt lat="22.320862" lon="103.770782"><ele>2575.1</ele><time>2011-04-24T01:34:48.0000000+00:00</time></trkpt><trkpt lat="22.320827" lon="103.77076"><ele>2574.6</ele><time>2011-04-24T01:34:53.0000000+00:00</time></trkpt><trkpt lat="22.320805" lon="103.770752"><ele>2575.3</ele><time>2011-04-24T01:34:58.0000000+00:00</time></trkpt><trkpt lat="22.320768" lon="103.77076"><ele>2575.9</ele><time>2011-04-24T01:35:03.0000000+00:00</time></trkpt><trkpt lat="22.320738" lon="103.770752"><ele>2575.8</ele><time>2011-04-24T01:35:08.0000000+00:00</time></trkpt><trkpt lat="22.320696" lon="103.770729"><ele>2575.2</ele><time>2011-04-24T01:35:13.0000000+00:00</time></trkpt><trkpt lat="22.32066" lon="103.770714"><ele>2575.3</ele><time>2011-04-24T01:35:18.0000000+00:00</time></trkpt><trkpt lat="22.320646" lon="103.770706"><ele>2575.7</ele><time>2011-04-24T01:35:23.0000000+00:00</time></trkpt><trkpt lat="22.320642" lon="103.770676"><ele>2575.5</ele><time>2011-04-24T01:35:28.0000000+00:00</time></trkpt><trkpt lat="22.320627" lon="103.770607"><ele>2575.8</ele><time>2011-04-24T01:35:33.0000000+00:00</time></trkpt><trkpt lat="22.320627" lon="103.770569"><ele>2577.2</ele><time>2011-04-24T01:35:38.0000000+00:00</time></trkpt><trkpt lat="22.320614" lon="103.770531"><ele>2577.3</ele><time>2011-04-24T01:35:43.0000000+00:00</time></trkpt><trkpt lat="22.32061" lon="103.770508"><ele>2577.1</ele><time>2011-04-24T01:35:48.0000000+00:00</time></trkpt><trkpt lat="22.32061" lon="103.770485"><ele>2576.5</ele><time>2011-04-24T01:35:53.0000000+00:00</time></trkpt><trkpt lat="22.320612" lon="103.770454"><ele>2575.3</ele><time>2011-04-24T01:35:58.0000000+00:00</time></trkpt><trkpt lat="22.320595" lon="103.770432"><ele>2574.7</ele><time>2011-04-24T01:36:03.0000000+00:00</time></trkpt><trkpt lat="22.320608" lon="103.77037"><ele>2574.5</ele><time>2011-04-24T01:36:08.0000000+00:00</time></trkpt><trkpt lat="22.320599" lon="103.770325"><ele>2574.3</ele><time>2011-04-24T01:36:13.0000000+00:00</time></trkpt><trkpt lat="22.32061" lon="103.770294"><ele>2574.1</ele><time>2011-04-24T01:36:18.0000000+00:00</time></trkpt><trkpt lat="22.320604" lon="103.770271"><ele>2574.8</ele><time>2011-04-24T01:36:23.0000000+00:00</time></trkpt><trkpt lat="22.320606" lon="103.770264"><ele>2575.9</ele><time>2011-04-24T01:36:28.0000000+00:00</time></trkpt><trkpt lat="22.320602" lon="103.770256"><ele>2575.9</ele><time>2011-04-24T01:36:33.0000000+00:00</time></trkpt><trkpt lat="22.320585" lon="103.770226"><ele>2576.2</ele><time>2011-04-24T01:36:38.0000000+00:00</time></trkpt><trkpt lat="22.320562" lon="103.770203"><ele>2576.7</ele><time>2011-04-24T01:36:43.0000000+00:00</time></trkpt><trkpt lat="22.320539" lon="103.770187"><ele>2577.2</ele><time>2011-04-24T01:36:48.0000000+00:00</time></trkpt><trkpt lat="22.320528" lon="103.770164"><ele>2578.5</ele><time>2011-04-24T01:36:53.0000000+00:00</time></trkpt><trkpt lat="22.32053" lon="103.770157"><ele>2579.2</ele><time>2011-04-24T01:36:58.0000000+00:00</time></trkpt><trkpt lat="22.320507" lon="103.770149"><ele>2579.8</ele><time>2011-04-24T01:37:03.0000000+00:00</time></trkpt><trkpt lat="22.32049" lon="103.770126"><ele>2580.2</ele><time>2011-04-24T01:37:08.0000000+00:00</time></trkpt><trkpt lat="22.320482" lon="103.770096"><ele>2581.1</ele><time>2011-04-24T01:37:13.0000000+00:00</time></trkpt><trkpt lat="22.320471" lon="103.770073"><ele>2581.5</ele><time>2011-04-24T01:37:18.0000000+00:00</time></trkpt><trkpt lat="22.320454" lon="103.770081"><ele>2583.0</ele><time>2011-04-24T01:37:23.0000000+00:00</time></trkpt><trkpt lat="22.320444" lon="103.770073"><ele>2584.1</ele><time>2011-04-24T01:37:28.0000000+00:00</time></trkpt><trkpt lat="22.320429" lon="103.770058"><ele>2584.8</ele><time>2011-04-24T01:37:33.0000000+00:00</time></trkpt><trkpt lat="22.320421" lon="103.770058"><ele>2585.3</ele><time>2011-04-24T01:37:38.0000000+00:00</time></trkpt><trkpt lat="22.320412" lon="103.77005"><ele>2585.8</ele><time>2011-04-24T01:37:43.0000000+00:00</time></trkpt><trkpt lat="22.32041" lon="103.770058"><ele>2588.5</ele><time>2011-04-24T01:37:48.0000000+00:00</time></trkpt><trkpt lat="22.320414" lon="103.77005"><ele>2589.9</ele><time>2011-04-24T01:37:53.0000000+00:00</time></trkpt><trkpt lat="22.320408" lon="103.770042"><ele>2590.7</ele><time>2011-04-24T01:37:58.0000000+00:00</time></trkpt><trkpt lat="22.320404" lon="103.770035"><ele>2591.6</ele><time>2011-04-24T01:38:03.0000000+00:00</time></trkpt><trkpt lat="22.320383" lon="103.77002"><ele>2592.5</ele><time>2011-04-24T01:38:08.0000000+00:00</time></trkpt><trkpt lat="22.320354" lon="103.770004"><ele>2592.8</ele><time>2011-04-24T01:38:13.0000000+00:00</time></trkpt><trkpt lat="22.320353" lon="103.769981"><ele>2594.1</ele><time>2011-04-24T01:38:18.0000000+00:00</time></trkpt><trkpt lat="22.320335" lon="103.769981"><ele>2595.2</ele><time>2011-04-24T01:38:23.0000000+00:00</time></trkpt><trkpt lat="22.320328" lon="103.769981"><ele>2596.2</ele><time>2011-04-24T01:38:28.0000000+00:00</time></trkpt><trkpt lat="22.320326" lon="103.769981"><ele>2597.1</ele><time>2011-04-24T01:38:33.0000000+00:00</time></trkpt><trkpt lat="22.320322" lon="103.769981"><ele>2598.1</ele><time>2011-04-24T01:38:38.0000000+00:00</time></trkpt><trkpt lat="22.320322" lon="103.769981"><ele>2599.2</ele><time>2011-04-24T01:38:43.0000000+00:00</time></trkpt><trkpt lat="22.320324" lon="103.769974"><ele>2600.3</ele><time>2011-04-24T01:38:48.0000000+00:00</time></trkpt><trkpt lat="22.320322" lon="103.769974"><ele>2601.3</ele><time>2011-04-24T01:38:53.0000000+00:00</time></trkpt><trkpt lat="22.320324" lon="103.769966"><ele>2602.3</ele><time>2011-04-24T01:38:58.0000000+00:00</time></trkpt><trkpt lat="22.320324" lon="103.769966"><ele>2603.3</ele><time>2011-04-24T01:39:03.0000000+00:00</time></trkpt><trkpt lat="22.320322" lon="103.769958"><ele>2604.3</ele><time>2011-04-24T01:39:08.0000000+00:00</time></trkpt><trkpt lat="22.320324" lon="103.769958"><ele>2605.3</ele><time>2011-04-24T01:39:13.0000000+00:00</time></trkpt><trkpt lat="22.320324" lon="103.769958"><ele>2606.1</ele><time>2011-04-24T01:39:18.0000000+00:00</time></trkpt><trkpt lat="22.320326" lon="103.769966"><ele>2606.9</ele><time>2011-04-24T01:39:23.0000000+00:00</time></trkpt><trkpt lat="22.320326" lon="103.769966"><ele>2607.7</ele><time>2011-04-24T01:39:28.0000000+00:00</time></trkpt><trkpt lat="22.320328" lon="103.769966"><ele>2608.3</ele><time>2011-04-24T01:39:33.0000000+00:00</time></trkpt><trkpt lat="22.32033" lon="103.769958"><ele>2608.8</ele><time>2011-04-24T01:39:38.0000000+00:00</time></trkpt><trkpt lat="22.320333" lon="103.769958"><ele>2609.3</ele><time>2011-04-24T01:39:43.0000000+00:00</time></trkpt><trkpt lat="22.320339" lon="103.769966"><ele>2609.5</ele><time>2011-04-24T01:39:48.0000000+00:00</time></trkpt><trkpt lat="22.320347" lon="103.769966"><ele>2609.7</ele><time>2011-04-24T01:39:53.0000000+00:00</time></trkpt><trkpt lat="22.320351" lon="103.769966"><ele>2609.9</ele><time>2011-04-24T01:39:58.0000000+00:00</time></trkpt><trkpt lat="22.320354" lon="103.769966"><ele>2610.0</ele><time>2011-04-24T01:40:03.0000000+00:00</time></trkpt><trkpt lat="22.320358" lon="103.769966"><ele>2610.1</ele><time>2011-04-24T01:40:08.0000000+00:00</time></trkpt><trkpt lat="22.32036" lon="103.769974"><ele>2610.2</ele><time>2011-04-24T01:40:13.0000000+00:00</time></trkpt><trkpt lat="22.320364" lon="103.769974"><ele>2610.2</ele><time>2011-04-24T01:40:18.0000000+00:00</time></trkpt><trkpt lat="22.320364" lon="103.769974"><ele>2610.2</ele><time>2011-04-24T01:40:23.0000000+00:00</time></trkpt><trkpt lat="22.320364" lon="103.769974"><ele>2610.2</ele><time>2011-04-24T01:40:28.0000000+00:00</time></trkpt><trkpt lat="22.320364" lon="103.769974"><ele>2610.2</ele><time>2011-04-24T01:40:33.0000000+00:00</time></trkpt><trkpt lat="22.320364" lon="103.769974"><ele>2610.1</ele><time>2011-04-24T01:40:38.0000000+00:00</time></trkpt><trkpt lat="22.320364" lon="103.769974"><ele>2610.1</ele><time>2011-04-24T01:40:43.0000000+00:00</time></trkpt><trkpt lat="22.320364" lon="103.769974"><ele>2610.0</ele><time>2011-04-24T01:40:48.0000000+00:00</time></trkpt><trkpt lat="22.320364" lon="103.769974"><ele>2610.0</ele><time>2011-04-24T01:40:53.0000000+00:00</time></trkpt><trkpt lat="22.320364" lon="103.769974"><ele>2610.0</ele><time>2011-04-24T01:40:58.0000000+00:00</time></trkpt><trkpt lat="22.320364" lon="103.769974"><ele>2609.9</ele><time>2011-04-24T01:41:03.0000000+00:00</time></trkpt><trkpt lat="22.320364" lon="103.769974"><ele>2609.9</ele><time>2011-04-24T01:41:08.0000000+00:00</time></trkpt><trkpt lat="22.320364" lon="103.769974"><ele>2609.9</ele><time>2011-04-24T01:41:13.0000000+00:00</time></trkpt><trkpt lat="22.320364" lon="103.769974"><ele>2609.8</ele><time>2011-04-24T01:41:18.0000000+00:00</time></trkpt><trkpt lat="22.320362" lon="103.769974"><ele>2609.8</ele><time>2011-04-24T01:41:23.0000000+00:00</time></trkpt><trkpt lat="22.320364" lon="103.769974"><ele>2609.8</ele><time>2011-04-24T01:41:28.0000000+00:00</time></trkpt><trkpt lat="22.320364" lon="103.769974"><ele>2609.8</ele><time>2011-04-24T01:41:33.0000000+00:00</time></trkpt><trkpt lat="22.320364" lon="103.769974"><ele>2609.7</ele><time>2011-04-24T01:41:38.0000000+00:00</time></trkpt><trkpt lat="22.320364" lon="103.769974"><ele>2609.7</ele><time>2011-04-24T01:41:43.0000000+00:00</time></trkpt><trkpt lat="22.320364" lon="103.769974"><ele>2609.7</ele><time>2011-04-24T01:41:48.0000000+00:00</time></trkpt><trkpt lat="22.320364" lon="103.769974"><ele>2609.7</ele><time>2011-04-24T01:41:53.0000000+00:00</time></trkpt><trkpt lat="22.320364" lon="103.769974"><ele>2609.7</ele><time>2011-04-24T01:41:58.0000000+00:00</time></trkpt><trkpt lat="22.320364" lon="103.769974"><ele>2609.7</ele><time>2011-04-24T01:42:03.0000000+00:00</time></trkpt><trkpt lat="22.320364" lon="103.769974"><ele>2609.6</ele><time>2011-04-24T01:42:08.0000000+00:00</time></trkpt><trkpt lat="22.320364" lon="103.769974"><ele>2609.6</ele><time>2011-04-24T01:42:13.0000000+00:00</time></trkpt><trkpt lat="22.320364" lon="103.769974"><ele>2609.6</ele><time>2011-04-24T01:42:18.0000000+00:00</time></trkpt><trkpt lat="22.320364" lon="103.769974"><ele>2609.5</ele><time>2011-04-24T01:42:23.0000000+00:00</time></trkpt><trkpt lat="22.320364" lon="103.769974"><ele>2609.5</ele><time>2011-04-24T01:42:28.0000000+00:00</time></trkpt><trkpt lat="22.320364" lon="103.769974"><ele>2609.4</ele><time>2011-04-24T01:42:33.0000000+00:00</time></trkpt><trkpt lat="22.320364" lon="103.769974"><ele>2609.4</ele><time>2011-04-24T01:42:38.0000000+00:00</time></trkpt><trkpt lat="22.320364" lon="103.769974"><ele>2609.3</ele><time>2011-04-24T01:42:43.0000000+00:00</time></trkpt><trkpt lat="22.320364" lon="103.769974"><ele>2609.3</ele><time>2011-04-24T01:42:48.0000000+00:00</time></trkpt><trkpt lat="22.320364" lon="103.769974"><ele>2609.3</ele><time>2011-04-24T01:42:53.0000000+00:00</time></trkpt><trkpt lat="22.320364" lon="103.769974"><ele>2609.3</ele><time>2011-04-24T01:42:58.0000000+00:00</time></trkpt><trkpt lat="22.320362" lon="103.769974"><ele>2609.3</ele><time>2011-04-24T01:43:03.0000000+00:00</time></trkpt><trkpt lat="22.320362" lon="103.769974"><ele>2609.3</ele><time>2011-04-24T01:43:08.0000000+00:00</time></trkpt><trkpt lat="22.320362" lon="103.769974"><ele>2609.3</ele><time>2011-04-24T01:43:13.0000000+00:00</time></trkpt><trkpt lat="22.320362" lon="103.769974"><ele>2609.3</ele><time>2011-04-24T01:43:18.0000000+00:00</time></trkpt><trkpt lat="22.320362" lon="103.769974"><ele>2609.3</ele><time>2011-04-24T01:43:23.0000000+00:00</time></trkpt><trkpt lat="22.320362" lon="103.769974"><ele>2609.3</ele><time>2011-04-24T01:43:28.0000000+00:00</time></trkpt><trkpt lat="22.320362" lon="103.769974"><ele>2609.3</ele><time>2011-04-24T01:43:33.0000000+00:00</time></trkpt><trkpt lat="22.320362" lon="103.769974"><ele>2609.3</ele><time>2011-04-24T01:43:38.0000000+00:00</time></trkpt><trkpt lat="22.320362" lon="103.769974"><ele>2609.2</ele><time>2011-04-24T01:43:43.0000000+00:00</time></trkpt><trkpt lat="22.32036" lon="103.769974"><ele>2609.2</ele><time>2011-04-24T01:43:48.0000000+00:00</time></trkpt><trkpt lat="22.32036" lon="103.769974"><ele>2609.2</ele><time>2011-04-24T01:43:53.0000000+00:00</time></trkpt><trkpt lat="22.32036" lon="103.769974"><ele>2609.2</ele><time>2011-04-24T01:43:58.0000000+00:00</time></trkpt><trkpt lat="22.32036" lon="103.769974"><ele>2609.2</ele><time>2011-04-24T01:44:03.0000000+00:00</time></trkpt><trkpt lat="22.32036" lon="103.769974"><ele>2609.2</ele><time>2011-04-24T01:44:08.0000000+00:00</time></trkpt><trkpt lat="22.32036" lon="103.769974"><ele>2609.2</ele><time>2011-04-24T01:44:13.0000000+00:00</time></trkpt><trkpt lat="22.32036" lon="103.769974"><ele>2609.2</ele><time>2011-04-24T01:44:18.0000000+00:00</time></trkpt><trkpt lat="22.32036" lon="103.769974"><ele>2609.2</ele><time>2011-04-24T01:44:23.0000000+00:00</time></trkpt><trkpt lat="22.32036" lon="103.769974"><ele>2609.1</ele><time>2011-04-24T01:44:28.0000000+00:00</time></trkpt><trkpt lat="22.32036" lon="103.769974"><ele>2609.1</ele><time>2011-04-24T01:44:33.0000000+00:00</time></trkpt><trkpt lat="22.32036" lon="103.769974"><ele>2609.1</ele><time>2011-04-24T01:44:38.0000000+00:00</time></trkpt><trkpt lat="22.32036" lon="103.769974"><ele>2609.1</ele><time>2011-04-24T01:44:43.0000000+00:00</time></trkpt><trkpt lat="22.32036" lon="103.769974"><ele>2609.0</ele><time>2011-04-24T01:44:48.0000000+00:00</time></trkpt><trkpt lat="22.32036" lon="103.769974"><ele>2609.0</ele><time>2011-04-24T01:44:53.0000000+00:00</time></trkpt><trkpt lat="22.32036" lon="103.769974"><ele>2609.0</ele><time>2011-04-24T01:44:58.0000000+00:00</time></trkpt><trkpt lat="22.32036" lon="103.769974"><ele>2609.0</ele><time>2011-04-24T01:45:03.0000000+00:00</time></trkpt><trkpt lat="22.32036" lon="103.769974"><ele>2609.0</ele><time>2011-04-24T01:45:08.0000000+00:00</time></trkpt><trkpt lat="22.32036" lon="103.769974"><ele>2608.9</ele><time>2011-04-24T01:45:13.0000000+00:00</time></trkpt><trkpt lat="22.32036" lon="103.769974"><ele>2608.9</ele><time>2011-04-24T01:45:18.0000000+00:00</time></trkpt><trkpt lat="22.32036" lon="103.769974"><ele>2608.9</ele><time>2011-04-24T01:45:23.0000000+00:00</time></trkpt><trkpt lat="22.32036" lon="103.769974"><ele>2608.8</ele><time>2011-04-24T01:45:28.0000000+00:00</time></trkpt><trkpt lat="22.32036" lon="103.769974"><ele>2608.8</ele><time>2011-04-24T01:45:33.0000000+00:00</time></trkpt><trkpt lat="22.32036" lon="103.769974"><ele>2608.7</ele><time>2011-04-24T01:45:38.0000000+00:00</time></trkpt><trkpt lat="22.320358" lon="103.769974"><ele>2608.7</ele><time>2011-04-24T01:45:43.0000000+00:00</time></trkpt><trkpt lat="22.320358" lon="103.769974"><ele>2608.7</ele><time>2011-04-24T01:45:48.0000000+00:00</time></trkpt><trkpt lat="22.320358" lon="103.769974"><ele>2608.7</ele><time>2011-04-24T01:45:53.0000000+00:00</time></trkpt><trkpt lat="22.320358" lon="103.769974"><ele>2608.6</ele><time>2011-04-24T01:45:58.0000000+00:00</time></trkpt><trkpt lat="22.320358" lon="103.769974"><ele>2608.5</ele><time>2011-04-24T01:46:03.0000000+00:00</time></trkpt><trkpt lat="22.320358" lon="103.769974"><ele>2608.4</ele><time>2011-04-24T01:46:08.0000000+00:00</time></trkpt><trkpt lat="22.320358" lon="103.769974"><ele>2608.3</ele><time>2011-04-24T01:46:13.0000000+00:00</time></trkpt><trkpt lat="22.320358" lon="103.769974"><ele>2608.2</ele><time>2011-04-24T01:46:18.0000000+00:00</time></trkpt><trkpt lat="22.320358" lon="103.769974"><ele>2608.2</ele><time>2011-04-24T01:46:23.0000000+00:00</time></trkpt><trkpt lat="22.320358" lon="103.769974"><ele>2608.2</ele><time>2011-04-24T01:46:28.0000000+00:00</time></trkpt><trkpt lat="22.320358" lon="103.769974"><ele>2608.1</ele><time>2011-04-24T01:46:33.0000000+00:00</time></trkpt><trkpt lat="22.320358" lon="103.769974"><ele>2608.1</ele><time>2011-04-24T01:46:38.0000000+00:00</time></trkpt><trkpt lat="22.320358" lon="103.769974"><ele>2608.0</ele><time>2011-04-24T01:46:43.0000000+00:00</time></trkpt><trkpt lat="22.320358" lon="103.769974"><ele>2608.0</ele><time>2011-04-24T01:46:48.0000000+00:00</time></trkpt><trkpt lat="22.320358" lon="103.769974"><ele>2608.0</ele><time>2011-04-24T01:46:53.0000000+00:00</time></trkpt><trkpt lat="22.320358" lon="103.769974"><ele>2608.0</ele><time>2011-04-24T01:46:58.0000000+00:00</time></trkpt><trkpt lat="22.320358" lon="103.769974"><ele>2608.0</ele><time>2011-04-24T01:47:03.0000000+00:00</time></trkpt><trkpt lat="22.320358" lon="103.769974"><ele>2608.0</ele><time>2011-04-24T01:47:08.0000000+00:00</time></trkpt><trkpt lat="22.320358" lon="103.769974"><ele>2607.9</ele><time>2011-04-24T01:47:13.0000000+00:00</time></trkpt><trkpt lat="22.320358" lon="103.769974"><ele>2607.9</ele><time>2011-04-24T01:47:18.0000000+00:00</time></trkpt><trkpt lat="22.320358" lon="103.769974"><ele>2607.9</ele><time>2011-04-24T01:47:23.0000000+00:00</time></trkpt><trkpt lat="22.320358" lon="103.769974"><ele>2607.9</ele><time>2011-04-24T01:47:28.0000000+00:00</time></trkpt><trkpt lat="22.320358" lon="103.769974"><ele>2607.8</ele><time>2011-04-24T01:47:33.0000000+00:00</time></trkpt><trkpt lat="22.320358" lon="103.769981"><ele>2607.8</ele><time>2011-04-24T01:47:38.0000000+00:00</time></trkpt><trkpt lat="22.320358" lon="103.769981"><ele>2607.8</ele><time>2011-04-24T01:47:43.0000000+00:00</time></trkpt><trkpt lat="22.320358" lon="103.769981"><ele>2607.8</ele><time>2011-04-24T01:47:48.0000000+00:00</time></trkpt><trkpt lat="22.320358" lon="103.769981"><ele>2607.8</ele><time>2011-04-24T01:47:53.0000000+00:00</time></trkpt><trkpt lat="22.320358" lon="103.769981"><ele>2607.8</ele><time>2011-04-24T01:47:58.0000000+00:00</time></trkpt><trkpt lat="22.320358" lon="103.769981"><ele>2607.7</ele><time>2011-04-24T01:48:03.0000000+00:00</time></trkpt><trkpt lat="22.320358" lon="103.769981"><ele>2607.7</ele><time>2011-04-24T01:48:08.0000000+00:00</time></trkpt><trkpt lat="22.320358" lon="103.769981"><ele>2607.7</ele><time>2011-04-24T01:48:13.0000000+00:00</time></trkpt><trkpt lat="22.320358" lon="103.769981"><ele>2607.7</ele><time>2011-04-24T01:48:18.0000000+00:00</time></trkpt><trkpt lat="22.320358" lon="103.769981"><ele>2607.7</ele><time>2011-04-24T01:48:23.0000000+00:00</time></trkpt><trkpt lat="22.320358" lon="103.769981"><ele>2607.7</ele><time>2011-04-24T01:48:28.0000000+00:00</time></trkpt><trkpt lat="22.320358" lon="103.769981"><ele>2607.7</ele><time>2011-04-24T01:48:33.0000000+00:00</time></trkpt><trkpt lat="22.320356" lon="103.769981"><ele>2607.6</ele><time>2011-04-24T01:48:38.0000000+00:00</time></trkpt><trkpt lat="22.320358" lon="103.769981"><ele>2607.6</ele><time>2011-04-24T01:48:43.0000000+00:00</time></trkpt><trkpt lat="22.320356" lon="103.769981"><ele>2607.6</ele><time>2011-04-24T01:48:48.0000000+00:00</time></trkpt><trkpt lat="22.320356" lon="103.769981"><ele>2607.5</ele><time>2011-04-24T01:48:53.0000000+00:00</time></trkpt><trkpt lat="22.320356" lon="103.769974"><ele>2607.5</ele><time>2011-04-24T01:48:58.0000000+00:00</time></trkpt><trkpt lat="22.320354" lon="103.769974"><ele>2607.5</ele><time>2011-04-24T01:49:03.0000000+00:00</time></trkpt><trkpt lat="22.320333" lon="103.769966"><ele>2605.5</ele><time>2011-04-24T01:49:08.0000000+00:00</time></trkpt><trkpt lat="22.320324" lon="103.769943"><ele>2605.2</ele><time>2011-04-24T01:49:13.0000000+00:00</time></trkpt><trkpt lat="22.320313" lon="103.769943"><ele>2605.1</ele><time>2011-04-24T01:49:18.0000000+00:00</time></trkpt><trkpt lat="22.320303" lon="103.769936"><ele>2605.0</ele><time>2011-04-24T01:49:23.0000000+00:00</time></trkpt><trkpt lat="22.320295" lon="103.769928"><ele>2604.9</ele><time>2011-04-24T01:49:28.0000000+00:00</time></trkpt><trkpt lat="22.320297" lon="103.769882"><ele>2605.0</ele><time>2011-04-24T01:49:33.0000000+00:00</time></trkpt><trkpt lat="22.320293" lon="103.769844"><ele>2605.5</ele><time>2011-04-24T01:49:38.0000000+00:00</time></trkpt><trkpt lat="22.320278" lon="103.769821"><ele>2606.2</ele><time>2011-04-24T01:49:43.0000000+00:00</time></trkpt><trkpt lat="22.320267" lon="103.769806"><ele>2606.2</ele><time>2011-04-24T01:49:48.0000000+00:00</time></trkpt><trkpt lat="22.320257" lon="103.769798"><ele>2606.4</ele><time>2011-04-24T01:49:53.0000000+00:00</time></trkpt><trkpt lat="22.320248" lon="103.769775"><ele>2606.5</ele><time>2011-04-24T01:49:58.0000000+00:00</time></trkpt><trkpt lat="22.320238" lon="103.769753"><ele>2606.5</ele><time>2011-04-24T01:50:03.0000000+00:00</time></trkpt><trkpt lat="22.320246" lon="103.769699"><ele>2606.4</ele><time>2011-04-24T01:50:08.0000000+00:00</time></trkpt><trkpt lat="22.320255" lon="103.769707"><ele>2606.5</ele><time>2011-04-24T01:50:13.0000000+00:00</time></trkpt><trkpt lat="22.320253" lon="103.76973"><ele>2606.6</ele><time>2011-04-24T01:50:18.0000000+00:00</time></trkpt><trkpt lat="22.32025" lon="103.76973"><ele>2606.7</ele><time>2011-04-24T01:50:23.0000000+00:00</time></trkpt><trkpt lat="22.320234" lon="103.769714"><ele>2606.7</ele><time>2011-04-24T01:50:28.0000000+00:00</time></trkpt><trkpt lat="22.320215" lon="103.769707"><ele>2606.6</ele><time>2011-04-24T01:50:33.0000000+00:00</time></trkpt><trkpt lat="22.320225" lon="103.769714"><ele>2606.7</ele><time>2011-04-24T01:50:38.0000000+00:00</time></trkpt><trkpt lat="22.320223" lon="103.769714"><ele>2606.7</ele><time>2011-04-24T01:50:43.0000000+00:00</time></trkpt><trkpt lat="22.320223" lon="103.769714"><ele>2606.7</ele><time>2011-04-24T01:50:48.0000000+00:00</time></trkpt><trkpt lat="22.320225" lon="103.769707"><ele>2606.8</ele><time>2011-04-24T01:50:53.0000000+00:00</time></trkpt><trkpt lat="22.32023" lon="103.769707"><ele>2606.8</ele><time>2011-04-24T01:50:58.0000000+00:00</time></trkpt><trkpt lat="22.32023" lon="103.769707"><ele>2606.9</ele><time>2011-04-24T01:51:03.0000000+00:00</time></trkpt><trkpt lat="22.32023" lon="103.769707"><ele>2607.0</ele><time>2011-04-24T01:51:08.0000000+00:00</time></trkpt><trkpt lat="22.320229" lon="103.769707"><ele>2607.1</ele><time>2011-04-24T01:51:13.0000000+00:00</time></trkpt><trkpt lat="22.320208" lon="103.769699"><ele>2607.2</ele><time>2011-04-24T01:51:18.0000000+00:00</time></trkpt><trkpt lat="22.320168" lon="103.76973"><ele>2607.0</ele><time>2011-04-24T01:51:23.0000000+00:00</time></trkpt><trkpt lat="22.320166" lon="103.769775"><ele>2607.4</ele><time>2011-04-24T01:51:28.0000000+00:00</time></trkpt><trkpt lat="22.320141" lon="103.769775"><ele>2607.2</ele><time>2011-04-24T01:51:33.0000000+00:00</time></trkpt><trkpt lat="22.320118" lon="103.769798"><ele>2607.4</ele><time>2011-04-24T01:51:38.0000000+00:00</time></trkpt><trkpt lat="22.320099" lon="103.769806"><ele>2607.7</ele><time>2011-04-24T01:51:43.0000000+00:00</time></trkpt><trkpt lat="22.320105" lon="103.769836"><ele>2608.3</ele><time>2011-04-24T01:51:48.0000000+00:00</time></trkpt><trkpt lat="22.320131" lon="103.769821"><ele>2608.5</ele><time>2011-04-24T01:51:53.0000000+00:00</time></trkpt><trkpt lat="22.320133" lon="103.769814"><ele>2608.6</ele><time>2011-04-24T01:51:58.0000000+00:00</time></trkpt><trkpt lat="22.320139" lon="103.769814"><ele>2608.7</ele><time>2011-04-24T01:52:03.0000000+00:00</time></trkpt><trkpt lat="22.320147" lon="103.769821"><ele>2608.7</ele><time>2011-04-24T01:52:08.0000000+00:00</time></trkpt><trkpt lat="22.320156" lon="103.769821"><ele>2608.6</ele><time>2011-04-24T01:52:13.0000000+00:00</time></trkpt><trkpt lat="22.320171" lon="103.769821"><ele>2608.1</ele><time>2011-04-24T01:52:18.0000000+00:00</time></trkpt><trkpt lat="22.320185" lon="103.769821"><ele>2607.9</ele><time>2011-04-24T01:52:23.0000000+00:00</time></trkpt><trkpt lat="22.32023" lon="103.769844"><ele>2604.1</ele><time>2011-04-24T01:52:28.0000000+00:00</time></trkpt><trkpt lat="22.320248" lon="103.769844"><ele>2603.7</ele><time>2011-04-24T01:52:33.0000000+00:00</time></trkpt><trkpt lat="22.320248" lon="103.769844"><ele>2603.2</ele><time>2011-04-24T01:52:38.0000000+00:00</time></trkpt><trkpt lat="22.320255" lon="103.769844"><ele>2603.7</ele><time>2011-04-24T01:52:43.0000000+00:00</time></trkpt><trkpt lat="22.320253" lon="103.769844"><ele>2603.5</ele><time>2011-04-24T01:52:48.0000000+00:00</time></trkpt><trkpt lat="22.320253" lon="103.769852"><ele>2603.7</ele><time>2011-04-24T01:52:53.0000000+00:00</time></trkpt><trkpt lat="22.320261" lon="103.769859"><ele>2603.7</ele><time>2011-04-24T01:52:58.0000000+00:00</time></trkpt><trkpt lat="22.320246" lon="103.769913"><ele>2603.7</ele><time>2011-04-24T01:53:03.0000000+00:00</time></trkpt><trkpt lat="22.320213" lon="103.769928"><ele>2603.7</ele><time>2011-04-24T01:53:08.0000000+00:00</time></trkpt><trkpt lat="22.320171" lon="103.769913"><ele>2603.8</ele><time>2011-04-24T01:53:13.0000000+00:00</time></trkpt><trkpt lat="22.32016" lon="103.769913"><ele>2603.9</ele><time>2011-04-24T01:53:18.0000000+00:00</time></trkpt><trkpt lat="22.320154" lon="103.76992"><ele>2604.0</ele><time>2011-04-24T01:53:23.0000000+00:00</time></trkpt><trkpt lat="22.320148" lon="103.769928"><ele>2604.1</ele><time>2011-04-24T01:53:28.0000000+00:00</time></trkpt><trkpt lat="22.320139" lon="103.769913"><ele>2604.7</ele><time>2011-04-24T01:53:33.0000000+00:00</time></trkpt><trkpt lat="22.320131" lon="103.769913"><ele>2604.7</ele><time>2011-04-24T01:53:38.0000000+00:00</time></trkpt><trkpt lat="22.320129" lon="103.769913"><ele>2604.8</ele><time>2011-04-24T01:53:43.0000000+00:00</time></trkpt><trkpt lat="22.320124" lon="103.769913"><ele>2605.2</ele><time>2011-04-24T01:53:48.0000000+00:00</time></trkpt><trkpt lat="22.32012" lon="103.76992"><ele>2605.3</ele><time>2011-04-24T01:53:53.0000000+00:00</time></trkpt><trkpt lat="22.320116" lon="103.76992"><ele>2605.5</ele><time>2011-04-24T01:53:58.0000000+00:00</time></trkpt><trkpt lat="22.320108" lon="103.769928"><ele>2605.7</ele><time>2011-04-24T01:54:03.0000000+00:00</time></trkpt><trkpt lat="22.320101" lon="103.76992"><ele>2605.9</ele><time>2011-04-24T01:54:08.0000000+00:00</time></trkpt><trkpt lat="22.320091" lon="103.76992"><ele>2606.1</ele><time>2011-04-24T01:54:13.0000000+00:00</time></trkpt><trkpt lat="22.320082" lon="103.76992"><ele>2606.3</ele><time>2011-04-24T01:54:18.0000000+00:00</time></trkpt><trkpt lat="22.320084" lon="103.769928"><ele>2606.5</ele><time>2011-04-24T01:54:23.0000000+00:00</time></trkpt><trkpt lat="22.320084" lon="103.76992"><ele>2606.9</ele><time>2011-04-24T01:54:28.0000000+00:00</time></trkpt><trkpt lat="22.320082" lon="103.769913"><ele>2607.3</ele><time>2011-04-24T01:54:33.0000000+00:00</time></trkpt><trkpt lat="22.320082" lon="103.769913"><ele>2607.7</ele><time>2011-04-24T01:54:38.0000000+00:00</time></trkpt><trkpt lat="22.320082" lon="103.769913"><ele>2608.3</ele><time>2011-04-24T01:54:43.0000000+00:00</time></trkpt><trkpt lat="22.320082" lon="103.769913"><ele>2608.8</ele><time>2011-04-24T01:54:48.0000000+00:00</time></trkpt><trkpt lat="22.32008" lon="103.769905"><ele>2609.4</ele><time>2011-04-24T01:54:53.0000000+00:00</time></trkpt><trkpt lat="22.320076" lon="103.769905"><ele>2610.0</ele><time>2011-04-24T01:54:58.0000000+00:00</time></trkpt><trkpt lat="22.320068" lon="103.769897"><ele>2610.7</ele><time>2011-04-24T01:55:03.0000000+00:00</time></trkpt><trkpt lat="22.320068" lon="103.769897"><ele>2611.3</ele><time>2011-04-24T01:55:08.0000000+00:00</time></trkpt><trkpt lat="22.32007" lon="103.769905"><ele>2611.8</ele><time>2011-04-24T01:55:13.0000000+00:00</time></trkpt><trkpt lat="22.320074" lon="103.769913"><ele>2612.4</ele><time>2011-04-24T01:55:18.0000000+00:00</time></trkpt><trkpt lat="22.320078" lon="103.769913"><ele>2613.0</ele><time>2011-04-24T01:55:23.0000000+00:00</time></trkpt><trkpt lat="22.320086" lon="103.76992"><ele>2613.6</ele><time>2011-04-24T01:55:28.0000000+00:00</time></trkpt><trkpt lat="22.320091" lon="103.76992"><ele>2614.2</ele><time>2011-04-24T01:55:33.0000000+00:00</time></trkpt><trkpt lat="22.320097" lon="103.769913"><ele>2614.7</ele><time>2011-04-24T01:55:38.0000000+00:00</time></trkpt><trkpt lat="22.320097" lon="103.769897"><ele>2615.0</ele><time>2011-04-24T01:55:43.0000000+00:00</time></trkpt><trkpt lat="22.320087" lon="103.769867"><ele>2615.2</ele><time>2011-04-24T01:55:48.0000000+00:00</time></trkpt><trkpt lat="22.320066" lon="103.769844"><ele>2616.3</ele><time>2011-04-24T01:55:53.0000000+00:00</time></trkpt><trkpt lat="22.320026" lon="103.769829"><ele>2617.3</ele><time>2011-04-24T01:55:58.0000000+00:00</time></trkpt><trkpt lat="22.320009" lon="103.769806"><ele>2617.9</ele><time>2011-04-24T01:56:03.0000000+00:00</time></trkpt><trkpt lat="22.320007" lon="103.769798"><ele>2618.3</ele><time>2011-04-24T01:56:08.0000000+00:00</time></trkpt><trkpt lat="22.319996" lon="103.769775"><ele>2618.9</ele><time>2011-04-24T01:56:13.0000000+00:00</time></trkpt><trkpt lat="22.319983" lon="103.76973"><ele>2619.4</ele><time>2011-04-24T01:56:18.0000000+00:00</time></trkpt><trkpt lat="22.319973" lon="103.769707"><ele>2619.7</ele><time>2011-04-24T01:56:23.0000000+00:00</time></trkpt><trkpt lat="22.319969" lon="103.769684"><ele>2620.4</ele><time>2011-04-24T01:56:28.0000000+00:00</time></trkpt><trkpt lat="22.319952" lon="103.769661"><ele>2621.0</ele><time>2011-04-24T01:56:33.0000000+00:00</time></trkpt><trkpt lat="22.319962" lon="103.769653"><ele>2621.3</ele><time>2011-04-24T01:56:38.0000000+00:00</time></trkpt><trkpt lat="22.31996" lon="103.769638"><ele>2622.0</ele><time>2011-04-24T01:56:43.0000000+00:00</time></trkpt><trkpt lat="22.319965" lon="103.76963"><ele>2622.8</ele><time>2011-04-24T01:56:48.0000000+00:00</time></trkpt><trkpt lat="22.319967" lon="103.769615"><ele>2623.7</ele><time>2011-04-24T01:56:53.0000000+00:00</time></trkpt><trkpt lat="22.319967" lon="103.769608"><ele>2624.3</ele><time>2011-04-24T01:56:58.0000000+00:00</time></trkpt><trkpt lat="22.319962" lon="103.769615"><ele>2625.0</ele><time>2011-04-24T01:57:03.0000000+00:00</time></trkpt><trkpt lat="22.319952" lon="103.769623"><ele>2625.8</ele><time>2011-04-24T01:57:08.0000000+00:00</time></trkpt><trkpt lat="22.319946" lon="103.769615"><ele>2626.7</ele><time>2011-04-24T01:57:13.0000000+00:00</time></trkpt><trkpt lat="22.319944" lon="103.769608"><ele>2627.4</ele><time>2011-04-24T01:57:18.0000000+00:00</time></trkpt><trkpt lat="22.319944" lon="103.769608"><ele>2628.1</ele><time>2011-04-24T01:57:23.0000000+00:00</time></trkpt><trkpt lat="22.319941" lon="103.7696"><ele>2628.8</ele><time>2011-04-24T01:57:28.0000000+00:00</time></trkpt><trkpt lat="22.319935" lon="103.769608"><ele>2629.5</ele><time>2011-04-24T01:57:33.0000000+00:00</time></trkpt><trkpt lat="22.319927" lon="103.769608"><ele>2630.2</ele><time>2011-04-24T01:57:38.0000000+00:00</time></trkpt><trkpt lat="22.319918" lon="103.769608"><ele>2630.8</ele><time>2011-04-24T01:57:43.0000000+00:00</time></trkpt><trkpt lat="22.319916" lon="103.769608"><ele>2631.5</ele><time>2011-04-24T01:57:48.0000000+00:00</time></trkpt><trkpt lat="22.319902" lon="103.7696"><ele>2632.0</ele><time>2011-04-24T01:57:53.0000000+00:00</time></trkpt><trkpt lat="22.319876" lon="103.769585"><ele>2632.9</ele><time>2011-04-24T01:57:58.0000000+00:00</time></trkpt><trkpt lat="22.31987" lon="103.769569"><ele>2633.8</ele><time>2011-04-24T01:58:03.0000000+00:00</time></trkpt><trkpt lat="22.319853" lon="103.769569"><ele>2634.3</ele><time>2011-04-24T01:58:08.0000000+00:00</time></trkpt><trkpt lat="22.31986" lon="103.769577"><ele>2634.8</ele><time>2011-04-24T01:58:13.0000000+00:00</time></trkpt><trkpt lat="22.319845" lon="103.769585"><ele>2635.8</ele><time>2011-04-24T01:58:18.0000000+00:00</time></trkpt><trkpt lat="22.319841" lon="103.769577"><ele>2636.5</ele><time>2011-04-24T01:58:23.0000000+00:00</time></trkpt><trkpt lat="22.319839" lon="103.769569"><ele>2637.2</ele><time>2011-04-24T01:58:28.0000000+00:00</time></trkpt><trkpt lat="22.319822" lon="103.769554"><ele>2638.1</ele><time>2011-04-24T01:58:33.0000000+00:00</time></trkpt><trkpt lat="22.319828" lon="103.769554"><ele>2638.5</ele><time>2011-04-24T01:58:38.0000000+00:00</time></trkpt><trkpt lat="22.319826" lon="103.769554"><ele>2639.1</ele><time>2011-04-24T01:58:43.0000000+00:00</time></trkpt><trkpt lat="22.31982" lon="103.769547"><ele>2639.7</ele><time>2011-04-24T01:58:48.0000000+00:00</time></trkpt><trkpt lat="22.319822" lon="103.769547"><ele>2640.3</ele><time>2011-04-24T01:58:53.0000000+00:00</time></trkpt><trkpt lat="22.319824" lon="103.769547"><ele>2640.9</ele><time>2011-04-24T01:58:58.0000000+00:00</time></trkpt><trkpt lat="22.319826" lon="103.769539"><ele>2641.2</ele><time>2011-04-24T01:59:03.0000000+00:00</time></trkpt><trkpt lat="22.319824" lon="103.769547"><ele>2641.4</ele><time>2011-04-24T01:59:08.0000000+00:00</time></trkpt><trkpt lat="22.31982" lon="103.769547"><ele>2641.5</ele><time>2011-04-24T01:59:13.0000000+00:00</time></trkpt><trkpt lat="22.319815" lon="103.769554"><ele>2641.8</ele><time>2011-04-24T01:59:18.0000000+00:00</time></trkpt><trkpt lat="22.319807" lon="103.769539"><ele>2642.5</ele><time>2011-04-24T01:59:23.0000000+00:00</time></trkpt><trkpt lat="22.319803" lon="103.769539"><ele>2642.7</ele><time>2011-04-24T01:59:28.0000000+00:00</time></trkpt><trkpt lat="22.319782" lon="103.769539"><ele>2642.7</ele><time>2011-04-24T01:59:33.0000000+00:00</time></trkpt><trkpt lat="22.31975" lon="103.769516"><ele>2642.8</ele><time>2011-04-24T01:59:38.0000000+00:00</time></trkpt><trkpt lat="22.319746" lon="103.769493"><ele>2642.5</ele><time>2011-04-24T01:59:43.0000000+00:00</time></trkpt><trkpt lat="22.319736" lon="103.769485"><ele>2642.4</ele><time>2011-04-24T01:59:48.0000000+00:00</time></trkpt><trkpt lat="22.319735" lon="103.769478"><ele>2642.4</ele><time>2011-04-24T01:59:53.0000000+00:00</time></trkpt><trkpt lat="22.319733" lon="103.769455"><ele>2642.8</ele><time>2011-04-24T01:59:58.0000000+00:00</time></trkpt><trkpt lat="22.319731" lon="103.76944"><ele>2643.0</ele><time>2011-04-24T02:00:03.0000000+00:00</time></trkpt><trkpt lat="22.319727" lon="103.769417"><ele>2644.3</ele><time>2011-04-24T02:00:08.0000000+00:00</time></trkpt><trkpt lat="22.319708" lon="103.769417"><ele>2644.8</ele><time>2011-04-24T02:00:13.0000000+00:00</time></trkpt><trkpt lat="22.319704" lon="103.769417"><ele>2644.9</ele><time>2011-04-24T02:00:18.0000000+00:00</time></trkpt><trkpt lat="22.319687" lon="103.769402"><ele>2645.3</ele><time>2011-04-24T02:00:23.0000000+00:00</time></trkpt><trkpt lat="22.319675" lon="103.769394"><ele>2646.2</ele><time>2011-04-24T02:00:28.0000000+00:00</time></trkpt><trkpt lat="22.319662" lon="103.769371"><ele>2647.2</ele><time>2011-04-24T02:00:33.0000000+00:00</time></trkpt><trkpt lat="22.319656" lon="103.769333"><ele>2647.4</ele><time>2011-04-24T02:00:38.0000000+00:00</time></trkpt><trkpt lat="22.319656" lon="103.769302"><ele>2648.4</ele><time>2011-04-24T02:00:43.0000000+00:00</time></trkpt><trkpt lat="22.319647" lon="103.769279"><ele>2648.3</ele><time>2011-04-24T02:00:48.0000000+00:00</time></trkpt><trkpt lat="22.319637" lon="103.769257"><ele>2649.3</ele><time>2011-04-24T02:00:53.0000000+00:00</time></trkpt><trkpt lat="22.319643" lon="103.769257"><ele>2650.2</ele><time>2011-04-24T02:00:58.0000000+00:00</time></trkpt><trkpt lat="22.319641" lon="103.769257"><ele>2650.2</ele><time>2011-04-24T02:01:03.0000000+00:00</time></trkpt><trkpt lat="22.31963" lon="103.769249"><ele>2650.8</ele><time>2011-04-24T02:01:08.0000000+00:00</time></trkpt><trkpt lat="22.31962" lon="103.769218"><ele>2651.3</ele><time>2011-04-24T02:01:13.0000000+00:00</time></trkpt><trkpt lat="22.319633" lon="103.769165"><ele>2650.9</ele><time>2011-04-24T02:01:18.0000000+00:00</time></trkpt><trkpt lat="22.31963" lon="103.769119"><ele>2650.2</ele><time>2011-04-24T02:01:23.0000000+00:00</time></trkpt><trkpt lat="22.319635" lon="103.769096"><ele>2650.4</ele><time>2011-04-24T02:01:28.0000000+00:00</time></trkpt><trkpt lat="22.319666" lon="103.769058"><ele>2651.5</ele><time>2011-04-24T02:01:33.0000000+00:00</time></trkpt><trkpt lat="22.319677" lon="103.769028"><ele>2652.7</ele><time>2011-04-24T02:01:38.0000000+00:00</time></trkpt><trkpt lat="22.319691" lon="103.768997"><ele>2652.7</ele><time>2011-04-24T02:01:43.0000000+00:00</time></trkpt><trkpt lat="22.319674" lon="103.768959"><ele>2653.9</ele><time>2011-04-24T02:01:48.0000000+00:00</time></trkpt><trkpt lat="22.319666" lon="103.768929"><ele>2655.0</ele><time>2011-04-24T02:01:53.0000000+00:00</time></trkpt><trkpt lat="22.319664" lon="103.768913"><ele>2654.7</ele><time>2011-04-24T02:01:58.0000000+00:00</time></trkpt><trkpt lat="22.319666" lon="103.76889"><ele>2654.2</ele><time>2011-04-24T02:02:03.0000000+00:00</time></trkpt><trkpt lat="22.319658" lon="103.768837"><ele>2654.5</ele><time>2011-04-24T02:02:08.0000000+00:00</time></trkpt><trkpt lat="22.319662" lon="103.768829"><ele>2654.5</ele><time>2011-04-24T02:02:13.0000000+00:00</time></trkpt><trkpt lat="22.319662" lon="103.768814"><ele>2654.7</ele><time>2011-04-24T02:02:18.0000000+00:00</time></trkpt><trkpt lat="22.319641" lon="103.768791"><ele>2654.6</ele><time>2011-04-24T02:02:23.0000000+00:00</time></trkpt><trkpt lat="22.319611" lon="103.768738"><ele>2654.6</ele><time>2011-04-24T02:02:28.0000000+00:00</time></trkpt><trkpt lat="22.319576" lon="103.768715"><ele>2654.6</ele><time>2011-04-24T02:02:33.0000000+00:00</time></trkpt><trkpt lat="22.319555" lon="103.768707"><ele>2654.6</ele><time>2011-04-24T02:02:38.0000000+00:00</time></trkpt><trkpt lat="22.319519" lon="103.768707"><ele>2654.7</ele><time>2011-04-24T02:02:43.0000000+00:00</time></trkpt><trkpt lat="22.319498" lon="103.768684"><ele>2655.3</ele><time>2011-04-24T02:02:48.0000000+00:00</time></trkpt><trkpt lat="22.319471" lon="103.768639"><ele>2655.2</ele><time>2011-04-24T02:02:53.0000000+00:00</time></trkpt><trkpt lat="22.31945" lon="103.768608"><ele>2655.8</ele><time>2011-04-24T02:02:58.0000000+00:00</time></trkpt><trkpt lat="22.319424" lon="103.768578"><ele>2656.4</ele><time>2011-04-24T02:03:03.0000000+00:00</time></trkpt><trkpt lat="22.319435" lon="103.768562"><ele>2656.2</ele><time>2011-04-24T02:03:08.0000000+00:00</time></trkpt><trkpt lat="22.31945" lon="103.768539"><ele>2656.4</ele><time>2011-04-24T02:03:13.0000000+00:00</time></trkpt><trkpt lat="22.319448" lon="103.768509"><ele>2656.6</ele><time>2011-04-24T02:03:18.0000000+00:00</time></trkpt><trkpt lat="22.319466" lon="103.768494"><ele>2656.3</ele><time>2011-04-24T02:03:23.0000000+00:00</time></trkpt><trkpt lat="22.319454" lon="103.768456"><ele>2655.6</ele><time>2011-04-24T02:03:28.0000000+00:00</time></trkpt><trkpt lat="22.319445" lon="103.768425"><ele>2655.3</ele><time>2011-04-24T02:03:33.0000000+00:00</time></trkpt><trkpt lat="22.319414" lon="103.768394"><ele>2654.0</ele><time>2011-04-24T02:03:38.0000000+00:00</time></trkpt><trkpt lat="22.319391" lon="103.768349"><ele>2653.7</ele><time>2011-04-24T02:03:43.0000000+00:00</time></trkpt><trkpt lat="22.319372" lon="103.768326"><ele>2653.5</ele><time>2011-04-24T02:03:48.0000000+00:00</time></trkpt><trkpt lat="22.319368" lon="103.768318"><ele>2653.5</ele><time>2011-04-24T02:03:53.0000000+00:00</time></trkpt><trkpt lat="22.319344" lon="103.768303"><ele>2654.0</ele><time>2011-04-24T02:03:58.0000000+00:00</time></trkpt><trkpt lat="22.319328" lon="103.768311"><ele>2654.4</ele><time>2011-04-24T02:04:03.0000000+00:00</time></trkpt><trkpt lat="22.319324" lon="103.768311"><ele>2654.6</ele><time>2011-04-24T02:04:08.0000000+00:00</time></trkpt><trkpt lat="22.319323" lon="103.768318"><ele>2654.5</ele><time>2011-04-24T02:04:13.0000000+00:00</time></trkpt><trkpt lat="22.319321" lon="103.768318"><ele>2654.5</ele><time>2011-04-24T02:04:18.0000000+00:00</time></trkpt><trkpt lat="22.319321" lon="103.768318"><ele>2654.5</ele><time>2011-04-24T02:04:23.0000000+00:00</time></trkpt><trkpt lat="22.319321" lon="103.768318"><ele>2654.6</ele><time>2011-04-24T02:04:28.0000000+00:00</time></trkpt><trkpt lat="22.319323" lon="103.768318"><ele>2654.6</ele><time>2011-04-24T02:04:33.0000000+00:00</time></trkpt><trkpt lat="22.319323" lon="103.768318"><ele>2654.7</ele><time>2011-04-24T02:04:38.0000000+00:00</time></trkpt><trkpt lat="22.319323" lon="103.768318"><ele>2654.7</ele><time>2011-04-24T02:04:43.0000000+00:00</time></trkpt><trkpt lat="22.319323" lon="103.768318"><ele>2654.7</ele><time>2011-04-24T02:04:48.0000000+00:00</time></trkpt><trkpt lat="22.319323" lon="103.768318"><ele>2654.7</ele><time>2011-04-24T02:04:53.0000000+00:00</time></trkpt><trkpt lat="22.319323" lon="103.768318"><ele>2654.7</ele><time>2011-04-24T02:04:58.0000000+00:00</time></trkpt><trkpt lat="22.319323" lon="103.768318"><ele>2654.7</ele><time>2011-04-24T02:05:03.0000000+00:00</time></trkpt><trkpt lat="22.319323" lon="103.768318"><ele>2654.8</ele><time>2011-04-24T02:05:08.0000000+00:00</time></trkpt><trkpt lat="22.319321" lon="103.768311"><ele>2654.8</ele><time>2011-04-24T02:05:13.0000000+00:00</time></trkpt><trkpt lat="22.319317" lon="103.768303"><ele>2654.9</ele><time>2011-04-24T02:05:18.0000000+00:00</time></trkpt><trkpt lat="22.319292" lon="103.768265"><ele>2656.4</ele><time>2011-04-24T02:05:23.0000000+00:00</time></trkpt><trkpt lat="22.319288" lon="103.768211"><ele>2658.1</ele><time>2011-04-24T02:05:28.0000000+00:00</time></trkpt><trkpt lat="22.319273" lon="103.768173"><ele>2659.2</ele><time>2011-04-24T02:05:33.0000000+00:00</time></trkpt><trkpt lat="22.319263" lon="103.768143"><ele>2660.1</ele><time>2011-04-24T02:05:38.0000000+00:00</time></trkpt><trkpt lat="22.319248" lon="103.768127"><ele>2661.9</ele><time>2011-04-24T02:05:43.0000000+00:00</time></trkpt><trkpt lat="22.319242" lon="103.768135"><ele>2663.3</ele><time>2011-04-24T02:05:48.0000000+00:00</time></trkpt><trkpt lat="22.319239" lon="103.768127"><ele>2663.9</ele><time>2011-04-24T02:05:53.0000000+00:00</time></trkpt><trkpt lat="22.319231" lon="103.768127"><ele>2665.3</ele><time>2011-04-24T02:05:58.0000000+00:00</time></trkpt><trkpt lat="22.319218" lon="103.76812"><ele>2666.1</ele><time>2011-04-24T02:06:03.0000000+00:00</time></trkpt><trkpt lat="22.319212" lon="103.768112"><ele>2666.9</ele><time>2011-04-24T02:06:08.0000000+00:00</time></trkpt><trkpt lat="22.319204" lon="103.768105"><ele>2667.7</ele><time>2011-04-24T02:06:13.0000000+00:00</time></trkpt><trkpt lat="22.319191" lon="103.768097"><ele>2668.4</ele><time>2011-04-24T02:06:18.0000000+00:00</time></trkpt><trkpt lat="22.319166" lon="103.768074"><ele>2669.1</ele><time>2011-04-24T02:06:23.0000000+00:00</time></trkpt><trkpt lat="22.319174" lon="103.768044"><ele>2669.7</ele><time>2011-04-24T02:06:28.0000000+00:00</time></trkpt><trkpt lat="22.319172" lon="103.768005"><ele>2669.8</ele><time>2011-04-24T02:06:33.0000000+00:00</time></trkpt><trkpt lat="22.319181" lon="103.767975"><ele>2670.2</ele><time>2011-04-24T02:06:38.0000000+00:00</time></trkpt><trkpt lat="22.319189" lon="103.767952"><ele>2671.1</ele><time>2011-04-24T02:06:43.0000000+00:00</time></trkpt><trkpt lat="22.319183" lon="103.767929"><ele>2671.2</ele><time>2011-04-24T02:06:48.0000000+00:00</time></trkpt><trkpt lat="22.319181" lon="103.767899"><ele>2671.3</ele><time>2011-04-24T02:06:53.0000000+00:00</time></trkpt><trkpt lat="22.319168" lon="103.767899"><ele>2671.7</ele><time>2011-04-24T02:06:58.0000000+00:00</time></trkpt><trkpt lat="22.319164" lon="103.767891"><ele>2671.7</ele><time>2011-04-24T02:07:03.0000000+00:00</time></trkpt><trkpt lat="22.319162" lon="103.767883"><ele>2671.8</ele><time>2011-04-24T02:07:08.0000000+00:00</time></trkpt><trkpt lat="22.319162" lon="103.767853"><ele>2671.8</ele><time>2011-04-24T02:07:13.0000000+00:00</time></trkpt><trkpt lat="22.319162" lon="103.767853"><ele>2672.0</ele><time>2011-04-24T02:07:18.0000000+00:00</time></trkpt><trkpt lat="22.319151" lon="103.767822"><ele>2671.7</ele><time>2011-04-24T02:07:23.0000000+00:00</time></trkpt><trkpt lat="22.319111" lon="103.767807"><ele>2671.5</ele><time>2011-04-24T02:07:28.0000000+00:00</time></trkpt><trkpt lat="22.319078" lon="103.767792"><ele>2672.0</ele><time>2011-04-24T02:07:33.0000000+00:00</time></trkpt><trkpt lat="22.319057" lon="103.767784"><ele>2672.2</ele><time>2011-04-24T02:07:38.0000000+00:00</time></trkpt><trkpt lat="22.319033" lon="103.767754"><ele>2672.2</ele><time>2011-04-24T02:07:43.0000000+00:00</time></trkpt><trkpt lat="22.319004" lon="103.7677"><ele>2672.1</ele><time>2011-04-24T02:07:48.0000000+00:00</time></trkpt><trkpt lat="22.318985" lon="103.76767"><ele>2672.7</ele><time>2011-04-24T02:07:53.0000000+00:00</time></trkpt><trkpt lat="22.318996" lon="103.767647"><ele>2673.2</ele><time>2011-04-24T02:07:58.0000000+00:00</time></trkpt><trkpt lat="22.318991" lon="103.767632"><ele>2673.2</ele><time>2011-04-24T02:08:03.0000000+00:00</time></trkpt><trkpt lat="22.318981" lon="103.767601"><ele>2674.3</ele><time>2011-04-24T02:08:08.0000000+00:00</time></trkpt><trkpt lat="22.318974" lon="103.767601"><ele>2675.0</ele><time>2011-04-24T02:08:13.0000000+00:00</time></trkpt><trkpt lat="22.318968" lon="103.767586"><ele>2676.3</ele><time>2011-04-24T02:08:18.0000000+00:00</time></trkpt><trkpt lat="22.318966" lon="103.767593"><ele>2676.3</ele><time>2011-04-24T02:08:23.0000000+00:00</time></trkpt><trkpt lat="22.318972" lon="103.767593"><ele>2676.7</ele><time>2011-04-24T02:08:28.0000000+00:00</time></trkpt><trkpt lat="22.318972" lon="103.767586"><ele>2676.8</ele><time>2011-04-24T02:08:33.0000000+00:00</time></trkpt><trkpt lat="22.318979" lon="103.767586"><ele>2677.5</ele><time>2011-04-24T02:08:38.0000000+00:00</time></trkpt><trkpt lat="22.318974" lon="103.767578"><ele>2679.0</ele><time>2011-04-24T02:08:43.0000000+00:00</time></trkpt><trkpt lat="22.318977" lon="103.767563"><ele>2679.2</ele><time>2011-04-24T02:08:48.0000000+00:00</time></trkpt><trkpt lat="22.318974" lon="103.767563"><ele>2679.2</ele><time>2011-04-24T02:08:53.0000000+00:00</time></trkpt><trkpt lat="22.318979" lon="103.76757"><ele>2679.4</ele><time>2011-04-24T02:08:58.0000000+00:00</time></trkpt><trkpt lat="22.318977" lon="103.76757"><ele>2679.7</ele><time>2011-04-24T02:09:03.0000000+00:00</time></trkpt><trkpt lat="22.318979" lon="103.767563"><ele>2680.8</ele><time>2011-04-24T02:09:08.0000000+00:00</time></trkpt><trkpt lat="22.318979" lon="103.767563"><ele>2681.0</ele><time>2011-04-24T02:09:13.0000000+00:00</time></trkpt><trkpt lat="22.318977" lon="103.767563"><ele>2681.2</ele><time>2011-04-24T02:09:18.0000000+00:00</time></trkpt><trkpt lat="22.318974" lon="103.767555"><ele>2681.0</ele><time>2011-04-24T02:09:23.0000000+00:00</time></trkpt><trkpt lat="22.318972" lon="103.767563"><ele>2681.9</ele><time>2011-04-24T02:09:28.0000000+00:00</time></trkpt><trkpt lat="22.318979" lon="103.76757"><ele>2682.3</ele><time>2011-04-24T02:09:33.0000000+00:00</time></trkpt><trkpt lat="22.31897" lon="103.767555"><ele>2682.5</ele><time>2011-04-24T02:09:38.0000000+00:00</time></trkpt><trkpt lat="22.318972" lon="103.767563"><ele>2682.0</ele><time>2011-04-24T02:09:43.0000000+00:00</time></trkpt><trkpt lat="22.318972" lon="103.76757"><ele>2680.7</ele><time>2011-04-24T02:09:48.0000000+00:00</time></trkpt><trkpt lat="22.318964" lon="103.76757"><ele>2680.7</ele><time>2011-04-24T02:09:53.0000000+00:00</time></trkpt><trkpt lat="22.318962" lon="103.767578"><ele>2681.1</ele><time>2011-04-24T02:09:58.0000000+00:00</time></trkpt><trkpt lat="22.31896" lon="103.76757"><ele>2681.3</ele><time>2011-04-24T02:10:03.0000000+00:00</time></trkpt><trkpt lat="22.31896" lon="103.76757"><ele>2681.3</ele><time>2011-04-24T02:10:08.0000000+00:00</time></trkpt><trkpt lat="22.31896" lon="103.76757"><ele>2681.3</ele><time>2011-04-24T02:10:13.0000000+00:00</time></trkpt><trkpt lat="22.31896" lon="103.76757"><ele>2681.3</ele><time>2011-04-24T02:10:18.0000000+00:00</time></trkpt><trkpt lat="22.31896" lon="103.76757"><ele>2681.3</ele><time>2011-04-24T02:10:23.0000000+00:00</time></trkpt><trkpt lat="22.31896" lon="103.76757"><ele>2681.3</ele><time>2011-04-24T02:10:28.0000000+00:00</time></trkpt><trkpt lat="22.31896" lon="103.76757"><ele>2681.3</ele><time>2011-04-24T02:10:33.0000000+00:00</time></trkpt><trkpt lat="22.31896" lon="103.767578"><ele>2681.3</ele><time>2011-04-24T02:10:38.0000000+00:00</time></trkpt><trkpt lat="22.31896" lon="103.767578"><ele>2681.3</ele><time>2011-04-24T02:10:43.0000000+00:00</time></trkpt><trkpt lat="22.31896" lon="103.767578"><ele>2681.3</ele><time>2011-04-24T02:10:48.0000000+00:00</time></trkpt><trkpt lat="22.31896" lon="103.767578"><ele>2681.3</ele><time>2011-04-24T02:10:53.0000000+00:00</time></trkpt><trkpt lat="22.318962" lon="103.767578"><ele>2681.3</ele><time>2011-04-24T02:10:58.0000000+00:00</time></trkpt><trkpt lat="22.318962" lon="103.767578"><ele>2681.3</ele><time>2011-04-24T02:11:03.0000000+00:00</time></trkpt><trkpt lat="22.318962" lon="103.767578"><ele>2681.3</ele><time>2011-04-24T02:11:08.0000000+00:00</time></trkpt><trkpt lat="22.318962" lon="103.767578"><ele>2681.3</ele><time>2011-04-24T02:11:13.0000000+00:00</time></trkpt><trkpt lat="22.318962" lon="103.767578"><ele>2681.3</ele><time>2011-04-24T02:11:18.0000000+00:00</time></trkpt><trkpt lat="22.318962" lon="103.767578"><ele>2681.3</ele><time>2011-04-24T02:11:23.0000000+00:00</time></trkpt><trkpt lat="22.318962" lon="103.767578"><ele>2681.3</ele><time>2011-04-24T02:11:28.0000000+00:00</time></trkpt><trkpt lat="22.318962" lon="103.767578"><ele>2681.3</ele><time>2011-04-24T02:11:33.0000000+00:00</time></trkpt><trkpt lat="22.318962" lon="103.767578"><ele>2681.3</ele><time>2011-04-24T02:11:38.0000000+00:00</time></trkpt><trkpt lat="22.318962" lon="103.767578"><ele>2681.3</ele><time>2011-04-24T02:11:43.0000000+00:00</time></trkpt><trkpt lat="22.318962" lon="103.767578"><ele>2681.3</ele><time>2011-04-24T02:11:48.0000000+00:00</time></trkpt><trkpt lat="22.318962" lon="103.767578"><ele>2681.3</ele><time>2011-04-24T02:11:53.0000000+00:00</time></trkpt><trkpt lat="22.318962" lon="103.767578"><ele>2681.3</ele><time>2011-04-24T02:11:58.0000000+00:00</time></trkpt><trkpt lat="22.318962" lon="103.767578"><ele>2681.3</ele><time>2011-04-24T02:12:03.0000000+00:00</time></trkpt><trkpt lat="22.318964" lon="103.767578"><ele>2681.3</ele><time>2011-04-24T02:12:08.0000000+00:00</time></trkpt><trkpt lat="22.318964" lon="103.767578"><ele>2681.3</ele><time>2011-04-24T02:12:13.0000000+00:00</time></trkpt><trkpt lat="22.318964" lon="103.767578"><ele>2681.3</ele><time>2011-04-24T02:12:18.0000000+00:00</time></trkpt><trkpt lat="22.318964" lon="103.76757"><ele>2681.4</ele><time>2011-04-24T02:12:23.0000000+00:00</time></trkpt><trkpt lat="22.318964" lon="103.76757"><ele>2681.4</ele><time>2011-04-24T02:12:28.0000000+00:00</time></trkpt><trkpt lat="22.318964" lon="103.76757"><ele>2681.4</ele><time>2011-04-24T02:12:33.0000000+00:00</time></trkpt><trkpt lat="22.31896" lon="103.767548"><ele>2681.7</ele><time>2011-04-24T02:12:38.0000000+00:00</time></trkpt><trkpt lat="22.318956" lon="103.76754"><ele>2681.8</ele><time>2011-04-24T02:12:43.0000000+00:00</time></trkpt><trkpt lat="22.318954" lon="103.767525"><ele>2682.0</ele><time>2011-04-24T02:12:48.0000000+00:00</time></trkpt><trkpt lat="22.318951" lon="103.767525"><ele>2682.2</ele><time>2011-04-24T02:12:53.0000000+00:00</time></trkpt><trkpt lat="22.318951" lon="103.767532"><ele>2682.3</ele><time>2011-04-24T02:12:58.0000000+00:00</time></trkpt><trkpt lat="22.318954" lon="103.76754"><ele>2682.3</ele><time>2011-04-24T02:13:03.0000000+00:00</time></trkpt><trkpt lat="22.318962" lon="103.76754"><ele>2682.2</ele><time>2011-04-24T02:13:08.0000000+00:00</time></trkpt><trkpt lat="22.318968" lon="103.767548"><ele>2682.2</ele><time>2011-04-24T02:13:13.0000000+00:00</time></trkpt><trkpt lat="22.318975" lon="103.767548"><ele>2682.2</ele><time>2011-04-24T02:13:18.0000000+00:00</time></trkpt><trkpt lat="22.318985" lon="103.767555"><ele>2682.2</ele><time>2011-04-24T02:13:23.0000000+00:00</time></trkpt><trkpt lat="22.319006" lon="103.76757"><ele>2682.1</ele><time>2011-04-24T02:13:28.0000000+00:00</time></trkpt><trkpt lat="22.319014" lon="103.767593"><ele>2682.0</ele><time>2011-04-24T02:13:33.0000000+00:00</time></trkpt><trkpt lat="22.319017" lon="103.767601"><ele>2682.0</ele><time>2011-04-24T02:13:38.0000000+00:00</time></trkpt><trkpt lat="22.319023" lon="103.767601"><ele>2682.0</ele><time>2011-04-24T02:13:43.0000000+00:00</time></trkpt><trkpt lat="22.319029" lon="103.767609"><ele>2681.9</ele><time>2011-04-24T02:13:48.0000000+00:00</time></trkpt><trkpt lat="22.319035" lon="103.767616"><ele>2681.9</ele><time>2011-04-24T02:13:53.0000000+00:00</time></trkpt><trkpt lat="22.319042" lon="103.767624"><ele>2681.8</ele><time>2011-04-24T02:13:58.0000000+00:00</time></trkpt><trkpt lat="22.31905" lon="103.767632"><ele>2681.8</ele><time>2011-04-24T02:14:03.0000000+00:00</time></trkpt><trkpt lat="22.319054" lon="103.767639"><ele>2681.8</ele><time>2011-04-24T02:14:08.0000000+00:00</time></trkpt><trkpt lat="22.319056" lon="103.767639"><ele>2681.9</ele><time>2011-04-24T02:14:13.0000000+00:00</time></trkpt><trkpt lat="22.319056" lon="103.767639"><ele>2681.9</ele><time>2011-04-24T02:14:18.0000000+00:00</time></trkpt><trkpt lat="22.319057" lon="103.767632"><ele>2682.0</ele><time>2011-04-24T02:14:23.0000000+00:00</time></trkpt><trkpt lat="22.319056" lon="103.767624"><ele>2682.2</ele><time>2011-04-24T02:14:28.0000000+00:00</time></trkpt><trkpt lat="22.319048" lon="103.767616"><ele>2682.3</ele><time>2011-04-24T02:14:33.0000000+00:00</time></trkpt><trkpt lat="22.319036" lon="103.767609"><ele>2682.6</ele><time>2011-04-24T02:14:38.0000000+00:00</time></trkpt><trkpt lat="22.319035" lon="103.767578"><ele>2683.1</ele><time>2011-04-24T02:14:43.0000000+00:00</time></trkpt><trkpt lat="22.319035" lon="103.767578"><ele>2683.3</ele><time>2011-04-24T02:14:48.0000000+00:00</time></trkpt><trkpt lat="22.319033" lon="103.767578"><ele>2683.3</ele><time>2011-04-24T02:14:53.0000000+00:00</time></trkpt><trkpt lat="22.319029" lon="103.767578"><ele>2683.3</ele><time>2011-04-24T02:14:58.0000000+00:00</time></trkpt><trkpt lat="22.319029" lon="103.767578"><ele>2683.3</ele><time>2011-04-24T02:15:03.0000000+00:00</time></trkpt><trkpt lat="22.319029" lon="103.767578"><ele>2683.3</ele><time>2011-04-24T02:15:08.0000000+00:00</time></trkpt><trkpt lat="22.319029" lon="103.767578"><ele>2683.3</ele><time>2011-04-24T02:15:13.0000000+00:00</time></trkpt><trkpt lat="22.319029" lon="103.767578"><ele>2683.3</ele><time>2011-04-24T02:15:18.0000000+00:00</time></trkpt><trkpt lat="22.319029" lon="103.767578"><ele>2683.3</ele><time>2011-04-24T02:15:23.0000000+00:00</time></trkpt><trkpt lat="22.319029" lon="103.767578"><ele>2683.3</ele><time>2011-04-24T02:15:28.0000000+00:00</time></trkpt><trkpt lat="22.319029" lon="103.767578"><ele>2683.3</ele><time>2011-04-24T02:15:33.0000000+00:00</time></trkpt><trkpt lat="22.319029" lon="103.767578"><ele>2683.3</ele><time>2011-04-24T02:15:38.0000000+00:00</time></trkpt><trkpt lat="22.319027" lon="103.767578"><ele>2683.3</ele><time>2011-04-24T02:15:43.0000000+00:00</time></trkpt><trkpt lat="22.319027" lon="103.767578"><ele>2683.3</ele><time>2011-04-24T02:15:48.0000000+00:00</time></trkpt><trkpt lat="22.319027" lon="103.767578"><ele>2683.3</ele><time>2011-04-24T02:15:53.0000000+00:00</time></trkpt><trkpt lat="22.319027" lon="103.767578"><ele>2683.3</ele><time>2011-04-24T02:15:58.0000000+00:00</time></trkpt><trkpt lat="22.319027" lon="103.767578"><ele>2683.3</ele><time>2011-04-24T02:16:03.0000000+00:00</time></trkpt><trkpt lat="22.319027" lon="103.767578"><ele>2683.4</ele><time>2011-04-24T02:16:08.0000000+00:00</time></trkpt><trkpt lat="22.319027" lon="103.767578"><ele>2683.4</ele><time>2011-04-24T02:16:13.0000000+00:00</time></trkpt><trkpt lat="22.319027" lon="103.76757"><ele>2683.8</ele><time>2011-04-24T02:16:18.0000000+00:00</time></trkpt><trkpt lat="22.319008" lon="103.76757"><ele>2684.2</ele><time>2011-04-24T02:16:23.0000000+00:00</time></trkpt><trkpt lat="22.318983" lon="103.767563"><ele>2684.5</ele><time>2011-04-24T02:16:28.0000000+00:00</time></trkpt><trkpt lat="22.31897" lon="103.767555"><ele>2684.0</ele><time>2011-04-24T02:16:33.0000000+00:00</time></trkpt><trkpt lat="22.318939" lon="103.767532"><ele>2684.5</ele><time>2011-04-24T02:16:38.0000000+00:00</time></trkpt><trkpt lat="22.31892" lon="103.767517"><ele>2685.6</ele><time>2011-04-24T02:16:43.0000000+00:00</time></trkpt><trkpt lat="22.318892" lon="103.767502"><ele>2686.0</ele><time>2011-04-24T02:16:48.0000000+00:00</time></trkpt><trkpt lat="22.318859" lon="103.767502"><ele>2686.0</ele><time>2011-04-24T02:16:53.0000000+00:00</time></trkpt><trkpt lat="22.318842" lon="103.767494"><ele>2686.8</ele><time>2011-04-24T02:16:58.0000000+00:00</time></trkpt><trkpt lat="22.318819" lon="103.767494"><ele>2687.5</ele><time>2011-04-24T02:17:03.0000000+00:00</time></trkpt><trkpt lat="22.318808" lon="103.767479"><ele>2687.4</ele><time>2011-04-24T02:17:08.0000000+00:00</time></trkpt><trkpt lat="22.318798" lon="103.767464"><ele>2688.0</ele><time>2011-04-24T02:17:13.0000000+00:00</time></trkpt><trkpt lat="22.318796" lon="103.767456"><ele>2688.6</ele><time>2011-04-24T02:17:18.0000000+00:00</time></trkpt><trkpt lat="22.318792" lon="103.767456"><ele>2689.1</ele><time>2011-04-24T02:17:23.0000000+00:00</time></trkpt><trkpt lat="22.318785" lon="103.767456"><ele>2689.5</ele><time>2011-04-24T02:17:28.0000000+00:00</time></trkpt><trkpt lat="22.318783" lon="103.767448"><ele>2689.8</ele><time>2011-04-24T02:17:33.0000000+00:00</time></trkpt><trkpt lat="22.318768" lon="103.767441"><ele>2690.8</ele><time>2011-04-24T02:17:38.0000000+00:00</time></trkpt><trkpt lat="22.318754" lon="103.767433"><ele>2691.2</ele><time>2011-04-24T02:17:43.0000000+00:00</time></trkpt><trkpt lat="22.318754" lon="103.767426"><ele>2692.2</ele><time>2011-04-24T02:17:48.0000000+00:00</time></trkpt><trkpt lat="22.318743" lon="103.767418"><ele>2692.5</ele><time>2011-04-24T02:17:53.0000000+00:00</time></trkpt><trkpt lat="22.318718" lon="103.767403"><ele>2692.6</ele><time>2011-04-24T02:17:58.0000000+00:00</time></trkpt><trkpt lat="22.318699" lon="103.76738"><ele>2693.1</ele><time>2011-04-24T02:18:03.0000000+00:00</time></trkpt><trkpt lat="22.318686" lon="103.76738"><ele>2693.7</ele><time>2011-04-24T02:18:08.0000000+00:00</time></trkpt><trkpt lat="22.318661" lon="103.767372"><ele>2695.0</ele><time>2011-04-24T02:18:13.0000000+00:00</time></trkpt><trkpt lat="22.318647" lon="103.76738"><ele>2695.7</ele><time>2011-04-24T02:18:18.0000000+00:00</time></trkpt><trkpt lat="22.318636" lon="103.767395"><ele>2696.9</ele><time>2011-04-24T02:18:23.0000000+00:00</time></trkpt><trkpt lat="22.318628" lon="103.767403"><ele>2697.5</ele><time>2011-04-24T02:18:28.0000000+00:00</time></trkpt><trkpt lat="22.318607" lon="103.76741"><ele>2698.2</ele><time>2011-04-24T02:18:33.0000000+00:00</time></trkpt><trkpt lat="22.31859" lon="103.767395"><ele>2698.5</ele><time>2011-04-24T02:18:38.0000000+00:00</time></trkpt><trkpt lat="22.318579" lon="103.767387"><ele>2698.8</ele><time>2011-04-24T02:18:43.0000000+00:00</time></trkpt><trkpt lat="22.318571" lon="103.767387"><ele>2699.0</ele><time>2011-04-24T02:18:48.0000000+00:00</time></trkpt><trkpt lat="22.318563" lon="103.767387"><ele>2699.0</ele><time>2011-04-24T02:18:53.0000000+00:00</time></trkpt><trkpt lat="22.318537" lon="103.767395"><ele>2699.3</ele><time>2011-04-24T02:18:58.0000000+00:00</time></trkpt><trkpt lat="22.318541" lon="103.767403"><ele>2699.5</ele><time>2011-04-24T02:19:03.0000000+00:00</time></trkpt><trkpt lat="22.318541" lon="103.76741"><ele>2700.0</ele><time>2011-04-24T02:19:08.0000000+00:00</time></trkpt><trkpt lat="22.318548" lon="103.767418"><ele>2700.7</ele><time>2011-04-24T02:19:13.0000000+00:00</time></trkpt><trkpt lat="22.318541" lon="103.767403"><ele>2701.4</ele><time>2011-04-24T02:19:18.0000000+00:00</time></trkpt><trkpt lat="22.318502" lon="103.76738"><ele>2702.8</ele><time>2011-04-24T02:19:23.0000000+00:00</time></trkpt><trkpt lat="22.318497" lon="103.767365"><ele>2704.0</ele><time>2011-04-24T02:19:28.0000000+00:00</time></trkpt><trkpt lat="22.318493" lon="103.767349"><ele>2705.3</ele><time>2011-04-24T02:19:33.0000000+00:00</time></trkpt><trkpt lat="22.318499" lon="103.767319"><ele>2707.0</ele><time>2011-04-24T02:19:38.0000000+00:00</time></trkpt><trkpt lat="22.318497" lon="103.767303"><ele>2708.3</ele><time>2011-04-24T02:19:43.0000000+00:00</time></trkpt><trkpt lat="22.318493" lon="103.767288"><ele>2709.2</ele><time>2011-04-24T02:19:48.0000000+00:00</time></trkpt><trkpt lat="22.318501" lon="103.767296"><ele>2709.7</ele><time>2011-04-24T02:19:53.0000000+00:00</time></trkpt><trkpt lat="22.318502" lon="103.767296"><ele>2709.8</ele><time>2011-04-24T02:19:58.0000000+00:00</time></trkpt><trkpt lat="22.318497" lon="103.767288"><ele>2710.0</ele><time>2011-04-24T02:20:03.0000000+00:00</time></trkpt><trkpt lat="22.318466" lon="103.767281"><ele>2710.5</ele><time>2011-04-24T02:20:08.0000000+00:00</time></trkpt><trkpt lat="22.318455" lon="103.767265"><ele>2711.3</ele><time>2011-04-24T02:20:13.0000000+00:00</time></trkpt><trkpt lat="22.318441" lon="103.767258"><ele>2711.9</ele><time>2011-04-24T02:20:18.0000000+00:00</time></trkpt><trkpt lat="22.318411" lon="103.76725"><ele>2713.2</ele><time>2011-04-24T02:20:23.0000000+00:00</time></trkpt><trkpt lat="22.318388" lon="103.767242"><ele>2713.2</ele><time>2011-04-24T02:20:28.0000000+00:00</time></trkpt><trkpt lat="22.318375" lon="103.767242"><ele>2714.0</ele><time>2011-04-24T02:20:33.0000000+00:00</time></trkpt><trkpt lat="22.318369" lon="103.767235"><ele>2714.5</ele><time>2011-04-24T02:20:38.0000000+00:00</time></trkpt><trkpt lat="22.318365" lon="103.767235"><ele>2714.8</ele><time>2011-04-24T02:20:43.0000000+00:00</time></trkpt><trkpt lat="22.318373" lon="103.767235"><ele>2715.3</ele><time>2011-04-24T02:20:48.0000000+00:00</time></trkpt><trkpt lat="22.318378" lon="103.767227"><ele>2715.8</ele><time>2011-04-24T02:20:53.0000000+00:00</time></trkpt><trkpt lat="22.318382" lon="103.76722"><ele>2716.5</ele><time>2011-04-24T02:20:58.0000000+00:00</time></trkpt><trkpt lat="22.318371" lon="103.767197"><ele>2718.5</ele><time>2011-04-24T02:21:03.0000000+00:00</time></trkpt><trkpt lat="22.318335" lon="103.767189"><ele>2719.7</ele><time>2011-04-24T02:21:08.0000000+00:00</time></trkpt><trkpt lat="22.318306" lon="103.767189"><ele>2720.5</ele><time>2011-04-24T02:21:13.0000000+00:00</time></trkpt><trkpt lat="22.318302" lon="103.767189"><ele>2720.9</ele><time>2011-04-24T02:21:18.0000000+00:00</time></trkpt><trkpt lat="22.318293" lon="103.767197"><ele>2721.4</ele><time>2011-04-24T02:21:23.0000000+00:00</time></trkpt><trkpt lat="22.318275" lon="103.767197"><ele>2722.0</ele><time>2011-04-24T02:21:28.0000000+00:00</time></trkpt><trkpt lat="22.318264" lon="103.767204"><ele>2722.3</ele><time>2011-04-24T02:21:33.0000000+00:00</time></trkpt><trkpt lat="22.318253" lon="103.767197"><ele>2722.8</ele><time>2011-04-24T02:21:38.0000000+00:00</time></trkpt><trkpt lat="22.318249" lon="103.767197"><ele>2723.7</ele><time>2011-04-24T02:21:43.0000000+00:00</time></trkpt><trkpt lat="22.318243" lon="103.767197"><ele>2723.9</ele><time>2011-04-24T02:21:48.0000000+00:00</time></trkpt><trkpt lat="22.318239" lon="103.767197"><ele>2724.0</ele><time>2011-04-24T02:21:53.0000000+00:00</time></trkpt><trkpt lat="22.318218" lon="103.767197"><ele>2724.8</ele><time>2011-04-24T02:21:58.0000000+00:00</time></trkpt><trkpt lat="22.318199" lon="103.767189"><ele>2725.4</ele><time>2011-04-24T02:22:03.0000000+00:00</time></trkpt><trkpt lat="22.318169" lon="103.767189"><ele>2726.7</ele><time>2011-04-24T02:22:08.0000000+00:00</time></trkpt><trkpt lat="22.31814" lon="103.767181"><ele>2728.0</ele><time>2011-04-24T02:22:13.0000000+00:00</time></trkpt><trkpt lat="22.318125" lon="103.767189"><ele>2730.0</ele><time>2011-04-24T02:22:18.0000000+00:00</time></trkpt><trkpt lat="22.31811" lon="103.767181"><ele>2730.5</ele><time>2011-04-24T02:22:23.0000000+00:00</time></trkpt><trkpt lat="22.318098" lon="103.767174"><ele>2731.4</ele><time>2011-04-24T02:22:28.0000000+00:00</time></trkpt><trkpt lat="22.318079" lon="103.767166"><ele>2732.0</ele><time>2011-04-24T02:22:33.0000000+00:00</time></trkpt><trkpt lat="22.31806" lon="103.767159"><ele>2733.4</ele><time>2011-04-24T02:22:38.0000000+00:00</time></trkpt><trkpt lat="22.318048" lon="103.767151"><ele>2734.5</ele><time>2011-04-24T02:22:43.0000000+00:00</time></trkpt><trkpt lat="22.318029" lon="103.767143"><ele>2735.1</ele><time>2011-04-24T02:22:48.0000000+00:00</time></trkpt><trkpt lat="22.318007" lon="103.767143"><ele>2735.7</ele><time>2011-04-24T02:22:53.0000000+00:00</time></trkpt><trkpt lat="22.317986" lon="103.767136"><ele>2737.7</ele><time>2011-04-24T02:22:58.0000000+00:00</time></trkpt><trkpt lat="22.317976" lon="103.767143"><ele>2737.6</ele><time>2011-04-24T02:23:03.0000000+00:00</time></trkpt><trkpt lat="22.317953" lon="103.767128"><ele>2738.1</ele><time>2011-04-24T02:23:08.0000000+00:00</time></trkpt><trkpt lat="22.317924" lon="103.76712"><ele>2738.9</ele><time>2011-04-24T02:23:13.0000000+00:00</time></trkpt><trkpt lat="22.317913" lon="103.767113"><ele>2739.4</ele><time>2011-04-24T02:23:18.0000000+00:00</time></trkpt><trkpt lat="22.317911" lon="103.767113"><ele>2740.1</ele><time>2011-04-24T02:23:23.0000000+00:00</time></trkpt><trkpt lat="22.317881" lon="103.767105"><ele>2741.0</ele><time>2011-04-24T02:23:28.0000000+00:00</time></trkpt><trkpt lat="22.317852" lon="103.767105"><ele>2741.9</ele><time>2011-04-24T02:23:33.0000000+00:00</time></trkpt><trkpt lat="22.317827" lon="103.76709"><ele>2742.3</ele><time>2011-04-24T02:23:38.0000000+00:00</time></trkpt><trkpt lat="22.317804" lon="103.767082"><ele>2743.8</ele><time>2011-04-24T02:23:43.0000000+00:00</time></trkpt><trkpt lat="22.317778" lon="103.767082"><ele>2744.7</ele><time>2011-04-24T02:23:48.0000000+00:00</time></trkpt><trkpt lat="22.317762" lon="103.767082"><ele>2745.6</ele><time>2011-04-24T02:23:53.0000000+00:00</time></trkpt><trkpt lat="22.317745" lon="103.767067"><ele>2745.4</ele><time>2011-04-24T02:23:58.0000000+00:00</time></trkpt><trkpt lat="22.317743" lon="103.767067"><ele>2745.9</ele><time>2011-04-24T02:24:03.0000000+00:00</time></trkpt><trkpt lat="22.317741" lon="103.767067"><ele>2745.9</ele><time>2011-04-24T02:24:08.0000000+00:00</time></trkpt><trkpt lat="22.317724" lon="103.767067"><ele>2746.2</ele><time>2011-04-24T02:24:13.0000000+00:00</time></trkpt><trkpt lat="22.317711" lon="103.767059"><ele>2746.0</ele><time>2011-04-24T02:24:18.0000000+00:00</time></trkpt><trkpt lat="22.317671" lon="103.767052"><ele>2747.1</ele><time>2011-04-24T02:24:23.0000000+00:00</time></trkpt><trkpt lat="22.317638" lon="103.767052"><ele>2747.0</ele><time>2011-04-24T02:24:28.0000000+00:00</time></trkpt><trkpt lat="22.31764" lon="103.767044"><ele>2746.9</ele><time>2011-04-24T02:24:33.0000000+00:00</time></trkpt><trkpt lat="22.317629" lon="103.767052"><ele>2747.8</ele><time>2011-04-24T02:24:38.0000000+00:00</time></trkpt><trkpt lat="22.317621" lon="103.767059"><ele>2748.4</ele><time>2011-04-24T02:24:43.0000000+00:00</time></trkpt><trkpt lat="22.317608" lon="103.767067"><ele>2749.3</ele><time>2011-04-24T02:24:48.0000000+00:00</time></trkpt><trkpt lat="22.317606" lon="103.767059"><ele>2750.6</ele><time>2011-04-24T02:24:53.0000000+00:00</time></trkpt><trkpt lat="22.31761" lon="103.767067"><ele>2750.9</ele><time>2011-04-24T02:24:58.0000000+00:00</time></trkpt><trkpt lat="22.317604" lon="103.767067"><ele>2751.2</ele><time>2011-04-24T02:25:03.0000000+00:00</time></trkpt><trkpt lat="22.317589" lon="103.767075"><ele>2751.8</ele><time>2011-04-24T02:25:08.0000000+00:00</time></trkpt><trkpt lat="22.317581" lon="103.767075"><ele>2752.2</ele><time>2011-04-24T02:25:13.0000000+00:00</time></trkpt><trkpt lat="22.317577" lon="103.767075"><ele>2753.0</ele><time>2011-04-24T02:25:18.0000000+00:00</time></trkpt><trkpt lat="22.317553" lon="103.767082"><ele>2754.3</ele><time>2011-04-24T02:25:23.0000000+00:00</time></trkpt><trkpt lat="22.317528" lon="103.767075"><ele>2755.2</ele><time>2011-04-24T02:25:28.0000000+00:00</time></trkpt><trkpt lat="22.317516" lon="103.767075"><ele>2755.8</ele><time>2011-04-24T02:25:33.0000000+00:00</time></trkpt><trkpt lat="22.317497" lon="103.767082"><ele>2756.9</ele><time>2011-04-24T02:25:38.0000000+00:00</time></trkpt><trkpt lat="22.317505" lon="103.767067"><ele>2758.1</ele><time>2011-04-24T02:25:43.0000000+00:00</time></trkpt><trkpt lat="22.317493" lon="103.767067"><ele>2759.2</ele><time>2011-04-24T02:25:48.0000000+00:00</time></trkpt><trkpt lat="22.317469" lon="103.767052"><ele>2760.2</ele><time>2011-04-24T02:25:53.0000000+00:00</time></trkpt><trkpt lat="22.317448" lon="103.767021"><ele>2760.4</ele><time>2011-04-24T02:25:58.0000000+00:00</time></trkpt><trkpt lat="22.31743" lon="103.767006"><ele>2760.7</ele><time>2011-04-24T02:26:03.0000000+00:00</time></trkpt><trkpt lat="22.317421" lon="103.766998"><ele>2761.4</ele><time>2011-04-24T02:26:08.0000000+00:00</time></trkpt><trkpt lat="22.317415" lon="103.766991"><ele>2762.2</ele><time>2011-04-24T02:26:13.0000000+00:00</time></trkpt><trkpt lat="22.317404" lon="103.766968"><ele>2762.8</ele><time>2011-04-24T02:26:18.0000000+00:00</time></trkpt><trkpt lat="22.317402" lon="103.766945"><ele>2763.5</ele><time>2011-04-24T02:26:23.0000000+00:00</time></trkpt><trkpt lat="22.317398" lon="103.766937"><ele>2764.9</ele><time>2011-04-24T02:26:28.0000000+00:00</time></trkpt><trkpt lat="22.31739" lon="103.76693"><ele>2765.6</ele><time>2011-04-24T02:26:33.0000000+00:00</time></trkpt><trkpt lat="22.317387" lon="103.76693"><ele>2765.8</ele><time>2011-04-24T02:26:38.0000000+00:00</time></trkpt><trkpt lat="22.317383" lon="103.766922"><ele>2767.3</ele><time>2011-04-24T02:26:43.0000000+00:00</time></trkpt><trkpt lat="22.317368" lon="103.766914"><ele>2767.6</ele><time>2011-04-24T02:26:48.0000000+00:00</time></trkpt><trkpt lat="22.317352" lon="103.766899"><ele>2768.9</ele><time>2011-04-24T02:26:53.0000000+00:00</time></trkpt><trkpt lat="22.317327" lon="103.766891"><ele>2770.2</ele><time>2011-04-24T02:26:58.0000000+00:00</time></trkpt><trkpt lat="22.317297" lon="103.766891"><ele>2770.9</ele><time>2011-04-24T02:27:03.0000000+00:00</time></trkpt><trkpt lat="22.317291" lon="103.766891"><ele>2771.5</ele><time>2011-04-24T02:27:08.0000000+00:00</time></trkpt><trkpt lat="22.317286" lon="103.766891"><ele>2772.0</ele><time>2011-04-24T02:27:13.0000000+00:00</time></trkpt><trkpt lat="22.317261" lon="103.766884"><ele>2772.7</ele><time>2011-04-24T02:27:18.0000000+00:00</time></trkpt><trkpt lat="22.317247" lon="103.766876"><ele>2773.5</ele><time>2011-04-24T02:27:23.0000000+00:00</time></trkpt><trkpt lat="22.31724" lon="103.766869"><ele>2774.8</ele><time>2011-04-24T02:27:28.0000000+00:00</time></trkpt><trkpt lat="22.317223" lon="103.766861"><ele>2776.6</ele><time>2011-04-24T02:27:33.0000000+00:00</time></trkpt><trkpt lat="22.317215" lon="103.766853"><ele>2777.3</ele><time>2011-04-24T02:27:38.0000000+00:00</time></trkpt><trkpt lat="22.317207" lon="103.766846"><ele>2778.0</ele><time>2011-04-24T02:27:43.0000000+00:00</time></trkpt><trkpt lat="22.317192" lon="103.766838"><ele>2779.2</ele><time>2011-04-24T02:27:48.0000000+00:00</time></trkpt><trkpt lat="22.317179" lon="103.76683"><ele>2779.9</ele><time>2011-04-24T02:27:53.0000000+00:00</time></trkpt><trkpt lat="22.317156" lon="103.766815"><ele>2781.3</ele><time>2011-04-24T02:27:58.0000000+00:00</time></trkpt><trkpt lat="22.317139" lon="103.766792"><ele>2782.2</ele><time>2011-04-24T02:28:03.0000000+00:00</time></trkpt><trkpt lat="22.317135" lon="103.766785"><ele>2782.3</ele><time>2011-04-24T02:28:08.0000000+00:00</time></trkpt><trkpt lat="22.317129" lon="103.766769"><ele>2782.7</ele><time>2011-04-24T02:28:13.0000000+00:00</time></trkpt><trkpt lat="22.317118" lon="103.766769"><ele>2783.2</ele><time>2011-04-24T02:28:18.0000000+00:00</time></trkpt><trkpt lat="22.317093" lon="103.766747"><ele>2783.7</ele><time>2011-04-24T02:28:23.0000000+00:00</time></trkpt><trkpt lat="22.317074" lon="103.766724"><ele>2784.3</ele><time>2011-04-24T02:28:28.0000000+00:00</time></trkpt><trkpt lat="22.317038" lon="103.766701"><ele>2785.2</ele><time>2011-04-24T02:28:33.0000000+00:00</time></trkpt><trkpt lat="22.317028" lon="103.766701"><ele>2786.0</ele><time>2011-04-24T02:28:38.0000000+00:00</time></trkpt><trkpt lat="22.317013" lon="103.766701"><ele>2786.8</ele><time>2011-04-24T02:28:43.0000000+00:00</time></trkpt><trkpt lat="22.317001" lon="103.766701"><ele>2787.1</ele><time>2011-04-24T02:28:48.0000000+00:00</time></trkpt><trkpt lat="22.316992" lon="103.766708"><ele>2787.5</ele><time>2011-04-24T02:28:53.0000000+00:00</time></trkpt><trkpt lat="22.316982" lon="103.766708"><ele>2788.0</ele><time>2011-04-24T02:28:58.0000000+00:00</time></trkpt><trkpt lat="22.316982" lon="103.766693"><ele>2789.0</ele><time>2011-04-24T02:29:03.0000000+00:00</time></trkpt><trkpt lat="22.31698" lon="103.766685"><ele>2789.8</ele><time>2011-04-24T02:29:08.0000000+00:00</time></trkpt><trkpt lat="22.316957" lon="103.766685"><ele>2792.5</ele><time>2011-04-24T02:29:13.0000000+00:00</time></trkpt><trkpt lat="22.316942" lon="103.76667"><ele>2794.5</ele><time>2011-04-24T02:29:18.0000000+00:00</time></trkpt><trkpt lat="22.316931" lon="103.766663"><ele>2794.2</ele><time>2011-04-24T02:29:23.0000000+00:00</time></trkpt><trkpt lat="22.316921" lon="103.766663"><ele>2794.5</ele><time>2011-04-24T02:29:28.0000000+00:00</time></trkpt><trkpt lat="22.316912" lon="103.766655"><ele>2794.5</ele><time>2011-04-24T02:29:33.0000000+00:00</time></trkpt><trkpt lat="22.316923" lon="103.766647"><ele>2795.5</ele><time>2011-04-24T02:29:38.0000000+00:00</time></trkpt><trkpt lat="22.31691" lon="103.766647"><ele>2796.0</ele><time>2011-04-24T02:29:43.0000000+00:00</time></trkpt><trkpt lat="22.316898" lon="103.76664"><ele>2796.5</ele><time>2011-04-24T02:29:48.0000000+00:00</time></trkpt><trkpt lat="22.316875" lon="103.766624"><ele>2797.3</ele><time>2011-04-24T02:29:53.0000000+00:00</time></trkpt><trkpt lat="22.316851" lon="103.766602"><ele>2797.5</ele><time>2011-04-24T02:29:58.0000000+00:00</time></trkpt><trkpt lat="22.316828" lon="103.766602"><ele>2799.1</ele><time>2011-04-24T02:30:03.0000000+00:00</time></trkpt><trkpt lat="22.316805" lon="103.766602"><ele>2799.2</ele><time>2011-04-24T02:30:08.0000000+00:00</time></trkpt><trkpt lat="22.316786" lon="103.766579"><ele>2799.3</ele><time>2011-04-24T02:30:13.0000000+00:00</time></trkpt><trkpt lat="22.316755" lon="103.766571"><ele>2799.8</ele><time>2011-04-24T02:30:18.0000000+00:00</time></trkpt><trkpt lat="22.316738" lon="103.766556"><ele>2800.3</ele><time>2011-04-24T02:30:23.0000000+00:00</time></trkpt><trkpt lat="22.316727" lon="103.766548"><ele>2800.2</ele><time>2011-04-24T02:30:28.0000000+00:00</time></trkpt><trkpt lat="22.316715" lon="103.766548"><ele>2800.3</ele><time>2011-04-24T02:30:33.0000000+00:00</time></trkpt><trkpt lat="22.316711" lon="103.766556"><ele>2800.7</ele><time>2011-04-24T02:30:38.0000000+00:00</time></trkpt><trkpt lat="22.316708" lon="103.766541"><ele>2800.3</ele><time>2011-04-24T02:30:43.0000000+00:00</time></trkpt><trkpt lat="22.316706" lon="103.766541"><ele>2799.9</ele><time>2011-04-24T02:30:48.0000000+00:00</time></trkpt><trkpt lat="22.316696" lon="103.766548"><ele>2799.5</ele><time>2011-04-24T02:30:53.0000000+00:00</time></trkpt><trkpt lat="22.31669" lon="103.766548"><ele>2799.3</ele><time>2011-04-24T02:30:58.0000000+00:00</time></trkpt><trkpt lat="22.316673" lon="103.766563"><ele>2798.5</ele><time>2011-04-24T02:31:03.0000000+00:00</time></trkpt><trkpt lat="22.316652" lon="103.766571"><ele>2797.9</ele><time>2011-04-24T02:31:08.0000000+00:00</time></trkpt><trkpt lat="22.316631" lon="103.766579"><ele>2797.6</ele><time>2011-04-24T02:31:13.0000000+00:00</time></trkpt><trkpt lat="22.316608" lon="103.766586"><ele>2797.3</ele><time>2011-04-24T02:31:18.0000000+00:00</time></trkpt><trkpt lat="22.316589" lon="103.766579"><ele>2797.2</ele><time>2011-04-24T02:31:23.0000000+00:00</time></trkpt><trkpt lat="22.316572" lon="103.766548"><ele>2797.1</ele><time>2011-04-24T02:31:28.0000000+00:00</time></trkpt><trkpt lat="22.316536" lon="103.766533"><ele>2797.8</ele><time>2011-04-24T02:31:33.0000000+00:00</time></trkpt><trkpt lat="22.316502" lon="103.766525"><ele>2798.2</ele><time>2011-04-24T02:31:38.0000000+00:00</time></trkpt><trkpt lat="22.316463" lon="103.766518"><ele>2797.7</ele><time>2011-04-24T02:31:43.0000000+00:00</time></trkpt><trkpt lat="22.316437" lon="103.766479"><ele>2796.3</ele><time>2011-04-24T02:31:48.0000000+00:00</time></trkpt><trkpt lat="22.316439" lon="103.766449"><ele>2795.7</ele><time>2011-04-24T02:31:53.0000000+00:00</time></trkpt><trkpt lat="22.31642" lon="103.766411"><ele>2794.9</ele><time>2011-04-24T02:31:58.0000000+00:00</time></trkpt><trkpt lat="22.316402" lon="103.76635"><ele>2794.0</ele><time>2011-04-24T02:32:03.0000000+00:00</time></trkpt><trkpt lat="22.316378" lon="103.766319"><ele>2794.2</ele><time>2011-04-24T02:32:08.0000000+00:00</time></trkpt><trkpt lat="22.316343" lon="103.766281"><ele>2793.5</ele><time>2011-04-24T02:32:13.0000000+00:00</time></trkpt><trkpt lat="22.31629" lon="103.766258"><ele>2793.0</ele><time>2011-04-24T02:32:18.0000000+00:00</time></trkpt><trkpt lat="22.31624" lon="103.766235"><ele>2793.2</ele><time>2011-04-24T02:32:23.0000000+00:00</time></trkpt><trkpt lat="22.3162" lon="103.766205"><ele>2792.5</ele><time>2011-04-24T02:32:28.0000000+00:00</time></trkpt><trkpt lat="22.316175" lon="103.766174"><ele>2791.7</ele><time>2011-04-24T02:32:33.0000000+00:00</time></trkpt><trkpt lat="22.316164" lon="103.766174"><ele>2791.9</ele><time>2011-04-24T02:32:38.0000000+00:00</time></trkpt><trkpt lat="22.316154" lon="103.766167"><ele>2792.0</ele><time>2011-04-24T02:32:43.0000000+00:00</time></trkpt><trkpt lat="22.316141" lon="103.766167"><ele>2791.4</ele><time>2011-04-24T02:32:48.0000000+00:00</time></trkpt><trkpt lat="22.31612" lon="103.766098"><ele>2789.8</ele><time>2011-04-24T02:32:53.0000000+00:00</time></trkpt><trkpt lat="22.316111" lon="103.766068"><ele>2789.4</ele><time>2011-04-24T02:32:58.0000000+00:00</time></trkpt><trkpt lat="22.316097" lon="103.766029"><ele>2788.5</ele><time>2011-04-24T02:33:03.0000000+00:00</time></trkpt><trkpt lat="22.316076" lon="103.766006"><ele>2786.8</ele><time>2011-04-24T02:33:08.0000000+00:00</time></trkpt><trkpt lat="22.316055" lon="103.765968"><ele>2786.7</ele><time>2011-04-24T02:33:13.0000000+00:00</time></trkpt><trkpt lat="22.316023" lon="103.765915"><ele>2785.7</ele><time>2011-04-24T02:33:18.0000000+00:00</time></trkpt><trkpt lat="22.315998" lon="103.765892"><ele>2784.6</ele><time>2011-04-24T02:33:23.0000000+00:00</time></trkpt><trkpt lat="22.315964" lon="103.765892"><ele>2784.0</ele><time>2011-04-24T02:33:28.0000000+00:00</time></trkpt><trkpt lat="22.315916" lon="103.765907"><ele>2783.3</ele><time>2011-04-24T02:33:33.0000000+00:00</time></trkpt><trkpt lat="22.315865" lon="103.7659"><ele>2783.0</ele><time>2011-04-24T02:33:38.0000000+00:00</time></trkpt><trkpt lat="22.315819" lon="103.765854"><ele>2783.0</ele><time>2011-04-24T02:33:43.0000000+00:00</time></trkpt><trkpt lat="22.315804" lon="103.765846"><ele>2784.2</ele><time>2011-04-24T02:33:48.0000000+00:00</time></trkpt><trkpt lat="22.315777" lon="103.765831"><ele>2784.0</ele><time>2011-04-24T02:33:53.0000000+00:00</time></trkpt><trkpt lat="22.31575" lon="103.765808"><ele>2783.8</ele><time>2011-04-24T02:33:58.0000000+00:00</time></trkpt><trkpt lat="22.315741" lon="103.765816"><ele>2783.8</ele><time>2011-04-24T02:34:03.0000000+00:00</time></trkpt><trkpt lat="22.31568" lon="103.765823"><ele>2783.8</ele><time>2011-04-24T02:34:08.0000000+00:00</time></trkpt><trkpt lat="22.315628" lon="103.765839"><ele>2784.8</ele><time>2011-04-24T02:34:13.0000000+00:00</time></trkpt><trkpt lat="22.315567" lon="103.765869"><ele>2784.6</ele><time>2011-04-24T02:34:18.0000000+00:00</time></trkpt><trkpt lat="22.315521" lon="103.7659"><ele>2785.0</ele><time>2011-04-24T02:34:23.0000000+00:00</time></trkpt><trkpt lat="22.315498" lon="103.765945"><ele>2785.7</ele><time>2011-04-24T02:34:28.0000000+00:00</time></trkpt><trkpt lat="22.315475" lon="103.765984"><ele>2786.3</ele><time>2011-04-24T02:34:33.0000000+00:00</time></trkpt><trkpt lat="22.315456" lon="103.765999"><ele>2786.4</ele><time>2011-04-24T02:34:38.0000000+00:00</time></trkpt><trkpt lat="22.315416" lon="103.766029"><ele>2786.9</ele><time>2011-04-24T02:34:43.0000000+00:00</time></trkpt><trkpt lat="22.315363" lon="103.766045"><ele>2787.6</ele><time>2011-04-24T02:34:48.0000000+00:00</time></trkpt><trkpt lat="22.315325" lon="103.766037"><ele>2788.0</ele><time>2011-04-24T02:34:53.0000000+00:00</time></trkpt><trkpt lat="22.315323" lon="103.766022"><ele>2788.2</ele><time>2011-04-24T02:34:58.0000000+00:00</time></trkpt><trkpt lat="22.315292" lon="103.766014"><ele>2788.6</ele><time>2011-04-24T02:35:03.0000000+00:00</time></trkpt><trkpt lat="22.315271" lon="103.766006"><ele>2788.2</ele><time>2011-04-24T02:35:08.0000000+00:00</time></trkpt><trkpt lat="22.315245" lon="103.765984"><ele>2788.0</ele><time>2011-04-24T02:35:13.0000000+00:00</time></trkpt><trkpt lat="22.315216" lon="103.765938"><ele>2787.7</ele><time>2011-04-24T02:35:18.0000000+00:00</time></trkpt><trkpt lat="22.315176" lon="103.765915"><ele>2787.5</ele><time>2011-04-24T02:35:23.0000000+00:00</time></trkpt><trkpt lat="22.315142" lon="103.765862"><ele>2787.5</ele><time>2011-04-24T02:35:28.0000000+00:00</time></trkpt><trkpt lat="22.31509" lon="103.765831"><ele>2787.2</ele><time>2011-04-24T02:35:33.0000000+00:00</time></trkpt><trkpt lat="22.315081" lon="103.765823"><ele>2786.7</ele><time>2011-04-24T02:35:38.0000000+00:00</time></trkpt><trkpt lat="22.315067" lon="103.765816"><ele>2786.0</ele><time>2011-04-24T02:35:43.0000000+00:00</time></trkpt><trkpt lat="22.315042" lon="103.765762"><ele>2785.0</ele><time>2011-04-24T02:35:48.0000000+00:00</time></trkpt><trkpt lat="22.315035" lon="103.765724"><ele>2783.4</ele><time>2011-04-24T02:35:53.0000000+00:00</time></trkpt><trkpt lat="22.315029" lon="103.765717"><ele>2782.7</ele><time>2011-04-24T02:35:58.0000000+00:00</time></trkpt><trkpt lat="22.315027" lon="103.765709"><ele>2782.7</ele><time>2011-04-24T02:36:03.0000000+00:00</time></trkpt><trkpt lat="22.315029" lon="103.765724"><ele>2782.8</ele><time>2011-04-24T02:36:08.0000000+00:00</time></trkpt><trkpt lat="22.315027" lon="103.765724"><ele>2782.6</ele><time>2011-04-24T02:36:13.0000000+00:00</time></trkpt><trkpt lat="22.315027" lon="103.765717"><ele>2782.8</ele><time>2011-04-24T02:36:18.0000000+00:00</time></trkpt><trkpt lat="22.315002" lon="103.765694"><ele>2783.1</ele><time>2011-04-24T02:36:23.0000000+00:00</time></trkpt><trkpt lat="22.314976" lon="103.765633"><ele>2783.9</ele><time>2011-04-24T02:36:28.0000000+00:00</time></trkpt><trkpt lat="22.314926" lon="103.765633"><ele>2784.7</ele><time>2011-04-24T02:36:33.0000000+00:00</time></trkpt><trkpt lat="22.314877" lon="103.765663"><ele>2785.2</ele><time>2011-04-24T02:36:38.0000000+00:00</time></trkpt><trkpt lat="22.314827" lon="103.765678"><ele>2786.1</ele><time>2011-04-24T02:36:43.0000000+00:00</time></trkpt><trkpt lat="22.314796" lon="103.765694"><ele>2785.5</ele><time>2011-04-24T02:36:48.0000000+00:00</time></trkpt><trkpt lat="22.314762" lon="103.765686"><ele>2784.0</ele><time>2011-04-24T02:36:53.0000000+00:00</time></trkpt><trkpt lat="22.314734" lon="103.765701"><ele>2783.0</ele><time>2011-04-24T02:36:58.0000000+00:00</time></trkpt><trkpt lat="22.314709" lon="103.765694"><ele>2782.7</ele><time>2011-04-24T02:37:03.0000000+00:00</time></trkpt><trkpt lat="22.314669" lon="103.765686"><ele>2782.0</ele><time>2011-04-24T02:37:08.0000000+00:00</time></trkpt><trkpt lat="22.314663" lon="103.765694"><ele>2781.3</ele><time>2011-04-24T02:37:13.0000000+00:00</time></trkpt><trkpt lat="22.314642" lon="103.765701"><ele>2781.4</ele><time>2011-04-24T02:37:18.0000000+00:00</time></trkpt><trkpt lat="22.314627" lon="103.765717"><ele>2781.7</ele><time>2011-04-24T02:37:23.0000000+00:00</time></trkpt><trkpt lat="22.314615" lon="103.765739"><ele>2781.8</ele><time>2011-04-24T02:37:28.0000000+00:00</time></trkpt><trkpt lat="22.314608" lon="103.765755"><ele>2782.4</ele><time>2011-04-24T02:37:33.0000000+00:00</time></trkpt><trkpt lat="22.314594" lon="103.765755"><ele>2782.5</ele><time>2011-04-24T02:37:38.0000000+00:00</time></trkpt><trkpt lat="22.314579" lon="103.765755"><ele>2782.5</ele><time>2011-04-24T02:37:43.0000000+00:00</time></trkpt><trkpt lat="22.314566" lon="103.765747"><ele>2782.5</ele><time>2011-04-24T02:37:48.0000000+00:00</time></trkpt><trkpt lat="22.314552" lon="103.765747"><ele>2782.5</ele><time>2011-04-24T02:37:53.0000000+00:00</time></trkpt><trkpt lat="22.314541" lon="103.765739"><ele>2782.6</ele><time>2011-04-24T02:37:58.0000000+00:00</time></trkpt><trkpt lat="22.314537" lon="103.765724"><ele>2782.7</ele><time>2011-04-24T02:38:03.0000000+00:00</time></trkpt><trkpt lat="22.314528" lon="103.765709"><ele>2782.7</ele><time>2011-04-24T02:38:08.0000000+00:00</time></trkpt><trkpt lat="22.314518" lon="103.765678"><ele>2782.8</ele><time>2011-04-24T02:38:13.0000000+00:00</time></trkpt><trkpt lat="22.314465" lon="103.76561"><ele>2783.0</ele><time>2011-04-24T02:38:18.0000000+00:00</time></trkpt><trkpt lat="22.314402" lon="103.765556"><ele>2783.2</ele><time>2011-04-24T02:38:23.0000000+00:00</time></trkpt><trkpt lat="22.314358" lon="103.765503"><ele>2783.4</ele><time>2011-04-24T02:38:28.0000000+00:00</time></trkpt><trkpt lat="22.314358" lon="103.76548"><ele>2783.6</ele><time>2011-04-24T02:38:33.0000000+00:00</time></trkpt><trkpt lat="22.314369" lon="103.76548"><ele>2783.6</ele><time>2011-04-24T02:38:38.0000000+00:00</time></trkpt><trkpt lat="22.314402" lon="103.765541"><ele>2783.7</ele><time>2011-04-24T02:38:43.0000000+00:00</time></trkpt><trkpt lat="22.314398" lon="103.765564"><ele>2783.7</ele><time>2011-04-24T02:38:48.0000000+00:00</time></trkpt><trkpt lat="22.314417" lon="103.765633"><ele>2783.8</ele><time>2011-04-24T02:38:53.0000000+00:00</time></trkpt><trkpt lat="22.314468" lon="103.765678"><ele>2783.8</ele><time>2011-04-24T02:38:58.0000000+00:00</time></trkpt><trkpt lat="22.314514" lon="103.765717"><ele>2783.8</ele><time>2011-04-24T02:39:03.0000000+00:00</time></trkpt><trkpt lat="22.314543" lon="103.765785"><ele>2783.9</ele><time>2011-04-24T02:39:08.0000000+00:00</time></trkpt><trkpt lat="22.314558" lon="103.765839"><ele>2783.9</ele><time>2011-04-24T02:39:13.0000000+00:00</time></trkpt><trkpt lat="22.314589" lon="103.765869"><ele>2784.0</ele><time>2011-04-24T02:39:18.0000000+00:00</time></trkpt><trkpt lat="22.314631" lon="103.765877"><ele>2784.0</ele><time>2011-04-24T02:39:23.0000000+00:00</time></trkpt><trkpt lat="22.31464" lon="103.765907"><ele>2784.0</ele><time>2011-04-24T02:39:28.0000000+00:00</time></trkpt><trkpt lat="22.314659" lon="103.765938"><ele>2784.0</ele><time>2011-04-24T02:39:33.0000000+00:00</time></trkpt><trkpt lat="22.314693" lon="103.765907"><ele>2784.1</ele><time>2011-04-24T02:39:38.0000000+00:00</time></trkpt><trkpt lat="22.314745" lon="103.765854"><ele>2784.1</ele><time>2011-04-24T02:39:43.0000000+00:00</time></trkpt><trkpt lat="22.314783" lon="103.765839"><ele>2784.1</ele><time>2011-04-24T02:39:48.0000000+00:00</time></trkpt><trkpt lat="22.314796" lon="103.765816"><ele>2784.2</ele><time>2011-04-24T02:39:53.0000000+00:00</time></trkpt><trkpt lat="22.314814" lon="103.765808"><ele>2784.2</ele><time>2011-04-24T02:39:58.0000000+00:00</time></trkpt><trkpt lat="22.314829" lon="103.765823"><ele>2784.2</ele><time>2011-04-24T02:40:03.0000000+00:00</time></trkpt><trkpt lat="22.314819" lon="103.765816"><ele>2784.1</ele><time>2011-04-24T02:40:08.0000000+00:00</time></trkpt><trkpt lat="22.314814" lon="103.765785"><ele>2784.1</ele><time>2011-04-24T02:40:13.0000000+00:00</time></trkpt><trkpt lat="22.314795" lon="103.765785"><ele>2784.1</ele><time>2011-04-24T02:40:18.0000000+00:00</time></trkpt><trkpt lat="22.314791" lon="103.765793"><ele>2784.1</ele><time>2011-04-24T02:40:23.0000000+00:00</time></trkpt><trkpt lat="22.314774" lon="103.765785"><ele>2784.1</ele><time>2011-04-24T02:40:28.0000000+00:00</time></trkpt><trkpt lat="22.314734" lon="103.765793"><ele>2784.1</ele><time>2011-04-24T02:40:33.0000000+00:00</time></trkpt><trkpt lat="22.314741" lon="103.765816"><ele>2784.0</ele><time>2011-04-24T02:40:38.0000000+00:00</time></trkpt><trkpt lat="22.314718" lon="103.765808"><ele>2784.0</ele><time>2011-04-24T02:40:43.0000000+00:00</time></trkpt><trkpt lat="22.314682" lon="103.765816"><ele>2783.8</ele><time>2011-04-24T02:40:48.0000000+00:00</time></trkpt><trkpt lat="22.314653" lon="103.765808"><ele>2783.8</ele><time>2011-04-24T02:40:53.0000000+00:00</time></trkpt><trkpt lat="22.314634" lon="103.765793"><ele>2783.7</ele><time>2011-04-24T02:40:58.0000000+00:00</time></trkpt><trkpt lat="22.314665" lon="103.765808"><ele>2783.6</ele><time>2011-04-24T02:41:03.0000000+00:00</time></trkpt><trkpt lat="22.314705" lon="103.765846"><ele>2783.5</ele><time>2011-04-24T02:41:08.0000000+00:00</time></trkpt><trkpt lat="22.314716" lon="103.765862"><ele>2783.5</ele><time>2011-04-24T02:41:13.0000000+00:00</time></trkpt><trkpt lat="22.314714" lon="103.765869"><ele>2783.5</ele><time>2011-04-24T02:41:18.0000000+00:00</time></trkpt><trkpt lat="22.314713" lon="103.765877"><ele>2783.5</ele><time>2011-04-24T02:41:23.0000000+00:00</time></trkpt><trkpt lat="22.314707" lon="103.765877"><ele>2783.5</ele><time>2011-04-24T02:41:28.0000000+00:00</time></trkpt><trkpt lat="22.314699" lon="103.765869"><ele>2783.5</ele><time>2011-04-24T02:41:33.0000000+00:00</time></trkpt><trkpt lat="22.314688" lon="103.765816"><ele>2783.5</ele><time>2011-04-24T02:41:38.0000000+00:00</time></trkpt><trkpt lat="22.314692" lon="103.765854"><ele>2783.4</ele><time>2011-04-24T02:41:43.0000000+00:00</time></trkpt><trkpt lat="22.314686" lon="103.765854"><ele>2783.4</ele><time>2011-04-24T02:41:48.0000000+00:00</time></trkpt><trkpt lat="22.314682" lon="103.765854"><ele>2783.4</ele><time>2011-04-24T02:41:53.0000000+00:00</time></trkpt><trkpt lat="22.31468" lon="103.765854"><ele>2783.4</ele><time>2011-04-24T02:41:58.0000000+00:00</time></trkpt><trkpt lat="22.314678" lon="103.765839"><ele>2783.3</ele><time>2011-04-24T02:42:03.0000000+00:00</time></trkpt><trkpt lat="22.314682" lon="103.765755"><ele>2783.3</ele><time>2011-04-24T02:42:08.0000000+00:00</time></trkpt><trkpt lat="22.314672" lon="103.765686"><ele>2783.3</ele><time>2011-04-24T02:42:13.0000000+00:00</time></trkpt><trkpt lat="22.314661" lon="103.76561"><ele>2783.3</ele><time>2011-04-24T02:42:18.0000000+00:00</time></trkpt><trkpt lat="22.314653" lon="103.765594"><ele>2783.3</ele><time>2011-04-24T02:42:23.0000000+00:00</time></trkpt><trkpt lat="22.314634" lon="103.76561"><ele>2783.3</ele><time>2011-04-24T02:42:28.0000000+00:00</time></trkpt><trkpt lat="22.314617" lon="103.765656"><ele>2783.3</ele><time>2011-04-24T02:42:33.0000000+00:00</time></trkpt><trkpt lat="22.314613" lon="103.765663"><ele>2783.3</ele><time>2011-04-24T02:42:38.0000000+00:00</time></trkpt><trkpt lat="22.314632" lon="103.765656"><ele>2783.3</ele><time>2011-04-24T02:42:43.0000000+00:00</time></trkpt><trkpt lat="22.314648" lon="103.765671"><ele>2783.4</ele><time>2011-04-24T02:42:48.0000000+00:00</time></trkpt><trkpt lat="22.314692" lon="103.765709"><ele>2783.4</ele><time>2011-04-24T02:42:53.0000000+00:00</time></trkpt><trkpt lat="22.314688" lon="103.765724"><ele>2783.5</ele><time>2011-04-24T02:42:58.0000000+00:00</time></trkpt><trkpt lat="22.314713" lon="103.765724"><ele>2783.5</ele><time>2011-04-24T02:43:03.0000000+00:00</time></trkpt><trkpt lat="22.314672" lon="103.765709"><ele>2783.5</ele><time>2011-04-24T02:43:08.0000000+00:00</time></trkpt><trkpt lat="22.314644" lon="103.765732"><ele>2783.5</ele><time>2011-04-24T02:43:13.0000000+00:00</time></trkpt><trkpt lat="22.314642" lon="103.76577"><ele>2783.5</ele><time>2011-04-24T02:43:18.0000000+00:00</time></trkpt><trkpt lat="22.314669" lon="103.765785"><ele>2783.5</ele><time>2011-04-24T02:43:23.0000000+00:00</time></trkpt><trkpt lat="22.314693" lon="103.7658"><ele>2783.5</ele><time>2011-04-24T02:43:28.0000000+00:00</time></trkpt><trkpt lat="22.314695" lon="103.765808"><ele>2783.5</ele><time>2011-04-24T02:43:33.0000000+00:00</time></trkpt><trkpt lat="22.31469" lon="103.7658"><ele>2783.5</ele><time>2011-04-24T02:43:38.0000000+00:00</time></trkpt><trkpt lat="22.31469" lon="103.765808"><ele>2783.5</ele><time>2011-04-24T02:43:43.0000000+00:00</time></trkpt><trkpt lat="22.314693" lon="103.765808"><ele>2783.5</ele><time>2011-04-24T02:43:48.0000000+00:00</time></trkpt><trkpt lat="22.314699" lon="103.765808"><ele>2783.5</ele><time>2011-04-24T02:43:53.0000000+00:00</time></trkpt><trkpt lat="22.314703" lon="103.765808"><ele>2783.5</ele><time>2011-04-24T02:43:58.0000000+00:00</time></trkpt><trkpt lat="22.314709" lon="103.765808"><ele>2783.6</ele><time>2011-04-24T02:44:03.0000000+00:00</time></trkpt><trkpt lat="22.314711" lon="103.765808"><ele>2783.6</ele><time>2011-04-24T02:44:08.0000000+00:00</time></trkpt><trkpt lat="22.314716" lon="103.765808"><ele>2783.7</ele><time>2011-04-24T02:44:13.0000000+00:00</time></trkpt><trkpt lat="22.314722" lon="103.765793"><ele>2783.7</ele><time>2011-04-24T02:44:18.0000000+00:00</time></trkpt><trkpt lat="22.314743" lon="103.765823"><ele>2783.8</ele><time>2011-04-24T02:44:23.0000000+00:00</time></trkpt><trkpt lat="22.314766" lon="103.765839"><ele>2783.8</ele><time>2011-04-24T02:44:28.0000000+00:00</time></trkpt><trkpt lat="22.314785" lon="103.765854"><ele>2784.2</ele><time>2011-04-24T02:44:33.0000000+00:00</time></trkpt><trkpt lat="22.314775" lon="103.765839"><ele>2784.7</ele><time>2011-04-24T02:44:38.0000000+00:00</time></trkpt><trkpt lat="22.314791" lon="103.765823"><ele>2784.8</ele><time>2011-04-24T02:44:43.0000000+00:00</time></trkpt><trkpt lat="22.314796" lon="103.765823"><ele>2784.8</ele><time>2011-04-24T02:44:48.0000000+00:00</time></trkpt><trkpt lat="22.314795" lon="103.765823"><ele>2785.0</ele><time>2011-04-24T02:44:53.0000000+00:00</time></trkpt><trkpt lat="22.314791" lon="103.765823"><ele>2785.1</ele><time>2011-04-24T02:44:58.0000000+00:00</time></trkpt><trkpt lat="22.314785" lon="103.765816"><ele>2785.2</ele><time>2011-04-24T02:45:03.0000000+00:00</time></trkpt><trkpt lat="22.314756" lon="103.765808"><ele>2785.7</ele><time>2011-04-24T02:45:08.0000000+00:00</time></trkpt><trkpt lat="22.314718" lon="103.765823"><ele>2786.2</ele><time>2011-04-24T02:45:13.0000000+00:00</time></trkpt><trkpt lat="22.314665" lon="103.765808"><ele>2786.7</ele><time>2011-04-24T02:45:18.0000000+00:00</time></trkpt><trkpt lat="22.314632" lon="103.765778"><ele>2787.2</ele><time>2011-04-24T02:45:23.0000000+00:00</time></trkpt><trkpt lat="22.31465" lon="103.76577"><ele>2787.5</ele><time>2011-04-24T02:45:28.0000000+00:00</time></trkpt><trkpt lat="22.314636" lon="103.765755"><ele>2787.8</ele><time>2011-04-24T02:45:33.0000000+00:00</time></trkpt><trkpt lat="22.314631" lon="103.765747"><ele>2788.0</ele><time>2011-04-24T02:45:38.0000000+00:00</time></trkpt><trkpt lat="22.314631" lon="103.765739"><ele>2788.2</ele><time>2011-04-24T02:45:43.0000000+00:00</time></trkpt><trkpt lat="22.314634" lon="103.765739"><ele>2788.4</ele><time>2011-04-24T02:45:48.0000000+00:00</time></trkpt><trkpt lat="22.31464" lon="103.765739"><ele>2788.7</ele><time>2011-04-24T02:45:53.0000000+00:00</time></trkpt><trkpt lat="22.31465" lon="103.765732"><ele>2788.8</ele><time>2011-04-24T02:45:58.0000000+00:00</time></trkpt><trkpt lat="22.314657" lon="103.765724"><ele>2789.0</ele><time>2011-04-24T02:46:03.0000000+00:00</time></trkpt><trkpt lat="22.314743" lon="103.765739"><ele>2789.3</ele><time>2011-04-24T02:46:08.0000000+00:00</time></trkpt><trkpt lat="22.314785" lon="103.765762"><ele>2789.5</ele><time>2011-04-24T02:46:13.0000000+00:00</time></trkpt><trkpt lat="22.314796" lon="103.765747"><ele>2789.4</ele><time>2011-04-24T02:46:18.0000000+00:00</time></trkpt><trkpt lat="22.314802" lon="103.765747"><ele>2789.2</ele><time>2011-04-24T02:46:23.0000000+00:00</time></trkpt><trkpt lat="22.314831" lon="103.765739"><ele>2789.2</ele><time>2011-04-24T02:46:28.0000000+00:00</time></trkpt><trkpt lat="22.314857" lon="103.765747"><ele>2789.1</ele><time>2011-04-24T02:46:33.0000000+00:00</time></trkpt><trkpt lat="22.314844" lon="103.765709"><ele>2789.3</ele><time>2011-04-24T02:46:38.0000000+00:00</time></trkpt><trkpt lat="22.314871" lon="103.765709"><ele>2789.5</ele><time>2011-04-24T02:46:43.0000000+00:00</time></trkpt><trkpt lat="22.314915" lon="103.765701"><ele>2789.8</ele><time>2011-04-24T02:46:48.0000000+00:00</time></trkpt><trkpt lat="22.314928" lon="103.765701"><ele>2790.2</ele><time>2011-04-24T02:46:53.0000000+00:00</time></trkpt><trkpt lat="22.314932" lon="103.765671"><ele>2790.5</ele><time>2011-04-24T02:46:58.0000000+00:00</time></trkpt><trkpt lat="22.314919" lon="103.765663"><ele>2790.9</ele><time>2011-04-24T02:47:03.0000000+00:00</time></trkpt><trkpt lat="22.314913" lon="103.765617"><ele>2791.3</ele><time>2011-04-24T02:47:08.0000000+00:00</time></trkpt><trkpt lat="22.314932" lon="103.765594"><ele>2791.5</ele><time>2011-04-24T02:47:13.0000000+00:00</time></trkpt><trkpt lat="22.31493" lon="103.765602"><ele>2792.2</ele><time>2011-04-24T02:47:18.0000000+00:00</time></trkpt><trkpt lat="22.314945" lon="103.76561"><ele>2792.7</ele><time>2011-04-24T02:47:23.0000000+00:00</time></trkpt><trkpt lat="22.314955" lon="103.765602"><ele>2792.9</ele><time>2011-04-24T02:47:28.0000000+00:00</time></trkpt><trkpt lat="22.314957" lon="103.76561"><ele>2793.1</ele><time>2011-04-24T02:47:33.0000000+00:00</time></trkpt><trkpt lat="22.314951" lon="103.765617"><ele>2793.3</ele><time>2011-04-24T02:47:38.0000000+00:00</time></trkpt><trkpt lat="22.314949" lon="103.765625"><ele>2793.5</ele><time>2011-04-24T02:47:43.0000000+00:00</time></trkpt><trkpt lat="22.31496" lon="103.765671"><ele>2793.8</ele><time>2011-04-24T02:47:48.0000000+00:00</time></trkpt><trkpt lat="22.314968" lon="103.765709"><ele>2794.1</ele><time>2011-04-24T02:47:53.0000000+00:00</time></trkpt><trkpt lat="22.314951" lon="103.765755"><ele>2794.3</ele><time>2011-04-24T02:47:58.0000000+00:00</time></trkpt><trkpt lat="22.314936" lon="103.76577"><ele>2794.7</ele><time>2011-04-24T02:48:03.0000000+00:00</time></trkpt><trkpt lat="22.314934" lon="103.765778"><ele>2795.1</ele><time>2011-04-24T02:48:08.0000000+00:00</time></trkpt><trkpt lat="22.314932" lon="103.765785"><ele>2795.3</ele><time>2011-04-24T02:48:13.0000000+00:00</time></trkpt><trkpt lat="22.31493" lon="103.765793"><ele>2795.5</ele><time>2011-04-24T02:48:18.0000000+00:00</time></trkpt><trkpt lat="22.314926" lon="103.7658"><ele>2795.7</ele><time>2011-04-24T02:48:23.0000000+00:00</time></trkpt><trkpt lat="22.314922" lon="103.765823"><ele>2795.7</ele><time>2011-04-24T02:48:28.0000000+00:00</time></trkpt><trkpt lat="22.314898" lon="103.765816"><ele>2795.7</ele><time>2011-04-24T02:48:33.0000000+00:00</time></trkpt><trkpt lat="22.314886" lon="103.765823"><ele>2795.9</ele><time>2011-04-24T02:48:38.0000000+00:00</time></trkpt><trkpt lat="22.314878" lon="103.765831"><ele>2796.1</ele><time>2011-04-24T02:48:43.0000000+00:00</time></trkpt><trkpt lat="22.314877" lon="103.765831"><ele>2796.3</ele><time>2011-04-24T02:48:48.0000000+00:00</time></trkpt><trkpt lat="22.314873" lon="103.765831"><ele>2796.5</ele><time>2011-04-24T02:48:53.0000000+00:00</time></trkpt><trkpt lat="22.314869" lon="103.765823"><ele>2796.6</ele><time>2011-04-24T02:48:58.0000000+00:00</time></trkpt><trkpt lat="22.314865" lon="103.7658"><ele>2796.8</ele><time>2011-04-24T02:49:03.0000000+00:00</time></trkpt><trkpt lat="22.314863" lon="103.7658"><ele>2797.3</ele><time>2011-04-24T02:49:08.0000000+00:00</time></trkpt><trkpt lat="22.314854" lon="103.765755"><ele>2797.9</ele><time>2011-04-24T02:49:13.0000000+00:00</time></trkpt><trkpt lat="22.314816" lon="103.765717"><ele>2798.3</ele><time>2011-04-24T02:49:18.0000000+00:00</time></trkpt><trkpt lat="22.314804" lon="103.765671"><ele>2798.6</ele><time>2011-04-24T02:49:23.0000000+00:00</time></trkpt><trkpt lat="22.314808" lon="103.765663"><ele>2799.5</ele><time>2011-04-24T02:49:28.0000000+00:00</time></trkpt><trkpt lat="22.314787" lon="103.765656"><ele>2800.2</ele><time>2011-04-24T02:49:33.0000000+00:00</time></trkpt><trkpt lat="22.314768" lon="103.765656"><ele>2800.4</ele><time>2011-04-24T02:49:38.0000000+00:00</time></trkpt><trkpt lat="22.314764" lon="103.765625"><ele>2800.4</ele><time>2011-04-24T02:49:43.0000000+00:00</time></trkpt><trkpt lat="22.31477" lon="103.76561"><ele>2800.3</ele><time>2011-04-24T02:49:48.0000000+00:00</time></trkpt><trkpt lat="22.31477" lon="103.76561"><ele>2800.2</ele><time>2011-04-24T02:49:53.0000000+00:00</time></trkpt><trkpt lat="22.314674" lon="103.765617"><ele>2799.0</ele><time>2011-04-24T02:49:58.0000000+00:00</time></trkpt><trkpt lat="22.314646" lon="103.765625"><ele>2798.5</ele><time>2011-04-24T02:50:03.0000000+00:00</time></trkpt><trkpt lat="22.314615" lon="103.765625"><ele>2798.0</ele><time>2011-04-24T02:50:08.0000000+00:00</time></trkpt><trkpt lat="22.314625" lon="103.765663"><ele>2797.6</ele><time>2011-04-24T02:50:13.0000000+00:00</time></trkpt><trkpt lat="22.314651" lon="103.765701"><ele>2797.0</ele><time>2011-04-24T02:50:18.0000000+00:00</time></trkpt><trkpt lat="22.314632" lon="103.765694"><ele>2796.8</ele><time>2011-04-24T02:50:23.0000000+00:00</time></trkpt><trkpt lat="22.314627" lon="103.765694"><ele>2797.0</ele><time>2011-04-24T02:50:28.0000000+00:00</time></trkpt><trkpt lat="22.314629" lon="103.765694"><ele>2797.0</ele><time>2011-04-24T02:50:33.0000000+00:00</time></trkpt><trkpt lat="22.314695" lon="103.765678"><ele>2796.0</ele><time>2011-04-24T02:50:38.0000000+00:00</time></trkpt><trkpt lat="22.314724" lon="103.765671"><ele>2795.3</ele><time>2011-04-24T02:50:43.0000000+00:00</time></trkpt><trkpt lat="22.314751" lon="103.765663"><ele>2794.8</ele><time>2011-04-24T02:50:48.0000000+00:00</time></trkpt><trkpt lat="22.314764" lon="103.765663"><ele>2794.8</ele><time>2011-04-24T02:50:53.0000000+00:00</time></trkpt><trkpt lat="22.314766" lon="103.765678"><ele>2794.7</ele><time>2011-04-24T02:50:58.0000000+00:00</time></trkpt><trkpt lat="22.314739" lon="103.765678"><ele>2794.8</ele><time>2011-04-24T02:51:03.0000000+00:00</time></trkpt><trkpt lat="22.314743" lon="103.765678"><ele>2794.8</ele><time>2011-04-24T02:51:08.0000000+00:00</time></trkpt><trkpt lat="22.314743" lon="103.765671"><ele>2794.9</ele><time>2011-04-24T02:51:13.0000000+00:00</time></trkpt><trkpt lat="22.314743" lon="103.765663"><ele>2795.0</ele><time>2011-04-24T02:51:18.0000000+00:00</time></trkpt><trkpt lat="22.314726" lon="103.765648"><ele>2795.2</ele><time>2011-04-24T02:51:23.0000000+00:00</time></trkpt><trkpt lat="22.314739" lon="103.765656"><ele>2795.5</ele><time>2011-04-24T02:51:28.0000000+00:00</time></trkpt><trkpt lat="22.314734" lon="103.765648"><ele>2795.5</ele><time>2011-04-24T02:51:33.0000000+00:00</time></trkpt><trkpt lat="22.314728" lon="103.765648"><ele>2795.6</ele><time>2011-04-24T02:51:38.0000000+00:00</time></trkpt><trkpt lat="22.31472" lon="103.765648"><ele>2795.7</ele><time>2011-04-24T02:51:43.0000000+00:00</time></trkpt><trkpt lat="22.31472" lon="103.765656"><ele>2795.7</ele><time>2011-04-24T02:51:48.0000000+00:00</time></trkpt><trkpt lat="22.314711" lon="103.765656"><ele>2795.8</ele><time>2011-04-24T02:51:53.0000000+00:00</time></trkpt><trkpt lat="22.314703" lon="103.765656"><ele>2795.8</ele><time>2011-04-24T02:51:58.0000000+00:00</time></trkpt><trkpt lat="22.314697" lon="103.765625"><ele>2795.7</ele><time>2011-04-24T02:52:03.0000000+00:00</time></trkpt><trkpt lat="22.314716" lon="103.765572"><ele>2795.2</ele><time>2011-04-24T02:52:08.0000000+00:00</time></trkpt><trkpt lat="22.314713" lon="103.765556"><ele>2795.0</ele><time>2011-04-24T02:52:13.0000000+00:00</time></trkpt><trkpt lat="22.314707" lon="103.765556"><ele>2795.0</ele><time>2011-04-24T02:52:18.0000000+00:00</time></trkpt><trkpt lat="22.31469" lon="103.765541"><ele>2795.0</ele><time>2011-04-24T02:52:23.0000000+00:00</time></trkpt><trkpt lat="22.314634" lon="103.765549"><ele>2794.8</ele><time>2011-04-24T02:52:28.0000000+00:00</time></trkpt><trkpt lat="22.314611" lon="103.765549"><ele>2794.7</ele><time>2011-04-24T02:52:33.0000000+00:00</time></trkpt><trkpt lat="22.314596" lon="103.765564"><ele>2794.7</ele><time>2011-04-24T02:52:38.0000000+00:00</time></trkpt><trkpt lat="22.314579" lon="103.765572"><ele>2794.7</ele><time>2011-04-24T02:52:43.0000000+00:00</time></trkpt><trkpt lat="22.314568" lon="103.765572"><ele>2794.7</ele><time>2011-04-24T02:52:48.0000000+00:00</time></trkpt><trkpt lat="22.314583" lon="103.765533"><ele>2794.5</ele><time>2011-04-24T02:52:53.0000000+00:00</time></trkpt><trkpt lat="22.314583" lon="103.765503"><ele>2794.4</ele><time>2011-04-24T02:52:58.0000000+00:00</time></trkpt><trkpt lat="22.314583" lon="103.765495"><ele>2794.2</ele><time>2011-04-24T02:53:03.0000000+00:00</time></trkpt><trkpt lat="22.314592" lon="103.765488"><ele>2794.2</ele><time>2011-04-24T02:53:08.0000000+00:00</time></trkpt><trkpt lat="22.314638" lon="103.765503"><ele>2793.7</ele><time>2011-04-24T02:53:13.0000000+00:00</time></trkpt><trkpt lat="22.314659" lon="103.765526"><ele>2793.2</ele><time>2011-04-24T02:53:18.0000000+00:00</time></trkpt><trkpt lat="22.314671" lon="103.765549"><ele>2793.0</ele><time>2011-04-24T02:53:23.0000000+00:00</time></trkpt><trkpt lat="22.314672" lon="103.765518"><ele>2792.5</ele><time>2011-04-24T02:53:28.0000000+00:00</time></trkpt><trkpt lat="22.314661" lon="103.765518"><ele>2792.5</ele><time>2011-04-24T02:53:33.0000000+00:00</time></trkpt><trkpt lat="22.314651" lon="103.765511"><ele>2792.2</ele><time>2011-04-24T02:53:38.0000000+00:00</time></trkpt><trkpt lat="22.314585" lon="103.76548"><ele>2792.3</ele><time>2011-04-24T02:53:43.0000000+00:00</time></trkpt><trkpt lat="22.314535" lon="103.765472"><ele>2792.2</ele><time>2011-04-24T02:53:48.0000000+00:00</time></trkpt><trkpt lat="22.314533" lon="103.765472"><ele>2792.2</ele><time>2011-04-24T02:53:53.0000000+00:00</time></trkpt><trkpt lat="22.314543" lon="103.765472"><ele>2792.2</ele><time>2011-04-24T02:53:58.0000000+00:00</time></trkpt><trkpt lat="22.314543" lon="103.765465"><ele>2792.2</ele><time>2011-04-24T02:54:03.0000000+00:00</time></trkpt><trkpt lat="22.314545" lon="103.765472"><ele>2792.2</ele><time>2011-04-24T02:54:08.0000000+00:00</time></trkpt><trkpt lat="22.314543" lon="103.76548"><ele>2792.2</ele><time>2011-04-24T02:54:13.0000000+00:00</time></trkpt><trkpt lat="22.314556" lon="103.765518"><ele>2792.0</ele><time>2011-04-24T02:54:18.0000000+00:00</time></trkpt><trkpt lat="22.314583" lon="103.765541"><ele>2791.9</ele><time>2011-04-24T02:54:23.0000000+00:00</time></trkpt><trkpt lat="22.31459" lon="103.765526"><ele>2792.1</ele><time>2011-04-24T02:54:28.0000000+00:00</time></trkpt><trkpt lat="22.314585" lon="103.765518"><ele>2792.2</ele><time>2011-04-24T02:54:33.0000000+00:00</time></trkpt><trkpt lat="22.31459" lon="103.765518"><ele>2792.2</ele><time>2011-04-24T02:54:38.0000000+00:00</time></trkpt><trkpt lat="22.314592" lon="103.765526"><ele>2792.2</ele><time>2011-04-24T02:54:43.0000000+00:00</time></trkpt><trkpt lat="22.314587" lon="103.765526"><ele>2792.2</ele><time>2011-04-24T02:54:48.0000000+00:00</time></trkpt><trkpt lat="22.314577" lon="103.765533"><ele>2792.2</ele><time>2011-04-24T02:54:53.0000000+00:00</time></trkpt><trkpt lat="22.314505" lon="103.765572"><ele>2792.7</ele><time>2011-04-24T02:54:58.0000000+00:00</time></trkpt><trkpt lat="22.314465" lon="103.765556"><ele>2793.1</ele><time>2011-04-24T02:55:03.0000000+00:00</time></trkpt><trkpt lat="22.314487" lon="103.765518"><ele>2792.8</ele><time>2011-04-24T02:55:08.0000000+00:00</time></trkpt><trkpt lat="22.314484" lon="103.765503"><ele>2792.8</ele><time>2011-04-24T02:55:13.0000000+00:00</time></trkpt><trkpt lat="22.314478" lon="103.765495"><ele>2792.9</ele><time>2011-04-24T02:55:18.0000000+00:00</time></trkpt><trkpt lat="22.314474" lon="103.765488"><ele>2793.0</ele><time>2011-04-24T02:55:23.0000000+00:00</time></trkpt><trkpt lat="22.314468" lon="103.765472"><ele>2793.0</ele><time>2011-04-24T02:55:28.0000000+00:00</time></trkpt><trkpt lat="22.314461" lon="103.765472"><ele>2793.1</ele><time>2011-04-24T02:55:33.0000000+00:00</time></trkpt><trkpt lat="22.314457" lon="103.76548"><ele>2793.2</ele><time>2011-04-24T02:55:38.0000000+00:00</time></trkpt><trkpt lat="22.314455" lon="103.765488"><ele>2793.3</ele><time>2011-04-24T02:55:43.0000000+00:00</time></trkpt><trkpt lat="22.314459" lon="103.765495"><ele>2793.3</ele><time>2011-04-24T02:55:48.0000000+00:00</time></trkpt><trkpt lat="22.314466" lon="103.765495"><ele>2793.4</ele><time>2011-04-24T02:55:53.0000000+00:00</time></trkpt><trkpt lat="22.31447" lon="103.765503"><ele>2793.5</ele><time>2011-04-24T02:55:58.0000000+00:00</time></trkpt><trkpt lat="22.314476" lon="103.765495"><ele>2793.5</ele><time>2011-04-24T02:56:03.0000000+00:00</time></trkpt><trkpt lat="22.314484" lon="103.76548"><ele>2793.6</ele><time>2011-04-24T02:56:08.0000000+00:00</time></trkpt><trkpt lat="22.314524" lon="103.76548"><ele>2793.9</ele><time>2011-04-24T02:56:13.0000000+00:00</time></trkpt><trkpt lat="22.314602" lon="103.765495"><ele>2794.2</ele><time>2011-04-24T02:56:18.0000000+00:00</time></trkpt><trkpt lat="22.314674" lon="103.765503"><ele>2794.5</ele><time>2011-04-24T02:56:23.0000000+00:00</time></trkpt><trkpt lat="22.314751" lon="103.765549"><ele>2794.7</ele><time>2011-04-24T02:56:28.0000000+00:00</time></trkpt><trkpt lat="22.314806" lon="103.765625"><ele>2792.7</ele><time>2011-04-24T02:56:33.0000000+00:00</time></trkpt><trkpt lat="22.314775" lon="103.765701"><ele>2793.0</ele><time>2011-04-24T02:56:38.0000000+00:00</time></trkpt><trkpt lat="22.314785" lon="103.765709"><ele>2793.5</ele><time>2011-04-24T02:56:43.0000000+00:00</time></trkpt><trkpt lat="22.314783" lon="103.765724"><ele>2793.7</ele><time>2011-04-24T02:56:48.0000000+00:00</time></trkpt><trkpt lat="22.314775" lon="103.765732"><ele>2793.9</ele><time>2011-04-24T02:56:53.0000000+00:00</time></trkpt><trkpt lat="22.314779" lon="103.765732"><ele>2793.8</ele><time>2011-04-24T02:56:58.0000000+00:00</time></trkpt><trkpt lat="22.314737" lon="103.765747"><ele>2793.6</ele><time>2011-04-24T02:57:03.0000000+00:00</time></trkpt><trkpt lat="22.314705" lon="103.765785"><ele>2793.2</ele><time>2011-04-24T02:57:08.0000000+00:00</time></trkpt><trkpt lat="22.314697" lon="103.765785"><ele>2793.2</ele><time>2011-04-24T02:57:13.0000000+00:00</time></trkpt><trkpt lat="22.314686" lon="103.765778"><ele>2793.1</ele><time>2011-04-24T02:57:18.0000000+00:00</time></trkpt><trkpt lat="22.314688" lon="103.765755"><ele>2792.8</ele><time>2011-04-24T02:57:23.0000000+00:00</time></trkpt><trkpt lat="22.314651" lon="103.765747"><ele>2792.5</ele><time>2011-04-24T02:57:28.0000000+00:00</time></trkpt><trkpt lat="22.314627" lon="103.765762"><ele>2792.2</ele><time>2011-04-24T02:57:33.0000000+00:00</time></trkpt><trkpt lat="22.314608" lon="103.765755"><ele>2791.8</ele><time>2011-04-24T02:57:38.0000000+00:00</time></trkpt><trkpt lat="22.314585" lon="103.765678"><ele>2791.8</ele><time>2011-04-24T02:57:43.0000000+00:00</time></trkpt><trkpt lat="22.314608" lon="103.765633"><ele>2791.3</ele><time>2011-04-24T02:57:48.0000000+00:00</time></trkpt><trkpt lat="22.314585" lon="103.765587"><ele>2790.7</ele><time>2011-04-24T02:57:53.0000000+00:00</time></trkpt><trkpt lat="22.31459" lon="103.765572"><ele>2790.6</ele><time>2011-04-24T02:57:58.0000000+00:00</time></trkpt><trkpt lat="22.314598" lon="103.765587"><ele>2790.6</ele><time>2011-04-24T02:58:03.0000000+00:00</time></trkpt><trkpt lat="22.314587" lon="103.765587"><ele>2790.7</ele><time>2011-04-24T02:58:08.0000000+00:00</time></trkpt><trkpt lat="22.314564" lon="103.765556"><ele>2790.8</ele><time>2011-04-24T02:58:13.0000000+00:00</time></trkpt><trkpt lat="22.314499" lon="103.765511"><ele>2790.8</ele><time>2011-04-24T02:58:18.0000000+00:00</time></trkpt><trkpt lat="22.314447" lon="103.765457"><ele>2790.8</ele><time>2011-04-24T02:58:23.0000000+00:00</time></trkpt><trkpt lat="22.314411" lon="103.765404"><ele>2790.7</ele><time>2011-04-24T02:58:28.0000000+00:00</time></trkpt><trkpt lat="22.314432" lon="103.765419"><ele>2790.6</ele><time>2011-04-24T02:58:33.0000000+00:00</time></trkpt><trkpt lat="22.314436" lon="103.765442"><ele>2790.6</ele><time>2011-04-24T02:58:38.0000000+00:00</time></trkpt><trkpt lat="22.31444" lon="103.765442"><ele>2790.7</ele><time>2011-04-24T02:58:43.0000000+00:00</time></trkpt><trkpt lat="22.314438" lon="103.76545"><ele>2790.8</ele><time>2011-04-24T02:58:48.0000000+00:00</time></trkpt><trkpt lat="22.314413" lon="103.765518"><ele>2791.2</ele><time>2011-04-24T02:58:53.0000000+00:00</time></trkpt><trkpt lat="22.314407" lon="103.765579"><ele>2791.7</ele><time>2011-04-24T02:58:58.0000000+00:00</time></trkpt><trkpt lat="22.314405" lon="103.76561"><ele>2792.3</ele><time>2011-04-24T02:59:03.0000000+00:00</time></trkpt><trkpt lat="22.314425" lon="103.765678"><ele>2792.8</ele><time>2011-04-24T02:59:08.0000000+00:00</time></trkpt><trkpt lat="22.314426" lon="103.765678"><ele>2793.2</ele><time>2011-04-24T02:59:13.0000000+00:00</time></trkpt><trkpt lat="22.314417" lon="103.765678"><ele>2793.5</ele><time>2011-04-24T02:59:18.0000000+00:00</time></trkpt><trkpt lat="22.314415" lon="103.765686"><ele>2793.6</ele><time>2011-04-24T02:59:23.0000000+00:00</time></trkpt><trkpt lat="22.314407" lon="103.765701"><ele>2793.7</ele><time>2011-04-24T02:59:28.0000000+00:00</time></trkpt><trkpt lat="22.314413" lon="103.765709"><ele>2793.7</ele><time>2011-04-24T02:59:33.0000000+00:00</time></trkpt><trkpt lat="22.314423" lon="103.765678"><ele>2793.7</ele><time>2011-04-24T02:59:38.0000000+00:00</time></trkpt><trkpt lat="22.314421" lon="103.765678"><ele>2793.7</ele><time>2011-04-24T02:59:43.0000000+00:00</time></trkpt><trkpt lat="22.314423" lon="103.765663"><ele>2793.8</ele><time>2011-04-24T02:59:48.0000000+00:00</time></trkpt><trkpt lat="22.314468" lon="103.765587"><ele>2791.5</ele><time>2011-04-24T02:59:53.0000000+00:00</time></trkpt><trkpt lat="22.314487" lon="103.765572"><ele>2790.3</ele><time>2011-04-24T02:59:58.0000000+00:00</time></trkpt><trkpt lat="22.314459" lon="103.765602"><ele>2789.9</ele><time>2011-04-24T03:00:03.0000000+00:00</time></trkpt><trkpt lat="22.314426" lon="103.765617"><ele>2790.7</ele><time>2011-04-24T03:00:08.0000000+00:00</time></trkpt><trkpt lat="22.314419" lon="103.765617"><ele>2790.8</ele><time>2011-04-24T03:00:13.0000000+00:00</time></trkpt><trkpt lat="22.314421" lon="103.76564"><ele>2790.6</ele><time>2011-04-24T03:00:18.0000000+00:00</time></trkpt><trkpt lat="22.314417" lon="103.765633"><ele>2790.6</ele><time>2011-04-24T03:00:23.0000000+00:00</time></trkpt><trkpt lat="22.314415" lon="103.765633"><ele>2790.5</ele><time>2011-04-24T03:00:28.0000000+00:00</time></trkpt><trkpt lat="22.314415" lon="103.765625"><ele>2790.5</ele><time>2011-04-24T03:00:33.0000000+00:00</time></trkpt><trkpt lat="22.314421" lon="103.765625"><ele>2790.5</ele><time>2011-04-24T03:00:38.0000000+00:00</time></trkpt><trkpt lat="22.314428" lon="103.765633"><ele>2790.5</ele><time>2011-04-24T03:00:43.0000000+00:00</time></trkpt><trkpt lat="22.314478" lon="103.76561"><ele>2790.7</ele><time>2011-04-24T03:00:48.0000000+00:00</time></trkpt><trkpt lat="22.314489" lon="103.76561"><ele>2790.9</ele><time>2011-04-24T03:00:53.0000000+00:00</time></trkpt><trkpt lat="22.314455" lon="103.765594"><ele>2791.1</ele><time>2011-04-24T03:00:58.0000000+00:00</time></trkpt><trkpt lat="22.314442" lon="103.765587"><ele>2791.2</ele><time>2011-04-24T03:01:03.0000000+00:00</time></trkpt><trkpt lat="22.314447" lon="103.765572"><ele>2791.2</ele><time>2011-04-24T03:01:08.0000000+00:00</time></trkpt><trkpt lat="22.314455" lon="103.765564"><ele>2791.2</ele><time>2011-04-24T03:01:13.0000000+00:00</time></trkpt><trkpt lat="22.314508" lon="103.765541"><ele>2791.4</ele><time>2011-04-24T03:01:18.0000000+00:00</time></trkpt><trkpt lat="22.314543" lon="103.765518"><ele>2791.5</ele><time>2011-04-24T03:01:23.0000000+00:00</time></trkpt><trkpt lat="22.314581" lon="103.76548"><ele>2791.7</ele><time>2011-04-24T03:01:28.0000000+00:00</time></trkpt><trkpt lat="22.314604" lon="103.765503"><ele>2791.8</ele><time>2011-04-24T03:01:33.0000000+00:00</time></trkpt><trkpt lat="22.314617" lon="103.765541"><ele>2792.0</ele><time>2011-04-24T03:01:38.0000000+00:00</time></trkpt><trkpt lat="22.31459" lon="103.765541"><ele>2792.4</ele><time>2011-04-24T03:01:43.0000000+00:00</time></trkpt><trkpt lat="22.314598" lon="103.765533"><ele>2792.5</ele><time>2011-04-24T03:01:48.0000000+00:00</time></trkpt><trkpt lat="22.314648" lon="103.765579"><ele>2792.3</ele><time>2011-04-24T03:01:53.0000000+00:00</time></trkpt><trkpt lat="22.314686" lon="103.765617"><ele>2791.9</ele><time>2011-04-24T03:01:58.0000000+00:00</time></trkpt><trkpt lat="22.314693" lon="103.765671"><ele>2791.7</ele><time>2011-04-24T03:02:03.0000000+00:00</time></trkpt><trkpt lat="22.314699" lon="103.765732"><ele>2791.4</ele><time>2011-04-24T03:02:08.0000000+00:00</time></trkpt><trkpt lat="22.314692" lon="103.765778"><ele>2790.7</ele><time>2011-04-24T03:02:13.0000000+00:00</time></trkpt><trkpt lat="22.314665" lon="103.765785"><ele>2789.8</ele><time>2011-04-24T03:02:18.0000000+00:00</time></trkpt><trkpt lat="22.314659" lon="103.7658"><ele>2788.9</ele><time>2011-04-24T03:02:23.0000000+00:00</time></trkpt><trkpt lat="22.314676" lon="103.765793"><ele>2788.5</ele><time>2011-04-24T03:02:28.0000000+00:00</time></trkpt><trkpt lat="22.314684" lon="103.7658"><ele>2788.5</ele><time>2011-04-24T03:02:33.0000000+00:00</time></trkpt><trkpt lat="22.314682" lon="103.765793"><ele>2788.5</ele><time>2011-04-24T03:02:38.0000000+00:00</time></trkpt><trkpt lat="22.314636" lon="103.765739"><ele>2788.8</ele><time>2011-04-24T03:02:43.0000000+00:00</time></trkpt><trkpt lat="22.31459" lon="103.765686"><ele>2789.3</ele><time>2011-04-24T03:02:48.0000000+00:00</time></trkpt><trkpt lat="22.314562" lon="103.765617"><ele>2789.5</ele><time>2011-04-24T03:02:53.0000000+00:00</time></trkpt><trkpt lat="22.314528" lon="103.765602"><ele>2789.7</ele><time>2011-04-24T03:02:58.0000000+00:00</time></trkpt><trkpt lat="22.314548" lon="103.765633"><ele>2789.7</ele><time>2011-04-24T03:03:03.0000000+00:00</time></trkpt><trkpt lat="22.314552" lon="103.76564"><ele>2789.7</ele><time>2011-04-24T03:03:08.0000000+00:00</time></trkpt><trkpt lat="22.314552" lon="103.765648"><ele>2789.7</ele><time>2011-04-24T03:03:13.0000000+00:00</time></trkpt><trkpt lat="22.314581" lon="103.765686"><ele>2789.8</ele><time>2011-04-24T03:03:18.0000000+00:00</time></trkpt><trkpt lat="22.31459" lon="103.765701"><ele>2790.0</ele><time>2011-04-24T03:03:23.0000000+00:00</time></trkpt><trkpt lat="22.314589" lon="103.765694"><ele>2790.2</ele><time>2011-04-24T03:03:28.0000000+00:00</time></trkpt><trkpt lat="22.314587" lon="103.765701"><ele>2790.2</ele><time>2011-04-24T03:03:33.0000000+00:00</time></trkpt><trkpt lat="22.31459" lon="103.765709"><ele>2790.3</ele><time>2011-04-24T03:03:38.0000000+00:00</time></trkpt><trkpt lat="22.3146" lon="103.765701"><ele>2790.3</ele><time>2011-04-24T03:03:43.0000000+00:00</time></trkpt><trkpt lat="22.314642" lon="103.765717"><ele>2790.3</ele><time>2011-04-24T03:03:48.0000000+00:00</time></trkpt><trkpt lat="22.314653" lon="103.765747"><ele>2790.4</ele><time>2011-04-24T03:03:53.0000000+00:00</time></trkpt><trkpt lat="22.314653" lon="103.765755"><ele>2790.5</ele><time>2011-04-24T03:03:58.0000000+00:00</time></trkpt><trkpt lat="22.314663" lon="103.765762"><ele>2790.5</ele><time>2011-04-24T03:04:03.0000000+00:00</time></trkpt><trkpt lat="22.314667" lon="103.765762"><ele>2790.5</ele><time>2011-04-24T03:04:08.0000000+00:00</time></trkpt><trkpt lat="22.314665" lon="103.76577"><ele>2790.5</ele><time>2011-04-24T03:04:13.0000000+00:00</time></trkpt><trkpt lat="22.314659" lon="103.765785"><ele>2790.6</ele><time>2011-04-24T03:04:18.0000000+00:00</time></trkpt><trkpt lat="22.314655" lon="103.765793"><ele>2790.7</ele><time>2011-04-24T03:04:23.0000000+00:00</time></trkpt><trkpt lat="22.314646" lon="103.765793"><ele>2790.9</ele><time>2011-04-24T03:04:28.0000000+00:00</time></trkpt><trkpt lat="22.31464" lon="103.765793"><ele>2791.0</ele><time>2011-04-24T03:04:33.0000000+00:00</time></trkpt><trkpt lat="22.314632" lon="103.765793"><ele>2791.0</ele><time>2011-04-24T03:04:38.0000000+00:00</time></trkpt><trkpt lat="22.314629" lon="103.765816"><ele>2791.8</ele><time>2011-04-24T03:04:43.0000000+00:00</time></trkpt><trkpt lat="22.314619" lon="103.765846"><ele>2793.2</ele><time>2011-04-24T03:04:48.0000000+00:00</time></trkpt><trkpt lat="22.314615" lon="103.765846"><ele>2794.4</ele><time>2011-04-24T03:04:53.0000000+00:00</time></trkpt><trkpt lat="22.31461" lon="103.765846"><ele>2794.6</ele><time>2011-04-24T03:04:58.0000000+00:00</time></trkpt><trkpt lat="22.314606" lon="103.765846"><ele>2794.8</ele><time>2011-04-24T03:05:03.0000000+00:00</time></trkpt><trkpt lat="22.31461" lon="103.765839"><ele>2795.0</ele><time>2011-04-24T03:05:08.0000000+00:00</time></trkpt><trkpt lat="22.314617" lon="103.765831"><ele>2795.2</ele><time>2011-04-24T03:05:13.0000000+00:00</time></trkpt><trkpt lat="22.314623" lon="103.765823"><ele>2795.5</ele><time>2011-04-24T03:05:18.0000000+00:00</time></trkpt><trkpt lat="22.314627" lon="103.765831"><ele>2795.8</ele><time>2011-04-24T03:05:23.0000000+00:00</time></trkpt><trkpt lat="22.314631" lon="103.765839"><ele>2796.2</ele><time>2011-04-24T03:05:28.0000000+00:00</time></trkpt><trkpt lat="22.314638" lon="103.765839"><ele>2796.5</ele><time>2011-04-24T03:05:33.0000000+00:00</time></trkpt><trkpt lat="22.314646" lon="103.765831"><ele>2796.8</ele><time>2011-04-24T03:05:38.0000000+00:00</time></trkpt><trkpt lat="22.314651" lon="103.765831"><ele>2797.2</ele><time>2011-04-24T03:05:43.0000000+00:00</time></trkpt><trkpt lat="22.314653" lon="103.765823"><ele>2797.5</ele><time>2011-04-24T03:05:48.0000000+00:00</time></trkpt><trkpt lat="22.314651" lon="103.765823"><ele>2798.0</ele><time>2011-04-24T03:05:53.0000000+00:00</time></trkpt><trkpt lat="22.314646" lon="103.765816"><ele>2798.3</ele><time>2011-04-24T03:05:58.0000000+00:00</time></trkpt><trkpt lat="22.314636" lon="103.765785"><ele>2798.8</ele><time>2011-04-24T03:06:03.0000000+00:00</time></trkpt><trkpt lat="22.314634" lon="103.765755"><ele>2799.0</ele><time>2011-04-24T03:06:08.0000000+00:00</time></trkpt><trkpt lat="22.314631" lon="103.765762"><ele>2798.3</ele><time>2011-04-24T03:06:13.0000000+00:00</time></trkpt><trkpt lat="22.314638" lon="103.765739"><ele>2798.4</ele><time>2011-04-24T03:06:18.0000000+00:00</time></trkpt><trkpt lat="22.31464" lon="103.765739"><ele>2798.7</ele><time>2011-04-24T03:06:23.0000000+00:00</time></trkpt><trkpt lat="22.31464" lon="103.765724"><ele>2799.0</ele><time>2011-04-24T03:06:28.0000000+00:00</time></trkpt><trkpt lat="22.314638" lon="103.765724"><ele>2799.3</ele><time>2011-04-24T03:06:33.0000000+00:00</time></trkpt><trkpt lat="22.314638" lon="103.765717"><ele>2799.7</ele><time>2011-04-24T03:06:38.0000000+00:00</time></trkpt><trkpt lat="22.314646" lon="103.765709"><ele>2799.9</ele><time>2011-04-24T03:06:43.0000000+00:00</time></trkpt><trkpt lat="22.314692" lon="103.765694"><ele>2798.5</ele><time>2011-04-24T03:06:48.0000000+00:00</time></trkpt><trkpt lat="22.314768" lon="103.765717"><ele>2798.0</ele><time>2011-04-24T03:06:53.0000000+00:00</time></trkpt><trkpt lat="22.314779" lon="103.765762"><ele>2797.9</ele><time>2011-04-24T03:06:58.0000000+00:00</time></trkpt><trkpt lat="22.3148" lon="103.765762"><ele>2798.7</ele><time>2011-04-24T03:07:03.0000000+00:00</time></trkpt><trkpt lat="22.314796" lon="103.765747"><ele>2799.3</ele><time>2011-04-24T03:07:08.0000000+00:00</time></trkpt><trkpt lat="22.314795" lon="103.765755"><ele>2799.6</ele><time>2011-04-24T03:07:13.0000000+00:00</time></trkpt><trkpt lat="22.314789" lon="103.765762"><ele>2799.9</ele><time>2011-04-24T03:07:18.0000000+00:00</time></trkpt><trkpt lat="22.314789" lon="103.765755"><ele>2800.3</ele><time>2011-04-24T03:07:23.0000000+00:00</time></trkpt><trkpt lat="22.314772" lon="103.765739"><ele>2800.7</ele><time>2011-04-24T03:07:28.0000000+00:00</time></trkpt><trkpt lat="22.314806" lon="103.765732"><ele>2801.0</ele><time>2011-04-24T03:07:33.0000000+00:00</time></trkpt><trkpt lat="22.314806" lon="103.765732"><ele>2801.3</ele><time>2011-04-24T03:07:38.0000000+00:00</time></trkpt><trkpt lat="22.314802" lon="103.765732"><ele>2801.7</ele><time>2011-04-24T03:07:43.0000000+00:00</time></trkpt><trkpt lat="22.314795" lon="103.765732"><ele>2802.0</ele><time>2011-04-24T03:07:48.0000000+00:00</time></trkpt><trkpt lat="22.314787" lon="103.765739"><ele>2802.3</ele><time>2011-04-24T03:07:53.0000000+00:00</time></trkpt><trkpt lat="22.314787" lon="103.765724"><ele>2802.1</ele><time>2011-04-24T03:07:58.0000000+00:00</time></trkpt><trkpt lat="22.314804" lon="103.765724"><ele>2802.2</ele><time>2011-04-24T03:08:03.0000000+00:00</time></trkpt><trkpt lat="22.314804" lon="103.765678"><ele>2800.2</ele><time>2011-04-24T03:08:08.0000000+00:00</time></trkpt><trkpt lat="22.314754" lon="103.765587"><ele>2794.2</ele><time>2011-04-24T03:08:13.0000000+00:00</time></trkpt><trkpt lat="22.314735" lon="103.765579"><ele>2794.3</ele><time>2011-04-24T03:08:18.0000000+00:00</time></trkpt><trkpt lat="22.314669" lon="103.765648"><ele>2790.5</ele><time>2011-04-24T03:08:23.0000000+00:00</time></trkpt><trkpt lat="22.314661" lon="103.765678"><ele>2789.5</ele><time>2011-04-24T03:08:28.0000000+00:00</time></trkpt><trkpt lat="22.314657" lon="103.765678"><ele>2788.7</ele><time>2011-04-24T03:08:33.0000000+00:00</time></trkpt><trkpt lat="22.314634" lon="103.765656"><ele>2787.8</ele><time>2011-04-24T03:08:38.0000000+00:00</time></trkpt><trkpt lat="22.314627" lon="103.765625"><ele>2787.7</ele><time>2011-04-24T03:08:43.0000000+00:00</time></trkpt><trkpt lat="22.314608" lon="103.765594"><ele>2788.0</ele><time>2011-04-24T03:08:48.0000000+00:00</time></trkpt><trkpt lat="22.314585" lon="103.765572"><ele>2788.1</ele><time>2011-04-24T03:08:53.0000000+00:00</time></trkpt><trkpt lat="22.314535" lon="103.765549"><ele>2788.4</ele><time>2011-04-24T03:08:58.0000000+00:00</time></trkpt><trkpt lat="22.314499" lon="103.765526"><ele>2788.7</ele><time>2011-04-24T03:09:03.0000000+00:00</time></trkpt><trkpt lat="22.314466" lon="103.765511"><ele>2789.0</ele><time>2011-04-24T03:09:08.0000000+00:00</time></trkpt><trkpt lat="22.31444" lon="103.765503"><ele>2789.2</ele><time>2011-04-24T03:09:13.0000000+00:00</time></trkpt><trkpt lat="22.314323" lon="103.765488"><ele>2777.5</ele><time>2011-04-24T03:09:18.0000000+00:00</time></trkpt><trkpt lat="22.314325" lon="103.76548"><ele>2780.3</ele><time>2011-04-24T03:09:23.0000000+00:00</time></trkpt><trkpt lat="22.314312" lon="103.765503"><ele>2778.9</ele><time>2011-04-24T03:09:28.0000000+00:00</time></trkpt><trkpt lat="22.31428" lon="103.765503"><ele>2778.6</ele><time>2011-04-24T03:09:33.0000000+00:00</time></trkpt><trkpt lat="22.31422" lon="103.765472"><ele>2776.3</ele><time>2011-04-24T03:09:38.0000000+00:00</time></trkpt><trkpt lat="22.31418" lon="103.76545"><ele>2776.4</ele><time>2011-04-24T03:09:43.0000000+00:00</time></trkpt><trkpt lat="22.314156" lon="103.765457"><ele>2777.9</ele><time>2011-04-24T03:09:48.0000000+00:00</time></trkpt><trkpt lat="22.314085" lon="103.765472"><ele>2778.4</ele><time>2011-04-24T03:09:53.0000000+00:00</time></trkpt><trkpt lat="22.314039" lon="103.765442"><ele>2775.5</ele><time>2011-04-24T03:09:58.0000000+00:00</time></trkpt><trkpt lat="22.313948" lon="103.76545"><ele>2776.3</ele><time>2011-04-24T03:10:03.0000000+00:00</time></trkpt><trkpt lat="22.313892" lon="103.765427"><ele>2776.6</ele><time>2011-04-24T03:10:08.0000000+00:00</time></trkpt><trkpt lat="22.31389" lon="103.765419"><ele>2777.2</ele><time>2011-04-24T03:10:13.0000000+00:00</time></trkpt><trkpt lat="22.313837" lon="103.765411"><ele>2775.6</ele><time>2011-04-24T03:10:18.0000000+00:00</time></trkpt><trkpt lat="22.313839" lon="103.765411"><ele>2775.9</ele><time>2011-04-24T03:10:23.0000000+00:00</time></trkpt><trkpt lat="22.313816" lon="103.765411"><ele>2776.6</ele><time>2011-04-24T03:10:28.0000000+00:00</time></trkpt><trkpt lat="22.313787" lon="103.765404"><ele>2776.8</ele><time>2011-04-24T03:10:33.0000000+00:00</time></trkpt><trkpt lat="22.313721" lon="103.765411"><ele>2777.8</ele><time>2011-04-24T03:10:38.0000000+00:00</time></trkpt><trkpt lat="22.313726" lon="103.765404"><ele>2778.2</ele><time>2011-04-24T03:10:43.0000000+00:00</time></trkpt><trkpt lat="22.313688" lon="103.765381"><ele>2777.3</ele><time>2011-04-24T03:10:48.0000000+00:00</time></trkpt><trkpt lat="22.313652" lon="103.765381"><ele>2778.7</ele><time>2011-04-24T03:10:53.0000000+00:00</time></trkpt><trkpt lat="22.313688" lon="103.765343"><ele>2780.2</ele><time>2011-04-24T03:10:58.0000000+00:00</time></trkpt><trkpt lat="22.313692" lon="103.765373"><ele>2780.7</ele><time>2011-04-24T03:11:03.0000000+00:00</time></trkpt><trkpt lat="22.313671" lon="103.765388"><ele>2781.1</ele><time>2011-04-24T03:11:08.0000000+00:00</time></trkpt><trkpt lat="22.313656" lon="103.765427"><ele>2782.5</ele><time>2011-04-24T03:11:13.0000000+00:00</time></trkpt><trkpt lat="22.313692" lon="103.765465"><ele>2789.6</ele><time>2011-04-24T03:11:18.0000000+00:00</time></trkpt><trkpt lat="22.313705" lon="103.765503"><ele>2791.5</ele><time>2011-04-24T03:11:23.0000000+00:00</time></trkpt><trkpt lat="22.31373" lon="103.765518"><ele>2794.7</ele><time>2011-04-24T03:11:28.0000000+00:00</time></trkpt><trkpt lat="22.31373" lon="103.765518"><ele>2794.7</ele><time>2011-04-24T03:11:33.0000000+00:00</time></trkpt><trkpt lat="22.313726" lon="103.765541"><ele>2794.8</ele><time>2011-04-24T03:11:38.0000000+00:00</time></trkpt><trkpt lat="22.313704" lon="103.765594"><ele>2796.2</ele><time>2011-04-24T03:11:43.0000000+00:00</time></trkpt><trkpt lat="22.313686" lon="103.765602"><ele>2796.7</ele><time>2011-04-24T03:11:48.0000000+00:00</time></trkpt><trkpt lat="22.313646" lon="103.765579"><ele>2798.1</ele><time>2011-04-24T03:11:53.0000000+00:00</time></trkpt><trkpt lat="22.313627" lon="103.765579"><ele>2798.3</ele><time>2011-04-24T03:11:58.0000000+00:00</time></trkpt><trkpt lat="22.313622" lon="103.765579"><ele>2798.5</ele><time>2011-04-24T03:12:03.0000000+00:00</time></trkpt><trkpt lat="22.313635" lon="103.765587"><ele>2798.8</ele><time>2011-04-24T03:12:08.0000000+00:00</time></trkpt><trkpt lat="22.31365" lon="103.765579"><ele>2799.0</ele><time>2011-04-24T03:12:13.0000000+00:00</time></trkpt><trkpt lat="22.313633" lon="103.765602"><ele>2799.8</ele><time>2011-04-24T03:12:18.0000000+00:00</time></trkpt><trkpt lat="22.313631" lon="103.765572"><ele>2800.9</ele><time>2011-04-24T03:12:23.0000000+00:00</time></trkpt><trkpt lat="22.313581" lon="103.765541"><ele>2802.1</ele><time>2011-04-24T03:12:28.0000000+00:00</time></trkpt><trkpt lat="22.313559" lon="103.765518"><ele>2802.7</ele><time>2011-04-24T03:12:33.0000000+00:00</time></trkpt><trkpt lat="22.313536" lon="103.765503"><ele>2802.8</ele><time>2011-04-24T03:12:38.0000000+00:00</time></trkpt><trkpt lat="22.313528" lon="103.765495"><ele>2803.1</ele><time>2011-04-24T03:12:43.0000000+00:00</time></trkpt><trkpt lat="22.313501" lon="103.76548"><ele>2802.8</ele><time>2011-04-24T03:12:48.0000000+00:00</time></trkpt><trkpt lat="22.313463" lon="103.765457"><ele>2803.0</ele><time>2011-04-24T03:12:53.0000000+00:00</time></trkpt><trkpt lat="22.313448" lon="103.765457"><ele>2803.1</ele><time>2011-04-24T03:12:58.0000000+00:00</time></trkpt><trkpt lat="22.313425" lon="103.765427"><ele>2804.6</ele><time>2011-04-24T03:13:03.0000000+00:00</time></trkpt><trkpt lat="22.313425" lon="103.765427"><ele>2806.0</ele><time>2011-04-24T03:13:08.0000000+00:00</time></trkpt><trkpt lat="22.313438" lon="103.765442"><ele>2807.7</ele><time>2011-04-24T03:13:13.0000000+00:00</time></trkpt><trkpt lat="22.313448" lon="103.765457"><ele>2808.3</ele><time>2011-04-24T03:13:18.0000000+00:00</time></trkpt><trkpt lat="22.313421" lon="103.76545"><ele>2808.7</ele><time>2011-04-24T03:13:23.0000000+00:00</time></trkpt><trkpt lat="22.313389" lon="103.765427"><ele>2809.0</ele><time>2011-04-24T03:13:28.0000000+00:00</time></trkpt><trkpt lat="22.313349" lon="103.765427"><ele>2809.3</ele><time>2011-04-24T03:13:33.0000000+00:00</time></trkpt><trkpt lat="22.313356" lon="103.765404"><ele>2810.4</ele><time>2011-04-24T03:13:38.0000000+00:00</time></trkpt><trkpt lat="22.313358" lon="103.765381"><ele>2811.3</ele><time>2011-04-24T03:13:43.0000000+00:00</time></trkpt><trkpt lat="22.313374" lon="103.765381"><ele>2812.6</ele><time>2011-04-24T03:13:48.0000000+00:00</time></trkpt><trkpt lat="22.31337" lon="103.765381"><ele>2813.3</ele><time>2011-04-24T03:13:53.0000000+00:00</time></trkpt><trkpt lat="22.313356" lon="103.765381"><ele>2813.6</ele><time>2011-04-24T03:13:58.0000000+00:00</time></trkpt><trkpt lat="22.313343" lon="103.765388"><ele>2813.7</ele><time>2011-04-24T03:14:03.0000000+00:00</time></trkpt><trkpt lat="22.313343" lon="103.765388"><ele>2813.7</ele><time>2011-04-24T03:14:08.0000000+00:00</time></trkpt><trkpt lat="22.313343" lon="103.765388"><ele>2813.7</ele><time>2011-04-24T03:14:13.0000000+00:00</time></trkpt><trkpt lat="22.313345" lon="103.765388"><ele>2813.7</ele><time>2011-04-24T03:14:18.0000000+00:00</time></trkpt><trkpt lat="22.313345" lon="103.765396"><ele>2813.7</ele><time>2011-04-24T03:14:23.0000000+00:00</time></trkpt><trkpt lat="22.313339" lon="103.765388"><ele>2813.7</ele><time>2011-04-24T03:14:28.0000000+00:00</time></trkpt><trkpt lat="22.313326" lon="103.765373"><ele>2813.8</ele><time>2011-04-24T03:14:33.0000000+00:00</time></trkpt><trkpt lat="22.313301" lon="103.76535"><ele>2814.0</ele><time>2011-04-24T03:14:38.0000000+00:00</time></trkpt><trkpt lat="22.313261" lon="103.765327"><ele>2814.1</ele><time>2011-04-24T03:14:43.0000000+00:00</time></trkpt><trkpt lat="22.313227" lon="103.765289"><ele>2814.3</ele><time>2011-04-24T03:14:48.0000000+00:00</time></trkpt><trkpt lat="22.313185" lon="103.765266"><ele>2816.2</ele><time>2011-04-24T03:14:53.0000000+00:00</time></trkpt><trkpt lat="22.313162" lon="103.765305"><ele>2816.9</ele><time>2011-04-24T03:14:58.0000000+00:00</time></trkpt><trkpt lat="22.313112" lon="103.765297"><ele>2817.2</ele><time>2011-04-24T03:15:03.0000000+00:00</time></trkpt><trkpt lat="22.313082" lon="103.765305"><ele>2818.2</ele><time>2011-04-24T03:15:08.0000000+00:00</time></trkpt><trkpt lat="22.313053" lon="103.765327"><ele>2818.4</ele><time>2011-04-24T03:15:13.0000000+00:00</time></trkpt><trkpt lat="22.313019" lon="103.765327"><ele>2818.5</ele><time>2011-04-24T03:15:18.0000000+00:00</time></trkpt><trkpt lat="22.313" lon="103.76535"><ele>2818.5</ele><time>2011-04-24T03:15:23.0000000+00:00</time></trkpt><trkpt lat="22.313007" lon="103.765366"><ele>2818.5</ele><time>2011-04-24T03:15:28.0000000+00:00</time></trkpt><trkpt lat="22.313019" lon="103.765373"><ele>2818.7</ele><time>2011-04-24T03:15:33.0000000+00:00</time></trkpt><trkpt lat="22.313009" lon="103.765366"><ele>2819.2</ele><time>2011-04-24T03:15:38.0000000+00:00</time></trkpt><trkpt lat="22.313007" lon="103.765366"><ele>2820.5</ele><time>2011-04-24T03:15:43.0000000+00:00</time></trkpt><trkpt lat="22.312984" lon="103.765404"><ele>2822.1</ele><time>2011-04-24T03:15:48.0000000+00:00</time></trkpt><trkpt lat="22.312984" lon="103.765465"><ele>2825.5</ele><time>2011-04-24T03:15:53.0000000+00:00</time></trkpt><trkpt lat="22.31299" lon="103.765511"><ele>2829.0</ele><time>2011-04-24T03:15:58.0000000+00:00</time></trkpt><trkpt lat="22.313005" lon="103.765526"><ele>2831.0</ele><time>2011-04-24T03:16:03.0000000+00:00</time></trkpt><trkpt lat="22.312988" lon="103.765541"><ele>2831.6</ele><time>2011-04-24T03:16:08.0000000+00:00</time></trkpt><trkpt lat="22.312996" lon="103.765556"><ele>2832.7</ele><time>2011-04-24T03:16:13.0000000+00:00</time></trkpt><trkpt lat="22.313004" lon="103.765564"><ele>2833.5</ele><time>2011-04-24T03:16:18.0000000+00:00</time></trkpt><trkpt lat="22.313" lon="103.765587"><ele>2834.8</ele><time>2011-04-24T03:16:23.0000000+00:00</time></trkpt><trkpt lat="22.312979" lon="103.765625"><ele>2835.6</ele><time>2011-04-24T03:16:28.0000000+00:00</time></trkpt><trkpt lat="22.312962" lon="103.765648"><ele>2836.2</ele><time>2011-04-24T03:16:33.0000000+00:00</time></trkpt><trkpt lat="22.312958" lon="103.765663"><ele>2837.5</ele><time>2011-04-24T03:16:38.0000000+00:00</time></trkpt><trkpt lat="22.312944" lon="103.765694"><ele>2838.2</ele><time>2011-04-24T03:16:43.0000000+00:00</time></trkpt><trkpt lat="22.312937" lon="103.765694"><ele>2838.3</ele><time>2011-04-24T03:16:48.0000000+00:00</time></trkpt><trkpt lat="22.312927" lon="103.765709"><ele>2838.2</ele><time>2011-04-24T03:16:53.0000000+00:00</time></trkpt><trkpt lat="22.312901" lon="103.765739"><ele>2838.7</ele><time>2011-04-24T03:16:58.0000000+00:00</time></trkpt><trkpt lat="22.312874" lon="103.765762"><ele>2838.9</ele><time>2011-04-24T03:17:03.0000000+00:00</time></trkpt><trkpt lat="22.312851" lon="103.765778"><ele>2839.3</ele><time>2011-04-24T03:17:08.0000000+00:00</time></trkpt><trkpt lat="22.312822" lon="103.765793"><ele>2839.7</ele><time>2011-04-24T03:17:13.0000000+00:00</time></trkpt><trkpt lat="22.31283" lon="103.765793"><ele>2840.4</ele><time>2011-04-24T03:17:18.0000000+00:00</time></trkpt><trkpt lat="22.312811" lon="103.765793"><ele>2840.4</ele><time>2011-04-24T03:17:23.0000000+00:00</time></trkpt><trkpt lat="22.312801" lon="103.7658"><ele>2840.5</ele><time>2011-04-24T03:17:28.0000000+00:00</time></trkpt><trkpt lat="22.312798" lon="103.765808"><ele>2840.6</ele><time>2011-04-24T03:17:33.0000000+00:00</time></trkpt><trkpt lat="22.312792" lon="103.765816"><ele>2840.7</ele><time>2011-04-24T03:17:38.0000000+00:00</time></trkpt><trkpt lat="22.312792" lon="103.765823"><ele>2840.8</ele><time>2011-04-24T03:17:43.0000000+00:00</time></trkpt><trkpt lat="22.31279" lon="103.765823"><ele>2840.9</ele><time>2011-04-24T03:17:48.0000000+00:00</time></trkpt><trkpt lat="22.31279" lon="103.765854"><ele>2841.3</ele><time>2011-04-24T03:17:53.0000000+00:00</time></trkpt><trkpt lat="22.312796" lon="103.765892"><ele>2841.7</ele><time>2011-04-24T03:17:58.0000000+00:00</time></trkpt><trkpt lat="22.312782" lon="103.765938"><ele>2842.2</ele><time>2011-04-24T03:18:03.0000000+00:00</time></trkpt><trkpt lat="22.312767" lon="103.765984"><ele>2842.8</ele><time>2011-04-24T03:18:08.0000000+00:00</time></trkpt><trkpt lat="22.312773" lon="103.766037"><ele>2846.8</ele><time>2011-04-24T03:18:13.0000000+00:00</time></trkpt><trkpt lat="22.312786" lon="103.766068"><ele>2848.7</ele><time>2011-04-24T03:18:18.0000000+00:00</time></trkpt><trkpt lat="22.312796" lon="103.766083"><ele>2849.7</ele><time>2011-04-24T03:18:23.0000000+00:00</time></trkpt><trkpt lat="22.312819" lon="103.766136"><ele>2850.7</ele><time>2011-04-24T03:18:28.0000000+00:00</time></trkpt><trkpt lat="22.312813" lon="103.76622"><ele>2850.7</ele><time>2011-04-24T03:18:33.0000000+00:00</time></trkpt><trkpt lat="22.312798" lon="103.766289"><ele>2851.2</ele><time>2011-04-24T03:18:38.0000000+00:00</time></trkpt><trkpt lat="22.312773" lon="103.766312"><ele>2850.4</ele><time>2011-04-24T03:18:43.0000000+00:00</time></trkpt><trkpt lat="22.312761" lon="103.76638"><ele>2850.0</ele><time>2011-04-24T03:18:48.0000000+00:00</time></trkpt><trkpt lat="22.312757" lon="103.766388"><ele>2849.8</ele><time>2011-04-24T03:18:53.0000000+00:00</time></trkpt><trkpt lat="22.312754" lon="103.766388"><ele>2849.7</ele><time>2011-04-24T03:18:58.0000000+00:00</time></trkpt><trkpt lat="22.312752" lon="103.766396"><ele>2849.7</ele><time>2011-04-24T03:19:03.0000000+00:00</time></trkpt><trkpt lat="22.312744" lon="103.766434"><ele>2850.2</ele><time>2011-04-24T03:19:08.0000000+00:00</time></trkpt><trkpt lat="22.312731" lon="103.766479"><ele>2850.3</ele><time>2011-04-24T03:19:13.0000000+00:00</time></trkpt><trkpt lat="22.312719" lon="103.766541"><ele>2851.0</ele><time>2011-04-24T03:19:18.0000000+00:00</time></trkpt><trkpt lat="22.312702" lon="103.766579"><ele>2851.0</ele><time>2011-04-24T03:19:23.0000000+00:00</time></trkpt><trkpt lat="22.312681" lon="103.766624"><ele>2850.8</ele><time>2011-04-24T03:19:28.0000000+00:00</time></trkpt><trkpt lat="22.312664" lon="103.76667"><ele>2850.1</ele><time>2011-04-24T03:19:33.0000000+00:00</time></trkpt><trkpt lat="22.312641" lon="103.766701"><ele>2849.5</ele><time>2011-04-24T03:19:38.0000000+00:00</time></trkpt><trkpt lat="22.31262" lon="103.766716"><ele>2848.7</ele><time>2011-04-24T03:19:43.0000000+00:00</time></trkpt><trkpt lat="22.312613" lon="103.766708"><ele>2849.5</ele><time>2011-04-24T03:19:48.0000000+00:00</time></trkpt><trkpt lat="22.312607" lon="103.766724"><ele>2850.3</ele><time>2011-04-24T03:19:53.0000000+00:00</time></trkpt><trkpt lat="22.312582" lon="103.766731"><ele>2850.1</ele><time>2011-04-24T03:19:58.0000000+00:00</time></trkpt><trkpt lat="22.312555" lon="103.766716"><ele>2850.5</ele><time>2011-04-24T03:20:03.0000000+00:00</time></trkpt><trkpt lat="22.312532" lon="103.766708"><ele>2850.8</ele><time>2011-04-24T03:20:08.0000000+00:00</time></trkpt><trkpt lat="22.312515" lon="103.766716"><ele>2850.7</ele><time>2011-04-24T03:20:13.0000000+00:00</time></trkpt><trkpt lat="22.312471" lon="103.766731"><ele>2850.8</ele><time>2011-04-24T03:20:18.0000000+00:00</time></trkpt><trkpt lat="22.312441" lon="103.766731"><ele>2850.6</ele><time>2011-04-24T03:20:23.0000000+00:00</time></trkpt><trkpt lat="22.312407" lon="103.766739"><ele>2850.3</ele><time>2011-04-24T03:20:28.0000000+00:00</time></trkpt><trkpt lat="22.312365" lon="103.766747"><ele>2850.2</ele><time>2011-04-24T03:20:33.0000000+00:00</time></trkpt><trkpt lat="22.312328" lon="103.766747"><ele>2850.0</ele><time>2011-04-24T03:20:38.0000000+00:00</time></trkpt><trkpt lat="22.312326" lon="103.766754"><ele>2849.8</ele><time>2011-04-24T03:20:43.0000000+00:00</time></trkpt><trkpt lat="22.312269" lon="103.766716"><ele>2849.8</ele><time>2011-04-24T03:20:48.0000000+00:00</time></trkpt><trkpt lat="22.312231" lon="103.766716"><ele>2850.0</ele><time>2011-04-24T03:20:53.0000000+00:00</time></trkpt><trkpt lat="22.312197" lon="103.766708"><ele>2850.0</ele><time>2011-04-24T03:20:58.0000000+00:00</time></trkpt><trkpt lat="22.312149" lon="103.766693"><ele>2849.8</ele><time>2011-04-24T03:21:03.0000000+00:00</time></trkpt><trkpt lat="22.312122" lon="103.766685"><ele>2849.8</ele><time>2011-04-24T03:21:08.0000000+00:00</time></trkpt><trkpt lat="22.312145" lon="103.766685"><ele>2849.6</ele><time>2011-04-24T03:21:13.0000000+00:00</time></trkpt><trkpt lat="22.312124" lon="103.766701"><ele>2849.3</ele><time>2011-04-24T03:21:18.0000000+00:00</time></trkpt><trkpt lat="22.312092" lon="103.766701"><ele>2849.3</ele><time>2011-04-24T03:21:23.0000000+00:00</time></trkpt><trkpt lat="22.312061" lon="103.766701"><ele>2849.1</ele><time>2011-04-24T03:21:28.0000000+00:00</time></trkpt><trkpt lat="22.312" lon="103.766678"><ele>2849.0</ele><time>2011-04-24T03:21:33.0000000+00:00</time></trkpt><trkpt lat="22.312" lon="103.766701"><ele>2848.8</ele><time>2011-04-24T03:21:38.0000000+00:00</time></trkpt><trkpt lat="22.311995" lon="103.766724"><ele>2849.0</ele><time>2011-04-24T03:21:43.0000000+00:00</time></trkpt><trkpt lat="22.311993" lon="103.766823"><ele>2850.7</ele><time>2011-04-24T03:21:48.0000000+00:00</time></trkpt><trkpt lat="22.311979" lon="103.766922"><ele>2852.8</ele><time>2011-04-24T03:21:53.0000000+00:00</time></trkpt><trkpt lat="22.312012" lon="103.76696"><ele>2855.2</ele><time>2011-04-24T03:21:58.0000000+00:00</time></trkpt><trkpt lat="22.312016" lon="103.766991"><ele>2857.4</ele><time>2011-04-24T03:22:03.0000000+00:00</time></trkpt><trkpt lat="22.312008" lon="103.767059"><ele>2859.5</ele><time>2011-04-24T03:22:08.0000000+00:00</time></trkpt><trkpt lat="22.312016" lon="103.767097"><ele>2860.5</ele><time>2011-04-24T03:22:13.0000000+00:00</time></trkpt><trkpt lat="22.31201" lon="103.767151"><ele>2860.9</ele><time>2011-04-24T03:22:18.0000000+00:00</time></trkpt><trkpt lat="22.311981" lon="103.767181"><ele>2861.5</ele><time>2011-04-24T03:22:23.0000000+00:00</time></trkpt><trkpt lat="22.311983" lon="103.767212"><ele>2861.6</ele><time>2011-04-24T03:22:28.0000000+00:00</time></trkpt><trkpt lat="22.311995" lon="103.76725"><ele>2862.9</ele><time>2011-04-24T03:22:33.0000000+00:00</time></trkpt><trkpt lat="22.311989" lon="103.767281"><ele>2864.0</ele><time>2011-04-24T03:22:38.0000000+00:00</time></trkpt><trkpt lat="22.311974" lon="103.767334"><ele>2863.7</ele><time>2011-04-24T03:22:43.0000000+00:00</time></trkpt><trkpt lat="22.31197" lon="103.767357"><ele>2863.3</ele><time>2011-04-24T03:22:48.0000000+00:00</time></trkpt><trkpt lat="22.31197" lon="103.767395"><ele>2862.9</ele><time>2011-04-24T03:22:53.0000000+00:00</time></trkpt><trkpt lat="22.311962" lon="103.76741"><ele>2862.9</ele><time>2011-04-24T03:22:58.0000000+00:00</time></trkpt><trkpt lat="22.311964" lon="103.767433"><ele>2862.8</ele><time>2011-04-24T03:23:03.0000000+00:00</time></trkpt><trkpt lat="22.311985" lon="103.767471"><ele>2863.7</ele><time>2011-04-24T03:23:08.0000000+00:00</time></trkpt><trkpt lat="22.311993" lon="103.767502"><ele>2865.4</ele><time>2011-04-24T03:23:13.0000000+00:00</time></trkpt><trkpt lat="22.311972" lon="103.767532"><ele>2867.4</ele><time>2011-04-24T03:23:18.0000000+00:00</time></trkpt><trkpt lat="22.31196" lon="103.76757"><ele>2868.2</ele><time>2011-04-24T03:23:23.0000000+00:00</time></trkpt><trkpt lat="22.311928" lon="103.767601"><ele>2867.8</ele><time>2011-04-24T03:23:28.0000000+00:00</time></trkpt><trkpt lat="22.311878" lon="103.767616"><ele>2867.2</ele><time>2011-04-24T03:23:33.0000000+00:00</time></trkpt><trkpt lat="22.311846" lon="103.767624"><ele>2866.5</ele><time>2011-04-24T03:23:38.0000000+00:00</time></trkpt><trkpt lat="22.311815" lon="103.767647"><ele>2866.3</ele><time>2011-04-24T03:23:43.0000000+00:00</time></trkpt><trkpt lat="22.311787" lon="103.767677"><ele>2866.4</ele><time>2011-04-24T03:23:48.0000000+00:00</time></trkpt><trkpt lat="22.311764" lon="103.7677"><ele>2866.5</ele><time>2011-04-24T03:23:53.0000000+00:00</time></trkpt><trkpt lat="22.311714" lon="103.7677"><ele>2866.5</ele><time>2011-04-24T03:23:58.0000000+00:00</time></trkpt><trkpt lat="22.311693" lon="103.767715"><ele>2866.2</ele><time>2011-04-24T03:24:03.0000000+00:00</time></trkpt><trkpt lat="22.311649" lon="103.767731"><ele>2866.3</ele><time>2011-04-24T03:24:08.0000000+00:00</time></trkpt><trkpt lat="22.311646" lon="103.767769"><ele>2866.2</ele><time>2011-04-24T03:24:13.0000000+00:00</time></trkpt><trkpt lat="22.311628" lon="103.767838"><ele>2866.9</ele><time>2011-04-24T03:24:18.0000000+00:00</time></trkpt><trkpt lat="22.31163" lon="103.767891"><ele>2868.7</ele><time>2011-04-24T03:24:23.0000000+00:00</time></trkpt><trkpt lat="22.311623" lon="103.767952"><ele>2870.2</ele><time>2011-04-24T03:24:28.0000000+00:00</time></trkpt><trkpt lat="22.311626" lon="103.767998"><ele>2871.8</ele><time>2011-04-24T03:24:33.0000000+00:00</time></trkpt><trkpt lat="22.311625" lon="103.768044"><ele>2872.7</ele><time>2011-04-24T03:24:38.0000000+00:00</time></trkpt><trkpt lat="22.311604" lon="103.768082"><ele>2873.8</ele><time>2011-04-24T03:24:43.0000000+00:00</time></trkpt><trkpt lat="22.311569" lon="103.768097"><ele>2874.7</ele><time>2011-04-24T03:24:48.0000000+00:00</time></trkpt><trkpt lat="22.311535" lon="103.76812"><ele>2876.2</ele><time>2011-04-24T03:24:53.0000000+00:00</time></trkpt><trkpt lat="22.311504" lon="103.768127"><ele>2876.7</ele><time>2011-04-24T03:24:58.0000000+00:00</time></trkpt><trkpt lat="22.311476" lon="103.768158"><ele>2877.8</ele><time>2011-04-24T03:25:03.0000000+00:00</time></trkpt><trkpt lat="22.311443" lon="103.768181"><ele>2878.8</ele><time>2011-04-24T03:25:08.0000000+00:00</time></trkpt><trkpt lat="22.311411" lon="103.768188"><ele>2879.6</ele><time>2011-04-24T03:25:13.0000000+00:00</time></trkpt><trkpt lat="22.311377" lon="103.768188"><ele>2880.6</ele><time>2011-04-24T03:25:18.0000000+00:00</time></trkpt><trkpt lat="22.311377" lon="103.768196"><ele>2881.0</ele><time>2011-04-24T03:25:23.0000000+00:00</time></trkpt><trkpt lat="22.311331" lon="103.768188"><ele>2881.6</ele><time>2011-04-24T03:25:28.0000000+00:00</time></trkpt><trkpt lat="22.311285" lon="103.768188"><ele>2882.1</ele><time>2011-04-24T03:25:33.0000000+00:00</time></trkpt><trkpt lat="22.311241" lon="103.768219"><ele>2882.8</ele><time>2011-04-24T03:25:38.0000000+00:00</time></trkpt><trkpt lat="22.311228" lon="103.768242"><ele>2882.8</ele><time>2011-04-24T03:25:43.0000000+00:00</time></trkpt><trkpt lat="22.311188" lon="103.768265"><ele>2883.3</ele><time>2011-04-24T03:25:48.0000000+00:00</time></trkpt><trkpt lat="22.311163" lon="103.768272"><ele>2883.7</ele><time>2011-04-24T03:25:53.0000000+00:00</time></trkpt><trkpt lat="22.311134" lon="103.768288"><ele>2884.5</ele><time>2011-04-24T03:25:58.0000000+00:00</time></trkpt><trkpt lat="22.311117" lon="103.768349"><ele>2885.5</ele><time>2011-04-24T03:26:03.0000000+00:00</time></trkpt><trkpt lat="22.311111" lon="103.768417"><ele>2886.4</ele><time>2011-04-24T03:26:08.0000000+00:00</time></trkpt><trkpt lat="22.3111" lon="103.768463"><ele>2886.3</ele><time>2011-04-24T03:26:13.0000000+00:00</time></trkpt><trkpt lat="22.311062" lon="103.768501"><ele>2886.2</ele><time>2011-04-24T03:26:18.0000000+00:00</time></trkpt><trkpt lat="22.311018" lon="103.768547"><ele>2885.0</ele><time>2011-04-24T03:26:23.0000000+00:00</time></trkpt><trkpt lat="22.311014" lon="103.76857"><ele>2884.2</ele><time>2011-04-24T03:26:28.0000000+00:00</time></trkpt><trkpt lat="22.311005" lon="103.768593"><ele>2883.3</ele><time>2011-04-24T03:26:33.0000000+00:00</time></trkpt><trkpt lat="22.310993" lon="103.768623"><ele>2882.2</ele><time>2011-04-24T03:26:38.0000000+00:00</time></trkpt><trkpt lat="22.310961" lon="103.768669"><ele>2880.6</ele><time>2011-04-24T03:26:43.0000000+00:00</time></trkpt><trkpt lat="22.310917" lon="103.76873"><ele>2879.7</ele><time>2011-04-24T03:26:48.0000000+00:00</time></trkpt><trkpt lat="22.310883" lon="103.768776"><ele>2879.2</ele><time>2011-04-24T03:26:53.0000000+00:00</time></trkpt><trkpt lat="22.31086" lon="103.768806"><ele>2878.3</ele><time>2011-04-24T03:26:58.0000000+00:00</time></trkpt><trkpt lat="22.31082" lon="103.768837"><ele>2877.5</ele><time>2011-04-24T03:27:03.0000000+00:00</time></trkpt><trkpt lat="22.310793" lon="103.76886"><ele>2876.3</ele><time>2011-04-24T03:27:08.0000000+00:00</time></trkpt><trkpt lat="22.310736" lon="103.76886"><ele>2875.9</ele><time>2011-04-24T03:27:13.0000000+00:00</time></trkpt><trkpt lat="22.310694" lon="103.768921"><ele>2875.2</ele><time>2011-04-24T03:27:18.0000000+00:00</time></trkpt><trkpt lat="22.310658" lon="103.768967"><ele>2875.0</ele><time>2011-04-24T03:27:23.0000000+00:00</time></trkpt><trkpt lat="22.31065" lon="103.769012"><ele>2875.0</ele><time>2011-04-24T03:27:28.0000000+00:00</time></trkpt><trkpt lat="22.31061" lon="103.769035"><ele>2875.4</ele><time>2011-04-24T03:27:33.0000000+00:00</time></trkpt><trkpt lat="22.310551" lon="103.769035"><ele>2875.3</ele><time>2011-04-24T03:27:38.0000000+00:00</time></trkpt><trkpt lat="22.310503" lon="103.76902"><ele>2875.2</ele><time>2011-04-24T03:27:43.0000000+00:00</time></trkpt><trkpt lat="22.310486" lon="103.769005"><ele>2874.8</ele><time>2011-04-24T03:27:48.0000000+00:00</time></trkpt><trkpt lat="22.310467" lon="103.76899"><ele>2874.3</ele><time>2011-04-24T03:27:53.0000000+00:00</time></trkpt><trkpt lat="22.310411" lon="103.768982"><ele>2874.1</ele><time>2011-04-24T03:27:58.0000000+00:00</time></trkpt><trkpt lat="22.310369" lon="103.768982"><ele>2873.9</ele><time>2011-04-24T03:28:03.0000000+00:00</time></trkpt><trkpt lat="22.310331" lon="103.768997"><ele>2873.5</ele><time>2011-04-24T03:28:08.0000000+00:00</time></trkpt><trkpt lat="22.310328" lon="103.76899"><ele>2873.5</ele><time>2011-04-24T03:28:13.0000000+00:00</time></trkpt><trkpt lat="22.310316" lon="103.76899"><ele>2873.2</ele><time>2011-04-24T03:28:18.0000000+00:00</time></trkpt><trkpt lat="22.31028" lon="103.76902"><ele>2873.6</ele><time>2011-04-24T03:28:23.0000000+00:00</time></trkpt><trkpt lat="22.310228" lon="103.769043"><ele>2874.5</ele><time>2011-04-24T03:28:28.0000000+00:00</time></trkpt><trkpt lat="22.310181" lon="103.769081"><ele>2875.8</ele><time>2011-04-24T03:28:33.0000000+00:00</time></trkpt><trkpt lat="22.310163" lon="103.769066"><ele>2875.5</ele><time>2011-04-24T03:28:38.0000000+00:00</time></trkpt><trkpt lat="22.310144" lon="103.769058"><ele>2875.2</ele><time>2011-04-24T03:28:43.0000000+00:00</time></trkpt><trkpt lat="22.310057" lon="103.769066"><ele>2876.0</ele><time>2011-04-24T03:28:48.0000000+00:00</time></trkpt><trkpt lat="22.310072" lon="103.769058"><ele>2876.5</ele><time>2011-04-24T03:28:53.0000000+00:00</time></trkpt><trkpt lat="22.310032" lon="103.769104"><ele>2876.9</ele><time>2011-04-24T03:28:58.0000000+00:00</time></trkpt><trkpt lat="22.310019" lon="103.769135"><ele>2878.4</ele><time>2011-04-24T03:29:03.0000000+00:00</time></trkpt><trkpt lat="22.309956" lon="103.769157"><ele>2879.3</ele><time>2011-04-24T03:29:08.0000000+00:00</time></trkpt><trkpt lat="22.309914" lon="103.769188"><ele>2880.2</ele><time>2011-04-24T03:29:13.0000000+00:00</time></trkpt><trkpt lat="22.309908" lon="103.769226"><ele>2880.8</ele><time>2011-04-24T03:29:18.0000000+00:00</time></trkpt><trkpt lat="22.309919" lon="103.769234"><ele>2881.3</ele><time>2011-04-24T03:29:23.0000000+00:00</time></trkpt><trkpt lat="22.309919" lon="103.769234"><ele>2881.3</ele><time>2011-04-24T03:29:28.0000000+00:00</time></trkpt><trkpt lat="22.309919" lon="103.769234"><ele>2881.2</ele><time>2011-04-24T03:29:33.0000000+00:00</time></trkpt><trkpt lat="22.309919" lon="103.769234"><ele>2881.2</ele><time>2011-04-24T03:29:38.0000000+00:00</time></trkpt><trkpt lat="22.309919" lon="103.769234"><ele>2881.2</ele><time>2011-04-24T03:29:43.0000000+00:00</time></trkpt><trkpt lat="22.309919" lon="103.769241"><ele>2881.2</ele><time>2011-04-24T03:29:48.0000000+00:00</time></trkpt><trkpt lat="22.309917" lon="103.769241"><ele>2881.1</ele><time>2011-04-24T03:29:53.0000000+00:00</time></trkpt><trkpt lat="22.309912" lon="103.769234"><ele>2881.1</ele><time>2011-04-24T03:29:58.0000000+00:00</time></trkpt><trkpt lat="22.309914" lon="103.769234"><ele>2881.1</ele><time>2011-04-24T03:30:03.0000000+00:00</time></trkpt><trkpt lat="22.309916" lon="103.769234"><ele>2881.1</ele><time>2011-04-24T03:30:08.0000000+00:00</time></trkpt><trkpt lat="22.309914" lon="103.769234"><ele>2881.1</ele><time>2011-04-24T03:30:13.0000000+00:00</time></trkpt><trkpt lat="22.309908" lon="103.769241"><ele>2881.1</ele><time>2011-04-24T03:30:18.0000000+00:00</time></trkpt><trkpt lat="22.309902" lon="103.769241"><ele>2881.2</ele><time>2011-04-24T03:30:23.0000000+00:00</time></trkpt><trkpt lat="22.309898" lon="103.769249"><ele>2881.2</ele><time>2011-04-24T03:30:28.0000000+00:00</time></trkpt><trkpt lat="22.309895" lon="103.769241"><ele>2881.1</ele><time>2011-04-24T03:30:33.0000000+00:00</time></trkpt><trkpt lat="22.309895" lon="103.769241"><ele>2881.1</ele><time>2011-04-24T03:30:38.0000000+00:00</time></trkpt><trkpt lat="22.309895" lon="103.769241"><ele>2881.1</ele><time>2011-04-24T03:30:43.0000000+00:00</time></trkpt><trkpt lat="22.309893" lon="103.769241"><ele>2881.0</ele><time>2011-04-24T03:30:48.0000000+00:00</time></trkpt><trkpt lat="22.309889" lon="103.769249"><ele>2881.0</ele><time>2011-04-24T03:30:53.0000000+00:00</time></trkpt><trkpt lat="22.309893" lon="103.769241"><ele>2881.1</ele><time>2011-04-24T03:30:58.0000000+00:00</time></trkpt><trkpt lat="22.3099" lon="103.769264"><ele>2881.5</ele><time>2011-04-24T03:31:03.0000000+00:00</time></trkpt><trkpt lat="22.309893" lon="103.769272"><ele>2882.0</ele><time>2011-04-24T03:31:08.0000000+00:00</time></trkpt><trkpt lat="22.309887" lon="103.769279"><ele>2882.0</ele><time>2011-04-24T03:31:13.0000000+00:00</time></trkpt><trkpt lat="22.309877" lon="103.769287"><ele>2882.0</ele><time>2011-04-24T03:31:18.0000000+00:00</time></trkpt><trkpt lat="22.309855" lon="103.769272"><ele>2882.3</ele><time>2011-04-24T03:31:23.0000000+00:00</time></trkpt><trkpt lat="22.309843" lon="103.769264"><ele>2882.7</ele><time>2011-04-24T03:31:28.0000000+00:00</time></trkpt><trkpt lat="22.309834" lon="103.769257"><ele>2882.8</ele><time>2011-04-24T03:31:33.0000000+00:00</time></trkpt><trkpt lat="22.309824" lon="103.769249"><ele>2882.8</ele><time>2011-04-24T03:31:38.0000000+00:00</time></trkpt><trkpt lat="22.30982" lon="103.769249"><ele>2883.0</ele><time>2011-04-24T03:31:43.0000000+00:00</time></trkpt><trkpt lat="22.309813" lon="103.769241"><ele>2883.0</ele><time>2011-04-24T03:31:48.0000000+00:00</time></trkpt><trkpt lat="22.309807" lon="103.769234"><ele>2883.1</ele><time>2011-04-24T03:31:53.0000000+00:00</time></trkpt><trkpt lat="22.309805" lon="103.769226"><ele>2883.2</ele><time>2011-04-24T03:31:58.0000000+00:00</time></trkpt><trkpt lat="22.309809" lon="103.769226"><ele>2883.3</ele><time>2011-04-24T03:32:03.0000000+00:00</time></trkpt><trkpt lat="22.309814" lon="103.769226"><ele>2883.3</ele><time>2011-04-24T03:32:08.0000000+00:00</time></trkpt><trkpt lat="22.30982" lon="103.769226"><ele>2883.4</ele><time>2011-04-24T03:32:13.0000000+00:00</time></trkpt><trkpt lat="22.30982" lon="103.769226"><ele>2883.5</ele><time>2011-04-24T03:32:18.0000000+00:00</time></trkpt><trkpt lat="22.309847" lon="103.769241"><ele>2884.0</ele><time>2011-04-24T03:32:23.0000000+00:00</time></trkpt><trkpt lat="22.309862" lon="103.769249"><ele>2884.5</ele><time>2011-04-24T03:32:28.0000000+00:00</time></trkpt><trkpt lat="22.309868" lon="103.769241"><ele>2884.7</ele><time>2011-04-24T03:32:33.0000000+00:00</time></trkpt><trkpt lat="22.309872" lon="103.769241"><ele>2884.8</ele><time>2011-04-24T03:32:38.0000000+00:00</time></trkpt><trkpt lat="22.309877" lon="103.769234"><ele>2884.8</ele><time>2011-04-24T03:32:43.0000000+00:00</time></trkpt><trkpt lat="22.309885" lon="103.769226"><ele>2885.0</ele><time>2011-04-24T03:32:48.0000000+00:00</time></trkpt><trkpt lat="22.309889" lon="103.769211"><ele>2885.2</ele><time>2011-04-24T03:32:53.0000000+00:00</time></trkpt><trkpt lat="22.309881" lon="103.769203"><ele>2885.5</ele><time>2011-04-24T03:32:58.0000000+00:00</time></trkpt><trkpt lat="22.309887" lon="103.769203"><ele>2885.6</ele><time>2011-04-24T03:33:03.0000000+00:00</time></trkpt><trkpt lat="22.309889" lon="103.769203"><ele>2885.7</ele><time>2011-04-24T03:33:08.0000000+00:00</time></trkpt><trkpt lat="22.309887" lon="103.769211"><ele>2885.8</ele><time>2011-04-24T03:33:13.0000000+00:00</time></trkpt><trkpt lat="22.309881" lon="103.769211"><ele>2886.0</ele><time>2011-04-24T03:33:18.0000000+00:00</time></trkpt><trkpt lat="22.309879" lon="103.769203"><ele>2886.1</ele><time>2011-04-24T03:33:23.0000000+00:00</time></trkpt><trkpt lat="22.309877" lon="103.769203"><ele>2886.2</ele><time>2011-04-24T03:33:28.0000000+00:00</time></trkpt><trkpt lat="22.30987" lon="103.769196"><ele>2886.4</ele><time>2011-04-24T03:33:33.0000000+00:00</time></trkpt><trkpt lat="22.30986" lon="103.769188"><ele>2886.6</ele><time>2011-04-24T03:33:38.0000000+00:00</time></trkpt><trkpt lat="22.309858" lon="103.769196"><ele>2886.7</ele><time>2011-04-24T03:33:43.0000000+00:00</time></trkpt><trkpt lat="22.309849" lon="103.769196"><ele>2886.8</ele><time>2011-04-24T03:33:48.0000000+00:00</time></trkpt><trkpt lat="22.309847" lon="103.769203"><ele>2887.0</ele><time>2011-04-24T03:33:53.0000000+00:00</time></trkpt><trkpt lat="22.309847" lon="103.769211"><ele>2887.2</ele><time>2011-04-24T03:33:58.0000000+00:00</time></trkpt><trkpt lat="22.309853" lon="103.769218"><ele>2887.4</ele><time>2011-04-24T03:34:03.0000000+00:00</time></trkpt><trkpt lat="22.30986" lon="103.769226"><ele>2887.6</ele><time>2011-04-24T03:34:08.0000000+00:00</time></trkpt><trkpt lat="22.309872" lon="103.769226"><ele>2887.8</ele><time>2011-04-24T03:34:13.0000000+00:00</time></trkpt><trkpt lat="22.309916" lon="103.769249"><ele>2887.8</ele><time>2011-04-24T03:34:18.0000000+00:00</time></trkpt><trkpt lat="22.309927" lon="103.769257"><ele>2888.0</ele><time>2011-04-24T03:34:23.0000000+00:00</time></trkpt><trkpt lat="22.309952" lon="103.769264"><ele>2888.1</ele><time>2011-04-24T03:34:28.0000000+00:00</time></trkpt><trkpt lat="22.309959" lon="103.769257"><ele>2888.7</ele><time>2011-04-24T03:34:33.0000000+00:00</time></trkpt><trkpt lat="22.309965" lon="103.769264"><ele>2889.2</ele><time>2011-04-24T03:34:38.0000000+00:00</time></trkpt><trkpt lat="22.309992" lon="103.769264"><ele>2889.6</ele><time>2011-04-24T03:34:43.0000000+00:00</time></trkpt><trkpt lat="22.309992" lon="103.769264"><ele>2890.0</ele><time>2011-04-24T03:34:48.0000000+00:00</time></trkpt><trkpt lat="22.310019" lon="103.769257"><ele>2890.3</ele><time>2011-04-24T03:34:53.0000000+00:00</time></trkpt><trkpt lat="22.310026" lon="103.769249"><ele>2890.6</ele><time>2011-04-24T03:34:58.0000000+00:00</time></trkpt><trkpt lat="22.31003" lon="103.769249"><ele>2890.8</ele><time>2011-04-24T03:35:03.0000000+00:00</time></trkpt><trkpt lat="22.310053" lon="103.769241"><ele>2891.5</ele><time>2011-04-24T03:35:08.0000000+00:00</time></trkpt><trkpt lat="22.310047" lon="103.769234"><ele>2892.0</ele><time>2011-04-24T03:35:13.0000000+00:00</time></trkpt><trkpt lat="22.310059" lon="103.769241"><ele>2893.0</ele><time>2011-04-24T03:35:18.0000000+00:00</time></trkpt><trkpt lat="22.310049" lon="103.769241"><ele>2893.5</ele><time>2011-04-24T03:35:23.0000000+00:00</time></trkpt><trkpt lat="22.31003" lon="103.769218"><ele>2894.8</ele><time>2011-04-24T03:35:28.0000000+00:00</time></trkpt><trkpt lat="22.309994" lon="103.769203"><ele>2897.2</ele><time>2011-04-24T03:35:33.0000000+00:00</time></trkpt><trkpt lat="22.309975" lon="103.769196"><ele>2898.2</ele><time>2011-04-24T03:35:38.0000000+00:00</time></trkpt><trkpt lat="22.309963" lon="103.769173"><ele>2897.5</ele><time>2011-04-24T03:35:43.0000000+00:00</time></trkpt><trkpt lat="22.309967" lon="103.76918"><ele>2897.9</ele><time>2011-04-24T03:35:48.0000000+00:00</time></trkpt><trkpt lat="22.309971" lon="103.76918"><ele>2898.3</ele><time>2011-04-24T03:35:53.0000000+00:00</time></trkpt><trkpt lat="22.309975" lon="103.76918"><ele>2898.8</ele><time>2011-04-24T03:35:58.0000000+00:00</time></trkpt><trkpt lat="22.309978" lon="103.76918"><ele>2899.3</ele><time>2011-04-24T03:36:03.0000000+00:00</time></trkpt><trkpt lat="22.309982" lon="103.769188"><ele>2899.8</ele><time>2011-04-24T03:36:08.0000000+00:00</time></trkpt><trkpt lat="22.309982" lon="103.769188"><ele>2900.2</ele><time>2011-04-24T03:36:13.0000000+00:00</time></trkpt><trkpt lat="22.309984" lon="103.769188"><ele>2900.5</ele><time>2011-04-24T03:36:18.0000000+00:00</time></trkpt><trkpt lat="22.309986" lon="103.769188"><ele>2900.8</ele><time>2011-04-24T03:36:23.0000000+00:00</time></trkpt><trkpt lat="22.30999" lon="103.769188"><ele>2901.3</ele><time>2011-04-24T03:36:28.0000000+00:00</time></trkpt><trkpt lat="22.30999" lon="103.769188"><ele>2901.6</ele><time>2011-04-24T03:36:33.0000000+00:00</time></trkpt><trkpt lat="22.309992" lon="103.769188"><ele>2902.0</ele><time>2011-04-24T03:36:38.0000000+00:00</time></trkpt><trkpt lat="22.309994" lon="103.769188"><ele>2902.3</ele><time>2011-04-24T03:36:43.0000000+00:00</time></trkpt><trkpt lat="22.309996" lon="103.769188"><ele>2902.6</ele><time>2011-04-24T03:36:48.0000000+00:00</time></trkpt><trkpt lat="22.309996" lon="103.769188"><ele>2902.9</ele><time>2011-04-24T03:36:53.0000000+00:00</time></trkpt><trkpt lat="22.309994" lon="103.76918"><ele>2903.0</ele><time>2011-04-24T03:36:58.0000000+00:00</time></trkpt><trkpt lat="22.309994" lon="103.76918"><ele>2903.2</ele><time>2011-04-24T03:37:03.0000000+00:00</time></trkpt><trkpt lat="22.309994" lon="103.769165"><ele>2903.2</ele><time>2011-04-24T03:37:08.0000000+00:00</time></trkpt><trkpt lat="22.309996" lon="103.769157"><ele>2903.1</ele><time>2011-04-24T03:37:13.0000000+00:00</time></trkpt><trkpt lat="22.310001" lon="103.76915"><ele>2903.0</ele><time>2011-04-24T03:37:18.0000000+00:00</time></trkpt><trkpt lat="22.310007" lon="103.769142"><ele>2902.8</ele><time>2011-04-24T03:37:23.0000000+00:00</time></trkpt><trkpt lat="22.310009" lon="103.769135"><ele>2902.7</ele><time>2011-04-24T03:37:28.0000000+00:00</time></trkpt><trkpt lat="22.310005" lon="103.769135"><ele>2902.5</ele><time>2011-04-24T03:37:33.0000000+00:00</time></trkpt><trkpt lat="22.309998" lon="103.769127"><ele>2902.3</ele><time>2011-04-24T03:37:38.0000000+00:00</time></trkpt><trkpt lat="22.309992" lon="103.769127"><ele>2902.2</ele><time>2011-04-24T03:37:43.0000000+00:00</time></trkpt><trkpt lat="22.309988" lon="103.769119"><ele>2901.9</ele><time>2011-04-24T03:37:48.0000000+00:00</time></trkpt><trkpt lat="22.309988" lon="103.769119"><ele>2901.8</ele><time>2011-04-24T03:37:53.0000000+00:00</time></trkpt><trkpt lat="22.309992" lon="103.769127"><ele>2901.7</ele><time>2011-04-24T03:37:58.0000000+00:00</time></trkpt><trkpt lat="22.309998" lon="103.769127"><ele>2901.6</ele><time>2011-04-24T03:38:03.0000000+00:00</time></trkpt><trkpt lat="22.310007" lon="103.769135"><ele>2901.5</ele><time>2011-04-24T03:38:08.0000000+00:00</time></trkpt><trkpt lat="22.310017" lon="103.769135"><ele>2901.5</ele><time>2011-04-24T03:38:13.0000000+00:00</time></trkpt><trkpt lat="22.310032" lon="103.769157"><ele>2901.2</ele><time>2011-04-24T03:38:18.0000000+00:00</time></trkpt><trkpt lat="22.310034" lon="103.76918"><ele>2900.9</ele><time>2011-04-24T03:38:23.0000000+00:00</time></trkpt><trkpt lat="22.310015" lon="103.76918"><ele>2899.2</ele><time>2011-04-24T03:38:28.0000000+00:00</time></trkpt><trkpt lat="22.31002" lon="103.769196"><ele>2898.9</ele><time>2011-04-24T03:38:33.0000000+00:00</time></trkpt><trkpt lat="22.310024" lon="103.769196"><ele>2898.8</ele><time>2011-04-24T03:38:38.0000000+00:00</time></trkpt><trkpt lat="22.31003" lon="103.769203"><ele>2898.7</ele><time>2011-04-24T03:38:43.0000000+00:00</time></trkpt><trkpt lat="22.310034" lon="103.769203"><ele>2898.5</ele><time>2011-04-24T03:38:48.0000000+00:00</time></trkpt><trkpt lat="22.31004" lon="103.769211"><ele>2898.4</ele><time>2011-04-24T03:38:53.0000000+00:00</time></trkpt><trkpt lat="22.310043" lon="103.769211"><ele>2898.2</ele><time>2011-04-24T03:38:58.0000000+00:00</time></trkpt><trkpt lat="22.310047" lon="103.769218"><ele>2898.2</ele><time>2011-04-24T03:39:03.0000000+00:00</time></trkpt><trkpt lat="22.310047" lon="103.769218"><ele>2898.0</ele><time>2011-04-24T03:39:08.0000000+00:00</time></trkpt><trkpt lat="22.310047" lon="103.769218"><ele>2898.0</ele><time>2011-04-24T03:39:13.0000000+00:00</time></trkpt><trkpt lat="22.310047" lon="103.769218"><ele>2897.9</ele><time>2011-04-24T03:39:18.0000000+00:00</time></trkpt><trkpt lat="22.310049" lon="103.769218"><ele>2897.8</ele><time>2011-04-24T03:39:23.0000000+00:00</time></trkpt><trkpt lat="22.310051" lon="103.769226"><ele>2897.7</ele><time>2011-04-24T03:39:28.0000000+00:00</time></trkpt><trkpt lat="22.310043" lon="103.769226"><ele>2897.6</ele><time>2011-04-24T03:39:33.0000000+00:00</time></trkpt><trkpt lat="22.310036" lon="103.769234"><ele>2897.5</ele><time>2011-04-24T03:39:38.0000000+00:00</time></trkpt><trkpt lat="22.310028" lon="103.769234"><ele>2898.4</ele><time>2011-04-24T03:39:43.0000000+00:00</time></trkpt><trkpt lat="22.309986" lon="103.769302"><ele>2899.0</ele><time>2011-04-24T03:39:48.0000000+00:00</time></trkpt><trkpt lat="22.310009" lon="103.769325"><ele>2900.7</ele><time>2011-04-24T03:39:53.0000000+00:00</time></trkpt><trkpt lat="22.310005" lon="103.769333"><ele>2901.1</ele><time>2011-04-24T03:39:58.0000000+00:00</time></trkpt><trkpt lat="22.310001" lon="103.769341"><ele>2901.3</ele><time>2011-04-24T03:40:03.0000000+00:00</time></trkpt><trkpt lat="22.309999" lon="103.769341"><ele>2901.5</ele><time>2011-04-24T03:40:08.0000000+00:00</time></trkpt><trkpt lat="22.310009" lon="103.769363"><ele>2901.9</ele><time>2011-04-24T03:40:13.0000000+00:00</time></trkpt><trkpt lat="22.310005" lon="103.769424"><ele>2903.9</ele><time>2011-04-24T03:40:18.0000000+00:00</time></trkpt><trkpt lat="22.310026" lon="103.769493"><ele>2905.1</ele><time>2011-04-24T03:40:23.0000000+00:00</time></trkpt><trkpt lat="22.310034" lon="103.769547"><ele>2905.6</ele><time>2011-04-24T03:40:28.0000000+00:00</time></trkpt><trkpt lat="22.310047" lon="103.769585"><ele>2909.1</ele><time>2011-04-24T03:40:33.0000000+00:00</time></trkpt><trkpt lat="22.310041" lon="103.769638"><ele>2910.8</ele><time>2011-04-24T03:40:38.0000000+00:00</time></trkpt><trkpt lat="22.310053" lon="103.769699"><ele>2913.0</ele><time>2011-04-24T03:40:43.0000000+00:00</time></trkpt><trkpt lat="22.310057" lon="103.769753"><ele>2914.8</ele><time>2011-04-24T03:40:48.0000000+00:00</time></trkpt><trkpt lat="22.310072" lon="103.769791"><ele>2916.6</ele><time>2011-04-24T03:40:53.0000000+00:00</time></trkpt><trkpt lat="22.310089" lon="103.769821"><ele>2918.7</ele><time>2011-04-24T03:40:58.0000000+00:00</time></trkpt><trkpt lat="22.310087" lon="103.769859"><ele>2920.0</ele><time>2011-04-24T03:41:03.0000000+00:00</time></trkpt><trkpt lat="22.310089" lon="103.769882"><ele>2920.8</ele><time>2011-04-24T03:41:08.0000000+00:00</time></trkpt><trkpt lat="22.31011" lon="103.76992"><ele>2922.5</ele><time>2011-04-24T03:41:13.0000000+00:00</time></trkpt><trkpt lat="22.310108" lon="103.769966"><ele>2924.4</ele><time>2011-04-24T03:41:18.0000000+00:00</time></trkpt><trkpt lat="22.31012" lon="103.770035"><ele>2925.0</ele><time>2011-04-24T03:41:23.0000000+00:00</time></trkpt><trkpt lat="22.310141" lon="103.770081"><ele>2925.3</ele><time>2011-04-24T03:41:28.0000000+00:00</time></trkpt><trkpt lat="22.310141" lon="103.770134"><ele>2926.3</ele><time>2011-04-24T03:41:33.0000000+00:00</time></trkpt><trkpt lat="22.310137" lon="103.770195"><ele>2926.7</ele><time>2011-04-24T03:41:38.0000000+00:00</time></trkpt><trkpt lat="22.310141" lon="103.770241"><ele>2927.0</ele><time>2011-04-24T03:41:43.0000000+00:00</time></trkpt><trkpt lat="22.310116" lon="103.770271"><ele>2928.8</ele><time>2011-04-24T03:41:48.0000000+00:00</time></trkpt><trkpt lat="22.310116" lon="103.770294"><ele>2930.1</ele><time>2011-04-24T03:41:53.0000000+00:00</time></trkpt><trkpt lat="22.310122" lon="103.770302"><ele>2931.5</ele><time>2011-04-24T03:41:58.0000000+00:00</time></trkpt><trkpt lat="22.310127" lon="103.770317"><ele>2932.2</ele><time>2011-04-24T03:42:03.0000000+00:00</time></trkpt><trkpt lat="22.310123" lon="103.770325"><ele>2932.6</ele><time>2011-04-24T03:42:08.0000000+00:00</time></trkpt><trkpt lat="22.310135" lon="103.77034"><ele>2932.8</ele><time>2011-04-24T03:42:13.0000000+00:00</time></trkpt><trkpt lat="22.310144" lon="103.770363"><ele>2933.4</ele><time>2011-04-24T03:42:18.0000000+00:00</time></trkpt><trkpt lat="22.310116" lon="103.770393"><ele>2933.7</ele><time>2011-04-24T03:42:23.0000000+00:00</time></trkpt><trkpt lat="22.310101" lon="103.770432"><ele>2933.8</ele><time>2011-04-24T03:42:28.0000000+00:00</time></trkpt><trkpt lat="22.310087" lon="103.770462"><ele>2933.0</ele><time>2011-04-24T03:42:33.0000000+00:00</time></trkpt><trkpt lat="22.31012" lon="103.770508"><ele>2932.2</ele><time>2011-04-24T03:42:38.0000000+00:00</time></trkpt><trkpt lat="22.310125" lon="103.770554"><ele>2932.4</ele><time>2011-04-24T03:42:43.0000000+00:00</time></trkpt><trkpt lat="22.310123" lon="103.770576"><ele>2932.3</ele><time>2011-04-24T03:42:48.0000000+00:00</time></trkpt><trkpt lat="22.310106" lon="103.770607"><ele>2933.4</ele><time>2011-04-24T03:42:53.0000000+00:00</time></trkpt><trkpt lat="22.310104" lon="103.770653"><ele>2933.5</ele><time>2011-04-24T03:42:58.0000000+00:00</time></trkpt><trkpt lat="22.310106" lon="103.770706"><ele>2933.3</ele><time>2011-04-24T03:43:03.0000000+00:00</time></trkpt><trkpt lat="22.31011" lon="103.770752"><ele>2934.3</ele><time>2011-04-24T03:43:08.0000000+00:00</time></trkpt><trkpt lat="22.31011" lon="103.77079"><ele>2934.5</ele><time>2011-04-24T03:43:13.0000000+00:00</time></trkpt><trkpt lat="22.310104" lon="103.770836"><ele>2934.0</ele><time>2011-04-24T03:43:18.0000000+00:00</time></trkpt><trkpt lat="22.310102" lon="103.770866"><ele>2933.8</ele><time>2011-04-24T03:43:23.0000000+00:00</time></trkpt><trkpt lat="22.310102" lon="103.770912"><ele>2934.2</ele><time>2011-04-24T03:43:28.0000000+00:00</time></trkpt><trkpt lat="22.310101" lon="103.77095"><ele>2933.9</ele><time>2011-04-24T03:43:33.0000000+00:00</time></trkpt><trkpt lat="22.310101" lon="103.770981"><ele>2933.8</ele><time>2011-04-24T03:43:38.0000000+00:00</time></trkpt><trkpt lat="22.310099" lon="103.771011"><ele>2934.9</ele><time>2011-04-24T03:43:43.0000000+00:00</time></trkpt><trkpt lat="22.310097" lon="103.771019"><ele>2934.8</ele><time>2011-04-24T03:43:48.0000000+00:00</time></trkpt><trkpt lat="22.310089" lon="103.771049"><ele>2934.7</ele><time>2011-04-24T03:43:53.0000000+00:00</time></trkpt><trkpt lat="22.310089" lon="103.771072"><ele>2935.8</ele><time>2011-04-24T03:43:58.0000000+00:00</time></trkpt><trkpt lat="22.31008" lon="103.771095"><ele>2935.5</ele><time>2011-04-24T03:44:03.0000000+00:00</time></trkpt><trkpt lat="22.310093" lon="103.771126"><ele>2935.0</ele><time>2011-04-24T03:44:08.0000000+00:00</time></trkpt><trkpt lat="22.310099" lon="103.771179"><ele>2934.7</ele><time>2011-04-24T03:44:13.0000000+00:00</time></trkpt><trkpt lat="22.310097" lon="103.771233"><ele>2933.5</ele><time>2011-04-24T03:44:18.0000000+00:00</time></trkpt><trkpt lat="22.310093" lon="103.771286"><ele>2933.5</ele><time>2011-04-24T03:44:23.0000000+00:00</time></trkpt><trkpt lat="22.310106" lon="103.771332"><ele>2932.7</ele><time>2011-04-24T03:44:28.0000000+00:00</time></trkpt><trkpt lat="22.310106" lon="103.771393"><ele>2933.3</ele><time>2011-04-24T03:44:33.0000000+00:00</time></trkpt><trkpt lat="22.310129" lon="103.771408"><ele>2939.8</ele><time>2011-04-24T03:44:38.0000000+00:00</time></trkpt><trkpt lat="22.310137" lon="103.771416"><ele>2942.2</ele><time>2011-04-24T03:44:43.0000000+00:00</time></trkpt><trkpt lat="22.310143" lon="103.771416"><ele>2943.6</ele><time>2011-04-24T03:44:48.0000000+00:00</time></trkpt><trkpt lat="22.310144" lon="103.771423"><ele>2943.5</ele><time>2011-04-24T03:44:53.0000000+00:00</time></trkpt><trkpt lat="22.310144" lon="103.771423"><ele>2943.6</ele><time>2011-04-24T03:44:58.0000000+00:00</time></trkpt><trkpt lat="22.310137" lon="103.771423"><ele>2945.1</ele><time>2011-04-24T03:45:03.0000000+00:00</time></trkpt><trkpt lat="22.310139" lon="103.771416"><ele>2945.5</ele><time>2011-04-24T03:45:08.0000000+00:00</time></trkpt><trkpt lat="22.310139" lon="103.771416"><ele>2945.5</ele><time>2011-04-24T03:45:13.0000000+00:00</time></trkpt><trkpt lat="22.310141" lon="103.771423"><ele>2945.3</ele><time>2011-04-24T03:45:18.0000000+00:00</time></trkpt><trkpt lat="22.310133" lon="103.771461"><ele>2945.4</ele><time>2011-04-24T03:45:23.0000000+00:00</time></trkpt><trkpt lat="22.310146" lon="103.771507"><ele>2945.5</ele><time>2011-04-24T03:45:28.0000000+00:00</time></trkpt><trkpt lat="22.310179" lon="103.771568"><ele>2945.8</ele><time>2011-04-24T03:45:33.0000000+00:00</time></trkpt><trkpt lat="22.310179" lon="103.771622"><ele>2946.3</ele><time>2011-04-24T03:45:38.0000000+00:00</time></trkpt><trkpt lat="22.310183" lon="103.771675"><ele>2946.3</ele><time>2011-04-24T03:45:43.0000000+00:00</time></trkpt><trkpt lat="22.310213" lon="103.771729"><ele>2946.3</ele><time>2011-04-24T03:45:48.0000000+00:00</time></trkpt><trkpt lat="22.310207" lon="103.771759"><ele>2946.3</ele><time>2011-04-24T03:45:53.0000000+00:00</time></trkpt><trkpt lat="22.310198" lon="103.771767"><ele>2946.2</ele><time>2011-04-24T03:45:58.0000000+00:00</time></trkpt><trkpt lat="22.310196" lon="103.771767"><ele>2946.1</ele><time>2011-04-24T03:46:03.0000000+00:00</time></trkpt><trkpt lat="22.310198" lon="103.771767"><ele>2946.1</ele><time>2011-04-24T03:46:08.0000000+00:00</time></trkpt><trkpt lat="22.310188" lon="103.771759"><ele>2946.2</ele><time>2011-04-24T03:46:13.0000000+00:00</time></trkpt><trkpt lat="22.310179" lon="103.771759"><ele>2946.3</ele><time>2011-04-24T03:46:18.0000000+00:00</time></trkpt><trkpt lat="22.310173" lon="103.771759"><ele>2946.4</ele><time>2011-04-24T03:46:23.0000000+00:00</time></trkpt><trkpt lat="22.310171" lon="103.771759"><ele>2946.5</ele><time>2011-04-24T03:46:28.0000000+00:00</time></trkpt><trkpt lat="22.310163" lon="103.771767"><ele>2946.0</ele><time>2011-04-24T03:46:33.0000000+00:00</time></trkpt><trkpt lat="22.310169" lon="103.771767"><ele>2945.2</ele><time>2011-04-24T03:46:38.0000000+00:00</time></trkpt><trkpt lat="22.310175" lon="103.771782"><ele>2945.0</ele><time>2011-04-24T03:46:43.0000000+00:00</time></trkpt><trkpt lat="22.310175" lon="103.771774"><ele>2944.5</ele><time>2011-04-24T03:46:48.0000000+00:00</time></trkpt><trkpt lat="22.310175" lon="103.771774"><ele>2944.1</ele><time>2011-04-24T03:46:53.0000000+00:00</time></trkpt><trkpt lat="22.310175" lon="103.771774"><ele>2944.0</ele><time>2011-04-24T03:46:58.0000000+00:00</time></trkpt><trkpt lat="22.310175" lon="103.771774"><ele>2944.0</ele><time>2011-04-24T03:47:03.0000000+00:00</time></trkpt><trkpt lat="22.310175" lon="103.771774"><ele>2944.0</ele><time>2011-04-24T03:47:08.0000000+00:00</time></trkpt><trkpt lat="22.310175" lon="103.771774"><ele>2944.0</ele><time>2011-04-24T03:47:13.0000000+00:00</time></trkpt><trkpt lat="22.310175" lon="103.771774"><ele>2944.0</ele><time>2011-04-24T03:47:18.0000000+00:00</time></trkpt><trkpt lat="22.310171" lon="103.771774"><ele>2944.2</ele><time>2011-04-24T03:47:23.0000000+00:00</time></trkpt><trkpt lat="22.310173" lon="103.771782"><ele>2944.2</ele><time>2011-04-24T03:47:28.0000000+00:00</time></trkpt><trkpt lat="22.310173" lon="103.771782"><ele>2944.2</ele><time>2011-04-24T03:47:33.0000000+00:00</time></trkpt><trkpt lat="22.310173" lon="103.771774"><ele>2944.2</ele><time>2011-04-24T03:47:38.0000000+00:00</time></trkpt><trkpt lat="22.310173" lon="103.771774"><ele>2944.2</ele><time>2011-04-24T03:47:43.0000000+00:00</time></trkpt><trkpt lat="22.310171" lon="103.771774"><ele>2944.2</ele><time>2011-04-24T03:47:48.0000000+00:00</time></trkpt><trkpt lat="22.310169" lon="103.771774"><ele>2944.1</ele><time>2011-04-24T03:47:53.0000000+00:00</time></trkpt><trkpt lat="22.310169" lon="103.771774"><ele>2944.0</ele><time>2011-04-24T03:47:58.0000000+00:00</time></trkpt><trkpt lat="22.310163" lon="103.771767"><ele>2944.1</ele><time>2011-04-24T03:48:03.0000000+00:00</time></trkpt><trkpt lat="22.310162" lon="103.771767"><ele>2944.1</ele><time>2011-04-24T03:48:08.0000000+00:00</time></trkpt><trkpt lat="22.310158" lon="103.771782"><ele>2943.3</ele><time>2011-04-24T03:48:13.0000000+00:00</time></trkpt><trkpt lat="22.310152" lon="103.771797"><ele>2942.5</ele><time>2011-04-24T03:48:18.0000000+00:00</time></trkpt><trkpt lat="22.310139" lon="103.771812"><ele>2941.2</ele><time>2011-04-24T03:48:23.0000000+00:00</time></trkpt><trkpt lat="22.310139" lon="103.771812"><ele>2940.7</ele><time>2011-04-24T03:48:28.0000000+00:00</time></trkpt><trkpt lat="22.310137" lon="103.771812"><ele>2940.5</ele><time>2011-04-24T03:48:33.0000000+00:00</time></trkpt><trkpt lat="22.310131" lon="103.77182"><ele>2940.2</ele><time>2011-04-24T03:48:38.0000000+00:00</time></trkpt><trkpt lat="22.310127" lon="103.77182"><ele>2939.8</ele><time>2011-04-24T03:48:43.0000000+00:00</time></trkpt><trkpt lat="22.310125" lon="103.771828"><ele>2939.5</ele><time>2011-04-24T03:48:48.0000000+00:00</time></trkpt><trkpt lat="22.31012" lon="103.771828"><ele>2939.2</ele><time>2011-04-24T03:48:53.0000000+00:00</time></trkpt><trkpt lat="22.310116" lon="103.771828"><ele>2939.0</ele><time>2011-04-24T03:48:58.0000000+00:00</time></trkpt><trkpt lat="22.310112" lon="103.771828"><ele>2938.8</ele><time>2011-04-24T03:49:03.0000000+00:00</time></trkpt><trkpt lat="22.310102" lon="103.771828"><ele>2938.6</ele><time>2011-04-24T03:49:08.0000000+00:00</time></trkpt><trkpt lat="22.310097" lon="103.771828"><ele>2938.3</ele><time>2011-04-24T03:49:13.0000000+00:00</time></trkpt><trkpt lat="22.310091" lon="103.771828"><ele>2938.0</ele><time>2011-04-24T03:49:18.0000000+00:00</time></trkpt><trkpt lat="22.310091" lon="103.771828"><ele>2937.7</ele><time>2011-04-24T03:49:23.0000000+00:00</time></trkpt><trkpt lat="22.310091" lon="103.771835"><ele>2937.3</ele><time>2011-04-24T03:49:28.0000000+00:00</time></trkpt><trkpt lat="22.310091" lon="103.771835"><ele>2937.2</ele><time>2011-04-24T03:49:33.0000000+00:00</time></trkpt><trkpt lat="22.310091" lon="103.771835"><ele>2937.2</ele><time>2011-04-24T03:49:38.0000000+00:00</time></trkpt><trkpt lat="22.310091" lon="103.771835"><ele>2937.2</ele><time>2011-04-24T03:49:43.0000000+00:00</time></trkpt><trkpt lat="22.310091" lon="103.771835"><ele>2937.1</ele><time>2011-04-24T03:49:48.0000000+00:00</time></trkpt><trkpt lat="22.310091" lon="103.771835"><ele>2937.1</ele><time>2011-04-24T03:49:53.0000000+00:00</time></trkpt><trkpt lat="22.310091" lon="103.771835"><ele>2937.1</ele><time>2011-04-24T03:49:58.0000000+00:00</time></trkpt><trkpt lat="22.310089" lon="103.771835"><ele>2937.1</ele><time>2011-04-24T03:50:03.0000000+00:00</time></trkpt><trkpt lat="22.310089" lon="103.771835"><ele>2937.0</ele><time>2011-04-24T03:50:08.0000000+00:00</time></trkpt><trkpt lat="22.310089" lon="103.771835"><ele>2937.0</ele><time>2011-04-24T03:50:13.0000000+00:00</time></trkpt><trkpt lat="22.310089" lon="103.771835"><ele>2937.0</ele><time>2011-04-24T03:50:18.0000000+00:00</time></trkpt><trkpt lat="22.310087" lon="103.771835"><ele>2937.0</ele><time>2011-04-24T03:50:23.0000000+00:00</time></trkpt><trkpt lat="22.310087" lon="103.771835"><ele>2937.0</ele><time>2011-04-24T03:50:28.0000000+00:00</time></trkpt><trkpt lat="22.310085" lon="103.771843"><ele>2936.9</ele><time>2011-04-24T03:50:33.0000000+00:00</time></trkpt><trkpt lat="22.310085" lon="103.771843"><ele>2936.9</ele><time>2011-04-24T03:50:38.0000000+00:00</time></trkpt><trkpt lat="22.310085" lon="103.771843"><ele>2936.9</ele><time>2011-04-24T03:50:43.0000000+00:00</time></trkpt><trkpt lat="22.310072" lon="103.771881"><ele>2936.9</ele><time>2011-04-24T03:50:48.0000000+00:00</time></trkpt><trkpt lat="22.310034" lon="103.771935"><ele>2937.3</ele><time>2011-04-24T03:50:53.0000000+00:00</time></trkpt><trkpt lat="22.309982" lon="103.77198"><ele>2937.3</ele><time>2011-04-24T03:50:58.0000000+00:00</time></trkpt><trkpt lat="22.309937" lon="103.772034"><ele>2936.8</ele><time>2011-04-24T03:51:03.0000000+00:00</time></trkpt><trkpt lat="22.309868" lon="103.772049"><ele>2935.8</ele><time>2011-04-24T03:51:08.0000000+00:00</time></trkpt><trkpt lat="22.309818" lon="103.772087"><ele>2935.5</ele><time>2011-04-24T03:51:13.0000000+00:00</time></trkpt><trkpt lat="22.309807" lon="103.772072"><ele>2933.7</ele><time>2011-04-24T03:51:18.0000000+00:00</time></trkpt><trkpt lat="22.30979" lon="103.772079"><ele>2932.6</ele><time>2011-04-24T03:51:23.0000000+00:00</time></trkpt><trkpt lat="22.309767" lon="103.772102"><ele>2931.6</ele><time>2011-04-24T03:51:28.0000000+00:00</time></trkpt><trkpt lat="22.309734" lon="103.772102"><ele>2930.5</ele><time>2011-04-24T03:51:33.0000000+00:00</time></trkpt><trkpt lat="22.309721" lon="103.772118"><ele>2928.7</ele><time>2011-04-24T03:51:38.0000000+00:00</time></trkpt><trkpt lat="22.309721" lon="103.772141"><ele>2927.3</ele><time>2011-04-24T03:51:43.0000000+00:00</time></trkpt><trkpt lat="22.309702" lon="103.772141"><ele>2925.6</ele><time>2011-04-24T03:51:48.0000000+00:00</time></trkpt><trkpt lat="22.3097" lon="103.772133"><ele>2924.7</ele><time>2011-04-24T03:51:53.0000000+00:00</time></trkpt><trkpt lat="22.309683" lon="103.772186"><ele>2923.2</ele><time>2011-04-24T03:51:58.0000000+00:00</time></trkpt><trkpt lat="22.309658" lon="103.772209"><ele>2922.7</ele><time>2011-04-24T03:52:03.0000000+00:00</time></trkpt><trkpt lat="22.309637" lon="103.772232"><ele>2922.3</ele><time>2011-04-24T03:52:08.0000000+00:00</time></trkpt><trkpt lat="22.309614" lon="103.77227"><ele>2921.7</ele><time>2011-04-24T03:52:13.0000000+00:00</time></trkpt><trkpt lat="22.309589" lon="103.772293"><ele>2921.0</ele><time>2011-04-24T03:52:18.0000000+00:00</time></trkpt><trkpt lat="22.30958" lon="103.772308"><ele>2920.2</ele><time>2011-04-24T03:52:23.0000000+00:00</time></trkpt><trkpt lat="22.309561" lon="103.772346"><ele>2919.0</ele><time>2011-04-24T03:52:28.0000000+00:00</time></trkpt><trkpt lat="22.309517" lon="103.772392"><ele>2917.7</ele><time>2011-04-24T03:52:33.0000000+00:00</time></trkpt><trkpt lat="22.309484" lon="103.77243"><ele>2917.0</ele><time>2011-04-24T03:52:38.0000000+00:00</time></trkpt><trkpt lat="22.309464" lon="103.772461"><ele>2915.6</ele><time>2011-04-24T03:52:43.0000000+00:00</time></trkpt><trkpt lat="22.309408" lon="103.772476"><ele>2914.7</ele><time>2011-04-24T03:52:48.0000000+00:00</time></trkpt><trkpt lat="22.309395" lon="103.772469"><ele>2913.9</ele><time>2011-04-24T03:52:53.0000000+00:00</time></trkpt><trkpt lat="22.309397" lon="103.772469"><ele>2913.8</ele><time>2011-04-24T03:52:58.0000000+00:00</time></trkpt><trkpt lat="22.309378" lon="103.772484"><ele>2912.9</ele><time>2011-04-24T03:53:03.0000000+00:00</time></trkpt><trkpt lat="22.309364" lon="103.772499"><ele>2911.2</ele><time>2011-04-24T03:53:08.0000000+00:00</time></trkpt><trkpt lat="22.309343" lon="103.772507"><ele>2910.0</ele><time>2011-04-24T03:53:13.0000000+00:00</time></trkpt><trkpt lat="22.309332" lon="103.772514"><ele>2909.7</ele><time>2011-04-24T03:53:18.0000000+00:00</time></trkpt><trkpt lat="22.309332" lon="103.772514"><ele>2909.6</ele><time>2011-04-24T03:53:23.0000000+00:00</time></trkpt><trkpt lat="22.309315" lon="103.772537"><ele>2909.1</ele><time>2011-04-24T03:53:28.0000000+00:00</time></trkpt><trkpt lat="22.309299" lon="103.772537"><ele>2908.4</ele><time>2011-04-24T03:53:33.0000000+00:00</time></trkpt><trkpt lat="22.309292" lon="103.772552"><ele>2907.5</ele><time>2011-04-24T03:53:38.0000000+00:00</time></trkpt><trkpt lat="22.309282" lon="103.77256"><ele>2907.0</ele><time>2011-04-24T03:53:43.0000000+00:00</time></trkpt><trkpt lat="22.309258" lon="103.772575"><ele>2906.6</ele><time>2011-04-24T03:53:48.0000000+00:00</time></trkpt><trkpt lat="22.309242" lon="103.772591"><ele>2906.1</ele><time>2011-04-24T03:53:53.0000000+00:00</time></trkpt><trkpt lat="22.30925" lon="103.772606"><ele>2905.3</ele><time>2011-04-24T03:53:58.0000000+00:00</time></trkpt><trkpt lat="22.309254" lon="103.772621"><ele>2904.7</ele><time>2011-04-24T03:54:03.0000000+00:00</time></trkpt><trkpt lat="22.309237" lon="103.772636"><ele>2904.0</ele><time>2011-04-24T03:54:08.0000000+00:00</time></trkpt><trkpt lat="22.309237" lon="103.772652"><ele>2903.1</ele><time>2011-04-24T03:54:13.0000000+00:00</time></trkpt><trkpt lat="22.309235" lon="103.772667"><ele>2902.7</ele><time>2011-04-24T03:54:18.0000000+00:00</time></trkpt><trkpt lat="22.309233" lon="103.772675"><ele>2902.3</ele><time>2011-04-24T03:54:23.0000000+00:00</time></trkpt><trkpt lat="22.309223" lon="103.772675"><ele>2901.7</ele><time>2011-04-24T03:54:28.0000000+00:00</time></trkpt><trkpt lat="22.30921" lon="103.772682"><ele>2901.3</ele><time>2011-04-24T03:54:33.0000000+00:00</time></trkpt><trkpt lat="22.309177" lon="103.77269"><ele>2900.9</ele><time>2011-04-24T03:54:38.0000000+00:00</time></trkpt><trkpt lat="22.309141" lon="103.77269"><ele>2900.3</ele><time>2011-04-24T03:54:43.0000000+00:00</time></trkpt><trkpt lat="22.309135" lon="103.772682"><ele>2899.2</ele><time>2011-04-24T03:54:48.0000000+00:00</time></trkpt><trkpt lat="22.30912" lon="103.772713"><ele>2898.2</ele><time>2011-04-24T03:54:53.0000000+00:00</time></trkpt><trkpt lat="22.309124" lon="103.772713"><ele>2895.8</ele><time>2011-04-24T03:54:58.0000000+00:00</time></trkpt><trkpt lat="22.309134" lon="103.772713"><ele>2895.2</ele><time>2011-04-24T03:55:03.0000000+00:00</time></trkpt><trkpt lat="22.309122" lon="103.772713"><ele>2895.2</ele><time>2011-04-24T03:55:08.0000000+00:00</time></trkpt><trkpt lat="22.309113" lon="103.772697"><ele>2894.3</ele><time>2011-04-24T03:55:13.0000000+00:00</time></trkpt><trkpt lat="22.309092" lon="103.772682"><ele>2893.8</ele><time>2011-04-24T03:55:18.0000000+00:00</time></trkpt><trkpt lat="22.309076" lon="103.772652"><ele>2893.7</ele><time>2011-04-24T03:55:23.0000000+00:00</time></trkpt><trkpt lat="22.309074" lon="103.772652"><ele>2893.0</ele><time>2011-04-24T03:55:28.0000000+00:00</time></trkpt><trkpt lat="22.309055" lon="103.772659"><ele>2893.2</ele><time>2011-04-24T03:55:33.0000000+00:00</time></trkpt><trkpt lat="22.309048" lon="103.772659"><ele>2892.9</ele><time>2011-04-24T03:55:38.0000000+00:00</time></trkpt><trkpt lat="22.309046" lon="103.772667"><ele>2893.0</ele><time>2011-04-24T03:55:43.0000000+00:00</time></trkpt><trkpt lat="22.309048" lon="103.772659"><ele>2893.0</ele><time>2011-04-24T03:55:48.0000000+00:00</time></trkpt><trkpt lat="22.309025" lon="103.772644"><ele>2893.0</ele><time>2011-04-24T03:55:53.0000000+00:00</time></trkpt><trkpt lat="22.309017" lon="103.772621"><ele>2892.9</ele><time>2011-04-24T03:55:58.0000000+00:00</time></trkpt><trkpt lat="22.308989" lon="103.772629"><ele>2892.8</ele><time>2011-04-24T03:56:03.0000000+00:00</time></trkpt><trkpt lat="22.308979" lon="103.772636"><ele>2892.4</ele><time>2011-04-24T03:56:08.0000000+00:00</time></trkpt><trkpt lat="22.308964" lon="103.772636"><ele>2892.4</ele><time>2011-04-24T03:56:13.0000000+00:00</time></trkpt><trkpt lat="22.30895" lon="103.772636"><ele>2892.6</ele><time>2011-04-24T03:56:18.0000000+00:00</time></trkpt><trkpt lat="22.308935" lon="103.772629"><ele>2892.5</ele><time>2011-04-24T03:56:23.0000000+00:00</time></trkpt><trkpt lat="22.30892" lon="103.772621"><ele>2892.6</ele><time>2011-04-24T03:56:28.0000000+00:00</time></trkpt><trkpt lat="22.308886" lon="103.772636"><ele>2892.7</ele><time>2011-04-24T03:56:33.0000000+00:00</time></trkpt><trkpt lat="22.308889" lon="103.772644"><ele>2892.8</ele><time>2011-04-24T03:56:38.0000000+00:00</time></trkpt><trkpt lat="22.308893" lon="103.772659"><ele>2892.7</ele><time>2011-04-24T03:56:43.0000000+00:00</time></trkpt><trkpt lat="22.308922" lon="103.772705"><ele>2892.7</ele><time>2011-04-24T03:56:48.0000000+00:00</time></trkpt><trkpt lat="22.30891" lon="103.772781"><ele>2892.1</ele><time>2011-04-24T03:56:53.0000000+00:00</time></trkpt><trkpt lat="22.30887" lon="103.772797"><ele>2891.5</ele><time>2011-04-24T03:56:58.0000000+00:00</time></trkpt><trkpt lat="22.308861" lon="103.772827"><ele>2891.2</ele><time>2011-04-24T03:57:03.0000000+00:00</time></trkpt><trkpt lat="22.308865" lon="103.77285"><ele>2890.8</ele><time>2011-04-24T03:57:08.0000000+00:00</time></trkpt><trkpt lat="22.308859" lon="103.772827"><ele>2888.1</ele><time>2011-04-24T03:57:13.0000000+00:00</time></trkpt><trkpt lat="22.308857" lon="103.772865"><ele>2887.8</ele><time>2011-04-24T03:57:18.0000000+00:00</time></trkpt><trkpt lat="22.30883" lon="103.772888"><ele>2886.0</ele><time>2011-04-24T03:57:23.0000000+00:00</time></trkpt><trkpt lat="22.308805" lon="103.772903"><ele>2884.7</ele><time>2011-04-24T03:57:28.0000000+00:00</time></trkpt><trkpt lat="22.308804" lon="103.772919"><ele>2884.1</ele><time>2011-04-24T03:57:33.0000000+00:00</time></trkpt><trkpt lat="22.308771" lon="103.772926"><ele>2882.0</ele><time>2011-04-24T03:57:38.0000000+00:00</time></trkpt><trkpt lat="22.30875" lon="103.772934"><ele>2880.9</ele><time>2011-04-24T03:57:43.0000000+00:00</time></trkpt><trkpt lat="22.308737" lon="103.772942"><ele>2879.8</ele><time>2011-04-24T03:57:48.0000000+00:00</time></trkpt><trkpt lat="22.308727" lon="103.772949"><ele>2879.0</ele><time>2011-04-24T03:57:53.0000000+00:00</time></trkpt><trkpt lat="22.308718" lon="103.772957"><ele>2878.3</ele><time>2011-04-24T03:57:58.0000000+00:00</time></trkpt><trkpt lat="22.308708" lon="103.772964"><ele>2877.6</ele><time>2011-04-24T03:58:03.0000000+00:00</time></trkpt><trkpt lat="22.308701" lon="103.772964"><ele>2876.9</ele><time>2011-04-24T03:58:08.0000000+00:00</time></trkpt><trkpt lat="22.308695" lon="103.772972"><ele>2876.2</ele><time>2011-04-24T03:58:13.0000000+00:00</time></trkpt><trkpt lat="22.308695" lon="103.77298"><ele>2875.1</ele><time>2011-04-24T03:58:18.0000000+00:00</time></trkpt><trkpt lat="22.308691" lon="103.772987"><ele>2874.0</ele><time>2011-04-24T03:58:23.0000000+00:00</time></trkpt><trkpt lat="22.308681" lon="103.77301"><ele>2873.0</ele><time>2011-04-24T03:58:28.0000000+00:00</time></trkpt><trkpt lat="22.308672" lon="103.773041"><ele>2871.6</ele><time>2011-04-24T03:58:33.0000000+00:00</time></trkpt><trkpt lat="22.308666" lon="103.773048"><ele>2870.6</ele><time>2011-04-24T03:58:38.0000000+00:00</time></trkpt><trkpt lat="22.308661" lon="103.773064"><ele>2869.7</ele><time>2011-04-24T03:58:43.0000000+00:00</time></trkpt><trkpt lat="22.308643" lon="103.773064"><ele>2868.5</ele><time>2011-04-24T03:58:48.0000000+00:00</time></trkpt><trkpt lat="22.308634" lon="103.773064"><ele>2867.0</ele><time>2011-04-24T03:58:53.0000000+00:00</time></trkpt><trkpt lat="22.30863" lon="103.773048"><ele>2865.9</ele><time>2011-04-24T03:58:58.0000000+00:00</time></trkpt><trkpt lat="22.308624" lon="103.773056"><ele>2864.8</ele><time>2011-04-24T03:59:03.0000000+00:00</time></trkpt><trkpt lat="22.308613" lon="103.773048"><ele>2863.8</ele><time>2011-04-24T03:59:08.0000000+00:00</time></trkpt><trkpt lat="22.308605" lon="103.773048"><ele>2862.8</ele><time>2011-04-24T03:59:13.0000000+00:00</time></trkpt><trkpt lat="22.308601" lon="103.773048"><ele>2861.8</ele><time>2011-04-24T03:59:18.0000000+00:00</time></trkpt><trkpt lat="22.308599" lon="103.773056"><ele>2860.9</ele><time>2011-04-24T03:59:23.0000000+00:00</time></trkpt><trkpt lat="22.308601" lon="103.773056"><ele>2860.0</ele><time>2011-04-24T03:59:28.0000000+00:00</time></trkpt><trkpt lat="22.308598" lon="103.773064"><ele>2859.7</ele><time>2011-04-24T03:59:33.0000000+00:00</time></trkpt><trkpt lat="22.308573" lon="103.773064"><ele>2860.5</ele><time>2011-04-24T03:59:38.0000000+00:00</time></trkpt><trkpt lat="22.308554" lon="103.773056"><ele>2860.7</ele><time>2011-04-24T03:59:43.0000000+00:00</time></trkpt><trkpt lat="22.308521" lon="103.773087"><ele>2860.3</ele><time>2011-04-24T03:59:48.0000000+00:00</time></trkpt><trkpt lat="22.308512" lon="103.773094"><ele>2860.2</ele><time>2011-04-24T03:59:53.0000000+00:00</time></trkpt><trkpt lat="22.308495" lon="103.773087"><ele>2860.2</ele><time>2011-04-24T03:59:58.0000000+00:00</time></trkpt><trkpt lat="22.30846" lon="103.773087"><ele>2860.2</ele><time>2011-04-24T04:00:03.0000000+00:00</time></trkpt><trkpt lat="22.308413" lon="103.773117"><ele>2858.4</ele><time>2011-04-24T04:00:08.0000000+00:00</time></trkpt><trkpt lat="22.308382" lon="103.773102"><ele>2858.3</ele><time>2011-04-24T04:00:13.0000000+00:00</time></trkpt><trkpt lat="22.308355" lon="103.773079"><ele>2858.2</ele><time>2011-04-24T04:00:18.0000000+00:00</time></trkpt><trkpt lat="22.308331" lon="103.773064"><ele>2858.6</ele><time>2011-04-24T04:00:23.0000000+00:00</time></trkpt><trkpt lat="22.308329" lon="103.773018"><ele>2858.9</ele><time>2011-04-24T04:00:28.0000000+00:00</time></trkpt><trkpt lat="22.308321" lon="103.772987"><ele>2859.0</ele><time>2011-04-24T04:00:33.0000000+00:00</time></trkpt><trkpt lat="22.308319" lon="103.772964"><ele>2859.2</ele><time>2011-04-24T04:00:38.0000000+00:00</time></trkpt><trkpt lat="22.308287" lon="103.772949"><ele>2859.3</ele><time>2011-04-24T04:00:43.0000000+00:00</time></trkpt><trkpt lat="22.308256" lon="103.772957"><ele>2859.3</ele><time>2011-04-24T04:00:48.0000000+00:00</time></trkpt><trkpt lat="22.308239" lon="103.772972"><ele>2859.4</ele><time>2011-04-24T04:00:53.0000000+00:00</time></trkpt><trkpt lat="22.308231" lon="103.772964"><ele>2859.2</ele><time>2011-04-24T04:00:58.0000000+00:00</time></trkpt><trkpt lat="22.308218" lon="103.772972"><ele>2859.1</ele><time>2011-04-24T04:01:03.0000000+00:00</time></trkpt><trkpt lat="22.308224" lon="103.772919"><ele>2859.4</ele><time>2011-04-24T04:01:08.0000000+00:00</time></trkpt><trkpt lat="22.308208" lon="103.772964"><ele>2859.7</ele><time>2011-04-24T04:01:13.0000000+00:00</time></trkpt><trkpt lat="22.308161" lon="103.773003"><ele>2860.8</ele><time>2011-04-24T04:01:18.0000000+00:00</time></trkpt><trkpt lat="22.308153" lon="103.773018"><ele>2861.2</ele><time>2011-04-24T04:01:23.0000000+00:00</time></trkpt><trkpt lat="22.308153" lon="103.773018"><ele>2861.0</ele><time>2011-04-24T04:01:28.0000000+00:00</time></trkpt><trkpt lat="22.30818" lon="103.773041"><ele>2860.2</ele><time>2011-04-24T04:01:33.0000000+00:00</time></trkpt><trkpt lat="22.308203" lon="103.773048"><ele>2859.3</ele><time>2011-04-24T04:01:38.0000000+00:00</time></trkpt><trkpt lat="22.308201" lon="103.773048"><ele>2860.0</ele><time>2011-04-24T04:01:43.0000000+00:00</time></trkpt><trkpt lat="22.308224" lon="103.773056"><ele>2860.6</ele><time>2011-04-24T04:01:48.0000000+00:00</time></trkpt><trkpt lat="22.308231" lon="103.773056"><ele>2860.9</ele><time>2011-04-24T04:01:53.0000000+00:00</time></trkpt><trkpt lat="22.30825" lon="103.773079"><ele>2861.4</ele><time>2011-04-24T04:01:58.0000000+00:00</time></trkpt><trkpt lat="22.30831" lon="103.773117"><ele>2861.2</ele><time>2011-04-24T04:02:03.0000000+00:00</time></trkpt><trkpt lat="22.308325" lon="103.77317"><ele>2862.0</ele><time>2011-04-24T04:02:08.0000000+00:00</time></trkpt><trkpt lat="22.308323" lon="103.773201"><ele>2863.3</ele><time>2011-04-24T04:02:13.0000000+00:00</time></trkpt><trkpt lat="22.308313" lon="103.773254"><ele>2865.0</ele><time>2011-04-24T04:02:18.0000000+00:00</time></trkpt><trkpt lat="22.308233" lon="103.773262"><ele>2864.8</ele><time>2011-04-24T04:02:23.0000000+00:00</time></trkpt><trkpt lat="22.308197" lon="103.773285"><ele>2866.0</ele><time>2011-04-24T04:02:28.0000000+00:00</time></trkpt><trkpt lat="22.308159" lon="103.773315"><ele>2866.7</ele><time>2011-04-24T04:02:33.0000000+00:00</time></trkpt><trkpt lat="22.308144" lon="103.773369"><ele>2866.8</ele><time>2011-04-24T04:02:38.0000000+00:00</time></trkpt><trkpt lat="22.308126" lon="103.773399"><ele>2866.5</ele><time>2011-04-24T04:02:43.0000000+00:00</time></trkpt><trkpt lat="22.308109" lon="103.77343"><ele>2866.4</ele><time>2011-04-24T04:02:48.0000000+00:00</time></trkpt><trkpt lat="22.308083" lon="103.773438"><ele>2866.4</ele><time>2011-04-24T04:02:53.0000000+00:00</time></trkpt><trkpt lat="22.308039" lon="103.77346"><ele>2866.0</ele><time>2011-04-24T04:02:58.0000000+00:00</time></trkpt><trkpt lat="22.308064" lon="103.773483"><ele>2866.0</ele><time>2011-04-24T04:03:03.0000000+00:00</time></trkpt><trkpt lat="22.308052" lon="103.773491"><ele>2865.7</ele><time>2011-04-24T04:03:08.0000000+00:00</time></trkpt><trkpt lat="22.308035" lon="103.773514"><ele>2864.9</ele><time>2011-04-24T04:03:13.0000000+00:00</time></trkpt><trkpt lat="22.308033" lon="103.773521"><ele>2864.3</ele><time>2011-04-24T04:03:18.0000000+00:00</time></trkpt><trkpt lat="22.308023" lon="103.773544"><ele>2864.2</ele><time>2011-04-24T04:03:23.0000000+00:00</time></trkpt><trkpt lat="22.308044" lon="103.773552"><ele>2863.4</ele><time>2011-04-24T04:03:28.0000000+00:00</time></trkpt><trkpt lat="22.308044" lon="103.773575"><ele>2863.4</ele><time>2011-04-24T04:03:33.0000000+00:00</time></trkpt><trkpt lat="22.308054" lon="103.773605"><ele>2863.3</ele><time>2011-04-24T04:03:38.0000000+00:00</time></trkpt><trkpt lat="22.308083" lon="103.773613"><ele>2863.0</ele><time>2011-04-24T04:03:43.0000000+00:00</time></trkpt><trkpt lat="22.308081" lon="103.773643"><ele>2862.9</ele><time>2011-04-24T04:03:48.0000000+00:00</time></trkpt><trkpt lat="22.308075" lon="103.773697"><ele>2862.3</ele><time>2011-04-24T04:03:53.0000000+00:00</time></trkpt><trkpt lat="22.308083" lon="103.77375"><ele>2862.2</ele><time>2011-04-24T04:03:58.0000000+00:00</time></trkpt><trkpt lat="22.308105" lon="103.773743"><ele>2862.9</ele><time>2011-04-24T04:04:03.0000000+00:00</time></trkpt><trkpt lat="22.30814" lon="103.773758"><ele>2862.6</ele><time>2011-04-24T04:04:08.0000000+00:00</time></trkpt><trkpt lat="22.308159" lon="103.773766"><ele>2861.9</ele><time>2011-04-24T04:04:13.0000000+00:00</time></trkpt><trkpt lat="22.308176" lon="103.773766"><ele>2861.0</ele><time>2011-04-24T04:04:18.0000000+00:00</time></trkpt><trkpt lat="22.308191" lon="103.773766"><ele>2860.8</ele><time>2011-04-24T04:04:23.0000000+00:00</time></trkpt><trkpt lat="22.308197" lon="103.773773"><ele>2860.8</ele><time>2011-04-24T04:04:28.0000000+00:00</time></trkpt><trkpt lat="22.308193" lon="103.773766"><ele>2860.8</ele><time>2011-04-24T04:04:33.0000000+00:00</time></trkpt><trkpt lat="22.308203" lon="103.773766"><ele>2861.0</ele><time>2011-04-24T04:04:38.0000000+00:00</time></trkpt><trkpt lat="22.308207" lon="103.773766"><ele>2861.2</ele><time>2011-04-24T04:04:43.0000000+00:00</time></trkpt><trkpt lat="22.308132" lon="103.773781"><ele>2859.4</ele><time>2011-04-24T04:04:48.0000000+00:00</time></trkpt><trkpt lat="22.308081" lon="103.773781"><ele>2859.3</ele><time>2011-04-24T04:04:53.0000000+00:00</time></trkpt><trkpt lat="22.30805" lon="103.773773"><ele>2859.5</ele><time>2011-04-24T04:04:58.0000000+00:00</time></trkpt><trkpt lat="22.308039" lon="103.773788"><ele>2859.7</ele><time>2011-04-24T04:05:03.0000000+00:00</time></trkpt><trkpt lat="22.308035" lon="103.773804"><ele>2859.7</ele><time>2011-04-24T04:05:08.0000000+00:00</time></trkpt><trkpt lat="22.308022" lon="103.773811"><ele>2860.1</ele><time>2011-04-24T04:05:13.0000000+00:00</time></trkpt><trkpt lat="22.307991" lon="103.773811"><ele>2859.9</ele><time>2011-04-24T04:05:18.0000000+00:00</time></trkpt><trkpt lat="22.307959" lon="103.773849"><ele>2859.9</ele><time>2011-04-24T04:05:23.0000000+00:00</time></trkpt><trkpt lat="22.307964" lon="103.773857"><ele>2861.2</ele><time>2011-04-24T04:05:28.0000000+00:00</time></trkpt><trkpt lat="22.308018" lon="103.773872"><ele>2862.1</ele><time>2011-04-24T04:05:33.0000000+00:00</time></trkpt><trkpt lat="22.30801" lon="103.773872"><ele>2861.8</ele><time>2011-04-24T04:05:38.0000000+00:00</time></trkpt><trkpt lat="22.308016" lon="103.773865"><ele>2862.1</ele><time>2011-04-24T04:05:43.0000000+00:00</time></trkpt><trkpt lat="22.308041" lon="103.773865"><ele>2862.2</ele><time>2011-04-24T04:05:48.0000000+00:00</time></trkpt><trkpt lat="22.308037" lon="103.773857"><ele>2861.4</ele><time>2011-04-24T04:05:53.0000000+00:00</time></trkpt><trkpt lat="22.308014" lon="103.773857"><ele>2864.5</ele><time>2011-04-24T04:05:58.0000000+00:00</time></trkpt><trkpt lat="22.30802" lon="103.773865"><ele>2865.2</ele><time>2011-04-24T04:06:03.0000000+00:00</time></trkpt><trkpt lat="22.308027" lon="103.77388"><ele>2865.9</ele><time>2011-04-24T04:06:08.0000000+00:00</time></trkpt><trkpt lat="22.308001" lon="103.773911"><ele>2866.2</ele><time>2011-04-24T04:06:13.0000000+00:00</time></trkpt><trkpt lat="22.308014" lon="103.773941"><ele>2866.3</ele><time>2011-04-24T04:06:18.0000000+00:00</time></trkpt><trkpt lat="22.307993" lon="103.773949"><ele>2867.7</ele><time>2011-04-24T04:06:23.0000000+00:00</time></trkpt><trkpt lat="22.307976" lon="103.773949"><ele>2868.2</ele><time>2011-04-24T04:06:28.0000000+00:00</time></trkpt><trkpt lat="22.30794" lon="103.773956"><ele>2868.7</ele><time>2011-04-24T04:06:33.0000000+00:00</time></trkpt><trkpt lat="22.307913" lon="103.773979"><ele>2870.0</ele><time>2011-04-24T04:06:38.0000000+00:00</time></trkpt><trkpt lat="22.307938" lon="103.773979"><ele>2871.7</ele><time>2011-04-24T04:06:43.0000000+00:00</time></trkpt><trkpt lat="22.307945" lon="103.773987"><ele>2872.4</ele><time>2011-04-24T04:06:48.0000000+00:00</time></trkpt><trkpt lat="22.307936" lon="103.773972"><ele>2873.7</ele><time>2011-04-24T04:06:53.0000000+00:00</time></trkpt><trkpt lat="22.307932" lon="103.773972"><ele>2875.0</ele><time>2011-04-24T04:06:58.0000000+00:00</time></trkpt><trkpt lat="22.30794" lon="103.773972"><ele>2876.2</ele><time>2011-04-24T04:07:03.0000000+00:00</time></trkpt><trkpt lat="22.307947" lon="103.773972"><ele>2876.5</ele><time>2011-04-24T04:07:08.0000000+00:00</time></trkpt><trkpt lat="22.307957" lon="103.773972"><ele>2876.7</ele><time>2011-04-24T04:07:13.0000000+00:00</time></trkpt><trkpt lat="22.307947" lon="103.773979"><ele>2876.5</ele><time>2011-04-24T04:07:18.0000000+00:00</time></trkpt><trkpt lat="22.307934" lon="103.773987"><ele>2876.4</ele><time>2011-04-24T04:07:23.0000000+00:00</time></trkpt><trkpt lat="22.307951" lon="103.773994"><ele>2877.5</ele><time>2011-04-24T04:07:28.0000000+00:00</time></trkpt><trkpt lat="22.307951" lon="103.773994"><ele>2877.5</ele><time>2011-04-24T04:07:33.0000000+00:00</time></trkpt><trkpt lat="22.307951" lon="103.773994"><ele>2877.6</ele><time>2011-04-24T04:07:38.0000000+00:00</time></trkpt><trkpt lat="22.307951" lon="103.773994"><ele>2877.7</ele><time>2011-04-24T04:07:43.0000000+00:00</time></trkpt><trkpt lat="22.307951" lon="103.773994"><ele>2877.7</ele><time>2011-04-24T04:07:48.0000000+00:00</time></trkpt><trkpt lat="22.307951" lon="103.773994"><ele>2877.7</ele><time>2011-04-24T04:07:53.0000000+00:00</time></trkpt><trkpt lat="22.307953" lon="103.773994"><ele>2877.7</ele><time>2011-04-24T04:07:58.0000000+00:00</time></trkpt><trkpt lat="22.307953" lon="103.773994"><ele>2877.7</ele><time>2011-04-24T04:08:03.0000000+00:00</time></trkpt><trkpt lat="22.307953" lon="103.773994"><ele>2877.8</ele><time>2011-04-24T04:08:08.0000000+00:00</time></trkpt><trkpt lat="22.307953" lon="103.773994"><ele>2877.8</ele><time>2011-04-24T04:08:13.0000000+00:00</time></trkpt><trkpt lat="22.307955" lon="103.773994"><ele>2877.9</ele><time>2011-04-24T04:08:18.0000000+00:00</time></trkpt><trkpt lat="22.307955" lon="103.773994"><ele>2878.0</ele><time>2011-04-24T04:08:23.0000000+00:00</time></trkpt><trkpt lat="22.307955" lon="103.773994"><ele>2878.1</ele><time>2011-04-24T04:08:28.0000000+00:00</time></trkpt><trkpt lat="22.307955" lon="103.773994"><ele>2878.1</ele><time>2011-04-24T04:08:33.0000000+00:00</time></trkpt><trkpt lat="22.307955" lon="103.773994"><ele>2878.2</ele><time>2011-04-24T04:08:38.0000000+00:00</time></trkpt><trkpt lat="22.307955" lon="103.773994"><ele>2878.2</ele><time>2011-04-24T04:08:43.0000000+00:00</time></trkpt><trkpt lat="22.307955" lon="103.773994"><ele>2878.1</ele><time>2011-04-24T04:08:48.0000000+00:00</time></trkpt><trkpt lat="22.307955" lon="103.773994"><ele>2878.2</ele><time>2011-04-24T04:08:53.0000000+00:00</time></trkpt><trkpt lat="22.307955" lon="103.773994"><ele>2878.2</ele><time>2011-04-24T04:08:58.0000000+00:00</time></trkpt><trkpt lat="22.307957" lon="103.773994"><ele>2878.2</ele><time>2011-04-24T04:09:03.0000000+00:00</time></trkpt><trkpt lat="22.307957" lon="103.773994"><ele>2878.2</ele><time>2011-04-24T04:09:08.0000000+00:00</time></trkpt><trkpt lat="22.307957" lon="103.773994"><ele>2878.2</ele><time>2011-04-24T04:09:13.0000000+00:00</time></trkpt><trkpt lat="22.307957" lon="103.773994"><ele>2878.2</ele><time>2011-04-24T04:09:18.0000000+00:00</time></trkpt><trkpt lat="22.307957" lon="103.773994"><ele>2878.2</ele><time>2011-04-24T04:09:23.0000000+00:00</time></trkpt><trkpt lat="22.307957" lon="103.773994"><ele>2878.2</ele><time>2011-04-24T04:09:28.0000000+00:00</time></trkpt><trkpt lat="22.307957" lon="103.773994"><ele>2878.2</ele><time>2011-04-24T04:09:33.0000000+00:00</time></trkpt><trkpt lat="22.307957" lon="103.773994"><ele>2878.2</ele><time>2011-04-24T04:09:38.0000000+00:00</time></trkpt><trkpt lat="22.307957" lon="103.773994"><ele>2878.2</ele><time>2011-04-24T04:09:43.0000000+00:00</time></trkpt><trkpt lat="22.307959" lon="103.773994"><ele>2878.2</ele><time>2011-04-24T04:09:48.0000000+00:00</time></trkpt><trkpt lat="22.307959" lon="103.773994"><ele>2878.2</ele><time>2011-04-24T04:09:53.0000000+00:00</time></trkpt><trkpt lat="22.307959" lon="103.773994"><ele>2878.2</ele><time>2011-04-24T04:09:58.0000000+00:00</time></trkpt><trkpt lat="22.307959" lon="103.773994"><ele>2878.2</ele><time>2011-04-24T04:10:03.0000000+00:00</time></trkpt><trkpt lat="22.307959" lon="103.773994"><ele>2878.1</ele><time>2011-04-24T04:10:08.0000000+00:00</time></trkpt><trkpt lat="22.307955" lon="103.773994"><ele>2878.0</ele><time>2011-04-24T04:10:13.0000000+00:00</time></trkpt><trkpt lat="22.307934" lon="103.773994"><ele>2877.8</ele><time>2011-04-24T04:10:18.0000000+00:00</time></trkpt><trkpt lat="22.307926" lon="103.773994"><ele>2877.2</ele><time>2011-04-24T04:10:23.0000000+00:00</time></trkpt><trkpt lat="22.307934" lon="103.773987"><ele>2877.0</ele><time>2011-04-24T04:10:28.0000000+00:00</time></trkpt><trkpt lat="22.307928" lon="103.773987"><ele>2876.3</ele><time>2011-04-24T04:10:33.0000000+00:00</time></trkpt><trkpt lat="22.307922" lon="103.773987"><ele>2875.8</ele><time>2011-04-24T04:10:38.0000000+00:00</time></trkpt><trkpt lat="22.307917" lon="103.773987"><ele>2875.3</ele><time>2011-04-24T04:10:43.0000000+00:00</time></trkpt><trkpt lat="22.307913" lon="103.773987"><ele>2874.8</ele><time>2011-04-24T04:10:48.0000000+00:00</time></trkpt><trkpt lat="22.307919" lon="103.77401"><ele>2874.7</ele><time>2011-04-24T04:10:53.0000000+00:00</time></trkpt><trkpt lat="22.307936" lon="103.774071"><ele>2874.9</ele><time>2011-04-24T04:10:58.0000000+00:00</time></trkpt><trkpt lat="22.307941" lon="103.774117"><ele>2875.3</ele><time>2011-04-24T04:11:03.0000000+00:00</time></trkpt><trkpt lat="22.307978" lon="103.774139"><ele>2875.8</ele><time>2011-04-24T04:11:08.0000000+00:00</time></trkpt><trkpt lat="22.307997" lon="103.774147"><ele>2876.0</ele><time>2011-04-24T04:11:13.0000000+00:00</time></trkpt><trkpt lat="22.307991" lon="103.774155"><ele>2876.1</ele><time>2011-04-24T04:11:18.0000000+00:00</time></trkpt><trkpt lat="22.307981" lon="103.774162"><ele>2876.3</ele><time>2011-04-24T04:11:23.0000000+00:00</time></trkpt><trkpt lat="22.307917" lon="103.774185"><ele>2876.8</ele><time>2011-04-24T04:11:28.0000000+00:00</time></trkpt><trkpt lat="22.307899" lon="103.774208"><ele>2876.9</ele><time>2011-04-24T04:11:33.0000000+00:00</time></trkpt><trkpt lat="22.307888" lon="103.774231"><ele>2877.2</ele><time>2011-04-24T04:11:38.0000000+00:00</time></trkpt><trkpt lat="22.307854" lon="103.774246"><ele>2877.4</ele><time>2011-04-24T04:11:43.0000000+00:00</time></trkpt><trkpt lat="22.307846" lon="103.774246"><ele>2877.3</ele><time>2011-04-24T04:11:48.0000000+00:00</time></trkpt><trkpt lat="22.30781" lon="103.774246"><ele>2878.3</ele><time>2011-04-24T04:11:53.0000000+00:00</time></trkpt><trkpt lat="22.307758" lon="103.7743"><ele>2879.8</ele><time>2011-04-24T04:11:58.0000000+00:00</time></trkpt><trkpt lat="22.307758" lon="103.774323"><ele>2881.8</ele><time>2011-04-24T04:12:03.0000000+00:00</time></trkpt><trkpt lat="22.307745" lon="103.774323"><ele>2882.7</ele><time>2011-04-24T04:12:08.0000000+00:00</time></trkpt><trkpt lat="22.307743" lon="103.774323"><ele>2883.9</ele><time>2011-04-24T04:12:13.0000000+00:00</time></trkpt><trkpt lat="22.307718" lon="103.77433"><ele>2884.5</ele><time>2011-04-24T04:12:18.0000000+00:00</time></trkpt><trkpt lat="22.307718" lon="103.774338"><ele>2884.7</ele><time>2011-04-24T04:12:23.0000000+00:00</time></trkpt><trkpt lat="22.307711" lon="103.774338"><ele>2884.8</ele><time>2011-04-24T04:12:28.0000000+00:00</time></trkpt><trkpt lat="22.307709" lon="103.774353"><ele>2885.0</ele><time>2011-04-24T04:12:33.0000000+00:00</time></trkpt><trkpt lat="22.307709" lon="103.774368"><ele>2885.3</ele><time>2011-04-24T04:12:38.0000000+00:00</time></trkpt><trkpt lat="22.307711" lon="103.774361"><ele>2885.7</ele><time>2011-04-24T04:12:43.0000000+00:00</time></trkpt><trkpt lat="22.307726" lon="103.774384"><ele>2885.2</ele><time>2011-04-24T04:12:48.0000000+00:00</time></trkpt><trkpt lat="22.307718" lon="103.774391"><ele>2885.8</ele><time>2011-04-24T04:12:53.0000000+00:00</time></trkpt><trkpt lat="22.307711" lon="103.774376"><ele>2886.1</ele><time>2011-04-24T04:12:58.0000000+00:00</time></trkpt><trkpt lat="22.307674" lon="103.774406"><ele>2887.7</ele><time>2011-04-24T04:13:03.0000000+00:00</time></trkpt><trkpt lat="22.307663" lon="103.774406"><ele>2888.0</ele><time>2011-04-24T04:13:08.0000000+00:00</time></trkpt><trkpt lat="22.307663" lon="103.774406"><ele>2888.1</ele><time>2011-04-24T04:13:13.0000000+00:00</time></trkpt><trkpt lat="22.307661" lon="103.774445"><ele>2888.5</ele><time>2011-04-24T04:13:18.0000000+00:00</time></trkpt><trkpt lat="22.307701" lon="103.774452"><ele>2888.5</ele><time>2011-04-24T04:13:23.0000000+00:00</time></trkpt><trkpt lat="22.307713" lon="103.774437"><ele>2889.0</ele><time>2011-04-24T04:13:28.0000000+00:00</time></trkpt><trkpt lat="22.307697" lon="103.77446"><ele>2889.4</ele><time>2011-04-24T04:13:33.0000000+00:00</time></trkpt><trkpt lat="22.307693" lon="103.774467"><ele>2890.0</ele><time>2011-04-24T04:13:38.0000000+00:00</time></trkpt><trkpt lat="22.307674" lon="103.77449"><ele>2891.0</ele><time>2011-04-24T04:13:43.0000000+00:00</time></trkpt><trkpt lat="22.307661" lon="103.774521"><ele>2891.2</ele><time>2011-04-24T04:13:48.0000000+00:00</time></trkpt><trkpt lat="22.307676" lon="103.774551"><ele>2891.7</ele><time>2011-04-24T04:13:53.0000000+00:00</time></trkpt><trkpt lat="22.307673" lon="103.774559"><ele>2892.3</ele><time>2011-04-24T04:13:58.0000000+00:00</time></trkpt><trkpt lat="22.307676" lon="103.774574"><ele>2892.7</ele><time>2011-04-24T04:14:03.0000000+00:00</time></trkpt><trkpt lat="22.307638" lon="103.77459"><ele>2893.2</ele><time>2011-04-24T04:14:08.0000000+00:00</time></trkpt><trkpt lat="22.307625" lon="103.774597"><ele>2894.4</ele><time>2011-04-24T04:14:13.0000000+00:00</time></trkpt><trkpt lat="22.307634" lon="103.77459"><ele>2894.4</ele><time>2011-04-24T04:14:18.0000000+00:00</time></trkpt><trkpt lat="22.307619" lon="103.774605"><ele>2896.0</ele><time>2011-04-24T04:14:23.0000000+00:00</time></trkpt><trkpt lat="22.307585" lon="103.774628"><ele>2897.3</ele><time>2011-04-24T04:14:28.0000000+00:00</time></trkpt><trkpt lat="22.307577" lon="103.77462"><ele>2898.1</ele><time>2011-04-24T04:14:33.0000000+00:00</time></trkpt><trkpt lat="22.307579" lon="103.774628"><ele>2898.8</ele><time>2011-04-24T04:14:38.0000000+00:00</time></trkpt><trkpt lat="22.307634" lon="103.774666"><ele>2899.5</ele><time>2011-04-24T04:14:43.0000000+00:00</time></trkpt><trkpt lat="22.307671" lon="103.774689"><ele>2900.0</ele><time>2011-04-24T04:14:48.0000000+00:00</time></trkpt><trkpt lat="22.307716" lon="103.774704"><ele>2900.3</ele><time>2011-04-24T04:14:53.0000000+00:00</time></trkpt><trkpt lat="22.307735" lon="103.774712"><ele>2900.5</ele><time>2011-04-24T04:14:58.0000000+00:00</time></trkpt><trkpt lat="22.307735" lon="103.774696"><ele>2901.0</ele><time>2011-04-24T04:15:03.0000000+00:00</time></trkpt><trkpt lat="22.307722" lon="103.774666"><ele>2901.3</ele><time>2011-04-24T04:15:08.0000000+00:00</time></trkpt><trkpt lat="22.307713" lon="103.774643"><ele>2901.7</ele><time>2011-04-24T04:15:13.0000000+00:00</time></trkpt><trkpt lat="22.307699" lon="103.774643"><ele>2901.9</ele><time>2011-04-24T04:15:18.0000000+00:00</time></trkpt><trkpt lat="22.307673" lon="103.77462"><ele>2902.3</ele><time>2011-04-24T04:15:23.0000000+00:00</time></trkpt><trkpt lat="22.307663" lon="103.77462"><ele>2902.5</ele><time>2011-04-24T04:15:28.0000000+00:00</time></trkpt><trkpt lat="22.307653" lon="103.774628"><ele>2902.5</ele><time>2011-04-24T04:15:33.0000000+00:00</time></trkpt><trkpt lat="22.307657" lon="103.774643"><ele>2902.7</ele><time>2011-04-24T04:15:38.0000000+00:00</time></trkpt><trkpt lat="22.307657" lon="103.774666"><ele>2902.4</ele><time>2011-04-24T04:15:43.0000000+00:00</time></trkpt><trkpt lat="22.307665" lon="103.774673"><ele>2902.3</ele><time>2011-04-24T04:15:48.0000000+00:00</time></trkpt><trkpt lat="22.307661" lon="103.774673"><ele>2902.3</ele><time>2011-04-24T04:15:53.0000000+00:00</time></trkpt><trkpt lat="22.307652" lon="103.774673"><ele>2902.3</ele><time>2011-04-24T04:15:58.0000000+00:00</time></trkpt><trkpt lat="22.307629" lon="103.774666"><ele>2902.5</ele><time>2011-04-24T04:16:03.0000000+00:00</time></trkpt><trkpt lat="22.307627" lon="103.774689"><ele>2902.8</ele><time>2011-04-24T04:16:08.0000000+00:00</time></trkpt><trkpt lat="22.307634" lon="103.774666"><ele>2903.5</ele><time>2011-04-24T04:16:13.0000000+00:00</time></trkpt><trkpt lat="22.307631" lon="103.774666"><ele>2904.1</ele><time>2011-04-24T04:16:18.0000000+00:00</time></trkpt><trkpt lat="22.307611" lon="103.774727"><ele>2905.0</ele><time>2011-04-24T04:16:23.0000000+00:00</time></trkpt><trkpt lat="22.307589" lon="103.774734"><ele>2905.3</ele><time>2011-04-24T04:16:28.0000000+00:00</time></trkpt><trkpt lat="22.30756" lon="103.774734"><ele>2906.2</ele><time>2011-04-24T04:16:33.0000000+00:00</time></trkpt><trkpt lat="22.3076" lon="103.77475"><ele>2906.7</ele><time>2011-04-24T04:16:38.0000000+00:00</time></trkpt><trkpt lat="22.307608" lon="103.77475"><ele>2907.3</ele><time>2011-04-24T04:16:43.0000000+00:00</time></trkpt><trkpt lat="22.307606" lon="103.774757"><ele>2907.7</ele><time>2011-04-24T04:16:48.0000000+00:00</time></trkpt><trkpt lat="22.307575" lon="103.774765"><ele>2908.3</ele><time>2011-04-24T04:16:53.0000000+00:00</time></trkpt><trkpt lat="22.307566" lon="103.774796"><ele>2909.1</ele><time>2011-04-24T04:16:58.0000000+00:00</time></trkpt><trkpt lat="22.307531" lon="103.774803"><ele>2909.2</ele><time>2011-04-24T04:17:03.0000000+00:00</time></trkpt><trkpt lat="22.307508" lon="103.774811"><ele>2909.3</ele><time>2011-04-24T04:17:08.0000000+00:00</time></trkpt><trkpt lat="22.307539" lon="103.774811"><ele>2909.9</ele><time>2011-04-24T04:17:13.0000000+00:00</time></trkpt><trkpt lat="22.307526" lon="103.774796"><ele>2910.4</ele><time>2011-04-24T04:17:18.0000000+00:00</time></trkpt><trkpt lat="22.307484" lon="103.774773"><ele>2910.5</ele><time>2011-04-24T04:17:23.0000000+00:00</time></trkpt><trkpt lat="22.30744" lon="103.774803"><ele>2910.9</ele><time>2011-04-24T04:17:28.0000000+00:00</time></trkpt><trkpt lat="22.307467" lon="103.774811"><ele>2910.7</ele><time>2011-04-24T04:17:33.0000000+00:00</time></trkpt><trkpt lat="22.307484" lon="103.774834"><ele>2911.0</ele><time>2011-04-24T04:17:38.0000000+00:00</time></trkpt><trkpt lat="22.307474" lon="103.774826"><ele>2912.7</ele><time>2011-04-24T04:17:43.0000000+00:00</time></trkpt><trkpt lat="22.30743" lon="103.774849"><ele>2914.8</ele><time>2011-04-24T04:17:48.0000000+00:00</time></trkpt><trkpt lat="22.307425" lon="103.774864"><ele>2916.0</ele><time>2011-04-24T04:17:53.0000000+00:00</time></trkpt><trkpt lat="22.307444" lon="103.774857"><ele>2917.6</ele><time>2011-04-24T04:17:58.0000000+00:00</time></trkpt><trkpt lat="22.307461" lon="103.774849"><ele>2918.2</ele><time>2011-04-24T04:18:03.0000000+00:00</time></trkpt><trkpt lat="22.307526" lon="103.774849"><ele>2919.3</ele><time>2011-04-24T04:18:08.0000000+00:00</time></trkpt><trkpt lat="22.307535" lon="103.774872"><ele>2922.3</ele><time>2011-04-24T04:18:13.0000000+00:00</time></trkpt><trkpt lat="22.30755" lon="103.77491"><ele>2924.5</ele><time>2011-04-24T04:18:18.0000000+00:00</time></trkpt><trkpt lat="22.307545" lon="103.774956"><ele>2925.0</ele><time>2011-04-24T04:18:23.0000000+00:00</time></trkpt><trkpt lat="22.307541" lon="103.774994"><ele>2925.2</ele><time>2011-04-24T04:18:28.0000000+00:00</time></trkpt><trkpt lat="22.307541" lon="103.775002"><ele>2925.9</ele><time>2011-04-24T04:18:33.0000000+00:00</time></trkpt><trkpt lat="22.307539" lon="103.775009"><ele>2926.0</ele><time>2011-04-24T04:18:38.0000000+00:00</time></trkpt><trkpt lat="22.307539" lon="103.775002"><ele>2926.0</ele><time>2011-04-24T04:18:43.0000000+00:00</time></trkpt><trkpt lat="22.307547" lon="103.775009"><ele>2926.5</ele><time>2011-04-24T04:18:48.0000000+00:00</time></trkpt><trkpt lat="22.307524" lon="103.775024"><ele>2926.9</ele><time>2011-04-24T04:18:53.0000000+00:00</time></trkpt><trkpt lat="22.30752" lon="103.775024"><ele>2927.0</ele><time>2011-04-24T04:18:58.0000000+00:00</time></trkpt><trkpt lat="22.307518" lon="103.775032"><ele>2927.1</ele><time>2011-04-24T04:19:03.0000000+00:00</time></trkpt><trkpt lat="22.307512" lon="103.77504"><ele>2927.7</ele><time>2011-04-24T04:19:08.0000000+00:00</time></trkpt><trkpt lat="22.307493" lon="103.775047"><ele>2928.0</ele><time>2011-04-24T04:19:13.0000000+00:00</time></trkpt><trkpt lat="22.307474" lon="103.775047"><ele>2928.8</ele><time>2011-04-24T04:19:18.0000000+00:00</time></trkpt><trkpt lat="22.307442" lon="103.775063"><ele>2930.1</ele><time>2011-04-24T04:19:23.0000000+00:00</time></trkpt><trkpt lat="22.307398" lon="103.775101"><ele>2931.7</ele><time>2011-04-24T04:19:28.0000000+00:00</time></trkpt><trkpt lat="22.307377" lon="103.775131"><ele>2932.5</ele><time>2011-04-24T04:19:33.0000000+00:00</time></trkpt><trkpt lat="22.30735" lon="103.775139"><ele>2933.6</ele><time>2011-04-24T04:19:38.0000000+00:00</time></trkpt><trkpt lat="22.307329" lon="103.775154"><ele>2935.3</ele><time>2011-04-24T04:19:43.0000000+00:00</time></trkpt><trkpt lat="22.307341" lon="103.775146"><ele>2936.6</ele><time>2011-04-24T04:19:48.0000000+00:00</time></trkpt><trkpt lat="22.307333" lon="103.775146"><ele>2936.7</ele><time>2011-04-24T04:19:53.0000000+00:00</time></trkpt><trkpt lat="22.307329" lon="103.775146"><ele>2937.0</ele><time>2011-04-24T04:19:58.0000000+00:00</time></trkpt><trkpt lat="22.30732" lon="103.775154"><ele>2937.5</ele><time>2011-04-24T04:20:03.0000000+00:00</time></trkpt><trkpt lat="22.30731" lon="103.775154"><ele>2937.6</ele><time>2011-04-24T04:20:08.0000000+00:00</time></trkpt><trkpt lat="22.307287" lon="103.775169"><ele>2939.3</ele><time>2011-04-24T04:20:13.0000000+00:00</time></trkpt><trkpt lat="22.307287" lon="103.775185"><ele>2941.3</ele><time>2011-04-24T04:20:18.0000000+00:00</time></trkpt><trkpt lat="22.30728" lon="103.775185"><ele>2941.8</ele><time>2011-04-24T04:20:23.0000000+00:00</time></trkpt><trkpt lat="22.30727" lon="103.775192"><ele>2942.7</ele><time>2011-04-24T04:20:28.0000000+00:00</time></trkpt><trkpt lat="22.307262" lon="103.775223"><ele>2944.3</ele><time>2011-04-24T04:20:33.0000000+00:00</time></trkpt><trkpt lat="22.307251" lon="103.775246"><ele>2945.8</ele><time>2011-04-24T04:20:38.0000000+00:00</time></trkpt><trkpt lat="22.307255" lon="103.775269"><ele>2947.3</ele><time>2011-04-24T04:20:43.0000000+00:00</time></trkpt><trkpt lat="22.307245" lon="103.775276"><ele>2949.4</ele><time>2011-04-24T04:20:48.0000000+00:00</time></trkpt><trkpt lat="22.30723" lon="103.775284"><ele>2951.7</ele><time>2011-04-24T04:20:53.0000000+00:00</time></trkpt><trkpt lat="22.307217" lon="103.775337"><ele>2952.5</ele><time>2011-04-24T04:20:58.0000000+00:00</time></trkpt><trkpt lat="22.307186" lon="103.775383"><ele>2952.3</ele><time>2011-04-24T04:21:03.0000000+00:00</time></trkpt><trkpt lat="22.30718" lon="103.775429"><ele>2953.5</ele><time>2011-04-24T04:21:08.0000000+00:00</time></trkpt><trkpt lat="22.307173" lon="103.775467"><ele>2954.8</ele><time>2011-04-24T04:21:13.0000000+00:00</time></trkpt><trkpt lat="22.307177" lon="103.775497"><ele>2955.9</ele><time>2011-04-24T04:21:18.0000000+00:00</time></trkpt><trkpt lat="22.307192" lon="103.775528"><ele>2958.3</ele><time>2011-04-24T04:21:23.0000000+00:00</time></trkpt><trkpt lat="22.307194" lon="103.775574"><ele>2960.0</ele><time>2011-04-24T04:21:28.0000000+00:00</time></trkpt><trkpt lat="22.307196" lon="103.775597"><ele>2961.0</ele><time>2011-04-24T04:21:33.0000000+00:00</time></trkpt><trkpt lat="22.307199" lon="103.775597"><ele>2961.4</ele><time>2011-04-24T04:21:38.0000000+00:00</time></trkpt><trkpt lat="22.307196" lon="103.775612"><ele>2961.7</ele><time>2011-04-24T04:21:43.0000000+00:00</time></trkpt><trkpt lat="22.307152" lon="103.775642"><ele>2961.7</ele><time>2011-04-24T04:21:48.0000000+00:00</time></trkpt><trkpt lat="22.307127" lon="103.775681"><ele>2961.5</ele><time>2011-04-24T04:21:53.0000000+00:00</time></trkpt><trkpt lat="22.307114" lon="103.775696"><ele>2961.6</ele><time>2011-04-24T04:21:58.0000000+00:00</time></trkpt><trkpt lat="22.307095" lon="103.775703"><ele>2962.8</ele><time>2011-04-24T04:22:03.0000000+00:00</time></trkpt><trkpt lat="22.307089" lon="103.775696"><ele>2963.5</ele><time>2011-04-24T04:22:08.0000000+00:00</time></trkpt><trkpt lat="22.307083" lon="103.775688"><ele>2964.5</ele><time>2011-04-24T04:22:13.0000000+00:00</time></trkpt><trkpt lat="22.307074" lon="103.775688"><ele>2964.8</ele><time>2011-04-24T04:22:18.0000000+00:00</time></trkpt><trkpt lat="22.30706" lon="103.775665"><ele>2965.0</ele><time>2011-04-24T04:22:23.0000000+00:00</time></trkpt><trkpt lat="22.307049" lon="103.77565"><ele>2965.8</ele><time>2011-04-24T04:22:28.0000000+00:00</time></trkpt><trkpt lat="22.307039" lon="103.775635"><ele>2966.7</ele><time>2011-04-24T04:22:33.0000000+00:00</time></trkpt><trkpt lat="22.307035" lon="103.77562"><ele>2968.5</ele><time>2011-04-24T04:22:38.0000000+00:00</time></trkpt><trkpt lat="22.307041" lon="103.775612"><ele>2968.4</ele><time>2011-04-24T04:22:43.0000000+00:00</time></trkpt><trkpt lat="22.307041" lon="103.775597"><ele>2968.7</ele><time>2011-04-24T04:22:48.0000000+00:00</time></trkpt><trkpt lat="22.307039" lon="103.775589"><ele>2968.7</ele><time>2011-04-24T04:22:53.0000000+00:00</time></trkpt><trkpt lat="22.307037" lon="103.775581"><ele>2968.9</ele><time>2011-04-24T04:22:58.0000000+00:00</time></trkpt><trkpt lat="22.307028" lon="103.775558"><ele>2971.2</ele><time>2011-04-24T04:23:03.0000000+00:00</time></trkpt><trkpt lat="22.307024" lon="103.775536"><ele>2973.0</ele><time>2011-04-24T04:23:08.0000000+00:00</time></trkpt><trkpt lat="22.307011" lon="103.77552"><ele>2974.5</ele><time>2011-04-24T04:23:13.0000000+00:00</time></trkpt><trkpt lat="22.306999" lon="103.775497"><ele>2975.7</ele><time>2011-04-24T04:23:18.0000000+00:00</time></trkpt><trkpt lat="22.306988" lon="103.775482"><ele>2976.0</ele><time>2011-04-24T04:23:23.0000000+00:00</time></trkpt><trkpt lat="22.306978" lon="103.775475"><ele>2977.3</ele><time>2011-04-24T04:23:28.0000000+00:00</time></trkpt><trkpt lat="22.306961" lon="103.775459"><ele>2977.8</ele><time>2011-04-24T04:23:33.0000000+00:00</time></trkpt><trkpt lat="22.306955" lon="103.775452"><ele>2978.8</ele><time>2011-04-24T04:23:38.0000000+00:00</time></trkpt><trkpt lat="22.306948" lon="103.775414"><ele>2980.7</ele><time>2011-04-24T04:23:43.0000000+00:00</time></trkpt><trkpt lat="22.306932" lon="103.775391"><ele>2982.4</ele><time>2011-04-24T04:23:48.0000000+00:00</time></trkpt><trkpt lat="22.306927" lon="103.775383"><ele>2983.2</ele><time>2011-04-24T04:23:53.0000000+00:00</time></trkpt><trkpt lat="22.306919" lon="103.775368"><ele>2983.8</ele><time>2011-04-24T04:23:58.0000000+00:00</time></trkpt><trkpt lat="22.306921" lon="103.775352"><ele>2983.5</ele><time>2011-04-24T04:24:03.0000000+00:00</time></trkpt><trkpt lat="22.306913" lon="103.775352"><ele>2983.8</ele><time>2011-04-24T04:24:08.0000000+00:00</time></trkpt><trkpt lat="22.306902" lon="103.775337"><ele>2985.3</ele><time>2011-04-24T04:24:13.0000000+00:00</time></trkpt><trkpt lat="22.306896" lon="103.775314"><ele>2987.1</ele><time>2011-04-24T04:24:18.0000000+00:00</time></trkpt><trkpt lat="22.306889" lon="103.775299"><ele>2988.0</ele><time>2011-04-24T04:24:23.0000000+00:00</time></trkpt><trkpt lat="22.306883" lon="103.775269"><ele>2989.6</ele><time>2011-04-24T04:24:28.0000000+00:00</time></trkpt><trkpt lat="22.306877" lon="103.775253"><ele>2990.9</ele><time>2011-04-24T04:24:33.0000000+00:00</time></trkpt><trkpt lat="22.306873" lon="103.775223"><ele>2992.1</ele><time>2011-04-24T04:24:38.0000000+00:00</time></trkpt><trkpt lat="22.306866" lon="103.775185"><ele>2993.4</ele><time>2011-04-24T04:24:43.0000000+00:00</time></trkpt><trkpt lat="22.306866" lon="103.775162"><ele>2994.3</ele><time>2011-04-24T04:24:48.0000000+00:00</time></trkpt><trkpt lat="22.306877" lon="103.775124"><ele>2994.7</ele><time>2011-04-24T04:24:53.0000000+00:00</time></trkpt><trkpt lat="22.30687" lon="103.775093"><ele>2995.7</ele><time>2011-04-24T04:24:58.0000000+00:00</time></trkpt><trkpt lat="22.306868" lon="103.775085"><ele>2996.0</ele><time>2011-04-24T04:25:03.0000000+00:00</time></trkpt><trkpt lat="22.306868" lon="103.77507"><ele>2996.3</ele><time>2011-04-24T04:25:08.0000000+00:00</time></trkpt><trkpt lat="22.306856" lon="103.775063"><ele>2997.2</ele><time>2011-04-24T04:25:13.0000000+00:00</time></trkpt><trkpt lat="22.306843" lon="103.775047"><ele>2997.4</ele><time>2011-04-24T04:25:18.0000000+00:00</time></trkpt><trkpt lat="22.306826" lon="103.775032"><ele>2998.9</ele><time>2011-04-24T04:25:23.0000000+00:00</time></trkpt><trkpt lat="22.306822" lon="103.775017"><ele>2999.5</ele><time>2011-04-24T04:25:28.0000000+00:00</time></trkpt><trkpt lat="22.306822" lon="103.775017"><ele>2999.1</ele><time>2011-04-24T04:25:33.0000000+00:00</time></trkpt><trkpt lat="22.306831" lon="103.775002"><ele>2998.7</ele><time>2011-04-24T04:25:38.0000000+00:00</time></trkpt><trkpt lat="22.306835" lon="103.774994"><ele>2998.3</ele><time>2011-04-24T04:25:43.0000000+00:00</time></trkpt><trkpt lat="22.306837" lon="103.774994"><ele>2998.2</ele><time>2011-04-24T04:25:48.0000000+00:00</time></trkpt><trkpt lat="22.306835" lon="103.774994"><ele>2998.2</ele><time>2011-04-24T04:25:53.0000000+00:00</time></trkpt><trkpt lat="22.306828" lon="103.774994"><ele>2998.3</ele><time>2011-04-24T04:25:58.0000000+00:00</time></trkpt><trkpt lat="22.306828" lon="103.774994"><ele>2998.3</ele><time>2011-04-24T04:26:03.0000000+00:00</time></trkpt><trkpt lat="22.306824" lon="103.774994"><ele>2998.3</ele><time>2011-04-24T04:26:08.0000000+00:00</time></trkpt><trkpt lat="22.306822" lon="103.774994"><ele>2998.3</ele><time>2011-04-24T04:26:13.0000000+00:00</time></trkpt><trkpt lat="22.306826" lon="103.774994"><ele>2998.3</ele><time>2011-04-24T04:26:18.0000000+00:00</time></trkpt><trkpt lat="22.306831" lon="103.774994"><ele>2998.0</ele><time>2011-04-24T04:26:23.0000000+00:00</time></trkpt><trkpt lat="22.306831" lon="103.774994"><ele>2998.0</ele><time>2011-04-24T04:26:28.0000000+00:00</time></trkpt><trkpt lat="22.306833" lon="103.775002"><ele>2998.1</ele><time>2011-04-24T04:26:33.0000000+00:00</time></trkpt><trkpt lat="22.306833" lon="103.774994"><ele>2998.1</ele><time>2011-04-24T04:26:38.0000000+00:00</time></trkpt><trkpt lat="22.306833" lon="103.774994"><ele>2998.1</ele><time>2011-04-24T04:26:43.0000000+00:00</time></trkpt><trkpt lat="22.306833" lon="103.774994"><ele>2998.1</ele><time>2011-04-24T04:26:48.0000000+00:00</time></trkpt><trkpt lat="22.306833" lon="103.774994"><ele>2998.1</ele><time>2011-04-24T04:26:53.0000000+00:00</time></trkpt><trkpt lat="22.306833" lon="103.774994"><ele>2998.1</ele><time>2011-04-24T04:26:58.0000000+00:00</time></trkpt><trkpt lat="22.306833" lon="103.775002"><ele>2998.1</ele><time>2011-04-24T04:27:03.0000000+00:00</time></trkpt><trkpt lat="22.306833" lon="103.775002"><ele>2998.1</ele><time>2011-04-24T04:27:08.0000000+00:00</time></trkpt><trkpt lat="22.306833" lon="103.775002"><ele>2998.1</ele><time>2011-04-24T04:27:13.0000000+00:00</time></trkpt><trkpt lat="22.306833" lon="103.775002"><ele>2998.1</ele><time>2011-04-24T04:27:18.0000000+00:00</time></trkpt><trkpt lat="22.306833" lon="103.775002"><ele>2998.1</ele><time>2011-04-24T04:27:23.0000000+00:00</time></trkpt><trkpt lat="22.306833" lon="103.775002"><ele>2998.1</ele><time>2011-04-24T04:27:28.0000000+00:00</time></trkpt><trkpt lat="22.306833" lon="103.775002"><ele>2998.1</ele><time>2011-04-24T04:27:33.0000000+00:00</time></trkpt><trkpt lat="22.306833" lon="103.775002"><ele>2998.0</ele><time>2011-04-24T04:27:38.0000000+00:00</time></trkpt><trkpt lat="22.306833" lon="103.775002"><ele>2998.0</ele><time>2011-04-24T04:27:43.0000000+00:00</time></trkpt><trkpt lat="22.306833" lon="103.775002"><ele>2998.1</ele><time>2011-04-24T04:27:48.0000000+00:00</time></trkpt><trkpt lat="22.306833" lon="103.775002"><ele>2998.1</ele><time>2011-04-24T04:27:53.0000000+00:00</time></trkpt><trkpt lat="22.306833" lon="103.775002"><ele>2998.0</ele><time>2011-04-24T04:27:58.0000000+00:00</time></trkpt><trkpt lat="22.306833" lon="103.775002"><ele>2998.0</ele><time>2011-04-24T04:28:03.0000000+00:00</time></trkpt><trkpt lat="22.306833" lon="103.775002"><ele>2998.0</ele><time>2011-04-24T04:28:08.0000000+00:00</time></trkpt><trkpt lat="22.306833" lon="103.775002"><ele>2998.1</ele><time>2011-04-24T04:28:13.0000000+00:00</time></trkpt><trkpt lat="22.306833" lon="103.775002"><ele>2998.0</ele><time>2011-04-24T04:28:18.0000000+00:00</time></trkpt><trkpt lat="22.306833" lon="103.775002"><ele>2998.0</ele><time>2011-04-24T04:28:23.0000000+00:00</time></trkpt><trkpt lat="22.306833" lon="103.775002"><ele>2998.0</ele><time>2011-04-24T04:28:28.0000000+00:00</time></trkpt><trkpt lat="22.306835" lon="103.775002"><ele>2998.0</ele><time>2011-04-24T04:28:33.0000000+00:00</time></trkpt><trkpt lat="22.306835" lon="103.775002"><ele>2998.0</ele><time>2011-04-24T04:28:38.0000000+00:00</time></trkpt><trkpt lat="22.306835" lon="103.775002"><ele>2998.0</ele><time>2011-04-24T04:28:43.0000000+00:00</time></trkpt><trkpt lat="22.306835" lon="103.775002"><ele>2998.0</ele><time>2011-04-24T04:28:48.0000000+00:00</time></trkpt><trkpt lat="22.306835" lon="103.775002"><ele>2998.0</ele><time>2011-04-24T04:28:53.0000000+00:00</time></trkpt><trkpt lat="22.306835" lon="103.775002"><ele>2998.1</ele><time>2011-04-24T04:28:58.0000000+00:00</time></trkpt><trkpt lat="22.306835" lon="103.775002"><ele>2998.1</ele><time>2011-04-24T04:29:03.0000000+00:00</time></trkpt><trkpt lat="22.306835" lon="103.775002"><ele>2998.1</ele><time>2011-04-24T04:29:08.0000000+00:00</time></trkpt><trkpt lat="22.306837" lon="103.775002"><ele>2998.1</ele><time>2011-04-24T04:29:13.0000000+00:00</time></trkpt><trkpt lat="22.306837" lon="103.775002"><ele>2998.1</ele><time>2011-04-24T04:29:18.0000000+00:00</time></trkpt><trkpt lat="22.306837" lon="103.775002"><ele>2998.1</ele><time>2011-04-24T04:29:23.0000000+00:00</time></trkpt><trkpt lat="22.306837" lon="103.775002"><ele>2998.1</ele><time>2011-04-24T04:29:28.0000000+00:00</time></trkpt><trkpt lat="22.306837" lon="103.775002"><ele>2998.1</ele><time>2011-04-24T04:29:33.0000000+00:00</time></trkpt><trkpt lat="22.306837" lon="103.775002"><ele>2998.1</ele><time>2011-04-24T04:29:38.0000000+00:00</time></trkpt><trkpt lat="22.306837" lon="103.775002"><ele>2998.1</ele><time>2011-04-24T04:29:43.0000000+00:00</time></trkpt><trkpt lat="22.306837" lon="103.775002"><ele>2998.1</ele><time>2011-04-24T04:29:48.0000000+00:00</time></trkpt><trkpt lat="22.306837" lon="103.775002"><ele>2998.1</ele><time>2011-04-24T04:29:53.0000000+00:00</time></trkpt><trkpt lat="22.306837" lon="103.775002"><ele>2998.1</ele><time>2011-04-24T04:29:58.0000000+00:00</time></trkpt><trkpt lat="22.306837" lon="103.775002"><ele>2998.1</ele><time>2011-04-24T04:30:03.0000000+00:00</time></trkpt><trkpt lat="22.306837" lon="103.775002"><ele>2998.1</ele><time>2011-04-24T04:30:08.0000000+00:00</time></trkpt><trkpt lat="22.306837" lon="103.775002"><ele>2998.1</ele><time>2011-04-24T04:30:13.0000000+00:00</time></trkpt><trkpt lat="22.306835" lon="103.775002"><ele>2998.1</ele><time>2011-04-24T04:30:18.0000000+00:00</time></trkpt><trkpt lat="22.306835" lon="103.774994"><ele>2998.1</ele><time>2011-04-24T04:30:23.0000000+00:00</time></trkpt><trkpt lat="22.306833" lon="103.774994"><ele>2998.2</ele><time>2011-04-24T04:30:28.0000000+00:00</time></trkpt><trkpt lat="22.306831" lon="103.774994"><ele>2998.3</ele><time>2011-04-24T04:30:33.0000000+00:00</time></trkpt><trkpt lat="22.306831" lon="103.774994"><ele>2998.3</ele><time>2011-04-24T04:30:38.0000000+00:00</time></trkpt><trkpt lat="22.306831" lon="103.774994"><ele>2998.3</ele><time>2011-04-24T04:30:43.0000000+00:00</time></trkpt><trkpt lat="22.306831" lon="103.774994"><ele>2998.3</ele><time>2011-04-24T04:30:48.0000000+00:00</time></trkpt><trkpt lat="22.306822" lon="103.774979"><ele>2999.5</ele><time>2011-04-24T04:30:53.0000000+00:00</time></trkpt><trkpt lat="22.306801" lon="103.77494"><ele>3001.7</ele><time>2011-04-24T04:30:58.0000000+00:00</time></trkpt><trkpt lat="22.306782" lon="103.774902"><ele>3003.5</ele><time>2011-04-24T04:31:03.0000000+00:00</time></trkpt><trkpt lat="22.306747" lon="103.774887"><ele>3004.7</ele><time>2011-04-24T04:31:08.0000000+00:00</time></trkpt><trkpt lat="22.306717" lon="103.774872"><ele>3005.2</ele><time>2011-04-24T04:31:13.0000000+00:00</time></trkpt><trkpt lat="22.306711" lon="103.774849"><ele>3006.6</ele><time>2011-04-24T04:31:18.0000000+00:00</time></trkpt><trkpt lat="22.306711" lon="103.774811"><ele>3007.1</ele><time>2011-04-24T04:31:23.0000000+00:00</time></trkpt><trkpt lat="22.306707" lon="103.774796"><ele>3008.6</ele><time>2011-04-24T04:31:28.0000000+00:00</time></trkpt><trkpt lat="22.306709" lon="103.774757"><ele>3009.1</ele><time>2011-04-24T04:31:33.0000000+00:00</time></trkpt><trkpt lat="22.306702" lon="103.774734"><ele>3010.0</ele><time>2011-04-24T04:31:38.0000000+00:00</time></trkpt><trkpt lat="22.306692" lon="103.774712"><ele>3010.5</ele><time>2011-04-24T04:31:43.0000000+00:00</time></trkpt><trkpt lat="22.306652" lon="103.774681"><ele>3010.6</ele><time>2011-04-24T04:31:48.0000000+00:00</time></trkpt><trkpt lat="22.306597" lon="103.774696"><ele>3010.6</ele><time>2011-04-24T04:31:53.0000000+00:00</time></trkpt><trkpt lat="22.306553" lon="103.774681"><ele>3011.0</ele><time>2011-04-24T04:31:58.0000000+00:00</time></trkpt><trkpt lat="22.306509" lon="103.774689"><ele>3012.0</ele><time>2011-04-24T04:32:03.0000000+00:00</time></trkpt><trkpt lat="22.306473" lon="103.774681"><ele>3012.2</ele><time>2011-04-24T04:32:08.0000000+00:00</time></trkpt><trkpt lat="22.306437" lon="103.774658"><ele>3013.1</ele><time>2011-04-24T04:32:13.0000000+00:00</time></trkpt><trkpt lat="22.306419" lon="103.774635"><ele>3013.7</ele><time>2011-04-24T04:32:18.0000000+00:00</time></trkpt><trkpt lat="22.306398" lon="103.77462"><ele>3014.2</ele><time>2011-04-24T04:32:23.0000000+00:00</time></trkpt><trkpt lat="22.306374" lon="103.774628"><ele>3015.0</ele><time>2011-04-24T04:32:28.0000000+00:00</time></trkpt><trkpt lat="22.306343" lon="103.774635"><ele>3016.2</ele><time>2011-04-24T04:32:33.0000000+00:00</time></trkpt><trkpt lat="22.306314" lon="103.774651"><ele>3016.7</ele><time>2011-04-24T04:32:38.0000000+00:00</time></trkpt><trkpt lat="22.306286" lon="103.774673"><ele>3017.3</ele><time>2011-04-24T04:32:43.0000000+00:00</time></trkpt><trkpt lat="22.306261" lon="103.774689"><ele>3017.8</ele><time>2011-04-24T04:32:48.0000000+00:00</time></trkpt><trkpt lat="22.306238" lon="103.774696"><ele>3018.3</ele><time>2011-04-24T04:32:53.0000000+00:00</time></trkpt><trkpt lat="22.306206" lon="103.774712"><ele>3018.5</ele><time>2011-04-24T04:32:58.0000000+00:00</time></trkpt><trkpt lat="22.306177" lon="103.774719"><ele>3019.2</ele><time>2011-04-24T04:33:03.0000000+00:00</time></trkpt><trkpt lat="22.30616" lon="103.774734"><ele>3019.9</ele><time>2011-04-24T04:33:08.0000000+00:00</time></trkpt><trkpt lat="22.306158" lon="103.77475"><ele>3019.7</ele><time>2011-04-24T04:33:13.0000000+00:00</time></trkpt><trkpt lat="22.306131" lon="103.774757"><ele>3020.8</ele><time>2011-04-24T04:33:18.0000000+00:00</time></trkpt><trkpt lat="22.30611" lon="103.774757"><ele>3021.7</ele><time>2011-04-24T04:33:23.0000000+00:00</time></trkpt><trkpt lat="22.306108" lon="103.774757"><ele>3022.0</ele><time>2011-04-24T04:33:28.0000000+00:00</time></trkpt><trkpt lat="22.306074" lon="103.77478"><ele>3022.7</ele><time>2011-04-24T04:33:33.0000000+00:00</time></trkpt><trkpt lat="22.306051" lon="103.774818"><ele>3023.6</ele><time>2011-04-24T04:33:38.0000000+00:00</time></trkpt><trkpt lat="22.30603" lon="103.774834"><ele>3023.7</ele><time>2011-04-24T04:33:43.0000000+00:00</time></trkpt><trkpt lat="22.306009" lon="103.774841"><ele>3024.4</ele><time>2011-04-24T04:33:48.0000000+00:00</time></trkpt><trkpt lat="22.305998" lon="103.774841"><ele>3024.5</ele><time>2011-04-24T04:33:53.0000000+00:00</time></trkpt><trkpt lat="22.305975" lon="103.774834"><ele>3024.8</ele><time>2011-04-24T04:33:58.0000000+00:00</time></trkpt><trkpt lat="22.30595" lon="103.774849"><ele>3025.5</ele><time>2011-04-24T04:34:03.0000000+00:00</time></trkpt><trkpt lat="22.305927" lon="103.774857"><ele>3026.2</ele><time>2011-04-24T04:34:08.0000000+00:00</time></trkpt><trkpt lat="22.305902" lon="103.774879"><ele>3027.3</ele><time>2011-04-24T04:34:13.0000000+00:00</time></trkpt><trkpt lat="22.305866" lon="103.774902"><ele>3027.5</ele><time>2011-04-24T04:34:18.0000000+00:00</time></trkpt><trkpt lat="22.305832" lon="103.77491"><ele>3028.3</ele><time>2011-04-24T04:34:23.0000000+00:00</time></trkpt><trkpt lat="22.305803" lon="103.774902"><ele>3029.3</ele><time>2011-04-24T04:34:28.0000000+00:00</time></trkpt><trkpt lat="22.305771" lon="103.774918"><ele>3030.5</ele><time>2011-04-24T04:34:33.0000000+00:00</time></trkpt><trkpt lat="22.30574" lon="103.774925"><ele>3031.6</ele><time>2011-04-24T04:34:38.0000000+00:00</time></trkpt><trkpt lat="22.305702" lon="103.774918"><ele>3032.3</ele><time>2011-04-24T04:34:43.0000000+00:00</time></trkpt><trkpt lat="22.305683" lon="103.774902"><ele>3032.3</ele><time>2011-04-24T04:34:48.0000000+00:00</time></trkpt><trkpt lat="22.305656" lon="103.774887"><ele>3033.8</ele><time>2011-04-24T04:34:53.0000000+00:00</time></trkpt><trkpt lat="22.30563" lon="103.774887"><ele>3035.3</ele><time>2011-04-24T04:34:58.0000000+00:00</time></trkpt><trkpt lat="22.305613" lon="103.774902"><ele>3034.8</ele><time>2011-04-24T04:35:03.0000000+00:00</time></trkpt><trkpt lat="22.305584" lon="103.774918"><ele>3034.6</ele><time>2011-04-24T04:35:08.0000000+00:00</time></trkpt><trkpt lat="22.305548" lon="103.774948"><ele>3033.6</ele><time>2011-04-24T04:35:13.0000000+00:00</time></trkpt><trkpt lat="22.305515" lon="103.774986"><ele>3033.6</ele><time>2011-04-24T04:35:18.0000000+00:00</time></trkpt><trkpt lat="22.305471" lon="103.775024"><ele>3033.7</ele><time>2011-04-24T04:35:23.0000000+00:00</time></trkpt><trkpt lat="22.305431" lon="103.775047"><ele>3034.0</ele><time>2011-04-24T04:35:28.0000000+00:00</time></trkpt><trkpt lat="22.305412" lon="103.775063"><ele>3034.0</ele><time>2011-04-24T04:35:33.0000000+00:00</time></trkpt><trkpt lat="22.305401" lon="103.775078"><ele>3034.2</ele><time>2011-04-24T04:35:38.0000000+00:00</time></trkpt><trkpt lat="22.305386" lon="103.775085"><ele>3034.5</ele><time>2011-04-24T04:35:43.0000000+00:00</time></trkpt><trkpt lat="22.305372" lon="103.775101"><ele>3034.8</ele><time>2011-04-24T04:35:48.0000000+00:00</time></trkpt><trkpt lat="22.305365" lon="103.775108"><ele>3034.4</ele><time>2011-04-24T04:35:53.0000000+00:00</time></trkpt><trkpt lat="22.305365" lon="103.775108"><ele>3034.8</ele><time>2011-04-24T04:35:58.0000000+00:00</time></trkpt><trkpt lat="22.305365" lon="103.775108"><ele>3035.1</ele><time>2011-04-24T04:36:03.0000000+00:00</time></trkpt><trkpt lat="22.305363" lon="103.775116"><ele>3035.5</ele><time>2011-04-24T04:36:08.0000000+00:00</time></trkpt><trkpt lat="22.305359" lon="103.775116"><ele>3035.8</ele><time>2011-04-24T04:36:13.0000000+00:00</time></trkpt><trkpt lat="22.305353" lon="103.775116"><ele>3036.2</ele><time>2011-04-24T04:36:18.0000000+00:00</time></trkpt><trkpt lat="22.305355" lon="103.775124"><ele>3036.6</ele><time>2011-04-24T04:36:23.0000000+00:00</time></trkpt><trkpt lat="22.305359" lon="103.775124"><ele>3036.8</ele><time>2011-04-24T04:36:28.0000000+00:00</time></trkpt><trkpt lat="22.305355" lon="103.775116"><ele>3037.0</ele><time>2011-04-24T04:36:33.0000000+00:00</time></trkpt><trkpt lat="22.305349" lon="103.775116"><ele>3037.3</ele><time>2011-04-24T04:36:38.0000000+00:00</time></trkpt><trkpt lat="22.305344" lon="103.775116"><ele>3037.6</ele><time>2011-04-24T04:36:43.0000000+00:00</time></trkpt><trkpt lat="22.305332" lon="103.775124"><ele>3038.3</ele><time>2011-04-24T04:36:48.0000000+00:00</time></trkpt><trkpt lat="22.305313" lon="103.775116"><ele>3038.5</ele><time>2011-04-24T04:36:53.0000000+00:00</time></trkpt><trkpt lat="22.305281" lon="103.775116"><ele>3039.4</ele><time>2011-04-24T04:36:58.0000000+00:00</time></trkpt><trkpt lat="22.305252" lon="103.775124"><ele>3040.2</ele><time>2011-04-24T04:37:03.0000000+00:00</time></trkpt><trkpt lat="22.305216" lon="103.775131"><ele>3040.7</ele><time>2011-04-24T04:37:08.0000000+00:00</time></trkpt><trkpt lat="22.305204" lon="103.775124"><ele>3042.5</ele><time>2011-04-24T04:37:13.0000000+00:00</time></trkpt><trkpt lat="22.305183" lon="103.775139"><ele>3042.8</ele><time>2011-04-24T04:37:18.0000000+00:00</time></trkpt><trkpt lat="22.305178" lon="103.775139"><ele>3043.7</ele><time>2011-04-24T04:37:23.0000000+00:00</time></trkpt><trkpt lat="22.305168" lon="103.775139"><ele>3044.5</ele><time>2011-04-24T04:37:28.0000000+00:00</time></trkpt><trkpt lat="22.305138" lon="103.775131"><ele>3044.5</ele><time>2011-04-24T04:37:33.0000000+00:00</time></trkpt><trkpt lat="22.305117" lon="103.775124"><ele>3045.1</ele><time>2011-04-24T04:37:38.0000000+00:00</time></trkpt><trkpt lat="22.305086" lon="103.775124"><ele>3045.5</ele><time>2011-04-24T04:37:43.0000000+00:00</time></trkpt><trkpt lat="22.305067" lon="103.775116"><ele>3045.7</ele><time>2011-04-24T04:37:48.0000000+00:00</time></trkpt><trkpt lat="22.305063" lon="103.775108"><ele>3046.3</ele><time>2011-04-24T04:37:53.0000000+00:00</time></trkpt><trkpt lat="22.305058" lon="103.775108"><ele>3048.3</ele><time>2011-04-24T04:37:58.0000000+00:00</time></trkpt><trkpt lat="22.305025" lon="103.775108"><ele>3049.2</ele><time>2011-04-24T04:38:03.0000000+00:00</time></trkpt><trkpt lat="22.304991" lon="103.775101"><ele>3051.1</ele><time>2011-04-24T04:38:08.0000000+00:00</time></trkpt><trkpt lat="22.304964" lon="103.775108"><ele>3053.5</ele><time>2011-04-24T04:38:13.0000000+00:00</time></trkpt><trkpt lat="22.304943" lon="103.775146"><ele>3054.6</ele><time>2011-04-24T04:38:18.0000000+00:00</time></trkpt><trkpt lat="22.304928" lon="103.775162"><ele>3055.6</ele><time>2011-04-24T04:38:23.0000000+00:00</time></trkpt><trkpt lat="22.304922" lon="103.775162"><ele>3056.8</ele><time>2011-04-24T04:38:28.0000000+00:00</time></trkpt><trkpt lat="22.304922" lon="103.775162"><ele>3057.2</ele><time>2011-04-24T04:38:33.0000000+00:00</time></trkpt><trkpt lat="22.304911" lon="103.775177"><ele>3057.2</ele><time>2011-04-24T04:38:38.0000000+00:00</time></trkpt><trkpt lat="22.304869" lon="103.775192"><ele>3059.3</ele><time>2011-04-24T04:38:43.0000000+00:00</time></trkpt><trkpt lat="22.304829" lon="103.775208"><ele>3060.2</ele><time>2011-04-24T04:38:48.0000000+00:00</time></trkpt><trkpt lat="22.304798" lon="103.77523"><ele>3061.2</ele><time>2011-04-24T04:38:53.0000000+00:00</time></trkpt><trkpt lat="22.304775" lon="103.775238"><ele>3062.4</ele><time>2011-04-24T04:38:58.0000000+00:00</time></trkpt><trkpt lat="22.304735" lon="103.775261"><ele>3063.6</ele><time>2011-04-24T04:39:03.0000000+00:00</time></trkpt><trkpt lat="22.304705" lon="103.775253"><ele>3064.3</ele><time>2011-04-24T04:39:08.0000000+00:00</time></trkpt><trkpt lat="22.304682" lon="103.775253"><ele>3065.2</ele><time>2011-04-24T04:39:13.0000000+00:00</time></trkpt><trkpt lat="22.304672" lon="103.775246"><ele>3065.8</ele><time>2011-04-24T04:39:18.0000000+00:00</time></trkpt><trkpt lat="22.304672" lon="103.775253"><ele>3066.1</ele><time>2011-04-24T04:39:23.0000000+00:00</time></trkpt><trkpt lat="22.304655" lon="103.775238"><ele>3066.2</ele><time>2011-04-24T04:39:28.0000000+00:00</time></trkpt><trkpt lat="22.304625" lon="103.775253"><ele>3067.2</ele><time>2011-04-24T04:39:33.0000000+00:00</time></trkpt><trkpt lat="22.3046" lon="103.775269"><ele>3068.7</ele><time>2011-04-24T04:39:38.0000000+00:00</time></trkpt><trkpt lat="22.304565" lon="103.775276"><ele>3069.7</ele><time>2011-04-24T04:39:43.0000000+00:00</time></trkpt><trkpt lat="22.304562" lon="103.775307"><ele>3069.8</ele><time>2011-04-24T04:39:48.0000000+00:00</time></trkpt><trkpt lat="22.304543" lon="103.775322"><ele>3069.4</ele><time>2011-04-24T04:39:53.0000000+00:00</time></trkpt><trkpt lat="22.304504" lon="103.775322"><ele>3069.5</ele><time>2011-04-24T04:39:58.0000000+00:00</time></trkpt><trkpt lat="22.304459" lon="103.775299"><ele>3069.3</ele><time>2011-04-24T04:40:03.0000000+00:00</time></trkpt><trkpt lat="22.304401" lon="103.775269"><ele>3067.5</ele><time>2011-04-24T04:40:08.0000000+00:00</time></trkpt><trkpt lat="22.304382" lon="103.775276"><ele>3066.7</ele><time>2011-04-24T04:40:13.0000000+00:00</time></trkpt><trkpt lat="22.304379" lon="103.775291"><ele>3066.7</ele><time>2011-04-24T04:40:18.0000000+00:00</time></trkpt><trkpt lat="22.304375" lon="103.775291"><ele>3066.6</ele><time>2011-04-24T04:40:23.0000000+00:00</time></trkpt><trkpt lat="22.304373" lon="103.775291"><ele>3066.5</ele><time>2011-04-24T04:40:28.0000000+00:00</time></trkpt><trkpt lat="22.304371" lon="103.775291"><ele>3066.5</ele><time>2011-04-24T04:40:33.0000000+00:00</time></trkpt><trkpt lat="22.304365" lon="103.775291"><ele>3066.3</ele><time>2011-04-24T04:40:38.0000000+00:00</time></trkpt><trkpt lat="22.304321" lon="103.775276"><ele>3066.3</ele><time>2011-04-24T04:40:43.0000000+00:00</time></trkpt><trkpt lat="22.30431" lon="103.775269"><ele>3068.0</ele><time>2011-04-24T04:40:48.0000000+00:00</time></trkpt><trkpt lat="22.30431" lon="103.775269"><ele>3068.0</ele><time>2011-04-24T04:40:53.0000000+00:00</time></trkpt><trkpt lat="22.304293" lon="103.775269"><ele>3068.7</ele><time>2011-04-24T04:40:58.0000000+00:00</time></trkpt><trkpt lat="22.304283" lon="103.775269"><ele>3069.3</ele><time>2011-04-24T04:41:03.0000000+00:00</time></trkpt><trkpt lat="22.304289" lon="103.775269"><ele>3069.7</ele><time>2011-04-24T04:41:08.0000000+00:00</time></trkpt><trkpt lat="22.304287" lon="103.775269"><ele>3069.8</ele><time>2011-04-24T04:41:13.0000000+00:00</time></trkpt><trkpt lat="22.304279" lon="103.775276"><ele>3070.0</ele><time>2011-04-24T04:41:18.0000000+00:00</time></trkpt><trkpt lat="22.304279" lon="103.775276"><ele>3070.1</ele><time>2011-04-24T04:41:23.0000000+00:00</time></trkpt><trkpt lat="22.304279" lon="103.775276"><ele>3070.2</ele><time>2011-04-24T04:41:28.0000000+00:00</time></trkpt><trkpt lat="22.304277" lon="103.775276"><ele>3070.2</ele><time>2011-04-24T04:41:33.0000000+00:00</time></trkpt><trkpt lat="22.304276" lon="103.775276"><ele>3070.2</ele><time>2011-04-24T04:41:38.0000000+00:00</time></trkpt><trkpt lat="22.304256" lon="103.775261"><ele>3070.5</ele><time>2011-04-24T04:41:43.0000000+00:00</time></trkpt><trkpt lat="22.304239" lon="103.775261"><ele>3070.8</ele><time>2011-04-24T04:41:48.0000000+00:00</time></trkpt><trkpt lat="22.304232" lon="103.775253"><ele>3070.8</ele><time>2011-04-24T04:41:53.0000000+00:00</time></trkpt><trkpt lat="22.30423" lon="103.775246"><ele>3071.0</ele><time>2011-04-24T04:41:58.0000000+00:00</time></trkpt><trkpt lat="22.304228" lon="103.775253"><ele>3071.1</ele><time>2011-04-24T04:42:03.0000000+00:00</time></trkpt><trkpt lat="22.304224" lon="103.775253"><ele>3071.3</ele><time>2011-04-24T04:42:08.0000000+00:00</time></trkpt><trkpt lat="22.30422" lon="103.775261"><ele>3071.5</ele><time>2011-04-24T04:42:13.0000000+00:00</time></trkpt><trkpt lat="22.304216" lon="103.775269"><ele>3071.8</ele><time>2011-04-24T04:42:18.0000000+00:00</time></trkpt><trkpt lat="22.304199" lon="103.775291"><ele>3072.2</ele><time>2011-04-24T04:42:23.0000000+00:00</time></trkpt><trkpt lat="22.30418" lon="103.775299"><ele>3072.5</ele><time>2011-04-24T04:42:28.0000000+00:00</time></trkpt><trkpt lat="22.304173" lon="103.775307"><ele>3072.8</ele><time>2011-04-24T04:42:33.0000000+00:00</time></trkpt><trkpt lat="22.304167" lon="103.775307"><ele>3073.1</ele><time>2011-04-24T04:42:38.0000000+00:00</time></trkpt><trkpt lat="22.304163" lon="103.775322"><ele>3073.5</ele><time>2011-04-24T04:42:43.0000000+00:00</time></trkpt><trkpt lat="22.304165" lon="103.77533"><ele>3073.9</ele><time>2011-04-24T04:42:48.0000000+00:00</time></trkpt><trkpt lat="22.304171" lon="103.77533"><ele>3074.4</ele><time>2011-04-24T04:42:53.0000000+00:00</time></trkpt><trkpt lat="22.304178" lon="103.775337"><ele>3074.9</ele><time>2011-04-24T04:42:58.0000000+00:00</time></trkpt><trkpt lat="22.304186" lon="103.775345"><ele>3075.6</ele><time>2011-04-24T04:43:03.0000000+00:00</time></trkpt><trkpt lat="22.304192" lon="103.775345"><ele>3076.3</ele><time>2011-04-24T04:43:08.0000000+00:00</time></trkpt><trkpt lat="22.304197" lon="103.775345"><ele>3077.2</ele><time>2011-04-24T04:43:13.0000000+00:00</time></trkpt><trkpt lat="22.304205" lon="103.775345"><ele>3078.0</ele><time>2011-04-24T04:43:18.0000000+00:00</time></trkpt><trkpt lat="22.304214" lon="103.775345"><ele>3079.0</ele><time>2011-04-24T04:43:23.0000000+00:00</time></trkpt><trkpt lat="22.304218" lon="103.775345"><ele>3079.9</ele><time>2011-04-24T04:43:28.0000000+00:00</time></trkpt><trkpt lat="22.30422" lon="103.775345"><ele>3080.8</ele><time>2011-04-24T04:43:33.0000000+00:00</time></trkpt><trkpt lat="22.304224" lon="103.775345"><ele>3081.6</ele><time>2011-04-24T04:43:38.0000000+00:00</time></trkpt><trkpt lat="22.304216" lon="103.775352"><ele>3081.8</ele><time>2011-04-24T04:43:43.0000000+00:00</time></trkpt><trkpt lat="22.30418" lon="103.77536"><ele>3080.7</ele><time>2011-04-24T04:43:48.0000000+00:00</time></trkpt><trkpt lat="22.304121" lon="103.775345"><ele>3081.2</ele><time>2011-04-24T04:43:53.0000000+00:00</time></trkpt><trkpt lat="22.304108" lon="103.77536"><ele>3081.5</ele><time>2011-04-24T04:43:58.0000000+00:00</time></trkpt><trkpt lat="22.304098" lon="103.775352"><ele>3081.7</ele><time>2011-04-24T04:44:03.0000000+00:00</time></trkpt><trkpt lat="22.304062" lon="103.775352"><ele>3082.0</ele><time>2011-04-24T04:44:08.0000000+00:00</time></trkpt><trkpt lat="22.304058" lon="103.77533"><ele>3082.7</ele><time>2011-04-24T04:44:13.0000000+00:00</time></trkpt><trkpt lat="22.304047" lon="103.77533"><ele>3083.2</ele><time>2011-04-24T04:44:18.0000000+00:00</time></trkpt><trkpt lat="22.304031" lon="103.775337"><ele>3084.7</ele><time>2011-04-24T04:44:23.0000000+00:00</time></trkpt><trkpt lat="22.304014" lon="103.775345"><ele>3086.7</ele><time>2011-04-24T04:44:28.0000000+00:00</time></trkpt><trkpt lat="22.303997" lon="103.775337"><ele>3088.2</ele><time>2011-04-24T04:44:33.0000000+00:00</time></trkpt><trkpt lat="22.303974" lon="103.775322"><ele>3089.9</ele><time>2011-04-24T04:44:38.0000000+00:00</time></trkpt><trkpt lat="22.303976" lon="103.775322"><ele>3091.0</ele><time>2011-04-24T04:44:43.0000000+00:00</time></trkpt><trkpt lat="22.303968" lon="103.775314"><ele>3091.6</ele><time>2011-04-24T04:44:48.0000000+00:00</time></trkpt><trkpt lat="22.303974" lon="103.775322"><ele>3092.4</ele><time>2011-04-24T04:44:53.0000000+00:00</time></trkpt><trkpt lat="22.304001" lon="103.775345"><ele>3093.9</ele><time>2011-04-24T04:44:58.0000000+00:00</time></trkpt><trkpt lat="22.304014" lon="103.775352"><ele>3095.8</ele><time>2011-04-24T04:45:03.0000000+00:00</time></trkpt><trkpt lat="22.304022" lon="103.77536"><ele>3096.9</ele><time>2011-04-24T04:45:08.0000000+00:00</time></trkpt><trkpt lat="22.304016" lon="103.775352"><ele>3097.8</ele><time>2011-04-24T04:45:13.0000000+00:00</time></trkpt><trkpt lat="22.30401" lon="103.775352"><ele>3098.5</ele><time>2011-04-24T04:45:18.0000000+00:00</time></trkpt><trkpt lat="22.304008" lon="103.775352"><ele>3099.5</ele><time>2011-04-24T04:45:23.0000000+00:00</time></trkpt><trkpt lat="22.30397" lon="103.77536"><ele>3100.7</ele><time>2011-04-24T04:45:28.0000000+00:00</time></trkpt><trkpt lat="22.303907" lon="103.775391"><ele>3102.2</ele><time>2011-04-24T04:45:33.0000000+00:00</time></trkpt><trkpt lat="22.303852" lon="103.775436"><ele>3104.2</ele><time>2011-04-24T04:45:38.0000000+00:00</time></trkpt><trkpt lat="22.303831" lon="103.775421"><ele>3106.0</ele><time>2011-04-24T04:45:43.0000000+00:00</time></trkpt><trkpt lat="22.303818" lon="103.775421"><ele>3107.3</ele><time>2011-04-24T04:45:48.0000000+00:00</time></trkpt><trkpt lat="22.303806" lon="103.775414"><ele>3108.3</ele><time>2011-04-24T04:45:53.0000000+00:00</time></trkpt><trkpt lat="22.303801" lon="103.775406"><ele>3109.2</ele><time>2011-04-24T04:45:58.0000000+00:00</time></trkpt><trkpt lat="22.303797" lon="103.775406"><ele>3110.2</ele><time>2011-04-24T04:46:03.0000000+00:00</time></trkpt><trkpt lat="22.303797" lon="103.775406"><ele>3111.2</ele><time>2011-04-24T04:46:08.0000000+00:00</time></trkpt><trkpt lat="22.303793" lon="103.775406"><ele>3112.2</ele><time>2011-04-24T04:46:13.0000000+00:00</time></trkpt><trkpt lat="22.303789" lon="103.775421"><ele>3111.5</ele><time>2011-04-24T04:46:18.0000000+00:00</time></trkpt><trkpt lat="22.303787" lon="103.775429"><ele>3111.3</ele><time>2011-04-24T04:46:23.0000000+00:00</time></trkpt><trkpt lat="22.303785" lon="103.775452"><ele>3111.3</ele><time>2011-04-24T04:46:28.0000000+00:00</time></trkpt><trkpt lat="22.303782" lon="103.775467"><ele>3111.2</ele><time>2011-04-24T04:46:33.0000000+00:00</time></trkpt><trkpt lat="22.303753" lon="103.775459"><ele>3111.2</ele><time>2011-04-24T04:46:38.0000000+00:00</time></trkpt><trkpt lat="22.303722" lon="103.775452"><ele>3111.0</ele><time>2011-04-24T04:46:43.0000000+00:00</time></trkpt><trkpt lat="22.303688" lon="103.775444"><ele>3111.0</ele><time>2011-04-24T04:46:48.0000000+00:00</time></trkpt><trkpt lat="22.303667" lon="103.775459"><ele>3110.4</ele><time>2011-04-24T04:46:53.0000000+00:00</time></trkpt><trkpt lat="22.30364" lon="103.775459"><ele>3110.7</ele><time>2011-04-24T04:46:58.0000000+00:00</time></trkpt><trkpt lat="22.303623" lon="103.775482"><ele>3110.5</ele><time>2011-04-24T04:47:03.0000000+00:00</time></trkpt><trkpt lat="22.303631" lon="103.775482"><ele>3110.3</ele><time>2011-04-24T04:47:08.0000000+00:00</time></trkpt><trkpt lat="22.303602" lon="103.775505"><ele>3111.6</ele><time>2011-04-24T04:47:13.0000000+00:00</time></trkpt><trkpt lat="22.303589" lon="103.77549"><ele>3112.6</ele><time>2011-04-24T04:47:18.0000000+00:00</time></trkpt><trkpt lat="22.303579" lon="103.77549"><ele>3113.0</ele><time>2011-04-24T04:47:23.0000000+00:00</time></trkpt><trkpt lat="22.303572" lon="103.775513"><ele>3114.8</ele><time>2011-04-24T04:47:28.0000000+00:00</time></trkpt><trkpt lat="22.303593" lon="103.775528"><ele>3115.7</ele><time>2011-04-24T04:47:33.0000000+00:00</time></trkpt><trkpt lat="22.303595" lon="103.77552"><ele>3115.8</ele><time>2011-04-24T04:47:38.0000000+00:00</time></trkpt><trkpt lat="22.303591" lon="103.77552"><ele>3115.5</ele><time>2011-04-24T04:47:43.0000000+00:00</time></trkpt><trkpt lat="22.303589" lon="103.77552"><ele>3115.6</ele><time>2011-04-24T04:47:48.0000000+00:00</time></trkpt><trkpt lat="22.303589" lon="103.77552"><ele>3115.6</ele><time>2011-04-24T04:47:53.0000000+00:00</time></trkpt><trkpt lat="22.303589" lon="103.77552"><ele>3115.6</ele><time>2011-04-24T04:47:58.0000000+00:00</time></trkpt><trkpt lat="22.303589" lon="103.77552"><ele>3115.6</ele><time>2011-04-24T04:48:03.0000000+00:00</time></trkpt><trkpt lat="22.303589" lon="103.77552"><ele>3115.7</ele><time>2011-04-24T04:48:08.0000000+00:00</time></trkpt><trkpt lat="22.303587" lon="103.775513"><ele>3115.7</ele><time>2011-04-24T04:48:13.0000000+00:00</time></trkpt><trkpt lat="22.303574" lon="103.775482"><ele>3116.1</ele><time>2011-04-24T04:48:18.0000000+00:00</time></trkpt><trkpt lat="22.30357" lon="103.775467"><ele>3117.2</ele><time>2011-04-24T04:48:23.0000000+00:00</time></trkpt><trkpt lat="22.303566" lon="103.775452"><ele>3118.0</ele><time>2011-04-24T04:48:28.0000000+00:00</time></trkpt><trkpt lat="22.30356" lon="103.775444"><ele>3118.2</ele><time>2011-04-24T04:48:33.0000000+00:00</time></trkpt><trkpt lat="22.303543" lon="103.775444"><ele>3119.1</ele><time>2011-04-24T04:48:38.0000000+00:00</time></trkpt><trkpt lat="22.303549" lon="103.775452"><ele>3119.2</ele><time>2011-04-24T04:48:43.0000000+00:00</time></trkpt><trkpt lat="22.303532" lon="103.775444"><ele>3119.8</ele><time>2011-04-24T04:48:48.0000000+00:00</time></trkpt><trkpt lat="22.303522" lon="103.775436"><ele>3120.4</ele><time>2011-04-24T04:48:53.0000000+00:00</time></trkpt><trkpt lat="22.303513" lon="103.775444"><ele>3120.9</ele><time>2011-04-24T04:48:58.0000000+00:00</time></trkpt><trkpt lat="22.303513" lon="103.775444"><ele>3121.7</ele><time>2011-04-24T04:49:03.0000000+00:00</time></trkpt><trkpt lat="22.303518" lon="103.775436"><ele>3122.2</ele><time>2011-04-24T04:49:08.0000000+00:00</time></trkpt><trkpt lat="22.303488" lon="103.775406"><ele>3121.7</ele><time>2011-04-24T04:49:13.0000000+00:00</time></trkpt><trkpt lat="22.303482" lon="103.775368"><ele>3121.8</ele><time>2011-04-24T04:49:18.0000000+00:00</time></trkpt><trkpt lat="22.303469" lon="103.775345"><ele>3122.2</ele><time>2011-04-24T04:49:23.0000000+00:00</time></trkpt><trkpt lat="22.30345" lon="103.77533"><ele>3122.4</ele><time>2011-04-24T04:49:28.0000000+00:00</time></trkpt><trkpt lat="22.303448" lon="103.775307"><ele>3123.1</ele><time>2011-04-24T04:49:33.0000000+00:00</time></trkpt><trkpt lat="22.303455" lon="103.775269"><ele>3123.3</ele><time>2011-04-24T04:49:38.0000000+00:00</time></trkpt><trkpt lat="22.303455" lon="103.775238"><ele>3124.1</ele><time>2011-04-24T04:49:43.0000000+00:00</time></trkpt><trkpt lat="22.303442" lon="103.7752"><ele>3124.8</ele><time>2011-04-24T04:49:48.0000000+00:00</time></trkpt><trkpt lat="22.303427" lon="103.775185"><ele>3126.0</ele><time>2011-04-24T04:49:53.0000000+00:00</time></trkpt><trkpt lat="22.303413" lon="103.775177"><ele>3127.1</ele><time>2011-04-24T04:49:58.0000000+00:00</time></trkpt><trkpt lat="22.303411" lon="103.775177"><ele>3127.5</ele><time>2011-04-24T04:50:03.0000000+00:00</time></trkpt><trkpt lat="22.303411" lon="103.775146"><ele>3128.0</ele><time>2011-04-24T04:50:08.0000000+00:00</time></trkpt><trkpt lat="22.303415" lon="103.775131"><ele>3128.0</ele><time>2011-04-24T04:50:13.0000000+00:00</time></trkpt><trkpt lat="22.303408" lon="103.775131"><ele>3127.4</ele><time>2011-04-24T04:50:18.0000000+00:00</time></trkpt><trkpt lat="22.303408" lon="103.775131"><ele>3127.4</ele><time>2011-04-24T04:50:23.0000000+00:00</time></trkpt><trkpt lat="22.303408" lon="103.775131"><ele>3127.3</ele><time>2011-04-24T04:50:28.0000000+00:00</time></trkpt><trkpt lat="22.303408" lon="103.775124"><ele>3127.5</ele><time>2011-04-24T04:50:33.0000000+00:00</time></trkpt><trkpt lat="22.303408" lon="103.775124"><ele>3127.5</ele><time>2011-04-24T04:50:38.0000000+00:00</time></trkpt><trkpt lat="22.30341" lon="103.775131"><ele>3128.2</ele><time>2011-04-24T04:50:43.0000000+00:00</time></trkpt><trkpt lat="22.303411" lon="103.775154"><ele>3130.8</ele><time>2011-04-24T04:50:48.0000000+00:00</time></trkpt><trkpt lat="22.303425" lon="103.775185"><ele>3132.1</ele><time>2011-04-24T04:50:53.0000000+00:00</time></trkpt><trkpt lat="22.303377" lon="103.775192"><ele>3134.2</ele><time>2011-04-24T04:50:58.0000000+00:00</time></trkpt><trkpt lat="22.303364" lon="103.775177"><ele>3135.4</ele><time>2011-04-24T04:51:03.0000000+00:00</time></trkpt><trkpt lat="22.303347" lon="103.7752"><ele>3135.8</ele><time>2011-04-24T04:51:08.0000000+00:00</time></trkpt><trkpt lat="22.303322" lon="103.775246"><ele>3136.6</ele><time>2011-04-24T04:51:13.0000000+00:00</time></trkpt><trkpt lat="22.303288" lon="103.775246"><ele>3136.9</ele><time>2011-04-24T04:51:18.0000000+00:00</time></trkpt><trkpt lat="22.303246" lon="103.775253"><ele>3137.7</ele><time>2011-04-24T04:51:23.0000000+00:00</time></trkpt><trkpt lat="22.303217" lon="103.775261"><ele>3139.9</ele><time>2011-04-24T04:51:28.0000000+00:00</time></trkpt><trkpt lat="22.3032" lon="103.775276"><ele>3141.1</ele><time>2011-04-24T04:51:33.0000000+00:00</time></trkpt><trkpt lat="22.303192" lon="103.775276"><ele>3140.6</ele><time>2011-04-24T04:51:38.0000000+00:00</time></trkpt><trkpt lat="22.303194" lon="103.775284"><ele>3140.6</ele><time>2011-04-24T04:51:43.0000000+00:00</time></trkpt><trkpt lat="22.303194" lon="103.775284"><ele>3140.5</ele><time>2011-04-24T04:51:48.0000000+00:00</time></trkpt><trkpt lat="22.303209" lon="103.775269"><ele>3140.2</ele><time>2011-04-24T04:51:53.0000000+00:00</time></trkpt><trkpt lat="22.303213" lon="103.775261"><ele>3139.7</ele><time>2011-04-24T04:51:58.0000000+00:00</time></trkpt><trkpt lat="22.303226" lon="103.775253"><ele>3140.7</ele><time>2011-04-24T04:52:03.0000000+00:00</time></trkpt><trkpt lat="22.303244" lon="103.77523"><ele>3141.5</ele><time>2011-04-24T04:52:08.0000000+00:00</time></trkpt><trkpt lat="22.303247" lon="103.775208"><ele>3141.7</ele><time>2011-04-24T04:52:13.0000000+00:00</time></trkpt><trkpt lat="22.303226" lon="103.7752"><ele>3142.1</ele><time>2011-04-24T04:52:18.0000000+00:00</time></trkpt><trkpt lat="22.303226" lon="103.775192"><ele>3142.5</ele><time>2011-04-24T04:52:23.0000000+00:00</time></trkpt><trkpt lat="22.303223" lon="103.7752"><ele>3143.2</ele><time>2011-04-24T04:52:28.0000000+00:00</time></trkpt><trkpt lat="22.303226" lon="103.775192"><ele>3143.2</ele><time>2011-04-24T04:52:33.0000000+00:00</time></trkpt><trkpt lat="22.303226" lon="103.775185"><ele>3143.2</ele><time>2011-04-24T04:52:38.0000000+00:00</time></trkpt><trkpt lat="22.303226" lon="103.775192"><ele>3143.0</ele><time>2011-04-24T04:52:43.0000000+00:00</time></trkpt><trkpt lat="22.303226" lon="103.775192"><ele>3143.0</ele><time>2011-04-24T04:52:48.0000000+00:00</time></trkpt><trkpt lat="22.303226" lon="103.775192"><ele>3143.1</ele><time>2011-04-24T04:52:53.0000000+00:00</time></trkpt><trkpt lat="22.303225" lon="103.775192"><ele>3143.2</ele><time>2011-04-24T04:52:58.0000000+00:00</time></trkpt><trkpt lat="22.303225" lon="103.775192"><ele>3143.1</ele><time>2011-04-24T04:53:03.0000000+00:00</time></trkpt><trkpt lat="22.303225" lon="103.775192"><ele>3143.1</ele><time>2011-04-24T04:53:08.0000000+00:00</time></trkpt><trkpt lat="22.303225" lon="103.775192"><ele>3143.0</ele><time>2011-04-24T04:53:13.0000000+00:00</time></trkpt><trkpt lat="22.303225" lon="103.775192"><ele>3143.0</ele><time>2011-04-24T04:53:18.0000000+00:00</time></trkpt><trkpt lat="22.303225" lon="103.775192"><ele>3143.0</ele><time>2011-04-24T04:53:23.0000000+00:00</time></trkpt><trkpt lat="22.303225" lon="103.775192"><ele>3143.0</ele><time>2011-04-24T04:53:28.0000000+00:00</time></trkpt><trkpt lat="22.303226" lon="103.775192"><ele>3143.0</ele><time>2011-04-24T04:53:33.0000000+00:00</time></trkpt><trkpt lat="22.303228" lon="103.775185"><ele>3142.8</ele><time>2011-04-24T04:53:38.0000000+00:00</time></trkpt><trkpt lat="22.303228" lon="103.775185"><ele>3142.8</ele><time>2011-04-24T04:53:43.0000000+00:00</time></trkpt><trkpt lat="22.30323" lon="103.775185"><ele>3142.5</ele><time>2011-04-24T04:53:48.0000000+00:00</time></trkpt><trkpt lat="22.303232" lon="103.775185"><ele>3142.5</ele><time>2011-04-24T04:53:53.0000000+00:00</time></trkpt><trkpt lat="22.303234" lon="103.775177"><ele>3142.4</ele><time>2011-04-24T04:53:58.0000000+00:00</time></trkpt><trkpt lat="22.303232" lon="103.775177"><ele>3142.4</ele><time>2011-04-24T04:54:03.0000000+00:00</time></trkpt><trkpt lat="22.303232" lon="103.775177"><ele>3142.4</ele><time>2011-04-24T04:54:08.0000000+00:00</time></trkpt><trkpt lat="22.303232" lon="103.775177"><ele>3142.5</ele><time>2011-04-24T04:54:13.0000000+00:00</time></trkpt><trkpt lat="22.303232" lon="103.775177"><ele>3142.5</ele><time>2011-04-24T04:54:18.0000000+00:00</time></trkpt><trkpt lat="22.303232" lon="103.775177"><ele>3142.5</ele><time>2011-04-24T04:54:23.0000000+00:00</time></trkpt><trkpt lat="22.303232" lon="103.775177"><ele>3142.5</ele><time>2011-04-24T04:54:28.0000000+00:00</time></trkpt><trkpt lat="22.303228" lon="103.775177"><ele>3142.6</ele><time>2011-04-24T04:54:33.0000000+00:00</time></trkpt><trkpt lat="22.303228" lon="103.775177"><ele>3142.7</ele><time>2011-04-24T04:54:38.0000000+00:00</time></trkpt><trkpt lat="22.303228" lon="103.775177"><ele>3142.7</ele><time>2011-04-24T04:54:43.0000000+00:00</time></trkpt><trkpt lat="22.30323" lon="103.775177"><ele>3142.7</ele><time>2011-04-24T04:54:48.0000000+00:00</time></trkpt><trkpt lat="22.30323" lon="103.775177"><ele>3142.7</ele><time>2011-04-24T04:54:53.0000000+00:00</time></trkpt><trkpt lat="22.30323" lon="103.775177"><ele>3142.7</ele><time>2011-04-24T04:54:58.0000000+00:00</time></trkpt><trkpt lat="22.303234" lon="103.775177"><ele>3142.8</ele><time>2011-04-24T04:55:03.0000000+00:00</time></trkpt><trkpt lat="22.303234" lon="103.775177"><ele>3142.8</ele><time>2011-04-24T04:55:08.0000000+00:00</time></trkpt><trkpt lat="22.303234" lon="103.775177"><ele>3142.8</ele><time>2011-04-24T04:55:13.0000000+00:00</time></trkpt><trkpt lat="22.303234" lon="103.775177"><ele>3142.8</ele><time>2011-04-24T04:55:18.0000000+00:00</time></trkpt><trkpt lat="22.303234" lon="103.775177"><ele>3142.8</ele><time>2011-04-24T04:55:23.0000000+00:00</time></trkpt><trkpt lat="22.303234" lon="103.775177"><ele>3142.9</ele><time>2011-04-24T04:55:28.0000000+00:00</time></trkpt><trkpt lat="22.303234" lon="103.775177"><ele>3142.9</ele><time>2011-04-24T04:55:33.0000000+00:00</time></trkpt><trkpt lat="22.303234" lon="103.775177"><ele>3143.0</ele><time>2011-04-24T04:55:38.0000000+00:00</time></trkpt><trkpt lat="22.303234" lon="103.775177"><ele>3143.1</ele><time>2011-04-24T04:55:43.0000000+00:00</time></trkpt><trkpt lat="22.303236" lon="103.775177"><ele>3143.1</ele><time>2011-04-24T04:55:48.0000000+00:00</time></trkpt><trkpt lat="22.303234" lon="103.775177"><ele>3143.2</ele><time>2011-04-24T04:55:53.0000000+00:00</time></trkpt><trkpt lat="22.303236" lon="103.775177"><ele>3143.2</ele><time>2011-04-24T04:55:58.0000000+00:00</time></trkpt><trkpt lat="22.303236" lon="103.775177"><ele>3143.2</ele><time>2011-04-24T04:56:03.0000000+00:00</time></trkpt><trkpt lat="22.303236" lon="103.775177"><ele>3143.2</ele><time>2011-04-24T04:56:08.0000000+00:00</time></trkpt><trkpt lat="22.303236" lon="103.775177"><ele>3143.2</ele><time>2011-04-24T04:56:13.0000000+00:00</time></trkpt><trkpt lat="22.303238" lon="103.775177"><ele>3143.3</ele><time>2011-04-24T04:56:18.0000000+00:00</time></trkpt><trkpt lat="22.303238" lon="103.775177"><ele>3143.2</ele><time>2011-04-24T04:56:23.0000000+00:00</time></trkpt><trkpt lat="22.30324" lon="103.775177"><ele>3142.8</ele><time>2011-04-24T04:56:28.0000000+00:00</time></trkpt><trkpt lat="22.303253" lon="103.7752"><ele>3143.5</ele><time>2011-04-24T04:56:33.0000000+00:00</time></trkpt><trkpt lat="22.303268" lon="103.775223"><ele>3143.9</ele><time>2011-04-24T04:56:38.0000000+00:00</time></trkpt><trkpt lat="22.303267" lon="103.775223"><ele>3143.9</ele><time>2011-04-24T04:56:43.0000000+00:00</time></trkpt><trkpt lat="22.303253" lon="103.77523"><ele>3144.0</ele><time>2011-04-24T04:56:48.0000000+00:00</time></trkpt><trkpt lat="22.303246" lon="103.775246"><ele>3144.7</ele><time>2011-04-24T04:56:53.0000000+00:00</time></trkpt><trkpt lat="22.303242" lon="103.775246"><ele>3144.7</ele><time>2011-04-24T04:56:58.0000000+00:00</time></trkpt><trkpt lat="22.303238" lon="103.775253"><ele>3144.8</ele><time>2011-04-24T04:57:03.0000000+00:00</time></trkpt><trkpt lat="22.30324" lon="103.775253"><ele>3145.0</ele><time>2011-04-24T04:57:08.0000000+00:00</time></trkpt><trkpt lat="22.303242" lon="103.775253"><ele>3145.0</ele><time>2011-04-24T04:57:13.0000000+00:00</time></trkpt><trkpt lat="22.303246" lon="103.775253"><ele>3145.2</ele><time>2011-04-24T04:57:18.0000000+00:00</time></trkpt><trkpt lat="22.303249" lon="103.775253"><ele>3145.7</ele><time>2011-04-24T04:57:23.0000000+00:00</time></trkpt><trkpt lat="22.303259" lon="103.775246"><ele>3146.8</ele><time>2011-04-24T04:57:28.0000000+00:00</time></trkpt><trkpt lat="22.30327" lon="103.775253"><ele>3146.7</ele><time>2011-04-24T04:57:33.0000000+00:00</time></trkpt><trkpt lat="22.30327" lon="103.775253"><ele>3146.6</ele><time>2011-04-24T04:57:38.0000000+00:00</time></trkpt><trkpt lat="22.30327" lon="103.775253"><ele>3146.5</ele><time>2011-04-24T04:57:43.0000000+00:00</time></trkpt><trkpt lat="22.30327" lon="103.775253"><ele>3146.5</ele><time>2011-04-24T04:57:48.0000000+00:00</time></trkpt><trkpt lat="22.30327" lon="103.775253"><ele>3146.5</ele><time>2011-04-24T04:57:53.0000000+00:00</time></trkpt><trkpt lat="22.30327" lon="103.775253"><ele>3146.5</ele><time>2011-04-24T04:57:58.0000000+00:00</time></trkpt><trkpt lat="22.30327" lon="103.775253"><ele>3146.5</ele><time>2011-04-24T04:58:03.0000000+00:00</time></trkpt><trkpt lat="22.30327" lon="103.775253"><ele>3146.5</ele><time>2011-04-24T04:58:08.0000000+00:00</time></trkpt><trkpt lat="22.30327" lon="103.775261"><ele>3146.5</ele><time>2011-04-24T04:58:13.0000000+00:00</time></trkpt><trkpt lat="22.30327" lon="103.775261"><ele>3146.5</ele><time>2011-04-24T04:58:18.0000000+00:00</time></trkpt><trkpt lat="22.30327" lon="103.775261"><ele>3146.5</ele><time>2011-04-24T04:58:23.0000000+00:00</time></trkpt><trkpt lat="22.30327" lon="103.775261"><ele>3146.5</ele><time>2011-04-24T04:58:28.0000000+00:00</time></trkpt><trkpt lat="22.30327" lon="103.775261"><ele>3146.5</ele><time>2011-04-24T04:58:33.0000000+00:00</time></trkpt><trkpt lat="22.303268" lon="103.775261"><ele>3146.5</ele><time>2011-04-24T04:58:38.0000000+00:00</time></trkpt><trkpt lat="22.303268" lon="103.775261"><ele>3146.5</ele><time>2011-04-24T04:58:43.0000000+00:00</time></trkpt><trkpt lat="22.303267" lon="103.775261"><ele>3146.5</ele><time>2011-04-24T04:58:48.0000000+00:00</time></trkpt><trkpt lat="22.303255" lon="103.775253"><ele>3147.3</ele><time>2011-04-24T04:58:53.0000000+00:00</time></trkpt><trkpt lat="22.303247" lon="103.775261"><ele>3148.3</ele><time>2011-04-24T04:58:58.0000000+00:00</time></trkpt><trkpt lat="22.303247" lon="103.775253"><ele>3148.5</ele><time>2011-04-24T04:59:03.0000000+00:00</time></trkpt><trkpt lat="22.303247" lon="103.775253"><ele>3148.5</ele><time>2011-04-24T04:59:08.0000000+00:00</time></trkpt><trkpt lat="22.303253" lon="103.775253"><ele>3148.7</ele><time>2011-04-24T04:59:13.0000000+00:00</time></trkpt><trkpt lat="22.303251" lon="103.775246"><ele>3149.5</ele><time>2011-04-24T04:59:18.0000000+00:00</time></trkpt><trkpt lat="22.303259" lon="103.775253"><ele>3149.8</ele><time>2011-04-24T04:59:23.0000000+00:00</time></trkpt><trkpt lat="22.303261" lon="103.775261"><ele>3150.3</ele><time>2011-04-24T04:59:28.0000000+00:00</time></trkpt><trkpt lat="22.303263" lon="103.775261"><ele>3150.3</ele><time>2011-04-24T04:59:33.0000000+00:00</time></trkpt><trkpt lat="22.303263" lon="103.775261"><ele>3150.2</ele><time>2011-04-24T04:59:38.0000000+00:00</time></trkpt><trkpt lat="22.303265" lon="103.775261"><ele>3150.4</ele><time>2011-04-24T04:59:43.0000000+00:00</time></trkpt><trkpt lat="22.303265" lon="103.775261"><ele>3150.5</ele><time>2011-04-24T04:59:48.0000000+00:00</time></trkpt><trkpt lat="22.303265" lon="103.775261"><ele>3150.6</ele><time>2011-04-24T04:59:53.0000000+00:00</time></trkpt><trkpt lat="22.303265" lon="103.775261"><ele>3150.6</ele><time>2011-04-24T04:59:58.0000000+00:00</time></trkpt><trkpt lat="22.303265" lon="103.775261"><ele>3150.6</ele><time>2011-04-24T05:00:03.0000000+00:00</time></trkpt><trkpt lat="22.303265" lon="103.775261"><ele>3150.6</ele><time>2011-04-24T05:00:08.0000000+00:00</time></trkpt><trkpt lat="22.303265" lon="103.775261"><ele>3150.6</ele><time>2011-04-24T05:00:13.0000000+00:00</time></trkpt><trkpt lat="22.303265" lon="103.775261"><ele>3150.6</ele><time>2011-04-24T05:00:18.0000000+00:00</time></trkpt><trkpt lat="22.303265" lon="103.775261"><ele>3150.6</ele><time>2011-04-24T05:00:23.0000000+00:00</time></trkpt><trkpt lat="22.303265" lon="103.775261"><ele>3150.6</ele><time>2011-04-24T05:00:28.0000000+00:00</time></trkpt><trkpt lat="22.303265" lon="103.775261"><ele>3150.6</ele><time>2011-04-24T05:00:33.0000000+00:00</time></trkpt><trkpt lat="22.303265" lon="103.775261"><ele>3150.6</ele><time>2011-04-24T05:00:38.0000000+00:00</time></trkpt><trkpt lat="22.303265" lon="103.775261"><ele>3150.6</ele><time>2011-04-24T05:00:43.0000000+00:00</time></trkpt><trkpt lat="22.303263" lon="103.775261"><ele>3150.6</ele><time>2011-04-24T05:00:48.0000000+00:00</time></trkpt><trkpt lat="22.303263" lon="103.775261"><ele>3150.6</ele><time>2011-04-24T05:00:53.0000000+00:00</time></trkpt><trkpt lat="22.303263" lon="103.775261"><ele>3150.6</ele><time>2011-04-24T05:00:58.0000000+00:00</time></trkpt><trkpt lat="22.303263" lon="103.775261"><ele>3150.6</ele><time>2011-04-24T05:01:03.0000000+00:00</time></trkpt><trkpt lat="22.303259" lon="103.775261"><ele>3150.7</ele><time>2011-04-24T05:01:08.0000000+00:00</time></trkpt><trkpt lat="22.303234" lon="103.775269"><ele>3151.5</ele><time>2011-04-24T05:01:13.0000000+00:00</time></trkpt><trkpt lat="22.303232" lon="103.775269"><ele>3151.4</ele><time>2011-04-24T05:01:18.0000000+00:00</time></trkpt><trkpt lat="22.303232" lon="103.775269"><ele>3151.4</ele><time>2011-04-24T05:01:23.0000000+00:00</time></trkpt><trkpt lat="22.30323" lon="103.775269"><ele>3151.5</ele><time>2011-04-24T05:01:28.0000000+00:00</time></trkpt><trkpt lat="22.30323" lon="103.775269"><ele>3151.5</ele><time>2011-04-24T05:01:33.0000000+00:00</time></trkpt><trkpt lat="22.303232" lon="103.775269"><ele>3151.5</ele><time>2011-04-24T05:01:38.0000000+00:00</time></trkpt><trkpt lat="22.30323" lon="103.775269"><ele>3151.5</ele><time>2011-04-24T05:01:43.0000000+00:00</time></trkpt><trkpt lat="22.303228" lon="103.775269"><ele>3151.5</ele><time>2011-04-24T05:01:48.0000000+00:00</time></trkpt><trkpt lat="22.303246" lon="103.775253"><ele>3151.0</ele><time>2011-04-24T05:01:53.0000000+00:00</time></trkpt><trkpt lat="22.303257" lon="103.775261"><ele>3150.8</ele><time>2011-04-24T05:01:58.0000000+00:00</time></trkpt><trkpt lat="22.303255" lon="103.775261"><ele>3150.9</ele><time>2011-04-24T05:02:03.0000000+00:00</time></trkpt><trkpt lat="22.303257" lon="103.775261"><ele>3151.0</ele><time>2011-04-24T05:02:08.0000000+00:00</time></trkpt><trkpt lat="22.303257" lon="103.775261"><ele>3151.0</ele><time>2011-04-24T05:02:13.0000000+00:00</time></trkpt><trkpt lat="22.303255" lon="103.775261"><ele>3151.0</ele><time>2011-04-24T05:02:18.0000000+00:00</time></trkpt><trkpt lat="22.303255" lon="103.775261"><ele>3151.0</ele><time>2011-04-24T05:02:23.0000000+00:00</time></trkpt><trkpt lat="22.303255" lon="103.775261"><ele>3151.0</ele><time>2011-04-24T05:02:28.0000000+00:00</time></trkpt><trkpt lat="22.303255" lon="103.775261"><ele>3150.9</ele><time>2011-04-24T05:02:33.0000000+00:00</time></trkpt><trkpt lat="22.303257" lon="103.775261"><ele>3151.0</ele><time>2011-04-24T05:02:38.0000000+00:00</time></trkpt><trkpt lat="22.303257" lon="103.775261"><ele>3151.0</ele><time>2011-04-24T05:02:43.0000000+00:00</time></trkpt><trkpt lat="22.303257" lon="103.775261"><ele>3151.0</ele><time>2011-04-24T05:02:48.0000000+00:00</time></trkpt><trkpt lat="22.303257" lon="103.775261"><ele>3151.0</ele><time>2011-04-24T05:02:53.0000000+00:00</time></trkpt><trkpt lat="22.303257" lon="103.775261"><ele>3151.0</ele><time>2011-04-24T05:02:58.0000000+00:00</time></trkpt><trkpt lat="22.303257" lon="103.775261"><ele>3151.0</ele><time>2011-04-24T05:03:03.0000000+00:00</time></trkpt><trkpt lat="22.303267" lon="103.775261"><ele>3151.3</ele><time>2011-04-24T05:03:08.0000000+00:00</time></trkpt><trkpt lat="22.303255" lon="103.775276"><ele>3152.0</ele><time>2011-04-24T05:03:13.0000000+00:00</time></trkpt><trkpt lat="22.303267" lon="103.775276"><ele>3151.8</ele><time>2011-04-24T05:03:18.0000000+00:00</time></trkpt><trkpt lat="22.303268" lon="103.775276"><ele>3152.0</ele><time>2011-04-24T05:03:23.0000000+00:00</time></trkpt><trkpt lat="22.303268" lon="103.775276"><ele>3152.0</ele><time>2011-04-24T05:03:28.0000000+00:00</time></trkpt><trkpt lat="22.303268" lon="103.775276"><ele>3152.0</ele><time>2011-04-24T05:03:33.0000000+00:00</time></trkpt><trkpt lat="22.303268" lon="103.775276"><ele>3152.0</ele><time>2011-04-24T05:03:38.0000000+00:00</time></trkpt><trkpt lat="22.303268" lon="103.775276"><ele>3152.1</ele><time>2011-04-24T05:03:43.0000000+00:00</time></trkpt><trkpt lat="22.30327" lon="103.775276"><ele>3152.1</ele><time>2011-04-24T05:03:48.0000000+00:00</time></trkpt><trkpt lat="22.30327" lon="103.775276"><ele>3152.1</ele><time>2011-04-24T05:03:53.0000000+00:00</time></trkpt><trkpt lat="22.30327" lon="103.775284"><ele>3152.1</ele><time>2011-04-24T05:03:58.0000000+00:00</time></trkpt><trkpt lat="22.30327" lon="103.775284"><ele>3152.1</ele><time>2011-04-24T05:04:03.0000000+00:00</time></trkpt><trkpt lat="22.303272" lon="103.775276"><ele>3152.1</ele><time>2011-04-24T05:04:08.0000000+00:00</time></trkpt><trkpt lat="22.303272" lon="103.775276"><ele>3152.1</ele><time>2011-04-24T05:04:13.0000000+00:00</time></trkpt><trkpt lat="22.303272" lon="103.775276"><ele>3152.1</ele><time>2011-04-24T05:04:18.0000000+00:00</time></trkpt><trkpt lat="22.303272" lon="103.775276"><ele>3152.1</ele><time>2011-04-24T05:04:23.0000000+00:00</time></trkpt><trkpt lat="22.303272" lon="103.775276"><ele>3152.1</ele><time>2011-04-24T05:04:28.0000000+00:00</time></trkpt><trkpt lat="22.303272" lon="103.775276"><ele>3152.2</ele><time>2011-04-24T05:04:33.0000000+00:00</time></trkpt><trkpt lat="22.303272" lon="103.775276"><ele>3152.1</ele><time>2011-04-24T05:04:38.0000000+00:00</time></trkpt><trkpt lat="22.303272" lon="103.775276"><ele>3152.1</ele><time>2011-04-24T05:04:43.0000000+00:00</time></trkpt><trkpt lat="22.303272" lon="103.775276"><ele>3152.1</ele><time>2011-04-24T05:04:48.0000000+00:00</time></trkpt><trkpt lat="22.303272" lon="103.775276"><ele>3152.1</ele><time>2011-04-24T05:04:53.0000000+00:00</time></trkpt><trkpt lat="22.303268" lon="103.775276"><ele>3152.0</ele><time>2011-04-24T05:04:58.0000000+00:00</time></trkpt><trkpt lat="22.303268" lon="103.775276"><ele>3152.0</ele><time>2011-04-24T05:05:03.0000000+00:00</time></trkpt><trkpt lat="22.303268" lon="103.775276"><ele>3152.0</ele><time>2011-04-24T05:05:08.0000000+00:00</time></trkpt><trkpt lat="22.303268" lon="103.775276"><ele>3152.0</ele><time>2011-04-24T05:05:13.0000000+00:00</time></trkpt><trkpt lat="22.303268" lon="103.775276"><ele>3152.0</ele><time>2011-04-24T05:05:18.0000000+00:00</time></trkpt><trkpt lat="22.303268" lon="103.775276"><ele>3151.9</ele><time>2011-04-24T05:05:23.0000000+00:00</time></trkpt><trkpt lat="22.303268" lon="103.775276"><ele>3151.9</ele><time>2011-04-24T05:05:28.0000000+00:00</time></trkpt><trkpt lat="22.30327" lon="103.775276"><ele>3151.9</ele><time>2011-04-24T05:05:33.0000000+00:00</time></trkpt><trkpt lat="22.30327" lon="103.775276"><ele>3151.9</ele><time>2011-04-24T05:05:38.0000000+00:00</time></trkpt><trkpt lat="22.30327" lon="103.775276"><ele>3151.9</ele><time>2011-04-24T05:05:43.0000000+00:00</time></trkpt><trkpt lat="22.303268" lon="103.775276"><ele>3152.1</ele><time>2011-04-24T05:05:48.0000000+00:00</time></trkpt><trkpt lat="22.303268" lon="103.775276"><ele>3152.2</ele><time>2011-04-24T05:05:53.0000000+00:00</time></trkpt><trkpt lat="22.303268" lon="103.775276"><ele>3152.1</ele><time>2011-04-24T05:05:58.0000000+00:00</time></trkpt><trkpt lat="22.303268" lon="103.775276"><ele>3152.1</ele><time>2011-04-24T05:06:03.0000000+00:00</time></trkpt><trkpt lat="22.303268" lon="103.775276"><ele>3152.1</ele><time>2011-04-24T05:06:08.0000000+00:00</time></trkpt><trkpt lat="22.303268" lon="103.775276"><ele>3152.0</ele><time>2011-04-24T05:06:13.0000000+00:00</time></trkpt><trkpt lat="22.303268" lon="103.775276"><ele>3152.2</ele><time>2011-04-24T05:06:18.0000000+00:00</time></trkpt><trkpt lat="22.30327" lon="103.775276"><ele>3152.3</ele><time>2011-04-24T05:06:23.0000000+00:00</time></trkpt><trkpt lat="22.30327" lon="103.775276"><ele>3152.3</ele><time>2011-04-24T05:06:28.0000000+00:00</time></trkpt><trkpt lat="22.30327" lon="103.775276"><ele>3152.3</ele><time>2011-04-24T05:06:33.0000000+00:00</time></trkpt><trkpt lat="22.30327" lon="103.775276"><ele>3152.3</ele><time>2011-04-24T05:06:38.0000000+00:00</time></trkpt><trkpt lat="22.30327" lon="103.775276"><ele>3152.3</ele><time>2011-04-24T05:06:43.0000000+00:00</time></trkpt><trkpt lat="22.30327" lon="103.775276"><ele>3152.3</ele><time>2011-04-24T05:06:48.0000000+00:00</time></trkpt><trkpt lat="22.30327" lon="103.775276"><ele>3152.3</ele><time>2011-04-24T05:06:53.0000000+00:00</time></trkpt><trkpt lat="22.30327" lon="103.775276"><ele>3152.3</ele><time>2011-04-24T05:06:58.0000000+00:00</time></trkpt><trkpt lat="22.30327" lon="103.775276"><ele>3152.3</ele><time>2011-04-24T05:07:03.0000000+00:00</time></trkpt><trkpt lat="22.30327" lon="103.775276"><ele>3152.3</ele><time>2011-04-24T05:07:08.0000000+00:00</time></trkpt><trkpt lat="22.30327" lon="103.775276"><ele>3152.3</ele><time>2011-04-24T05:07:13.0000000+00:00</time></trkpt><trkpt lat="22.30327" lon="103.775276"><ele>3152.3</ele><time>2011-04-24T05:07:18.0000000+00:00</time></trkpt><trkpt lat="22.303272" lon="103.775269"><ele>3152.2</ele><time>2011-04-24T05:07:23.0000000+00:00</time></trkpt><trkpt lat="22.303286" lon="103.775276"><ele>3151.9</ele><time>2011-04-24T05:07:28.0000000+00:00</time></trkpt><trkpt lat="22.303274" lon="103.775291"><ele>3150.1</ele><time>2011-04-24T05:07:33.0000000+00:00</time></trkpt><trkpt lat="22.303288" lon="103.775299"><ele>3149.0</ele><time>2011-04-24T05:07:38.0000000+00:00</time></trkpt><trkpt lat="22.303301" lon="103.775299"><ele>3148.5</ele><time>2011-04-24T05:07:43.0000000+00:00</time></trkpt><trkpt lat="22.303314" lon="103.775284"><ele>3147.3</ele><time>2011-04-24T05:07:48.0000000+00:00</time></trkpt><trkpt lat="22.303345" lon="103.775269"><ele>3146.7</ele><time>2011-04-24T05:07:53.0000000+00:00</time></trkpt><trkpt lat="22.303389" lon="103.775246"><ele>3147.0</ele><time>2011-04-24T05:07:58.0000000+00:00</time></trkpt><trkpt lat="22.303417" lon="103.775238"><ele>3147.9</ele><time>2011-04-24T05:08:03.0000000+00:00</time></trkpt><trkpt lat="22.30341" lon="103.775238"><ele>3147.7</ele><time>2011-04-24T05:08:08.0000000+00:00</time></trkpt><trkpt lat="22.30341" lon="103.77523"><ele>3147.7</ele><time>2011-04-24T05:08:13.0000000+00:00</time></trkpt><trkpt lat="22.303431" lon="103.775208"><ele>3147.7</ele><time>2011-04-24T05:08:18.0000000+00:00</time></trkpt><trkpt lat="22.303463" lon="103.775223"><ele>3148.3</ele><time>2011-04-24T05:08:23.0000000+00:00</time></trkpt><trkpt lat="22.303463" lon="103.77523"><ele>3147.0</ele><time>2011-04-24T05:08:28.0000000+00:00</time></trkpt><trkpt lat="22.303461" lon="103.775223"><ele>3146.3</ele><time>2011-04-24T05:08:33.0000000+00:00</time></trkpt><trkpt lat="22.303486" lon="103.775246"><ele>3146.1</ele><time>2011-04-24T05:08:38.0000000+00:00</time></trkpt><trkpt lat="22.303497" lon="103.775261"><ele>3145.7</ele><time>2011-04-24T05:08:43.0000000+00:00</time></trkpt><trkpt lat="22.303499" lon="103.775284"><ele>3145.0</ele><time>2011-04-24T05:08:48.0000000+00:00</time></trkpt><trkpt lat="22.303497" lon="103.775307"><ele>3144.7</ele><time>2011-04-24T05:08:53.0000000+00:00</time></trkpt><trkpt lat="22.303497" lon="103.775314"><ele>3144.8</ele><time>2011-04-24T05:08:58.0000000+00:00</time></trkpt><trkpt lat="22.30349" lon="103.775345"><ele>3145.2</ele><time>2011-04-24T05:09:03.0000000+00:00</time></trkpt><trkpt lat="22.303478" lon="103.775345"><ele>3145.0</ele><time>2011-04-24T05:09:08.0000000+00:00</time></trkpt><trkpt lat="22.303474" lon="103.775337"><ele>3143.9</ele><time>2011-04-24T05:09:13.0000000+00:00</time></trkpt><trkpt lat="22.303492" lon="103.775368"><ele>3143.0</ele><time>2011-04-24T05:09:18.0000000+00:00</time></trkpt><trkpt lat="22.303509" lon="103.775414"><ele>3142.5</ele><time>2011-04-24T05:09:23.0000000+00:00</time></trkpt><trkpt lat="22.303513" lon="103.775414"><ele>3142.0</ele><time>2011-04-24T05:09:28.0000000+00:00</time></trkpt><trkpt lat="22.303513" lon="103.775414"><ele>3142.0</ele><time>2011-04-24T05:09:33.0000000+00:00</time></trkpt><trkpt lat="22.303513" lon="103.775414"><ele>3142.0</ele><time>2011-04-24T05:09:38.0000000+00:00</time></trkpt><trkpt lat="22.303514" lon="103.775406"><ele>3141.9</ele><time>2011-04-24T05:09:43.0000000+00:00</time></trkpt><trkpt lat="22.303518" lon="103.775406"><ele>3141.4</ele><time>2011-04-24T05:09:48.0000000+00:00</time></trkpt><trkpt lat="22.303516" lon="103.775414"><ele>3139.9</ele><time>2011-04-24T05:09:53.0000000+00:00</time></trkpt><trkpt lat="22.303514" lon="103.775421"><ele>3139.0</ele><time>2011-04-24T05:09:58.0000000+00:00</time></trkpt><trkpt lat="22.303514" lon="103.775429"><ele>3138.2</ele><time>2011-04-24T05:10:03.0000000+00:00</time></trkpt><trkpt lat="22.303516" lon="103.775436"><ele>3137.4</ele><time>2011-04-24T05:10:08.0000000+00:00</time></trkpt><trkpt lat="22.30352" lon="103.775444"><ele>3136.7</ele><time>2011-04-24T05:10:13.0000000+00:00</time></trkpt><trkpt lat="22.303528" lon="103.775444"><ele>3135.8</ele><time>2011-04-24T05:10:18.0000000+00:00</time></trkpt><trkpt lat="22.303535" lon="103.775429"><ele>3135.0</ele><time>2011-04-24T05:10:23.0000000+00:00</time></trkpt><trkpt lat="22.303541" lon="103.775429"><ele>3134.2</ele><time>2011-04-24T05:10:28.0000000+00:00</time></trkpt><trkpt lat="22.303543" lon="103.775421"><ele>3133.3</ele><time>2011-04-24T05:10:33.0000000+00:00</time></trkpt><trkpt lat="22.303549" lon="103.775436"><ele>3132.2</ele><time>2011-04-24T05:10:38.0000000+00:00</time></trkpt><trkpt lat="22.303566" lon="103.775452"><ele>3131.9</ele><time>2011-04-24T05:10:43.0000000+00:00</time></trkpt><trkpt lat="22.303577" lon="103.775459"><ele>3131.2</ele><time>2011-04-24T05:10:48.0000000+00:00</time></trkpt><trkpt lat="22.3036" lon="103.775482"><ele>3130.6</ele><time>2011-04-24T05:10:53.0000000+00:00</time></trkpt><trkpt lat="22.303608" lon="103.775497"><ele>3130.2</ele><time>2011-04-24T05:10:58.0000000+00:00</time></trkpt><trkpt lat="22.303598" lon="103.775513"><ele>3130.0</ele><time>2011-04-24T05:11:03.0000000+00:00</time></trkpt><trkpt lat="22.30361" lon="103.77552"><ele>3129.5</ele><time>2011-04-24T05:11:08.0000000+00:00</time></trkpt><trkpt lat="22.303617" lon="103.775528"><ele>3129.2</ele><time>2011-04-24T05:11:13.0000000+00:00</time></trkpt><trkpt lat="22.303619" lon="103.775536"><ele>3129.0</ele><time>2011-04-24T05:11:18.0000000+00:00</time></trkpt><trkpt lat="22.303619" lon="103.775536"><ele>3129.0</ele><time>2011-04-24T05:11:23.0000000+00:00</time></trkpt><trkpt lat="22.303623" lon="103.775551"><ele>3128.7</ele><time>2011-04-24T05:11:28.0000000+00:00</time></trkpt><trkpt lat="22.303644" lon="103.775558"><ele>3128.3</ele><time>2011-04-24T05:11:33.0000000+00:00</time></trkpt><trkpt lat="22.30365" lon="103.775566"><ele>3128.1</ele><time>2011-04-24T05:11:38.0000000+00:00</time></trkpt><trkpt lat="22.303665" lon="103.775589"><ele>3128.3</ele><time>2011-04-24T05:11:43.0000000+00:00</time></trkpt><trkpt lat="22.303677" lon="103.775604"><ele>3128.1</ele><time>2011-04-24T05:11:48.0000000+00:00</time></trkpt><trkpt lat="22.303682" lon="103.775597"><ele>3127.9</ele><time>2011-04-24T05:11:53.0000000+00:00</time></trkpt><trkpt lat="22.303688" lon="103.775581"><ele>3127.3</ele><time>2011-04-24T05:11:58.0000000+00:00</time></trkpt><trkpt lat="22.30368" lon="103.775558"><ele>3126.8</ele><time>2011-04-24T05:12:03.0000000+00:00</time></trkpt><trkpt lat="22.303692" lon="103.775558"><ele>3126.2</ele><time>2011-04-24T05:12:08.0000000+00:00</time></trkpt><trkpt lat="22.303705" lon="103.775551"><ele>3125.6</ele><time>2011-04-24T05:12:13.0000000+00:00</time></trkpt><trkpt lat="22.303734" lon="103.775551"><ele>3124.8</ele><time>2011-04-24T05:12:18.0000000+00:00</time></trkpt><trkpt lat="22.303741" lon="103.775551"><ele>3124.7</ele><time>2011-04-24T05:12:23.0000000+00:00</time></trkpt><trkpt lat="22.303782" lon="103.775536"><ele>3123.4</ele><time>2011-04-24T05:12:28.0000000+00:00</time></trkpt><trkpt lat="22.303778" lon="103.775528"><ele>3123.3</ele><time>2011-04-24T05:12:33.0000000+00:00</time></trkpt><trkpt lat="22.30378" lon="103.77552"><ele>3123.2</ele><time>2011-04-24T05:12:38.0000000+00:00</time></trkpt><trkpt lat="22.303787" lon="103.775513"><ele>3123.2</ele><time>2011-04-24T05:12:43.0000000+00:00</time></trkpt><trkpt lat="22.303791" lon="103.775505"><ele>3123.1</ele><time>2011-04-24T05:12:48.0000000+00:00</time></trkpt><trkpt lat="22.303799" lon="103.775497"><ele>3123.0</ele><time>2011-04-24T05:12:53.0000000+00:00</time></trkpt><trkpt lat="22.303804" lon="103.775467"><ele>3122.7</ele><time>2011-04-24T05:12:58.0000000+00:00</time></trkpt><trkpt lat="22.30382" lon="103.775452"><ele>3122.5</ele><time>2011-04-24T05:13:03.0000000+00:00</time></trkpt><trkpt lat="22.303812" lon="103.775436"><ele>3122.3</ele><time>2011-04-24T05:13:08.0000000+00:00</time></trkpt><trkpt lat="22.303831" lon="103.775429"><ele>3122.3</ele><time>2011-04-24T05:13:13.0000000+00:00</time></trkpt><trkpt lat="22.303879" lon="103.775436"><ele>3121.6</ele><time>2011-04-24T05:13:18.0000000+00:00</time></trkpt><trkpt lat="22.303888" lon="103.775429"><ele>3121.6</ele><time>2011-04-24T05:13:23.0000000+00:00</time></trkpt><trkpt lat="22.303896" lon="103.775429"><ele>3121.5</ele><time>2011-04-24T05:13:28.0000000+00:00</time></trkpt><trkpt lat="22.303888" lon="103.775429"><ele>3121.3</ele><time>2011-04-24T05:13:33.0000000+00:00</time></trkpt><trkpt lat="22.303892" lon="103.775429"><ele>3121.3</ele><time>2011-04-24T05:13:38.0000000+00:00</time></trkpt><trkpt lat="22.303934" lon="103.775436"><ele>3121.0</ele><time>2011-04-24T05:13:43.0000000+00:00</time></trkpt><trkpt lat="22.303967" lon="103.775429"><ele>3120.7</ele><time>2011-04-24T05:13:48.0000000+00:00</time></trkpt><trkpt lat="22.303993" lon="103.775414"><ele>3120.2</ele><time>2011-04-24T05:13:53.0000000+00:00</time></trkpt><trkpt lat="22.303995" lon="103.775383"><ele>3119.8</ele><time>2011-04-24T05:13:58.0000000+00:00</time></trkpt><trkpt lat="22.304018" lon="103.775375"><ele>3118.1</ele><time>2011-04-24T05:14:03.0000000+00:00</time></trkpt><trkpt lat="22.304052" lon="103.775383"><ele>3116.9</ele><time>2011-04-24T05:14:08.0000000+00:00</time></trkpt><trkpt lat="22.304089" lon="103.775398"><ele>3116.9</ele><time>2011-04-24T05:14:13.0000000+00:00</time></trkpt><trkpt lat="22.304131" lon="103.775391"><ele>3116.7</ele><time>2011-04-24T05:14:18.0000000+00:00</time></trkpt><trkpt lat="22.304144" lon="103.775414"><ele>3116.7</ele><time>2011-04-24T05:14:23.0000000+00:00</time></trkpt><trkpt lat="22.304169" lon="103.775436"><ele>3116.4</ele><time>2011-04-24T05:14:28.0000000+00:00</time></trkpt><trkpt lat="22.304161" lon="103.775414"><ele>3115.3</ele><time>2011-04-24T05:14:33.0000000+00:00</time></trkpt><trkpt lat="22.304155" lon="103.775383"><ele>3114.1</ele><time>2011-04-24T05:14:38.0000000+00:00</time></trkpt><trkpt lat="22.304148" lon="103.77536"><ele>3112.5</ele><time>2011-04-24T05:14:43.0000000+00:00</time></trkpt><trkpt lat="22.30418" lon="103.775406"><ele>3111.2</ele><time>2011-04-24T05:14:48.0000000+00:00</time></trkpt><trkpt lat="22.304157" lon="103.775421"><ele>3110.5</ele><time>2011-04-24T05:14:53.0000000+00:00</time></trkpt><trkpt lat="22.304131" lon="103.775421"><ele>3109.7</ele><time>2011-04-24T05:14:58.0000000+00:00</time></trkpt><trkpt lat="22.304129" lon="103.775421"><ele>3109.3</ele><time>2011-04-24T05:15:03.0000000+00:00</time></trkpt><trkpt lat="22.304142" lon="103.775421"><ele>3108.7</ele><time>2011-04-24T05:15:08.0000000+00:00</time></trkpt><trkpt lat="22.304167" lon="103.775414"><ele>3108.0</ele><time>2011-04-24T05:15:13.0000000+00:00</time></trkpt><trkpt lat="22.304182" lon="103.775398"><ele>3106.9</ele><time>2011-04-24T05:15:18.0000000+00:00</time></trkpt><trkpt lat="22.304193" lon="103.775383"><ele>3105.2</ele><time>2011-04-24T05:15:23.0000000+00:00</time></trkpt><trkpt lat="22.304199" lon="103.775383"><ele>3104.8</ele><time>2011-04-24T05:15:28.0000000+00:00</time></trkpt><trkpt lat="22.304205" lon="103.775383"><ele>3104.2</ele><time>2011-04-24T05:15:33.0000000+00:00</time></trkpt><trkpt lat="22.304211" lon="103.775368"><ele>3103.6</ele><time>2011-04-24T05:15:38.0000000+00:00</time></trkpt><trkpt lat="22.304211" lon="103.775337"><ele>3102.7</ele><time>2011-04-24T05:15:43.0000000+00:00</time></trkpt><trkpt lat="22.304224" lon="103.775337"><ele>3102.4</ele><time>2011-04-24T05:15:48.0000000+00:00</time></trkpt><trkpt lat="22.304241" lon="103.775314"><ele>3101.7</ele><time>2011-04-24T05:15:53.0000000+00:00</time></trkpt><trkpt lat="22.304268" lon="103.775284"><ele>3100.3</ele><time>2011-04-24T05:15:58.0000000+00:00</time></trkpt><trkpt lat="22.304295" lon="103.775253"><ele>3096.7</ele><time>2011-04-24T05:16:03.0000000+00:00</time></trkpt><trkpt lat="22.30434" lon="103.775291"><ele>3094.1</ele><time>2011-04-24T05:16:08.0000000+00:00</time></trkpt><trkpt lat="22.304392" lon="103.775314"><ele>3090.7</ele><time>2011-04-24T05:16:13.0000000+00:00</time></trkpt><trkpt lat="22.304455" lon="103.77533"><ele>3088.3</ele><time>2011-04-24T05:16:18.0000000+00:00</time></trkpt><trkpt lat="22.304514" lon="103.775337"><ele>3086.2</ele><time>2011-04-24T05:16:23.0000000+00:00</time></trkpt><trkpt lat="22.304533" lon="103.775322"><ele>3084.6</ele><time>2011-04-24T05:16:28.0000000+00:00</time></trkpt><trkpt lat="22.304565" lon="103.775291"><ele>3082.2</ele><time>2011-04-24T05:16:33.0000000+00:00</time></trkpt><trkpt lat="22.304592" lon="103.775284"><ele>3081.3</ele><time>2011-04-24T05:16:38.0000000+00:00</time></trkpt><trkpt lat="22.304619" lon="103.775276"><ele>3079.4</ele><time>2011-04-24T05:16:43.0000000+00:00</time></trkpt><trkpt lat="22.304644" lon="103.775253"><ele>3078.0</ele><time>2011-04-24T05:16:48.0000000+00:00</time></trkpt><trkpt lat="22.304678" lon="103.775261"><ele>3076.5</ele><time>2011-04-24T05:16:53.0000000+00:00</time></trkpt><trkpt lat="22.304718" lon="103.775253"><ele>3074.4</ele><time>2011-04-24T05:16:58.0000000+00:00</time></trkpt><trkpt lat="22.30476" lon="103.775246"><ele>3072.2</ele><time>2011-04-24T05:17:03.0000000+00:00</time></trkpt><trkpt lat="22.304804" lon="103.775223"><ele>3069.3</ele><time>2011-04-24T05:17:08.0000000+00:00</time></trkpt><trkpt lat="22.304853" lon="103.775192"><ele>3067.6</ele><time>2011-04-24T05:17:13.0000000+00:00</time></trkpt><trkpt lat="22.304897" lon="103.775185"><ele>3066.0</ele><time>2011-04-24T05:17:18.0000000+00:00</time></trkpt><trkpt lat="22.30493" lon="103.775169"><ele>3064.6</ele><time>2011-04-24T05:17:23.0000000+00:00</time></trkpt><trkpt lat="22.304962" lon="103.775139"><ele>3062.8</ele><time>2011-04-24T05:17:28.0000000+00:00</time></trkpt><trkpt lat="22.304983" lon="103.775124"><ele>3061.6</ele><time>2011-04-24T05:17:33.0000000+00:00</time></trkpt><trkpt lat="22.305008" lon="103.775108"><ele>3061.3</ele><time>2011-04-24T05:17:38.0000000+00:00</time></trkpt><trkpt lat="22.305023" lon="103.775116"><ele>3060.8</ele><time>2011-04-24T05:17:43.0000000+00:00</time></trkpt><trkpt lat="22.305037" lon="103.775116"><ele>3060.0</ele><time>2011-04-24T05:17:48.0000000+00:00</time></trkpt><trkpt lat="22.30505" lon="103.775108"><ele>3059.3</ele><time>2011-04-24T05:17:53.0000000+00:00</time></trkpt><trkpt lat="22.305063" lon="103.775101"><ele>3058.3</ele><time>2011-04-24T05:17:58.0000000+00:00</time></trkpt><trkpt lat="22.305061" lon="103.775108"><ele>3057.2</ele><time>2011-04-24T05:18:03.0000000+00:00</time></trkpt><trkpt lat="22.305075" lon="103.775101"><ele>3056.7</ele><time>2011-04-24T05:18:08.0000000+00:00</time></trkpt><trkpt lat="22.305101" lon="103.775108"><ele>3055.6</ele><time>2011-04-24T05:18:13.0000000+00:00</time></trkpt><trkpt lat="22.305124" lon="103.775116"><ele>3054.2</ele><time>2011-04-24T05:18:18.0000000+00:00</time></trkpt><trkpt lat="22.305136" lon="103.775124"><ele>3053.3</ele><time>2011-04-24T05:18:23.0000000+00:00</time></trkpt><trkpt lat="22.305161" lon="103.775131"><ele>3052.9</ele><time>2011-04-24T05:18:28.0000000+00:00</time></trkpt><trkpt lat="22.305199" lon="103.775131"><ele>3053.0</ele><time>2011-04-24T05:18:33.0000000+00:00</time></trkpt><trkpt lat="22.305218" lon="103.775124"><ele>3052.1</ele><time>2011-04-24T05:18:38.0000000+00:00</time></trkpt><trkpt lat="22.305225" lon="103.775131"><ele>3051.5</ele><time>2011-04-24T05:18:43.0000000+00:00</time></trkpt><trkpt lat="22.305243" lon="103.775124"><ele>3051.0</ele><time>2011-04-24T05:18:48.0000000+00:00</time></trkpt><trkpt lat="22.305265" lon="103.775116"><ele>3050.7</ele><time>2011-04-24T05:18:53.0000000+00:00</time></trkpt><trkpt lat="22.305275" lon="103.775093"><ele>3050.2</ele><time>2011-04-24T05:18:58.0000000+00:00</time></trkpt><trkpt lat="22.305275" lon="103.775085"><ele>3050.2</ele><time>2011-04-24T05:19:03.0000000+00:00</time></trkpt><trkpt lat="22.305296" lon="103.775093"><ele>3050.2</ele><time>2011-04-24T05:19:08.0000000+00:00</time></trkpt><trkpt lat="22.305334" lon="103.775108"><ele>3049.8</ele><time>2011-04-24T05:19:13.0000000+00:00</time></trkpt><trkpt lat="22.30534" lon="103.775108"><ele>3049.6</ele><time>2011-04-24T05:19:18.0000000+00:00</time></trkpt><trkpt lat="22.305336" lon="103.775108"><ele>3049.5</ele><time>2011-04-24T05:19:23.0000000+00:00</time></trkpt><trkpt lat="22.305332" lon="103.775108"><ele>3049.5</ele><time>2011-04-24T05:19:28.0000000+00:00</time></trkpt><trkpt lat="22.305342" lon="103.775108"><ele>3049.2</ele><time>2011-04-24T05:19:33.0000000+00:00</time></trkpt><trkpt lat="22.305391" lon="103.775085"><ele>3048.3</ele><time>2011-04-24T05:19:38.0000000+00:00</time></trkpt><trkpt lat="22.305437" lon="103.775063"><ele>3048.2</ele><time>2011-04-24T05:19:43.0000000+00:00</time></trkpt><trkpt lat="22.305496" lon="103.775017"><ele>3045.8</ele><time>2011-04-24T05:19:48.0000000+00:00</time></trkpt><trkpt lat="22.30554" lon="103.774971"><ele>3043.8</ele><time>2011-04-24T05:19:53.0000000+00:00</time></trkpt><trkpt lat="22.305571" lon="103.774918"><ele>3043.6</ele><time>2011-04-24T05:19:58.0000000+00:00</time></trkpt><trkpt lat="22.305626" lon="103.77491"><ele>3043.7</ele><time>2011-04-24T05:20:03.0000000+00:00</time></trkpt><trkpt lat="22.305658" lon="103.774902"><ele>3041.0</ele><time>2011-04-24T05:20:08.0000000+00:00</time></trkpt><trkpt lat="22.305677" lon="103.77491"><ele>3039.5</ele><time>2011-04-24T05:20:13.0000000+00:00</time></trkpt><trkpt lat="22.305695" lon="103.774918"><ele>3038.5</ele><time>2011-04-24T05:20:18.0000000+00:00</time></trkpt><trkpt lat="22.305733" lon="103.774925"><ele>3038.5</ele><time>2011-04-24T05:20:23.0000000+00:00</time></trkpt><trkpt lat="22.305779" lon="103.774918"><ele>3036.8</ele><time>2011-04-24T05:20:28.0000000+00:00</time></trkpt><trkpt lat="22.30582" lon="103.774925"><ele>3035.8</ele><time>2011-04-24T05:20:33.0000000+00:00</time></trkpt><trkpt lat="22.305843" lon="103.774925"><ele>3034.6</ele><time>2011-04-24T05:20:38.0000000+00:00</time></trkpt><trkpt lat="22.305883" lon="103.774902"><ele>3032.9</ele><time>2011-04-24T05:20:43.0000000+00:00</time></trkpt><trkpt lat="22.305906" lon="103.774872"><ele>3032.0</ele><time>2011-04-24T05:20:48.0000000+00:00</time></trkpt><trkpt lat="22.305943" lon="103.774857"><ele>3030.9</ele><time>2011-04-24T05:20:53.0000000+00:00</time></trkpt><trkpt lat="22.305956" lon="103.774857"><ele>3030.9</ele><time>2011-04-24T05:20:58.0000000+00:00</time></trkpt><trkpt lat="22.305971" lon="103.774849"><ele>3030.7</ele><time>2011-04-24T05:21:03.0000000+00:00</time></trkpt><trkpt lat="22.306007" lon="103.774841"><ele>3028.9</ele><time>2011-04-24T05:21:08.0000000+00:00</time></trkpt><trkpt lat="22.306042" lon="103.774788"><ele>3027.8</ele><time>2011-04-24T05:21:13.0000000+00:00</time></trkpt><trkpt lat="22.306084" lon="103.77478"><ele>3026.1</ele><time>2011-04-24T05:21:18.0000000+00:00</time></trkpt><trkpt lat="22.306086" lon="103.774773"><ele>3024.8</ele><time>2011-04-24T05:21:23.0000000+00:00</time></trkpt><trkpt lat="22.306084" lon="103.774765"><ele>3024.5</ele><time>2011-04-24T05:21:28.0000000+00:00</time></trkpt><trkpt lat="22.306086" lon="103.774773"><ele>3024.6</ele><time>2011-04-24T05:21:33.0000000+00:00</time></trkpt><trkpt lat="22.306089" lon="103.774773"><ele>3024.7</ele><time>2011-04-24T05:21:38.0000000+00:00</time></trkpt><trkpt lat="22.306095" lon="103.77478"><ele>3024.0</ele><time>2011-04-24T05:21:43.0000000+00:00</time></trkpt><trkpt lat="22.306097" lon="103.774788"><ele>3023.7</ele><time>2011-04-24T05:21:48.0000000+00:00</time></trkpt><trkpt lat="22.306097" lon="103.774788"><ele>3023.7</ele><time>2011-04-24T05:21:53.0000000+00:00</time></trkpt><trkpt lat="22.306099" lon="103.77478"><ele>3023.7</ele><time>2011-04-24T05:21:58.0000000+00:00</time></trkpt><trkpt lat="22.306108" lon="103.774773"><ele>3022.5</ele><time>2011-04-24T05:22:03.0000000+00:00</time></trkpt><trkpt lat="22.306137" lon="103.77475"><ele>3021.2</ele><time>2011-04-24T05:22:08.0000000+00:00</time></trkpt><trkpt lat="22.306154" lon="103.774734"><ele>3019.8</ele><time>2011-04-24T05:22:13.0000000+00:00</time></trkpt><trkpt lat="22.30621" lon="103.774719"><ele>3018.7</ele><time>2011-04-24T05:22:18.0000000+00:00</time></trkpt><trkpt lat="22.306269" lon="103.774712"><ele>3017.0</ele><time>2011-04-24T05:22:23.0000000+00:00</time></trkpt><trkpt lat="22.306301" lon="103.774689"><ele>3015.3</ele><time>2011-04-24T05:22:28.0000000+00:00</time></trkpt><trkpt lat="22.306316" lon="103.774681"><ele>3014.1</ele><time>2011-04-24T05:22:33.0000000+00:00</time></trkpt><trkpt lat="22.306345" lon="103.774673"><ele>3013.0</ele><time>2011-04-24T05:22:38.0000000+00:00</time></trkpt><trkpt lat="22.306383" lon="103.774681"><ele>3011.7</ele><time>2011-04-24T05:22:43.0000000+00:00</time></trkpt><trkpt lat="22.30644" lon="103.774704"><ele>3009.9</ele><time>2011-04-24T05:22:48.0000000+00:00</time></trkpt><trkpt lat="22.306519" lon="103.774704"><ele>3009.3</ele><time>2011-04-24T05:22:53.0000000+00:00</time></trkpt><trkpt lat="22.306608" lon="103.774712"><ele>3008.2</ele><time>2011-04-24T05:22:58.0000000+00:00</time></trkpt><trkpt lat="22.306662" lon="103.774719"><ele>3008.0</ele><time>2011-04-24T05:23:03.0000000+00:00</time></trkpt><trkpt lat="22.306669" lon="103.774742"><ele>3007.3</ele><time>2011-04-24T05:23:08.0000000+00:00</time></trkpt><trkpt lat="22.306669" lon="103.774757"><ele>3006.6</ele><time>2011-04-24T05:23:13.0000000+00:00</time></trkpt><trkpt lat="22.306675" lon="103.77478"><ele>3005.4</ele><time>2011-04-24T05:23:18.0000000+00:00</time></trkpt><trkpt lat="22.30669" lon="103.774811"><ele>3004.3</ele><time>2011-04-24T05:23:23.0000000+00:00</time></trkpt><trkpt lat="22.306696" lon="103.774834"><ele>3003.5</ele><time>2011-04-24T05:23:28.0000000+00:00</time></trkpt><trkpt lat="22.306707" lon="103.774864"><ele>3002.1</ele><time>2011-04-24T05:23:33.0000000+00:00</time></trkpt><trkpt lat="22.306723" lon="103.774872"><ele>3001.7</ele><time>2011-04-24T05:23:38.0000000+00:00</time></trkpt><trkpt lat="22.306742" lon="103.774887"><ele>3001.2</ele><time>2011-04-24T05:23:43.0000000+00:00</time></trkpt><trkpt lat="22.306765" lon="103.774879"><ele>3000.2</ele><time>2011-04-24T05:23:48.0000000+00:00</time></trkpt><trkpt lat="22.306782" lon="103.774902"><ele>2999.4</ele><time>2011-04-24T05:23:53.0000000+00:00</time></trkpt><trkpt lat="22.306793" lon="103.774918"><ele>2999.0</ele><time>2011-04-24T05:23:58.0000000+00:00</time></trkpt><trkpt lat="22.306805" lon="103.774933"><ele>2998.5</ele><time>2011-04-24T05:24:03.0000000+00:00</time></trkpt><trkpt lat="22.306807" lon="103.774956"><ele>2998.3</ele><time>2011-04-24T05:24:08.0000000+00:00</time></trkpt><trkpt lat="22.306814" lon="103.774986"><ele>2997.8</ele><time>2011-04-24T05:24:13.0000000+00:00</time></trkpt><trkpt lat="22.30682" lon="103.775024"><ele>2997.5</ele><time>2011-04-24T05:24:18.0000000+00:00</time></trkpt><trkpt lat="22.306831" lon="103.775017"><ele>2996.6</ele><time>2011-04-24T05:24:23.0000000+00:00</time></trkpt><trkpt lat="22.306841" lon="103.775024"><ele>2996.3</ele><time>2011-04-24T05:24:28.0000000+00:00</time></trkpt><trkpt lat="22.306854" lon="103.775055"><ele>2995.5</ele><time>2011-04-24T05:24:33.0000000+00:00</time></trkpt><trkpt lat="22.306852" lon="103.775093"><ele>2993.4</ele><time>2011-04-24T05:24:38.0000000+00:00</time></trkpt><trkpt lat="22.306841" lon="103.775131"><ele>2992.3</ele><time>2011-04-24T05:24:43.0000000+00:00</time></trkpt><trkpt lat="22.306839" lon="103.775169"><ele>2991.4</ele><time>2011-04-24T05:24:48.0000000+00:00</time></trkpt><trkpt lat="22.306852" lon="103.775185"><ele>2990.3</ele><time>2011-04-24T05:24:53.0000000+00:00</time></trkpt><trkpt lat="22.306864" lon="103.775215"><ele>2989.0</ele><time>2011-04-24T05:24:58.0000000+00:00</time></trkpt><trkpt lat="22.306866" lon="103.775238"><ele>2987.9</ele><time>2011-04-24T05:25:03.0000000+00:00</time></trkpt><trkpt lat="22.306868" lon="103.775261"><ele>2986.5</ele><time>2011-04-24T05:25:08.0000000+00:00</time></trkpt><trkpt lat="22.306873" lon="103.775276"><ele>2985.3</ele><time>2011-04-24T05:25:13.0000000+00:00</time></trkpt><trkpt lat="22.306873" lon="103.775299"><ele>2984.8</ele><time>2011-04-24T05:25:18.0000000+00:00</time></trkpt><trkpt lat="22.30687" lon="103.775307"><ele>2984.7</ele><time>2011-04-24T05:25:23.0000000+00:00</time></trkpt><trkpt lat="22.306871" lon="103.775314"><ele>2984.5</ele><time>2011-04-24T05:25:28.0000000+00:00</time></trkpt><trkpt lat="22.306877" lon="103.775314"><ele>2983.7</ele><time>2011-04-24T05:25:33.0000000+00:00</time></trkpt><trkpt lat="22.306889" lon="103.775314"><ele>2983.8</ele><time>2011-04-24T05:25:38.0000000+00:00</time></trkpt><trkpt lat="22.306887" lon="103.775322"><ele>2983.8</ele><time>2011-04-24T05:25:43.0000000+00:00</time></trkpt><trkpt lat="22.3069" lon="103.775345"><ele>2982.9</ele><time>2011-04-24T05:25:48.0000000+00:00</time></trkpt><trkpt lat="22.306919" lon="103.775375"><ele>2982.8</ele><time>2011-04-24T05:25:53.0000000+00:00</time></trkpt><trkpt lat="22.306942" lon="103.775398"><ele>2980.7</ele><time>2011-04-24T05:25:58.0000000+00:00</time></trkpt><trkpt lat="22.306948" lon="103.775429"><ele>2979.6</ele><time>2011-04-24T05:26:03.0000000+00:00</time></trkpt><trkpt lat="22.306957" lon="103.775436"><ele>2978.8</ele><time>2011-04-24T05:26:08.0000000+00:00</time></trkpt><trkpt lat="22.306965" lon="103.775452"><ele>2978.0</ele><time>2011-04-24T05:26:13.0000000+00:00</time></trkpt><trkpt lat="22.306984" lon="103.775459"><ele>2977.2</ele><time>2011-04-24T05:26:18.0000000+00:00</time></trkpt><trkpt lat="22.306999" lon="103.775482"><ele>2976.9</ele><time>2011-04-24T05:26:23.0000000+00:00</time></trkpt><trkpt lat="22.307016" lon="103.775497"><ele>2975.3</ele><time>2011-04-24T05:26:28.0000000+00:00</time></trkpt><trkpt lat="22.307018" lon="103.775513"><ele>2974.5</ele><time>2011-04-24T05:26:33.0000000+00:00</time></trkpt><trkpt lat="22.30703" lon="103.775536"><ele>2973.9</ele><time>2011-04-24T05:26:38.0000000+00:00</time></trkpt><trkpt lat="22.307034" lon="103.775551"><ele>2973.0</ele><time>2011-04-24T05:26:43.0000000+00:00</time></trkpt><trkpt lat="22.307024" lon="103.775566"><ele>2971.8</ele><time>2011-04-24T05:26:48.0000000+00:00</time></trkpt><trkpt lat="22.307034" lon="103.775581"><ele>2971.2</ele><time>2011-04-24T05:26:53.0000000+00:00</time></trkpt><trkpt lat="22.307041" lon="103.775604"><ele>2970.3</ele><time>2011-04-24T05:26:58.0000000+00:00</time></trkpt><trkpt lat="22.307049" lon="103.77562"><ele>2970.2</ele><time>2011-04-24T05:27:03.0000000+00:00</time></trkpt><trkpt lat="22.307062" lon="103.775642"><ele>2970.0</ele><time>2011-04-24T05:27:08.0000000+00:00</time></trkpt><trkpt lat="22.30707" lon="103.775642"><ele>2969.2</ele><time>2011-04-24T05:27:13.0000000+00:00</time></trkpt><trkpt lat="22.307076" lon="103.77565"><ele>2967.9</ele><time>2011-04-24T05:27:18.0000000+00:00</time></trkpt><trkpt lat="22.307095" lon="103.775658"><ele>2967.7</ele><time>2011-04-24T05:27:23.0000000+00:00</time></trkpt><trkpt lat="22.30711" lon="103.775658"><ele>2966.5</ele><time>2011-04-24T05:27:28.0000000+00:00</time></trkpt><trkpt lat="22.307121" lon="103.775658"><ele>2965.3</ele><time>2011-04-24T05:27:33.0000000+00:00</time></trkpt><trkpt lat="22.307159" lon="103.775597"><ele>2964.5</ele><time>2011-04-24T05:27:38.0000000+00:00</time></trkpt><trkpt lat="22.307184" lon="103.775536"><ele>2963.2</ele><time>2011-04-24T05:27:43.0000000+00:00</time></trkpt><trkpt lat="22.307186" lon="103.775505"><ele>2961.6</ele><time>2011-04-24T05:27:48.0000000+00:00</time></trkpt><trkpt lat="22.307196" lon="103.775475"><ele>2960.7</ele><time>2011-04-24T05:27:53.0000000+00:00</time></trkpt><trkpt lat="22.307196" lon="103.775436"><ele>2959.9</ele><time>2011-04-24T05:27:58.0000000+00:00</time></trkpt><trkpt lat="22.307211" lon="103.775421"><ele>2959.5</ele><time>2011-04-24T05:28:03.0000000+00:00</time></trkpt><trkpt lat="22.307224" lon="103.775375"><ele>2959.8</ele><time>2011-04-24T05:28:08.0000000+00:00</time></trkpt><trkpt lat="22.30727" lon="103.775345"><ele>2960.8</ele><time>2011-04-24T05:28:13.0000000+00:00</time></trkpt><trkpt lat="22.307278" lon="103.77533"><ele>2960.4</ele><time>2011-04-24T05:28:18.0000000+00:00</time></trkpt><trkpt lat="22.307274" lon="103.775322"><ele>2960.5</ele><time>2011-04-24T05:28:23.0000000+00:00</time></trkpt><trkpt lat="22.307291" lon="103.775322"><ele>2960.5</ele><time>2011-04-24T05:28:28.0000000+00:00</time></trkpt><trkpt lat="22.307297" lon="103.775314"><ele>2960.2</ele><time>2011-04-24T05:28:33.0000000+00:00</time></trkpt><trkpt lat="22.307306" lon="103.775322"><ele>2959.8</ele><time>2011-04-24T05:28:38.0000000+00:00</time></trkpt><trkpt lat="22.307327" lon="103.775314"><ele>2958.8</ele><time>2011-04-24T05:28:43.0000000+00:00</time></trkpt><trkpt lat="22.307329" lon="103.775299"><ele>2958.0</ele><time>2011-04-24T05:28:48.0000000+00:00</time></trkpt><trkpt lat="22.307331" lon="103.775307"><ele>2957.8</ele><time>2011-04-24T05:28:53.0000000+00:00</time></trkpt><trkpt lat="22.307344" lon="103.775291"><ele>2957.4</ele><time>2011-04-24T05:28:58.0000000+00:00</time></trkpt><trkpt lat="22.307346" lon="103.775276"><ele>2957.1</ele><time>2011-04-24T05:29:03.0000000+00:00</time></trkpt><trkpt lat="22.307356" lon="103.775253"><ele>2956.7</ele><time>2011-04-24T05:29:08.0000000+00:00</time></trkpt><trkpt lat="22.307367" lon="103.775246"><ele>2956.3</ele><time>2011-04-24T05:29:13.0000000+00:00</time></trkpt><trkpt lat="22.307373" lon="103.775238"><ele>2956.0</ele><time>2011-04-24T05:29:18.0000000+00:00</time></trkpt><trkpt lat="22.307373" lon="103.775223"><ele>2955.6</ele><time>2011-04-24T05:29:23.0000000+00:00</time></trkpt><trkpt lat="22.307373" lon="103.775215"><ele>2955.2</ele><time>2011-04-24T05:29:28.0000000+00:00</time></trkpt><trkpt lat="22.307375" lon="103.7752"><ele>2954.8</ele><time>2011-04-24T05:29:33.0000000+00:00</time></trkpt><trkpt lat="22.307375" lon="103.7752"><ele>2954.4</ele><time>2011-04-24T05:29:38.0000000+00:00</time></trkpt><trkpt lat="22.307386" lon="103.775169"><ele>2953.9</ele><time>2011-04-24T05:29:43.0000000+00:00</time></trkpt><trkpt lat="22.3074" lon="103.775154"><ele>2953.4</ele><time>2011-04-24T05:29:48.0000000+00:00</time></trkpt><trkpt lat="22.307411" lon="103.775146"><ele>2953.0</ele><time>2011-04-24T05:29:53.0000000+00:00</time></trkpt><trkpt lat="22.307419" lon="103.775139"><ele>2952.6</ele><time>2011-04-24T05:29:58.0000000+00:00</time></trkpt><trkpt lat="22.307426" lon="103.775131"><ele>2952.2</ele><time>2011-04-24T05:30:03.0000000+00:00</time></trkpt><trkpt lat="22.307432" lon="103.775131"><ele>2951.8</ele><time>2011-04-24T05:30:08.0000000+00:00</time></trkpt><trkpt lat="22.307438" lon="103.775124"><ele>2951.4</ele><time>2011-04-24T05:30:13.0000000+00:00</time></trkpt><trkpt lat="22.307438" lon="103.775108"><ele>2951.0</ele><time>2011-04-24T05:30:18.0000000+00:00</time></trkpt><trkpt lat="22.307463" lon="103.775108"><ele>2950.6</ele><time>2011-04-24T05:30:23.0000000+00:00</time></trkpt><trkpt lat="22.307472" lon="103.775108"><ele>2950.2</ele><time>2011-04-24T05:30:28.0000000+00:00</time></trkpt><trkpt lat="22.30748" lon="103.775108"><ele>2949.9</ele><time>2011-04-24T05:30:33.0000000+00:00</time></trkpt><trkpt lat="22.307499" lon="103.775101"><ele>2949.7</ele><time>2011-04-24T05:30:38.0000000+00:00</time></trkpt><trkpt lat="22.307507" lon="103.775024"><ele>2949.6</ele><time>2011-04-24T05:30:43.0000000+00:00</time></trkpt><trkpt lat="22.307507" lon="103.774986"><ele>2950.7</ele><time>2011-04-24T05:30:48.0000000+00:00</time></trkpt><trkpt lat="22.307505" lon="103.774979"><ele>2951.7</ele><time>2011-04-24T05:30:53.0000000+00:00</time></trkpt><trkpt lat="22.307516" lon="103.774956"><ele>2952.4</ele><time>2011-04-24T05:30:58.0000000+00:00</time></trkpt><trkpt lat="22.307518" lon="103.774948"><ele>2952.5</ele><time>2011-04-24T05:31:03.0000000+00:00</time></trkpt><trkpt lat="22.307512" lon="103.77494"><ele>2952.7</ele><time>2011-04-24T05:31:08.0000000+00:00</time></trkpt><trkpt lat="22.307529" lon="103.77494"><ele>2952.9</ele><time>2011-04-24T05:31:13.0000000+00:00</time></trkpt><trkpt lat="22.307545" lon="103.774956"><ele>2953.0</ele><time>2011-04-24T05:31:18.0000000+00:00</time></trkpt><trkpt lat="22.30756" lon="103.774956"><ele>2953.0</ele><time>2011-04-24T05:31:23.0000000+00:00</time></trkpt><trkpt lat="22.30756" lon="103.77494"><ele>2953.0</ele><time>2011-04-24T05:31:28.0000000+00:00</time></trkpt><trkpt lat="22.307562" lon="103.774933"><ele>2953.0</ele><time>2011-04-24T05:31:33.0000000+00:00</time></trkpt><trkpt lat="22.307556" lon="103.774918"><ele>2952.9</ele><time>2011-04-24T05:31:38.0000000+00:00</time></trkpt><trkpt lat="22.307562" lon="103.77491"><ele>2953.0</ele><time>2011-04-24T05:31:43.0000000+00:00</time></trkpt><trkpt lat="22.30755" lon="103.774902"><ele>2953.0</ele><time>2011-04-24T05:31:48.0000000+00:00</time></trkpt><trkpt lat="22.307566" lon="103.774895"><ele>2953.1</ele><time>2011-04-24T05:31:53.0000000+00:00</time></trkpt><trkpt lat="22.307571" lon="103.774879"><ele>2952.9</ele><time>2011-04-24T05:31:58.0000000+00:00</time></trkpt><trkpt lat="22.307573" lon="103.774879"><ele>2952.9</ele><time>2011-04-24T05:32:03.0000000+00:00</time></trkpt><trkpt lat="22.307585" lon="103.774872"><ele>2952.7</ele><time>2011-04-24T05:32:08.0000000+00:00</time></trkpt><trkpt lat="22.307598" lon="103.774872"><ele>2952.3</ele><time>2011-04-24T05:32:13.0000000+00:00</time></trkpt><trkpt lat="22.307583" lon="103.774872"><ele>2952.2</ele><time>2011-04-24T05:32:18.0000000+00:00</time></trkpt><trkpt lat="22.307573" lon="103.774857"><ele>2952.0</ele><time>2011-04-24T05:32:23.0000000+00:00</time></trkpt><trkpt lat="22.307547" lon="103.774818"><ele>2951.8</ele><time>2011-04-24T05:32:28.0000000+00:00</time></trkpt><trkpt lat="22.307516" lon="103.77478"><ele>2951.7</ele><time>2011-04-24T05:32:33.0000000+00:00</time></trkpt><trkpt lat="22.307482" lon="103.77475"><ele>2951.4</ele><time>2011-04-24T05:32:38.0000000+00:00</time></trkpt><trkpt lat="22.307467" lon="103.774719"><ele>2951.3</ele><time>2011-04-24T05:32:43.0000000+00:00</time></trkpt><trkpt lat="22.307459" lon="103.774673"><ele>2951.0</ele><time>2011-04-24T05:32:48.0000000+00:00</time></trkpt><trkpt lat="22.307459" lon="103.774666"><ele>2950.6</ele><time>2011-04-24T05:32:53.0000000+00:00</time></trkpt><trkpt lat="22.307465" lon="103.774635"><ele>2950.1</ele><time>2011-04-24T05:32:58.0000000+00:00</time></trkpt><trkpt lat="22.307493" lon="103.774666"><ele>2949.5</ele><time>2011-04-24T05:33:03.0000000+00:00</time></trkpt><trkpt lat="22.307503" lon="103.774689"><ele>2949.0</ele><time>2011-04-24T05:33:08.0000000+00:00</time></trkpt><trkpt lat="22.307507" lon="103.774712"><ele>2948.9</ele><time>2011-04-24T05:33:13.0000000+00:00</time></trkpt><trkpt lat="22.307514" lon="103.774673"><ele>2948.8</ele><time>2011-04-24T05:33:18.0000000+00:00</time></trkpt><trkpt lat="22.307524" lon="103.774673"><ele>2948.4</ele><time>2011-04-24T05:33:23.0000000+00:00</time></trkpt><trkpt lat="22.307529" lon="103.774643"><ele>2948.0</ele><time>2011-04-24T05:33:28.0000000+00:00</time></trkpt><trkpt lat="22.307535" lon="103.774651"><ele>2948.1</ele><time>2011-04-24T05:33:33.0000000+00:00</time></trkpt><trkpt lat="22.307547" lon="103.774635"><ele>2948.1</ele><time>2011-04-24T05:33:38.0000000+00:00</time></trkpt><trkpt lat="22.307573" lon="103.774635"><ele>2947.6</ele><time>2011-04-24T05:33:43.0000000+00:00</time></trkpt><trkpt lat="22.307589" lon="103.774651"><ele>2947.7</ele><time>2011-04-24T05:33:48.0000000+00:00</time></trkpt><trkpt lat="22.307621" lon="103.774689"><ele>2947.8</ele><time>2011-04-24T05:33:53.0000000+00:00</time></trkpt><trkpt lat="22.307619" lon="103.774712"><ele>2947.7</ele><time>2011-04-24T05:33:58.0000000+00:00</time></trkpt><trkpt lat="22.307611" lon="103.774719"><ele>2947.2</ele><time>2011-04-24T05:34:03.0000000+00:00</time></trkpt><trkpt lat="22.307617" lon="103.774712"><ele>2947.0</ele><time>2011-04-24T05:34:08.0000000+00:00</time></trkpt><trkpt lat="22.307606" lon="103.774719"><ele>2946.8</ele><time>2011-04-24T05:34:13.0000000+00:00</time></trkpt><trkpt lat="22.307592" lon="103.774742"><ele>2946.8</ele><time>2011-04-24T05:34:18.0000000+00:00</time></trkpt><trkpt lat="22.307571" lon="103.774727"><ele>2946.8</ele><time>2011-04-24T05:34:23.0000000+00:00</time></trkpt><trkpt lat="22.307568" lon="103.77475"><ele>2946.8</ele><time>2011-04-24T05:34:28.0000000+00:00</time></trkpt><trkpt lat="22.30757" lon="103.774742"><ele>2946.7</ele><time>2011-04-24T05:34:33.0000000+00:00</time></trkpt><trkpt lat="22.307573" lon="103.774742"><ele>2946.5</ele><time>2011-04-24T05:34:38.0000000+00:00</time></trkpt><trkpt lat="22.307577" lon="103.774727"><ele>2946.7</ele><time>2011-04-24T05:34:43.0000000+00:00</time></trkpt><trkpt lat="22.307554" lon="103.774689"><ele>2947.2</ele><time>2011-04-24T05:34:48.0000000+00:00</time></trkpt><trkpt lat="22.307556" lon="103.774666"><ele>2947.5</ele><time>2011-04-24T05:34:53.0000000+00:00</time></trkpt><trkpt lat="22.307547" lon="103.774689"><ele>2947.7</ele><time>2011-04-24T05:34:58.0000000+00:00</time></trkpt><trkpt lat="22.307537" lon="103.774704"><ele>2947.9</ele><time>2011-04-24T05:35:03.0000000+00:00</time></trkpt><trkpt lat="22.307554" lon="103.774689"><ele>2947.4</ele><time>2011-04-24T05:35:08.0000000+00:00</time></trkpt><trkpt lat="22.307592" lon="103.774696"><ele>2947.8</ele><time>2011-04-24T05:35:13.0000000+00:00</time></trkpt><trkpt lat="22.307627" lon="103.774666"><ele>2947.5</ele><time>2011-04-24T05:35:18.0000000+00:00</time></trkpt><trkpt lat="22.307611" lon="103.774666"><ele>2947.8</ele><time>2011-04-24T05:35:23.0000000+00:00</time></trkpt><trkpt lat="22.30761" lon="103.774643"><ele>2948.0</ele><time>2011-04-24T05:35:28.0000000+00:00</time></trkpt><trkpt lat="22.307602" lon="103.774643"><ele>2948.1</ele><time>2011-04-24T05:35:33.0000000+00:00</time></trkpt><trkpt lat="22.307564" lon="103.774643"><ele>2948.5</ele><time>2011-04-24T05:35:38.0000000+00:00</time></trkpt><trkpt lat="22.307562" lon="103.774651"><ele>2948.7</ele><time>2011-04-24T05:35:43.0000000+00:00</time></trkpt><trkpt lat="22.307585" lon="103.77462"><ele>2947.7</ele><time>2011-04-24T05:35:48.0000000+00:00</time></trkpt><trkpt lat="22.307615" lon="103.77462"><ele>2947.4</ele><time>2011-04-24T05:35:53.0000000+00:00</time></trkpt><trkpt lat="22.307608" lon="103.774628"><ele>2947.0</ele><time>2011-04-24T05:35:58.0000000+00:00</time></trkpt><trkpt lat="22.30764" lon="103.774628"><ele>2946.6</ele><time>2011-04-24T05:36:03.0000000+00:00</time></trkpt><trkpt lat="22.307638" lon="103.774612"><ele>2945.2</ele><time>2011-04-24T05:36:08.0000000+00:00</time></trkpt><trkpt lat="22.307632" lon="103.774612"><ele>2945.0</ele><time>2011-04-24T05:36:13.0000000+00:00</time></trkpt><trkpt lat="22.307636" lon="103.774643"><ele>2944.4</ele><time>2011-04-24T05:36:18.0000000+00:00</time></trkpt><trkpt lat="22.307632" lon="103.774612"><ele>2944.3</ele><time>2011-04-24T05:36:23.0000000+00:00</time></trkpt><trkpt lat="22.307627" lon="103.77459"><ele>2944.3</ele><time>2011-04-24T05:36:28.0000000+00:00</time></trkpt><trkpt lat="22.307642" lon="103.77459"><ele>2944.3</ele><time>2011-04-24T05:36:33.0000000+00:00</time></trkpt><trkpt lat="22.307621" lon="103.774582"><ele>2944.3</ele><time>2011-04-24T05:36:38.0000000+00:00</time></trkpt><trkpt lat="22.307604" lon="103.77459"><ele>2944.0</ele><time>2011-04-24T05:36:43.0000000+00:00</time></trkpt><trkpt lat="22.307623" lon="103.774574"><ele>2944.0</ele><time>2011-04-24T05:36:48.0000000+00:00</time></trkpt><trkpt lat="22.307617" lon="103.774567"><ele>2943.5</ele><time>2011-04-24T05:36:53.0000000+00:00</time></trkpt><trkpt lat="22.307625" lon="103.774559"><ele>2943.3</ele><time>2011-04-24T05:36:58.0000000+00:00</time></trkpt><trkpt lat="22.307617" lon="103.774536"><ele>2943.2</ele><time>2011-04-24T05:37:03.0000000+00:00</time></trkpt><trkpt lat="22.307623" lon="103.774529"><ele>2942.1</ele><time>2011-04-24T05:37:08.0000000+00:00</time></trkpt><trkpt lat="22.307642" lon="103.774544"><ele>2941.2</ele><time>2011-04-24T05:37:13.0000000+00:00</time></trkpt><trkpt lat="22.307648" lon="103.774551"><ele>2941.0</ele><time>2011-04-24T05:37:18.0000000+00:00</time></trkpt><trkpt lat="22.307659" lon="103.774567"><ele>2941.0</ele><time>2011-04-24T05:37:23.0000000+00:00</time></trkpt><trkpt lat="22.307657" lon="103.77459"><ele>2940.7</ele><time>2011-04-24T05:37:28.0000000+00:00</time></trkpt><trkpt lat="22.307653" lon="103.774582"><ele>2940.6</ele><time>2011-04-24T05:37:33.0000000+00:00</time></trkpt><trkpt lat="22.30773" lon="103.77462"><ele>2939.7</ele><time>2011-04-24T05:37:38.0000000+00:00</time></trkpt><trkpt lat="22.30781" lon="103.774681"><ele>2938.9</ele><time>2011-04-24T05:37:43.0000000+00:00</time></trkpt><trkpt lat="22.30785" lon="103.774712"><ele>2938.4</ele><time>2011-04-24T05:37:48.0000000+00:00</time></trkpt><trkpt lat="22.307861" lon="103.774712"><ele>2937.8</ele><time>2011-04-24T05:37:53.0000000+00:00</time></trkpt><trkpt lat="22.307854" lon="103.774666"><ele>2937.3</ele><time>2011-04-24T05:37:58.0000000+00:00</time></trkpt><trkpt lat="22.307848" lon="103.774658"><ele>2937.2</ele><time>2011-04-24T05:38:03.0000000+00:00</time></trkpt><trkpt lat="22.307825" lon="103.77462"><ele>2937.0</ele><time>2011-04-24T05:38:08.0000000+00:00</time></trkpt><trkpt lat="22.307816" lon="103.774567"><ele>2937.0</ele><time>2011-04-24T05:38:13.0000000+00:00</time></trkpt><trkpt lat="22.307781" lon="103.774513"><ele>2936.8</ele><time>2011-04-24T05:38:18.0000000+00:00</time></trkpt><trkpt lat="22.30776" lon="103.774467"><ele>2936.3</ele><time>2011-04-24T05:38:23.0000000+00:00</time></trkpt><trkpt lat="22.30773" lon="103.774452"><ele>2935.8</ele><time>2011-04-24T05:38:28.0000000+00:00</time></trkpt><trkpt lat="22.307707" lon="103.774429"><ele>2935.3</ele><time>2011-04-24T05:38:33.0000000+00:00</time></trkpt><trkpt lat="22.307701" lon="103.774445"><ele>2934.9</ele><time>2011-04-24T05:38:38.0000000+00:00</time></trkpt><trkpt lat="22.307697" lon="103.774445"><ele>2934.4</ele><time>2011-04-24T05:38:43.0000000+00:00</time></trkpt><trkpt lat="22.307772" lon="103.774445"><ele>2933.4</ele><time>2011-04-24T05:38:48.0000000+00:00</time></trkpt><trkpt lat="22.307789" lon="103.774437"><ele>2932.8</ele><time>2011-04-24T05:38:53.0000000+00:00</time></trkpt><trkpt lat="22.307787" lon="103.774452"><ele>2932.2</ele><time>2011-04-24T05:38:58.0000000+00:00</time></trkpt><trkpt lat="22.30785" lon="103.77446"><ele>2931.6</ele><time>2011-04-24T05:39:03.0000000+00:00</time></trkpt><trkpt lat="22.307886" lon="103.774467"><ele>2931.3</ele><time>2011-04-24T05:39:08.0000000+00:00</time></trkpt><trkpt lat="22.307922" lon="103.77449"><ele>2931.3</ele><time>2011-04-24T05:39:13.0000000+00:00</time></trkpt><trkpt lat="22.307917" lon="103.774483"><ele>2931.3</ele><time>2011-04-24T05:39:18.0000000+00:00</time></trkpt><trkpt lat="22.307917" lon="103.774483"><ele>2931.4</ele><time>2011-04-24T05:39:23.0000000+00:00</time></trkpt><trkpt lat="22.307896" lon="103.77446"><ele>2930.9</ele><time>2011-04-24T05:39:28.0000000+00:00</time></trkpt><trkpt lat="22.307886" lon="103.774467"><ele>2930.7</ele><time>2011-04-24T05:39:33.0000000+00:00</time></trkpt><trkpt lat="22.307922" lon="103.774467"><ele>2930.1</ele><time>2011-04-24T05:39:38.0000000+00:00</time></trkpt><trkpt lat="22.307953" lon="103.774475"><ele>2929.7</ele><time>2011-04-24T05:39:43.0000000+00:00</time></trkpt><trkpt lat="22.308006" lon="103.774506"><ele>2928.8</ele><time>2011-04-24T05:39:48.0000000+00:00</time></trkpt><trkpt lat="22.307981" lon="103.774483"><ele>2927.5</ele><time>2011-04-24T05:39:53.0000000+00:00</time></trkpt><trkpt lat="22.30798" lon="103.774452"><ele>2926.2</ele><time>2011-04-24T05:39:58.0000000+00:00</time></trkpt><trkpt lat="22.307978" lon="103.774452"><ele>2926.0</ele><time>2011-04-24T05:40:03.0000000+00:00</time></trkpt><trkpt lat="22.308018" lon="103.774452"><ele>2925.5</ele><time>2011-04-24T05:40:08.0000000+00:00</time></trkpt><trkpt lat="22.308041" lon="103.774445"><ele>2924.6</ele><time>2011-04-24T05:40:13.0000000+00:00</time></trkpt><trkpt lat="22.308056" lon="103.774429"><ele>2923.4</ele><time>2011-04-24T05:40:18.0000000+00:00</time></trkpt><trkpt lat="22.308079" lon="103.774414"><ele>2922.8</ele><time>2011-04-24T05:40:23.0000000+00:00</time></trkpt><trkpt lat="22.308071" lon="103.774391"><ele>2922.3</ele><time>2011-04-24T05:40:28.0000000+00:00</time></trkpt><trkpt lat="22.30806" lon="103.774361"><ele>2921.4</ele><time>2011-04-24T05:40:33.0000000+00:00</time></trkpt><trkpt lat="22.308065" lon="103.774338"><ele>2921.1</ele><time>2011-04-24T05:40:38.0000000+00:00</time></trkpt><trkpt lat="22.308056" lon="103.77433"><ele>2920.3</ele><time>2011-04-24T05:40:43.0000000+00:00</time></trkpt><trkpt lat="22.308043" lon="103.774307"><ele>2918.5</ele><time>2011-04-24T05:40:48.0000000+00:00</time></trkpt><trkpt lat="22.308046" lon="103.774307"><ele>2917.0</ele><time>2011-04-24T05:40:53.0000000+00:00</time></trkpt><trkpt lat="22.308039" lon="103.774292"><ele>2916.4</ele><time>2011-04-24T05:40:58.0000000+00:00</time></trkpt><trkpt lat="22.308023" lon="103.774261"><ele>2915.3</ele><time>2011-04-24T05:41:03.0000000+00:00</time></trkpt><trkpt lat="22.308043" lon="103.774239"><ele>2914.1</ele><time>2011-04-24T05:41:08.0000000+00:00</time></trkpt><trkpt lat="22.308043" lon="103.774208"><ele>2913.2</ele><time>2011-04-24T05:41:13.0000000+00:00</time></trkpt><trkpt lat="22.308041" lon="103.774193"><ele>2912.2</ele><time>2011-04-24T05:41:18.0000000+00:00</time></trkpt><trkpt lat="22.308081" lon="103.774193"><ele>2911.3</ele><time>2011-04-24T05:41:23.0000000+00:00</time></trkpt><trkpt lat="22.308125" lon="103.7742"><ele>2910.7</ele><time>2011-04-24T05:41:28.0000000+00:00</time></trkpt><trkpt lat="22.308163" lon="103.774178"><ele>2910.0</ele><time>2011-04-24T05:41:33.0000000+00:00</time></trkpt><trkpt lat="22.308167" lon="103.774162"><ele>2909.7</ele><time>2011-04-24T05:41:38.0000000+00:00</time></trkpt><trkpt lat="22.308197" lon="103.774155"><ele>2909.3</ele><time>2011-04-24T05:41:43.0000000+00:00</time></trkpt><trkpt lat="22.308176" lon="103.774132"><ele>2908.1</ele><time>2011-04-24T05:41:48.0000000+00:00</time></trkpt><trkpt lat="22.308172" lon="103.774101"><ele>2907.1</ele><time>2011-04-24T05:41:53.0000000+00:00</time></trkpt><trkpt lat="22.30814" lon="103.774094"><ele>2904.7</ele><time>2011-04-24T05:41:58.0000000+00:00</time></trkpt><trkpt lat="22.308134" lon="103.774086"><ele>2903.5</ele><time>2011-04-24T05:42:03.0000000+00:00</time></trkpt><trkpt lat="22.308134" lon="103.774071"><ele>2902.2</ele><time>2011-04-24T05:42:08.0000000+00:00</time></trkpt><trkpt lat="22.308142" lon="103.774063"><ele>2901.6</ele><time>2011-04-24T05:42:13.0000000+00:00</time></trkpt><trkpt lat="22.308151" lon="103.774048"><ele>2900.8</ele><time>2011-04-24T05:42:18.0000000+00:00</time></trkpt><trkpt lat="22.30814" lon="103.77404"><ele>2899.2</ele><time>2011-04-24T05:42:23.0000000+00:00</time></trkpt><trkpt lat="22.308151" lon="103.774033"><ele>2898.9</ele><time>2011-04-24T05:42:28.0000000+00:00</time></trkpt><trkpt lat="22.308159" lon="103.774025"><ele>2897.8</ele><time>2011-04-24T05:42:33.0000000+00:00</time></trkpt><trkpt lat="22.308191" lon="103.774017"><ele>2896.7</ele><time>2011-04-24T05:42:38.0000000+00:00</time></trkpt><trkpt lat="22.308184" lon="103.774002"><ele>2895.7</ele><time>2011-04-24T05:42:43.0000000+00:00</time></trkpt><trkpt lat="22.308189" lon="103.773994"><ele>2895.5</ele><time>2011-04-24T05:42:48.0000000+00:00</time></trkpt><trkpt lat="22.308191" lon="103.773994"><ele>2895.3</ele><time>2011-04-24T05:42:53.0000000+00:00</time></trkpt><trkpt lat="22.308195" lon="103.773987"><ele>2895.2</ele><time>2011-04-24T05:42:58.0000000+00:00</time></trkpt><trkpt lat="22.308201" lon="103.773979"><ele>2894.8</ele><time>2011-04-24T05:43:03.0000000+00:00</time></trkpt><trkpt lat="22.30821" lon="103.773979"><ele>2894.4</ele><time>2011-04-24T05:43:08.0000000+00:00</time></trkpt><trkpt lat="22.30822" lon="103.773972"><ele>2893.9</ele><time>2011-04-24T05:43:13.0000000+00:00</time></trkpt><trkpt lat="22.308228" lon="103.773972"><ele>2893.3</ele><time>2011-04-24T05:43:18.0000000+00:00</time></trkpt><trkpt lat="22.308231" lon="103.773964"><ele>2892.7</ele><time>2011-04-24T05:43:23.0000000+00:00</time></trkpt><trkpt lat="22.30821" lon="103.77388"><ele>2891.0</ele><time>2011-04-24T05:43:28.0000000+00:00</time></trkpt><trkpt lat="22.308167" lon="103.773827"><ele>2887.9</ele><time>2011-04-24T05:43:33.0000000+00:00</time></trkpt><trkpt lat="22.308149" lon="103.773788"><ele>2885.5</ele><time>2011-04-24T05:43:38.0000000+00:00</time></trkpt><trkpt lat="22.308146" lon="103.773727"><ele>2882.3</ele><time>2011-04-24T05:43:43.0000000+00:00</time></trkpt><trkpt lat="22.308121" lon="103.773689"><ele>2879.9</ele><time>2011-04-24T05:43:48.0000000+00:00</time></trkpt><trkpt lat="22.308094" lon="103.773643"><ele>2877.8</ele><time>2011-04-24T05:43:53.0000000+00:00</time></trkpt><trkpt lat="22.308083" lon="103.77359"><ele>2875.8</ele><time>2011-04-24T05:43:58.0000000+00:00</time></trkpt><trkpt lat="22.308054" lon="103.773605"><ele>2874.2</ele><time>2011-04-24T05:44:03.0000000+00:00</time></trkpt><trkpt lat="22.308039" lon="103.773582"><ele>2872.7</ele><time>2011-04-24T05:44:08.0000000+00:00</time></trkpt><trkpt lat="22.30801" lon="103.773514"><ele>2871.8</ele><time>2011-04-24T05:44:13.0000000+00:00</time></trkpt><trkpt lat="22.308044" lon="103.773468"><ele>2871.2</ele><time>2011-04-24T05:44:18.0000000+00:00</time></trkpt><trkpt lat="22.308079" lon="103.77343"><ele>2870.4</ele><time>2011-04-24T05:44:23.0000000+00:00</time></trkpt><trkpt lat="22.308105" lon="103.773415"><ele>2869.9</ele><time>2011-04-24T05:44:28.0000000+00:00</time></trkpt><trkpt lat="22.308104" lon="103.773392"><ele>2869.1</ele><time>2011-04-24T05:44:33.0000000+00:00</time></trkpt><trkpt lat="22.308117" lon="103.773369"><ele>2868.3</ele><time>2011-04-24T05:44:38.0000000+00:00</time></trkpt><trkpt lat="22.308136" lon="103.773346"><ele>2868.0</ele><time>2011-04-24T05:44:43.0000000+00:00</time></trkpt><trkpt lat="22.308136" lon="103.773308"><ele>2867.3</ele><time>2011-04-24T05:44:48.0000000+00:00</time></trkpt><trkpt lat="22.308142" lon="103.773277"><ele>2865.7</ele><time>2011-04-24T05:44:53.0000000+00:00</time></trkpt><trkpt lat="22.308163" lon="103.773232"><ele>2865.2</ele><time>2011-04-24T05:44:58.0000000+00:00</time></trkpt><trkpt lat="22.308149" lon="103.773201"><ele>2864.6</ele><time>2011-04-24T05:45:03.0000000+00:00</time></trkpt><trkpt lat="22.308157" lon="103.773117"><ele>2864.4</ele><time>2011-04-24T05:45:08.0000000+00:00</time></trkpt><trkpt lat="22.308159" lon="103.773087"><ele>2864.2</ele><time>2011-04-24T05:45:13.0000000+00:00</time></trkpt><trkpt lat="22.308147" lon="103.773087"><ele>2864.5</ele><time>2011-04-24T05:45:18.0000000+00:00</time></trkpt><trkpt lat="22.308174" lon="103.773064"><ele>2864.6</ele><time>2011-04-24T05:45:23.0000000+00:00</time></trkpt><trkpt lat="22.308176" lon="103.773056"><ele>2865.3</ele><time>2011-04-24T05:45:28.0000000+00:00</time></trkpt><trkpt lat="22.308174" lon="103.773041"><ele>2865.8</ele><time>2011-04-24T05:45:33.0000000+00:00</time></trkpt><trkpt lat="22.308207" lon="103.773033"><ele>2866.3</ele><time>2011-04-24T05:45:38.0000000+00:00</time></trkpt><trkpt lat="22.308216" lon="103.773026"><ele>2867.2</ele><time>2011-04-24T05:45:43.0000000+00:00</time></trkpt><trkpt lat="22.308218" lon="103.77301"><ele>2866.8</ele><time>2011-04-24T05:45:48.0000000+00:00</time></trkpt><trkpt lat="22.308243" lon="103.772987"><ele>2867.5</ele><time>2011-04-24T05:45:53.0000000+00:00</time></trkpt><trkpt lat="22.308262" lon="103.772972"><ele>2867.8</ele><time>2011-04-24T05:45:58.0000000+00:00</time></trkpt><trkpt lat="22.308273" lon="103.772964"><ele>2868.2</ele><time>2011-04-24T05:46:03.0000000+00:00</time></trkpt><trkpt lat="22.308294" lon="103.772987"><ele>2868.2</ele><time>2011-04-24T05:46:08.0000000+00:00</time></trkpt><trkpt lat="22.308327" lon="103.773018"><ele>2868.0</ele><time>2011-04-24T05:46:13.0000000+00:00</time></trkpt><trkpt lat="22.308338" lon="103.773026"><ele>2868.0</ele><time>2011-04-24T05:46:18.0000000+00:00</time></trkpt><trkpt lat="22.308355" lon="103.773018"><ele>2868.1</ele><time>2011-04-24T05:46:23.0000000+00:00</time></trkpt><trkpt lat="22.308367" lon="103.77301"><ele>2867.8</ele><time>2011-04-24T05:46:28.0000000+00:00</time></trkpt><trkpt lat="22.308378" lon="103.773018"><ele>2867.8</ele><time>2011-04-24T05:46:33.0000000+00:00</time></trkpt><trkpt lat="22.308399" lon="103.77301"><ele>2868.0</ele><time>2011-04-24T05:46:38.0000000+00:00</time></trkpt><trkpt lat="22.308399" lon="103.773026"><ele>2868.2</ele><time>2011-04-24T05:46:43.0000000+00:00</time></trkpt><trkpt lat="22.308411" lon="103.773048"><ele>2868.2</ele><time>2011-04-24T05:46:48.0000000+00:00</time></trkpt><trkpt lat="22.30843" lon="103.773079"><ele>2868.3</ele><time>2011-04-24T05:46:53.0000000+00:00</time></trkpt><trkpt lat="22.308466" lon="103.773109"><ele>2868.3</ele><time>2011-04-24T05:46:58.0000000+00:00</time></trkpt><trkpt lat="22.308498" lon="103.773117"><ele>2868.3</ele><time>2011-04-24T05:47:03.0000000+00:00</time></trkpt><trkpt lat="22.308544" lon="103.773109"><ele>2868.5</ele><time>2011-04-24T05:47:08.0000000+00:00</time></trkpt><trkpt lat="22.308552" lon="103.773079"><ele>2868.5</ele><time>2011-04-24T05:47:13.0000000+00:00</time></trkpt><trkpt lat="22.30854" lon="103.773109"><ele>2868.7</ele><time>2011-04-24T05:47:18.0000000+00:00</time></trkpt><trkpt lat="22.308599" lon="103.773109"><ele>2868.7</ele><time>2011-04-24T05:47:23.0000000+00:00</time></trkpt><trkpt lat="22.308617" lon="103.773102"><ele>2869.2</ele><time>2011-04-24T05:47:28.0000000+00:00</time></trkpt><trkpt lat="22.308645" lon="103.773109"><ele>2869.5</ele><time>2011-04-24T05:47:33.0000000+00:00</time></trkpt><trkpt lat="22.308662" lon="103.773087"><ele>2869.8</ele><time>2011-04-24T05:47:38.0000000+00:00</time></trkpt><trkpt lat="22.30862" lon="103.773056"><ele>2870.2</ele><time>2011-04-24T05:47:43.0000000+00:00</time></trkpt><trkpt lat="22.308598" lon="103.77301"><ele>2870.5</ele><time>2011-04-24T05:47:48.0000000+00:00</time></trkpt><trkpt lat="22.308599" lon="103.77301"><ele>2870.7</ele><time>2011-04-24T05:47:53.0000000+00:00</time></trkpt><trkpt lat="22.308588" lon="103.772995"><ele>2870.5</ele><time>2011-04-24T05:47:58.0000000+00:00</time></trkpt><trkpt lat="22.308632" lon="103.773026"><ele>2870.6</ele><time>2011-04-24T05:48:03.0000000+00:00</time></trkpt><trkpt lat="22.308657" lon="103.773026"><ele>2870.7</ele><time>2011-04-24T05:48:08.0000000+00:00</time></trkpt><trkpt lat="22.308653" lon="103.77301"><ele>2871.1</ele><time>2011-04-24T05:48:13.0000000+00:00</time></trkpt><trkpt lat="22.308668" lon="103.773003"><ele>2871.2</ele><time>2011-04-24T05:48:18.0000000+00:00</time></trkpt><trkpt lat="22.308641" lon="103.772995"><ele>2871.2</ele><time>2011-04-24T05:48:23.0000000+00:00</time></trkpt><trkpt lat="22.308653" lon="103.772972"><ele>2871.0</ele><time>2011-04-24T05:48:28.0000000+00:00</time></trkpt><trkpt lat="22.308647" lon="103.77298"><ele>2871.0</ele><time>2011-04-24T05:48:33.0000000+00:00</time></trkpt><trkpt lat="22.308666" lon="103.772964"><ele>2871.1</ele><time>2011-04-24T05:48:38.0000000+00:00</time></trkpt><trkpt lat="22.308676" lon="103.772949"><ele>2871.3</ele><time>2011-04-24T05:48:43.0000000+00:00</time></trkpt><trkpt lat="22.308678" lon="103.772926"><ele>2871.5</ele><time>2011-04-24T05:48:48.0000000+00:00</time></trkpt><trkpt lat="22.308664" lon="103.772926"><ele>2871.4</ele><time>2011-04-24T05:48:53.0000000+00:00</time></trkpt><trkpt lat="22.308662" lon="103.772903"><ele>2871.2</ele><time>2011-04-24T05:48:58.0000000+00:00</time></trkpt><trkpt lat="22.30867" lon="103.772903"><ele>2871.8</ele><time>2011-04-24T05:49:03.0000000+00:00</time></trkpt><trkpt lat="22.308672" lon="103.772865"><ele>2873.3</ele><time>2011-04-24T05:49:08.0000000+00:00</time></trkpt><trkpt lat="22.308718" lon="103.772865"><ele>2875.0</ele><time>2011-04-24T05:49:13.0000000+00:00</time></trkpt><trkpt lat="22.308731" lon="103.772865"><ele>2875.5</ele><time>2011-04-24T05:49:18.0000000+00:00</time></trkpt><trkpt lat="22.308735" lon="103.77285"><ele>2875.5</ele><time>2011-04-24T05:49:23.0000000+00:00</time></trkpt><trkpt lat="22.308741" lon="103.772842"><ele>2875.9</ele><time>2011-04-24T05:49:28.0000000+00:00</time></trkpt><trkpt lat="22.308754" lon="103.772842"><ele>2876.3</ele><time>2011-04-24T05:49:33.0000000+00:00</time></trkpt><trkpt lat="22.308769" lon="103.772789"><ele>2877.5</ele><time>2011-04-24T05:49:38.0000000+00:00</time></trkpt><trkpt lat="22.3088" lon="103.772774"><ele>2878.7</ele><time>2011-04-24T05:49:43.0000000+00:00</time></trkpt><trkpt lat="22.308819" lon="103.772766"><ele>2879.5</ele><time>2011-04-24T05:49:48.0000000+00:00</time></trkpt><trkpt lat="22.308838" lon="103.772751"><ele>2880.0</ele><time>2011-04-24T05:49:53.0000000+00:00</time></trkpt><trkpt lat="22.308876" lon="103.772713"><ele>2880.5</ele><time>2011-04-24T05:49:58.0000000+00:00</time></trkpt><trkpt lat="22.308874" lon="103.772675"><ele>2880.5</ele><time>2011-04-24T05:50:03.0000000+00:00</time></trkpt><trkpt lat="22.308887" lon="103.772659"><ele>2880.8</ele><time>2011-04-24T05:50:08.0000000+00:00</time></trkpt><trkpt lat="22.308899" lon="103.772636"><ele>2880.7</ele><time>2011-04-24T05:50:13.0000000+00:00</time></trkpt><trkpt lat="22.308912" lon="103.772621"><ele>2881.0</ele><time>2011-04-24T05:50:18.0000000+00:00</time></trkpt><trkpt lat="22.308891" lon="103.772621"><ele>2880.7</ele><time>2011-04-24T05:50:23.0000000+00:00</time></trkpt><trkpt lat="22.308872" lon="103.772598"><ele>2880.6</ele><time>2011-04-24T05:50:28.0000000+00:00</time></trkpt><trkpt lat="22.308861" lon="103.772598"><ele>2880.5</ele><time>2011-04-24T05:50:33.0000000+00:00</time></trkpt><trkpt lat="22.308867" lon="103.772583"><ele>2880.4</ele><time>2011-04-24T05:50:38.0000000+00:00</time></trkpt><trkpt lat="22.308907" lon="103.77253"><ele>2880.2</ele><time>2011-04-24T05:50:43.0000000+00:00</time></trkpt><trkpt lat="22.308895" lon="103.772484"><ele>2880.0</ele><time>2011-04-24T05:50:48.0000000+00:00</time></trkpt><trkpt lat="22.308891" lon="103.772446"><ele>2879.6</ele><time>2011-04-24T05:50:53.0000000+00:00</time></trkpt><trkpt lat="22.308926" lon="103.772453"><ele>2879.2</ele><time>2011-04-24T05:50:58.0000000+00:00</time></trkpt><trkpt lat="22.308929" lon="103.772507"><ele>2878.9</ele><time>2011-04-24T05:51:03.0000000+00:00</time></trkpt><trkpt lat="22.308928" lon="103.772491"><ele>2878.7</ele><time>2011-04-24T05:51:08.0000000+00:00</time></trkpt><trkpt lat="22.308914" lon="103.772469"><ele>2878.5</ele><time>2011-04-24T05:51:13.0000000+00:00</time></trkpt><trkpt lat="22.308914" lon="103.772461"><ele>2877.9</ele><time>2011-04-24T05:51:18.0000000+00:00</time></trkpt><trkpt lat="22.308949" lon="103.772476"><ele>2877.6</ele><time>2011-04-24T05:51:23.0000000+00:00</time></trkpt><trkpt lat="22.308949" lon="103.772484"><ele>2877.4</ele><time>2011-04-24T05:51:28.0000000+00:00</time></trkpt><trkpt lat="22.308933" lon="103.772484"><ele>2877.3</ele><time>2011-04-24T05:51:33.0000000+00:00</time></trkpt><trkpt lat="22.308945" lon="103.772469"><ele>2876.9</ele><time>2011-04-24T05:51:38.0000000+00:00</time></trkpt><trkpt lat="22.308922" lon="103.772476"><ele>2876.8</ele><time>2011-04-24T05:51:43.0000000+00:00</time></trkpt><trkpt lat="22.308922" lon="103.772476"><ele>2876.9</ele><time>2011-04-24T05:51:48.0000000+00:00</time></trkpt><trkpt lat="22.308916" lon="103.772476"><ele>2876.8</ele><time>2011-04-24T05:51:53.0000000+00:00</time></trkpt><trkpt lat="22.308912" lon="103.772476"><ele>2876.8</ele><time>2011-04-24T05:51:58.0000000+00:00</time></trkpt><trkpt lat="22.30891" lon="103.772476"><ele>2876.8</ele><time>2011-04-24T05:52:03.0000000+00:00</time></trkpt><trkpt lat="22.308908" lon="103.772484"><ele>2876.8</ele><time>2011-04-24T05:52:08.0000000+00:00</time></trkpt><trkpt lat="22.308908" lon="103.772484"><ele>2876.8</ele><time>2011-04-24T05:52:13.0000000+00:00</time></trkpt><trkpt lat="22.308905" lon="103.772499"><ele>2877.0</ele><time>2011-04-24T05:52:18.0000000+00:00</time></trkpt><trkpt lat="22.308895" lon="103.772507"><ele>2877.3</ele><time>2011-04-24T05:52:23.0000000+00:00</time></trkpt><trkpt lat="22.308878" lon="103.77253"><ele>2877.3</ele><time>2011-04-24T05:52:28.0000000+00:00</time></trkpt><trkpt lat="22.308899" lon="103.772522"><ele>2876.8</ele><time>2011-04-24T05:52:33.0000000+00:00</time></trkpt><trkpt lat="22.308907" lon="103.772491"><ele>2876.9</ele><time>2011-04-24T05:52:38.0000000+00:00</time></trkpt><trkpt lat="22.308929" lon="103.772484"><ele>2877.1</ele><time>2011-04-24T05:52:43.0000000+00:00</time></trkpt><trkpt lat="22.308929" lon="103.772484"><ele>2876.7</ele><time>2011-04-24T05:52:48.0000000+00:00</time></trkpt><trkpt lat="22.308935" lon="103.772484"><ele>2876.4</ele><time>2011-04-24T05:52:53.0000000+00:00</time></trkpt><trkpt lat="22.308937" lon="103.772484"><ele>2876.5</ele><time>2011-04-24T05:52:58.0000000+00:00</time></trkpt><trkpt lat="22.308933" lon="103.772484"><ele>2876.4</ele><time>2011-04-24T05:53:03.0000000+00:00</time></trkpt><trkpt lat="22.308937" lon="103.772484"><ele>2876.3</ele><time>2011-04-24T05:53:08.0000000+00:00</time></trkpt><trkpt lat="22.308941" lon="103.772484"><ele>2876.2</ele><time>2011-04-24T05:53:13.0000000+00:00</time></trkpt><trkpt lat="22.308943" lon="103.772484"><ele>2876.3</ele><time>2011-04-24T05:53:18.0000000+00:00</time></trkpt><trkpt lat="22.308945" lon="103.772484"><ele>2876.3</ele><time>2011-04-24T05:53:23.0000000+00:00</time></trkpt><trkpt lat="22.308947" lon="103.772484"><ele>2876.2</ele><time>2011-04-24T05:53:28.0000000+00:00</time></trkpt><trkpt lat="22.308945" lon="103.772491"><ele>2876.3</ele><time>2011-04-24T05:53:33.0000000+00:00</time></trkpt><trkpt lat="22.308945" lon="103.772491"><ele>2876.4</ele><time>2011-04-24T05:53:38.0000000+00:00</time></trkpt><trkpt lat="22.308943" lon="103.772491"><ele>2876.4</ele><time>2011-04-24T05:53:43.0000000+00:00</time></trkpt><trkpt lat="22.308941" lon="103.772491"><ele>2876.4</ele><time>2011-04-24T05:53:48.0000000+00:00</time></trkpt><trkpt lat="22.308943" lon="103.772491"><ele>2876.4</ele><time>2011-04-24T05:53:53.0000000+00:00</time></trkpt><trkpt lat="22.308943" lon="103.772491"><ele>2876.4</ele><time>2011-04-24T05:53:58.0000000+00:00</time></trkpt><trkpt lat="22.308943" lon="103.772491"><ele>2876.4</ele><time>2011-04-24T05:54:03.0000000+00:00</time></trkpt><trkpt lat="22.308933" lon="103.772484"><ele>2876.5</ele><time>2011-04-24T05:54:08.0000000+00:00</time></trkpt><trkpt lat="22.308912" lon="103.772484"><ele>2876.7</ele><time>2011-04-24T05:54:13.0000000+00:00</time></trkpt><trkpt lat="22.308903" lon="103.772491"><ele>2876.7</ele><time>2011-04-24T05:54:18.0000000+00:00</time></trkpt><trkpt lat="22.308899" lon="103.772491"><ele>2876.7</ele><time>2011-04-24T05:54:23.0000000+00:00</time></trkpt><trkpt lat="22.308901" lon="103.772491"><ele>2876.7</ele><time>2011-04-24T05:54:28.0000000+00:00</time></trkpt><trkpt lat="22.308903" lon="103.772491"><ele>2876.8</ele><time>2011-04-24T05:54:33.0000000+00:00</time></trkpt><trkpt lat="22.308908" lon="103.772453"><ele>2876.6</ele><time>2011-04-24T05:54:38.0000000+00:00</time></trkpt><trkpt lat="22.308884" lon="103.772484"><ele>2876.1</ele><time>2011-04-24T05:54:43.0000000+00:00</time></trkpt><trkpt lat="22.308924" lon="103.772507"><ele>2876.1</ele><time>2011-04-24T05:54:48.0000000+00:00</time></trkpt><trkpt lat="22.308977" lon="103.772484"><ele>2875.0</ele><time>2011-04-24T05:54:53.0000000+00:00</time></trkpt><trkpt lat="22.308975" lon="103.772484"><ele>2875.2</ele><time>2011-04-24T05:54:58.0000000+00:00</time></trkpt><trkpt lat="22.308969" lon="103.772484"><ele>2875.3</ele><time>2011-04-24T05:55:03.0000000+00:00</time></trkpt><trkpt lat="22.308969" lon="103.772484"><ele>2875.4</ele><time>2011-04-24T05:55:08.0000000+00:00</time></trkpt><trkpt lat="22.308969" lon="103.772484"><ele>2875.5</ele><time>2011-04-24T05:55:13.0000000+00:00</time></trkpt><trkpt lat="22.308962" lon="103.772491"><ele>2875.7</ele><time>2011-04-24T05:55:18.0000000+00:00</time></trkpt><trkpt lat="22.308958" lon="103.772491"><ele>2875.7</ele><time>2011-04-24T05:55:23.0000000+00:00</time></trkpt><trkpt lat="22.308954" lon="103.772491"><ele>2875.8</ele><time>2011-04-24T05:55:28.0000000+00:00</time></trkpt><trkpt lat="22.308952" lon="103.772499"><ele>2875.8</ele><time>2011-04-24T05:55:33.0000000+00:00</time></trkpt><trkpt lat="22.30896" lon="103.772491"><ele>2875.9</ele><time>2011-04-24T05:55:38.0000000+00:00</time></trkpt><trkpt lat="22.308958" lon="103.772507"><ele>2876.0</ele><time>2011-04-24T05:55:43.0000000+00:00</time></trkpt><trkpt lat="22.30896" lon="103.772514"><ele>2876.0</ele><time>2011-04-24T05:55:48.0000000+00:00</time></trkpt><trkpt lat="22.308962" lon="103.772514"><ele>2876.1</ele><time>2011-04-24T05:55:53.0000000+00:00</time></trkpt><trkpt lat="22.308958" lon="103.772522"><ele>2876.2</ele><time>2011-04-24T05:55:58.0000000+00:00</time></trkpt><trkpt lat="22.308975" lon="103.772499"><ele>2876.0</ele><time>2011-04-24T05:56:03.0000000+00:00</time></trkpt><trkpt lat="22.308977" lon="103.772499"><ele>2876.2</ele><time>2011-04-24T05:56:08.0000000+00:00</time></trkpt><trkpt lat="22.308975" lon="103.772507"><ele>2876.2</ele><time>2011-04-24T05:56:13.0000000+00:00</time></trkpt><trkpt lat="22.308949" lon="103.772476"><ele>2875.8</ele><time>2011-04-24T05:56:18.0000000+00:00</time></trkpt><trkpt lat="22.308962" lon="103.772476"><ele>2875.5</ele><time>2011-04-24T05:56:23.0000000+00:00</time></trkpt><trkpt lat="22.308962" lon="103.772484"><ele>2875.5</ele><time>2011-04-24T05:56:28.0000000+00:00</time></trkpt><trkpt lat="22.308956" lon="103.772491"><ele>2875.5</ele><time>2011-04-24T05:56:33.0000000+00:00</time></trkpt><trkpt lat="22.308949" lon="103.772491"><ele>2875.6</ele><time>2011-04-24T05:56:38.0000000+00:00</time></trkpt><trkpt lat="22.308941" lon="103.772476"><ele>2875.7</ele><time>2011-04-24T05:56:43.0000000+00:00</time></trkpt><trkpt lat="22.308931" lon="103.772476"><ele>2875.6</ele><time>2011-04-24T05:56:48.0000000+00:00</time></trkpt><trkpt lat="22.308931" lon="103.772461"><ele>2875.9</ele><time>2011-04-24T05:56:53.0000000+00:00</time></trkpt><trkpt lat="22.308918" lon="103.772461"><ele>2876.0</ele><time>2011-04-24T05:56:58.0000000+00:00</time></trkpt><trkpt lat="22.308893" lon="103.772469"><ele>2876.2</ele><time>2011-04-24T05:57:03.0000000+00:00</time></trkpt><trkpt lat="22.308867" lon="103.772469"><ele>2876.5</ele><time>2011-04-24T05:57:08.0000000+00:00</time></trkpt><trkpt lat="22.308868" lon="103.772476"><ele>2876.7</ele><time>2011-04-24T05:57:13.0000000+00:00</time></trkpt><trkpt lat="22.308874" lon="103.772484"><ele>2876.8</ele><time>2011-04-24T05:57:18.0000000+00:00</time></trkpt><trkpt lat="22.308876" lon="103.772491"><ele>2876.8</ele><time>2011-04-24T05:57:23.0000000+00:00</time></trkpt><trkpt lat="22.30888" lon="103.772491"><ele>2876.8</ele><time>2011-04-24T05:57:28.0000000+00:00</time></trkpt><trkpt lat="22.308876" lon="103.772484"><ele>2876.8</ele><time>2011-04-24T05:57:33.0000000+00:00</time></trkpt><trkpt lat="22.308887" lon="103.772491"><ele>2876.8</ele><time>2011-04-24T05:57:38.0000000+00:00</time></trkpt><trkpt lat="22.308887" lon="103.772484"><ele>2876.7</ele><time>2011-04-24T05:57:43.0000000+00:00</time></trkpt><trkpt lat="22.308884" lon="103.772484"><ele>2876.5</ele><time>2011-04-24T05:57:48.0000000+00:00</time></trkpt><trkpt lat="22.308878" lon="103.772476"><ele>2876.5</ele><time>2011-04-24T05:57:53.0000000+00:00</time></trkpt><trkpt lat="22.308874" lon="103.772469"><ele>2876.4</ele><time>2011-04-24T05:57:58.0000000+00:00</time></trkpt><trkpt lat="22.308874" lon="103.772469"><ele>2876.5</ele><time>2011-04-24T05:58:03.0000000+00:00</time></trkpt><trkpt lat="22.308887" lon="103.772446"><ele>2875.7</ele><time>2011-04-24T05:58:08.0000000+00:00</time></trkpt><trkpt lat="22.308891" lon="103.772446"><ele>2875.8</ele><time>2011-04-24T05:58:13.0000000+00:00</time></trkpt><trkpt lat="22.308929" lon="103.77243"><ele>2874.6</ele><time>2011-04-24T05:58:18.0000000+00:00</time></trkpt><trkpt lat="22.308941" lon="103.772476"><ele>2875.0</ele><time>2011-04-24T05:58:23.0000000+00:00</time></trkpt><trkpt lat="22.308939" lon="103.772514"><ele>2874.6</ele><time>2011-04-24T05:58:28.0000000+00:00</time></trkpt><trkpt lat="22.308954" lon="103.772507"><ele>2874.0</ele><time>2011-04-24T05:58:33.0000000+00:00</time></trkpt><trkpt lat="22.30896" lon="103.772522"><ele>2874.2</ele><time>2011-04-24T05:58:38.0000000+00:00</time></trkpt><trkpt lat="22.308971" lon="103.772522"><ele>2873.9</ele><time>2011-04-24T05:58:43.0000000+00:00</time></trkpt><trkpt lat="22.309002" lon="103.772507"><ele>2874.2</ele><time>2011-04-24T05:58:48.0000000+00:00</time></trkpt><trkpt lat="22.309027" lon="103.772499"><ele>2874.0</ele><time>2011-04-24T05:58:53.0000000+00:00</time></trkpt><trkpt lat="22.309036" lon="103.772522"><ele>2873.9</ele><time>2011-04-24T05:58:58.0000000+00:00</time></trkpt><trkpt lat="22.309042" lon="103.772545"><ele>2875.7</ele><time>2011-04-24T05:59:03.0000000+00:00</time></trkpt><trkpt lat="22.309038" lon="103.772568"><ele>2874.6</ele><time>2011-04-24T05:59:08.0000000+00:00</time></trkpt><trkpt lat="22.309052" lon="103.772575"><ele>2875.3</ele><time>2011-04-24T05:59:13.0000000+00:00</time></trkpt><trkpt lat="22.309053" lon="103.772583"><ele>2875.5</ele><time>2011-04-24T05:59:18.0000000+00:00</time></trkpt><trkpt lat="22.309063" lon="103.772583"><ele>2875.0</ele><time>2011-04-24T05:59:23.0000000+00:00</time></trkpt><trkpt lat="22.30908" lon="103.772568"><ele>2873.3</ele><time>2011-04-24T05:59:28.0000000+00:00</time></trkpt><trkpt lat="22.309099" lon="103.77256"><ele>2871.8</ele><time>2011-04-24T05:59:33.0000000+00:00</time></trkpt><trkpt lat="22.309093" lon="103.772522"><ele>2871.8</ele><time>2011-04-24T05:59:38.0000000+00:00</time></trkpt><trkpt lat="22.309097" lon="103.772522"><ele>2872.0</ele><time>2011-04-24T05:59:43.0000000+00:00</time></trkpt><trkpt lat="22.309105" lon="103.77253"><ele>2872.2</ele><time>2011-04-24T05:59:48.0000000+00:00</time></trkpt><trkpt lat="22.309105" lon="103.77253"><ele>2872.3</ele><time>2011-04-24T05:59:53.0000000+00:00</time></trkpt><trkpt lat="22.309109" lon="103.77253"><ele>2872.3</ele><time>2011-04-24T05:59:58.0000000+00:00</time></trkpt><trkpt lat="22.309107" lon="103.772537"><ele>2873.4</ele><time>2011-04-24T06:00:03.0000000+00:00</time></trkpt><trkpt lat="22.309097" lon="103.772537"><ele>2873.2</ele><time>2011-04-24T06:00:08.0000000+00:00</time></trkpt><trkpt lat="22.309111" lon="103.772552"><ele>2872.8</ele><time>2011-04-24T06:00:13.0000000+00:00</time></trkpt><trkpt lat="22.309099" lon="103.772537"><ele>2872.6</ele><time>2011-04-24T06:00:18.0000000+00:00</time></trkpt><trkpt lat="22.309092" lon="103.772537"><ele>2872.0</ele><time>2011-04-24T06:00:23.0000000+00:00</time></trkpt><trkpt lat="22.309097" lon="103.77253"><ele>2872.3</ele><time>2011-04-24T06:00:28.0000000+00:00</time></trkpt><trkpt lat="22.309101" lon="103.772537"><ele>2872.1</ele><time>2011-04-24T06:00:33.0000000+00:00</time></trkpt><trkpt lat="22.309109" lon="103.772552"><ele>2871.8</ele><time>2011-04-24T06:00:38.0000000+00:00</time></trkpt><trkpt lat="22.30912" lon="103.772552"><ele>2871.2</ele><time>2011-04-24T06:00:43.0000000+00:00</time></trkpt><trkpt lat="22.309137" lon="103.772568"><ele>2870.9</ele><time>2011-04-24T06:00:48.0000000+00:00</time></trkpt><trkpt lat="22.309162" lon="103.772537"><ele>2871.0</ele><time>2011-04-24T06:00:53.0000000+00:00</time></trkpt><trkpt lat="22.309179" lon="103.77253"><ele>2870.9</ele><time>2011-04-24T06:00:58.0000000+00:00</time></trkpt><trkpt lat="22.309195" lon="103.772514"><ele>2870.7</ele><time>2011-04-24T06:01:03.0000000+00:00</time></trkpt><trkpt lat="22.309196" lon="103.772491"><ele>2870.8</ele><time>2011-04-24T06:01:08.0000000+00:00</time></trkpt><trkpt lat="22.309193" lon="103.772446"><ele>2870.8</ele><time>2011-04-24T06:01:13.0000000+00:00</time></trkpt><trkpt lat="22.309217" lon="103.772377"><ele>2870.9</ele><time>2011-04-24T06:01:18.0000000+00:00</time></trkpt><trkpt lat="22.309223" lon="103.772346"><ele>2870.3</ele><time>2011-04-24T06:01:23.0000000+00:00</time></trkpt><trkpt lat="22.309198" lon="103.772324"><ele>2869.9</ele><time>2011-04-24T06:01:28.0000000+00:00</time></trkpt><trkpt lat="22.30921" lon="103.772301"><ele>2869.7</ele><time>2011-04-24T06:01:33.0000000+00:00</time></trkpt><trkpt lat="22.309208" lon="103.77224"><ele>2869.7</ele><time>2011-04-24T06:01:38.0000000+00:00</time></trkpt><trkpt lat="22.309223" lon="103.772217"><ele>2869.7</ele><time>2011-04-24T06:01:43.0000000+00:00</time></trkpt><trkpt lat="22.309248" lon="103.772202"><ele>2869.3</ele><time>2011-04-24T06:01:48.0000000+00:00</time></trkpt><trkpt lat="22.309315" lon="103.772217"><ele>2868.9</ele><time>2011-04-24T06:01:53.0000000+00:00</time></trkpt><trkpt lat="22.30933" lon="103.772232"><ele>2868.7</ele><time>2011-04-24T06:01:58.0000000+00:00</time></trkpt><trkpt lat="22.309341" lon="103.772209"><ele>2868.4</ele><time>2011-04-24T06:02:03.0000000+00:00</time></trkpt><trkpt lat="22.309343" lon="103.772186"><ele>2868.8</ele><time>2011-04-24T06:02:08.0000000+00:00</time></trkpt><trkpt lat="22.30929" lon="103.772194"><ele>2868.5</ele><time>2011-04-24T06:02:13.0000000+00:00</time></trkpt><trkpt lat="22.309315" lon="103.77224"><ele>2869.0</ele><time>2011-04-24T06:02:18.0000000+00:00</time></trkpt><trkpt lat="22.309332" lon="103.772285"><ele>2869.4</ele><time>2011-04-24T06:02:23.0000000+00:00</time></trkpt><trkpt lat="22.309298" lon="103.772285"><ele>2871.0</ele><time>2011-04-24T06:02:28.0000000+00:00</time></trkpt><trkpt lat="22.30934" lon="103.772285"><ele>2872.0</ele><time>2011-04-24T06:02:33.0000000+00:00</time></trkpt><trkpt lat="22.30937" lon="103.772263"><ele>2873.6</ele><time>2011-04-24T06:02:38.0000000+00:00</time></trkpt><trkpt lat="22.309401" lon="103.772263"><ele>2874.2</ele><time>2011-04-24T06:02:43.0000000+00:00</time></trkpt><trkpt lat="22.309443" lon="103.772232"><ele>2874.9</ele><time>2011-04-24T06:02:48.0000000+00:00</time></trkpt><trkpt lat="22.309465" lon="103.772186"><ele>2875.5</ele><time>2011-04-24T06:02:53.0000000+00:00</time></trkpt><trkpt lat="22.309519" lon="103.772148"><ele>2875.9</ele><time>2011-04-24T06:02:58.0000000+00:00</time></trkpt><trkpt lat="22.309534" lon="103.772133"><ele>2876.0</ele><time>2011-04-24T06:03:03.0000000+00:00</time></trkpt><trkpt lat="22.309546" lon="103.772102"><ele>2876.4</ele><time>2011-04-24T06:03:08.0000000+00:00</time></trkpt><trkpt lat="22.309517" lon="103.772064"><ele>2877.0</ele><time>2011-04-24T06:03:13.0000000+00:00</time></trkpt><trkpt lat="22.309553" lon="103.772041"><ele>2877.2</ele><time>2011-04-24T06:03:18.0000000+00:00</time></trkpt><trkpt lat="22.30958" lon="103.772026"><ele>2876.7</ele><time>2011-04-24T06:03:23.0000000+00:00</time></trkpt><trkpt lat="22.309597" lon="103.771988"><ele>2876.0</ele><time>2011-04-24T06:03:28.0000000+00:00</time></trkpt><trkpt lat="22.309591" lon="103.77198"><ele>2876.2</ele><time>2011-04-24T06:03:33.0000000+00:00</time></trkpt><trkpt lat="22.30961" lon="103.77198"><ele>2876.0</ele><time>2011-04-24T06:03:38.0000000+00:00</time></trkpt><trkpt lat="22.309574" lon="103.771912"><ele>2876.7</ele><time>2011-04-24T06:03:43.0000000+00:00</time></trkpt><trkpt lat="22.309597" lon="103.771881"><ele>2877.0</ele><time>2011-04-24T06:03:48.0000000+00:00</time></trkpt><trkpt lat="22.309633" lon="103.771858"><ele>2877.8</ele><time>2011-04-24T06:03:53.0000000+00:00</time></trkpt><trkpt lat="22.309622" lon="103.771866"><ele>2877.8</ele><time>2011-04-24T06:03:58.0000000+00:00</time></trkpt><trkpt lat="22.309626" lon="103.771843"><ele>2877.3</ele><time>2011-04-24T06:04:03.0000000+00:00</time></trkpt><trkpt lat="22.309626" lon="103.771835"><ele>2877.8</ele><time>2011-04-24T06:04:08.0000000+00:00</time></trkpt><trkpt lat="22.309658" lon="103.771858"><ele>2878.7</ele><time>2011-04-24T06:04:13.0000000+00:00</time></trkpt><trkpt lat="22.309664" lon="103.771797"><ele>2879.1</ele><time>2011-04-24T06:04:18.0000000+00:00</time></trkpt><trkpt lat="22.309669" lon="103.771774"><ele>2879.7</ele><time>2011-04-24T06:04:23.0000000+00:00</time></trkpt><trkpt lat="22.309641" lon="103.771729"><ele>2879.9</ele><time>2011-04-24T06:04:28.0000000+00:00</time></trkpt><trkpt lat="22.309664" lon="103.771706"><ele>2881.0</ele><time>2011-04-24T06:04:33.0000000+00:00</time></trkpt><trkpt lat="22.309713" lon="103.771698"><ele>2882.3</ele><time>2011-04-24T06:04:38.0000000+00:00</time></trkpt><trkpt lat="22.309759" lon="103.771713"><ele>2882.9</ele><time>2011-04-24T06:04:43.0000000+00:00</time></trkpt><trkpt lat="22.30987" lon="103.771851"><ele>2885.7</ele><time>2011-04-24T06:04:48.0000000+00:00</time></trkpt><trkpt lat="22.309944" lon="103.771889"><ele>2886.7</ele><time>2011-04-24T06:04:53.0000000+00:00</time></trkpt><trkpt lat="22.309965" lon="103.771904"><ele>2888.3</ele><time>2011-04-24T06:04:58.0000000+00:00</time></trkpt><trkpt lat="22.309984" lon="103.771912"><ele>2889.7</ele><time>2011-04-24T06:05:03.0000000+00:00</time></trkpt><trkpt lat="22.309984" lon="103.771858"><ele>2891.5</ele><time>2011-04-24T06:05:08.0000000+00:00</time></trkpt><trkpt lat="22.310026" lon="103.771866"><ele>2893.6</ele><time>2011-04-24T06:05:13.0000000+00:00</time></trkpt><trkpt lat="22.310047" lon="103.771843"><ele>2894.9</ele><time>2011-04-24T06:05:18.0000000+00:00</time></trkpt><trkpt lat="22.310047" lon="103.77182"><ele>2895.7</ele><time>2011-04-24T06:05:23.0000000+00:00</time></trkpt><trkpt lat="22.309971" lon="103.771851"><ele>2897.2</ele><time>2011-04-24T06:05:28.0000000+00:00</time></trkpt><trkpt lat="22.309967" lon="103.771873"><ele>2897.8</ele><time>2011-04-24T06:05:33.0000000+00:00</time></trkpt><trkpt lat="22.309952" lon="103.771858"><ele>2897.7</ele><time>2011-04-24T06:05:38.0000000+00:00</time></trkpt><trkpt lat="22.309956" lon="103.771873"><ele>2898.6</ele><time>2011-04-24T06:05:43.0000000+00:00</time></trkpt><trkpt lat="22.309961" lon="103.771866"><ele>2898.7</ele><time>2011-04-24T06:05:48.0000000+00:00</time></trkpt><trkpt lat="22.309967" lon="103.771858"><ele>2898.7</ele><time>2011-04-24T06:05:53.0000000+00:00</time></trkpt><trkpt lat="22.309973" lon="103.771843"><ele>2898.5</ele><time>2011-04-24T06:05:58.0000000+00:00</time></trkpt><trkpt lat="22.309969" lon="103.771828"><ele>2898.6</ele><time>2011-04-24T06:06:03.0000000+00:00</time></trkpt><trkpt lat="22.30999" lon="103.77182"><ele>2898.7</ele><time>2011-04-24T06:06:08.0000000+00:00</time></trkpt><trkpt lat="22.309996" lon="103.771812"><ele>2898.7</ele><time>2011-04-24T06:06:13.0000000+00:00</time></trkpt><trkpt lat="22.310001" lon="103.771812"><ele>2898.7</ele><time>2011-04-24T06:06:18.0000000+00:00</time></trkpt><trkpt lat="22.310003" lon="103.771812"><ele>2898.7</ele><time>2011-04-24T06:06:23.0000000+00:00</time></trkpt><trkpt lat="22.309984" lon="103.771805"><ele>2898.7</ele><time>2011-04-24T06:06:28.0000000+00:00</time></trkpt><trkpt lat="22.309988" lon="103.77179"><ele>2899.0</ele><time>2011-04-24T06:06:33.0000000+00:00</time></trkpt><trkpt lat="22.309988" lon="103.771759"><ele>2899.8</ele><time>2011-04-24T06:06:38.0000000+00:00</time></trkpt><trkpt lat="22.310019" lon="103.771729"><ele>2900.5</ele><time>2011-04-24T06:06:43.0000000+00:00</time></trkpt><trkpt lat="22.310062" lon="103.771736"><ele>2901.8</ele><time>2011-04-24T06:06:48.0000000+00:00</time></trkpt><trkpt lat="22.310076" lon="103.771713"><ele>2902.3</ele><time>2011-04-24T06:06:53.0000000+00:00</time></trkpt><trkpt lat="22.31011" lon="103.771721"><ele>2902.7</ele><time>2011-04-24T06:06:58.0000000+00:00</time></trkpt><trkpt lat="22.31012" lon="103.771736"><ele>2904.5</ele><time>2011-04-24T06:07:03.0000000+00:00</time></trkpt><trkpt lat="22.310135" lon="103.771767"><ele>2908.3</ele><time>2011-04-24T06:07:08.0000000+00:00</time></trkpt><trkpt lat="22.31012" lon="103.771751"><ele>2909.5</ele><time>2011-04-24T06:07:13.0000000+00:00</time></trkpt><trkpt lat="22.310116" lon="103.771698"><ele>2911.2</ele><time>2011-04-24T06:07:18.0000000+00:00</time></trkpt><trkpt lat="22.310141" lon="103.77166"><ele>2916.2</ele><time>2011-04-24T06:07:23.0000000+00:00</time></trkpt><trkpt lat="22.31015" lon="103.771622"><ele>2918.3</ele><time>2011-04-24T06:07:28.0000000+00:00</time></trkpt><trkpt lat="22.31015" lon="103.771568"><ele>2920.8</ele><time>2011-04-24T06:07:33.0000000+00:00</time></trkpt><trkpt lat="22.31015" lon="103.771538"><ele>2922.2</ele><time>2011-04-24T06:07:38.0000000+00:00</time></trkpt><trkpt lat="22.310163" lon="103.771492"><ele>2923.0</ele><time>2011-04-24T06:07:43.0000000+00:00</time></trkpt><trkpt lat="22.310167" lon="103.771446"><ele>2923.8</ele><time>2011-04-24T06:07:48.0000000+00:00</time></trkpt><trkpt lat="22.310135" lon="103.771355"><ele>2925.3</ele><time>2011-04-24T06:07:53.0000000+00:00</time></trkpt><trkpt lat="22.310165" lon="103.771286"><ele>2928.6</ele><time>2011-04-24T06:07:58.0000000+00:00</time></trkpt><trkpt lat="22.310163" lon="103.771248"><ele>2931.4</ele><time>2011-04-24T06:08:03.0000000+00:00</time></trkpt><trkpt lat="22.310154" lon="103.771202"><ele>2934.0</ele><time>2011-04-24T06:08:08.0000000+00:00</time></trkpt><trkpt lat="22.310129" lon="103.771156"><ele>2936.1</ele><time>2011-04-24T06:08:13.0000000+00:00</time></trkpt><trkpt lat="22.310104" lon="103.771111"><ele>2937.7</ele><time>2011-04-24T06:08:18.0000000+00:00</time></trkpt><trkpt lat="22.310099" lon="103.77108"><ele>2938.8</ele><time>2011-04-24T06:08:23.0000000+00:00</time></trkpt><trkpt lat="22.310108" lon="103.771057"><ele>2940.3</ele><time>2011-04-24T06:08:28.0000000+00:00</time></trkpt><trkpt lat="22.310106" lon="103.771034"><ele>2939.5</ele><time>2011-04-24T06:08:33.0000000+00:00</time></trkpt><trkpt lat="22.310106" lon="103.771004"><ele>2939.7</ele><time>2011-04-24T06:08:38.0000000+00:00</time></trkpt><trkpt lat="22.31012" lon="103.770996"><ele>2940.3</ele><time>2011-04-24T06:08:43.0000000+00:00</time></trkpt><trkpt lat="22.310123" lon="103.770973"><ele>2940.2</ele><time>2011-04-24T06:08:48.0000000+00:00</time></trkpt><trkpt lat="22.310137" lon="103.77095"><ele>2940.3</ele><time>2011-04-24T06:08:53.0000000+00:00</time></trkpt><trkpt lat="22.310129" lon="103.77092"><ele>2939.8</ele><time>2011-04-24T06:08:58.0000000+00:00</time></trkpt><trkpt lat="22.310131" lon="103.770897"><ele>2940.5</ele><time>2011-04-24T06:09:03.0000000+00:00</time></trkpt><trkpt lat="22.310137" lon="103.770859"><ele>2940.0</ele><time>2011-04-24T06:09:08.0000000+00:00</time></trkpt><trkpt lat="22.310152" lon="103.770821"><ele>2940.2</ele><time>2011-04-24T06:09:13.0000000+00:00</time></trkpt><trkpt lat="22.310158" lon="103.77079"><ele>2940.3</ele><time>2011-04-24T06:09:18.0000000+00:00</time></trkpt><trkpt lat="22.310158" lon="103.77076"><ele>2940.0</ele><time>2011-04-24T06:09:23.0000000+00:00</time></trkpt><trkpt lat="22.31016" lon="103.770737"><ele>2940.0</ele><time>2011-04-24T06:09:28.0000000+00:00</time></trkpt><trkpt lat="22.310156" lon="103.770699"><ele>2940.5</ele><time>2011-04-24T06:09:33.0000000+00:00</time></trkpt><trkpt lat="22.310144" lon="103.77066"><ele>2940.5</ele><time>2011-04-24T06:09:38.0000000+00:00</time></trkpt><trkpt lat="22.310129" lon="103.770638"><ele>2940.8</ele><time>2011-04-24T06:09:43.0000000+00:00</time></trkpt><trkpt lat="22.310125" lon="103.770615"><ele>2940.8</ele><time>2011-04-24T06:09:48.0000000+00:00</time></trkpt><trkpt lat="22.310135" lon="103.770599"><ele>2940.4</ele><time>2011-04-24T06:09:53.0000000+00:00</time></trkpt><trkpt lat="22.31012" lon="103.770592"><ele>2939.3</ele><time>2011-04-24T06:09:58.0000000+00:00</time></trkpt><trkpt lat="22.310129" lon="103.770576"><ele>2938.6</ele><time>2011-04-24T06:10:03.0000000+00:00</time></trkpt><trkpt lat="22.310131" lon="103.770531"><ele>2937.7</ele><time>2011-04-24T06:10:08.0000000+00:00</time></trkpt><trkpt lat="22.310123" lon="103.770493"><ele>2937.5</ele><time>2011-04-24T06:10:13.0000000+00:00</time></trkpt><trkpt lat="22.310112" lon="103.770462"><ele>2937.7</ele><time>2011-04-24T06:10:18.0000000+00:00</time></trkpt><trkpt lat="22.310114" lon="103.77047"><ele>2937.2</ele><time>2011-04-24T06:10:23.0000000+00:00</time></trkpt><trkpt lat="22.310133" lon="103.77047"><ele>2936.7</ele><time>2011-04-24T06:10:28.0000000+00:00</time></trkpt><trkpt lat="22.310163" lon="103.770432"><ele>2936.9</ele><time>2011-04-24T06:10:33.0000000+00:00</time></trkpt><trkpt lat="22.31016" lon="103.770409"><ele>2936.5</ele><time>2011-04-24T06:10:38.0000000+00:00</time></trkpt><trkpt lat="22.310144" lon="103.770401"><ele>2936.6</ele><time>2011-04-24T06:10:43.0000000+00:00</time></trkpt><trkpt lat="22.310152" lon="103.770401"><ele>2936.6</ele><time>2011-04-24T06:10:48.0000000+00:00</time></trkpt><trkpt lat="22.310156" lon="103.770401"><ele>2936.7</ele><time>2011-04-24T06:10:53.0000000+00:00</time></trkpt><trkpt lat="22.310146" lon="103.770386"><ele>2936.7</ele><time>2011-04-24T06:10:58.0000000+00:00</time></trkpt><trkpt lat="22.310141" lon="103.770363"><ele>2936.3</ele><time>2011-04-24T06:11:03.0000000+00:00</time></trkpt><trkpt lat="22.310143" lon="103.77037"><ele>2936.3</ele><time>2011-04-24T06:11:08.0000000+00:00</time></trkpt><trkpt lat="22.310144" lon="103.77037"><ele>2936.3</ele><time>2011-04-24T06:11:13.0000000+00:00</time></trkpt><trkpt lat="22.310152" lon="103.77037"><ele>2936.3</ele><time>2011-04-24T06:11:18.0000000+00:00</time></trkpt><trkpt lat="22.310156" lon="103.770332"><ele>2936.0</ele><time>2011-04-24T06:11:23.0000000+00:00</time></trkpt><trkpt lat="22.310171" lon="103.770271"><ele>2935.3</ele><time>2011-04-24T06:11:28.0000000+00:00</time></trkpt><trkpt lat="22.31016" lon="103.770187"><ele>2934.0</ele><time>2011-04-24T06:11:33.0000000+00:00</time></trkpt><trkpt lat="22.310123" lon="103.770142"><ele>2933.3</ele><time>2011-04-24T06:11:38.0000000+00:00</time></trkpt><trkpt lat="22.310108" lon="103.770096"><ele>2932.7</ele><time>2011-04-24T06:11:43.0000000+00:00</time></trkpt><trkpt lat="22.310089" lon="103.770088"><ele>2932.5</ele><time>2011-04-24T06:11:48.0000000+00:00</time></trkpt><trkpt lat="22.310122" lon="103.770035"><ele>2932.3</ele><time>2011-04-24T06:11:53.0000000+00:00</time></trkpt><trkpt lat="22.310131" lon="103.770004"><ele>2932.1</ele><time>2011-04-24T06:11:58.0000000+00:00</time></trkpt><trkpt lat="22.310118" lon="103.769966"><ele>2931.9</ele><time>2011-04-24T06:12:03.0000000+00:00</time></trkpt><trkpt lat="22.310118" lon="103.769951"><ele>2931.9</ele><time>2011-04-24T06:12:08.0000000+00:00</time></trkpt><trkpt lat="22.310089" lon="103.769958"><ele>2931.9</ele><time>2011-04-24T06:12:13.0000000+00:00</time></trkpt><trkpt lat="22.310072" lon="103.76992"><ele>2931.7</ele><time>2011-04-24T06:12:18.0000000+00:00</time></trkpt><trkpt lat="22.31008" lon="103.769852"><ele>2931.2</ele><time>2011-04-24T06:12:23.0000000+00:00</time></trkpt><trkpt lat="22.310068" lon="103.769836"><ele>2931.2</ele><time>2011-04-24T06:12:28.0000000+00:00</time></trkpt><trkpt lat="22.310091" lon="103.769806"><ele>2930.9</ele><time>2011-04-24T06:12:33.0000000+00:00</time></trkpt><trkpt lat="22.310085" lon="103.769722"><ele>2930.7</ele><time>2011-04-24T06:12:38.0000000+00:00</time></trkpt><trkpt lat="22.310099" lon="103.769669"><ele>2930.2</ele><time>2011-04-24T06:12:43.0000000+00:00</time></trkpt><trkpt lat="22.310102" lon="103.769615"><ele>2930.1</ele><time>2011-04-24T06:12:48.0000000+00:00</time></trkpt><trkpt lat="22.310101" lon="103.769585"><ele>2929.8</ele><time>2011-04-24T06:12:53.0000000+00:00</time></trkpt><trkpt lat="22.310089" lon="103.769554"><ele>2929.7</ele><time>2011-04-24T06:12:58.0000000+00:00</time></trkpt><trkpt lat="22.310083" lon="103.769493"><ele>2929.7</ele><time>2011-04-24T06:13:03.0000000+00:00</time></trkpt><trkpt lat="22.310068" lon="103.769424"><ele>2929.5</ele><time>2011-04-24T06:13:08.0000000+00:00</time></trkpt><trkpt lat="22.310061" lon="103.769363"><ele>2929.3</ele><time>2011-04-24T06:13:13.0000000+00:00</time></trkpt><trkpt lat="22.310047" lon="103.76931"><ele>2929.2</ele><time>2011-04-24T06:13:18.0000000+00:00</time></trkpt><trkpt lat="22.310087" lon="103.769264"><ele>2929.2</ele><time>2011-04-24T06:13:23.0000000+00:00</time></trkpt><trkpt lat="22.310133" lon="103.769226"><ele>2928.8</ele><time>2011-04-24T06:13:28.0000000+00:00</time></trkpt><trkpt lat="22.310186" lon="103.769211"><ele>2928.1</ele><time>2011-04-24T06:13:33.0000000+00:00</time></trkpt><trkpt lat="22.31019" lon="103.769188"><ele>2927.2</ele><time>2011-04-24T06:13:38.0000000+00:00</time></trkpt><trkpt lat="22.310219" lon="103.76915"><ele>2926.3</ele><time>2011-04-24T06:13:43.0000000+00:00</time></trkpt><trkpt lat="22.310221" lon="103.769142"><ele>2925.0</ele><time>2011-04-24T06:13:48.0000000+00:00</time></trkpt><trkpt lat="22.310247" lon="103.769119"><ele>2924.2</ele><time>2011-04-24T06:13:53.0000000+00:00</time></trkpt><trkpt lat="22.310263" lon="103.769104"><ele>2923.7</ele><time>2011-04-24T06:13:58.0000000+00:00</time></trkpt><trkpt lat="22.310286" lon="103.769112"><ele>2922.8</ele><time>2011-04-24T06:14:03.0000000+00:00</time></trkpt><trkpt lat="22.310297" lon="103.769104"><ele>2922.1</ele><time>2011-04-24T06:14:08.0000000+00:00</time></trkpt><trkpt lat="22.310318" lon="103.769089"><ele>2920.5</ele><time>2011-04-24T06:14:13.0000000+00:00</time></trkpt><trkpt lat="22.310368" lon="103.769058"><ele>2919.6</ele><time>2011-04-24T06:14:18.0000000+00:00</time></trkpt><trkpt lat="22.310362" lon="103.769043"><ele>2918.7</ele><time>2011-04-24T06:14:23.0000000+00:00</time></trkpt><trkpt lat="22.310381" lon="103.769043"><ele>2918.0</ele><time>2011-04-24T06:14:28.0000000+00:00</time></trkpt><trkpt lat="22.310389" lon="103.769051"><ele>2917.5</ele><time>2011-04-24T06:14:33.0000000+00:00</time></trkpt><trkpt lat="22.31041" lon="103.769058"><ele>2917.2</ele><time>2011-04-24T06:14:38.0000000+00:00</time></trkpt><trkpt lat="22.310419" lon="103.769051"><ele>2917.0</ele><time>2011-04-24T06:14:43.0000000+00:00</time></trkpt><trkpt lat="22.310459" lon="103.769058"><ele>2916.4</ele><time>2011-04-24T06:14:48.0000000+00:00</time></trkpt><trkpt lat="22.310509" lon="103.769035"><ele>2916.1</ele><time>2011-04-24T06:14:53.0000000+00:00</time></trkpt><trkpt lat="22.310547" lon="103.769005"><ele>2915.5</ele><time>2011-04-24T06:14:58.0000000+00:00</time></trkpt><trkpt lat="22.310596" lon="103.769012"><ele>2915.1</ele><time>2011-04-24T06:15:03.0000000+00:00</time></trkpt><trkpt lat="22.310637" lon="103.769028"><ele>2913.8</ele><time>2011-04-24T06:15:08.0000000+00:00</time></trkpt><trkpt lat="22.310699" lon="103.768997"><ele>2912.9</ele><time>2011-04-24T06:15:13.0000000+00:00</time></trkpt><trkpt lat="22.310734" lon="103.768906"><ele>2909.5</ele><time>2011-04-24T06:15:18.0000000+00:00</time></trkpt><trkpt lat="22.310772" lon="103.768852"><ele>2907.2</ele><time>2011-04-24T06:15:23.0000000+00:00</time></trkpt><trkpt lat="22.310795" lon="103.768829"><ele>2905.0</ele><time>2011-04-24T06:15:28.0000000+00:00</time></trkpt><trkpt lat="22.310823" lon="103.768814"><ele>2903.5</ele><time>2011-04-24T06:15:33.0000000+00:00</time></trkpt><trkpt lat="22.310863" lon="103.768738"><ele>2901.2</ele><time>2011-04-24T06:15:38.0000000+00:00</time></trkpt><trkpt lat="22.310907" lon="103.768684"><ele>2899.7</ele><time>2011-04-24T06:15:43.0000000+00:00</time></trkpt><trkpt lat="22.310968" lon="103.768616"><ele>2897.5</ele><time>2011-04-24T06:15:48.0000000+00:00</time></trkpt><trkpt lat="22.31097" lon="103.768593"><ele>2896.0</ele><time>2011-04-24T06:15:53.0000000+00:00</time></trkpt><trkpt lat="22.310986" lon="103.768562"><ele>2895.0</ele><time>2011-04-24T06:15:58.0000000+00:00</time></trkpt><trkpt lat="22.311005" lon="103.768501"><ele>2894.2</ele><time>2011-04-24T06:16:03.0000000+00:00</time></trkpt><trkpt lat="22.311016" lon="103.76844"><ele>2893.7</ele><time>2011-04-24T06:16:08.0000000+00:00</time></trkpt><trkpt lat="22.311028" lon="103.76841"><ele>2892.4</ele><time>2011-04-24T06:16:13.0000000+00:00</time></trkpt><trkpt lat="22.311069" lon="103.768364"><ele>2891.3</ele><time>2011-04-24T06:16:18.0000000+00:00</time></trkpt><trkpt lat="22.311081" lon="103.768326"><ele>2890.6</ele><time>2011-04-24T06:16:23.0000000+00:00</time></trkpt><trkpt lat="22.311081" lon="103.768295"><ele>2890.2</ele><time>2011-04-24T06:16:28.0000000+00:00</time></trkpt><trkpt lat="22.3111" lon="103.768272"><ele>2889.3</ele><time>2011-04-24T06:16:33.0000000+00:00</time></trkpt><trkpt lat="22.311142" lon="103.768242"><ele>2888.1</ele><time>2011-04-24T06:16:38.0000000+00:00</time></trkpt><trkpt lat="22.311169" lon="103.768227"><ele>2887.2</ele><time>2011-04-24T06:16:43.0000000+00:00</time></trkpt><trkpt lat="22.311176" lon="103.768204"><ele>2887.2</ele><time>2011-04-24T06:16:48.0000000+00:00</time></trkpt><trkpt lat="22.311207" lon="103.768196"><ele>2886.3</ele><time>2011-04-24T06:16:53.0000000+00:00</time></trkpt><trkpt lat="22.31123" lon="103.768204"><ele>2886.1</ele><time>2011-04-24T06:16:58.0000000+00:00</time></trkpt><trkpt lat="22.31126" lon="103.768181"><ele>2886.3</ele><time>2011-04-24T06:17:03.0000000+00:00</time></trkpt><trkpt lat="22.311302" lon="103.768173"><ele>2886.0</ele><time>2011-04-24T06:17:08.0000000+00:00</time></trkpt><trkpt lat="22.311319" lon="103.768166"><ele>2885.5</ele><time>2011-04-24T06:17:13.0000000+00:00</time></trkpt><trkpt lat="22.311365" lon="103.768112"><ele>2885.5</ele><time>2011-04-24T06:17:18.0000000+00:00</time></trkpt><trkpt lat="22.311417" lon="103.768082"><ele>2885.3</ele><time>2011-04-24T06:17:23.0000000+00:00</time></trkpt><trkpt lat="22.311462" lon="103.768074"><ele>2886.0</ele><time>2011-04-24T06:17:28.0000000+00:00</time></trkpt><trkpt lat="22.311501" lon="103.768082"><ele>2888.0</ele><time>2011-04-24T06:17:33.0000000+00:00</time></trkpt><trkpt lat="22.311543" lon="103.768097"><ele>2888.5</ele><time>2011-04-24T06:17:38.0000000+00:00</time></trkpt><trkpt lat="22.31159" lon="103.768082"><ele>2888.2</ele><time>2011-04-24T06:17:43.0000000+00:00</time></trkpt><trkpt lat="22.311646" lon="103.768028"><ele>2887.5</ele><time>2011-04-24T06:17:48.0000000+00:00</time></trkpt><trkpt lat="22.31168" lon="103.767967"><ele>2887.2</ele><time>2011-04-24T06:17:53.0000000+00:00</time></trkpt><trkpt lat="22.311686" lon="103.767929"><ele>2886.7</ele><time>2011-04-24T06:17:58.0000000+00:00</time></trkpt><trkpt lat="22.31171" lon="103.767868"><ele>2886.8</ele><time>2011-04-24T06:18:03.0000000+00:00</time></trkpt><trkpt lat="22.311718" lon="103.767822"><ele>2887.0</ele><time>2011-04-24T06:18:08.0000000+00:00</time></trkpt><trkpt lat="22.311705" lon="103.767769"><ele>2887.5</ele><time>2011-04-24T06:18:13.0000000+00:00</time></trkpt><trkpt lat="22.311718" lon="103.767731"><ele>2887.3</ele><time>2011-04-24T06:18:18.0000000+00:00</time></trkpt><trkpt lat="22.311769" lon="103.767693"><ele>2887.3</ele><time>2011-04-24T06:18:23.0000000+00:00</time></trkpt><trkpt lat="22.311813" lon="103.76767"><ele>2887.3</ele><time>2011-04-24T06:18:28.0000000+00:00</time></trkpt><trkpt lat="22.311825" lon="103.767647"><ele>2887.2</ele><time>2011-04-24T06:18:33.0000000+00:00</time></trkpt><trkpt lat="22.311827" lon="103.767662"><ele>2887.0</ele><time>2011-04-24T06:18:38.0000000+00:00</time></trkpt><trkpt lat="22.311846" lon="103.767662"><ele>2886.6</ele><time>2011-04-24T06:18:43.0000000+00:00</time></trkpt><trkpt lat="22.311901" lon="103.767616"><ele>2885.8</ele><time>2011-04-24T06:18:48.0000000+00:00</time></trkpt><trkpt lat="22.311941" lon="103.767578"><ele>2885.5</ele><time>2011-04-24T06:18:53.0000000+00:00</time></trkpt><trkpt lat="22.311977" lon="103.76754"><ele>2885.0</ele><time>2011-04-24T06:18:58.0000000+00:00</time></trkpt><trkpt lat="22.312" lon="103.767517"><ele>2885.0</ele><time>2011-04-24T06:19:03.0000000+00:00</time></trkpt><trkpt lat="22.312033" lon="103.767502"><ele>2884.5</ele><time>2011-04-24T06:19:08.0000000+00:00</time></trkpt><trkpt lat="22.31205" lon="103.767479"><ele>2884.1</ele><time>2011-04-24T06:19:13.0000000+00:00</time></trkpt><trkpt lat="22.312071" lon="103.767441"><ele>2884.0</ele><time>2011-04-24T06:19:18.0000000+00:00</time></trkpt><trkpt lat="22.312077" lon="103.767403"><ele>2884.0</ele><time>2011-04-24T06:19:23.0000000+00:00</time></trkpt><trkpt lat="22.312073" lon="103.767395"><ele>2883.9</ele><time>2011-04-24T06:19:28.0000000+00:00</time></trkpt><trkpt lat="22.312071" lon="103.767387"><ele>2884.0</ele><time>2011-04-24T06:19:33.0000000+00:00</time></trkpt><trkpt lat="22.312063" lon="103.767387"><ele>2884.1</ele><time>2011-04-24T06:19:38.0000000+00:00</time></trkpt><trkpt lat="22.312056" lon="103.767387"><ele>2884.1</ele><time>2011-04-24T06:19:43.0000000+00:00</time></trkpt><trkpt lat="22.312038" lon="103.767326"><ele>2884.0</ele><time>2011-04-24T06:19:48.0000000+00:00</time></trkpt><trkpt lat="22.312094" lon="103.767258"><ele>2883.3</ele><time>2011-04-24T06:19:53.0000000+00:00</time></trkpt><trkpt lat="22.312063" lon="103.767227"><ele>2881.7</ele><time>2011-04-24T06:19:58.0000000+00:00</time></trkpt><trkpt lat="22.312052" lon="103.767189"><ele>2880.2</ele><time>2011-04-24T06:20:03.0000000+00:00</time></trkpt><trkpt lat="22.312027" lon="103.767151"><ele>2879.4</ele><time>2011-04-24T06:20:08.0000000+00:00</time></trkpt><trkpt lat="22.312056" lon="103.76712"><ele>2878.5</ele><time>2011-04-24T06:20:13.0000000+00:00</time></trkpt><trkpt lat="22.312065" lon="103.767067"><ele>2878.2</ele><time>2011-04-24T06:20:18.0000000+00:00</time></trkpt><trkpt lat="22.312061" lon="103.767014"><ele>2877.7</ele><time>2011-04-24T06:20:23.0000000+00:00</time></trkpt><trkpt lat="22.312035" lon="103.766975"><ele>2876.7</ele><time>2011-04-24T06:20:28.0000000+00:00</time></trkpt><trkpt lat="22.312042" lon="103.766953"><ele>2876.6</ele><time>2011-04-24T06:20:33.0000000+00:00</time></trkpt><trkpt lat="22.312038" lon="103.766907"><ele>2876.0</ele><time>2011-04-24T06:20:38.0000000+00:00</time></trkpt><trkpt lat="22.312061" lon="103.766869"><ele>2875.2</ele><time>2011-04-24T06:20:43.0000000+00:00</time></trkpt><trkpt lat="22.312059" lon="103.76683"><ele>2874.6</ele><time>2011-04-24T06:20:48.0000000+00:00</time></trkpt><trkpt lat="22.312056" lon="103.766785"><ele>2873.8</ele><time>2011-04-24T06:20:53.0000000+00:00</time></trkpt><trkpt lat="22.312088" lon="103.766739"><ele>2873.6</ele><time>2011-04-24T06:20:58.0000000+00:00</time></trkpt><trkpt lat="22.312113" lon="103.766708"><ele>2872.9</ele><time>2011-04-24T06:21:03.0000000+00:00</time></trkpt><trkpt lat="22.312149" lon="103.766708"><ele>2872.3</ele><time>2011-04-24T06:21:08.0000000+00:00</time></trkpt><trkpt lat="22.312189" lon="103.766693"><ele>2871.7</ele><time>2011-04-24T06:21:13.0000000+00:00</time></trkpt><trkpt lat="22.312225" lon="103.766693"><ele>2870.8</ele><time>2011-04-24T06:21:18.0000000+00:00</time></trkpt><trkpt lat="22.31225" lon="103.766701"><ele>2870.2</ele><time>2011-04-24T06:21:23.0000000+00:00</time></trkpt><trkpt lat="22.312288" lon="103.766685"><ele>2869.3</ele><time>2011-04-24T06:21:28.0000000+00:00</time></trkpt><trkpt lat="22.312302" lon="103.766739"><ele>2869.0</ele><time>2011-04-24T06:21:33.0000000+00:00</time></trkpt><trkpt lat="22.312304" lon="103.766701"><ele>2867.3</ele><time>2011-04-24T06:21:38.0000000+00:00</time></trkpt><trkpt lat="22.312309" lon="103.766693"><ele>2866.1</ele><time>2011-04-24T06:21:43.0000000+00:00</time></trkpt><trkpt lat="22.312317" lon="103.766708"><ele>2866.0</ele><time>2011-04-24T06:21:48.0000000+00:00</time></trkpt><trkpt lat="22.312336" lon="103.766693"><ele>2866.3</ele><time>2011-04-24T06:21:53.0000000+00:00</time></trkpt><trkpt lat="22.312389" lon="103.766693"><ele>2865.5</ele><time>2011-04-24T06:21:58.0000000+00:00</time></trkpt><trkpt lat="22.312454" lon="103.766655"><ele>2865.9</ele><time>2011-04-24T06:22:03.0000000+00:00</time></trkpt><trkpt lat="22.312483" lon="103.766647"><ele>2866.5</ele><time>2011-04-24T06:22:08.0000000+00:00</time></trkpt><trkpt lat="22.312489" lon="103.766663"><ele>2866.5</ele><time>2011-04-24T06:22:13.0000000+00:00</time></trkpt><trkpt lat="22.312485" lon="103.76667"><ele>2865.7</ele><time>2011-04-24T06:22:18.0000000+00:00</time></trkpt><trkpt lat="22.312511" lon="103.766663"><ele>2863.8</ele><time>2011-04-24T06:22:23.0000000+00:00</time></trkpt><trkpt lat="22.312513" lon="103.76667"><ele>2863.7</ele><time>2011-04-24T06:22:28.0000000+00:00</time></trkpt><trkpt lat="22.312527" lon="103.766678"><ele>2863.3</ele><time>2011-04-24T06:22:33.0000000+00:00</time></trkpt><trkpt lat="22.31254" lon="103.76667"><ele>2863.0</ele><time>2011-04-24T06:22:38.0000000+00:00</time></trkpt><trkpt lat="22.312588" lon="103.766647"><ele>2861.8</ele><time>2011-04-24T06:22:43.0000000+00:00</time></trkpt><trkpt lat="22.312628" lon="103.766624"><ele>2860.8</ele><time>2011-04-24T06:22:48.0000000+00:00</time></trkpt><trkpt lat="22.312639" lon="103.766617"><ele>2861.0</ele><time>2011-04-24T06:22:53.0000000+00:00</time></trkpt><trkpt lat="22.312662" lon="103.766571"><ele>2860.3</ele><time>2011-04-24T06:22:58.0000000+00:00</time></trkpt><trkpt lat="22.312679" lon="103.766502"><ele>2859.7</ele><time>2011-04-24T06:23:03.0000000+00:00</time></trkpt><trkpt lat="22.312685" lon="103.766449"><ele>2859.3</ele><time>2011-04-24T06:23:08.0000000+00:00</time></trkpt><trkpt lat="22.3127" lon="103.766373"><ele>2859.5</ele><time>2011-04-24T06:23:13.0000000+00:00</time></trkpt><trkpt lat="22.312723" lon="103.766342"><ele>2859.7</ele><time>2011-04-24T06:23:18.0000000+00:00</time></trkpt><trkpt lat="22.312756" lon="103.766312"><ele>2859.8</ele><time>2011-04-24T06:23:23.0000000+00:00</time></trkpt><trkpt lat="22.312792" lon="103.766251"><ele>2859.6</ele><time>2011-04-24T06:23:28.0000000+00:00</time></trkpt><trkpt lat="22.312786" lon="103.766197"><ele>2859.4</ele><time>2011-04-24T06:23:33.0000000+00:00</time></trkpt><trkpt lat="22.312775" lon="103.766121"><ele>2858.6</ele><time>2011-04-24T06:23:38.0000000+00:00</time></trkpt><trkpt lat="22.31274" lon="103.766083"><ele>2858.3</ele><time>2011-04-24T06:23:43.0000000+00:00</time></trkpt><trkpt lat="22.312727" lon="103.766052"><ele>2857.8</ele><time>2011-04-24T06:23:48.0000000+00:00</time></trkpt><trkpt lat="22.312727" lon="103.766045"><ele>2857.7</ele><time>2011-04-24T06:23:53.0000000+00:00</time></trkpt><trkpt lat="22.312719" lon="103.766014"><ele>2857.0</ele><time>2011-04-24T06:23:58.0000000+00:00</time></trkpt><trkpt lat="22.31274" lon="103.765968"><ele>2856.3</ele><time>2011-04-24T06:24:03.0000000+00:00</time></trkpt><trkpt lat="22.312757" lon="103.765938"><ele>2855.5</ele><time>2011-04-24T06:24:08.0000000+00:00</time></trkpt><trkpt lat="22.312769" lon="103.765915"><ele>2855.5</ele><time>2011-04-24T06:24:13.0000000+00:00</time></trkpt><trkpt lat="22.312777" lon="103.765884"><ele>2855.0</ele><time>2011-04-24T06:24:18.0000000+00:00</time></trkpt><trkpt lat="22.312763" lon="103.765862"><ele>2855.0</ele><time>2011-04-24T06:24:23.0000000+00:00</time></trkpt><trkpt lat="22.31275" lon="103.765854"><ele>2854.7</ele><time>2011-04-24T06:24:28.0000000+00:00</time></trkpt><trkpt lat="22.312756" lon="103.765854"><ele>2854.8</ele><time>2011-04-24T06:24:33.0000000+00:00</time></trkpt><trkpt lat="22.312771" lon="103.765839"><ele>2854.5</ele><time>2011-04-24T06:24:38.0000000+00:00</time></trkpt><trkpt lat="22.312807" lon="103.765778"><ele>2854.2</ele><time>2011-04-24T06:24:43.0000000+00:00</time></trkpt><trkpt lat="22.312832" lon="103.765732"><ele>2854.0</ele><time>2011-04-24T06:24:48.0000000+00:00</time></trkpt><trkpt lat="22.312866" lon="103.765724"><ele>2853.2</ele><time>2011-04-24T06:24:53.0000000+00:00</time></trkpt><trkpt lat="22.312895" lon="103.765701"><ele>2853.2</ele><time>2011-04-24T06:24:58.0000000+00:00</time></trkpt><trkpt lat="22.312941" lon="103.765656"><ele>2852.8</ele><time>2011-04-24T06:25:03.0000000+00:00</time></trkpt><trkpt lat="22.312948" lon="103.76564"><ele>2852.3</ele><time>2011-04-24T06:25:08.0000000+00:00</time></trkpt><trkpt lat="22.312984" lon="103.765602"><ele>2851.1</ele><time>2011-04-24T06:25:13.0000000+00:00</time></trkpt><trkpt lat="22.312996" lon="103.765564"><ele>2849.8</ele><time>2011-04-24T06:25:18.0000000+00:00</time></trkpt><trkpt lat="22.312998" lon="103.765526"><ele>2849.0</ele><time>2011-04-24T06:25:23.0000000+00:00</time></trkpt><trkpt lat="22.313011" lon="103.765533"><ele>2848.3</ele><time>2011-04-24T06:25:28.0000000+00:00</time></trkpt><trkpt lat="22.313015" lon="103.765503"><ele>2847.3</ele><time>2011-04-24T06:25:33.0000000+00:00</time></trkpt><trkpt lat="22.313051" lon="103.765419"><ele>2845.8</ele><time>2011-04-24T06:25:38.0000000+00:00</time></trkpt><trkpt lat="22.313061" lon="103.765381"><ele>2844.2</ele><time>2011-04-24T06:25:43.0000000+00:00</time></trkpt><trkpt lat="22.313061" lon="103.765358"><ele>2842.8</ele><time>2011-04-24T06:25:48.0000000+00:00</time></trkpt><trkpt lat="22.313076" lon="103.765343"><ele>2841.6</ele><time>2011-04-24T06:25:53.0000000+00:00</time></trkpt><trkpt lat="22.31307" lon="103.765335"><ele>2841.2</ele><time>2011-04-24T06:25:58.0000000+00:00</time></trkpt><trkpt lat="22.313101" lon="103.76532"><ele>2839.8</ele><time>2011-04-24T06:26:03.0000000+00:00</time></trkpt><trkpt lat="22.313101" lon="103.76532"><ele>2839.3</ele><time>2011-04-24T06:26:08.0000000+00:00</time></trkpt><trkpt lat="22.313101" lon="103.765312"><ele>2839.1</ele><time>2011-04-24T06:26:13.0000000+00:00</time></trkpt><trkpt lat="22.313093" lon="103.765312"><ele>2838.8</ele><time>2011-04-24T06:26:18.0000000+00:00</time></trkpt><trkpt lat="22.31311" lon="103.765297"><ele>2838.5</ele><time>2011-04-24T06:26:23.0000000+00:00</time></trkpt><trkpt lat="22.313122" lon="103.765297"><ele>2837.6</ele><time>2011-04-24T06:26:28.0000000+00:00</time></trkpt><trkpt lat="22.313118" lon="103.765259"><ele>2836.9</ele><time>2011-04-24T06:26:33.0000000+00:00</time></trkpt><trkpt lat="22.313158" lon="103.765259"><ele>2835.5</ele><time>2011-04-24T06:26:38.0000000+00:00</time></trkpt><trkpt lat="22.313229" lon="103.765221"><ele>2834.3</ele><time>2011-04-24T06:26:43.0000000+00:00</time></trkpt><trkpt lat="22.313292" lon="103.76519"><ele>2833.2</ele><time>2011-04-24T06:26:48.0000000+00:00</time></trkpt><trkpt lat="22.313305" lon="103.765205"><ele>2832.0</ele><time>2011-04-24T06:26:53.0000000+00:00</time></trkpt><trkpt lat="22.313305" lon="103.765236"><ele>2829.5</ele><time>2011-04-24T06:26:58.0000000+00:00</time></trkpt><trkpt lat="22.313305" lon="103.765244"><ele>2827.3</ele><time>2011-04-24T06:27:03.0000000+00:00</time></trkpt><trkpt lat="22.313316" lon="103.765259"><ele>2825.5</ele><time>2011-04-24T06:27:08.0000000+00:00</time></trkpt><trkpt lat="22.313334" lon="103.765266"><ele>2824.3</ele><time>2011-04-24T06:27:13.0000000+00:00</time></trkpt><trkpt lat="22.313353" lon="103.765282"><ele>2823.4</ele><time>2011-04-24T06:27:18.0000000+00:00</time></trkpt><trkpt lat="22.313387" lon="103.765297"><ele>2821.5</ele><time>2011-04-24T06:27:23.0000000+00:00</time></trkpt><trkpt lat="22.313406" lon="103.765327"><ele>2819.4</ele><time>2011-04-24T06:27:28.0000000+00:00</time></trkpt><trkpt lat="22.313406" lon="103.765343"><ele>2818.3</ele><time>2011-04-24T06:27:33.0000000+00:00</time></trkpt><trkpt lat="22.313427" lon="103.765366"><ele>2817.1</ele><time>2011-04-24T06:27:38.0000000+00:00</time></trkpt><trkpt lat="22.31345" lon="103.765373"><ele>2816.7</ele><time>2011-04-24T06:27:43.0000000+00:00</time></trkpt><trkpt lat="22.313461" lon="103.765396"><ele>2816.2</ele><time>2011-04-24T06:27:48.0000000+00:00</time></trkpt><trkpt lat="22.313465" lon="103.765388"><ele>2815.1</ele><time>2011-04-24T06:27:53.0000000+00:00</time></trkpt><trkpt lat="22.313471" lon="103.765388"><ele>2814.3</ele><time>2011-04-24T06:27:58.0000000+00:00</time></trkpt><trkpt lat="22.313478" lon="103.765388"><ele>2813.5</ele><time>2011-04-24T06:28:03.0000000+00:00</time></trkpt><trkpt lat="22.313509" lon="103.765427"><ele>2812.2</ele><time>2011-04-24T06:28:08.0000000+00:00</time></trkpt><trkpt lat="22.313555" lon="103.76548"><ele>2811.7</ele><time>2011-04-24T06:28:13.0000000+00:00</time></trkpt><trkpt lat="22.313585" lon="103.76548"><ele>2810.1</ele><time>2011-04-24T06:28:18.0000000+00:00</time></trkpt><trkpt lat="22.313589" lon="103.765511"><ele>2809.6</ele><time>2011-04-24T06:28:23.0000000+00:00</time></trkpt><trkpt lat="22.313583" lon="103.765533"><ele>2809.2</ele><time>2011-04-24T06:28:28.0000000+00:00</time></trkpt><trkpt lat="22.313589" lon="103.765541"><ele>2808.3</ele><time>2011-04-24T06:28:33.0000000+00:00</time></trkpt><trkpt lat="22.313622" lon="103.765556"><ele>2807.9</ele><time>2011-04-24T06:28:38.0000000+00:00</time></trkpt><trkpt lat="22.31362" lon="103.765549"><ele>2807.5</ele><time>2011-04-24T06:28:43.0000000+00:00</time></trkpt><trkpt lat="22.313644" lon="103.765549"><ele>2806.6</ele><time>2011-04-24T06:28:48.0000000+00:00</time></trkpt><trkpt lat="22.313679" lon="103.765579"><ele>2805.8</ele><time>2011-04-24T06:28:53.0000000+00:00</time></trkpt><trkpt lat="22.3137" lon="103.765564"><ele>2804.8</ele><time>2011-04-24T06:28:58.0000000+00:00</time></trkpt><trkpt lat="22.313707" lon="103.765556"><ele>2804.7</ele><time>2011-04-24T06:29:03.0000000+00:00</time></trkpt><trkpt lat="22.313732" lon="103.765572"><ele>2803.6</ele><time>2011-04-24T06:29:08.0000000+00:00</time></trkpt><trkpt lat="22.313755" lon="103.765541"><ele>2802.7</ele><time>2011-04-24T06:29:13.0000000+00:00</time></trkpt><trkpt lat="22.313786" lon="103.765526"><ele>2802.0</ele><time>2011-04-24T06:29:18.0000000+00:00</time></trkpt><trkpt lat="22.313784" lon="103.76548"><ele>2800.9</ele><time>2011-04-24T06:29:23.0000000+00:00</time></trkpt><trkpt lat="22.313807" lon="103.765434"><ele>2800.0</ele><time>2011-04-24T06:29:28.0000000+00:00</time></trkpt><trkpt lat="22.313812" lon="103.765388"><ele>2798.2</ele><time>2011-04-24T06:29:33.0000000+00:00</time></trkpt><trkpt lat="22.313826" lon="103.765381"><ele>2797.9</ele><time>2011-04-24T06:29:38.0000000+00:00</time></trkpt><trkpt lat="22.313845" lon="103.765358"><ele>2796.1</ele><time>2011-04-24T06:29:43.0000000+00:00</time></trkpt><trkpt lat="22.313829" lon="103.765358"><ele>2796.7</ele><time>2011-04-24T06:29:48.0000000+00:00</time></trkpt><trkpt lat="22.313828" lon="103.76535"><ele>2796.0</ele><time>2011-04-24T06:29:53.0000000+00:00</time></trkpt><trkpt lat="22.313848" lon="103.76535"><ele>2795.8</ele><time>2011-04-24T06:29:58.0000000+00:00</time></trkpt><trkpt lat="22.313883" lon="103.76535"><ele>2795.8</ele><time>2011-04-24T06:30:03.0000000+00:00</time></trkpt><trkpt lat="22.313915" lon="103.765366"><ele>2795.0</ele><time>2011-04-24T06:30:08.0000000+00:00</time></trkpt><trkpt lat="22.313927" lon="103.76535"><ele>2795.4</ele><time>2011-04-24T06:30:13.0000000+00:00</time></trkpt><trkpt lat="22.313946" lon="103.765358"><ele>2795.0</ele><time>2011-04-24T06:30:18.0000000+00:00</time></trkpt><trkpt lat="22.313971" lon="103.765396"><ele>2794.2</ele><time>2011-04-24T06:30:23.0000000+00:00</time></trkpt><trkpt lat="22.313999" lon="103.765419"><ele>2793.0</ele><time>2011-04-24T06:30:28.0000000+00:00</time></trkpt><trkpt lat="22.314026" lon="103.765373"><ele>2793.1</ele><time>2011-04-24T06:30:33.0000000+00:00</time></trkpt><trkpt lat="22.314074" lon="103.765366"><ele>2793.1</ele><time>2011-04-24T06:30:38.0000000+00:00</time></trkpt><trkpt lat="22.3141" lon="103.765358"><ele>2793.1</ele><time>2011-04-24T06:30:43.0000000+00:00</time></trkpt><trkpt lat="22.314146" lon="103.765434"><ele>2792.8</ele><time>2011-04-24T06:30:48.0000000+00:00</time></trkpt><trkpt lat="22.314173" lon="103.765411"><ele>2792.8</ele><time>2011-04-24T06:30:53.0000000+00:00</time></trkpt><trkpt lat="22.314251" lon="103.765434"><ele>2795.2</ele><time>2011-04-24T06:30:58.0000000+00:00</time></trkpt><trkpt lat="22.314287" lon="103.765442"><ele>2794.2</ele><time>2011-04-24T06:31:03.0000000+00:00</time></trkpt><trkpt lat="22.314316" lon="103.76545"><ele>2794.6</ele><time>2011-04-24T06:31:08.0000000+00:00</time></trkpt><trkpt lat="22.314352" lon="103.765465"><ele>2792.5</ele><time>2011-04-24T06:31:13.0000000+00:00</time></trkpt><trkpt lat="22.314409" lon="103.765488"><ele>2789.6</ele><time>2011-04-24T06:31:18.0000000+00:00</time></trkpt><trkpt lat="22.314453" lon="103.765518"><ele>2788.8</ele><time>2011-04-24T06:31:23.0000000+00:00</time></trkpt><trkpt lat="22.31448" lon="103.765549"><ele>2789.2</ele><time>2011-04-24T06:31:28.0000000+00:00</time></trkpt><trkpt lat="22.314508" lon="103.765579"><ele>2786.3</ele><time>2011-04-24T06:31:33.0000000+00:00</time></trkpt><trkpt lat="22.314541" lon="103.765617"><ele>2782.7</ele><time>2011-04-24T06:31:38.0000000+00:00</time></trkpt><trkpt lat="22.314554" lon="103.765648"><ele>2781.7</ele><time>2011-04-24T06:31:43.0000000+00:00</time></trkpt><trkpt lat="22.314556" lon="103.765694"><ele>2781.0</ele><time>2011-04-24T06:31:48.0000000+00:00</time></trkpt><trkpt lat="22.314566" lon="103.765694"><ele>2780.5</ele><time>2011-04-24T06:31:53.0000000+00:00</time></trkpt><trkpt lat="22.314577" lon="103.765701"><ele>2780.0</ele><time>2011-04-24T06:31:58.0000000+00:00</time></trkpt><trkpt lat="22.314575" lon="103.765701"><ele>2780.0</ele><time>2011-04-24T06:32:03.0000000+00:00</time></trkpt><trkpt lat="22.314571" lon="103.765694"><ele>2779.8</ele><time>2011-04-24T06:32:08.0000000+00:00</time></trkpt><trkpt lat="22.314552" lon="103.765678"><ele>2780.0</ele><time>2011-04-24T06:32:13.0000000+00:00</time></trkpt><trkpt lat="22.314564" lon="103.765663"><ele>2780.0</ele><time>2011-04-24T06:32:18.0000000+00:00</time></trkpt><trkpt lat="22.314568" lon="103.765663"><ele>2781.2</ele><time>2011-04-24T06:32:23.0000000+00:00</time></trkpt><trkpt lat="22.314571" lon="103.765663"><ele>2781.2</ele><time>2011-04-24T06:32:28.0000000+00:00</time></trkpt><trkpt lat="22.314571" lon="103.765663"><ele>2781.1</ele><time>2011-04-24T06:32:33.0000000+00:00</time></trkpt><trkpt lat="22.314573" lon="103.765663"><ele>2781.2</ele><time>2011-04-24T06:32:38.0000000+00:00</time></trkpt><trkpt lat="22.314573" lon="103.765663"><ele>2781.2</ele><time>2011-04-24T06:32:43.0000000+00:00</time></trkpt><trkpt lat="22.314573" lon="103.765663"><ele>2781.2</ele><time>2011-04-24T06:32:48.0000000+00:00</time></trkpt><trkpt lat="22.314573" lon="103.765663"><ele>2781.2</ele><time>2011-04-24T06:32:53.0000000+00:00</time></trkpt><trkpt lat="22.314573" lon="103.765663"><ele>2781.2</ele><time>2011-04-24T06:32:58.0000000+00:00</time></trkpt><trkpt lat="22.314571" lon="103.765656"><ele>2781.2</ele><time>2011-04-24T06:33:03.0000000+00:00</time></trkpt><trkpt lat="22.314562" lon="103.765671"><ele>2781.5</ele><time>2011-04-24T06:33:08.0000000+00:00</time></trkpt><trkpt lat="22.314566" lon="103.765686"><ele>2782.1</ele><time>2011-04-24T06:33:13.0000000+00:00</time></trkpt><trkpt lat="22.314571" lon="103.765686"><ele>2782.6</ele><time>2011-04-24T06:33:18.0000000+00:00</time></trkpt><trkpt lat="22.314568" lon="103.765686"><ele>2782.7</ele><time>2011-04-24T06:33:23.0000000+00:00</time></trkpt><trkpt lat="22.314568" lon="103.765671"><ele>2783.1</ele><time>2011-04-24T06:33:28.0000000+00:00</time></trkpt><trkpt lat="22.314568" lon="103.765678"><ele>2784.3</ele><time>2011-04-24T06:33:33.0000000+00:00</time></trkpt><trkpt lat="22.314573" lon="103.765671"><ele>2784.4</ele><time>2011-04-24T06:33:38.0000000+00:00</time></trkpt><trkpt lat="22.314573" lon="103.765671"><ele>2784.5</ele><time>2011-04-24T06:33:43.0000000+00:00</time></trkpt><trkpt lat="22.314571" lon="103.765663"><ele>2784.6</ele><time>2011-04-24T06:33:48.0000000+00:00</time></trkpt><trkpt lat="22.314577" lon="103.765656"><ele>2784.8</ele><time>2011-04-24T06:33:53.0000000+00:00</time></trkpt><trkpt lat="22.314568" lon="103.765656"><ele>2784.8</ele><time>2011-04-24T06:33:58.0000000+00:00</time></trkpt><trkpt lat="22.31456" lon="103.765648"><ele>2784.8</ele><time>2011-04-24T06:34:03.0000000+00:00</time></trkpt><trkpt lat="22.314554" lon="103.765656"><ele>2784.8</ele><time>2011-04-24T06:34:08.0000000+00:00</time></trkpt><trkpt lat="22.314552" lon="103.765663"><ele>2784.8</ele><time>2011-04-24T06:34:13.0000000+00:00</time></trkpt><trkpt lat="22.314545" lon="103.765663"><ele>2784.8</ele><time>2011-04-24T06:34:18.0000000+00:00</time></trkpt><trkpt lat="22.314537" lon="103.765625"><ele>2784.9</ele><time>2011-04-24T06:34:23.0000000+00:00</time></trkpt><trkpt lat="22.314541" lon="103.76561"><ele>2784.9</ele><time>2011-04-24T06:34:28.0000000+00:00</time></trkpt><trkpt lat="22.314537" lon="103.765602"><ele>2784.9</ele><time>2011-04-24T06:34:33.0000000+00:00</time></trkpt><trkpt lat="22.314535" lon="103.765602"><ele>2784.9</ele><time>2011-04-24T06:34:38.0000000+00:00</time></trkpt><trkpt lat="22.314526" lon="103.76561"><ele>2784.9</ele><time>2011-04-24T06:34:43.0000000+00:00</time></trkpt><trkpt lat="22.314554" lon="103.76561"><ele>2784.7</ele><time>2011-04-24T06:34:48.0000000+00:00</time></trkpt><trkpt lat="22.314554" lon="103.76561"><ele>2784.7</ele><time>2011-04-24T06:34:53.0000000+00:00</time></trkpt><trkpt lat="22.314543" lon="103.765579"><ele>2784.7</ele><time>2011-04-24T06:34:58.0000000+00:00</time></trkpt><trkpt lat="22.31452" lon="103.765587"><ele>2784.8</ele><time>2011-04-24T06:35:03.0000000+00:00</time></trkpt><trkpt lat="22.31452" lon="103.765587"><ele>2784.8</ele><time>2011-04-24T06:35:08.0000000+00:00</time></trkpt><trkpt lat="22.314516" lon="103.765587"><ele>2784.8</ele><time>2011-04-24T06:35:13.0000000+00:00</time></trkpt><trkpt lat="22.31452" lon="103.765594"><ele>2784.8</ele><time>2011-04-24T06:35:18.0000000+00:00</time></trkpt><trkpt lat="22.314537" lon="103.76561"><ele>2784.7</ele><time>2011-04-24T06:35:23.0000000+00:00</time></trkpt><trkpt lat="22.314541" lon="103.765625"><ele>2784.5</ele><time>2011-04-24T06:35:28.0000000+00:00</time></trkpt><trkpt lat="22.314518" lon="103.765617"><ele>2784.5</ele><time>2011-04-24T06:35:33.0000000+00:00</time></trkpt><trkpt lat="22.314528" lon="103.765633"><ele>2784.4</ele><time>2011-04-24T06:35:38.0000000+00:00</time></trkpt><trkpt lat="22.314541" lon="103.765633"><ele>2784.3</ele><time>2011-04-24T06:35:43.0000000+00:00</time></trkpt><trkpt lat="22.314548" lon="103.765663"><ele>2784.3</ele><time>2011-04-24T06:35:48.0000000+00:00</time></trkpt><trkpt lat="22.31455" lon="103.765656"><ele>2784.2</ele><time>2011-04-24T06:35:53.0000000+00:00</time></trkpt><trkpt lat="22.314564" lon="103.765656"><ele>2784.1</ele><time>2011-04-24T06:35:58.0000000+00:00</time></trkpt><trkpt lat="22.314562" lon="103.76564"><ele>2784.2</ele><time>2011-04-24T06:36:03.0000000+00:00</time></trkpt><trkpt lat="22.314592" lon="103.76564"><ele>2784.3</ele><time>2011-04-24T06:36:08.0000000+00:00</time></trkpt><trkpt lat="22.314594" lon="103.765625"><ele>2784.3</ele><time>2011-04-24T06:36:13.0000000+00:00</time></trkpt><trkpt lat="22.314585" lon="103.76561"><ele>2784.2</ele><time>2011-04-24T06:36:18.0000000+00:00</time></trkpt><trkpt lat="22.314566" lon="103.765602"><ele>2784.2</ele><time>2011-04-24T06:36:23.0000000+00:00</time></trkpt><trkpt lat="22.314552" lon="103.765594"><ele>2784.1</ele><time>2011-04-24T06:36:28.0000000+00:00</time></trkpt><trkpt lat="22.314541" lon="103.765602"><ele>2784.1</ele><time>2011-04-24T06:36:33.0000000+00:00</time></trkpt><trkpt lat="22.314535" lon="103.765625"><ele>2784.2</ele><time>2011-04-24T06:36:38.0000000+00:00</time></trkpt><trkpt lat="22.314522" lon="103.765656"><ele>2784.3</ele><time>2011-04-24T06:36:43.0000000+00:00</time></trkpt><trkpt lat="22.314554" lon="103.765678"><ele>2784.5</ele><time>2011-04-24T06:36:48.0000000+00:00</time></trkpt><trkpt lat="22.314569" lon="103.765717"><ele>2784.5</ele><time>2011-04-24T06:36:53.0000000+00:00</time></trkpt><trkpt lat="22.314566" lon="103.765724"><ele>2784.5</ele><time>2011-04-24T06:36:58.0000000+00:00</time></trkpt><trkpt lat="22.314528" lon="103.765732"><ele>2784.4</ele><time>2011-04-24T06:37:03.0000000+00:00</time></trkpt><trkpt lat="22.314518" lon="103.765724"><ele>2784.4</ele><time>2011-04-24T06:37:08.0000000+00:00</time></trkpt><trkpt lat="22.314507" lon="103.765694"><ele>2784.3</ele><time>2011-04-24T06:37:13.0000000+00:00</time></trkpt><trkpt lat="22.314474" lon="103.765656"><ele>2784.3</ele><time>2011-04-24T06:37:18.0000000+00:00</time></trkpt><trkpt lat="22.314476" lon="103.76564"><ele>2784.3</ele><time>2011-04-24T06:37:23.0000000+00:00</time></trkpt><trkpt lat="22.314522" lon="103.765648"><ele>2783.3</ele><time>2011-04-24T06:37:28.0000000+00:00</time></trkpt><trkpt lat="22.314529" lon="103.765648"><ele>2783.3</ele><time>2011-04-24T06:37:33.0000000+00:00</time></trkpt><trkpt lat="22.314554" lon="103.76564"><ele>2783.3</ele><time>2011-04-24T06:37:38.0000000+00:00</time></trkpt><trkpt lat="22.314568" lon="103.76564"><ele>2783.3</ele><time>2011-04-24T06:37:43.0000000+00:00</time></trkpt><trkpt lat="22.314571" lon="103.76564"><ele>2783.3</ele><time>2011-04-24T06:37:48.0000000+00:00</time></trkpt><trkpt lat="22.314558" lon="103.765648"><ele>2783.3</ele><time>2011-04-24T06:37:53.0000000+00:00</time></trkpt><trkpt lat="22.314503" lon="103.76561"><ele>2783.5</ele><time>2011-04-24T06:37:58.0000000+00:00</time></trkpt><trkpt lat="22.314455" lon="103.765617"><ele>2783.8</ele><time>2011-04-24T06:38:03.0000000+00:00</time></trkpt><trkpt lat="22.314447" lon="103.765617"><ele>2783.8</ele><time>2011-04-24T06:38:08.0000000+00:00</time></trkpt><trkpt lat="22.314445" lon="103.76561"><ele>2783.9</ele><time>2011-04-24T06:38:13.0000000+00:00</time></trkpt><trkpt lat="22.31443" lon="103.76561"><ele>2783.8</ele><time>2011-04-24T06:38:18.0000000+00:00</time></trkpt><trkpt lat="22.314434" lon="103.76564"><ele>2783.7</ele><time>2011-04-24T06:38:23.0000000+00:00</time></trkpt><trkpt lat="22.314466" lon="103.765671"><ele>2783.7</ele><time>2011-04-24T06:38:28.0000000+00:00</time></trkpt><trkpt lat="22.314472" lon="103.765656"><ele>2783.5</ele><time>2011-04-24T06:38:33.0000000+00:00</time></trkpt><trkpt lat="22.314478" lon="103.765656"><ele>2783.5</ele><time>2011-04-24T06:38:38.0000000+00:00</time></trkpt><trkpt lat="22.314484" lon="103.765656"><ele>2783.5</ele><time>2011-04-24T06:38:43.0000000+00:00</time></trkpt><trkpt lat="22.314491" lon="103.765648"><ele>2783.5</ele><time>2011-04-24T06:38:48.0000000+00:00</time></trkpt><trkpt lat="22.314491" lon="103.765656"><ele>2783.5</ele><time>2011-04-24T06:38:53.0000000+00:00</time></trkpt><trkpt lat="22.314491" lon="103.765663"><ele>2783.5</ele><time>2011-04-24T06:38:58.0000000+00:00</time></trkpt><trkpt lat="22.314491" lon="103.765663"><ele>2783.5</ele><time>2011-04-24T06:39:03.0000000+00:00</time></trkpt><trkpt lat="22.314465" lon="103.765617"><ele>2783.3</ele><time>2011-04-24T06:39:08.0000000+00:00</time></trkpt><trkpt lat="22.314436" lon="103.765579"><ele>2782.9</ele><time>2011-04-24T06:39:13.0000000+00:00</time></trkpt><trkpt lat="22.314426" lon="103.765602"><ele>2781.7</ele><time>2011-04-24T06:39:18.0000000+00:00</time></trkpt><trkpt lat="22.314438" lon="103.765587"><ele>2781.2</ele><time>2011-04-24T06:39:23.0000000+00:00</time></trkpt><trkpt lat="22.314438" lon="103.765587"><ele>2781.2</ele><time>2011-04-24T06:39:28.0000000+00:00</time></trkpt><trkpt lat="22.31444" lon="103.765587"><ele>2781.1</ele><time>2011-04-24T06:39:33.0000000+00:00</time></trkpt><trkpt lat="22.314438" lon="103.765587"><ele>2781.0</ele><time>2011-04-24T06:39:38.0000000+00:00</time></trkpt><trkpt lat="22.314436" lon="103.765587"><ele>2781.0</ele><time>2011-04-24T06:39:43.0000000+00:00</time></trkpt><trkpt lat="22.314434" lon="103.76561"><ele>2780.8</ele><time>2011-04-24T06:39:48.0000000+00:00</time></trkpt><trkpt lat="22.314434" lon="103.765617"><ele>2780.4</ele><time>2011-04-24T06:39:53.0000000+00:00</time></trkpt><trkpt lat="22.314438" lon="103.76564"><ele>2780.2</ele><time>2011-04-24T06:39:58.0000000+00:00</time></trkpt><trkpt lat="22.314432" lon="103.765656"><ele>2780.1</ele><time>2011-04-24T06:40:03.0000000+00:00</time></trkpt><trkpt lat="22.314436" lon="103.76564"><ele>2779.9</ele><time>2011-04-24T06:40:08.0000000+00:00</time></trkpt><trkpt lat="22.314445" lon="103.765648"><ele>2779.6</ele><time>2011-04-24T06:40:13.0000000+00:00</time></trkpt><trkpt lat="22.314451" lon="103.76564"><ele>2779.3</ele><time>2011-04-24T06:40:18.0000000+00:00</time></trkpt><trkpt lat="22.31448" lon="103.765602"><ele>2779.0</ele><time>2011-04-24T06:40:23.0000000+00:00</time></trkpt><trkpt lat="22.314518" lon="103.765572"><ele>2778.3</ele><time>2011-04-24T06:40:28.0000000+00:00</time></trkpt><trkpt lat="22.314564" lon="103.765526"><ele>2777.8</ele><time>2011-04-24T06:40:33.0000000+00:00</time></trkpt><trkpt lat="22.314621" lon="103.765442"><ele>2777.2</ele><time>2011-04-24T06:40:38.0000000+00:00</time></trkpt><trkpt lat="22.314686" lon="103.765419"><ele>2776.7</ele><time>2011-04-24T06:40:43.0000000+00:00</time></trkpt><trkpt lat="22.314775" lon="103.765419"><ele>2776.0</ele><time>2011-04-24T06:40:48.0000000+00:00</time></trkpt><trkpt lat="22.314754" lon="103.765457"><ele>2775.5</ele><time>2011-04-24T06:40:53.0000000+00:00</time></trkpt><trkpt lat="22.31477" lon="103.76545"><ele>2775.0</ele><time>2011-04-24T06:40:58.0000000+00:00</time></trkpt><trkpt lat="22.314775" lon="103.765442"><ele>2775.0</ele><time>2011-04-24T06:41:03.0000000+00:00</time></trkpt><trkpt lat="22.314852" lon="103.765427"><ele>2774.8</ele><time>2011-04-24T06:41:08.0000000+00:00</time></trkpt><trkpt lat="22.314877" lon="103.765427"><ele>2774.7</ele><time>2011-04-24T06:41:13.0000000+00:00</time></trkpt><trkpt lat="22.314865" lon="103.765434"><ele>2774.5</ele><time>2011-04-24T06:41:18.0000000+00:00</time></trkpt><trkpt lat="22.314899" lon="103.765442"><ele>2773.5</ele><time>2011-04-24T06:41:23.0000000+00:00</time></trkpt><trkpt lat="22.314867" lon="103.765472"><ele>2772.6</ele><time>2011-04-24T06:41:28.0000000+00:00</time></trkpt><trkpt lat="22.314938" lon="103.76548"><ele>2771.2</ele><time>2011-04-24T06:41:33.0000000+00:00</time></trkpt><trkpt lat="22.314985" lon="103.76548"><ele>2770.0</ele><time>2011-04-24T06:41:38.0000000+00:00</time></trkpt><trkpt lat="22.31489" lon="103.765518"><ele>2770.6</ele><time>2011-04-24T06:41:43.0000000+00:00</time></trkpt><trkpt lat="22.314747" lon="103.765564"><ele>2769.1</ele><time>2011-04-24T06:41:48.0000000+00:00</time></trkpt><trkpt lat="22.314676" lon="103.765564"><ele>2769.0</ele><time>2011-04-24T06:41:53.0000000+00:00</time></trkpt><trkpt lat="22.314665" lon="103.765572"><ele>2768.8</ele><time>2011-04-24T06:41:58.0000000+00:00</time></trkpt><trkpt lat="22.314596" lon="103.765625"><ele>2767.7</ele><time>2011-04-24T06:42:03.0000000+00:00</time></trkpt><trkpt lat="22.314577" lon="103.765633"><ele>2767.5</ele><time>2011-04-24T06:42:08.0000000+00:00</time></trkpt><trkpt lat="22.314598" lon="103.765648"><ele>2767.7</ele><time>2011-04-24T06:42:13.0000000+00:00</time></trkpt><trkpt lat="22.314575" lon="103.765633"><ele>2767.7</ele><time>2011-04-24T06:42:18.0000000+00:00</time></trkpt><trkpt lat="22.314562" lon="103.765625"><ele>2767.4</ele><time>2011-04-24T06:42:23.0000000+00:00</time></trkpt><trkpt lat="22.314581" lon="103.765617"><ele>2767.0</ele><time>2011-04-24T06:42:28.0000000+00:00</time></trkpt><trkpt lat="22.314615" lon="103.765579"><ele>2766.1</ele><time>2011-04-24T06:42:33.0000000+00:00</time></trkpt><trkpt lat="22.314644" lon="103.765579"><ele>2765.6</ele><time>2011-04-24T06:42:38.0000000+00:00</time></trkpt><trkpt lat="22.31465" lon="103.765587"><ele>2765.6</ele><time>2011-04-24T06:42:43.0000000+00:00</time></trkpt><trkpt lat="22.314613" lon="103.765587"><ele>2766.0</ele><time>2011-04-24T06:42:48.0000000+00:00</time></trkpt><trkpt lat="22.3146" lon="103.765602"><ele>2766.3</ele><time>2011-04-24T06:42:53.0000000+00:00</time></trkpt><trkpt lat="22.314623" lon="103.765625"><ele>2766.7</ele><time>2011-04-24T06:42:58.0000000+00:00</time></trkpt><trkpt lat="22.314631" lon="103.76564"><ele>2766.4</ele><time>2011-04-24T06:43:03.0000000+00:00</time></trkpt><trkpt lat="22.314634" lon="103.765656"><ele>2766.1</ele><time>2011-04-24T06:43:08.0000000+00:00</time></trkpt><trkpt lat="22.314631" lon="103.76561"><ele>2765.5</ele><time>2011-04-24T06:43:13.0000000+00:00</time></trkpt><trkpt lat="22.314606" lon="103.765556"><ele>2764.5</ele><time>2011-04-24T06:43:18.0000000+00:00</time></trkpt><trkpt lat="22.31456" lon="103.765533"><ele>2766.0</ele><time>2011-04-24T06:43:23.0000000+00:00</time></trkpt><trkpt lat="22.31456" lon="103.765533"><ele>2766.2</ele><time>2011-04-24T06:43:28.0000000+00:00</time></trkpt><trkpt lat="22.314524" lon="103.765564"><ele>2767.1</ele><time>2011-04-24T06:43:33.0000000+00:00</time></trkpt><trkpt lat="22.314495" lon="103.765564"><ele>2767.3</ele><time>2011-04-24T06:43:38.0000000+00:00</time></trkpt><trkpt lat="22.314474" lon="103.765587"><ele>2768.3</ele><time>2011-04-24T06:43:43.0000000+00:00</time></trkpt><trkpt lat="22.314447" lon="103.765587"><ele>2768.3</ele><time>2011-04-24T06:43:48.0000000+00:00</time></trkpt><trkpt lat="22.314388" lon="103.765617"><ele>2767.8</ele><time>2011-04-24T06:43:53.0000000+00:00</time></trkpt><trkpt lat="22.314375" lon="103.765625"><ele>2767.8</ele><time>2011-04-24T06:43:58.0000000+00:00</time></trkpt><trkpt lat="22.3144" lon="103.765602"><ele>2768.2</ele><time>2011-04-24T06:44:03.0000000+00:00</time></trkpt><trkpt lat="22.314444" lon="103.765579"><ele>2768.2</ele><time>2011-04-24T06:44:08.0000000+00:00</time></trkpt><trkpt lat="22.31451" lon="103.765556"><ele>2770.2</ele><time>2011-04-24T06:44:13.0000000+00:00</time></trkpt><trkpt lat="22.314518" lon="103.765564"><ele>2771.8</ele><time>2011-04-24T06:44:18.0000000+00:00</time></trkpt><trkpt lat="22.314564" lon="103.765594"><ele>2773.8</ele><time>2011-04-24T06:44:23.0000000+00:00</time></trkpt><trkpt lat="22.314598" lon="103.765633"><ele>2776.0</ele><time>2011-04-24T06:44:28.0000000+00:00</time></trkpt><trkpt lat="22.314594" lon="103.765587"><ele>2779.5</ele><time>2011-04-24T06:44:33.0000000+00:00</time></trkpt><trkpt lat="22.314615" lon="103.765556"><ele>2782.4</ele><time>2011-04-24T06:44:38.0000000+00:00</time></trkpt><trkpt lat="22.314627" lon="103.765472"><ele>2785.3</ele><time>2011-04-24T06:44:43.0000000+00:00</time></trkpt><trkpt lat="22.314613" lon="103.765442"><ele>2789.8</ele><time>2011-04-24T06:44:48.0000000+00:00</time></trkpt><trkpt lat="22.314608" lon="103.765442"><ele>2793.2</ele><time>2011-04-24T06:44:53.0000000+00:00</time></trkpt><trkpt lat="22.314589" lon="103.765495"><ele>2797.1</ele><time>2011-04-24T06:44:58.0000000+00:00</time></trkpt><trkpt lat="22.31455" lon="103.765526"><ele>2801.3</ele><time>2011-04-24T06:45:03.0000000+00:00</time></trkpt><trkpt lat="22.314529" lon="103.765526"><ele>2804.2</ele><time>2011-04-24T06:45:08.0000000+00:00</time></trkpt><trkpt lat="22.314533" lon="103.76548"><ele>2806.7</ele><time>2011-04-24T06:45:13.0000000+00:00</time></trkpt><trkpt lat="22.314518" lon="103.765457"><ele>2809.1</ele><time>2011-04-24T06:45:18.0000000+00:00</time></trkpt><trkpt lat="22.314514" lon="103.765472"><ele>2811.3</ele><time>2011-04-24T06:45:23.0000000+00:00</time></trkpt><trkpt lat="22.314512" lon="103.765503"><ele>2813.5</ele><time>2011-04-24T06:45:28.0000000+00:00</time></trkpt><trkpt lat="22.314528" lon="103.765564"><ele>2814.3</ele><time>2011-04-24T06:45:33.0000000+00:00</time></trkpt><trkpt lat="22.314552" lon="103.765602"><ele>2814.6</ele><time>2011-04-24T06:45:38.0000000+00:00</time></trkpt><trkpt lat="22.314554" lon="103.765625"><ele>2814.0</ele><time>2011-04-24T06:45:43.0000000+00:00</time></trkpt><trkpt lat="22.314594" lon="103.765671"><ele>2813.5</ele><time>2011-04-24T06:45:48.0000000+00:00</time></trkpt><trkpt lat="22.314604" lon="103.765671"><ele>2813.0</ele><time>2011-04-24T06:45:53.0000000+00:00</time></trkpt><trkpt lat="22.314581" lon="103.765656"><ele>2812.4</ele><time>2011-04-24T06:45:58.0000000+00:00</time></trkpt><trkpt lat="22.314579" lon="103.765671"><ele>2812.0</ele><time>2011-04-24T06:46:03.0000000+00:00</time></trkpt><trkpt lat="22.314579" lon="103.765709"><ele>2811.3</ele><time>2011-04-24T06:46:08.0000000+00:00</time></trkpt><trkpt lat="22.314554" lon="103.765755"><ele>2810.7</ele><time>2011-04-24T06:46:13.0000000+00:00</time></trkpt><trkpt lat="22.314507" lon="103.765793"><ele>2810.0</ele><time>2011-04-24T06:46:18.0000000+00:00</time></trkpt><trkpt lat="22.314522" lon="103.765854"><ele>2809.4</ele><time>2011-04-24T06:46:23.0000000+00:00</time></trkpt><trkpt lat="22.314562" lon="103.765869"><ele>2809.0</ele><time>2011-04-24T06:46:28.0000000+00:00</time></trkpt><trkpt lat="22.314583" lon="103.765839"><ele>2808.7</ele><time>2011-04-24T06:46:33.0000000+00:00</time></trkpt><trkpt lat="22.314564" lon="103.765831"><ele>2808.7</ele><time>2011-04-24T06:46:38.0000000+00:00</time></trkpt><trkpt lat="22.314526" lon="103.765808"><ele>2806.7</ele><time>2011-04-24T06:46:43.0000000+00:00</time></trkpt><trkpt lat="22.314476" lon="103.765747"><ele>2804.3</ele><time>2011-04-24T06:46:48.0000000+00:00</time></trkpt><trkpt lat="22.314442" lon="103.765686"><ele>2804.0</ele><time>2011-04-24T06:46:53.0000000+00:00</time></trkpt><trkpt lat="22.314468" lon="103.765678"><ele>2803.2</ele><time>2011-04-24T06:46:58.0000000+00:00</time></trkpt><trkpt lat="22.314526" lon="103.765694"><ele>2801.7</ele><time>2011-04-24T06:47:03.0000000+00:00</time></trkpt><trkpt lat="22.314564" lon="103.765656"><ele>2798.2</ele><time>2011-04-24T06:47:08.0000000+00:00</time></trkpt><trkpt lat="22.314543" lon="103.76564"><ele>2795.1</ele><time>2011-04-24T06:47:13.0000000+00:00</time></trkpt><trkpt lat="22.314516" lon="103.765594"><ele>2794.7</ele><time>2011-04-24T06:47:18.0000000+00:00</time></trkpt><trkpt lat="22.31452" lon="103.765518"><ele>2793.7</ele><time>2011-04-24T06:47:23.0000000+00:00</time></trkpt><trkpt lat="22.314516" lon="103.765488"><ele>2793.4</ele><time>2011-04-24T06:47:28.0000000+00:00</time></trkpt><trkpt lat="22.31452" lon="103.765472"><ele>2792.3</ele><time>2011-04-24T06:47:33.0000000+00:00</time></trkpt><trkpt lat="22.314528" lon="103.76548"><ele>2790.8</ele><time>2011-04-24T06:47:38.0000000+00:00</time></trkpt><trkpt lat="22.314522" lon="103.76548"><ele>2790.0</ele><time>2011-04-24T06:47:43.0000000+00:00</time></trkpt><trkpt lat="22.314541" lon="103.765488"><ele>2790.0</ele><time>2011-04-24T06:47:48.0000000+00:00</time></trkpt><trkpt lat="22.314569" lon="103.765495"><ele>2789.6</ele><time>2011-04-24T06:47:53.0000000+00:00</time></trkpt><trkpt lat="22.314587" lon="103.765526"><ele>2789.5</ele><time>2011-04-24T06:47:58.0000000+00:00</time></trkpt><trkpt lat="22.314575" lon="103.765671"><ele>2789.6</ele><time>2011-04-24T06:48:03.0000000+00:00</time></trkpt><trkpt lat="22.314558" lon="103.765701"><ele>2789.2</ele><time>2011-04-24T06:48:08.0000000+00:00</time></trkpt><trkpt lat="22.314535" lon="103.765686"><ele>2788.7</ele><time>2011-04-24T06:48:13.0000000+00:00</time></trkpt><trkpt lat="22.314526" lon="103.765671"><ele>2788.7</ele><time>2011-04-24T06:48:18.0000000+00:00</time></trkpt><trkpt lat="22.314543" lon="103.765656"><ele>2788.4</ele><time>2011-04-24T06:48:23.0000000+00:00</time></trkpt><trkpt lat="22.314552" lon="103.765633"><ele>2789.2</ele><time>2011-04-24T06:48:28.0000000+00:00</time></trkpt><trkpt lat="22.314556" lon="103.765617"><ele>2789.3</ele><time>2011-04-24T06:48:33.0000000+00:00</time></trkpt><trkpt lat="22.31455" lon="103.765617"><ele>2789.3</ele><time>2011-04-24T06:48:38.0000000+00:00</time></trkpt><trkpt lat="22.314556" lon="103.765617"><ele>2789.3</ele><time>2011-04-24T06:48:43.0000000+00:00</time></trkpt><trkpt lat="22.314558" lon="103.765633"><ele>2789.4</ele><time>2011-04-24T06:48:48.0000000+00:00</time></trkpt><trkpt lat="22.314547" lon="103.76564"><ele>2789.3</ele><time>2011-04-24T06:48:53.0000000+00:00</time></trkpt><trkpt lat="22.31455" lon="103.765648"><ele>2789.3</ele><time>2011-04-24T06:48:58.0000000+00:00</time></trkpt><trkpt lat="22.314548" lon="103.765648"><ele>2789.3</ele><time>2011-04-24T06:49:03.0000000+00:00</time></trkpt><trkpt lat="22.314541" lon="103.765648"><ele>2789.3</ele><time>2011-04-24T06:49:08.0000000+00:00</time></trkpt><trkpt lat="22.314547" lon="103.765694"><ele>2789.0</ele><time>2011-04-24T06:49:13.0000000+00:00</time></trkpt><trkpt lat="22.314548" lon="103.765724"><ele>2788.6</ele><time>2011-04-24T06:49:18.0000000+00:00</time></trkpt><trkpt lat="22.314573" lon="103.765755"><ele>2788.3</ele><time>2011-04-24T06:49:23.0000000+00:00</time></trkpt><trkpt lat="22.314577" lon="103.765732"><ele>2788.4</ele><time>2011-04-24T06:49:28.0000000+00:00</time></trkpt><trkpt lat="22.314587" lon="103.765739"><ele>2788.4</ele><time>2011-04-24T06:49:33.0000000+00:00</time></trkpt><trkpt lat="22.314592" lon="103.765739"><ele>2788.4</ele><time>2011-04-24T06:49:38.0000000+00:00</time></trkpt><trkpt lat="22.31459" lon="103.765724"><ele>2788.4</ele><time>2011-04-24T06:49:43.0000000+00:00</time></trkpt><trkpt lat="22.314583" lon="103.765724"><ele>2788.5</ele><time>2011-04-24T06:49:48.0000000+00:00</time></trkpt><trkpt lat="22.314556" lon="103.765717"><ele>2788.4</ele><time>2011-04-24T06:49:53.0000000+00:00</time></trkpt><trkpt lat="22.314526" lon="103.765709"><ele>2788.1</ele><time>2011-04-24T06:49:58.0000000+00:00</time></trkpt><trkpt lat="22.314514" lon="103.765717"><ele>2787.9</ele><time>2011-04-24T06:50:03.0000000+00:00</time></trkpt><trkpt lat="22.314528" lon="103.765701"><ele>2787.6</ele><time>2011-04-24T06:50:08.0000000+00:00</time></trkpt><trkpt lat="22.314541" lon="103.765709"><ele>2787.3</ele><time>2011-04-24T06:50:13.0000000+00:00</time></trkpt><trkpt lat="22.314589" lon="103.765671"><ele>2787.2</ele><time>2011-04-24T06:50:18.0000000+00:00</time></trkpt><trkpt lat="22.314581" lon="103.765686"><ele>2787.0</ele><time>2011-04-24T06:50:23.0000000+00:00</time></trkpt><trkpt lat="22.314566" lon="103.765686"><ele>2786.8</ele><time>2011-04-24T06:50:28.0000000+00:00</time></trkpt><trkpt lat="22.314568" lon="103.765678"><ele>2786.8</ele><time>2011-04-24T06:50:33.0000000+00:00</time></trkpt><trkpt lat="22.314566" lon="103.765678"><ele>2786.8</ele><time>2011-04-24T06:50:38.0000000+00:00</time></trkpt><trkpt lat="22.314535" lon="103.765694"><ele>2786.9</ele><time>2011-04-24T06:50:43.0000000+00:00</time></trkpt><trkpt lat="22.314512" lon="103.765671"><ele>2786.7</ele><time>2011-04-24T06:50:48.0000000+00:00</time></trkpt><trkpt lat="22.314552" lon="103.765663"><ele>2786.6</ele><time>2011-04-24T06:50:53.0000000+00:00</time></trkpt><trkpt lat="22.314577" lon="103.765663"><ele>2786.3</ele><time>2011-04-24T06:50:58.0000000+00:00</time></trkpt><trkpt lat="22.314573" lon="103.765656"><ele>2786.2</ele><time>2011-04-24T06:51:03.0000000+00:00</time></trkpt><trkpt lat="22.314533" lon="103.765602"><ele>2786.3</ele><time>2011-04-24T06:51:08.0000000+00:00</time></trkpt><trkpt lat="22.314539" lon="103.765602"><ele>2786.2</ele><time>2011-04-24T06:51:13.0000000+00:00</time></trkpt><trkpt lat="22.314545" lon="103.765579"><ele>2786.1</ele><time>2011-04-24T06:51:18.0000000+00:00</time></trkpt><trkpt lat="22.314575" lon="103.765549"><ele>2786.0</ele><time>2011-04-24T06:51:23.0000000+00:00</time></trkpt><trkpt lat="22.314585" lon="103.765541"><ele>2786.0</ele><time>2011-04-24T06:51:28.0000000+00:00</time></trkpt><trkpt lat="22.3146" lon="103.765526"><ele>2785.9</ele><time>2011-04-24T06:51:33.0000000+00:00</time></trkpt><trkpt lat="22.314604" lon="103.765549"><ele>2785.6</ele><time>2011-04-24T06:51:38.0000000+00:00</time></trkpt><trkpt lat="22.314627" lon="103.765518"><ele>2785.4</ele><time>2011-04-24T06:51:43.0000000+00:00</time></trkpt><trkpt lat="22.314701" lon="103.765488"><ele>2785.2</ele><time>2011-04-24T06:51:48.0000000+00:00</time></trkpt><trkpt lat="22.314781" lon="103.765488"><ele>2784.4</ele><time>2011-04-24T06:51:53.0000000+00:00</time></trkpt><trkpt lat="22.314789" lon="103.765488"><ele>2784.3</ele><time>2011-04-24T06:51:58.0000000+00:00</time></trkpt><trkpt lat="22.314743" lon="103.765518"><ele>2785.2</ele><time>2011-04-24T06:52:03.0000000+00:00</time></trkpt><trkpt lat="22.314732" lon="103.765518"><ele>2785.5</ele><time>2011-04-24T06:52:08.0000000+00:00</time></trkpt><trkpt lat="22.314693" lon="103.765533"><ele>2785.8</ele><time>2011-04-24T06:52:13.0000000+00:00</time></trkpt><trkpt lat="22.314709" lon="103.765533"><ele>2785.7</ele><time>2011-04-24T06:52:18.0000000+00:00</time></trkpt><trkpt lat="22.314724" lon="103.765541"><ele>2785.7</ele><time>2011-04-24T06:52:23.0000000+00:00</time></trkpt><trkpt lat="22.314741" lon="103.765556"><ele>2785.5</ele><time>2011-04-24T06:52:28.0000000+00:00</time></trkpt><trkpt lat="22.314739" lon="103.765572"><ele>2785.5</ele><time>2011-04-24T06:52:33.0000000+00:00</time></trkpt><trkpt lat="22.314713" lon="103.765594"><ele>2785.4</ele><time>2011-04-24T06:52:38.0000000+00:00</time></trkpt><trkpt lat="22.314707" lon="103.765602"><ele>2785.4</ele><time>2011-04-24T06:52:43.0000000+00:00</time></trkpt><trkpt lat="22.314686" lon="103.765579"><ele>2785.3</ele><time>2011-04-24T06:52:48.0000000+00:00</time></trkpt><trkpt lat="22.314688" lon="103.765549"><ele>2785.7</ele><time>2011-04-24T06:52:53.0000000+00:00</time></trkpt><trkpt lat="22.314669" lon="103.765541"><ele>2786.1</ele><time>2011-04-24T06:52:58.0000000+00:00</time></trkpt><trkpt lat="22.314697" lon="103.765556"><ele>2786.6</ele><time>2011-04-24T06:53:03.0000000+00:00</time></trkpt><trkpt lat="22.314743" lon="103.765533"><ele>2787.1</ele><time>2011-04-24T06:53:08.0000000+00:00</time></trkpt><trkpt lat="22.314775" lon="103.765549"><ele>2787.2</ele><time>2011-04-24T06:53:13.0000000+00:00</time></trkpt><trkpt lat="22.314775" lon="103.765556"><ele>2787.0</ele><time>2011-04-24T06:53:18.0000000+00:00</time></trkpt><trkpt lat="22.314741" lon="103.765556"><ele>2786.5</ele><time>2011-04-24T06:53:23.0000000+00:00</time></trkpt><trkpt lat="22.314714" lon="103.765556"><ele>2787.3</ele><time>2011-04-24T06:53:28.0000000+00:00</time></trkpt><trkpt lat="22.314692" lon="103.765549"><ele>2787.0</ele><time>2011-04-24T06:53:33.0000000+00:00</time></trkpt><trkpt lat="22.314655" lon="103.765556"><ele>2786.3</ele><time>2011-04-24T06:53:38.0000000+00:00</time></trkpt><trkpt lat="22.314644" lon="103.765556"><ele>2785.5</ele><time>2011-04-24T06:53:43.0000000+00:00</time></trkpt><trkpt lat="22.31465" lon="103.765549"><ele>2785.5</ele><time>2011-04-24T06:53:48.0000000+00:00</time></trkpt><trkpt lat="22.31465" lon="103.765549"><ele>2785.5</ele><time>2011-04-24T06:53:53.0000000+00:00</time></trkpt><trkpt lat="22.314648" lon="103.765549"><ele>2785.5</ele><time>2011-04-24T06:53:58.0000000+00:00</time></trkpt><trkpt lat="22.314619" lon="103.765541"><ele>2785.6</ele><time>2011-04-24T06:54:03.0000000+00:00</time></trkpt><trkpt lat="22.314619" lon="103.765533"><ele>2785.7</ele><time>2011-04-24T06:54:08.0000000+00:00</time></trkpt><trkpt lat="22.31464" lon="103.765541"><ele>2785.3</ele><time>2011-04-24T06:54:13.0000000+00:00</time></trkpt><trkpt lat="22.314651" lon="103.765564"><ele>2785.5</ele><time>2011-04-24T06:54:18.0000000+00:00</time></trkpt><trkpt lat="22.314657" lon="103.765541"><ele>2785.3</ele><time>2011-04-24T06:54:23.0000000+00:00</time></trkpt><trkpt lat="22.314659" lon="103.765549"><ele>2785.2</ele><time>2011-04-24T06:54:28.0000000+00:00</time></trkpt><trkpt lat="22.314663" lon="103.765556"><ele>2785.4</ele><time>2011-04-24T06:54:33.0000000+00:00</time></trkpt><trkpt lat="22.314667" lon="103.765549"><ele>2785.3</ele><time>2011-04-24T06:54:38.0000000+00:00</time></trkpt><trkpt lat="22.314667" lon="103.765556"><ele>2785.3</ele><time>2011-04-24T06:54:43.0000000+00:00</time></trkpt><trkpt lat="22.314672" lon="103.765564"><ele>2785.3</ele><time>2011-04-24T06:54:48.0000000+00:00</time></trkpt><trkpt lat="22.314661" lon="103.765556"><ele>2785.6</ele><time>2011-04-24T06:54:53.0000000+00:00</time></trkpt><trkpt lat="22.314653" lon="103.765533"><ele>2785.5</ele><time>2011-04-24T06:54:58.0000000+00:00</time></trkpt><trkpt lat="22.314653" lon="103.765511"><ele>2785.9</ele><time>2011-04-24T06:55:03.0000000+00:00</time></trkpt><trkpt lat="22.31469" lon="103.76548"><ele>2786.2</ele><time>2011-04-24T06:55:08.0000000+00:00</time></trkpt><trkpt lat="22.314716" lon="103.765526"><ele>2786.2</ele><time>2011-04-24T06:55:13.0000000+00:00</time></trkpt><trkpt lat="22.314726" lon="103.765533"><ele>2786.2</ele><time>2011-04-24T06:55:18.0000000+00:00</time></trkpt><trkpt lat="22.31473" lon="103.765533"><ele>2786.3</ele><time>2011-04-24T06:55:23.0000000+00:00</time></trkpt><trkpt lat="22.314735" lon="103.765526"><ele>2786.8</ele><time>2011-04-24T06:55:28.0000000+00:00</time></trkpt><trkpt lat="22.314728" lon="103.765503"><ele>2787.8</ele><time>2011-04-24T06:55:33.0000000+00:00</time></trkpt><trkpt lat="22.314703" lon="103.765472"><ele>2788.2</ele><time>2011-04-24T06:55:38.0000000+00:00</time></trkpt><trkpt lat="22.314697" lon="103.765465"><ele>2788.3</ele><time>2011-04-24T06:55:43.0000000+00:00</time></trkpt><trkpt lat="22.314692" lon="103.765472"><ele>2788.3</ele><time>2011-04-24T06:55:48.0000000+00:00</time></trkpt><trkpt lat="22.314686" lon="103.765472"><ele>2788.3</ele><time>2011-04-24T06:55:53.0000000+00:00</time></trkpt><trkpt lat="22.31468" lon="103.765472"><ele>2788.3</ele><time>2011-04-24T06:55:58.0000000+00:00</time></trkpt><trkpt lat="22.314678" lon="103.765472"><ele>2788.3</ele><time>2011-04-24T06:56:03.0000000+00:00</time></trkpt><trkpt lat="22.314682" lon="103.76548"><ele>2788.3</ele><time>2011-04-24T06:56:08.0000000+00:00</time></trkpt><trkpt lat="22.314714" lon="103.765511"><ele>2788.0</ele><time>2011-04-24T06:56:13.0000000+00:00</time></trkpt><trkpt lat="22.314737" lon="103.765587"><ele>2787.3</ele><time>2011-04-24T06:56:18.0000000+00:00</time></trkpt><trkpt lat="22.314732" lon="103.765625"><ele>2786.7</ele><time>2011-04-24T06:56:23.0000000+00:00</time></trkpt><trkpt lat="22.314672" lon="103.765648"><ele>2786.0</ele><time>2011-04-24T06:56:28.0000000+00:00</time></trkpt><trkpt lat="22.314644" lon="103.765663"><ele>2785.3</ele><time>2011-04-24T06:56:33.0000000+00:00</time></trkpt><trkpt lat="22.314619" lon="103.765663"><ele>2785.3</ele><time>2011-04-24T06:56:38.0000000+00:00</time></trkpt><trkpt lat="22.314573" lon="103.76561"><ele>2786.0</ele><time>2011-04-24T06:56:43.0000000+00:00</time></trkpt><trkpt lat="22.314541" lon="103.765579"><ele>2786.5</ele><time>2011-04-24T06:56:48.0000000+00:00</time></trkpt><trkpt lat="22.314528" lon="103.765579"><ele>2786.2</ele><time>2011-04-24T06:56:53.0000000+00:00</time></trkpt><trkpt lat="22.31452" lon="103.765572"><ele>2785.7</ele><time>2011-04-24T06:56:58.0000000+00:00</time></trkpt><trkpt lat="22.314528" lon="103.765572"><ele>2785.7</ele><time>2011-04-24T06:57:03.0000000+00:00</time></trkpt><trkpt lat="22.314497" lon="103.76561"><ele>2785.5</ele><time>2011-04-24T06:57:08.0000000+00:00</time></trkpt><trkpt lat="22.314478" lon="103.765602"><ele>2785.5</ele><time>2011-04-24T06:57:13.0000000+00:00</time></trkpt><trkpt lat="22.314459" lon="103.765594"><ele>2785.4</ele><time>2011-04-24T06:57:18.0000000+00:00</time></trkpt><trkpt lat="22.314466" lon="103.765617"><ele>2785.3</ele><time>2011-04-24T06:57:23.0000000+00:00</time></trkpt><trkpt lat="22.314451" lon="103.765602"><ele>2785.1</ele><time>2011-04-24T06:57:28.0000000+00:00</time></trkpt><trkpt lat="22.314449" lon="103.765602"><ele>2785.1</ele><time>2011-04-24T06:57:33.0000000+00:00</time></trkpt><trkpt lat="22.314455" lon="103.765594"><ele>2785.2</ele><time>2011-04-24T06:57:38.0000000+00:00</time></trkpt><trkpt lat="22.314453" lon="103.765587"><ele>2785.0</ele><time>2011-04-24T06:57:43.0000000+00:00</time></trkpt><trkpt lat="22.314449" lon="103.765533"><ele>2784.7</ele><time>2011-04-24T06:57:48.0000000+00:00</time></trkpt><trkpt lat="22.314478" lon="103.765541"><ele>2784.5</ele><time>2011-04-24T06:57:53.0000000+00:00</time></trkpt><trkpt lat="22.314478" lon="103.765526"><ele>2784.6</ele><time>2011-04-24T06:57:58.0000000+00:00</time></trkpt><trkpt lat="22.31448" lon="103.765526"><ele>2784.6</ele><time>2011-04-24T06:58:03.0000000+00:00</time></trkpt><trkpt lat="22.314478" lon="103.765526"><ele>2784.6</ele><time>2011-04-24T06:58:08.0000000+00:00</time></trkpt><trkpt lat="22.314484" lon="103.765533"><ele>2784.7</ele><time>2011-04-24T06:58:13.0000000+00:00</time></trkpt><trkpt lat="22.314489" lon="103.765526"><ele>2784.6</ele><time>2011-04-24T06:58:18.0000000+00:00</time></trkpt><trkpt lat="22.314495" lon="103.765518"><ele>2784.6</ele><time>2011-04-24T06:58:23.0000000+00:00</time></trkpt><trkpt lat="22.314501" lon="103.765518"><ele>2784.6</ele><time>2011-04-24T06:58:28.0000000+00:00</time></trkpt><trkpt lat="22.314503" lon="103.765518"><ele>2784.5</ele><time>2011-04-24T06:58:33.0000000+00:00</time></trkpt><trkpt lat="22.314495" lon="103.765518"><ele>2784.7</ele><time>2011-04-24T06:58:38.0000000+00:00</time></trkpt><trkpt lat="22.314436" lon="103.765587"><ele>2784.8</ele><time>2011-04-24T06:58:43.0000000+00:00</time></trkpt><trkpt lat="22.314415" lon="103.765617"><ele>2784.8</ele><time>2011-04-24T06:58:48.0000000+00:00</time></trkpt><trkpt lat="22.314413" lon="103.765625"><ele>2784.5</ele><time>2011-04-24T06:58:53.0000000+00:00</time></trkpt><trkpt lat="22.314413" lon="103.765633"><ele>2784.5</ele><time>2011-04-24T06:58:58.0000000+00:00</time></trkpt><trkpt lat="22.3144" lon="103.765594"><ele>2783.2</ele><time>2011-04-24T06:59:03.0000000+00:00</time></trkpt><trkpt lat="22.314379" lon="103.765572"><ele>2780.9</ele><time>2011-04-24T06:59:08.0000000+00:00</time></trkpt><trkpt lat="22.314375" lon="103.765579"><ele>2780.8</ele><time>2011-04-24T06:59:13.0000000+00:00</time></trkpt><trkpt lat="22.314352" lon="103.765572"><ele>2779.2</ele><time>2011-04-24T06:59:18.0000000+00:00</time></trkpt><trkpt lat="22.314348" lon="103.765541"><ele>2779.0</ele><time>2011-04-24T06:59:23.0000000+00:00</time></trkpt><trkpt lat="22.314354" lon="103.765533"><ele>2778.9</ele><time>2011-04-24T06:59:28.0000000+00:00</time></trkpt><trkpt lat="22.31436" lon="103.765533"><ele>2779.2</ele><time>2011-04-24T06:59:33.0000000+00:00</time></trkpt><trkpt lat="22.314365" lon="103.765511"><ele>2779.9</ele><time>2011-04-24T06:59:38.0000000+00:00</time></trkpt><trkpt lat="22.314367" lon="103.765511"><ele>2780.0</ele><time>2011-04-24T06:59:43.0000000+00:00</time></trkpt><trkpt lat="22.314362" lon="103.765511"><ele>2780.0</ele><time>2011-04-24T06:59:48.0000000+00:00</time></trkpt><trkpt lat="22.314356" lon="103.765518"><ele>2780.0</ele><time>2011-04-24T06:59:53.0000000+00:00</time></trkpt><trkpt lat="22.314383" lon="103.765549"><ele>2780.5</ele><time>2011-04-24T06:59:58.0000000+00:00</time></trkpt><trkpt lat="22.314386" lon="103.765594"><ele>2781.3</ele><time>2011-04-24T07:00:03.0000000+00:00</time></trkpt><trkpt lat="22.314445" lon="103.765625"><ele>2783.7</ele><time>2011-04-24T07:00:08.0000000+00:00</time></trkpt><trkpt lat="22.314449" lon="103.765602"><ele>2785.5</ele><time>2011-04-24T07:00:13.0000000+00:00</time></trkpt><trkpt lat="22.314445" lon="103.765602"><ele>2785.6</ele><time>2011-04-24T07:00:18.0000000+00:00</time></trkpt><trkpt lat="22.314449" lon="103.765594"><ele>2785.7</ele><time>2011-04-24T07:00:23.0000000+00:00</time></trkpt><trkpt lat="22.314449" lon="103.765594"><ele>2785.7</ele><time>2011-04-24T07:00:28.0000000+00:00</time></trkpt><trkpt lat="22.314447" lon="103.765587"><ele>2785.7</ele><time>2011-04-24T07:00:33.0000000+00:00</time></trkpt><trkpt lat="22.314444" lon="103.765594"><ele>2785.8</ele><time>2011-04-24T07:00:38.0000000+00:00</time></trkpt><trkpt lat="22.314447" lon="103.765579"><ele>2786.0</ele><time>2011-04-24T07:00:43.0000000+00:00</time></trkpt><trkpt lat="22.314447" lon="103.765572"><ele>2786.9</ele><time>2011-04-24T07:00:48.0000000+00:00</time></trkpt><trkpt lat="22.314474" lon="103.765564"><ele>2787.6</ele><time>2011-04-24T07:00:53.0000000+00:00</time></trkpt><trkpt lat="22.314486" lon="103.765556"><ele>2788.2</ele><time>2011-04-24T07:00:58.0000000+00:00</time></trkpt><trkpt lat="22.31448" lon="103.765556"><ele>2788.2</ele><time>2011-04-24T07:01:03.0000000+00:00</time></trkpt><trkpt lat="22.314474" lon="103.765549"><ele>2788.3</ele><time>2011-04-24T07:01:08.0000000+00:00</time></trkpt><trkpt lat="22.314493" lon="103.765511"><ele>2787.9</ele><time>2011-04-24T07:01:13.0000000+00:00</time></trkpt><trkpt lat="22.314507" lon="103.765488"><ele>2787.5</ele><time>2011-04-24T07:01:18.0000000+00:00</time></trkpt><trkpt lat="22.314489" lon="103.765495"><ele>2787.0</ele><time>2011-04-24T07:01:23.0000000+00:00</time></trkpt><trkpt lat="22.314474" lon="103.765503"><ele>2787.0</ele><time>2011-04-24T07:01:28.0000000+00:00</time></trkpt><trkpt lat="22.314445" lon="103.765495"><ele>2786.7</ele><time>2011-04-24T07:01:33.0000000+00:00</time></trkpt><trkpt lat="22.314432" lon="103.765495"><ele>2786.7</ele><time>2011-04-24T07:01:38.0000000+00:00</time></trkpt><trkpt lat="22.31443" lon="103.76548"><ele>2786.6</ele><time>2011-04-24T07:01:43.0000000+00:00</time></trkpt><trkpt lat="22.314432" lon="103.765472"><ele>2786.6</ele><time>2011-04-24T07:01:48.0000000+00:00</time></trkpt><trkpt lat="22.314444" lon="103.765495"><ele>2786.2</ele><time>2011-04-24T07:01:53.0000000+00:00</time></trkpt><trkpt lat="22.314482" lon="103.76548"><ele>2785.5</ele><time>2011-04-24T07:01:58.0000000+00:00</time></trkpt><trkpt lat="22.314484" lon="103.765442"><ele>2785.6</ele><time>2011-04-24T07:02:03.0000000+00:00</time></trkpt><trkpt lat="22.314508" lon="103.765419"><ele>2785.5</ele><time>2011-04-24T07:02:08.0000000+00:00</time></trkpt><trkpt lat="22.314499" lon="103.76545"><ele>2784.8</ele><time>2011-04-24T07:02:13.0000000+00:00</time></trkpt><trkpt lat="22.314499" lon="103.76545"><ele>2784.1</ele><time>2011-04-24T07:02:18.0000000+00:00</time></trkpt><trkpt lat="22.314489" lon="103.76545"><ele>2783.3</ele><time>2011-04-24T07:02:23.0000000+00:00</time></trkpt><trkpt lat="22.314489" lon="103.765457"><ele>2783.3</ele><time>2011-04-24T07:02:28.0000000+00:00</time></trkpt><trkpt lat="22.314451" lon="103.765526"><ele>2781.5</ele><time>2011-04-24T07:02:33.0000000+00:00</time></trkpt><trkpt lat="22.314396" lon="103.765587"><ele>2780.8</ele><time>2011-04-24T07:02:38.0000000+00:00</time></trkpt><trkpt lat="22.314405" lon="103.765602"><ele>2779.7</ele><time>2011-04-24T07:02:43.0000000+00:00</time></trkpt><trkpt lat="22.314388" lon="103.76564"><ele>2779.8</ele><time>2011-04-24T07:02:48.0000000+00:00</time></trkpt><trkpt lat="22.314383" lon="103.765633"><ele>2779.3</ele><time>2011-04-24T07:02:53.0000000+00:00</time></trkpt><trkpt lat="22.314379" lon="103.765602"><ele>2778.9</ele><time>2011-04-24T07:02:58.0000000+00:00</time></trkpt><trkpt lat="22.314381" lon="103.765617"><ele>2779.0</ele><time>2011-04-24T07:03:03.0000000+00:00</time></trkpt><trkpt lat="22.314396" lon="103.765579"><ele>2778.6</ele><time>2011-04-24T07:03:08.0000000+00:00</time></trkpt><trkpt lat="22.314449" lon="103.765541"><ele>2777.9</ele><time>2011-04-24T07:03:13.0000000+00:00</time></trkpt><trkpt lat="22.314449" lon="103.765549"><ele>2777.5</ele><time>2011-04-24T07:03:18.0000000+00:00</time></trkpt><trkpt lat="22.31443" lon="103.765556"><ele>2776.8</ele><time>2011-04-24T07:03:23.0000000+00:00</time></trkpt><trkpt lat="22.314419" lon="103.765549"><ele>2776.9</ele><time>2011-04-24T07:03:28.0000000+00:00</time></trkpt><trkpt lat="22.314434" lon="103.765495"><ele>2776.5</ele><time>2011-04-24T07:03:33.0000000+00:00</time></trkpt><trkpt lat="22.314407" lon="103.765442"><ele>2776.2</ele><time>2011-04-24T07:03:38.0000000+00:00</time></trkpt><trkpt lat="22.31439" lon="103.765404"><ele>2775.9</ele><time>2011-04-24T07:03:43.0000000+00:00</time></trkpt><trkpt lat="22.314363" lon="103.765404"><ele>2775.8</ele><time>2011-04-24T07:03:48.0000000+00:00</time></trkpt><trkpt lat="22.314367" lon="103.765396"><ele>2775.6</ele><time>2011-04-24T07:03:53.0000000+00:00</time></trkpt><trkpt lat="22.3144" lon="103.765419"><ele>2775.2</ele><time>2011-04-24T07:03:58.0000000+00:00</time></trkpt><trkpt lat="22.314407" lon="103.765427"><ele>2775.1</ele><time>2011-04-24T07:04:03.0000000+00:00</time></trkpt><trkpt lat="22.314411" lon="103.765427"><ele>2775.0</ele><time>2011-04-24T07:04:08.0000000+00:00</time></trkpt><trkpt lat="22.314432" lon="103.765457"><ele>2775.1</ele><time>2011-04-24T07:04:13.0000000+00:00</time></trkpt><trkpt lat="22.314466" lon="103.76548"><ele>2774.9</ele><time>2011-04-24T07:04:18.0000000+00:00</time></trkpt><trkpt lat="22.314468" lon="103.76548"><ele>2774.9</ele><time>2011-04-24T07:04:23.0000000+00:00</time></trkpt><trkpt lat="22.31448" lon="103.765503"><ele>2774.7</ele><time>2011-04-24T07:04:28.0000000+00:00</time></trkpt><trkpt lat="22.314501" lon="103.765541"><ele>2774.5</ele><time>2011-04-24T07:04:33.0000000+00:00</time></trkpt><trkpt lat="22.314518" lon="103.765556"><ele>2774.0</ele><time>2011-04-24T07:04:38.0000000+00:00</time></trkpt><trkpt lat="22.314539" lon="103.765587"><ele>2773.7</ele><time>2011-04-24T07:04:43.0000000+00:00</time></trkpt><trkpt lat="22.314537" lon="103.765556"><ele>2774.0</ele><time>2011-04-24T07:04:48.0000000+00:00</time></trkpt><trkpt lat="22.314543" lon="103.765541"><ele>2774.3</ele><time>2011-04-24T07:04:53.0000000+00:00</time></trkpt><trkpt lat="22.314543" lon="103.765541"><ele>2774.3</ele><time>2011-04-24T07:04:58.0000000+00:00</time></trkpt><trkpt lat="22.314529" lon="103.765511"><ele>2775.0</ele><time>2011-04-24T07:05:03.0000000+00:00</time></trkpt><trkpt lat="22.314528" lon="103.765533"><ele>2775.8</ele><time>2011-04-24T07:05:08.0000000+00:00</time></trkpt><trkpt lat="22.314528" lon="103.765541"><ele>2776.7</ele><time>2011-04-24T07:05:13.0000000+00:00</time></trkpt><trkpt lat="22.31452" lon="103.765518"><ele>2777.2</ele><time>2011-04-24T07:05:18.0000000+00:00</time></trkpt><trkpt lat="22.314501" lon="103.765511"><ele>2777.8</ele><time>2011-04-24T07:05:23.0000000+00:00</time></trkpt><trkpt lat="22.314478" lon="103.765533"><ele>2778.6</ele><time>2011-04-24T07:05:28.0000000+00:00</time></trkpt><trkpt lat="22.314465" lon="103.765564"><ele>2779.3</ele><time>2011-04-24T07:05:33.0000000+00:00</time></trkpt><trkpt lat="22.314453" lon="103.765579"><ele>2779.5</ele><time>2011-04-24T07:05:38.0000000+00:00</time></trkpt><trkpt lat="22.314459" lon="103.765572"><ele>2779.5</ele><time>2011-04-24T07:05:43.0000000+00:00</time></trkpt><trkpt lat="22.314472" lon="103.765587"><ele>2779.4</ele><time>2011-04-24T07:05:48.0000000+00:00</time></trkpt><trkpt lat="22.314491" lon="103.765556"><ele>2779.3</ele><time>2011-04-24T07:05:53.0000000+00:00</time></trkpt><trkpt lat="22.314518" lon="103.765533"><ele>2779.2</ele><time>2011-04-24T07:05:58.0000000+00:00</time></trkpt><trkpt lat="22.314529" lon="103.765533"><ele>2779.1</ele><time>2011-04-24T07:06:03.0000000+00:00</time></trkpt><trkpt lat="22.31451" lon="103.765564"><ele>2779.1</ele><time>2011-04-24T07:06:08.0000000+00:00</time></trkpt><trkpt lat="22.314528" lon="103.765594"><ele>2779.0</ele><time>2011-04-24T07:06:13.0000000+00:00</time></trkpt><trkpt lat="22.314533" lon="103.76561"><ele>2778.8</ele><time>2011-04-24T07:06:18.0000000+00:00</time></trkpt><trkpt lat="22.314522" lon="103.765671"><ele>2778.7</ele><time>2011-04-24T07:06:23.0000000+00:00</time></trkpt><trkpt lat="22.314524" lon="103.765686"><ele>2778.3</ele><time>2011-04-24T07:06:28.0000000+00:00</time></trkpt><trkpt lat="22.31451" lon="103.765663"><ele>2778.2</ele><time>2011-04-24T07:06:33.0000000+00:00</time></trkpt><trkpt lat="22.314512" lon="103.765671"><ele>2778.2</ele><time>2011-04-24T07:06:38.0000000+00:00</time></trkpt><trkpt lat="22.314516" lon="103.765671"><ele>2778.2</ele><time>2011-04-24T07:06:43.0000000+00:00</time></trkpt><trkpt lat="22.314524" lon="103.765678"><ele>2778.1</ele><time>2011-04-24T07:06:48.0000000+00:00</time></trkpt><trkpt lat="22.314528" lon="103.765671"><ele>2778.1</ele><time>2011-04-24T07:06:53.0000000+00:00</time></trkpt><trkpt lat="22.314524" lon="103.765678"><ele>2778.0</ele><time>2011-04-24T07:06:58.0000000+00:00</time></trkpt><trkpt lat="22.314518" lon="103.765678"><ele>2777.8</ele><time>2011-04-24T07:07:03.0000000+00:00</time></trkpt><trkpt lat="22.314507" lon="103.765686"><ele>2777.8</ele><time>2011-04-24T07:07:08.0000000+00:00</time></trkpt><trkpt lat="22.31451" lon="103.765686"><ele>2778.0</ele><time>2011-04-24T07:07:13.0000000+00:00</time></trkpt><trkpt lat="22.314508" lon="103.765709"><ele>2778.2</ele><time>2011-04-24T07:07:18.0000000+00:00</time></trkpt><trkpt lat="22.314499" lon="103.765671"><ele>2778.5</ele><time>2011-04-24T07:07:23.0000000+00:00</time></trkpt><trkpt lat="22.314491" lon="103.76564"><ele>2778.5</ele><time>2011-04-24T07:07:28.0000000+00:00</time></trkpt><trkpt lat="22.314461" lon="103.765648"><ele>2779.0</ele><time>2011-04-24T07:07:33.0000000+00:00</time></trkpt><trkpt lat="22.314442" lon="103.765663"><ele>2778.8</ele><time>2011-04-24T07:07:38.0000000+00:00</time></trkpt><trkpt lat="22.314442" lon="103.765656"><ele>2778.8</ele><time>2011-04-24T07:07:43.0000000+00:00</time></trkpt><trkpt lat="22.314449" lon="103.765656"><ele>2778.8</ele><time>2011-04-24T07:07:48.0000000+00:00</time></trkpt><trkpt lat="22.314461" lon="103.76561"><ele>2777.7</ele><time>2011-04-24T07:07:53.0000000+00:00</time></trkpt><trkpt lat="22.314465" lon="103.765625"><ele>2776.4</ele><time>2011-04-24T07:07:58.0000000+00:00</time></trkpt><trkpt lat="22.314468" lon="103.765648"><ele>2776.0</ele><time>2011-04-24T07:08:03.0000000+00:00</time></trkpt><trkpt lat="22.314465" lon="103.765648"><ele>2775.9</ele><time>2011-04-24T07:08:08.0000000+00:00</time></trkpt><trkpt lat="22.314486" lon="103.765633"><ele>2775.8</ele><time>2011-04-24T07:08:13.0000000+00:00</time></trkpt><trkpt lat="22.314489" lon="103.765633"><ele>2775.8</ele><time>2011-04-24T07:08:18.0000000+00:00</time></trkpt><trkpt lat="22.314486" lon="103.765633"><ele>2775.8</ele><time>2011-04-24T07:08:23.0000000+00:00</time></trkpt><trkpt lat="22.314493" lon="103.765648"><ele>2775.2</ele><time>2011-04-24T07:08:28.0000000+00:00</time></trkpt><trkpt lat="22.314499" lon="103.765656"><ele>2774.9</ele><time>2011-04-24T07:08:33.0000000+00:00</time></trkpt><trkpt lat="22.314507" lon="103.765656"><ele>2774.9</ele><time>2011-04-24T07:08:38.0000000+00:00</time></trkpt><trkpt lat="22.314508" lon="103.765663"><ele>2774.9</ele><time>2011-04-24T07:08:43.0000000+00:00</time></trkpt><trkpt lat="22.314518" lon="103.765678"><ele>2774.2</ele><time>2011-04-24T07:08:48.0000000+00:00</time></trkpt><trkpt lat="22.314512" lon="103.765663"><ele>2774.1</ele><time>2011-04-24T07:08:53.0000000+00:00</time></trkpt><trkpt lat="22.314514" lon="103.765663"><ele>2774.1</ele><time>2011-04-24T07:08:58.0000000+00:00</time></trkpt><trkpt lat="22.314514" lon="103.765671"><ele>2774.1</ele><time>2011-04-24T07:09:03.0000000+00:00</time></trkpt><trkpt lat="22.314514" lon="103.765663"><ele>2774.0</ele><time>2011-04-24T07:09:08.0000000+00:00</time></trkpt><trkpt lat="22.314486" lon="103.765625"><ele>2773.7</ele><time>2011-04-24T07:09:13.0000000+00:00</time></trkpt><trkpt lat="22.314451" lon="103.765648"><ele>2773.5</ele><time>2011-04-24T07:09:18.0000000+00:00</time></trkpt><trkpt lat="22.31444" lon="103.765648"><ele>2773.2</ele><time>2011-04-24T07:09:23.0000000+00:00</time></trkpt><trkpt lat="22.31444" lon="103.765656"><ele>2773.2</ele><time>2011-04-24T07:09:28.0000000+00:00</time></trkpt><trkpt lat="22.314438" lon="103.765648"><ele>2773.2</ele><time>2011-04-24T07:09:33.0000000+00:00</time></trkpt><trkpt lat="22.314438" lon="103.76564"><ele>2773.2</ele><time>2011-04-24T07:09:38.0000000+00:00</time></trkpt><trkpt lat="22.314442" lon="103.765633"><ele>2773.2</ele><time>2011-04-24T07:09:43.0000000+00:00</time></trkpt><trkpt lat="22.314449" lon="103.765633"><ele>2773.2</ele><time>2011-04-24T07:09:48.0000000+00:00</time></trkpt><trkpt lat="22.314451" lon="103.765617"><ele>2773.2</ele><time>2011-04-24T07:09:53.0000000+00:00</time></trkpt><trkpt lat="22.314457" lon="103.765564"><ele>2772.5</ele><time>2011-04-24T07:09:58.0000000+00:00</time></trkpt><trkpt lat="22.314445" lon="103.765518"><ele>2772.5</ele><time>2011-04-24T07:10:03.0000000+00:00</time></trkpt><trkpt lat="22.314447" lon="103.765511"><ele>2772.5</ele><time>2011-04-24T07:10:08.0000000+00:00</time></trkpt><trkpt lat="22.314447" lon="103.765495"><ele>2772.5</ele><time>2011-04-24T07:10:13.0000000+00:00</time></trkpt><trkpt lat="22.314449" lon="103.765488"><ele>2772.5</ele><time>2011-04-24T07:10:18.0000000+00:00</time></trkpt><trkpt lat="22.314455" lon="103.76548"><ele>2772.5</ele><time>2011-04-24T07:10:23.0000000+00:00</time></trkpt><trkpt lat="22.314449" lon="103.765488"><ele>2772.5</ele><time>2011-04-24T07:10:28.0000000+00:00</time></trkpt><trkpt lat="22.314491" lon="103.765549"><ele>2772.6</ele><time>2011-04-24T07:10:33.0000000+00:00</time></trkpt><trkpt lat="22.314539" lon="103.765587"><ele>2772.6</ele><time>2011-04-24T07:10:38.0000000+00:00</time></trkpt><trkpt lat="22.314533" lon="103.765572"><ele>2772.3</ele><time>2011-04-24T07:10:43.0000000+00:00</time></trkpt><trkpt lat="22.314533" lon="103.765572"><ele>2772.3</ele><time>2011-04-24T07:10:48.0000000+00:00</time></trkpt><trkpt lat="22.314531" lon="103.765572"><ele>2772.3</ele><time>2011-04-24T07:10:53.0000000+00:00</time></trkpt><trkpt lat="22.314526" lon="103.765579"><ele>2772.3</ele><time>2011-04-24T07:10:58.0000000+00:00</time></trkpt><trkpt lat="22.314531" lon="103.76561"><ele>2772.3</ele><time>2011-04-24T07:11:03.0000000+00:00</time></trkpt><trkpt lat="22.314547" lon="103.765617"><ele>2772.2</ele><time>2011-04-24T07:11:08.0000000+00:00</time></trkpt><trkpt lat="22.314573" lon="103.765656"><ele>2772.3</ele><time>2011-04-24T07:11:13.0000000+00:00</time></trkpt><trkpt lat="22.314638" lon="103.765625"><ele>2772.0</ele><time>2011-04-24T07:11:18.0000000+00:00</time></trkpt><trkpt lat="22.314644" lon="103.765648"><ele>2772.0</ele><time>2011-04-24T07:11:23.0000000+00:00</time></trkpt><trkpt lat="22.314638" lon="103.765625"><ele>2771.8</ele><time>2011-04-24T07:11:28.0000000+00:00</time></trkpt><trkpt lat="22.314604" lon="103.765663"><ele>2772.2</ele><time>2011-04-24T07:11:33.0000000+00:00</time></trkpt><trkpt lat="22.314602" lon="103.765663"><ele>2772.2</ele><time>2011-04-24T07:11:38.0000000+00:00</time></trkpt><trkpt lat="22.314619" lon="103.765694"><ele>2772.0</ele><time>2011-04-24T07:11:43.0000000+00:00</time></trkpt><trkpt lat="22.314629" lon="103.765671"><ele>2771.9</ele><time>2011-04-24T07:11:48.0000000+00:00</time></trkpt><trkpt lat="22.314655" lon="103.765686"><ele>2771.8</ele><time>2011-04-24T07:11:53.0000000+00:00</time></trkpt><trkpt lat="22.314661" lon="103.765671"><ele>2771.7</ele><time>2011-04-24T07:11:58.0000000+00:00</time></trkpt><trkpt lat="22.314659" lon="103.765671"><ele>2771.7</ele><time>2011-04-24T07:12:03.0000000+00:00</time></trkpt><trkpt lat="22.314651" lon="103.765701"><ele>2771.0</ele><time>2011-04-24T07:12:08.0000000+00:00</time></trkpt><trkpt lat="22.314648" lon="103.765701"><ele>2771.0</ele><time>2011-04-24T07:12:13.0000000+00:00</time></trkpt><trkpt lat="22.31465" lon="103.765686"><ele>2770.9</ele><time>2011-04-24T07:12:18.0000000+00:00</time></trkpt><trkpt lat="22.314676" lon="103.765663"><ele>2770.7</ele><time>2011-04-24T07:12:23.0000000+00:00</time></trkpt><trkpt lat="22.314684" lon="103.765656"><ele>2770.5</ele><time>2011-04-24T07:12:28.0000000+00:00</time></trkpt><trkpt lat="22.314682" lon="103.765656"><ele>2770.5</ele><time>2011-04-24T07:12:33.0000000+00:00</time></trkpt><trkpt lat="22.31468" lon="103.765663"><ele>2770.2</ele><time>2011-04-24T07:12:38.0000000+00:00</time></trkpt><trkpt lat="22.314682" lon="103.765663"><ele>2769.7</ele><time>2011-04-24T07:12:43.0000000+00:00</time></trkpt><trkpt lat="22.314693" lon="103.765663"><ele>2769.4</ele><time>2011-04-24T07:12:48.0000000+00:00</time></trkpt><trkpt lat="22.314695" lon="103.765663"><ele>2769.4</ele><time>2011-04-24T07:12:53.0000000+00:00</time></trkpt><trkpt lat="22.314699" lon="103.765694"><ele>2769.3</ele><time>2011-04-24T07:12:58.0000000+00:00</time></trkpt><trkpt lat="22.31468" lon="103.765739"><ele>2768.9</ele><time>2011-04-24T07:13:03.0000000+00:00</time></trkpt><trkpt lat="22.314653" lon="103.765717"><ele>2768.8</ele><time>2011-04-24T07:13:08.0000000+00:00</time></trkpt><trkpt lat="22.31465" lon="103.765717"><ele>2768.8</ele><time>2011-04-24T07:13:13.0000000+00:00</time></trkpt><trkpt lat="22.314655" lon="103.765694"><ele>2769.3</ele><time>2011-04-24T07:13:18.0000000+00:00</time></trkpt><trkpt lat="22.314661" lon="103.765709"><ele>2770.3</ele><time>2011-04-24T07:13:23.0000000+00:00</time></trkpt><trkpt lat="22.314655" lon="103.765717"><ele>2770.7</ele><time>2011-04-24T07:13:28.0000000+00:00</time></trkpt><trkpt lat="22.314651" lon="103.765717"><ele>2770.7</ele><time>2011-04-24T07:13:33.0000000+00:00</time></trkpt><trkpt lat="22.314594" lon="103.765663"><ele>2772.1</ele><time>2011-04-24T07:13:38.0000000+00:00</time></trkpt><trkpt lat="22.314568" lon="103.765633"><ele>2772.5</ele><time>2011-04-24T07:13:43.0000000+00:00</time></trkpt><trkpt lat="22.314537" lon="103.765625"><ele>2772.2</ele><time>2011-04-24T07:13:48.0000000+00:00</time></trkpt><trkpt lat="22.314514" lon="103.765617"><ele>2772.2</ele><time>2011-04-24T07:13:53.0000000+00:00</time></trkpt><trkpt lat="22.314503" lon="103.765617"><ele>2771.4</ele><time>2011-04-24T07:13:58.0000000+00:00</time></trkpt><trkpt lat="22.314505" lon="103.765602"><ele>2771.0</ele><time>2011-04-24T07:14:03.0000000+00:00</time></trkpt><trkpt lat="22.314507" lon="103.765587"><ele>2771.0</ele><time>2011-04-24T07:14:08.0000000+00:00</time></trkpt><trkpt lat="22.314508" lon="103.765587"><ele>2771.3</ele><time>2011-04-24T07:14:13.0000000+00:00</time></trkpt><trkpt lat="22.314507" lon="103.765587"><ele>2771.3</ele><time>2011-04-24T07:14:18.0000000+00:00</time></trkpt><trkpt lat="22.314512" lon="103.765587"><ele>2771.3</ele><time>2011-04-24T07:14:23.0000000+00:00</time></trkpt><trkpt lat="22.314548" lon="103.765556"><ele>2771.8</ele><time>2011-04-24T07:14:28.0000000+00:00</time></trkpt><trkpt lat="22.314566" lon="103.765533"><ele>2772.0</ele><time>2011-04-24T07:14:33.0000000+00:00</time></trkpt><trkpt lat="22.314579" lon="103.765511"><ele>2772.0</ele><time>2011-04-24T07:14:38.0000000+00:00</time></trkpt><trkpt lat="22.31461" lon="103.765488"><ele>2771.7</ele><time>2011-04-24T07:14:43.0000000+00:00</time></trkpt><trkpt lat="22.314627" lon="103.76545"><ele>2771.6</ele><time>2011-04-24T07:14:48.0000000+00:00</time></trkpt><trkpt lat="22.314623" lon="103.76545"><ele>2771.5</ele><time>2011-04-24T07:14:53.0000000+00:00</time></trkpt><trkpt lat="22.314615" lon="103.765457"><ele>2771.5</ele><time>2011-04-24T07:14:58.0000000+00:00</time></trkpt><trkpt lat="22.314613" lon="103.765465"><ele>2771.5</ele><time>2011-04-24T07:15:03.0000000+00:00</time></trkpt><trkpt lat="22.314615" lon="103.76548"><ele>2771.1</ele><time>2011-04-24T07:15:08.0000000+00:00</time></trkpt><trkpt lat="22.314646" lon="103.765495"><ele>2770.5</ele><time>2011-04-24T07:15:13.0000000+00:00</time></trkpt><trkpt lat="22.314669" lon="103.765556"><ele>2769.8</ele><time>2011-04-24T07:15:18.0000000+00:00</time></trkpt><trkpt lat="22.314678" lon="103.765564"><ele>2770.0</ele><time>2011-04-24T07:15:23.0000000+00:00</time></trkpt><trkpt lat="22.314682" lon="103.765564"><ele>2770.0</ele><time>2011-04-24T07:15:28.0000000+00:00</time></trkpt><trkpt lat="22.314688" lon="103.765564"><ele>2770.0</ele><time>2011-04-24T07:15:33.0000000+00:00</time></trkpt><trkpt lat="22.314688" lon="103.765564"><ele>2770.0</ele><time>2011-04-24T07:15:38.0000000+00:00</time></trkpt><trkpt lat="22.314682" lon="103.765572"><ele>2770.1</ele><time>2011-04-24T07:15:43.0000000+00:00</time></trkpt><trkpt lat="22.314663" lon="103.765594"><ele>2770.2</ele><time>2011-04-24T07:15:48.0000000+00:00</time></trkpt><trkpt lat="22.314678" lon="103.765564"><ele>2770.2</ele><time>2011-04-24T07:15:53.0000000+00:00</time></trkpt><trkpt lat="22.314701" lon="103.765526"><ele>2770.4</ele><time>2011-04-24T07:15:58.0000000+00:00</time></trkpt><trkpt lat="22.314684" lon="103.765503"><ele>2770.5</ele><time>2011-04-24T07:16:03.0000000+00:00</time></trkpt><trkpt lat="22.314663" lon="103.765511"><ele>2771.0</ele><time>2011-04-24T07:16:08.0000000+00:00</time></trkpt><trkpt lat="22.314663" lon="103.765503"><ele>2771.1</ele><time>2011-04-24T07:16:13.0000000+00:00</time></trkpt><trkpt lat="22.314642" lon="103.765526"><ele>2771.3</ele><time>2011-04-24T07:16:18.0000000+00:00</time></trkpt><trkpt lat="22.314625" lon="103.765556"><ele>2771.5</ele><time>2011-04-24T07:16:23.0000000+00:00</time></trkpt><trkpt lat="22.314623" lon="103.765587"><ele>2772.1</ele><time>2011-04-24T07:16:28.0000000+00:00</time></trkpt><trkpt lat="22.314611" lon="103.765594"><ele>2772.3</ele><time>2011-04-24T07:16:33.0000000+00:00</time></trkpt><trkpt lat="22.314583" lon="103.76564"><ele>2772.8</ele><time>2011-04-24T07:16:38.0000000+00:00</time></trkpt><trkpt lat="22.314577" lon="103.765625"><ele>2770.6</ele><time>2011-04-24T07:16:43.0000000+00:00</time></trkpt><trkpt lat="22.31456" lon="103.765587"><ele>2770.5</ele><time>2011-04-24T07:16:48.0000000+00:00</time></trkpt><trkpt lat="22.314537" lon="103.765587"><ele>2769.7</ele><time>2011-04-24T07:16:53.0000000+00:00</time></trkpt><trkpt lat="22.31452" lon="103.765556"><ele>2769.5</ele><time>2011-04-24T07:16:58.0000000+00:00</time></trkpt><trkpt lat="22.314533" lon="103.765556"><ele>2769.6</ele><time>2011-04-24T07:17:03.0000000+00:00</time></trkpt><trkpt lat="22.314543" lon="103.765564"><ele>2769.5</ele><time>2011-04-24T07:17:08.0000000+00:00</time></trkpt><trkpt lat="22.314558" lon="103.765594"><ele>2769.8</ele><time>2011-04-24T07:17:13.0000000+00:00</time></trkpt><trkpt lat="22.314581" lon="103.765625"><ele>2769.7</ele><time>2011-04-24T07:17:18.0000000+00:00</time></trkpt><trkpt lat="22.314589" lon="103.765648"><ele>2769.4</ele><time>2011-04-24T07:17:23.0000000+00:00</time></trkpt><trkpt lat="22.314583" lon="103.765656"><ele>2769.5</ele><time>2011-04-24T07:17:28.0000000+00:00</time></trkpt><trkpt lat="22.314589" lon="103.765671"><ele>2770.3</ele><time>2011-04-24T07:17:33.0000000+00:00</time></trkpt><trkpt lat="22.314589" lon="103.765663"><ele>2770.3</ele><time>2011-04-24T07:17:38.0000000+00:00</time></trkpt><trkpt lat="22.314569" lon="103.765663"><ele>2771.5</ele><time>2011-04-24T07:17:43.0000000+00:00</time></trkpt><trkpt lat="22.314568" lon="103.765678"><ele>2771.7</ele><time>2011-04-24T07:17:48.0000000+00:00</time></trkpt><trkpt lat="22.314558" lon="103.765671"><ele>2772.1</ele><time>2011-04-24T07:17:53.0000000+00:00</time></trkpt><trkpt lat="22.314529" lon="103.765625"><ele>2773.1</ele><time>2011-04-24T07:17:58.0000000+00:00</time></trkpt><trkpt lat="22.314505" lon="103.765579"><ele>2774.5</ele><time>2011-04-24T07:18:03.0000000+00:00</time></trkpt><trkpt lat="22.314474" lon="103.765549"><ele>2775.8</ele><time>2011-04-24T07:18:08.0000000+00:00</time></trkpt><trkpt lat="22.314482" lon="103.765533"><ele>2776.9</ele><time>2011-04-24T07:18:13.0000000+00:00</time></trkpt><trkpt lat="22.314474" lon="103.765541"><ele>2777.1</ele><time>2011-04-24T07:18:18.0000000+00:00</time></trkpt><trkpt lat="22.314463" lon="103.765541"><ele>2777.3</ele><time>2011-04-24T07:18:23.0000000+00:00</time></trkpt><trkpt lat="22.314461" lon="103.765541"><ele>2777.3</ele><time>2011-04-24T07:18:28.0000000+00:00</time></trkpt><trkpt lat="22.314468" lon="103.765549"><ele>2777.2</ele><time>2011-04-24T07:18:33.0000000+00:00</time></trkpt><trkpt lat="22.31448" lon="103.765579"><ele>2776.8</ele><time>2011-04-24T07:18:38.0000000+00:00</time></trkpt><trkpt lat="22.314482" lon="103.765579"><ele>2776.8</ele><time>2011-04-24T07:18:43.0000000+00:00</time></trkpt><trkpt lat="22.314487" lon="103.765579"><ele>2776.8</ele><time>2011-04-24T07:18:48.0000000+00:00</time></trkpt><trkpt lat="22.314495" lon="103.765579"><ele>2777.0</ele><time>2011-04-24T07:18:53.0000000+00:00</time></trkpt><trkpt lat="22.314497" lon="103.765587"><ele>2777.1</ele><time>2011-04-24T07:18:58.0000000+00:00</time></trkpt><trkpt lat="22.314482" lon="103.765572"><ele>2776.3</ele><time>2011-04-24T07:19:03.0000000+00:00</time></trkpt><trkpt lat="22.314468" lon="103.765549"><ele>2775.8</ele><time>2011-04-24T07:19:08.0000000+00:00</time></trkpt><trkpt lat="22.314478" lon="103.765549"><ele>2775.8</ele><time>2011-04-24T07:19:13.0000000+00:00</time></trkpt><trkpt lat="22.314484" lon="103.765556"><ele>2775.8</ele><time>2011-04-24T07:19:18.0000000+00:00</time></trkpt><trkpt lat="22.314486" lon="103.765549"><ele>2775.8</ele><time>2011-04-24T07:19:23.0000000+00:00</time></trkpt><trkpt lat="22.314486" lon="103.765541"><ele>2775.8</ele><time>2011-04-24T07:19:28.0000000+00:00</time></trkpt><trkpt lat="22.314491" lon="103.765541"><ele>2775.8</ele><time>2011-04-24T07:19:33.0000000+00:00</time></trkpt><trkpt lat="22.314514" lon="103.765587"><ele>2775.8</ele><time>2011-04-24T07:19:38.0000000+00:00</time></trkpt><trkpt lat="22.314531" lon="103.765579"><ele>2775.5</ele><time>2011-04-24T07:19:43.0000000+00:00</time></trkpt><trkpt lat="22.314541" lon="103.765579"><ele>2775.3</ele><time>2011-04-24T07:19:48.0000000+00:00</time></trkpt><trkpt lat="22.314539" lon="103.765579"><ele>2775.3</ele><time>2011-04-24T07:19:53.0000000+00:00</time></trkpt><trkpt lat="22.314535" lon="103.765579"><ele>2775.2</ele><time>2011-04-24T07:19:58.0000000+00:00</time></trkpt><trkpt lat="22.314545" lon="103.765594"><ele>2774.8</ele><time>2011-04-24T07:20:03.0000000+00:00</time></trkpt><trkpt lat="22.31455" lon="103.765602"><ele>2774.5</ele><time>2011-04-24T07:20:08.0000000+00:00</time></trkpt><trkpt lat="22.314543" lon="103.765594"><ele>2774.2</ele><time>2011-04-24T07:20:13.0000000+00:00</time></trkpt><trkpt lat="22.314547" lon="103.765594"><ele>2774.3</ele><time>2011-04-24T07:20:18.0000000+00:00</time></trkpt><trkpt lat="22.314554" lon="103.765587"><ele>2774.3</ele><time>2011-04-24T07:20:23.0000000+00:00</time></trkpt><trkpt lat="22.314556" lon="103.765587"><ele>2774.3</ele><time>2011-04-24T07:20:28.0000000+00:00</time></trkpt><trkpt lat="22.314562" lon="103.765617"><ele>2774.3</ele><time>2011-04-24T07:20:33.0000000+00:00</time></trkpt><trkpt lat="22.314558" lon="103.765625"><ele>2774.3</ele><time>2011-04-24T07:20:38.0000000+00:00</time></trkpt><trkpt lat="22.314562" lon="103.765625"><ele>2774.2</ele><time>2011-04-24T07:20:43.0000000+00:00</time></trkpt><trkpt lat="22.314562" lon="103.765617"><ele>2774.0</ele><time>2011-04-24T07:20:48.0000000+00:00</time></trkpt><trkpt lat="22.314564" lon="103.765602"><ele>2774.0</ele><time>2011-04-24T07:20:53.0000000+00:00</time></trkpt><trkpt lat="22.314566" lon="103.765594"><ele>2774.0</ele><time>2011-04-24T07:20:58.0000000+00:00</time></trkpt><trkpt lat="22.314558" lon="103.765602"><ele>2774.1</ele><time>2011-04-24T07:21:03.0000000+00:00</time></trkpt><trkpt lat="22.31456" lon="103.765602"><ele>2774.1</ele><time>2011-04-24T07:21:08.0000000+00:00</time></trkpt><trkpt lat="22.314589" lon="103.765633"><ele>2774.7</ele><time>2011-04-24T07:21:13.0000000+00:00</time></trkpt><trkpt lat="22.314589" lon="103.765625"><ele>2774.7</ele><time>2011-04-24T07:21:18.0000000+00:00</time></trkpt><trkpt lat="22.314617" lon="103.765633"><ele>2774.7</ele><time>2011-04-24T07:21:23.0000000+00:00</time></trkpt><trkpt lat="22.314615" lon="103.765625"><ele>2774.7</ele><time>2011-04-24T07:21:28.0000000+00:00</time></trkpt><trkpt lat="22.314615" lon="103.765625"><ele>2774.7</ele><time>2011-04-24T07:21:33.0000000+00:00</time></trkpt><trkpt lat="22.314617" lon="103.765625"><ele>2774.7</ele><time>2011-04-24T07:21:38.0000000+00:00</time></trkpt><trkpt lat="22.314615" lon="103.765633"><ele>2774.7</ele><time>2011-04-24T07:21:43.0000000+00:00</time></trkpt><trkpt lat="22.31461" lon="103.765633"><ele>2774.7</ele><time>2011-04-24T07:21:48.0000000+00:00</time></trkpt><trkpt lat="22.314604" lon="103.765633"><ele>2774.7</ele><time>2011-04-24T07:21:53.0000000+00:00</time></trkpt><trkpt lat="22.314606" lon="103.765633"><ele>2774.7</ele><time>2011-04-24T07:21:58.0000000+00:00</time></trkpt><trkpt lat="22.314602" lon="103.765617"><ele>2774.7</ele><time>2011-04-24T07:22:03.0000000+00:00</time></trkpt><trkpt lat="22.314598" lon="103.765633"><ele>2774.6</ele><time>2011-04-24T07:22:08.0000000+00:00</time></trkpt><trkpt lat="22.314592" lon="103.76564"><ele>2774.5</ele><time>2011-04-24T07:22:13.0000000+00:00</time></trkpt><trkpt lat="22.314587" lon="103.765633"><ele>2774.3</ele><time>2011-04-24T07:22:18.0000000+00:00</time></trkpt><trkpt lat="22.314589" lon="103.765625"><ele>2773.0</ele><time>2011-04-24T07:22:23.0000000+00:00</time></trkpt><trkpt lat="22.314587" lon="103.765617"><ele>2772.9</ele><time>2011-04-24T07:22:28.0000000+00:00</time></trkpt><trkpt lat="22.31459" lon="103.76561"><ele>2773.0</ele><time>2011-04-24T07:22:33.0000000+00:00</time></trkpt><trkpt lat="22.314602" lon="103.765602"><ele>2773.0</ele><time>2011-04-24T07:22:38.0000000+00:00</time></trkpt><trkpt lat="22.314619" lon="103.765594"><ele>2773.7</ele><time>2011-04-24T07:22:43.0000000+00:00</time></trkpt><trkpt lat="22.314602" lon="103.765594"><ele>2773.7</ele><time>2011-04-24T07:22:48.0000000+00:00</time></trkpt><trkpt lat="22.314615" lon="103.76561"><ele>2773.7</ele><time>2011-04-24T07:22:53.0000000+00:00</time></trkpt><trkpt lat="22.314619" lon="103.765617"><ele>2773.5</ele><time>2011-04-24T07:22:58.0000000+00:00</time></trkpt><trkpt lat="22.314625" lon="103.76561"><ele>2773.5</ele><time>2011-04-24T07:23:03.0000000+00:00</time></trkpt><trkpt lat="22.314619" lon="103.76561"><ele>2773.7</ele><time>2011-04-24T07:23:08.0000000+00:00</time></trkpt><trkpt lat="22.314594" lon="103.765594"><ele>2773.7</ele><time>2011-04-24T07:23:13.0000000+00:00</time></trkpt><trkpt lat="22.314547" lon="103.765564"><ele>2773.3</ele><time>2011-04-24T07:23:18.0000000+00:00</time></trkpt><trkpt lat="22.314499" lon="103.765495"><ele>2773.0</ele><time>2011-04-24T07:23:23.0000000+00:00</time></trkpt><trkpt lat="22.314459" lon="103.765442"><ele>2773.3</ele><time>2011-04-24T07:23:28.0000000+00:00</time></trkpt><trkpt lat="22.314451" lon="103.765442"><ele>2773.7</ele><time>2011-04-24T07:23:33.0000000+00:00</time></trkpt><trkpt lat="22.314459" lon="103.765457"><ele>2774.0</ele><time>2011-04-24T07:23:38.0000000+00:00</time></trkpt><trkpt lat="22.314465" lon="103.765457"><ele>2774.0</ele><time>2011-04-24T07:23:43.0000000+00:00</time></trkpt><trkpt lat="22.314463" lon="103.765465"><ele>2774.0</ele><time>2011-04-24T07:23:48.0000000+00:00</time></trkpt><trkpt lat="22.314463" lon="103.765457"><ele>2774.0</ele><time>2011-04-24T07:23:53.0000000+00:00</time></trkpt><trkpt lat="22.314463" lon="103.765457"><ele>2774.0</ele><time>2011-04-24T07:23:58.0000000+00:00</time></trkpt><trkpt lat="22.314461" lon="103.765465"><ele>2774.0</ele><time>2011-04-24T07:24:03.0000000+00:00</time></trkpt><trkpt lat="22.314457" lon="103.765472"><ele>2774.0</ele><time>2011-04-24T07:24:08.0000000+00:00</time></trkpt><trkpt lat="22.314449" lon="103.76548"><ele>2774.0</ele><time>2011-04-24T07:24:13.0000000+00:00</time></trkpt><trkpt lat="22.314463" lon="103.765503"><ele>2774.4</ele><time>2011-04-24T07:24:18.0000000+00:00</time></trkpt><trkpt lat="22.314466" lon="103.765503"><ele>2774.6</ele><time>2011-04-24T07:24:23.0000000+00:00</time></trkpt><trkpt lat="22.314463" lon="103.765511"><ele>2774.6</ele><time>2011-04-24T07:24:28.0000000+00:00</time></trkpt><trkpt lat="22.314465" lon="103.765511"><ele>2774.6</ele><time>2011-04-24T07:24:33.0000000+00:00</time></trkpt><trkpt lat="22.314461" lon="103.765511"><ele>2774.7</ele><time>2011-04-24T07:24:38.0000000+00:00</time></trkpt><trkpt lat="22.314466" lon="103.765511"><ele>2774.7</ele><time>2011-04-24T07:24:43.0000000+00:00</time></trkpt><trkpt lat="22.314465" lon="103.765518"><ele>2774.7</ele><time>2011-04-24T07:24:48.0000000+00:00</time></trkpt><trkpt lat="22.314463" lon="103.765518"><ele>2774.8</ele><time>2011-04-24T07:24:53.0000000+00:00</time></trkpt><trkpt lat="22.314468" lon="103.765511"><ele>2774.8</ele><time>2011-04-24T07:24:58.0000000+00:00</time></trkpt><trkpt lat="22.314472" lon="103.765511"><ele>2774.9</ele><time>2011-04-24T07:25:03.0000000+00:00</time></trkpt><trkpt lat="22.314468" lon="103.765495"><ele>2775.0</ele><time>2011-04-24T07:25:08.0000000+00:00</time></trkpt><trkpt lat="22.31448" lon="103.765511"><ele>2775.3</ele><time>2011-04-24T07:25:13.0000000+00:00</time></trkpt><trkpt lat="22.314476" lon="103.765488"><ele>2776.2</ele><time>2011-04-24T07:25:18.0000000+00:00</time></trkpt><trkpt lat="22.314463" lon="103.76548"><ele>2776.0</ele><time>2011-04-24T07:25:23.0000000+00:00</time></trkpt><trkpt lat="22.314463" lon="103.76548"><ele>2776.5</ele><time>2011-04-24T07:25:28.0000000+00:00</time></trkpt><trkpt lat="22.314455" lon="103.765457"><ele>2776.3</ele><time>2011-04-24T07:25:33.0000000+00:00</time></trkpt><trkpt lat="22.314447" lon="103.765442"><ele>2776.0</ele><time>2011-04-24T07:25:38.0000000+00:00</time></trkpt><trkpt lat="22.314432" lon="103.765465"><ele>2775.9</ele><time>2011-04-24T07:25:43.0000000+00:00</time></trkpt><trkpt lat="22.314455" lon="103.765503"><ele>2775.2</ele><time>2011-04-24T07:25:48.0000000+00:00</time></trkpt><trkpt lat="22.31448" lon="103.765572"><ele>2774.4</ele><time>2011-04-24T07:25:53.0000000+00:00</time></trkpt><trkpt lat="22.314491" lon="103.765587"><ele>2774.3</ele><time>2011-04-24T07:25:58.0000000+00:00</time></trkpt><trkpt lat="22.314497" lon="103.765564"><ele>2774.0</ele><time>2011-04-24T07:26:03.0000000+00:00</time></trkpt><trkpt lat="22.314497" lon="103.765556"><ele>2773.9</ele><time>2011-04-24T07:26:08.0000000+00:00</time></trkpt><trkpt lat="22.314495" lon="103.765556"><ele>2773.9</ele><time>2011-04-24T07:26:13.0000000+00:00</time></trkpt><trkpt lat="22.314491" lon="103.765549"><ele>2773.8</ele><time>2011-04-24T07:26:18.0000000+00:00</time></trkpt><trkpt lat="22.314478" lon="103.765533"><ele>2773.5</ele><time>2011-04-24T07:26:23.0000000+00:00</time></trkpt><trkpt lat="22.314487" lon="103.765526"><ele>2773.5</ele><time>2011-04-24T07:26:28.0000000+00:00</time></trkpt><trkpt lat="22.314487" lon="103.765526"><ele>2773.5</ele><time>2011-04-24T07:26:33.0000000+00:00</time></trkpt><trkpt lat="22.314493" lon="103.765518"><ele>2773.5</ele><time>2011-04-24T07:26:38.0000000+00:00</time></trkpt><trkpt lat="22.314486" lon="103.765518"><ele>2773.5</ele><time>2011-04-24T07:26:43.0000000+00:00</time></trkpt><trkpt lat="22.314486" lon="103.765511"><ele>2773.5</ele><time>2011-04-24T07:26:48.0000000+00:00</time></trkpt><trkpt lat="22.314486" lon="103.765511"><ele>2773.6</ele><time>2011-04-24T07:26:53.0000000+00:00</time></trkpt><trkpt lat="22.314487" lon="103.765511"><ele>2773.6</ele><time>2011-04-24T07:26:58.0000000+00:00</time></trkpt><trkpt lat="22.314478" lon="103.765518"><ele>2773.6</ele><time>2011-04-24T07:27:03.0000000+00:00</time></trkpt><trkpt lat="22.314484" lon="103.765533"><ele>2773.9</ele><time>2011-04-24T07:27:08.0000000+00:00</time></trkpt><trkpt lat="22.314484" lon="103.765541"><ele>2774.3</ele><time>2011-04-24T07:27:13.0000000+00:00</time></trkpt><trkpt lat="22.314489" lon="103.765556"><ele>2775.7</ele><time>2011-04-24T07:27:18.0000000+00:00</time></trkpt><trkpt lat="22.314491" lon="103.765556"><ele>2775.7</ele><time>2011-04-24T07:27:23.0000000+00:00</time></trkpt><trkpt lat="22.314489" lon="103.765564"><ele>2775.7</ele><time>2011-04-24T07:27:28.0000000+00:00</time></trkpt><trkpt lat="22.314493" lon="103.765556"><ele>2775.7</ele><time>2011-04-24T07:27:33.0000000+00:00</time></trkpt><trkpt lat="22.314491" lon="103.765556"><ele>2775.7</ele><time>2011-04-24T07:27:38.0000000+00:00</time></trkpt><trkpt lat="22.314493" lon="103.765556"><ele>2775.7</ele><time>2011-04-24T07:27:43.0000000+00:00</time></trkpt><trkpt lat="22.314493" lon="103.765564"><ele>2775.7</ele><time>2011-04-24T07:27:48.0000000+00:00</time></trkpt><trkpt lat="22.314501" lon="103.765564"><ele>2775.7</ele><time>2011-04-24T07:27:53.0000000+00:00</time></trkpt><trkpt lat="22.314503" lon="103.765556"><ele>2775.7</ele><time>2011-04-24T07:27:58.0000000+00:00</time></trkpt><trkpt lat="22.314505" lon="103.765556"><ele>2775.7</ele><time>2011-04-24T07:28:03.0000000+00:00</time></trkpt><trkpt lat="22.314507" lon="103.765556"><ele>2775.7</ele><time>2011-04-24T07:28:08.0000000+00:00</time></trkpt><trkpt lat="22.314507" lon="103.765564"><ele>2775.7</ele><time>2011-04-24T07:28:13.0000000+00:00</time></trkpt><trkpt lat="22.314501" lon="103.765572"><ele>2775.8</ele><time>2011-04-24T07:28:18.0000000+00:00</time></trkpt><trkpt lat="22.314495" lon="103.765556"><ele>2776.0</ele><time>2011-04-24T07:28:23.0000000+00:00</time></trkpt><trkpt lat="22.314484" lon="103.765533"><ele>2776.2</ele><time>2011-04-24T07:28:28.0000000+00:00</time></trkpt><trkpt lat="22.31451" lon="103.765495"><ele>2775.9</ele><time>2011-04-24T07:28:33.0000000+00:00</time></trkpt><trkpt lat="22.314539" lon="103.765488"><ele>2776.0</ele><time>2011-04-24T07:28:38.0000000+00:00</time></trkpt><trkpt lat="22.314552" lon="103.765465"><ele>2776.0</ele><time>2011-04-24T07:28:43.0000000+00:00</time></trkpt><trkpt lat="22.314558" lon="103.76545"><ele>2775.7</ele><time>2011-04-24T07:28:48.0000000+00:00</time></trkpt><trkpt lat="22.314562" lon="103.765457"><ele>2775.7</ele><time>2011-04-24T07:28:53.0000000+00:00</time></trkpt><trkpt lat="22.314558" lon="103.765457"><ele>2775.6</ele><time>2011-04-24T07:28:58.0000000+00:00</time></trkpt><trkpt lat="22.314562" lon="103.765457"><ele>2775.5</ele><time>2011-04-24T07:29:03.0000000+00:00</time></trkpt><trkpt lat="22.314562" lon="103.76545"><ele>2775.5</ele><time>2011-04-24T07:29:08.0000000+00:00</time></trkpt><trkpt lat="22.314556" lon="103.76545"><ele>2775.7</ele><time>2011-04-24T07:29:13.0000000+00:00</time></trkpt><trkpt lat="22.314556" lon="103.76545"><ele>2775.7</ele><time>2011-04-24T07:29:18.0000000+00:00</time></trkpt><trkpt lat="22.314539" lon="103.765427"><ele>2775.8</ele><time>2011-04-24T07:29:23.0000000+00:00</time></trkpt><trkpt lat="22.314505" lon="103.765396"><ele>2776.0</ele><time>2011-04-24T07:29:28.0000000+00:00</time></trkpt><trkpt lat="22.31448" lon="103.765358"><ele>2776.5</ele><time>2011-04-24T07:29:33.0000000+00:00</time></trkpt><trkpt lat="22.314453" lon="103.765373"><ele>2777.0</ele><time>2011-04-24T07:29:38.0000000+00:00</time></trkpt><trkpt lat="22.314457" lon="103.765381"><ele>2777.2</ele><time>2011-04-24T07:29:43.0000000+00:00</time></trkpt><trkpt lat="22.314457" lon="103.765373"><ele>2777.2</ele><time>2011-04-24T07:29:48.0000000+00:00</time></trkpt><trkpt lat="22.314461" lon="103.765381"><ele>2777.2</ele><time>2011-04-24T07:29:53.0000000+00:00</time></trkpt><trkpt lat="22.314466" lon="103.765381"><ele>2777.2</ele><time>2011-04-24T07:29:58.0000000+00:00</time></trkpt><trkpt lat="22.314482" lon="103.765419"><ele>2777.2</ele><time>2011-04-24T07:30:03.0000000+00:00</time></trkpt><trkpt lat="22.31448" lon="103.765457"><ele>2777.3</ele><time>2011-04-24T07:30:08.0000000+00:00</time></trkpt><trkpt lat="22.31447" lon="103.76548"><ele>2777.3</ele><time>2011-04-24T07:30:13.0000000+00:00</time></trkpt><trkpt lat="22.314468" lon="103.765472"><ele>2777.3</ele><time>2011-04-24T07:30:18.0000000+00:00</time></trkpt><trkpt lat="22.314459" lon="103.765457"><ele>2777.4</ele><time>2011-04-24T07:30:23.0000000+00:00</time></trkpt><trkpt lat="22.314449" lon="103.765411"><ele>2777.3</ele><time>2011-04-24T07:30:28.0000000+00:00</time></trkpt><trkpt lat="22.314453" lon="103.765404"><ele>2777.0</ele><time>2011-04-24T07:30:33.0000000+00:00</time></trkpt><trkpt lat="22.314451" lon="103.765404"><ele>2776.9</ele><time>2011-04-24T07:30:38.0000000+00:00</time></trkpt><trkpt lat="22.314447" lon="103.765396"><ele>2776.9</ele><time>2011-04-24T07:30:43.0000000+00:00</time></trkpt><trkpt lat="22.314457" lon="103.765396"><ele>2776.8</ele><time>2011-04-24T07:30:48.0000000+00:00</time></trkpt><trkpt lat="22.314463" lon="103.765388"><ele>2776.7</ele><time>2011-04-24T07:30:53.0000000+00:00</time></trkpt><trkpt lat="22.314461" lon="103.765442"><ele>2776.5</ele><time>2011-04-24T07:30:58.0000000+00:00</time></trkpt><trkpt lat="22.314472" lon="103.76548"><ele>2776.4</ele><time>2011-04-24T07:31:03.0000000+00:00</time></trkpt><trkpt lat="22.314461" lon="103.765526"><ele>2776.8</ele><time>2011-04-24T07:31:08.0000000+00:00</time></trkpt><trkpt lat="22.314487" lon="103.765541"><ele>2777.2</ele><time>2011-04-24T07:31:13.0000000+00:00</time></trkpt><trkpt lat="22.314487" lon="103.765541"><ele>2777.3</ele><time>2011-04-24T07:31:18.0000000+00:00</time></trkpt><trkpt lat="22.314497" lon="103.765541"><ele>2777.3</ele><time>2011-04-24T07:31:23.0000000+00:00</time></trkpt><trkpt lat="22.314501" lon="103.765549"><ele>2777.2</ele><time>2011-04-24T07:31:28.0000000+00:00</time></trkpt><trkpt lat="22.314508" lon="103.765549"><ele>2777.3</ele><time>2011-04-24T07:31:33.0000000+00:00</time></trkpt><trkpt lat="22.314518" lon="103.765549"><ele>2778.1</ele><time>2011-04-24T07:31:38.0000000+00:00</time></trkpt><trkpt lat="22.314522" lon="103.765549"><ele>2778.1</ele><time>2011-04-24T07:31:43.0000000+00:00</time></trkpt><trkpt lat="22.314529" lon="103.765564"><ele>2778.2</ele><time>2011-04-24T07:31:48.0000000+00:00</time></trkpt><trkpt lat="22.314528" lon="103.765564"><ele>2778.2</ele><time>2011-04-24T07:31:53.0000000+00:00</time></trkpt><trkpt lat="22.314526" lon="103.765549"><ele>2778.3</ele><time>2011-04-24T07:31:58.0000000+00:00</time></trkpt><trkpt lat="22.314526" lon="103.765533"><ele>2778.5</ele><time>2011-04-24T07:32:03.0000000+00:00</time></trkpt><trkpt lat="22.31451" lon="103.765511"><ele>2778.6</ele><time>2011-04-24T07:32:08.0000000+00:00</time></trkpt><trkpt lat="22.314499" lon="103.765511"><ele>2779.0</ele><time>2011-04-24T07:32:13.0000000+00:00</time></trkpt><trkpt lat="22.314493" lon="103.765511"><ele>2779.0</ele><time>2011-04-24T07:32:18.0000000+00:00</time></trkpt><trkpt lat="22.314487" lon="103.765503"><ele>2779.0</ele><time>2011-04-24T07:32:23.0000000+00:00</time></trkpt><trkpt lat="22.314487" lon="103.765511"><ele>2779.0</ele><time>2011-04-24T07:32:28.0000000+00:00</time></trkpt><trkpt lat="22.314493" lon="103.765518"><ele>2779.1</ele><time>2011-04-24T07:32:33.0000000+00:00</time></trkpt><trkpt lat="22.314493" lon="103.765518"><ele>2779.1</ele><time>2011-04-24T07:32:38.0000000+00:00</time></trkpt><trkpt lat="22.314491" lon="103.765526"><ele>2779.2</ele><time>2011-04-24T07:32:43.0000000+00:00</time></trkpt><trkpt lat="22.314493" lon="103.765526"><ele>2779.2</ele><time>2011-04-24T07:32:48.0000000+00:00</time></trkpt><trkpt lat="22.314497" lon="103.765526"><ele>2779.2</ele><time>2011-04-24T07:32:53.0000000+00:00</time></trkpt><trkpt lat="22.314505" lon="103.765526"><ele>2779.2</ele><time>2011-04-24T07:32:58.0000000+00:00</time></trkpt><trkpt lat="22.314508" lon="103.765526"><ele>2779.1</ele><time>2011-04-24T07:33:03.0000000+00:00</time></trkpt><trkpt lat="22.314512" lon="103.765533"><ele>2779.0</ele><time>2011-04-24T07:33:08.0000000+00:00</time></trkpt><trkpt lat="22.314518" lon="103.765541"><ele>2779.0</ele><time>2011-04-24T07:33:13.0000000+00:00</time></trkpt><trkpt lat="22.31452" lon="103.765541"><ele>2779.0</ele><time>2011-04-24T07:33:18.0000000+00:00</time></trkpt><trkpt lat="22.314522" lon="103.765549"><ele>2779.0</ele><time>2011-04-24T07:33:23.0000000+00:00</time></trkpt><trkpt lat="22.31452" lon="103.765549"><ele>2779.0</ele><time>2011-04-24T07:33:28.0000000+00:00</time></trkpt><trkpt lat="22.31452" lon="103.765549"><ele>2779.1</ele><time>2011-04-24T07:33:33.0000000+00:00</time></trkpt><trkpt lat="22.314518" lon="103.765549"><ele>2779.0</ele><time>2011-04-24T07:33:38.0000000+00:00</time></trkpt><trkpt lat="22.31452" lon="103.765549"><ele>2779.0</ele><time>2011-04-24T07:33:43.0000000+00:00</time></trkpt><trkpt lat="22.314518" lon="103.765549"><ele>2779.0</ele><time>2011-04-24T07:33:48.0000000+00:00</time></trkpt><trkpt lat="22.31452" lon="103.765549"><ele>2779.2</ele><time>2011-04-24T07:33:53.0000000+00:00</time></trkpt><trkpt lat="22.314518" lon="103.765549"><ele>2779.3</ele><time>2011-04-24T07:33:58.0000000+00:00</time></trkpt><trkpt lat="22.314518" lon="103.765549"><ele>2779.4</ele><time>2011-04-24T07:34:03.0000000+00:00</time></trkpt><trkpt lat="22.31452" lon="103.765556"><ele>2779.8</ele><time>2011-04-24T07:34:08.0000000+00:00</time></trkpt><trkpt lat="22.314522" lon="103.765556"><ele>2779.9</ele><time>2011-04-24T07:34:13.0000000+00:00</time></trkpt><trkpt lat="22.31452" lon="103.765556"><ele>2780.0</ele><time>2011-04-24T07:34:18.0000000+00:00</time></trkpt><trkpt lat="22.314526" lon="103.765556"><ele>2780.0</ele><time>2011-04-24T07:34:23.0000000+00:00</time></trkpt><trkpt lat="22.314528" lon="103.765556"><ele>2780.0</ele><time>2011-04-24T07:34:28.0000000+00:00</time></trkpt><trkpt lat="22.314526" lon="103.765549"><ele>2780.0</ele><time>2011-04-24T07:34:33.0000000+00:00</time></trkpt><trkpt lat="22.314514" lon="103.765511"><ele>2780.3</ele><time>2011-04-24T07:34:38.0000000+00:00</time></trkpt><trkpt lat="22.314524" lon="103.765526"><ele>2780.5</ele><time>2011-04-24T07:34:43.0000000+00:00</time></trkpt><trkpt lat="22.314531" lon="103.765526"><ele>2780.5</ele><time>2011-04-24T07:34:48.0000000+00:00</time></trkpt><trkpt lat="22.314554" lon="103.765541"><ele>2780.7</ele><time>2011-04-24T07:34:53.0000000+00:00</time></trkpt><trkpt lat="22.314564" lon="103.765541"><ele>2780.8</ele><time>2011-04-24T07:34:58.0000000+00:00</time></trkpt><trkpt lat="22.31456" lon="103.765549"><ele>2780.8</ele><time>2011-04-24T07:35:03.0000000+00:00</time></trkpt><trkpt lat="22.314564" lon="103.765541"><ele>2780.9</ele><time>2011-04-24T07:35:08.0000000+00:00</time></trkpt><trkpt lat="22.314566" lon="103.765533"><ele>2781.1</ele><time>2011-04-24T07:35:13.0000000+00:00</time></trkpt><trkpt lat="22.314589" lon="103.765541"><ele>2781.3</ele><time>2011-04-24T07:35:18.0000000+00:00</time></trkpt><trkpt lat="22.314594" lon="103.765541"><ele>2781.5</ele><time>2011-04-24T07:35:23.0000000+00:00</time></trkpt><trkpt lat="22.314583" lon="103.765549"><ele>2781.7</ele><time>2011-04-24T07:35:28.0000000+00:00</time></trkpt><trkpt lat="22.314541" lon="103.765572"><ele>2782.3</ele><time>2011-04-24T07:35:33.0000000+00:00</time></trkpt><trkpt lat="22.31451" lon="103.765556"><ele>2782.5</ele><time>2011-04-24T07:35:38.0000000+00:00</time></trkpt><trkpt lat="22.31452" lon="103.765533"><ele>2782.8</ele><time>2011-04-24T07:35:43.0000000+00:00</time></trkpt><trkpt lat="22.314518" lon="103.765533"><ele>2783.1</ele><time>2011-04-24T07:35:48.0000000+00:00</time></trkpt><trkpt lat="22.314531" lon="103.765579"><ele>2783.3</ele><time>2011-04-24T07:35:53.0000000+00:00</time></trkpt><trkpt lat="22.314539" lon="103.765587"><ele>2783.5</ele><time>2011-04-24T07:35:58.0000000+00:00</time></trkpt><trkpt lat="22.314528" lon="103.765549"><ele>2783.7</ele><time>2011-04-24T07:36:03.0000000+00:00</time></trkpt><trkpt lat="22.31452" lon="103.765533"><ele>2783.8</ele><time>2011-04-24T07:36:08.0000000+00:00</time></trkpt><trkpt lat="22.314524" lon="103.765518"><ele>2784.4</ele><time>2011-04-24T07:36:13.0000000+00:00</time></trkpt><trkpt lat="22.314522" lon="103.765518"><ele>2784.5</ele><time>2011-04-24T07:36:18.0000000+00:00</time></trkpt><trkpt lat="22.314524" lon="103.765518"><ele>2784.5</ele><time>2011-04-24T07:36:23.0000000+00:00</time></trkpt><trkpt lat="22.314528" lon="103.765526"><ele>2784.5</ele><time>2011-04-24T07:36:28.0000000+00:00</time></trkpt><trkpt lat="22.314529" lon="103.765533"><ele>2784.5</ele><time>2011-04-24T07:36:33.0000000+00:00</time></trkpt><trkpt lat="22.314531" lon="103.765556"><ele>2787.4</ele><time>2011-04-24T07:36:38.0000000+00:00</time></trkpt><trkpt lat="22.314537" lon="103.765556"><ele>2788.0</ele><time>2011-04-24T07:36:43.0000000+00:00</time></trkpt><trkpt lat="22.314537" lon="103.765556"><ele>2788.0</ele><time>2011-04-24T07:36:48.0000000+00:00</time></trkpt><trkpt lat="22.314535" lon="103.765549"><ele>2788.0</ele><time>2011-04-24T07:36:53.0000000+00:00</time></trkpt><trkpt lat="22.314535" lon="103.765549"><ele>2788.0</ele><time>2011-04-24T07:36:58.0000000+00:00</time></trkpt><trkpt lat="22.314533" lon="103.765549"><ele>2788.1</ele><time>2011-04-24T07:37:03.0000000+00:00</time></trkpt><trkpt lat="22.314531" lon="103.765549"><ele>2788.1</ele><time>2011-04-24T07:37:08.0000000+00:00</time></trkpt><trkpt lat="22.314531" lon="103.765549"><ele>2788.3</ele><time>2011-04-24T07:37:13.0000000+00:00</time></trkpt><trkpt lat="22.314531" lon="103.765556"><ele>2788.3</ele><time>2011-04-24T07:37:18.0000000+00:00</time></trkpt><trkpt lat="22.314531" lon="103.765556"><ele>2788.3</ele><time>2011-04-24T07:37:23.0000000+00:00</time></trkpt><trkpt lat="22.314531" lon="103.765549"><ele>2788.3</ele><time>2011-04-24T07:37:28.0000000+00:00</time></trkpt><trkpt lat="22.314529" lon="103.765541"><ele>2788.3</ele><time>2011-04-24T07:37:33.0000000+00:00</time></trkpt><trkpt lat="22.314531" lon="103.765533"><ele>2788.3</ele><time>2011-04-24T07:37:38.0000000+00:00</time></trkpt><trkpt lat="22.314571" lon="103.765602"><ele>2787.1</ele><time>2011-04-24T07:37:43.0000000+00:00</time></trkpt><trkpt lat="22.314583" lon="103.765602"><ele>2787.9</ele><time>2011-04-24T07:37:48.0000000+00:00</time></trkpt><trkpt lat="22.314581" lon="103.765602"><ele>2788.0</ele><time>2011-04-24T07:37:53.0000000+00:00</time></trkpt><trkpt lat="22.314581" lon="103.76561"><ele>2788.1</ele><time>2011-04-24T07:37:58.0000000+00:00</time></trkpt><trkpt lat="22.314585" lon="103.76561"><ele>2788.2</ele><time>2011-04-24T07:38:03.0000000+00:00</time></trkpt><trkpt lat="22.314589" lon="103.76561"><ele>2788.2</ele><time>2011-04-24T07:38:08.0000000+00:00</time></trkpt><trkpt lat="22.31459" lon="103.76561"><ele>2788.2</ele><time>2011-04-24T07:38:13.0000000+00:00</time></trkpt><trkpt lat="22.31459" lon="103.765617"><ele>2788.2</ele><time>2011-04-24T07:38:18.0000000+00:00</time></trkpt><trkpt lat="22.31459" lon="103.765617"><ele>2788.2</ele><time>2011-04-24T07:38:23.0000000+00:00</time></trkpt><trkpt lat="22.314592" lon="103.765625"><ele>2788.1</ele><time>2011-04-24T07:38:28.0000000+00:00</time></trkpt><trkpt lat="22.314594" lon="103.765625"><ele>2788.1</ele><time>2011-04-24T07:38:33.0000000+00:00</time></trkpt><trkpt lat="22.314598" lon="103.765633"><ele>2788.1</ele><time>2011-04-24T07:38:38.0000000+00:00</time></trkpt><trkpt lat="22.314596" lon="103.765633"><ele>2788.1</ele><time>2011-04-24T07:38:43.0000000+00:00</time></trkpt><trkpt lat="22.314598" lon="103.765625"><ele>2788.1</ele><time>2011-04-24T07:38:48.0000000+00:00</time></trkpt><trkpt lat="22.314598" lon="103.765633"><ele>2788.0</ele><time>2011-04-24T07:38:53.0000000+00:00</time></trkpt><trkpt lat="22.314608" lon="103.765617"><ele>2788.8</ele><time>2011-04-24T07:38:58.0000000+00:00</time></trkpt><trkpt lat="22.314613" lon="103.765617"><ele>2789.0</ele><time>2011-04-24T07:39:03.0000000+00:00</time></trkpt><trkpt lat="22.314621" lon="103.765625"><ele>2788.4</ele><time>2011-04-24T07:39:08.0000000+00:00</time></trkpt><trkpt lat="22.314623" lon="103.765625"><ele>2789.0</ele><time>2011-04-24T07:39:13.0000000+00:00</time></trkpt><trkpt lat="22.314619" lon="103.76564"><ele>2788.9</ele><time>2011-04-24T07:39:18.0000000+00:00</time></trkpt><trkpt lat="22.314619" lon="103.765656"><ele>2788.5</ele><time>2011-04-24T07:39:23.0000000+00:00</time></trkpt><trkpt lat="22.314613" lon="103.765663"><ele>2789.0</ele><time>2011-04-24T07:39:28.0000000+00:00</time></trkpt><trkpt lat="22.314615" lon="103.765671"><ele>2789.0</ele><time>2011-04-24T07:39:33.0000000+00:00</time></trkpt><trkpt lat="22.314625" lon="103.765678"><ele>2788.9</ele><time>2011-04-24T07:39:38.0000000+00:00</time></trkpt><trkpt lat="22.314627" lon="103.765671"><ele>2789.1</ele><time>2011-04-24T07:39:43.0000000+00:00</time></trkpt><trkpt lat="22.314629" lon="103.765663"><ele>2789.3</ele><time>2011-04-24T07:39:48.0000000+00:00</time></trkpt><trkpt lat="22.314629" lon="103.765663"><ele>2789.5</ele><time>2011-04-24T07:39:53.0000000+00:00</time></trkpt><trkpt lat="22.314632" lon="103.765663"><ele>2789.5</ele><time>2011-04-24T07:39:58.0000000+00:00</time></trkpt><trkpt lat="22.314636" lon="103.765663"><ele>2789.7</ele><time>2011-04-24T07:40:03.0000000+00:00</time></trkpt><trkpt lat="22.314636" lon="103.765663"><ele>2789.8</ele><time>2011-04-24T07:40:08.0000000+00:00</time></trkpt><trkpt lat="22.314636" lon="103.765663"><ele>2789.8</ele><time>2011-04-24T07:40:13.0000000+00:00</time></trkpt><trkpt lat="22.314636" lon="103.765663"><ele>2789.8</ele><time>2011-04-24T07:40:18.0000000+00:00</time></trkpt><trkpt lat="22.314636" lon="103.765663"><ele>2789.8</ele><time>2011-04-24T07:40:23.0000000+00:00</time></trkpt><trkpt lat="22.314636" lon="103.765663"><ele>2789.8</ele><time>2011-04-24T07:40:28.0000000+00:00</time></trkpt><trkpt lat="22.314636" lon="103.765663"><ele>2789.8</ele><time>2011-04-24T07:40:33.0000000+00:00</time></trkpt><trkpt lat="22.314636" lon="103.765663"><ele>2789.8</ele><time>2011-04-24T07:40:38.0000000+00:00</time></trkpt><trkpt lat="22.314636" lon="103.765663"><ele>2789.8</ele><time>2011-04-24T07:40:43.0000000+00:00</time></trkpt><trkpt lat="22.314638" lon="103.765663"><ele>2789.6</ele><time>2011-04-24T07:40:48.0000000+00:00</time></trkpt><trkpt lat="22.314623" lon="103.765671"><ele>2788.9</ele><time>2011-04-24T07:40:53.0000000+00:00</time></trkpt><trkpt lat="22.314619" lon="103.765671"><ele>2789.2</ele><time>2011-04-24T07:40:58.0000000+00:00</time></trkpt><trkpt lat="22.314619" lon="103.765671"><ele>2789.3</ele><time>2011-04-24T07:41:03.0000000+00:00</time></trkpt><trkpt lat="22.314619" lon="103.765671"><ele>2789.3</ele><time>2011-04-24T07:41:08.0000000+00:00</time></trkpt><trkpt lat="22.314619" lon="103.765671"><ele>2789.4</ele><time>2011-04-24T07:41:13.0000000+00:00</time></trkpt><trkpt lat="22.314606" lon="103.765678"><ele>2789.8</ele><time>2011-04-24T07:41:18.0000000+00:00</time></trkpt><trkpt lat="22.3146" lon="103.765663"><ele>2790.3</ele><time>2011-04-24T07:41:23.0000000+00:00</time></trkpt><trkpt lat="22.3146" lon="103.765656"><ele>2790.5</ele><time>2011-04-24T07:41:28.0000000+00:00</time></trkpt><trkpt lat="22.314604" lon="103.76564"><ele>2790.8</ele><time>2011-04-24T07:41:33.0000000+00:00</time></trkpt><trkpt lat="22.314615" lon="103.765625"><ele>2791.1</ele><time>2011-04-24T07:41:38.0000000+00:00</time></trkpt><trkpt lat="22.314629" lon="103.765648"><ele>2791.2</ele><time>2011-04-24T07:41:43.0000000+00:00</time></trkpt><trkpt lat="22.314632" lon="103.765656"><ele>2791.3</ele><time>2011-04-24T07:41:48.0000000+00:00</time></trkpt><trkpt lat="22.314644" lon="103.76564"><ele>2791.4</ele><time>2011-04-24T07:41:53.0000000+00:00</time></trkpt><trkpt lat="22.314665" lon="103.765625"><ele>2790.6</ele><time>2011-04-24T07:41:58.0000000+00:00</time></trkpt><trkpt lat="22.314692" lon="103.765625"><ele>2790.4</ele><time>2011-04-24T07:42:03.0000000+00:00</time></trkpt><trkpt lat="22.314739" lon="103.765625"><ele>2790.5</ele><time>2011-04-24T07:42:08.0000000+00:00</time></trkpt><trkpt lat="22.314772" lon="103.765594"><ele>2791.0</ele><time>2011-04-24T07:42:13.0000000+00:00</time></trkpt><trkpt lat="22.314806" lon="103.765587"><ele>2791.0</ele><time>2011-04-24T07:42:18.0000000+00:00</time></trkpt><trkpt lat="22.314842" lon="103.765564"><ele>2789.8</ele><time>2011-04-24T07:42:23.0000000+00:00</time></trkpt><trkpt lat="22.314871" lon="103.765526"><ele>2789.9</ele><time>2011-04-24T07:42:28.0000000+00:00</time></trkpt><trkpt lat="22.314919" lon="103.765533"><ele>2790.2</ele><time>2011-04-24T07:42:33.0000000+00:00</time></trkpt><trkpt lat="22.314962" lon="103.765587"><ele>2790.3</ele><time>2011-04-24T07:42:38.0000000+00:00</time></trkpt><trkpt lat="22.315006" lon="103.765617"><ele>2791.2</ele><time>2011-04-24T07:42:43.0000000+00:00</time></trkpt><trkpt lat="22.315033" lon="103.765686"><ele>2791.9</ele><time>2011-04-24T07:42:48.0000000+00:00</time></trkpt><trkpt lat="22.315056" lon="103.765724"><ele>2792.5</ele><time>2011-04-24T07:42:53.0000000+00:00</time></trkpt><trkpt lat="22.315081" lon="103.76577"><ele>2793.5</ele><time>2011-04-24T07:42:58.0000000+00:00</time></trkpt><trkpt lat="22.315105" lon="103.7658"><ele>2794.4</ele><time>2011-04-24T07:43:03.0000000+00:00</time></trkpt><trkpt lat="22.315138" lon="103.765839"><ele>2794.7</ele><time>2011-04-24T07:43:08.0000000+00:00</time></trkpt><trkpt lat="22.315178" lon="103.765869"><ele>2794.3</ele><time>2011-04-24T07:43:13.0000000+00:00</time></trkpt><trkpt lat="22.315207" lon="103.765945"><ele>2794.0</ele><time>2011-04-24T07:43:18.0000000+00:00</time></trkpt><trkpt lat="22.315239" lon="103.765999"><ele>2794.7</ele><time>2011-04-24T07:43:23.0000000+00:00</time></trkpt><trkpt lat="22.315275" lon="103.766022"><ele>2795.0</ele><time>2011-04-24T07:43:28.0000000+00:00</time></trkpt><trkpt lat="22.315325" lon="103.766014"><ele>2794.3</ele><time>2011-04-24T07:43:33.0000000+00:00</time></trkpt><trkpt lat="22.315367" lon="103.765999"><ele>2793.7</ele><time>2011-04-24T07:43:38.0000000+00:00</time></trkpt><trkpt lat="22.315393" lon="103.765976"><ele>2793.2</ele><time>2011-04-24T07:43:43.0000000+00:00</time></trkpt><trkpt lat="22.315439" lon="103.76593"><ele>2792.9</ele><time>2011-04-24T07:43:48.0000000+00:00</time></trkpt><trkpt lat="22.315456" lon="103.765877"><ele>2792.5</ele><time>2011-04-24T07:43:53.0000000+00:00</time></trkpt><trkpt lat="22.315485" lon="103.765831"><ele>2792.4</ele><time>2011-04-24T07:43:58.0000000+00:00</time></trkpt><trkpt lat="22.315533" lon="103.7658"><ele>2792.0</ele><time>2011-04-24T07:44:03.0000000+00:00</time></trkpt><trkpt lat="22.315565" lon="103.765732"><ele>2792.3</ele><time>2011-04-24T07:44:08.0000000+00:00</time></trkpt><trkpt lat="22.31559" lon="103.765709"><ele>2792.0</ele><time>2011-04-24T07:44:13.0000000+00:00</time></trkpt><trkpt lat="22.315617" lon="103.765709"><ele>2791.5</ele><time>2011-04-24T07:44:18.0000000+00:00</time></trkpt><trkpt lat="22.315668" lon="103.765739"><ele>2791.3</ele><time>2011-04-24T07:44:23.0000000+00:00</time></trkpt><trkpt lat="22.31571" lon="103.76577"><ele>2790.8</ele><time>2011-04-24T07:44:28.0000000+00:00</time></trkpt><trkpt lat="22.315744" lon="103.765793"><ele>2791.0</ele><time>2011-04-24T07:44:33.0000000+00:00</time></trkpt><trkpt lat="22.315775" lon="103.765839"><ele>2791.0</ele><time>2011-04-24T07:44:38.0000000+00:00</time></trkpt><trkpt lat="22.315811" lon="103.765869"><ele>2791.4</ele><time>2011-04-24T07:44:43.0000000+00:00</time></trkpt><trkpt lat="22.315855" lon="103.765854"><ele>2790.9</ele><time>2011-04-24T07:44:48.0000000+00:00</time></trkpt><trkpt lat="22.315905" lon="103.765854"><ele>2789.8</ele><time>2011-04-24T07:44:53.0000000+00:00</time></trkpt><trkpt lat="22.315926" lon="103.765869"><ele>2790.5</ele><time>2011-04-24T07:44:58.0000000+00:00</time></trkpt><trkpt lat="22.315964" lon="103.765892"><ele>2791.0</ele><time>2011-04-24T07:45:03.0000000+00:00</time></trkpt><trkpt lat="22.315996" lon="103.765923"><ele>2792.2</ele><time>2011-04-24T07:45:08.0000000+00:00</time></trkpt><trkpt lat="22.316019" lon="103.765953"><ele>2793.0</ele><time>2011-04-24T07:45:13.0000000+00:00</time></trkpt><trkpt lat="22.316031" lon="103.765984"><ele>2793.4</ele><time>2011-04-24T07:45:18.0000000+00:00</time></trkpt><trkpt lat="22.316071" lon="103.766022"><ele>2793.8</ele><time>2011-04-24T07:45:23.0000000+00:00</time></trkpt><trkpt lat="22.316086" lon="103.766037"><ele>2794.0</ele><time>2011-04-24T07:45:28.0000000+00:00</time></trkpt><trkpt lat="22.316103" lon="103.766068"><ele>2795.0</ele><time>2011-04-24T07:45:33.0000000+00:00</time></trkpt><trkpt lat="22.316107" lon="103.766113"><ele>2795.0</ele><time>2011-04-24T07:45:38.0000000+00:00</time></trkpt><trkpt lat="22.316128" lon="103.766113"><ele>2795.9</ele><time>2011-04-24T07:45:43.0000000+00:00</time></trkpt><trkpt lat="22.31617" lon="103.766159"><ele>2796.3</ele><time>2011-04-24T07:45:48.0000000+00:00</time></trkpt><trkpt lat="22.31621" lon="103.766174"><ele>2796.2</ele><time>2011-04-24T07:45:53.0000000+00:00</time></trkpt><trkpt lat="22.31625" lon="103.766197"><ele>2796.8</ele><time>2011-04-24T07:45:58.0000000+00:00</time></trkpt><trkpt lat="22.316305" lon="103.766228"><ele>2798.7</ele><time>2011-04-24T07:46:03.0000000+00:00</time></trkpt><trkpt lat="22.316338" lon="103.766273"><ele>2800.8</ele><time>2011-04-24T07:46:08.0000000+00:00</time></trkpt><trkpt lat="22.316368" lon="103.766296"><ele>2801.5</ele><time>2011-04-24T07:46:13.0000000+00:00</time></trkpt><trkpt lat="22.316389" lon="103.766342"><ele>2802.1</ele><time>2011-04-24T07:46:18.0000000+00:00</time></trkpt><trkpt lat="22.316414" lon="103.76638"><ele>2802.9</ele><time>2011-04-24T07:46:23.0000000+00:00</time></trkpt><trkpt lat="22.316441" lon="103.766441"><ele>2803.6</ele><time>2011-04-24T07:46:28.0000000+00:00</time></trkpt><trkpt lat="22.316465" lon="103.766487"><ele>2804.7</ele><time>2011-04-24T07:46:33.0000000+00:00</time></trkpt><trkpt lat="22.316475" lon="103.766502"><ele>2805.8</ele><time>2011-04-24T07:46:38.0000000+00:00</time></trkpt><trkpt lat="22.316477" lon="103.766525"><ele>2806.8</ele><time>2011-04-24T07:46:43.0000000+00:00</time></trkpt><trkpt lat="22.316494" lon="103.766533"><ele>2807.0</ele><time>2011-04-24T07:46:48.0000000+00:00</time></trkpt><trkpt lat="22.316502" lon="103.766548"><ele>2807.0</ele><time>2011-04-24T07:46:53.0000000+00:00</time></trkpt><trkpt lat="22.316496" lon="103.766556"><ele>2807.3</ele><time>2011-04-24T07:46:58.0000000+00:00</time></trkpt><trkpt lat="22.316536" lon="103.766541"><ele>2807.0</ele><time>2011-04-24T07:47:03.0000000+00:00</time></trkpt><trkpt lat="22.316545" lon="103.766571"><ele>2807.4</ele><time>2011-04-24T07:47:08.0000000+00:00</time></trkpt><trkpt lat="22.316584" lon="103.766541"><ele>2806.3</ele><time>2011-04-24T07:47:13.0000000+00:00</time></trkpt><trkpt lat="22.316597" lon="103.766533"><ele>2806.5</ele><time>2011-04-24T07:47:18.0000000+00:00</time></trkpt><trkpt lat="22.316603" lon="103.766518"><ele>2806.7</ele><time>2011-04-24T07:47:23.0000000+00:00</time></trkpt><trkpt lat="22.316618" lon="103.76651"><ele>2806.8</ele><time>2011-04-24T07:47:28.0000000+00:00</time></trkpt><trkpt lat="22.316645" lon="103.766487"><ele>2806.5</ele><time>2011-04-24T07:47:33.0000000+00:00</time></trkpt><trkpt lat="22.316664" lon="103.766472"><ele>2806.4</ele><time>2011-04-24T07:47:38.0000000+00:00</time></trkpt><trkpt lat="22.316704" lon="103.766479"><ele>2806.4</ele><time>2011-04-24T07:47:43.0000000+00:00</time></trkpt><trkpt lat="22.31674" lon="103.766487"><ele>2806.7</ele><time>2011-04-24T07:47:48.0000000+00:00</time></trkpt><trkpt lat="22.316797" lon="103.766472"><ele>2807.2</ele><time>2011-04-24T07:47:53.0000000+00:00</time></trkpt><trkpt lat="22.316837" lon="103.766495"><ele>2807.4</ele><time>2011-04-24T07:47:58.0000000+00:00</time></trkpt><trkpt lat="22.316879" lon="103.766533"><ele>2809.2</ele><time>2011-04-24T07:48:03.0000000+00:00</time></trkpt><trkpt lat="22.3169" lon="103.766563"><ele>2810.0</ele><time>2011-04-24T07:48:08.0000000+00:00</time></trkpt><trkpt lat="22.316914" lon="103.766602"><ele>2809.1</ele><time>2011-04-24T07:48:13.0000000+00:00</time></trkpt><trkpt lat="22.316916" lon="103.766617"><ele>2809.1</ele><time>2011-04-24T07:48:18.0000000+00:00</time></trkpt><trkpt lat="22.316908" lon="103.766617"><ele>2808.5</ele><time>2011-04-24T07:48:23.0000000+00:00</time></trkpt><trkpt lat="22.316912" lon="103.766617"><ele>2808.5</ele><time>2011-04-24T07:48:28.0000000+00:00</time></trkpt><trkpt lat="22.316916" lon="103.766617"><ele>2808.5</ele><time>2011-04-24T07:48:33.0000000+00:00</time></trkpt><trkpt lat="22.316919" lon="103.766632"><ele>2807.8</ele><time>2011-04-24T07:48:38.0000000+00:00</time></trkpt><trkpt lat="22.316931" lon="103.766647"><ele>2806.8</ele><time>2011-04-24T07:48:43.0000000+00:00</time></trkpt><trkpt lat="22.316952" lon="103.766655"><ele>2806.9</ele><time>2011-04-24T07:48:48.0000000+00:00</time></trkpt><trkpt lat="22.316967" lon="103.76667"><ele>2806.7</ele><time>2011-04-24T07:48:53.0000000+00:00</time></trkpt><trkpt lat="22.316961" lon="103.766685"><ele>2806.0</ele><time>2011-04-24T07:48:58.0000000+00:00</time></trkpt><trkpt lat="22.316963" lon="103.766693"><ele>2805.9</ele><time>2011-04-24T07:49:03.0000000+00:00</time></trkpt><trkpt lat="22.316971" lon="103.766693"><ele>2805.8</ele><time>2011-04-24T07:49:08.0000000+00:00</time></trkpt><trkpt lat="22.316975" lon="103.766693"><ele>2805.6</ele><time>2011-04-24T07:49:13.0000000+00:00</time></trkpt><trkpt lat="22.317022" lon="103.766724"><ele>2805.8</ele><time>2011-04-24T07:49:18.0000000+00:00</time></trkpt><trkpt lat="22.317072" lon="103.766754"><ele>2805.3</ele><time>2011-04-24T07:49:23.0000000+00:00</time></trkpt><trkpt lat="22.317108" lon="103.766747"><ele>2805.3</ele><time>2011-04-24T07:49:28.0000000+00:00</time></trkpt><trkpt lat="22.317139" lon="103.766739"><ele>2804.4</ele><time>2011-04-24T07:49:33.0000000+00:00</time></trkpt><trkpt lat="22.317171" lon="103.766762"><ele>2804.3</ele><time>2011-04-24T07:49:38.0000000+00:00</time></trkpt><trkpt lat="22.317211" lon="103.766792"><ele>2803.8</ele><time>2011-04-24T07:49:43.0000000+00:00</time></trkpt><trkpt lat="22.317244" lon="103.7668"><ele>2803.5</ele><time>2011-04-24T07:49:48.0000000+00:00</time></trkpt><trkpt lat="22.317259" lon="103.766823"><ele>2802.6</ele><time>2011-04-24T07:49:53.0000000+00:00</time></trkpt><trkpt lat="22.317286" lon="103.766815"><ele>2801.9</ele><time>2011-04-24T07:49:58.0000000+00:00</time></trkpt><trkpt lat="22.317295" lon="103.76683"><ele>2800.3</ele><time>2011-04-24T07:50:03.0000000+00:00</time></trkpt><trkpt lat="22.31732" lon="103.766838"><ele>2800.0</ele><time>2011-04-24T07:50:08.0000000+00:00</time></trkpt><trkpt lat="22.317347" lon="103.766876"><ele>2798.8</ele><time>2011-04-24T07:50:13.0000000+00:00</time></trkpt><trkpt lat="22.317383" lon="103.766876"><ele>2797.9</ele><time>2011-04-24T07:50:18.0000000+00:00</time></trkpt><trkpt lat="22.31739" lon="103.766884"><ele>2797.3</ele><time>2011-04-24T07:50:23.0000000+00:00</time></trkpt><trkpt lat="22.317392" lon="103.766891"><ele>2797.3</ele><time>2011-04-24T07:50:28.0000000+00:00</time></trkpt><trkpt lat="22.317394" lon="103.766891"><ele>2796.8</ele><time>2011-04-24T07:50:33.0000000+00:00</time></trkpt><trkpt lat="22.317408" lon="103.766884"><ele>2796.1</ele><time>2011-04-24T07:50:38.0000000+00:00</time></trkpt><trkpt lat="22.317421" lon="103.766876"><ele>2793.7</ele><time>2011-04-24T07:50:43.0000000+00:00</time></trkpt><trkpt lat="22.317425" lon="103.766861"><ele>2792.9</ele><time>2011-04-24T07:50:48.0000000+00:00</time></trkpt><trkpt lat="22.317461" lon="103.766891"><ele>2790.6</ele><time>2011-04-24T07:50:53.0000000+00:00</time></trkpt><trkpt lat="22.317503" lon="103.766907"><ele>2788.5</ele><time>2011-04-24T07:50:58.0000000+00:00</time></trkpt><trkpt lat="22.317509" lon="103.766937"><ele>2784.8</ele><time>2011-04-24T07:51:03.0000000+00:00</time></trkpt><trkpt lat="22.317549" lon="103.766937"><ele>2782.4</ele><time>2011-04-24T07:51:08.0000000+00:00</time></trkpt><trkpt lat="22.317556" lon="103.766953"><ele>2779.9</ele><time>2011-04-24T07:51:13.0000000+00:00</time></trkpt><trkpt lat="22.317554" lon="103.766968"><ele>2779.3</ele><time>2011-04-24T07:51:18.0000000+00:00</time></trkpt><trkpt lat="22.31756" lon="103.766991"><ele>2776.9</ele><time>2011-04-24T07:51:23.0000000+00:00</time></trkpt><trkpt lat="22.317564" lon="103.766983"><ele>2775.7</ele><time>2011-04-24T07:51:28.0000000+00:00</time></trkpt><trkpt lat="22.317572" lon="103.766983"><ele>2775.5</ele><time>2011-04-24T07:51:33.0000000+00:00</time></trkpt><trkpt lat="22.317581" lon="103.766975"><ele>2775.0</ele><time>2011-04-24T07:51:38.0000000+00:00</time></trkpt><trkpt lat="22.317583" lon="103.766975"><ele>2773.8</ele><time>2011-04-24T07:51:43.0000000+00:00</time></trkpt><trkpt lat="22.317583" lon="103.766991"><ele>2772.3</ele><time>2011-04-24T07:51:48.0000000+00:00</time></trkpt><trkpt lat="22.317593" lon="103.766983"><ele>2771.7</ele><time>2011-04-24T07:51:53.0000000+00:00</time></trkpt><trkpt lat="22.317612" lon="103.766998"><ele>2770.4</ele><time>2011-04-24T07:51:58.0000000+00:00</time></trkpt><trkpt lat="22.317623" lon="103.766998"><ele>2769.8</ele><time>2011-04-24T07:52:03.0000000+00:00</time></trkpt><trkpt lat="22.317631" lon="103.766998"><ele>2769.0</ele><time>2011-04-24T07:52:08.0000000+00:00</time></trkpt><trkpt lat="22.317642" lon="103.767014"><ele>2768.8</ele><time>2011-04-24T07:52:13.0000000+00:00</time></trkpt><trkpt lat="22.317663" lon="103.767014"><ele>2768.3</ele><time>2011-04-24T07:52:18.0000000+00:00</time></trkpt><trkpt lat="22.317684" lon="103.767014"><ele>2767.5</ele><time>2011-04-24T07:52:23.0000000+00:00</time></trkpt><trkpt lat="22.31773" lon="103.766998"><ele>2766.3</ele><time>2011-04-24T07:52:28.0000000+00:00</time></trkpt><trkpt lat="22.317739" lon="103.767014"><ele>2765.0</ele><time>2011-04-24T07:52:33.0000000+00:00</time></trkpt><trkpt lat="22.317739" lon="103.767014"><ele>2764.8</ele><time>2011-04-24T07:52:38.0000000+00:00</time></trkpt><trkpt lat="22.317749" lon="103.767021"><ele>2765.0</ele><time>2011-04-24T07:52:43.0000000+00:00</time></trkpt><trkpt lat="22.317747" lon="103.767036"><ele>2762.9</ele><time>2011-04-24T07:52:48.0000000+00:00</time></trkpt><trkpt lat="22.31776" lon="103.767044"><ele>2761.8</ele><time>2011-04-24T07:52:53.0000000+00:00</time></trkpt><trkpt lat="22.317804" lon="103.767052"><ele>2760.5</ele><time>2011-04-24T07:52:58.0000000+00:00</time></trkpt><trkpt lat="22.317858" lon="103.767059"><ele>2758.0</ele><time>2011-04-24T07:53:03.0000000+00:00</time></trkpt><trkpt lat="22.317894" lon="103.767067"><ele>2756.0</ele><time>2011-04-24T07:53:08.0000000+00:00</time></trkpt><trkpt lat="22.317928" lon="103.767075"><ele>2754.9</ele><time>2011-04-24T07:53:13.0000000+00:00</time></trkpt><trkpt lat="22.317949" lon="103.76709"><ele>2753.4</ele><time>2011-04-24T07:53:18.0000000+00:00</time></trkpt><trkpt lat="22.317972" lon="103.76709"><ele>2751.5</ele><time>2011-04-24T07:53:23.0000000+00:00</time></trkpt><trkpt lat="22.31798" lon="103.767097"><ele>2750.2</ele><time>2011-04-24T07:53:28.0000000+00:00</time></trkpt><trkpt lat="22.318005" lon="103.767097"><ele>2749.4</ele><time>2011-04-24T07:53:33.0000000+00:00</time></trkpt><trkpt lat="22.318031" lon="103.767105"><ele>2748.0</ele><time>2011-04-24T07:53:38.0000000+00:00</time></trkpt><trkpt lat="22.31805" lon="103.76712"><ele>2748.0</ele><time>2011-04-24T07:53:43.0000000+00:00</time></trkpt><trkpt lat="22.318087" lon="103.767136"><ele>2747.5</ele><time>2011-04-24T07:53:48.0000000+00:00</time></trkpt><trkpt lat="22.318115" lon="103.767143"><ele>2746.3</ele><time>2011-04-24T07:53:53.0000000+00:00</time></trkpt><trkpt lat="22.318136" lon="103.767159"><ele>2745.4</ele><time>2011-04-24T07:53:58.0000000+00:00</time></trkpt><trkpt lat="22.318144" lon="103.767143"><ele>2746.2</ele><time>2011-04-24T07:54:03.0000000+00:00</time></trkpt><trkpt lat="22.318161" lon="103.767159"><ele>2746.2</ele><time>2011-04-24T07:54:08.0000000+00:00</time></trkpt><trkpt lat="22.318157" lon="103.767166"><ele>2745.8</ele><time>2011-04-24T07:54:13.0000000+00:00</time></trkpt><trkpt lat="22.318176" lon="103.767159"><ele>2745.6</ele><time>2011-04-24T07:54:18.0000000+00:00</time></trkpt><trkpt lat="22.31818" lon="103.767159"><ele>2745.5</ele><time>2011-04-24T07:54:23.0000000+00:00</time></trkpt><trkpt lat="22.31818" lon="103.767159"><ele>2745.5</ele><time>2011-04-24T07:54:28.0000000+00:00</time></trkpt><trkpt lat="22.318182" lon="103.767159"><ele>2745.5</ele><time>2011-04-24T07:54:33.0000000+00:00</time></trkpt><trkpt lat="22.318188" lon="103.767151"><ele>2745.0</ele><time>2011-04-24T07:54:38.0000000+00:00</time></trkpt><trkpt lat="22.318207" lon="103.767151"><ele>2744.1</ele><time>2011-04-24T07:54:43.0000000+00:00</time></trkpt><trkpt lat="22.318224" lon="103.767143"><ele>2743.5</ele><time>2011-04-24T07:54:48.0000000+00:00</time></trkpt><trkpt lat="22.318228" lon="103.767136"><ele>2742.8</ele><time>2011-04-24T07:54:53.0000000+00:00</time></trkpt><trkpt lat="22.318268" lon="103.767113"><ele>2741.4</ele><time>2011-04-24T07:54:58.0000000+00:00</time></trkpt><trkpt lat="22.318319" lon="103.76712"><ele>2740.5</ele><time>2011-04-24T07:55:03.0000000+00:00</time></trkpt><trkpt lat="22.31835" lon="103.76712"><ele>2738.7</ele><time>2011-04-24T07:55:08.0000000+00:00</time></trkpt><trkpt lat="22.318373" lon="103.767151"><ele>2736.5</ele><time>2011-04-24T07:55:13.0000000+00:00</time></trkpt><trkpt lat="22.318371" lon="103.767166"><ele>2736.5</ele><time>2011-04-24T07:55:18.0000000+00:00</time></trkpt><trkpt lat="22.318373" lon="103.767174"><ele>2736.3</ele><time>2011-04-24T07:55:23.0000000+00:00</time></trkpt><trkpt lat="22.318377" lon="103.767174"><ele>2736.2</ele><time>2011-04-24T07:55:28.0000000+00:00</time></trkpt><trkpt lat="22.31838" lon="103.767174"><ele>2735.9</ele><time>2011-04-24T07:55:33.0000000+00:00</time></trkpt><trkpt lat="22.318388" lon="103.767174"><ele>2735.6</ele><time>2011-04-24T07:55:38.0000000+00:00</time></trkpt><trkpt lat="22.318394" lon="103.767181"><ele>2735.3</ele><time>2011-04-24T07:55:43.0000000+00:00</time></trkpt><trkpt lat="22.318403" lon="103.767189"><ele>2734.9</ele><time>2011-04-24T07:55:48.0000000+00:00</time></trkpt><trkpt lat="22.318438" lon="103.767189"><ele>2734.2</ele><time>2011-04-24T07:55:53.0000000+00:00</time></trkpt><trkpt lat="22.318455" lon="103.767204"><ele>2733.8</ele><time>2011-04-24T07:55:58.0000000+00:00</time></trkpt><trkpt lat="22.31848" lon="103.767258"><ele>2733.2</ele><time>2011-04-24T07:56:03.0000000+00:00</time></trkpt><trkpt lat="22.318489" lon="103.767258"><ele>2733.1</ele><time>2011-04-24T07:56:08.0000000+00:00</time></trkpt><trkpt lat="22.318493" lon="103.767258"><ele>2732.5</ele><time>2011-04-24T07:56:13.0000000+00:00</time></trkpt><trkpt lat="22.31851" lon="103.767273"><ele>2731.8</ele><time>2011-04-24T07:56:18.0000000+00:00</time></trkpt><trkpt lat="22.318508" lon="103.767273"><ele>2731.6</ele><time>2011-04-24T07:56:23.0000000+00:00</time></trkpt><trkpt lat="22.318508" lon="103.767281"><ele>2731.0</ele><time>2011-04-24T07:56:28.0000000+00:00</time></trkpt><trkpt lat="22.318512" lon="103.767281"><ele>2730.6</ele><time>2011-04-24T07:56:33.0000000+00:00</time></trkpt><trkpt lat="22.318514" lon="103.767296"><ele>2730.1</ele><time>2011-04-24T07:56:38.0000000+00:00</time></trkpt><trkpt lat="22.318529" lon="103.767311"><ele>2729.7</ele><time>2011-04-24T07:56:43.0000000+00:00</time></trkpt><trkpt lat="22.318529" lon="103.767334"><ele>2728.2</ele><time>2011-04-24T07:56:48.0000000+00:00</time></trkpt><trkpt lat="22.318535" lon="103.767342"><ele>2727.7</ele><time>2011-04-24T07:56:53.0000000+00:00</time></trkpt><trkpt lat="22.318541" lon="103.767349"><ele>2727.1</ele><time>2011-04-24T07:56:58.0000000+00:00</time></trkpt><trkpt lat="22.318548" lon="103.767349"><ele>2726.5</ele><time>2011-04-24T07:57:03.0000000+00:00</time></trkpt><trkpt lat="22.318552" lon="103.767365"><ele>2726.0</ele><time>2011-04-24T07:57:08.0000000+00:00</time></trkpt><trkpt lat="22.318575" lon="103.76738"><ele>2725.2</ele><time>2011-04-24T07:57:13.0000000+00:00</time></trkpt><trkpt lat="22.318584" lon="103.767395"><ele>2723.2</ele><time>2011-04-24T07:57:18.0000000+00:00</time></trkpt><trkpt lat="22.318581" lon="103.767365"><ele>2721.2</ele><time>2011-04-24T07:57:23.0000000+00:00</time></trkpt><trkpt lat="22.318584" lon="103.767357"><ele>2720.4</ele><time>2011-04-24T07:57:28.0000000+00:00</time></trkpt><trkpt lat="22.318588" lon="103.767357"><ele>2719.7</ele><time>2011-04-24T07:57:33.0000000+00:00</time></trkpt><trkpt lat="22.318592" lon="103.767349"><ele>2718.8</ele><time>2011-04-24T07:57:38.0000000+00:00</time></trkpt><trkpt lat="22.318598" lon="103.767349"><ele>2718.0</ele><time>2011-04-24T07:57:43.0000000+00:00</time></trkpt><trkpt lat="22.318602" lon="103.767349"><ele>2717.2</ele><time>2011-04-24T07:57:48.0000000+00:00</time></trkpt><trkpt lat="22.318605" lon="103.767349"><ele>2716.3</ele><time>2011-04-24T07:57:53.0000000+00:00</time></trkpt><trkpt lat="22.318609" lon="103.767349"><ele>2715.5</ele><time>2011-04-24T07:57:58.0000000+00:00</time></trkpt><trkpt lat="22.318615" lon="103.767349"><ele>2714.6</ele><time>2011-04-24T07:58:03.0000000+00:00</time></trkpt><trkpt lat="22.318651" lon="103.76738"><ele>2713.6</ele><time>2011-04-24T07:58:08.0000000+00:00</time></trkpt><trkpt lat="22.318708" lon="103.767395"><ele>2709.9</ele><time>2011-04-24T07:58:13.0000000+00:00</time></trkpt><trkpt lat="22.318722" lon="103.767387"><ele>2709.3</ele><time>2011-04-24T07:58:18.0000000+00:00</time></trkpt><trkpt lat="22.318726" lon="103.767387"><ele>2706.8</ele><time>2011-04-24T07:58:23.0000000+00:00</time></trkpt><trkpt lat="22.318739" lon="103.767387"><ele>2705.9</ele><time>2011-04-24T07:58:28.0000000+00:00</time></trkpt><trkpt lat="22.318747" lon="103.76738"><ele>2704.9</ele><time>2011-04-24T07:58:33.0000000+00:00</time></trkpt><trkpt lat="22.318756" lon="103.76738"><ele>2704.1</ele><time>2011-04-24T07:58:38.0000000+00:00</time></trkpt><trkpt lat="22.31876" lon="103.767372"><ele>2703.2</ele><time>2011-04-24T07:58:43.0000000+00:00</time></trkpt><trkpt lat="22.318764" lon="103.767372"><ele>2702.5</ele><time>2011-04-24T07:58:48.0000000+00:00</time></trkpt><trkpt lat="22.318764" lon="103.767372"><ele>2701.7</ele><time>2011-04-24T07:58:53.0000000+00:00</time></trkpt><trkpt lat="22.318762" lon="103.767372"><ele>2701.0</ele><time>2011-04-24T07:58:58.0000000+00:00</time></trkpt><trkpt lat="22.318756" lon="103.767372"><ele>2700.3</ele><time>2011-04-24T07:59:03.0000000+00:00</time></trkpt><trkpt lat="22.31875" lon="103.767372"><ele>2699.5</ele><time>2011-04-24T07:59:08.0000000+00:00</time></trkpt><trkpt lat="22.318758" lon="103.76738"><ele>2698.8</ele><time>2011-04-24T07:59:13.0000000+00:00</time></trkpt><trkpt lat="22.318756" lon="103.76738"><ele>2698.7</ele><time>2011-04-24T07:59:18.0000000+00:00</time></trkpt><trkpt lat="22.318768" lon="103.76741"><ele>2697.8</ele><time>2011-04-24T07:59:23.0000000+00:00</time></trkpt><trkpt lat="22.31879" lon="103.767441"><ele>2696.4</ele><time>2011-04-24T07:59:28.0000000+00:00</time></trkpt><trkpt lat="22.318821" lon="103.767479"><ele>2695.7</ele><time>2011-04-24T07:59:33.0000000+00:00</time></trkpt><trkpt lat="22.318869" lon="103.767479"><ele>2697.5</ele><time>2011-04-24T07:59:38.0000000+00:00</time></trkpt><trkpt lat="22.318907" lon="103.767471"><ele>2698.1</ele><time>2011-04-24T07:59:43.0000000+00:00</time></trkpt><trkpt lat="22.318945" lon="103.767487"><ele>2697.2</ele><time>2011-04-24T07:59:48.0000000+00:00</time></trkpt><trkpt lat="22.318979" lon="103.767509"><ele>2696.8</ele><time>2011-04-24T07:59:53.0000000+00:00</time></trkpt><trkpt lat="22.319023" lon="103.767548"><ele>2696.8</ele><time>2011-04-24T07:59:58.0000000+00:00</time></trkpt><trkpt lat="22.319036" lon="103.76757"><ele>2697.1</ele><time>2011-04-24T08:00:03.0000000+00:00</time></trkpt><trkpt lat="22.319033" lon="103.76757"><ele>2696.3</ele><time>2011-04-24T08:00:08.0000000+00:00</time></trkpt><trkpt lat="22.319033" lon="103.767578"><ele>2696.0</ele><time>2011-04-24T08:00:13.0000000+00:00</time></trkpt><trkpt lat="22.319036" lon="103.767586"><ele>2696.1</ele><time>2011-04-24T08:00:18.0000000+00:00</time></trkpt><trkpt lat="22.319035" lon="103.767586"><ele>2696.1</ele><time>2011-04-24T08:00:23.0000000+00:00</time></trkpt><trkpt lat="22.319031" lon="103.767593"><ele>2696.0</ele><time>2011-04-24T08:00:28.0000000+00:00</time></trkpt><trkpt lat="22.319033" lon="103.767601"><ele>2696.0</ele><time>2011-04-24T08:00:33.0000000+00:00</time></trkpt><trkpt lat="22.319036" lon="103.767624"><ele>2696.0</ele><time>2011-04-24T08:00:38.0000000+00:00</time></trkpt><trkpt lat="22.319031" lon="103.767654"><ele>2695.9</ele><time>2011-04-24T08:00:43.0000000+00:00</time></trkpt><trkpt lat="22.319035" lon="103.767662"><ele>2695.0</ele><time>2011-04-24T08:00:48.0000000+00:00</time></trkpt><trkpt lat="22.319031" lon="103.767685"><ele>2694.8</ele><time>2011-04-24T08:00:53.0000000+00:00</time></trkpt><trkpt lat="22.319031" lon="103.767685"><ele>2694.8</ele><time>2011-04-24T08:00:58.0000000+00:00</time></trkpt><trkpt lat="22.319042" lon="103.767715"><ele>2694.7</ele><time>2011-04-24T08:01:03.0000000+00:00</time></trkpt><trkpt lat="22.319057" lon="103.767761"><ele>2693.8</ele><time>2011-04-24T08:01:08.0000000+00:00</time></trkpt><trkpt lat="22.319073" lon="103.767784"><ele>2693.7</ele><time>2011-04-24T08:01:13.0000000+00:00</time></trkpt><trkpt lat="22.319078" lon="103.767792"><ele>2693.1</ele><time>2011-04-24T08:01:18.0000000+00:00</time></trkpt><trkpt lat="22.319094" lon="103.767807"><ele>2692.9</ele><time>2011-04-24T08:01:23.0000000+00:00</time></trkpt><trkpt lat="22.319143" lon="103.767868"><ele>2692.4</ele><time>2011-04-24T08:01:28.0000000+00:00</time></trkpt><trkpt lat="22.31916" lon="103.767891"><ele>2692.2</ele><time>2011-04-24T08:01:33.0000000+00:00</time></trkpt><trkpt lat="22.319176" lon="103.767937"><ele>2691.7</ele><time>2011-04-24T08:01:38.0000000+00:00</time></trkpt><trkpt lat="22.319178" lon="103.767975"><ele>2691.6</ele><time>2011-04-24T08:01:43.0000000+00:00</time></trkpt><trkpt lat="22.319199" lon="103.768005"><ele>2691.2</ele><time>2011-04-24T08:01:48.0000000+00:00</time></trkpt><trkpt lat="22.319195" lon="103.768021"><ele>2691.2</ele><time>2011-04-24T08:01:53.0000000+00:00</time></trkpt><trkpt lat="22.319183" lon="103.768036"><ele>2690.9</ele><time>2011-04-24T08:01:58.0000000+00:00</time></trkpt><trkpt lat="22.319212" lon="103.768097"><ele>2689.9</ele><time>2011-04-24T08:02:03.0000000+00:00</time></trkpt><trkpt lat="22.319229" lon="103.768158"><ele>2688.5</ele><time>2011-04-24T08:02:08.0000000+00:00</time></trkpt><trkpt lat="22.31922" lon="103.768204"><ele>2687.7</ele><time>2011-04-24T08:02:13.0000000+00:00</time></trkpt><trkpt lat="22.319221" lon="103.768211"><ele>2686.8</ele><time>2011-04-24T08:02:18.0000000+00:00</time></trkpt><trkpt lat="22.319227" lon="103.768204"><ele>2686.4</ele><time>2011-04-24T08:02:23.0000000+00:00</time></trkpt><trkpt lat="22.319231" lon="103.768211"><ele>2685.7</ele><time>2011-04-24T08:02:28.0000000+00:00</time></trkpt><trkpt lat="22.319225" lon="103.768219"><ele>2685.2</ele><time>2011-04-24T08:02:33.0000000+00:00</time></trkpt><trkpt lat="22.319225" lon="103.768219"><ele>2684.8</ele><time>2011-04-24T08:02:38.0000000+00:00</time></trkpt><trkpt lat="22.319229" lon="103.768211"><ele>2684.5</ele><time>2011-04-24T08:02:43.0000000+00:00</time></trkpt><trkpt lat="22.319231" lon="103.768204"><ele>2684.2</ele><time>2011-04-24T08:02:48.0000000+00:00</time></trkpt><trkpt lat="22.319235" lon="103.768196"><ele>2683.7</ele><time>2011-04-24T08:02:53.0000000+00:00</time></trkpt><trkpt lat="22.319239" lon="103.768188"><ele>2683.3</ele><time>2011-04-24T08:02:58.0000000+00:00</time></trkpt><trkpt lat="22.319242" lon="103.768188"><ele>2682.8</ele><time>2011-04-24T08:03:03.0000000+00:00</time></trkpt><trkpt lat="22.319244" lon="103.768173"><ele>2682.3</ele><time>2011-04-24T08:03:08.0000000+00:00</time></trkpt><trkpt lat="22.319248" lon="103.768166"><ele>2681.8</ele><time>2011-04-24T08:03:13.0000000+00:00</time></trkpt><trkpt lat="22.31925" lon="103.76815"><ele>2681.3</ele><time>2011-04-24T08:03:18.0000000+00:00</time></trkpt><trkpt lat="22.319254" lon="103.76815"><ele>2680.7</ele><time>2011-04-24T08:03:23.0000000+00:00</time></trkpt><trkpt lat="22.319263" lon="103.768158"><ele>2680.0</ele><time>2011-04-24T08:03:28.0000000+00:00</time></trkpt><trkpt lat="22.319269" lon="103.768166"><ele>2679.3</ele><time>2011-04-24T08:03:33.0000000+00:00</time></trkpt><trkpt lat="22.319269" lon="103.768173"><ele>2678.8</ele><time>2011-04-24T08:03:38.0000000+00:00</time></trkpt><trkpt lat="22.319288" lon="103.768173"><ele>2678.3</ele><time>2011-04-24T08:03:43.0000000+00:00</time></trkpt><trkpt lat="22.319313" lon="103.768166"><ele>2677.5</ele><time>2011-04-24T08:03:48.0000000+00:00</time></trkpt><trkpt lat="22.319315" lon="103.768173"><ele>2677.2</ele><time>2011-04-24T08:03:53.0000000+00:00</time></trkpt><trkpt lat="22.319321" lon="103.768173"><ele>2677.0</ele><time>2011-04-24T08:03:58.0000000+00:00</time></trkpt><trkpt lat="22.319328" lon="103.768181"><ele>2676.8</ele><time>2011-04-24T08:04:03.0000000+00:00</time></trkpt><trkpt lat="22.319345" lon="103.768204"><ele>2675.8</ele><time>2011-04-24T08:04:08.0000000+00:00</time></trkpt><trkpt lat="22.319365" lon="103.768227"><ele>2675.6</ele><time>2011-04-24T08:04:13.0000000+00:00</time></trkpt><trkpt lat="22.319372" lon="103.768242"><ele>2675.4</ele><time>2011-04-24T08:04:18.0000000+00:00</time></trkpt><trkpt lat="22.319376" lon="103.768272"><ele>2674.6</ele><time>2011-04-24T08:04:23.0000000+00:00</time></trkpt><trkpt lat="22.319399" lon="103.768303"><ele>2674.3</ele><time>2011-04-24T08:04:28.0000000+00:00</time></trkpt><trkpt lat="22.319384" lon="103.768326"><ele>2674.3</ele><time>2011-04-24T08:04:33.0000000+00:00</time></trkpt><trkpt lat="22.319399" lon="103.768318"><ele>2673.0</ele><time>2011-04-24T08:04:38.0000000+00:00</time></trkpt><trkpt lat="22.319422" lon="103.768341"><ele>2671.8</ele><time>2011-04-24T08:04:43.0000000+00:00</time></trkpt><trkpt lat="22.319441" lon="103.768333"><ele>2670.4</ele><time>2011-04-24T08:04:48.0000000+00:00</time></trkpt><trkpt lat="22.319452" lon="103.768356"><ele>2668.3</ele><time>2011-04-24T08:04:53.0000000+00:00</time></trkpt><trkpt lat="22.319464" lon="103.768364"><ele>2666.8</ele><time>2011-04-24T08:04:58.0000000+00:00</time></trkpt><trkpt lat="22.319473" lon="103.768394"><ele>2665.3</ele><time>2011-04-24T08:05:03.0000000+00:00</time></trkpt><trkpt lat="22.319481" lon="103.768417"><ele>2663.9</ele><time>2011-04-24T08:05:08.0000000+00:00</time></trkpt><trkpt lat="22.319473" lon="103.768448"><ele>2661.9</ele><time>2011-04-24T08:05:13.0000000+00:00</time></trkpt><trkpt lat="22.319479" lon="103.768463"><ele>2660.3</ele><time>2011-04-24T08:05:18.0000000+00:00</time></trkpt><trkpt lat="22.319483" lon="103.768471"><ele>2659.3</ele><time>2011-04-24T08:05:23.0000000+00:00</time></trkpt><trkpt lat="22.319477" lon="103.768509"><ele>2657.7</ele><time>2011-04-24T08:05:28.0000000+00:00</time></trkpt><trkpt lat="22.319471" lon="103.768547"><ele>2656.8</ele><time>2011-04-24T08:05:33.0000000+00:00</time></trkpt><trkpt lat="22.319508" lon="103.7686"><ele>2655.8</ele><time>2011-04-24T08:05:38.0000000+00:00</time></trkpt><trkpt lat="22.319525" lon="103.768623"><ele>2654.6</ele><time>2011-04-24T08:05:43.0000000+00:00</time></trkpt><trkpt lat="22.319544" lon="103.768654"><ele>2652.5</ele><time>2011-04-24T08:05:48.0000000+00:00</time></trkpt><trkpt lat="22.319565" lon="103.768692"><ele>2652.8</ele><time>2011-04-24T08:05:53.0000000+00:00</time></trkpt><trkpt lat="22.319592" lon="103.7687"><ele>2652.7</ele><time>2011-04-24T08:05:58.0000000+00:00</time></trkpt><trkpt lat="22.319637" lon="103.768715"><ele>2652.9</ele><time>2011-04-24T08:06:03.0000000+00:00</time></trkpt><trkpt lat="22.31966" lon="103.768753"><ele>2654.1</ele><time>2011-04-24T08:06:08.0000000+00:00</time></trkpt><trkpt lat="22.319677" lon="103.768784"><ele>2654.9</ele><time>2011-04-24T08:06:13.0000000+00:00</time></trkpt><trkpt lat="22.319687" lon="103.768814"><ele>2655.2</ele><time>2011-04-24T08:06:18.0000000+00:00</time></trkpt><trkpt lat="22.319706" lon="103.768837"><ele>2656.2</ele><time>2011-04-24T08:06:23.0000000+00:00</time></trkpt><trkpt lat="22.319698" lon="103.768845"><ele>2657.4</ele><time>2011-04-24T08:06:28.0000000+00:00</time></trkpt><trkpt lat="22.3197" lon="103.768898"><ele>2658.5</ele><time>2011-04-24T08:06:33.0000000+00:00</time></trkpt><trkpt lat="22.319704" lon="103.768913"><ele>2658.9</ele><time>2011-04-24T08:06:38.0000000+00:00</time></trkpt><trkpt lat="22.319702" lon="103.768913"><ele>2660.0</ele><time>2011-04-24T08:06:43.0000000+00:00</time></trkpt><trkpt lat="22.319712" lon="103.768921"><ele>2660.9</ele><time>2011-04-24T08:06:48.0000000+00:00</time></trkpt><trkpt lat="22.319733" lon="103.768982"><ele>2660.7</ele><time>2011-04-24T08:06:53.0000000+00:00</time></trkpt><trkpt lat="22.319708" lon="103.769035"><ele>2660.1</ele><time>2011-04-24T08:06:58.0000000+00:00</time></trkpt><trkpt lat="22.319683" lon="103.769066"><ele>2660.2</ele><time>2011-04-24T08:07:03.0000000+00:00</time></trkpt><trkpt lat="22.319664" lon="103.769112"><ele>2659.7</ele><time>2011-04-24T08:07:08.0000000+00:00</time></trkpt><trkpt lat="22.319668" lon="103.769119"><ele>2660.3</ele><time>2011-04-24T08:07:13.0000000+00:00</time></trkpt><trkpt lat="22.319675" lon="103.76918"><ele>2660.2</ele><time>2011-04-24T08:07:18.0000000+00:00</time></trkpt><trkpt lat="22.31967" lon="103.769218"><ele>2660.0</ele><time>2011-04-24T08:07:23.0000000+00:00</time></trkpt><trkpt lat="22.319664" lon="103.769218"><ele>2660.5</ele><time>2011-04-24T08:07:28.0000000+00:00</time></trkpt><trkpt lat="22.319666" lon="103.769218"><ele>2660.5</ele><time>2011-04-24T08:07:33.0000000+00:00</time></trkpt><trkpt lat="22.319666" lon="103.769218"><ele>2660.5</ele><time>2011-04-24T08:07:38.0000000+00:00</time></trkpt><trkpt lat="22.319672" lon="103.769226"><ele>2660.4</ele><time>2011-04-24T08:07:43.0000000+00:00</time></trkpt><trkpt lat="22.319683" lon="103.769226"><ele>2659.9</ele><time>2011-04-24T08:07:48.0000000+00:00</time></trkpt><trkpt lat="22.319704" lon="103.769249"><ele>2658.8</ele><time>2011-04-24T08:07:53.0000000+00:00</time></trkpt><trkpt lat="22.31971" lon="103.769287"><ele>2658.3</ele><time>2011-04-24T08:07:58.0000000+00:00</time></trkpt><trkpt lat="22.31971" lon="103.769295"><ele>2658.3</ele><time>2011-04-24T08:08:03.0000000+00:00</time></trkpt><trkpt lat="22.319725" lon="103.769295"><ele>2658.0</ele><time>2011-04-24T08:08:08.0000000+00:00</time></trkpt><trkpt lat="22.319731" lon="103.76931"><ele>2657.7</ele><time>2011-04-24T08:08:13.0000000+00:00</time></trkpt><trkpt lat="22.319733" lon="103.769341"><ele>2657.4</ele><time>2011-04-24T08:08:18.0000000+00:00</time></trkpt><trkpt lat="22.319729" lon="103.769341"><ele>2657.0</ele><time>2011-04-24T08:08:23.0000000+00:00</time></trkpt><trkpt lat="22.319727" lon="103.769348"><ele>2656.7</ele><time>2011-04-24T08:08:28.0000000+00:00</time></trkpt><trkpt lat="22.319725" lon="103.769341"><ele>2656.8</ele><time>2011-04-24T08:08:33.0000000+00:00</time></trkpt><trkpt lat="22.319727" lon="103.769333"><ele>2656.8</ele><time>2011-04-24T08:08:38.0000000+00:00</time></trkpt><trkpt lat="22.319731" lon="103.769333"><ele>2656.7</ele><time>2011-04-24T08:08:43.0000000+00:00</time></trkpt><trkpt lat="22.319742" lon="103.769333"><ele>2656.9</ele><time>2011-04-24T08:08:48.0000000+00:00</time></trkpt><trkpt lat="22.319746" lon="103.769325"><ele>2657.0</ele><time>2011-04-24T08:08:53.0000000+00:00</time></trkpt><trkpt lat="22.319746" lon="103.769325"><ele>2657.2</ele><time>2011-04-24T08:08:58.0000000+00:00</time></trkpt><trkpt lat="22.31975" lon="103.769325"><ele>2657.2</ele><time>2011-04-24T08:09:03.0000000+00:00</time></trkpt><trkpt lat="22.319757" lon="103.769333"><ele>2657.2</ele><time>2011-04-24T08:09:08.0000000+00:00</time></trkpt><trkpt lat="22.319761" lon="103.769341"><ele>2657.2</ele><time>2011-04-24T08:09:13.0000000+00:00</time></trkpt><trkpt lat="22.319759" lon="103.769348"><ele>2657.2</ele><time>2011-04-24T08:09:18.0000000+00:00</time></trkpt><trkpt lat="22.319763" lon="103.769356"><ele>2657.0</ele><time>2011-04-24T08:09:23.0000000+00:00</time></trkpt><trkpt lat="22.319773" lon="103.769371"><ele>2657.0</ele><time>2011-04-24T08:09:28.0000000+00:00</time></trkpt><trkpt lat="22.319765" lon="103.769402"><ele>2657.5</ele><time>2011-04-24T08:09:33.0000000+00:00</time></trkpt><trkpt lat="22.319775" lon="103.769417"><ele>2657.7</ele><time>2011-04-24T08:09:38.0000000+00:00</time></trkpt><trkpt lat="22.319811" lon="103.769463"><ele>2658.4</ele><time>2011-04-24T08:09:43.0000000+00:00</time></trkpt><trkpt lat="22.319834" lon="103.769501"><ele>2658.2</ele><time>2011-04-24T08:09:48.0000000+00:00</time></trkpt><trkpt lat="22.319817" lon="103.769539"><ele>2659.2</ele><time>2011-04-24T08:09:53.0000000+00:00</time></trkpt><trkpt lat="22.319811" lon="103.769562"><ele>2659.8</ele><time>2011-04-24T08:09:58.0000000+00:00</time></trkpt><trkpt lat="22.319824" lon="103.769562"><ele>2660.2</ele><time>2011-04-24T08:10:03.0000000+00:00</time></trkpt><trkpt lat="22.319832" lon="103.769569"><ele>2660.3</ele><time>2011-04-24T08:10:08.0000000+00:00</time></trkpt><trkpt lat="22.319836" lon="103.769577"><ele>2660.6</ele><time>2011-04-24T08:10:13.0000000+00:00</time></trkpt><trkpt lat="22.319841" lon="103.769585"><ele>2660.8</ele><time>2011-04-24T08:10:18.0000000+00:00</time></trkpt><trkpt lat="22.319851" lon="103.769592"><ele>2661.0</ele><time>2011-04-24T08:10:23.0000000+00:00</time></trkpt><trkpt lat="22.319859" lon="103.769592"><ele>2661.2</ele><time>2011-04-24T08:10:28.0000000+00:00</time></trkpt><trkpt lat="22.319864" lon="103.769592"><ele>2661.4</ele><time>2011-04-24T08:10:33.0000000+00:00</time></trkpt><trkpt lat="22.31987" lon="103.769592"><ele>2661.5</ele><time>2011-04-24T08:10:38.0000000+00:00</time></trkpt><trkpt lat="22.319874" lon="103.7696"><ele>2661.7</ele><time>2011-04-24T08:10:43.0000000+00:00</time></trkpt><trkpt lat="22.319897" lon="103.7696"><ele>2662.2</ele><time>2011-04-24T08:10:48.0000000+00:00</time></trkpt><trkpt lat="22.319921" lon="103.7696"><ele>2662.2</ele><time>2011-04-24T08:10:53.0000000+00:00</time></trkpt><trkpt lat="22.319929" lon="103.769615"><ele>2661.7</ele><time>2011-04-24T08:10:58.0000000+00:00</time></trkpt><trkpt lat="22.319973" lon="103.769646"><ele>2659.8</ele><time>2011-04-24T08:11:03.0000000+00:00</time></trkpt><trkpt lat="22.320026" lon="103.769615"><ele>2658.8</ele><time>2011-04-24T08:11:08.0000000+00:00</time></trkpt><trkpt lat="22.320034" lon="103.769638"><ele>2657.9</ele><time>2011-04-24T08:11:13.0000000+00:00</time></trkpt><trkpt lat="22.320002" lon="103.769653"><ele>2656.0</ele><time>2011-04-24T08:11:18.0000000+00:00</time></trkpt><trkpt lat="22.319994" lon="103.769653"><ele>2655.7</ele><time>2011-04-24T08:11:23.0000000+00:00</time></trkpt><trkpt lat="22.32" lon="103.769653"><ele>2655.5</ele><time>2011-04-24T08:11:28.0000000+00:00</time></trkpt><trkpt lat="22.320007" lon="103.769653"><ele>2655.2</ele><time>2011-04-24T08:11:33.0000000+00:00</time></trkpt><trkpt lat="22.320015" lon="103.769653"><ele>2654.9</ele><time>2011-04-24T08:11:38.0000000+00:00</time></trkpt><trkpt lat="22.32003" lon="103.769661"><ele>2653.8</ele><time>2011-04-24T08:11:43.0000000+00:00</time></trkpt><trkpt lat="22.320059" lon="103.769653"><ele>2652.7</ele><time>2011-04-24T08:11:48.0000000+00:00</time></trkpt><trkpt lat="22.32007" lon="103.769669"><ele>2651.5</ele><time>2011-04-24T08:11:53.0000000+00:00</time></trkpt><trkpt lat="22.320078" lon="103.769676"><ele>2651.3</ele><time>2011-04-24T08:11:58.0000000+00:00</time></trkpt><trkpt lat="22.320101" lon="103.769676"><ele>2652.8</ele><time>2011-04-24T08:12:03.0000000+00:00</time></trkpt><trkpt lat="22.320112" lon="103.769684"><ele>2652.4</ele><time>2011-04-24T08:12:08.0000000+00:00</time></trkpt><trkpt lat="22.320127" lon="103.769707"><ele>2652.1</ele><time>2011-04-24T08:12:13.0000000+00:00</time></trkpt><trkpt lat="22.320095" lon="103.769707"><ele>2651.8</ele><time>2011-04-24T08:12:18.0000000+00:00</time></trkpt><trkpt lat="22.320095" lon="103.769714"><ele>2651.4</ele><time>2011-04-24T08:12:23.0000000+00:00</time></trkpt><trkpt lat="22.320112" lon="103.769722"><ele>2650.2</ele><time>2011-04-24T08:12:28.0000000+00:00</time></trkpt><trkpt lat="22.320091" lon="103.769722"><ele>2649.7</ele><time>2011-04-24T08:12:33.0000000+00:00</time></trkpt><trkpt lat="22.320086" lon="103.769737"><ele>2649.2</ele><time>2011-04-24T08:12:38.0000000+00:00</time></trkpt><trkpt lat="22.320099" lon="103.76973"><ele>2648.4</ele><time>2011-04-24T08:12:43.0000000+00:00</time></trkpt><trkpt lat="22.320108" lon="103.76973"><ele>2645.7</ele><time>2011-04-24T08:12:48.0000000+00:00</time></trkpt><trkpt lat="22.320108" lon="103.76973"><ele>2645.0</ele><time>2011-04-24T08:12:53.0000000+00:00</time></trkpt><trkpt lat="22.320118" lon="103.769737"><ele>2644.3</ele><time>2011-04-24T08:12:58.0000000+00:00</time></trkpt><trkpt lat="22.320122" lon="103.769745"><ele>2643.7</ele><time>2011-04-24T08:13:03.0000000+00:00</time></trkpt><trkpt lat="22.320116" lon="103.769753"><ele>2642.8</ele><time>2011-04-24T08:13:08.0000000+00:00</time></trkpt><trkpt lat="22.320112" lon="103.769753"><ele>2642.0</ele><time>2011-04-24T08:13:13.0000000+00:00</time></trkpt><trkpt lat="22.32011" lon="103.769753"><ele>2641.0</ele><time>2011-04-24T08:13:18.0000000+00:00</time></trkpt><trkpt lat="22.32011" lon="103.76976"><ele>2640.1</ele><time>2011-04-24T08:13:23.0000000+00:00</time></trkpt><trkpt lat="22.320112" lon="103.769768"><ele>2639.1</ele><time>2011-04-24T08:13:28.0000000+00:00</time></trkpt><trkpt lat="22.32011" lon="103.769768"><ele>2638.1</ele><time>2011-04-24T08:13:33.0000000+00:00</time></trkpt><trkpt lat="22.320116" lon="103.769775"><ele>2637.2</ele><time>2011-04-24T08:13:38.0000000+00:00</time></trkpt><trkpt lat="22.320107" lon="103.769798"><ele>2634.7</ele><time>2011-04-24T08:13:43.0000000+00:00</time></trkpt><trkpt lat="22.320108" lon="103.769806"><ele>2633.5</ele><time>2011-04-24T08:13:48.0000000+00:00</time></trkpt><trkpt lat="22.32011" lon="103.769821"><ele>2632.3</ele><time>2011-04-24T08:13:53.0000000+00:00</time></trkpt><trkpt lat="22.320107" lon="103.769859"><ele>2631.3</ele><time>2011-04-24T08:13:58.0000000+00:00</time></trkpt><trkpt lat="22.320089" lon="103.76989"><ele>2627.8</ele><time>2011-04-24T08:14:03.0000000+00:00</time></trkpt><trkpt lat="22.32008" lon="103.769905"><ele>2626.0</ele><time>2011-04-24T08:14:08.0000000+00:00</time></trkpt><trkpt lat="22.320068" lon="103.769897"><ele>2624.8</ele><time>2011-04-24T08:14:13.0000000+00:00</time></trkpt><trkpt lat="22.32007" lon="103.769897"><ele>2623.6</ele><time>2011-04-24T08:14:18.0000000+00:00</time></trkpt><trkpt lat="22.320068" lon="103.769897"><ele>2622.3</ele><time>2011-04-24T08:14:23.0000000+00:00</time></trkpt><trkpt lat="22.320063" lon="103.76989"><ele>2621.2</ele><time>2011-04-24T08:14:28.0000000+00:00</time></trkpt><trkpt lat="22.320057" lon="103.76989"><ele>2619.9</ele><time>2011-04-24T08:14:33.0000000+00:00</time></trkpt><trkpt lat="22.320055" lon="103.769897"><ele>2618.8</ele><time>2011-04-24T08:14:38.0000000+00:00</time></trkpt><trkpt lat="22.320057" lon="103.769897"><ele>2617.7</ele><time>2011-04-24T08:14:43.0000000+00:00</time></trkpt><trkpt lat="22.320059" lon="103.769905"><ele>2616.6</ele><time>2011-04-24T08:14:48.0000000+00:00</time></trkpt><trkpt lat="22.320084" lon="103.769905"><ele>2616.5</ele><time>2011-04-24T08:14:53.0000000+00:00</time></trkpt><trkpt lat="22.320084" lon="103.769897"><ele>2615.5</ele><time>2011-04-24T08:14:58.0000000+00:00</time></trkpt><trkpt lat="22.320086" lon="103.769905"><ele>2615.3</ele><time>2011-04-24T08:15:03.0000000+00:00</time></trkpt><trkpt lat="22.320087" lon="103.769905"><ele>2615.2</ele><time>2011-04-24T08:15:08.0000000+00:00</time></trkpt><trkpt lat="22.320065" lon="103.769844"><ele>2614.0</ele><time>2011-04-24T08:15:13.0000000+00:00</time></trkpt><trkpt lat="22.320057" lon="103.769814"><ele>2614.0</ele><time>2011-04-24T08:15:18.0000000+00:00</time></trkpt><trkpt lat="22.320053" lon="103.769783"><ele>2614.3</ele><time>2011-04-24T08:15:23.0000000+00:00</time></trkpt><trkpt lat="22.320078" lon="103.769775"><ele>2614.4</ele><time>2011-04-24T08:15:28.0000000+00:00</time></trkpt><trkpt lat="22.320082" lon="103.769745"><ele>2614.2</ele><time>2011-04-24T08:15:33.0000000+00:00</time></trkpt><trkpt lat="22.320087" lon="103.769745"><ele>2613.4</ele><time>2011-04-24T08:15:38.0000000+00:00</time></trkpt><trkpt lat="22.320105" lon="103.769753"><ele>2612.8</ele><time>2011-04-24T08:15:43.0000000+00:00</time></trkpt><trkpt lat="22.320103" lon="103.769775"><ele>2611.9</ele><time>2011-04-24T08:15:48.0000000+00:00</time></trkpt><trkpt lat="22.320095" lon="103.769829"><ele>2610.1</ele><time>2011-04-24T08:15:53.0000000+00:00</time></trkpt><trkpt lat="22.32011" lon="103.769867"><ele>2608.5</ele><time>2011-04-24T08:15:58.0000000+00:00</time></trkpt><trkpt lat="22.320127" lon="103.769867"><ele>2607.8</ele><time>2011-04-24T08:16:03.0000000+00:00</time></trkpt><trkpt lat="22.320129" lon="103.769882"><ele>2607.1</ele><time>2011-04-24T08:16:08.0000000+00:00</time></trkpt><trkpt lat="22.320127" lon="103.769905"><ele>2606.2</ele><time>2011-04-24T08:16:13.0000000+00:00</time></trkpt><trkpt lat="22.320131" lon="103.769928"><ele>2604.0</ele><time>2011-04-24T08:16:18.0000000+00:00</time></trkpt><trkpt lat="22.320131" lon="103.769936"><ele>2602.9</ele><time>2011-04-24T08:16:23.0000000+00:00</time></trkpt><trkpt lat="22.320135" lon="103.769936"><ele>2602.2</ele><time>2011-04-24T08:16:28.0000000+00:00</time></trkpt><trkpt lat="22.320139" lon="103.769951"><ele>2601.5</ele><time>2011-04-24T08:16:33.0000000+00:00</time></trkpt><trkpt lat="22.320139" lon="103.769958"><ele>2601.0</ele><time>2011-04-24T08:16:38.0000000+00:00</time></trkpt><trkpt lat="22.320137" lon="103.769966"><ele>2600.3</ele><time>2011-04-24T08:16:43.0000000+00:00</time></trkpt><trkpt lat="22.320137" lon="103.769958"><ele>2599.7</ele><time>2011-04-24T08:16:48.0000000+00:00</time></trkpt><trkpt lat="22.320139" lon="103.769958"><ele>2599.2</ele><time>2011-04-24T08:16:53.0000000+00:00</time></trkpt><trkpt lat="22.320135" lon="103.769951"><ele>2598.5</ele><time>2011-04-24T08:16:58.0000000+00:00</time></trkpt><trkpt lat="22.320143" lon="103.769913"><ele>2598.0</ele><time>2011-04-24T08:17:03.0000000+00:00</time></trkpt><trkpt lat="22.320162" lon="103.769882"><ele>2597.3</ele><time>2011-04-24T08:17:08.0000000+00:00</time></trkpt><trkpt lat="22.320177" lon="103.769836"><ele>2596.5</ele><time>2011-04-24T08:17:13.0000000+00:00</time></trkpt><trkpt lat="22.320194" lon="103.769821"><ele>2596.2</ele><time>2011-04-24T08:17:18.0000000+00:00</time></trkpt><trkpt lat="22.320194" lon="103.769821"><ele>2595.9</ele><time>2011-04-24T08:17:23.0000000+00:00</time></trkpt><trkpt lat="22.320204" lon="103.769821"><ele>2595.3</ele><time>2011-04-24T08:17:28.0000000+00:00</time></trkpt><trkpt lat="22.32021" lon="103.769806"><ele>2594.7</ele><time>2011-04-24T08:17:33.0000000+00:00</time></trkpt><trkpt lat="22.320204" lon="103.769806"><ele>2594.2</ele><time>2011-04-24T08:17:38.0000000+00:00</time></trkpt><trkpt lat="22.320208" lon="103.769783"><ele>2593.4</ele><time>2011-04-24T08:17:43.0000000+00:00</time></trkpt><trkpt lat="22.320223" lon="103.769775"><ele>2592.7</ele><time>2011-04-24T08:17:48.0000000+00:00</time></trkpt><trkpt lat="22.320236" lon="103.769775"><ele>2591.8</ele><time>2011-04-24T08:17:53.0000000+00:00</time></trkpt><trkpt lat="22.320248" lon="103.769783"><ele>2591.3</ele><time>2011-04-24T08:17:58.0000000+00:00</time></trkpt><trkpt lat="22.320248" lon="103.769791"><ele>2590.7</ele><time>2011-04-24T08:18:03.0000000+00:00</time></trkpt><trkpt lat="22.320248" lon="103.769791"><ele>2590.2</ele><time>2011-04-24T08:18:08.0000000+00:00</time></trkpt><trkpt lat="22.320244" lon="103.769783"><ele>2589.6</ele><time>2011-04-24T08:18:13.0000000+00:00</time></trkpt><trkpt lat="22.320242" lon="103.769775"><ele>2589.0</ele><time>2011-04-24T08:18:18.0000000+00:00</time></trkpt><trkpt lat="22.320238" lon="103.769768"><ele>2588.5</ele><time>2011-04-24T08:18:23.0000000+00:00</time></trkpt><trkpt lat="22.320234" lon="103.76976"><ele>2587.9</ele><time>2011-04-24T08:18:28.0000000+00:00</time></trkpt><trkpt lat="22.320204" lon="103.769707"><ele>2587.0</ele><time>2011-04-24T08:18:33.0000000+00:00</time></trkpt><trkpt lat="22.320177" lon="103.769653"><ele>2586.3</ele><time>2011-04-24T08:18:38.0000000+00:00</time></trkpt><trkpt lat="22.320152" lon="103.76963"><ele>2585.8</ele><time>2011-04-24T08:18:43.0000000+00:00</time></trkpt><trkpt lat="22.320124" lon="103.769592"><ele>2585.6</ele><time>2011-04-24T08:18:48.0000000+00:00</time></trkpt><trkpt lat="22.320089" lon="103.769562"><ele>2585.1</ele><time>2011-04-24T08:18:53.0000000+00:00</time></trkpt><trkpt lat="22.32008" lon="103.769577"><ele>2584.7</ele><time>2011-04-24T08:18:58.0000000+00:00</time></trkpt><trkpt lat="22.320086" lon="103.769608"><ele>2584.4</ele><time>2011-04-24T08:19:03.0000000+00:00</time></trkpt><trkpt lat="22.32008" lon="103.769615"><ele>2583.8</ele><time>2011-04-24T08:19:08.0000000+00:00</time></trkpt><trkpt lat="22.320087" lon="103.769638"><ele>2583.6</ele><time>2011-04-24T08:19:13.0000000+00:00</time></trkpt><trkpt lat="22.320095" lon="103.769615"><ele>2584.3</ele><time>2011-04-24T08:19:18.0000000+00:00</time></trkpt><trkpt lat="22.320095" lon="103.769615"><ele>2583.8</ele><time>2011-04-24T08:19:23.0000000+00:00</time></trkpt><trkpt lat="22.320095" lon="103.769608"><ele>2583.2</ele><time>2011-04-24T08:19:28.0000000+00:00</time></trkpt><trkpt lat="22.320099" lon="103.7696"><ele>2582.7</ele><time>2011-04-24T08:19:33.0000000+00:00</time></trkpt><trkpt lat="22.320105" lon="103.769585"><ele>2582.1</ele><time>2011-04-24T08:19:38.0000000+00:00</time></trkpt><trkpt lat="22.320137" lon="103.7696"><ele>2581.6</ele><time>2011-04-24T08:19:43.0000000+00:00</time></trkpt><trkpt lat="22.320145" lon="103.769592"><ele>2581.0</ele><time>2011-04-24T08:19:48.0000000+00:00</time></trkpt><trkpt lat="22.320152" lon="103.7696"><ele>2580.5</ele><time>2011-04-24T08:19:53.0000000+00:00</time></trkpt><trkpt lat="22.320194" lon="103.769676"><ele>2580.4</ele><time>2011-04-24T08:19:58.0000000+00:00</time></trkpt><trkpt lat="22.320253" lon="103.769753"><ele>2581.6</ele><time>2011-04-24T08:20:03.0000000+00:00</time></trkpt><trkpt lat="22.320261" lon="103.769829"><ele>2582.7</ele><time>2011-04-24T08:20:08.0000000+00:00</time></trkpt><trkpt lat="22.320265" lon="103.769882"><ele>2583.8</ele><time>2011-04-24T08:20:13.0000000+00:00</time></trkpt><trkpt lat="22.320314" lon="103.769928"><ele>2587.3</ele><time>2011-04-24T08:20:18.0000000+00:00</time></trkpt><trkpt lat="22.320328" lon="103.769951"><ele>2588.1</ele><time>2011-04-24T08:20:23.0000000+00:00</time></trkpt><trkpt lat="22.320328" lon="103.769966"><ele>2588.2</ele><time>2011-04-24T08:20:28.0000000+00:00</time></trkpt><trkpt lat="22.320328" lon="103.769974"><ele>2588.0</ele><time>2011-04-24T08:20:33.0000000+00:00</time></trkpt><trkpt lat="22.320328" lon="103.769981"><ele>2587.8</ele><time>2011-04-24T08:20:38.0000000+00:00</time></trkpt><trkpt lat="22.320326" lon="103.769989"><ele>2587.7</ele><time>2011-04-24T08:20:43.0000000+00:00</time></trkpt><trkpt lat="22.320324" lon="103.769989"><ele>2587.7</ele><time>2011-04-24T08:20:48.0000000+00:00</time></trkpt><trkpt lat="22.320324" lon="103.769989"><ele>2587.6</ele><time>2011-04-24T08:20:53.0000000+00:00</time></trkpt><trkpt lat="22.320326" lon="103.769981"><ele>2587.6</ele><time>2011-04-24T08:20:58.0000000+00:00</time></trkpt><trkpt lat="22.32033" lon="103.769981"><ele>2587.6</ele><time>2011-04-24T08:21:03.0000000+00:00</time></trkpt><trkpt lat="22.320333" lon="103.769989"><ele>2587.7</ele><time>2011-04-24T08:21:08.0000000+00:00</time></trkpt><trkpt lat="22.320339" lon="103.769997"><ele>2587.7</ele><time>2011-04-24T08:21:13.0000000+00:00</time></trkpt><trkpt lat="22.320364" lon="103.769989"><ele>2587.8</ele><time>2011-04-24T08:21:18.0000000+00:00</time></trkpt><trkpt lat="22.320381" lon="103.770012"><ele>2587.7</ele><time>2011-04-24T08:21:23.0000000+00:00</time></trkpt><trkpt lat="22.320393" lon="103.770012"><ele>2588.1</ele><time>2011-04-24T08:21:28.0000000+00:00</time></trkpt><trkpt lat="22.320404" lon="103.770012"><ele>2588.2</ele><time>2011-04-24T08:21:33.0000000+00:00</time></trkpt><trkpt lat="22.320421" lon="103.770035"><ele>2588.7</ele><time>2011-04-24T08:21:38.0000000+00:00</time></trkpt><trkpt lat="22.320469" lon="103.770035"><ele>2591.0</ele><time>2011-04-24T08:21:43.0000000+00:00</time></trkpt><trkpt lat="22.320471" lon="103.770035"><ele>2591.7</ele><time>2011-04-24T08:21:48.0000000+00:00</time></trkpt><trkpt lat="22.320469" lon="103.77005"><ele>2592.7</ele><time>2011-04-24T08:21:53.0000000+00:00</time></trkpt><trkpt lat="22.320475" lon="103.77005"><ele>2593.0</ele><time>2011-04-24T08:21:58.0000000+00:00</time></trkpt><trkpt lat="22.320478" lon="103.77005"><ele>2593.3</ele><time>2011-04-24T08:22:03.0000000+00:00</time></trkpt><trkpt lat="22.320475" lon="103.77005"><ele>2593.6</ele><time>2011-04-24T08:22:08.0000000+00:00</time></trkpt><trkpt lat="22.320473" lon="103.770058"><ele>2594.0</ele><time>2011-04-24T08:22:13.0000000+00:00</time></trkpt><trkpt lat="22.320511" lon="103.770035"><ele>2593.2</ele><time>2011-04-24T08:22:18.0000000+00:00</time></trkpt><trkpt lat="22.32058" lon="103.770081"><ele>2591.2</ele><time>2011-04-24T08:22:23.0000000+00:00</time></trkpt><trkpt lat="22.320612" lon="103.770096"><ele>2591.7</ele><time>2011-04-24T08:22:28.0000000+00:00</time></trkpt><trkpt lat="22.320621" lon="103.770111"><ele>2592.0</ele><time>2011-04-24T08:22:33.0000000+00:00</time></trkpt><trkpt lat="22.320644" lon="103.770157"><ele>2591.7</ele><time>2011-04-24T08:22:38.0000000+00:00</time></trkpt><trkpt lat="22.320667" lon="103.770187"><ele>2591.9</ele><time>2011-04-24T08:22:43.0000000+00:00</time></trkpt><trkpt lat="22.320679" lon="103.770195"><ele>2591.9</ele><time>2011-04-24T08:22:48.0000000+00:00</time></trkpt><trkpt lat="22.320669" lon="103.770264"><ele>2591.5</ele><time>2011-04-24T08:22:53.0000000+00:00</time></trkpt><trkpt lat="22.320641" lon="103.770355"><ele>2590.0</ele><time>2011-04-24T08:22:58.0000000+00:00</time></trkpt><trkpt lat="22.32062" lon="103.770409"><ele>2590.0</ele><time>2011-04-24T08:23:03.0000000+00:00</time></trkpt><trkpt lat="22.320625" lon="103.770485"><ele>2589.5</ele><time>2011-04-24T08:23:08.0000000+00:00</time></trkpt><trkpt lat="22.320642" lon="103.7705"><ele>2589.2</ele><time>2011-04-24T08:23:13.0000000+00:00</time></trkpt><trkpt lat="22.320679" lon="103.770538"><ele>2588.8</ele><time>2011-04-24T08:23:18.0000000+00:00</time></trkpt><trkpt lat="22.3207" lon="103.770592"><ele>2586.8</ele><time>2011-04-24T08:23:23.0000000+00:00</time></trkpt><trkpt lat="22.320696" lon="103.770653"><ele>2585.3</ele><time>2011-04-24T08:23:28.0000000+00:00</time></trkpt><trkpt lat="22.320702" lon="103.770691"><ele>2586.2</ele><time>2011-04-24T08:23:33.0000000+00:00</time></trkpt><trkpt lat="22.320721" lon="103.770721"><ele>2587.3</ele><time>2011-04-24T08:23:38.0000000+00:00</time></trkpt><trkpt lat="22.320749" lon="103.770752"><ele>2587.1</ele><time>2011-04-24T08:23:43.0000000+00:00</time></trkpt><trkpt lat="22.320795" lon="103.77076"><ele>2587.5</ele><time>2011-04-24T08:23:48.0000000+00:00</time></trkpt><trkpt lat="22.32081" lon="103.77079"><ele>2588.0</ele><time>2011-04-24T08:23:53.0000000+00:00</time></trkpt><trkpt lat="22.320822" lon="103.77079"><ele>2586.6</ele><time>2011-04-24T08:23:58.0000000+00:00</time></trkpt><trkpt lat="22.32085" lon="103.770813"><ele>2586.2</ele><time>2011-04-24T08:24:03.0000000+00:00</time></trkpt><trkpt lat="22.320898" lon="103.770821"><ele>2585.2</ele><time>2011-04-24T08:24:08.0000000+00:00</time></trkpt><trkpt lat="22.320946" lon="103.770836"><ele>2585.2</ele><time>2011-04-24T08:24:13.0000000+00:00</time></trkpt><trkpt lat="22.320976" lon="103.770859"><ele>2584.5</ele><time>2011-04-24T08:24:18.0000000+00:00</time></trkpt><trkpt lat="22.320984" lon="103.770859"><ele>2583.5</ele><time>2011-04-24T08:24:23.0000000+00:00</time></trkpt><trkpt lat="22.320988" lon="103.770866"><ele>2582.8</ele><time>2011-04-24T08:24:28.0000000+00:00</time></trkpt><trkpt lat="22.320992" lon="103.770866"><ele>2582.4</ele><time>2011-04-24T08:24:33.0000000+00:00</time></trkpt><trkpt lat="22.321014" lon="103.770889"><ele>2582.2</ele><time>2011-04-24T08:24:38.0000000+00:00</time></trkpt><trkpt lat="22.321051" lon="103.770897"><ele>2581.3</ele><time>2011-04-24T08:24:43.0000000+00:00</time></trkpt><trkpt lat="22.321075" lon="103.770905"><ele>2580.4</ele><time>2011-04-24T08:24:48.0000000+00:00</time></trkpt><trkpt lat="22.321098" lon="103.770889"><ele>2580.8</ele><time>2011-04-24T08:24:53.0000000+00:00</time></trkpt><trkpt lat="22.32111" lon="103.770882"><ele>2581.7</ele><time>2011-04-24T08:24:58.0000000+00:00</time></trkpt><trkpt lat="22.321106" lon="103.770882"><ele>2582.5</ele><time>2011-04-24T08:25:03.0000000+00:00</time></trkpt><trkpt lat="22.321115" lon="103.770874"><ele>2582.3</ele><time>2011-04-24T08:25:08.0000000+00:00</time></trkpt><trkpt lat="22.321142" lon="103.770866"><ele>2581.7</ele><time>2011-04-24T08:25:13.0000000+00:00</time></trkpt><trkpt lat="22.321171" lon="103.770874"><ele>2580.9</ele><time>2011-04-24T08:25:18.0000000+00:00</time></trkpt><trkpt lat="22.321188" lon="103.770882"><ele>2580.9</ele><time>2011-04-24T08:25:23.0000000+00:00</time></trkpt><trkpt lat="22.321215" lon="103.770882"><ele>2580.2</ele><time>2011-04-24T08:25:28.0000000+00:00</time></trkpt><trkpt lat="22.321257" lon="103.770905"><ele>2579.2</ele><time>2011-04-24T08:25:33.0000000+00:00</time></trkpt><trkpt lat="22.321278" lon="103.770927"><ele>2577.5</ele><time>2011-04-24T08:25:38.0000000+00:00</time></trkpt><trkpt lat="22.321304" lon="103.770927"><ele>2576.3</ele><time>2011-04-24T08:25:43.0000000+00:00</time></trkpt><trkpt lat="22.321321" lon="103.770927"><ele>2575.7</ele><time>2011-04-24T08:25:48.0000000+00:00</time></trkpt><trkpt lat="22.321335" lon="103.77092"><ele>2575.0</ele><time>2011-04-24T08:25:53.0000000+00:00</time></trkpt><trkpt lat="22.32135" lon="103.770912"><ele>2574.2</ele><time>2011-04-24T08:25:58.0000000+00:00</time></trkpt><trkpt lat="22.321369" lon="103.770927"><ele>2574.3</ele><time>2011-04-24T08:26:03.0000000+00:00</time></trkpt><trkpt lat="22.321386" lon="103.770935"><ele>2572.6</ele><time>2011-04-24T08:26:08.0000000+00:00</time></trkpt><trkpt lat="22.321409" lon="103.77092"><ele>2572.2</ele><time>2011-04-24T08:26:13.0000000+00:00</time></trkpt><trkpt lat="22.321438" lon="103.770905"><ele>2570.9</ele><time>2011-04-24T08:26:18.0000000+00:00</time></trkpt><trkpt lat="22.321493" lon="103.770912"><ele>2569.2</ele><time>2011-04-24T08:26:23.0000000+00:00</time></trkpt><trkpt lat="22.321539" lon="103.770912"><ele>2567.5</ele><time>2011-04-24T08:26:28.0000000+00:00</time></trkpt><trkpt lat="22.321589" lon="103.770897"><ele>2567.4</ele><time>2011-04-24T08:26:33.0000000+00:00</time></trkpt><trkpt lat="22.321619" lon="103.770897"><ele>2566.2</ele><time>2011-04-24T08:26:38.0000000+00:00</time></trkpt><trkpt lat="22.321615" lon="103.770905"><ele>2565.5</ele><time>2011-04-24T08:26:43.0000000+00:00</time></trkpt><trkpt lat="22.321613" lon="103.770905"><ele>2565.5</ele><time>2011-04-24T08:26:48.0000000+00:00</time></trkpt><trkpt lat="22.321615" lon="103.770912"><ele>2565.5</ele><time>2011-04-24T08:26:53.0000000+00:00</time></trkpt><trkpt lat="22.321619" lon="103.770912"><ele>2565.4</ele><time>2011-04-24T08:26:58.0000000+00:00</time></trkpt><trkpt lat="22.321623" lon="103.770912"><ele>2565.4</ele><time>2011-04-24T08:27:03.0000000+00:00</time></trkpt><trkpt lat="22.321623" lon="103.77092"><ele>2565.4</ele><time>2011-04-24T08:27:08.0000000+00:00</time></trkpt><trkpt lat="22.321621" lon="103.77092"><ele>2565.4</ele><time>2011-04-24T08:27:13.0000000+00:00</time></trkpt><trkpt lat="22.321608" lon="103.770912"><ele>2565.7</ele><time>2011-04-24T08:27:18.0000000+00:00</time></trkpt><trkpt lat="22.321629" lon="103.770889"><ele>2566.3</ele><time>2011-04-24T08:27:23.0000000+00:00</time></trkpt><trkpt lat="22.321657" lon="103.770889"><ele>2566.2</ele><time>2011-04-24T08:27:28.0000000+00:00</time></trkpt><trkpt lat="22.321692" lon="103.770889"><ele>2564.7</ele><time>2011-04-24T08:27:33.0000000+00:00</time></trkpt><trkpt lat="22.321699" lon="103.770905"><ele>2563.4</ele><time>2011-04-24T08:27:38.0000000+00:00</time></trkpt><trkpt lat="22.321709" lon="103.770912"><ele>2561.7</ele><time>2011-04-24T08:27:43.0000000+00:00</time></trkpt><trkpt lat="22.321716" lon="103.770912"><ele>2560.0</ele><time>2011-04-24T08:27:48.0000000+00:00</time></trkpt><trkpt lat="22.321724" lon="103.77092"><ele>2558.9</ele><time>2011-04-24T08:27:53.0000000+00:00</time></trkpt><trkpt lat="22.321739" lon="103.77092"><ele>2556.8</ele><time>2011-04-24T08:27:58.0000000+00:00</time></trkpt><trkpt lat="22.321764" lon="103.77092"><ele>2555.0</ele><time>2011-04-24T08:28:03.0000000+00:00</time></trkpt><trkpt lat="22.321777" lon="103.77092"><ele>2553.5</ele><time>2011-04-24T08:28:08.0000000+00:00</time></trkpt><trkpt lat="22.321789" lon="103.770943"><ele>2552.4</ele><time>2011-04-24T08:28:13.0000000+00:00</time></trkpt><trkpt lat="22.321806" lon="103.770935"><ele>2551.7</ele><time>2011-04-24T08:28:18.0000000+00:00</time></trkpt><trkpt lat="22.321835" lon="103.770935"><ele>2550.8</ele><time>2011-04-24T08:28:23.0000000+00:00</time></trkpt><trkpt lat="22.321848" lon="103.770958"><ele>2549.5</ele><time>2011-04-24T08:28:28.0000000+00:00</time></trkpt><trkpt lat="22.321859" lon="103.77095"><ele>2548.0</ele><time>2011-04-24T08:28:33.0000000+00:00</time></trkpt><trkpt lat="22.321861" lon="103.770927"><ele>2547.4</ele><time>2011-04-24T08:28:38.0000000+00:00</time></trkpt><trkpt lat="22.321882" lon="103.77092"><ele>2546.9</ele><time>2011-04-24T08:28:43.0000000+00:00</time></trkpt><trkpt lat="22.321913" lon="103.770912"><ele>2546.0</ele><time>2011-04-24T08:28:48.0000000+00:00</time></trkpt><trkpt lat="22.321943" lon="103.770905"><ele>2544.9</ele><time>2011-04-24T08:28:53.0000000+00:00</time></trkpt><trkpt lat="22.321974" lon="103.770897"><ele>2544.8</ele><time>2011-04-24T08:28:58.0000000+00:00</time></trkpt><trkpt lat="22.32197" lon="103.77092"><ele>2544.3</ele><time>2011-04-24T08:29:03.0000000+00:00</time></trkpt><trkpt lat="22.321974" lon="103.77092"><ele>2544.2</ele><time>2011-04-24T08:29:08.0000000+00:00</time></trkpt><trkpt lat="22.321991" lon="103.770912"><ele>2543.3</ele><time>2011-04-24T08:29:13.0000000+00:00</time></trkpt><trkpt lat="22.322004" lon="103.770905"><ele>2542.7</ele><time>2011-04-24T08:29:18.0000000+00:00</time></trkpt><trkpt lat="22.322018" lon="103.770889"><ele>2542.3</ele><time>2011-04-24T08:29:23.0000000+00:00</time></trkpt><trkpt lat="22.322048" lon="103.770897"><ele>2541.7</ele><time>2011-04-24T08:29:28.0000000+00:00</time></trkpt><trkpt lat="22.322067" lon="103.770912"><ele>2539.3</ele><time>2011-04-24T08:29:33.0000000+00:00</time></trkpt><trkpt lat="22.322081" lon="103.770897"><ele>2539.0</ele><time>2011-04-24T08:29:38.0000000+00:00</time></trkpt><trkpt lat="22.322088" lon="103.770874"><ele>2539.3</ele><time>2011-04-24T08:29:43.0000000+00:00</time></trkpt><trkpt lat="22.322113" lon="103.770844"><ele>2539.1</ele><time>2011-04-24T08:29:48.0000000+00:00</time></trkpt><trkpt lat="22.322144" lon="103.770828"><ele>2538.7</ele><time>2011-04-24T08:29:53.0000000+00:00</time></trkpt><trkpt lat="22.322138" lon="103.770836"><ele>2538.2</ele><time>2011-04-24T08:29:58.0000000+00:00</time></trkpt><trkpt lat="22.322155" lon="103.770821"><ele>2537.7</ele><time>2011-04-24T08:30:03.0000000+00:00</time></trkpt><trkpt lat="22.322172" lon="103.770813"><ele>2537.0</ele><time>2011-04-24T08:30:08.0000000+00:00</time></trkpt><trkpt lat="22.322187" lon="103.770813"><ele>2535.9</ele><time>2011-04-24T08:30:13.0000000+00:00</time></trkpt><trkpt lat="22.322206" lon="103.770813"><ele>2533.7</ele><time>2011-04-24T08:30:18.0000000+00:00</time></trkpt><trkpt lat="22.322237" lon="103.770828"><ele>2532.1</ele><time>2011-04-24T08:30:23.0000000+00:00</time></trkpt><trkpt lat="22.322258" lon="103.770813"><ele>2531.4</ele><time>2011-04-24T08:30:28.0000000+00:00</time></trkpt><trkpt lat="22.322315" lon="103.770805"><ele>2530.4</ele><time>2011-04-24T08:30:33.0000000+00:00</time></trkpt><trkpt lat="22.322369" lon="103.77079"><ele>2530.1</ele><time>2011-04-24T08:30:38.0000000+00:00</time></trkpt><trkpt lat="22.322369" lon="103.770782"><ele>2529.8</ele><time>2011-04-24T08:30:43.0000000+00:00</time></trkpt><trkpt lat="22.322395" lon="103.770813"><ele>2528.5</ele><time>2011-04-24T08:30:48.0000000+00:00</time></trkpt><trkpt lat="22.322393" lon="103.770859"><ele>2527.0</ele><time>2011-04-24T08:30:53.0000000+00:00</time></trkpt><trkpt lat="22.322405" lon="103.770866"><ele>2526.5</ele><time>2011-04-24T08:30:58.0000000+00:00</time></trkpt><trkpt lat="22.32242" lon="103.770866"><ele>2525.3</ele><time>2011-04-24T08:31:03.0000000+00:00</time></trkpt><trkpt lat="22.322426" lon="103.770874"><ele>2524.8</ele><time>2011-04-24T08:31:08.0000000+00:00</time></trkpt><trkpt lat="22.322439" lon="103.770905"><ele>2523.0</ele><time>2011-04-24T08:31:13.0000000+00:00</time></trkpt><trkpt lat="22.322451" lon="103.770912"><ele>2521.2</ele><time>2011-04-24T08:31:18.0000000+00:00</time></trkpt><trkpt lat="22.322454" lon="103.770912"><ele>2520.6</ele><time>2011-04-24T08:31:23.0000000+00:00</time></trkpt><trkpt lat="22.32246" lon="103.770912"><ele>2520.4</ele><time>2011-04-24T08:31:28.0000000+00:00</time></trkpt><trkpt lat="22.322464" lon="103.770912"><ele>2519.5</ele><time>2011-04-24T08:31:33.0000000+00:00</time></trkpt><trkpt lat="22.322466" lon="103.77092"><ele>2518.7</ele><time>2011-04-24T08:31:38.0000000+00:00</time></trkpt><trkpt lat="22.322464" lon="103.770943"><ele>2515.6</ele><time>2011-04-24T08:31:43.0000000+00:00</time></trkpt><trkpt lat="22.322464" lon="103.770943"><ele>2514.7</ele><time>2011-04-24T08:31:48.0000000+00:00</time></trkpt><trkpt lat="22.322466" lon="103.770943"><ele>2513.6</ele><time>2011-04-24T08:31:53.0000000+00:00</time></trkpt><trkpt lat="22.322474" lon="103.77095"><ele>2512.5</ele><time>2011-04-24T08:31:58.0000000+00:00</time></trkpt><trkpt lat="22.322481" lon="103.770966"><ele>2511.7</ele><time>2011-04-24T08:32:03.0000000+00:00</time></trkpt><trkpt lat="22.322487" lon="103.770966"><ele>2510.5</ele><time>2011-04-24T08:32:08.0000000+00:00</time></trkpt><trkpt lat="22.322477" lon="103.770973"><ele>2509.6</ele><time>2011-04-24T08:32:13.0000000+00:00</time></trkpt><trkpt lat="22.322479" lon="103.770973"><ele>2508.5</ele><time>2011-04-24T08:32:18.0000000+00:00</time></trkpt><trkpt lat="22.322477" lon="103.770981"><ele>2507.7</ele><time>2011-04-24T08:32:23.0000000+00:00</time></trkpt><trkpt lat="22.322477" lon="103.770988"><ele>2507.1</ele><time>2011-04-24T08:32:28.0000000+00:00</time></trkpt><trkpt lat="22.322481" lon="103.770988"><ele>2506.5</ele><time>2011-04-24T08:32:33.0000000+00:00</time></trkpt><trkpt lat="22.322481" lon="103.770996"><ele>2505.9</ele><time>2011-04-24T08:32:38.0000000+00:00</time></trkpt><trkpt lat="22.322491" lon="103.770988"><ele>2504.8</ele><time>2011-04-24T08:32:43.0000000+00:00</time></trkpt><trkpt lat="22.322498" lon="103.770973"><ele>2504.0</ele><time>2011-04-24T08:32:48.0000000+00:00</time></trkpt><trkpt lat="22.322504" lon="103.770973"><ele>2503.4</ele><time>2011-04-24T08:32:53.0000000+00:00</time></trkpt><trkpt lat="22.322504" lon="103.770973"><ele>2502.9</ele><time>2011-04-24T08:32:58.0000000+00:00</time></trkpt><trkpt lat="22.322502" lon="103.770973"><ele>2502.4</ele><time>2011-04-24T08:33:03.0000000+00:00</time></trkpt><trkpt lat="22.3225" lon="103.770973"><ele>2502.0</ele><time>2011-04-24T08:33:08.0000000+00:00</time></trkpt><trkpt lat="22.322502" lon="103.770973"><ele>2501.6</ele><time>2011-04-24T08:33:13.0000000+00:00</time></trkpt><trkpt lat="22.322502" lon="103.770973"><ele>2501.4</ele><time>2011-04-24T08:33:18.0000000+00:00</time></trkpt><trkpt lat="22.322502" lon="103.770973"><ele>2501.4</ele><time>2011-04-24T08:33:23.0000000+00:00</time></trkpt><trkpt lat="22.322502" lon="103.770973"><ele>2501.4</ele><time>2011-04-24T08:33:28.0000000+00:00</time></trkpt><trkpt lat="22.322502" lon="103.770973"><ele>2501.3</ele><time>2011-04-24T08:33:33.0000000+00:00</time></trkpt><trkpt lat="22.322504" lon="103.770973"><ele>2501.3</ele><time>2011-04-24T08:33:38.0000000+00:00</time></trkpt><trkpt lat="22.322504" lon="103.770973"><ele>2501.3</ele><time>2011-04-24T08:33:43.0000000+00:00</time></trkpt><trkpt lat="22.322504" lon="103.770973"><ele>2501.3</ele><time>2011-04-24T08:33:48.0000000+00:00</time></trkpt><trkpt lat="22.322504" lon="103.770973"><ele>2501.3</ele><time>2011-04-24T08:33:53.0000000+00:00</time></trkpt><trkpt lat="22.322504" lon="103.770973"><ele>2501.2</ele><time>2011-04-24T08:33:58.0000000+00:00</time></trkpt><trkpt lat="22.322506" lon="103.770973"><ele>2501.2</ele><time>2011-04-24T08:34:03.0000000+00:00</time></trkpt><trkpt lat="22.32251" lon="103.770973"><ele>2501.2</ele><time>2011-04-24T08:34:08.0000000+00:00</time></trkpt><trkpt lat="22.322519" lon="103.770973"><ele>2501.1</ele><time>2011-04-24T08:34:13.0000000+00:00</time></trkpt><trkpt lat="22.322535" lon="103.770966"><ele>2500.6</ele><time>2011-04-24T08:34:18.0000000+00:00</time></trkpt><trkpt lat="22.322557" lon="103.770905"><ele>2499.8</ele><time>2011-04-24T08:34:23.0000000+00:00</time></trkpt><trkpt lat="22.322567" lon="103.770866"><ele>2498.6</ele><time>2011-04-24T08:34:28.0000000+00:00</time></trkpt><trkpt lat="22.322582" lon="103.770813"><ele>2498.0</ele><time>2011-04-24T08:34:33.0000000+00:00</time></trkpt><trkpt lat="22.322557" lon="103.770775"><ele>2497.2</ele><time>2011-04-24T08:34:38.0000000+00:00</time></trkpt><trkpt lat="22.322588" lon="103.770744"><ele>2497.3</ele><time>2011-04-24T08:34:43.0000000+00:00</time></trkpt><trkpt lat="22.322622" lon="103.770721"><ele>2496.3</ele><time>2011-04-24T08:34:48.0000000+00:00</time></trkpt><trkpt lat="22.322647" lon="103.770691"><ele>2496.1</ele><time>2011-04-24T08:34:53.0000000+00:00</time></trkpt><trkpt lat="22.322683" lon="103.770668"><ele>2495.4</ele><time>2011-04-24T08:34:58.0000000+00:00</time></trkpt><trkpt lat="22.322691" lon="103.770653"><ele>2493.3</ele><time>2011-04-24T08:35:03.0000000+00:00</time></trkpt><trkpt lat="22.322697" lon="103.770653"><ele>2490.9</ele><time>2011-04-24T08:35:08.0000000+00:00</time></trkpt><trkpt lat="22.322716" lon="103.770668"><ele>2489.3</ele><time>2011-04-24T08:35:13.0000000+00:00</time></trkpt><trkpt lat="22.322714" lon="103.770721"><ele>2486.3</ele><time>2011-04-24T08:35:18.0000000+00:00</time></trkpt><trkpt lat="22.322733" lon="103.770737"><ele>2484.3</ele><time>2011-04-24T08:35:23.0000000+00:00</time></trkpt><trkpt lat="22.322752" lon="103.77076"><ele>2483.1</ele><time>2011-04-24T08:35:28.0000000+00:00</time></trkpt><trkpt lat="22.322777" lon="103.770782"><ele>2481.3</ele><time>2011-04-24T08:35:33.0000000+00:00</time></trkpt><trkpt lat="22.3228" lon="103.770828"><ele>2479.3</ele><time>2011-04-24T08:35:38.0000000+00:00</time></trkpt><trkpt lat="22.322823" lon="103.770859"><ele>2477.4</ele><time>2011-04-24T08:35:43.0000000+00:00</time></trkpt><trkpt lat="22.32284" lon="103.770882"><ele>2476.2</ele><time>2011-04-24T08:35:48.0000000+00:00</time></trkpt><trkpt lat="22.322866" lon="103.770889"><ele>2474.7</ele><time>2011-04-24T08:35:53.0000000+00:00</time></trkpt><trkpt lat="22.322901" lon="103.770859"><ele>2472.6</ele><time>2011-04-24T08:35:58.0000000+00:00</time></trkpt><trkpt lat="22.322941" lon="103.770828"><ele>2471.1</ele><time>2011-04-24T08:36:03.0000000+00:00</time></trkpt><trkpt lat="22.322966" lon="103.770851"><ele>2470.3</ele><time>2011-04-24T08:36:08.0000000+00:00</time></trkpt><trkpt lat="22.322979" lon="103.770866"><ele>2469.5</ele><time>2011-04-24T08:36:13.0000000+00:00</time></trkpt><trkpt lat="22.323023" lon="103.770897"><ele>2468.6</ele><time>2011-04-24T08:36:18.0000000+00:00</time></trkpt><trkpt lat="22.323036" lon="103.770905"><ele>2468.9</ele><time>2011-04-24T08:36:23.0000000+00:00</time></trkpt><trkpt lat="22.32304" lon="103.770912"><ele>2468.9</ele><time>2011-04-24T08:36:28.0000000+00:00</time></trkpt><trkpt lat="22.323055" lon="103.770935"><ele>2468.7</ele><time>2011-04-24T08:36:33.0000000+00:00</time></trkpt><trkpt lat="22.323061" lon="103.770935"><ele>2468.3</ele><time>2011-04-24T08:36:38.0000000+00:00</time></trkpt><trkpt lat="22.323061" lon="103.770935"><ele>2468.3</ele><time>2011-04-24T08:36:43.0000000+00:00</time></trkpt><trkpt lat="22.323078" lon="103.770966"><ele>2468.0</ele><time>2011-04-24T08:36:48.0000000+00:00</time></trkpt><trkpt lat="22.323086" lon="103.771004"><ele>2467.3</ele><time>2011-04-24T08:36:53.0000000+00:00</time></trkpt><trkpt lat="22.323074" lon="103.770996"><ele>2467.0</ele><time>2011-04-24T08:36:58.0000000+00:00</time></trkpt><trkpt lat="22.323078" lon="103.771004"><ele>2467.2</ele><time>2011-04-24T08:37:03.0000000+00:00</time></trkpt><trkpt lat="22.32308" lon="103.771011"><ele>2467.4</ele><time>2011-04-24T08:37:08.0000000+00:00</time></trkpt><trkpt lat="22.32308" lon="103.771011"><ele>2467.5</ele><time>2011-04-24T08:37:13.0000000+00:00</time></trkpt><trkpt lat="22.323082" lon="103.771011"><ele>2467.7</ele><time>2011-04-24T08:37:18.0000000+00:00</time></trkpt><trkpt lat="22.323084" lon="103.771011"><ele>2467.2</ele><time>2011-04-24T08:37:23.0000000+00:00</time></trkpt><trkpt lat="22.323074" lon="103.771034"><ele>2467.6</ele><time>2011-04-24T08:37:28.0000000+00:00</time></trkpt><trkpt lat="22.323076" lon="103.771042"><ele>2467.0</ele><time>2011-04-24T08:37:33.0000000+00:00</time></trkpt><trkpt lat="22.323065" lon="103.771065"><ele>2467.8</ele><time>2011-04-24T08:37:38.0000000+00:00</time></trkpt><trkpt lat="22.323076" lon="103.771065"><ele>2468.6</ele><time>2011-04-24T08:37:43.0000000+00:00</time></trkpt><trkpt lat="22.323092" lon="103.771049"><ele>2469.1</ele><time>2011-04-24T08:37:48.0000000+00:00</time></trkpt><trkpt lat="22.323092" lon="103.771072"><ele>2466.5</ele><time>2011-04-24T08:37:53.0000000+00:00</time></trkpt><trkpt lat="22.323114" lon="103.771095"><ele>2466.1</ele><time>2011-04-24T08:37:58.0000000+00:00</time></trkpt><trkpt lat="22.323133" lon="103.771118"><ele>2467.0</ele><time>2011-04-24T08:38:03.0000000+00:00</time></trkpt><trkpt lat="22.323132" lon="103.771118"><ele>2467.2</ele><time>2011-04-24T08:38:08.0000000+00:00</time></trkpt><trkpt lat="22.323132" lon="103.771118"><ele>2467.1</ele><time>2011-04-24T08:38:13.0000000+00:00</time></trkpt><trkpt lat="22.323132" lon="103.771118"><ele>2467.0</ele><time>2011-04-24T08:38:18.0000000+00:00</time></trkpt><trkpt lat="22.323149" lon="103.771126"><ele>2466.7</ele><time>2011-04-24T08:38:23.0000000+00:00</time></trkpt><trkpt lat="22.323158" lon="103.771126"><ele>2467.3</ele><time>2011-04-24T08:38:28.0000000+00:00</time></trkpt><trkpt lat="22.323158" lon="103.771133"><ele>2467.2</ele><time>2011-04-24T08:38:33.0000000+00:00</time></trkpt><trkpt lat="22.323162" lon="103.771126"><ele>2467.1</ele><time>2011-04-24T08:38:38.0000000+00:00</time></trkpt><trkpt lat="22.32316" lon="103.771126"><ele>2467.0</ele><time>2011-04-24T08:38:43.0000000+00:00</time></trkpt><trkpt lat="22.32316" lon="103.771126"><ele>2467.0</ele><time>2011-04-24T08:38:48.0000000+00:00</time></trkpt><trkpt lat="22.323162" lon="103.771126"><ele>2467.1</ele><time>2011-04-24T08:38:53.0000000+00:00</time></trkpt><trkpt lat="22.323162" lon="103.771126"><ele>2467.1</ele><time>2011-04-24T08:38:58.0000000+00:00</time></trkpt><trkpt lat="22.323162" lon="103.771126"><ele>2467.0</ele><time>2011-04-24T08:39:03.0000000+00:00</time></trkpt><trkpt lat="22.323162" lon="103.771126"><ele>2467.0</ele><time>2011-04-24T08:39:08.0000000+00:00</time></trkpt><trkpt lat="22.323162" lon="103.771133"><ele>2467.0</ele><time>2011-04-24T08:39:13.0000000+00:00</time></trkpt><trkpt lat="22.323162" lon="103.771133"><ele>2467.0</ele><time>2011-04-24T08:39:18.0000000+00:00</time></trkpt><trkpt lat="22.323183" lon="103.771118"><ele>2466.6</ele><time>2011-04-24T08:39:23.0000000+00:00</time></trkpt><trkpt lat="22.323195" lon="103.771103"><ele>2466.8</ele><time>2011-04-24T08:39:28.0000000+00:00</time></trkpt><trkpt lat="22.323198" lon="103.771103"><ele>2466.9</ele><time>2011-04-24T08:39:33.0000000+00:00</time></trkpt><trkpt lat="22.323198" lon="103.771103"><ele>2467.0</ele><time>2011-04-24T08:39:38.0000000+00:00</time></trkpt><trkpt lat="22.3232" lon="103.771103"><ele>2467.1</ele><time>2011-04-24T08:39:43.0000000+00:00</time></trkpt><trkpt lat="22.3232" lon="103.771103"><ele>2467.0</ele><time>2011-04-24T08:39:48.0000000+00:00</time></trkpt><trkpt lat="22.3232" lon="103.771103"><ele>2467.0</ele><time>2011-04-24T08:39:53.0000000+00:00</time></trkpt><trkpt lat="22.3232" lon="103.771103"><ele>2467.0</ele><time>2011-04-24T08:39:58.0000000+00:00</time></trkpt><trkpt lat="22.3232" lon="103.771103"><ele>2467.0</ele><time>2011-04-24T08:40:03.0000000+00:00</time></trkpt><trkpt lat="22.3232" lon="103.771103"><ele>2467.0</ele><time>2011-04-24T08:40:08.0000000+00:00</time></trkpt><trkpt lat="22.3232" lon="103.771103"><ele>2467.0</ele><time>2011-04-24T08:40:13.0000000+00:00</time></trkpt><trkpt lat="22.3232" lon="103.771103"><ele>2467.0</ele><time>2011-04-24T08:40:18.0000000+00:00</time></trkpt><trkpt lat="22.3232" lon="103.771103"><ele>2467.0</ele><time>2011-04-24T08:40:23.0000000+00:00</time></trkpt><trkpt lat="22.3232" lon="103.771103"><ele>2467.0</ele><time>2011-04-24T08:40:28.0000000+00:00</time></trkpt><trkpt lat="22.3232" lon="103.771103"><ele>2467.0</ele><time>2011-04-24T08:40:33.0000000+00:00</time></trkpt><trkpt lat="22.3232" lon="103.771103"><ele>2466.9</ele><time>2011-04-24T08:40:38.0000000+00:00</time></trkpt><trkpt lat="22.3232" lon="103.771103"><ele>2466.9</ele><time>2011-04-24T08:40:43.0000000+00:00</time></trkpt><trkpt lat="22.3232" lon="103.771103"><ele>2466.9</ele><time>2011-04-24T08:40:48.0000000+00:00</time></trkpt><trkpt lat="22.3232" lon="103.771103"><ele>2466.9</ele><time>2011-04-24T08:40:53.0000000+00:00</time></trkpt><trkpt lat="22.323198" lon="103.771103"><ele>2466.9</ele><time>2011-04-24T08:40:58.0000000+00:00</time></trkpt><trkpt lat="22.323198" lon="103.771103"><ele>2466.9</ele><time>2011-04-24T08:41:03.0000000+00:00</time></trkpt><trkpt lat="22.323198" lon="103.771103"><ele>2466.9</ele><time>2011-04-24T08:41:08.0000000+00:00</time></trkpt><trkpt lat="22.323198" lon="103.771103"><ele>2466.9</ele><time>2011-04-24T08:41:13.0000000+00:00</time></trkpt><trkpt lat="22.323198" lon="103.771103"><ele>2466.8</ele><time>2011-04-24T08:41:18.0000000+00:00</time></trkpt><trkpt lat="22.323198" lon="103.771103"><ele>2466.8</ele><time>2011-04-24T08:41:23.0000000+00:00</time></trkpt><trkpt lat="22.323198" lon="103.771103"><ele>2466.8</ele><time>2011-04-24T08:41:28.0000000+00:00</time></trkpt><trkpt lat="22.323198" lon="103.771103"><ele>2466.8</ele><time>2011-04-24T08:41:33.0000000+00:00</time></trkpt><trkpt lat="22.323198" lon="103.771103"><ele>2466.8</ele><time>2011-04-24T08:41:38.0000000+00:00</time></trkpt><trkpt lat="22.323198" lon="103.771103"><ele>2466.8</ele><time>2011-04-24T08:41:43.0000000+00:00</time></trkpt><trkpt lat="22.323198" lon="103.771103"><ele>2466.8</ele><time>2011-04-24T08:41:48.0000000+00:00</time></trkpt><trkpt lat="22.323198" lon="103.771103"><ele>2466.8</ele><time>2011-04-24T08:41:53.0000000+00:00</time></trkpt><trkpt lat="22.323198" lon="103.771103"><ele>2466.8</ele><time>2011-04-24T08:41:58.0000000+00:00</time></trkpt><trkpt lat="22.323198" lon="103.771103"><ele>2466.8</ele><time>2011-04-24T08:42:03.0000000+00:00</time></trkpt><trkpt lat="22.323198" lon="103.771103"><ele>2466.9</ele><time>2011-04-24T08:42:08.0000000+00:00</time></trkpt><trkpt lat="22.323198" lon="103.771103"><ele>2466.9</ele><time>2011-04-24T08:42:13.0000000+00:00</time></trkpt><trkpt lat="22.323198" lon="103.771103"><ele>2466.9</ele><time>2011-04-24T08:42:18.0000000+00:00</time></trkpt><trkpt lat="22.323198" lon="103.771103"><ele>2466.9</ele><time>2011-04-24T08:42:23.0000000+00:00</time></trkpt><trkpt lat="22.323198" lon="103.771103"><ele>2466.9</ele><time>2011-04-24T08:42:28.0000000+00:00</time></trkpt><trkpt lat="22.323198" lon="103.771103"><ele>2466.9</ele><time>2011-04-24T08:42:33.0000000+00:00</time></trkpt><trkpt lat="22.323198" lon="103.771111"><ele>2466.9</ele><time>2011-04-24T08:42:38.0000000+00:00</time></trkpt><trkpt lat="22.323198" lon="103.771111"><ele>2466.9</ele><time>2011-04-24T08:42:43.0000000+00:00</time></trkpt><trkpt lat="22.323198" lon="103.771111"><ele>2466.9</ele><time>2011-04-24T08:42:48.0000000+00:00</time></trkpt><trkpt lat="22.323198" lon="103.771103"><ele>2467.0</ele><time>2011-04-24T08:42:53.0000000+00:00</time></trkpt><trkpt lat="22.323196" lon="103.771103"><ele>2467.1</ele><time>2011-04-24T08:42:58.0000000+00:00</time></trkpt><trkpt lat="22.323195" lon="103.771103"><ele>2467.9</ele><time>2011-04-24T08:43:03.0000000+00:00</time></trkpt><trkpt lat="22.323193" lon="103.771103"><ele>2468.3</ele><time>2011-04-24T08:43:08.0000000+00:00</time></trkpt><trkpt lat="22.323191" lon="103.771103"><ele>2468.8</ele><time>2011-04-24T08:43:13.0000000+00:00</time></trkpt><trkpt lat="22.323189" lon="103.771103"><ele>2469.6</ele><time>2011-04-24T08:43:18.0000000+00:00</time></trkpt><trkpt lat="22.323187" lon="103.771095"><ele>2470.3</ele><time>2011-04-24T08:43:23.0000000+00:00</time></trkpt><trkpt lat="22.323185" lon="103.771095"><ele>2470.3</ele><time>2011-04-24T08:43:28.0000000+00:00</time></trkpt><trkpt lat="22.323185" lon="103.771103"><ele>2470.4</ele><time>2011-04-24T08:43:33.0000000+00:00</time></trkpt><trkpt lat="22.323187" lon="103.771103"><ele>2469.9</ele><time>2011-04-24T08:43:38.0000000+00:00</time></trkpt><trkpt lat="22.323191" lon="103.771103"><ele>2469.9</ele><time>2011-04-24T08:43:43.0000000+00:00</time></trkpt><trkpt lat="22.323191" lon="103.771103"><ele>2469.9</ele><time>2011-04-24T08:43:48.0000000+00:00</time></trkpt><trkpt lat="22.323191" lon="103.771103"><ele>2469.8</ele><time>2011-04-24T08:43:53.0000000+00:00</time></trkpt><trkpt lat="22.323191" lon="103.771103"><ele>2469.8</ele><time>2011-04-24T08:43:58.0000000+00:00</time></trkpt><trkpt lat="22.323191" lon="103.771103"><ele>2469.8</ele><time>2011-04-24T08:44:03.0000000+00:00</time></trkpt><trkpt lat="22.323191" lon="103.771103"><ele>2469.9</ele><time>2011-04-24T08:44:08.0000000+00:00</time></trkpt><trkpt lat="22.323187" lon="103.771111"><ele>2469.4</ele><time>2011-04-24T08:44:13.0000000+00:00</time></trkpt><trkpt lat="22.323187" lon="103.771111"><ele>2469.4</ele><time>2011-04-24T08:44:18.0000000+00:00</time></trkpt><trkpt lat="22.323187" lon="103.771111"><ele>2469.3</ele><time>2011-04-24T08:44:23.0000000+00:00</time></trkpt><trkpt lat="22.323187" lon="103.771111"><ele>2469.3</ele><time>2011-04-24T08:44:28.0000000+00:00</time></trkpt><trkpt lat="22.323187" lon="103.771111"><ele>2469.4</ele><time>2011-04-24T08:44:33.0000000+00:00</time></trkpt><trkpt lat="22.323187" lon="103.771111"><ele>2469.4</ele><time>2011-04-24T08:44:38.0000000+00:00</time></trkpt><trkpt lat="22.323187" lon="103.771111"><ele>2469.4</ele><time>2011-04-24T08:44:43.0000000+00:00</time></trkpt><trkpt lat="22.323187" lon="103.771111"><ele>2469.4</ele><time>2011-04-24T08:44:48.0000000+00:00</time></trkpt><trkpt lat="22.323187" lon="103.771111"><ele>2469.4</ele><time>2011-04-24T08:44:53.0000000+00:00</time></trkpt><trkpt lat="22.323187" lon="103.771111"><ele>2469.4</ele><time>2011-04-24T08:44:58.0000000+00:00</time></trkpt><trkpt lat="22.323187" lon="103.771111"><ele>2469.4</ele><time>2011-04-24T08:45:03.0000000+00:00</time></trkpt><trkpt lat="22.323187" lon="103.771111"><ele>2469.4</ele><time>2011-04-24T08:45:08.0000000+00:00</time></trkpt><trkpt lat="22.323187" lon="103.771111"><ele>2469.4</ele><time>2011-04-24T08:45:13.0000000+00:00</time></trkpt><trkpt lat="22.323187" lon="103.771111"><ele>2469.4</ele><time>2011-04-24T08:45:18.0000000+00:00</time></trkpt><trkpt lat="22.323187" lon="103.771111"><ele>2469.4</ele><time>2011-04-24T08:45:23.0000000+00:00</time></trkpt><trkpt lat="22.323187" lon="103.771111"><ele>2469.4</ele><time>2011-04-24T08:45:28.0000000+00:00</time></trkpt><trkpt lat="22.323187" lon="103.771111"><ele>2469.4</ele><time>2011-04-24T08:45:33.0000000+00:00</time></trkpt><trkpt lat="22.323187" lon="103.771111"><ele>2469.4</ele><time>2011-04-24T08:45:38.0000000+00:00</time></trkpt><trkpt lat="22.323187" lon="103.771111"><ele>2469.4</ele><time>2011-04-24T08:45:43.0000000+00:00</time></trkpt><trkpt lat="22.323187" lon="103.771111"><ele>2469.4</ele><time>2011-04-24T08:45:48.0000000+00:00</time></trkpt><trkpt lat="22.323187" lon="103.771111"><ele>2469.4</ele><time>2011-04-24T08:45:53.0000000+00:00</time></trkpt><trkpt lat="22.323189" lon="103.771111"><ele>2469.4</ele><time>2011-04-24T08:45:58.0000000+00:00</time></trkpt><trkpt lat="22.323191" lon="103.771118"><ele>2469.4</ele><time>2011-04-24T08:46:03.0000000+00:00</time></trkpt><trkpt lat="22.323214" lon="103.771126"><ele>2468.6</ele><time>2011-04-24T08:46:08.0000000+00:00</time></trkpt><trkpt lat="22.323231" lon="103.771141"><ele>2466.5</ele><time>2011-04-24T08:46:13.0000000+00:00</time></trkpt><trkpt lat="22.323244" lon="103.771141"><ele>2465.4</ele><time>2011-04-24T08:46:18.0000000+00:00</time></trkpt><trkpt lat="22.323265" lon="103.771141"><ele>2464.3</ele><time>2011-04-24T08:46:23.0000000+00:00</time></trkpt><trkpt lat="22.323301" lon="103.771141"><ele>2463.0</ele><time>2011-04-24T08:46:28.0000000+00:00</time></trkpt><trkpt lat="22.323332" lon="103.771149"><ele>2461.4</ele><time>2011-04-24T08:46:33.0000000+00:00</time></trkpt><trkpt lat="22.323351" lon="103.771156"><ele>2460.3</ele><time>2011-04-24T08:46:38.0000000+00:00</time></trkpt><trkpt lat="22.323364" lon="103.771156"><ele>2458.4</ele><time>2011-04-24T08:46:43.0000000+00:00</time></trkpt><trkpt lat="22.323387" lon="103.771164"><ele>2456.9</ele><time>2011-04-24T08:46:48.0000000+00:00</time></trkpt><trkpt lat="22.323406" lon="103.771164"><ele>2455.5</ele><time>2011-04-24T08:46:53.0000000+00:00</time></trkpt><trkpt lat="22.323433" lon="103.771164"><ele>2454.8</ele><time>2011-04-24T08:46:58.0000000+00:00</time></trkpt><trkpt lat="22.323454" lon="103.771164"><ele>2454.1</ele><time>2011-04-24T08:47:03.0000000+00:00</time></trkpt><trkpt lat="22.323473" lon="103.771187"><ele>2453.2</ele><time>2011-04-24T08:47:08.0000000+00:00</time></trkpt><trkpt lat="22.323483" lon="103.771217"><ele>2451.3</ele><time>2011-04-24T08:47:13.0000000+00:00</time></trkpt><trkpt lat="22.323498" lon="103.77124"><ele>2450.3</ele><time>2011-04-24T08:47:18.0000000+00:00</time></trkpt><trkpt lat="22.323509" lon="103.771271"><ele>2449.0</ele><time>2011-04-24T08:47:23.0000000+00:00</time></trkpt><trkpt lat="22.323524" lon="103.771286"><ele>2448.5</ele><time>2011-04-24T08:47:28.0000000+00:00</time></trkpt><trkpt lat="22.323536" lon="103.771301"><ele>2448.3</ele><time>2011-04-24T08:47:33.0000000+00:00</time></trkpt><trkpt lat="22.323547" lon="103.771317"><ele>2447.5</ele><time>2011-04-24T08:47:38.0000000+00:00</time></trkpt><trkpt lat="22.323545" lon="103.771317"><ele>2446.8</ele><time>2011-04-24T08:47:43.0000000+00:00</time></trkpt><trkpt lat="22.323549" lon="103.771317"><ele>2446.3</ele><time>2011-04-24T08:47:48.0000000+00:00</time></trkpt><trkpt lat="22.323565" lon="103.771332"><ele>2445.3</ele><time>2011-04-24T08:47:53.0000000+00:00</time></trkpt><trkpt lat="22.323578" lon="103.771362"><ele>2444.8</ele><time>2011-04-24T08:47:58.0000000+00:00</time></trkpt><trkpt lat="22.323582" lon="103.771378"><ele>2444.3</ele><time>2011-04-24T08:48:03.0000000+00:00</time></trkpt><trkpt lat="22.323587" lon="103.771378"><ele>2444.3</ele><time>2011-04-24T08:48:08.0000000+00:00</time></trkpt><trkpt lat="22.323605" lon="103.771408"><ele>2444.0</ele><time>2011-04-24T08:48:13.0000000+00:00</time></trkpt><trkpt lat="22.323668" lon="103.771408"><ele>2443.7</ele><time>2011-04-24T08:48:18.0000000+00:00</time></trkpt><trkpt lat="22.323713" lon="103.771408"><ele>2444.4</ele><time>2011-04-24T08:48:23.0000000+00:00</time></trkpt><trkpt lat="22.32374" lon="103.771431"><ele>2443.0</ele><time>2011-04-24T08:48:28.0000000+00:00</time></trkpt><trkpt lat="22.32374" lon="103.771431"><ele>2442.7</ele><time>2011-04-24T08:48:33.0000000+00:00</time></trkpt><trkpt lat="22.323757" lon="103.771431"><ele>2441.4</ele><time>2011-04-24T08:48:38.0000000+00:00</time></trkpt><trkpt lat="22.323761" lon="103.771439"><ele>2440.3</ele><time>2011-04-24T08:48:43.0000000+00:00</time></trkpt><trkpt lat="22.323771" lon="103.771431"><ele>2439.4</ele><time>2011-04-24T08:48:48.0000000+00:00</time></trkpt><trkpt lat="22.32378" lon="103.771431"><ele>2438.7</ele><time>2011-04-24T08:48:53.0000000+00:00</time></trkpt><trkpt lat="22.32379" lon="103.771423"><ele>2437.7</ele><time>2011-04-24T08:48:58.0000000+00:00</time></trkpt><trkpt lat="22.323797" lon="103.771423"><ele>2436.5</ele><time>2011-04-24T08:49:03.0000000+00:00</time></trkpt><trkpt lat="22.323805" lon="103.771423"><ele>2435.0</ele><time>2011-04-24T08:49:08.0000000+00:00</time></trkpt><trkpt lat="22.323811" lon="103.771408"><ele>2434.7</ele><time>2011-04-24T08:49:13.0000000+00:00</time></trkpt><trkpt lat="22.323822" lon="103.7714"><ele>2434.2</ele><time>2011-04-24T08:49:18.0000000+00:00</time></trkpt><trkpt lat="22.32383" lon="103.771408"><ele>2433.6</ele><time>2011-04-24T08:49:23.0000000+00:00</time></trkpt><trkpt lat="22.323843" lon="103.771416"><ele>2432.4</ele><time>2011-04-24T08:49:28.0000000+00:00</time></trkpt><trkpt lat="22.323847" lon="103.771416"><ele>2431.5</ele><time>2011-04-24T08:49:33.0000000+00:00</time></trkpt><trkpt lat="22.323856" lon="103.771423"><ele>2430.1</ele><time>2011-04-24T08:49:38.0000000+00:00</time></trkpt><trkpt lat="22.323866" lon="103.771431"><ele>2429.3</ele><time>2011-04-24T08:49:43.0000000+00:00</time></trkpt><trkpt lat="22.323879" lon="103.771439"><ele>2428.7</ele><time>2011-04-24T08:49:48.0000000+00:00</time></trkpt><trkpt lat="22.323887" lon="103.771439"><ele>2428.4</ele><time>2011-04-24T08:49:53.0000000+00:00</time></trkpt><trkpt lat="22.323898" lon="103.771446"><ele>2427.5</ele><time>2011-04-24T08:49:58.0000000+00:00</time></trkpt><trkpt lat="22.323917" lon="103.771439"><ele>2426.7</ele><time>2011-04-24T08:50:03.0000000+00:00</time></trkpt><trkpt lat="22.323942" lon="103.771454"><ele>2425.4</ele><time>2011-04-24T08:50:08.0000000+00:00</time></trkpt><trkpt lat="22.323961" lon="103.771461"><ele>2424.3</ele><time>2011-04-24T08:50:13.0000000+00:00</time></trkpt><trkpt lat="22.323975" lon="103.771477"><ele>2423.1</ele><time>2011-04-24T08:50:18.0000000+00:00</time></trkpt><trkpt lat="22.323975" lon="103.771477"><ele>2423.2</ele><time>2011-04-24T08:50:23.0000000+00:00</time></trkpt><trkpt lat="22.323984" lon="103.771477"><ele>2423.3</ele><time>2011-04-24T08:50:28.0000000+00:00</time></trkpt><trkpt lat="22.324005" lon="103.771461"><ele>2422.2</ele><time>2011-04-24T08:50:33.0000000+00:00</time></trkpt><trkpt lat="22.32402" lon="103.771446"><ele>2421.3</ele><time>2011-04-24T08:50:38.0000000+00:00</time></trkpt><trkpt lat="22.324043" lon="103.771423"><ele>2419.5</ele><time>2011-04-24T08:50:43.0000000+00:00</time></trkpt><trkpt lat="22.324045" lon="103.771423"><ele>2419.7</ele><time>2011-04-24T08:50:48.0000000+00:00</time></trkpt><trkpt lat="22.324043" lon="103.771423"><ele>2419.5</ele><time>2011-04-24T08:50:53.0000000+00:00</time></trkpt><trkpt lat="22.324047" lon="103.771423"><ele>2419.5</ele><time>2011-04-24T08:50:58.0000000+00:00</time></trkpt><trkpt lat="22.324062" lon="103.771416"><ele>2418.9</ele><time>2011-04-24T08:51:03.0000000+00:00</time></trkpt><trkpt lat="22.324074" lon="103.771416"><ele>2417.3</ele><time>2011-04-24T08:51:08.0000000+00:00</time></trkpt><trkpt lat="22.324085" lon="103.771408"><ele>2415.8</ele><time>2011-04-24T08:51:13.0000000+00:00</time></trkpt><trkpt lat="22.324106" lon="103.771408"><ele>2414.3</ele><time>2011-04-24T08:51:18.0000000+00:00</time></trkpt><trkpt lat="22.324114" lon="103.771408"><ele>2413.3</ele><time>2011-04-24T08:51:23.0000000+00:00</time></trkpt><trkpt lat="22.324121" lon="103.771408"><ele>2412.8</ele><time>2011-04-24T08:51:28.0000000+00:00</time></trkpt><trkpt lat="22.324144" lon="103.771416"><ele>2412.7</ele><time>2011-04-24T08:51:33.0000000+00:00</time></trkpt><trkpt lat="22.324158" lon="103.771416"><ele>2412.0</ele><time>2011-04-24T08:51:38.0000000+00:00</time></trkpt><trkpt lat="22.324173" lon="103.771423"><ele>2411.5</ele><time>2011-04-24T08:51:43.0000000+00:00</time></trkpt><trkpt lat="22.324196" lon="103.771423"><ele>2411.2</ele><time>2011-04-24T08:51:48.0000000+00:00</time></trkpt><trkpt lat="22.324207" lon="103.771423"><ele>2411.1</ele><time>2011-04-24T08:51:53.0000000+00:00</time></trkpt><trkpt lat="22.324242" lon="103.771469"><ele>2410.6</ele><time>2011-04-24T08:51:58.0000000+00:00</time></trkpt><trkpt lat="22.324226" lon="103.771507"><ele>2410.1</ele><time>2011-04-24T08:52:03.0000000+00:00</time></trkpt><trkpt lat="22.32424" lon="103.771553"><ele>2409.7</ele><time>2011-04-24T08:52:08.0000000+00:00</time></trkpt><trkpt lat="22.324249" lon="103.771614"><ele>2408.3</ele><time>2011-04-24T08:52:13.0000000+00:00</time></trkpt><trkpt lat="22.324247" lon="103.771637"><ele>2407.8</ele><time>2011-04-24T08:52:18.0000000+00:00</time></trkpt><trkpt lat="22.324251" lon="103.77166"><ele>2406.7</ele><time>2011-04-24T08:52:23.0000000+00:00</time></trkpt><trkpt lat="22.324297" lon="103.77169"><ele>2405.3</ele><time>2011-04-24T08:52:28.0000000+00:00</time></trkpt><trkpt lat="22.324329" lon="103.771713"><ele>2403.5</ele><time>2011-04-24T08:52:33.0000000+00:00</time></trkpt><trkpt lat="22.324352" lon="103.771729"><ele>2401.9</ele><time>2011-04-24T08:52:38.0000000+00:00</time></trkpt><trkpt lat="22.324396" lon="103.771774"><ele>2400.1</ele><time>2011-04-24T08:52:43.0000000+00:00</time></trkpt><trkpt lat="22.32444" lon="103.771812"><ele>2398.8</ele><time>2011-04-24T08:52:48.0000000+00:00</time></trkpt><trkpt lat="22.324484" lon="103.771858"><ele>2398.0</ele><time>2011-04-24T08:52:53.0000000+00:00</time></trkpt><trkpt lat="22.324499" lon="103.771919"><ele>2397.0</ele><time>2011-04-24T08:52:58.0000000+00:00</time></trkpt><trkpt lat="22.324514" lon="103.77195"><ele>2395.4</ele><time>2011-04-24T08:53:03.0000000+00:00</time></trkpt><trkpt lat="22.324564" lon="103.771965"><ele>2395.8</ele><time>2011-04-24T08:53:08.0000000+00:00</time></trkpt><trkpt lat="22.324604" lon="103.771996"><ele>2397.2</ele><time>2011-04-24T08:53:13.0000000+00:00</time></trkpt><trkpt lat="22.324614" lon="103.772049"><ele>2397.7</ele><time>2011-04-24T08:53:18.0000000+00:00</time></trkpt><trkpt lat="22.324621" lon="103.772079"><ele>2397.7</ele><time>2011-04-24T08:53:23.0000000+00:00</time></trkpt><trkpt lat="22.324633" lon="103.77211"><ele>2398.9</ele><time>2011-04-24T08:53:28.0000000+00:00</time></trkpt><trkpt lat="22.324654" lon="103.772141"><ele>2400.7</ele><time>2011-04-24T08:53:33.0000000+00:00</time></trkpt><trkpt lat="22.324682" lon="103.772163"><ele>2400.7</ele><time>2011-04-24T08:53:38.0000000+00:00</time></trkpt><trkpt lat="22.324701" lon="103.772179"><ele>2400.3</ele><time>2011-04-24T08:53:43.0000000+00:00</time></trkpt><trkpt lat="22.324713" lon="103.772186"><ele>2399.5</ele><time>2011-04-24T08:53:48.0000000+00:00</time></trkpt><trkpt lat="22.324732" lon="103.772186"><ele>2398.4</ele><time>2011-04-24T08:53:53.0000000+00:00</time></trkpt><trkpt lat="22.324739" lon="103.772186"><ele>2398.2</ele><time>2011-04-24T08:53:58.0000000+00:00</time></trkpt><trkpt lat="22.324751" lon="103.772194"><ele>2397.5</ele><time>2011-04-24T08:54:03.0000000+00:00</time></trkpt><trkpt lat="22.324799" lon="103.772232"><ele>2396.3</ele><time>2011-04-24T08:54:08.0000000+00:00</time></trkpt><trkpt lat="22.324816" lon="103.772285"><ele>2395.9</ele><time>2011-04-24T08:54:13.0000000+00:00</time></trkpt><trkpt lat="22.324806" lon="103.772324"><ele>2394.8</ele><time>2011-04-24T08:54:18.0000000+00:00</time></trkpt><trkpt lat="22.3248" lon="103.772346"><ele>2393.6</ele><time>2011-04-24T08:54:23.0000000+00:00</time></trkpt><trkpt lat="22.3248" lon="103.772377"><ele>2394.4</ele><time>2011-04-24T08:54:28.0000000+00:00</time></trkpt><trkpt lat="22.324825" lon="103.772423"><ele>2394.4</ele><time>2011-04-24T08:54:33.0000000+00:00</time></trkpt><trkpt lat="22.324852" lon="103.772476"><ele>2392.5</ele><time>2011-04-24T08:54:38.0000000+00:00</time></trkpt><trkpt lat="22.324873" lon="103.772476"><ele>2391.6</ele><time>2011-04-24T08:54:43.0000000+00:00</time></trkpt><trkpt lat="22.32489" lon="103.772476"><ele>2391.1</ele><time>2011-04-24T08:54:48.0000000+00:00</time></trkpt><trkpt lat="22.324888" lon="103.772476"><ele>2390.8</ele><time>2011-04-24T08:54:53.0000000+00:00</time></trkpt><trkpt lat="22.324888" lon="103.772476"><ele>2390.6</ele><time>2011-04-24T08:54:58.0000000+00:00</time></trkpt><trkpt lat="22.324911" lon="103.772461"><ele>2389.7</ele><time>2011-04-24T08:55:03.0000000+00:00</time></trkpt><trkpt lat="22.324924" lon="103.772461"><ele>2389.5</ele><time>2011-04-24T08:55:08.0000000+00:00</time></trkpt><trkpt lat="22.324942" lon="103.772453"><ele>2389.2</ele><time>2011-04-24T08:55:13.0000000+00:00</time></trkpt><trkpt lat="22.324945" lon="103.772446"><ele>2388.8</ele><time>2011-04-24T08:55:18.0000000+00:00</time></trkpt><trkpt lat="22.324963" lon="103.77243"><ele>2388.3</ele><time>2011-04-24T08:55:23.0000000+00:00</time></trkpt><trkpt lat="22.325026" lon="103.7724"><ele>2387.4</ele><time>2011-04-24T08:55:28.0000000+00:00</time></trkpt><trkpt lat="22.325071" lon="103.772392"><ele>2387.6</ele><time>2011-04-24T08:55:33.0000000+00:00</time></trkpt><trkpt lat="22.325104" lon="103.772385"><ele>2386.8</ele><time>2011-04-24T08:55:38.0000000+00:00</time></trkpt><trkpt lat="22.325125" lon="103.772385"><ele>2385.1</ele><time>2011-04-24T08:55:43.0000000+00:00</time></trkpt><trkpt lat="22.325138" lon="103.772377"><ele>2384.4</ele><time>2011-04-24T08:55:48.0000000+00:00</time></trkpt><trkpt lat="22.32514" lon="103.772385"><ele>2384.2</ele><time>2011-04-24T08:55:53.0000000+00:00</time></trkpt><trkpt lat="22.325161" lon="103.772377"><ele>2383.0</ele><time>2011-04-24T08:55:58.0000000+00:00</time></trkpt><trkpt lat="22.325184" lon="103.772377"><ele>2382.1</ele><time>2011-04-24T08:56:03.0000000+00:00</time></trkpt><trkpt lat="22.325199" lon="103.772362"><ele>2381.5</ele><time>2011-04-24T08:56:08.0000000+00:00</time></trkpt><trkpt lat="22.32522" lon="103.772354"><ele>2380.3</ele><time>2011-04-24T08:56:13.0000000+00:00</time></trkpt><trkpt lat="22.325235" lon="103.772346"><ele>2378.7</ele><time>2011-04-24T08:56:18.0000000+00:00</time></trkpt><trkpt lat="22.325256" lon="103.772346"><ele>2377.5</ele><time>2011-04-24T08:56:23.0000000+00:00</time></trkpt><trkpt lat="22.325281" lon="103.772354"><ele>2376.6</ele><time>2011-04-24T08:56:28.0000000+00:00</time></trkpt><trkpt lat="22.325317" lon="103.7724"><ele>2374.9</ele><time>2011-04-24T08:56:33.0000000+00:00</time></trkpt><trkpt lat="22.325352" lon="103.772446"><ele>2374.3</ele><time>2011-04-24T08:56:38.0000000+00:00</time></trkpt><trkpt lat="22.325367" lon="103.772507"><ele>2375.5</ele><time>2011-04-24T08:56:43.0000000+00:00</time></trkpt><trkpt lat="22.325384" lon="103.772552"><ele>2374.6</ele><time>2011-04-24T08:56:48.0000000+00:00</time></trkpt><trkpt lat="22.325436" lon="103.77256"><ele>2373.5</ele><time>2011-04-24T08:56:53.0000000+00:00</time></trkpt><trkpt lat="22.325476" lon="103.772568"><ele>2372.5</ele><time>2011-04-24T08:56:58.0000000+00:00</time></trkpt><trkpt lat="22.325485" lon="103.772568"><ele>2372.4</ele><time>2011-04-24T08:57:03.0000000+00:00</time></trkpt><trkpt lat="22.325514" lon="103.772568"><ele>2372.2</ele><time>2011-04-24T08:57:08.0000000+00:00</time></trkpt><trkpt lat="22.325514" lon="103.772568"><ele>2372.7</ele><time>2011-04-24T08:57:13.0000000+00:00</time></trkpt><trkpt lat="22.325544" lon="103.772568"><ele>2370.9</ele><time>2011-04-24T08:57:18.0000000+00:00</time></trkpt><trkpt lat="22.325583" lon="103.77256"><ele>2370.5</ele><time>2011-04-24T08:57:23.0000000+00:00</time></trkpt><trkpt lat="22.32563" lon="103.772552"><ele>2371.8</ele><time>2011-04-24T08:57:28.0000000+00:00</time></trkpt><trkpt lat="22.325672" lon="103.77253"><ele>2373.0</ele><time>2011-04-24T08:57:33.0000000+00:00</time></trkpt><trkpt lat="22.32571" lon="103.772491"><ele>2373.3</ele><time>2011-04-24T08:57:38.0000000+00:00</time></trkpt><trkpt lat="22.325743" lon="103.772491"><ele>2373.0</ele><time>2011-04-24T08:57:43.0000000+00:00</time></trkpt><trkpt lat="22.325775" lon="103.772499"><ele>2373.0</ele><time>2011-04-24T08:57:48.0000000+00:00</time></trkpt><trkpt lat="22.325811" lon="103.772491"><ele>2373.5</ele><time>2011-04-24T08:57:53.0000000+00:00</time></trkpt><trkpt lat="22.325857" lon="103.772484"><ele>2375.1</ele><time>2011-04-24T08:57:58.0000000+00:00</time></trkpt><trkpt lat="22.325903" lon="103.772476"><ele>2376.0</ele><time>2011-04-24T08:58:03.0000000+00:00</time></trkpt><trkpt lat="22.325956" lon="103.772491"><ele>2376.0</ele><time>2011-04-24T08:58:08.0000000+00:00</time></trkpt><trkpt lat="22.325977" lon="103.772491"><ele>2375.5</ele><time>2011-04-24T08:58:13.0000000+00:00</time></trkpt><trkpt lat="22.325977" lon="103.772491"><ele>2375.2</ele><time>2011-04-24T08:58:18.0000000+00:00</time></trkpt><trkpt lat="22.325989" lon="103.772491"><ele>2374.9</ele><time>2011-04-24T08:58:23.0000000+00:00</time></trkpt><trkpt lat="22.32601" lon="103.772491"><ele>2374.8</ele><time>2011-04-24T08:58:28.0000000+00:00</time></trkpt><trkpt lat="22.326052" lon="103.772507"><ele>2376.3</ele><time>2011-04-24T08:58:33.0000000+00:00</time></trkpt><trkpt lat="22.32608" lon="103.772522"><ele>2376.6</ele><time>2011-04-24T08:58:38.0000000+00:00</time></trkpt><trkpt lat="22.326111" lon="103.77256"><ele>2376.3</ele><time>2011-04-24T08:58:43.0000000+00:00</time></trkpt><trkpt lat="22.326117" lon="103.772575"><ele>2377.0</ele><time>2011-04-24T08:58:48.0000000+00:00</time></trkpt><trkpt lat="22.326138" lon="103.772606"><ele>2376.1</ele><time>2011-04-24T08:58:53.0000000+00:00</time></trkpt><trkpt lat="22.326159" lon="103.772629"><ele>2375.5</ele><time>2011-04-24T08:58:58.0000000+00:00</time></trkpt><trkpt lat="22.32617" lon="103.772644"><ele>2375.2</ele><time>2011-04-24T08:59:03.0000000+00:00</time></trkpt><trkpt lat="22.32618" lon="103.772667"><ele>2375.2</ele><time>2011-04-24T08:59:08.0000000+00:00</time></trkpt><trkpt lat="22.326193" lon="103.772682"><ele>2374.3</ele><time>2011-04-24T08:59:13.0000000+00:00</time></trkpt><trkpt lat="22.32621" lon="103.77269"><ele>2373.1</ele><time>2011-04-24T08:59:18.0000000+00:00</time></trkpt><trkpt lat="22.326223" lon="103.772705"><ele>2372.1</ele><time>2011-04-24T08:59:23.0000000+00:00</time></trkpt><trkpt lat="22.326231" lon="103.772728"><ele>2370.7</ele><time>2011-04-24T08:59:28.0000000+00:00</time></trkpt><trkpt lat="22.326235" lon="103.772728"><ele>2369.9</ele><time>2011-04-24T08:59:33.0000000+00:00</time></trkpt><trkpt lat="22.326235" lon="103.772736"><ele>2368.6</ele><time>2011-04-24T08:59:38.0000000+00:00</time></trkpt><trkpt lat="22.326246" lon="103.772751"><ele>2367.5</ele><time>2011-04-24T08:59:43.0000000+00:00</time></trkpt><trkpt lat="22.326271" lon="103.772743"><ele>2366.3</ele><time>2011-04-24T08:59:48.0000000+00:00</time></trkpt><trkpt lat="22.326279" lon="103.772743"><ele>2365.6</ele><time>2011-04-24T08:59:53.0000000+00:00</time></trkpt><trkpt lat="22.326286" lon="103.772736"><ele>2365.0</ele><time>2011-04-24T08:59:58.0000000+00:00</time></trkpt><trkpt lat="22.326296" lon="103.772736"><ele>2364.2</ele><time>2011-04-24T09:00:03.0000000+00:00</time></trkpt><trkpt lat="22.326307" lon="103.772728"><ele>2363.2</ele><time>2011-04-24T09:00:08.0000000+00:00</time></trkpt><trkpt lat="22.326324" lon="103.772728"><ele>2362.0</ele><time>2011-04-24T09:00:13.0000000+00:00</time></trkpt><trkpt lat="22.32634" lon="103.77272"><ele>2360.9</ele><time>2011-04-24T09:00:18.0000000+00:00</time></trkpt><trkpt lat="22.326357" lon="103.772736"><ele>2359.7</ele><time>2011-04-24T09:00:23.0000000+00:00</time></trkpt><trkpt lat="22.326366" lon="103.772736"><ele>2358.8</ele><time>2011-04-24T09:00:28.0000000+00:00</time></trkpt><trkpt lat="22.326382" lon="103.772736"><ele>2358.5</ele><time>2011-04-24T09:00:33.0000000+00:00</time></trkpt><trkpt lat="22.326422" lon="103.772697"><ele>2358.1</ele><time>2011-04-24T09:00:38.0000000+00:00</time></trkpt><trkpt lat="22.326439" lon="103.772682"><ele>2356.8</ele><time>2011-04-24T09:00:43.0000000+00:00</time></trkpt><trkpt lat="22.326464" lon="103.772675"><ele>2355.7</ele><time>2011-04-24T09:00:48.0000000+00:00</time></trkpt><trkpt lat="22.326475" lon="103.772667"><ele>2355.0</ele><time>2011-04-24T09:00:53.0000000+00:00</time></trkpt><trkpt lat="22.326475" lon="103.772667"><ele>2355.0</ele><time>2011-04-24T09:00:58.0000000+00:00</time></trkpt><trkpt lat="22.326477" lon="103.772667"><ele>2355.0</ele><time>2011-04-24T09:01:03.0000000+00:00</time></trkpt><trkpt lat="22.326494" lon="103.772667"><ele>2354.6</ele><time>2011-04-24T09:01:08.0000000+00:00</time></trkpt><trkpt lat="22.326515" lon="103.772659"><ele>2353.6</ele><time>2011-04-24T09:01:13.0000000+00:00</time></trkpt><trkpt lat="22.326538" lon="103.772659"><ele>2353.2</ele><time>2011-04-24T09:01:18.0000000+00:00</time></trkpt><trkpt lat="22.326536" lon="103.772644"><ele>2352.4</ele><time>2011-04-24T09:01:23.0000000+00:00</time></trkpt><trkpt lat="22.326544" lon="103.772629"><ele>2352.2</ele><time>2011-04-24T09:01:28.0000000+00:00</time></trkpt><trkpt lat="22.326551" lon="103.772629"><ele>2352.4</ele><time>2011-04-24T09:01:33.0000000+00:00</time></trkpt><trkpt lat="22.326572" lon="103.772629"><ele>2352.3</ele><time>2011-04-24T09:01:38.0000000+00:00</time></trkpt><trkpt lat="22.326607" lon="103.772621"><ele>2351.5</ele><time>2011-04-24T09:01:43.0000000+00:00</time></trkpt><trkpt lat="22.326679" lon="103.772614"><ele>2352.0</ele><time>2011-04-24T09:01:48.0000000+00:00</time></trkpt><trkpt lat="22.326706" lon="103.772697"><ele>2353.4</ele><time>2011-04-24T09:01:53.0000000+00:00</time></trkpt><trkpt lat="22.326714" lon="103.772766"><ele>2354.2</ele><time>2011-04-24T09:01:58.0000000+00:00</time></trkpt><trkpt lat="22.326717" lon="103.772812"><ele>2355.8</ele><time>2011-04-24T09:02:03.0000000+00:00</time></trkpt><trkpt lat="22.326719" lon="103.772842"><ele>2356.6</ele><time>2011-04-24T09:02:08.0000000+00:00</time></trkpt><trkpt lat="22.326727" lon="103.772896"><ele>2357.6</ele><time>2011-04-24T09:02:13.0000000+00:00</time></trkpt><trkpt lat="22.326723" lon="103.772942"><ele>2358.3</ele><time>2011-04-24T09:02:18.0000000+00:00</time></trkpt><trkpt lat="22.326698" lon="103.772995"><ele>2359.1</ele><time>2011-04-24T09:02:23.0000000+00:00</time></trkpt><trkpt lat="22.326668" lon="103.773048"><ele>2359.3</ele><time>2011-04-24T09:02:28.0000000+00:00</time></trkpt><trkpt lat="22.326645" lon="103.773102"><ele>2360.2</ele><time>2011-04-24T09:02:33.0000000+00:00</time></trkpt><trkpt lat="22.326622" lon="103.773148"><ele>2360.5</ele><time>2011-04-24T09:02:38.0000000+00:00</time></trkpt><trkpt lat="22.326612" lon="103.773193"><ele>2360.7</ele><time>2011-04-24T09:02:43.0000000+00:00</time></trkpt><trkpt lat="22.326612" lon="103.773232"><ele>2360.7</ele><time>2011-04-24T09:02:48.0000000+00:00</time></trkpt><trkpt lat="22.326618" lon="103.77327"><ele>2362.0</ele><time>2011-04-24T09:02:53.0000000+00:00</time></trkpt><trkpt lat="22.326622" lon="103.7733"><ele>2361.8</ele><time>2011-04-24T09:02:58.0000000+00:00</time></trkpt><trkpt lat="22.326639" lon="103.773346"><ele>2363.3</ele><time>2011-04-24T09:03:03.0000000+00:00</time></trkpt><trkpt lat="22.326653" lon="103.773399"><ele>2364.2</ele><time>2011-04-24T09:03:08.0000000+00:00</time></trkpt><trkpt lat="22.326668" lon="103.773445"><ele>2365.0</ele><time>2011-04-24T09:03:13.0000000+00:00</time></trkpt><trkpt lat="22.326689" lon="103.773491"><ele>2365.5</ele><time>2011-04-24T09:03:18.0000000+00:00</time></trkpt><trkpt lat="22.326693" lon="103.773521"><ele>2365.3</ele><time>2011-04-24T09:03:23.0000000+00:00</time></trkpt><trkpt lat="22.326696" lon="103.773552"><ele>2365.8</ele><time>2011-04-24T09:03:28.0000000+00:00</time></trkpt><trkpt lat="22.326702" lon="103.773567"><ele>2366.6</ele><time>2011-04-24T09:03:33.0000000+00:00</time></trkpt><trkpt lat="22.326696" lon="103.773575"><ele>2366.5</ele><time>2011-04-24T09:03:38.0000000+00:00</time></trkpt><trkpt lat="22.326704" lon="103.773582"><ele>2366.2</ele><time>2011-04-24T09:03:43.0000000+00:00</time></trkpt><trkpt lat="22.326706" lon="103.773621"><ele>2366.9</ele><time>2011-04-24T09:03:48.0000000+00:00</time></trkpt><trkpt lat="22.326698" lon="103.773682"><ele>2367.8</ele><time>2011-04-24T09:03:53.0000000+00:00</time></trkpt><trkpt lat="22.326708" lon="103.773705"><ele>2368.8</ele><time>2011-04-24T09:03:58.0000000+00:00</time></trkpt><trkpt lat="22.326725" lon="103.77375"><ele>2370.1</ele><time>2011-04-24T09:04:03.0000000+00:00</time></trkpt><trkpt lat="22.326731" lon="103.773796"><ele>2370.9</ele><time>2011-04-24T09:04:08.0000000+00:00</time></trkpt><trkpt lat="22.326752" lon="103.773842"><ele>2372.1</ele><time>2011-04-24T09:04:13.0000000+00:00</time></trkpt><trkpt lat="22.326767" lon="103.77388"><ele>2372.6</ele><time>2011-04-24T09:04:18.0000000+00:00</time></trkpt><trkpt lat="22.32679" lon="103.773895"><ele>2373.3</ele><time>2011-04-24T09:04:23.0000000+00:00</time></trkpt><trkpt lat="22.326807" lon="103.773926"><ele>2374.2</ele><time>2011-04-24T09:04:28.0000000+00:00</time></trkpt><trkpt lat="22.326832" lon="103.773964"><ele>2374.3</ele><time>2011-04-24T09:04:33.0000000+00:00</time></trkpt><trkpt lat="22.326862" lon="103.773994"><ele>2374.3</ele><time>2011-04-24T09:04:38.0000000+00:00</time></trkpt><trkpt lat="22.326874" lon="103.774017"><ele>2374.7</ele><time>2011-04-24T09:04:43.0000000+00:00</time></trkpt><trkpt lat="22.326881" lon="103.77404"><ele>2375.3</ele><time>2011-04-24T09:04:48.0000000+00:00</time></trkpt><trkpt lat="22.326889" lon="103.774048"><ele>2375.2</ele><time>2011-04-24T09:04:53.0000000+00:00</time></trkpt><trkpt lat="22.326895" lon="103.774055"><ele>2375.0</ele><time>2011-04-24T09:04:58.0000000+00:00</time></trkpt><trkpt lat="22.326902" lon="103.774063"><ele>2374.7</ele><time>2011-04-24T09:05:03.0000000+00:00</time></trkpt><trkpt lat="22.326914" lon="103.774109"><ele>2374.3</ele><time>2011-04-24T09:05:08.0000000+00:00</time></trkpt><trkpt lat="22.326918" lon="103.774147"><ele>2373.5</ele><time>2011-04-24T09:05:13.0000000+00:00</time></trkpt><trkpt lat="22.32692" lon="103.774155"><ele>2373.0</ele><time>2011-04-24T09:05:18.0000000+00:00</time></trkpt><trkpt lat="22.326929" lon="103.774162"><ele>2373.0</ele><time>2011-04-24T09:05:23.0000000+00:00</time></trkpt><trkpt lat="22.326944" lon="103.774193"><ele>2372.4</ele><time>2011-04-24T09:05:28.0000000+00:00</time></trkpt><trkpt lat="22.326952" lon="103.774246"><ele>2371.8</ele><time>2011-04-24T09:05:33.0000000+00:00</time></trkpt><trkpt lat="22.326962" lon="103.77433"><ele>2370.4</ele><time>2011-04-24T09:05:38.0000000+00:00</time></trkpt><trkpt lat="22.326954" lon="103.774399"><ele>2370.0</ele><time>2011-04-24T09:05:43.0000000+00:00</time></trkpt><trkpt lat="22.326981" lon="103.774445"><ele>2369.5</ele><time>2011-04-24T09:05:48.0000000+00:00</time></trkpt><trkpt lat="22.326984" lon="103.774475"><ele>2368.7</ele><time>2011-04-24T09:05:53.0000000+00:00</time></trkpt><trkpt lat="22.327003" lon="103.774513"><ele>2368.3</ele><time>2011-04-24T09:05:58.0000000+00:00</time></trkpt><trkpt lat="22.327017" lon="103.774574"><ele>2367.2</ele><time>2011-04-24T09:06:03.0000000+00:00</time></trkpt><trkpt lat="22.327038" lon="103.774612"><ele>2367.2</ele><time>2011-04-24T09:06:08.0000000+00:00</time></trkpt><trkpt lat="22.327051" lon="103.774651"><ele>2366.9</ele><time>2011-04-24T09:06:13.0000000+00:00</time></trkpt><trkpt lat="22.327061" lon="103.774689"><ele>2367.0</ele><time>2011-04-24T09:06:18.0000000+00:00</time></trkpt><trkpt lat="22.327057" lon="103.774757"><ele>2366.5</ele><time>2011-04-24T09:06:23.0000000+00:00</time></trkpt><trkpt lat="22.32704" lon="103.774811"><ele>2365.6</ele><time>2011-04-24T09:06:28.0000000+00:00</time></trkpt><trkpt lat="22.327049" lon="103.774864"><ele>2365.0</ele><time>2011-04-24T09:06:33.0000000+00:00</time></trkpt><trkpt lat="22.327051" lon="103.774902"><ele>2364.0</ele><time>2011-04-24T09:06:38.0000000+00:00</time></trkpt><trkpt lat="22.327045" lon="103.77494"><ele>2363.5</ele><time>2011-04-24T09:06:43.0000000+00:00</time></trkpt><trkpt lat="22.327049" lon="103.774971"><ele>2362.9</ele><time>2011-04-24T09:06:48.0000000+00:00</time></trkpt><trkpt lat="22.327053" lon="103.774971"><ele>2363.0</ele><time>2011-04-24T09:06:53.0000000+00:00</time></trkpt><trkpt lat="22.327053" lon="103.774979"><ele>2363.1</ele><time>2011-04-24T09:06:58.0000000+00:00</time></trkpt><trkpt lat="22.327053" lon="103.774979"><ele>2363.2</ele><time>2011-04-24T09:07:03.0000000+00:00</time></trkpt><trkpt lat="22.327053" lon="103.774979"><ele>2362.8</ele><time>2011-04-24T09:07:08.0000000+00:00</time></trkpt><trkpt lat="22.327061" lon="103.774986"><ele>2363.0</ele><time>2011-04-24T09:07:13.0000000+00:00</time></trkpt><trkpt lat="22.327068" lon="103.775009"><ele>2361.8</ele><time>2011-04-24T09:07:18.0000000+00:00</time></trkpt><trkpt lat="22.327076" lon="103.77504"><ele>2360.8</ele><time>2011-04-24T09:07:23.0000000+00:00</time></trkpt><trkpt lat="22.327078" lon="103.775063"><ele>2360.0</ele><time>2011-04-24T09:07:28.0000000+00:00</time></trkpt><trkpt lat="22.32708" lon="103.775078"><ele>2359.5</ele><time>2011-04-24T09:07:33.0000000+00:00</time></trkpt><trkpt lat="22.327085" lon="103.775101"><ele>2358.8</ele><time>2011-04-24T09:07:38.0000000+00:00</time></trkpt><trkpt lat="22.327091" lon="103.775154"><ele>2357.4</ele><time>2011-04-24T09:07:43.0000000+00:00</time></trkpt><trkpt lat="22.327059" lon="103.7752"><ele>2356.4</ele><time>2011-04-24T09:07:48.0000000+00:00</time></trkpt><trkpt lat="22.327034" lon="103.775238"><ele>2354.7</ele><time>2011-04-24T09:07:53.0000000+00:00</time></trkpt><trkpt lat="22.327032" lon="103.775276"><ele>2353.7</ele><time>2011-04-24T09:07:58.0000000+00:00</time></trkpt><trkpt lat="22.327026" lon="103.775307"><ele>2352.7</ele><time>2011-04-24T09:08:03.0000000+00:00</time></trkpt><trkpt lat="22.327032" lon="103.77533"><ele>2352.2</ele><time>2011-04-24T09:08:08.0000000+00:00</time></trkpt><trkpt lat="22.327026" lon="103.775352"><ele>2350.7</ele><time>2011-04-24T09:08:13.0000000+00:00</time></trkpt><trkpt lat="22.327023" lon="103.775368"><ele>2349.2</ele><time>2011-04-24T09:08:18.0000000+00:00</time></trkpt><trkpt lat="22.327028" lon="103.775368"><ele>2349.3</ele><time>2011-04-24T09:08:23.0000000+00:00</time></trkpt><trkpt lat="22.327036" lon="103.775391"><ele>2348.5</ele><time>2011-04-24T09:08:28.0000000+00:00</time></trkpt><trkpt lat="22.327026" lon="103.775406"><ele>2348.1</ele><time>2011-04-24T09:08:33.0000000+00:00</time></trkpt><trkpt lat="22.327021" lon="103.775459"><ele>2348.3</ele><time>2011-04-24T09:08:38.0000000+00:00</time></trkpt><trkpt lat="22.327003" lon="103.775505"><ele>2348.5</ele><time>2011-04-24T09:08:43.0000000+00:00</time></trkpt><trkpt lat="22.326969" lon="103.775551"><ele>2347.7</ele><time>2011-04-24T09:08:48.0000000+00:00</time></trkpt><trkpt lat="22.326971" lon="103.775581"><ele>2348.0</ele><time>2011-04-24T09:08:53.0000000+00:00</time></trkpt><trkpt lat="22.326986" lon="103.775612"><ele>2348.8</ele><time>2011-04-24T09:08:58.0000000+00:00</time></trkpt><trkpt lat="22.326992" lon="103.775642"><ele>2349.5</ele><time>2011-04-24T09:09:03.0000000+00:00</time></trkpt><trkpt lat="22.326996" lon="103.775681"><ele>2348.9</ele><time>2011-04-24T09:09:08.0000000+00:00</time></trkpt><trkpt lat="22.326986" lon="103.775734"><ele>2347.0</ele><time>2011-04-24T09:09:13.0000000+00:00</time></trkpt><trkpt lat="22.326965" lon="103.775795"><ele>2345.9</ele><time>2011-04-24T09:09:18.0000000+00:00</time></trkpt><trkpt lat="22.326977" lon="103.775841"><ele>2343.7</ele><time>2011-04-24T09:09:23.0000000+00:00</time></trkpt><trkpt lat="22.326977" lon="103.775894"><ele>2342.6</ele><time>2011-04-24T09:09:28.0000000+00:00</time></trkpt><trkpt lat="22.326967" lon="103.77594"><ele>2342.0</ele><time>2011-04-24T09:09:33.0000000+00:00</time></trkpt><trkpt lat="22.326969" lon="103.77594"><ele>2341.5</ele><time>2011-04-24T09:09:38.0000000+00:00</time></trkpt><trkpt lat="22.326963" lon="103.77597"><ele>2342.0</ele><time>2011-04-24T09:09:43.0000000+00:00</time></trkpt><trkpt lat="22.326981" lon="103.776009"><ele>2342.0</ele><time>2011-04-24T09:09:48.0000000+00:00</time></trkpt><trkpt lat="22.327011" lon="103.776054"><ele>2341.7</ele><time>2011-04-24T09:09:53.0000000+00:00</time></trkpt><trkpt lat="22.326998" lon="103.776115"><ele>2341.7</ele><time>2011-04-24T09:09:58.0000000+00:00</time></trkpt><trkpt lat="22.326994" lon="103.776154"><ele>2341.1</ele><time>2011-04-24T09:10:03.0000000+00:00</time></trkpt><trkpt lat="22.326998" lon="103.776199"><ele>2340.1</ele><time>2011-04-24T09:10:08.0000000+00:00</time></trkpt><trkpt lat="22.327003" lon="103.776237"><ele>2340.2</ele><time>2011-04-24T09:10:13.0000000+00:00</time></trkpt><trkpt lat="22.327" lon="103.776253"><ele>2340.1</ele><time>2011-04-24T09:10:18.0000000+00:00</time></trkpt><trkpt lat="22.327005" lon="103.776291"><ele>2339.6</ele><time>2011-04-24T09:10:23.0000000+00:00</time></trkpt><trkpt lat="22.327013" lon="103.776321"><ele>2341.0</ele><time>2011-04-24T09:10:28.0000000+00:00</time></trkpt><trkpt lat="22.327007" lon="103.776375"><ele>2341.6</ele><time>2011-04-24T09:10:33.0000000+00:00</time></trkpt><trkpt lat="22.326992" lon="103.776428"><ele>2340.3</ele><time>2011-04-24T09:10:38.0000000+00:00</time></trkpt><trkpt lat="22.326969" lon="103.776474"><ele>2339.3</ele><time>2011-04-24T09:10:43.0000000+00:00</time></trkpt><trkpt lat="22.326954" lon="103.776512"><ele>2338.7</ele><time>2011-04-24T09:10:48.0000000+00:00</time></trkpt><trkpt lat="22.326935" lon="103.776535"><ele>2338.0</ele><time>2011-04-24T09:10:53.0000000+00:00</time></trkpt><trkpt lat="22.32691" lon="103.776566"><ele>2338.1</ele><time>2011-04-24T09:10:58.0000000+00:00</time></trkpt><trkpt lat="22.326897" lon="103.776596"><ele>2337.4</ele><time>2011-04-24T09:11:03.0000000+00:00</time></trkpt><trkpt lat="22.326878" lon="103.776627"><ele>2336.5</ele><time>2011-04-24T09:11:08.0000000+00:00</time></trkpt><trkpt lat="22.326845" lon="103.776649"><ele>2335.5</ele><time>2011-04-24T09:11:13.0000000+00:00</time></trkpt><trkpt lat="22.326792" lon="103.776672"><ele>2334.8</ele><time>2011-04-24T09:11:18.0000000+00:00</time></trkpt><trkpt lat="22.326761" lon="103.77668"><ele>2334.5</ele><time>2011-04-24T09:11:23.0000000+00:00</time></trkpt><trkpt lat="22.326738" lon="103.776695"><ele>2334.3</ele><time>2011-04-24T09:11:28.0000000+00:00</time></trkpt><trkpt lat="22.326723" lon="103.776703"><ele>2334.2</ele><time>2011-04-24T09:11:33.0000000+00:00</time></trkpt><trkpt lat="22.326719" lon="103.776718"><ele>2334.2</ele><time>2011-04-24T09:11:38.0000000+00:00</time></trkpt><trkpt lat="22.326715" lon="103.776726"><ele>2334.2</ele><time>2011-04-24T09:11:43.0000000+00:00</time></trkpt><trkpt lat="22.32671" lon="103.776726"><ele>2334.0</ele><time>2011-04-24T09:11:48.0000000+00:00</time></trkpt><trkpt lat="22.326675" lon="103.776749"><ele>2333.0</ele><time>2011-04-24T09:11:53.0000000+00:00</time></trkpt><trkpt lat="22.32663" lon="103.776741"><ele>2331.1</ele><time>2011-04-24T09:11:58.0000000+00:00</time></trkpt><trkpt lat="22.326597" lon="103.776741"><ele>2330.1</ele><time>2011-04-24T09:12:03.0000000+00:00</time></trkpt><trkpt lat="22.326569" lon="103.776749"><ele>2329.2</ele><time>2011-04-24T09:12:08.0000000+00:00</time></trkpt><trkpt lat="22.326563" lon="103.776749"><ele>2328.3</ele><time>2011-04-24T09:12:13.0000000+00:00</time></trkpt><trkpt lat="22.326536" lon="103.776749"><ele>2327.4</ele><time>2011-04-24T09:12:18.0000000+00:00</time></trkpt><trkpt lat="22.326508" lon="103.776756"><ele>2326.7</ele><time>2011-04-24T09:12:23.0000000+00:00</time></trkpt><trkpt lat="22.326466" lon="103.776779"><ele>2326.2</ele><time>2011-04-24T09:12:28.0000000+00:00</time></trkpt><trkpt lat="22.326448" lon="103.776802"><ele>2325.7</ele><time>2011-04-24T09:12:33.0000000+00:00</time></trkpt><trkpt lat="22.326403" lon="103.776817"><ele>2325.0</ele><time>2011-04-24T09:12:38.0000000+00:00</time></trkpt><trkpt lat="22.326353" lon="103.776894"><ele>2323.0</ele><time>2011-04-24T09:12:43.0000000+00:00</time></trkpt><trkpt lat="22.326323" lon="103.776932"><ele>2322.3</ele><time>2011-04-24T09:12:48.0000000+00:00</time></trkpt><trkpt lat="22.326309" lon="103.776978"><ele>2321.1</ele><time>2011-04-24T09:12:53.0000000+00:00</time></trkpt><trkpt lat="22.326317" lon="103.776993"><ele>2321.3</ele><time>2011-04-24T09:12:58.0000000+00:00</time></trkpt><trkpt lat="22.326324" lon="103.777"><ele>2320.7</ele><time>2011-04-24T09:13:03.0000000+00:00</time></trkpt><trkpt lat="22.326319" lon="103.776993"><ele>2320.5</ele><time>2011-04-24T09:13:08.0000000+00:00</time></trkpt><trkpt lat="22.326319" lon="103.776993"><ele>2320.5</ele><time>2011-04-24T09:13:13.0000000+00:00</time></trkpt><trkpt lat="22.326321" lon="103.776993"><ele>2320.5</ele><time>2011-04-24T09:13:18.0000000+00:00</time></trkpt><trkpt lat="22.326321" lon="103.776993"><ele>2320.5</ele><time>2011-04-24T09:13:23.0000000+00:00</time></trkpt><trkpt lat="22.326319" lon="103.776993"><ele>2320.5</ele><time>2011-04-24T09:13:28.0000000+00:00</time></trkpt><trkpt lat="22.326319" lon="103.776993"><ele>2320.5</ele><time>2011-04-24T09:13:33.0000000+00:00</time></trkpt><trkpt lat="22.326319" lon="103.776993"><ele>2320.5</ele><time>2011-04-24T09:13:38.0000000+00:00</time></trkpt><trkpt lat="22.326319" lon="103.776993"><ele>2320.5</ele><time>2011-04-24T09:13:43.0000000+00:00</time></trkpt><trkpt lat="22.326319" lon="103.776993"><ele>2320.5</ele><time>2011-04-24T09:13:48.0000000+00:00</time></trkpt><trkpt lat="22.326319" lon="103.776993"><ele>2320.5</ele><time>2011-04-24T09:13:53.0000000+00:00</time></trkpt><trkpt lat="22.326319" lon="103.776993"><ele>2320.5</ele><time>2011-04-24T09:13:58.0000000+00:00</time></trkpt><trkpt lat="22.326317" lon="103.776993"><ele>2320.5</ele><time>2011-04-24T09:14:03.0000000+00:00</time></trkpt><trkpt lat="22.326296" lon="103.777023"><ele>2321.1</ele><time>2011-04-24T09:14:08.0000000+00:00</time></trkpt><trkpt lat="22.326277" lon="103.777069"><ele>2321.8</ele><time>2011-04-24T09:14:13.0000000+00:00</time></trkpt><trkpt lat="22.326256" lon="103.777092"><ele>2322.3</ele><time>2011-04-24T09:14:18.0000000+00:00</time></trkpt><trkpt lat="22.32625" lon="103.777115"><ele>2322.5</ele><time>2011-04-24T09:14:23.0000000+00:00</time></trkpt><trkpt lat="22.326225" lon="103.777138"><ele>2323.5</ele><time>2011-04-24T09:14:28.0000000+00:00</time></trkpt><trkpt lat="22.326199" lon="103.777161"><ele>2324.1</ele><time>2011-04-24T09:14:33.0000000+00:00</time></trkpt><trkpt lat="22.32618" lon="103.777199"><ele>2324.9</ele><time>2011-04-24T09:14:38.0000000+00:00</time></trkpt><trkpt lat="22.326153" lon="103.777245"><ele>2325.7</ele><time>2011-04-24T09:14:43.0000000+00:00</time></trkpt><trkpt lat="22.326134" lon="103.777298"><ele>2326.3</ele><time>2011-04-24T09:14:48.0000000+00:00</time></trkpt><trkpt lat="22.326109" lon="103.777351"><ele>2326.2</ele><time>2011-04-24T09:14:53.0000000+00:00</time></trkpt><trkpt lat="22.326105" lon="103.777374"><ele>2326.0</ele><time>2011-04-24T09:14:58.0000000+00:00</time></trkpt><trkpt lat="22.326105" lon="103.777367"><ele>2326.2</ele><time>2011-04-24T09:15:03.0000000+00:00</time></trkpt><trkpt lat="22.326096" lon="103.777374"><ele>2325.9</ele><time>2011-04-24T09:15:08.0000000+00:00</time></trkpt><trkpt lat="22.326099" lon="103.77739"><ele>2325.8</ele><time>2011-04-24T09:15:13.0000000+00:00</time></trkpt><trkpt lat="22.326097" lon="103.777443"><ele>2325.8</ele><time>2011-04-24T09:15:18.0000000+00:00</time></trkpt><trkpt lat="22.326113" lon="103.777512"><ele>2325.7</ele><time>2011-04-24T09:15:23.0000000+00:00</time></trkpt><trkpt lat="22.326118" lon="103.777626"><ele>2326.0</ele><time>2011-04-24T09:15:28.0000000+00:00</time></trkpt><trkpt lat="22.326103" lon="103.777687"><ele>2325.6</ele><time>2011-04-24T09:15:33.0000000+00:00</time></trkpt><trkpt lat="22.326118" lon="103.777809"><ele>2324.8</ele><time>2011-04-24T09:15:38.0000000+00:00</time></trkpt><trkpt lat="22.326113" lon="103.777969"><ele>2325.3</ele><time>2011-04-24T09:15:43.0000000+00:00</time></trkpt><trkpt lat="22.326094" lon="103.778069"><ele>2325.7</ele><time>2011-04-24T09:15:48.0000000+00:00</time></trkpt><trkpt lat="22.32608" lon="103.778107"><ele>2326.1</ele><time>2011-04-24T09:15:53.0000000+00:00</time></trkpt><trkpt lat="22.326082" lon="103.778145"><ele>2326.2</ele><time>2011-04-24T09:15:58.0000000+00:00</time></trkpt><trkpt lat="22.326069" lon="103.778168"><ele>2327.3</ele><time>2011-04-24T09:16:03.0000000+00:00</time></trkpt><trkpt lat="22.326073" lon="103.778198"><ele>2328.2</ele><time>2011-04-24T09:16:08.0000000+00:00</time></trkpt><trkpt lat="22.326061" lon="103.778244"><ele>2327.9</ele><time>2011-04-24T09:16:13.0000000+00:00</time></trkpt><trkpt lat="22.326046" lon="103.778297"><ele>2326.8</ele><time>2011-04-24T09:16:18.0000000+00:00</time></trkpt><trkpt lat="22.326046" lon="103.778336"><ele>2326.7</ele><time>2011-04-24T09:16:23.0000000+00:00</time></trkpt><trkpt lat="22.326035" lon="103.778389"><ele>2325.8</ele><time>2011-04-24T09:16:28.0000000+00:00</time></trkpt><trkpt lat="22.326017" lon="103.778442"><ele>2324.8</ele><time>2011-04-24T09:16:33.0000000+00:00</time></trkpt><trkpt lat="22.326" lon="103.778511"><ele>2324.1</ele><time>2011-04-24T09:16:38.0000000+00:00</time></trkpt><trkpt lat="22.326002" lon="103.778564"><ele>2323.5</ele><time>2011-04-24T09:16:43.0000000+00:00</time></trkpt><trkpt lat="22.32601" lon="103.778595"><ele>2323.2</ele><time>2011-04-24T09:16:48.0000000+00:00</time></trkpt><trkpt lat="22.326029" lon="103.778618"><ele>2323.0</ele><time>2011-04-24T09:16:53.0000000+00:00</time></trkpt><trkpt lat="22.326033" lon="103.778648"><ele>2322.3</ele><time>2011-04-24T09:16:58.0000000+00:00</time></trkpt><trkpt lat="22.326054" lon="103.778709"><ele>2322.8</ele><time>2011-04-24T09:17:03.0000000+00:00</time></trkpt><trkpt lat="22.326063" lon="103.778763"><ele>2322.5</ele><time>2011-04-24T09:17:08.0000000+00:00</time></trkpt><trkpt lat="22.326059" lon="103.778839"><ele>2322.0</ele><time>2011-04-24T09:17:13.0000000+00:00</time></trkpt><trkpt lat="22.326061" lon="103.778908"><ele>2321.3</ele><time>2011-04-24T09:17:18.0000000+00:00</time></trkpt><trkpt lat="22.326075" lon="103.778946"><ele>2320.8</ele><time>2011-04-24T09:17:23.0000000+00:00</time></trkpt><trkpt lat="22.326096" lon="103.778984"><ele>2320.3</ele><time>2011-04-24T09:17:28.0000000+00:00</time></trkpt><trkpt lat="22.326103" lon="103.779022"><ele>2320.0</ele><time>2011-04-24T09:17:33.0000000+00:00</time></trkpt><trkpt lat="22.326117" lon="103.779068"><ele>2319.5</ele><time>2011-04-24T09:17:38.0000000+00:00</time></trkpt><trkpt lat="22.32612" lon="103.779099"><ele>2318.7</ele><time>2011-04-24T09:17:43.0000000+00:00</time></trkpt><trkpt lat="22.326134" lon="103.779152"><ele>2317.7</ele><time>2011-04-24T09:17:48.0000000+00:00</time></trkpt><trkpt lat="22.326174" lon="103.77919"><ele>2316.9</ele><time>2011-04-24T09:17:53.0000000+00:00</time></trkpt><trkpt lat="22.326183" lon="103.779243"><ele>2315.5</ele><time>2011-04-24T09:17:58.0000000+00:00</time></trkpt><trkpt lat="22.326191" lon="103.779312"><ele>2314.6</ele><time>2011-04-24T09:18:03.0000000+00:00</time></trkpt><trkpt lat="22.326225" lon="103.779373"><ele>2313.7</ele><time>2011-04-24T09:18:08.0000000+00:00</time></trkpt><trkpt lat="22.326241" lon="103.779419"><ele>2311.4</ele><time>2011-04-24T09:18:13.0000000+00:00</time></trkpt><trkpt lat="22.326273" lon="103.779442"><ele>2309.5</ele><time>2011-04-24T09:18:18.0000000+00:00</time></trkpt><trkpt lat="22.3263" lon="103.779457"><ele>2308.8</ele><time>2011-04-24T09:18:23.0000000+00:00</time></trkpt><trkpt lat="22.326309" lon="103.779503"><ele>2307.7</ele><time>2011-04-24T09:18:28.0000000+00:00</time></trkpt><trkpt lat="22.326309" lon="103.779518"><ele>2307.0</ele><time>2011-04-24T09:18:33.0000000+00:00</time></trkpt><trkpt lat="22.326305" lon="103.779541"><ele>2306.7</ele><time>2011-04-24T09:18:38.0000000+00:00</time></trkpt><trkpt lat="22.3263" lon="103.779564"><ele>2305.5</ele><time>2011-04-24T09:18:43.0000000+00:00</time></trkpt><trkpt lat="22.32633" lon="103.779587"><ele>2305.1</ele><time>2011-04-24T09:18:48.0000000+00:00</time></trkpt><trkpt lat="22.326332" lon="103.77961"><ele>2304.5</ele><time>2011-04-24T09:18:53.0000000+00:00</time></trkpt><trkpt lat="22.326345" lon="103.779633"><ele>2303.2</ele><time>2011-04-24T09:18:58.0000000+00:00</time></trkpt><trkpt lat="22.326347" lon="103.77964"><ele>2302.3</ele><time>2011-04-24T09:19:03.0000000+00:00</time></trkpt><trkpt lat="22.326347" lon="103.77964"><ele>2302.2</ele><time>2011-04-24T09:19:08.0000000+00:00</time></trkpt><trkpt lat="22.326357" lon="103.779655"><ele>2301.6</ele><time>2011-04-24T09:19:13.0000000+00:00</time></trkpt><trkpt lat="22.326372" lon="103.779663"><ele>2300.7</ele><time>2011-04-24T09:19:18.0000000+00:00</time></trkpt><trkpt lat="22.326385" lon="103.779655"><ele>2300.2</ele><time>2011-04-24T09:19:23.0000000+00:00</time></trkpt><trkpt lat="22.326406" lon="103.779671"><ele>2300.1</ele><time>2011-04-24T09:19:28.0000000+00:00</time></trkpt><trkpt lat="22.32641" lon="103.779694"><ele>2300.2</ele><time>2011-04-24T09:19:33.0000000+00:00</time></trkpt><trkpt lat="22.326405" lon="103.779732"><ele>2300.2</ele><time>2011-04-24T09:19:38.0000000+00:00</time></trkpt><trkpt lat="22.326384" lon="103.779762"><ele>2300.6</ele><time>2011-04-24T09:19:43.0000000+00:00</time></trkpt><trkpt lat="22.326372" lon="103.779778"><ele>2299.8</ele><time>2011-04-24T09:19:48.0000000+00:00</time></trkpt><trkpt lat="22.326344" lon="103.779785"><ele>2299.3</ele><time>2011-04-24T09:19:53.0000000+00:00</time></trkpt><trkpt lat="22.326323" lon="103.779785"><ele>2298.3</ele><time>2011-04-24T09:19:58.0000000+00:00</time></trkpt><trkpt lat="22.326309" lon="103.7798"><ele>2298.2</ele><time>2011-04-24T09:20:03.0000000+00:00</time></trkpt><trkpt lat="22.326288" lon="103.779808"><ele>2298.0</ele><time>2011-04-24T09:20:08.0000000+00:00</time></trkpt><trkpt lat="22.326319" lon="103.779831"><ele>2297.0</ele><time>2011-04-24T09:20:13.0000000+00:00</time></trkpt><trkpt lat="22.326338" lon="103.779869"><ele>2296.0</ele><time>2011-04-24T09:20:18.0000000+00:00</time></trkpt><trkpt lat="22.326353" lon="103.779915"><ele>2296.2</ele><time>2011-04-24T09:20:23.0000000+00:00</time></trkpt><trkpt lat="22.326365" lon="103.779961"><ele>2295.2</ele><time>2011-04-24T09:20:28.0000000+00:00</time></trkpt><trkpt lat="22.326366" lon="103.779984"><ele>2294.5</ele><time>2011-04-24T09:20:33.0000000+00:00</time></trkpt><trkpt lat="22.326389" lon="103.780014"><ele>2293.2</ele><time>2011-04-24T09:20:38.0000000+00:00</time></trkpt><trkpt lat="22.326427" lon="103.78006"><ele>2293.2</ele><time>2011-04-24T09:20:43.0000000+00:00</time></trkpt><trkpt lat="22.326462" lon="103.780067"><ele>2292.1</ele><time>2011-04-24T09:20:48.0000000+00:00</time></trkpt><trkpt lat="22.326504" lon="103.780098"><ele>2292.1</ele><time>2011-04-24T09:20:53.0000000+00:00</time></trkpt><trkpt lat="22.326542" lon="103.780144"><ele>2292.2</ele><time>2011-04-24T09:20:58.0000000+00:00</time></trkpt><trkpt lat="22.326574" lon="103.780151"><ele>2290.6</ele><time>2011-04-24T09:21:03.0000000+00:00</time></trkpt><trkpt lat="22.326603" lon="103.780174"><ele>2290.3</ele><time>2011-04-24T09:21:08.0000000+00:00</time></trkpt><trkpt lat="22.326618" lon="103.78019"><ele>2290.0</ele><time>2011-04-24T09:21:13.0000000+00:00</time></trkpt><trkpt lat="22.326632" lon="103.780212"><ele>2289.8</ele><time>2011-04-24T09:21:18.0000000+00:00</time></trkpt><trkpt lat="22.326645" lon="103.78022"><ele>2288.1</ele><time>2011-04-24T09:21:23.0000000+00:00</time></trkpt><trkpt lat="22.326654" lon="103.780243"><ele>2286.7</ele><time>2011-04-24T09:21:28.0000000+00:00</time></trkpt><trkpt lat="22.326668" lon="103.780258"><ele>2285.8</ele><time>2011-04-24T09:21:33.0000000+00:00</time></trkpt><trkpt lat="22.326714" lon="103.780266"><ele>2285.7</ele><time>2011-04-24T09:21:38.0000000+00:00</time></trkpt><trkpt lat="22.326738" lon="103.780258"><ele>2286.0</ele><time>2011-04-24T09:21:43.0000000+00:00</time></trkpt><trkpt lat="22.326759" lon="103.780258"><ele>2285.3</ele><time>2011-04-24T09:21:48.0000000+00:00</time></trkpt><trkpt lat="22.326773" lon="103.780243"><ele>2285.3</ele><time>2011-04-24T09:21:53.0000000+00:00</time></trkpt><trkpt lat="22.326784" lon="103.780235"><ele>2285.1</ele><time>2011-04-24T09:21:58.0000000+00:00</time></trkpt><trkpt lat="22.326797" lon="103.780258"><ele>2285.1</ele><time>2011-04-24T09:22:03.0000000+00:00</time></trkpt><trkpt lat="22.326796" lon="103.780266"><ele>2283.8</ele><time>2011-04-24T09:22:08.0000000+00:00</time></trkpt><trkpt lat="22.326796" lon="103.780319"><ele>2283.4</ele><time>2011-04-24T09:22:13.0000000+00:00</time></trkpt><trkpt lat="22.326797" lon="103.780373"><ele>2284.4</ele><time>2011-04-24T09:22:18.0000000+00:00</time></trkpt><trkpt lat="22.326796" lon="103.780396"><ele>2283.7</ele><time>2011-04-24T09:22:23.0000000+00:00</time></trkpt><trkpt lat="22.326797" lon="103.780441"><ele>2282.2</ele><time>2011-04-24T09:22:28.0000000+00:00</time></trkpt><trkpt lat="22.326792" lon="103.780479"><ele>2281.5</ele><time>2011-04-24T09:22:33.0000000+00:00</time></trkpt><trkpt lat="22.326805" lon="103.780518"><ele>2280.9</ele><time>2011-04-24T09:22:38.0000000+00:00</time></trkpt><trkpt lat="22.326815" lon="103.780563"><ele>2280.2</ele><time>2011-04-24T09:22:43.0000000+00:00</time></trkpt><trkpt lat="22.326824" lon="103.780602"><ele>2278.8</ele><time>2011-04-24T09:22:48.0000000+00:00</time></trkpt><trkpt lat="22.326815" lon="103.780647"><ele>2276.3</ele><time>2011-04-24T09:22:53.0000000+00:00</time></trkpt><trkpt lat="22.326838" lon="103.780693"><ele>2275.0</ele><time>2011-04-24T09:22:58.0000000+00:00</time></trkpt><trkpt lat="22.32686" lon="103.780731"><ele>2273.7</ele><time>2011-04-24T09:23:03.0000000+00:00</time></trkpt><trkpt lat="22.326876" lon="103.780785"><ele>2273.0</ele><time>2011-04-24T09:23:08.0000000+00:00</time></trkpt><trkpt lat="22.326887" lon="103.78083"><ele>2271.4</ele><time>2011-04-24T09:23:13.0000000+00:00</time></trkpt><trkpt lat="22.326885" lon="103.780869"><ele>2270.3</ele><time>2011-04-24T09:23:18.0000000+00:00</time></trkpt><trkpt lat="22.326899" lon="103.780876"><ele>2270.2</ele><time>2011-04-24T09:23:23.0000000+00:00</time></trkpt><trkpt lat="22.326902" lon="103.780884"><ele>2270.3</ele><time>2011-04-24T09:23:28.0000000+00:00</time></trkpt><trkpt lat="22.326916" lon="103.780914"><ele>2269.3</ele><time>2011-04-24T09:23:33.0000000+00:00</time></trkpt><trkpt lat="22.32695" lon="103.78093"><ele>2269.1</ele><time>2011-04-24T09:23:38.0000000+00:00</time></trkpt><trkpt lat="22.326965" lon="103.78093"><ele>2268.8</ele><time>2011-04-24T09:23:43.0000000+00:00</time></trkpt><trkpt lat="22.326973" lon="103.78093"><ele>2268.6</ele><time>2011-04-24T09:23:48.0000000+00:00</time></trkpt><trkpt lat="22.327003" lon="103.78096"><ele>2268.5</ele><time>2011-04-24T09:23:53.0000000+00:00</time></trkpt><trkpt lat="22.327045" lon="103.781006"><ele>2267.8</ele><time>2011-04-24T09:23:58.0000000+00:00</time></trkpt><trkpt lat="22.327082" lon="103.781052"><ele>2268.1</ele><time>2011-04-24T09:24:03.0000000+00:00</time></trkpt><trkpt lat="22.327122" lon="103.781082"><ele>2267.8</ele><time>2011-04-24T09:24:08.0000000+00:00</time></trkpt><trkpt lat="22.327152" lon="103.781097"><ele>2267.4</ele><time>2011-04-24T09:24:13.0000000+00:00</time></trkpt><trkpt lat="22.327192" lon="103.781113"><ele>2266.6</ele><time>2011-04-24T09:24:18.0000000+00:00</time></trkpt><trkpt lat="22.327213" lon="103.78112"><ele>2266.2</ele><time>2011-04-24T09:24:23.0000000+00:00</time></trkpt><trkpt lat="22.327234" lon="103.781113"><ele>2265.8</ele><time>2011-04-24T09:24:28.0000000+00:00</time></trkpt><trkpt lat="22.327259" lon="103.781128"><ele>2265.8</ele><time>2011-04-24T09:24:33.0000000+00:00</time></trkpt><trkpt lat="22.327282" lon="103.781143"><ele>2265.0</ele><time>2011-04-24T09:24:38.0000000+00:00</time></trkpt><trkpt lat="22.327299" lon="103.781158"><ele>2265.0</ele><time>2011-04-24T09:24:43.0000000+00:00</time></trkpt><trkpt lat="22.32732" lon="103.781189"><ele>2265.2</ele><time>2011-04-24T09:24:48.0000000+00:00</time></trkpt><trkpt lat="22.327333" lon="103.781219"><ele>2264.1</ele><time>2011-04-24T09:24:53.0000000+00:00</time></trkpt><trkpt lat="22.327345" lon="103.781242"><ele>2262.8</ele><time>2011-04-24T09:24:58.0000000+00:00</time></trkpt><trkpt lat="22.327337" lon="103.781258"><ele>2262.1</ele><time>2011-04-24T09:25:03.0000000+00:00</time></trkpt><trkpt lat="22.327343" lon="103.781288"><ele>2260.8</ele><time>2011-04-24T09:25:08.0000000+00:00</time></trkpt><trkpt lat="22.327356" lon="103.781296"><ele>2259.8</ele><time>2011-04-24T09:25:13.0000000+00:00</time></trkpt><trkpt lat="22.32737" lon="103.781311"><ele>2260.0</ele><time>2011-04-24T09:25:18.0000000+00:00</time></trkpt><trkpt lat="22.327383" lon="103.781334"><ele>2259.2</ele><time>2011-04-24T09:25:23.0000000+00:00</time></trkpt><trkpt lat="22.327396" lon="103.781342"><ele>2259.2</ele><time>2011-04-24T09:25:28.0000000+00:00</time></trkpt><trkpt lat="22.32741" lon="103.781334"><ele>2259.2</ele><time>2011-04-24T09:25:33.0000000+00:00</time></trkpt><trkpt lat="22.327429" lon="103.781326"><ele>2258.7</ele><time>2011-04-24T09:25:38.0000000+00:00</time></trkpt><trkpt lat="22.327457" lon="103.781342"><ele>2258.3</ele><time>2011-04-24T09:25:43.0000000+00:00</time></trkpt><trkpt lat="22.327459" lon="103.781342"><ele>2258.2</ele><time>2011-04-24T09:25:48.0000000+00:00</time></trkpt><trkpt lat="22.327473" lon="103.781357"><ele>2258.4</ele><time>2011-04-24T09:25:53.0000000+00:00</time></trkpt><trkpt lat="22.327478" lon="103.781357"><ele>2258.1</ele><time>2011-04-24T09:25:58.0000000+00:00</time></trkpt><trkpt lat="22.327486" lon="103.781357"><ele>2258.2</ele><time>2011-04-24T09:26:03.0000000+00:00</time></trkpt><trkpt lat="22.327486" lon="103.781364"><ele>2258.1</ele><time>2011-04-24T09:26:08.0000000+00:00</time></trkpt><trkpt lat="22.327486" lon="103.781364"><ele>2258.0</ele><time>2011-04-24T09:26:13.0000000+00:00</time></trkpt><trkpt lat="22.32749" lon="103.781364"><ele>2258.0</ele><time>2011-04-24T09:26:18.0000000+00:00</time></trkpt><trkpt lat="22.327492" lon="103.781364"><ele>2257.9</ele><time>2011-04-24T09:26:23.0000000+00:00</time></trkpt><trkpt lat="22.327496" lon="103.781364"><ele>2257.8</ele><time>2011-04-24T09:26:28.0000000+00:00</time></trkpt><trkpt lat="22.327505" lon="103.781364"><ele>2257.6</ele><time>2011-04-24T09:26:33.0000000+00:00</time></trkpt><trkpt lat="22.327522" lon="103.781372"><ele>2257.5</ele><time>2011-04-24T09:26:38.0000000+00:00</time></trkpt><trkpt lat="22.327532" lon="103.781372"><ele>2256.7</ele><time>2011-04-24T09:26:43.0000000+00:00</time></trkpt><trkpt lat="22.327549" lon="103.78138"><ele>2256.0</ele><time>2011-04-24T09:26:48.0000000+00:00</time></trkpt><trkpt lat="22.327551" lon="103.78138"><ele>2254.6</ele><time>2011-04-24T09:26:53.0000000+00:00</time></trkpt><trkpt lat="22.327559" lon="103.78138"><ele>2254.2</ele><time>2011-04-24T09:26:58.0000000+00:00</time></trkpt><trkpt lat="22.327566" lon="103.781372"><ele>2253.8</ele><time>2011-04-24T09:27:03.0000000+00:00</time></trkpt><trkpt lat="22.327587" lon="103.781395"><ele>2253.6</ele><time>2011-04-24T09:27:08.0000000+00:00</time></trkpt><trkpt lat="22.327637" lon="103.781425"><ele>2254.1</ele><time>2011-04-24T09:27:13.0000000+00:00</time></trkpt><trkpt lat="22.327641" lon="103.781418"><ele>2253.8</ele><time>2011-04-24T09:27:18.0000000+00:00</time></trkpt><trkpt lat="22.327652" lon="103.781418"><ele>2253.4</ele><time>2011-04-24T09:27:23.0000000+00:00</time></trkpt><trkpt lat="22.327656" lon="103.781418"><ele>2253.4</ele><time>2011-04-24T09:27:28.0000000+00:00</time></trkpt><trkpt lat="22.327662" lon="103.78141"><ele>2253.4</ele><time>2011-04-24T09:27:33.0000000+00:00</time></trkpt><trkpt lat="22.327665" lon="103.78141"><ele>2253.5</ele><time>2011-04-24T09:27:38.0000000+00:00</time></trkpt><trkpt lat="22.327652" lon="103.781403"><ele>2253.5</ele><time>2011-04-24T09:27:43.0000000+00:00</time></trkpt><trkpt lat="22.32766" lon="103.781395"><ele>2253.5</ele><time>2011-04-24T09:27:48.0000000+00:00</time></trkpt><trkpt lat="22.327679" lon="103.781418"><ele>2253.8</ele><time>2011-04-24T09:27:53.0000000+00:00</time></trkpt><trkpt lat="22.327675" lon="103.781441"><ele>2252.6</ele><time>2011-04-24T09:27:58.0000000+00:00</time></trkpt><trkpt lat="22.327677" lon="103.781448"><ele>2252.7</ele><time>2011-04-24T09:28:03.0000000+00:00</time></trkpt><trkpt lat="22.327675" lon="103.781448"><ele>2252.7</ele><time>2011-04-24T09:28:08.0000000+00:00</time></trkpt><trkpt lat="22.327669" lon="103.781448"><ele>2252.7</ele><time>2011-04-24T09:28:13.0000000+00:00</time></trkpt><trkpt lat="22.327665" lon="103.781448"><ele>2252.7</ele><time>2011-04-24T09:28:18.0000000+00:00</time></trkpt><trkpt lat="22.327671" lon="103.781509"><ele>2252.2</ele><time>2011-04-24T09:28:23.0000000+00:00</time></trkpt><trkpt lat="22.327677" lon="103.781509"><ele>2252.2</ele><time>2011-04-24T09:28:28.0000000+00:00</time></trkpt><trkpt lat="22.327681" lon="103.781517"><ele>2252.1</ele><time>2011-04-24T09:28:33.0000000+00:00</time></trkpt><trkpt lat="22.327684" lon="103.781517"><ele>2252.0</ele><time>2011-04-24T09:28:38.0000000+00:00</time></trkpt><trkpt lat="22.327684" lon="103.781525"><ele>2252.0</ele><time>2011-04-24T09:28:43.0000000+00:00</time></trkpt><trkpt lat="22.327692" lon="103.781532"><ele>2251.6</ele><time>2011-04-24T09:28:48.0000000+00:00</time></trkpt><trkpt lat="22.327707" lon="103.78154"><ele>2251.2</ele><time>2011-04-24T09:28:53.0000000+00:00</time></trkpt><trkpt lat="22.327703" lon="103.781563"><ele>2249.8</ele><time>2011-04-24T09:28:58.0000000+00:00</time></trkpt><trkpt lat="22.327724" lon="103.781555"><ele>2248.8</ele><time>2011-04-24T09:29:03.0000000+00:00</time></trkpt><trkpt lat="22.327734" lon="103.781555"><ele>2248.7</ele><time>2011-04-24T09:29:08.0000000+00:00</time></trkpt><trkpt lat="22.32774" lon="103.781563"><ele>2248.4</ele><time>2011-04-24T09:29:13.0000000+00:00</time></trkpt><trkpt lat="22.327759" lon="103.78157"><ele>2247.0</ele><time>2011-04-24T09:29:18.0000000+00:00</time></trkpt><trkpt lat="22.327766" lon="103.781578"><ele>2246.9</ele><time>2011-04-24T09:29:23.0000000+00:00</time></trkpt><trkpt lat="22.327772" lon="103.781578"><ele>2246.8</ele><time>2011-04-24T09:29:28.0000000+00:00</time></trkpt><trkpt lat="22.327757" lon="103.781578"><ele>2246.5</ele><time>2011-04-24T09:29:33.0000000+00:00</time></trkpt><trkpt lat="22.327719" lon="103.781586"><ele>2245.6</ele><time>2011-04-24T09:29:38.0000000+00:00</time></trkpt><trkpt lat="22.327726" lon="103.781593"><ele>2244.7</ele><time>2011-04-24T09:29:43.0000000+00:00</time></trkpt><trkpt lat="22.32777" lon="103.781616"><ele>2243.8</ele><time>2011-04-24T09:29:48.0000000+00:00</time></trkpt><trkpt lat="22.32781" lon="103.781586"><ele>2244.4</ele><time>2011-04-24T09:29:53.0000000+00:00</time></trkpt><trkpt lat="22.327848" lon="103.78157"><ele>2246.2</ele><time>2011-04-24T09:29:58.0000000+00:00</time></trkpt><trkpt lat="22.327898" lon="103.781548"><ele>2249.1</ele><time>2011-04-24T09:30:03.0000000+00:00</time></trkpt><trkpt lat="22.327936" lon="103.78154"><ele>2252.0</ele><time>2011-04-24T09:30:08.0000000+00:00</time></trkpt><trkpt lat="22.328014" lon="103.781563"><ele>2251.4</ele><time>2011-04-24T09:30:13.0000000+00:00</time></trkpt><trkpt lat="22.328077" lon="103.781578"><ele>2248.8</ele><time>2011-04-24T09:30:18.0000000+00:00</time></trkpt><trkpt lat="22.328123" lon="103.781609"><ele>2247.0</ele><time>2011-04-24T09:30:23.0000000+00:00</time></trkpt><trkpt lat="22.328169" lon="103.781647"><ele>2246.1</ele><time>2011-04-24T09:30:28.0000000+00:00</time></trkpt><trkpt lat="22.328251" lon="103.78167"><ele>2241.7</ele><time>2011-04-24T09:30:33.0000000+00:00</time></trkpt><trkpt lat="22.328293" lon="103.781723"><ele>2237.5</ele><time>2011-04-24T09:30:38.0000000+00:00</time></trkpt><trkpt lat="22.328283" lon="103.781738"><ele>2233.8</ele><time>2011-04-24T09:30:43.0000000+00:00</time></trkpt><trkpt lat="22.328276" lon="103.781746"><ele>2233.3</ele><time>2011-04-24T09:30:48.0000000+00:00</time></trkpt><trkpt lat="22.328285" lon="103.781731"><ele>2231.5</ele><time>2011-04-24T09:30:53.0000000+00:00</time></trkpt><trkpt lat="22.328283" lon="103.781731"><ele>2231.0</ele><time>2011-04-24T09:30:58.0000000+00:00</time></trkpt><trkpt lat="22.328285" lon="103.781731"><ele>2230.8</ele><time>2011-04-24T09:31:03.0000000+00:00</time></trkpt><trkpt lat="22.328285" lon="103.781731"><ele>2230.7</ele><time>2011-04-24T09:31:08.0000000+00:00</time></trkpt><trkpt lat="22.328285" lon="103.781731"><ele>2230.7</ele><time>2011-04-24T09:31:13.0000000+00:00</time></trkpt><trkpt lat="22.328285" lon="103.781731"><ele>2230.7</ele><time>2011-04-24T09:31:18.0000000+00:00</time></trkpt><trkpt lat="22.328285" lon="103.781731"><ele>2230.7</ele><time>2011-04-24T09:31:23.0000000+00:00</time></trkpt><trkpt lat="22.328285" lon="103.781731"><ele>2230.7</ele><time>2011-04-24T09:31:28.0000000+00:00</time></trkpt><trkpt lat="22.328285" lon="103.781731"><ele>2230.7</ele><time>2011-04-24T09:31:33.0000000+00:00</time></trkpt><trkpt lat="22.328285" lon="103.781731"><ele>2230.7</ele><time>2011-04-24T09:31:38.0000000+00:00</time></trkpt><trkpt lat="22.328285" lon="103.781731"><ele>2230.7</ele><time>2011-04-24T09:31:43.0000000+00:00</time></trkpt><trkpt lat="22.328285" lon="103.781731"><ele>2230.7</ele><time>2011-04-24T09:31:48.0000000+00:00</time></trkpt><trkpt lat="22.328285" lon="103.781731"><ele>2230.7</ele><time>2011-04-24T09:31:53.0000000+00:00</time></trkpt><trkpt lat="22.328285" lon="103.781731"><ele>2230.7</ele><time>2011-04-24T09:31:58.0000000+00:00</time></trkpt><trkpt lat="22.328285" lon="103.781731"><ele>2230.7</ele><time>2011-04-24T09:32:03.0000000+00:00</time></trkpt><trkpt lat="22.328285" lon="103.781731"><ele>2230.7</ele><time>2011-04-24T09:32:08.0000000+00:00</time></trkpt><trkpt lat="22.328285" lon="103.781731"><ele>2230.7</ele><time>2011-04-24T09:32:13.0000000+00:00</time></trkpt><trkpt lat="22.328285" lon="103.781731"><ele>2230.7</ele><time>2011-04-24T09:32:18.0000000+00:00</time></trkpt><trkpt lat="22.328285" lon="103.781731"><ele>2230.7</ele><time>2011-04-24T09:32:23.0000000+00:00</time></trkpt><trkpt lat="22.328285" lon="103.781731"><ele>2230.7</ele><time>2011-04-24T09:32:28.0000000+00:00</time></trkpt><trkpt lat="22.328285" lon="103.781731"><ele>2230.7</ele><time>2011-04-24T09:32:33.0000000+00:00</time></trkpt><trkpt lat="22.328285" lon="103.781731"><ele>2230.7</ele><time>2011-04-24T09:32:38.0000000+00:00</time></trkpt><trkpt lat="22.328285" lon="103.781731"><ele>2230.7</ele><time>2011-04-24T09:32:43.0000000+00:00</time></trkpt><trkpt lat="22.328285" lon="103.781731"><ele>2230.7</ele><time>2011-04-24T09:32:48.0000000+00:00</time></trkpt><trkpt lat="22.328285" lon="103.781723"><ele>2230.7</ele><time>2011-04-24T09:32:53.0000000+00:00</time></trkpt><trkpt lat="22.328285" lon="103.781723"><ele>2230.7</ele><time>2011-04-24T09:32:58.0000000+00:00</time></trkpt><trkpt lat="22.328287" lon="103.781723"><ele>2230.7</ele><time>2011-04-24T09:33:03.0000000+00:00</time></trkpt><trkpt lat="22.328287" lon="103.781723"><ele>2230.8</ele><time>2011-04-24T09:33:08.0000000+00:00</time></trkpt><trkpt lat="22.328287" lon="103.781723"><ele>2230.8</ele><time>2011-04-24T09:33:13.0000000+00:00</time></trkpt><trkpt lat="22.328287" lon="103.781723"><ele>2230.7</ele><time>2011-04-24T09:33:18.0000000+00:00</time></trkpt><trkpt lat="22.328287" lon="103.781723"><ele>2230.7</ele><time>2011-04-24T09:33:23.0000000+00:00</time></trkpt><trkpt lat="22.328287" lon="103.781723"><ele>2230.7</ele><time>2011-04-24T09:33:28.0000000+00:00</time></trkpt><trkpt lat="22.328287" lon="103.781723"><ele>2230.7</ele><time>2011-04-24T09:33:33.0000000+00:00</time></trkpt><trkpt lat="22.328287" lon="103.781723"><ele>2230.7</ele><time>2011-04-24T09:33:38.0000000+00:00</time></trkpt><trkpt lat="22.328287" lon="103.781723"><ele>2230.8</ele><time>2011-04-24T09:33:43.0000000+00:00</time></trkpt><trkpt lat="22.328287" lon="103.781723"><ele>2230.8</ele><time>2011-04-24T09:33:48.0000000+00:00</time></trkpt><trkpt lat="22.328287" lon="103.781723"><ele>2230.8</ele><time>2011-04-24T09:33:53.0000000+00:00</time></trkpt><trkpt lat="22.328289" lon="103.781723"><ele>2230.8</ele><time>2011-04-24T09:33:58.0000000+00:00</time></trkpt><trkpt lat="22.328289" lon="103.781723"><ele>2230.8</ele><time>2011-04-24T09:34:03.0000000+00:00</time></trkpt><trkpt lat="22.328289" lon="103.781723"><ele>2230.8</ele><time>2011-04-24T09:34:08.0000000+00:00</time></trkpt><trkpt lat="22.328289" lon="103.781723"><ele>2230.8</ele><time>2011-04-24T09:34:13.0000000+00:00</time></trkpt><trkpt lat="22.328289" lon="103.781723"><ele>2230.8</ele><time>2011-04-24T09:34:18.0000000+00:00</time></trkpt><trkpt lat="22.328289" lon="103.781723"><ele>2230.8</ele><time>2011-04-24T09:34:23.0000000+00:00</time></trkpt><trkpt lat="22.328289" lon="103.781723"><ele>2230.8</ele><time>2011-04-24T09:34:28.0000000+00:00</time></trkpt><trkpt lat="22.328289" lon="103.781723"><ele>2230.8</ele><time>2011-04-24T09:34:33.0000000+00:00</time></trkpt><trkpt lat="22.328289" lon="103.781723"><ele>2230.8</ele><time>2011-04-24T09:34:38.0000000+00:00</time></trkpt><trkpt lat="22.328289" lon="103.781723"><ele>2230.8</ele><time>2011-04-24T09:34:43.0000000+00:00</time></trkpt><trkpt lat="22.328289" lon="103.781723"><ele>2230.8</ele><time>2011-04-24T09:34:48.0000000+00:00</time></trkpt><trkpt lat="22.328289" lon="103.781723"><ele>2230.8</ele><time>2011-04-24T09:34:53.0000000+00:00</time></trkpt><trkpt lat="22.328289" lon="103.781723"><ele>2230.8</ele><time>2011-04-24T09:34:58.0000000+00:00</time></trkpt><trkpt lat="22.328289" lon="103.781723"><ele>2230.8</ele><time>2011-04-24T09:35:03.0000000+00:00</time></trkpt><trkpt lat="22.328289" lon="103.781723"><ele>2230.8</ele><time>2011-04-24T09:35:08.0000000+00:00</time></trkpt><trkpt lat="22.328289" lon="103.781723"><ele>2230.8</ele><time>2011-04-24T09:35:13.0000000+00:00</time></trkpt><trkpt lat="22.328289" lon="103.781723"><ele>2230.8</ele><time>2011-04-24T09:35:18.0000000+00:00</time></trkpt><trkpt lat="22.328289" lon="103.781723"><ele>2230.8</ele><time>2011-04-24T09:35:23.0000000+00:00</time></trkpt><trkpt lat="22.328291" lon="103.781723"><ele>2230.8</ele><time>2011-04-24T09:35:28.0000000+00:00</time></trkpt><trkpt lat="22.328289" lon="103.781723"><ele>2230.8</ele><time>2011-04-24T09:35:33.0000000+00:00</time></trkpt><trkpt lat="22.328291" lon="103.781723"><ele>2230.8</ele><time>2011-04-24T09:35:38.0000000+00:00</time></trkpt><trkpt lat="22.328291" lon="103.781723"><ele>2230.8</ele><time>2011-04-24T09:35:43.0000000+00:00</time></trkpt><trkpt lat="22.328291" lon="103.781723"><ele>2230.8</ele><time>2011-04-24T09:35:48.0000000+00:00</time></trkpt><trkpt lat="22.328291" lon="103.781723"><ele>2230.8</ele><time>2011-04-24T09:35:53.0000000+00:00</time></trkpt><trkpt lat="22.328291" lon="103.781723"><ele>2230.8</ele><time>2011-04-24T09:35:58.0000000+00:00</time></trkpt><trkpt lat="22.328295" lon="103.781746"><ele>2230.5</ele><time>2011-04-24T09:36:03.0000000+00:00</time></trkpt><trkpt lat="22.328295" lon="103.781746"><ele>2230.4</ele><time>2011-04-24T09:36:08.0000000+00:00</time></trkpt><trkpt lat="22.328295" lon="103.781746"><ele>2230.2</ele><time>2011-04-24T09:36:13.0000000+00:00</time></trkpt><trkpt lat="22.328304" lon="103.781738"><ele>2230.1</ele><time>2011-04-24T09:36:18.0000000+00:00</time></trkpt><trkpt lat="22.328308" lon="103.781738"><ele>2230.2</ele><time>2011-04-24T09:36:23.0000000+00:00</time></trkpt><trkpt lat="22.328308" lon="103.781738"><ele>2230.2</ele><time>2011-04-24T09:36:28.0000000+00:00</time></trkpt><trkpt lat="22.328308" lon="103.781738"><ele>2230.2</ele><time>2011-04-24T09:36:33.0000000+00:00</time></trkpt><trkpt lat="22.328308" lon="103.781738"><ele>2230.2</ele><time>2011-04-24T09:36:38.0000000+00:00</time></trkpt><trkpt lat="22.328308" lon="103.781738"><ele>2230.2</ele><time>2011-04-24T09:36:43.0000000+00:00</time></trkpt><trkpt lat="22.328308" lon="103.781738"><ele>2230.2</ele><time>2011-04-24T09:36:48.0000000+00:00</time></trkpt><trkpt lat="22.328304" lon="103.781738"><ele>2230.4</ele><time>2011-04-24T09:36:53.0000000+00:00</time></trkpt><trkpt lat="22.32831" lon="103.781738"><ele>2230.4</ele><time>2011-04-24T09:36:58.0000000+00:00</time></trkpt><trkpt lat="22.328318" lon="103.781754"><ele>2230.2</ele><time>2011-04-24T09:37:03.0000000+00:00</time></trkpt><trkpt lat="22.328369" lon="103.781761"><ele>2231.0</ele><time>2011-04-24T09:37:08.0000000+00:00</time></trkpt><trkpt lat="22.328419" lon="103.781754"><ele>2232.7</ele><time>2011-04-24T09:37:13.0000000+00:00</time></trkpt><trkpt lat="22.328461" lon="103.781723"><ele>2233.8</ele><time>2011-04-24T09:37:18.0000000+00:00</time></trkpt><trkpt lat="22.328484" lon="103.7817"><ele>2234.2</ele><time>2011-04-24T09:37:23.0000000+00:00</time></trkpt><trkpt lat="22.328508" lon="103.781693"><ele>2235.3</ele><time>2011-04-24T09:37:28.0000000+00:00</time></trkpt><trkpt lat="22.328545" lon="103.781693"><ele>2236.5</ele><time>2011-04-24T09:37:33.0000000+00:00</time></trkpt><trkpt lat="22.328569" lon="103.781693"><ele>2236.9</ele><time>2011-04-24T09:37:38.0000000+00:00</time></trkpt><trkpt lat="22.328608" lon="103.781685"><ele>2237.5</ele><time>2011-04-24T09:37:43.0000000+00:00</time></trkpt><trkpt lat="22.328629" lon="103.781685"><ele>2237.9</ele><time>2011-04-24T09:37:48.0000000+00:00</time></trkpt><trkpt lat="22.328669" lon="103.781677"><ele>2238.7</ele><time>2011-04-24T09:37:53.0000000+00:00</time></trkpt><trkpt lat="22.328709" lon="103.781677"><ele>2240.1</ele><time>2011-04-24T09:37:58.0000000+00:00</time></trkpt><trkpt lat="22.328737" lon="103.781662"><ele>2240.8</ele><time>2011-04-24T09:38:03.0000000+00:00</time></trkpt><trkpt lat="22.328772" lon="103.781654"><ele>2241.8</ele><time>2011-04-24T09:38:08.0000000+00:00</time></trkpt><trkpt lat="22.328802" lon="103.781647"><ele>2242.5</ele><time>2011-04-24T09:38:13.0000000+00:00</time></trkpt><trkpt lat="22.328842" lon="103.781639"><ele>2242.7</ele><time>2011-04-24T09:38:18.0000000+00:00</time></trkpt><trkpt lat="22.328882" lon="103.781624"><ele>2242.1</ele><time>2011-04-24T09:38:23.0000000+00:00</time></trkpt><trkpt lat="22.328941" lon="103.781609"><ele>2241.2</ele><time>2011-04-24T09:38:28.0000000+00:00</time></trkpt><trkpt lat="22.32896" lon="103.781609"><ele>2240.6</ele><time>2011-04-24T09:38:33.0000000+00:00</time></trkpt><trkpt lat="22.32896" lon="103.781609"><ele>2240.4</ele><time>2011-04-24T09:38:38.0000000+00:00</time></trkpt><trkpt lat="22.328959" lon="103.781609"><ele>2240.3</ele><time>2011-04-24T09:38:43.0000000+00:00</time></trkpt><trkpt lat="22.32896" lon="103.781609"><ele>2240.3</ele><time>2011-04-24T09:38:48.0000000+00:00</time></trkpt><trkpt lat="22.32896" lon="103.781609"><ele>2240.3</ele><time>2011-04-24T09:38:53.0000000+00:00</time></trkpt><trkpt lat="22.32896" lon="103.781609"><ele>2240.3</ele><time>2011-04-24T09:38:58.0000000+00:00</time></trkpt><trkpt lat="22.32896" lon="103.781609"><ele>2240.3</ele><time>2011-04-24T09:39:03.0000000+00:00</time></trkpt><trkpt lat="22.32896" lon="103.781609"><ele>2240.3</ele><time>2011-04-24T09:39:08.0000000+00:00</time></trkpt><trkpt lat="22.328966" lon="103.781609"><ele>2240.4</ele><time>2011-04-24T09:39:13.0000000+00:00</time></trkpt><trkpt lat="22.32901" lon="103.781578"><ele>2241.0</ele><time>2011-04-24T09:39:18.0000000+00:00</time></trkpt><trkpt lat="22.32906" lon="103.781555"><ele>2241.8</ele><time>2011-04-24T09:39:23.0000000+00:00</time></trkpt><trkpt lat="22.329117" lon="103.781525"><ele>2242.1</ele><time>2011-04-24T09:39:28.0000000+00:00</time></trkpt><trkpt lat="22.329189" lon="103.781494"><ele>2242.6</ele><time>2011-04-24T09:39:33.0000000+00:00</time></trkpt><trkpt lat="22.329254" lon="103.781471"><ele>2243.8</ele><time>2011-04-24T09:39:38.0000000+00:00</time></trkpt><trkpt lat="22.329313" lon="103.781448"><ele>2244.7</ele><time>2011-04-24T09:39:43.0000000+00:00</time></trkpt><trkpt lat="22.329374" lon="103.781433"><ele>2245.3</ele><time>2011-04-24T09:39:48.0000000+00:00</time></trkpt><trkpt lat="22.329437" lon="103.781403"><ele>2245.3</ele><time>2011-04-24T09:39:53.0000000+00:00</time></trkpt><trkpt lat="22.329508" lon="103.78141"><ele>2245.3</ele><time>2011-04-24T09:39:58.0000000+00:00</time></trkpt><trkpt lat="22.329569" lon="103.781441"><ele>2245.5</ele><time>2011-04-24T09:40:03.0000000+00:00</time></trkpt><trkpt lat="22.329615" lon="103.781471"><ele>2244.5</ele><time>2011-04-24T09:40:08.0000000+00:00</time></trkpt><trkpt lat="22.329655" lon="103.781487"><ele>2243.7</ele><time>2011-04-24T09:40:13.0000000+00:00</time></trkpt><trkpt lat="22.329695" lon="103.781502"><ele>2243.0</ele><time>2011-04-24T09:40:18.0000000+00:00</time></trkpt><trkpt lat="22.329725" lon="103.781517"><ele>2242.5</ele><time>2011-04-24T09:40:23.0000000+00:00</time></trkpt><trkpt lat="22.329758" lon="103.78154"><ele>2241.7</ele><time>2011-04-24T09:40:28.0000000+00:00</time></trkpt><trkpt lat="22.329796" lon="103.78157"><ele>2240.0</ele><time>2011-04-24T09:40:33.0000000+00:00</time></trkpt><trkpt lat="22.329823" lon="103.781609"><ele>2238.3</ele><time>2011-04-24T09:40:38.0000000+00:00</time></trkpt><trkpt lat="22.329845" lon="103.781601"><ele>2238.3</ele><time>2011-04-24T09:40:43.0000000+00:00</time></trkpt><trkpt lat="22.329844" lon="103.781609"><ele>2237.5</ele><time>2011-04-24T09:40:48.0000000+00:00</time></trkpt><trkpt lat="22.329851" lon="103.781586"><ele>2237.1</ele><time>2011-04-24T09:40:53.0000000+00:00</time></trkpt><trkpt lat="22.329863" lon="103.781586"><ele>2236.0</ele><time>2011-04-24T09:40:58.0000000+00:00</time></trkpt><trkpt lat="22.329863" lon="103.781593"><ele>2236.0</ele><time>2011-04-24T09:41:03.0000000+00:00</time></trkpt><trkpt lat="22.329872" lon="103.781601"><ele>2235.9</ele><time>2011-04-24T09:41:08.0000000+00:00</time></trkpt><trkpt lat="22.329887" lon="103.781609"><ele>2235.8</ele><time>2011-04-24T09:41:13.0000000+00:00</time></trkpt><trkpt lat="22.329901" lon="103.781601"><ele>2235.7</ele><time>2011-04-24T09:41:18.0000000+00:00</time></trkpt><trkpt lat="22.329891" lon="103.781593"><ele>2235.2</ele><time>2011-04-24T09:41:23.0000000+00:00</time></trkpt><trkpt lat="22.329893" lon="103.781593"><ele>2235.3</ele><time>2011-04-24T09:41:28.0000000+00:00</time></trkpt><trkpt lat="22.329897" lon="103.781586"><ele>2235.3</ele><time>2011-04-24T09:41:33.0000000+00:00</time></trkpt><trkpt lat="22.32992" lon="103.781593"><ele>2234.5</ele><time>2011-04-24T09:41:38.0000000+00:00</time></trkpt><trkpt lat="22.329935" lon="103.781593"><ele>2233.8</ele><time>2011-04-24T09:41:43.0000000+00:00</time></trkpt><trkpt lat="22.329958" lon="103.781586"><ele>2233.7</ele><time>2011-04-24T09:41:48.0000000+00:00</time></trkpt><trkpt lat="22.329967" lon="103.781593"><ele>2234.1</ele><time>2011-04-24T09:41:53.0000000+00:00</time></trkpt><trkpt lat="22.329977" lon="103.781593"><ele>2233.2</ele><time>2011-04-24T09:41:58.0000000+00:00</time></trkpt><trkpt lat="22.329994" lon="103.781601"><ele>2233.4</ele><time>2011-04-24T09:42:03.0000000+00:00</time></trkpt><trkpt lat="22.329992" lon="103.781609"><ele>2233.9</ele><time>2011-04-24T09:42:08.0000000+00:00</time></trkpt><trkpt lat="22.329988" lon="103.781609"><ele>2234.8</ele><time>2011-04-24T09:42:13.0000000+00:00</time></trkpt><trkpt lat="22.329988" lon="103.781601"><ele>2235.0</ele><time>2011-04-24T09:42:18.0000000+00:00</time></trkpt><trkpt lat="22.330008" lon="103.781578"><ele>2234.8</ele><time>2011-04-24T09:42:23.0000000+00:00</time></trkpt><trkpt lat="22.330019" lon="103.781563"><ele>2234.9</ele><time>2011-04-24T09:42:28.0000000+00:00</time></trkpt><trkpt lat="22.330027" lon="103.781555"><ele>2235.1</ele><time>2011-04-24T09:42:33.0000000+00:00</time></trkpt><trkpt lat="22.330032" lon="103.781548"><ele>2235.2</ele><time>2011-04-24T09:42:38.0000000+00:00</time></trkpt><trkpt lat="22.330036" lon="103.78154"><ele>2235.4</ele><time>2011-04-24T09:42:43.0000000+00:00</time></trkpt><trkpt lat="22.33004" lon="103.78154"><ele>2235.5</ele><time>2011-04-24T09:42:48.0000000+00:00</time></trkpt><trkpt lat="22.330051" lon="103.78154"><ele>2235.7</ele><time>2011-04-24T09:42:53.0000000+00:00</time></trkpt><trkpt lat="22.330059" lon="103.78154"><ele>2235.8</ele><time>2011-04-24T09:42:58.0000000+00:00</time></trkpt><trkpt lat="22.330084" lon="103.78154"><ele>2235.7</ele><time>2011-04-24T09:43:03.0000000+00:00</time></trkpt><trkpt lat="22.330095" lon="103.781525"><ele>2235.8</ele><time>2011-04-24T09:43:08.0000000+00:00</time></trkpt><trkpt lat="22.330065" lon="103.781471"><ele>2235.2</ele><time>2011-04-24T09:43:13.0000000+00:00</time></trkpt><trkpt lat="22.33005" lon="103.781425"><ele>2235.5</ele><time>2011-04-24T09:43:18.0000000+00:00</time></trkpt><trkpt lat="22.33008" lon="103.781395"><ele>2236.2</ele><time>2011-04-24T09:43:23.0000000+00:00</time></trkpt><trkpt lat="22.330116" lon="103.781372"><ele>2236.8</ele><time>2011-04-24T09:43:28.0000000+00:00</time></trkpt><trkpt lat="22.330149" lon="103.781334"><ele>2236.9</ele><time>2011-04-24T09:43:33.0000000+00:00</time></trkpt><trkpt lat="22.330151" lon="103.781334"><ele>2237.4</ele><time>2011-04-24T09:43:38.0000000+00:00</time></trkpt><trkpt lat="22.330149" lon="103.781296"><ele>2237.2</ele><time>2011-04-24T09:43:43.0000000+00:00</time></trkpt><trkpt lat="22.330164" lon="103.781219"><ele>2237.2</ele><time>2011-04-24T09:43:48.0000000+00:00</time></trkpt><trkpt lat="22.330177" lon="103.781166"><ele>2235.4</ele><time>2011-04-24T09:43:53.0000000+00:00</time></trkpt><trkpt lat="22.330175" lon="103.781143"><ele>2234.5</ele><time>2011-04-24T09:43:58.0000000+00:00</time></trkpt><trkpt lat="22.330156" lon="103.781113"><ele>2234.7</ele><time>2011-04-24T09:44:03.0000000+00:00</time></trkpt><trkpt lat="22.330154" lon="103.781013"><ele>2234.4</ele><time>2011-04-24T09:44:08.0000000+00:00</time></trkpt><trkpt lat="22.330183" lon="103.780975"><ele>2232.7</ele><time>2011-04-24T09:44:13.0000000+00:00</time></trkpt><trkpt lat="22.330185" lon="103.780937"><ele>2232.3</ele><time>2011-04-24T09:44:18.0000000+00:00</time></trkpt><trkpt lat="22.330181" lon="103.780907"><ele>2231.7</ele><time>2011-04-24T09:44:23.0000000+00:00</time></trkpt><trkpt lat="22.330168" lon="103.780891"><ele>2231.3</ele><time>2011-04-24T09:44:28.0000000+00:00</time></trkpt><trkpt lat="22.330166" lon="103.780869"><ele>2232.2</ele><time>2011-04-24T09:44:33.0000000+00:00</time></trkpt><trkpt lat="22.330198" lon="103.780853"><ele>2232.7</ele><time>2011-04-24T09:44:38.0000000+00:00</time></trkpt><trkpt lat="22.33021" lon="103.780807"><ele>2232.9</ele><time>2011-04-24T09:44:43.0000000+00:00</time></trkpt><trkpt lat="22.330227" lon="103.780724"><ele>2232.7</ele><time>2011-04-24T09:44:48.0000000+00:00</time></trkpt><trkpt lat="22.33025" lon="103.780663"><ele>2233.2</ele><time>2011-04-24T09:44:53.0000000+00:00</time></trkpt><trkpt lat="22.330286" lon="103.780594"><ele>2232.3</ele><time>2011-04-24T09:44:58.0000000+00:00</time></trkpt><trkpt lat="22.33029" lon="103.780563"><ele>2232.2</ele><time>2011-04-24T09:45:03.0000000+00:00</time></trkpt><trkpt lat="22.330311" lon="103.780563"><ele>2231.7</ele><time>2011-04-24T09:45:08.0000000+00:00</time></trkpt><trkpt lat="22.330318" lon="103.780548"><ele>2231.3</ele><time>2011-04-24T09:45:13.0000000+00:00</time></trkpt><trkpt lat="22.330303" lon="103.780518"><ele>2231.0</ele><time>2011-04-24T09:45:18.0000000+00:00</time></trkpt><trkpt lat="22.330315" lon="103.780502"><ele>2230.6</ele><time>2011-04-24T09:45:23.0000000+00:00</time></trkpt><trkpt lat="22.330301" lon="103.780472"><ele>2230.2</ele><time>2011-04-24T09:45:28.0000000+00:00</time></trkpt><trkpt lat="22.330353" lon="103.780434"><ele>2228.9</ele><time>2011-04-24T09:45:33.0000000+00:00</time></trkpt><trkpt lat="22.330393" lon="103.780403"><ele>2227.7</ele><time>2011-04-24T09:45:38.0000000+00:00</time></trkpt><trkpt lat="22.330435" lon="103.780357"><ele>2226.2</ele><time>2011-04-24T09:45:43.0000000+00:00</time></trkpt><trkpt lat="22.33046" lon="103.780327"><ele>2224.9</ele><time>2011-04-24T09:45:48.0000000+00:00</time></trkpt><trkpt lat="22.330452" lon="103.780289"><ele>2224.4</ele><time>2011-04-24T09:45:53.0000000+00:00</time></trkpt><trkpt lat="22.330448" lon="103.780251"><ele>2224.0</ele><time>2011-04-24T09:45:58.0000000+00:00</time></trkpt><trkpt lat="22.330481" lon="103.780251"><ele>2223.3</ele><time>2011-04-24T09:46:03.0000000+00:00</time></trkpt><trkpt lat="22.330503" lon="103.780243"><ele>2222.9</ele><time>2011-04-24T09:46:08.0000000+00:00</time></trkpt><trkpt lat="22.330526" lon="103.780205"><ele>2222.3</ele><time>2011-04-24T09:46:13.0000000+00:00</time></trkpt><trkpt lat="22.330526" lon="103.780174"><ele>2222.5</ele><time>2011-04-24T09:46:18.0000000+00:00</time></trkpt><trkpt lat="22.330553" lon="103.780182"><ele>2222.6</ele><time>2011-04-24T09:46:23.0000000+00:00</time></trkpt><trkpt lat="22.330563" lon="103.780151"><ele>2222.5</ele><time>2011-04-24T09:46:28.0000000+00:00</time></trkpt><trkpt lat="22.33057" lon="103.780128"><ele>2222.8</ele><time>2011-04-24T09:46:33.0000000+00:00</time></trkpt><trkpt lat="22.330624" lon="103.78009"><ele>2221.7</ele><time>2011-04-24T09:46:38.0000000+00:00</time></trkpt><trkpt lat="22.330652" lon="103.78006"><ele>2220.9</ele><time>2011-04-24T09:46:43.0000000+00:00</time></trkpt><trkpt lat="22.330677" lon="103.780037"><ele>2220.6</ele><time>2011-04-24T09:46:48.0000000+00:00</time></trkpt><trkpt lat="22.330713" lon="103.780052"><ele>2221.7</ele><time>2011-04-24T09:46:53.0000000+00:00</time></trkpt><trkpt lat="22.330734" lon="103.780083"><ele>2222.0</ele><time>2011-04-24T09:46:58.0000000+00:00</time></trkpt><trkpt lat="22.330753" lon="103.78006"><ele>2221.5</ele><time>2011-04-24T09:47:03.0000000+00:00</time></trkpt><trkpt lat="22.330786" lon="103.779991"><ele>2221.6</ele><time>2011-04-24T09:47:08.0000000+00:00</time></trkpt><trkpt lat="22.330786" lon="103.779953"><ele>2221.8</ele><time>2011-04-24T09:47:13.0000000+00:00</time></trkpt><trkpt lat="22.330803" lon="103.779922"><ele>2222.0</ele><time>2011-04-24T09:47:18.0000000+00:00</time></trkpt><trkpt lat="22.330816" lon="103.779915"><ele>2221.7</ele><time>2011-04-24T09:47:23.0000000+00:00</time></trkpt><trkpt lat="22.330847" lon="103.7799"><ele>2222.0</ele><time>2011-04-24T09:47:28.0000000+00:00</time></trkpt><trkpt lat="22.330881" lon="103.7799"><ele>2222.0</ele><time>2011-04-24T09:47:33.0000000+00:00</time></trkpt><trkpt lat="22.330915" lon="103.779884"><ele>2222.0</ele><time>2011-04-24T09:47:38.0000000+00:00</time></trkpt><trkpt lat="22.330925" lon="103.779869"><ele>2222.2</ele><time>2011-04-24T09:47:43.0000000+00:00</time></trkpt><trkpt lat="22.330948" lon="103.779831"><ele>2221.8</ele><time>2011-04-24T09:47:48.0000000+00:00</time></trkpt><trkpt lat="22.330982" lon="103.77977"><ele>2220.7</ele><time>2011-04-24T09:47:53.0000000+00:00</time></trkpt><trkpt lat="22.331007" lon="103.779724"><ele>2220.2</ele><time>2011-04-24T09:47:58.0000000+00:00</time></trkpt><trkpt lat="22.331024" lon="103.779694"><ele>2220.0</ele><time>2011-04-24T09:48:03.0000000+00:00</time></trkpt><trkpt lat="22.331045" lon="103.779655"><ele>2220.7</ele><time>2011-04-24T09:48:08.0000000+00:00</time></trkpt><trkpt lat="22.331064" lon="103.779625"><ele>2221.7</ele><time>2011-04-24T09:48:13.0000000+00:00</time></trkpt><trkpt lat="22.331093" lon="103.779587"><ele>2220.9</ele><time>2011-04-24T09:48:18.0000000+00:00</time></trkpt><trkpt lat="22.331141" lon="103.779572"><ele>2221.3</ele><time>2011-04-24T09:48:23.0000000+00:00</time></trkpt><trkpt lat="22.331165" lon="103.779549"><ele>2222.3</ele><time>2011-04-24T09:48:28.0000000+00:00</time></trkpt><trkpt lat="22.331171" lon="103.779518"><ele>2222.7</ele><time>2011-04-24T09:48:33.0000000+00:00</time></trkpt><trkpt lat="22.331196" lon="103.779488"><ele>2223.4</ele><time>2011-04-24T09:48:38.0000000+00:00</time></trkpt><trkpt lat="22.331245" lon="103.779449"><ele>2223.0</ele><time>2011-04-24T09:48:43.0000000+00:00</time></trkpt><trkpt lat="22.331266" lon="103.779396"><ele>2223.1</ele><time>2011-04-24T09:48:48.0000000+00:00</time></trkpt><trkpt lat="22.331274" lon="103.779373"><ele>2223.9</ele><time>2011-04-24T09:48:53.0000000+00:00</time></trkpt><trkpt lat="22.331285" lon="103.779358"><ele>2224.6</ele><time>2011-04-24T09:48:58.0000000+00:00</time></trkpt><trkpt lat="22.331295" lon="103.779327"><ele>2225.4</ele><time>2011-04-24T09:49:03.0000000+00:00</time></trkpt><trkpt lat="22.331297" lon="103.779289"><ele>2226.6</ele><time>2011-04-24T09:49:08.0000000+00:00</time></trkpt><trkpt lat="22.331339" lon="103.779266"><ele>2226.8</ele><time>2011-04-24T09:49:13.0000000+00:00</time></trkpt><trkpt lat="22.331377" lon="103.779266"><ele>2227.7</ele><time>2011-04-24T09:49:18.0000000+00:00</time></trkpt><trkpt lat="22.331411" lon="103.779243"><ele>2229.1</ele><time>2011-04-24T09:49:23.0000000+00:00</time></trkpt><trkpt lat="22.331484" lon="103.779243"><ele>2228.6</ele><time>2011-04-24T09:49:28.0000000+00:00</time></trkpt><trkpt lat="22.331549" lon="103.779259"><ele>2228.0</ele><time>2011-04-24T09:49:33.0000000+00:00</time></trkpt><trkpt lat="22.331606" lon="103.779236"><ele>2227.1</ele><time>2011-04-24T09:49:38.0000000+00:00</time></trkpt><trkpt lat="22.331659" lon="103.779221"><ele>2226.4</ele><time>2011-04-24T09:49:43.0000000+00:00</time></trkpt><trkpt lat="22.331673" lon="103.779266"><ele>2223.8</ele><time>2011-04-24T09:49:48.0000000+00:00</time></trkpt><trkpt lat="22.33169" lon="103.779251"><ele>2222.7</ele><time>2011-04-24T09:49:53.0000000+00:00</time></trkpt><trkpt lat="22.331717" lon="103.779236"><ele>2222.7</ele><time>2011-04-24T09:49:58.0000000+00:00</time></trkpt><trkpt lat="22.331764" lon="103.779259"><ele>2222.2</ele><time>2011-04-24T09:50:03.0000000+00:00</time></trkpt><trkpt lat="22.331772" lon="103.779251"><ele>2222.4</ele><time>2011-04-24T09:50:08.0000000+00:00</time></trkpt><trkpt lat="22.331785" lon="103.779251"><ele>2222.2</ele><time>2011-04-24T09:50:13.0000000+00:00</time></trkpt><trkpt lat="22.331829" lon="103.779259"><ele>2219.6</ele><time>2011-04-24T09:50:18.0000000+00:00</time></trkpt><trkpt lat="22.331877" lon="103.779236"><ele>2218.6</ele><time>2011-04-24T09:50:23.0000000+00:00</time></trkpt><trkpt lat="22.331921" lon="103.779236"><ele>2217.6</ele><time>2011-04-24T09:50:28.0000000+00:00</time></trkpt><trkpt lat="22.331944" lon="103.779266"><ele>2216.5</ele><time>2011-04-24T09:50:33.0000000+00:00</time></trkpt><trkpt lat="22.331963" lon="103.779274"><ele>2215.5</ele><time>2011-04-24T09:50:38.0000000+00:00</time></trkpt><trkpt lat="22.331982" lon="103.779259"><ele>2215.2</ele><time>2011-04-24T09:50:43.0000000+00:00</time></trkpt><trkpt lat="22.331976" lon="103.779259"><ele>2214.8</ele><time>2011-04-24T09:50:48.0000000+00:00</time></trkpt><trkpt lat="22.331978" lon="103.779259"><ele>2215.0</ele><time>2011-04-24T09:50:53.0000000+00:00</time></trkpt><trkpt lat="22.33198" lon="103.779259"><ele>2215.0</ele><time>2011-04-24T09:50:58.0000000+00:00</time></trkpt><trkpt lat="22.331989" lon="103.779259"><ele>2215.0</ele><time>2011-04-24T09:51:03.0000000+00:00</time></trkpt><trkpt lat="22.332029" lon="103.779243"><ele>2213.0</ele><time>2011-04-24T09:51:08.0000000+00:00</time></trkpt><trkpt lat="22.332047" lon="103.779251"><ele>2211.8</ele><time>2011-04-24T09:51:13.0000000+00:00</time></trkpt><trkpt lat="22.33209" lon="103.779243"><ele>2210.8</ele><time>2011-04-24T09:51:18.0000000+00:00</time></trkpt><trkpt lat="22.332129" lon="103.779251"><ele>2211.2</ele><time>2011-04-24T09:51:23.0000000+00:00</time></trkpt><trkpt lat="22.332151" lon="103.779236"><ele>2211.0</ele><time>2011-04-24T09:51:28.0000000+00:00</time></trkpt><trkpt lat="22.332148" lon="103.779213"><ele>2209.8</ele><time>2011-04-24T09:51:33.0000000+00:00</time></trkpt><trkpt lat="22.332165" lon="103.779213"><ele>2210.2</ele><time>2011-04-24T09:51:38.0000000+00:00</time></trkpt><trkpt lat="22.332169" lon="103.779228"><ele>2209.9</ele><time>2011-04-24T09:51:43.0000000+00:00</time></trkpt><trkpt lat="22.332218" lon="103.779198"><ele>2208.3</ele><time>2011-04-24T09:51:48.0000000+00:00</time></trkpt><trkpt lat="22.33227" lon="103.779205"><ele>2206.1</ele><time>2011-04-24T09:51:53.0000000+00:00</time></trkpt><trkpt lat="22.332335" lon="103.779198"><ele>2203.7</ele><time>2011-04-24T09:51:58.0000000+00:00</time></trkpt><trkpt lat="22.332357" lon="103.779182"><ele>2202.1</ele><time>2011-04-24T09:52:03.0000000+00:00</time></trkpt><trkpt lat="22.332392" lon="103.779167"><ele>2201.1</ele><time>2011-04-24T09:52:08.0000000+00:00</time></trkpt><trkpt lat="22.332434" lon="103.779175"><ele>2200.0</ele><time>2011-04-24T09:52:13.0000000+00:00</time></trkpt><trkpt lat="22.332455" lon="103.779182"><ele>2199.5</ele><time>2011-04-24T09:52:18.0000000+00:00</time></trkpt><trkpt lat="22.332495" lon="103.779175"><ele>2199.2</ele><time>2011-04-24T09:52:23.0000000+00:00</time></trkpt><trkpt lat="22.332523" lon="103.779182"><ele>2199.3</ele><time>2011-04-24T09:52:28.0000000+00:00</time></trkpt><trkpt lat="22.332556" lon="103.779175"><ele>2198.5</ele><time>2011-04-24T09:52:33.0000000+00:00</time></trkpt><trkpt lat="22.332586" lon="103.779182"><ele>2197.8</ele><time>2011-04-24T09:52:38.0000000+00:00</time></trkpt><trkpt lat="22.332607" lon="103.779152"><ele>2196.8</ele><time>2011-04-24T09:52:43.0000000+00:00</time></trkpt><trkpt lat="22.33267" lon="103.779129"><ele>2195.6</ele><time>2011-04-24T09:52:48.0000000+00:00</time></trkpt><trkpt lat="22.332714" lon="103.779144"><ele>2194.0</ele><time>2011-04-24T09:52:53.0000000+00:00</time></trkpt><trkpt lat="22.332745" lon="103.779137"><ele>2192.4</ele><time>2011-04-24T09:52:58.0000000+00:00</time></trkpt><trkpt lat="22.332758" lon="103.779129"><ele>2191.1</ele><time>2011-04-24T09:53:03.0000000+00:00</time></trkpt><trkpt lat="22.332783" lon="103.779129"><ele>2191.0</ele><time>2011-04-24T09:53:08.0000000+00:00</time></trkpt><trkpt lat="22.332827" lon="103.779144"><ele>2191.9</ele><time>2011-04-24T09:53:13.0000000+00:00</time></trkpt><trkpt lat="22.332867" lon="103.779167"><ele>2193.3</ele><time>2011-04-24T09:53:18.0000000+00:00</time></trkpt><trkpt lat="22.332893" lon="103.779182"><ele>2193.7</ele><time>2011-04-24T09:53:23.0000000+00:00</time></trkpt><trkpt lat="22.332914" lon="103.779205"><ele>2192.1</ele><time>2011-04-24T09:53:28.0000000+00:00</time></trkpt><trkpt lat="22.332945" lon="103.779228"><ele>2192.2</ele><time>2011-04-24T09:53:33.0000000+00:00</time></trkpt><trkpt lat="22.332977" lon="103.779251"><ele>2191.4</ele><time>2011-04-24T09:53:38.0000000+00:00</time></trkpt><trkpt lat="22.333025" lon="103.779297"><ele>2190.2</ele><time>2011-04-24T09:53:43.0000000+00:00</time></trkpt><trkpt lat="22.333075" lon="103.779343"><ele>2189.4</ele><time>2011-04-24T09:53:48.0000000+00:00</time></trkpt><trkpt lat="22.333111" lon="103.779381"><ele>2186.5</ele><time>2011-04-24T09:53:53.0000000+00:00</time></trkpt><trkpt lat="22.333157" lon="103.779434"><ele>2183.8</ele><time>2011-04-24T09:53:58.0000000+00:00</time></trkpt><trkpt lat="22.333189" lon="103.779457"><ele>2182.8</ele><time>2011-04-24T09:54:03.0000000+00:00</time></trkpt><trkpt lat="22.333227" lon="103.779465"><ele>2181.4</ele><time>2011-04-24T09:54:08.0000000+00:00</time></trkpt><trkpt lat="22.333269" lon="103.779495"><ele>2180.5</ele><time>2011-04-24T09:54:13.0000000+00:00</time></trkpt><trkpt lat="22.333319" lon="103.779526"><ele>2178.9</ele><time>2011-04-24T09:54:18.0000000+00:00</time></trkpt><trkpt lat="22.333361" lon="103.779556"><ele>2177.2</ele><time>2011-04-24T09:54:23.0000000+00:00</time></trkpt><trkpt lat="22.333389" lon="103.779602"><ele>2175.7</ele><time>2011-04-24T09:54:28.0000000+00:00</time></trkpt><trkpt lat="22.333433" lon="103.779602"><ele>2174.2</ele><time>2011-04-24T09:54:33.0000000+00:00</time></trkpt><trkpt lat="22.333487" lon="103.77961"><ele>2172.6</ele><time>2011-04-24T09:54:38.0000000+00:00</time></trkpt><trkpt lat="22.333529" lon="103.779625"><ele>2172.0</ele><time>2011-04-24T09:54:43.0000000+00:00</time></trkpt><trkpt lat="22.333549" lon="103.779648"><ele>2170.4</ele><time>2011-04-24T09:54:48.0000000+00:00</time></trkpt><trkpt lat="22.33357" lon="103.779655"><ele>2169.0</ele><time>2011-04-24T09:54:53.0000000+00:00</time></trkpt><trkpt lat="22.333593" lon="103.779663"><ele>2167.8</ele><time>2011-04-24T09:54:58.0000000+00:00</time></trkpt><trkpt lat="22.333595" lon="103.779663"><ele>2167.5</ele><time>2011-04-24T09:55:03.0000000+00:00</time></trkpt><trkpt lat="22.33362" lon="103.779671"><ele>2167.0</ele><time>2011-04-24T09:55:08.0000000+00:00</time></trkpt><trkpt lat="22.333637" lon="103.779694"><ele>2165.6</ele><time>2011-04-24T09:55:13.0000000+00:00</time></trkpt><trkpt lat="22.333647" lon="103.779709"><ele>2164.8</ele><time>2011-04-24T09:55:18.0000000+00:00</time></trkpt><trkpt lat="22.333656" lon="103.779716"><ele>2163.6</ele><time>2011-04-24T09:55:23.0000000+00:00</time></trkpt><trkpt lat="22.333662" lon="103.779724"><ele>2163.0</ele><time>2011-04-24T09:55:28.0000000+00:00</time></trkpt><trkpt lat="22.333662" lon="103.779732"><ele>2162.8</ele><time>2011-04-24T09:55:33.0000000+00:00</time></trkpt><trkpt lat="22.333668" lon="103.779739"><ele>2162.5</ele><time>2011-04-24T09:55:38.0000000+00:00</time></trkpt><trkpt lat="22.333691" lon="103.779762"><ele>2161.8</ele><time>2011-04-24T09:55:43.0000000+00:00</time></trkpt><trkpt lat="22.333719" lon="103.779808"><ele>2161.8</ele><time>2011-04-24T09:55:48.0000000+00:00</time></trkpt><trkpt lat="22.333748" lon="103.779854"><ele>2162.2</ele><time>2011-04-24T09:55:53.0000000+00:00</time></trkpt><trkpt lat="22.333761" lon="103.779877"><ele>2161.8</ele><time>2011-04-24T09:55:58.0000000+00:00</time></trkpt><trkpt lat="22.333775" lon="103.779884"><ele>2161.9</ele><time>2011-04-24T09:56:03.0000000+00:00</time></trkpt><trkpt lat="22.333782" lon="103.779884"><ele>2161.2</ele><time>2011-04-24T09:56:08.0000000+00:00</time></trkpt><trkpt lat="22.33378" lon="103.779884"><ele>2161.2</ele><time>2011-04-24T09:56:13.0000000+00:00</time></trkpt><trkpt lat="22.333786" lon="103.779884"><ele>2160.8</ele><time>2011-04-24T09:56:18.0000000+00:00</time></trkpt><trkpt lat="22.33378" lon="103.7799"><ele>2159.5</ele><time>2011-04-24T09:56:23.0000000+00:00</time></trkpt><trkpt lat="22.33379" lon="103.779907"><ele>2158.6</ele><time>2011-04-24T09:56:28.0000000+00:00</time></trkpt><trkpt lat="22.333788" lon="103.779922"><ele>2157.8</ele><time>2011-04-24T09:56:33.0000000+00:00</time></trkpt><trkpt lat="22.333797" lon="103.779922"><ele>2157.2</ele><time>2011-04-24T09:56:38.0000000+00:00</time></trkpt><trkpt lat="22.333805" lon="103.77993"><ele>2156.5</ele><time>2011-04-24T09:56:43.0000000+00:00</time></trkpt><trkpt lat="22.333809" lon="103.779938"><ele>2156.3</ele><time>2011-04-24T09:56:48.0000000+00:00</time></trkpt><trkpt lat="22.33382" lon="103.779945"><ele>2155.5</ele><time>2011-04-24T09:56:53.0000000+00:00</time></trkpt><trkpt lat="22.333872" lon="103.779953"><ele>2155.5</ele><time>2011-04-24T09:56:58.0000000+00:00</time></trkpt><trkpt lat="22.333889" lon="103.779945"><ele>2156.4</ele><time>2011-04-24T09:57:03.0000000+00:00</time></trkpt><trkpt lat="22.333895" lon="103.77993"><ele>2156.7</ele><time>2011-04-24T09:57:08.0000000+00:00</time></trkpt><trkpt lat="22.333878" lon="103.779922"><ele>2157.2</ele><time>2011-04-24T09:57:13.0000000+00:00</time></trkpt><trkpt lat="22.333878" lon="103.779907"><ele>2157.2</ele><time>2011-04-24T09:57:18.0000000+00:00</time></trkpt><trkpt lat="22.333881" lon="103.7799"><ele>2157.1</ele><time>2011-04-24T09:57:23.0000000+00:00</time></trkpt><trkpt lat="22.333883" lon="103.779884"><ele>2156.9</ele><time>2011-04-24T09:57:28.0000000+00:00</time></trkpt><trkpt lat="22.333904" lon="103.779877"><ele>2156.8</ele><time>2011-04-24T09:57:33.0000000+00:00</time></trkpt><trkpt lat="22.333933" lon="103.779861"><ele>2156.1</ele><time>2011-04-24T09:57:38.0000000+00:00</time></trkpt><trkpt lat="22.333941" lon="103.779854"><ele>2155.5</ele><time>2011-04-24T09:57:43.0000000+00:00</time></trkpt><trkpt lat="22.333942" lon="103.779846"><ele>2155.8</ele><time>2011-04-24T09:57:48.0000000+00:00</time></trkpt><trkpt lat="22.333952" lon="103.779839"><ele>2155.4</ele><time>2011-04-24T09:57:53.0000000+00:00</time></trkpt><trkpt lat="22.33395" lon="103.779839"><ele>2155.7</ele><time>2011-04-24T09:57:58.0000000+00:00</time></trkpt><trkpt lat="22.333963" lon="103.779831"><ele>2154.3</ele><time>2011-04-24T09:58:03.0000000+00:00</time></trkpt><trkpt lat="22.333975" lon="103.779831"><ele>2154.2</ele><time>2011-04-24T09:58:08.0000000+00:00</time></trkpt><trkpt lat="22.333986" lon="103.779839"><ele>2152.9</ele><time>2011-04-24T09:58:13.0000000+00:00</time></trkpt><trkpt lat="22.333988" lon="103.779839"><ele>2152.7</ele><time>2011-04-24T09:58:18.0000000+00:00</time></trkpt><trkpt lat="22.33399" lon="103.779831"><ele>2152.7</ele><time>2011-04-24T09:58:23.0000000+00:00</time></trkpt><trkpt lat="22.333998" lon="103.779831"><ele>2152.6</ele><time>2011-04-24T09:58:28.0000000+00:00</time></trkpt><trkpt lat="22.334023" lon="103.779831"><ele>2151.5</ele><time>2011-04-24T09:58:33.0000000+00:00</time></trkpt><trkpt lat="22.334042" lon="103.779831"><ele>2151.7</ele><time>2011-04-24T09:58:38.0000000+00:00</time></trkpt><trkpt lat="22.334064" lon="103.779823"><ele>2151.6</ele><time>2011-04-24T09:58:43.0000000+00:00</time></trkpt><trkpt lat="22.334087" lon="103.779839"><ele>2150.8</ele><time>2011-04-24T09:58:48.0000000+00:00</time></trkpt><trkpt lat="22.334091" lon="103.779854"><ele>2150.0</ele><time>2011-04-24T09:58:53.0000000+00:00</time></trkpt><trkpt lat="22.334105" lon="103.779839"><ele>2149.7</ele><time>2011-04-24T09:58:58.0000000+00:00</time></trkpt><trkpt lat="22.334112" lon="103.779839"><ele>2148.2</ele><time>2011-04-24T09:59:03.0000000+00:00</time></trkpt><trkpt lat="22.334114" lon="103.779839"><ele>2147.8</ele><time>2011-04-24T09:59:08.0000000+00:00</time></trkpt><trkpt lat="22.334122" lon="103.779823"><ele>2146.8</ele><time>2011-04-24T09:59:13.0000000+00:00</time></trkpt><trkpt lat="22.334124" lon="103.779823"><ele>2147.0</ele><time>2011-04-24T09:59:18.0000000+00:00</time></trkpt><trkpt lat="22.334124" lon="103.779816"><ele>2145.7</ele><time>2011-04-24T09:59:23.0000000+00:00</time></trkpt><trkpt lat="22.334129" lon="103.779808"><ele>2145.6</ele><time>2011-04-24T09:59:28.0000000+00:00</time></trkpt><trkpt lat="22.334146" lon="103.7798"><ele>2144.4</ele><time>2011-04-24T09:59:33.0000000+00:00</time></trkpt><trkpt lat="22.334156" lon="103.7798"><ele>2143.8</ele><time>2011-04-24T09:59:38.0000000+00:00</time></trkpt><trkpt lat="22.334162" lon="103.779785"><ele>2142.8</ele><time>2011-04-24T09:59:43.0000000+00:00</time></trkpt><trkpt lat="22.334169" lon="103.779778"><ele>2140.2</ele><time>2011-04-24T09:59:48.0000000+00:00</time></trkpt><trkpt lat="22.334166" lon="103.77977"><ele>2139.6</ele><time>2011-04-24T09:59:53.0000000+00:00</time></trkpt><trkpt lat="22.33416" lon="103.779762"><ele>2139.6</ele><time>2011-04-24T09:59:58.0000000+00:00</time></trkpt><trkpt lat="22.334171" lon="103.779762"><ele>2139.0</ele><time>2011-04-24T10:00:03.0000000+00:00</time></trkpt><trkpt lat="22.334181" lon="103.779762"><ele>2138.8</ele><time>2011-04-24T10:00:08.0000000+00:00</time></trkpt><trkpt lat="22.334171" lon="103.779755"><ele>2138.1</ele><time>2011-04-24T10:00:13.0000000+00:00</time></trkpt><trkpt lat="22.334171" lon="103.779755"><ele>2137.4</ele><time>2011-04-24T10:00:18.0000000+00:00</time></trkpt><trkpt lat="22.33416" lon="103.779755"><ele>2137.7</ele><time>2011-04-24T10:00:23.0000000+00:00</time></trkpt><trkpt lat="22.33416" lon="103.779755"><ele>2138.3</ele><time>2011-04-24T10:00:28.0000000+00:00</time></trkpt><trkpt lat="22.334158" lon="103.779739"><ele>2139.3</ele><time>2011-04-24T10:00:33.0000000+00:00</time></trkpt><trkpt lat="22.334188" lon="103.779709"><ele>2140.2</ele><time>2011-04-24T10:00:38.0000000+00:00</time></trkpt><trkpt lat="22.334221" lon="103.779694"><ele>2140.8</ele><time>2011-04-24T10:00:43.0000000+00:00</time></trkpt><trkpt lat="22.334229" lon="103.779694"><ele>2140.3</ele><time>2011-04-24T10:00:48.0000000+00:00</time></trkpt><trkpt lat="22.334234" lon="103.779678"><ele>2139.4</ele><time>2011-04-24T10:00:53.0000000+00:00</time></trkpt><trkpt lat="22.334246" lon="103.779678"><ele>2137.3</ele><time>2011-04-24T10:00:58.0000000+00:00</time></trkpt><trkpt lat="22.334261" lon="103.779686"><ele>2134.9</ele><time>2011-04-24T10:01:03.0000000+00:00</time></trkpt><trkpt lat="22.334269" lon="103.779709"><ele>2133.7</ele><time>2011-04-24T10:01:08.0000000+00:00</time></trkpt><trkpt lat="22.334282" lon="103.779716"><ele>2133.5</ele><time>2011-04-24T10:01:13.0000000+00:00</time></trkpt><trkpt lat="22.33432" lon="103.779739"><ele>2133.3</ele><time>2011-04-24T10:01:18.0000000+00:00</time></trkpt><trkpt lat="22.334335" lon="103.779747"><ele>2131.7</ele><time>2011-04-24T10:01:23.0000000+00:00</time></trkpt><trkpt lat="22.334335" lon="103.779739"><ele>2132.2</ele><time>2011-04-24T10:01:28.0000000+00:00</time></trkpt><trkpt lat="22.33436" lon="103.779739"><ele>2133.2</ele><time>2011-04-24T10:01:33.0000000+00:00</time></trkpt><trkpt lat="22.334364" lon="103.779732"><ele>2133.3</ele><time>2011-04-24T10:01:38.0000000+00:00</time></trkpt><trkpt lat="22.334364" lon="103.779732"><ele>2133.7</ele><time>2011-04-24T10:01:43.0000000+00:00</time></trkpt><trkpt lat="22.334377" lon="103.779724"><ele>2133.2</ele><time>2011-04-24T10:01:48.0000000+00:00</time></trkpt><trkpt lat="22.334385" lon="103.779716"><ele>2132.4</ele><time>2011-04-24T10:01:53.0000000+00:00</time></trkpt><trkpt lat="22.334391" lon="103.779709"><ele>2131.8</ele><time>2011-04-24T10:01:58.0000000+00:00</time></trkpt><trkpt lat="22.334393" lon="103.779709"><ele>2132.2</ele><time>2011-04-24T10:02:03.0000000+00:00</time></trkpt><trkpt lat="22.334389" lon="103.779701"><ele>2132.2</ele><time>2011-04-24T10:02:08.0000000+00:00</time></trkpt><trkpt lat="22.334389" lon="103.779686"><ele>2131.3</ele><time>2011-04-24T10:02:13.0000000+00:00</time></trkpt><trkpt lat="22.3344" lon="103.779671"><ele>2130.8</ele><time>2011-04-24T10:02:18.0000000+00:00</time></trkpt><trkpt lat="22.334404" lon="103.779663"><ele>2130.7</ele><time>2011-04-24T10:02:23.0000000+00:00</time></trkpt><trkpt lat="22.33441" lon="103.779663"><ele>2130.4</ele><time>2011-04-24T10:02:28.0000000+00:00</time></trkpt><trkpt lat="22.334425" lon="103.779655"><ele>2130.3</ele><time>2011-04-24T10:02:33.0000000+00:00</time></trkpt><trkpt lat="22.334433" lon="103.779655"><ele>2129.5</ele><time>2011-04-24T10:02:38.0000000+00:00</time></trkpt><trkpt lat="22.334435" lon="103.779663"><ele>2129.6</ele><time>2011-04-24T10:02:43.0000000+00:00</time></trkpt><trkpt lat="22.334436" lon="103.779655"><ele>2128.6</ele><time>2011-04-24T10:02:48.0000000+00:00</time></trkpt><trkpt lat="22.334438" lon="103.779655"><ele>2128.6</ele><time>2011-04-24T10:02:53.0000000+00:00</time></trkpt><trkpt lat="22.334438" lon="103.779655"><ele>2128.7</ele><time>2011-04-24T10:02:58.0000000+00:00</time></trkpt><trkpt lat="22.334455" lon="103.779655"><ele>2128.3</ele><time>2011-04-24T10:03:03.0000000+00:00</time></trkpt><trkpt lat="22.334455" lon="103.779655"><ele>2127.8</ele><time>2011-04-24T10:03:08.0000000+00:00</time></trkpt><trkpt lat="22.334455" lon="103.77964"><ele>2127.9</ele><time>2011-04-24T10:03:13.0000000+00:00</time></trkpt><trkpt lat="22.33445" lon="103.77964"><ele>2126.3</ele><time>2011-04-24T10:03:18.0000000+00:00</time></trkpt><trkpt lat="22.334442" lon="103.77964"><ele>2125.7</ele><time>2011-04-24T10:03:23.0000000+00:00</time></trkpt><trkpt lat="22.33444" lon="103.779625"><ele>2124.0</ele><time>2011-04-24T10:03:28.0000000+00:00</time></trkpt><trkpt lat="22.33445" lon="103.779617"><ele>2123.0</ele><time>2011-04-24T10:03:33.0000000+00:00</time></trkpt><trkpt lat="22.334455" lon="103.77961"><ele>2122.7</ele><time>2011-04-24T10:03:38.0000000+00:00</time></trkpt><trkpt lat="22.334459" lon="103.779587"><ele>2122.2</ele><time>2011-04-24T10:03:43.0000000+00:00</time></trkpt><trkpt lat="22.334457" lon="103.779587"><ele>2122.3</ele><time>2011-04-24T10:03:48.0000000+00:00</time></trkpt><trkpt lat="22.334463" lon="103.779541"><ele>2121.9</ele><time>2011-04-24T10:03:53.0000000+00:00</time></trkpt><trkpt lat="22.334452" lon="103.779533"><ele>2121.2</ele><time>2011-04-24T10:03:58.0000000+00:00</time></trkpt><trkpt lat="22.334442" lon="103.779526"><ele>2120.3</ele><time>2011-04-24T10:04:03.0000000+00:00</time></trkpt><trkpt lat="22.334438" lon="103.77951"><ele>2120.1</ele><time>2011-04-24T10:04:08.0000000+00:00</time></trkpt><trkpt lat="22.334455" lon="103.779495"><ele>2119.7</ele><time>2011-04-24T10:04:13.0000000+00:00</time></trkpt><trkpt lat="22.334459" lon="103.779488"><ele>2119.8</ele><time>2011-04-24T10:04:18.0000000+00:00</time></trkpt><trkpt lat="22.334459" lon="103.77948"><ele>2119.8</ele><time>2011-04-24T10:04:23.0000000+00:00</time></trkpt><trkpt lat="22.334461" lon="103.779465"><ele>2119.3</ele><time>2011-04-24T10:04:28.0000000+00:00</time></trkpt><trkpt lat="22.334461" lon="103.779465"><ele>2119.5</ele><time>2011-04-24T10:04:33.0000000+00:00</time></trkpt><trkpt lat="22.334457" lon="103.779457"><ele>2118.9</ele><time>2011-04-24T10:04:38.0000000+00:00</time></trkpt><trkpt lat="22.334473" lon="103.779449"><ele>2118.1</ele><time>2011-04-24T10:04:43.0000000+00:00</time></trkpt><trkpt lat="22.334484" lon="103.779442"><ele>2117.7</ele><time>2011-04-24T10:04:48.0000000+00:00</time></trkpt><trkpt lat="22.334457" lon="103.779434"><ele>2118.0</ele><time>2011-04-24T10:04:53.0000000+00:00</time></trkpt><trkpt lat="22.334433" lon="103.779442"><ele>2118.0</ele><time>2011-04-24T10:04:58.0000000+00:00</time></trkpt><trkpt lat="22.334415" lon="103.779419"><ele>2117.6</ele><time>2011-04-24T10:05:03.0000000+00:00</time></trkpt><trkpt lat="22.334375" lon="103.779396"><ele>2117.0</ele><time>2011-04-24T10:05:08.0000000+00:00</time></trkpt><trkpt lat="22.334352" lon="103.779373"><ele>2116.8</ele><time>2011-04-24T10:05:13.0000000+00:00</time></trkpt><trkpt lat="22.334337" lon="103.779381"><ele>2116.9</ele><time>2011-04-24T10:05:18.0000000+00:00</time></trkpt><trkpt lat="22.334333" lon="103.779358"><ele>2116.9</ele><time>2011-04-24T10:05:23.0000000+00:00</time></trkpt><trkpt lat="22.334312" lon="103.779358"><ele>2116.3</ele><time>2011-04-24T10:05:28.0000000+00:00</time></trkpt><trkpt lat="22.334311" lon="103.77935"><ele>2115.7</ele><time>2011-04-24T10:05:33.0000000+00:00</time></trkpt><trkpt lat="22.334301" lon="103.779343"><ele>2115.3</ele><time>2011-04-24T10:05:38.0000000+00:00</time></trkpt><trkpt lat="22.33429" lon="103.779343"><ele>2114.8</ele><time>2011-04-24T10:05:43.0000000+00:00</time></trkpt><trkpt lat="22.334305" lon="103.779305"><ele>2114.3</ele><time>2011-04-24T10:05:48.0000000+00:00</time></trkpt><trkpt lat="22.334278" lon="103.779297"><ele>2113.7</ele><time>2011-04-24T10:05:53.0000000+00:00</time></trkpt><trkpt lat="22.334299" lon="103.779282"><ele>2113.3</ele><time>2011-04-24T10:05:58.0000000+00:00</time></trkpt><trkpt lat="22.334311" lon="103.779266"><ele>2113.2</ele><time>2011-04-24T10:06:03.0000000+00:00</time></trkpt><trkpt lat="22.334314" lon="103.779251"><ele>2112.9</ele><time>2011-04-24T10:06:08.0000000+00:00</time></trkpt><trkpt lat="22.334326" lon="103.779259"><ele>2113.0</ele><time>2011-04-24T10:06:13.0000000+00:00</time></trkpt><trkpt lat="22.33433" lon="103.779236"><ele>2112.3</ele><time>2011-04-24T10:06:18.0000000+00:00</time></trkpt><trkpt lat="22.334333" lon="103.779236"><ele>2112.3</ele><time>2011-04-24T10:06:23.0000000+00:00</time></trkpt><trkpt lat="22.33433" lon="103.779228"><ele>2112.3</ele><time>2011-04-24T10:06:28.0000000+00:00</time></trkpt><trkpt lat="22.33433" lon="103.779205"><ele>2112.0</ele><time>2011-04-24T10:06:33.0000000+00:00</time></trkpt><trkpt lat="22.334354" lon="103.779198"><ele>2112.0</ele><time>2011-04-24T10:06:38.0000000+00:00</time></trkpt><trkpt lat="22.334345" lon="103.77916"><ele>2111.3</ele><time>2011-04-24T10:06:43.0000000+00:00</time></trkpt><trkpt lat="22.334364" lon="103.77916"><ele>2110.9</ele><time>2011-04-24T10:06:48.0000000+00:00</time></trkpt><trkpt lat="22.334379" lon="103.779144"><ele>2110.4</ele><time>2011-04-24T10:06:53.0000000+00:00</time></trkpt><trkpt lat="22.334396" lon="103.77916"><ele>2109.7</ele><time>2011-04-24T10:06:58.0000000+00:00</time></trkpt><trkpt lat="22.334425" lon="103.77916"><ele>2107.8</ele><time>2011-04-24T10:07:03.0000000+00:00</time></trkpt><trkpt lat="22.334417" lon="103.779152"><ele>2107.4</ele><time>2011-04-24T10:07:08.0000000+00:00</time></trkpt><trkpt lat="22.334402" lon="103.779114"><ele>2107.0</ele><time>2011-04-24T10:07:13.0000000+00:00</time></trkpt><trkpt lat="22.334393" lon="103.779106"><ele>2106.7</ele><time>2011-04-24T10:07:18.0000000+00:00</time></trkpt><trkpt lat="22.334381" lon="103.779099"><ele>2106.3</ele><time>2011-04-24T10:07:23.0000000+00:00</time></trkpt><trkpt lat="22.334358" lon="103.779083"><ele>2106.0</ele><time>2011-04-24T10:07:28.0000000+00:00</time></trkpt><trkpt lat="22.334332" lon="103.779076"><ele>2105.6</ele><time>2011-04-24T10:07:33.0000000+00:00</time></trkpt><trkpt lat="22.334337" lon="103.779076"><ele>2105.2</ele><time>2011-04-24T10:07:38.0000000+00:00</time></trkpt><trkpt lat="22.334347" lon="103.779076"><ele>2105.1</ele><time>2011-04-24T10:07:43.0000000+00:00</time></trkpt><trkpt lat="22.334345" lon="103.779091"><ele>2104.0</ele><time>2011-04-24T10:07:48.0000000+00:00</time></trkpt><trkpt lat="22.334343" lon="103.779076"><ele>2103.5</ele><time>2011-04-24T10:07:53.0000000+00:00</time></trkpt><trkpt lat="22.334322" lon="103.779045"><ele>2102.7</ele><time>2011-04-24T10:07:58.0000000+00:00</time></trkpt><trkpt lat="22.334307" lon="103.779007"><ele>2102.0</ele><time>2011-04-24T10:08:03.0000000+00:00</time></trkpt><trkpt lat="22.334291" lon="103.779007"><ele>2102.0</ele><time>2011-04-24T10:08:08.0000000+00:00</time></trkpt><trkpt lat="22.334291" lon="103.779007"><ele>2102.0</ele><time>2011-04-24T10:08:13.0000000+00:00</time></trkpt><trkpt lat="22.334301" lon="103.778992"><ele>2101.8</ele><time>2011-04-24T10:08:18.0000000+00:00</time></trkpt><trkpt lat="22.334276" lon="103.778992"><ele>2101.1</ele><time>2011-04-24T10:08:23.0000000+00:00</time></trkpt><trkpt lat="22.334278" lon="103.778969"><ele>2100.7</ele><time>2011-04-24T10:08:28.0000000+00:00</time></trkpt><trkpt lat="22.334328" lon="103.7789"><ele>2100.3</ele><time>2011-04-24T10:08:33.0000000+00:00</time></trkpt><trkpt lat="22.33437" lon="103.778885"><ele>2099.7</ele><time>2011-04-24T10:08:38.0000000+00:00</time></trkpt><trkpt lat="22.334389" lon="103.778862"><ele>2098.2</ele><time>2011-04-24T10:08:43.0000000+00:00</time></trkpt><trkpt lat="22.334391" lon="103.778862"><ele>2098.4</ele><time>2011-04-24T10:08:48.0000000+00:00</time></trkpt><trkpt lat="22.334435" lon="103.778831"><ele>2098.3</ele><time>2011-04-24T10:08:53.0000000+00:00</time></trkpt><trkpt lat="22.334457" lon="103.778816"><ele>2098.3</ele><time>2011-04-24T10:08:58.0000000+00:00</time></trkpt><trkpt lat="22.334467" lon="103.778824"><ele>2098.2</ele><time>2011-04-24T10:09:03.0000000+00:00</time></trkpt><trkpt lat="22.334482" lon="103.778847"><ele>2098.2</ele><time>2011-04-24T10:09:08.0000000+00:00</time></trkpt><trkpt lat="22.334507" lon="103.778847"><ele>2098.7</ele><time>2011-04-24T10:09:13.0000000+00:00</time></trkpt><trkpt lat="22.334526" lon="103.778847"><ele>2098.5</ele><time>2011-04-24T10:09:18.0000000+00:00</time></trkpt><trkpt lat="22.334534" lon="103.778839"><ele>2099.1</ele><time>2011-04-24T10:09:23.0000000+00:00</time></trkpt><trkpt lat="22.334524" lon="103.778847"><ele>2098.9</ele><time>2011-04-24T10:09:28.0000000+00:00</time></trkpt><trkpt lat="22.334581" lon="103.778816"><ele>2099.1</ele><time>2011-04-24T10:09:33.0000000+00:00</time></trkpt><trkpt lat="22.334627" lon="103.778809"><ele>2099.7</ele><time>2011-04-24T10:09:38.0000000+00:00</time></trkpt><trkpt lat="22.334675" lon="103.778847"><ele>2101.1</ele><time>2011-04-24T10:09:43.0000000+00:00</time></trkpt><trkpt lat="22.334711" lon="103.778854"><ele>2102.4</ele><time>2011-04-24T10:09:48.0000000+00:00</time></trkpt><trkpt lat="22.334728" lon="103.778839"><ele>2103.7</ele><time>2011-04-24T10:09:53.0000000+00:00</time></trkpt><trkpt lat="22.334791" lon="103.77887"><ele>2103.7</ele><time>2011-04-24T10:09:58.0000000+00:00</time></trkpt><trkpt lat="22.334803" lon="103.778915"><ele>2103.5</ele><time>2011-04-24T10:10:03.0000000+00:00</time></trkpt><trkpt lat="22.334816" lon="103.778938"><ele>2102.2</ele><time>2011-04-24T10:10:08.0000000+00:00</time></trkpt><trkpt lat="22.334835" lon="103.778961"><ele>2100.5</ele><time>2011-04-24T10:10:13.0000000+00:00</time></trkpt><trkpt lat="22.334846" lon="103.778961"><ele>2099.3</ele><time>2011-04-24T10:10:18.0000000+00:00</time></trkpt><trkpt lat="22.334906" lon="103.778976"><ele>2099.1</ele><time>2011-04-24T10:10:23.0000000+00:00</time></trkpt><trkpt lat="22.334934" lon="103.779015"><ele>2097.6</ele><time>2011-04-24T10:10:28.0000000+00:00</time></trkpt><trkpt lat="22.334948" lon="103.779076"><ele>2094.4</ele><time>2011-04-24T10:10:33.0000000+00:00</time></trkpt><trkpt lat="22.33497" lon="103.779099"><ele>2093.0</ele><time>2011-04-24T10:10:38.0000000+00:00</time></trkpt><trkpt lat="22.334963" lon="103.779182"><ele>2090.0</ele><time>2011-04-24T10:10:43.0000000+00:00</time></trkpt><trkpt lat="22.335003" lon="103.779213"><ele>2086.8</ele><time>2011-04-24T10:10:48.0000000+00:00</time></trkpt><trkpt lat="22.335054" lon="103.779205"><ele>2083.2</ele><time>2011-04-24T10:10:53.0000000+00:00</time></trkpt><trkpt lat="22.335062" lon="103.779228"><ele>2083.7</ele><time>2011-04-24T10:10:58.0000000+00:00</time></trkpt><trkpt lat="22.335083" lon="103.779251"><ele>2081.8</ele><time>2011-04-24T10:11:03.0000000+00:00</time></trkpt><trkpt lat="22.335112" lon="103.779305"><ele>2080.2</ele><time>2011-04-24T10:11:08.0000000+00:00</time></trkpt><trkpt lat="22.335148" lon="103.779358"><ele>2079.7</ele><time>2011-04-24T10:11:13.0000000+00:00</time></trkpt><trkpt lat="22.335196" lon="103.779388"><ele>2079.3</ele><time>2011-04-24T10:11:18.0000000+00:00</time></trkpt><trkpt lat="22.335213" lon="103.779434"><ele>2078.6</ele><time>2011-04-24T10:11:23.0000000+00:00</time></trkpt><trkpt lat="22.33522" lon="103.779434"><ele>2079.8</ele><time>2011-04-24T10:11:28.0000000+00:00</time></trkpt><trkpt lat="22.335253" lon="103.779457"><ele>2079.6</ele><time>2011-04-24T10:11:33.0000000+00:00</time></trkpt><trkpt lat="22.335291" lon="103.779472"><ele>2078.8</ele><time>2011-04-24T10:11:38.0000000+00:00</time></trkpt><trkpt lat="22.335323" lon="103.779503"><ele>2078.0</ele><time>2011-04-24T10:11:43.0000000+00:00</time></trkpt><trkpt lat="22.335358" lon="103.779526"><ele>2078.3</ele><time>2011-04-24T10:11:48.0000000+00:00</time></trkpt><trkpt lat="22.335396" lon="103.779549"><ele>2078.3</ele><time>2011-04-24T10:11:53.0000000+00:00</time></trkpt><trkpt lat="22.335415" lon="103.779564"><ele>2079.0</ele><time>2011-04-24T10:11:58.0000000+00:00</time></trkpt><trkpt lat="22.335457" lon="103.779579"><ele>2080.5</ele><time>2011-04-24T10:12:03.0000000+00:00</time></trkpt><trkpt lat="22.335508" lon="103.779594"><ele>2081.1</ele><time>2011-04-24T10:12:08.0000000+00:00</time></trkpt><trkpt lat="22.335543" lon="103.779587"><ele>2082.0</ele><time>2011-04-24T10:12:13.0000000+00:00</time></trkpt><trkpt lat="22.335596" lon="103.779594"><ele>2083.2</ele><time>2011-04-24T10:12:18.0000000+00:00</time></trkpt><trkpt lat="22.335651" lon="103.779579"><ele>2084.2</ele><time>2011-04-24T10:12:23.0000000+00:00</time></trkpt><trkpt lat="22.335691" lon="103.779602"><ele>2083.2</ele><time>2011-04-24T10:12:28.0000000+00:00</time></trkpt><trkpt lat="22.335726" lon="103.779587"><ele>2083.5</ele><time>2011-04-24T10:12:33.0000000+00:00</time></trkpt><trkpt lat="22.335777" lon="103.779572"><ele>2083.5</ele><time>2011-04-24T10:12:38.0000000+00:00</time></trkpt><trkpt lat="22.335814" lon="103.779572"><ele>2081.8</ele><time>2011-04-24T10:12:43.0000000+00:00</time></trkpt><trkpt lat="22.335854" lon="103.779541"><ele>2081.1</ele><time>2011-04-24T10:12:48.0000000+00:00</time></trkpt><trkpt lat="22.335905" lon="103.779533"><ele>2081.6</ele><time>2011-04-24T10:12:53.0000000+00:00</time></trkpt><trkpt lat="22.335951" lon="103.779549"><ele>2081.0</ele><time>2011-04-24T10:12:58.0000000+00:00</time></trkpt><trkpt lat="22.336" lon="103.779541"><ele>2080.4</ele><time>2011-04-24T10:13:03.0000000+00:00</time></trkpt><trkpt lat="22.336048" lon="103.779572"><ele>2080.1</ele><time>2011-04-24T10:13:08.0000000+00:00</time></trkpt><trkpt lat="22.336079" lon="103.779564"><ele>2080.0</ele><time>2011-04-24T10:13:13.0000000+00:00</time></trkpt><trkpt lat="22.336094" lon="103.779587"><ele>2080.3</ele><time>2011-04-24T10:13:18.0000000+00:00</time></trkpt><trkpt lat="22.336115" lon="103.77961"><ele>2080.4</ele><time>2011-04-24T10:13:23.0000000+00:00</time></trkpt><trkpt lat="22.33617" lon="103.779625"><ele>2079.0</ele><time>2011-04-24T10:13:28.0000000+00:00</time></trkpt><trkpt lat="22.336227" lon="103.779625"><ele>2077.7</ele><time>2011-04-24T10:13:33.0000000+00:00</time></trkpt><trkpt lat="22.336281" lon="103.77961"><ele>2075.5</ele><time>2011-04-24T10:13:38.0000000+00:00</time></trkpt><trkpt lat="22.336319" lon="103.77961"><ele>2072.2</ele><time>2011-04-24T10:13:43.0000000+00:00</time></trkpt><trkpt lat="22.336349" lon="103.77961"><ele>2071.2</ele><time>2011-04-24T10:13:48.0000000+00:00</time></trkpt><trkpt lat="22.336388" lon="103.77961"><ele>2070.8</ele><time>2011-04-24T10:13:53.0000000+00:00</time></trkpt><trkpt lat="22.336441" lon="103.779648"><ele>2070.2</ele><time>2011-04-24T10:13:58.0000000+00:00</time></trkpt><trkpt lat="22.336485" lon="103.779671"><ele>2069.7</ele><time>2011-04-24T10:14:03.0000000+00:00</time></trkpt><trkpt lat="22.336535" lon="103.779671"><ele>2068.2</ele><time>2011-04-24T10:14:08.0000000+00:00</time></trkpt><trkpt lat="22.33658" lon="103.779663"><ele>2067.8</ele><time>2011-04-24T10:14:13.0000000+00:00</time></trkpt><trkpt lat="22.33663" lon="103.779671"><ele>2067.5</ele><time>2011-04-24T10:14:18.0000000+00:00</time></trkpt><trkpt lat="22.33666" lon="103.779633"><ele>2067.8</ele><time>2011-04-24T10:14:23.0000000+00:00</time></trkpt><trkpt lat="22.336706" lon="103.779617"><ele>2067.9</ele><time>2011-04-24T10:14:28.0000000+00:00</time></trkpt><trkpt lat="22.336754" lon="103.77961"><ele>2069.4</ele><time>2011-04-24T10:14:33.0000000+00:00</time></trkpt><trkpt lat="22.336803" lon="103.77961"><ele>2069.9</ele><time>2011-04-24T10:14:38.0000000+00:00</time></trkpt><trkpt lat="22.336843" lon="103.779594"><ele>2069.5</ele><time>2011-04-24T10:14:43.0000000+00:00</time></trkpt><trkpt lat="22.33687" lon="103.779572"><ele>2069.2</ele><time>2011-04-24T10:14:48.0000000+00:00</time></trkpt><trkpt lat="22.336901" lon="103.779533"><ele>2070.2</ele><time>2011-04-24T10:14:53.0000000+00:00</time></trkpt><trkpt lat="22.33692" lon="103.779541"><ele>2069.5</ele><time>2011-04-24T10:14:58.0000000+00:00</time></trkpt><trkpt lat="22.336929" lon="103.779541"><ele>2068.9</ele><time>2011-04-24T10:15:03.0000000+00:00</time></trkpt><trkpt lat="22.336933" lon="103.779541"><ele>2068.5</ele><time>2011-04-24T10:15:08.0000000+00:00</time></trkpt><trkpt lat="22.336933" lon="103.779549"><ele>2068.6</ele><time>2011-04-24T10:15:13.0000000+00:00</time></trkpt><trkpt lat="22.336927" lon="103.779533"><ele>2068.4</ele><time>2011-04-24T10:15:18.0000000+00:00</time></trkpt><trkpt lat="22.336935" lon="103.779488"><ele>2067.5</ele><time>2011-04-24T10:15:23.0000000+00:00</time></trkpt><trkpt lat="22.336988" lon="103.779449"><ele>2067.2</ele><time>2011-04-24T10:15:28.0000000+00:00</time></trkpt><trkpt lat="22.337036" lon="103.779411"><ele>2067.2</ele><time>2011-04-24T10:15:33.0000000+00:00</time></trkpt><trkpt lat="22.337095" lon="103.779388"><ele>2066.5</ele><time>2011-04-24T10:15:38.0000000+00:00</time></trkpt><trkpt lat="22.337143" lon="103.779388"><ele>2067.0</ele><time>2011-04-24T10:15:43.0000000+00:00</time></trkpt><trkpt lat="22.337179" lon="103.779366"><ele>2067.5</ele><time>2011-04-24T10:15:48.0000000+00:00</time></trkpt><trkpt lat="22.337221" lon="103.779366"><ele>2067.3</ele><time>2011-04-24T10:15:53.0000000+00:00</time></trkpt><trkpt lat="22.337257" lon="103.77935"><ele>2068.2</ele><time>2011-04-24T10:15:58.0000000+00:00</time></trkpt><trkpt lat="22.337299" lon="103.77935"><ele>2068.3</ele><time>2011-04-24T10:16:03.0000000+00:00</time></trkpt><trkpt lat="22.337353" lon="103.77935"><ele>2067.5</ele><time>2011-04-24T10:16:08.0000000+00:00</time></trkpt><trkpt lat="22.337399" lon="103.779373"><ele>2068.7</ele><time>2011-04-24T10:16:13.0000000+00:00</time></trkpt><trkpt lat="22.337446" lon="103.779366"><ele>2068.3</ele><time>2011-04-24T10:16:18.0000000+00:00</time></trkpt><trkpt lat="22.337479" lon="103.779358"><ele>2068.0</ele><time>2011-04-24T10:16:23.0000000+00:00</time></trkpt><trkpt lat="22.337521" lon="103.779327"><ele>2067.2</ele><time>2011-04-24T10:16:28.0000000+00:00</time></trkpt><trkpt lat="22.337543" lon="103.779289"><ele>2067.4</ele><time>2011-04-24T10:16:33.0000000+00:00</time></trkpt><trkpt lat="22.337582" lon="103.779266"><ele>2066.7</ele><time>2011-04-24T10:16:38.0000000+00:00</time></trkpt><trkpt lat="22.337591" lon="103.779228"><ele>2066.8</ele><time>2011-04-24T10:16:43.0000000+00:00</time></trkpt><trkpt lat="22.337605" lon="103.779198"><ele>2067.4</ele><time>2011-04-24T10:16:48.0000000+00:00</time></trkpt><trkpt lat="22.33761" lon="103.77916"><ele>2069.1</ele><time>2011-04-24T10:16:53.0000000+00:00</time></trkpt><trkpt lat="22.33762" lon="103.779106"><ele>2069.7</ele><time>2011-04-24T10:16:58.0000000+00:00</time></trkpt><trkpt lat="22.337618" lon="103.779068"><ele>2071.3</ele><time>2011-04-24T10:17:03.0000000+00:00</time></trkpt><trkpt lat="22.337645" lon="103.779007"><ele>2071.7</ele><time>2011-04-24T10:17:08.0000000+00:00</time></trkpt><trkpt lat="22.337648" lon="103.778969"><ele>2070.3</ele><time>2011-04-24T10:17:13.0000000+00:00</time></trkpt><trkpt lat="22.337669" lon="103.778923"><ele>2069.9</ele><time>2011-04-24T10:17:18.0000000+00:00</time></trkpt><trkpt lat="22.337698" lon="103.778893"><ele>2069.6</ele><time>2011-04-24T10:17:23.0000000+00:00</time></trkpt><trkpt lat="22.337721" lon="103.778847"><ele>2070.2</ele><time>2011-04-24T10:17:28.0000000+00:00</time></trkpt><trkpt lat="22.337729" lon="103.778809"><ele>2071.0</ele><time>2011-04-24T10:17:33.0000000+00:00</time></trkpt><trkpt lat="22.337738" lon="103.778778"><ele>2071.5</ele><time>2011-04-24T10:17:38.0000000+00:00</time></trkpt><trkpt lat="22.33774" lon="103.778748"><ele>2072.2</ele><time>2011-04-24T10:17:43.0000000+00:00</time></trkpt><trkpt lat="22.337774" lon="103.778725"><ele>2072.7</ele><time>2011-04-24T10:17:48.0000000+00:00</time></trkpt><trkpt lat="22.337818" lon="103.778687"><ele>2074.5</ele><time>2011-04-24T10:17:53.0000000+00:00</time></trkpt><trkpt lat="22.337831" lon="103.778664"><ele>2075.9</ele><time>2011-04-24T10:17:58.0000000+00:00</time></trkpt><trkpt lat="22.337847" lon="103.778625"><ele>2077.3</ele><time>2011-04-24T10:18:03.0000000+00:00</time></trkpt><trkpt lat="22.33786" lon="103.77861"><ele>2077.9</ele><time>2011-04-24T10:18:08.0000000+00:00</time></trkpt><trkpt lat="22.337872" lon="103.77861"><ele>2078.3</ele><time>2011-04-24T10:18:13.0000000+00:00</time></trkpt><trkpt lat="22.337887" lon="103.778595"><ele>2078.8</ele><time>2011-04-24T10:18:18.0000000+00:00</time></trkpt><trkpt lat="22.337893" lon="103.77858"><ele>2079.4</ele><time>2011-04-24T10:18:23.0000000+00:00</time></trkpt><trkpt lat="22.337923" lon="103.778572"><ele>2080.3</ele><time>2011-04-24T10:18:28.0000000+00:00</time></trkpt><trkpt lat="22.337955" lon="103.778572"><ele>2081.1</ele><time>2011-04-24T10:18:33.0000000+00:00</time></trkpt><trkpt lat="22.337997" lon="103.778564"><ele>2081.7</ele><time>2011-04-24T10:18:38.0000000+00:00</time></trkpt><trkpt lat="22.337984" lon="103.77858"><ele>2081.1</ele><time>2011-04-24T10:18:43.0000000+00:00</time></trkpt><trkpt lat="22.338024" lon="103.778519"><ele>2079.2</ele><time>2011-04-24T10:18:48.0000000+00:00</time></trkpt><trkpt lat="22.338049" lon="103.778503"><ele>2079.3</ele><time>2011-04-24T10:18:53.0000000+00:00</time></trkpt><trkpt lat="22.338093" lon="103.778458"><ele>2079.2</ele><time>2011-04-24T10:18:58.0000000+00:00</time></trkpt><trkpt lat="22.33812" lon="103.778427"><ele>2078.2</ele><time>2011-04-24T10:19:03.0000000+00:00</time></trkpt><trkpt lat="22.338156" lon="103.778381"><ele>2075.9</ele><time>2011-04-24T10:19:08.0000000+00:00</time></trkpt><trkpt lat="22.338156" lon="103.778313"><ele>2075.1</ele><time>2011-04-24T10:19:13.0000000+00:00</time></trkpt><trkpt lat="22.338148" lon="103.778267"><ele>2073.5</ele><time>2011-04-24T10:19:18.0000000+00:00</time></trkpt><trkpt lat="22.338158" lon="103.778229"><ele>2074.2</ele><time>2011-04-24T10:19:23.0000000+00:00</time></trkpt><trkpt lat="22.338179" lon="103.778206"><ele>2073.7</ele><time>2011-04-24T10:19:28.0000000+00:00</time></trkpt><trkpt lat="22.338205" lon="103.77816"><ele>2072.9</ele><time>2011-04-24T10:19:33.0000000+00:00</time></trkpt><trkpt lat="22.338192" lon="103.778122"><ele>2072.7</ele><time>2011-04-24T10:19:38.0000000+00:00</time></trkpt><trkpt lat="22.338194" lon="103.778061"><ele>2071.3</ele><time>2011-04-24T10:19:43.0000000+00:00</time></trkpt><trkpt lat="22.338175" lon="103.778008"><ele>2070.8</ele><time>2011-04-24T10:19:48.0000000+00:00</time></trkpt><trkpt lat="22.338139" lon="103.777985"><ele>2070.8</ele><time>2011-04-24T10:19:53.0000000+00:00</time></trkpt><trkpt lat="22.338127" lon="103.777946"><ele>2071.1</ele><time>2011-04-24T10:19:58.0000000+00:00</time></trkpt><trkpt lat="22.338137" lon="103.777931"><ele>2071.2</ele><time>2011-04-24T10:20:03.0000000+00:00</time></trkpt><trkpt lat="22.338121" lon="103.777939"><ele>2071.2</ele><time>2011-04-24T10:20:08.0000000+00:00</time></trkpt><trkpt lat="22.338104" lon="103.777931"><ele>2071.3</ele><time>2011-04-24T10:20:13.0000000+00:00</time></trkpt><trkpt lat="22.338093" lon="103.777855"><ele>2071.2</ele><time>2011-04-24T10:20:18.0000000+00:00</time></trkpt><trkpt lat="22.338097" lon="103.777802"><ele>2071.6</ele><time>2011-04-24T10:20:23.0000000+00:00</time></trkpt><trkpt lat="22.338099" lon="103.777794"><ele>2071.4</ele><time>2011-04-24T10:20:28.0000000+00:00</time></trkpt><trkpt lat="22.338085" lon="103.777794"><ele>2072.2</ele><time>2011-04-24T10:20:33.0000000+00:00</time></trkpt><trkpt lat="22.338079" lon="103.777786"><ele>2073.4</ele><time>2011-04-24T10:20:38.0000000+00:00</time></trkpt><trkpt lat="22.338087" lon="103.777748"><ele>2074.8</ele><time>2011-04-24T10:20:43.0000000+00:00</time></trkpt><trkpt lat="22.338099" lon="103.777718"><ele>2076.2</ele><time>2011-04-24T10:20:48.0000000+00:00</time></trkpt><trkpt lat="22.338118" lon="103.777702"><ele>2079.6</ele><time>2011-04-24T10:20:53.0000000+00:00</time></trkpt><trkpt lat="22.338121" lon="103.777672"><ele>2080.2</ele><time>2011-04-24T10:20:58.0000000+00:00</time></trkpt><trkpt lat="22.338137" lon="103.777618"><ele>2081.2</ele><time>2011-04-24T10:21:03.0000000+00:00</time></trkpt><trkpt lat="22.33814" lon="103.777573"><ele>2083.0</ele><time>2011-04-24T10:21:08.0000000+00:00</time></trkpt><trkpt lat="22.338165" lon="103.777512"><ele>2083.8</ele><time>2011-04-24T10:21:13.0000000+00:00</time></trkpt><trkpt lat="22.338173" lon="103.777458"><ele>2082.9</ele><time>2011-04-24T10:21:18.0000000+00:00</time></trkpt><trkpt lat="22.338179" lon="103.777412"><ele>2083.2</ele><time>2011-04-24T10:21:23.0000000+00:00</time></trkpt><trkpt lat="22.338181" lon="103.777359"><ele>2083.8</ele><time>2011-04-24T10:21:28.0000000+00:00</time></trkpt><trkpt lat="22.338202" lon="103.777313"><ele>2083.5</ele><time>2011-04-24T10:21:33.0000000+00:00</time></trkpt><trkpt lat="22.338215" lon="103.777252"><ele>2083.2</ele><time>2011-04-24T10:21:38.0000000+00:00</time></trkpt><trkpt lat="22.338207" lon="103.777168"><ele>2080.8</ele><time>2011-04-24T10:21:43.0000000+00:00</time></trkpt><trkpt lat="22.33823" lon="103.777145"><ele>2080.7</ele><time>2011-04-24T10:21:48.0000000+00:00</time></trkpt><trkpt lat="22.338261" lon="103.77713"><ele>2081.6</ele><time>2011-04-24T10:21:53.0000000+00:00</time></trkpt><trkpt lat="22.338285" lon="103.7771"><ele>2082.4</ele><time>2011-04-24T10:21:58.0000000+00:00</time></trkpt><trkpt lat="22.338282" lon="103.777069"><ele>2083.2</ele><time>2011-04-24T10:22:03.0000000+00:00</time></trkpt><trkpt lat="22.338264" lon="103.777016"><ele>2083.6</ele><time>2011-04-24T10:22:08.0000000+00:00</time></trkpt><trkpt lat="22.338247" lon="103.776978"><ele>2084.1</ele><time>2011-04-24T10:22:13.0000000+00:00</time></trkpt><trkpt lat="22.338238" lon="103.776939"><ele>2084.4</ele><time>2011-04-24T10:22:18.0000000+00:00</time></trkpt><trkpt lat="22.338221" lon="103.776947"><ele>2085.3</ele><time>2011-04-24T10:22:23.0000000+00:00</time></trkpt><trkpt lat="22.338226" lon="103.776932"><ele>2085.8</ele><time>2011-04-24T10:22:28.0000000+00:00</time></trkpt><trkpt lat="22.338276" lon="103.776901"><ele>2086.6</ele><time>2011-04-24T10:22:33.0000000+00:00</time></trkpt><trkpt lat="22.338284" lon="103.776886"><ele>2087.6</ele><time>2011-04-24T10:22:38.0000000+00:00</time></trkpt><trkpt lat="22.338354" lon="103.77684"><ele>2088.5</ele><time>2011-04-24T10:22:43.0000000+00:00</time></trkpt><trkpt lat="22.33839" lon="103.776817"><ele>2088.8</ele><time>2011-04-24T10:22:48.0000000+00:00</time></trkpt><trkpt lat="22.338436" lon="103.776787"><ele>2089.5</ele><time>2011-04-24T10:22:53.0000000+00:00</time></trkpt><trkpt lat="22.338455" lon="103.776741"><ele>2090.4</ele><time>2011-04-24T10:22:58.0000000+00:00</time></trkpt><trkpt lat="22.338497" lon="103.776703"><ele>2090.8</ele><time>2011-04-24T10:23:03.0000000+00:00</time></trkpt><trkpt lat="22.33856" lon="103.776718"><ele>2090.6</ele><time>2011-04-24T10:23:08.0000000+00:00</time></trkpt><trkpt lat="22.338598" lon="103.776688"><ele>2090.4</ele><time>2011-04-24T10:23:13.0000000+00:00</time></trkpt><trkpt lat="22.338671" lon="103.776703"><ele>2089.1</ele><time>2011-04-24T10:23:18.0000000+00:00</time></trkpt><trkpt lat="22.338703" lon="103.77668"><ele>2089.2</ele><time>2011-04-24T10:23:23.0000000+00:00</time></trkpt><trkpt lat="22.338705" lon="103.776665"><ele>2089.0</ele><time>2011-04-24T10:23:28.0000000+00:00</time></trkpt><trkpt lat="22.338718" lon="103.776649"><ele>2088.4</ele><time>2011-04-24T10:23:33.0000000+00:00</time></trkpt><trkpt lat="22.338745" lon="103.776634"><ele>2087.8</ele><time>2011-04-24T10:23:38.0000000+00:00</time></trkpt><trkpt lat="22.33876" lon="103.776634"><ele>2087.2</ele><time>2011-04-24T10:23:43.0000000+00:00</time></trkpt><trkpt lat="22.338793" lon="103.776619"><ele>2084.8</ele><time>2011-04-24T10:23:48.0000000+00:00</time></trkpt><trkpt lat="22.338827" lon="103.776596"><ele>2080.2</ele><time>2011-04-24T10:23:53.0000000+00:00</time></trkpt><trkpt lat="22.338837" lon="103.776566"><ele>2077.7</ele><time>2011-04-24T10:23:58.0000000+00:00</time></trkpt><trkpt lat="22.33885" lon="103.776535"><ele>2076.4</ele><time>2011-04-24T10:24:03.0000000+00:00</time></trkpt><trkpt lat="22.338856" lon="103.776505"><ele>2074.5</ele><time>2011-04-24T10:24:08.0000000+00:00</time></trkpt><trkpt lat="22.338856" lon="103.776489"><ele>2074.5</ele><time>2011-04-24T10:24:13.0000000+00:00</time></trkpt><trkpt lat="22.338881" lon="103.776466"><ele>2073.5</ele><time>2011-04-24T10:24:18.0000000+00:00</time></trkpt><trkpt lat="22.338888" lon="103.776459"><ele>2073.1</ele><time>2011-04-24T10:24:23.0000000+00:00</time></trkpt><trkpt lat="22.33889" lon="103.776428"><ele>2073.2</ele><time>2011-04-24T10:24:28.0000000+00:00</time></trkpt><trkpt lat="22.338884" lon="103.776421"><ele>2073.9</ele><time>2011-04-24T10:24:33.0000000+00:00</time></trkpt><trkpt lat="22.338882" lon="103.776421"><ele>2073.8</ele><time>2011-04-24T10:24:38.0000000+00:00</time></trkpt><trkpt lat="22.338869" lon="103.776405"><ele>2074.2</ele><time>2011-04-24T10:24:43.0000000+00:00</time></trkpt><trkpt lat="22.338858" lon="103.776367"><ele>2073.2</ele><time>2011-04-24T10:24:48.0000000+00:00</time></trkpt><trkpt lat="22.338856" lon="103.776329"><ele>2072.2</ele><time>2011-04-24T10:24:53.0000000+00:00</time></trkpt><trkpt lat="22.338898" lon="103.776276"><ele>2071.7</ele><time>2011-04-24T10:24:58.0000000+00:00</time></trkpt><trkpt lat="22.338955" lon="103.776276"><ele>2071.3</ele><time>2011-04-24T10:25:03.0000000+00:00</time></trkpt><trkpt lat="22.338976" lon="103.77626"><ele>2070.6</ele><time>2011-04-24T10:25:08.0000000+00:00</time></trkpt><trkpt lat="22.33897" lon="103.77626"><ele>2070.3</ele><time>2011-04-24T10:25:13.0000000+00:00</time></trkpt><trkpt lat="22.338959" lon="103.77626"><ele>2069.7</ele><time>2011-04-24T10:25:18.0000000+00:00</time></trkpt><trkpt lat="22.338974" lon="103.776245"><ele>2069.2</ele><time>2011-04-24T10:25:23.0000000+00:00</time></trkpt><trkpt lat="22.338976" lon="103.776245"><ele>2068.8</ele><time>2011-04-24T10:25:28.0000000+00:00</time></trkpt><trkpt lat="22.33898" lon="103.776222"><ele>2069.5</ele><time>2011-04-24T10:25:33.0000000+00:00</time></trkpt><trkpt lat="22.338989" lon="103.776184"><ele>2068.2</ele><time>2011-04-24T10:25:38.0000000+00:00</time></trkpt><trkpt lat="22.338995" lon="103.776154"><ele>2066.4</ele><time>2011-04-24T10:25:43.0000000+00:00</time></trkpt><trkpt lat="22.338997" lon="103.776146"><ele>2066.2</ele><time>2011-04-24T10:25:48.0000000+00:00</time></trkpt><trkpt lat="22.338997" lon="103.776131"><ele>2066.2</ele><time>2011-04-24T10:25:53.0000000+00:00</time></trkpt><trkpt lat="22.339012" lon="103.776146"><ele>2065.8</ele><time>2011-04-24T10:25:58.0000000+00:00</time></trkpt><trkpt lat="22.339037" lon="103.776115"><ele>2066.2</ele><time>2011-04-24T10:26:03.0000000+00:00</time></trkpt><trkpt lat="22.339079" lon="103.776047"><ele>2067.0</ele><time>2011-04-24T10:26:08.0000000+00:00</time></trkpt><trkpt lat="22.339123" lon="103.776031"><ele>2067.6</ele><time>2011-04-24T10:26:13.0000000+00:00</time></trkpt><trkpt lat="22.339149" lon="103.776031"><ele>2066.5</ele><time>2011-04-24T10:26:18.0000000+00:00</time></trkpt><trkpt lat="22.33919" lon="103.776009"><ele>2067.5</ele><time>2011-04-24T10:26:23.0000000+00:00</time></trkpt><trkpt lat="22.339237" lon="103.776016"><ele>2066.8</ele><time>2011-04-24T10:26:28.0000000+00:00</time></trkpt><trkpt lat="22.339264" lon="103.775978"><ele>2067.8</ele><time>2011-04-24T10:26:33.0000000+00:00</time></trkpt><trkpt lat="22.339308" lon="103.77594"><ele>2069.1</ele><time>2011-04-24T10:26:38.0000000+00:00</time></trkpt><trkpt lat="22.339334" lon="103.775902"><ele>2068.0</ele><time>2011-04-24T10:26:43.0000000+00:00</time></trkpt><trkpt lat="22.339361" lon="103.775879"><ele>2067.7</ele><time>2011-04-24T10:26:48.0000000+00:00</time></trkpt><trkpt lat="22.339376" lon="103.775856"><ele>2067.3</ele><time>2011-04-24T10:26:53.0000000+00:00</time></trkpt><trkpt lat="22.339401" lon="103.775841"><ele>2067.0</ele><time>2011-04-24T10:26:58.0000000+00:00</time></trkpt><trkpt lat="22.33943" lon="103.775826"><ele>2067.8</ele><time>2011-04-24T10:27:03.0000000+00:00</time></trkpt><trkpt lat="22.33943" lon="103.775818"><ele>2066.7</ele><time>2011-04-24T10:27:08.0000000+00:00</time></trkpt><trkpt lat="22.339445" lon="103.775826"><ele>2065.4</ele><time>2011-04-24T10:27:13.0000000+00:00</time></trkpt><trkpt lat="22.339466" lon="103.775833"><ele>2065.2</ele><time>2011-04-24T10:27:18.0000000+00:00</time></trkpt><trkpt lat="22.339481" lon="103.775841"><ele>2064.8</ele><time>2011-04-24T10:27:23.0000000+00:00</time></trkpt><trkpt lat="22.339495" lon="103.775833"><ele>2064.8</ele><time>2011-04-24T10:27:28.0000000+00:00</time></trkpt><trkpt lat="22.339512" lon="103.775841"><ele>2064.2</ele><time>2011-04-24T10:27:33.0000000+00:00</time></trkpt><trkpt lat="22.339533" lon="103.775841"><ele>2063.8</ele><time>2011-04-24T10:27:38.0000000+00:00</time></trkpt><trkpt lat="22.339573" lon="103.775856"><ele>2061.0</ele><time>2011-04-24T10:27:43.0000000+00:00</time></trkpt><trkpt lat="22.339613" lon="103.775871"><ele>2057.9</ele><time>2011-04-24T10:27:48.0000000+00:00</time></trkpt><trkpt lat="22.339632" lon="103.775864"><ele>2056.2</ele><time>2011-04-24T10:27:53.0000000+00:00</time></trkpt><trkpt lat="22.339649" lon="103.775864"><ele>2054.8</ele><time>2011-04-24T10:27:58.0000000+00:00</time></trkpt><trkpt lat="22.339668" lon="103.775871"><ele>2053.5</ele><time>2011-04-24T10:28:03.0000000+00:00</time></trkpt><trkpt lat="22.339685" lon="103.775871"><ele>2052.8</ele><time>2011-04-24T10:28:08.0000000+00:00</time></trkpt><trkpt lat="22.339703" lon="103.775879"><ele>2052.0</ele><time>2011-04-24T10:28:13.0000000+00:00</time></trkpt><trkpt lat="22.339699" lon="103.775887"><ele>2051.6</ele><time>2011-04-24T10:28:18.0000000+00:00</time></trkpt><trkpt lat="22.339703" lon="103.775887"><ele>2051.5</ele><time>2011-04-24T10:28:23.0000000+00:00</time></trkpt><trkpt lat="22.339716" lon="103.775887"><ele>2052.0</ele><time>2011-04-24T10:28:28.0000000+00:00</time></trkpt><trkpt lat="22.339724" lon="103.775894"><ele>2052.1</ele><time>2011-04-24T10:28:33.0000000+00:00</time></trkpt><trkpt lat="22.33972" lon="103.775894"><ele>2051.8</ele><time>2011-04-24T10:28:38.0000000+00:00</time></trkpt><trkpt lat="22.339735" lon="103.775894"><ele>2051.3</ele><time>2011-04-24T10:28:43.0000000+00:00</time></trkpt><trkpt lat="22.339769" lon="103.775902"><ele>2051.1</ele><time>2011-04-24T10:28:48.0000000+00:00</time></trkpt><trkpt lat="22.339815" lon="103.775925"><ele>2051.8</ele><time>2011-04-24T10:28:53.0000000+00:00</time></trkpt><trkpt lat="22.33984" lon="103.775925"><ele>2052.8</ele><time>2011-04-24T10:28:58.0000000+00:00</time></trkpt><trkpt lat="22.339853" lon="103.77597"><ele>2052.2</ele><time>2011-04-24T10:29:03.0000000+00:00</time></trkpt><trkpt lat="22.339869" lon="103.775978"><ele>2052.6</ele><time>2011-04-24T10:29:08.0000000+00:00</time></trkpt><trkpt lat="22.339872" lon="103.775993"><ele>2052.8</ele><time>2011-04-24T10:29:13.0000000+00:00</time></trkpt><trkpt lat="22.339901" lon="103.775986"><ele>2053.0</ele><time>2011-04-24T10:29:18.0000000+00:00</time></trkpt><trkpt lat="22.339943" lon="103.775948"><ele>2052.2</ele><time>2011-04-24T10:29:23.0000000+00:00</time></trkpt><trkpt lat="22.339987" lon="103.77594"><ele>2052.5</ele><time>2011-04-24T10:29:28.0000000+00:00</time></trkpt><trkpt lat="22.340002" lon="103.775925"><ele>2052.2</ele><time>2011-04-24T10:29:33.0000000+00:00</time></trkpt><trkpt lat="22.340029" lon="103.775917"><ele>2052.2</ele><time>2011-04-24T10:29:38.0000000+00:00</time></trkpt><trkpt lat="22.340082" lon="103.77594"><ele>2051.1</ele><time>2011-04-24T10:29:43.0000000+00:00</time></trkpt><trkpt lat="22.34012" lon="103.77594"><ele>2050.8</ele><time>2011-04-24T10:29:48.0000000+00:00</time></trkpt><trkpt lat="22.340126" lon="103.77594"><ele>2049.8</ele><time>2011-04-24T10:29:53.0000000+00:00</time></trkpt><trkpt lat="22.340157" lon="103.775963"><ele>2049.8</ele><time>2011-04-24T10:29:58.0000000+00:00</time></trkpt><trkpt lat="22.340155" lon="103.77597"><ele>2048.9</ele><time>2011-04-24T10:30:03.0000000+00:00</time></trkpt><trkpt lat="22.340185" lon="103.77597"><ele>2048.7</ele><time>2011-04-24T10:30:08.0000000+00:00</time></trkpt><trkpt lat="22.340242" lon="103.776016"><ele>2046.4</ele><time>2011-04-24T10:30:13.0000000+00:00</time></trkpt><trkpt lat="22.340265" lon="103.776031"><ele>2045.3</ele><time>2011-04-24T10:30:18.0000000+00:00</time></trkpt><trkpt lat="22.340305" lon="103.776047"><ele>2044.5</ele><time>2011-04-24T10:30:23.0000000+00:00</time></trkpt><trkpt lat="22.340353" lon="103.776062"><ele>2044.0</ele><time>2011-04-24T10:30:28.0000000+00:00</time></trkpt><trkpt lat="22.34038" lon="103.776077"><ele>2043.4</ele><time>2011-04-24T10:30:33.0000000+00:00</time></trkpt><trkpt lat="22.34038" lon="103.776115"><ele>2041.1</ele><time>2011-04-24T10:30:38.0000000+00:00</time></trkpt><trkpt lat="22.34042" lon="103.776115"><ele>2040.2</ele><time>2011-04-24T10:30:43.0000000+00:00</time></trkpt><trkpt lat="22.34046" lon="103.776138"><ele>2038.6</ele><time>2011-04-24T10:30:48.0000000+00:00</time></trkpt><trkpt lat="22.340485" lon="103.776131"><ele>2037.8</ele><time>2011-04-24T10:30:53.0000000+00:00</time></trkpt><trkpt lat="22.340496" lon="103.776108"><ele>2036.9</ele><time>2011-04-24T10:30:58.0000000+00:00</time></trkpt><trkpt lat="22.340511" lon="103.776108"><ele>2036.2</ele><time>2011-04-24T10:31:03.0000000+00:00</time></trkpt><trkpt lat="22.340538" lon="103.776108"><ele>2035.5</ele><time>2011-04-24T10:31:08.0000000+00:00</time></trkpt><trkpt lat="22.340548" lon="103.776108"><ele>2034.7</ele><time>2011-04-24T10:31:13.0000000+00:00</time></trkpt><trkpt lat="22.340559" lon="103.776108"><ele>2034.4</ele><time>2011-04-24T10:31:18.0000000+00:00</time></trkpt><trkpt lat="22.340578" lon="103.776131"><ele>2033.9</ele><time>2011-04-24T10:31:23.0000000+00:00</time></trkpt><trkpt lat="22.340588" lon="103.776131"><ele>2033.6</ele><time>2011-04-24T10:31:28.0000000+00:00</time></trkpt><trkpt lat="22.34063" lon="103.776161"><ele>2032.7</ele><time>2011-04-24T10:31:33.0000000+00:00</time></trkpt><trkpt lat="22.340622" lon="103.776176"><ele>2031.6</ele><time>2011-04-24T10:31:38.0000000+00:00</time></trkpt><trkpt lat="22.340614" lon="103.776199"><ele>2030.9</ele><time>2011-04-24T10:31:43.0000000+00:00</time></trkpt><trkpt lat="22.340616" lon="103.776199"><ele>2030.3</ele><time>2011-04-24T10:31:48.0000000+00:00</time></trkpt><trkpt lat="22.340633" lon="103.776215"><ele>2028.8</ele><time>2011-04-24T10:31:53.0000000+00:00</time></trkpt><trkpt lat="22.340635" lon="103.776222"><ele>2026.9</ele><time>2011-04-24T10:31:58.0000000+00:00</time></trkpt><trkpt lat="22.340628" lon="103.776222"><ele>2026.8</ele><time>2011-04-24T10:32:03.0000000+00:00</time></trkpt><trkpt lat="22.34062" lon="103.776222"><ele>2026.2</ele><time>2011-04-24T10:32:08.0000000+00:00</time></trkpt><trkpt lat="22.340635" lon="103.776207"><ele>2025.7</ele><time>2011-04-24T10:32:13.0000000+00:00</time></trkpt><trkpt lat="22.340662" lon="103.776215"><ele>2025.3</ele><time>2011-04-24T10:32:18.0000000+00:00</time></trkpt><trkpt lat="22.340717" lon="103.776207"><ele>2024.5</ele><time>2011-04-24T10:32:23.0000000+00:00</time></trkpt><trkpt lat="22.340714" lon="103.776207"><ele>2024.0</ele><time>2011-04-24T10:32:28.0000000+00:00</time></trkpt><trkpt lat="22.340748" lon="103.776169"><ele>2023.3</ele><time>2011-04-24T10:32:33.0000000+00:00</time></trkpt><trkpt lat="22.340807" lon="103.776192"><ele>2022.7</ele><time>2011-04-24T10:32:38.0000000+00:00</time></trkpt><trkpt lat="22.340832" lon="103.776222"><ele>2023.3</ele><time>2011-04-24T10:32:43.0000000+00:00</time></trkpt><trkpt lat="22.340845" lon="103.776199"><ele>2024.5</ele><time>2011-04-24T10:32:48.0000000+00:00</time></trkpt><trkpt lat="22.340876" lon="103.776192"><ele>2025.1</ele><time>2011-04-24T10:32:53.0000000+00:00</time></trkpt><trkpt lat="22.340923" lon="103.776176"><ele>2026.0</ele><time>2011-04-24T10:32:58.0000000+00:00</time></trkpt><trkpt lat="22.340963" lon="103.776161"><ele>2026.4</ele><time>2011-04-24T10:33:03.0000000+00:00</time></trkpt><trkpt lat="22.340992" lon="103.776138"><ele>2027.0</ele><time>2011-04-24T10:33:08.0000000+00:00</time></trkpt><trkpt lat="22.341034" lon="103.776161"><ele>2025.5</ele><time>2011-04-24T10:33:13.0000000+00:00</time></trkpt><trkpt lat="22.341074" lon="103.776138"><ele>2025.8</ele><time>2011-04-24T10:33:18.0000000+00:00</time></trkpt><trkpt lat="22.341139" lon="103.776138"><ele>2026.1</ele><time>2011-04-24T10:33:23.0000000+00:00</time></trkpt><trkpt lat="22.341196" lon="103.776115"><ele>2026.7</ele><time>2011-04-24T10:33:28.0000000+00:00</time></trkpt><trkpt lat="22.341211" lon="103.776093"><ele>2026.5</ele><time>2011-04-24T10:33:33.0000000+00:00</time></trkpt><trkpt lat="22.341223" lon="103.776085"><ele>2026.7</ele><time>2011-04-24T10:33:38.0000000+00:00</time></trkpt><trkpt lat="22.341261" lon="103.776123"><ele>2026.0</ele><time>2011-04-24T10:33:43.0000000+00:00</time></trkpt><trkpt lat="22.341291" lon="103.776154"><ele>2025.4</ele><time>2011-04-24T10:33:48.0000000+00:00</time></trkpt><trkpt lat="22.341316" lon="103.776176"><ele>2024.8</ele><time>2011-04-24T10:33:53.0000000+00:00</time></trkpt><trkpt lat="22.341349" lon="103.776169"><ele>2025.0</ele><time>2011-04-24T10:33:58.0000000+00:00</time></trkpt><trkpt lat="22.341402" lon="103.776222"><ele>2025.0</ele><time>2011-04-24T10:34:03.0000000+00:00</time></trkpt><trkpt lat="22.341446" lon="103.776268"><ele>2024.5</ele><time>2011-04-24T10:34:08.0000000+00:00</time></trkpt><trkpt lat="22.341469" lon="103.776291"><ele>2024.3</ele><time>2011-04-24T10:34:13.0000000+00:00</time></trkpt><trkpt lat="22.341478" lon="103.776306"><ele>2024.1</ele><time>2011-04-24T10:34:18.0000000+00:00</time></trkpt><trkpt lat="22.341503" lon="103.776329"><ele>2022.4</ele><time>2011-04-24T10:34:23.0000000+00:00</time></trkpt><trkpt lat="22.341515" lon="103.776314"><ele>2015.8</ele><time>2011-04-24T10:34:28.0000000+00:00</time></trkpt><trkpt lat="22.341539" lon="103.776329"><ele>2012.0</ele><time>2011-04-24T10:34:33.0000000+00:00</time></trkpt><trkpt lat="22.34157" lon="103.776352"><ele>2009.8</ele><time>2011-04-24T10:34:38.0000000+00:00</time></trkpt><trkpt lat="22.341602" lon="103.776344"><ele>2009.4</ele><time>2011-04-24T10:34:43.0000000+00:00</time></trkpt><trkpt lat="22.341648" lon="103.77636"><ele>2009.2</ele><time>2011-04-24T10:34:48.0000000+00:00</time></trkpt><trkpt lat="22.341702" lon="103.776344"><ele>2010.1</ele><time>2011-04-24T10:34:53.0000000+00:00</time></trkpt><trkpt lat="22.341763" lon="103.776352"><ele>2011.7</ele><time>2011-04-24T10:34:58.0000000+00:00</time></trkpt><trkpt lat="22.341814" lon="103.776337"><ele>2011.3</ele><time>2011-04-24T10:35:03.0000000+00:00</time></trkpt><trkpt lat="22.341871" lon="103.776337"><ele>2011.5</ele><time>2011-04-24T10:35:08.0000000+00:00</time></trkpt><trkpt lat="22.341923" lon="103.776329"><ele>2008.5</ele><time>2011-04-24T10:35:13.0000000+00:00</time></trkpt><trkpt lat="22.341965" lon="103.776329"><ele>2006.0</ele><time>2011-04-24T10:35:18.0000000+00:00</time></trkpt><trkpt lat="22.34201" lon="103.776321"><ele>2006.0</ele><time>2011-04-24T10:35:23.0000000+00:00</time></trkpt><trkpt lat="22.342068" lon="103.776329"><ele>2006.3</ele><time>2011-04-24T10:35:28.0000000+00:00</time></trkpt><trkpt lat="22.342119" lon="103.776314"><ele>2005.7</ele><time>2011-04-24T10:35:33.0000000+00:00</time></trkpt><trkpt lat="22.342144" lon="103.776283"><ele>2003.6</ele><time>2011-04-24T10:35:38.0000000+00:00</time></trkpt><trkpt lat="22.342178" lon="103.776291"><ele>2003.5</ele><time>2011-04-24T10:35:43.0000000+00:00</time></trkpt><trkpt lat="22.342182" lon="103.776291"><ele>2003.6</ele><time>2011-04-24T10:35:48.0000000+00:00</time></trkpt><trkpt lat="22.342184" lon="103.776291"><ele>2003.4</ele><time>2011-04-24T10:35:53.0000000+00:00</time></trkpt><trkpt lat="22.342188" lon="103.776299"><ele>2002.2</ele><time>2011-04-24T10:35:58.0000000+00:00</time></trkpt><trkpt lat="22.342213" lon="103.776314"><ele>2001.5</ele><time>2011-04-24T10:36:03.0000000+00:00</time></trkpt><trkpt lat="22.342234" lon="103.776321"><ele>2001.7</ele><time>2011-04-24T10:36:08.0000000+00:00</time></trkpt><trkpt lat="22.342268" lon="103.776299"><ele>2001.3</ele><time>2011-04-24T10:36:13.0000000+00:00</time></trkpt><trkpt lat="22.342308" lon="103.776329"><ele>2000.4</ele><time>2011-04-24T10:36:18.0000000+00:00</time></trkpt><trkpt lat="22.342352" lon="103.776321"><ele>1999.6</ele><time>2011-04-24T10:36:23.0000000+00:00</time></trkpt><trkpt lat="22.342396" lon="103.776306"><ele>1999.4</ele><time>2011-04-24T10:36:28.0000000+00:00</time></trkpt><trkpt lat="22.34243" lon="103.776283"><ele>1999.9</ele><time>2011-04-24T10:36:33.0000000+00:00</time></trkpt><trkpt lat="22.342434" lon="103.776268"><ele>2000.3</ele><time>2011-04-24T10:36:38.0000000+00:00</time></trkpt><trkpt lat="22.34244" lon="103.776253"><ele>2000.8</ele><time>2011-04-24T10:36:43.0000000+00:00</time></trkpt><trkpt lat="22.342455" lon="103.776237"><ele>2001.3</ele><time>2011-04-24T10:36:48.0000000+00:00</time></trkpt><trkpt lat="22.342482" lon="103.776215"><ele>2001.6</ele><time>2011-04-24T10:36:53.0000000+00:00</time></trkpt><trkpt lat="22.342508" lon="103.776199"><ele>2002.7</ele><time>2011-04-24T10:36:58.0000000+00:00</time></trkpt><trkpt lat="22.34255" lon="103.776192"><ele>2003.7</ele><time>2011-04-24T10:37:03.0000000+00:00</time></trkpt><trkpt lat="22.3426" lon="103.776192"><ele>2004.0</ele><time>2011-04-24T10:37:08.0000000+00:00</time></trkpt><trkpt lat="22.342636" lon="103.776199"><ele>2004.5</ele><time>2011-04-24T10:37:13.0000000+00:00</time></trkpt><trkpt lat="22.342665" lon="103.776176"><ele>2006.2</ele><time>2011-04-24T10:37:18.0000000+00:00</time></trkpt><trkpt lat="22.342705" lon="103.776184"><ele>2004.7</ele><time>2011-04-24T10:37:23.0000000+00:00</time></trkpt><trkpt lat="22.342743" lon="103.776176"><ele>2005.4</ele><time>2011-04-24T10:37:28.0000000+00:00</time></trkpt><trkpt lat="22.342752" lon="103.776154"><ele>2006.0</ele><time>2011-04-24T10:37:33.0000000+00:00</time></trkpt><trkpt lat="22.342779" lon="103.776131"><ele>2006.3</ele><time>2011-04-24T10:37:38.0000000+00:00</time></trkpt><trkpt lat="22.342793" lon="103.776123"><ele>2006.6</ele><time>2011-04-24T10:37:43.0000000+00:00</time></trkpt><trkpt lat="22.342823" lon="103.7761"><ele>2006.9</ele><time>2011-04-24T10:37:48.0000000+00:00</time></trkpt><trkpt lat="22.342852" lon="103.776062"><ele>2007.4</ele><time>2011-04-24T10:37:53.0000000+00:00</time></trkpt><trkpt lat="22.342857" lon="103.776047"><ele>2008.4</ele><time>2011-04-24T10:37:58.0000000+00:00</time></trkpt><trkpt lat="22.342865" lon="103.776031"><ele>2008.3</ele><time>2011-04-24T10:38:03.0000000+00:00</time></trkpt><trkpt lat="22.342869" lon="103.776016"><ele>2008.5</ele><time>2011-04-24T10:38:08.0000000+00:00</time></trkpt><trkpt lat="22.342876" lon="103.775986"><ele>2009.4</ele><time>2011-04-24T10:38:13.0000000+00:00</time></trkpt><trkpt lat="22.342882" lon="103.775955"><ele>2009.2</ele><time>2011-04-24T10:38:18.0000000+00:00</time></trkpt><trkpt lat="22.342899" lon="103.775925"><ele>2009.5</ele><time>2011-04-24T10:38:23.0000000+00:00</time></trkpt><trkpt lat="22.342913" lon="103.775887"><ele>2009.9</ele><time>2011-04-24T10:38:28.0000000+00:00</time></trkpt><trkpt lat="22.342953" lon="103.775848"><ele>2010.8</ele><time>2011-04-24T10:38:33.0000000+00:00</time></trkpt><trkpt lat="22.34297" lon="103.775833"><ele>2011.4</ele><time>2011-04-24T10:38:38.0000000+00:00</time></trkpt><trkpt lat="22.342974" lon="103.775803"><ele>2011.3</ele><time>2011-04-24T10:38:43.0000000+00:00</time></trkpt><trkpt lat="22.342983" lon="103.775787"><ele>2012.0</ele><time>2011-04-24T10:38:48.0000000+00:00</time></trkpt><trkpt lat="22.342991" lon="103.775795"><ele>2012.7</ele><time>2011-04-24T10:38:53.0000000+00:00</time></trkpt><trkpt lat="22.343" lon="103.775787"><ele>2012.8</ele><time>2011-04-24T10:38:58.0000000+00:00</time></trkpt><trkpt lat="22.343033" lon="103.775749"><ele>2012.8</ele><time>2011-04-24T10:39:03.0000000+00:00</time></trkpt><trkpt lat="22.34305" lon="103.775726"><ele>2013.2</ele><time>2011-04-24T10:39:08.0000000+00:00</time></trkpt><trkpt lat="22.343075" lon="103.775688"><ele>2014.4</ele><time>2011-04-24T10:39:13.0000000+00:00</time></trkpt><trkpt lat="22.343088" lon="103.775673"><ele>2015.5</ele><time>2011-04-24T10:39:18.0000000+00:00</time></trkpt><trkpt lat="22.343103" lon="103.775658"><ele>2016.2</ele><time>2011-04-24T10:39:23.0000000+00:00</time></trkpt><trkpt lat="22.3431" lon="103.775642"><ele>2016.2</ele><time>2011-04-24T10:39:28.0000000+00:00</time></trkpt><trkpt lat="22.343151" lon="103.775612"><ele>2015.7</ele><time>2011-04-24T10:39:33.0000000+00:00</time></trkpt><trkpt lat="22.343197" lon="103.775574"><ele>2014.9</ele><time>2011-04-24T10:39:38.0000000+00:00</time></trkpt><trkpt lat="22.343258" lon="103.775505"><ele>2017.0</ele><time>2011-04-24T10:39:43.0000000+00:00</time></trkpt><trkpt lat="22.343317" lon="103.775475"><ele>2017.9</ele><time>2011-04-24T10:39:48.0000000+00:00</time></trkpt><trkpt lat="22.343376" lon="103.775444"><ele>2018.6</ele><time>2011-04-24T10:39:53.0000000+00:00</time></trkpt><trkpt lat="22.343428" lon="103.775406"><ele>2019.9</ele><time>2011-04-24T10:39:58.0000000+00:00</time></trkpt><trkpt lat="22.343466" lon="103.77536"><ele>2020.3</ele><time>2011-04-24T10:40:03.0000000+00:00</time></trkpt><trkpt lat="22.343508" lon="103.77533"><ele>2020.9</ele><time>2011-04-24T10:40:08.0000000+00:00</time></trkpt><trkpt lat="22.343548" lon="103.775299"><ele>2021.0</ele><time>2011-04-24T10:40:13.0000000+00:00</time></trkpt><trkpt lat="22.34359" lon="103.775276"><ele>2020.9</ele><time>2011-04-24T10:40:18.0000000+00:00</time></trkpt><trkpt lat="22.343613" lon="103.775246"><ele>2020.3</ele><time>2011-04-24T10:40:23.0000000+00:00</time></trkpt><trkpt lat="22.343668" lon="103.775246"><ele>2019.9</ele><time>2011-04-24T10:40:28.0000000+00:00</time></trkpt><trkpt lat="22.343721" lon="103.775261"><ele>2019.7</ele><time>2011-04-24T10:40:33.0000000+00:00</time></trkpt><trkpt lat="22.343765" lon="103.775246"><ele>2020.0</ele><time>2011-04-24T10:40:38.0000000+00:00</time></trkpt><trkpt lat="22.343819" lon="103.775246"><ele>2020.0</ele><time>2011-04-24T10:40:43.0000000+00:00</time></trkpt><trkpt lat="22.343859" lon="103.775238"><ele>2020.5</ele><time>2011-04-24T10:40:48.0000000+00:00</time></trkpt><trkpt lat="22.343912" lon="103.775246"><ele>2020.4</ele><time>2011-04-24T10:40:53.0000000+00:00</time></trkpt><trkpt lat="22.343964" lon="103.775276"><ele>2020.4</ele><time>2011-04-24T10:40:58.0000000+00:00</time></trkpt><trkpt lat="22.344013" lon="103.775307"><ele>2020.6</ele><time>2011-04-24T10:41:03.0000000+00:00</time></trkpt><trkpt lat="22.344059" lon="103.775322"><ele>2020.9</ele><time>2011-04-24T10:41:08.0000000+00:00</time></trkpt><trkpt lat="22.344112" lon="103.77533"><ele>2021.4</ele><time>2011-04-24T10:41:13.0000000+00:00</time></trkpt><trkpt lat="22.344156" lon="103.775314"><ele>2021.5</ele><time>2011-04-24T10:41:18.0000000+00:00</time></trkpt><trkpt lat="22.344213" lon="103.775307"><ele>2021.8</ele><time>2011-04-24T10:41:23.0000000+00:00</time></trkpt><trkpt lat="22.344261" lon="103.775299"><ele>2022.0</ele><time>2011-04-24T10:41:28.0000000+00:00</time></trkpt><trkpt lat="22.344307" lon="103.775299"><ele>2022.2</ele><time>2011-04-24T10:41:33.0000000+00:00</time></trkpt><trkpt lat="22.344351" lon="103.775299"><ele>2022.6</ele><time>2011-04-24T10:41:38.0000000+00:00</time></trkpt><trkpt lat="22.3444" lon="103.775291"><ele>2022.9</ele><time>2011-04-24T10:41:43.0000000+00:00</time></trkpt><trkpt lat="22.344454" lon="103.775284"><ele>2022.5</ele><time>2011-04-24T10:41:48.0000000+00:00</time></trkpt><trkpt lat="22.344507" lon="103.775269"><ele>2021.5</ele><time>2011-04-24T10:41:53.0000000+00:00</time></trkpt><trkpt lat="22.344566" lon="103.775261"><ele>2020.5</ele><time>2011-04-24T10:41:58.0000000+00:00</time></trkpt><trkpt lat="22.344627" lon="103.775269"><ele>2020.1</ele><time>2011-04-24T10:42:03.0000000+00:00</time></trkpt><trkpt lat="22.344677" lon="103.775284"><ele>2020.1</ele><time>2011-04-24T10:42:08.0000000+00:00</time></trkpt><trkpt lat="22.344711" lon="103.775269"><ele>2020.2</ele><time>2011-04-24T10:42:13.0000000+00:00</time></trkpt><trkpt lat="22.344704" lon="103.775269"><ele>2020.4</ele><time>2011-04-24T10:42:18.0000000+00:00</time></trkpt><trkpt lat="22.344753" lon="103.775253"><ele>2020.4</ele><time>2011-04-24T10:42:23.0000000+00:00</time></trkpt><trkpt lat="22.344801" lon="103.775246"><ele>2020.0</ele><time>2011-04-24T10:42:28.0000000+00:00</time></trkpt><trkpt lat="22.344841" lon="103.775215"><ele>2019.9</ele><time>2011-04-24T10:42:33.0000000+00:00</time></trkpt><trkpt lat="22.344891" lon="103.775192"><ele>2019.5</ele><time>2011-04-24T10:42:38.0000000+00:00</time></trkpt><trkpt lat="22.34495" lon="103.775169"><ele>2019.7</ele><time>2011-04-24T10:42:43.0000000+00:00</time></trkpt><trkpt lat="22.345001" lon="103.775146"><ele>2019.9</ele><time>2011-04-24T10:42:48.0000000+00:00</time></trkpt><trkpt lat="22.345068" lon="103.775146"><ele>2019.7</ele><time>2011-04-24T10:42:53.0000000+00:00</time></trkpt><trkpt lat="22.345131" lon="103.775162"><ele>2019.9</ele><time>2011-04-24T10:42:58.0000000+00:00</time></trkpt><trkpt lat="22.345179" lon="103.775154"><ele>2020.4</ele><time>2011-04-24T10:43:03.0000000+00:00</time></trkpt><trkpt lat="22.345224" lon="103.775154"><ele>2020.8</ele><time>2011-04-24T10:43:08.0000000+00:00</time></trkpt><trkpt lat="22.345282" lon="103.775154"><ele>2021.1</ele><time>2011-04-24T10:43:13.0000000+00:00</time></trkpt><trkpt lat="22.345341" lon="103.775154"><ele>2021.6</ele><time>2011-04-24T10:43:18.0000000+00:00</time></trkpt><trkpt lat="22.3454" lon="103.775146"><ele>2021.7</ele><time>2011-04-24T10:43:23.0000000+00:00</time></trkpt><trkpt lat="22.345453" lon="103.775131"><ele>2022.3</ele><time>2011-04-24T10:43:28.0000000+00:00</time></trkpt><trkpt lat="22.34551" lon="103.775124"><ele>2022.8</ele><time>2011-04-24T10:43:33.0000000+00:00</time></trkpt><trkpt lat="22.345568" lon="103.775131"><ele>2023.1</ele><time>2011-04-24T10:43:38.0000000+00:00</time></trkpt><trkpt lat="22.345606" lon="103.775116"><ele>2022.5</ele><time>2011-04-24T10:43:43.0000000+00:00</time></trkpt><trkpt lat="22.34565" lon="103.775093"><ele>2021.7</ele><time>2011-04-24T10:43:48.0000000+00:00</time></trkpt><trkpt lat="22.345695" lon="103.775055"><ele>2021.3</ele><time>2011-04-24T10:43:53.0000000+00:00</time></trkpt><trkpt lat="22.345718" lon="103.774994"><ele>2020.2</ele><time>2011-04-24T10:43:58.0000000+00:00</time></trkpt><trkpt lat="22.345728" lon="103.774925"><ele>2019.3</ele><time>2011-04-24T10:44:03.0000000+00:00</time></trkpt><trkpt lat="22.345758" lon="103.774879"><ele>2018.3</ele><time>2011-04-24T10:44:08.0000000+00:00</time></trkpt><trkpt lat="22.34577" lon="103.774841"><ele>2018.0</ele><time>2011-04-24T10:44:13.0000000+00:00</time></trkpt><trkpt lat="22.345772" lon="103.774834"><ele>2017.5</ele><time>2011-04-24T10:44:18.0000000+00:00</time></trkpt><trkpt lat="22.345772" lon="103.774834"><ele>2017.4</ele><time>2011-04-24T10:44:23.0000000+00:00</time></trkpt><trkpt lat="22.345772" lon="103.774834"><ele>2017.4</ele><time>2011-04-24T10:44:28.0000000+00:00</time></trkpt><trkpt lat="22.345774" lon="103.774834"><ele>2017.4</ele><time>2011-04-24T10:44:33.0000000+00:00</time></trkpt><trkpt lat="22.345825" lon="103.774803"><ele>2017.4</ele><time>2011-04-24T10:44:38.0000000+00:00</time></trkpt><trkpt lat="22.345884" lon="103.77478"><ele>2018.0</ele><time>2011-04-24T10:44:43.0000000+00:00</time></trkpt><trkpt lat="22.345915" lon="103.774727"><ele>2018.0</ele><time>2011-04-24T10:44:48.0000000+00:00</time></trkpt><trkpt lat="22.345934" lon="103.774689"><ele>2018.7</ele><time>2011-04-24T10:44:53.0000000+00:00</time></trkpt><trkpt lat="22.345976" lon="103.774658"><ele>2018.9</ele><time>2011-04-24T10:44:58.0000000+00:00</time></trkpt><trkpt lat="22.346014" lon="103.77462"><ele>2019.5</ele><time>2011-04-24T10:45:03.0000000+00:00</time></trkpt><trkpt lat="22.346035" lon="103.77459"><ele>2020.1</ele><time>2011-04-24T10:45:08.0000000+00:00</time></trkpt><trkpt lat="22.346052" lon="103.774574"><ele>2020.7</ele><time>2011-04-24T10:45:13.0000000+00:00</time></trkpt><trkpt lat="22.346064" lon="103.774574"><ele>2020.2</ele><time>2011-04-24T10:45:18.0000000+00:00</time></trkpt><trkpt lat="22.346083" lon="103.774551"><ele>2018.8</ele><time>2011-04-24T10:45:23.0000000+00:00</time></trkpt><trkpt lat="22.346104" lon="103.774536"><ele>2019.3</ele><time>2011-04-24T10:45:28.0000000+00:00</time></trkpt><trkpt lat="22.346153" lon="103.774506"><ele>2020.0</ele><time>2011-04-24T10:45:33.0000000+00:00</time></trkpt><trkpt lat="22.346182" lon="103.774483"><ele>2019.5</ele><time>2011-04-24T10:45:38.0000000+00:00</time></trkpt><trkpt lat="22.346188" lon="103.774483"><ele>2020.1</ele><time>2011-04-24T10:45:43.0000000+00:00</time></trkpt><trkpt lat="22.346197" lon="103.774475"><ele>2021.1</ele><time>2011-04-24T10:45:48.0000000+00:00</time></trkpt><trkpt lat="22.346214" lon="103.774467"><ele>2022.5</ele><time>2011-04-24T10:45:53.0000000+00:00</time></trkpt><trkpt lat="22.346239" lon="103.774452"><ele>2023.0</ele><time>2011-04-24T10:45:58.0000000+00:00</time></trkpt><trkpt lat="22.346266" lon="103.774437"><ele>2023.8</ele><time>2011-04-24T10:46:03.0000000+00:00</time></trkpt><trkpt lat="22.346294" lon="103.774422"><ele>2023.4</ele><time>2011-04-24T10:46:08.0000000+00:00</time></trkpt><trkpt lat="22.346315" lon="103.774429"><ele>2021.3</ele><time>2011-04-24T10:46:13.0000000+00:00</time></trkpt><trkpt lat="22.346336" lon="103.774429"><ele>2019.5</ele><time>2011-04-24T10:46:18.0000000+00:00</time></trkpt><trkpt lat="22.346371" lon="103.774422"><ele>2019.8</ele><time>2011-04-24T10:46:23.0000000+00:00</time></trkpt><trkpt lat="22.346407" lon="103.774399"><ele>2020.1</ele><time>2011-04-24T10:46:28.0000000+00:00</time></trkpt><trkpt lat="22.346445" lon="103.774422"><ele>2018.3</ele><time>2011-04-24T10:46:33.0000000+00:00</time></trkpt><trkpt lat="22.346462" lon="103.774422"><ele>2017.6</ele><time>2011-04-24T10:46:38.0000000+00:00</time></trkpt><trkpt lat="22.346458" lon="103.774437"><ele>2017.0</ele><time>2011-04-24T10:46:43.0000000+00:00</time></trkpt><trkpt lat="22.346458" lon="103.774437"><ele>2016.9</ele><time>2011-04-24T10:46:48.0000000+00:00</time></trkpt><trkpt lat="22.346451" lon="103.774437"><ele>2016.4</ele><time>2011-04-24T10:46:53.0000000+00:00</time></trkpt><trkpt lat="22.346453" lon="103.774437"><ele>2015.8</ele><time>2011-04-24T10:46:58.0000000+00:00</time></trkpt><trkpt lat="22.346464" lon="103.774429"><ele>2015.5</ele><time>2011-04-24T10:47:03.0000000+00:00</time></trkpt><trkpt lat="22.346464" lon="103.774422"><ele>2015.5</ele><time>2011-04-24T10:47:08.0000000+00:00</time></trkpt><trkpt lat="22.346458" lon="103.774406"><ele>2015.2</ele><time>2011-04-24T10:47:13.0000000+00:00</time></trkpt><trkpt lat="22.346451" lon="103.774384"><ele>2013.4</ele><time>2011-04-24T10:47:18.0000000+00:00</time></trkpt><trkpt lat="22.346453" lon="103.774384"><ele>2013.4</ele><time>2011-04-24T10:47:23.0000000+00:00</time></trkpt><trkpt lat="22.346453" lon="103.774384"><ele>2013.5</ele><time>2011-04-24T10:47:28.0000000+00:00</time></trkpt><trkpt lat="22.346449" lon="103.774391"><ele>2013.5</ele><time>2011-04-24T10:47:33.0000000+00:00</time></trkpt><trkpt lat="22.346436" lon="103.774406"><ele>2013.3</ele><time>2011-04-24T10:47:38.0000000+00:00</time></trkpt><trkpt lat="22.346432" lon="103.774406"><ele>2013.2</ele><time>2011-04-24T10:47:43.0000000+00:00</time></trkpt><trkpt lat="22.346439" lon="103.774384"><ele>2013.2</ele><time>2011-04-24T10:47:48.0000000+00:00</time></trkpt><trkpt lat="22.346445" lon="103.774368"><ele>2012.4</ele><time>2011-04-24T10:47:52.0000000+00:00</time></trkpt><trkpt lat="22.346445" lon="103.774361"><ele>2012.2</ele><time>2011-04-24T10:47:58.0000000+00:00</time></trkpt><trkpt lat="22.346445" lon="103.774338"><ele>2011.4</ele><time>2011-04-24T10:48:03.0000000+00:00</time></trkpt><trkpt lat="22.346453" lon="103.77433"><ele>2011.8</ele><time>2011-04-24T10:48:08.0000000+00:00</time></trkpt><trkpt lat="22.346455" lon="103.77433"><ele>2011.9</ele><time>2011-04-24T10:48:13.0000000+00:00</time></trkpt><trkpt lat="22.346458" lon="103.774323"><ele>2011.9</ele><time>2011-04-24T10:48:18.0000000+00:00</time></trkpt><trkpt lat="22.346458" lon="103.774323"><ele>2011.9</ele><time>2011-04-24T10:48:23.0000000+00:00</time></trkpt><trkpt lat="22.346462" lon="103.774315"><ele>2011.4</ele><time>2011-04-24T10:48:28.0000000+00:00</time></trkpt><trkpt lat="22.346464" lon="103.774292"><ele>2010.5</ele><time>2011-04-24T10:48:33.0000000+00:00</time></trkpt><trkpt lat="22.346472" lon="103.774261"><ele>2009.7</ele><time>2011-04-24T10:48:38.0000000+00:00</time></trkpt><trkpt lat="22.346483" lon="103.774254"><ele>2010.1</ele><time>2011-04-24T10:48:43.0000000+00:00</time></trkpt><trkpt lat="22.34651" lon="103.774246"><ele>2009.8</ele><time>2011-04-24T10:48:48.0000000+00:00</time></trkpt><trkpt lat="22.346556" lon="103.774246"><ele>2009.5</ele><time>2011-04-24T10:48:53.0000000+00:00</time></trkpt><trkpt lat="22.346571" lon="103.774246"><ele>2009.5</ele><time>2011-04-24T10:48:58.0000000+00:00</time></trkpt><trkpt lat="22.346575" lon="103.774269"><ele>2009.1</ele><time>2011-04-24T10:49:03.0000000+00:00</time></trkpt><trkpt lat="22.34659" lon="103.774269"><ele>2009.3</ele><time>2011-04-24T10:49:08.0000000+00:00</time></trkpt><trkpt lat="22.346601" lon="103.774239"><ele>2009.1</ele><time>2011-04-24T10:49:13.0000000+00:00</time></trkpt><trkpt lat="22.346615" lon="103.774223"><ele>2009.4</ele><time>2011-04-24T10:49:18.0000000+00:00</time></trkpt><trkpt lat="22.346624" lon="103.774223"><ele>2009.4</ele><time>2011-04-24T10:49:23.0000000+00:00</time></trkpt><trkpt lat="22.346636" lon="103.774208"><ele>2009.8</ele><time>2011-04-24T10:49:28.0000000+00:00</time></trkpt><trkpt lat="22.346642" lon="103.774208"><ele>2010.1</ele><time>2011-04-24T10:49:33.0000000+00:00</time></trkpt><trkpt lat="22.346645" lon="103.774155"><ele>2009.8</ele><time>2011-04-24T10:49:38.0000000+00:00</time></trkpt><trkpt lat="22.346664" lon="103.774117"><ele>2008.0</ele><time>2011-04-24T10:49:43.0000000+00:00</time></trkpt><trkpt lat="22.346684" lon="103.774078"><ele>2007.5</ele><time>2011-04-24T10:49:48.0000000+00:00</time></trkpt><trkpt lat="22.346703" lon="103.774048"><ele>2007.1</ele><time>2011-04-24T10:49:53.0000000+00:00</time></trkpt><trkpt lat="22.346756" lon="103.774025"><ele>2006.8</ele><time>2011-04-24T10:49:58.0000000+00:00</time></trkpt><trkpt lat="22.346815" lon="103.774002"><ele>2002.4</ele><time>2011-04-24T10:50:03.0000000+00:00</time></trkpt><trkpt lat="22.346846" lon="103.773994"><ele>2000.1</ele><time>2011-04-24T10:50:08.0000000+00:00</time></trkpt><trkpt lat="22.346865" lon="103.773956"><ele>1997.9</ele><time>2011-04-24T10:50:13.0000000+00:00</time></trkpt><trkpt lat="22.34688" lon="103.773933"><ele>1997.3</ele><time>2011-04-24T10:50:18.0000000+00:00</time></trkpt><trkpt lat="22.346882" lon="103.773933"><ele>1997.0</ele><time>2011-04-24T10:50:23.0000000+00:00</time></trkpt><trkpt lat="22.346901" lon="103.773918"><ele>1996.4</ele><time>2011-04-24T10:50:28.0000000+00:00</time></trkpt><trkpt lat="22.346912" lon="103.773918"><ele>1997.0</ele><time>2011-04-24T10:50:33.0000000+00:00</time></trkpt><trkpt lat="22.346926" lon="103.773903"><ele>1996.7</ele><time>2011-04-24T10:50:38.0000000+00:00</time></trkpt><trkpt lat="22.346933" lon="103.773903"><ele>1995.3</ele><time>2011-04-24T10:50:43.0000000+00:00</time></trkpt><trkpt lat="22.346937" lon="103.773888"><ele>1995.1</ele><time>2011-04-24T10:50:48.0000000+00:00</time></trkpt><trkpt lat="22.346949" lon="103.773872"><ele>1995.6</ele><time>2011-04-24T10:50:53.0000000+00:00</time></trkpt><trkpt lat="22.346962" lon="103.773857"><ele>1995.7</ele><time>2011-04-24T10:50:58.0000000+00:00</time></trkpt><trkpt lat="22.346985" lon="103.773857"><ele>1995.8</ele><time>2011-04-24T10:51:03.0000000+00:00</time></trkpt><trkpt lat="22.346983" lon="103.773857"><ele>1996.1</ele><time>2011-04-24T10:51:08.0000000+00:00</time></trkpt><trkpt lat="22.346992" lon="103.773865"><ele>1995.8</ele><time>2011-04-24T10:51:13.0000000+00:00</time></trkpt><trkpt lat="22.346996" lon="103.77388"><ele>1995.6</ele><time>2011-04-24T10:51:18.0000000+00:00</time></trkpt><trkpt lat="22.347" lon="103.773888"><ele>1995.8</ele><time>2011-04-24T10:51:23.0000000+00:00</time></trkpt><trkpt lat="22.347012" lon="103.773872"><ele>1996.0</ele><time>2011-04-24T10:51:28.0000000+00:00</time></trkpt><trkpt lat="22.347034" lon="103.773842"><ele>1995.1</ele><time>2011-04-24T10:51:33.0000000+00:00</time></trkpt><trkpt lat="22.347052" lon="103.773834"><ele>1996.0</ele><time>2011-04-24T10:51:38.0000000+00:00</time></trkpt><trkpt lat="22.347057" lon="103.773819"><ele>1996.8</ele><time>2011-04-24T10:51:43.0000000+00:00</time></trkpt><trkpt lat="22.347092" lon="103.773811"><ele>1997.2</ele><time>2011-04-24T10:51:48.0000000+00:00</time></trkpt><trkpt lat="22.347099" lon="103.773819"><ele>1996.8</ele><time>2011-04-24T10:51:53.0000000+00:00</time></trkpt><trkpt lat="22.347101" lon="103.773819"><ele>1996.4</ele><time>2011-04-24T10:51:58.0000000+00:00</time></trkpt><trkpt lat="22.34712" lon="103.773819"><ele>1996.6</ele><time>2011-04-24T10:52:03.0000000+00:00</time></trkpt><trkpt lat="22.347151" lon="103.773819"><ele>1995.2</ele><time>2011-04-24T10:52:08.0000000+00:00</time></trkpt><trkpt lat="22.347164" lon="103.773796"><ele>1994.5</ele><time>2011-04-24T10:52:13.0000000+00:00</time></trkpt><trkpt lat="22.347176" lon="103.773788"><ele>1994.3</ele><time>2011-04-24T10:52:18.0000000+00:00</time></trkpt><trkpt lat="22.347174" lon="103.773788"><ele>1993.7</ele><time>2011-04-24T10:52:23.0000000+00:00</time></trkpt><trkpt lat="22.347179" lon="103.773773"><ele>1993.1</ele><time>2011-04-24T10:52:28.0000000+00:00</time></trkpt><trkpt lat="22.347195" lon="103.773788"><ele>1993.0</ele><time>2011-04-24T10:52:33.0000000+00:00</time></trkpt><trkpt lat="22.347202" lon="103.773804"><ele>1993.2</ele><time>2011-04-24T10:52:38.0000000+00:00</time></trkpt><trkpt lat="22.347214" lon="103.773811"><ele>1993.5</ele><time>2011-04-24T10:52:43.0000000+00:00</time></trkpt><trkpt lat="22.347233" lon="103.773796"><ele>1993.4</ele><time>2011-04-24T10:52:48.0000000+00:00</time></trkpt><trkpt lat="22.347237" lon="103.773811"><ele>1993.1</ele><time>2011-04-24T10:52:53.0000000+00:00</time></trkpt><trkpt lat="22.34726" lon="103.77388"><ele>1992.3</ele><time>2011-04-24T10:52:58.0000000+00:00</time></trkpt><trkpt lat="22.347267" lon="103.773857"><ele>1991.9</ele><time>2011-04-24T10:53:03.0000000+00:00</time></trkpt><trkpt lat="22.347261" lon="103.773842"><ele>1990.6</ele><time>2011-04-24T10:53:08.0000000+00:00</time></trkpt><trkpt lat="22.347263" lon="103.773834"><ele>1989.9</ele><time>2011-04-24T10:53:13.0000000+00:00</time></trkpt><trkpt lat="22.347261" lon="103.773827"><ele>1990.0</ele><time>2011-04-24T10:53:18.0000000+00:00</time></trkpt><trkpt lat="22.347261" lon="103.773819"><ele>1990.1</ele><time>2011-04-24T10:53:23.0000000+00:00</time></trkpt><trkpt lat="22.347263" lon="103.773819"><ele>1989.8</ele><time>2011-04-24T10:53:28.0000000+00:00</time></trkpt><trkpt lat="22.34726" lon="103.773819"><ele>1989.5</ele><time>2011-04-24T10:53:33.0000000+00:00</time></trkpt><trkpt lat="22.347284" lon="103.773788"><ele>1988.3</ele><time>2011-04-24T10:53:38.0000000+00:00</time></trkpt><trkpt lat="22.347296" lon="103.773781"><ele>1987.5</ele><time>2011-04-24T10:53:43.0000000+00:00</time></trkpt><trkpt lat="22.347296" lon="103.773773"><ele>1986.6</ele><time>2011-04-24T10:53:48.0000000+00:00</time></trkpt><trkpt lat="22.347288" lon="103.77375"><ele>1986.2</ele><time>2011-04-24T10:53:53.0000000+00:00</time></trkpt><trkpt lat="22.34729" lon="103.773735"><ele>1986.1</ele><time>2011-04-24T10:53:58.0000000+00:00</time></trkpt><trkpt lat="22.347298" lon="103.773705"><ele>1984.0</ele><time>2011-04-24T10:54:03.0000000+00:00</time></trkpt><trkpt lat="22.347313" lon="103.773697"><ele>1983.8</ele><time>2011-04-24T10:54:08.0000000+00:00</time></trkpt><trkpt lat="22.347326" lon="103.773689"><ele>1983.4</ele><time>2011-04-24T10:54:13.0000000+00:00</time></trkpt><trkpt lat="22.34734" lon="103.773697"><ele>1983.6</ele><time>2011-04-24T10:54:18.0000000+00:00</time></trkpt><trkpt lat="22.347347" lon="103.773651"><ele>1983.6</ele><time>2011-04-24T10:54:23.0000000+00:00</time></trkpt><trkpt lat="22.347372" lon="103.773628"><ele>1983.2</ele><time>2011-04-24T10:54:28.0000000+00:00</time></trkpt><trkpt lat="22.347393" lon="103.773613"><ele>1982.0</ele><time>2011-04-24T10:54:33.0000000+00:00</time></trkpt><trkpt lat="22.347397" lon="103.77359"><ele>1980.6</ele><time>2011-04-24T10:54:38.0000000+00:00</time></trkpt><trkpt lat="22.347425" lon="103.773582"><ele>1980.5</ele><time>2011-04-24T10:54:43.0000000+00:00</time></trkpt><trkpt lat="22.347446" lon="103.77356"><ele>1980.4</ele><time>2011-04-24T10:54:48.0000000+00:00</time></trkpt><trkpt lat="22.347462" lon="103.773575"><ele>1979.9</ele><time>2011-04-24T10:54:53.0000000+00:00</time></trkpt><trkpt lat="22.34749" lon="103.77356"><ele>1980.2</ele><time>2011-04-24T10:54:58.0000000+00:00</time></trkpt><trkpt lat="22.347527" lon="103.773552"><ele>1980.0</ele><time>2011-04-24T10:55:03.0000000+00:00</time></trkpt><trkpt lat="22.347559" lon="103.77356"><ele>1980.8</ele><time>2011-04-24T10:55:08.0000000+00:00</time></trkpt><trkpt lat="22.347574" lon="103.773567"><ele>1980.9</ele><time>2011-04-24T10:55:13.0000000+00:00</time></trkpt><trkpt lat="22.347582" lon="103.77359"><ele>1980.5</ele><time>2011-04-24T10:55:18.0000000+00:00</time></trkpt><trkpt lat="22.347599" lon="103.773598"><ele>1980.6</ele><time>2011-04-24T10:55:23.0000000+00:00</time></trkpt><trkpt lat="22.347637" lon="103.773582"><ele>1981.4</ele><time>2011-04-24T10:55:28.0000000+00:00</time></trkpt><trkpt lat="22.347683" lon="103.773621"><ele>1981.8</ele><time>2011-04-24T10:55:33.0000000+00:00</time></trkpt><trkpt lat="22.347725" lon="103.773636"><ele>1981.6</ele><time>2011-04-24T10:55:38.0000000+00:00</time></trkpt><trkpt lat="22.347761" lon="103.773651"><ele>1982.8</ele><time>2011-04-24T10:55:43.0000000+00:00</time></trkpt><trkpt lat="22.34779" lon="103.773689"><ele>1983.3</ele><time>2011-04-24T10:55:48.0000000+00:00</time></trkpt><trkpt lat="22.347811" lon="103.773712"><ele>1984.4</ele><time>2011-04-24T10:55:53.0000000+00:00</time></trkpt><trkpt lat="22.347836" lon="103.773743"><ele>1985.1</ele><time>2011-04-24T10:55:58.0000000+00:00</time></trkpt><trkpt lat="22.34787" lon="103.773773"><ele>1985.5</ele><time>2011-04-24T10:56:03.0000000+00:00</time></trkpt><trkpt lat="22.347898" lon="103.773811"><ele>1986.9</ele><time>2011-04-24T10:56:08.0000000+00:00</time></trkpt><trkpt lat="22.347918" lon="103.773834"><ele>1987.9</ele><time>2011-04-24T10:56:13.0000000+00:00</time></trkpt><trkpt lat="22.347948" lon="103.773865"><ele>1988.6</ele><time>2011-04-24T10:56:18.0000000+00:00</time></trkpt><trkpt lat="22.347967" lon="103.773895"><ele>1989.5</ele><time>2011-04-24T10:56:23.0000000+00:00</time></trkpt><trkpt lat="22.347977" lon="103.773911"><ele>1989.4</ele><time>2011-04-24T10:56:28.0000000+00:00</time></trkpt><trkpt lat="22.347992" lon="103.773933"><ele>1989.2</ele><time>2011-04-24T10:56:33.0000000+00:00</time></trkpt><trkpt lat="22.348005" lon="103.773949"><ele>1987.9</ele><time>2011-04-24T10:56:38.0000000+00:00</time></trkpt><trkpt lat="22.34803" lon="103.773956"><ele>1987.0</ele><time>2011-04-24T10:56:43.0000000+00:00</time></trkpt><trkpt lat="22.348059" lon="103.773972"><ele>1985.6</ele><time>2011-04-24T10:56:48.0000000+00:00</time></trkpt><trkpt lat="22.348072" lon="103.773964"><ele>1985.6</ele><time>2011-04-24T10:56:53.0000000+00:00</time></trkpt><trkpt lat="22.348087" lon="103.773964"><ele>1986.2</ele><time>2011-04-24T10:56:58.0000000+00:00</time></trkpt><trkpt lat="22.348125" lon="103.774002"><ele>1986.4</ele><time>2011-04-24T10:57:03.0000000+00:00</time></trkpt><trkpt lat="22.348181" lon="103.774025"><ele>1986.3</ele><time>2011-04-24T10:57:08.0000000+00:00</time></trkpt><trkpt lat="22.348219" lon="103.774025"><ele>1985.2</ele><time>2011-04-24T10:57:13.0000000+00:00</time></trkpt><trkpt lat="22.348242" lon="103.774048"><ele>1984.4</ele><time>2011-04-24T10:57:18.0000000+00:00</time></trkpt><trkpt lat="22.348265" lon="103.774109"><ele>1982.9</ele><time>2011-04-24T10:57:23.0000000+00:00</time></trkpt><trkpt lat="22.348289" lon="103.774139"><ele>1981.7</ele><time>2011-04-24T10:57:28.0000000+00:00</time></trkpt><trkpt lat="22.348312" lon="103.774162"><ele>1981.6</ele><time>2011-04-24T10:57:33.0000000+00:00</time></trkpt><trkpt lat="22.348368" lon="103.774216"><ele>1981.7</ele><time>2011-04-24T10:57:38.0000000+00:00</time></trkpt><trkpt lat="22.348392" lon="103.774231"><ele>1981.6</ele><time>2011-04-24T10:57:43.0000000+00:00</time></trkpt><trkpt lat="22.348434" lon="103.774239"><ele>1981.4</ele><time>2011-04-24T10:57:48.0000000+00:00</time></trkpt><trkpt lat="22.34849" lon="103.774254"><ele>1981.4</ele><time>2011-04-24T10:57:53.0000000+00:00</time></trkpt><trkpt lat="22.348537" lon="103.774277"><ele>1980.1</ele><time>2011-04-24T10:57:58.0000000+00:00</time></trkpt><trkpt lat="22.348568" lon="103.774284"><ele>1979.0</ele><time>2011-04-24T10:58:03.0000000+00:00</time></trkpt><trkpt lat="22.348593" lon="103.774307"><ele>1978.3</ele><time>2011-04-24T10:58:08.0000000+00:00</time></trkpt><trkpt lat="22.348606" lon="103.774307"><ele>1976.9</ele><time>2011-04-24T10:58:13.0000000+00:00</time></trkpt><trkpt lat="22.348623" lon="103.7743"><ele>1975.7</ele><time>2011-04-24T10:58:18.0000000+00:00</time></trkpt><trkpt lat="22.348629" lon="103.774315"><ele>1975.7</ele><time>2011-04-24T10:58:23.0000000+00:00</time></trkpt><trkpt lat="22.348667" lon="103.774315"><ele>1975.1</ele><time>2011-04-24T10:58:28.0000000+00:00</time></trkpt><trkpt lat="22.348696" lon="103.774338"><ele>1974.1</ele><time>2011-04-24T10:58:33.0000000+00:00</time></trkpt><trkpt lat="22.348715" lon="103.774345"><ele>1973.3</ele><time>2011-04-24T10:58:38.0000000+00:00</time></trkpt><trkpt lat="22.34873" lon="103.774361"><ele>1972.6</ele><time>2011-04-24T10:58:43.0000000+00:00</time></trkpt><trkpt lat="22.34874" lon="103.774384"><ele>1970.5</ele><time>2011-04-24T10:58:48.0000000+00:00</time></trkpt><trkpt lat="22.34874" lon="103.774399"><ele>1967.9</ele><time>2011-04-24T10:58:53.0000000+00:00</time></trkpt><trkpt lat="22.34874" lon="103.774399"><ele>1967.9</ele><time>2011-04-24T10:58:58.0000000+00:00</time></trkpt><trkpt lat="22.348738" lon="103.774399"><ele>1967.6</ele><time>2011-04-24T10:59:03.0000000+00:00</time></trkpt><trkpt lat="22.34874" lon="103.774391"><ele>1967.5</ele><time>2011-04-24T10:59:08.0000000+00:00</time></trkpt><trkpt lat="22.348743" lon="103.774384"><ele>1967.5</ele><time>2011-04-24T10:59:13.0000000+00:00</time></trkpt><trkpt lat="22.348751" lon="103.774384"><ele>1967.5</ele><time>2011-04-24T10:59:18.0000000+00:00</time></trkpt><trkpt lat="22.348789" lon="103.774384"><ele>1966.9</ele><time>2011-04-24T10:59:23.0000000+00:00</time></trkpt><trkpt lat="22.348825" lon="103.774376"><ele>1965.9</ele><time>2011-04-24T10:59:28.0000000+00:00</time></trkpt><trkpt lat="22.34885" lon="103.774353"><ele>1965.8</ele><time>2011-04-24T10:59:33.0000000+00:00</time></trkpt><trkpt lat="22.348881" lon="103.774361"><ele>1965.5</ele><time>2011-04-24T10:59:38.0000000+00:00</time></trkpt><trkpt lat="22.34889" lon="103.774361"><ele>1965.6</ele><time>2011-04-24T10:59:43.0000000+00:00</time></trkpt><trkpt lat="22.3489" lon="103.774361"><ele>1965.5</ele><time>2011-04-24T10:59:48.0000000+00:00</time></trkpt><trkpt lat="22.348921" lon="103.774361"><ele>1965.3</ele><time>2011-04-24T10:59:53.0000000+00:00</time></trkpt><trkpt lat="22.348932" lon="103.774353"><ele>1965.3</ele><time>2011-04-24T10:59:58.0000000+00:00</time></trkpt><trkpt lat="22.348953" lon="103.774353"><ele>1965.2</ele><time>2011-04-24T11:00:03.0000000+00:00</time></trkpt><trkpt lat="22.348974" lon="103.774345"><ele>1965.0</ele><time>2011-04-24T11:00:08.0000000+00:00</time></trkpt><trkpt lat="22.348999" lon="103.77433"><ele>1965.0</ele><time>2011-04-24T11:00:13.0000000+00:00</time></trkpt><trkpt lat="22.349062" lon="103.774353"><ele>1964.2</ele><time>2011-04-24T11:00:18.0000000+00:00</time></trkpt><trkpt lat="22.349092" lon="103.774323"><ele>1962.5</ele><time>2011-04-24T11:00:23.0000000+00:00</time></trkpt><trkpt lat="22.349117" lon="103.774315"><ele>1962.1</ele><time>2011-04-24T11:00:28.0000000+00:00</time></trkpt><trkpt lat="22.349144" lon="103.7743"><ele>1962.5</ele><time>2011-04-24T11:00:33.0000000+00:00</time></trkpt><trkpt lat="22.349203" lon="103.774315"><ele>1962.6</ele><time>2011-04-24T11:00:38.0000000+00:00</time></trkpt><trkpt lat="22.34923" lon="103.7743"><ele>1962.1</ele><time>2011-04-24T11:00:43.0000000+00:00</time></trkpt><trkpt lat="22.349245" lon="103.7743"><ele>1961.1</ele><time>2011-04-24T11:00:48.0000000+00:00</time></trkpt><trkpt lat="22.349281" lon="103.774269"><ele>1960.0</ele><time>2011-04-24T11:00:53.0000000+00:00</time></trkpt><trkpt lat="22.349319" lon="103.774269"><ele>1958.5</ele><time>2011-04-24T11:00:58.0000000+00:00</time></trkpt><trkpt lat="22.349354" lon="103.774261"><ele>1953.7</ele><time>2011-04-24T11:01:03.0000000+00:00</time></trkpt><trkpt lat="22.349373" lon="103.774269"><ele>1952.1</ele><time>2011-04-24T11:01:08.0000000+00:00</time></trkpt><trkpt lat="22.349392" lon="103.774246"><ele>1951.2</ele><time>2011-04-24T11:01:13.0000000+00:00</time></trkpt><trkpt lat="22.349426" lon="103.774246"><ele>1950.5</ele><time>2011-04-24T11:01:18.0000000+00:00</time></trkpt><trkpt lat="22.349459" lon="103.774231"><ele>1949.2</ele><time>2011-04-24T11:01:23.0000000+00:00</time></trkpt><trkpt lat="22.349472" lon="103.774231"><ele>1946.7</ele><time>2011-04-24T11:01:28.0000000+00:00</time></trkpt><trkpt lat="22.349497" lon="103.774216"><ele>1945.5</ele><time>2011-04-24T11:01:33.0000000+00:00</time></trkpt><trkpt lat="22.349531" lon="103.774208"><ele>1942.9</ele><time>2011-04-24T11:01:38.0000000+00:00</time></trkpt><trkpt lat="22.349552" lon="103.774193"><ele>1940.7</ele><time>2011-04-24T11:01:43.0000000+00:00</time></trkpt><trkpt lat="22.349585" lon="103.774193"><ele>1939.6</ele><time>2011-04-24T11:01:48.0000000+00:00</time></trkpt><trkpt lat="22.349617" lon="103.7742"><ele>1937.4</ele><time>2011-04-24T11:01:53.0000000+00:00</time></trkpt><trkpt lat="22.349644" lon="103.774231"><ele>1936.8</ele><time>2011-04-24T11:01:58.0000000+00:00</time></trkpt><trkpt lat="22.349684" lon="103.774246"><ele>1935.3</ele><time>2011-04-24T11:02:03.0000000+00:00</time></trkpt><trkpt lat="22.349703" lon="103.774239"><ele>1934.3</ele><time>2011-04-24T11:02:08.0000000+00:00</time></trkpt><trkpt lat="22.349712" lon="103.774246"><ele>1933.8</ele><time>2011-04-24T11:02:13.0000000+00:00</time></trkpt><trkpt lat="22.34973" lon="103.774231"><ele>1933.9</ele><time>2011-04-24T11:02:18.0000000+00:00</time></trkpt><trkpt lat="22.349764" lon="103.774216"><ele>1932.0</ele><time>2011-04-24T11:02:23.0000000+00:00</time></trkpt><trkpt lat="22.349789" lon="103.774208"><ele>1931.6</ele><time>2011-04-24T11:02:28.0000000+00:00</time></trkpt><trkpt lat="22.349792" lon="103.774216"><ele>1932.2</ele><time>2011-04-24T11:02:33.0000000+00:00</time></trkpt><trkpt lat="22.349813" lon="103.774216"><ele>1931.5</ele><time>2011-04-24T11:02:38.0000000+00:00</time></trkpt><trkpt lat="22.349817" lon="103.774223"><ele>1931.4</ele><time>2011-04-24T11:02:43.0000000+00:00</time></trkpt><trkpt lat="22.349831" lon="103.774223"><ele>1931.0</ele><time>2011-04-24T11:02:48.0000000+00:00</time></trkpt><trkpt lat="22.349842" lon="103.774223"><ele>1930.1</ele><time>2011-04-24T11:02:53.0000000+00:00</time></trkpt><trkpt lat="22.349863" lon="103.774223"><ele>1929.3</ele><time>2011-04-24T11:02:58.0000000+00:00</time></trkpt><trkpt lat="22.349867" lon="103.774223"><ele>1928.8</ele><time>2011-04-24T11:03:03.0000000+00:00</time></trkpt><trkpt lat="22.349865" lon="103.774231"><ele>1928.7</ele><time>2011-04-24T11:03:08.0000000+00:00</time></trkpt><trkpt lat="22.349867" lon="103.774231"><ele>1928.7</ele><time>2011-04-24T11:03:13.0000000+00:00</time></trkpt><trkpt lat="22.349869" lon="103.774231"><ele>1928.7</ele><time>2011-04-24T11:03:18.0000000+00:00</time></trkpt><trkpt lat="22.349878" lon="103.774223"><ele>1928.5</ele><time>2011-04-24T11:03:23.0000000+00:00</time></trkpt><trkpt lat="22.349884" lon="103.774223"><ele>1927.7</ele><time>2011-04-24T11:03:28.0000000+00:00</time></trkpt><trkpt lat="22.349892" lon="103.774231"><ele>1927.3</ele><time>2011-04-24T11:03:33.0000000+00:00</time></trkpt><trkpt lat="22.349895" lon="103.774223"><ele>1927.3</ele><time>2011-04-24T11:03:38.0000000+00:00</time></trkpt><trkpt lat="22.349936" lon="103.774223"><ele>1927.2</ele><time>2011-04-24T11:03:43.0000000+00:00</time></trkpt><trkpt lat="22.349968" lon="103.774208"><ele>1926.3</ele><time>2011-04-24T11:03:48.0000000+00:00</time></trkpt><trkpt lat="22.349997" lon="103.774239"><ele>1925.9</ele><time>2011-04-24T11:03:53.0000000+00:00</time></trkpt><trkpt lat="22.350006" lon="103.774254"><ele>1925.6</ele><time>2011-04-24T11:03:58.0000000+00:00</time></trkpt><trkpt lat="22.350014" lon="103.774254"><ele>1925.6</ele><time>2011-04-24T11:04:03.0000000+00:00</time></trkpt><trkpt lat="22.350029" lon="103.774254"><ele>1924.4</ele><time>2011-04-24T11:04:08.0000000+00:00</time></trkpt><trkpt lat="22.350044" lon="103.774277"><ele>1923.7</ele><time>2011-04-24T11:04:13.0000000+00:00</time></trkpt><trkpt lat="22.350058" lon="103.774284"><ele>1922.2</ele><time>2011-04-24T11:04:18.0000000+00:00</time></trkpt><trkpt lat="22.350075" lon="103.7743"><ele>1921.4</ele><time>2011-04-24T11:04:23.0000000+00:00</time></trkpt><trkpt lat="22.350086" lon="103.774323"><ele>1921.0</ele><time>2011-04-24T11:04:28.0000000+00:00</time></trkpt><trkpt lat="22.350098" lon="103.774323"><ele>1920.5</ele><time>2011-04-24T11:04:33.0000000+00:00</time></trkpt><trkpt lat="22.350101" lon="103.774323"><ele>1919.5</ele><time>2011-04-24T11:04:38.0000000+00:00</time></trkpt><trkpt lat="22.350113" lon="103.77433"><ele>1918.2</ele><time>2011-04-24T11:04:43.0000000+00:00</time></trkpt><trkpt lat="22.350128" lon="103.774338"><ele>1916.9</ele><time>2011-04-24T11:04:48.0000000+00:00</time></trkpt><trkpt lat="22.350132" lon="103.774345"><ele>1916.0</ele><time>2011-04-24T11:04:53.0000000+00:00</time></trkpt><trkpt lat="22.350138" lon="103.774353"><ele>1915.1</ele><time>2011-04-24T11:04:58.0000000+00:00</time></trkpt><trkpt lat="22.350132" lon="103.774361"><ele>1913.5</ele><time>2011-04-24T11:05:03.0000000+00:00</time></trkpt><trkpt lat="22.350134" lon="103.774361"><ele>1912.3</ele><time>2011-04-24T11:05:08.0000000+00:00</time></trkpt><trkpt lat="22.350136" lon="103.774376"><ele>1911.6</ele><time>2011-04-24T11:05:13.0000000+00:00</time></trkpt><trkpt lat="22.35014" lon="103.774384"><ele>1911.5</ele><time>2011-04-24T11:05:18.0000000+00:00</time></trkpt><trkpt lat="22.350143" lon="103.774384"><ele>1911.2</ele><time>2011-04-24T11:05:23.0000000+00:00</time></trkpt><trkpt lat="22.350159" lon="103.774391"><ele>1909.8</ele><time>2011-04-24T11:05:28.0000000+00:00</time></trkpt><trkpt lat="22.350157" lon="103.774406"><ele>1908.9</ele><time>2011-04-24T11:05:33.0000000+00:00</time></trkpt><trkpt lat="22.350166" lon="103.774414"><ele>1908.3</ele><time>2011-04-24T11:05:38.0000000+00:00</time></trkpt><trkpt lat="22.350185" lon="103.774406"><ele>1908.0</ele><time>2011-04-24T11:05:43.0000000+00:00</time></trkpt><trkpt lat="22.350214" lon="103.774391"><ele>1907.8</ele><time>2011-04-24T11:05:48.0000000+00:00</time></trkpt><trkpt lat="22.350233" lon="103.774384"><ele>1907.3</ele><time>2011-04-24T11:05:53.0000000+00:00</time></trkpt><trkpt lat="22.350254" lon="103.774391"><ele>1907.1</ele><time>2011-04-24T11:05:58.0000000+00:00</time></trkpt><trkpt lat="22.350266" lon="103.774391"><ele>1904.8</ele><time>2011-04-24T11:06:03.0000000+00:00</time></trkpt><trkpt lat="22.350286" lon="103.774384"><ele>1904.0</ele><time>2011-04-24T11:06:08.0000000+00:00</time></trkpt><trkpt lat="22.350304" lon="103.774376"><ele>1904.7</ele><time>2011-04-24T11:06:13.0000000+00:00</time></trkpt><trkpt lat="22.350336" lon="103.774368"><ele>1905.4</ele><time>2011-04-24T11:06:18.0000000+00:00</time></trkpt><trkpt lat="22.350361" lon="103.774361"><ele>1908.3</ele><time>2011-04-24T11:06:23.0000000+00:00</time></trkpt><trkpt lat="22.350382" lon="103.774368"><ele>1909.8</ele><time>2011-04-24T11:06:28.0000000+00:00</time></trkpt><trkpt lat="22.350407" lon="103.774376"><ele>1911.4</ele><time>2011-04-24T11:06:33.0000000+00:00</time></trkpt><trkpt lat="22.35046" lon="103.774391"><ele>1912.1</ele><time>2011-04-24T11:06:38.0000000+00:00</time></trkpt><trkpt lat="22.350489" lon="103.774429"><ele>1912.3</ele><time>2011-04-24T11:06:43.0000000+00:00</time></trkpt><trkpt lat="22.350506" lon="103.774445"><ele>1913.2</ele><time>2011-04-24T11:06:48.0000000+00:00</time></trkpt><trkpt lat="22.350523" lon="103.77446"><ele>1913.8</ele><time>2011-04-24T11:06:53.0000000+00:00</time></trkpt><trkpt lat="22.350569" lon="103.774452"><ele>1914.0</ele><time>2011-04-24T11:06:58.0000000+00:00</time></trkpt><trkpt lat="22.350592" lon="103.774467"><ele>1913.8</ele><time>2011-04-24T11:07:03.0000000+00:00</time></trkpt><trkpt lat="22.350594" lon="103.774475"><ele>1913.7</ele><time>2011-04-24T11:07:08.0000000+00:00</time></trkpt><trkpt lat="22.350607" lon="103.77449"><ele>1913.7</ele><time>2011-04-24T11:07:13.0000000+00:00</time></trkpt><trkpt lat="22.350632" lon="103.774506"><ele>1914.2</ele><time>2011-04-24T11:07:18.0000000+00:00</time></trkpt><trkpt lat="22.350651" lon="103.774513"><ele>1914.5</ele><time>2011-04-24T11:07:23.0000000+00:00</time></trkpt><trkpt lat="22.350674" lon="103.774521"><ele>1915.0</ele><time>2011-04-24T11:07:28.0000000+00:00</time></trkpt><trkpt lat="22.3507" lon="103.774544"><ele>1915.1</ele><time>2011-04-24T11:07:33.0000000+00:00</time></trkpt><trkpt lat="22.350727" lon="103.77459"><ele>1915.3</ele><time>2011-04-24T11:07:38.0000000+00:00</time></trkpt><trkpt lat="22.350754" lon="103.774605"><ele>1915.7</ele><time>2011-04-24T11:07:43.0000000+00:00</time></trkpt><trkpt lat="22.350773" lon="103.774628"><ele>1916.1</ele><time>2011-04-24T11:07:48.0000000+00:00</time></trkpt><trkpt lat="22.350775" lon="103.774635"><ele>1916.3</ele><time>2011-04-24T11:07:53.0000000+00:00</time></trkpt><trkpt lat="22.35078" lon="103.774635"><ele>1916.3</ele><time>2011-04-24T11:07:58.0000000+00:00</time></trkpt><trkpt lat="22.350819" lon="103.774582"><ele>1917.0</ele><time>2011-04-24T11:08:03.0000000+00:00</time></trkpt><trkpt lat="22.350826" lon="103.774612"><ele>1917.5</ele><time>2011-04-24T11:08:08.0000000+00:00</time></trkpt><trkpt lat="22.350836" lon="103.774612"><ele>1918.9</ele><time>2011-04-24T11:08:13.0000000+00:00</time></trkpt><trkpt lat="22.350859" lon="103.774612"><ele>1919.1</ele><time>2011-04-24T11:08:18.0000000+00:00</time></trkpt><trkpt lat="22.350895" lon="103.77459"><ele>1920.0</ele><time>2011-04-24T11:08:23.0000000+00:00</time></trkpt><trkpt lat="22.35092" lon="103.774544"><ele>1921.2</ele><time>2011-04-24T11:08:28.0000000+00:00</time></trkpt><trkpt lat="22.350941" lon="103.774551"><ele>1923.1</ele><time>2011-04-24T11:08:33.0000000+00:00</time></trkpt><trkpt lat="22.35096" lon="103.77459"><ele>1925.5</ele><time>2011-04-24T11:08:38.0000000+00:00</time></trkpt><trkpt lat="22.350988" lon="103.774628"><ele>1927.1</ele><time>2011-04-24T11:08:43.0000000+00:00</time></trkpt><trkpt lat="22.351009" lon="103.774658"><ele>1929.0</ele><time>2011-04-24T11:08:48.0000000+00:00</time></trkpt><trkpt lat="22.351053" lon="103.774689"><ele>1931.0</ele><time>2011-04-24T11:08:53.0000000+00:00</time></trkpt><trkpt lat="22.351093" lon="103.774734"><ele>1932.8</ele><time>2011-04-24T11:08:58.0000000+00:00</time></trkpt><trkpt lat="22.351128" lon="103.774757"><ele>1934.0</ele><time>2011-04-24T11:09:03.0000000+00:00</time></trkpt><trkpt lat="22.351166" lon="103.774788"><ele>1935.5</ele><time>2011-04-24T11:09:08.0000000+00:00</time></trkpt><trkpt lat="22.351208" lon="103.774765"><ele>1937.2</ele><time>2011-04-24T11:09:13.0000000+00:00</time></trkpt><trkpt lat="22.351248" lon="103.774712"><ele>1938.2</ele><time>2011-04-24T11:09:18.0000000+00:00</time></trkpt><trkpt lat="22.351278" lon="103.774681"><ele>1939.8</ele><time>2011-04-24T11:09:23.0000000+00:00</time></trkpt><trkpt lat="22.35132" lon="103.774666"><ele>1941.6</ele><time>2011-04-24T11:09:28.0000000+00:00</time></trkpt><trkpt lat="22.351339" lon="103.774666"><ele>1942.1</ele><time>2011-04-24T11:09:33.0000000+00:00</time></trkpt><trkpt lat="22.351349" lon="103.774666"><ele>1941.5</ele><time>2011-04-24T11:09:38.0000000+00:00</time></trkpt><trkpt lat="22.351377" lon="103.774696"><ele>1940.4</ele><time>2011-04-24T11:09:43.0000000+00:00</time></trkpt><trkpt lat="22.351402" lon="103.774734"><ele>1940.0</ele><time>2011-04-24T11:09:48.0000000+00:00</time></trkpt><trkpt lat="22.351439" lon="103.774734"><ele>1939.7</ele><time>2011-04-24T11:09:53.0000000+00:00</time></trkpt><trkpt lat="22.351469" lon="103.774727"><ele>1941.6</ele><time>2011-04-24T11:09:58.0000000+00:00</time></trkpt><trkpt lat="22.351513" lon="103.774742"><ele>1942.5</ele><time>2011-04-24T11:10:03.0000000+00:00</time></trkpt><trkpt lat="22.35154" lon="103.774734"><ele>1943.0</ele><time>2011-04-24T11:10:08.0000000+00:00</time></trkpt><trkpt lat="22.35157" lon="103.774727"><ele>1941.5</ele><time>2011-04-24T11:10:13.0000000+00:00</time></trkpt><trkpt lat="22.351585" lon="103.774734"><ele>1940.3</ele><time>2011-04-24T11:10:18.0000000+00:00</time></trkpt><trkpt lat="22.35161" lon="103.774727"><ele>1939.1</ele><time>2011-04-24T11:10:23.0000000+00:00</time></trkpt><trkpt lat="22.35165" lon="103.774704"><ele>1937.6</ele><time>2011-04-24T11:10:28.0000000+00:00</time></trkpt><trkpt lat="22.351667" lon="103.774681"><ele>1939.1</ele><time>2011-04-24T11:10:33.0000000+00:00</time></trkpt><trkpt lat="22.351702" lon="103.774673"><ele>1938.9</ele><time>2011-04-24T11:10:38.0000000+00:00</time></trkpt><trkpt lat="22.351736" lon="103.774681"><ele>1937.9</ele><time>2011-04-24T11:10:43.0000000+00:00</time></trkpt><trkpt lat="22.351753" lon="103.774712"><ele>1936.0</ele><time>2011-04-24T11:10:48.0000000+00:00</time></trkpt><trkpt lat="22.351776" lon="103.774719"><ele>1935.4</ele><time>2011-04-24T11:10:53.0000000+00:00</time></trkpt><trkpt lat="22.351805" lon="103.774696"><ele>1936.1</ele><time>2011-04-24T11:10:58.0000000+00:00</time></trkpt><trkpt lat="22.351822" lon="103.774666"><ele>1936.2</ele><time>2011-04-24T11:11:03.0000000+00:00</time></trkpt><trkpt lat="22.351833" lon="103.774635"><ele>1937.0</ele><time>2011-04-24T11:11:08.0000000+00:00</time></trkpt><trkpt lat="22.351826" lon="103.774635"><ele>1937.9</ele><time>2011-04-24T11:11:13.0000000+00:00</time></trkpt><trkpt lat="22.351835" lon="103.774635"><ele>1937.6</ele><time>2011-04-24T11:11:18.0000000+00:00</time></trkpt><trkpt lat="22.351856" lon="103.774658"><ele>1938.4</ele><time>2011-04-24T11:11:23.0000000+00:00</time></trkpt><trkpt lat="22.351875" lon="103.774689"><ele>1938.6</ele><time>2011-04-24T11:11:28.0000000+00:00</time></trkpt><trkpt lat="22.351894" lon="103.774673"><ele>1938.7</ele><time>2011-04-24T11:11:33.0000000+00:00</time></trkpt><trkpt lat="22.351915" lon="103.774658"><ele>1938.1</ele><time>2011-04-24T11:11:38.0000000+00:00</time></trkpt><trkpt lat="22.351952" lon="103.774651"><ele>1938.9</ele><time>2011-04-24T11:11:43.0000000+00:00</time></trkpt><trkpt lat="22.352001" lon="103.774651"><ele>1939.1</ele><time>2011-04-24T11:11:48.0000000+00:00</time></trkpt><trkpt lat="22.352045" lon="103.774666"><ele>1938.5</ele><time>2011-04-24T11:11:53.0000000+00:00</time></trkpt><trkpt lat="22.352085" lon="103.774666"><ele>1938.3</ele><time>2011-04-24T11:11:58.0000000+00:00</time></trkpt><trkpt lat="22.352129" lon="103.774696"><ele>1938.5</ele><time>2011-04-24T11:12:03.0000000+00:00</time></trkpt><trkpt lat="22.352144" lon="103.774712"><ele>1938.9</ele><time>2011-04-24T11:12:08.0000000+00:00</time></trkpt><trkpt lat="22.352152" lon="103.774719"><ele>1938.9</ele><time>2011-04-24T11:12:13.0000000+00:00</time></trkpt><trkpt lat="22.352186" lon="103.774742"><ele>1938.7</ele><time>2011-04-24T11:12:18.0000000+00:00</time></trkpt><trkpt lat="22.352224" lon="103.77475"><ele>1939.8</ele><time>2011-04-24T11:12:23.0000000+00:00</time></trkpt><trkpt lat="22.35227" lon="103.774727"><ele>1940.1</ele><time>2011-04-24T11:12:28.0000000+00:00</time></trkpt><trkpt lat="22.352312" lon="103.774742"><ele>1941.8</ele><time>2011-04-24T11:12:33.0000000+00:00</time></trkpt><trkpt lat="22.352343" lon="103.77475"><ele>1942.3</ele><time>2011-04-24T11:12:38.0000000+00:00</time></trkpt><trkpt lat="22.352388" lon="103.774742"><ele>1941.8</ele><time>2011-04-24T11:12:43.0000000+00:00</time></trkpt><trkpt lat="22.352425" lon="103.774734"><ele>1943.5</ele><time>2011-04-24T11:12:48.0000000+00:00</time></trkpt><trkpt lat="22.352474" lon="103.774727"><ele>1944.2</ele><time>2011-04-24T11:12:53.0000000+00:00</time></trkpt><trkpt lat="22.352505" lon="103.774727"><ele>1945.7</ele><time>2011-04-24T11:12:58.0000000+00:00</time></trkpt><trkpt lat="22.352512" lon="103.774727"><ele>1945.7</ele><time>2011-04-24T11:13:03.0000000+00:00</time></trkpt><trkpt lat="22.352547" lon="103.774696"><ele>1945.6</ele><time>2011-04-24T11:13:08.0000000+00:00</time></trkpt><trkpt lat="22.352598" lon="103.774696"><ele>1945.5</ele><time>2011-04-24T11:13:13.0000000+00:00</time></trkpt><trkpt lat="22.352602" lon="103.774689"><ele>1945.7</ele><time>2011-04-24T11:13:18.0000000+00:00</time></trkpt><trkpt lat="22.35261" lon="103.774689"><ele>1945.6</ele><time>2011-04-24T11:13:23.0000000+00:00</time></trkpt><trkpt lat="22.35265" lon="103.774696"><ele>1945.8</ele><time>2011-04-24T11:13:28.0000000+00:00</time></trkpt><trkpt lat="22.352701" lon="103.774696"><ele>1946.5</ele><time>2011-04-24T11:13:33.0000000+00:00</time></trkpt><trkpt lat="22.352751" lon="103.774719"><ele>1946.2</ele><time>2011-04-24T11:13:38.0000000+00:00</time></trkpt><trkpt lat="22.352797" lon="103.774765"><ele>1946.0</ele><time>2011-04-24T11:13:43.0000000+00:00</time></trkpt><trkpt lat="22.352825" lon="103.774788"><ele>1946.0</ele><time>2011-04-24T11:13:48.0000000+00:00</time></trkpt><trkpt lat="22.352848" lon="103.774796"><ele>1946.0</ele><time>2011-04-24T11:13:53.0000000+00:00</time></trkpt><trkpt lat="22.352852" lon="103.774796"><ele>1945.9</ele><time>2011-04-24T11:13:58.0000000+00:00</time></trkpt><trkpt lat="22.352859" lon="103.774796"><ele>1945.8</ele><time>2011-04-24T11:14:03.0000000+00:00</time></trkpt><trkpt lat="22.352861" lon="103.774796"><ele>1945.7</ele><time>2011-04-24T11:14:08.0000000+00:00</time></trkpt><trkpt lat="22.352877" lon="103.774803"><ele>1945.9</ele><time>2011-04-24T11:14:13.0000000+00:00</time></trkpt><trkpt lat="22.352879" lon="103.774796"><ele>1946.0</ele><time>2011-04-24T11:14:18.0000000+00:00</time></trkpt><trkpt lat="22.352875" lon="103.774803"><ele>1946.0</ele><time>2011-04-24T11:14:23.0000000+00:00</time></trkpt><trkpt lat="22.352875" lon="103.774811"><ele>1946.1</ele><time>2011-04-24T11:14:28.0000000+00:00</time></trkpt><trkpt lat="22.352875" lon="103.774818"><ele>1946.0</ele><time>2011-04-24T11:14:33.0000000+00:00</time></trkpt><trkpt lat="22.352875" lon="103.774811"><ele>1945.9</ele><time>2011-04-24T11:14:38.0000000+00:00</time></trkpt><trkpt lat="22.352875" lon="103.774818"><ele>1945.7</ele><time>2011-04-24T11:14:43.0000000+00:00</time></trkpt><trkpt lat="22.352875" lon="103.774818"><ele>1945.7</ele><time>2011-04-24T11:14:48.0000000+00:00</time></trkpt><trkpt lat="22.352875" lon="103.774818"><ele>1945.6</ele><time>2011-04-24T11:14:53.0000000+00:00</time></trkpt><trkpt lat="22.352875" lon="103.774818"><ele>1945.6</ele><time>2011-04-24T11:14:58.0000000+00:00</time></trkpt><trkpt lat="22.352875" lon="103.774818"><ele>1945.7</ele><time>2011-04-24T11:15:03.0000000+00:00</time></trkpt><trkpt lat="22.352875" lon="103.774818"><ele>1945.7</ele><time>2011-04-24T11:15:08.0000000+00:00</time></trkpt><trkpt lat="22.352875" lon="103.774818"><ele>1945.7</ele><time>2011-04-24T11:15:13.0000000+00:00</time></trkpt><trkpt lat="22.352875" lon="103.774818"><ele>1945.8</ele><time>2011-04-24T11:15:18.0000000+00:00</time></trkpt><trkpt lat="22.352875" lon="103.774818"><ele>1945.7</ele><time>2011-04-24T11:15:23.0000000+00:00</time></trkpt><trkpt lat="22.352879" lon="103.774818"><ele>1945.3</ele><time>2011-04-24T11:15:28.0000000+00:00</time></trkpt><trkpt lat="22.352879" lon="103.774826"><ele>1944.8</ele><time>2011-04-24T11:15:33.0000000+00:00</time></trkpt><trkpt lat="22.352879" lon="103.774826"><ele>1944.8</ele><time>2011-04-24T11:15:38.0000000+00:00</time></trkpt><trkpt lat="22.352879" lon="103.774826"><ele>1944.8</ele><time>2011-04-24T11:15:43.0000000+00:00</time></trkpt><trkpt lat="22.352879" lon="103.774826"><ele>1944.8</ele><time>2011-04-24T11:15:48.0000000+00:00</time></trkpt><trkpt lat="22.352879" lon="103.774826"><ele>1944.8</ele><time>2011-04-24T11:15:53.0000000+00:00</time></trkpt><trkpt lat="22.352879" lon="103.774826"><ele>1944.7</ele><time>2011-04-24T11:15:58.0000000+00:00</time></trkpt><trkpt lat="22.352879" lon="103.774834"><ele>1944.6</ele><time>2011-04-24T11:16:03.0000000+00:00</time></trkpt><trkpt lat="22.352879" lon="103.774834"><ele>1944.6</ele><time>2011-04-24T11:16:08.0000000+00:00</time></trkpt><trkpt lat="22.352879" lon="103.774834"><ele>1944.6</ele><time>2011-04-24T11:16:13.0000000+00:00</time></trkpt><trkpt lat="22.352879" lon="103.774834"><ele>1944.6</ele><time>2011-04-24T11:16:18.0000000+00:00</time></trkpt><trkpt lat="22.352879" lon="103.774834"><ele>1944.6</ele><time>2011-04-24T11:16:23.0000000+00:00</time></trkpt><trkpt lat="22.352879" lon="103.774834"><ele>1944.6</ele><time>2011-04-24T11:16:28.0000000+00:00</time></trkpt><trkpt lat="22.352877" lon="103.774834"><ele>1944.6</ele><time>2011-04-24T11:16:33.0000000+00:00</time></trkpt><trkpt lat="22.35288" lon="103.774841"><ele>1944.4</ele><time>2011-04-24T11:16:38.0000000+00:00</time></trkpt><trkpt lat="22.352879" lon="103.774841"><ele>1944.2</ele><time>2011-04-24T11:16:43.0000000+00:00</time></trkpt><trkpt lat="22.352879" lon="103.774841"><ele>1944.2</ele><time>2011-04-24T11:16:48.0000000+00:00</time></trkpt><trkpt lat="22.352879" lon="103.774841"><ele>1944.2</ele><time>2011-04-24T11:16:53.0000000+00:00</time></trkpt><trkpt lat="22.352879" lon="103.774841"><ele>1944.2</ele><time>2011-04-24T11:16:58.0000000+00:00</time></trkpt><trkpt lat="22.35288" lon="103.774841"><ele>1944.2</ele><time>2011-04-24T11:17:03.0000000+00:00</time></trkpt><trkpt lat="22.352882" lon="103.774849"><ele>1944.2</ele><time>2011-04-24T11:17:08.0000000+00:00</time></trkpt><trkpt lat="22.352879" lon="103.774857"><ele>1944.0</ele><time>2011-04-24T11:17:13.0000000+00:00</time></trkpt><trkpt lat="22.352879" lon="103.774857"><ele>1944.0</ele><time>2011-04-24T11:17:18.0000000+00:00</time></trkpt><trkpt lat="22.352879" lon="103.774857"><ele>1943.7</ele><time>2011-04-24T11:17:23.0000000+00:00</time></trkpt><trkpt lat="22.352879" lon="103.774857"><ele>1943.6</ele><time>2011-04-24T11:17:28.0000000+00:00</time></trkpt><trkpt lat="22.352882" lon="103.774849"><ele>1943.7</ele><time>2011-04-24T11:17:33.0000000+00:00</time></trkpt><trkpt lat="22.352879" lon="103.774849"><ele>1943.5</ele><time>2011-04-24T11:17:38.0000000+00:00</time></trkpt><trkpt lat="22.352877" lon="103.774841"><ele>1943.5</ele><time>2011-04-24T11:17:43.0000000+00:00</time></trkpt><trkpt lat="22.352884" lon="103.774841"><ele>1943.3</ele><time>2011-04-24T11:17:48.0000000+00:00</time></trkpt></trkseg><trkseg><trkpt lat="22.315552" lon="103.662712"><ele>769.9</ele><time>2011-04-25T06:29:30.0000000+00:00</time></trkpt><trkpt lat="22.315546" lon="103.662682"><ele>737.4</ele><time>2011-04-25T06:29:35.0000000+00:00</time></trkpt><trkpt lat="22.315544" lon="103.662697"><ele>740.1</ele><time>2011-04-25T06:29:40.0000000+00:00</time></trkpt><trkpt lat="22.315544" lon="103.662704"><ele>738.0</ele><time>2011-04-25T06:29:45.0000000+00:00</time></trkpt><trkpt lat="22.315538" lon="103.662704"><ele>738.9</ele><time>2011-04-25T06:29:50.0000000+00:00</time></trkpt><trkpt lat="22.315535" lon="103.662712"><ele>739.8</ele><time>2011-04-25T06:29:55.0000000+00:00</time></trkpt><trkpt lat="22.315535" lon="103.662712"><ele>739.3</ele><time>2011-04-25T06:30:00.0000000+00:00</time></trkpt><trkpt lat="22.315538" lon="103.662704"><ele>739.0</ele><time>2011-04-25T06:30:05.0000000+00:00</time></trkpt><trkpt lat="22.315538" lon="103.662704"><ele>739.0</ele><time>2011-04-25T06:30:10.0000000+00:00</time></trkpt><trkpt lat="22.315538" lon="103.662704"><ele>739.0</ele><time>2011-04-25T06:30:15.0000000+00:00</time></trkpt><trkpt lat="22.315538" lon="103.662704"><ele>739.0</ele><time>2011-04-25T06:30:20.0000000+00:00</time></trkpt><trkpt lat="22.315538" lon="103.662704"><ele>739.0</ele><time>2011-04-25T06:30:25.0000000+00:00</time></trkpt><trkpt lat="22.315538" lon="103.662704"><ele>739.0</ele><time>2011-04-25T06:30:30.0000000+00:00</time></trkpt><trkpt lat="22.315538" lon="103.662704"><ele>738.9</ele><time>2011-04-25T06:30:35.0000000+00:00</time></trkpt><trkpt lat="22.315536" lon="103.662704"><ele>738.8</ele><time>2011-04-25T06:30:40.0000000+00:00</time></trkpt><trkpt lat="22.315538" lon="103.662704"><ele>738.7</ele><time>2011-04-25T06:30:45.0000000+00:00</time></trkpt><trkpt lat="22.315538" lon="103.662704"><ele>738.6</ele><time>2011-04-25T06:30:50.0000000+00:00</time></trkpt><trkpt lat="22.315538" lon="103.662704"><ele>738.6</ele><time>2011-04-25T06:30:55.0000000+00:00</time></trkpt><trkpt lat="22.315538" lon="103.662704"><ele>738.5</ele><time>2011-04-25T06:31:00.0000000+00:00</time></trkpt><trkpt lat="22.315538" lon="103.662704"><ele>738.5</ele><time>2011-04-25T06:31:05.0000000+00:00</time></trkpt><trkpt lat="22.315538" lon="103.662704"><ele>738.4</ele><time>2011-04-25T06:31:10.0000000+00:00</time></trkpt><trkpt lat="22.315538" lon="103.662704"><ele>738.4</ele><time>2011-04-25T06:31:15.0000000+00:00</time></trkpt><trkpt lat="22.315538" lon="103.662704"><ele>738.4</ele><time>2011-04-25T06:31:20.0000000+00:00</time></trkpt><trkpt lat="22.315538" lon="103.662704"><ele>738.6</ele><time>2011-04-25T06:31:25.0000000+00:00</time></trkpt><trkpt lat="22.315548" lon="103.662697"><ele>739.6</ele><time>2011-04-25T06:31:30.0000000+00:00</time></trkpt><trkpt lat="22.315554" lon="103.662689"><ele>740.3</ele><time>2011-04-25T06:31:35.0000000+00:00</time></trkpt><trkpt lat="22.315561" lon="103.662689"><ele>740.7</ele><time>2011-04-25T06:31:40.0000000+00:00</time></trkpt><trkpt lat="22.315565" lon="103.662682"><ele>740.9</ele><time>2011-04-25T06:31:45.0000000+00:00</time></trkpt><trkpt lat="22.315567" lon="103.662682"><ele>740.8</ele><time>2011-04-25T06:31:50.0000000+00:00</time></trkpt><trkpt lat="22.315571" lon="103.662666"><ele>740.6</ele><time>2011-04-25T06:31:55.0000000+00:00</time></trkpt><trkpt lat="22.315573" lon="103.662666"><ele>740.4</ele><time>2011-04-25T06:32:00.0000000+00:00</time></trkpt><trkpt lat="22.315575" lon="103.662659"><ele>740.7</ele><time>2011-04-25T06:32:05.0000000+00:00</time></trkpt><trkpt lat="22.315573" lon="103.662659"><ele>740.5</ele><time>2011-04-25T06:32:10.0000000+00:00</time></trkpt><trkpt lat="22.315575" lon="103.662659"><ele>740.4</ele><time>2011-04-25T06:32:15.0000000+00:00</time></trkpt><trkpt lat="22.315575" lon="103.662659"><ele>740.3</ele><time>2011-04-25T06:32:20.0000000+00:00</time></trkpt><trkpt lat="22.315575" lon="103.662659"><ele>740.2</ele><time>2011-04-25T06:32:25.0000000+00:00</time></trkpt><trkpt lat="22.315575" lon="103.662659"><ele>740.0</ele><time>2011-04-25T06:32:30.0000000+00:00</time></trkpt><trkpt lat="22.315575" lon="103.662659"><ele>739.8</ele><time>2011-04-25T06:32:35.0000000+00:00</time></trkpt><trkpt lat="22.315575" lon="103.662659"><ele>739.6</ele><time>2011-04-25T06:32:40.0000000+00:00</time></trkpt><trkpt lat="22.315575" lon="103.662659"><ele>739.5</ele><time>2011-04-25T06:32:45.0000000+00:00</time></trkpt><trkpt lat="22.315575" lon="103.662659"><ele>739.5</ele><time>2011-04-25T06:32:50.0000000+00:00</time></trkpt><trkpt lat="22.315575" lon="103.662659"><ele>739.4</ele><time>2011-04-25T06:32:55.0000000+00:00</time></trkpt><trkpt lat="22.315575" lon="103.662659"><ele>739.4</ele><time>2011-04-25T06:33:00.0000000+00:00</time></trkpt><trkpt lat="22.315575" lon="103.662659"><ele>739.4</ele><time>2011-04-25T06:33:05.0000000+00:00</time></trkpt><trkpt lat="22.315575" lon="103.662659"><ele>739.4</ele><time>2011-04-25T06:33:10.0000000+00:00</time></trkpt><trkpt lat="22.315575" lon="103.662666"><ele>739.5</ele><time>2011-04-25T06:33:15.0000000+00:00</time></trkpt><trkpt lat="22.315573" lon="103.662666"><ele>739.7</ele><time>2011-04-25T06:33:20.0000000+00:00</time></trkpt><trkpt lat="22.315571" lon="103.662666"><ele>740.0</ele><time>2011-04-25T06:33:25.0000000+00:00</time></trkpt><trkpt lat="22.315571" lon="103.662666"><ele>740.2</ele><time>2011-04-25T06:33:30.0000000+00:00</time></trkpt><trkpt lat="22.315569" lon="103.662666"><ele>740.5</ele><time>2011-04-25T06:33:35.0000000+00:00</time></trkpt><trkpt lat="22.315567" lon="103.662666"><ele>740.8</ele><time>2011-04-25T06:33:40.0000000+00:00</time></trkpt><trkpt lat="22.315565" lon="103.662666"><ele>741.1</ele><time>2011-04-25T06:33:45.0000000+00:00</time></trkpt><trkpt lat="22.315563" lon="103.662666"><ele>741.5</ele><time>2011-04-25T06:33:50.0000000+00:00</time></trkpt><trkpt lat="22.315561" lon="103.662666"><ele>741.9</ele><time>2011-04-25T06:33:55.0000000+00:00</time></trkpt><trkpt lat="22.315559" lon="103.662666"><ele>742.4</ele><time>2011-04-25T06:34:00.0000000+00:00</time></trkpt><trkpt lat="22.315557" lon="103.662666"><ele>742.8</ele><time>2011-04-25T06:34:05.0000000+00:00</time></trkpt><trkpt lat="22.315556" lon="103.662666"><ele>743.2</ele><time>2011-04-25T06:34:10.0000000+00:00</time></trkpt><trkpt lat="22.315554" lon="103.662666"><ele>743.6</ele><time>2011-04-25T06:34:15.0000000+00:00</time></trkpt><trkpt lat="22.315552" lon="103.662666"><ele>743.9</ele><time>2011-04-25T06:34:20.0000000+00:00</time></trkpt><trkpt lat="22.31555" lon="103.662666"><ele>744.3</ele><time>2011-04-25T06:34:25.0000000+00:00</time></trkpt><trkpt lat="22.315546" lon="103.662666"><ele>744.5</ele><time>2011-04-25T06:34:30.0000000+00:00</time></trkpt><trkpt lat="22.315544" lon="103.662666"><ele>744.8</ele><time>2011-04-25T06:34:35.0000000+00:00</time></trkpt><trkpt lat="22.315542" lon="103.662666"><ele>744.9</ele><time>2011-04-25T06:34:40.0000000+00:00</time></trkpt><trkpt lat="22.315542" lon="103.662666"><ele>744.8</ele><time>2011-04-25T06:34:45.0000000+00:00</time></trkpt><trkpt lat="22.315544" lon="103.662666"><ele>744.7</ele><time>2011-04-25T06:34:50.0000000+00:00</time></trkpt><trkpt lat="22.315544" lon="103.662666"><ele>744.6</ele><time>2011-04-25T06:34:55.0000000+00:00</time></trkpt><trkpt lat="22.315544" lon="103.662666"><ele>744.6</ele><time>2011-04-25T06:35:00.0000000+00:00</time></trkpt><trkpt lat="22.315544" lon="103.662666"><ele>744.4</ele><time>2011-04-25T06:35:05.0000000+00:00</time></trkpt><trkpt lat="22.315544" lon="103.662666"><ele>744.4</ele><time>2011-04-25T06:35:10.0000000+00:00</time></trkpt><trkpt lat="22.315544" lon="103.662666"><ele>744.3</ele><time>2011-04-25T06:35:15.0000000+00:00</time></trkpt><trkpt lat="22.315544" lon="103.662666"><ele>744.3</ele><time>2011-04-25T06:35:20.0000000+00:00</time></trkpt><trkpt lat="22.315544" lon="103.662666"><ele>744.2</ele><time>2011-04-25T06:35:25.0000000+00:00</time></trkpt><trkpt lat="22.315546" lon="103.662666"><ele>744.1</ele><time>2011-04-25T06:35:30.0000000+00:00</time></trkpt><trkpt lat="22.315546" lon="103.662666"><ele>743.9</ele><time>2011-04-25T06:35:35.0000000+00:00</time></trkpt><trkpt lat="22.315546" lon="103.662666"><ele>743.9</ele><time>2011-04-25T06:35:40.0000000+00:00</time></trkpt><trkpt lat="22.315546" lon="103.662666"><ele>743.9</ele><time>2011-04-25T06:35:45.0000000+00:00</time></trkpt><trkpt lat="22.315546" lon="103.662666"><ele>743.8</ele><time>2011-04-25T06:35:50.0000000+00:00</time></trkpt><trkpt lat="22.315548" lon="103.662666"><ele>743.8</ele><time>2011-04-25T06:35:55.0000000+00:00</time></trkpt><trkpt lat="22.315548" lon="103.662666"><ele>743.8</ele><time>2011-04-25T06:36:00.0000000+00:00</time></trkpt><trkpt lat="22.315546" lon="103.662666"><ele>743.8</ele><time>2011-04-25T06:36:05.0000000+00:00</time></trkpt><trkpt lat="22.315544" lon="103.662674"><ele>743.8</ele><time>2011-04-25T06:36:10.0000000+00:00</time></trkpt><trkpt lat="22.315542" lon="103.662674"><ele>743.8</ele><time>2011-04-25T06:36:15.0000000+00:00</time></trkpt><trkpt lat="22.315538" lon="103.662682"><ele>743.8</ele><time>2011-04-25T06:36:20.0000000+00:00</time></trkpt><trkpt lat="22.315536" lon="103.662689"><ele>743.8</ele><time>2011-04-25T06:36:25.0000000+00:00</time></trkpt><trkpt lat="22.315533" lon="103.662689"><ele>743.9</ele><time>2011-04-25T06:36:30.0000000+00:00</time></trkpt><trkpt lat="22.315531" lon="103.662689"><ele>743.9</ele><time>2011-04-25T06:36:35.0000000+00:00</time></trkpt><trkpt lat="22.315529" lon="103.662697"><ele>743.9</ele><time>2011-04-25T06:36:40.0000000+00:00</time></trkpt><trkpt lat="22.315527" lon="103.662697"><ele>743.9</ele><time>2011-04-25T06:36:45.0000000+00:00</time></trkpt><trkpt lat="22.315527" lon="103.662697"><ele>743.9</ele><time>2011-04-25T06:36:50.0000000+00:00</time></trkpt><trkpt lat="22.315525" lon="103.662697"><ele>743.9</ele><time>2011-04-25T06:36:55.0000000+00:00</time></trkpt><trkpt lat="22.315525" lon="103.662697"><ele>744.0</ele><time>2011-04-25T06:37:00.0000000+00:00</time></trkpt><trkpt lat="22.315519" lon="103.662689"><ele>744.0</ele><time>2011-04-25T06:37:05.0000000+00:00</time></trkpt><trkpt lat="22.315514" lon="103.662682"><ele>744.0</ele><time>2011-04-25T06:37:10.0000000+00:00</time></trkpt><trkpt lat="22.315506" lon="103.662674"><ele>744.0</ele><time>2011-04-25T06:37:15.0000000+00:00</time></trkpt><trkpt lat="22.315504" lon="103.662666"><ele>744.0</ele><time>2011-04-25T06:37:20.0000000+00:00</time></trkpt><trkpt lat="22.315504" lon="103.662659"><ele>744.1</ele><time>2011-04-25T06:37:25.0000000+00:00</time></trkpt><trkpt lat="22.315506" lon="103.662651"><ele>744.1</ele><time>2011-04-25T06:37:30.0000000+00:00</time></trkpt><trkpt lat="22.315508" lon="103.662643"><ele>744.1</ele><time>2011-04-25T06:37:35.0000000+00:00</time></trkpt><trkpt lat="22.315514" lon="103.662643"><ele>744.1</ele><time>2011-04-25T06:37:40.0000000+00:00</time></trkpt><trkpt lat="22.315517" lon="103.662636"><ele>744.2</ele><time>2011-04-25T06:37:45.0000000+00:00</time></trkpt><trkpt lat="22.315523" lon="103.662628"><ele>744.2</ele><time>2011-04-25T06:37:50.0000000+00:00</time></trkpt><trkpt lat="22.315525" lon="103.662628"><ele>744.2</ele><time>2011-04-25T06:37:55.0000000+00:00</time></trkpt><trkpt lat="22.315525" lon="103.662628"><ele>744.3</ele><time>2011-04-25T06:38:00.0000000+00:00</time></trkpt><trkpt lat="22.315525" lon="103.662628"><ele>744.3</ele><time>2011-04-25T06:38:05.0000000+00:00</time></trkpt><trkpt lat="22.315527" lon="103.662628"><ele>744.2</ele><time>2011-04-25T06:38:10.0000000+00:00</time></trkpt><trkpt lat="22.315527" lon="103.662628"><ele>744.2</ele><time>2011-04-25T06:38:15.0000000+00:00</time></trkpt><trkpt lat="22.315525" lon="103.662628"><ele>744.2</ele><time>2011-04-25T06:38:20.0000000+00:00</time></trkpt><trkpt lat="22.315521" lon="103.662628"><ele>744.2</ele><time>2011-04-25T06:38:25.0000000+00:00</time></trkpt><trkpt lat="22.315514" lon="103.662628"><ele>744.2</ele><time>2011-04-25T06:38:30.0000000+00:00</time></trkpt><trkpt lat="22.315437" lon="103.66259"><ele>744.2</ele><time>2011-04-25T06:38:35.0000000+00:00</time></trkpt><trkpt lat="22.315283" lon="103.662575"><ele>744.0</ele><time>2011-04-25T06:38:40.0000000+00:00</time></trkpt><trkpt lat="22.315197" lon="103.662544"><ele>743.4</ele><time>2011-04-25T06:38:45.0000000+00:00</time></trkpt><trkpt lat="22.315077" lon="103.662521"><ele>743.4</ele><time>2011-04-25T06:38:50.0000000+00:00</time></trkpt><trkpt lat="22.31501" lon="103.662483"><ele>742.7</ele><time>2011-04-25T06:38:55.0000000+00:00</time></trkpt><trkpt lat="22.315002" lon="103.662476"><ele>742.8</ele><time>2011-04-25T06:39:00.0000000+00:00</time></trkpt><trkpt lat="22.314999" lon="103.662476"><ele>742.9</ele><time>2011-04-25T06:39:05.0000000+00:00</time></trkpt><trkpt lat="22.315001" lon="103.662468"><ele>743.0</ele><time>2011-04-25T06:39:10.0000000+00:00</time></trkpt><trkpt lat="22.315002" lon="103.662468"><ele>743.0</ele><time>2011-04-25T06:39:15.0000000+00:00</time></trkpt><trkpt lat="22.315001" lon="103.66246"><ele>743.1</ele><time>2011-04-25T06:39:20.0000000+00:00</time></trkpt><trkpt lat="22.314793" lon="103.662483"><ele>742.5</ele><time>2011-04-25T06:39:25.0000000+00:00</time></trkpt><trkpt lat="22.314434" lon="103.662582"><ele>742.7</ele><time>2011-04-25T06:39:30.0000000+00:00</time></trkpt><trkpt lat="22.313999" lon="103.662735"><ele>743.1</ele><time>2011-04-25T06:39:35.0000000+00:00</time></trkpt><trkpt lat="22.313547" lon="103.662804"><ele>743.5</ele><time>2011-04-25T06:39:40.0000000+00:00</time></trkpt><trkpt lat="22.313145" lon="103.662758"><ele>744.4</ele><time>2011-04-25T06:39:45.0000000+00:00</time></trkpt><trkpt lat="22.312744" lon="103.66272"><ele>745.5</ele><time>2011-04-25T06:39:50.0000000+00:00</time></trkpt><trkpt lat="22.312401" lon="103.662674"><ele>747.1</ele><time>2011-04-25T06:39:55.0000000+00:00</time></trkpt><trkpt lat="22.312191" lon="103.662636"><ele>748.8</ele><time>2011-04-25T06:40:00.0000000+00:00</time></trkpt><trkpt lat="22.312" lon="103.66259"><ele>750.7</ele><time>2011-04-25T06:40:05.0000000+00:00</time></trkpt><trkpt lat="22.311769" lon="103.662575"><ele>752.6</ele><time>2011-04-25T06:40:10.0000000+00:00</time></trkpt><trkpt lat="22.311525" lon="103.662575"><ele>754.3</ele><time>2011-04-25T06:40:15.0000000+00:00</time></trkpt><trkpt lat="22.311255" lon="103.662659"><ele>755.6</ele><time>2011-04-25T06:40:20.0000000+00:00</time></trkpt><trkpt lat="22.311007" lon="103.662712"><ele>756.8</ele><time>2011-04-25T06:40:25.0000000+00:00</time></trkpt><trkpt lat="22.310789" lon="103.662811"><ele>758.0</ele><time>2011-04-25T06:40:30.0000000+00:00</time></trkpt><trkpt lat="22.31061" lon="103.662918"><ele>758.9</ele><time>2011-04-25T06:40:35.0000000+00:00</time></trkpt><trkpt lat="22.31048" lon="103.66301"><ele>760.1</ele><time>2011-04-25T06:40:40.0000000+00:00</time></trkpt><trkpt lat="22.310419" lon="103.663025"><ele>761.4</ele><time>2011-04-25T06:40:45.0000000+00:00</time></trkpt><trkpt lat="22.310326" lon="103.663078"><ele>762.5</ele><time>2011-04-25T06:40:50.0000000+00:00</time></trkpt><trkpt lat="22.310169" lon="103.663155"><ele>762.8</ele><time>2011-04-25T06:40:55.0000000+00:00</time></trkpt><trkpt lat="22.309963" lon="103.663277"><ele>762.8</ele><time>2011-04-25T06:41:00.0000000+00:00</time></trkpt><trkpt lat="22.30969" lon="103.663406"><ele>762.6</ele><time>2011-04-25T06:41:05.0000000+00:00</time></trkpt><trkpt lat="22.309366" lon="103.663574"><ele>762.1</ele><time>2011-04-25T06:41:10.0000000+00:00</time></trkpt><trkpt lat="22.309006" lon="103.663742"><ele>761.6</ele><time>2011-04-25T06:41:15.0000000+00:00</time></trkpt><trkpt lat="22.308662" lon="103.663918"><ele>761.5</ele><time>2011-04-25T06:41:20.0000000+00:00</time></trkpt><trkpt lat="22.308365" lon="103.664078"><ele>761.6</ele><time>2011-04-25T06:41:25.0000000+00:00</time></trkpt><trkpt lat="22.308046" lon="103.664253"><ele>761.8</ele><time>2011-04-25T06:41:30.0000000+00:00</time></trkpt><trkpt lat="22.30773" lon="103.664413"><ele>761.8</ele><time>2011-04-25T06:41:35.0000000+00:00</time></trkpt><trkpt lat="22.307423" lon="103.664589"><ele>762.3</ele><time>2011-04-25T06:41:40.0000000+00:00</time></trkpt><trkpt lat="22.307142" lon="103.664696"><ele>762.6</ele><time>2011-04-25T06:41:45.0000000+00:00</time></trkpt><trkpt lat="22.306883" lon="103.664757"><ele>762.3</ele><time>2011-04-25T06:41:50.0000000+00:00</time></trkpt><trkpt lat="22.306627" lon="103.664825"><ele>762.4</ele><time>2011-04-25T06:41:55.0000000+00:00</time></trkpt><trkpt lat="22.306332" lon="103.664886"><ele>762.3</ele><time>2011-04-25T06:42:00.0000000+00:00</time></trkpt><trkpt lat="22.306107" lon="103.665054"><ele>762.8</ele><time>2011-04-25T06:42:05.0000000+00:00</time></trkpt><trkpt lat="22.305964" lon="103.665283"><ele>763.3</ele><time>2011-04-25T06:42:10.0000000+00:00</time></trkpt><trkpt lat="22.305857" lon="103.665497"><ele>764.2</ele><time>2011-04-25T06:42:15.0000000+00:00</time></trkpt><trkpt lat="22.305775" lon="103.665718"><ele>764.7</ele><time>2011-04-25T06:42:20.0000000+00:00</time></trkpt><trkpt lat="22.305651" lon="103.665932"><ele>765.6</ele><time>2011-04-25T06:42:25.0000000+00:00</time></trkpt><trkpt lat="22.305531" lon="103.666069"><ele>765.9</ele><time>2011-04-25T06:42:30.0000000+00:00</time></trkpt><trkpt lat="22.305363" lon="103.666229"><ele>766.0</ele><time>2011-04-25T06:42:35.0000000+00:00</time></trkpt><trkpt lat="22.305239" lon="103.666351"><ele>767.2</ele><time>2011-04-25T06:42:40.0000000+00:00</time></trkpt><trkpt lat="22.305098" lon="103.66642"><ele>767.9</ele><time>2011-04-25T06:42:45.0000000+00:00</time></trkpt><trkpt lat="22.304897" lon="103.666504"><ele>768.4</ele><time>2011-04-25T06:42:50.0000000+00:00</time></trkpt><trkpt lat="22.30476" lon="103.66658"><ele>762.2</ele><time>2011-04-25T06:42:55.0000000+00:00</time></trkpt><trkpt lat="22.304605" lon="103.666679"><ele>757.4</ele><time>2011-04-25T06:43:00.0000000+00:00</time></trkpt><trkpt lat="22.304434" lon="103.666763"><ele>756.3</ele><time>2011-04-25T06:43:05.0000000+00:00</time></trkpt><trkpt lat="22.30426" lon="103.666832"><ele>755.4</ele><time>2011-04-25T06:43:10.0000000+00:00</time></trkpt><trkpt lat="22.304077" lon="103.666901"><ele>754.4</ele><time>2011-04-25T06:43:15.0000000+00:00</time></trkpt><trkpt lat="22.303885" lon="103.666992"><ele>754.0</ele><time>2011-04-25T06:43:20.0000000+00:00</time></trkpt><trkpt lat="22.303679" lon="103.667084"><ele>753.7</ele><time>2011-04-25T06:43:25.0000000+00:00</time></trkpt><trkpt lat="22.30348" lon="103.66713"><ele>752.9</ele><time>2011-04-25T06:43:30.0000000+00:00</time></trkpt><trkpt lat="22.30324" lon="103.667183"><ele>752.1</ele><time>2011-04-25T06:43:35.0000000+00:00</time></trkpt><trkpt lat="22.302996" lon="103.667244"><ele>751.6</ele><time>2011-04-25T06:43:40.0000000+00:00</time></trkpt><trkpt lat="22.302715" lon="103.667305"><ele>750.5</ele><time>2011-04-25T06:43:45.0000000+00:00</time></trkpt><trkpt lat="22.302475" lon="103.667343"><ele>750.2</ele><time>2011-04-25T06:43:50.0000000+00:00</time></trkpt><trkpt lat="22.302168" lon="103.667404"><ele>748.9</ele><time>2011-04-25T06:43:55.0000000+00:00</time></trkpt><trkpt lat="22.301941" lon="103.667496"><ele>748.4</ele><time>2011-04-25T06:44:00.0000000+00:00</time></trkpt><trkpt lat="22.301744" lon="103.66758"><ele>747.8</ele><time>2011-04-25T06:44:05.0000000+00:00</time></trkpt><trkpt lat="22.301544" lon="103.667664"><ele>746.9</ele><time>2011-04-25T06:44:10.0000000+00:00</time></trkpt><trkpt lat="22.301371" lon="103.667786"><ele>746.1</ele><time>2011-04-25T06:44:15.0000000+00:00</time></trkpt><trkpt lat="22.301191" lon="103.667892"><ele>745.6</ele><time>2011-04-25T06:44:20.0000000+00:00</time></trkpt><trkpt lat="22.30101" lon="103.667969"><ele>744.9</ele><time>2011-04-25T06:44:25.0000000+00:00</time></trkpt><trkpt lat="22.300835" lon="103.668152"><ele>744.9</ele><time>2011-04-25T06:44:30.0000000+00:00</time></trkpt><trkpt lat="22.300697" lon="103.668365"><ele>744.7</ele><time>2011-04-25T06:44:35.0000000+00:00</time></trkpt><trkpt lat="22.30052" lon="103.668602"><ele>744.4</ele><time>2011-04-25T06:44:40.0000000+00:00</time></trkpt><trkpt lat="22.300285" lon="103.668747"><ele>743.7</ele><time>2011-04-25T06:44:45.0000000+00:00</time></trkpt><trkpt lat="22.300001" lon="103.668839"><ele>742.7</ele><time>2011-04-25T06:44:50.0000000+00:00</time></trkpt><trkpt lat="22.299772" lon="103.668892"><ele>743.1</ele><time>2011-04-25T06:44:55.0000000+00:00</time></trkpt><trkpt lat="22.299551" lon="103.668953"><ele>743.4</ele><time>2011-04-25T06:45:00.0000000+00:00</time></trkpt><trkpt lat="22.299316" lon="103.668991"><ele>743.5</ele><time>2011-04-25T06:45:05.0000000+00:00</time></trkpt><trkpt lat="22.299011" lon="103.669014"><ele>743.2</ele><time>2011-04-25T06:45:10.0000000+00:00</time></trkpt><trkpt lat="22.298742" lon="103.669044"><ele>742.7</ele><time>2011-04-25T06:45:15.0000000+00:00</time></trkpt><trkpt lat="22.298481" lon="103.66906"><ele>742.1</ele><time>2011-04-25T06:45:20.0000000+00:00</time></trkpt><trkpt lat="22.298197" lon="103.669128"><ele>740.4</ele><time>2011-04-25T06:45:25.0000000+00:00</time></trkpt><trkpt lat="22.29789" lon="103.669235"><ele>738.4</ele><time>2011-04-25T06:45:30.0000000+00:00</time></trkpt><trkpt lat="22.297577" lon="103.66935"><ele>736.9</ele><time>2011-04-25T06:45:35.0000000+00:00</time></trkpt><trkpt lat="22.297382" lon="103.669449"><ele>735.7</ele><time>2011-04-25T06:45:40.0000000+00:00</time></trkpt><trkpt lat="22.297293" lon="103.669617"><ele>735.2</ele><time>2011-04-25T06:45:45.0000000+00:00</time></trkpt><trkpt lat="22.297207" lon="103.66996"><ele>735.3</ele><time>2011-04-25T06:45:50.0000000+00:00</time></trkpt><trkpt lat="22.297003" lon="103.67028"><ele>734.1</ele><time>2011-04-25T06:45:55.0000000+00:00</time></trkpt><trkpt lat="22.296587" lon="103.670341"><ele>732.7</ele><time>2011-04-25T06:46:00.0000000+00:00</time></trkpt><trkpt lat="22.296177" lon="103.670288"><ele>731.6</ele><time>2011-04-25T06:46:05.0000000+00:00</time></trkpt><trkpt lat="22.295805" lon="103.670128"><ele>730.5</ele><time>2011-04-25T06:46:10.0000000+00:00</time></trkpt><trkpt lat="22.295553" lon="103.66983"><ele>729.5</ele><time>2011-04-25T06:46:15.0000000+00:00</time></trkpt><trkpt lat="22.295267" lon="103.669563"><ele>728.8</ele><time>2011-04-25T06:46:20.0000000+00:00</time></trkpt><trkpt lat="22.294935" lon="103.669487"><ele>728.5</ele><time>2011-04-25T06:46:25.0000000+00:00</time></trkpt><trkpt lat="22.294622" lon="103.669609"><ele>728.3</ele><time>2011-04-25T06:46:30.0000000+00:00</time></trkpt><trkpt lat="22.294376" lon="103.669853"><ele>728.0</ele><time>2011-04-25T06:46:35.0000000+00:00</time></trkpt><trkpt lat="22.294069" lon="103.670029"><ele>727.8</ele><time>2011-04-25T06:46:40.0000000+00:00</time></trkpt><trkpt lat="22.293858" lon="103.67009"><ele>726.9</ele><time>2011-04-25T06:46:45.0000000+00:00</time></trkpt><trkpt lat="22.29365" lon="103.670143"><ele>726.2</ele><time>2011-04-25T06:46:50.0000000+00:00</time></trkpt><trkpt lat="22.293362" lon="103.670189"><ele>725.8</ele><time>2011-04-25T06:46:55.0000000+00:00</time></trkpt><trkpt lat="22.292999" lon="103.67012"><ele>725.1</ele><time>2011-04-25T06:47:00.0000000+00:00</time></trkpt><trkpt lat="22.292534" lon="103.670006"><ele>724.1</ele><time>2011-04-25T06:47:05.0000000+00:00</time></trkpt><trkpt lat="22.291893" lon="103.670006"><ele>721.2</ele><time>2011-04-25T06:47:10.0000000+00:00</time></trkpt><trkpt lat="22.291281" lon="103.67009"><ele>718.9</ele><time>2011-04-25T06:47:15.0000000+00:00</time></trkpt><trkpt lat="22.290726" lon="103.670059"><ele>716.6</ele><time>2011-04-25T06:47:20.0000000+00:00</time></trkpt><trkpt lat="22.290203" lon="103.670303"><ele>713.8</ele><time>2011-04-25T06:47:25.0000000+00:00</time></trkpt><trkpt lat="22.289703" lon="103.670708"><ele>711.9</ele><time>2011-04-25T06:47:30.0000000+00:00</time></trkpt><trkpt lat="22.2892" lon="103.67115"><ele>709.6</ele><time>2011-04-25T06:47:35.0000000+00:00</time></trkpt><trkpt lat="22.288815" lon="103.671608"><ele>708.3</ele><time>2011-04-25T06:47:40.0000000+00:00</time></trkpt><trkpt lat="22.288496" lon="103.671997"><ele>708.5</ele><time>2011-04-25T06:47:45.0000000+00:00</time></trkpt><trkpt lat="22.288214" lon="103.672188"><ele>709.1</ele><time>2011-04-25T06:47:50.0000000+00:00</time></trkpt><trkpt lat="22.287909" lon="103.672256"><ele>708.9</ele><time>2011-04-25T06:47:55.0000000+00:00</time></trkpt><trkpt lat="22.287563" lon="103.672096"><ele>709.1</ele><time>2011-04-25T06:48:00.0000000+00:00</time></trkpt><trkpt lat="22.287222" lon="103.671844"><ele>708.9</ele><time>2011-04-25T06:48:05.0000000+00:00</time></trkpt><trkpt lat="22.286888" lon="103.671692"><ele>707.5</ele><time>2011-04-25T06:48:10.0000000+00:00</time></trkpt><trkpt lat="22.286352" lon="103.671677"><ele>704.7</ele><time>2011-04-25T06:48:15.0000000+00:00</time></trkpt><trkpt lat="22.285975" lon="103.671837"><ele>704.4</ele><time>2011-04-25T06:48:20.0000000+00:00</time></trkpt><trkpt lat="22.285717" lon="103.671928"><ele>694.3</ele><time>2011-04-25T06:48:25.0000000+00:00</time></trkpt><trkpt lat="22.285484" lon="103.672089"><ele>685.9</ele><time>2011-04-25T06:48:30.0000000+00:00</time></trkpt><trkpt lat="22.285234" lon="103.672226"><ele>681.1</ele><time>2011-04-25T06:48:35.0000000+00:00</time></trkpt><trkpt lat="22.284994" lon="103.672356"><ele>678.5</ele><time>2011-04-25T06:48:40.0000000+00:00</time></trkpt><trkpt lat="22.284822" lon="103.67244"><ele>676.7</ele><time>2011-04-25T06:48:45.0000000+00:00</time></trkpt><trkpt lat="22.284782" lon="103.67247"><ele>676.8</ele><time>2011-04-25T06:48:50.0000000+00:00</time></trkpt><trkpt lat="22.284777" lon="103.67247"><ele>677.4</ele><time>2011-04-25T06:48:55.0000000+00:00</time></trkpt><trkpt lat="22.284775" lon="103.67247"><ele>677.6</ele><time>2011-04-25T06:49:00.0000000+00:00</time></trkpt><trkpt lat="22.284775" lon="103.672462"><ele>677.7</ele><time>2011-04-25T06:49:05.0000000+00:00</time></trkpt><trkpt lat="22.284775" lon="103.672462"><ele>677.7</ele><time>2011-04-25T06:49:10.0000000+00:00</time></trkpt><trkpt lat="22.284775" lon="103.672462"><ele>677.7</ele><time>2011-04-25T06:49:15.0000000+00:00</time></trkpt><trkpt lat="22.284771" lon="103.672447"><ele>677.8</ele><time>2011-04-25T06:49:20.0000000+00:00</time></trkpt><trkpt lat="22.284769" lon="103.67244"><ele>677.8</ele><time>2011-04-25T06:49:25.0000000+00:00</time></trkpt><trkpt lat="22.284767" lon="103.672432"><ele>677.8</ele><time>2011-04-25T06:49:30.0000000+00:00</time></trkpt><trkpt lat="22.284767" lon="103.672432"><ele>677.7</ele><time>2011-04-25T06:49:35.0000000+00:00</time></trkpt><trkpt lat="22.284765" lon="103.672424"><ele>677.6</ele><time>2011-04-25T06:49:40.0000000+00:00</time></trkpt><trkpt lat="22.284765" lon="103.672417"><ele>677.5</ele><time>2011-04-25T06:49:45.0000000+00:00</time></trkpt><trkpt lat="22.284765" lon="103.672401"><ele>677.5</ele><time>2011-04-25T06:49:50.0000000+00:00</time></trkpt><trkpt lat="22.284767" lon="103.672401"><ele>677.5</ele><time>2011-04-25T06:49:55.0000000+00:00</time></trkpt><trkpt lat="22.284771" lon="103.672394"><ele>677.4</ele><time>2011-04-25T06:50:00.0000000+00:00</time></trkpt><trkpt lat="22.284771" lon="103.672394"><ele>677.4</ele><time>2011-04-25T06:50:05.0000000+00:00</time></trkpt><trkpt lat="22.284771" lon="103.672394"><ele>677.4</ele><time>2011-04-25T06:50:10.0000000+00:00</time></trkpt><trkpt lat="22.284752" lon="103.672394"><ele>677.4</ele><time>2011-04-25T06:50:15.0000000+00:00</time></trkpt><trkpt lat="22.284742" lon="103.672386"><ele>677.4</ele><time>2011-04-25T06:50:20.0000000+00:00</time></trkpt><trkpt lat="22.284744" lon="103.672386"><ele>677.3</ele><time>2011-04-25T06:50:25.0000000+00:00</time></trkpt><trkpt lat="22.284725" lon="103.672394"><ele>677.4</ele><time>2011-04-25T06:50:30.0000000+00:00</time></trkpt><trkpt lat="22.284678" lon="103.67244"><ele>677.2</ele><time>2011-04-25T06:50:35.0000000+00:00</time></trkpt><trkpt lat="22.284542" lon="103.672523"><ele>676.8</ele><time>2011-04-25T06:50:40.0000000+00:00</time></trkpt><trkpt lat="22.284374" lon="103.672676"><ele>676.5</ele><time>2011-04-25T06:50:45.0000000+00:00</time></trkpt><trkpt lat="22.284241" lon="103.672981"><ele>675.9</ele><time>2011-04-25T06:50:50.0000000+00:00</time></trkpt><trkpt lat="22.284109" lon="103.673332"><ele>675.1</ele><time>2011-04-25T06:50:55.0000000+00:00</time></trkpt><trkpt lat="22.28388" lon="103.673508"><ele>673.8</ele><time>2011-04-25T06:51:00.0000000+00:00</time></trkpt><trkpt lat="22.283716" lon="103.673698"><ele>673.0</ele><time>2011-04-25T06:51:05.0000000+00:00</time></trkpt><trkpt lat="22.283648" lon="103.673851"><ele>670.6</ele><time>2011-04-25T06:51:10.0000000+00:00</time></trkpt><trkpt lat="22.283619" lon="103.673958"><ele>670.9</ele><time>2011-04-25T06:51:15.0000000+00:00</time></trkpt><trkpt lat="22.283592" lon="103.674049"><ele>671.2</ele><time>2011-04-25T06:51:20.0000000+00:00</time></trkpt><trkpt lat="22.283522" lon="103.674095"><ele>669.6</ele><time>2011-04-25T06:51:25.0000000+00:00</time></trkpt><trkpt lat="22.283527" lon="103.674095"><ele>669.6</ele><time>2011-04-25T06:51:30.0000000+00:00</time></trkpt><trkpt lat="22.283527" lon="103.674095"><ele>669.6</ele><time>2011-04-25T06:51:35.0000000+00:00</time></trkpt><trkpt lat="22.283527" lon="103.674095"><ele>669.5</ele><time>2011-04-25T06:51:40.0000000+00:00</time></trkpt><trkpt lat="22.283527" lon="103.674095"><ele>669.4</ele><time>2011-04-25T06:51:45.0000000+00:00</time></trkpt><trkpt lat="22.283529" lon="103.674095"><ele>669.4</ele><time>2011-04-25T06:51:50.0000000+00:00</time></trkpt><trkpt lat="22.283537" lon="103.674088"><ele>669.4</ele><time>2011-04-25T06:51:55.0000000+00:00</time></trkpt><trkpt lat="22.283541" lon="103.674095"><ele>669.5</ele><time>2011-04-25T06:52:00.0000000+00:00</time></trkpt><trkpt lat="22.283545" lon="103.674095"><ele>669.7</ele><time>2011-04-25T06:52:05.0000000+00:00</time></trkpt><trkpt lat="22.283546" lon="103.674095"><ele>669.7</ele><time>2011-04-25T06:52:10.0000000+00:00</time></trkpt><trkpt lat="22.283546" lon="103.674095"><ele>669.7</ele><time>2011-04-25T06:52:15.0000000+00:00</time></trkpt><trkpt lat="22.283546" lon="103.674095"><ele>669.7</ele><time>2011-04-25T06:52:20.0000000+00:00</time></trkpt><trkpt lat="22.283546" lon="103.674095"><ele>669.7</ele><time>2011-04-25T06:52:25.0000000+00:00</time></trkpt><trkpt lat="22.283546" lon="103.674095"><ele>669.7</ele><time>2011-04-25T06:52:30.0000000+00:00</time></trkpt><trkpt lat="22.283548" lon="103.674095"><ele>669.7</ele><time>2011-04-25T06:52:35.0000000+00:00</time></trkpt><trkpt lat="22.283548" lon="103.674095"><ele>669.8</ele><time>2011-04-25T06:52:40.0000000+00:00</time></trkpt><trkpt lat="22.283548" lon="103.674095"><ele>669.8</ele><time>2011-04-25T06:52:45.0000000+00:00</time></trkpt><trkpt lat="22.283548" lon="103.674095"><ele>669.8</ele><time>2011-04-25T06:52:50.0000000+00:00</time></trkpt><trkpt lat="22.283548" lon="103.674095"><ele>669.8</ele><time>2011-04-25T06:52:55.0000000+00:00</time></trkpt><trkpt lat="22.283552" lon="103.674095"><ele>669.9</ele><time>2011-04-25T06:53:00.0000000+00:00</time></trkpt><trkpt lat="22.283554" lon="103.674088"><ele>670.9</ele><time>2011-04-25T06:53:05.0000000+00:00</time></trkpt><trkpt lat="22.283548" lon="103.674072"><ele>672.3</ele><time>2011-04-25T06:53:10.0000000+00:00</time></trkpt><trkpt lat="22.283552" lon="103.674065"><ele>673.4</ele><time>2011-04-25T06:53:15.0000000+00:00</time></trkpt><trkpt lat="22.283556" lon="103.674057"><ele>673.9</ele><time>2011-04-25T06:53:20.0000000+00:00</time></trkpt><trkpt lat="22.28356" lon="103.674065"><ele>674.3</ele><time>2011-04-25T06:53:25.0000000+00:00</time></trkpt><trkpt lat="22.283567" lon="103.674072"><ele>674.2</ele><time>2011-04-25T06:53:30.0000000+00:00</time></trkpt><trkpt lat="22.283577" lon="103.674072"><ele>674.5</ele><time>2011-04-25T06:53:35.0000000+00:00</time></trkpt><trkpt lat="22.283577" lon="103.67408"><ele>675.2</ele><time>2011-04-25T06:53:40.0000000+00:00</time></trkpt><trkpt lat="22.283577" lon="103.67408"><ele>675.2</ele><time>2011-04-25T06:53:45.0000000+00:00</time></trkpt><trkpt lat="22.283577" lon="103.67408"><ele>675.2</ele><time>2011-04-25T06:53:50.0000000+00:00</time></trkpt><trkpt lat="22.283575" lon="103.67408"><ele>675.2</ele><time>2011-04-25T06:53:55.0000000+00:00</time></trkpt><trkpt lat="22.283575" lon="103.67408"><ele>675.1</ele><time>2011-04-25T06:54:00.0000000+00:00</time></trkpt><trkpt lat="22.283575" lon="103.67408"><ele>675.1</ele><time>2011-04-25T06:54:05.0000000+00:00</time></trkpt><trkpt lat="22.283575" lon="103.67408"><ele>675.1</ele><time>2011-04-25T06:54:10.0000000+00:00</time></trkpt><trkpt lat="22.283575" lon="103.67408"><ele>675.1</ele><time>2011-04-25T06:54:15.0000000+00:00</time></trkpt><trkpt lat="22.283575" lon="103.67408"><ele>675.1</ele><time>2011-04-25T06:54:20.0000000+00:00</time></trkpt><trkpt lat="22.283575" lon="103.67408"><ele>675.1</ele><time>2011-04-25T06:54:25.0000000+00:00</time></trkpt><trkpt lat="22.283575" lon="103.67408"><ele>675.1</ele><time>2011-04-25T06:54:30.0000000+00:00</time></trkpt><trkpt lat="22.283577" lon="103.674072"><ele>675.2</ele><time>2011-04-25T06:54:35.0000000+00:00</time></trkpt><trkpt lat="22.283564" lon="103.67408"><ele>675.3</ele><time>2011-04-25T06:54:40.0000000+00:00</time></trkpt><trkpt lat="22.283564" lon="103.67408"><ele>675.0</ele><time>2011-04-25T06:54:45.0000000+00:00</time></trkpt><trkpt lat="22.283566" lon="103.674088"><ele>675.4</ele><time>2011-04-25T06:54:50.0000000+00:00</time></trkpt><trkpt lat="22.283569" lon="103.67408"><ele>675.6</ele><time>2011-04-25T06:54:55.0000000+00:00</time></trkpt><trkpt lat="22.283573" lon="103.67408"><ele>675.1</ele><time>2011-04-25T06:55:00.0000000+00:00</time></trkpt><trkpt lat="22.283567" lon="103.67408"><ele>674.7</ele><time>2011-04-25T06:55:05.0000000+00:00</time></trkpt><trkpt lat="22.283579" lon="103.674072"><ele>675.6</ele><time>2011-04-25T06:55:10.0000000+00:00</time></trkpt><trkpt lat="22.283585" lon="103.674072"><ele>676.2</ele><time>2011-04-25T06:55:15.0000000+00:00</time></trkpt><trkpt lat="22.283585" lon="103.674072"><ele>676.2</ele><time>2011-04-25T06:55:20.0000000+00:00</time></trkpt><trkpt lat="22.283585" lon="103.674072"><ele>676.1</ele><time>2011-04-25T06:55:25.0000000+00:00</time></trkpt><trkpt lat="22.283585" lon="103.674072"><ele>676.1</ele><time>2011-04-25T06:55:30.0000000+00:00</time></trkpt><trkpt lat="22.283585" lon="103.67408"><ele>675.7</ele><time>2011-04-25T06:55:35.0000000+00:00</time></trkpt><trkpt lat="22.283587" lon="103.674126"><ele>675.2</ele><time>2011-04-25T06:55:40.0000000+00:00</time></trkpt><trkpt lat="22.283566" lon="103.67424"><ele>674.7</ele><time>2011-04-25T06:55:45.0000000+00:00</time></trkpt><trkpt lat="22.283522" lon="103.674416"><ele>674.2</ele><time>2011-04-25T06:55:50.0000000+00:00</time></trkpt><trkpt lat="22.283413" lon="103.674606"><ele>673.9</ele><time>2011-04-25T06:55:55.0000000+00:00</time></trkpt><trkpt lat="22.283276" lon="103.674812"><ele>674.0</ele><time>2011-04-25T06:56:00.0000000+00:00</time></trkpt><trkpt lat="22.283123" lon="103.675041"><ele>674.3</ele><time>2011-04-25T06:56:05.0000000+00:00</time></trkpt><trkpt lat="22.282965" lon="103.675255"><ele>674.0</ele><time>2011-04-25T06:56:10.0000000+00:00</time></trkpt><trkpt lat="22.282797" lon="103.675484"><ele>673.9</ele><time>2011-04-25T06:56:15.0000000+00:00</time></trkpt><trkpt lat="22.282642" lon="103.675705"><ele>673.8</ele><time>2011-04-25T06:56:20.0000000+00:00</time></trkpt><trkpt lat="22.282537" lon="103.675888"><ele>673.5</ele><time>2011-04-25T06:56:25.0000000+00:00</time></trkpt><trkpt lat="22.282473" lon="103.676033"><ele>673.1</ele><time>2011-04-25T06:56:30.0000000+00:00</time></trkpt><trkpt lat="22.282415" lon="103.676231"><ele>672.0</ele><time>2011-04-25T06:56:35.0000000+00:00</time></trkpt><trkpt lat="22.28236" lon="103.676376"><ele>671.6</ele><time>2011-04-25T06:56:40.0000000+00:00</time></trkpt><trkpt lat="22.28231" lon="103.676521"><ele>671.6</ele><time>2011-04-25T06:56:45.0000000+00:00</time></trkpt><trkpt lat="22.282251" lon="103.676682"><ele>671.1</ele><time>2011-04-25T06:56:50.0000000+00:00</time></trkpt><trkpt lat="22.282187" lon="103.676834"><ele>670.4</ele><time>2011-04-25T06:56:55.0000000+00:00</time></trkpt><trkpt lat="22.282125" lon="103.676979"><ele>670.2</ele><time>2011-04-25T06:57:00.0000000+00:00</time></trkpt><trkpt lat="22.282072" lon="103.677094"><ele>669.8</ele><time>2011-04-25T06:57:05.0000000+00:00</time></trkpt><trkpt lat="22.282011" lon="103.677216"><ele>671.3</ele><time>2011-04-25T06:57:10.0000000+00:00</time></trkpt><trkpt lat="22.28195" lon="103.67733"><ele>671.9</ele><time>2011-04-25T06:57:15.0000000+00:00</time></trkpt><trkpt lat="22.281887" lon="103.67746"><ele>670.8</ele><time>2011-04-25T06:57:20.0000000+00:00</time></trkpt><trkpt lat="22.281822" lon="103.677589"><ele>670.9</ele><time>2011-04-25T06:57:25.0000000+00:00</time></trkpt><trkpt lat="22.281754" lon="103.677711"><ele>672.1</ele><time>2011-04-25T06:57:30.0000000+00:00</time></trkpt><trkpt lat="22.281679" lon="103.677849"><ele>673.5</ele><time>2011-04-25T06:57:35.0000000+00:00</time></trkpt><trkpt lat="22.281582" lon="103.677979"><ele>675.3</ele><time>2011-04-25T06:57:40.0000000+00:00</time></trkpt><trkpt lat="22.281483" lon="103.678078"><ele>675.6</ele><time>2011-04-25T06:57:45.0000000+00:00</time></trkpt><trkpt lat="22.281363" lon="103.678162"><ele>676.7</ele><time>2011-04-25T06:57:50.0000000+00:00</time></trkpt><trkpt lat="22.281233" lon="103.678238"><ele>678.9</ele><time>2011-04-25T06:57:55.0000000+00:00</time></trkpt><trkpt lat="22.281092" lon="103.678314"><ele>680.6</ele><time>2011-04-25T06:58:00.0000000+00:00</time></trkpt><trkpt lat="22.28097" lon="103.678391"><ele>682.3</ele><time>2011-04-25T06:58:05.0000000+00:00</time></trkpt><trkpt lat="22.280865" lon="103.678482"><ele>685.4</ele><time>2011-04-25T06:58:10.0000000+00:00</time></trkpt><trkpt lat="22.280754" lon="103.678619"><ele>688.5</ele><time>2011-04-25T06:58:15.0000000+00:00</time></trkpt><trkpt lat="22.28067" lon="103.678772"><ele>688.4</ele><time>2011-04-25T06:58:20.0000000+00:00</time></trkpt><trkpt lat="22.280586" lon="103.678902"><ele>689.7</ele><time>2011-04-25T06:58:25.0000000+00:00</time></trkpt><trkpt lat="22.28047" lon="103.679108"><ele>689.9</ele><time>2011-04-25T06:58:30.0000000+00:00</time></trkpt><trkpt lat="22.280268" lon="103.679298"><ele>690.9</ele><time>2011-04-25T06:58:35.0000000+00:00</time></trkpt><trkpt lat="22.279995" lon="103.679512"><ele>691.9</ele><time>2011-04-25T06:58:40.0000000+00:00</time></trkpt><trkpt lat="22.279696" lon="103.679741"><ele>692.3</ele><time>2011-04-25T06:58:45.0000000+00:00</time></trkpt><trkpt lat="22.279409" lon="103.679955"><ele>692.9</ele><time>2011-04-25T06:58:50.0000000+00:00</time></trkpt><trkpt lat="22.279135" lon="103.680153"><ele>693.6</ele><time>2011-04-25T06:58:55.0000000+00:00</time></trkpt><trkpt lat="22.278877" lon="103.680351"><ele>694.4</ele><time>2011-04-25T06:59:00.0000000+00:00</time></trkpt><trkpt lat="22.278658" lon="103.680534"><ele>695.6</ele><time>2011-04-25T06:59:05.0000000+00:00</time></trkpt><trkpt lat="22.278427" lon="103.680664"><ele>697.6</ele><time>2011-04-25T06:59:10.0000000+00:00</time></trkpt><trkpt lat="22.278257" lon="103.680824"><ele>699.3</ele><time>2011-04-25T06:59:15.0000000+00:00</time></trkpt><trkpt lat="22.278038" lon="103.681076"><ele>699.6</ele><time>2011-04-25T06:59:20.0000000+00:00</time></trkpt><trkpt lat="22.277807" lon="103.681381"><ele>699.7</ele><time>2011-04-25T06:59:25.0000000+00:00</time></trkpt><trkpt lat="22.277493" lon="103.681709"><ele>700.1</ele><time>2011-04-25T06:59:30.0000000+00:00</time></trkpt><trkpt lat="22.277205" lon="103.681984"><ele>700.5</ele><time>2011-04-25T06:59:35.0000000+00:00</time></trkpt><trkpt lat="22.276945" lon="103.682259"><ele>701.6</ele><time>2011-04-25T06:59:40.0000000+00:00</time></trkpt><trkpt lat="22.276665" lon="103.682602"><ele>701.1</ele><time>2011-04-25T06:59:45.0000000+00:00</time></trkpt><trkpt lat="22.27635" lon="103.682953"><ele>700.4</ele><time>2011-04-25T06:59:50.0000000+00:00</time></trkpt><trkpt lat="22.276051" lon="103.683258"><ele>701.0</ele><time>2011-04-25T06:59:55.0000000+00:00</time></trkpt><trkpt lat="22.275768" lon="103.683586"><ele>702.8</ele><time>2011-04-25T07:00:00.0000000+00:00</time></trkpt><trkpt lat="22.275553" lon="103.683823"><ele>702.6</ele><time>2011-04-25T07:00:05.0000000+00:00</time></trkpt><trkpt lat="22.275383" lon="103.684006"><ele>701.3</ele><time>2011-04-25T07:00:10.0000000+00:00</time></trkpt><trkpt lat="22.275202" lon="103.684128"><ele>702.3</ele><time>2011-04-25T07:00:15.0000000+00:00</time></trkpt><trkpt lat="22.275009" lon="103.684273"><ele>702.1</ele><time>2011-04-25T07:00:20.0000000+00:00</time></trkpt><trkpt lat="22.274843" lon="103.684402"><ele>704.1</ele><time>2011-04-25T07:00:25.0000000+00:00</time></trkpt><trkpt lat="22.274649" lon="103.684578"><ele>705.9</ele><time>2011-04-25T07:00:30.0000000+00:00</time></trkpt><trkpt lat="22.274462" lon="103.684738"><ele>697.0</ele><time>2011-04-25T07:00:35.0000000+00:00</time></trkpt><trkpt lat="22.27429" lon="103.684929"><ele>683.9</ele><time>2011-04-25T07:00:40.0000000+00:00</time></trkpt><trkpt lat="22.27413" lon="103.685059"><ele>682.0</ele><time>2011-04-25T07:00:45.0000000+00:00</time></trkpt><trkpt lat="22.273939" lon="103.685234"><ele>681.2</ele><time>2011-04-25T07:00:50.0000000+00:00</time></trkpt><trkpt lat="22.273748" lon="103.685379"><ele>679.9</ele><time>2011-04-25T07:00:55.0000000+00:00</time></trkpt><trkpt lat="22.273569" lon="103.685532"><ele>679.3</ele><time>2011-04-25T07:01:00.0000000+00:00</time></trkpt><trkpt lat="22.273417" lon="103.685661"><ele>678.3</ele><time>2011-04-25T07:01:05.0000000+00:00</time></trkpt><trkpt lat="22.273296" lon="103.685768"><ele>678.5</ele><time>2011-04-25T07:01:10.0000000+00:00</time></trkpt><trkpt lat="22.273195" lon="103.685852"><ele>678.4</ele><time>2011-04-25T07:01:15.0000000+00:00</time></trkpt><trkpt lat="22.273071" lon="103.685959"><ele>678.6</ele><time>2011-04-25T07:01:20.0000000+00:00</time></trkpt><trkpt lat="22.272943" lon="103.686058"><ele>679.4</ele><time>2011-04-25T07:01:25.0000000+00:00</time></trkpt><trkpt lat="22.27282" lon="103.686157"><ele>677.5</ele><time>2011-04-25T07:01:30.0000000+00:00</time></trkpt><trkpt lat="22.272705" lon="103.686234"><ele>675.6</ele><time>2011-04-25T07:01:35.0000000+00:00</time></trkpt><trkpt lat="22.272608" lon="103.686302"><ele>673.8</ele><time>2011-04-25T07:01:40.0000000+00:00</time></trkpt><trkpt lat="22.272495" lon="103.686401"><ele>672.1</ele><time>2011-04-25T07:01:45.0000000+00:00</time></trkpt><trkpt lat="22.27239" lon="103.686485"><ele>671.2</ele><time>2011-04-25T07:01:50.0000000+00:00</time></trkpt><trkpt lat="22.272293" lon="103.686584"><ele>670.9</ele><time>2011-04-25T07:01:55.0000000+00:00</time></trkpt><trkpt lat="22.272192" lon="103.686676"><ele>670.8</ele><time>2011-04-25T07:02:00.0000000+00:00</time></trkpt><trkpt lat="22.272068" lon="103.686775"><ele>670.1</ele><time>2011-04-25T07:02:05.0000000+00:00</time></trkpt><trkpt lat="22.27194" lon="103.686867"><ele>669.5</ele><time>2011-04-25T07:02:10.0000000+00:00</time></trkpt><trkpt lat="22.271822" lon="103.686974"><ele>668.7</ele><time>2011-04-25T07:02:15.0000000+00:00</time></trkpt><trkpt lat="22.271687" lon="103.687103"><ele>667.8</ele><time>2011-04-25T07:02:20.0000000+00:00</time></trkpt><trkpt lat="22.271582" lon="103.687187"><ele>667.6</ele><time>2011-04-25T07:02:25.0000000+00:00</time></trkpt><trkpt lat="22.271502" lon="103.687263"><ele>667.8</ele><time>2011-04-25T07:02:30.0000000+00:00</time></trkpt><trkpt lat="22.271389" lon="103.687347"><ele>668.1</ele><time>2011-04-25T07:02:35.0000000+00:00</time></trkpt><trkpt lat="22.271294" lon="103.687416"><ele>668.6</ele><time>2011-04-25T07:02:40.0000000+00:00</time></trkpt><trkpt lat="22.271198" lon="103.687492"><ele>669.0</ele><time>2011-04-25T07:02:45.0000000+00:00</time></trkpt><trkpt lat="22.271105" lon="103.687553"><ele>670.1</ele><time>2011-04-25T07:02:50.0000000+00:00</time></trkpt><trkpt lat="22.271025" lon="103.687614"><ele>670.6</ele><time>2011-04-25T07:02:55.0000000+00:00</time></trkpt><trkpt lat="22.270939" lon="103.687691"><ele>670.5</ele><time>2011-04-25T07:03:00.0000000+00:00</time></trkpt><trkpt lat="22.270851" lon="103.687767"><ele>670.8</ele><time>2011-04-25T07:03:05.0000000+00:00</time></trkpt><trkpt lat="22.270756" lon="103.687843"><ele>671.4</ele><time>2011-04-25T07:03:10.0000000+00:00</time></trkpt><trkpt lat="22.270678" lon="103.687912"><ele>671.5</ele><time>2011-04-25T07:03:15.0000000+00:00</time></trkpt><trkpt lat="22.270603" lon="103.687981"><ele>671.3</ele><time>2011-04-25T07:03:20.0000000+00:00</time></trkpt><trkpt lat="22.270519" lon="103.688049"><ele>672.3</ele><time>2011-04-25T07:03:25.0000000+00:00</time></trkpt><trkpt lat="22.270445" lon="103.688118"><ele>672.9</ele><time>2011-04-25T07:03:30.0000000+00:00</time></trkpt><trkpt lat="22.27035" lon="103.688187"><ele>674.4</ele><time>2011-04-25T07:03:35.0000000+00:00</time></trkpt><trkpt lat="22.270266" lon="103.68824"><ele>675.9</ele><time>2011-04-25T07:03:40.0000000+00:00</time></trkpt><trkpt lat="22.270172" lon="103.688309"><ele>675.7</ele><time>2011-04-25T07:03:45.0000000+00:00</time></trkpt><trkpt lat="22.270096" lon="103.688377"><ele>676.0</ele><time>2011-04-25T07:03:50.0000000+00:00</time></trkpt><trkpt lat="22.270021" lon="103.688454"><ele>676.3</ele><time>2011-04-25T07:03:55.0000000+00:00</time></trkpt><trkpt lat="22.269938" lon="103.688515"><ele>676.3</ele><time>2011-04-25T07:04:00.0000000+00:00</time></trkpt><trkpt lat="22.269857" lon="103.688576"><ele>677.7</ele><time>2011-04-25T07:04:05.0000000+00:00</time></trkpt><trkpt lat="22.269785" lon="103.688644"><ele>677.9</ele><time>2011-04-25T07:04:10.0000000+00:00</time></trkpt><trkpt lat="22.269716" lon="103.688713"><ele>677.8</ele><time>2011-04-25T07:04:15.0000000+00:00</time></trkpt><trkpt lat="22.269632" lon="103.688782"><ele>678.9</ele><time>2011-04-25T07:04:20.0000000+00:00</time></trkpt><trkpt lat="22.269552" lon="103.688858"><ele>679.5</ele><time>2011-04-25T07:04:25.0000000+00:00</time></trkpt><trkpt lat="22.269464" lon="103.688965"><ele>680.9</ele><time>2011-04-25T07:04:30.0000000+00:00</time></trkpt><trkpt lat="22.269335" lon="103.689102"><ele>681.6</ele><time>2011-04-25T07:04:35.0000000+00:00</time></trkpt><trkpt lat="22.26919" lon="103.689293"><ele>682.0</ele><time>2011-04-25T07:04:40.0000000+00:00</time></trkpt><trkpt lat="22.269051" lon="103.689476"><ele>683.2</ele><time>2011-04-25T07:04:45.0000000+00:00</time></trkpt><trkpt lat="22.268934" lon="103.689606"><ele>684.6</ele><time>2011-04-25T07:04:50.0000000+00:00</time></trkpt><trkpt lat="22.268837" lon="103.689705"><ele>686.4</ele><time>2011-04-25T07:04:55.0000000+00:00</time></trkpt><trkpt lat="22.268728" lon="103.689827"><ele>686.8</ele><time>2011-04-25T07:05:00.0000000+00:00</time></trkpt><trkpt lat="22.268555" lon="103.690094"><ele>688.4</ele><time>2011-04-25T07:05:05.0000000+00:00</time></trkpt><trkpt lat="22.268332" lon="103.690392"><ele>687.6</ele><time>2011-04-25T07:05:10.0000000+00:00</time></trkpt><trkpt lat="22.268106" lon="103.690659"><ele>688.7</ele><time>2011-04-25T07:05:15.0000000+00:00</time></trkpt><trkpt lat="22.267933" lon="103.69088"><ele>688.7</ele><time>2011-04-25T07:05:20.0000000+00:00</time></trkpt><trkpt lat="22.267788" lon="103.691071"><ele>690.1</ele><time>2011-04-25T07:05:25.0000000+00:00</time></trkpt><trkpt lat="22.267662" lon="103.691231"><ele>690.9</ele><time>2011-04-25T07:05:30.0000000+00:00</time></trkpt><trkpt lat="22.267555" lon="103.691368"><ele>692.3</ele><time>2011-04-25T07:05:35.0000000+00:00</time></trkpt><trkpt lat="22.267475" lon="103.691483"><ele>693.2</ele><time>2011-04-25T07:05:40.0000000+00:00</time></trkpt><trkpt lat="22.267405" lon="103.691566"><ele>693.8</ele><time>2011-04-25T07:05:45.0000000+00:00</time></trkpt><trkpt lat="22.267326" lon="103.691666"><ele>693.4</ele><time>2011-04-25T07:05:50.0000000+00:00</time></trkpt><trkpt lat="22.267229" lon="103.691772"><ele>692.3</ele><time>2011-04-25T07:05:55.0000000+00:00</time></trkpt><trkpt lat="22.267141" lon="103.691872"><ele>692.8</ele><time>2011-04-25T07:06:00.0000000+00:00</time></trkpt><trkpt lat="22.267054" lon="103.691994"><ele>692.8</ele><time>2011-04-25T07:06:05.0000000+00:00</time></trkpt><trkpt lat="22.266949" lon="103.692116"><ele>692.8</ele><time>2011-04-25T07:06:10.0000000+00:00</time></trkpt><trkpt lat="22.266842" lon="103.692238"><ele>693.1</ele><time>2011-04-25T07:06:15.0000000+00:00</time></trkpt><trkpt lat="22.266756" lon="103.692352"><ele>693.5</ele><time>2011-04-25T07:06:20.0000000+00:00</time></trkpt><trkpt lat="22.266665" lon="103.692482"><ele>693.5</ele><time>2011-04-25T07:06:25.0000000+00:00</time></trkpt><trkpt lat="22.266569" lon="103.692612"><ele>693.2</ele><time>2011-04-25T07:06:30.0000000+00:00</time></trkpt><trkpt lat="22.266491" lon="103.692726"><ele>693.1</ele><time>2011-04-25T07:06:35.0000000+00:00</time></trkpt><trkpt lat="22.266403" lon="103.692856"><ele>692.9</ele><time>2011-04-25T07:06:40.0000000+00:00</time></trkpt><trkpt lat="22.266317" lon="103.692955"><ele>692.3</ele><time>2011-04-25T07:06:45.0000000+00:00</time></trkpt><trkpt lat="22.26623" lon="103.693047"><ele>692.3</ele><time>2011-04-25T07:06:50.0000000+00:00</time></trkpt><trkpt lat="22.266144" lon="103.693146"><ele>692.5</ele><time>2011-04-25T07:06:55.0000000+00:00</time></trkpt><trkpt lat="22.266045" lon="103.693253"><ele>693.0</ele><time>2011-04-25T07:07:00.0000000+00:00</time></trkpt><trkpt lat="22.265947" lon="103.693344"><ele>694.5</ele><time>2011-04-25T07:07:05.0000000+00:00</time></trkpt><trkpt lat="22.26582" lon="103.693413"><ele>696.1</ele><time>2011-04-25T07:07:10.0000000+00:00</time></trkpt><trkpt lat="22.265663" lon="103.693436"><ele>697.4</ele><time>2011-04-25T07:07:15.0000000+00:00</time></trkpt><trkpt lat="22.265501" lon="103.693451"><ele>697.3</ele><time>2011-04-25T07:07:20.0000000+00:00</time></trkpt><trkpt lat="22.265341" lon="103.693428"><ele>697.8</ele><time>2011-04-25T07:07:25.0000000+00:00</time></trkpt><trkpt lat="22.265177" lon="103.693451"><ele>698.4</ele><time>2011-04-25T07:07:30.0000000+00:00</time></trkpt><trkpt lat="22.264984" lon="103.693535"><ele>699.3</ele><time>2011-04-25T07:07:35.0000000+00:00</time></trkpt><trkpt lat="22.264866" lon="103.693695"><ele>696.9</ele><time>2011-04-25T07:07:40.0000000+00:00</time></trkpt><trkpt lat="22.264772" lon="103.693855"><ele>696.7</ele><time>2011-04-25T07:07:45.0000000+00:00</time></trkpt><trkpt lat="22.264669" lon="103.694008"><ele>696.8</ele><time>2011-04-25T07:07:50.0000000+00:00</time></trkpt><trkpt lat="22.264551" lon="103.694168"><ele>695.0</ele><time>2011-04-25T07:07:55.0000000+00:00</time></trkpt><trkpt lat="22.26442" lon="103.694313"><ele>694.8</ele><time>2011-04-25T07:08:00.0000000+00:00</time></trkpt><trkpt lat="22.264307" lon="103.694443"><ele>695.9</ele><time>2011-04-25T07:08:05.0000000+00:00</time></trkpt><trkpt lat="22.264242" lon="103.694603"><ele>696.3</ele><time>2011-04-25T07:08:10.0000000+00:00</time></trkpt><trkpt lat="22.264229" lon="103.694778"><ele>696.8</ele><time>2011-04-25T07:08:15.0000000+00:00</time></trkpt><trkpt lat="22.264233" lon="103.694885"><ele>698.4</ele><time>2011-04-25T07:08:20.0000000+00:00</time></trkpt><trkpt lat="22.264248" lon="103.694962"><ele>699.6</ele><time>2011-04-25T07:08:25.0000000+00:00</time></trkpt><trkpt lat="22.264284" lon="103.695045"><ele>699.9</ele><time>2011-04-25T07:08:30.0000000+00:00</time></trkpt><trkpt lat="22.26432" lon="103.695152"><ele>700.0</ele><time>2011-04-25T07:08:35.0000000+00:00</time></trkpt><trkpt lat="22.264385" lon="103.695267"><ele>700.2</ele><time>2011-04-25T07:08:40.0000000+00:00</time></trkpt><trkpt lat="22.264467" lon="103.695389"><ele>700.6</ele><time>2011-04-25T07:08:45.0000000+00:00</time></trkpt><trkpt lat="22.264559" lon="103.695503"><ele>701.3</ele><time>2011-04-25T07:08:50.0000000+00:00</time></trkpt><trkpt lat="22.264647" lon="103.695625"><ele>701.8</ele><time>2011-04-25T07:08:55.0000000+00:00</time></trkpt><trkpt lat="22.264715" lon="103.695793"><ele>701.7</ele><time>2011-04-25T07:09:00.0000000+00:00</time></trkpt><trkpt lat="22.264732" lon="103.695953"><ele>701.9</ele><time>2011-04-25T07:09:05.0000000+00:00</time></trkpt><trkpt lat="22.264721" lon="103.696075"><ele>702.1</ele><time>2011-04-25T07:09:10.0000000+00:00</time></trkpt><trkpt lat="22.264719" lon="103.696213"><ele>702.2</ele><time>2011-04-25T07:09:15.0000000+00:00</time></trkpt><trkpt lat="22.264721" lon="103.696342"><ele>702.7</ele><time>2011-04-25T07:09:20.0000000+00:00</time></trkpt><trkpt lat="22.264759" lon="103.696472"><ele>703.8</ele><time>2011-04-25T07:09:25.0000000+00:00</time></trkpt><trkpt lat="22.264835" lon="103.696594"><ele>705.0</ele><time>2011-04-25T07:09:30.0000000+00:00</time></trkpt><trkpt lat="22.26491" lon="103.696701"><ele>706.7</ele><time>2011-04-25T07:09:35.0000000+00:00</time></trkpt><trkpt lat="22.264965" lon="103.696815"><ele>707.4</ele><time>2011-04-25T07:09:40.0000000+00:00</time></trkpt><trkpt lat="22.265007" lon="103.696915"><ele>708.3</ele><time>2011-04-25T07:09:45.0000000+00:00</time></trkpt><trkpt lat="22.265003" lon="103.697014"><ele>708.2</ele><time>2011-04-25T07:09:50.0000000+00:00</time></trkpt><trkpt lat="22.264954" lon="103.697098"><ele>708.4</ele><time>2011-04-25T07:09:55.0000000+00:00</time></trkpt><trkpt lat="22.264881" lon="103.697182"><ele>709.5</ele><time>2011-04-25T07:10:00.0000000+00:00</time></trkpt><trkpt lat="22.264778" lon="103.697273"><ele>711.3</ele><time>2011-04-25T07:10:05.0000000+00:00</time></trkpt><trkpt lat="22.264692" lon="103.69735"><ele>713.7</ele><time>2011-04-25T07:10:10.0000000+00:00</time></trkpt><trkpt lat="22.264606" lon="103.697456"><ele>714.4</ele><time>2011-04-25T07:10:15.0000000+00:00</time></trkpt><trkpt lat="22.264523" lon="103.69754"><ele>716.4</ele><time>2011-04-25T07:10:20.0000000+00:00</time></trkpt><trkpt lat="22.26446" lon="103.697647"><ele>717.4</ele><time>2011-04-25T07:10:25.0000000+00:00</time></trkpt><trkpt lat="22.264393" lon="103.697762"><ele>718.5</ele><time>2011-04-25T07:10:30.0000000+00:00</time></trkpt><trkpt lat="22.264347" lon="103.697884"><ele>718.5</ele><time>2011-04-25T07:10:35.0000000+00:00</time></trkpt><trkpt lat="22.264313" lon="103.697975"><ele>719.3</ele><time>2011-04-25T07:10:40.0000000+00:00</time></trkpt><trkpt lat="22.264267" lon="103.69809"><ele>720.3</ele><time>2011-04-25T07:10:45.0000000+00:00</time></trkpt><trkpt lat="22.264212" lon="103.698219"><ele>720.6</ele><time>2011-04-25T07:10:50.0000000+00:00</time></trkpt><trkpt lat="22.264132" lon="103.698326"><ele>721.6</ele><time>2011-04-25T07:10:55.0000000+00:00</time></trkpt><trkpt lat="22.264044" lon="103.698425"><ele>722.5</ele><time>2011-04-25T07:11:00.0000000+00:00</time></trkpt><trkpt lat="22.263937" lon="103.698502"><ele>724.0</ele><time>2011-04-25T07:11:05.0000000+00:00</time></trkpt><trkpt lat="22.263809" lon="103.69854"><ele>723.8</ele><time>2011-04-25T07:11:10.0000000+00:00</time></trkpt><trkpt lat="22.263693" lon="103.698578"><ele>724.4</ele><time>2011-04-25T07:11:15.0000000+00:00</time></trkpt><trkpt lat="22.263571" lon="103.698631"><ele>724.8</ele><time>2011-04-25T07:11:20.0000000+00:00</time></trkpt><trkpt lat="22.263458" lon="103.698708"><ele>724.5</ele><time>2011-04-25T07:11:25.0000000+00:00</time></trkpt><trkpt lat="22.263361" lon="103.698792"><ele>724.9</ele><time>2011-04-25T07:11:30.0000000+00:00</time></trkpt><trkpt lat="22.263294" lon="103.698898"><ele>725.6</ele><time>2011-04-25T07:11:35.0000000+00:00</time></trkpt><trkpt lat="22.263237" lon="103.698997"><ele>727.9</ele><time>2011-04-25T07:11:40.0000000+00:00</time></trkpt><trkpt lat="22.263145" lon="103.69915"><ele>729.2</ele><time>2011-04-25T07:11:45.0000000+00:00</time></trkpt><trkpt lat="22.263021" lon="103.699257"><ele>729.0</ele><time>2011-04-25T07:11:50.0000000+00:00</time></trkpt><trkpt lat="22.262873" lon="103.699295"><ele>731.2</ele><time>2011-04-25T07:11:55.0000000+00:00</time></trkpt><trkpt lat="22.262735" lon="103.699303"><ele>733.7</ele><time>2011-04-25T07:12:00.0000000+00:00</time></trkpt><trkpt lat="22.262592" lon="103.699287"><ele>737.4</ele><time>2011-04-25T07:12:05.0000000+00:00</time></trkpt><trkpt lat="22.26248" lon="103.69928"><ele>740.7</ele><time>2011-04-25T07:12:10.0000000+00:00</time></trkpt><trkpt lat="22.262379" lon="103.699287"><ele>742.9</ele><time>2011-04-25T07:12:15.0000000+00:00</time></trkpt><trkpt lat="22.262264" lon="103.699326"><ele>743.6</ele><time>2011-04-25T07:12:20.0000000+00:00</time></trkpt><trkpt lat="22.262165" lon="103.699417"><ele>741.6</ele><time>2011-04-25T07:12:25.0000000+00:00</time></trkpt><trkpt lat="22.262112" lon="103.699486"><ele>741.7</ele><time>2011-04-25T07:12:30.0000000+00:00</time></trkpt><trkpt lat="22.262114" lon="103.699486"><ele>740.5</ele><time>2011-04-25T07:12:35.0000000+00:00</time></trkpt><trkpt lat="22.262114" lon="103.699486"><ele>740.5</ele><time>2011-04-25T07:12:40.0000000+00:00</time></trkpt><trkpt lat="22.262112" lon="103.699486"><ele>740.6</ele><time>2011-04-25T07:12:45.0000000+00:00</time></trkpt><trkpt lat="22.26211" lon="103.699486"><ele>740.7</ele><time>2011-04-25T07:12:50.0000000+00:00</time></trkpt><trkpt lat="22.262108" lon="103.699486"><ele>740.7</ele><time>2011-04-25T07:12:55.0000000+00:00</time></trkpt><trkpt lat="22.262108" lon="103.699486"><ele>740.8</ele><time>2011-04-25T07:13:00.0000000+00:00</time></trkpt><trkpt lat="22.262104" lon="103.699486"><ele>740.8</ele><time>2011-04-25T07:13:05.0000000+00:00</time></trkpt><trkpt lat="22.2621" lon="103.699493"><ele>740.9</ele><time>2011-04-25T07:13:10.0000000+00:00</time></trkpt><trkpt lat="22.262096" lon="103.699493"><ele>741.0</ele><time>2011-04-25T07:13:15.0000000+00:00</time></trkpt><trkpt lat="22.262096" lon="103.699493"><ele>741.0</ele><time>2011-04-25T07:13:20.0000000+00:00</time></trkpt><trkpt lat="22.262096" lon="103.699493"><ele>741.0</ele><time>2011-04-25T07:13:25.0000000+00:00</time></trkpt><trkpt lat="22.262096" lon="103.699493"><ele>741.0</ele><time>2011-04-25T07:13:30.0000000+00:00</time></trkpt><trkpt lat="22.262096" lon="103.699493"><ele>741.0</ele><time>2011-04-25T07:13:35.0000000+00:00</time></trkpt><trkpt lat="22.262096" lon="103.699493"><ele>741.0</ele><time>2011-04-25T07:13:40.0000000+00:00</time></trkpt><trkpt lat="22.262096" lon="103.699493"><ele>741.0</ele><time>2011-04-25T07:13:45.0000000+00:00</time></trkpt><trkpt lat="22.262096" lon="103.699493"><ele>741.0</ele><time>2011-04-25T07:13:50.0000000+00:00</time></trkpt><trkpt lat="22.262096" lon="103.699493"><ele>741.0</ele><time>2011-04-25T07:13:55.0000000+00:00</time></trkpt><trkpt lat="22.262096" lon="103.699493"><ele>741.0</ele><time>2011-04-25T07:14:00.0000000+00:00</time></trkpt><trkpt lat="22.262096" lon="103.699493"><ele>741.0</ele><time>2011-04-25T07:14:05.0000000+00:00</time></trkpt><trkpt lat="22.262096" lon="103.699493"><ele>741.0</ele><time>2011-04-25T07:14:10.0000000+00:00</time></trkpt><trkpt lat="22.262096" lon="103.699493"><ele>741.0</ele><time>2011-04-25T07:14:15.0000000+00:00</time></trkpt><trkpt lat="22.262096" lon="103.699493"><ele>741.0</ele><time>2011-04-25T07:14:20.0000000+00:00</time></trkpt><trkpt lat="22.262096" lon="103.699493"><ele>741.0</ele><time>2011-04-25T07:14:25.0000000+00:00</time></trkpt><trkpt lat="22.262096" lon="103.699493"><ele>741.0</ele><time>2011-04-25T07:14:30.0000000+00:00</time></trkpt><trkpt lat="22.262096" lon="103.699493"><ele>741.0</ele><time>2011-04-25T07:14:35.0000000+00:00</time></trkpt><trkpt lat="22.262096" lon="103.699493"><ele>740.9</ele><time>2011-04-25T07:14:40.0000000+00:00</time></trkpt><trkpt lat="22.262096" lon="103.699493"><ele>740.9</ele><time>2011-04-25T07:14:45.0000000+00:00</time></trkpt><trkpt lat="22.262096" lon="103.699493"><ele>740.9</ele><time>2011-04-25T07:14:50.0000000+00:00</time></trkpt><trkpt lat="22.262096" lon="103.699493"><ele>740.9</ele><time>2011-04-25T07:14:55.0000000+00:00</time></trkpt><trkpt lat="22.262096" lon="103.699493"><ele>740.9</ele><time>2011-04-25T07:15:00.0000000+00:00</time></trkpt><trkpt lat="22.262096" lon="103.699493"><ele>740.9</ele><time>2011-04-25T07:15:05.0000000+00:00</time></trkpt><trkpt lat="22.262096" lon="103.699493"><ele>740.9</ele><time>2011-04-25T07:15:10.0000000+00:00</time></trkpt><trkpt lat="22.262096" lon="103.699493"><ele>740.9</ele><time>2011-04-25T07:15:15.0000000+00:00</time></trkpt><trkpt lat="22.262096" lon="103.699493"><ele>740.9</ele><time>2011-04-25T07:15:20.0000000+00:00</time></trkpt><trkpt lat="22.262098" lon="103.699493"><ele>740.9</ele><time>2011-04-25T07:15:25.0000000+00:00</time></trkpt><trkpt lat="22.262098" lon="103.699493"><ele>740.8</ele><time>2011-04-25T07:15:30.0000000+00:00</time></trkpt><trkpt lat="22.262096" lon="103.699493"><ele>740.8</ele><time>2011-04-25T07:15:35.0000000+00:00</time></trkpt><trkpt lat="22.262098" lon="103.699493"><ele>740.8</ele><time>2011-04-25T07:15:40.0000000+00:00</time></trkpt><trkpt lat="22.262096" lon="103.699493"><ele>740.8</ele><time>2011-04-25T07:15:45.0000000+00:00</time></trkpt><trkpt lat="22.262096" lon="103.699493"><ele>740.8</ele><time>2011-04-25T07:15:50.0000000+00:00</time></trkpt><trkpt lat="22.262098" lon="103.699493"><ele>740.8</ele><time>2011-04-25T07:15:55.0000000+00:00</time></trkpt><trkpt lat="22.2621" lon="103.699501"><ele>740.7</ele><time>2011-04-25T07:16:00.0000000+00:00</time></trkpt><trkpt lat="22.262098" lon="103.699524"><ele>740.7</ele><time>2011-04-25T07:16:05.0000000+00:00</time></trkpt><trkpt lat="22.26211" lon="103.699532"><ele>740.6</ele><time>2011-04-25T07:16:10.0000000+00:00</time></trkpt><trkpt lat="22.262144" lon="103.699585"><ele>740.5</ele><time>2011-04-25T07:16:15.0000000+00:00</time></trkpt><trkpt lat="22.26218" lon="103.699684"><ele>740.4</ele><time>2011-04-25T07:16:20.0000000+00:00</time></trkpt><trkpt lat="22.262241" lon="103.699753"><ele>740.3</ele><time>2011-04-25T07:16:25.0000000+00:00</time></trkpt><trkpt lat="22.262321" lon="103.699829"><ele>740.4</ele><time>2011-04-25T07:16:30.0000000+00:00</time></trkpt><trkpt lat="22.262402" lon="103.69989"><ele>740.3</ele><time>2011-04-25T07:16:35.0000000+00:00</time></trkpt><trkpt lat="22.262447" lon="103.699951"><ele>739.5</ele><time>2011-04-25T07:16:40.0000000+00:00</time></trkpt><trkpt lat="22.262535" lon="103.700035"><ele>739.6</ele><time>2011-04-25T07:16:45.0000000+00:00</time></trkpt><trkpt lat="22.262611" lon="103.700096"><ele>739.2</ele><time>2011-04-25T07:16:50.0000000+00:00</time></trkpt><trkpt lat="22.262611" lon="103.700104"><ele>739.2</ele><time>2011-04-25T07:16:55.0000000+00:00</time></trkpt><trkpt lat="22.262613" lon="103.700104"><ele>738.9</ele><time>2011-04-25T07:17:00.0000000+00:00</time></trkpt><trkpt lat="22.262623" lon="103.700134"><ele>737.9</ele><time>2011-04-25T07:17:05.0000000+00:00</time></trkpt><trkpt lat="22.26263" lon="103.700165"><ele>738.7</ele><time>2011-04-25T07:17:10.0000000+00:00</time></trkpt><trkpt lat="22.262661" lon="103.700165"><ele>739.6</ele><time>2011-04-25T07:17:15.0000000+00:00</time></trkpt><trkpt lat="22.262651" lon="103.700165"><ele>740.3</ele><time>2011-04-25T07:17:20.0000000+00:00</time></trkpt><trkpt lat="22.262657" lon="103.70018"><ele>740.4</ele><time>2011-04-25T07:17:25.0000000+00:00</time></trkpt><trkpt lat="22.262659" lon="103.700203"><ele>741.2</ele><time>2011-04-25T07:17:30.0000000+00:00</time></trkpt><trkpt lat="22.262655" lon="103.700218"><ele>741.9</ele><time>2011-04-25T07:17:35.0000000+00:00</time></trkpt><trkpt lat="22.262705" lon="103.70031"><ele>741.8</ele><time>2011-04-25T07:17:40.0000000+00:00</time></trkpt><trkpt lat="22.262728" lon="103.700523"><ele>741.6</ele><time>2011-04-25T07:17:45.0000000+00:00</time></trkpt><trkpt lat="22.262718" lon="103.700745"><ele>740.9</ele><time>2011-04-25T07:17:50.0000000+00:00</time></trkpt><trkpt lat="22.262709" lon="103.701012"><ele>739.4</ele><time>2011-04-25T07:17:55.0000000+00:00</time></trkpt><trkpt lat="22.262686" lon="103.701324"><ele>737.9</ele><time>2011-04-25T07:18:00.0000000+00:00</time></trkpt><trkpt lat="22.262686" lon="103.7015"><ele>736.8</ele><time>2011-04-25T07:18:05.0000000+00:00</time></trkpt><trkpt lat="22.262691" lon="103.701599"><ele>735.6</ele><time>2011-04-25T07:18:10.0000000+00:00</time></trkpt><trkpt lat="22.262674" lon="103.701683"><ele>735.5</ele><time>2011-04-25T07:18:15.0000000+00:00</time></trkpt><trkpt lat="22.262672" lon="103.701683"><ele>735.9</ele><time>2011-04-25T07:18:20.0000000+00:00</time></trkpt><trkpt lat="22.262669" lon="103.701683"><ele>736.0</ele><time>2011-04-25T07:18:25.0000000+00:00</time></trkpt><trkpt lat="22.262667" lon="103.701683"><ele>736.0</ele><time>2011-04-25T07:18:30.0000000+00:00</time></trkpt><trkpt lat="22.262669" lon="103.701683"><ele>736.2</ele><time>2011-04-25T07:18:35.0000000+00:00</time></trkpt><trkpt lat="22.262667" lon="103.701683"><ele>736.2</ele><time>2011-04-25T07:18:40.0000000+00:00</time></trkpt><trkpt lat="22.262667" lon="103.701683"><ele>736.1</ele><time>2011-04-25T07:18:45.0000000+00:00</time></trkpt><trkpt lat="22.262667" lon="103.701683"><ele>736.1</ele><time>2011-04-25T07:18:50.0000000+00:00</time></trkpt><trkpt lat="22.262667" lon="103.701683"><ele>736.1</ele><time>2011-04-25T07:18:55.0000000+00:00</time></trkpt><trkpt lat="22.262669" lon="103.701683"><ele>736.0</ele><time>2011-04-25T07:19:00.0000000+00:00</time></trkpt><trkpt lat="22.262669" lon="103.701683"><ele>736.0</ele><time>2011-04-25T07:19:05.0000000+00:00</time></trkpt><trkpt lat="22.262669" lon="103.701683"><ele>736.0</ele><time>2011-04-25T07:19:10.0000000+00:00</time></trkpt><trkpt lat="22.262669" lon="103.701683"><ele>736.0</ele><time>2011-04-25T07:19:15.0000000+00:00</time></trkpt><trkpt lat="22.262669" lon="103.701683"><ele>736.0</ele><time>2011-04-25T07:19:20.0000000+00:00</time></trkpt><trkpt lat="22.262669" lon="103.701683"><ele>736.0</ele><time>2011-04-25T07:19:25.0000000+00:00</time></trkpt><trkpt lat="22.262669" lon="103.701683"><ele>736.0</ele><time>2011-04-25T07:19:30.0000000+00:00</time></trkpt><trkpt lat="22.262669" lon="103.701683"><ele>736.0</ele><time>2011-04-25T07:19:35.0000000+00:00</time></trkpt><trkpt lat="22.262669" lon="103.701683"><ele>736.0</ele><time>2011-04-25T07:19:40.0000000+00:00</time></trkpt><trkpt lat="22.262669" lon="103.701683"><ele>736.0</ele><time>2011-04-25T07:19:45.0000000+00:00</time></trkpt><trkpt lat="22.262669" lon="103.701683"><ele>736.0</ele><time>2011-04-25T07:19:50.0000000+00:00</time></trkpt><trkpt lat="22.262669" lon="103.701683"><ele>736.0</ele><time>2011-04-25T07:19:55.0000000+00:00</time></trkpt><trkpt lat="22.262669" lon="103.701683"><ele>736.0</ele><time>2011-04-25T07:20:00.0000000+00:00</time></trkpt><trkpt lat="22.262669" lon="103.701683"><ele>736.1</ele><time>2011-04-25T07:20:05.0000000+00:00</time></trkpt><trkpt lat="22.262669" lon="103.701683"><ele>736.1</ele><time>2011-04-25T07:20:10.0000000+00:00</time></trkpt><trkpt lat="22.262669" lon="103.701683"><ele>736.0</ele><time>2011-04-25T07:20:15.0000000+00:00</time></trkpt><trkpt lat="22.262669" lon="103.701683"><ele>736.0</ele><time>2011-04-25T07:20:20.0000000+00:00</time></trkpt><trkpt lat="22.262669" lon="103.701683"><ele>736.0</ele><time>2011-04-25T07:20:25.0000000+00:00</time></trkpt><trkpt lat="22.262669" lon="103.701683"><ele>736.0</ele><time>2011-04-25T07:20:30.0000000+00:00</time></trkpt><trkpt lat="22.262669" lon="103.701683"><ele>736.0</ele><time>2011-04-25T07:20:35.0000000+00:00</time></trkpt><trkpt lat="22.262669" lon="103.701683"><ele>736.0</ele><time>2011-04-25T07:20:40.0000000+00:00</time></trkpt><trkpt lat="22.262669" lon="103.701683"><ele>736.0</ele><time>2011-04-25T07:20:45.0000000+00:00</time></trkpt><trkpt lat="22.262669" lon="103.701683"><ele>736.0</ele><time>2011-04-25T07:20:50.0000000+00:00</time></trkpt><trkpt lat="22.262669" lon="103.701683"><ele>736.0</ele><time>2011-04-25T07:20:55.0000000+00:00</time></trkpt><trkpt lat="22.262669" lon="103.701683"><ele>735.9</ele><time>2011-04-25T07:21:00.0000000+00:00</time></trkpt><trkpt lat="22.262665" lon="103.701714"><ele>735.7</ele><time>2011-04-25T07:21:05.0000000+00:00</time></trkpt><trkpt lat="22.262623" lon="103.701942"><ele>734.5</ele><time>2011-04-25T07:21:10.0000000+00:00</time></trkpt><trkpt lat="22.262493" lon="103.702171"><ele>733.9</ele><time>2011-04-25T07:21:15.0000000+00:00</time></trkpt><trkpt lat="22.262239" lon="103.702415"><ele>734.7</ele><time>2011-04-25T07:21:20.0000000+00:00</time></trkpt><trkpt lat="22.261988" lon="103.702446"><ele>734.8</ele><time>2011-04-25T07:21:25.0000000+00:00</time></trkpt><trkpt lat="22.261833" lon="103.70237"><ele>735.8</ele><time>2011-04-25T07:21:30.0000000+00:00</time></trkpt><trkpt lat="22.261734" lon="103.702255"><ele>736.7</ele><time>2011-04-25T07:21:35.0000000+00:00</time></trkpt><trkpt lat="22.261658" lon="103.702148"><ele>737.3</ele><time>2011-04-25T07:21:40.0000000+00:00</time></trkpt><trkpt lat="22.261574" lon="103.702034"><ele>737.8</ele><time>2011-04-25T07:21:45.0000000+00:00</time></trkpt><trkpt lat="22.261484" lon="103.701904"><ele>738.3</ele><time>2011-04-25T07:21:50.0000000+00:00</time></trkpt><trkpt lat="22.261381" lon="103.701797"><ele>739.8</ele><time>2011-04-25T07:21:55.0000000+00:00</time></trkpt><trkpt lat="22.261269" lon="103.701706"><ele>741.5</ele><time>2011-04-25T07:22:00.0000000+00:00</time></trkpt><trkpt lat="22.261095" lon="103.701607"><ele>745.9</ele><time>2011-04-25T07:22:05.0000000+00:00</time></trkpt><trkpt lat="22.260958" lon="103.701538"><ele>750.2</ele><time>2011-04-25T07:22:10.0000000+00:00</time></trkpt><trkpt lat="22.260847" lon="103.701553"><ele>750.8</ele><time>2011-04-25T07:22:15.0000000+00:00</time></trkpt><trkpt lat="22.26071" lon="103.701584"><ele>751.3</ele><time>2011-04-25T07:22:20.0000000+00:00</time></trkpt><trkpt lat="22.260586" lon="103.701637"><ele>751.6</ele><time>2011-04-25T07:22:25.0000000+00:00</time></trkpt><trkpt lat="22.260441" lon="103.701698"><ele>751.7</ele><time>2011-04-25T07:22:30.0000000+00:00</time></trkpt><trkpt lat="22.2603" lon="103.701759"><ele>751.5</ele><time>2011-04-25T07:22:35.0000000+00:00</time></trkpt><trkpt lat="22.260176" lon="103.70182"><ele>751.4</ele><time>2011-04-25T07:22:40.0000000+00:00</time></trkpt><trkpt lat="22.260061" lon="103.701866"><ele>752.3</ele><time>2011-04-25T07:22:45.0000000+00:00</time></trkpt><trkpt lat="22.259954" lon="103.701912"><ele>753.3</ele><time>2011-04-25T07:22:50.0000000+00:00</time></trkpt><trkpt lat="22.25988" lon="103.701958"><ele>754.3</ele><time>2011-04-25T07:22:55.0000000+00:00</time></trkpt><trkpt lat="22.259819" lon="103.702003"><ele>755.6</ele><time>2011-04-25T07:23:00.0000000+00:00</time></trkpt><trkpt lat="22.259747" lon="103.702057"><ele>757.4</ele><time>2011-04-25T07:23:05.0000000+00:00</time></trkpt><trkpt lat="22.259691" lon="103.702103"><ele>759.3</ele><time>2011-04-25T07:23:10.0000000+00:00</time></trkpt><trkpt lat="22.259659" lon="103.702141"><ele>760.1</ele><time>2011-04-25T07:23:15.0000000+00:00</time></trkpt><trkpt lat="22.259655" lon="103.702141"><ele>760.6</ele><time>2011-04-25T07:23:20.0000000+00:00</time></trkpt><trkpt lat="22.259657" lon="103.702141"><ele>760.6</ele><time>2011-04-25T07:23:25.0000000+00:00</time></trkpt><trkpt lat="22.259655" lon="103.702148"><ele>760.5</ele><time>2011-04-25T07:23:30.0000000+00:00</time></trkpt><trkpt lat="22.259657" lon="103.702148"><ele>760.4</ele><time>2011-04-25T07:23:35.0000000+00:00</time></trkpt><trkpt lat="22.259657" lon="103.702148"><ele>760.4</ele><time>2011-04-25T07:23:40.0000000+00:00</time></trkpt><trkpt lat="22.259657" lon="103.702148"><ele>760.4</ele><time>2011-04-25T07:23:45.0000000+00:00</time></trkpt><trkpt lat="22.259659" lon="103.702148"><ele>760.3</ele><time>2011-04-25T07:23:50.0000000+00:00</time></trkpt><trkpt lat="22.259659" lon="103.702148"><ele>760.3</ele><time>2011-04-25T07:23:55.0000000+00:00</time></trkpt><trkpt lat="22.259655" lon="103.702148"><ele>760.5</ele><time>2011-04-25T07:24:00.0000000+00:00</time></trkpt><trkpt lat="22.25964" lon="103.702164"><ele>760.8</ele><time>2011-04-25T07:24:05.0000000+00:00</time></trkpt><trkpt lat="22.259642" lon="103.702171"><ele>760.8</ele><time>2011-04-25T07:24:10.0000000+00:00</time></trkpt><trkpt lat="22.259644" lon="103.702171"><ele>760.7</ele><time>2011-04-25T07:24:15.0000000+00:00</time></trkpt><trkpt lat="22.259645" lon="103.702171"><ele>760.6</ele><time>2011-04-25T07:24:20.0000000+00:00</time></trkpt><trkpt lat="22.259645" lon="103.702171"><ele>760.6</ele><time>2011-04-25T07:24:25.0000000+00:00</time></trkpt><trkpt lat="22.259644" lon="103.702171"><ele>760.6</ele><time>2011-04-25T07:24:30.0000000+00:00</time></trkpt><trkpt lat="22.259644" lon="103.702171"><ele>760.7</ele><time>2011-04-25T07:24:35.0000000+00:00</time></trkpt><trkpt lat="22.259644" lon="103.702171"><ele>760.7</ele><time>2011-04-25T07:24:40.0000000+00:00</time></trkpt><trkpt lat="22.259644" lon="103.702171"><ele>760.6</ele><time>2011-04-25T07:24:45.0000000+00:00</time></trkpt><trkpt lat="22.259644" lon="103.702171"><ele>760.6</ele><time>2011-04-25T07:24:50.0000000+00:00</time></trkpt><trkpt lat="22.259644" lon="103.702171"><ele>760.6</ele><time>2011-04-25T07:24:55.0000000+00:00</time></trkpt><trkpt lat="22.259644" lon="103.702171"><ele>760.6</ele><time>2011-04-25T07:25:00.0000000+00:00</time></trkpt><trkpt lat="22.259644" lon="103.702171"><ele>760.6</ele><time>2011-04-25T07:25:05.0000000+00:00</time></trkpt><trkpt lat="22.259644" lon="103.702171"><ele>760.6</ele><time>2011-04-25T07:25:10.0000000+00:00</time></trkpt><trkpt lat="22.259644" lon="103.702171"><ele>760.6</ele><time>2011-04-25T07:25:15.0000000+00:00</time></trkpt><trkpt lat="22.259644" lon="103.702171"><ele>760.6</ele><time>2011-04-25T07:25:20.0000000+00:00</time></trkpt><trkpt lat="22.259644" lon="103.702171"><ele>760.6</ele><time>2011-04-25T07:25:25.0000000+00:00</time></trkpt><trkpt lat="22.259644" lon="103.702179"><ele>760.6</ele><time>2011-04-25T07:25:30.0000000+00:00</time></trkpt><trkpt lat="22.25964" lon="103.702194"><ele>760.6</ele><time>2011-04-25T07:25:35.0000000+00:00</time></trkpt><trkpt lat="22.25964" lon="103.702194"><ele>760.7</ele><time>2011-04-25T07:25:40.0000000+00:00</time></trkpt><trkpt lat="22.25964" lon="103.702202"><ele>760.7</ele><time>2011-04-25T07:25:45.0000000+00:00</time></trkpt><trkpt lat="22.259613" lon="103.702278"><ele>760.4</ele><time>2011-04-25T07:25:50.0000000+00:00</time></trkpt><trkpt lat="22.259567" lon="103.702393"><ele>760.8</ele><time>2011-04-25T07:25:55.0000000+00:00</time></trkpt><trkpt lat="22.25952" lon="103.702515"><ele>761.5</ele><time>2011-04-25T07:26:00.0000000+00:00</time></trkpt><trkpt lat="22.259445" lon="103.702629"><ele>761.1</ele><time>2011-04-25T07:26:05.0000000+00:00</time></trkpt><trkpt lat="22.259352" lon="103.702728"><ele>760.7</ele><time>2011-04-25T07:26:10.0000000+00:00</time></trkpt><trkpt lat="22.259226" lon="103.702827"><ele>761.5</ele><time>2011-04-25T07:26:15.0000000+00:00</time></trkpt><trkpt lat="22.2591" lon="103.702904"><ele>762.3</ele><time>2011-04-25T07:26:20.0000000+00:00</time></trkpt><trkpt lat="22.258966" lon="103.702972"><ele>763.6</ele><time>2011-04-25T07:26:25.0000000+00:00</time></trkpt><trkpt lat="22.258825" lon="103.703056"><ele>764.0</ele><time>2011-04-25T07:26:30.0000000+00:00</time></trkpt><trkpt lat="22.25869" lon="103.703163"><ele>762.6</ele><time>2011-04-25T07:26:35.0000000+00:00</time></trkpt><trkpt lat="22.258558" lon="103.7033"><ele>762.5</ele><time>2011-04-25T07:26:40.0000000+00:00</time></trkpt><trkpt lat="22.258425" lon="103.703499"><ele>760.5</ele><time>2011-04-25T07:26:45.0000000+00:00</time></trkpt><trkpt lat="22.258314" lon="103.703773"><ele>758.6</ele><time>2011-04-25T07:26:50.0000000+00:00</time></trkpt><trkpt lat="22.258257" lon="103.704178"><ele>755.4</ele><time>2011-04-25T07:26:55.0000000+00:00</time></trkpt><trkpt lat="22.258263" lon="103.704659"><ele>751.8</ele><time>2011-04-25T07:27:00.0000000+00:00</time></trkpt><trkpt lat="22.258204" lon="103.7052"><ele>747.3</ele><time>2011-04-25T07:27:05.0000000+00:00</time></trkpt><trkpt lat="22.257784" lon="103.705559"><ele>746.9</ele><time>2011-04-25T07:27:10.0000000+00:00</time></trkpt><trkpt lat="22.257292" lon="103.705711"><ele>746.1</ele><time>2011-04-25T07:27:15.0000000+00:00</time></trkpt><trkpt lat="22.256828" lon="103.705803"><ele>745.7</ele><time>2011-04-25T07:27:20.0000000+00:00</time></trkpt><trkpt lat="22.256346" lon="103.705704"><ele>745.4</ele><time>2011-04-25T07:27:25.0000000+00:00</time></trkpt><trkpt lat="22.255947" lon="103.70562"><ele>744.0</ele><time>2011-04-25T07:27:30.0000000+00:00</time></trkpt><trkpt lat="22.255526" lon="103.705612"><ele>742.8</ele><time>2011-04-25T07:27:35.0000000+00:00</time></trkpt><trkpt lat="22.25514" lon="103.705856"><ele>741.4</ele><time>2011-04-25T07:27:40.0000000+00:00</time></trkpt><trkpt lat="22.254856" lon="103.706291"><ele>738.4</ele><time>2011-04-25T07:27:45.0000000+00:00</time></trkpt><trkpt lat="22.25458" lon="103.706696"><ele>736.3</ele><time>2011-04-25T07:27:50.0000000+00:00</time></trkpt><trkpt lat="22.254278" lon="103.707001"><ele>734.7</ele><time>2011-04-25T07:27:55.0000000+00:00</time></trkpt><trkpt lat="22.253937" lon="103.707268"><ele>733.2</ele><time>2011-04-25T07:28:00.0000000+00:00</time></trkpt><trkpt lat="22.253628" lon="103.70755"><ele>732.4</ele><time>2011-04-25T07:28:05.0000000+00:00</time></trkpt><trkpt lat="22.253424" lon="103.707924"><ele>728.6</ele><time>2011-04-25T07:28:10.0000000+00:00</time></trkpt><trkpt lat="22.253292" lon="103.708344"><ele>725.4</ele><time>2011-04-25T07:28:15.0000000+00:00</time></trkpt><trkpt lat="22.25318" lon="103.708694"><ele>723.6</ele><time>2011-04-25T07:28:20.0000000+00:00</time></trkpt><trkpt lat="22.253017" lon="103.708908"><ele>725.6</ele><time>2011-04-25T07:28:25.0000000+00:00</time></trkpt><trkpt lat="22.252758" lon="103.709137"><ele>728.3</ele><time>2011-04-25T07:28:30.0000000+00:00</time></trkpt><trkpt lat="22.252491" lon="103.709373"><ele>728.3</ele><time>2011-04-25T07:28:35.0000000+00:00</time></trkpt><trkpt lat="22.252214" lon="103.709595"><ele>728.6</ele><time>2011-04-25T07:28:40.0000000+00:00</time></trkpt><trkpt lat="22.251917" lon="103.709862"><ele>728.5</ele><time>2011-04-25T07:28:45.0000000+00:00</time></trkpt><trkpt lat="22.251501" lon="103.710236"><ele>727.5</ele><time>2011-04-25T07:28:50.0000000+00:00</time></trkpt><trkpt lat="22.250959" lon="103.710617"><ele>726.7</ele><time>2011-04-25T07:28:55.0000000+00:00</time></trkpt><trkpt lat="22.250519" lon="103.711014"><ele>721.0</ele><time>2011-04-25T07:29:00.0000000+00:00</time></trkpt><trkpt lat="22.250242" lon="103.711494"><ele>712.9</ele><time>2011-04-25T07:29:05.0000000+00:00</time></trkpt><trkpt lat="22.250206" lon="103.712082"><ele>705.8</ele><time>2011-04-25T07:29:10.0000000+00:00</time></trkpt><trkpt lat="22.249899" lon="103.712509"><ele>699.9</ele><time>2011-04-25T07:29:15.0000000+00:00</time></trkpt><trkpt lat="22.249403" lon="103.712852"><ele>695.8</ele><time>2011-04-25T07:29:20.0000000+00:00</time></trkpt><trkpt lat="22.248966" lon="103.713371"><ele>690.3</ele><time>2011-04-25T07:29:25.0000000+00:00</time></trkpt><trkpt lat="22.248503" lon="103.713921"><ele>685.7</ele><time>2011-04-25T07:29:30.0000000+00:00</time></trkpt><trkpt lat="22.247999" lon="103.714409"><ele>681.6</ele><time>2011-04-25T07:29:35.0000000+00:00</time></trkpt><trkpt lat="22.247623" lon="103.714912"><ele>675.8</ele><time>2011-04-25T07:29:40.0000000+00:00</time></trkpt><trkpt lat="22.247292" lon="103.715347"><ele>671.0</ele><time>2011-04-25T07:29:45.0000000+00:00</time></trkpt><trkpt lat="22.246813" lon="103.715637"><ele>667.2</ele><time>2011-04-25T07:29:50.0000000+00:00</time></trkpt><trkpt lat="22.246296" lon="103.715919"><ele>663.7</ele><time>2011-04-25T07:29:55.0000000+00:00</time></trkpt><trkpt lat="22.245756" lon="103.716248"><ele>659.3</ele><time>2011-04-25T07:30:00.0000000+00:00</time></trkpt><trkpt lat="22.245487" lon="103.716614"><ele>658.1</ele><time>2011-04-25T07:30:05.0000000+00:00</time></trkpt><trkpt lat="22.245409" lon="103.716743"><ele>656.9</ele><time>2011-04-25T07:30:10.0000000+00:00</time></trkpt><trkpt lat="22.245378" lon="103.716774"><ele>657.3</ele><time>2011-04-25T07:30:15.0000000+00:00</time></trkpt><trkpt lat="22.245375" lon="103.716774"><ele>657.0</ele><time>2011-04-25T07:30:20.0000000+00:00</time></trkpt><trkpt lat="22.245377" lon="103.716774"><ele>656.8</ele><time>2011-04-25T07:30:25.0000000+00:00</time></trkpt><trkpt lat="22.245375" lon="103.716782"><ele>656.7</ele><time>2011-04-25T07:30:30.0000000+00:00</time></trkpt><trkpt lat="22.245375" lon="103.716782"><ele>656.7</ele><time>2011-04-25T07:30:35.0000000+00:00</time></trkpt><trkpt lat="22.245375" lon="103.716782"><ele>656.7</ele><time>2011-04-25T07:30:40.0000000+00:00</time></trkpt><trkpt lat="22.245375" lon="103.716782"><ele>656.7</ele><time>2011-04-25T07:30:45.0000000+00:00</time></trkpt><trkpt lat="22.245375" lon="103.716782"><ele>656.7</ele><time>2011-04-25T07:30:50.0000000+00:00</time></trkpt><trkpt lat="22.245375" lon="103.716782"><ele>656.7</ele><time>2011-04-25T07:30:55.0000000+00:00</time></trkpt><trkpt lat="22.245375" lon="103.716782"><ele>656.7</ele><time>2011-04-25T07:31:00.0000000+00:00</time></trkpt><trkpt lat="22.245373" lon="103.716782"><ele>656.7</ele><time>2011-04-25T07:31:05.0000000+00:00</time></trkpt><trkpt lat="22.245373" lon="103.716782"><ele>656.7</ele><time>2011-04-25T07:31:10.0000000+00:00</time></trkpt><trkpt lat="22.245373" lon="103.716782"><ele>656.7</ele><time>2011-04-25T07:31:15.0000000+00:00</time></trkpt><trkpt lat="22.245373" lon="103.716782"><ele>656.7</ele><time>2011-04-25T07:31:20.0000000+00:00</time></trkpt><trkpt lat="22.245373" lon="103.716782"><ele>656.7</ele><time>2011-04-25T07:31:25.0000000+00:00</time></trkpt><trkpt lat="22.245373" lon="103.716782"><ele>656.7</ele><time>2011-04-25T07:31:30.0000000+00:00</time></trkpt><trkpt lat="22.245373" lon="103.716782"><ele>656.7</ele><time>2011-04-25T07:31:35.0000000+00:00</time></trkpt><trkpt lat="22.245373" lon="103.716782"><ele>656.7</ele><time>2011-04-25T07:31:40.0000000+00:00</time></trkpt><trkpt lat="22.245373" lon="103.716782"><ele>656.7</ele><time>2011-04-25T07:31:45.0000000+00:00</time></trkpt><trkpt lat="22.245371" lon="103.716782"><ele>656.7</ele><time>2011-04-25T07:31:50.0000000+00:00</time></trkpt><trkpt lat="22.245344" lon="103.71682"><ele>656.9</ele><time>2011-04-25T07:31:55.0000000+00:00</time></trkpt><trkpt lat="22.245203" lon="103.717072"><ele>656.6</ele><time>2011-04-25T07:32:00.0000000+00:00</time></trkpt><trkpt lat="22.244984" lon="103.717468"><ele>652.1</ele><time>2011-04-25T07:32:05.0000000+00:00</time></trkpt><trkpt lat="22.244699" lon="103.717979"><ele>648.1</ele><time>2011-04-25T07:32:10.0000000+00:00</time></trkpt><trkpt lat="22.244337" lon="103.718483"><ele>644.0</ele><time>2011-04-25T07:32:15.0000000+00:00</time></trkpt><trkpt lat="22.243914" lon="103.718864"><ele>639.7</ele><time>2011-04-25T07:32:20.0000000+00:00</time></trkpt><trkpt lat="22.243374" lon="103.719147"><ele>636.1</ele><time>2011-04-25T07:32:25.0000000+00:00</time></trkpt><trkpt lat="22.242853" lon="103.719513"><ele>632.1</ele><time>2011-04-25T07:32:30.0000000+00:00</time></trkpt><trkpt lat="22.24231" lon="103.719925"><ele>627.8</ele><time>2011-04-25T07:32:35.0000000+00:00</time></trkpt><trkpt lat="22.241863" lon="103.72036"><ele>623.0</ele><time>2011-04-25T07:32:40.0000000+00:00</time></trkpt><trkpt lat="22.24173" lon="103.720871"><ele>621.9</ele><time>2011-04-25T07:32:45.0000000+00:00</time></trkpt><trkpt lat="22.241627" lon="103.721321"><ele>621.4</ele><time>2011-04-25T07:32:50.0000000+00:00</time></trkpt><trkpt lat="22.241499" lon="103.721695"><ele>620.7</ele><time>2011-04-25T07:32:55.0000000+00:00</time></trkpt><trkpt lat="22.241207" lon="103.722"><ele>620.6</ele><time>2011-04-25T07:33:00.0000000+00:00</time></trkpt><trkpt lat="22.240763" lon="103.722229"><ele>620.9</ele><time>2011-04-25T07:33:05.0000000+00:00</time></trkpt><trkpt lat="22.240269" lon="103.72226"><ele>621.2</ele><time>2011-04-25T07:33:10.0000000+00:00</time></trkpt><trkpt lat="22.23979" lon="103.722168"><ele>621.3</ele><time>2011-04-25T07:33:15.0000000+00:00</time></trkpt><trkpt lat="22.239342" lon="103.722031"><ele>621.4</ele><time>2011-04-25T07:33:20.0000000+00:00</time></trkpt><trkpt lat="22.238918" lon="103.721825"><ele>620.8</ele><time>2011-04-25T07:33:25.0000000+00:00</time></trkpt><trkpt lat="22.238495" lon="103.721573"><ele>618.9</ele><time>2011-04-25T07:33:30.0000000+00:00</time></trkpt><trkpt lat="22.238081" lon="103.721329"><ele>617.6</ele><time>2011-04-25T07:33:35.0000000+00:00</time></trkpt><trkpt lat="22.237665" lon="103.721115"><ele>616.1</ele><time>2011-04-25T07:33:40.0000000+00:00</time></trkpt><trkpt lat="22.237226" lon="103.720924"><ele>613.2</ele><time>2011-04-25T07:33:45.0000000+00:00</time></trkpt><trkpt lat="22.23678" lon="103.720772"><ele>610.8</ele><time>2011-04-25T07:33:50.0000000+00:00</time></trkpt><trkpt lat="22.236361" lon="103.720642"><ele>608.8</ele><time>2011-04-25T07:33:55.0000000+00:00</time></trkpt><trkpt lat="22.23597" lon="103.72049"><ele>607.3</ele><time>2011-04-25T07:34:00.0000000+00:00</time></trkpt><trkpt lat="22.235565" lon="103.720314"><ele>605.9</ele><time>2011-04-25T07:34:05.0000000+00:00</time></trkpt><trkpt lat="22.235147" lon="103.720177"><ele>603.5</ele><time>2011-04-25T07:34:10.0000000+00:00</time></trkpt><trkpt lat="22.234676" lon="103.720268"><ele>604.2</ele><time>2011-04-25T07:34:15.0000000+00:00</time></trkpt><trkpt lat="22.234262" lon="103.72049"><ele>603.6</ele><time>2011-04-25T07:34:20.0000000+00:00</time></trkpt><trkpt lat="22.233824" lon="103.72068"><ele>603.1</ele><time>2011-04-25T07:34:25.0000000+00:00</time></trkpt><trkpt lat="22.233362" lon="103.720749"><ele>603.4</ele><time>2011-04-25T07:34:30.0000000+00:00</time></trkpt><trkpt lat="22.232922" lon="103.720741"><ele>602.9</ele><time>2011-04-25T07:34:35.0000000+00:00</time></trkpt><trkpt lat="22.232466" lon="103.72081"><ele>604.1</ele><time>2011-04-25T07:34:40.0000000+00:00</time></trkpt><trkpt lat="22.231983" lon="103.720894"><ele>603.5</ele><time>2011-04-25T07:34:45.0000000+00:00</time></trkpt><trkpt lat="22.231535" lon="103.720955"><ele>602.8</ele><time>2011-04-25T07:34:50.0000000+00:00</time></trkpt><trkpt lat="22.231096" lon="103.721046"><ele>603.1</ele><time>2011-04-25T07:34:55.0000000+00:00</time></trkpt><trkpt lat="22.230665" lon="103.721138"><ele>604.8</ele><time>2011-04-25T07:35:00.0000000+00:00</time></trkpt><trkpt lat="22.230274" lon="103.721214"><ele>605.5</ele><time>2011-04-25T07:35:05.0000000+00:00</time></trkpt><trkpt lat="22.229877" lon="103.721298"><ele>605.3</ele><time>2011-04-25T07:35:10.0000000+00:00</time></trkpt><trkpt lat="22.229471" lon="103.721405"><ele>605.2</ele><time>2011-04-25T07:35:15.0000000+00:00</time></trkpt><trkpt lat="22.22908" lon="103.721489"><ele>605.4</ele><time>2011-04-25T07:35:20.0000000+00:00</time></trkpt><trkpt lat="22.228706" lon="103.721535"><ele>605.6</ele><time>2011-04-25T07:35:25.0000000+00:00</time></trkpt><trkpt lat="22.22834" lon="103.721527"><ele>607.6</ele><time>2011-04-25T07:35:30.0000000+00:00</time></trkpt><trkpt lat="22.228014" lon="103.721588"><ele>606.4</ele><time>2011-04-25T07:35:35.0000000+00:00</time></trkpt><trkpt lat="22.227825" lon="103.721695"><ele>602.7</ele><time>2011-04-25T07:35:40.0000000+00:00</time></trkpt><trkpt lat="22.227753" lon="103.721786"><ele>591.5</ele><time>2011-04-25T07:35:45.0000000+00:00</time></trkpt><trkpt lat="22.227724" lon="103.721909"><ele>585.0</ele><time>2011-04-25T07:35:50.0000000+00:00</time></trkpt><trkpt lat="22.227699" lon="103.722076"><ele>582.6</ele><time>2011-04-25T07:35:55.0000000+00:00</time></trkpt><trkpt lat="22.227701" lon="103.722336"><ele>580.4</ele><time>2011-04-25T07:36:00.0000000+00:00</time></trkpt><trkpt lat="22.227716" lon="103.722557"><ele>580.2</ele><time>2011-04-25T07:36:05.0000000+00:00</time></trkpt><trkpt lat="22.227671" lon="103.722717"><ele>580.5</ele><time>2011-04-25T07:36:10.0000000+00:00</time></trkpt><trkpt lat="22.227604" lon="103.722878"><ele>580.9</ele><time>2011-04-25T07:36:15.0000000+00:00</time></trkpt><trkpt lat="22.227512" lon="103.723076"><ele>582.2</ele><time>2011-04-25T07:36:20.0000000+00:00</time></trkpt><trkpt lat="22.227425" lon="103.723251"><ele>582.8</ele><time>2011-04-25T07:36:25.0000000+00:00</time></trkpt><trkpt lat="22.227346" lon="103.723442"><ele>581.6</ele><time>2011-04-25T07:36:30.0000000+00:00</time></trkpt><trkpt lat="22.227253" lon="103.723564"><ele>582.3</ele><time>2011-04-25T07:36:35.0000000+00:00</time></trkpt><trkpt lat="22.227198" lon="103.72364"><ele>583.3</ele><time>2011-04-25T07:36:40.0000000+00:00</time></trkpt><trkpt lat="22.227161" lon="103.723763"><ele>584.8</ele><time>2011-04-25T07:36:45.0000000+00:00</time></trkpt><trkpt lat="22.2271" lon="103.723862"><ele>586.2</ele><time>2011-04-25T07:36:50.0000000+00:00</time></trkpt><trkpt lat="22.227041" lon="103.724045"><ele>586.5</ele><time>2011-04-25T07:36:55.0000000+00:00</time></trkpt><trkpt lat="22.227032" lon="103.724228"><ele>586.2</ele><time>2011-04-25T07:37:00.0000000+00:00</time></trkpt><trkpt lat="22.227037" lon="103.72438"><ele>587.1</ele><time>2011-04-25T07:37:05.0000000+00:00</time></trkpt><trkpt lat="22.227045" lon="103.724503"><ele>586.0</ele><time>2011-04-25T07:37:10.0000000+00:00</time></trkpt><trkpt lat="22.227064" lon="103.72464"><ele>584.3</ele><time>2011-04-25T07:37:15.0000000+00:00</time></trkpt><trkpt lat="22.227062" lon="103.724785"><ele>583.7</ele><time>2011-04-25T07:37:20.0000000+00:00</time></trkpt><trkpt lat="22.227072" lon="103.724937"><ele>584.0</ele><time>2011-04-25T07:37:25.0000000+00:00</time></trkpt><trkpt lat="22.227093" lon="103.725098"><ele>582.9</ele><time>2011-04-25T07:37:30.0000000+00:00</time></trkpt><trkpt lat="22.227097" lon="103.72525"><ele>583.0</ele><time>2011-04-25T07:37:35.0000000+00:00</time></trkpt><trkpt lat="22.227121" lon="103.725395"><ele>584.5</ele><time>2011-04-25T07:37:40.0000000+00:00</time></trkpt><trkpt lat="22.227123" lon="103.725517"><ele>585.7</ele><time>2011-04-25T07:37:45.0000000+00:00</time></trkpt><trkpt lat="22.227127" lon="103.725662"><ele>587.4</ele><time>2011-04-25T07:37:50.0000000+00:00</time></trkpt><trkpt lat="22.227116" lon="103.725777"><ele>587.3</ele><time>2011-04-25T07:37:55.0000000+00:00</time></trkpt><trkpt lat="22.227123" lon="103.725883"><ele>588.1</ele><time>2011-04-25T07:38:00.0000000+00:00</time></trkpt><trkpt lat="22.227123" lon="103.726013"><ele>586.2</ele><time>2011-04-25T07:38:05.0000000+00:00</time></trkpt><trkpt lat="22.227133" lon="103.726135"><ele>584.8</ele><time>2011-04-25T07:38:10.0000000+00:00</time></trkpt><trkpt lat="22.227137" lon="103.726257"><ele>584.3</ele><time>2011-04-25T07:38:15.0000000+00:00</time></trkpt><trkpt lat="22.227127" lon="103.726379"><ele>585.4</ele><time>2011-04-25T07:38:20.0000000+00:00</time></trkpt><trkpt lat="22.227116" lon="103.726479"><ele>589.1</ele><time>2011-04-25T07:38:25.0000000+00:00</time></trkpt><trkpt lat="22.227127" lon="103.726593"><ele>591.1</ele><time>2011-04-25T07:38:30.0000000+00:00</time></trkpt><trkpt lat="22.227131" lon="103.726707"><ele>590.0</ele><time>2011-04-25T07:38:35.0000000+00:00</time></trkpt><trkpt lat="22.227161" lon="103.72683"><ele>592.1</ele><time>2011-04-25T07:38:40.0000000+00:00</time></trkpt><trkpt lat="22.227173" lon="103.726952"><ele>595.1</ele><time>2011-04-25T07:38:45.0000000+00:00</time></trkpt><trkpt lat="22.227161" lon="103.727074"><ele>595.5</ele><time>2011-04-25T07:38:50.0000000+00:00</time></trkpt><trkpt lat="22.227167" lon="103.727219"><ele>595.1</ele><time>2011-04-25T07:38:55.0000000+00:00</time></trkpt><trkpt lat="22.227163" lon="103.727348"><ele>595.4</ele><time>2011-04-25T07:39:00.0000000+00:00</time></trkpt><trkpt lat="22.227167" lon="103.727463"><ele>594.3</ele><time>2011-04-25T07:39:05.0000000+00:00</time></trkpt><trkpt lat="22.227171" lon="103.727577"><ele>594.1</ele><time>2011-04-25T07:39:10.0000000+00:00</time></trkpt><trkpt lat="22.227186" lon="103.727699"><ele>594.0</ele><time>2011-04-25T07:39:15.0000000+00:00</time></trkpt><trkpt lat="22.227173" lon="103.727821"><ele>593.0</ele><time>2011-04-25T07:39:20.0000000+00:00</time></trkpt><trkpt lat="22.227139" lon="103.727951"><ele>592.8</ele><time>2011-04-25T07:39:25.0000000+00:00</time></trkpt><trkpt lat="22.227085" lon="103.728073"><ele>592.7</ele><time>2011-04-25T07:39:30.0000000+00:00</time></trkpt><trkpt lat="22.227037" lon="103.728188"><ele>593.4</ele><time>2011-04-25T07:39:35.0000000+00:00</time></trkpt><trkpt lat="22.226986" lon="103.72831"><ele>595.0</ele><time>2011-04-25T07:39:40.0000000+00:00</time></trkpt><trkpt lat="22.226946" lon="103.728424"><ele>595.8</ele><time>2011-04-25T07:39:45.0000000+00:00</time></trkpt><trkpt lat="22.226908" lon="103.728539"><ele>596.9</ele><time>2011-04-25T07:39:50.0000000+00:00</time></trkpt><trkpt lat="22.226881" lon="103.728653"><ele>597.6</ele><time>2011-04-25T07:39:55.0000000+00:00</time></trkpt><trkpt lat="22.226847" lon="103.72876"><ele>598.3</ele><time>2011-04-25T07:40:00.0000000+00:00</time></trkpt><trkpt lat="22.22683" lon="103.728889"><ele>598.9</ele><time>2011-04-25T07:40:05.0000000+00:00</time></trkpt><trkpt lat="22.226782" lon="103.729057"><ele>599.5</ele><time>2011-04-25T07:40:10.0000000+00:00</time></trkpt><trkpt lat="22.226748" lon="103.729218"><ele>603.7</ele><time>2011-04-25T07:40:15.0000000+00:00</time></trkpt><trkpt lat="22.226685" lon="103.729362"><ele>604.7</ele><time>2011-04-25T07:40:20.0000000+00:00</time></trkpt><trkpt lat="22.22661" lon="103.7295"><ele>606.4</ele><time>2011-04-25T07:40:25.0000000+00:00</time></trkpt><trkpt lat="22.226553" lon="103.729591"><ele>607.5</ele><time>2011-04-25T07:40:30.0000000+00:00</time></trkpt><trkpt lat="22.226498" lon="103.729691"><ele>608.7</ele><time>2011-04-25T07:40:35.0000000+00:00</time></trkpt><trkpt lat="22.226568" lon="103.729935"><ele>616.4</ele><time>2011-04-25T07:40:40.0000000+00:00</time></trkpt><trkpt lat="22.22654" lon="103.730042"><ele>619.5</ele><time>2011-04-25T07:40:45.0000000+00:00</time></trkpt><trkpt lat="22.226486" lon="103.730148"><ele>620.6</ele><time>2011-04-25T07:40:50.0000000+00:00</time></trkpt><trkpt lat="22.226389" lon="103.73027"><ele>620.3</ele><time>2011-04-25T07:40:55.0000000+00:00</time></trkpt><trkpt lat="22.226286" lon="103.730354"><ele>619.7</ele><time>2011-04-25T07:41:00.0000000+00:00</time></trkpt><trkpt lat="22.226212" lon="103.730423"><ele>620.5</ele><time>2011-04-25T07:41:05.0000000+00:00</time></trkpt><trkpt lat="22.22616" lon="103.730476"><ele>621.6</ele><time>2011-04-25T07:41:10.0000000+00:00</time></trkpt><trkpt lat="22.226099" lon="103.730583"><ele>620.3</ele><time>2011-04-25T07:41:15.0000000+00:00</time></trkpt><trkpt lat="22.226042" lon="103.730713"><ele>618.1</ele><time>2011-04-25T07:41:20.0000000+00:00</time></trkpt><trkpt lat="22.225986" lon="103.730827"><ele>617.9</ele><time>2011-04-25T07:41:25.0000000+00:00</time></trkpt><trkpt lat="22.225918" lon="103.730949"><ele>617.7</ele><time>2011-04-25T07:41:30.0000000+00:00</time></trkpt><trkpt lat="22.225849" lon="103.731094"><ele>616.6</ele><time>2011-04-25T07:41:35.0000000+00:00</time></trkpt><trkpt lat="22.225792" lon="103.731224"><ele>616.7</ele><time>2011-04-25T07:41:40.0000000+00:00</time></trkpt><trkpt lat="22.225737" lon="103.731354"><ele>615.6</ele><time>2011-04-25T07:41:45.0000000+00:00</time></trkpt><trkpt lat="22.225716" lon="103.731499"><ele>614.6</ele><time>2011-04-25T07:41:50.0000000+00:00</time></trkpt><trkpt lat="22.225685" lon="103.731659"><ele>614.1</ele><time>2011-04-25T07:41:55.0000000+00:00</time></trkpt><trkpt lat="22.225666" lon="103.731842"><ele>613.0</ele><time>2011-04-25T07:42:00.0000000+00:00</time></trkpt><trkpt lat="22.22566" lon="103.731979"><ele>611.6</ele><time>2011-04-25T07:42:05.0000000+00:00</time></trkpt><trkpt lat="22.225653" lon="103.732056"><ele>611.5</ele><time>2011-04-25T07:42:10.0000000+00:00</time></trkpt><trkpt lat="22.225658" lon="103.732079"><ele>612.4</ele><time>2011-04-25T07:42:15.0000000+00:00</time></trkpt><trkpt lat="22.225658" lon="103.732079"><ele>612.4</ele><time>2011-04-25T07:42:20.0000000+00:00</time></trkpt><trkpt lat="22.22566" lon="103.732079"><ele>612.4</ele><time>2011-04-25T07:42:25.0000000+00:00</time></trkpt><trkpt lat="22.22566" lon="103.732079"><ele>612.5</ele><time>2011-04-25T07:42:30.0000000+00:00</time></trkpt><trkpt lat="22.22566" lon="103.732086"><ele>612.6</ele><time>2011-04-25T07:42:35.0000000+00:00</time></trkpt><trkpt lat="22.225658" lon="103.732086"><ele>612.6</ele><time>2011-04-25T07:42:40.0000000+00:00</time></trkpt><trkpt lat="22.225657" lon="103.732086"><ele>612.8</ele><time>2011-04-25T07:42:45.0000000+00:00</time></trkpt><trkpt lat="22.225655" lon="103.732086"><ele>612.8</ele><time>2011-04-25T07:42:50.0000000+00:00</time></trkpt><trkpt lat="22.225655" lon="103.732086"><ele>612.8</ele><time>2011-04-25T07:42:55.0000000+00:00</time></trkpt><trkpt lat="22.225655" lon="103.732086"><ele>612.8</ele><time>2011-04-25T07:43:00.0000000+00:00</time></trkpt><trkpt lat="22.225655" lon="103.732086"><ele>612.8</ele><time>2011-04-25T07:43:05.0000000+00:00</time></trkpt><trkpt lat="22.225655" lon="103.732086"><ele>612.8</ele><time>2011-04-25T07:43:10.0000000+00:00</time></trkpt><trkpt lat="22.225655" lon="103.732086"><ele>612.8</ele><time>2011-04-25T07:43:15.0000000+00:00</time></trkpt><trkpt lat="22.225655" lon="103.732086"><ele>612.8</ele><time>2011-04-25T07:43:20.0000000+00:00</time></trkpt><trkpt lat="22.225653" lon="103.732086"><ele>612.8</ele><time>2011-04-25T07:43:25.0000000+00:00</time></trkpt><trkpt lat="22.225653" lon="103.732086"><ele>612.8</ele><time>2011-04-25T07:43:30.0000000+00:00</time></trkpt><trkpt lat="22.225653" lon="103.732086"><ele>612.9</ele><time>2011-04-25T07:43:35.0000000+00:00</time></trkpt><trkpt lat="22.225651" lon="103.732086"><ele>612.9</ele><time>2011-04-25T07:43:40.0000000+00:00</time></trkpt><trkpt lat="22.225655" lon="103.732094"><ele>612.8</ele><time>2011-04-25T07:43:45.0000000+00:00</time></trkpt><trkpt lat="22.225653" lon="103.732094"><ele>612.8</ele><time>2011-04-25T07:43:50.0000000+00:00</time></trkpt><trkpt lat="22.225653" lon="103.732094"><ele>612.8</ele><time>2011-04-25T07:43:55.0000000+00:00</time></trkpt><trkpt lat="22.225653" lon="103.732094"><ele>612.8</ele><time>2011-04-25T07:44:00.0000000+00:00</time></trkpt><trkpt lat="22.225653" lon="103.732094"><ele>612.8</ele><time>2011-04-25T07:44:05.0000000+00:00</time></trkpt><trkpt lat="22.225653" lon="103.732094"><ele>612.8</ele><time>2011-04-25T07:44:10.0000000+00:00</time></trkpt><trkpt lat="22.225653" lon="103.732094"><ele>612.8</ele><time>2011-04-25T07:44:15.0000000+00:00</time></trkpt><trkpt lat="22.225653" lon="103.732094"><ele>612.8</ele><time>2011-04-25T07:44:20.0000000+00:00</time></trkpt><trkpt lat="22.225653" lon="103.732094"><ele>612.8</ele><time>2011-04-25T07:44:25.0000000+00:00</time></trkpt><trkpt lat="22.225653" lon="103.732094"><ele>612.8</ele><time>2011-04-25T07:44:30.0000000+00:00</time></trkpt><trkpt lat="22.225653" lon="103.732094"><ele>612.8</ele><time>2011-04-25T07:44:35.0000000+00:00</time></trkpt><trkpt lat="22.225653" lon="103.732094"><ele>612.8</ele><time>2011-04-25T07:44:40.0000000+00:00</time></trkpt><trkpt lat="22.225653" lon="103.732094"><ele>612.8</ele><time>2011-04-25T07:44:45.0000000+00:00</time></trkpt><trkpt lat="22.225653" lon="103.732094"><ele>612.8</ele><time>2011-04-25T07:44:50.0000000+00:00</time></trkpt><trkpt lat="22.225653" lon="103.732094"><ele>612.8</ele><time>2011-04-25T07:44:55.0000000+00:00</time></trkpt><trkpt lat="22.225651" lon="103.732094"><ele>612.8</ele><time>2011-04-25T07:45:00.0000000+00:00</time></trkpt><trkpt lat="22.225651" lon="103.732094"><ele>612.9</ele><time>2011-04-25T07:45:05.0000000+00:00</time></trkpt><trkpt lat="22.225651" lon="103.732094"><ele>612.9</ele><time>2011-04-25T07:45:10.0000000+00:00</time></trkpt><trkpt lat="22.225651" lon="103.732094"><ele>612.9</ele><time>2011-04-25T07:45:15.0000000+00:00</time></trkpt><trkpt lat="22.225651" lon="103.732094"><ele>612.9</ele><time>2011-04-25T07:45:20.0000000+00:00</time></trkpt><trkpt lat="22.225651" lon="103.732094"><ele>612.9</ele><time>2011-04-25T07:45:25.0000000+00:00</time></trkpt><trkpt lat="22.225651" lon="103.732094"><ele>612.9</ele><time>2011-04-25T07:45:30.0000000+00:00</time></trkpt><trkpt lat="22.225651" lon="103.732094"><ele>612.9</ele><time>2011-04-25T07:45:35.0000000+00:00</time></trkpt><trkpt lat="22.225649" lon="103.732094"><ele>612.9</ele><time>2011-04-25T07:45:40.0000000+00:00</time></trkpt><trkpt lat="22.225649" lon="103.732094"><ele>612.9</ele><time>2011-04-25T07:45:45.0000000+00:00</time></trkpt><trkpt lat="22.225649" lon="103.732094"><ele>612.9</ele><time>2011-04-25T07:45:50.0000000+00:00</time></trkpt><trkpt lat="22.225649" lon="103.732094"><ele>612.9</ele><time>2011-04-25T07:45:55.0000000+00:00</time></trkpt><trkpt lat="22.225649" lon="103.732094"><ele>612.9</ele><time>2011-04-25T07:46:00.0000000+00:00</time></trkpt><trkpt lat="22.225649" lon="103.732094"><ele>612.9</ele><time>2011-04-25T07:46:05.0000000+00:00</time></trkpt><trkpt lat="22.225649" lon="103.732094"><ele>612.9</ele><time>2011-04-25T07:46:10.0000000+00:00</time></trkpt><trkpt lat="22.225649" lon="103.732094"><ele>612.9</ele><time>2011-04-25T07:46:15.0000000+00:00</time></trkpt><trkpt lat="22.225649" lon="103.732094"><ele>612.9</ele><time>2011-04-25T07:46:20.0000000+00:00</time></trkpt><trkpt lat="22.225649" lon="103.732094"><ele>612.9</ele><time>2011-04-25T07:46:25.0000000+00:00</time></trkpt><trkpt lat="22.225649" lon="103.732094"><ele>612.9</ele><time>2011-04-25T07:46:30.0000000+00:00</time></trkpt><trkpt lat="22.225649" lon="103.732094"><ele>612.9</ele><time>2011-04-25T07:46:35.0000000+00:00</time></trkpt><trkpt lat="22.225649" lon="103.732094"><ele>612.9</ele><time>2011-04-25T07:46:40.0000000+00:00</time></trkpt><trkpt lat="22.225649" lon="103.732094"><ele>612.9</ele><time>2011-04-25T07:46:45.0000000+00:00</time></trkpt><trkpt lat="22.225653" lon="103.732101"><ele>612.9</ele><time>2011-04-25T07:46:50.0000000+00:00</time></trkpt><trkpt lat="22.225643" lon="103.732262"><ele>612.4</ele><time>2011-04-25T07:46:55.0000000+00:00</time></trkpt><trkpt lat="22.225603" lon="103.732445"><ele>612.0</ele><time>2011-04-25T07:47:00.0000000+00:00</time></trkpt><trkpt lat="22.225517" lon="103.732643"><ele>612.0</ele><time>2011-04-25T07:47:05.0000000+00:00</time></trkpt><trkpt lat="22.225416" lon="103.732796"><ele>612.6</ele><time>2011-04-25T07:47:10.0000000+00:00</time></trkpt><trkpt lat="22.225298" lon="103.732925"><ele>612.1</ele><time>2011-04-25T07:47:15.0000000+00:00</time></trkpt><trkpt lat="22.225161" lon="103.733078"><ele>612.5</ele><time>2011-04-25T07:47:20.0000000+00:00</time></trkpt><trkpt lat="22.225065" lon="103.7332"><ele>613.2</ele><time>2011-04-25T07:47:25.0000000+00:00</time></trkpt><trkpt lat="22.224964" lon="103.73333"><ele>613.0</ele><time>2011-04-25T07:47:30.0000000+00:00</time></trkpt><trkpt lat="22.224873" lon="103.733444"><ele>612.9</ele><time>2011-04-25T07:47:35.0000000+00:00</time></trkpt><trkpt lat="22.224766" lon="103.733597"><ele>612.5</ele><time>2011-04-25T07:47:40.0000000+00:00</time></trkpt><trkpt lat="22.224651" lon="103.733765"><ele>611.8</ele><time>2011-04-25T07:47:45.0000000+00:00</time></trkpt><trkpt lat="22.224529" lon="103.733932"><ele>612.8</ele><time>2011-04-25T07:47:50.0000000+00:00</time></trkpt><trkpt lat="22.224388" lon="103.734138"><ele>611.9</ele><time>2011-04-25T07:47:55.0000000+00:00</time></trkpt><trkpt lat="22.224234" lon="103.734375"><ele>611.8</ele><time>2011-04-25T07:48:00.0000000+00:00</time></trkpt><trkpt lat="22.224089" lon="103.734589"><ele>611.6</ele><time>2011-04-25T07:48:05.0000000+00:00</time></trkpt><trkpt lat="22.223957" lon="103.734795"><ele>611.1</ele><time>2011-04-25T07:48:10.0000000+00:00</time></trkpt><trkpt lat="22.223829" lon="103.73497"><ele>611.5</ele><time>2011-04-25T07:48:15.0000000+00:00</time></trkpt><trkpt lat="22.223724" lon="103.735107"><ele>612.7</ele><time>2011-04-25T07:48:20.0000000+00:00</time></trkpt><trkpt lat="22.223644" lon="103.735214"><ele>613.9</ele><time>2011-04-25T07:48:25.0000000+00:00</time></trkpt><trkpt lat="22.223576" lon="103.735359"><ele>612.2</ele><time>2011-04-25T07:48:30.0000000+00:00</time></trkpt><trkpt lat="22.223543" lon="103.735527"><ele>612.0</ele><time>2011-04-25T07:48:35.0000000+00:00</time></trkpt><trkpt lat="22.223534" lon="103.735664"><ele>610.7</ele><time>2011-04-25T07:48:40.0000000+00:00</time></trkpt><trkpt lat="22.223522" lon="103.735825"><ele>609.6</ele><time>2011-04-25T07:48:45.0000000+00:00</time></trkpt><trkpt lat="22.223551" lon="103.736031"><ele>610.5</ele><time>2011-04-25T07:48:50.0000000+00:00</time></trkpt><trkpt lat="22.223572" lon="103.736221"><ele>611.6</ele><time>2011-04-25T07:48:55.0000000+00:00</time></trkpt><trkpt lat="22.223558" lon="103.736435"><ele>613.1</ele><time>2011-04-25T07:49:00.0000000+00:00</time></trkpt><trkpt lat="22.223475" lon="103.736679"><ele>614.9</ele><time>2011-04-25T07:49:05.0000000+00:00</time></trkpt><trkpt lat="22.223345" lon="103.736893"><ele>617.5</ele><time>2011-04-25T07:49:10.0000000+00:00</time></trkpt><trkpt lat="22.223215" lon="103.737083"><ele>619.2</ele><time>2011-04-25T07:49:15.0000000+00:00</time></trkpt><trkpt lat="22.223114" lon="103.737251"><ele>619.5</ele><time>2011-04-25T07:49:20.0000000+00:00</time></trkpt><trkpt lat="22.223038" lon="103.737358"><ele>619.2</ele><time>2011-04-25T07:49:25.0000000+00:00</time></trkpt><trkpt lat="22.222954" lon="103.73748"><ele>620.2</ele><time>2011-04-25T07:49:30.0000000+00:00</time></trkpt><trkpt lat="22.222862" lon="103.737625"><ele>622.4</ele><time>2011-04-25T07:49:35.0000000+00:00</time></trkpt><trkpt lat="22.222784" lon="103.737747"><ele>623.2</ele><time>2011-04-25T07:49:40.0000000+00:00</time></trkpt><trkpt lat="22.222706" lon="103.737846"><ele>624.4</ele><time>2011-04-25T07:49:45.0000000+00:00</time></trkpt><trkpt lat="22.222649" lon="103.737953"><ele>624.1</ele><time>2011-04-25T07:49:50.0000000+00:00</time></trkpt><trkpt lat="22.222593" lon="103.738075"><ele>623.7</ele><time>2011-04-25T07:49:55.0000000+00:00</time></trkpt><trkpt lat="22.222536" lon="103.738182"><ele>623.9</ele><time>2011-04-25T07:50:00.0000000+00:00</time></trkpt><trkpt lat="22.222475" lon="103.738281"><ele>625.5</ele><time>2011-04-25T07:50:05.0000000+00:00</time></trkpt><trkpt lat="22.222408" lon="103.73838"><ele>626.2</ele><time>2011-04-25T07:50:10.0000000+00:00</time></trkpt><trkpt lat="22.222336" lon="103.738472"><ele>626.9</ele><time>2011-04-25T07:50:15.0000000+00:00</time></trkpt><trkpt lat="22.222267" lon="103.738571"><ele>625.6</ele><time>2011-04-25T07:50:20.0000000+00:00</time></trkpt><trkpt lat="22.222197" lon="103.73867"><ele>626.4</ele><time>2011-04-25T07:50:25.0000000+00:00</time></trkpt><trkpt lat="22.222113" lon="103.738777"><ele>626.5</ele><time>2011-04-25T07:50:30.0000000+00:00</time></trkpt><trkpt lat="22.222017" lon="103.738884"><ele>628.7</ele><time>2011-04-25T07:50:35.0000000+00:00</time></trkpt><trkpt lat="22.221931" lon="103.738998"><ele>629.8</ele><time>2011-04-25T07:50:40.0000000+00:00</time></trkpt><trkpt lat="22.221861" lon="103.73909"><ele>629.7</ele><time>2011-04-25T07:50:45.0000000+00:00</time></trkpt><trkpt lat="22.221785" lon="103.739189"><ele>630.2</ele><time>2011-04-25T07:50:50.0000000+00:00</time></trkpt><trkpt lat="22.221718" lon="103.739288"><ele>630.5</ele><time>2011-04-25T07:50:55.0000000+00:00</time></trkpt><trkpt lat="22.221655" lon="103.739388"><ele>631.4</ele><time>2011-04-25T07:51:00.0000000+00:00</time></trkpt><trkpt lat="22.221588" lon="103.739487"><ele>631.7</ele><time>2011-04-25T07:51:05.0000000+00:00</time></trkpt><trkpt lat="22.221529" lon="103.739578"><ele>632.3</ele><time>2011-04-25T07:51:10.0000000+00:00</time></trkpt><trkpt lat="22.221476" lon="103.739677"><ele>633.3</ele><time>2011-04-25T07:51:15.0000000+00:00</time></trkpt><trkpt lat="22.221428" lon="103.739784"><ele>633.9</ele><time>2011-04-25T07:51:20.0000000+00:00</time></trkpt><trkpt lat="22.221375" lon="103.739891"><ele>634.8</ele><time>2011-04-25T07:51:25.0000000+00:00</time></trkpt><trkpt lat="22.221331" lon="103.740005"><ele>635.6</ele><time>2011-04-25T07:51:30.0000000+00:00</time></trkpt><trkpt lat="22.221289" lon="103.740097"><ele>636.0</ele><time>2011-04-25T07:51:35.0000000+00:00</time></trkpt><trkpt lat="22.221256" lon="103.740181"><ele>637.1</ele><time>2011-04-25T07:51:40.0000000+00:00</time></trkpt><trkpt lat="22.221207" lon="103.740295"><ele>637.7</ele><time>2011-04-25T07:51:45.0000000+00:00</time></trkpt><trkpt lat="22.221155" lon="103.74041"><ele>639.0</ele><time>2011-04-25T07:51:50.0000000+00:00</time></trkpt><trkpt lat="22.221115" lon="103.740501"><ele>639.7</ele><time>2011-04-25T07:51:55.0000000+00:00</time></trkpt><trkpt lat="22.221066" lon="103.740616"><ele>640.2</ele><time>2011-04-25T07:52:00.0000000+00:00</time></trkpt><trkpt lat="22.221024" lon="103.740738"><ele>641.0</ele><time>2011-04-25T07:52:05.0000000+00:00</time></trkpt><trkpt lat="22.220985" lon="103.740891"><ele>642.1</ele><time>2011-04-25T07:52:10.0000000+00:00</time></trkpt><trkpt lat="22.220987" lon="103.741058"><ele>639.9</ele><time>2011-04-25T07:52:15.0000000+00:00</time></trkpt><trkpt lat="22.220985" lon="103.741203"><ele>637.0</ele><time>2011-04-25T07:52:20.0000000+00:00</time></trkpt><trkpt lat="22.22097" lon="103.741379"><ele>636.0</ele><time>2011-04-25T07:52:25.0000000+00:00</time></trkpt><trkpt lat="22.220907" lon="103.741554"><ele>636.1</ele><time>2011-04-25T07:52:30.0000000+00:00</time></trkpt><trkpt lat="22.220758" lon="103.741714"><ele>635.5</ele><time>2011-04-25T07:52:35.0000000+00:00</time></trkpt><trkpt lat="22.220545" lon="103.741821"><ele>635.7</ele><time>2011-04-25T07:52:40.0000000+00:00</time></trkpt><trkpt lat="22.220322" lon="103.741867"><ele>637.1</ele><time>2011-04-25T07:52:45.0000000+00:00</time></trkpt><trkpt lat="22.220104" lon="103.741905"><ele>637.6</ele><time>2011-04-25T07:52:50.0000000+00:00</time></trkpt><trkpt lat="22.219912" lon="103.741928"><ele>639.1</ele><time>2011-04-25T07:52:55.0000000+00:00</time></trkpt><trkpt lat="22.219702" lon="103.741951"><ele>639.7</ele><time>2011-04-25T07:53:00.0000000+00:00</time></trkpt><trkpt lat="22.219496" lon="103.741974"><ele>640.0</ele><time>2011-04-25T07:53:05.0000000+00:00</time></trkpt><trkpt lat="22.219301" lon="103.741997"><ele>640.9</ele><time>2011-04-25T07:53:10.0000000+00:00</time></trkpt><trkpt lat="22.219088" lon="103.74202"><ele>640.7</ele><time>2011-04-25T07:53:15.0000000+00:00</time></trkpt><trkpt lat="22.218866" lon="103.742043"><ele>642.2</ele><time>2011-04-25T07:53:20.0000000+00:00</time></trkpt><trkpt lat="22.218624" lon="103.742081"><ele>642.8</ele><time>2011-04-25T07:53:25.0000000+00:00</time></trkpt><trkpt lat="22.218376" lon="103.742111"><ele>643.1</ele><time>2011-04-25T07:53:30.0000000+00:00</time></trkpt><trkpt lat="22.218128" lon="103.742142"><ele>643.9</ele><time>2011-04-25T07:53:35.0000000+00:00</time></trkpt><trkpt lat="22.217878" lon="103.742165"><ele>644.9</ele><time>2011-04-25T07:53:40.0000000+00:00</time></trkpt><trkpt lat="22.217607" lon="103.742188"><ele>645.0</ele><time>2011-04-25T07:53:45.0000000+00:00</time></trkpt><trkpt lat="22.217325" lon="103.742104"><ele>644.6</ele><time>2011-04-25T07:53:50.0000000+00:00</time></trkpt><trkpt lat="22.217087" lon="103.741943"><ele>644.2</ele><time>2011-04-25T07:53:55.0000000+00:00</time></trkpt><trkpt lat="22.216841" lon="103.74176"><ele>643.6</ele><time>2011-04-25T07:54:00.0000000+00:00</time></trkpt><trkpt lat="22.216602" lon="103.741661"><ele>642.5</ele><time>2011-04-25T07:54:05.0000000+00:00</time></trkpt><trkpt lat="22.216373" lon="103.741623"><ele>640.9</ele><time>2011-04-25T07:54:10.0000000+00:00</time></trkpt><trkpt lat="22.216169" lon="103.74157"><ele>639.1</ele><time>2011-04-25T07:54:15.0000000+00:00</time></trkpt><trkpt lat="22.215979" lon="103.741531"><ele>637.5</ele><time>2011-04-25T07:54:20.0000000+00:00</time></trkpt><trkpt lat="22.215805" lon="103.741478"><ele>637.4</ele><time>2011-04-25T07:54:25.0000000+00:00</time></trkpt><trkpt lat="22.215635" lon="103.74147"><ele>638.1</ele><time>2011-04-25T07:54:30.0000000+00:00</time></trkpt><trkpt lat="22.215456" lon="103.741493"><ele>639.1</ele><time>2011-04-25T07:54:35.0000000+00:00</time></trkpt><trkpt lat="22.215281" lon="103.741539"><ele>639.0</ele><time>2011-04-25T07:54:40.0000000+00:00</time></trkpt><trkpt lat="22.21509" lon="103.741592"><ele>638.9</ele><time>2011-04-25T07:54:45.0000000+00:00</time></trkpt><trkpt lat="22.214855" lon="103.741684"><ele>638.8</ele><time>2011-04-25T07:54:50.0000000+00:00</time></trkpt><trkpt lat="22.214581" lon="103.741859"><ele>638.5</ele><time>2011-04-25T07:54:55.0000000+00:00</time></trkpt><trkpt lat="22.21427" lon="103.742088"><ele>636.8</ele><time>2011-04-25T07:55:00.0000000+00:00</time></trkpt><trkpt lat="22.213991" lon="103.74221"><ele>636.9</ele><time>2011-04-25T07:55:05.0000000+00:00</time></trkpt><trkpt lat="22.213697" lon="103.742226"><ele>637.0</ele><time>2011-04-25T07:55:10.0000000+00:00</time></trkpt><trkpt lat="22.213432" lon="103.742218"><ele>636.8</ele><time>2011-04-25T07:55:15.0000000+00:00</time></trkpt><trkpt lat="22.213144" lon="103.742195"><ele>636.1</ele><time>2011-04-25T07:55:20.0000000+00:00</time></trkpt><trkpt lat="22.212872" lon="103.74218"><ele>635.2</ele><time>2011-04-25T07:55:25.0000000+00:00</time></trkpt><trkpt lat="22.212561" lon="103.742165"><ele>633.6</ele><time>2011-04-25T07:55:30.0000000+00:00</time></trkpt><trkpt lat="22.21225" lon="103.742149"><ele>632.6</ele><time>2011-04-25T07:55:35.0000000+00:00</time></trkpt><trkpt lat="22.211924" lon="103.742142"><ele>632.1</ele><time>2011-04-25T07:55:40.0000000+00:00</time></trkpt><trkpt lat="22.211615" lon="103.742104"><ele>630.8</ele><time>2011-04-25T07:55:45.0000000+00:00</time></trkpt><trkpt lat="22.211311" lon="103.742073"><ele>629.9</ele><time>2011-04-25T07:55:50.0000000+00:00</time></trkpt><trkpt lat="22.211008" lon="103.742043"><ele>629.6</ele><time>2011-04-25T07:55:55.0000000+00:00</time></trkpt><trkpt lat="22.210764" lon="103.742035"><ele>629.7</ele><time>2011-04-25T07:56:00.0000000+00:00</time></trkpt><trkpt lat="22.210588" lon="103.742027"><ele>629.4</ele><time>2011-04-25T07:56:05.0000000+00:00</time></trkpt><trkpt lat="22.210438" lon="103.742027"><ele>629.5</ele><time>2011-04-25T07:56:10.0000000+00:00</time></trkpt><trkpt lat="22.21027" lon="103.742004"><ele>629.0</ele><time>2011-04-25T07:56:15.0000000+00:00</time></trkpt><trkpt lat="22.210081" lon="103.741989"><ele>628.2</ele><time>2011-04-25T07:56:20.0000000+00:00</time></trkpt><trkpt lat="22.209906" lon="103.741997"><ele>626.6</ele><time>2011-04-25T07:56:25.0000000+00:00</time></trkpt><trkpt lat="22.209679" lon="103.741997"><ele>626.0</ele><time>2011-04-25T07:56:30.0000000+00:00</time></trkpt><trkpt lat="22.209429" lon="103.741974"><ele>625.1</ele><time>2011-04-25T07:56:35.0000000+00:00</time></trkpt><trkpt lat="22.209179" lon="103.741943"><ele>623.0</ele><time>2011-04-25T07:56:40.0000000+00:00</time></trkpt><trkpt lat="22.20892" lon="103.741959"><ele>622.1</ele><time>2011-04-25T07:56:45.0000000+00:00</time></trkpt><trkpt lat="22.208605" lon="103.741936"><ele>620.5</ele><time>2011-04-25T07:56:50.0000000+00:00</time></trkpt><trkpt lat="22.208282" lon="103.741951"><ele>618.9</ele><time>2011-04-25T07:56:55.0000000+00:00</time></trkpt><trkpt lat="22.207882" lon="103.74202"><ele>618.9</ele><time>2011-04-25T07:57:00.0000000+00:00</time></trkpt><trkpt lat="22.207455" lon="103.742058"><ele>623.5</ele><time>2011-04-25T07:57:05.0000000+00:00</time></trkpt><trkpt lat="22.207136" lon="103.742157"><ele>624.1</ele><time>2011-04-25T07:57:10.0000000+00:00</time></trkpt><trkpt lat="22.206903" lon="103.742256"><ele>623.4</ele><time>2011-04-25T07:57:15.0000000+00:00</time></trkpt><trkpt lat="22.206652" lon="103.742378"><ele>624.1</ele><time>2011-04-25T07:57:20.0000000+00:00</time></trkpt><trkpt lat="22.206303" lon="103.742569"><ele>623.0</ele><time>2011-04-25T07:57:25.0000000+00:00</time></trkpt><trkpt lat="22.205826" lon="103.742752"><ele>619.3</ele><time>2011-04-25T07:57:30.0000000+00:00</time></trkpt><trkpt lat="22.205385" lon="103.74292"><ele>618.1</ele><time>2011-04-25T07:57:35.0000000+00:00</time></trkpt><trkpt lat="22.204977" lon="103.743065"><ele>617.8</ele><time>2011-04-25T07:57:40.0000000+00:00</time></trkpt><trkpt lat="22.204538" lon="103.743202"><ele>620.1</ele><time>2011-04-25T07:57:45.0000000+00:00</time></trkpt><trkpt lat="22.204174" lon="103.743324"><ele>620.4</ele><time>2011-04-25T07:57:50.0000000+00:00</time></trkpt><trkpt lat="22.203777" lon="103.743484"><ele>621.3</ele><time>2011-04-25T07:57:55.0000000+00:00</time></trkpt><trkpt lat="22.203421" lon="103.743584"><ele>622.3</ele><time>2011-04-25T07:58:00.0000000+00:00</time></trkpt><trkpt lat="22.203096" lon="103.743698"><ele>623.4</ele><time>2011-04-25T07:58:05.0000000+00:00</time></trkpt><trkpt lat="22.202805" lon="103.743767"><ele>622.2</ele><time>2011-04-25T07:58:10.0000000+00:00</time></trkpt><trkpt lat="22.202541" lon="103.743881"><ele>623.4</ele><time>2011-04-25T07:58:15.0000000+00:00</time></trkpt><trkpt lat="22.202299" lon="103.743973"><ele>622.9</ele><time>2011-04-25T07:58:20.0000000+00:00</time></trkpt><trkpt lat="22.202049" lon="103.744064"><ele>622.0</ele><time>2011-04-25T07:58:25.0000000+00:00</time></trkpt><trkpt lat="22.201811" lon="103.744125"><ele>622.2</ele><time>2011-04-25T07:58:30.0000000+00:00</time></trkpt><trkpt lat="22.201553" lon="103.744225"><ele>620.2</ele><time>2011-04-25T07:58:35.0000000+00:00</time></trkpt><trkpt lat="22.201241" lon="103.744301"><ele>618.8</ele><time>2011-04-25T07:58:40.0000000+00:00</time></trkpt><trkpt lat="22.200859" lon="103.744347"><ele>617.7</ele><time>2011-04-25T07:58:45.0000000+00:00</time></trkpt><trkpt lat="22.200487" lon="103.744385"><ele>616.9</ele><time>2011-04-25T07:58:50.0000000+00:00</time></trkpt><trkpt lat="22.200171" lon="103.744408"><ele>618.0</ele><time>2011-04-25T07:58:55.0000000+00:00</time></trkpt><trkpt lat="22.199947" lon="103.744469"><ele>618.4</ele><time>2011-04-25T07:59:00.0000000+00:00</time></trkpt><trkpt lat="22.199675" lon="103.744598"><ele>619.4</ele><time>2011-04-25T07:59:05.0000000+00:00</time></trkpt><trkpt lat="22.199394" lon="103.744698"><ele>618.2</ele><time>2011-04-25T07:59:10.0000000+00:00</time></trkpt><trkpt lat="22.199192" lon="103.744774"><ele>620.4</ele><time>2011-04-25T07:59:15.0000000+00:00</time></trkpt><trkpt lat="22.199018" lon="103.74482"><ele>620.3</ele><time>2011-04-25T07:59:20.0000000+00:00</time></trkpt><trkpt lat="22.198795" lon="103.744881"><ele>619.1</ele><time>2011-04-25T07:59:25.0000000+00:00</time></trkpt><trkpt lat="22.198586" lon="103.744965"><ele>617.1</ele><time>2011-04-25T07:59:30.0000000+00:00</time></trkpt><trkpt lat="22.19841" lon="103.745026"><ele>616.5</ele><time>2011-04-25T07:59:35.0000000+00:00</time></trkpt><trkpt lat="22.198263" lon="103.745064"><ele>616.0</ele><time>2011-04-25T07:59:40.0000000+00:00</time></trkpt><trkpt lat="22.198084" lon="103.745148"><ele>614.8</ele><time>2011-04-25T07:59:45.0000000+00:00</time></trkpt><trkpt lat="22.197849" lon="103.745232"><ele>613.6</ele><time>2011-04-25T07:59:50.0000000+00:00</time></trkpt><trkpt lat="22.197548" lon="103.745346"><ele>611.3</ele><time>2011-04-25T07:59:55.0000000+00:00</time></trkpt><trkpt lat="22.197191" lon="103.745476"><ele>608.8</ele><time>2011-04-25T08:00:00.0000000+00:00</time></trkpt><trkpt lat="22.196762" lon="103.745613"><ele>603.9</ele><time>2011-04-25T08:00:05.0000000+00:00</time></trkpt><trkpt lat="22.196304" lon="103.745758"><ele>601.6</ele><time>2011-04-25T08:00:10.0000000+00:00</time></trkpt><trkpt lat="22.195808" lon="103.745605"><ele>597.8</ele><time>2011-04-25T08:00:15.0000000+00:00</time></trkpt><trkpt lat="22.195433" lon="103.745247"><ele>593.9</ele><time>2011-04-25T08:00:20.0000000+00:00</time></trkpt><trkpt lat="22.195024" lon="103.744949"><ele>589.8</ele><time>2011-04-25T08:00:25.0000000+00:00</time></trkpt><trkpt lat="22.194511" lon="103.744934"><ele>586.8</ele><time>2011-04-25T08:00:30.0000000+00:00</time></trkpt><trkpt lat="22.193975" lon="103.745125"><ele>583.7</ele><time>2011-04-25T08:00:35.0000000+00:00</time></trkpt><trkpt lat="22.193455" lon="103.745483"><ele>581.1</ele><time>2011-04-25T08:00:40.0000000+00:00</time></trkpt><trkpt lat="22.192924" lon="103.745872"><ele>579.1</ele><time>2011-04-25T08:00:45.0000000+00:00</time></trkpt><trkpt lat="22.192402" lon="103.746239"><ele>577.9</ele><time>2011-04-25T08:00:50.0000000+00:00</time></trkpt><trkpt lat="22.191858" lon="103.74646"><ele>575.9</ele><time>2011-04-25T08:00:55.0000000+00:00</time></trkpt><trkpt lat="22.19136" lon="103.746674"><ele>573.5</ele><time>2011-04-25T08:01:00.0000000+00:00</time></trkpt><trkpt lat="22.190889" lon="103.746872"><ele>571.8</ele><time>2011-04-25T08:01:05.0000000+00:00</time></trkpt><trkpt lat="22.190449" lon="103.747063"><ele>570.0</ele><time>2011-04-25T08:01:10.0000000+00:00</time></trkpt><trkpt lat="22.19002" lon="103.747215"><ele>568.1</ele><time>2011-04-25T08:01:15.0000000+00:00</time></trkpt><trkpt lat="22.189602" lon="103.747368"><ele>567.5</ele><time>2011-04-25T08:01:20.0000000+00:00</time></trkpt><trkpt lat="22.189219" lon="103.747528"><ele>567.0</ele><time>2011-04-25T08:01:25.0000000+00:00</time></trkpt><trkpt lat="22.188843" lon="103.747681"><ele>566.7</ele><time>2011-04-25T08:01:30.0000000+00:00</time></trkpt><trkpt lat="22.188488" lon="103.747826"><ele>566.4</ele><time>2011-04-25T08:01:35.0000000+00:00</time></trkpt><trkpt lat="22.188148" lon="103.747971"><ele>566.0</ele><time>2011-04-25T08:01:40.0000000+00:00</time></trkpt><trkpt lat="22.187817" lon="103.748123"><ele>565.4</ele><time>2011-04-25T08:01:45.0000000+00:00</time></trkpt><trkpt lat="22.187517" lon="103.748253"><ele>565.3</ele><time>2011-04-25T08:01:50.0000000+00:00</time></trkpt><trkpt lat="22.187244" lon="103.748337"><ele>565.5</ele><time>2011-04-25T08:01:55.0000000+00:00</time></trkpt><trkpt lat="22.187035" lon="103.748352"><ele>565.7</ele><time>2011-04-25T08:02:00.0000000+00:00</time></trkpt><trkpt lat="22.186914" lon="103.748352"><ele>565.9</ele><time>2011-04-25T08:02:05.0000000+00:00</time></trkpt><trkpt lat="22.1868" lon="103.748375"><ele>566.4</ele><time>2011-04-25T08:02:10.0000000+00:00</time></trkpt><trkpt lat="22.186687" lon="103.748413"><ele>566.3</ele><time>2011-04-25T08:02:15.0000000+00:00</time></trkpt><trkpt lat="22.186548" lon="103.748413"><ele>567.5</ele><time>2011-04-25T08:02:20.0000000+00:00</time></trkpt><trkpt lat="22.186377" lon="103.748451"><ele>568.3</ele><time>2011-04-25T08:02:25.0000000+00:00</time></trkpt><trkpt lat="22.186155" lon="103.748512"><ele>568.6</ele><time>2011-04-25T08:02:30.0000000+00:00</time></trkpt><trkpt lat="22.185896" lon="103.74855"><ele>568.2</ele><time>2011-04-25T08:02:35.0000000+00:00</time></trkpt><trkpt lat="22.185665" lon="103.748573"><ele>568.7</ele><time>2011-04-25T08:02:40.0000000+00:00</time></trkpt><trkpt lat="22.185408" lon="103.748627"><ele>568.5</ele><time>2011-04-25T08:02:45.0000000+00:00</time></trkpt><trkpt lat="22.185143" lon="103.748619"><ele>568.0</ele><time>2011-04-25T08:02:50.0000000+00:00</time></trkpt><trkpt lat="22.184902" lon="103.748596"><ele>567.1</ele><time>2011-04-25T08:02:55.0000000+00:00</time></trkpt><trkpt lat="22.184689" lon="103.748581"><ele>567.3</ele><time>2011-04-25T08:03:00.0000000+00:00</time></trkpt><trkpt lat="22.184528" lon="103.748573"><ele>567.3</ele><time>2011-04-25T08:03:05.0000000+00:00</time></trkpt><trkpt lat="22.184296" lon="103.748535"><ele>566.6</ele><time>2011-04-25T08:03:10.0000000+00:00</time></trkpt><trkpt lat="22.184086" lon="103.748505"><ele>567.2</ele><time>2011-04-25T08:03:15.0000000+00:00</time></trkpt><trkpt lat="22.183857" lon="103.748466"><ele>567.1</ele><time>2011-04-25T08:03:20.0000000+00:00</time></trkpt><trkpt lat="22.183628" lon="103.748444"><ele>566.6</ele><time>2011-04-25T08:03:25.0000000+00:00</time></trkpt><trkpt lat="22.183384" lon="103.748459"><ele>566.6</ele><time>2011-04-25T08:03:30.0000000+00:00</time></trkpt><trkpt lat="22.18318" lon="103.748428"><ele>567.8</ele><time>2011-04-25T08:03:35.0000000+00:00</time></trkpt><trkpt lat="22.182903" lon="103.748398"><ele>565.7</ele><time>2011-04-25T08:03:40.0000000+00:00</time></trkpt><trkpt lat="22.182606" lon="103.748375"><ele>565.3</ele><time>2011-04-25T08:03:45.0000000+00:00</time></trkpt><trkpt lat="22.182323" lon="103.748344"><ele>565.3</ele><time>2011-04-25T08:03:50.0000000+00:00</time></trkpt><trkpt lat="22.182087" lon="103.748337"><ele>565.0</ele><time>2011-04-25T08:03:55.0000000+00:00</time></trkpt><trkpt lat="22.181887" lon="103.748344"><ele>565.9</ele><time>2011-04-25T08:04:00.0000000+00:00</time></trkpt><trkpt lat="22.181711" lon="103.748398"><ele>566.9</ele><time>2011-04-25T08:04:05.0000000+00:00</time></trkpt><trkpt lat="22.181561" lon="103.748451"><ele>568.5</ele><time>2011-04-25T08:04:10.0000000+00:00</time></trkpt><trkpt lat="22.18145" lon="103.748505"><ele>569.4</ele><time>2011-04-25T08:04:15.0000000+00:00</time></trkpt><trkpt lat="22.181351" lon="103.748535"><ele>569.7</ele><time>2011-04-25T08:04:20.0000000+00:00</time></trkpt><trkpt lat="22.181271" lon="103.748596"><ele>569.9</ele><time>2011-04-25T08:04:25.0000000+00:00</time></trkpt><trkpt lat="22.181179" lon="103.748672"><ele>570.4</ele><time>2011-04-25T08:04:30.0000000+00:00</time></trkpt><trkpt lat="22.181095" lon="103.748726"><ele>571.3</ele><time>2011-04-25T08:04:35.0000000+00:00</time></trkpt><trkpt lat="22.181009" lon="103.748795"><ele>572.5</ele><time>2011-04-25T08:04:40.0000000+00:00</time></trkpt><trkpt lat="22.180939" lon="103.748863"><ele>574.7</ele><time>2011-04-25T08:04:45.0000000+00:00</time></trkpt><trkpt lat="22.180836" lon="103.748947"><ele>575.5</ele><time>2011-04-25T08:04:50.0000000+00:00</time></trkpt><trkpt lat="22.180735" lon="103.749054"><ele>577.5</ele><time>2011-04-25T08:04:55.0000000+00:00</time></trkpt><trkpt lat="22.180641" lon="103.749146"><ele>579.8</ele><time>2011-04-25T08:05:00.0000000+00:00</time></trkpt><trkpt lat="22.180538" lon="103.749245"><ele>579.8</ele><time>2011-04-25T08:05:05.0000000+00:00</time></trkpt><trkpt lat="22.180422" lon="103.749367"><ele>578.6</ele><time>2011-04-25T08:05:10.0000000+00:00</time></trkpt><trkpt lat="22.180223" lon="103.749481"><ele>578.5</ele><time>2011-04-25T08:05:15.0000000+00:00</time></trkpt><trkpt lat="22.179934" lon="103.74958"><ele>576.6</ele><time>2011-04-25T08:05:20.0000000+00:00</time></trkpt><trkpt lat="22.179585" lon="103.749718"><ele>572.1</ele><time>2011-04-25T08:05:25.0000000+00:00</time></trkpt><trkpt lat="22.17922" lon="103.74984"><ele>568.5</ele><time>2011-04-25T08:05:30.0000000+00:00</time></trkpt><trkpt lat="22.178865" lon="103.749939"><ele>566.1</ele><time>2011-04-25T08:05:35.0000000+00:00</time></trkpt><trkpt lat="22.178558" lon="103.750038"><ele>564.2</ele><time>2011-04-25T08:05:40.0000000+00:00</time></trkpt><trkpt lat="22.178274" lon="103.750198"><ele>563.8</ele><time>2011-04-25T08:05:45.0000000+00:00</time></trkpt><trkpt lat="22.178007" lon="103.750351"><ele>565.7</ele><time>2011-04-25T08:05:50.0000000+00:00</time></trkpt><trkpt lat="22.177753" lon="103.750511"><ele>566.3</ele><time>2011-04-25T08:05:55.0000000+00:00</time></trkpt><trkpt lat="22.177515" lon="103.750671"><ele>565.9</ele><time>2011-04-25T08:06:00.0000000+00:00</time></trkpt><trkpt lat="22.177294" lon="103.750809"><ele>565.7</ele><time>2011-04-25T08:06:05.0000000+00:00</time></trkpt><trkpt lat="22.177074" lon="103.750946"><ele>565.8</ele><time>2011-04-25T08:06:10.0000000+00:00</time></trkpt><trkpt lat="22.176825" lon="103.751083"><ele>565.4</ele><time>2011-04-25T08:06:15.0000000+00:00</time></trkpt><trkpt lat="22.176586" lon="103.751198"><ele>566.9</ele><time>2011-04-25T08:06:20.0000000+00:00</time></trkpt><trkpt lat="22.176388" lon="103.751335"><ele>569.4</ele><time>2011-04-25T08:06:25.0000000+00:00</time></trkpt><trkpt lat="22.176254" lon="103.751472"><ele>569.6</ele><time>2011-04-25T08:06:30.0000000+00:00</time></trkpt><trkpt lat="22.176163" lon="103.751503"><ele>570.4</ele><time>2011-04-25T08:06:35.0000000+00:00</time></trkpt><trkpt lat="22.176102" lon="103.751564"><ele>571.4</ele><time>2011-04-25T08:06:40.0000000+00:00</time></trkpt><trkpt lat="22.17602" lon="103.751625"><ele>571.0</ele><time>2011-04-25T08:06:45.0000000+00:00</time></trkpt><trkpt lat="22.175951" lon="103.751678"><ele>569.8</ele><time>2011-04-25T08:06:50.0000000+00:00</time></trkpt><trkpt lat="22.175863" lon="103.751747"><ele>570.0</ele><time>2011-04-25T08:06:55.0000000+00:00</time></trkpt><trkpt lat="22.175774" lon="103.751823"><ele>570.2</ele><time>2011-04-25T08:07:00.0000000+00:00</time></trkpt><trkpt lat="22.175684" lon="103.751915"><ele>569.7</ele><time>2011-04-25T08:07:05.0000000+00:00</time></trkpt><trkpt lat="22.175575" lon="103.752014"><ele>569.1</ele><time>2011-04-25T08:07:10.0000000+00:00</time></trkpt><trkpt lat="22.175463" lon="103.752098"><ele>568.2</ele><time>2011-04-25T08:07:15.0000000+00:00</time></trkpt><trkpt lat="22.175381" lon="103.752159"><ele>568.1</ele><time>2011-04-25T08:07:20.0000000+00:00</time></trkpt><trkpt lat="22.17532" lon="103.752213"><ele>567.5</ele><time>2011-04-25T08:07:25.0000000+00:00</time></trkpt><trkpt lat="22.175297" lon="103.752243"><ele>566.1</ele><time>2011-04-25T08:07:30.0000000+00:00</time></trkpt><trkpt lat="22.175285" lon="103.752251"><ele>565.6</ele><time>2011-04-25T08:07:35.0000000+00:00</time></trkpt><trkpt lat="22.175289" lon="103.752243"><ele>565.4</ele><time>2011-04-25T08:07:40.0000000+00:00</time></trkpt><trkpt lat="22.175293" lon="103.752251"><ele>565.4</ele><time>2011-04-25T08:07:45.0000000+00:00</time></trkpt><trkpt lat="22.175291" lon="103.752258"><ele>565.5</ele><time>2011-04-25T08:07:50.0000000+00:00</time></trkpt><trkpt lat="22.175287" lon="103.752266"><ele>565.5</ele><time>2011-04-25T08:07:55.0000000+00:00</time></trkpt><trkpt lat="22.175285" lon="103.752274"><ele>565.5</ele><time>2011-04-25T08:08:00.0000000+00:00</time></trkpt><trkpt lat="22.175287" lon="103.752274"><ele>565.5</ele><time>2011-04-25T08:08:05.0000000+00:00</time></trkpt><trkpt lat="22.175289" lon="103.752274"><ele>565.5</ele><time>2011-04-25T08:08:10.0000000+00:00</time></trkpt><trkpt lat="22.175289" lon="103.752266"><ele>565.5</ele><time>2011-04-25T08:08:15.0000000+00:00</time></trkpt><trkpt lat="22.175289" lon="103.752258"><ele>565.6</ele><time>2011-04-25T08:08:20.0000000+00:00</time></trkpt><trkpt lat="22.175295" lon="103.752258"><ele>565.6</ele><time>2011-04-25T08:08:25.0000000+00:00</time></trkpt><trkpt lat="22.175291" lon="103.752251"><ele>565.6</ele><time>2011-04-25T08:08:30.0000000+00:00</time></trkpt><trkpt lat="22.175283" lon="103.752258"><ele>565.6</ele><time>2011-04-25T08:08:35.0000000+00:00</time></trkpt><trkpt lat="22.175274" lon="103.752266"><ele>565.7</ele><time>2011-04-25T08:08:40.0000000+00:00</time></trkpt><trkpt lat="22.175274" lon="103.752266"><ele>565.8</ele><time>2011-04-25T08:08:45.0000000+00:00</time></trkpt><trkpt lat="22.175274" lon="103.752266"><ele>565.8</ele><time>2011-04-25T08:08:50.0000000+00:00</time></trkpt><trkpt lat="22.175274" lon="103.752266"><ele>565.9</ele><time>2011-04-25T08:08:55.0000000+00:00</time></trkpt><trkpt lat="22.175272" lon="103.752266"><ele>566.1</ele><time>2011-04-25T08:09:00.0000000+00:00</time></trkpt><trkpt lat="22.175272" lon="103.752266"><ele>566.2</ele><time>2011-04-25T08:09:05.0000000+00:00</time></trkpt><trkpt lat="22.175272" lon="103.752266"><ele>566.3</ele><time>2011-04-25T08:09:10.0000000+00:00</time></trkpt><trkpt lat="22.175272" lon="103.752266"><ele>566.4</ele><time>2011-04-25T08:09:15.0000000+00:00</time></trkpt><trkpt lat="22.175272" lon="103.752266"><ele>566.4</ele><time>2011-04-25T08:09:20.0000000+00:00</time></trkpt><trkpt lat="22.175272" lon="103.752266"><ele>566.5</ele><time>2011-04-25T08:09:25.0000000+00:00</time></trkpt><trkpt lat="22.175272" lon="103.752266"><ele>566.5</ele><time>2011-04-25T08:09:30.0000000+00:00</time></trkpt><trkpt lat="22.175272" lon="103.752266"><ele>566.6</ele><time>2011-04-25T08:09:35.0000000+00:00</time></trkpt><trkpt lat="22.175274" lon="103.752266"><ele>566.6</ele><time>2011-04-25T08:09:40.0000000+00:00</time></trkpt><trkpt lat="22.175274" lon="103.752266"><ele>566.7</ele><time>2011-04-25T08:09:45.0000000+00:00</time></trkpt><trkpt lat="22.175274" lon="103.752266"><ele>566.7</ele><time>2011-04-25T08:09:50.0000000+00:00</time></trkpt><trkpt lat="22.175274" lon="103.752266"><ele>566.7</ele><time>2011-04-25T08:09:55.0000000+00:00</time></trkpt><trkpt lat="22.175278" lon="103.752266"><ele>566.7</ele><time>2011-04-25T08:10:00.0000000+00:00</time></trkpt><trkpt lat="22.175278" lon="103.752266"><ele>566.8</ele><time>2011-04-25T08:10:05.0000000+00:00</time></trkpt><trkpt lat="22.175278" lon="103.752266"><ele>566.9</ele><time>2011-04-25T08:10:10.0000000+00:00</time></trkpt><trkpt lat="22.175274" lon="103.752274"><ele>566.9</ele><time>2011-04-25T08:10:15.0000000+00:00</time></trkpt><trkpt lat="22.175268" lon="103.752274"><ele>567.1</ele><time>2011-04-25T08:10:20.0000000+00:00</time></trkpt><trkpt lat="22.175259" lon="103.752274"><ele>567.2</ele><time>2011-04-25T08:10:25.0000000+00:00</time></trkpt><trkpt lat="22.175247" lon="103.752274"><ele>567.4</ele><time>2011-04-25T08:10:30.0000000+00:00</time></trkpt><trkpt lat="22.175234" lon="103.752266"><ele>567.6</ele><time>2011-04-25T08:10:35.0000000+00:00</time></trkpt><trkpt lat="22.175217" lon="103.752243"><ele>568.1</ele><time>2011-04-25T08:10:40.0000000+00:00</time></trkpt><trkpt lat="22.175215" lon="103.75222"><ele>568.4</ele><time>2011-04-25T08:10:45.0000000+00:00</time></trkpt><trkpt lat="22.175211" lon="103.752213"><ele>568.6</ele><time>2011-04-25T08:10:50.0000000+00:00</time></trkpt><trkpt lat="22.175207" lon="103.752213"><ele>568.8</ele><time>2011-04-25T08:10:55.0000000+00:00</time></trkpt><trkpt lat="22.175207" lon="103.752213"><ele>569.0</ele><time>2011-04-25T08:11:00.0000000+00:00</time></trkpt><trkpt lat="22.175207" lon="103.752213"><ele>569.2</ele><time>2011-04-25T08:11:05.0000000+00:00</time></trkpt><trkpt lat="22.175205" lon="103.752213"><ele>569.3</ele><time>2011-04-25T08:11:10.0000000+00:00</time></trkpt><trkpt lat="22.175205" lon="103.752213"><ele>569.5</ele><time>2011-04-25T08:11:15.0000000+00:00</time></trkpt><trkpt lat="22.175182" lon="103.752228"><ele>569.6</ele><time>2011-04-25T08:11:20.0000000+00:00</time></trkpt><trkpt lat="22.175108" lon="103.752296"><ele>570.0</ele><time>2011-04-25T08:11:25.0000000+00:00</time></trkpt><trkpt lat="22.175053" lon="103.752373"><ele>571.3</ele><time>2011-04-25T08:11:30.0000000+00:00</time></trkpt><trkpt lat="22.174978" lon="103.752449"><ele>574.6</ele><time>2011-04-25T08:11:35.0000000+00:00</time></trkpt><trkpt lat="22.1749" lon="103.752548"><ele>576.1</ele><time>2011-04-25T08:11:40.0000000+00:00</time></trkpt><trkpt lat="22.174818" lon="103.752617"><ele>575.5</ele><time>2011-04-25T08:11:45.0000000+00:00</time></trkpt><trkpt lat="22.17474" lon="103.752693"><ele>577.4</ele><time>2011-04-25T08:11:50.0000000+00:00</time></trkpt><trkpt lat="22.174677" lon="103.752754"><ele>578.8</ele><time>2011-04-25T08:11:55.0000000+00:00</time></trkpt><trkpt lat="22.174603" lon="103.752823"><ele>581.1</ele><time>2011-04-25T08:12:00.0000000+00:00</time></trkpt><trkpt lat="22.174553" lon="103.752922"><ele>581.1</ele><time>2011-04-25T08:12:05.0000000+00:00</time></trkpt><trkpt lat="22.174562" lon="103.752937"><ele>582.3</ele><time>2011-04-25T08:12:10.0000000+00:00</time></trkpt><trkpt lat="22.174582" lon="103.75296"><ele>583.4</ele><time>2011-04-25T08:12:15.0000000+00:00</time></trkpt><trkpt lat="22.174585" lon="103.752953"><ele>584.7</ele><time>2011-04-25T08:12:20.0000000+00:00</time></trkpt><trkpt lat="22.174597" lon="103.752945"><ele>585.5</ele><time>2011-04-25T08:12:25.0000000+00:00</time></trkpt><trkpt lat="22.174604" lon="103.752945"><ele>586.3</ele><time>2011-04-25T08:12:30.0000000+00:00</time></trkpt><trkpt lat="22.17461" lon="103.752945"><ele>587.0</ele><time>2011-04-25T08:12:35.0000000+00:00</time></trkpt><trkpt lat="22.174608" lon="103.752945"><ele>587.7</ele><time>2011-04-25T08:12:40.0000000+00:00</time></trkpt><trkpt lat="22.174604" lon="103.752945"><ele>588.3</ele><time>2011-04-25T08:12:45.0000000+00:00</time></trkpt><trkpt lat="22.174601" lon="103.752945"><ele>588.9</ele><time>2011-04-25T08:12:50.0000000+00:00</time></trkpt><trkpt lat="22.174595" lon="103.752953"><ele>589.4</ele><time>2011-04-25T08:12:55.0000000+00:00</time></trkpt><trkpt lat="22.174593" lon="103.75296"><ele>590.0</ele><time>2011-04-25T08:13:00.0000000+00:00</time></trkpt><trkpt lat="22.174595" lon="103.75296"><ele>590.5</ele><time>2011-04-25T08:13:05.0000000+00:00</time></trkpt><trkpt lat="22.174591" lon="103.752968"><ele>590.9</ele><time>2011-04-25T08:13:10.0000000+00:00</time></trkpt><trkpt lat="22.174547" lon="103.753014"><ele>590.6</ele><time>2011-04-25T08:13:15.0000000+00:00</time></trkpt><trkpt lat="22.174507" lon="103.753067"><ele>590.8</ele><time>2011-04-25T08:13:20.0000000+00:00</time></trkpt><trkpt lat="22.174479" lon="103.75309"><ele>588.9</ele><time>2011-04-25T08:13:25.0000000+00:00</time></trkpt><trkpt lat="22.174475" lon="103.753098"><ele>589.0</ele><time>2011-04-25T08:13:30.0000000+00:00</time></trkpt><trkpt lat="22.174475" lon="103.753105"><ele>589.1</ele><time>2011-04-25T08:13:35.0000000+00:00</time></trkpt><trkpt lat="22.174473" lon="103.753105"><ele>589.2</ele><time>2011-04-25T08:13:40.0000000+00:00</time></trkpt><trkpt lat="22.174471" lon="103.753105"><ele>589.3</ele><time>2011-04-25T08:13:45.0000000+00:00</time></trkpt><trkpt lat="22.174467" lon="103.753113"><ele>589.3</ele><time>2011-04-25T08:13:50.0000000+00:00</time></trkpt><trkpt lat="22.174465" lon="103.75312"><ele>589.3</ele><time>2011-04-25T08:13:55.0000000+00:00</time></trkpt><trkpt lat="22.174463" lon="103.75312"><ele>589.4</ele><time>2011-04-25T08:14:00.0000000+00:00</time></trkpt><trkpt lat="22.174463" lon="103.753128"><ele>589.5</ele><time>2011-04-25T08:14:05.0000000+00:00</time></trkpt><trkpt lat="22.174461" lon="103.753128"><ele>589.5</ele><time>2011-04-25T08:14:10.0000000+00:00</time></trkpt><trkpt lat="22.174461" lon="103.753128"><ele>589.5</ele><time>2011-04-25T08:14:15.0000000+00:00</time></trkpt><trkpt lat="22.174461" lon="103.753128"><ele>589.5</ele><time>2011-04-25T08:14:20.0000000+00:00</time></trkpt><trkpt lat="22.174459" lon="103.753128"><ele>589.5</ele><time>2011-04-25T08:14:25.0000000+00:00</time></trkpt><trkpt lat="22.174459" lon="103.753128"><ele>589.5</ele><time>2011-04-25T08:14:30.0000000+00:00</time></trkpt><trkpt lat="22.174459" lon="103.753128"><ele>589.5</ele><time>2011-04-25T08:14:35.0000000+00:00</time></trkpt><trkpt lat="22.174459" lon="103.753128"><ele>589.5</ele><time>2011-04-25T08:14:40.0000000+00:00</time></trkpt><trkpt lat="22.174458" lon="103.753128"><ele>589.5</ele><time>2011-04-25T08:14:45.0000000+00:00</time></trkpt><trkpt lat="22.174458" lon="103.753128"><ele>589.5</ele><time>2011-04-25T08:14:50.0000000+00:00</time></trkpt><trkpt lat="22.174458" lon="103.753128"><ele>589.4</ele><time>2011-04-25T08:14:55.0000000+00:00</time></trkpt><trkpt lat="22.174431" lon="103.753128"><ele>589.3</ele><time>2011-04-25T08:15:00.0000000+00:00</time></trkpt><trkpt lat="22.174402" lon="103.753136"><ele>589.6</ele><time>2011-04-25T08:15:05.0000000+00:00</time></trkpt><trkpt lat="22.174402" lon="103.753136"><ele>589.6</ele><time>2011-04-25T08:15:10.0000000+00:00</time></trkpt><trkpt lat="22.174383" lon="103.753159"><ele>589.1</ele><time>2011-04-25T08:15:15.0000000+00:00</time></trkpt><trkpt lat="22.174316" lon="103.753159"><ele>587.0</ele><time>2011-04-25T08:15:20.0000000+00:00</time></trkpt><trkpt lat="22.174219" lon="103.75322"><ele>585.5</ele><time>2011-04-25T08:15:25.0000000+00:00</time></trkpt><trkpt lat="22.174105" lon="103.753319"><ele>585.2</ele><time>2011-04-25T08:15:30.0000000+00:00</time></trkpt><trkpt lat="22.173985" lon="103.753395"><ele>586.0</ele><time>2011-04-25T08:15:35.0000000+00:00</time></trkpt><trkpt lat="22.173903" lon="103.753448"><ele>586.3</ele><time>2011-04-25T08:15:40.0000000+00:00</time></trkpt><trkpt lat="22.173792" lon="103.753532"><ele>586.6</ele><time>2011-04-25T08:15:45.0000000+00:00</time></trkpt><trkpt lat="22.173695" lon="103.753601"><ele>587.8</ele><time>2011-04-25T08:15:50.0000000+00:00</time></trkpt><trkpt lat="22.173603" lon="103.753685"><ele>587.8</ele><time>2011-04-25T08:15:55.0000000+00:00</time></trkpt><trkpt lat="22.173473" lon="103.753784"><ele>585.6</ele><time>2011-04-25T08:16:00.0000000+00:00</time></trkpt><trkpt lat="22.173323" lon="103.753891"><ele>584.3</ele><time>2011-04-25T08:16:05.0000000+00:00</time></trkpt><trkpt lat="22.173168" lon="103.754021"><ele>584.0</ele><time>2011-04-25T08:16:10.0000000+00:00</time></trkpt><trkpt lat="22.173044" lon="103.754135"><ele>584.6</ele><time>2011-04-25T08:16:15.0000000+00:00</time></trkpt><trkpt lat="22.172945" lon="103.754257"><ele>583.6</ele><time>2011-04-25T08:16:20.0000000+00:00</time></trkpt><trkpt lat="22.172905" lon="103.754311"><ele>583.8</ele><time>2011-04-25T08:16:25.0000000+00:00</time></trkpt><trkpt lat="22.172955" lon="103.754333"><ele>584.6</ele><time>2011-04-25T08:16:30.0000000+00:00</time></trkpt><trkpt lat="22.172998" lon="103.754341"><ele>586.4</ele><time>2011-04-25T08:16:35.0000000+00:00</time></trkpt><trkpt lat="22.173002" lon="103.754341"><ele>587.7</ele><time>2011-04-25T08:16:40.0000000+00:00</time></trkpt><trkpt lat="22.173004" lon="103.754349"><ele>588.2</ele><time>2011-04-25T08:16:45.0000000+00:00</time></trkpt><trkpt lat="22.173006" lon="103.754349"><ele>588.4</ele><time>2011-04-25T08:16:50.0000000+00:00</time></trkpt><trkpt lat="22.173004" lon="103.754349"><ele>588.4</ele><time>2011-04-25T08:16:55.0000000+00:00</time></trkpt><trkpt lat="22.173002" lon="103.754349"><ele>588.4</ele><time>2011-04-25T08:17:00.0000000+00:00</time></trkpt><trkpt lat="22.173002" lon="103.754349"><ele>588.4</ele><time>2011-04-25T08:17:05.0000000+00:00</time></trkpt><trkpt lat="22.173002" lon="103.754349"><ele>588.4</ele><time>2011-04-25T08:17:10.0000000+00:00</time></trkpt><trkpt lat="22.173031" lon="103.754333"><ele>587.7</ele><time>2011-04-25T08:17:15.0000000+00:00</time></trkpt><trkpt lat="22.173021" lon="103.754303"><ele>587.5</ele><time>2011-04-25T08:17:20.0000000+00:00</time></trkpt><trkpt lat="22.172993" lon="103.754295"><ele>587.2</ele><time>2011-04-25T08:17:25.0000000+00:00</time></trkpt><trkpt lat="22.172895" lon="103.754356"><ele>587.1</ele><time>2011-04-25T08:17:30.0000000+00:00</time></trkpt><trkpt lat="22.172735" lon="103.754463"><ele>588.4</ele><time>2011-04-25T08:17:35.0000000+00:00</time></trkpt><trkpt lat="22.172586" lon="103.754532"><ele>589.3</ele><time>2011-04-25T08:17:40.0000000+00:00</time></trkpt><trkpt lat="22.172451" lon="103.754669"><ele>589.4</ele><time>2011-04-25T08:17:45.0000000+00:00</time></trkpt><trkpt lat="22.172256" lon="103.754822"><ele>586.2</ele><time>2011-04-25T08:17:50.0000000+00:00</time></trkpt><trkpt lat="22.172066" lon="103.75499"><ele>584.8</ele><time>2011-04-25T08:17:55.0000000+00:00</time></trkpt><trkpt lat="22.171879" lon="103.755142"><ele>583.4</ele><time>2011-04-25T08:18:00.0000000+00:00</time></trkpt><trkpt lat="22.171684" lon="103.755302"><ele>581.6</ele><time>2011-04-25T08:18:05.0000000+00:00</time></trkpt><trkpt lat="22.171515" lon="103.755417"><ele>581.4</ele><time>2011-04-25T08:18:10.0000000+00:00</time></trkpt><trkpt lat="22.171394" lon="103.755508"><ele>584.9</ele><time>2011-04-25T08:18:15.0000000+00:00</time></trkpt><trkpt lat="22.171274" lon="103.75563"><ele>582.6</ele><time>2011-04-25T08:18:20.0000000+00:00</time></trkpt><trkpt lat="22.171144" lon="103.755775"><ele>581.9</ele><time>2011-04-25T08:18:25.0000000+00:00</time></trkpt><trkpt lat="22.171013" lon="103.75589"><ele>583.4</ele><time>2011-04-25T08:18:30.0000000+00:00</time></trkpt><trkpt lat="22.170982" lon="103.755898"><ele>586.1</ele><time>2011-04-25T08:18:35.0000000+00:00</time></trkpt><trkpt lat="22.170975" lon="103.755898"><ele>587.1</ele><time>2011-04-25T08:18:40.0000000+00:00</time></trkpt><trkpt lat="22.170977" lon="103.755875"><ele>587.7</ele><time>2011-04-25T08:18:45.0000000+00:00</time></trkpt><trkpt lat="22.171005" lon="103.755875"><ele>589.3</ele><time>2011-04-25T08:18:50.0000000+00:00</time></trkpt><trkpt lat="22.171049" lon="103.755898"><ele>590.2</ele><time>2011-04-25T08:18:55.0000000+00:00</time></trkpt><trkpt lat="22.171051" lon="103.755898"><ele>590.6</ele><time>2011-04-25T08:19:00.0000000+00:00</time></trkpt><trkpt lat="22.171053" lon="103.755898"><ele>590.8</ele><time>2011-04-25T08:19:05.0000000+00:00</time></trkpt><trkpt lat="22.171053" lon="103.755898"><ele>590.8</ele><time>2011-04-25T08:19:10.0000000+00:00</time></trkpt><trkpt lat="22.171053" lon="103.755898"><ele>590.8</ele><time>2011-04-25T08:19:15.0000000+00:00</time></trkpt><trkpt lat="22.171053" lon="103.755898"><ele>590.8</ele><time>2011-04-25T08:19:20.0000000+00:00</time></trkpt><trkpt lat="22.171045" lon="103.755905"><ele>591.0</ele><time>2011-04-25T08:19:25.0000000+00:00</time></trkpt><trkpt lat="22.171003" lon="103.755928"><ele>590.9</ele><time>2011-04-25T08:19:30.0000000+00:00</time></trkpt><trkpt lat="22.170906" lon="103.755974"><ele>591.6</ele><time>2011-04-25T08:19:35.0000000+00:00</time></trkpt><trkpt lat="22.170818" lon="103.756042"><ele>592.1</ele><time>2011-04-25T08:19:40.0000000+00:00</time></trkpt><trkpt lat="22.170767" lon="103.756096"><ele>592.8</ele><time>2011-04-25T08:19:45.0000000+00:00</time></trkpt><trkpt lat="22.170631" lon="103.756172"><ele>593.1</ele><time>2011-04-25T08:19:50.0000000+00:00</time></trkpt><trkpt lat="22.170509" lon="103.756294"><ele>593.6</ele><time>2011-04-25T08:19:55.0000000+00:00</time></trkpt><trkpt lat="22.170441" lon="103.756432"><ele>595.1</ele><time>2011-04-25T08:20:00.0000000+00:00</time></trkpt><trkpt lat="22.170362" lon="103.756599"><ele>596.4</ele><time>2011-04-25T08:20:05.0000000+00:00</time></trkpt><trkpt lat="22.170338" lon="103.756645"><ele>598.0</ele><time>2011-04-25T08:20:10.0000000+00:00</time></trkpt><trkpt lat="22.170319" lon="103.756706"><ele>599.6</ele><time>2011-04-25T08:20:15.0000000+00:00</time></trkpt><trkpt lat="22.170298" lon="103.756744"><ele>600.6</ele><time>2011-04-25T08:20:20.0000000+00:00</time></trkpt><trkpt lat="22.170216" lon="103.756783"><ele>599.2</ele><time>2011-04-25T08:20:25.0000000+00:00</time></trkpt><trkpt lat="22.17016" lon="103.756798"><ele>599.9</ele><time>2011-04-25T08:20:30.0000000+00:00</time></trkpt><trkpt lat="22.17012" lon="103.756828"><ele>600.8</ele><time>2011-04-25T08:20:35.0000000+00:00</time></trkpt><trkpt lat="22.170069" lon="103.756882"><ele>600.8</ele><time>2011-04-25T08:20:40.0000000+00:00</time></trkpt><trkpt lat="22.170017" lon="103.75692"><ele>599.3</ele><time>2011-04-25T08:20:45.0000000+00:00</time></trkpt><trkpt lat="22.169931" lon="103.756966"><ele>596.0</ele><time>2011-04-25T08:20:50.0000000+00:00</time></trkpt><trkpt lat="22.169855" lon="103.757004"><ele>595.8</ele><time>2011-04-25T08:20:55.0000000+00:00</time></trkpt><trkpt lat="22.169794" lon="103.757034"><ele>596.2</ele><time>2011-04-25T08:21:00.0000000+00:00</time></trkpt><trkpt lat="22.169773" lon="103.757034"><ele>595.0</ele><time>2011-04-25T08:21:05.0000000+00:00</time></trkpt><trkpt lat="22.169775" lon="103.757034"><ele>595.0</ele><time>2011-04-25T08:21:10.0000000+00:00</time></trkpt><trkpt lat="22.169775" lon="103.757034"><ele>595.0</ele><time>2011-04-25T08:21:15.0000000+00:00</time></trkpt><trkpt lat="22.169769" lon="103.757034"><ele>594.8</ele><time>2011-04-25T08:21:20.0000000+00:00</time></trkpt><trkpt lat="22.169767" lon="103.757034"><ele>594.8</ele><time>2011-04-25T08:21:25.0000000+00:00</time></trkpt><trkpt lat="22.169767" lon="103.757027"><ele>594.7</ele><time>2011-04-25T08:21:30.0000000+00:00</time></trkpt><trkpt lat="22.169765" lon="103.757027"><ele>594.7</ele><time>2011-04-25T08:21:35.0000000+00:00</time></trkpt><trkpt lat="22.169762" lon="103.757019"><ele>594.7</ele><time>2011-04-25T08:21:40.0000000+00:00</time></trkpt><trkpt lat="22.169758" lon="103.757011"><ele>594.6</ele><time>2011-04-25T08:21:45.0000000+00:00</time></trkpt><trkpt lat="22.169756" lon="103.757011"><ele>594.6</ele><time>2011-04-25T08:21:50.0000000+00:00</time></trkpt><trkpt lat="22.169754" lon="103.757004"><ele>594.5</ele><time>2011-04-25T08:21:55.0000000+00:00</time></trkpt><trkpt lat="22.169754" lon="103.757004"><ele>594.5</ele><time>2011-04-25T08:22:00.0000000+00:00</time></trkpt><trkpt lat="22.169752" lon="103.757004"><ele>594.5</ele><time>2011-04-25T08:22:05.0000000+00:00</time></trkpt><trkpt lat="22.169752" lon="103.757004"><ele>594.5</ele><time>2011-04-25T08:22:10.0000000+00:00</time></trkpt><trkpt lat="22.169752" lon="103.757004"><ele>594.5</ele><time>2011-04-25T08:22:15.0000000+00:00</time></trkpt><trkpt lat="22.169752" lon="103.757011"><ele>594.6</ele><time>2011-04-25T08:22:20.0000000+00:00</time></trkpt><trkpt lat="22.169752" lon="103.757011"><ele>594.6</ele><time>2011-04-25T08:22:25.0000000+00:00</time></trkpt><trkpt lat="22.169752" lon="103.757011"><ele>594.6</ele><time>2011-04-25T08:22:30.0000000+00:00</time></trkpt><trkpt lat="22.169752" lon="103.757011"><ele>594.6</ele><time>2011-04-25T08:22:35.0000000+00:00</time></trkpt><trkpt lat="22.16975" lon="103.757019"><ele>594.6</ele><time>2011-04-25T08:22:40.0000000+00:00</time></trkpt><trkpt lat="22.169743" lon="103.757027"><ele>594.9</ele><time>2011-04-25T08:22:45.0000000+00:00</time></trkpt><trkpt lat="22.169737" lon="103.757027"><ele>595.4</ele><time>2011-04-25T08:22:50.0000000+00:00</time></trkpt><trkpt lat="22.169733" lon="103.757034"><ele>595.8</ele><time>2011-04-25T08:22:55.0000000+00:00</time></trkpt><trkpt lat="22.169729" lon="103.757042"><ele>596.2</ele><time>2011-04-25T08:23:00.0000000+00:00</time></trkpt><trkpt lat="22.169724" lon="103.757042"><ele>596.1</ele><time>2011-04-25T08:23:05.0000000+00:00</time></trkpt><trkpt lat="22.169724" lon="103.75705"><ele>593.9</ele><time>2011-04-25T08:23:10.0000000+00:00</time></trkpt><trkpt lat="22.169714" lon="103.757057"><ele>593.0</ele><time>2011-04-25T08:23:15.0000000+00:00</time></trkpt><trkpt lat="22.169718" lon="103.75705"><ele>592.3</ele><time>2011-04-25T08:23:20.0000000+00:00</time></trkpt><trkpt lat="22.169718" lon="103.75705"><ele>592.2</ele><time>2011-04-25T08:23:25.0000000+00:00</time></trkpt><trkpt lat="22.169716" lon="103.757057"><ele>592.0</ele><time>2011-04-25T08:23:30.0000000+00:00</time></trkpt><trkpt lat="22.16971" lon="103.757065"><ele>591.9</ele><time>2011-04-25T08:23:35.0000000+00:00</time></trkpt><trkpt lat="22.169703" lon="103.757072"><ele>591.8</ele><time>2011-04-25T08:23:40.0000000+00:00</time></trkpt><trkpt lat="22.169691" lon="103.75708"><ele>591.7</ele><time>2011-04-25T08:23:45.0000000+00:00</time></trkpt><trkpt lat="22.169664" lon="103.757088"><ele>590.3</ele><time>2011-04-25T08:23:50.0000000+00:00</time></trkpt><trkpt lat="22.169622" lon="103.757103"><ele>589.8</ele><time>2011-04-25T08:23:55.0000000+00:00</time></trkpt><trkpt lat="22.169559" lon="103.757141"><ele>588.8</ele><time>2011-04-25T08:24:00.0000000+00:00</time></trkpt><trkpt lat="22.169449" lon="103.757179"><ele>588.5</ele><time>2011-04-25T08:24:05.0000000+00:00</time></trkpt><trkpt lat="22.169313" lon="103.757225"><ele>586.8</ele><time>2011-04-25T08:24:10.0000000+00:00</time></trkpt><trkpt lat="22.16918" lon="103.757271"><ele>585.1</ele><time>2011-04-25T08:24:15.0000000+00:00</time></trkpt><trkpt lat="22.169012" lon="103.757324"><ele>584.7</ele><time>2011-04-25T08:24:20.0000000+00:00</time></trkpt><trkpt lat="22.168852" lon="103.757355"><ele>583.1</ele><time>2011-04-25T08:24:25.0000000+00:00</time></trkpt><trkpt lat="22.168713" lon="103.75737"><ele>580.5</ele><time>2011-04-25T08:24:30.0000000+00:00</time></trkpt><trkpt lat="22.168585" lon="103.757378"><ele>578.4</ele><time>2011-04-25T08:24:35.0000000+00:00</time></trkpt><trkpt lat="22.16843" lon="103.757423"><ele>578.4</ele><time>2011-04-25T08:24:40.0000000+00:00</time></trkpt><trkpt lat="22.168255" lon="103.7575"><ele>577.4</ele><time>2011-04-25T08:24:45.0000000+00:00</time></trkpt><trkpt lat="22.168045" lon="103.757599"><ele>577.8</ele><time>2011-04-25T08:24:50.0000000+00:00</time></trkpt><trkpt lat="22.167839" lon="103.757668"><ele>577.9</ele><time>2011-04-25T08:24:55.0000000+00:00</time></trkpt><trkpt lat="22.16761" lon="103.757729"><ele>578.8</ele><time>2011-04-25T08:25:00.0000000+00:00</time></trkpt><trkpt lat="22.167442" lon="103.757767"><ele>580.1</ele><time>2011-04-25T08:25:05.0000000+00:00</time></trkpt><trkpt lat="22.167278" lon="103.757813"><ele>583.9</ele><time>2011-04-25T08:25:10.0000000+00:00</time></trkpt><trkpt lat="22.167076" lon="103.757851"><ele>581.9</ele><time>2011-04-25T08:25:15.0000000+00:00</time></trkpt><trkpt lat="22.166883" lon="103.757896"><ele>576.0</ele><time>2011-04-25T08:25:20.0000000+00:00</time></trkpt><trkpt lat="22.166702" lon="103.757965"><ele>572.4</ele><time>2011-04-25T08:25:25.0000000+00:00</time></trkpt><trkpt lat="22.166525" lon="103.758034"><ele>575.1</ele><time>2011-04-25T08:25:30.0000000+00:00</time></trkpt><trkpt lat="22.166393" lon="103.758072"><ele>576.0</ele><time>2011-04-25T08:25:35.0000000+00:00</time></trkpt><trkpt lat="22.166277" lon="103.758102"><ele>577.1</ele><time>2011-04-25T08:25:40.0000000+00:00</time></trkpt><trkpt lat="22.166155" lon="103.758141"><ele>578.8</ele><time>2011-04-25T08:25:45.0000000+00:00</time></trkpt><trkpt lat="22.166031" lon="103.758202"><ele>580.6</ele><time>2011-04-25T08:25:50.0000000+00:00</time></trkpt><trkpt lat="22.165928" lon="103.758232"><ele>582.8</ele><time>2011-04-25T08:25:55.0000000+00:00</time></trkpt><trkpt lat="22.165844" lon="103.758301"><ele>584.0</ele><time>2011-04-25T08:26:00.0000000+00:00</time></trkpt><trkpt lat="22.165751" lon="103.758369"><ele>586.6</ele><time>2011-04-25T08:26:05.0000000+00:00</time></trkpt><trkpt lat="22.165661" lon="103.758423"><ele>587.4</ele><time>2011-04-25T08:26:10.0000000+00:00</time></trkpt><trkpt lat="22.165642" lon="103.758423"><ele>586.7</ele><time>2011-04-25T08:26:15.0000000+00:00</time></trkpt><trkpt lat="22.165627" lon="103.75843"><ele>587.1</ele><time>2011-04-25T08:26:20.0000000+00:00</time></trkpt><trkpt lat="22.165611" lon="103.758453"><ele>587.3</ele><time>2011-04-25T08:26:25.0000000+00:00</time></trkpt><trkpt lat="22.165617" lon="103.758461"><ele>587.5</ele><time>2011-04-25T08:26:30.0000000+00:00</time></trkpt><trkpt lat="22.165619" lon="103.758461"><ele>587.6</ele><time>2011-04-25T08:26:35.0000000+00:00</time></trkpt><trkpt lat="22.165619" lon="103.758461"><ele>587.7</ele><time>2011-04-25T08:26:40.0000000+00:00</time></trkpt><trkpt lat="22.165627" lon="103.758476"><ele>590.1</ele><time>2011-04-25T08:26:45.0000000+00:00</time></trkpt><trkpt lat="22.16563" lon="103.758476"><ele>592.6</ele><time>2011-04-25T08:26:50.0000000+00:00</time></trkpt><trkpt lat="22.165634" lon="103.758492"><ele>595.3</ele><time>2011-04-25T08:26:55.0000000+00:00</time></trkpt><trkpt lat="22.165634" lon="103.758492"><ele>595.9</ele><time>2011-04-25T08:27:00.0000000+00:00</time></trkpt><trkpt lat="22.165621" lon="103.758499"><ele>595.3</ele><time>2011-04-25T08:27:05.0000000+00:00</time></trkpt><trkpt lat="22.165615" lon="103.758499"><ele>595.5</ele><time>2011-04-25T08:27:10.0000000+00:00</time></trkpt><trkpt lat="22.165592" lon="103.75853"><ele>595.9</ele><time>2011-04-25T08:27:15.0000000+00:00</time></trkpt><trkpt lat="22.165407" lon="103.758568"><ele>596.3</ele><time>2011-04-25T08:27:20.0000000+00:00</time></trkpt><trkpt lat="22.165152" lon="103.758736"><ele>594.9</ele><time>2011-04-25T08:27:25.0000000+00:00</time></trkpt><trkpt lat="22.164852" lon="103.758949"><ele>594.0</ele><time>2011-04-25T08:27:30.0000000+00:00</time></trkpt><trkpt lat="22.164473" lon="103.759163"><ele>592.2</ele><time>2011-04-25T08:27:35.0000000+00:00</time></trkpt><trkpt lat="22.164112" lon="103.759361"><ele>591.1</ele><time>2011-04-25T08:27:40.0000000+00:00</time></trkpt><trkpt lat="22.163822" lon="103.759521"><ele>590.6</ele><time>2011-04-25T08:27:45.0000000+00:00</time></trkpt><trkpt lat="22.163601" lon="103.759651"><ele>590.1</ele><time>2011-04-25T08:27:50.0000000+00:00</time></trkpt><trkpt lat="22.163389" lon="103.759735"><ele>590.1</ele><time>2011-04-25T08:27:55.0000000+00:00</time></trkpt><trkpt lat="22.163197" lon="103.759842"><ele>590.0</ele><time>2011-04-25T08:28:00.0000000+00:00</time></trkpt><trkpt lat="22.162987" lon="103.759911"><ele>588.4</ele><time>2011-04-25T08:28:05.0000000+00:00</time></trkpt><trkpt lat="22.162788" lon="103.759911"><ele>585.0</ele><time>2011-04-25T08:28:10.0000000+00:00</time></trkpt><trkpt lat="22.162552" lon="103.759972"><ele>581.6</ele><time>2011-04-25T08:28:15.0000000+00:00</time></trkpt><trkpt lat="22.162327" lon="103.760162"><ele>579.0</ele><time>2011-04-25T08:28:20.0000000+00:00</time></trkpt><trkpt lat="22.162146" lon="103.760468"><ele>577.0</ele><time>2011-04-25T08:28:25.0000000+00:00</time></trkpt><trkpt lat="22.161934" lon="103.760841"><ele>576.0</ele><time>2011-04-25T08:28:30.0000000+00:00</time></trkpt><trkpt lat="22.161751" lon="103.761246"><ele>575.4</ele><time>2011-04-25T08:28:35.0000000+00:00</time></trkpt><trkpt lat="22.161572" lon="103.761589"><ele>574.2</ele><time>2011-04-25T08:28:40.0000000+00:00</time></trkpt><trkpt lat="22.161413" lon="103.761917"><ele>573.7</ele><time>2011-04-25T08:28:45.0000000+00:00</time></trkpt><trkpt lat="22.161255" lon="103.762238"><ele>574.4</ele><time>2011-04-25T08:28:50.0000000+00:00</time></trkpt><trkpt lat="22.1611" lon="103.762543"><ele>575.2</ele><time>2011-04-25T08:28:55.0000000+00:00</time></trkpt><trkpt lat="22.160944" lon="103.762825"><ele>576.5</ele><time>2011-04-25T08:29:00.0000000+00:00</time></trkpt><trkpt lat="22.160789" lon="103.763039"><ele>577.5</ele><time>2011-04-25T08:29:05.0000000+00:00</time></trkpt><trkpt lat="22.160576" lon="103.763191"><ele>578.0</ele><time>2011-04-25T08:29:10.0000000+00:00</time></trkpt><trkpt lat="22.160309" lon="103.763237"><ele>576.8</ele><time>2011-04-25T08:29:15.0000000+00:00</time></trkpt><trkpt lat="22.160015" lon="103.763237"><ele>575.5</ele><time>2011-04-25T08:29:20.0000000+00:00</time></trkpt><trkpt lat="22.15974" lon="103.763115"><ele>575.2</ele><time>2011-04-25T08:29:25.0000000+00:00</time></trkpt><trkpt lat="22.159483" lon="103.762924"><ele>574.6</ele><time>2011-04-25T08:29:30.0000000+00:00</time></trkpt><trkpt lat="22.159235" lon="103.762726"><ele>573.5</ele><time>2011-04-25T08:29:35.0000000+00:00</time></trkpt><trkpt lat="22.158985" lon="103.762566"><ele>574.1</ele><time>2011-04-25T08:29:40.0000000+00:00</time></trkpt><trkpt lat="22.158714" lon="103.762489"><ele>573.7</ele><time>2011-04-25T08:29:45.0000000+00:00</time></trkpt><trkpt lat="22.158421" lon="103.76252"><ele>573.5</ele><time>2011-04-25T08:29:50.0000000+00:00</time></trkpt><trkpt lat="22.158133" lon="103.762604"><ele>575.4</ele><time>2011-04-25T08:29:55.0000000+00:00</time></trkpt><trkpt lat="22.157848" lon="103.762718"><ele>575.3</ele><time>2011-04-25T08:30:00.0000000+00:00</time></trkpt><trkpt lat="22.157585" lon="103.762848"><ele>575.1</ele><time>2011-04-25T08:30:05.0000000+00:00</time></trkpt><trkpt lat="22.157364" lon="103.762993"><ele>575.1</ele><time>2011-04-25T08:30:10.0000000+00:00</time></trkpt><trkpt lat="22.157129" lon="103.763145"><ele>575.1</ele><time>2011-04-25T08:30:15.0000000+00:00</time></trkpt><trkpt lat="22.156897" lon="103.763313"><ele>575.0</ele><time>2011-04-25T08:30:20.0000000+00:00</time></trkpt><trkpt lat="22.156675" lon="103.763481"><ele>575.3</ele><time>2011-04-25T08:30:25.0000000+00:00</time></trkpt><trkpt lat="22.156477" lon="103.763649"><ele>576.2</ele><time>2011-04-25T08:30:30.0000000+00:00</time></trkpt><trkpt lat="22.156305" lon="103.763802"><ele>577.3</ele><time>2011-04-25T08:30:35.0000000+00:00</time></trkpt><trkpt lat="22.156149" lon="103.763931"><ele>578.9</ele><time>2011-04-25T08:30:40.0000000+00:00</time></trkpt><trkpt lat="22.155987" lon="103.764038"><ele>580.4</ele><time>2011-04-25T08:30:45.0000000+00:00</time></trkpt><trkpt lat="22.155844" lon="103.764084"><ele>580.9</ele><time>2011-04-25T08:30:50.0000000+00:00</time></trkpt><trkpt lat="22.155724" lon="103.764137"><ele>582.5</ele><time>2011-04-25T08:30:55.0000000+00:00</time></trkpt><trkpt lat="22.155645" lon="103.764214"><ele>585.0</ele><time>2011-04-25T08:31:00.0000000+00:00</time></trkpt><trkpt lat="22.155537" lon="103.764328"><ele>585.6</ele><time>2011-04-25T08:31:05.0000000+00:00</time></trkpt><trkpt lat="22.155437" lon="103.764389"><ele>586.7</ele><time>2011-04-25T08:31:10.0000000+00:00</time></trkpt><trkpt lat="22.155348" lon="103.76445"><ele>584.6</ele><time>2011-04-25T08:31:15.0000000+00:00</time></trkpt><trkpt lat="22.155268" lon="103.764534"><ele>584.5</ele><time>2011-04-25T08:31:20.0000000+00:00</time></trkpt><trkpt lat="22.15518" lon="103.76461"><ele>583.8</ele><time>2011-04-25T08:31:25.0000000+00:00</time></trkpt><trkpt lat="22.155066" lon="103.764694"><ele>585.3</ele><time>2011-04-25T08:31:30.0000000+00:00</time></trkpt><trkpt lat="22.154945" lon="103.764778"><ele>585.9</ele><time>2011-04-25T08:31:35.0000000+00:00</time></trkpt><trkpt lat="22.154797" lon="103.764862"><ele>587.0</ele><time>2011-04-25T08:31:40.0000000+00:00</time></trkpt><trkpt lat="22.154657" lon="103.764946"><ele>586.4</ele><time>2011-04-25T08:31:45.0000000+00:00</time></trkpt><trkpt lat="22.15456" lon="103.765068"><ele>585.6</ele><time>2011-04-25T08:31:50.0000000+00:00</time></trkpt><trkpt lat="22.154495" lon="103.765205"><ele>584.8</ele><time>2011-04-25T08:31:55.0000000+00:00</time></trkpt><trkpt lat="22.154463" lon="103.765373"><ele>579.3</ele><time>2011-04-25T08:32:00.0000000+00:00</time></trkpt><trkpt lat="22.154444" lon="103.765549"><ele>580.4</ele><time>2011-04-25T08:32:05.0000000+00:00</time></trkpt><trkpt lat="22.154432" lon="103.765755"><ele>579.0</ele><time>2011-04-25T08:32:10.0000000+00:00</time></trkpt><trkpt lat="22.15444" lon="103.765953"><ele>578.8</ele><time>2011-04-25T08:32:15.0000000+00:00</time></trkpt><trkpt lat="22.154432" lon="103.766129"><ele>579.8</ele><time>2011-04-25T08:32:20.0000000+00:00</time></trkpt><trkpt lat="22.154438" lon="103.766304"><ele>579.7</ele><time>2011-04-25T08:32:25.0000000+00:00</time></trkpt><trkpt lat="22.15444" lon="103.766464"><ele>580.9</ele><time>2011-04-25T08:32:30.0000000+00:00</time></trkpt><trkpt lat="22.154442" lon="103.766617"><ele>582.0</ele><time>2011-04-25T08:32:35.0000000+00:00</time></trkpt><trkpt lat="22.15444" lon="103.766754"><ele>582.8</ele><time>2011-04-25T08:32:40.0000000+00:00</time></trkpt><trkpt lat="22.15439" lon="103.766907"><ele>587.9</ele><time>2011-04-25T08:32:45.0000000+00:00</time></trkpt><trkpt lat="22.154392" lon="103.767036"><ele>589.2</ele><time>2011-04-25T08:32:50.0000000+00:00</time></trkpt><trkpt lat="22.154392" lon="103.767159"><ele>589.9</ele><time>2011-04-25T08:32:55.0000000+00:00</time></trkpt><trkpt lat="22.154392" lon="103.767273"><ele>590.5</ele><time>2011-04-25T08:33:00.0000000+00:00</time></trkpt><trkpt lat="22.154392" lon="103.76738"><ele>591.1</ele><time>2011-04-25T08:33:05.0000000+00:00</time></trkpt><trkpt lat="22.154387" lon="103.767494"><ele>591.6</ele><time>2011-04-25T08:33:10.0000000+00:00</time></trkpt><trkpt lat="22.154385" lon="103.767601"><ele>592.2</ele><time>2011-04-25T08:33:15.0000000+00:00</time></trkpt><trkpt lat="22.154392" lon="103.767715"><ele>592.6</ele><time>2011-04-25T08:33:20.0000000+00:00</time></trkpt><trkpt lat="22.154394" lon="103.767838"><ele>592.2</ele><time>2011-04-25T08:33:25.0000000+00:00</time></trkpt><trkpt lat="22.154385" lon="103.76799"><ele>591.5</ele><time>2011-04-25T08:33:30.0000000+00:00</time></trkpt><trkpt lat="22.154379" lon="103.76815"><ele>591.6</ele><time>2011-04-25T08:33:35.0000000+00:00</time></trkpt><trkpt lat="22.154375" lon="103.768318"><ele>592.0</ele><time>2011-04-25T08:33:40.0000000+00:00</time></trkpt><trkpt lat="22.154379" lon="103.768478"><ele>592.8</ele><time>2011-04-25T08:33:45.0000000+00:00</time></trkpt><trkpt lat="22.154385" lon="103.768654"><ele>593.2</ele><time>2011-04-25T08:33:50.0000000+00:00</time></trkpt><trkpt lat="22.154383" lon="103.768829"><ele>593.2</ele><time>2011-04-25T08:33:55.0000000+00:00</time></trkpt><trkpt lat="22.154373" lon="103.769005"><ele>593.8</ele><time>2011-04-25T08:34:00.0000000+00:00</time></trkpt><trkpt lat="22.154348" lon="103.769157"><ele>594.1</ele><time>2011-04-25T08:34:05.0000000+00:00</time></trkpt><trkpt lat="22.154327" lon="103.769264"><ele>594.8</ele><time>2011-04-25T08:34:10.0000000+00:00</time></trkpt><trkpt lat="22.154291" lon="103.769363"><ele>595.4</ele><time>2011-04-25T08:34:15.0000000+00:00</time></trkpt><trkpt lat="22.154259" lon="103.769493"><ele>595.1</ele><time>2011-04-25T08:34:20.0000000+00:00</time></trkpt><trkpt lat="22.154222" lon="103.769608"><ele>594.9</ele><time>2011-04-25T08:34:25.0000000+00:00</time></trkpt><trkpt lat="22.154182" lon="103.769699"><ele>594.2</ele><time>2011-04-25T08:34:30.0000000+00:00</time></trkpt><trkpt lat="22.154142" lon="103.769821"><ele>592.1</ele><time>2011-04-25T08:34:35.0000000+00:00</time></trkpt><trkpt lat="22.154078" lon="103.769958"><ele>592.3</ele><time>2011-04-25T08:34:40.0000000+00:00</time></trkpt><trkpt lat="22.153969" lon="103.770134"><ele>592.5</ele><time>2011-04-25T08:34:45.0000000+00:00</time></trkpt><trkpt lat="22.153841" lon="103.770325"><ele>594.8</ele><time>2011-04-25T08:34:50.0000000+00:00</time></trkpt><trkpt lat="22.153723" lon="103.770523"><ele>595.6</ele><time>2011-04-25T08:34:55.0000000+00:00</time></trkpt><trkpt lat="22.15361" lon="103.770683"><ele>596.4</ele><time>2011-04-25T08:35:00.0000000+00:00</time></trkpt><trkpt lat="22.15354" lon="103.770813"><ele>597.8</ele><time>2011-04-25T08:35:05.0000000+00:00</time></trkpt><trkpt lat="22.153471" lon="103.770912"><ele>599.1</ele><time>2011-04-25T08:35:10.0000000+00:00</time></trkpt><trkpt lat="22.153406" lon="103.771019"><ele>600.9</ele><time>2011-04-25T08:35:15.0000000+00:00</time></trkpt><trkpt lat="22.153349" lon="103.771103"><ele>602.4</ele><time>2011-04-25T08:35:20.0000000+00:00</time></trkpt><trkpt lat="22.153278" lon="103.771187"><ele>604.3</ele><time>2011-04-25T08:35:25.0000000+00:00</time></trkpt><trkpt lat="22.153225" lon="103.771255"><ele>605.9</ele><time>2011-04-25T08:35:30.0000000+00:00</time></trkpt><trkpt lat="22.153172" lon="103.771355"><ele>606.3</ele><time>2011-04-25T08:35:35.0000000+00:00</time></trkpt><trkpt lat="22.153099" lon="103.771439"><ele>605.4</ele><time>2011-04-25T08:35:40.0000000+00:00</time></trkpt><trkpt lat="22.153046" lon="103.771545"><ele>602.9</ele><time>2011-04-25T08:35:45.0000000+00:00</time></trkpt><trkpt lat="22.152958" lon="103.771652"><ele>602.7</ele><time>2011-04-25T08:35:50.0000000+00:00</time></trkpt><trkpt lat="22.152855" lon="103.771797"><ele>599.6</ele><time>2011-04-25T08:35:55.0000000+00:00</time></trkpt><trkpt lat="22.152735" lon="103.772003"><ele>597.0</ele><time>2011-04-25T08:36:00.0000000+00:00</time></trkpt><trkpt lat="22.152607" lon="103.772247"><ele>596.3</ele><time>2011-04-25T08:36:05.0000000+00:00</time></trkpt><trkpt lat="22.152493" lon="103.772438"><ele>594.5</ele><time>2011-04-25T08:36:10.0000000+00:00</time></trkpt><trkpt lat="22.152374" lon="103.772583"><ele>594.4</ele><time>2011-04-25T08:36:15.0000000+00:00</time></trkpt><trkpt lat="22.152271" lon="103.772766"><ele>595.8</ele><time>2011-04-25T08:36:20.0000000+00:00</time></trkpt><trkpt lat="22.152174" lon="103.772911"><ele>596.2</ele><time>2011-04-25T08:36:25.0000000+00:00</time></trkpt><trkpt lat="22.152073" lon="103.773079"><ele>596.0</ele><time>2011-04-25T08:36:30.0000000+00:00</time></trkpt><trkpt lat="22.151974" lon="103.773254"><ele>594.8</ele><time>2011-04-25T08:36:35.0000000+00:00</time></trkpt><trkpt lat="22.151878" lon="103.773384"><ele>597.1</ele><time>2011-04-25T08:36:40.0000000+00:00</time></trkpt><trkpt lat="22.151777" lon="103.773521"><ele>598.1</ele><time>2011-04-25T08:36:45.0000000+00:00</time></trkpt><trkpt lat="22.151651" lon="103.773659"><ele>604.4</ele><time>2011-04-25T08:36:50.0000000+00:00</time></trkpt><trkpt lat="22.151512" lon="103.773788"><ele>607.5</ele><time>2011-04-25T08:36:55.0000000+00:00</time></trkpt><trkpt lat="22.151377" lon="103.77388"><ele>608.6</ele><time>2011-04-25T08:37:00.0000000+00:00</time></trkpt><trkpt lat="22.151247" lon="103.774002"><ele>607.0</ele><time>2011-04-25T08:37:05.0000000+00:00</time></trkpt><trkpt lat="22.151121" lon="103.774117"><ele>608.9</ele><time>2011-04-25T08:37:10.0000000+00:00</time></trkpt><trkpt lat="22.150995" lon="103.774193"><ele>608.2</ele><time>2011-04-25T08:37:15.0000000+00:00</time></trkpt><trkpt lat="22.150803" lon="103.774307"><ele>607.6</ele><time>2011-04-25T08:37:20.0000000+00:00</time></trkpt><trkpt lat="22.150545" lon="103.774506"><ele>603.6</ele><time>2011-04-25T08:37:25.0000000+00:00</time></trkpt><trkpt lat="22.150208" lon="103.774765"><ele>600.2</ele><time>2011-04-25T08:37:30.0000000+00:00</time></trkpt><trkpt lat="22.149796" lon="103.77507"><ele>599.7</ele><time>2011-04-25T08:37:35.0000000+00:00</time></trkpt><trkpt lat="22.149385" lon="103.775398"><ele>599.3</ele><time>2011-04-25T08:37:40.0000000+00:00</time></trkpt><trkpt lat="22.149027" lon="103.775658"><ele>599.0</ele><time>2011-04-25T08:37:45.0000000+00:00</time></trkpt><trkpt lat="22.148712" lon="103.775887"><ele>598.6</ele><time>2011-04-25T08:37:50.0000000+00:00</time></trkpt><trkpt lat="22.148451" lon="103.776085"><ele>600.2</ele><time>2011-04-25T08:37:55.0000000+00:00</time></trkpt><trkpt lat="22.148188" lon="103.776291"><ele>603.1</ele><time>2011-04-25T08:38:00.0000000+00:00</time></trkpt><trkpt lat="22.147909" lon="103.776451"><ele>602.5</ele><time>2011-04-25T08:38:05.0000000+00:00</time></trkpt><trkpt lat="22.147682" lon="103.776619"><ele>604.3</ele><time>2011-04-25T08:38:10.0000000+00:00</time></trkpt><trkpt lat="22.147497" lon="103.776756"><ele>605.1</ele><time>2011-04-25T08:38:15.0000000+00:00</time></trkpt><trkpt lat="22.147329" lon="103.776924"><ele>603.7</ele><time>2011-04-25T08:38:20.0000000+00:00</time></trkpt><trkpt lat="22.147211" lon="103.777107"><ele>604.0</ele><time>2011-04-25T08:38:25.0000000+00:00</time></trkpt><trkpt lat="22.147076" lon="103.777298"><ele>603.4</ele><time>2011-04-25T08:38:30.0000000+00:00</time></trkpt><trkpt lat="22.146887" lon="103.777473"><ele>603.1</ele><time>2011-04-25T08:38:35.0000000+00:00</time></trkpt><trkpt lat="22.146669" lon="103.777565"><ele>606.3</ele><time>2011-04-25T08:38:40.0000000+00:00</time></trkpt><trkpt lat="22.146444" lon="103.777664"><ele>607.1</ele><time>2011-04-25T08:38:45.0000000+00:00</time></trkpt><trkpt lat="22.146206" lon="103.777802"><ele>608.1</ele><time>2011-04-25T08:38:50.0000000+00:00</time></trkpt><trkpt lat="22.146088" lon="103.778053"><ele>608.8</ele><time>2011-04-25T08:38:55.0000000+00:00</time></trkpt><trkpt lat="22.145933" lon="103.778267"><ele>605.0</ele><time>2011-04-25T08:39:00.0000000+00:00</time></trkpt><trkpt lat="22.145716" lon="103.778549"><ele>605.4</ele><time>2011-04-25T08:39:05.0000000+00:00</time></trkpt><trkpt lat="22.145512" lon="103.778816"><ele>605.5</ele><time>2011-04-25T08:39:10.0000000+00:00</time></trkpt><trkpt lat="22.145294" lon="103.779022"><ele>603.8</ele><time>2011-04-25T08:39:15.0000000+00:00</time></trkpt><trkpt lat="22.145081" lon="103.779236"><ele>603.4</ele><time>2011-04-25T08:39:20.0000000+00:00</time></trkpt><trkpt lat="22.144867" lon="103.779457"><ele>602.2</ele><time>2011-04-25T08:39:25.0000000+00:00</time></trkpt><trkpt lat="22.144629" lon="103.779625"><ele>601.7</ele><time>2011-04-25T08:39:30.0000000+00:00</time></trkpt><trkpt lat="22.144394" lon="103.779663"><ele>602.6</ele><time>2011-04-25T08:39:35.0000000+00:00</time></trkpt><trkpt lat="22.14418" lon="103.779678"><ele>603.7</ele><time>2011-04-25T08:39:40.0000000+00:00</time></trkpt><trkpt lat="22.143934" lon="103.779709"><ele>606.1</ele><time>2011-04-25T08:39:45.0000000+00:00</time></trkpt><trkpt lat="22.143711" lon="103.779747"><ele>605.6</ele><time>2011-04-25T08:39:50.0000000+00:00</time></trkpt><trkpt lat="22.143503" lon="103.779793"><ele>604.8</ele><time>2011-04-25T08:39:55.0000000+00:00</time></trkpt><trkpt lat="22.14329" lon="103.779869"><ele>605.0</ele><time>2011-04-25T08:40:00.0000000+00:00</time></trkpt><trkpt lat="22.143068" lon="103.779961"><ele>606.1</ele><time>2011-04-25T08:40:05.0000000+00:00</time></trkpt><trkpt lat="22.142878" lon="103.780037"><ele>608.7</ele><time>2011-04-25T08:40:10.0000000+00:00</time></trkpt><trkpt lat="22.142714" lon="103.780151"><ele>608.8</ele><time>2011-04-25T08:40:15.0000000+00:00</time></trkpt><trkpt lat="22.142548" lon="103.780304"><ele>607.3</ele><time>2011-04-25T08:40:20.0000000+00:00</time></trkpt><trkpt lat="22.142382" lon="103.780479"><ele>606.9</ele><time>2011-04-25T08:40:25.0000000+00:00</time></trkpt><trkpt lat="22.142216" lon="103.780617"><ele>606.1</ele><time>2011-04-25T08:40:30.0000000+00:00</time></trkpt><trkpt lat="22.142057" lon="103.780724"><ele>605.3</ele><time>2011-04-25T08:40:35.0000000+00:00</time></trkpt><trkpt lat="22.14188" lon="103.780815"><ele>605.8</ele><time>2011-04-25T08:40:40.0000000+00:00</time></trkpt><trkpt lat="22.141697" lon="103.780907"><ele>605.5</ele><time>2011-04-25T08:40:45.0000000+00:00</time></trkpt><trkpt lat="22.141491" lon="103.780998"><ele>609.6</ele><time>2011-04-25T08:40:50.0000000+00:00</time></trkpt><trkpt lat="22.141335" lon="103.78109"><ele>612.2</ele><time>2011-04-25T08:40:55.0000000+00:00</time></trkpt><trkpt lat="22.141171" lon="103.781174"><ele>612.4</ele><time>2011-04-25T08:41:00.0000000+00:00</time></trkpt><trkpt lat="22.141018" lon="103.781242"><ele>613.8</ele><time>2011-04-25T08:41:05.0000000+00:00</time></trkpt><trkpt lat="22.140856" lon="103.781319"><ele>615.1</ele><time>2011-04-25T08:41:10.0000000+00:00</time></trkpt><trkpt lat="22.140703" lon="103.781364"><ele>615.9</ele><time>2011-04-25T08:41:15.0000000+00:00</time></trkpt><trkpt lat="22.140587" lon="103.781425"><ele>618.0</ele><time>2011-04-25T08:41:20.0000000+00:00</time></trkpt><trkpt lat="22.140499" lon="103.781502"><ele>620.2</ele><time>2011-04-25T08:41:25.0000000+00:00</time></trkpt><trkpt lat="22.140409" lon="103.78154"><ele>621.9</ele><time>2011-04-25T08:41:30.0000000+00:00</time></trkpt><trkpt lat="22.140276" lon="103.781601"><ele>623.6</ele><time>2011-04-25T08:41:35.0000000+00:00</time></trkpt><trkpt lat="22.1401" lon="103.781654"><ele>611.2</ele><time>2011-04-25T08:41:40.0000000+00:00</time></trkpt><trkpt lat="22.139893" lon="103.781845"><ele>602.9</ele><time>2011-04-25T08:41:45.0000000+00:00</time></trkpt><trkpt lat="22.139645" lon="103.782043"><ele>602.5</ele><time>2011-04-25T08:41:50.0000000+00:00</time></trkpt><trkpt lat="22.139397" lon="103.782242"><ele>599.9</ele><time>2011-04-25T08:41:55.0000000+00:00</time></trkpt><trkpt lat="22.139074" lon="103.782516"><ele>601.1</ele><time>2011-04-25T08:42:00.0000000+00:00</time></trkpt><trkpt lat="22.138773" lon="103.782738"><ele>600.1</ele><time>2011-04-25T08:42:05.0000000+00:00</time></trkpt><trkpt lat="22.138531" lon="103.782906"><ele>601.0</ele><time>2011-04-25T08:42:10.0000000+00:00</time></trkpt><trkpt lat="22.138338" lon="103.783066"><ele>602.6</ele><time>2011-04-25T08:42:15.0000000+00:00</time></trkpt><trkpt lat="22.138214" lon="103.783173"><ele>601.6</ele><time>2011-04-25T08:42:20.0000000+00:00</time></trkpt><trkpt lat="22.138123" lon="103.783287"><ele>601.9</ele><time>2011-04-25T08:42:25.0000000+00:00</time></trkpt><trkpt lat="22.138041" lon="103.783371"><ele>601.7</ele><time>2011-04-25T08:42:30.0000000+00:00</time></trkpt><trkpt lat="22.137939" lon="103.78347"><ele>603.0</ele><time>2011-04-25T08:42:35.0000000+00:00</time></trkpt><trkpt lat="22.137859" lon="103.783546"><ele>602.6</ele><time>2011-04-25T08:42:40.0000000+00:00</time></trkpt><trkpt lat="22.137814" lon="103.7836"><ele>601.9</ele><time>2011-04-25T08:42:45.0000000+00:00</time></trkpt><trkpt lat="22.13781" lon="103.7836"><ele>602.6</ele><time>2011-04-25T08:42:50.0000000+00:00</time></trkpt><trkpt lat="22.137808" lon="103.7836"><ele>602.8</ele><time>2011-04-25T08:42:55.0000000+00:00</time></trkpt><trkpt lat="22.137808" lon="103.7836"><ele>602.8</ele><time>2011-04-25T08:43:00.0000000+00:00</time></trkpt><trkpt lat="22.137808" lon="103.7836"><ele>602.8</ele><time>2011-04-25T08:43:05.0000000+00:00</time></trkpt><trkpt lat="22.137808" lon="103.7836"><ele>602.8</ele><time>2011-04-25T08:43:10.0000000+00:00</time></trkpt><trkpt lat="22.137808" lon="103.7836"><ele>602.8</ele><time>2011-04-25T08:43:15.0000000+00:00</time></trkpt><trkpt lat="22.137808" lon="103.7836"><ele>602.8</ele><time>2011-04-25T08:43:20.0000000+00:00</time></trkpt><trkpt lat="22.137808" lon="103.7836"><ele>602.7</ele><time>2011-04-25T08:43:25.0000000+00:00</time></trkpt><trkpt lat="22.137808" lon="103.7836"><ele>602.7</ele><time>2011-04-25T08:43:30.0000000+00:00</time></trkpt><trkpt lat="22.137808" lon="103.7836"><ele>602.7</ele><time>2011-04-25T08:43:35.0000000+00:00</time></trkpt><trkpt lat="22.13781" lon="103.7836"><ele>602.7</ele><time>2011-04-25T08:43:40.0000000+00:00</time></trkpt><trkpt lat="22.137808" lon="103.7836"><ele>602.7</ele><time>2011-04-25T08:43:45.0000000+00:00</time></trkpt><trkpt lat="22.137808" lon="103.7836"><ele>602.7</ele><time>2011-04-25T08:43:50.0000000+00:00</time></trkpt><trkpt lat="22.137808" lon="103.7836"><ele>602.7</ele><time>2011-04-25T08:43:55.0000000+00:00</time></trkpt><trkpt lat="22.137808" lon="103.7836"><ele>602.7</ele><time>2011-04-25T08:44:00.0000000+00:00</time></trkpt><trkpt lat="22.137808" lon="103.7836"><ele>602.6</ele><time>2011-04-25T08:44:05.0000000+00:00</time></trkpt><trkpt lat="22.137808" lon="103.7836"><ele>602.6</ele><time>2011-04-25T08:44:10.0000000+00:00</time></trkpt><trkpt lat="22.13781" lon="103.7836"><ele>602.6</ele><time>2011-04-25T08:44:15.0000000+00:00</time></trkpt><trkpt lat="22.13781" lon="103.7836"><ele>602.6</ele><time>2011-04-25T08:44:20.0000000+00:00</time></trkpt><trkpt lat="22.13781" lon="103.7836"><ele>602.6</ele><time>2011-04-25T08:44:25.0000000+00:00</time></trkpt><trkpt lat="22.13781" lon="103.7836"><ele>602.6</ele><time>2011-04-25T08:44:30.0000000+00:00</time></trkpt><trkpt lat="22.13781" lon="103.783607"><ele>602.6</ele><time>2011-04-25T08:44:35.0000000+00:00</time></trkpt><trkpt lat="22.13781" lon="103.783607"><ele>602.6</ele><time>2011-04-25T08:44:40.0000000+00:00</time></trkpt><trkpt lat="22.13781" lon="103.783607"><ele>602.6</ele><time>2011-04-25T08:44:45.0000000+00:00</time></trkpt><trkpt lat="22.13781" lon="103.783607"><ele>602.6</ele><time>2011-04-25T08:44:50.0000000+00:00</time></trkpt><trkpt lat="22.13781" lon="103.783607"><ele>602.6</ele><time>2011-04-25T08:44:55.0000000+00:00</time></trkpt><trkpt lat="22.13781" lon="103.783607"><ele>602.6</ele><time>2011-04-25T08:45:00.0000000+00:00</time></trkpt><trkpt lat="22.13781" lon="103.783607"><ele>602.6</ele><time>2011-04-25T08:45:05.0000000+00:00</time></trkpt><trkpt lat="22.13781" lon="103.783607"><ele>602.6</ele><time>2011-04-25T08:45:10.0000000+00:00</time></trkpt><trkpt lat="22.13781" lon="103.783607"><ele>602.6</ele><time>2011-04-25T08:45:15.0000000+00:00</time></trkpt><trkpt lat="22.13781" lon="103.783607"><ele>602.6</ele><time>2011-04-25T08:45:20.0000000+00:00</time></trkpt><trkpt lat="22.13781" lon="103.783607"><ele>602.6</ele><time>2011-04-25T08:45:25.0000000+00:00</time></trkpt><trkpt lat="22.13781" lon="103.783607"><ele>602.6</ele><time>2011-04-25T08:45:30.0000000+00:00</time></trkpt><trkpt lat="22.13781" lon="103.783607"><ele>602.6</ele><time>2011-04-25T08:45:35.0000000+00:00</time></trkpt><trkpt lat="22.13781" lon="103.783607"><ele>602.6</ele><time>2011-04-25T08:45:40.0000000+00:00</time></trkpt><trkpt lat="22.13781" lon="103.783607"><ele>602.6</ele><time>2011-04-25T08:45:45.0000000+00:00</time></trkpt><trkpt lat="22.13781" lon="103.783607"><ele>602.6</ele><time>2011-04-25T08:45:50.0000000+00:00</time></trkpt><trkpt lat="22.13781" lon="103.783607"><ele>602.6</ele><time>2011-04-25T08:45:55.0000000+00:00</time></trkpt><trkpt lat="22.13781" lon="103.783615"><ele>602.6</ele><time>2011-04-25T08:46:00.0000000+00:00</time></trkpt><trkpt lat="22.13781" lon="103.783615"><ele>602.6</ele><time>2011-04-25T08:46:05.0000000+00:00</time></trkpt><trkpt lat="22.13781" lon="103.783615"><ele>602.6</ele><time>2011-04-25T08:46:10.0000000+00:00</time></trkpt><trkpt lat="22.13781" lon="103.783615"><ele>602.7</ele><time>2011-04-25T08:46:15.0000000+00:00</time></trkpt><trkpt lat="22.13781" lon="103.783615"><ele>602.7</ele><time>2011-04-25T08:46:20.0000000+00:00</time></trkpt><trkpt lat="22.13781" lon="103.783615"><ele>602.7</ele><time>2011-04-25T08:46:25.0000000+00:00</time></trkpt><trkpt lat="22.13781" lon="103.783615"><ele>602.7</ele><time>2011-04-25T08:46:30.0000000+00:00</time></trkpt><trkpt lat="22.13781" lon="103.783615"><ele>602.7</ele><time>2011-04-25T08:46:35.0000000+00:00</time></trkpt><trkpt lat="22.13781" lon="103.783615"><ele>602.7</ele><time>2011-04-25T08:46:40.0000000+00:00</time></trkpt><trkpt lat="22.13781" lon="103.783615"><ele>602.7</ele><time>2011-04-25T08:46:45.0000000+00:00</time></trkpt><trkpt lat="22.13781" lon="103.783615"><ele>602.7</ele><time>2011-04-25T08:46:50.0000000+00:00</time></trkpt><trkpt lat="22.13781" lon="103.783615"><ele>602.8</ele><time>2011-04-25T08:46:55.0000000+00:00</time></trkpt><trkpt lat="22.13781" lon="103.783615"><ele>602.8</ele><time>2011-04-25T08:47:00.0000000+00:00</time></trkpt><trkpt lat="22.13781" lon="103.783615"><ele>602.8</ele><time>2011-04-25T08:47:05.0000000+00:00</time></trkpt><trkpt lat="22.13781" lon="103.783615"><ele>602.8</ele><time>2011-04-25T08:47:10.0000000+00:00</time></trkpt><trkpt lat="22.13781" lon="103.783615"><ele>602.8</ele><time>2011-04-25T08:47:15.0000000+00:00</time></trkpt><trkpt lat="22.13781" lon="103.783615"><ele>602.8</ele><time>2011-04-25T08:47:20.0000000+00:00</time></trkpt><trkpt lat="22.13781" lon="103.783615"><ele>602.8</ele><time>2011-04-25T08:47:25.0000000+00:00</time></trkpt><trkpt lat="22.13781" lon="103.783623"><ele>602.8</ele><time>2011-04-25T08:47:30.0000000+00:00</time></trkpt><trkpt lat="22.13781" lon="103.783623"><ele>602.8</ele><time>2011-04-25T08:47:35.0000000+00:00</time></trkpt><trkpt lat="22.13781" lon="103.783623"><ele>602.8</ele><time>2011-04-25T08:47:40.0000000+00:00</time></trkpt><trkpt lat="22.13781" lon="103.783623"><ele>602.8</ele><time>2011-04-25T08:47:45.0000000+00:00</time></trkpt><trkpt lat="22.13781" lon="103.783623"><ele>602.8</ele><time>2011-04-25T08:47:50.0000000+00:00</time></trkpt><trkpt lat="22.13781" lon="103.783623"><ele>602.8</ele><time>2011-04-25T08:47:55.0000000+00:00</time></trkpt><trkpt lat="22.13781" lon="103.783623"><ele>602.9</ele><time>2011-04-25T08:48:00.0000000+00:00</time></trkpt><trkpt lat="22.13781" lon="103.783623"><ele>602.9</ele><time>2011-04-25T08:48:05.0000000+00:00</time></trkpt><trkpt lat="22.137812" lon="103.783623"><ele>602.9</ele><time>2011-04-25T08:48:10.0000000+00:00</time></trkpt><trkpt lat="22.137812" lon="103.783623"><ele>602.9</ele><time>2011-04-25T08:48:15.0000000+00:00</time></trkpt><trkpt lat="22.137812" lon="103.783623"><ele>602.9</ele><time>2011-04-25T08:48:20.0000000+00:00</time></trkpt><trkpt lat="22.137812" lon="103.783623"><ele>602.9</ele><time>2011-04-25T08:48:25.0000000+00:00</time></trkpt><trkpt lat="22.137812" lon="103.783623"><ele>602.9</ele><time>2011-04-25T08:48:30.0000000+00:00</time></trkpt><trkpt lat="22.137812" lon="103.783623"><ele>602.9</ele><time>2011-04-25T08:48:35.0000000+00:00</time></trkpt><trkpt lat="22.137812" lon="103.783623"><ele>602.9</ele><time>2011-04-25T08:48:40.0000000+00:00</time></trkpt><trkpt lat="22.137812" lon="103.783623"><ele>602.8</ele><time>2011-04-25T08:48:45.0000000+00:00</time></trkpt><trkpt lat="22.137812" lon="103.783623"><ele>602.9</ele><time>2011-04-25T08:48:50.0000000+00:00</time></trkpt><trkpt lat="22.137812" lon="103.783623"><ele>602.9</ele><time>2011-04-25T08:48:55.0000000+00:00</time></trkpt><trkpt lat="22.137812" lon="103.783623"><ele>602.9</ele><time>2011-04-25T08:49:00.0000000+00:00</time></trkpt><trkpt lat="22.137812" lon="103.783623"><ele>602.8</ele><time>2011-04-25T08:49:05.0000000+00:00</time></trkpt><trkpt lat="22.137812" lon="103.783623"><ele>602.8</ele><time>2011-04-25T08:49:10.0000000+00:00</time></trkpt><trkpt lat="22.137812" lon="103.783623"><ele>602.9</ele><time>2011-04-25T08:49:15.0000000+00:00</time></trkpt><trkpt lat="22.137812" lon="103.783623"><ele>602.9</ele><time>2011-04-25T08:49:20.0000000+00:00</time></trkpt><trkpt lat="22.137812" lon="103.783623"><ele>602.9</ele><time>2011-04-25T08:49:25.0000000+00:00</time></trkpt><trkpt lat="22.137812" lon="103.783623"><ele>602.9</ele><time>2011-04-25T08:49:30.0000000+00:00</time></trkpt><trkpt lat="22.137812" lon="103.783623"><ele>602.9</ele><time>2011-04-25T08:49:35.0000000+00:00</time></trkpt><trkpt lat="22.137812" lon="103.783623"><ele>602.9</ele><time>2011-04-25T08:49:40.0000000+00:00</time></trkpt><trkpt lat="22.137812" lon="103.783623"><ele>602.9</ele><time>2011-04-25T08:49:45.0000000+00:00</time></trkpt><trkpt lat="22.137812" lon="103.78363"><ele>602.9</ele><time>2011-04-25T08:49:50.0000000+00:00</time></trkpt><trkpt lat="22.137812" lon="103.78363"><ele>602.9</ele><time>2011-04-25T08:49:55.0000000+00:00</time></trkpt><trkpt lat="22.137812" lon="103.78363"><ele>602.9</ele><time>2011-04-25T08:50:00.0000000+00:00</time></trkpt><trkpt lat="22.137812" lon="103.78363"><ele>602.9</ele><time>2011-04-25T08:50:05.0000000+00:00</time></trkpt><trkpt lat="22.137812" lon="103.78363"><ele>602.9</ele><time>2011-04-25T08:50:10.0000000+00:00</time></trkpt><trkpt lat="22.137812" lon="103.78363"><ele>602.9</ele><time>2011-04-25T08:50:15.0000000+00:00</time></trkpt><trkpt lat="22.137812" lon="103.78363"><ele>602.9</ele><time>2011-04-25T08:50:20.0000000+00:00</time></trkpt><trkpt lat="22.137812" lon="103.78363"><ele>602.9</ele><time>2011-04-25T08:50:25.0000000+00:00</time></trkpt><trkpt lat="22.137812" lon="103.78363"><ele>602.9</ele><time>2011-04-25T08:50:30.0000000+00:00</time></trkpt><trkpt lat="22.137814" lon="103.78363"><ele>602.9</ele><time>2011-04-25T08:50:35.0000000+00:00</time></trkpt><trkpt lat="22.137812" lon="103.78363"><ele>603.0</ele><time>2011-04-25T08:50:40.0000000+00:00</time></trkpt><trkpt lat="22.137812" lon="103.78363"><ele>603.0</ele><time>2011-04-25T08:50:45.0000000+00:00</time></trkpt><trkpt lat="22.137812" lon="103.78363"><ele>603.1</ele><time>2011-04-25T08:50:50.0000000+00:00</time></trkpt><trkpt lat="22.137812" lon="103.78363"><ele>603.1</ele><time>2011-04-25T08:50:55.0000000+00:00</time></trkpt><trkpt lat="22.137774" lon="103.783661"><ele>603.6</ele><time>2011-04-25T08:51:00.0000000+00:00</time></trkpt><trkpt lat="22.137638" lon="103.783829"><ele>603.8</ele><time>2011-04-25T08:51:05.0000000+00:00</time></trkpt><trkpt lat="22.137476" lon="103.784027"><ele>604.3</ele><time>2011-04-25T08:51:10.0000000+00:00</time></trkpt><trkpt lat="22.137297" lon="103.784248"><ele>604.4</ele><time>2011-04-25T08:51:15.0000000+00:00</time></trkpt><trkpt lat="22.137115" lon="103.784462"><ele>604.4</ele><time>2011-04-25T08:51:20.0000000+00:00</time></trkpt><trkpt lat="22.136932" lon="103.784714"><ele>605.4</ele><time>2011-04-25T08:51:25.0000000+00:00</time></trkpt><trkpt lat="22.136709" lon="103.784981"><ele>605.3</ele><time>2011-04-25T08:51:30.0000000+00:00</time></trkpt><trkpt lat="22.136438" lon="103.785324"><ele>602.6</ele><time>2011-04-25T08:51:35.0000000+00:00</time></trkpt><trkpt lat="22.136148" lon="103.785698"><ele>601.9</ele><time>2011-04-25T08:51:40.0000000+00:00</time></trkpt><trkpt lat="22.135887" lon="103.786018"><ele>600.4</ele><time>2011-04-25T08:51:45.0000000+00:00</time></trkpt><trkpt lat="22.135611" lon="103.786377"><ele>599.0</ele><time>2011-04-25T08:51:50.0000000+00:00</time></trkpt><trkpt lat="22.135305" lon="103.786758"><ele>596.2</ele><time>2011-04-25T08:51:55.0000000+00:00</time></trkpt><trkpt lat="22.134996" lon="103.787117"><ele>594.6</ele><time>2011-04-25T08:52:00.0000000+00:00</time></trkpt><trkpt lat="22.134678" lon="103.787468"><ele>594.6</ele><time>2011-04-25T08:52:05.0000000+00:00</time></trkpt><trkpt lat="22.134365" lon="103.787781"><ele>595.3</ele><time>2011-04-25T08:52:10.0000000+00:00</time></trkpt><trkpt lat="22.134052" lon="103.788094"><ele>597.0</ele><time>2011-04-25T08:52:15.0000000+00:00</time></trkpt><trkpt lat="22.133755" lon="103.788361"><ele>597.8</ele><time>2011-04-25T08:52:20.0000000+00:00</time></trkpt><trkpt lat="22.133503" lon="103.788589"><ele>598.0</ele><time>2011-04-25T08:52:25.0000000+00:00</time></trkpt><trkpt lat="22.133295" lon="103.788757"><ele>597.4</ele><time>2011-04-25T08:52:30.0000000+00:00</time></trkpt><trkpt lat="22.133121" lon="103.788933"><ele>598.9</ele><time>2011-04-25T08:52:35.0000000+00:00</time></trkpt><trkpt lat="22.132973" lon="103.789101"><ele>600.5</ele><time>2011-04-25T08:52:40.0000000+00:00</time></trkpt><trkpt lat="22.132839" lon="103.789268"><ele>602.2</ele><time>2011-04-25T08:52:45.0000000+00:00</time></trkpt><trkpt lat="22.132675" lon="103.789497"><ele>602.0</ele><time>2011-04-25T08:52:50.0000000+00:00</time></trkpt><trkpt lat="22.132465" lon="103.789719"><ele>601.2</ele><time>2011-04-25T08:52:55.0000000+00:00</time></trkpt><trkpt lat="22.132254" lon="103.789932"><ele>602.5</ele><time>2011-04-25T08:53:00.0000000+00:00</time></trkpt><trkpt lat="22.132057" lon="103.790161"><ele>602.4</ele><time>2011-04-25T08:53:05.0000000+00:00</time></trkpt><trkpt lat="22.13184" lon="103.790413"><ele>603.9</ele><time>2011-04-25T08:53:10.0000000+00:00</time></trkpt><trkpt lat="22.131577" lon="103.790619"><ele>602.0</ele><time>2011-04-25T08:53:15.0000000+00:00</time></trkpt><trkpt lat="22.131321" lon="103.790771"><ele>601.0</ele><time>2011-04-25T08:53:20.0000000+00:00</time></trkpt><trkpt lat="22.131041" lon="103.790894"><ele>601.6</ele><time>2011-04-25T08:53:25.0000000+00:00</time></trkpt><trkpt lat="22.130768" lon="103.791016"><ele>601.9</ele><time>2011-04-25T08:53:30.0000000+00:00</time></trkpt><trkpt lat="22.130501" lon="103.791122"><ele>601.7</ele><time>2011-04-25T08:53:35.0000000+00:00</time></trkpt><trkpt lat="22.130234" lon="103.791222"><ele>600.4</ele><time>2011-04-25T08:53:40.0000000+00:00</time></trkpt><trkpt lat="22.129965" lon="103.791344"><ele>602.6</ele><time>2011-04-25T08:53:45.0000000+00:00</time></trkpt><trkpt lat="22.129702" lon="103.791481"><ele>603.4</ele><time>2011-04-25T08:53:50.0000000+00:00</time></trkpt><trkpt lat="22.129461" lon="103.791679"><ele>602.6</ele><time>2011-04-25T08:53:55.0000000+00:00</time></trkpt><trkpt lat="22.129251" lon="103.791939"><ele>603.3</ele><time>2011-04-25T08:54:00.0000000+00:00</time></trkpt><trkpt lat="22.129057" lon="103.792175"><ele>604.4</ele><time>2011-04-25T08:54:05.0000000+00:00</time></trkpt><trkpt lat="22.128857" lon="103.792412"><ele>606.1</ele><time>2011-04-25T08:54:10.0000000+00:00</time></trkpt><trkpt lat="22.128611" lon="103.792717"><ele>605.2</ele><time>2011-04-25T08:54:15.0000000+00:00</time></trkpt><trkpt lat="22.128342" lon="103.793053"><ele>603.4</ele><time>2011-04-25T08:54:20.0000000+00:00</time></trkpt><trkpt lat="22.128117" lon="103.793365"><ele>603.5</ele><time>2011-04-25T08:54:25.0000000+00:00</time></trkpt><trkpt lat="22.127916" lon="103.793625"><ele>604.5</ele><time>2011-04-25T08:54:30.0000000+00:00</time></trkpt><trkpt lat="22.127743" lon="103.793823"><ele>605.9</ele><time>2011-04-25T08:54:35.0000000+00:00</time></trkpt><trkpt lat="22.12759" lon="103.794022"><ele>606.2</ele><time>2011-04-25T08:54:40.0000000+00:00</time></trkpt><trkpt lat="22.127441" lon="103.794205"><ele>605.9</ele><time>2011-04-25T08:54:45.0000000+00:00</time></trkpt><trkpt lat="22.127298" lon="103.794388"><ele>606.9</ele><time>2011-04-25T08:54:50.0000000+00:00</time></trkpt><trkpt lat="22.127172" lon="103.794556"><ele>607.0</ele><time>2011-04-25T08:54:55.0000000+00:00</time></trkpt><trkpt lat="22.127062" lon="103.794693"><ele>607.5</ele><time>2011-04-25T08:55:00.0000000+00:00</time></trkpt><trkpt lat="22.126961" lon="103.794876"><ele>607.3</ele><time>2011-04-25T08:55:05.0000000+00:00</time></trkpt><trkpt lat="22.126858" lon="103.795059"><ele>608.1</ele><time>2011-04-25T08:55:10.0000000+00:00</time></trkpt><trkpt lat="22.126762" lon="103.795235"><ele>607.8</ele><time>2011-04-25T08:55:15.0000000+00:00</time></trkpt><trkpt lat="22.126673" lon="103.79541"><ele>608.9</ele><time>2011-04-25T08:55:20.0000000+00:00</time></trkpt><trkpt lat="22.126585" lon="103.795586"><ele>609.5</ele><time>2011-04-25T08:55:25.0000000+00:00</time></trkpt><trkpt lat="22.126493" lon="103.795723"><ele>609.9</ele><time>2011-04-25T08:55:30.0000000+00:00</time></trkpt><trkpt lat="22.126398" lon="103.79586"><ele>609.7</ele><time>2011-04-25T08:55:35.0000000+00:00</time></trkpt><trkpt lat="22.12631" lon="103.796028"><ele>608.9</ele><time>2011-04-25T08:55:40.0000000+00:00</time></trkpt><trkpt lat="22.1262" lon="103.796188"><ele>610.5</ele><time>2011-04-25T08:55:45.0000000+00:00</time></trkpt><trkpt lat="22.126078" lon="103.796326"><ele>611.6</ele><time>2011-04-25T08:55:50.0000000+00:00</time></trkpt><trkpt lat="22.125952" lon="103.796494"><ele>613.9</ele><time>2011-04-25T08:55:55.0000000+00:00</time></trkpt><trkpt lat="22.125847" lon="103.796692"><ele>615.6</ele><time>2011-04-25T08:56:00.0000000+00:00</time></trkpt><trkpt lat="22.125774" lon="103.796875"><ele>614.8</ele><time>2011-04-25T08:56:05.0000000+00:00</time></trkpt><trkpt lat="22.125715" lon="103.797112"><ele>616.5</ele><time>2011-04-25T08:56:10.0000000+00:00</time></trkpt><trkpt lat="22.125656" lon="103.797325"><ele>616.6</ele><time>2011-04-25T08:56:15.0000000+00:00</time></trkpt><trkpt lat="22.125582" lon="103.797554"><ele>616.3</ele><time>2011-04-25T08:56:20.0000000+00:00</time></trkpt><trkpt lat="22.125511" lon="103.797768"><ele>615.4</ele><time>2011-04-25T08:56:25.0000000+00:00</time></trkpt><trkpt lat="22.125439" lon="103.797966"><ele>615.0</ele><time>2011-04-25T08:56:30.0000000+00:00</time></trkpt><trkpt lat="22.125389" lon="103.798172"><ele>614.4</ele><time>2011-04-25T08:56:35.0000000+00:00</time></trkpt><trkpt lat="22.125322" lon="103.798401"><ele>613.2</ele><time>2011-04-25T08:56:40.0000000+00:00</time></trkpt><trkpt lat="22.12524" lon="103.798615"><ele>611.4</ele><time>2011-04-25T08:56:45.0000000+00:00</time></trkpt><trkpt lat="22.125111" lon="103.798851"><ele>610.9</ele><time>2011-04-25T08:56:50.0000000+00:00</time></trkpt><trkpt lat="22.124931" lon="103.799042"><ele>610.4</ele><time>2011-04-25T08:56:55.0000000+00:00</time></trkpt><trkpt lat="22.124756" lon="103.799187"><ele>611.6</ele><time>2011-04-25T08:57:00.0000000+00:00</time></trkpt><trkpt lat="22.124592" lon="103.799339"><ele>614.1</ele><time>2011-04-25T08:57:05.0000000+00:00</time></trkpt><trkpt lat="22.124435" lon="103.799438"><ele>620.1</ele><time>2011-04-25T08:57:10.0000000+00:00</time></trkpt><trkpt lat="22.124331" lon="103.799538"><ele>620.5</ele><time>2011-04-25T08:57:15.0000000+00:00</time></trkpt><trkpt lat="22.124268" lon="103.799591"><ele>621.6</ele><time>2011-04-25T08:57:20.0000000+00:00</time></trkpt><trkpt lat="22.124146" lon="103.799706"><ele>620.0</ele><time>2011-04-25T08:57:25.0000000+00:00</time></trkpt><trkpt lat="22.124052" lon="103.799881"><ele>618.9</ele><time>2011-04-25T08:57:30.0000000+00:00</time></trkpt><trkpt lat="22.123974" lon="103.800087"><ele>619.4</ele><time>2011-04-25T08:57:35.0000000+00:00</time></trkpt><trkpt lat="22.123966" lon="103.800316"><ele>619.5</ele><time>2011-04-25T08:57:40.0000000+00:00</time></trkpt><trkpt lat="22.124035" lon="103.800499"><ele>619.1</ele><time>2011-04-25T08:57:45.0000000+00:00</time></trkpt><trkpt lat="22.124203" lon="103.800644"><ele>618.6</ele><time>2011-04-25T08:57:50.0000000+00:00</time></trkpt><trkpt lat="22.124395" lon="103.800766"><ele>618.1</ele><time>2011-04-25T08:57:55.0000000+00:00</time></trkpt><trkpt lat="22.124578" lon="103.800888"><ele>617.6</ele><time>2011-04-25T08:58:00.0000000+00:00</time></trkpt><trkpt lat="22.124695" lon="103.801003"><ele>617.0</ele><time>2011-04-25T08:58:05.0000000+00:00</time></trkpt><trkpt lat="22.124783" lon="103.801117"><ele>616.2</ele><time>2011-04-25T08:58:10.0000000+00:00</time></trkpt><trkpt lat="22.124847" lon="103.801247"><ele>615.0</ele><time>2011-04-25T08:58:15.0000000+00:00</time></trkpt><trkpt lat="22.124886" lon="103.801392"><ele>614.3</ele><time>2011-04-25T08:58:20.0000000+00:00</time></trkpt><trkpt lat="22.124928" lon="103.801537"><ele>615.4</ele><time>2011-04-25T08:58:25.0000000+00:00</time></trkpt><trkpt lat="22.124964" lon="103.801666"><ele>617.0</ele><time>2011-04-25T08:58:30.0000000+00:00</time></trkpt><trkpt lat="22.124977" lon="103.80172"><ele>615.2</ele><time>2011-04-25T08:58:35.0000000+00:00</time></trkpt><trkpt lat="22.124989" lon="103.801819"><ele>614.7</ele><time>2011-04-25T08:58:40.0000000+00:00</time></trkpt><trkpt lat="22.124983" lon="103.801903"><ele>615.7</ele><time>2011-04-25T08:58:45.0000000+00:00</time></trkpt><trkpt lat="22.124969" lon="103.801987"><ele>617.5</ele><time>2011-04-25T08:58:50.0000000+00:00</time></trkpt><trkpt lat="22.124943" lon="103.802048"><ele>619.0</ele><time>2011-04-25T08:58:55.0000000+00:00</time></trkpt><trkpt lat="22.124899" lon="103.802094"><ele>619.6</ele><time>2011-04-25T08:59:00.0000000+00:00</time></trkpt><trkpt lat="22.124863" lon="103.802162"><ele>621.0</ele><time>2011-04-25T08:59:05.0000000+00:00</time></trkpt><trkpt lat="22.124811" lon="103.802231"><ele>622.3</ele><time>2011-04-25T08:59:10.0000000+00:00</time></trkpt><trkpt lat="22.124756" lon="103.802277"><ele>625.0</ele><time>2011-04-25T08:59:15.0000000+00:00</time></trkpt><trkpt lat="22.124714" lon="103.802345"><ele>626.6</ele><time>2011-04-25T08:59:20.0000000+00:00</time></trkpt><trkpt lat="22.124666" lon="103.802399"><ele>627.3</ele><time>2011-04-25T08:59:25.0000000+00:00</time></trkpt><trkpt lat="22.124624" lon="103.80246"><ele>627.8</ele><time>2011-04-25T08:59:30.0000000+00:00</time></trkpt><trkpt lat="22.124582" lon="103.802505"><ele>629.1</ele><time>2011-04-25T08:59:35.0000000+00:00</time></trkpt><trkpt lat="22.124542" lon="103.802559"><ele>629.5</ele><time>2011-04-25T08:59:40.0000000+00:00</time></trkpt><trkpt lat="22.124523" lon="103.802628"><ele>629.8</ele><time>2011-04-25T08:59:45.0000000+00:00</time></trkpt><trkpt lat="22.124516" lon="103.802696"><ele>630.1</ele><time>2011-04-25T08:59:50.0000000+00:00</time></trkpt><trkpt lat="22.124525" lon="103.80278"><ele>630.9</ele><time>2011-04-25T08:59:55.0000000+00:00</time></trkpt><trkpt lat="22.124525" lon="103.802834"><ele>632.0</ele><time>2011-04-25T09:00:00.0000000+00:00</time></trkpt><trkpt lat="22.124537" lon="103.80291"><ele>633.2</ele><time>2011-04-25T09:00:05.0000000+00:00</time></trkpt><trkpt lat="22.124554" lon="103.802986"><ele>634.3</ele><time>2011-04-25T09:00:10.0000000+00:00</time></trkpt><trkpt lat="22.12458" lon="103.803085"><ele>635.9</ele><time>2011-04-25T09:00:15.0000000+00:00</time></trkpt><trkpt lat="22.124588" lon="103.803162"><ele>638.5</ele><time>2011-04-25T09:00:20.0000000+00:00</time></trkpt><trkpt lat="22.124599" lon="103.803223"><ele>640.8</ele><time>2011-04-25T09:00:25.0000000+00:00</time></trkpt><trkpt lat="22.124613" lon="103.803261"><ele>642.7</ele><time>2011-04-25T09:00:30.0000000+00:00</time></trkpt><trkpt lat="22.124636" lon="103.803337"><ele>644.6</ele><time>2011-04-25T09:00:35.0000000+00:00</time></trkpt><trkpt lat="22.124645" lon="103.803398"><ele>646.4</ele><time>2011-04-25T09:00:40.0000000+00:00</time></trkpt><trkpt lat="22.124674" lon="103.803474"><ele>648.3</ele><time>2011-04-25T09:00:45.0000000+00:00</time></trkpt><trkpt lat="22.124697" lon="103.803528"><ele>649.6</ele><time>2011-04-25T09:00:50.0000000+00:00</time></trkpt><trkpt lat="22.124699" lon="103.803574"><ele>650.7</ele><time>2011-04-25T09:00:55.0000000+00:00</time></trkpt><trkpt lat="22.124722" lon="103.803635"><ele>653.3</ele><time>2011-04-25T09:01:00.0000000+00:00</time></trkpt><trkpt lat="22.124731" lon="103.80365"><ele>653.6</ele><time>2011-04-25T09:01:05.0000000+00:00</time></trkpt><trkpt lat="22.124735" lon="103.80365"><ele>653.7</ele><time>2011-04-25T09:01:10.0000000+00:00</time></trkpt><trkpt lat="22.124737" lon="103.803665"><ele>653.9</ele><time>2011-04-25T09:01:15.0000000+00:00</time></trkpt><trkpt lat="22.124762" lon="103.803749"><ele>654.5</ele><time>2011-04-25T09:01:20.0000000+00:00</time></trkpt><trkpt lat="22.124844" lon="103.803894"><ele>654.2</ele><time>2011-04-25T09:01:25.0000000+00:00</time></trkpt><trkpt lat="22.124893" lon="103.803963"><ele>654.0</ele><time>2011-04-25T09:01:30.0000000+00:00</time></trkpt><trkpt lat="22.124964" lon="103.804039"><ele>654.4</ele><time>2011-04-25T09:01:35.0000000+00:00</time></trkpt><trkpt lat="22.125042" lon="103.804123"><ele>654.7</ele><time>2011-04-25T09:01:40.0000000+00:00</time></trkpt><trkpt lat="22.125149" lon="103.804214"><ele>654.8</ele><time>2011-04-25T09:01:45.0000000+00:00</time></trkpt><trkpt lat="22.125225" lon="103.804291"><ele>655.0</ele><time>2011-04-25T09:01:50.0000000+00:00</time></trkpt><trkpt lat="22.125298" lon="103.804359"><ele>654.9</ele><time>2011-04-25T09:01:55.0000000+00:00</time></trkpt><trkpt lat="22.125364" lon="103.804443"><ele>655.3</ele><time>2011-04-25T09:02:00.0000000+00:00</time></trkpt><trkpt lat="22.125439" lon="103.804497"><ele>655.4</ele><time>2011-04-25T09:02:05.0000000+00:00</time></trkpt><trkpt lat="22.125488" lon="103.804558"><ele>655.3</ele><time>2011-04-25T09:02:10.0000000+00:00</time></trkpt><trkpt lat="22.1255" lon="103.804543"><ele>655.3</ele><time>2011-04-25T09:02:15.0000000+00:00</time></trkpt><trkpt lat="22.1255" lon="103.804543"><ele>655.3</ele><time>2011-04-25T09:02:20.0000000+00:00</time></trkpt><trkpt lat="22.125523" lon="103.804558"><ele>655.3</ele><time>2011-04-25T09:02:25.0000000+00:00</time></trkpt><trkpt lat="22.125599" lon="103.804634"><ele>655.6</ele><time>2011-04-25T09:02:30.0000000+00:00</time></trkpt><trkpt lat="22.125692" lon="103.804726"><ele>655.9</ele><time>2011-04-25T09:02:35.0000000+00:00</time></trkpt><trkpt lat="22.125782" lon="103.804787"><ele>655.9</ele><time>2011-04-25T09:02:40.0000000+00:00</time></trkpt><trkpt lat="22.125889" lon="103.804855"><ele>655.9</ele><time>2011-04-25T09:02:45.0000000+00:00</time></trkpt><trkpt lat="22.125948" lon="103.804901"><ele>655.9</ele><time>2011-04-25T09:02:50.0000000+00:00</time></trkpt><trkpt lat="22.125996" lon="103.804939"><ele>656.1</ele><time>2011-04-25T09:02:55.0000000+00:00</time></trkpt><trkpt lat="22.126024" lon="103.804962"><ele>656.5</ele><time>2011-04-25T09:03:00.0000000+00:00</time></trkpt><trkpt lat="22.126026" lon="103.804962"><ele>656.8</ele><time>2011-04-25T09:03:05.0000000+00:00</time></trkpt><trkpt lat="22.126024" lon="103.804962"><ele>657.1</ele><time>2011-04-25T09:03:10.0000000+00:00</time></trkpt><trkpt lat="22.12602" lon="103.804962"><ele>657.4</ele><time>2011-04-25T09:03:15.0000000+00:00</time></trkpt><trkpt lat="22.126015" lon="103.804962"><ele>657.8</ele><time>2011-04-25T09:03:20.0000000+00:00</time></trkpt><trkpt lat="22.126011" lon="103.804962"><ele>658.1</ele><time>2011-04-25T09:03:25.0000000+00:00</time></trkpt><trkpt lat="22.126009" lon="103.804962"><ele>658.4</ele><time>2011-04-25T09:03:30.0000000+00:00</time></trkpt><trkpt lat="22.126009" lon="103.804962"><ele>658.5</ele><time>2011-04-25T09:03:35.0000000+00:00</time></trkpt><trkpt lat="22.126011" lon="103.804962"><ele>658.5</ele><time>2011-04-25T09:03:40.0000000+00:00</time></trkpt><trkpt lat="22.126011" lon="103.804962"><ele>658.6</ele><time>2011-04-25T09:03:45.0000000+00:00</time></trkpt><trkpt lat="22.126011" lon="103.804962"><ele>658.6</ele><time>2011-04-25T09:03:50.0000000+00:00</time></trkpt><trkpt lat="22.126011" lon="103.804962"><ele>658.7</ele><time>2011-04-25T09:03:55.0000000+00:00</time></trkpt><trkpt lat="22.126011" lon="103.804962"><ele>658.7</ele><time>2011-04-25T09:04:00.0000000+00:00</time></trkpt><trkpt lat="22.126011" lon="103.804962"><ele>658.7</ele><time>2011-04-25T09:04:05.0000000+00:00</time></trkpt><trkpt lat="22.126011" lon="103.804962"><ele>658.7</ele><time>2011-04-25T09:04:10.0000000+00:00</time></trkpt><trkpt lat="22.126011" lon="103.804962"><ele>658.8</ele><time>2011-04-25T09:04:15.0000000+00:00</time></trkpt><trkpt lat="22.126011" lon="103.804962"><ele>658.8</ele><time>2011-04-25T09:04:20.0000000+00:00</time></trkpt><trkpt lat="22.126011" lon="103.804962"><ele>658.8</ele><time>2011-04-25T09:04:25.0000000+00:00</time></trkpt><trkpt lat="22.126011" lon="103.804962"><ele>658.8</ele><time>2011-04-25T09:04:30.0000000+00:00</time></trkpt><trkpt lat="22.126011" lon="103.804962"><ele>658.8</ele><time>2011-04-25T09:04:35.0000000+00:00</time></trkpt><trkpt lat="22.126011" lon="103.804962"><ele>658.9</ele><time>2011-04-25T09:04:40.0000000+00:00</time></trkpt><trkpt lat="22.126011" lon="103.804962"><ele>658.9</ele><time>2011-04-25T09:04:45.0000000+00:00</time></trkpt><trkpt lat="22.126013" lon="103.804962"><ele>658.9</ele><time>2011-04-25T09:04:50.0000000+00:00</time></trkpt><trkpt lat="22.126013" lon="103.804962"><ele>658.9</ele><time>2011-04-25T09:04:55.0000000+00:00</time></trkpt><trkpt lat="22.126013" lon="103.804962"><ele>658.9</ele><time>2011-04-25T09:05:00.0000000+00:00</time></trkpt><trkpt lat="22.126013" lon="103.804962"><ele>658.9</ele><time>2011-04-25T09:05:05.0000000+00:00</time></trkpt><trkpt lat="22.126013" lon="103.804962"><ele>658.8</ele><time>2011-04-25T09:05:10.0000000+00:00</time></trkpt><trkpt lat="22.12602" lon="103.804962"><ele>658.4</ele><time>2011-04-25T09:05:15.0000000+00:00</time></trkpt><trkpt lat="22.12602" lon="103.804962"><ele>658.5</ele><time>2011-04-25T09:05:20.0000000+00:00</time></trkpt><trkpt lat="22.126024" lon="103.804962"><ele>659.2</ele><time>2011-04-25T09:05:25.0000000+00:00</time></trkpt><trkpt lat="22.126036" lon="103.80497"><ele>659.4</ele><time>2011-04-25T09:05:30.0000000+00:00</time></trkpt><trkpt lat="22.12604" lon="103.804977"><ele>659.8</ele><time>2011-04-25T09:05:35.0000000+00:00</time></trkpt><trkpt lat="22.12604" lon="103.804977"><ele>660.0</ele><time>2011-04-25T09:05:40.0000000+00:00</time></trkpt><trkpt lat="22.126038" lon="103.804985"><ele>660.2</ele><time>2011-04-25T09:05:45.0000000+00:00</time></trkpt><trkpt lat="22.126032" lon="103.804993"><ele>660.6</ele><time>2011-04-25T09:05:50.0000000+00:00</time></trkpt><trkpt lat="22.126034" lon="103.804985"><ele>660.7</ele><time>2011-04-25T09:05:55.0000000+00:00</time></trkpt><trkpt lat="22.126034" lon="103.804985"><ele>660.7</ele><time>2011-04-25T09:06:00.0000000+00:00</time></trkpt><trkpt lat="22.126034" lon="103.804985"><ele>660.7</ele><time>2011-04-25T09:06:05.0000000+00:00</time></trkpt><trkpt lat="22.126034" lon="103.804985"><ele>660.8</ele><time>2011-04-25T09:06:10.0000000+00:00</time></trkpt><trkpt lat="22.126034" lon="103.804985"><ele>660.9</ele><time>2011-04-25T09:06:15.0000000+00:00</time></trkpt><trkpt lat="22.126038" lon="103.804993"><ele>662.1</ele><time>2011-04-25T09:06:20.0000000+00:00</time></trkpt><trkpt lat="22.126034" lon="103.804993"><ele>663.1</ele><time>2011-04-25T09:06:25.0000000+00:00</time></trkpt><trkpt lat="22.126032" lon="103.804993"><ele>663.3</ele><time>2011-04-25T09:06:30.0000000+00:00</time></trkpt><trkpt lat="22.126034" lon="103.804993"><ele>663.4</ele><time>2011-04-25T09:06:35.0000000+00:00</time></trkpt><trkpt lat="22.126034" lon="103.804993"><ele>663.4</ele><time>2011-04-25T09:06:40.0000000+00:00</time></trkpt><trkpt lat="22.12608" lon="103.805008"><ele>663.4</ele><time>2011-04-25T09:06:45.0000000+00:00</time></trkpt><trkpt lat="22.126215" lon="103.805084"><ele>664.0</ele><time>2011-04-25T09:06:50.0000000+00:00</time></trkpt><trkpt lat="22.126291" lon="103.805191"><ele>664.9</ele><time>2011-04-25T09:06:55.0000000+00:00</time></trkpt><trkpt lat="22.126299" lon="103.805283"><ele>665.9</ele><time>2011-04-25T09:07:00.0000000+00:00</time></trkpt><trkpt lat="22.126289" lon="103.805351"><ele>666.9</ele><time>2011-04-25T09:07:05.0000000+00:00</time></trkpt><trkpt lat="22.126245" lon="103.805412"><ele>667.6</ele><time>2011-04-25T09:07:10.0000000+00:00</time></trkpt><trkpt lat="22.126162" lon="103.80545"><ele>668.2</ele><time>2011-04-25T09:07:15.0000000+00:00</time></trkpt><trkpt lat="22.126101" lon="103.805443"><ele>668.9</ele><time>2011-04-25T09:07:20.0000000+00:00</time></trkpt><trkpt lat="22.126024" lon="103.805428"><ele>669.4</ele><time>2011-04-25T09:07:25.0000000+00:00</time></trkpt><trkpt lat="22.12594" lon="103.805412"><ele>669.9</ele><time>2011-04-25T09:07:30.0000000+00:00</time></trkpt><trkpt lat="22.125875" lon="103.805405"><ele>670.6</ele><time>2011-04-25T09:07:35.0000000+00:00</time></trkpt><trkpt lat="22.125847" lon="103.805435"><ele>670.5</ele><time>2011-04-25T09:07:40.0000000+00:00</time></trkpt><trkpt lat="22.125818" lon="103.805481"><ele>669.3</ele><time>2011-04-25T09:07:45.0000000+00:00</time></trkpt><trkpt lat="22.125757" lon="103.805511"><ele>668.8</ele><time>2011-04-25T09:07:50.0000000+00:00</time></trkpt><trkpt lat="22.125698" lon="103.805557"><ele>668.7</ele><time>2011-04-25T09:07:55.0000000+00:00</time></trkpt><trkpt lat="22.125624" lon="103.805557"><ele>669.3</ele><time>2011-04-25T09:08:00.0000000+00:00</time></trkpt><trkpt lat="22.125549" lon="103.805565"><ele>669.2</ele><time>2011-04-25T09:08:05.0000000+00:00</time></trkpt><trkpt lat="22.125458" lon="103.805557"><ele>668.9</ele><time>2011-04-25T09:08:10.0000000+00:00</time></trkpt><trkpt lat="22.12537" lon="103.805588"><ele>668.1</ele><time>2011-04-25T09:08:15.0000000+00:00</time></trkpt><trkpt lat="22.12532" lon="103.805641"><ele>668.2</ele><time>2011-04-25T09:08:20.0000000+00:00</time></trkpt><trkpt lat="22.125261" lon="103.805695"><ele>668.4</ele><time>2011-04-25T09:08:25.0000000+00:00</time></trkpt><trkpt lat="22.125229" lon="103.805779"><ele>669.1</ele><time>2011-04-25T09:08:30.0000000+00:00</time></trkpt><trkpt lat="22.125179" lon="103.80584"><ele>669.2</ele><time>2011-04-25T09:08:35.0000000+00:00</time></trkpt><trkpt lat="22.125147" lon="103.805885"><ele>669.8</ele><time>2011-04-25T09:08:40.0000000+00:00</time></trkpt><trkpt lat="22.125122" lon="103.805969"><ele>670.4</ele><time>2011-04-25T09:08:45.0000000+00:00</time></trkpt><trkpt lat="22.125086" lon="103.806053"><ele>670.4</ele><time>2011-04-25T09:08:50.0000000+00:00</time></trkpt><trkpt lat="22.125063" lon="103.806129"><ele>670.6</ele><time>2011-04-25T09:08:55.0000000+00:00</time></trkpt><trkpt lat="22.125046" lon="103.806274"><ele>671.0</ele><time>2011-04-25T09:09:00.0000000+00:00</time></trkpt><trkpt lat="22.125011" lon="103.806389"><ele>671.8</ele><time>2011-04-25T09:09:05.0000000+00:00</time></trkpt><trkpt lat="22.124987" lon="103.806503"><ele>672.5</ele><time>2011-04-25T09:09:10.0000000+00:00</time></trkpt><trkpt lat="22.124952" lon="103.80661"><ele>673.4</ele><time>2011-04-25T09:09:15.0000000+00:00</time></trkpt><trkpt lat="22.124933" lon="103.806709"><ele>674.8</ele><time>2011-04-25T09:09:20.0000000+00:00</time></trkpt><trkpt lat="22.124907" lon="103.806801"><ele>676.1</ele><time>2011-04-25T09:09:25.0000000+00:00</time></trkpt><trkpt lat="22.124889" lon="103.806877"><ele>677.2</ele><time>2011-04-25T09:09:30.0000000+00:00</time></trkpt><trkpt lat="22.124876" lon="103.806969"><ele>677.9</ele><time>2011-04-25T09:09:35.0000000+00:00</time></trkpt><trkpt lat="22.124861" lon="103.807068"><ele>678.8</ele><time>2011-04-25T09:09:40.0000000+00:00</time></trkpt><trkpt lat="22.124859" lon="103.807167"><ele>680.7</ele><time>2011-04-25T09:09:45.0000000+00:00</time></trkpt><trkpt lat="22.124866" lon="103.807251"><ele>682.5</ele><time>2011-04-25T09:09:50.0000000+00:00</time></trkpt><trkpt lat="22.124882" lon="103.807343"><ele>683.5</ele><time>2011-04-25T09:09:55.0000000+00:00</time></trkpt><trkpt lat="22.124901" lon="103.807426"><ele>684.4</ele><time>2011-04-25T09:10:00.0000000+00:00</time></trkpt><trkpt lat="22.124918" lon="103.807495"><ele>686.3</ele><time>2011-04-25T09:10:05.0000000+00:00</time></trkpt><trkpt lat="22.124939" lon="103.807564"><ele>687.9</ele><time>2011-04-25T09:10:10.0000000+00:00</time></trkpt><trkpt lat="22.124975" lon="103.807632"><ele>690.3</ele><time>2011-04-25T09:10:15.0000000+00:00</time></trkpt><trkpt lat="22.125025" lon="103.807701"><ele>692.3</ele><time>2011-04-25T09:10:20.0000000+00:00</time></trkpt><trkpt lat="22.125074" lon="103.807755"><ele>693.9</ele><time>2011-04-25T09:10:25.0000000+00:00</time></trkpt><trkpt lat="22.125122" lon="103.807816"><ele>695.3</ele><time>2011-04-25T09:10:30.0000000+00:00</time></trkpt><trkpt lat="22.125166" lon="103.807854"><ele>697.3</ele><time>2011-04-25T09:10:35.0000000+00:00</time></trkpt><trkpt lat="22.125216" lon="103.807899"><ele>698.5</ele><time>2011-04-25T09:10:40.0000000+00:00</time></trkpt><trkpt lat="22.125277" lon="103.807953"><ele>699.3</ele><time>2011-04-25T09:10:45.0000000+00:00</time></trkpt><trkpt lat="22.12534" lon="103.807991"><ele>700.6</ele><time>2011-04-25T09:10:50.0000000+00:00</time></trkpt><trkpt lat="22.125404" lon="103.808029"><ele>701.5</ele><time>2011-04-25T09:10:55.0000000+00:00</time></trkpt><trkpt lat="22.12549" lon="103.80806"><ele>703.1</ele><time>2011-04-25T09:11:00.0000000+00:00</time></trkpt><trkpt lat="22.125542" lon="103.808098"><ele>705.3</ele><time>2011-04-25T09:11:05.0000000+00:00</time></trkpt><trkpt lat="22.125591" lon="103.808105"><ele>705.8</ele><time>2011-04-25T09:11:10.0000000+00:00</time></trkpt><trkpt lat="22.125685" lon="103.808151"><ele>705.6</ele><time>2011-04-25T09:11:15.0000000+00:00</time></trkpt><trkpt lat="22.125761" lon="103.808197"><ele>706.5</ele><time>2011-04-25T09:11:20.0000000+00:00</time></trkpt><trkpt lat="22.12583" lon="103.80822"><ele>705.6</ele><time>2011-04-25T09:11:25.0000000+00:00</time></trkpt><trkpt lat="22.125917" lon="103.808266"><ele>705.3</ele><time>2011-04-25T09:11:30.0000000+00:00</time></trkpt><trkpt lat="22.125996" lon="103.808334"><ele>706.4</ele><time>2011-04-25T09:11:35.0000000+00:00</time></trkpt><trkpt lat="22.126064" lon="103.808411"><ele>706.9</ele><time>2011-04-25T09:11:40.0000000+00:00</time></trkpt><trkpt lat="22.126114" lon="103.808487"><ele>706.9</ele><time>2011-04-25T09:11:45.0000000+00:00</time></trkpt><trkpt lat="22.126154" lon="103.808563"><ele>706.9</ele><time>2011-04-25T09:11:50.0000000+00:00</time></trkpt><trkpt lat="22.126205" lon="103.80864"><ele>706.1</ele><time>2011-04-25T09:11:55.0000000+00:00</time></trkpt><trkpt lat="22.126221" lon="103.808739"><ele>707.2</ele><time>2011-04-25T09:12:00.0000000+00:00</time></trkpt><trkpt lat="22.126236" lon="103.808846"><ele>707.9</ele><time>2011-04-25T09:12:05.0000000+00:00</time></trkpt><trkpt lat="22.126272" lon="103.808952"><ele>709.2</ele><time>2011-04-25T09:12:10.0000000+00:00</time></trkpt><trkpt lat="22.126331" lon="103.809044"><ele>709.9</ele><time>2011-04-25T09:12:15.0000000+00:00</time></trkpt><trkpt lat="22.12641" lon="103.80912"><ele>709.3</ele><time>2011-04-25T09:12:20.0000000+00:00</time></trkpt><trkpt lat="22.126467" lon="103.809166"><ele>708.5</ele><time>2011-04-25T09:12:25.0000000+00:00</time></trkpt><trkpt lat="22.126543" lon="103.809227"><ele>707.8</ele><time>2011-04-25T09:12:30.0000000+00:00</time></trkpt><trkpt lat="22.126633" lon="103.809296"><ele>707.7</ele><time>2011-04-25T09:12:35.0000000+00:00</time></trkpt><trkpt lat="22.126694" lon="103.809372"><ele>708.5</ele><time>2011-04-25T09:12:40.0000000+00:00</time></trkpt><trkpt lat="22.126738" lon="103.809418"><ele>709.6</ele><time>2011-04-25T09:12:45.0000000+00:00</time></trkpt><trkpt lat="22.126745" lon="103.809502"><ele>710.5</ele><time>2011-04-25T09:12:50.0000000+00:00</time></trkpt><trkpt lat="22.126707" lon="103.809593"><ele>712.2</ele><time>2011-04-25T09:12:55.0000000+00:00</time></trkpt><trkpt lat="22.12664" lon="103.8097"><ele>711.7</ele><time>2011-04-25T09:13:00.0000000+00:00</time></trkpt><trkpt lat="22.126556" lon="103.809731"><ele>712.4</ele><time>2011-04-25T09:13:05.0000000+00:00</time></trkpt><trkpt lat="22.126467" lon="103.809761"><ele>713.7</ele><time>2011-04-25T09:13:10.0000000+00:00</time></trkpt><trkpt lat="22.126373" lon="103.809776"><ele>714.0</ele><time>2011-04-25T09:13:15.0000000+00:00</time></trkpt><trkpt lat="22.126274" lon="103.809799"><ele>715.5</ele><time>2011-04-25T09:13:20.0000000+00:00</time></trkpt><trkpt lat="22.126181" lon="103.809814"><ele>717.8</ele><time>2011-04-25T09:13:25.0000000+00:00</time></trkpt><trkpt lat="22.126143" lon="103.809837"><ele>716.2</ele><time>2011-04-25T09:13:30.0000000+00:00</time></trkpt><trkpt lat="22.126047" lon="103.809837"><ele>715.8</ele><time>2011-04-25T09:13:35.0000000+00:00</time></trkpt><trkpt lat="22.125971" lon="103.809837"><ele>715.8</ele><time>2011-04-25T09:13:40.0000000+00:00</time></trkpt><trkpt lat="22.125877" lon="103.809814"><ele>715.8</ele><time>2011-04-25T09:13:45.0000000+00:00</time></trkpt><trkpt lat="22.125801" lon="103.809792"><ele>715.7</ele><time>2011-04-25T09:13:50.0000000+00:00</time></trkpt><trkpt lat="22.125736" lon="103.809753"><ele>716.0</ele><time>2011-04-25T09:13:55.0000000+00:00</time></trkpt><trkpt lat="22.125647" lon="103.809692"><ele>716.2</ele><time>2011-04-25T09:14:00.0000000+00:00</time></trkpt><trkpt lat="22.125544" lon="103.809647"><ele>716.6</ele><time>2011-04-25T09:14:05.0000000+00:00</time></trkpt><trkpt lat="22.125418" lon="103.809654"><ele>716.1</ele><time>2011-04-25T09:14:10.0000000+00:00</time></trkpt><trkpt lat="22.125292" lon="103.809669"><ele>714.4</ele><time>2011-04-25T09:14:15.0000000+00:00</time></trkpt><trkpt lat="22.125196" lon="103.809708"><ele>714.4</ele><time>2011-04-25T09:14:20.0000000+00:00</time></trkpt><trkpt lat="22.125137" lon="103.809753"><ele>714.5</ele><time>2011-04-25T09:14:25.0000000+00:00</time></trkpt><trkpt lat="22.125113" lon="103.809784"><ele>713.9</ele><time>2011-04-25T09:14:30.0000000+00:00</time></trkpt><trkpt lat="22.125095" lon="103.809784"><ele>714.8</ele><time>2011-04-25T09:14:35.0000000+00:00</time></trkpt><trkpt lat="22.125092" lon="103.809792"><ele>715.6</ele><time>2011-04-25T09:14:40.0000000+00:00</time></trkpt><trkpt lat="22.12509" lon="103.809792"><ele>716.2</ele><time>2011-04-25T09:14:45.0000000+00:00</time></trkpt><trkpt lat="22.125086" lon="103.809792"><ele>716.7</ele><time>2011-04-25T09:14:50.0000000+00:00</time></trkpt><trkpt lat="22.125082" lon="103.809784"><ele>717.3</ele><time>2011-04-25T09:14:55.0000000+00:00</time></trkpt><trkpt lat="22.12508" lon="103.809784"><ele>717.9</ele><time>2011-04-25T09:15:00.0000000+00:00</time></trkpt><trkpt lat="22.125076" lon="103.809776"><ele>718.6</ele><time>2011-04-25T09:15:05.0000000+00:00</time></trkpt><trkpt lat="22.125074" lon="103.809776"><ele>719.1</ele><time>2011-04-25T09:15:10.0000000+00:00</time></trkpt><trkpt lat="22.125072" lon="103.809776"><ele>719.5</ele><time>2011-04-25T09:15:15.0000000+00:00</time></trkpt><trkpt lat="22.125071" lon="103.809769"><ele>719.8</ele><time>2011-04-25T09:15:20.0000000+00:00</time></trkpt><trkpt lat="22.125069" lon="103.809769"><ele>720.0</ele><time>2011-04-25T09:15:25.0000000+00:00</time></trkpt><trkpt lat="22.125069" lon="103.809769"><ele>720.0</ele><time>2011-04-25T09:15:30.0000000+00:00</time></trkpt><trkpt lat="22.125069" lon="103.809769"><ele>720.0</ele><time>2011-04-25T09:15:35.0000000+00:00</time></trkpt><trkpt lat="22.125069" lon="103.809784"><ele>719.8</ele><time>2011-04-25T09:15:40.0000000+00:00</time></trkpt><trkpt lat="22.125061" lon="103.809875"><ele>719.6</ele><time>2011-04-25T09:15:45.0000000+00:00</time></trkpt><trkpt lat="22.125076" lon="103.809975"><ele>719.7</ele><time>2011-04-25T09:15:50.0000000+00:00</time></trkpt><trkpt lat="22.125097" lon="103.810074"><ele>720.4</ele><time>2011-04-25T09:15:55.0000000+00:00</time></trkpt><trkpt lat="22.125128" lon="103.810188"><ele>720.2</ele><time>2011-04-25T09:16:00.0000000+00:00</time></trkpt><trkpt lat="22.125177" lon="103.810287"><ele>720.6</ele><time>2011-04-25T09:16:05.0000000+00:00</time></trkpt><trkpt lat="22.125233" lon="103.810379"><ele>720.2</ele><time>2011-04-25T09:16:10.0000000+00:00</time></trkpt><trkpt lat="22.125286" lon="103.810463"><ele>721.0</ele><time>2011-04-25T09:16:15.0000000+00:00</time></trkpt><trkpt lat="22.125359" lon="103.810532"><ele>721.9</ele><time>2011-04-25T09:16:20.0000000+00:00</time></trkpt><trkpt lat="22.125435" lon="103.810608"><ele>723.1</ele><time>2011-04-25T09:16:25.0000000+00:00</time></trkpt><trkpt lat="22.125492" lon="103.810692"><ele>724.2</ele><time>2011-04-25T09:16:30.0000000+00:00</time></trkpt><trkpt lat="22.125551" lon="103.810791"><ele>725.8</ele><time>2011-04-25T09:16:35.0000000+00:00</time></trkpt><trkpt lat="22.125593" lon="103.81089"><ele>726.9</ele><time>2011-04-25T09:16:40.0000000+00:00</time></trkpt><trkpt lat="22.125622" lon="103.810982"><ele>728.3</ele><time>2011-04-25T09:16:45.0000000+00:00</time></trkpt><trkpt lat="22.12565" lon="103.811058"><ele>730.9</ele><time>2011-04-25T09:16:50.0000000+00:00</time></trkpt><trkpt lat="22.125673" lon="103.811142"><ele>733.0</ele><time>2011-04-25T09:16:55.0000000+00:00</time></trkpt><trkpt lat="22.125681" lon="103.811272"><ele>736.4</ele><time>2011-04-25T09:17:00.0000000+00:00</time></trkpt><trkpt lat="22.125601" lon="103.811409"><ele>739.2</ele><time>2011-04-25T09:17:05.0000000+00:00</time></trkpt><trkpt lat="22.125544" lon="103.811508"><ele>739.6</ele><time>2011-04-25T09:17:10.0000000+00:00</time></trkpt><trkpt lat="22.125454" lon="103.811531"><ele>740.4</ele><time>2011-04-25T09:17:15.0000000+00:00</time></trkpt><trkpt lat="22.125374" lon="103.811546"><ele>743.1</ele><time>2011-04-25T09:17:20.0000000+00:00</time></trkpt><trkpt lat="22.125299" lon="103.811539"><ele>745.1</ele><time>2011-04-25T09:17:25.0000000+00:00</time></trkpt><trkpt lat="22.125181" lon="103.811508"><ele>747.1</ele><time>2011-04-25T09:17:30.0000000+00:00</time></trkpt><trkpt lat="22.12512" lon="103.811531"><ele>746.9</ele><time>2011-04-25T09:17:35.0000000+00:00</time></trkpt><trkpt lat="22.125069" lon="103.811569"><ele>746.1</ele><time>2011-04-25T09:17:40.0000000+00:00</time></trkpt><trkpt lat="22.124977" lon="103.811554"><ele>746.1</ele><time>2011-04-25T09:17:45.0000000+00:00</time></trkpt><trkpt lat="22.124889" lon="103.811562"><ele>745.4</ele><time>2011-04-25T09:17:50.0000000+00:00</time></trkpt><trkpt lat="22.124771" lon="103.811546"><ele>745.0</ele><time>2011-04-25T09:17:55.0000000+00:00</time></trkpt><trkpt lat="22.124651" lon="103.811523"><ele>744.9</ele><time>2011-04-25T09:18:00.0000000+00:00</time></trkpt><trkpt lat="22.124527" lon="103.811493"><ele>745.3</ele><time>2011-04-25T09:18:05.0000000+00:00</time></trkpt><trkpt lat="22.124393" lon="103.811485"><ele>745.6</ele><time>2011-04-25T09:18:10.0000000+00:00</time></trkpt><trkpt lat="22.124273" lon="103.811493"><ele>746.8</ele><time>2011-04-25T09:18:15.0000000+00:00</time></trkpt><trkpt lat="22.12413" lon="103.811516"><ele>743.4</ele><time>2011-04-25T09:18:20.0000000+00:00</time></trkpt><trkpt lat="22.123995" lon="103.811508"><ele>740.0</ele><time>2011-04-25T09:18:25.0000000+00:00</time></trkpt><trkpt lat="22.123884" lon="103.811562"><ele>739.5</ele><time>2011-04-25T09:18:30.0000000+00:00</time></trkpt><trkpt lat="22.123756" lon="103.811607"><ele>738.2</ele><time>2011-04-25T09:18:35.0000000+00:00</time></trkpt><trkpt lat="22.12364" lon="103.811646"><ele>738.9</ele><time>2011-04-25T09:18:40.0000000+00:00</time></trkpt><trkpt lat="22.123531" lon="103.811729"><ele>737.1</ele><time>2011-04-25T09:18:45.0000000+00:00</time></trkpt><trkpt lat="22.123449" lon="103.811813"><ele>736.0</ele><time>2011-04-25T09:18:50.0000000+00:00</time></trkpt><trkpt lat="22.123394" lon="103.811897"><ele>737.7</ele><time>2011-04-25T09:18:55.0000000+00:00</time></trkpt><trkpt lat="22.123348" lon="103.811989"><ele>739.4</ele><time>2011-04-25T09:19:00.0000000+00:00</time></trkpt><trkpt lat="22.12332" lon="103.812126"><ele>741.5</ele><time>2011-04-25T09:19:05.0000000+00:00</time></trkpt><trkpt lat="22.123301" lon="103.812271"><ele>744.1</ele><time>2011-04-25T09:19:10.0000000+00:00</time></trkpt><trkpt lat="22.123297" lon="103.812424"><ele>744.3</ele><time>2011-04-25T09:19:15.0000000+00:00</time></trkpt><trkpt lat="22.123283" lon="103.812531"><ele>745.3</ele><time>2011-04-25T09:19:20.0000000+00:00</time></trkpt><trkpt lat="22.123287" lon="103.812584"><ele>746.1</ele><time>2011-04-25T09:19:25.0000000+00:00</time></trkpt><trkpt lat="22.123293" lon="103.812592"><ele>746.4</ele><time>2011-04-25T09:19:30.0000000+00:00</time></trkpt><trkpt lat="22.123295" lon="103.812592"><ele>746.2</ele><time>2011-04-25T09:19:35.0000000+00:00</time></trkpt><trkpt lat="22.123295" lon="103.812592"><ele>746.2</ele><time>2011-04-25T09:19:40.0000000+00:00</time></trkpt><trkpt lat="22.123295" lon="103.812592"><ele>746.2</ele><time>2011-04-25T09:19:45.0000000+00:00</time></trkpt><trkpt lat="22.123302" lon="103.812637"><ele>746.2</ele><time>2011-04-25T09:19:50.0000000+00:00</time></trkpt><trkpt lat="22.123322" lon="103.812752"><ele>746.3</ele><time>2011-04-25T09:19:55.0000000+00:00</time></trkpt><trkpt lat="22.123344" lon="103.812866"><ele>747.2</ele><time>2011-04-25T09:20:00.0000000+00:00</time></trkpt><trkpt lat="22.123373" lon="103.812965"><ele>748.2</ele><time>2011-04-25T09:20:05.0000000+00:00</time></trkpt><trkpt lat="22.123398" lon="103.813072"><ele>749.0</ele><time>2011-04-25T09:20:10.0000000+00:00</time></trkpt><trkpt lat="22.123434" lon="103.813171"><ele>749.6</ele><time>2011-04-25T09:20:15.0000000+00:00</time></trkpt><trkpt lat="22.123476" lon="103.813255"><ele>749.9</ele><time>2011-04-25T09:20:20.0000000+00:00</time></trkpt><trkpt lat="22.123533" lon="103.813339"><ele>750.9</ele><time>2011-04-25T09:20:25.0000000+00:00</time></trkpt><trkpt lat="22.12359" lon="103.813431"><ele>751.6</ele><time>2011-04-25T09:20:30.0000000+00:00</time></trkpt><trkpt lat="22.123634" lon="103.813522"><ele>752.7</ele><time>2011-04-25T09:20:35.0000000+00:00</time></trkpt><trkpt lat="22.123671" lon="103.813614"><ele>754.1</ele><time>2011-04-25T09:20:40.0000000+00:00</time></trkpt><trkpt lat="22.123692" lon="103.813721"><ele>755.1</ele><time>2011-04-25T09:20:45.0000000+00:00</time></trkpt><trkpt lat="22.123693" lon="103.813812"><ele>756.6</ele><time>2011-04-25T09:20:50.0000000+00:00</time></trkpt><trkpt lat="22.12372" lon="103.813919"><ele>758.0</ele><time>2011-04-25T09:20:55.0000000+00:00</time></trkpt><trkpt lat="22.12373" lon="103.813995"><ele>759.1</ele><time>2011-04-25T09:21:00.0000000+00:00</time></trkpt><trkpt lat="22.123737" lon="103.814087"><ele>760.9</ele><time>2011-04-25T09:21:05.0000000+00:00</time></trkpt><trkpt lat="22.123739" lon="103.814171"><ele>762.6</ele><time>2011-04-25T09:21:10.0000000+00:00</time></trkpt><trkpt lat="22.123737" lon="103.814262"><ele>763.2</ele><time>2011-04-25T09:21:15.0000000+00:00</time></trkpt><trkpt lat="22.123709" lon="103.814377"><ele>763.9</ele><time>2011-04-25T09:21:20.0000000+00:00</time></trkpt><trkpt lat="22.123697" lon="103.814476"><ele>764.7</ele><time>2011-04-25T09:21:25.0000000+00:00</time></trkpt><trkpt lat="22.123672" lon="103.814545"><ele>765.6</ele><time>2011-04-25T09:21:30.0000000+00:00</time></trkpt><trkpt lat="22.123625" lon="103.814644"><ele>767.8</ele><time>2011-04-25T09:21:35.0000000+00:00</time></trkpt><trkpt lat="22.123566" lon="103.814796"><ele>769.7</ele><time>2011-04-25T09:21:40.0000000+00:00</time></trkpt><trkpt lat="22.123566" lon="103.814865"><ele>772.4</ele><time>2011-04-25T09:21:45.0000000+00:00</time></trkpt><trkpt lat="22.12348" lon="103.81488"><ele>775.2</ele><time>2011-04-25T09:21:50.0000000+00:00</time></trkpt><trkpt lat="22.123426" lon="103.814804"><ele>777.9</ele><time>2011-04-25T09:21:55.0000000+00:00</time></trkpt><trkpt lat="22.123417" lon="103.81469"><ele>779.9</ele><time>2011-04-25T09:22:00.0000000+00:00</time></trkpt><trkpt lat="22.123363" lon="103.814568"><ele>782.8</ele><time>2011-04-25T09:22:05.0000000+00:00</time></trkpt><trkpt lat="22.123318" lon="103.814461"><ele>785.2</ele><time>2011-04-25T09:22:10.0000000+00:00</time></trkpt><trkpt lat="22.123287" lon="103.814369"><ele>787.2</ele><time>2011-04-25T09:22:15.0000000+00:00</time></trkpt><trkpt lat="22.123217" lon="103.814278"><ele>789.6</ele><time>2011-04-25T09:22:20.0000000+00:00</time></trkpt><trkpt lat="22.123138" lon="103.814194"><ele>792.0</ele><time>2011-04-25T09:22:25.0000000+00:00</time></trkpt><trkpt lat="22.123037" lon="103.81414"><ele>793.8</ele><time>2011-04-25T09:22:30.0000000+00:00</time></trkpt><trkpt lat="22.122919" lon="103.814117"><ele>794.5</ele><time>2011-04-25T09:22:35.0000000+00:00</time></trkpt><trkpt lat="22.122795" lon="103.814117"><ele>793.6</ele><time>2011-04-25T09:22:40.0000000+00:00</time></trkpt><trkpt lat="22.12265" lon="103.814148"><ele>792.2</ele><time>2011-04-25T09:22:45.0000000+00:00</time></trkpt><trkpt lat="22.122524" lon="103.814201"><ele>790.4</ele><time>2011-04-25T09:22:50.0000000+00:00</time></trkpt><trkpt lat="22.122425" lon="103.814247"><ele>789.3</ele><time>2011-04-25T09:22:55.0000000+00:00</time></trkpt><trkpt lat="22.122309" lon="103.814323"><ele>785.9</ele><time>2011-04-25T09:23:00.0000000+00:00</time></trkpt><trkpt lat="22.122194" lon="103.814415"><ele>783.7</ele><time>2011-04-25T09:23:05.0000000+00:00</time></trkpt><trkpt lat="22.122093" lon="103.814476"><ele>783.1</ele><time>2011-04-25T09:23:10.0000000+00:00</time></trkpt><trkpt lat="22.122005" lon="103.81456"><ele>782.6</ele><time>2011-04-25T09:23:15.0000000+00:00</time></trkpt><trkpt lat="22.121929" lon="103.814659"><ele>781.7</ele><time>2011-04-25T09:23:20.0000000+00:00</time></trkpt><trkpt lat="22.121841" lon="103.814758"><ele>781.6</ele><time>2011-04-25T09:23:25.0000000+00:00</time></trkpt><trkpt lat="22.121754" lon="103.814857"><ele>780.0</ele><time>2011-04-25T09:23:30.0000000+00:00</time></trkpt><trkpt lat="22.121679" lon="103.814911"><ele>778.1</ele><time>2011-04-25T09:23:35.0000000+00:00</time></trkpt><trkpt lat="22.121626" lon="103.814941"><ele>775.4</ele><time>2011-04-25T09:23:40.0000000+00:00</time></trkpt><trkpt lat="22.121552" lon="103.814957"><ele>774.1</ele><time>2011-04-25T09:23:45.0000000+00:00</time></trkpt><trkpt lat="22.121466" lon="103.814949"><ele>773.7</ele><time>2011-04-25T09:23:50.0000000+00:00</time></trkpt><trkpt lat="22.121361" lon="103.814934"><ele>773.8</ele><time>2011-04-25T09:23:55.0000000+00:00</time></trkpt><trkpt lat="22.121275" lon="103.814911"><ele>773.8</ele><time>2011-04-25T09:24:00.0000000+00:00</time></trkpt><trkpt lat="22.121181" lon="103.814919"><ele>773.8</ele><time>2011-04-25T09:24:05.0000000+00:00</time></trkpt><trkpt lat="22.121073" lon="103.814919"><ele>774.5</ele><time>2011-04-25T09:24:10.0000000+00:00</time></trkpt><trkpt lat="22.120996" lon="103.814934"><ele>775.9</ele><time>2011-04-25T09:24:15.0000000+00:00</time></trkpt><trkpt lat="22.120909" lon="103.814941"><ele>776.2</ele><time>2011-04-25T09:24:20.0000000+00:00</time></trkpt><trkpt lat="22.120831" lon="103.814987"><ele>775.6</ele><time>2011-04-25T09:24:25.0000000+00:00</time></trkpt><trkpt lat="22.120747" lon="103.815041"><ele>775.3</ele><time>2011-04-25T09:24:30.0000000+00:00</time></trkpt><trkpt lat="22.120667" lon="103.815063"><ele>775.8</ele><time>2011-04-25T09:24:35.0000000+00:00</time></trkpt><trkpt lat="22.120607" lon="103.815102"><ele>775.9</ele><time>2011-04-25T09:24:40.0000000+00:00</time></trkpt><trkpt lat="22.120543" lon="103.81514"><ele>776.3</ele><time>2011-04-25T09:24:45.0000000+00:00</time></trkpt><trkpt lat="22.120474" lon="103.815201"><ele>777.7</ele><time>2011-04-25T09:24:50.0000000+00:00</time></trkpt><trkpt lat="22.12039" lon="103.815262"><ele>777.9</ele><time>2011-04-25T09:24:55.0000000+00:00</time></trkpt><trkpt lat="22.120298" lon="103.815338"><ele>778.8</ele><time>2011-04-25T09:25:00.0000000+00:00</time></trkpt><trkpt lat="22.12022" lon="103.815422"><ele>779.4</ele><time>2011-04-25T09:25:05.0000000+00:00</time></trkpt><trkpt lat="22.120174" lon="103.815521"><ele>780.4</ele><time>2011-04-25T09:25:10.0000000+00:00</time></trkpt><trkpt lat="22.120157" lon="103.815498"><ele>781.4</ele><time>2011-04-25T09:25:15.0000000+00:00</time></trkpt><trkpt lat="22.120157" lon="103.815506"><ele>781.6</ele><time>2011-04-25T09:25:20.0000000+00:00</time></trkpt><trkpt lat="22.120157" lon="103.815506"><ele>781.8</ele><time>2011-04-25T09:25:25.0000000+00:00</time></trkpt><trkpt lat="22.120157" lon="103.815506"><ele>781.9</ele><time>2011-04-25T09:25:30.0000000+00:00</time></trkpt><trkpt lat="22.120157" lon="103.815506"><ele>781.9</ele><time>2011-04-25T09:25:35.0000000+00:00</time></trkpt><trkpt lat="22.120144" lon="103.815521"><ele>781.9</ele><time>2011-04-25T09:25:40.0000000+00:00</time></trkpt><trkpt lat="22.120119" lon="103.815598"><ele>781.8</ele><time>2011-04-25T09:25:45.0000000+00:00</time></trkpt><trkpt lat="22.12007" lon="103.81572"><ele>781.5</ele><time>2011-04-25T09:25:50.0000000+00:00</time></trkpt><trkpt lat="22.120018" lon="103.815842"><ele>780.9</ele><time>2011-04-25T09:25:55.0000000+00:00</time></trkpt><trkpt lat="22.119938" lon="103.815971"><ele>781.2</ele><time>2011-04-25T09:26:00.0000000+00:00</time></trkpt><trkpt lat="22.119822" lon="103.816071"><ele>783.9</ele><time>2011-04-25T09:26:05.0000000+00:00</time></trkpt><trkpt lat="22.119728" lon="103.816124"><ele>784.9</ele><time>2011-04-25T09:26:10.0000000+00:00</time></trkpt><trkpt lat="22.11965" lon="103.816147"><ele>786.1</ele><time>2011-04-25T09:26:15.0000000+00:00</time></trkpt><trkpt lat="22.119564" lon="103.816177"><ele>787.0</ele><time>2011-04-25T09:26:20.0000000+00:00</time></trkpt><trkpt lat="22.119473" lon="103.8162"><ele>787.7</ele><time>2011-04-25T09:26:25.0000000+00:00</time></trkpt><trkpt lat="22.119398" lon="103.816231"><ele>787.8</ele><time>2011-04-25T09:26:30.0000000+00:00</time></trkpt><trkpt lat="22.119362" lon="103.816231"><ele>787.9</ele><time>2011-04-25T09:26:35.0000000+00:00</time></trkpt><trkpt lat="22.119354" lon="103.816238"><ele>788.0</ele><time>2011-04-25T09:26:40.0000000+00:00</time></trkpt><trkpt lat="22.11931" lon="103.816246"><ele>788.1</ele><time>2011-04-25T09:26:45.0000000+00:00</time></trkpt><trkpt lat="22.119238" lon="103.816261"><ele>787.9</ele><time>2011-04-25T09:26:50.0000000+00:00</time></trkpt><trkpt lat="22.119123" lon="103.816261"><ele>789.9</ele><time>2011-04-25T09:26:55.0000000+00:00</time></trkpt><trkpt lat="22.119032" lon="103.816307"><ele>790.8</ele><time>2011-04-25T09:27:00.0000000+00:00</time></trkpt><trkpt lat="22.118977" lon="103.816414"><ele>789.8</ele><time>2011-04-25T09:27:05.0000000+00:00</time></trkpt><trkpt lat="22.118898" lon="103.81646"><ele>791.1</ele><time>2011-04-25T09:27:10.0000000+00:00</time></trkpt><trkpt lat="22.118834" lon="103.816521"><ele>792.5</ele><time>2011-04-25T09:27:15.0000000+00:00</time></trkpt><trkpt lat="22.118763" lon="103.816559"><ele>795.8</ele><time>2011-04-25T09:27:20.0000000+00:00</time></trkpt><trkpt lat="22.118713" lon="103.816635"><ele>795.1</ele><time>2011-04-25T09:27:25.0000000+00:00</time></trkpt><trkpt lat="22.118656" lon="103.816704"><ele>794.8</ele><time>2011-04-25T09:27:30.0000000+00:00</time></trkpt><trkpt lat="22.118599" lon="103.816788"><ele>794.2</ele><time>2011-04-25T09:27:35.0000000+00:00</time></trkpt><trkpt lat="22.118546" lon="103.816841"><ele>794.3</ele><time>2011-04-25T09:27:40.0000000+00:00</time></trkpt><trkpt lat="22.118496" lon="103.816925"><ele>794.1</ele><time>2011-04-25T09:27:45.0000000+00:00</time></trkpt><trkpt lat="22.118448" lon="103.816994"><ele>793.2</ele><time>2011-04-25T09:27:50.0000000+00:00</time></trkpt><trkpt lat="22.11841" lon="103.817062"><ele>792.8</ele><time>2011-04-25T09:27:55.0000000+00:00</time></trkpt><trkpt lat="22.118359" lon="103.817108"><ele>792.8</ele><time>2011-04-25T09:28:00.0000000+00:00</time></trkpt><trkpt lat="22.11828" lon="103.817154"><ele>793.9</ele><time>2011-04-25T09:28:05.0000000+00:00</time></trkpt><trkpt lat="22.118193" lon="103.817192"><ele>795.0</ele><time>2011-04-25T09:28:10.0000000+00:00</time></trkpt><trkpt lat="22.118118" lon="103.81723"><ele>796.0</ele><time>2011-04-25T09:28:15.0000000+00:00</time></trkpt><trkpt lat="22.118074" lon="103.817261"><ele>796.6</ele><time>2011-04-25T09:28:20.0000000+00:00</time></trkpt><trkpt lat="22.118031" lon="103.817299"><ele>796.9</ele><time>2011-04-25T09:28:25.0000000+00:00</time></trkpt><trkpt lat="22.117947" lon="103.817314"><ele>797.3</ele><time>2011-04-25T09:28:30.0000000+00:00</time></trkpt><trkpt lat="22.117886" lon="103.817329"><ele>798.1</ele><time>2011-04-25T09:28:35.0000000+00:00</time></trkpt><trkpt lat="22.117821" lon="103.817352"><ele>799.0</ele><time>2011-04-25T09:28:40.0000000+00:00</time></trkpt><trkpt lat="22.117714" lon="103.81736"><ele>800.2</ele><time>2011-04-25T09:28:45.0000000+00:00</time></trkpt><trkpt lat="22.11764" lon="103.817383"><ele>800.9</ele><time>2011-04-25T09:28:50.0000000+00:00</time></trkpt><trkpt lat="22.117537" lon="103.817398"><ele>802.3</ele><time>2011-04-25T09:28:55.0000000+00:00</time></trkpt><trkpt lat="22.117428" lon="103.817444"><ele>803.3</ele><time>2011-04-25T09:29:00.0000000+00:00</time></trkpt><trkpt lat="22.117367" lon="103.817505"><ele>804.2</ele><time>2011-04-25T09:29:05.0000000+00:00</time></trkpt><trkpt lat="22.117289" lon="103.817604"><ele>805.6</ele><time>2011-04-25T09:29:10.0000000+00:00</time></trkpt><trkpt lat="22.117205" lon="103.817688"><ele>806.1</ele><time>2011-04-25T09:29:15.0000000+00:00</time></trkpt><trkpt lat="22.11714" lon="103.817749"><ele>806.4</ele><time>2011-04-25T09:29:20.0000000+00:00</time></trkpt><trkpt lat="22.117065" lon="103.81781"><ele>809.1</ele><time>2011-04-25T09:29:25.0000000+00:00</time></trkpt><trkpt lat="22.117002" lon="103.817886"><ele>809.3</ele><time>2011-04-25T09:29:30.0000000+00:00</time></trkpt><trkpt lat="22.116898" lon="103.817924"><ele>811.1</ele><time>2011-04-25T09:29:35.0000000+00:00</time></trkpt><trkpt lat="22.116827" lon="103.817955"><ele>812.7</ele><time>2011-04-25T09:29:40.0000000+00:00</time></trkpt><trkpt lat="22.116749" lon="103.81797"><ele>814.1</ele><time>2011-04-25T09:29:45.0000000+00:00</time></trkpt><trkpt lat="22.116634" lon="103.817986"><ele>816.9</ele><time>2011-04-25T09:29:50.0000000+00:00</time></trkpt><trkpt lat="22.116558" lon="103.818024"><ele>819.2</ele><time>2011-04-25T09:29:55.0000000+00:00</time></trkpt><trkpt lat="22.116463" lon="103.818069"><ele>821.4</ele><time>2011-04-25T09:30:00.0000000+00:00</time></trkpt><trkpt lat="22.116405" lon="103.818138"><ele>822.8</ele><time>2011-04-25T09:30:05.0000000+00:00</time></trkpt><trkpt lat="22.116331" lon="103.81823"><ele>823.2</ele><time>2011-04-25T09:30:10.0000000+00:00</time></trkpt><trkpt lat="22.116291" lon="103.818314"><ele>824.2</ele><time>2011-04-25T09:30:15.0000000+00:00</time></trkpt><trkpt lat="22.116261" lon="103.81842"><ele>824.3</ele><time>2011-04-25T09:30:20.0000000+00:00</time></trkpt><trkpt lat="22.116205" lon="103.818512"><ele>823.3</ele><time>2011-04-25T09:30:25.0000000+00:00</time></trkpt><trkpt lat="22.116163" lon="103.818596"><ele>822.9</ele><time>2011-04-25T09:30:30.0000000+00:00</time></trkpt><trkpt lat="22.1161" lon="103.818672"><ele>824.8</ele><time>2011-04-25T09:30:35.0000000+00:00</time></trkpt><trkpt lat="22.116001" lon="103.818741"><ele>828.4</ele><time>2011-04-25T09:30:40.0000000+00:00</time></trkpt><trkpt lat="22.115923" lon="103.818817"><ele>827.5</ele><time>2011-04-25T09:30:45.0000000+00:00</time></trkpt><trkpt lat="22.115841" lon="103.818886"><ele>827.4</ele><time>2011-04-25T09:30:50.0000000+00:00</time></trkpt><trkpt lat="22.115746" lon="103.818939"><ele>826.1</ele><time>2011-04-25T09:30:55.0000000+00:00</time></trkpt><trkpt lat="22.115669" lon="103.819008"><ele>825.8</ele><time>2011-04-25T09:31:00.0000000+00:00</time></trkpt><trkpt lat="22.115583" lon="103.819023"><ele>827.6</ele><time>2011-04-25T09:31:05.0000000+00:00</time></trkpt><trkpt lat="22.115509" lon="103.819016"><ele>828.8</ele><time>2011-04-25T09:31:10.0000000+00:00</time></trkpt><trkpt lat="22.115435" lon="103.819008"><ele>829.8</ele><time>2011-04-25T09:31:15.0000000+00:00</time></trkpt><trkpt lat="22.115391" lon="103.818993"><ele>830.7</ele><time>2011-04-25T09:31:20.0000000+00:00</time></trkpt><trkpt lat="22.115355" lon="103.818985"><ele>832.0</ele><time>2011-04-25T09:31:25.0000000+00:00</time></trkpt><trkpt lat="22.115345" lon="103.818977"><ele>832.9</ele><time>2011-04-25T09:31:30.0000000+00:00</time></trkpt><trkpt lat="22.115345" lon="103.818962"><ele>833.2</ele><time>2011-04-25T09:31:35.0000000+00:00</time></trkpt><trkpt lat="22.115328" lon="103.818939"><ele>832.4</ele><time>2011-04-25T09:31:40.0000000+00:00</time></trkpt><trkpt lat="22.115326" lon="103.818939"><ele>832.5</ele><time>2011-04-25T09:31:45.0000000+00:00</time></trkpt><trkpt lat="22.115324" lon="103.818939"><ele>832.7</ele><time>2011-04-25T09:31:50.0000000+00:00</time></trkpt><trkpt lat="22.115324" lon="103.818939"><ele>832.7</ele><time>2011-04-25T09:31:55.0000000+00:00</time></trkpt><trkpt lat="22.115324" lon="103.818939"><ele>832.7</ele><time>2011-04-25T09:32:00.0000000+00:00</time></trkpt><trkpt lat="22.115322" lon="103.818939"><ele>832.7</ele><time>2011-04-25T09:32:05.0000000+00:00</time></trkpt><trkpt lat="22.115322" lon="103.818939"><ele>832.7</ele><time>2011-04-25T09:32:10.0000000+00:00</time></trkpt><trkpt lat="22.115322" lon="103.818939"><ele>832.7</ele><time>2011-04-25T09:32:15.0000000+00:00</time></trkpt><trkpt lat="22.115322" lon="103.818939"><ele>832.7</ele><time>2011-04-25T09:32:20.0000000+00:00</time></trkpt><trkpt lat="22.115322" lon="103.818939"><ele>832.7</ele><time>2011-04-25T09:32:25.0000000+00:00</time></trkpt><trkpt lat="22.115322" lon="103.818939"><ele>832.7</ele><time>2011-04-25T09:32:30.0000000+00:00</time></trkpt><trkpt lat="22.115322" lon="103.818939"><ele>832.7</ele><time>2011-04-25T09:32:35.0000000+00:00</time></trkpt><trkpt lat="22.115322" lon="103.818939"><ele>832.6</ele><time>2011-04-25T09:32:40.0000000+00:00</time></trkpt><trkpt lat="22.115322" lon="103.818939"><ele>832.6</ele><time>2011-04-25T09:32:45.0000000+00:00</time></trkpt><trkpt lat="22.115322" lon="103.818939"><ele>832.6</ele><time>2011-04-25T09:32:50.0000000+00:00</time></trkpt><trkpt lat="22.115322" lon="103.818939"><ele>832.6</ele><time>2011-04-25T09:32:55.0000000+00:00</time></trkpt><trkpt lat="22.115322" lon="103.818939"><ele>832.6</ele><time>2011-04-25T09:33:00.0000000+00:00</time></trkpt><trkpt lat="22.115322" lon="103.818939"><ele>832.6</ele><time>2011-04-25T09:33:05.0000000+00:00</time></trkpt><trkpt lat="22.11532" lon="103.818939"><ele>832.6</ele><time>2011-04-25T09:33:10.0000000+00:00</time></trkpt><trkpt lat="22.11532" lon="103.818939"><ele>832.6</ele><time>2011-04-25T09:33:15.0000000+00:00</time></trkpt><trkpt lat="22.11532" lon="103.818939"><ele>832.6</ele><time>2011-04-25T09:33:20.0000000+00:00</time></trkpt><trkpt lat="22.11532" lon="103.818939"><ele>832.5</ele><time>2011-04-25T09:33:25.0000000+00:00</time></trkpt><trkpt lat="22.11532" lon="103.818939"><ele>832.5</ele><time>2011-04-25T09:33:30.0000000+00:00</time></trkpt><trkpt lat="22.11532" lon="103.818939"><ele>832.5</ele><time>2011-04-25T09:33:35.0000000+00:00</time></trkpt><trkpt lat="22.115318" lon="103.818939"><ele>832.5</ele><time>2011-04-25T09:33:40.0000000+00:00</time></trkpt><trkpt lat="22.115318" lon="103.818939"><ele>832.5</ele><time>2011-04-25T09:33:45.0000000+00:00</time></trkpt><trkpt lat="22.115318" lon="103.818939"><ele>832.4</ele><time>2011-04-25T09:33:50.0000000+00:00</time></trkpt><trkpt lat="22.115318" lon="103.818939"><ele>832.4</ele><time>2011-04-25T09:33:55.0000000+00:00</time></trkpt><trkpt lat="22.115318" lon="103.818939"><ele>832.4</ele><time>2011-04-25T09:34:00.0000000+00:00</time></trkpt><trkpt lat="22.115318" lon="103.818939"><ele>832.4</ele><time>2011-04-25T09:34:05.0000000+00:00</time></trkpt><trkpt lat="22.115318" lon="103.818939"><ele>832.4</ele><time>2011-04-25T09:34:10.0000000+00:00</time></trkpt><trkpt lat="22.115316" lon="103.818939"><ele>832.4</ele><time>2011-04-25T09:34:15.0000000+00:00</time></trkpt><trkpt lat="22.115316" lon="103.818939"><ele>832.4</ele><time>2011-04-25T09:34:20.0000000+00:00</time></trkpt><trkpt lat="22.115316" lon="103.818939"><ele>832.4</ele><time>2011-04-25T09:34:25.0000000+00:00</time></trkpt><trkpt lat="22.115314" lon="103.818939"><ele>832.3</ele><time>2011-04-25T09:34:30.0000000+00:00</time></trkpt><trkpt lat="22.115314" lon="103.818939"><ele>832.3</ele><time>2011-04-25T09:34:35.0000000+00:00</time></trkpt><trkpt lat="22.115314" lon="103.818939"><ele>832.3</ele><time>2011-04-25T09:34:40.0000000+00:00</time></trkpt><trkpt lat="22.115314" lon="103.818939"><ele>832.3</ele><time>2011-04-25T09:34:45.0000000+00:00</time></trkpt><trkpt lat="22.115313" lon="103.818939"><ele>832.3</ele><time>2011-04-25T09:34:50.0000000+00:00</time></trkpt><trkpt lat="22.115313" lon="103.818939"><ele>832.3</ele><time>2011-04-25T09:34:55.0000000+00:00</time></trkpt><trkpt lat="22.115313" lon="103.818939"><ele>832.3</ele><time>2011-04-25T09:35:00.0000000+00:00</time></trkpt><trkpt lat="22.115311" lon="103.818939"><ele>832.3</ele><time>2011-04-25T09:35:05.0000000+00:00</time></trkpt><trkpt lat="22.115311" lon="103.818939"><ele>832.3</ele><time>2011-04-25T09:35:10.0000000+00:00</time></trkpt><trkpt lat="22.115311" lon="103.818939"><ele>832.3</ele><time>2011-04-25T09:35:15.0000000+00:00</time></trkpt><trkpt lat="22.115309" lon="103.818939"><ele>832.3</ele><time>2011-04-25T09:35:20.0000000+00:00</time></trkpt><trkpt lat="22.115309" lon="103.818939"><ele>832.2</ele><time>2011-04-25T09:35:25.0000000+00:00</time></trkpt><trkpt lat="22.115309" lon="103.818939"><ele>832.3</ele><time>2011-04-25T09:35:30.0000000+00:00</time></trkpt><trkpt lat="22.115309" lon="103.818939"><ele>832.2</ele><time>2011-04-25T09:35:35.0000000+00:00</time></trkpt><trkpt lat="22.115309" lon="103.818939"><ele>832.2</ele><time>2011-04-25T09:35:40.0000000+00:00</time></trkpt><trkpt lat="22.115307" lon="103.818939"><ele>832.2</ele><time>2011-04-25T09:35:45.0000000+00:00</time></trkpt><trkpt lat="22.115307" lon="103.818939"><ele>832.1</ele><time>2011-04-25T09:35:50.0000000+00:00</time></trkpt><trkpt lat="22.115307" lon="103.818939"><ele>832.1</ele><time>2011-04-25T09:35:55.0000000+00:00</time></trkpt><trkpt lat="22.115307" lon="103.818939"><ele>832.0</ele><time>2011-04-25T09:36:00.0000000+00:00</time></trkpt><trkpt lat="22.115307" lon="103.818947"><ele>832.0</ele><time>2011-04-25T09:36:05.0000000+00:00</time></trkpt><trkpt lat="22.115305" lon="103.818947"><ele>832.0</ele><time>2011-04-25T09:36:10.0000000+00:00</time></trkpt><trkpt lat="22.115305" lon="103.818939"><ele>832.0</ele><time>2011-04-25T09:36:15.0000000+00:00</time></trkpt><trkpt lat="22.115305" lon="103.818939"><ele>832.0</ele><time>2011-04-25T09:36:20.0000000+00:00</time></trkpt><trkpt lat="22.115305" lon="103.818947"><ele>832.0</ele><time>2011-04-25T09:36:25.0000000+00:00</time></trkpt><trkpt lat="22.115305" lon="103.818947"><ele>832.0</ele><time>2011-04-25T09:36:30.0000000+00:00</time></trkpt><trkpt lat="22.115305" lon="103.818947"><ele>832.0</ele><time>2011-04-25T09:36:35.0000000+00:00</time></trkpt><trkpt lat="22.115305" lon="103.818947"><ele>831.9</ele><time>2011-04-25T09:36:40.0000000+00:00</time></trkpt><trkpt lat="22.115305" lon="103.818947"><ele>831.9</ele><time>2011-04-25T09:36:45.0000000+00:00</time></trkpt><trkpt lat="22.115305" lon="103.818947"><ele>831.9</ele><time>2011-04-25T09:36:50.0000000+00:00</time></trkpt><trkpt lat="22.115305" lon="103.818947"><ele>831.9</ele><time>2011-04-25T09:36:55.0000000+00:00</time></trkpt><trkpt lat="22.115303" lon="103.818947"><ele>831.8</ele><time>2011-04-25T09:37:00.0000000+00:00</time></trkpt><trkpt lat="22.115303" lon="103.818947"><ele>831.8</ele><time>2011-04-25T09:37:05.0000000+00:00</time></trkpt><trkpt lat="22.115303" lon="103.818947"><ele>831.9</ele><time>2011-04-25T09:37:10.0000000+00:00</time></trkpt><trkpt lat="22.115303" lon="103.818947"><ele>831.9</ele><time>2011-04-25T09:37:15.0000000+00:00</time></trkpt><trkpt lat="22.115303" lon="103.818947"><ele>831.8</ele><time>2011-04-25T09:37:20.0000000+00:00</time></trkpt><trkpt lat="22.115303" lon="103.818947"><ele>831.8</ele><time>2011-04-25T09:37:25.0000000+00:00</time></trkpt><trkpt lat="22.115303" lon="103.818947"><ele>831.8</ele><time>2011-04-25T09:37:30.0000000+00:00</time></trkpt><trkpt lat="22.115301" lon="103.818947"><ele>831.7</ele><time>2011-04-25T09:37:35.0000000+00:00</time></trkpt><trkpt lat="22.115301" lon="103.818947"><ele>831.7</ele><time>2011-04-25T09:37:40.0000000+00:00</time></trkpt><trkpt lat="22.115301" lon="103.818947"><ele>831.7</ele><time>2011-04-25T09:37:45.0000000+00:00</time></trkpt><trkpt lat="22.115301" lon="103.818947"><ele>831.7</ele><time>2011-04-25T09:37:50.0000000+00:00</time></trkpt><trkpt lat="22.115301" lon="103.818947"><ele>831.7</ele><time>2011-04-25T09:37:55.0000000+00:00</time></trkpt><trkpt lat="22.115301" lon="103.818947"><ele>831.7</ele><time>2011-04-25T09:38:00.0000000+00:00</time></trkpt><trkpt lat="22.115299" lon="103.818947"><ele>831.6</ele><time>2011-04-25T09:38:05.0000000+00:00</time></trkpt><trkpt lat="22.115299" lon="103.818939"><ele>831.6</ele><time>2011-04-25T09:38:10.0000000+00:00</time></trkpt><trkpt lat="22.115299" lon="103.818947"><ele>831.6</ele><time>2011-04-25T09:38:15.0000000+00:00</time></trkpt><trkpt lat="22.115299" lon="103.818947"><ele>831.6</ele><time>2011-04-25T09:38:20.0000000+00:00</time></trkpt><trkpt lat="22.115299" lon="103.818939"><ele>831.6</ele><time>2011-04-25T09:38:25.0000000+00:00</time></trkpt><trkpt lat="22.115299" lon="103.818939"><ele>831.6</ele><time>2011-04-25T09:38:30.0000000+00:00</time></trkpt><trkpt lat="22.115299" lon="103.818939"><ele>831.6</ele><time>2011-04-25T09:38:35.0000000+00:00</time></trkpt><trkpt lat="22.115297" lon="103.818939"><ele>831.5</ele><time>2011-04-25T09:38:40.0000000+00:00</time></trkpt><trkpt lat="22.115297" lon="103.818939"><ele>831.5</ele><time>2011-04-25T09:38:45.0000000+00:00</time></trkpt><trkpt lat="22.115297" lon="103.818939"><ele>831.5</ele><time>2011-04-25T09:38:50.0000000+00:00</time></trkpt><trkpt lat="22.115297" lon="103.818939"><ele>831.5</ele><time>2011-04-25T09:38:55.0000000+00:00</time></trkpt><trkpt lat="22.115297" lon="103.818939"><ele>831.5</ele><time>2011-04-25T09:39:00.0000000+00:00</time></trkpt><trkpt lat="22.115297" lon="103.818939"><ele>831.5</ele><time>2011-04-25T09:39:05.0000000+00:00</time></trkpt><trkpt lat="22.115297" lon="103.818939"><ele>831.5</ele><time>2011-04-25T09:39:10.0000000+00:00</time></trkpt><trkpt lat="22.115297" lon="103.818939"><ele>831.5</ele><time>2011-04-25T09:39:15.0000000+00:00</time></trkpt><trkpt lat="22.115297" lon="103.818939"><ele>831.4</ele><time>2011-04-25T09:39:20.0000000+00:00</time></trkpt><trkpt lat="22.115297" lon="103.818939"><ele>831.4</ele><time>2011-04-25T09:39:25.0000000+00:00</time></trkpt><trkpt lat="22.115297" lon="103.818939"><ele>831.4</ele><time>2011-04-25T09:39:30.0000000+00:00</time></trkpt><trkpt lat="22.115297" lon="103.818939"><ele>831.4</ele><time>2011-04-25T09:39:35.0000000+00:00</time></trkpt><trkpt lat="22.115297" lon="103.818939"><ele>831.4</ele><time>2011-04-25T09:39:40.0000000+00:00</time></trkpt><trkpt lat="22.115297" lon="103.818939"><ele>831.4</ele><time>2011-04-25T09:39:45.0000000+00:00</time></trkpt><trkpt lat="22.115295" lon="103.818939"><ele>831.4</ele><time>2011-04-25T09:39:50.0000000+00:00</time></trkpt><trkpt lat="22.115295" lon="103.818939"><ele>831.3</ele><time>2011-04-25T09:39:55.0000000+00:00</time></trkpt><trkpt lat="22.115295" lon="103.818939"><ele>831.3</ele><time>2011-04-25T09:40:00.0000000+00:00</time></trkpt><trkpt lat="22.115295" lon="103.818939"><ele>831.3</ele><time>2011-04-25T09:40:05.0000000+00:00</time></trkpt><trkpt lat="22.115295" lon="103.818939"><ele>831.3</ele><time>2011-04-25T09:40:10.0000000+00:00</time></trkpt><trkpt lat="22.115295" lon="103.818939"><ele>831.3</ele><time>2011-04-25T09:40:15.0000000+00:00</time></trkpt><trkpt lat="22.115295" lon="103.818939"><ele>831.2</ele><time>2011-04-25T09:40:20.0000000+00:00</time></trkpt><trkpt lat="22.115295" lon="103.818939"><ele>831.2</ele><time>2011-04-25T09:40:25.0000000+00:00</time></trkpt><trkpt lat="22.115294" lon="103.818939"><ele>831.2</ele><time>2011-04-25T09:40:30.0000000+00:00</time></trkpt><trkpt lat="22.115294" lon="103.818939"><ele>831.2</ele><time>2011-04-25T09:40:35.0000000+00:00</time></trkpt><trkpt lat="22.115294" lon="103.818939"><ele>831.2</ele><time>2011-04-25T09:40:40.0000000+00:00</time></trkpt><trkpt lat="22.115294" lon="103.818939"><ele>831.2</ele><time>2011-04-25T09:40:45.0000000+00:00</time></trkpt><trkpt lat="22.115294" lon="103.818939"><ele>831.1</ele><time>2011-04-25T09:40:50.0000000+00:00</time></trkpt><trkpt lat="22.115294" lon="103.818939"><ele>831.1</ele><time>2011-04-25T09:40:55.0000000+00:00</time></trkpt><trkpt lat="22.115294" lon="103.818939"><ele>831.1</ele><time>2011-04-25T09:41:00.0000000+00:00</time></trkpt><trkpt lat="22.115294" lon="103.818939"><ele>831.1</ele><time>2011-04-25T09:41:05.0000000+00:00</time></trkpt><trkpt lat="22.115294" lon="103.818939"><ele>831.1</ele><time>2011-04-25T09:41:10.0000000+00:00</time></trkpt><trkpt lat="22.115294" lon="103.818939"><ele>831.1</ele><time>2011-04-25T09:41:15.0000000+00:00</time></trkpt><trkpt lat="22.115294" lon="103.818939"><ele>831.1</ele><time>2011-04-25T09:41:20.0000000+00:00</time></trkpt><trkpt lat="22.115292" lon="103.818939"><ele>831.0</ele><time>2011-04-25T09:41:25.0000000+00:00</time></trkpt><trkpt lat="22.115292" lon="103.818939"><ele>831.0</ele><time>2011-04-25T09:41:30.0000000+00:00</time></trkpt><trkpt lat="22.115292" lon="103.818939"><ele>831.0</ele><time>2011-04-25T09:41:35.0000000+00:00</time></trkpt><trkpt lat="22.115292" lon="103.818939"><ele>831.0</ele><time>2011-04-25T09:41:40.0000000+00:00</time></trkpt><trkpt lat="22.115292" lon="103.818939"><ele>831.0</ele><time>2011-04-25T09:41:45.0000000+00:00</time></trkpt><trkpt lat="22.115292" lon="103.818939"><ele>831.0</ele><time>2011-04-25T09:41:50.0000000+00:00</time></trkpt><trkpt lat="22.115292" lon="103.818939"><ele>830.9</ele><time>2011-04-25T09:41:55.0000000+00:00</time></trkpt><trkpt lat="22.115292" lon="103.818939"><ele>830.9</ele><time>2011-04-25T09:42:00.0000000+00:00</time></trkpt><trkpt lat="22.115292" lon="103.818939"><ele>830.9</ele><time>2011-04-25T09:42:05.0000000+00:00</time></trkpt><trkpt lat="22.11529" lon="103.818939"><ele>830.9</ele><time>2011-04-25T09:42:10.0000000+00:00</time></trkpt><trkpt lat="22.11529" lon="103.818939"><ele>830.9</ele><time>2011-04-25T09:42:15.0000000+00:00</time></trkpt><trkpt lat="22.11529" lon="103.818939"><ele>830.9</ele><time>2011-04-25T09:42:20.0000000+00:00</time></trkpt><trkpt lat="22.11529" lon="103.818939"><ele>830.9</ele><time>2011-04-25T09:42:25.0000000+00:00</time></trkpt><trkpt lat="22.11529" lon="103.818939"><ele>830.9</ele><time>2011-04-25T09:42:30.0000000+00:00</time></trkpt><trkpt lat="22.11529" lon="103.818939"><ele>830.9</ele><time>2011-04-25T09:42:35.0000000+00:00</time></trkpt><trkpt lat="22.11529" lon="103.818939"><ele>830.9</ele><time>2011-04-25T09:42:40.0000000+00:00</time></trkpt><trkpt lat="22.11529" lon="103.818939"><ele>830.9</ele><time>2011-04-25T09:42:45.0000000+00:00</time></trkpt><trkpt lat="22.11529" lon="103.818939"><ele>830.8</ele><time>2011-04-25T09:42:50.0000000+00:00</time></trkpt><trkpt lat="22.11529" lon="103.818939"><ele>830.8</ele><time>2011-04-25T09:42:55.0000000+00:00</time></trkpt><trkpt lat="22.11529" lon="103.818939"><ele>830.8</ele><time>2011-04-25T09:43:00.0000000+00:00</time></trkpt><trkpt lat="22.11529" lon="103.818939"><ele>830.8</ele><time>2011-04-25T09:43:05.0000000+00:00</time></trkpt><trkpt lat="22.11529" lon="103.818939"><ele>830.8</ele><time>2011-04-25T09:43:10.0000000+00:00</time></trkpt><trkpt lat="22.115288" lon="103.818939"><ele>830.7</ele><time>2011-04-25T09:43:15.0000000+00:00</time></trkpt><trkpt lat="22.115288" lon="103.818939"><ele>830.7</ele><time>2011-04-25T09:43:20.0000000+00:00</time></trkpt><trkpt lat="22.115288" lon="103.818939"><ele>830.7</ele><time>2011-04-25T09:43:25.0000000+00:00</time></trkpt><trkpt lat="22.115288" lon="103.818939"><ele>830.7</ele><time>2011-04-25T09:43:30.0000000+00:00</time></trkpt><trkpt lat="22.115288" lon="103.818939"><ele>830.7</ele><time>2011-04-25T09:43:35.0000000+00:00</time></trkpt><trkpt lat="22.115288" lon="103.818939"><ele>830.7</ele><time>2011-04-25T09:43:40.0000000+00:00</time></trkpt><trkpt lat="22.115288" lon="103.818939"><ele>830.6</ele><time>2011-04-25T09:43:45.0000000+00:00</time></trkpt><trkpt lat="22.115288" lon="103.818939"><ele>830.6</ele><time>2011-04-25T09:43:50.0000000+00:00</time></trkpt><trkpt lat="22.115288" lon="103.818939"><ele>830.6</ele><time>2011-04-25T09:43:55.0000000+00:00</time></trkpt><trkpt lat="22.115288" lon="103.818939"><ele>830.6</ele><time>2011-04-25T09:44:00.0000000+00:00</time></trkpt><trkpt lat="22.115288" lon="103.818939"><ele>830.6</ele><time>2011-04-25T09:44:05.0000000+00:00</time></trkpt><trkpt lat="22.115286" lon="103.818939"><ele>830.5</ele><time>2011-04-25T09:44:10.0000000+00:00</time></trkpt><trkpt lat="22.115286" lon="103.818939"><ele>830.5</ele><time>2011-04-25T09:44:15.0000000+00:00</time></trkpt><trkpt lat="22.115286" lon="103.818939"><ele>830.5</ele><time>2011-04-25T09:44:20.0000000+00:00</time></trkpt><trkpt lat="22.115286" lon="103.818939"><ele>830.4</ele><time>2011-04-25T09:44:25.0000000+00:00</time></trkpt><trkpt lat="22.115286" lon="103.818939"><ele>830.4</ele><time>2011-04-25T09:44:30.0000000+00:00</time></trkpt><trkpt lat="22.115286" lon="103.818939"><ele>830.4</ele><time>2011-04-25T09:44:35.0000000+00:00</time></trkpt><trkpt lat="22.115286" lon="103.818939"><ele>830.4</ele><time>2011-04-25T09:44:40.0000000+00:00</time></trkpt><trkpt lat="22.115286" lon="103.818939"><ele>830.4</ele><time>2011-04-25T09:44:45.0000000+00:00</time></trkpt><trkpt lat="22.115284" lon="103.818939"><ele>830.3</ele><time>2011-04-25T09:44:50.0000000+00:00</time></trkpt><trkpt lat="22.115284" lon="103.818939"><ele>830.3</ele><time>2011-04-25T09:44:55.0000000+00:00</time></trkpt><trkpt lat="22.115284" lon="103.818939"><ele>830.3</ele><time>2011-04-25T09:45:00.0000000+00:00</time></trkpt><trkpt lat="22.115284" lon="103.818939"><ele>830.3</ele><time>2011-04-25T09:45:05.0000000+00:00</time></trkpt><trkpt lat="22.115284" lon="103.818939"><ele>830.2</ele><time>2011-04-25T09:45:10.0000000+00:00</time></trkpt><trkpt lat="22.115284" lon="103.818939"><ele>830.2</ele><time>2011-04-25T09:45:15.0000000+00:00</time></trkpt><trkpt lat="22.115284" lon="103.818939"><ele>830.2</ele><time>2011-04-25T09:45:20.0000000+00:00</time></trkpt><trkpt lat="22.115284" lon="103.818939"><ele>830.1</ele><time>2011-04-25T09:45:25.0000000+00:00</time></trkpt><trkpt lat="22.115284" lon="103.818939"><ele>830.1</ele><time>2011-04-25T09:45:30.0000000+00:00</time></trkpt><trkpt lat="22.115284" lon="103.818939"><ele>830.1</ele><time>2011-04-25T09:45:35.0000000+00:00</time></trkpt><trkpt lat="22.115282" lon="103.818932"><ele>830.1</ele><time>2011-04-25T09:45:40.0000000+00:00</time></trkpt><trkpt lat="22.115282" lon="103.818932"><ele>830.0</ele><time>2011-04-25T09:45:45.0000000+00:00</time></trkpt><trkpt lat="22.115282" lon="103.818932"><ele>830.0</ele><time>2011-04-25T09:45:50.0000000+00:00</time></trkpt><trkpt lat="22.115282" lon="103.818932"><ele>830.0</ele><time>2011-04-25T09:45:55.0000000+00:00</time></trkpt><trkpt lat="22.115282" lon="103.818932"><ele>830.0</ele><time>2011-04-25T09:46:00.0000000+00:00</time></trkpt><trkpt lat="22.115282" lon="103.818932"><ele>830.0</ele><time>2011-04-25T09:46:05.0000000+00:00</time></trkpt><trkpt lat="22.115282" lon="103.818932"><ele>829.9</ele><time>2011-04-25T09:46:10.0000000+00:00</time></trkpt><trkpt lat="22.115282" lon="103.818932"><ele>829.9</ele><time>2011-04-25T09:46:15.0000000+00:00</time></trkpt><trkpt lat="22.115282" lon="103.818939"><ele>829.9</ele><time>2011-04-25T09:46:20.0000000+00:00</time></trkpt><trkpt lat="22.115282" lon="103.818939"><ele>829.8</ele><time>2011-04-25T09:46:25.0000000+00:00</time></trkpt><trkpt lat="22.115282" lon="103.818939"><ele>829.8</ele><time>2011-04-25T09:46:30.0000000+00:00</time></trkpt><trkpt lat="22.115282" lon="103.818939"><ele>829.8</ele><time>2011-04-25T09:46:35.0000000+00:00</time></trkpt><trkpt lat="22.11528" lon="103.818939"><ele>829.7</ele><time>2011-04-25T09:46:40.0000000+00:00</time></trkpt><trkpt lat="22.11528" lon="103.818939"><ele>829.7</ele><time>2011-04-25T09:46:45.0000000+00:00</time></trkpt><trkpt lat="22.11528" lon="103.818939"><ele>829.7</ele><time>2011-04-25T09:46:50.0000000+00:00</time></trkpt><trkpt lat="22.11528" lon="103.818939"><ele>829.6</ele><time>2011-04-25T09:46:55.0000000+00:00</time></trkpt><trkpt lat="22.11528" lon="103.818939"><ele>829.6</ele><time>2011-04-25T09:47:00.0000000+00:00</time></trkpt><trkpt lat="22.11528" lon="103.818939"><ele>829.6</ele><time>2011-04-25T09:47:05.0000000+00:00</time></trkpt><trkpt lat="22.11528" lon="103.818939"><ele>829.5</ele><time>2011-04-25T09:47:10.0000000+00:00</time></trkpt><trkpt lat="22.11528" lon="103.818939"><ele>829.5</ele><time>2011-04-25T09:47:15.0000000+00:00</time></trkpt><trkpt lat="22.11528" lon="103.818939"><ele>829.4</ele><time>2011-04-25T09:47:20.0000000+00:00</time></trkpt><trkpt lat="22.11528" lon="103.818939"><ele>829.4</ele><time>2011-04-25T09:47:25.0000000+00:00</time></trkpt><trkpt lat="22.11528" lon="103.818939"><ele>829.4</ele><time>2011-04-25T09:47:30.0000000+00:00</time></trkpt><trkpt lat="22.11528" lon="103.818939"><ele>829.3</ele><time>2011-04-25T09:47:35.0000000+00:00</time></trkpt><trkpt lat="22.11528" lon="103.818939"><ele>829.3</ele><time>2011-04-25T09:47:40.0000000+00:00</time></trkpt><trkpt lat="22.11528" lon="103.818939"><ele>829.3</ele><time>2011-04-25T09:47:45.0000000+00:00</time></trkpt><trkpt lat="22.11528" lon="103.818939"><ele>829.2</ele><time>2011-04-25T09:47:50.0000000+00:00</time></trkpt><trkpt lat="22.11528" lon="103.818939"><ele>829.2</ele><time>2011-04-25T09:47:55.0000000+00:00</time></trkpt><trkpt lat="22.11528" lon="103.818939"><ele>829.1</ele><time>2011-04-25T09:48:00.0000000+00:00</time></trkpt><trkpt lat="22.11528" lon="103.818939"><ele>829.1</ele><time>2011-04-25T09:48:05.0000000+00:00</time></trkpt><trkpt lat="22.11528" lon="103.818939"><ele>829.1</ele><time>2011-04-25T09:48:10.0000000+00:00</time></trkpt><trkpt lat="22.11528" lon="103.818939"><ele>829.1</ele><time>2011-04-25T09:48:15.0000000+00:00</time></trkpt><trkpt lat="22.11528" lon="103.818939"><ele>829.0</ele><time>2011-04-25T09:48:20.0000000+00:00</time></trkpt><trkpt lat="22.11528" lon="103.818939"><ele>829.0</ele><time>2011-04-25T09:48:25.0000000+00:00</time></trkpt><trkpt lat="22.11528" lon="103.818939"><ele>829.0</ele><time>2011-04-25T09:48:30.0000000+00:00</time></trkpt><trkpt lat="22.11528" lon="103.818939"><ele>829.0</ele><time>2011-04-25T09:48:35.0000000+00:00</time></trkpt><trkpt lat="22.11528" lon="103.818939"><ele>829.0</ele><time>2011-04-25T09:48:40.0000000+00:00</time></trkpt><trkpt lat="22.11528" lon="103.818939"><ele>829.0</ele><time>2011-04-25T09:48:45.0000000+00:00</time></trkpt><trkpt lat="22.11528" lon="103.818939"><ele>828.9</ele><time>2011-04-25T09:48:50.0000000+00:00</time></trkpt><trkpt lat="22.11528" lon="103.818939"><ele>829.0</ele><time>2011-04-25T09:48:55.0000000+00:00</time></trkpt><trkpt lat="22.11528" lon="103.818939"><ele>828.9</ele><time>2011-04-25T09:49:00.0000000+00:00</time></trkpt><trkpt lat="22.11528" lon="103.818939"><ele>828.9</ele><time>2011-04-25T09:49:05.0000000+00:00</time></trkpt><trkpt lat="22.115278" lon="103.818939"><ele>828.9</ele><time>2011-04-25T09:49:10.0000000+00:00</time></trkpt><trkpt lat="22.115278" lon="103.818939"><ele>828.9</ele><time>2011-04-25T09:49:15.0000000+00:00</time></trkpt><trkpt lat="22.115278" lon="103.818939"><ele>828.9</ele><time>2011-04-25T09:49:20.0000000+00:00</time></trkpt><trkpt lat="22.115278" lon="103.818939"><ele>828.9</ele><time>2011-04-25T09:49:25.0000000+00:00</time></trkpt><trkpt lat="22.115278" lon="103.818939"><ele>828.9</ele><time>2011-04-25T09:49:30.0000000+00:00</time></trkpt><trkpt lat="22.115278" lon="103.818939"><ele>828.8</ele><time>2011-04-25T09:49:35.0000000+00:00</time></trkpt><trkpt lat="22.115278" lon="103.818939"><ele>828.8</ele><time>2011-04-25T09:49:40.0000000+00:00</time></trkpt><trkpt lat="22.115278" lon="103.818939"><ele>828.7</ele><time>2011-04-25T09:49:45.0000000+00:00</time></trkpt><trkpt lat="22.115278" lon="103.818939"><ele>828.7</ele><time>2011-04-25T09:49:50.0000000+00:00</time></trkpt><trkpt lat="22.115278" lon="103.818939"><ele>828.7</ele><time>2011-04-25T09:49:55.0000000+00:00</time></trkpt><trkpt lat="22.115278" lon="103.818939"><ele>828.7</ele><time>2011-04-25T09:50:00.0000000+00:00</time></trkpt><trkpt lat="22.115278" lon="103.818939"><ele>828.7</ele><time>2011-04-25T09:50:05.0000000+00:00</time></trkpt><trkpt lat="22.115278" lon="103.818939"><ele>828.6</ele><time>2011-04-25T09:50:10.0000000+00:00</time></trkpt><trkpt lat="22.115278" lon="103.818939"><ele>828.6</ele><time>2011-04-25T09:50:15.0000000+00:00</time></trkpt><trkpt lat="22.115278" lon="103.818939"><ele>828.6</ele><time>2011-04-25T09:50:20.0000000+00:00</time></trkpt><trkpt lat="22.115278" lon="103.818939"><ele>828.6</ele><time>2011-04-25T09:50:25.0000000+00:00</time></trkpt><trkpt lat="22.115278" lon="103.818939"><ele>828.6</ele><time>2011-04-25T09:50:30.0000000+00:00</time></trkpt><trkpt lat="22.115278" lon="103.818939"><ele>828.6</ele><time>2011-04-25T09:50:35.0000000+00:00</time></trkpt><trkpt lat="22.115278" lon="103.818939"><ele>828.6</ele><time>2011-04-25T09:50:40.0000000+00:00</time></trkpt><trkpt lat="22.115278" lon="103.818939"><ele>828.5</ele><time>2011-04-25T09:50:45.0000000+00:00</time></trkpt><trkpt lat="22.115278" lon="103.818939"><ele>828.5</ele><time>2011-04-25T09:50:50.0000000+00:00</time></trkpt><trkpt lat="22.115278" lon="103.818939"><ele>828.5</ele><time>2011-04-25T09:50:55.0000000+00:00</time></trkpt><trkpt lat="22.115278" lon="103.818939"><ele>828.5</ele><time>2011-04-25T09:51:00.0000000+00:00</time></trkpt><trkpt lat="22.115278" lon="103.818939"><ele>828.5</ele><time>2011-04-25T09:51:05.0000000+00:00</time></trkpt><trkpt lat="22.115278" lon="103.818939"><ele>828.5</ele><time>2011-04-25T09:51:10.0000000+00:00</time></trkpt><trkpt lat="22.115276" lon="103.818939"><ele>828.4</ele><time>2011-04-25T09:51:15.0000000+00:00</time></trkpt><trkpt lat="22.115276" lon="103.818939"><ele>828.4</ele><time>2011-04-25T09:51:20.0000000+00:00</time></trkpt><trkpt lat="22.115276" lon="103.818939"><ele>828.4</ele><time>2011-04-25T09:51:25.0000000+00:00</time></trkpt><trkpt lat="22.115276" lon="103.818939"><ele>828.4</ele><time>2011-04-25T09:51:30.0000000+00:00</time></trkpt><trkpt lat="22.115276" lon="103.818939"><ele>828.4</ele><time>2011-04-25T09:51:35.0000000+00:00</time></trkpt><trkpt lat="22.115276" lon="103.818939"><ele>828.4</ele><time>2011-04-25T09:51:40.0000000+00:00</time></trkpt><trkpt lat="22.115276" lon="103.818939"><ele>828.4</ele><time>2011-04-25T09:51:45.0000000+00:00</time></trkpt><trkpt lat="22.115276" lon="103.818939"><ele>828.4</ele><time>2011-04-25T09:51:50.0000000+00:00</time></trkpt><trkpt lat="22.115276" lon="103.818939"><ele>828.4</ele><time>2011-04-25T09:51:55.0000000+00:00</time></trkpt><trkpt lat="22.115276" lon="103.818932"><ele>828.4</ele><time>2011-04-25T09:52:00.0000000+00:00</time></trkpt><trkpt lat="22.115274" lon="103.818932"><ele>828.1</ele><time>2011-04-25T09:52:05.0000000+00:00</time></trkpt><trkpt lat="22.115273" lon="103.818924"><ele>827.8</ele><time>2011-04-25T09:52:10.0000000+00:00</time></trkpt><trkpt lat="22.115276" lon="103.818932"><ele>827.5</ele><time>2011-04-25T09:52:15.0000000+00:00</time></trkpt><trkpt lat="22.115282" lon="103.818939"><ele>827.2</ele><time>2011-04-25T09:52:20.0000000+00:00</time></trkpt><trkpt lat="22.115286" lon="103.818939"><ele>827.1</ele><time>2011-04-25T09:52:25.0000000+00:00</time></trkpt><trkpt lat="22.115294" lon="103.818939"><ele>827.0</ele><time>2011-04-25T09:52:30.0000000+00:00</time></trkpt><trkpt lat="22.115294" lon="103.818947"><ele>826.9</ele><time>2011-04-25T09:52:35.0000000+00:00</time></trkpt><trkpt lat="22.115294" lon="103.818947"><ele>826.8</ele><time>2011-04-25T09:52:40.0000000+00:00</time></trkpt><trkpt lat="22.115297" lon="103.818939"><ele>826.5</ele><time>2011-04-25T09:52:45.0000000+00:00</time></trkpt><trkpt lat="22.115297" lon="103.818939"><ele>826.5</ele><time>2011-04-25T09:52:50.0000000+00:00</time></trkpt><trkpt lat="22.115297" lon="103.818939"><ele>826.5</ele><time>2011-04-25T09:52:55.0000000+00:00</time></trkpt><trkpt lat="22.115297" lon="103.818939"><ele>826.5</ele><time>2011-04-25T09:53:00.0000000+00:00</time></trkpt><trkpt lat="22.115297" lon="103.818939"><ele>826.5</ele><time>2011-04-25T09:53:05.0000000+00:00</time></trkpt><trkpt lat="22.115297" lon="103.818939"><ele>826.5</ele><time>2011-04-25T09:53:10.0000000+00:00</time></trkpt><trkpt lat="22.115297" lon="103.818939"><ele>826.5</ele><time>2011-04-25T09:53:15.0000000+00:00</time></trkpt><trkpt lat="22.115297" lon="103.818939"><ele>826.5</ele><time>2011-04-25T09:53:20.0000000+00:00</time></trkpt><trkpt lat="22.115297" lon="103.818939"><ele>826.5</ele><time>2011-04-25T09:53:25.0000000+00:00</time></trkpt><trkpt lat="22.115297" lon="103.818939"><ele>826.5</ele><time>2011-04-25T09:53:30.0000000+00:00</time></trkpt><trkpt lat="22.115297" lon="103.818939"><ele>826.5</ele><time>2011-04-25T09:53:35.0000000+00:00</time></trkpt><trkpt lat="22.115297" lon="103.818939"><ele>826.5</ele><time>2011-04-25T09:53:40.0000000+00:00</time></trkpt><trkpt lat="22.115297" lon="103.818939"><ele>826.5</ele><time>2011-04-25T09:53:45.0000000+00:00</time></trkpt><trkpt lat="22.115297" lon="103.818939"><ele>826.5</ele><time>2011-04-25T09:53:50.0000000+00:00</time></trkpt><trkpt lat="22.115297" lon="103.818939"><ele>826.5</ele><time>2011-04-25T09:53:55.0000000+00:00</time></trkpt><trkpt lat="22.115297" lon="103.818939"><ele>826.4</ele><time>2011-04-25T09:54:00.0000000+00:00</time></trkpt><trkpt lat="22.115297" lon="103.818939"><ele>826.4</ele><time>2011-04-25T09:54:05.0000000+00:00</time></trkpt><trkpt lat="22.115297" lon="103.818939"><ele>826.4</ele><time>2011-04-25T09:54:10.0000000+00:00</time></trkpt><trkpt lat="22.115297" lon="103.818939"><ele>826.4</ele><time>2011-04-25T09:54:15.0000000+00:00</time></trkpt><trkpt lat="22.115297" lon="103.818939"><ele>826.4</ele><time>2011-04-25T09:54:20.0000000+00:00</time></trkpt><trkpt lat="22.115297" lon="103.818939"><ele>826.3</ele><time>2011-04-25T09:54:25.0000000+00:00</time></trkpt><trkpt lat="22.115297" lon="103.818939"><ele>826.3</ele><time>2011-04-25T09:54:30.0000000+00:00</time></trkpt><trkpt lat="22.115297" lon="103.818939"><ele>826.3</ele><time>2011-04-25T09:54:35.0000000+00:00</time></trkpt><trkpt lat="22.115295" lon="103.818939"><ele>826.2</ele><time>2011-04-25T09:54:40.0000000+00:00</time></trkpt><trkpt lat="22.115295" lon="103.818939"><ele>826.2</ele><time>2011-04-25T09:54:45.0000000+00:00</time></trkpt><trkpt lat="22.115295" lon="103.818939"><ele>826.2</ele><time>2011-04-25T09:54:50.0000000+00:00</time></trkpt><trkpt lat="22.115295" lon="103.818939"><ele>826.2</ele><time>2011-04-25T09:54:55.0000000+00:00</time></trkpt><trkpt lat="22.115295" lon="103.818939"><ele>826.1</ele><time>2011-04-25T09:55:00.0000000+00:00</time></trkpt><trkpt lat="22.115297" lon="103.818939"><ele>826.1</ele><time>2011-04-25T09:55:05.0000000+00:00</time></trkpt><trkpt lat="22.115301" lon="103.818939"><ele>826.1</ele><time>2011-04-25T09:55:10.0000000+00:00</time></trkpt><trkpt lat="22.115307" lon="103.818939"><ele>826.1</ele><time>2011-04-25T09:55:15.0000000+00:00</time></trkpt><trkpt lat="22.115309" lon="103.818932"><ele>826.0</ele><time>2011-04-25T09:55:20.0000000+00:00</time></trkpt><trkpt lat="22.115307" lon="103.818932"><ele>826.0</ele><time>2011-04-25T09:55:25.0000000+00:00</time></trkpt><trkpt lat="22.115311" lon="103.818924"><ele>826.1</ele><time>2011-04-25T09:55:30.0000000+00:00</time></trkpt><trkpt lat="22.115313" lon="103.818916"><ele>826.1</ele><time>2011-04-25T09:55:35.0000000+00:00</time></trkpt><trkpt lat="22.115313" lon="103.818916"><ele>826.1</ele><time>2011-04-25T09:55:40.0000000+00:00</time></trkpt><trkpt lat="22.115309" lon="103.818924"><ele>826.0</ele><time>2011-04-25T09:55:45.0000000+00:00</time></trkpt><trkpt lat="22.115307" lon="103.818932"><ele>826.0</ele><time>2011-04-25T09:55:50.0000000+00:00</time></trkpt><trkpt lat="22.115301" lon="103.818924"><ele>826.0</ele><time>2011-04-25T09:55:55.0000000+00:00</time></trkpt><trkpt lat="22.115295" lon="103.818924"><ele>826.0</ele><time>2011-04-25T09:56:00.0000000+00:00</time></trkpt><trkpt lat="22.11529" lon="103.818924"><ele>825.9</ele><time>2011-04-25T09:56:05.0000000+00:00</time></trkpt><trkpt lat="22.115286" lon="103.818916"><ele>825.9</ele><time>2011-04-25T09:56:10.0000000+00:00</time></trkpt><trkpt lat="22.11528" lon="103.818909"><ele>825.9</ele><time>2011-04-25T09:56:15.0000000+00:00</time></trkpt><trkpt lat="22.115276" lon="103.818909"><ele>825.9</ele><time>2011-04-25T09:56:20.0000000+00:00</time></trkpt><trkpt lat="22.115274" lon="103.818916"><ele>825.9</ele><time>2011-04-25T09:56:25.0000000+00:00</time></trkpt><trkpt lat="22.115276" lon="103.818924"><ele>825.9</ele><time>2011-04-25T09:56:30.0000000+00:00</time></trkpt><trkpt lat="22.115274" lon="103.818916"><ele>825.8</ele><time>2011-04-25T09:56:35.0000000+00:00</time></trkpt><trkpt lat="22.115274" lon="103.818924"><ele>825.8</ele><time>2011-04-25T09:56:40.0000000+00:00</time></trkpt><trkpt lat="22.115253" lon="103.818954"><ele>825.7</ele><time>2011-04-25T09:56:45.0000000+00:00</time></trkpt><trkpt lat="22.115229" lon="103.818962"><ele>824.7</ele><time>2011-04-25T09:56:50.0000000+00:00</time></trkpt><trkpt lat="22.115141" lon="103.818924"><ele>824.3</ele><time>2011-04-25T09:56:55.0000000+00:00</time></trkpt><trkpt lat="22.115009" lon="103.818916"><ele>823.7</ele><time>2011-04-25T09:57:00.0000000+00:00</time></trkpt><trkpt lat="22.114914" lon="103.818932"><ele>823.4</ele><time>2011-04-25T09:57:05.0000000+00:00</time></trkpt><trkpt lat="22.114878" lon="103.818924"><ele>822.9</ele><time>2011-04-25T09:57:10.0000000+00:00</time></trkpt><trkpt lat="22.114872" lon="103.818932"><ele>822.3</ele><time>2011-04-25T09:57:15.0000000+00:00</time></trkpt><trkpt lat="22.114786" lon="103.818954"><ele>821.4</ele><time>2011-04-25T09:57:20.0000000+00:00</time></trkpt><trkpt lat="22.114607" lon="103.819031"><ele>820.4</ele><time>2011-04-25T09:57:25.0000000+00:00</time></trkpt><trkpt lat="22.114401" lon="103.81916"><ele>818.5</ele><time>2011-04-25T09:57:30.0000000+00:00</time></trkpt><trkpt lat="22.11414" lon="103.819397"><ele>815.3</ele><time>2011-04-25T09:57:35.0000000+00:00</time></trkpt><trkpt lat="22.113806" lon="103.819733"><ele>811.7</ele><time>2011-04-25T09:57:40.0000000+00:00</time></trkpt><trkpt lat="22.113337" lon="103.82"><ele>807.6</ele><time>2011-04-25T09:57:45.0000000+00:00</time></trkpt><trkpt lat="22.112747" lon="103.820198"><ele>803.9</ele><time>2011-04-25T09:57:50.0000000+00:00</time></trkpt><trkpt lat="22.112074" lon="103.820351"><ele>798.9</ele><time>2011-04-25T09:57:55.0000000+00:00</time></trkpt><trkpt lat="22.111473" lon="103.820374"><ele>794.0</ele><time>2011-04-25T09:58:00.0000000+00:00</time></trkpt><trkpt lat="22.111082" lon="103.820526"><ele>788.6</ele><time>2011-04-25T09:58:05.0000000+00:00</time></trkpt><trkpt lat="22.111132" lon="103.820885"><ele>786.9</ele><time>2011-04-25T09:58:10.0000000+00:00</time></trkpt><trkpt lat="22.111494" lon="103.821159"><ele>783.8</ele><time>2011-04-25T09:58:15.0000000+00:00</time></trkpt><trkpt lat="22.111929" lon="103.82148"><ele>779.9</ele><time>2011-04-25T09:58:20.0000000+00:00</time></trkpt><trkpt lat="22.111996" lon="103.821907"><ele>775.9</ele><time>2011-04-25T09:58:25.0000000+00:00</time></trkpt><trkpt lat="22.111639" lon="103.822182"><ele>771.0</ele><time>2011-04-25T09:58:30.0000000+00:00</time></trkpt><trkpt lat="22.111252" lon="103.822479"><ele>767.7</ele><time>2011-04-25T09:58:35.0000000+00:00</time></trkpt><trkpt lat="22.110762" lon="103.822456"><ele>764.9</ele><time>2011-04-25T09:58:40.0000000+00:00</time></trkpt><trkpt lat="22.110287" lon="103.822617"><ele>760.8</ele><time>2011-04-25T09:58:45.0000000+00:00</time></trkpt><trkpt lat="22.109779" lon="103.822578"><ele>757.3</ele><time>2011-04-25T09:58:50.0000000+00:00</time></trkpt><trkpt lat="22.109287" lon="103.822746"><ele>753.5</ele><time>2011-04-25T09:58:55.0000000+00:00</time></trkpt><trkpt lat="22.108961" lon="103.822777"><ele>751.1</ele><time>2011-04-25T09:59:00.0000000+00:00</time></trkpt><trkpt lat="22.108669" lon="103.822739"><ele>748.7</ele><time>2011-04-25T09:59:05.0000000+00:00</time></trkpt><trkpt lat="22.108286" lon="103.822823"><ele>745.7</ele><time>2011-04-25T09:59:10.0000000+00:00</time></trkpt><trkpt lat="22.107851" lon="103.82309"><ele>742.4</ele><time>2011-04-25T09:59:15.0000000+00:00</time></trkpt><trkpt lat="22.107307" lon="103.823227"><ele>739.4</ele><time>2011-04-25T09:59:20.0000000+00:00</time></trkpt><trkpt lat="22.106661" lon="103.823296"><ele>734.6</ele><time>2011-04-25T09:59:25.0000000+00:00</time></trkpt><trkpt lat="22.106026" lon="103.82341"><ele>729.2</ele><time>2011-04-25T09:59:30.0000000+00:00</time></trkpt><trkpt lat="22.105518" lon="103.823532"><ele>725.9</ele><time>2011-04-25T09:59:35.0000000+00:00</time></trkpt><trkpt lat="22.105179" lon="103.823982"><ele>717.4</ele><time>2011-04-25T09:59:40.0000000+00:00</time></trkpt><trkpt lat="22.105286" lon="103.824524"><ele>713.6</ele><time>2011-04-25T09:59:45.0000000+00:00</time></trkpt><trkpt lat="22.105518" lon="103.82505"><ele>711.1</ele><time>2011-04-25T09:59:50.0000000+00:00</time></trkpt><trkpt lat="22.105339" lon="103.825279"><ele>707.9</ele><time>2011-04-25T09:59:55.0000000+00:00</time></trkpt><trkpt lat="22.104958" lon="103.82518"><ele>706.3</ele><time>2011-04-25T10:00:00.0000000+00:00</time></trkpt><trkpt lat="22.104464" lon="103.825043"><ele>703.8</ele><time>2011-04-25T10:00:05.0000000+00:00</time></trkpt><trkpt lat="22.103899" lon="103.824928"><ele>700.4</ele><time>2011-04-25T10:00:10.0000000+00:00</time></trkpt><trkpt lat="22.103584" lon="103.824959"><ele>696.3</ele><time>2011-04-25T10:00:15.0000000+00:00</time></trkpt><trkpt lat="22.103556" lon="103.824966"><ele>695.4</ele><time>2011-04-25T10:00:20.0000000+00:00</time></trkpt><trkpt lat="22.103556" lon="103.824959"><ele>695.1</ele><time>2011-04-25T10:00:25.0000000+00:00</time></trkpt><trkpt lat="22.103556" lon="103.824966"><ele>694.9</ele><time>2011-04-25T10:00:30.0000000+00:00</time></trkpt><trkpt lat="22.103556" lon="103.824959"><ele>694.9</ele><time>2011-04-25T10:00:35.0000000+00:00</time></trkpt><trkpt lat="22.103556" lon="103.824959"><ele>694.8</ele><time>2011-04-25T10:00:40.0000000+00:00</time></trkpt><trkpt lat="22.103554" lon="103.824959"><ele>694.9</ele><time>2011-04-25T10:00:45.0000000+00:00</time></trkpt><trkpt lat="22.103556" lon="103.824966"><ele>694.8</ele><time>2011-04-25T10:00:50.0000000+00:00</time></trkpt><trkpt lat="22.103556" lon="103.824966"><ele>694.8</ele><time>2011-04-25T10:00:55.0000000+00:00</time></trkpt><trkpt lat="22.103556" lon="103.824966"><ele>694.8</ele><time>2011-04-25T10:01:00.0000000+00:00</time></trkpt><trkpt lat="22.103556" lon="103.824966"><ele>694.8</ele><time>2011-04-25T10:01:05.0000000+00:00</time></trkpt><trkpt lat="22.103556" lon="103.824966"><ele>694.9</ele><time>2011-04-25T10:01:10.0000000+00:00</time></trkpt><trkpt lat="22.103556" lon="103.824966"><ele>694.9</ele><time>2011-04-25T10:01:15.0000000+00:00</time></trkpt><trkpt lat="22.103556" lon="103.824966"><ele>694.9</ele><time>2011-04-25T10:01:20.0000000+00:00</time></trkpt><trkpt lat="22.103554" lon="103.824966"><ele>694.9</ele><time>2011-04-25T10:01:25.0000000+00:00</time></trkpt><trkpt lat="22.103554" lon="103.824966"><ele>694.9</ele><time>2011-04-25T10:01:30.0000000+00:00</time></trkpt><trkpt lat="22.103554" lon="103.824966"><ele>695.0</ele><time>2011-04-25T10:01:35.0000000+00:00</time></trkpt><trkpt lat="22.103554" lon="103.824966"><ele>695.0</ele><time>2011-04-25T10:01:40.0000000+00:00</time></trkpt><trkpt lat="22.103554" lon="103.824966"><ele>695.0</ele><time>2011-04-25T10:01:45.0000000+00:00</time></trkpt><trkpt lat="22.103554" lon="103.824959"><ele>695.0</ele><time>2011-04-25T10:01:50.0000000+00:00</time></trkpt><trkpt lat="22.103554" lon="103.824959"><ele>695.0</ele><time>2011-04-25T10:01:55.0000000+00:00</time></trkpt><trkpt lat="22.103554" lon="103.824959"><ele>695.0</ele><time>2011-04-25T10:02:00.0000000+00:00</time></trkpt><trkpt lat="22.103558" lon="103.824959"><ele>695.7</ele><time>2011-04-25T10:02:05.0000000+00:00</time></trkpt><trkpt lat="22.103554" lon="103.824951"><ele>696.7</ele><time>2011-04-25T10:02:10.0000000+00:00</time></trkpt><trkpt lat="22.10355" lon="103.824951"><ele>696.8</ele><time>2011-04-25T10:02:15.0000000+00:00</time></trkpt><trkpt lat="22.103544" lon="103.824951"><ele>696.3</ele><time>2011-04-25T10:02:20.0000000+00:00</time></trkpt><trkpt lat="22.10354" lon="103.824944"><ele>695.6</ele><time>2011-04-25T10:02:25.0000000+00:00</time></trkpt><trkpt lat="22.103539" lon="103.824944"><ele>695.4</ele><time>2011-04-25T10:02:30.0000000+00:00</time></trkpt><trkpt lat="22.103537" lon="103.824944"><ele>694.9</ele><time>2011-04-25T10:02:35.0000000+00:00</time></trkpt><trkpt lat="22.103539" lon="103.824944"><ele>694.8</ele><time>2011-04-25T10:02:40.0000000+00:00</time></trkpt><trkpt lat="22.103542" lon="103.824944"><ele>695.1</ele><time>2011-04-25T10:02:45.0000000+00:00</time></trkpt><trkpt lat="22.103539" lon="103.824944"><ele>694.9</ele><time>2011-04-25T10:02:50.0000000+00:00</time></trkpt><trkpt lat="22.103539" lon="103.824944"><ele>694.8</ele><time>2011-04-25T10:02:55.0000000+00:00</time></trkpt><trkpt lat="22.103539" lon="103.824944"><ele>694.8</ele><time>2011-04-25T10:03:00.0000000+00:00</time></trkpt><trkpt lat="22.103539" lon="103.824944"><ele>694.8</ele><time>2011-04-25T10:03:05.0000000+00:00</time></trkpt><trkpt lat="22.103539" lon="103.824944"><ele>694.8</ele><time>2011-04-25T10:03:10.0000000+00:00</time></trkpt><trkpt lat="22.103539" lon="103.824944"><ele>694.8</ele><time>2011-04-25T10:03:15.0000000+00:00</time></trkpt><trkpt lat="22.10354" lon="103.824936"><ele>694.8</ele><time>2011-04-25T10:03:20.0000000+00:00</time></trkpt><trkpt lat="22.10354" lon="103.824936"><ele>694.8</ele><time>2011-04-25T10:03:25.0000000+00:00</time></trkpt><trkpt lat="22.10354" lon="103.824936"><ele>694.7</ele><time>2011-04-25T10:03:30.0000000+00:00</time></trkpt><trkpt lat="22.10354" lon="103.824936"><ele>694.7</ele><time>2011-04-25T10:03:35.0000000+00:00</time></trkpt><trkpt lat="22.10354" lon="103.824936"><ele>694.6</ele><time>2011-04-25T10:03:40.0000000+00:00</time></trkpt><trkpt lat="22.103542" lon="103.824936"><ele>694.6</ele><time>2011-04-25T10:03:45.0000000+00:00</time></trkpt><trkpt lat="22.103542" lon="103.824936"><ele>694.6</ele><time>2011-04-25T10:03:50.0000000+00:00</time></trkpt><trkpt lat="22.103542" lon="103.824936"><ele>694.5</ele><time>2011-04-25T10:03:55.0000000+00:00</time></trkpt><trkpt lat="22.103542" lon="103.824936"><ele>694.5</ele><time>2011-04-25T10:04:00.0000000+00:00</time></trkpt><trkpt lat="22.103542" lon="103.824936"><ele>694.5</ele><time>2011-04-25T10:04:05.0000000+00:00</time></trkpt><trkpt lat="22.103542" lon="103.824936"><ele>694.4</ele><time>2011-04-25T10:04:10.0000000+00:00</time></trkpt><trkpt lat="22.103542" lon="103.824936"><ele>694.4</ele><time>2011-04-25T10:04:15.0000000+00:00</time></trkpt><trkpt lat="22.103542" lon="103.824936"><ele>694.4</ele><time>2011-04-25T10:04:20.0000000+00:00</time></trkpt><trkpt lat="22.103542" lon="103.824936"><ele>694.4</ele><time>2011-04-25T10:04:25.0000000+00:00</time></trkpt><trkpt lat="22.103542" lon="103.824936"><ele>694.4</ele><time>2011-04-25T10:04:30.0000000+00:00</time></trkpt><trkpt lat="22.103542" lon="103.824936"><ele>694.4</ele><time>2011-04-25T10:04:35.0000000+00:00</time></trkpt><trkpt lat="22.103542" lon="103.824936"><ele>694.4</ele><time>2011-04-25T10:04:40.0000000+00:00</time></trkpt><trkpt lat="22.103542" lon="103.824936"><ele>694.4</ele><time>2011-04-25T10:04:45.0000000+00:00</time></trkpt><trkpt lat="22.103542" lon="103.824936"><ele>694.4</ele><time>2011-04-25T10:04:50.0000000+00:00</time></trkpt><trkpt lat="22.103542" lon="103.824936"><ele>694.3</ele><time>2011-04-25T10:04:55.0000000+00:00</time></trkpt><trkpt lat="22.103542" lon="103.824936"><ele>694.3</ele><time>2011-04-25T10:05:00.0000000+00:00</time></trkpt><trkpt lat="22.103542" lon="103.824936"><ele>694.3</ele><time>2011-04-25T10:05:05.0000000+00:00</time></trkpt><trkpt lat="22.103542" lon="103.824936"><ele>694.3</ele><time>2011-04-25T10:05:10.0000000+00:00</time></trkpt><trkpt lat="22.103542" lon="103.824936"><ele>694.3</ele><time>2011-04-25T10:05:15.0000000+00:00</time></trkpt><trkpt lat="22.103542" lon="103.824936"><ele>694.3</ele><time>2011-04-25T10:05:20.0000000+00:00</time></trkpt><trkpt lat="22.103544" lon="103.824936"><ele>694.3</ele><time>2011-04-25T10:05:25.0000000+00:00</time></trkpt><trkpt lat="22.103544" lon="103.824936"><ele>694.2</ele><time>2011-04-25T10:05:30.0000000+00:00</time></trkpt><trkpt lat="22.103544" lon="103.824936"><ele>694.2</ele><time>2011-04-25T10:05:35.0000000+00:00</time></trkpt><trkpt lat="22.103544" lon="103.824936"><ele>694.2</ele><time>2011-04-25T10:05:40.0000000+00:00</time></trkpt><trkpt lat="22.103544" lon="103.824936"><ele>694.2</ele><time>2011-04-25T10:05:45.0000000+00:00</time></trkpt><trkpt lat="22.103544" lon="103.824936"><ele>694.1</ele><time>2011-04-25T10:05:50.0000000+00:00</time></trkpt><trkpt lat="22.103544" lon="103.824936"><ele>694.0</ele><time>2011-04-25T10:05:55.0000000+00:00</time></trkpt><trkpt lat="22.103544" lon="103.824936"><ele>694.0</ele><time>2011-04-25T10:06:00.0000000+00:00</time></trkpt><trkpt lat="22.103544" lon="103.824936"><ele>694.0</ele><time>2011-04-25T10:06:05.0000000+00:00</time></trkpt><trkpt lat="22.103544" lon="103.824936"><ele>694.0</ele><time>2011-04-25T10:06:10.0000000+00:00</time></trkpt><trkpt lat="22.103544" lon="103.824936"><ele>693.9</ele><time>2011-04-25T10:06:15.0000000+00:00</time></trkpt><trkpt lat="22.103544" lon="103.824936"><ele>693.9</ele><time>2011-04-25T10:06:20.0000000+00:00</time></trkpt><trkpt lat="22.103544" lon="103.824936"><ele>693.9</ele><time>2011-04-25T10:06:25.0000000+00:00</time></trkpt><trkpt lat="22.103544" lon="103.824936"><ele>693.9</ele><time>2011-04-25T10:06:30.0000000+00:00</time></trkpt><trkpt lat="22.103544" lon="103.824936"><ele>693.9</ele><time>2011-04-25T10:06:35.0000000+00:00</time></trkpt><trkpt lat="22.103544" lon="103.824936"><ele>693.9</ele><time>2011-04-25T10:06:40.0000000+00:00</time></trkpt><trkpt lat="22.103544" lon="103.824936"><ele>693.9</ele><time>2011-04-25T10:06:45.0000000+00:00</time></trkpt><trkpt lat="22.103546" lon="103.824936"><ele>693.8</ele><time>2011-04-25T10:06:50.0000000+00:00</time></trkpt><trkpt lat="22.103546" lon="103.824936"><ele>693.8</ele><time>2011-04-25T10:06:55.0000000+00:00</time></trkpt><trkpt lat="22.103544" lon="103.824936"><ele>693.8</ele><time>2011-04-25T10:07:00.0000000+00:00</time></trkpt><trkpt lat="22.103544" lon="103.824936"><ele>693.8</ele><time>2011-04-25T10:07:05.0000000+00:00</time></trkpt><trkpt lat="22.103544" lon="103.824936"><ele>693.8</ele><time>2011-04-25T10:07:10.0000000+00:00</time></trkpt><trkpt lat="22.103544" lon="103.824936"><ele>693.8</ele><time>2011-04-25T10:07:15.0000000+00:00</time></trkpt><trkpt lat="22.103544" lon="103.824936"><ele>693.8</ele><time>2011-04-25T10:07:20.0000000+00:00</time></trkpt><trkpt lat="22.103546" lon="103.824936"><ele>693.7</ele><time>2011-04-25T10:07:25.0000000+00:00</time></trkpt><trkpt lat="22.103546" lon="103.824936"><ele>693.7</ele><time>2011-04-25T10:07:30.0000000+00:00</time></trkpt><trkpt lat="22.103546" lon="103.824936"><ele>693.7</ele><time>2011-04-25T10:07:35.0000000+00:00</time></trkpt><trkpt lat="22.103546" lon="103.824936"><ele>693.7</ele><time>2011-04-25T10:07:40.0000000+00:00</time></trkpt><trkpt lat="22.103546" lon="103.824936"><ele>693.7</ele><time>2011-04-25T10:07:45.0000000+00:00</time></trkpt><trkpt lat="22.103546" lon="103.824936"><ele>693.7</ele><time>2011-04-25T10:07:50.0000000+00:00</time></trkpt><trkpt lat="22.103546" lon="103.824936"><ele>693.7</ele><time>2011-04-25T10:07:55.0000000+00:00</time></trkpt><trkpt lat="22.103546" lon="103.824936"><ele>693.7</ele><time>2011-04-25T10:08:00.0000000+00:00</time></trkpt><trkpt lat="22.103546" lon="103.824936"><ele>693.6</ele><time>2011-04-25T10:08:05.0000000+00:00</time></trkpt><trkpt lat="22.103546" lon="103.824936"><ele>693.6</ele><time>2011-04-25T10:08:10.0000000+00:00</time></trkpt><trkpt lat="22.103546" lon="103.824936"><ele>693.6</ele><time>2011-04-25T10:08:15.0000000+00:00</time></trkpt><trkpt lat="22.103546" lon="103.824936"><ele>693.6</ele><time>2011-04-25T10:08:20.0000000+00:00</time></trkpt><trkpt lat="22.103546" lon="103.824936"><ele>693.6</ele><time>2011-04-25T10:08:25.0000000+00:00</time></trkpt><trkpt lat="22.103546" lon="103.824936"><ele>693.5</ele><time>2011-04-25T10:08:30.0000000+00:00</time></trkpt><trkpt lat="22.103546" lon="103.824928"><ele>693.5</ele><time>2011-04-25T10:08:35.0000000+00:00</time></trkpt><trkpt lat="22.103546" lon="103.824928"><ele>693.5</ele><time>2011-04-25T10:08:40.0000000+00:00</time></trkpt><trkpt lat="22.103546" lon="103.824928"><ele>693.5</ele><time>2011-04-25T10:08:45.0000000+00:00</time></trkpt><trkpt lat="22.103546" lon="103.824928"><ele>693.4</ele><time>2011-04-25T10:08:50.0000000+00:00</time></trkpt><trkpt lat="22.103546" lon="103.824928"><ele>693.4</ele><time>2011-04-25T10:08:55.0000000+00:00</time></trkpt><trkpt lat="22.103546" lon="103.824928"><ele>693.4</ele><time>2011-04-25T10:09:00.0000000+00:00</time></trkpt><trkpt lat="22.103546" lon="103.824928"><ele>693.3</ele><time>2011-04-25T10:09:05.0000000+00:00</time></trkpt><trkpt lat="22.103546" lon="103.824928"><ele>693.3</ele><time>2011-04-25T10:09:10.0000000+00:00</time></trkpt><trkpt lat="22.103546" lon="103.824928"><ele>693.3</ele><time>2011-04-25T10:09:15.0000000+00:00</time></trkpt><trkpt lat="22.103546" lon="103.824928"><ele>693.3</ele><time>2011-04-25T10:09:20.0000000+00:00</time></trkpt><trkpt lat="22.103546" lon="103.824928"><ele>693.3</ele><time>2011-04-25T10:09:25.0000000+00:00</time></trkpt><trkpt lat="22.103546" lon="103.824928"><ele>693.3</ele><time>2011-04-25T10:09:30.0000000+00:00</time></trkpt><trkpt lat="22.103546" lon="103.824928"><ele>693.3</ele><time>2011-04-25T10:09:35.0000000+00:00</time></trkpt><trkpt lat="22.103546" lon="103.824928"><ele>693.3</ele><time>2011-04-25T10:09:40.0000000+00:00</time></trkpt><trkpt lat="22.103546" lon="103.824928"><ele>693.3</ele><time>2011-04-25T10:09:45.0000000+00:00</time></trkpt><trkpt lat="22.103546" lon="103.824928"><ele>693.3</ele><time>2011-04-25T10:09:50.0000000+00:00</time></trkpt><trkpt lat="22.103546" lon="103.824928"><ele>693.3</ele><time>2011-04-25T10:09:55.0000000+00:00</time></trkpt><trkpt lat="22.103546" lon="103.824928"><ele>693.2</ele><time>2011-04-25T10:10:00.0000000+00:00</time></trkpt><trkpt lat="22.103546" lon="103.824928"><ele>693.2</ele><time>2011-04-25T10:10:05.0000000+00:00</time></trkpt><trkpt lat="22.103546" lon="103.824928"><ele>693.2</ele><time>2011-04-25T10:10:10.0000000+00:00</time></trkpt><trkpt lat="22.103546" lon="103.824928"><ele>693.2</ele><time>2011-04-25T10:10:15.0000000+00:00</time></trkpt><trkpt lat="22.103546" lon="103.824928"><ele>693.1</ele><time>2011-04-25T10:10:20.0000000+00:00</time></trkpt><trkpt lat="22.103546" lon="103.824928"><ele>693.1</ele><time>2011-04-25T10:10:25.0000000+00:00</time></trkpt><trkpt lat="22.103546" lon="103.824928"><ele>693.1</ele><time>2011-04-25T10:10:30.0000000+00:00</time></trkpt><trkpt lat="22.103546" lon="103.824928"><ele>693.0</ele><time>2011-04-25T10:10:35.0000000+00:00</time></trkpt><trkpt lat="22.103546" lon="103.824928"><ele>693.0</ele><time>2011-04-25T10:10:40.0000000+00:00</time></trkpt><trkpt lat="22.103546" lon="103.824928"><ele>693.0</ele><time>2011-04-25T10:10:45.0000000+00:00</time></trkpt><trkpt lat="22.103546" lon="103.824928"><ele>692.9</ele><time>2011-04-25T10:10:50.0000000+00:00</time></trkpt><trkpt lat="22.103548" lon="103.824936"><ele>692.9</ele><time>2011-04-25T10:10:55.0000000+00:00</time></trkpt><trkpt lat="22.103546" lon="103.824928"><ele>692.9</ele><time>2011-04-25T10:11:00.0000000+00:00</time></trkpt><trkpt lat="22.103546" lon="103.824928"><ele>692.9</ele><time>2011-04-25T10:11:05.0000000+00:00</time></trkpt><trkpt lat="22.103546" lon="103.824928"><ele>692.9</ele><time>2011-04-25T10:11:10.0000000+00:00</time></trkpt><trkpt lat="22.103546" lon="103.824928"><ele>692.9</ele><time>2011-04-25T10:11:15.0000000+00:00</time></trkpt><trkpt lat="22.103546" lon="103.824928"><ele>692.8</ele><time>2011-04-25T10:11:20.0000000+00:00</time></trkpt><trkpt lat="22.103546" lon="103.824936"><ele>692.8</ele><time>2011-04-25T10:11:25.0000000+00:00</time></trkpt><trkpt lat="22.103548" lon="103.824936"><ele>692.7</ele><time>2011-04-25T10:11:30.0000000+00:00</time></trkpt><trkpt lat="22.103548" lon="103.824936"><ele>692.7</ele><time>2011-04-25T10:11:35.0000000+00:00</time></trkpt><trkpt lat="22.103546" lon="103.824936"><ele>692.7</ele><time>2011-04-25T10:11:40.0000000+00:00</time></trkpt><trkpt lat="22.103546" lon="103.824928"><ele>692.7</ele><time>2011-04-25T10:11:45.0000000+00:00</time></trkpt><trkpt lat="22.103546" lon="103.824928"><ele>692.7</ele><time>2011-04-25T10:11:50.0000000+00:00</time></trkpt><trkpt lat="22.103546" lon="103.824928"><ele>692.7</ele><time>2011-04-25T10:11:55.0000000+00:00</time></trkpt><trkpt lat="22.103546" lon="103.824928"><ele>692.6</ele><time>2011-04-25T10:12:00.0000000+00:00</time></trkpt><trkpt lat="22.103546" lon="103.824936"><ele>692.6</ele><time>2011-04-25T10:12:05.0000000+00:00</time></trkpt><trkpt lat="22.103546" lon="103.824936"><ele>692.6</ele><time>2011-04-25T10:12:10.0000000+00:00</time></trkpt><trkpt lat="22.103546" lon="103.824928"><ele>692.6</ele><time>2011-04-25T10:12:15.0000000+00:00</time></trkpt><trkpt lat="22.103546" lon="103.824928"><ele>692.6</ele><time>2011-04-25T10:12:20.0000000+00:00</time></trkpt><trkpt lat="22.103546" lon="103.824928"><ele>692.6</ele><time>2011-04-25T10:12:25.0000000+00:00</time></trkpt><trkpt lat="22.103546" lon="103.824928"><ele>692.6</ele><time>2011-04-25T10:12:30.0000000+00:00</time></trkpt><trkpt lat="22.103546" lon="103.824928"><ele>692.6</ele><time>2011-04-25T10:12:35.0000000+00:00</time></trkpt><trkpt lat="22.103546" lon="103.824928"><ele>692.6</ele><time>2011-04-25T10:12:40.0000000+00:00</time></trkpt><trkpt lat="22.103546" lon="103.824928"><ele>692.6</ele><time>2011-04-25T10:12:45.0000000+00:00</time></trkpt><trkpt lat="22.103546" lon="103.824928"><ele>692.6</ele><time>2011-04-25T10:12:50.0000000+00:00</time></trkpt><trkpt lat="22.103546" lon="103.824928"><ele>692.6</ele><time>2011-04-25T10:12:55.0000000+00:00</time></trkpt><trkpt lat="22.103546" lon="103.824928"><ele>692.6</ele><time>2011-04-25T10:13:00.0000000+00:00</time></trkpt><trkpt lat="22.103546" lon="103.824928"><ele>692.5</ele><time>2011-04-25T10:13:05.0000000+00:00</time></trkpt><trkpt lat="22.103546" lon="103.824928"><ele>692.5</ele><time>2011-04-25T10:13:10.0000000+00:00</time></trkpt><trkpt lat="22.103546" lon="103.824928"><ele>692.5</ele><time>2011-04-25T10:13:15.0000000+00:00</time></trkpt><trkpt lat="22.103546" lon="103.824928"><ele>692.5</ele><time>2011-04-25T10:13:20.0000000+00:00</time></trkpt><trkpt lat="22.103546" lon="103.824928"><ele>692.4</ele><time>2011-04-25T10:13:25.0000000+00:00</time></trkpt><trkpt lat="22.103546" lon="103.824928"><ele>692.4</ele><time>2011-04-25T10:13:30.0000000+00:00</time></trkpt><trkpt lat="22.103546" lon="103.824928"><ele>692.4</ele><time>2011-04-25T10:13:35.0000000+00:00</time></trkpt><trkpt lat="22.103546" lon="103.824928"><ele>692.4</ele><time>2011-04-25T10:13:40.0000000+00:00</time></trkpt><trkpt lat="22.103546" lon="103.824928"><ele>692.3</ele><time>2011-04-25T10:13:45.0000000+00:00</time></trkpt><trkpt lat="22.103548" lon="103.824928"><ele>692.3</ele><time>2011-04-25T10:13:50.0000000+00:00</time></trkpt><trkpt lat="22.103548" lon="103.824928"><ele>692.3</ele><time>2011-04-25T10:13:55.0000000+00:00</time></trkpt><trkpt lat="22.103548" lon="103.824928"><ele>692.2</ele><time>2011-04-25T10:14:00.0000000+00:00</time></trkpt><trkpt lat="22.103548" lon="103.824928"><ele>692.2</ele><time>2011-04-25T10:14:05.0000000+00:00</time></trkpt><trkpt lat="22.103546" lon="103.824928"><ele>692.2</ele><time>2011-04-25T10:14:10.0000000+00:00</time></trkpt><trkpt lat="22.103548" lon="103.824928"><ele>692.2</ele><time>2011-04-25T10:14:15.0000000+00:00</time></trkpt><trkpt lat="22.103548" lon="103.824928"><ele>692.1</ele><time>2011-04-25T10:14:20.0000000+00:00</time></trkpt><trkpt lat="22.103546" lon="103.824928"><ele>692.1</ele><time>2011-04-25T10:14:25.0000000+00:00</time></trkpt><trkpt lat="22.103546" lon="103.824928"><ele>692.1</ele><time>2011-04-25T10:14:30.0000000+00:00</time></trkpt><trkpt lat="22.103546" lon="103.824928"><ele>692.1</ele><time>2011-04-25T10:14:35.0000000+00:00</time></trkpt><trkpt lat="22.103546" lon="103.824928"><ele>692.1</ele><time>2011-04-25T10:14:40.0000000+00:00</time></trkpt><trkpt lat="22.103546" lon="103.824928"><ele>692.1</ele><time>2011-04-25T10:14:45.0000000+00:00</time></trkpt><trkpt lat="22.103546" lon="103.824928"><ele>692.1</ele><time>2011-04-25T10:14:50.0000000+00:00</time></trkpt><trkpt lat="22.103546" lon="103.824928"><ele>692.1</ele><time>2011-04-25T10:14:55.0000000+00:00</time></trkpt><trkpt lat="22.103546" lon="103.824928"><ele>692.1</ele><time>2011-04-25T10:15:00.0000000+00:00</time></trkpt><trkpt lat="22.103546" lon="103.824928"><ele>692.0</ele><time>2011-04-25T10:15:05.0000000+00:00</time></trkpt><trkpt lat="22.103546" lon="103.824928"><ele>692.0</ele><time>2011-04-25T10:15:10.0000000+00:00</time></trkpt><trkpt lat="22.103546" lon="103.824928"><ele>692.0</ele><time>2011-04-25T10:15:15.0000000+00:00</time></trkpt><trkpt lat="22.103546" lon="103.824928"><ele>692.0</ele><time>2011-04-25T10:15:20.0000000+00:00</time></trkpt><trkpt lat="22.103546" lon="103.824928"><ele>692.0</ele><time>2011-04-25T10:15:25.0000000+00:00</time></trkpt><trkpt lat="22.103546" lon="103.824928"><ele>692.1</ele><time>2011-04-25T10:15:30.0000000+00:00</time></trkpt><trkpt lat="22.103546" lon="103.824928"><ele>692.1</ele><time>2011-04-25T10:15:35.0000000+00:00</time></trkpt><trkpt lat="22.103546" lon="103.824928"><ele>692.0</ele><time>2011-04-25T10:15:40.0000000+00:00</time></trkpt><trkpt lat="22.103546" lon="103.824928"><ele>692.0</ele><time>2011-04-25T10:15:45.0000000+00:00</time></trkpt><trkpt lat="22.103546" lon="103.824928"><ele>692.0</ele><time>2011-04-25T10:15:50.0000000+00:00</time></trkpt><trkpt lat="22.103546" lon="103.824928"><ele>692.0</ele><time>2011-04-25T10:15:55.0000000+00:00</time></trkpt><trkpt lat="22.103546" lon="103.824928"><ele>692.0</ele><time>2011-04-25T10:16:00.0000000+00:00</time></trkpt><trkpt lat="22.103546" lon="103.824928"><ele>692.0</ele><time>2011-04-25T10:16:05.0000000+00:00</time></trkpt><trkpt lat="22.103546" lon="103.824928"><ele>692.0</ele><time>2011-04-25T10:16:10.0000000+00:00</time></trkpt><trkpt lat="22.103546" lon="103.824928"><ele>692.0</ele><time>2011-04-25T10:16:15.0000000+00:00</time></trkpt><trkpt lat="22.103546" lon="103.824928"><ele>692.0</ele><time>2011-04-25T10:16:20.0000000+00:00</time></trkpt><trkpt lat="22.103546" lon="103.824928"><ele>692.0</ele><time>2011-04-25T10:16:25.0000000+00:00</time></trkpt><trkpt lat="22.103546" lon="103.824928"><ele>692.0</ele><time>2011-04-25T10:16:30.0000000+00:00</time></trkpt><trkpt lat="22.103546" lon="103.824928"><ele>691.9</ele><time>2011-04-25T10:16:35.0000000+00:00</time></trkpt><trkpt lat="22.103546" lon="103.824928"><ele>691.9</ele><time>2011-04-25T10:16:40.0000000+00:00</time></trkpt><trkpt lat="22.103546" lon="103.824928"><ele>691.9</ele><time>2011-04-25T10:16:45.0000000+00:00</time></trkpt><trkpt lat="22.103546" lon="103.824928"><ele>691.9</ele><time>2011-04-25T10:16:50.0000000+00:00</time></trkpt><trkpt lat="22.103546" lon="103.824928"><ele>691.9</ele><time>2011-04-25T10:16:55.0000000+00:00</time></trkpt><trkpt lat="22.103546" lon="103.824928"><ele>691.9</ele><time>2011-04-25T10:17:00.0000000+00:00</time></trkpt><trkpt lat="22.103546" lon="103.824928"><ele>691.9</ele><time>2011-04-25T10:17:05.0000000+00:00</time></trkpt><trkpt lat="22.103544" lon="103.824928"><ele>691.9</ele><time>2011-04-25T10:17:10.0000000+00:00</time></trkpt><trkpt lat="22.103544" lon="103.824928"><ele>691.9</ele><time>2011-04-25T10:17:15.0000000+00:00</time></trkpt><trkpt lat="22.103544" lon="103.824928"><ele>691.9</ele><time>2011-04-25T10:17:20.0000000+00:00</time></trkpt><trkpt lat="22.103544" lon="103.824928"><ele>691.9</ele><time>2011-04-25T10:17:25.0000000+00:00</time></trkpt><trkpt lat="22.103544" lon="103.824928"><ele>691.9</ele><time>2011-04-25T10:17:30.0000000+00:00</time></trkpt><trkpt lat="22.103544" lon="103.824928"><ele>691.9</ele><time>2011-04-25T10:17:35.0000000+00:00</time></trkpt><trkpt lat="22.103544" lon="103.824928"><ele>691.9</ele><time>2011-04-25T10:17:40.0000000+00:00</time></trkpt><trkpt lat="22.103544" lon="103.824928"><ele>691.9</ele><time>2011-04-25T10:17:45.0000000+00:00</time></trkpt><trkpt lat="22.103544" lon="103.824928"><ele>691.9</ele><time>2011-04-25T10:17:50.0000000+00:00</time></trkpt><trkpt lat="22.103544" lon="103.824928"><ele>691.9</ele><time>2011-04-25T10:17:55.0000000+00:00</time></trkpt><trkpt lat="22.103544" lon="103.824928"><ele>691.9</ele><time>2011-04-25T10:18:00.0000000+00:00</time></trkpt><trkpt lat="22.103544" lon="103.824928"><ele>691.9</ele><time>2011-04-25T10:18:05.0000000+00:00</time></trkpt><trkpt lat="22.103544" lon="103.824928"><ele>691.8</ele><time>2011-04-25T10:18:10.0000000+00:00</time></trkpt><trkpt lat="22.103544" lon="103.824928"><ele>691.8</ele><time>2011-04-25T10:18:15.0000000+00:00</time></trkpt><trkpt lat="22.103544" lon="103.824928"><ele>691.8</ele><time>2011-04-25T10:18:20.0000000+00:00</time></trkpt><trkpt lat="22.103544" lon="103.824928"><ele>691.8</ele><time>2011-04-25T10:18:25.0000000+00:00</time></trkpt><trkpt lat="22.103544" lon="103.824928"><ele>691.8</ele><time>2011-04-25T10:18:30.0000000+00:00</time></trkpt><trkpt lat="22.103544" lon="103.824928"><ele>691.7</ele><time>2011-04-25T10:18:35.0000000+00:00</time></trkpt><trkpt lat="22.103544" lon="103.824928"><ele>691.7</ele><time>2011-04-25T10:18:40.0000000+00:00</time></trkpt><trkpt lat="22.103544" lon="103.824928"><ele>691.7</ele><time>2011-04-25T10:18:45.0000000+00:00</time></trkpt><trkpt lat="22.103544" lon="103.824928"><ele>691.7</ele><time>2011-04-25T10:18:50.0000000+00:00</time></trkpt><trkpt lat="22.103544" lon="103.824928"><ele>691.7</ele><time>2011-04-25T10:18:55.0000000+00:00</time></trkpt><trkpt lat="22.103542" lon="103.824928"><ele>691.7</ele><time>2011-04-25T10:19:00.0000000+00:00</time></trkpt><trkpt lat="22.103542" lon="103.824928"><ele>691.7</ele><time>2011-04-25T10:19:05.0000000+00:00</time></trkpt><trkpt lat="22.103504" lon="103.824944"><ele>691.8</ele><time>2011-04-25T10:19:10.0000000+00:00</time></trkpt><trkpt lat="22.103239" lon="103.825043"><ele>692.0</ele><time>2011-04-25T10:19:15.0000000+00:00</time></trkpt><trkpt lat="22.102915" lon="103.825287"><ele>691.8</ele><time>2011-04-25T10:19:20.0000000+00:00</time></trkpt><trkpt lat="22.102549" lon="103.825615"><ele>691.4</ele><time>2011-04-25T10:19:25.0000000+00:00</time></trkpt><trkpt lat="22.102169" lon="103.825928"><ele>690.8</ele><time>2011-04-25T10:19:30.0000000+00:00</time></trkpt><trkpt lat="22.101801" lon="103.826347"><ele>689.1</ele><time>2011-04-25T10:19:35.0000000+00:00</time></trkpt><trkpt lat="22.101448" lon="103.826942"><ele>686.1</ele><time>2011-04-25T10:19:40.0000000+00:00</time></trkpt><trkpt lat="22.100986" lon="103.827499"><ele>682.1</ele><time>2011-04-25T10:19:45.0000000+00:00</time></trkpt><trkpt lat="22.100573" lon="103.828033"><ele>678.0</ele><time>2011-04-25T10:19:50.0000000+00:00</time></trkpt><trkpt lat="22.100163" lon="103.828598"><ele>671.5</ele><time>2011-04-25T10:19:55.0000000+00:00</time></trkpt><trkpt lat="22.09977" lon="103.829132"><ele>668.0</ele><time>2011-04-25T10:20:00.0000000+00:00</time></trkpt><trkpt lat="22.099421" lon="103.82962"><ele>665.2</ele><time>2011-04-25T10:20:05.0000000+00:00</time></trkpt><trkpt lat="22.099068" lon="103.830101"><ele>661.7</ele><time>2011-04-25T10:20:10.0000000+00:00</time></trkpt><trkpt lat="22.098709" lon="103.830589"><ele>658.7</ele><time>2011-04-25T10:20:15.0000000+00:00</time></trkpt><trkpt lat="22.098392" lon="103.831009"><ele>657.6</ele><time>2011-04-25T10:20:20.0000000+00:00</time></trkpt><trkpt lat="22.098156" lon="103.831337"><ele>657.3</ele><time>2011-04-25T10:20:25.0000000+00:00</time></trkpt><trkpt lat="22.097952" lon="103.831612"><ele>655.2</ele><time>2011-04-25T10:20:30.0000000+00:00</time></trkpt><trkpt lat="22.097803" lon="103.831833"><ele>654.0</ele><time>2011-04-25T10:20:35.0000000+00:00</time></trkpt><trkpt lat="22.097643" lon="103.832069"><ele>655.7</ele><time>2011-04-25T10:20:40.0000000+00:00</time></trkpt><trkpt lat="22.097458" lon="103.832321"><ele>655.2</ele><time>2011-04-25T10:20:45.0000000+00:00</time></trkpt><trkpt lat="22.09729" lon="103.832542"><ele>653.0</ele><time>2011-04-25T10:20:50.0000000+00:00</time></trkpt><trkpt lat="22.097158" lon="103.832741"><ele>652.9</ele><time>2011-04-25T10:20:55.0000000+00:00</time></trkpt><trkpt lat="22.097023" lon="103.832924"><ele>653.4</ele><time>2011-04-25T10:21:00.0000000+00:00</time></trkpt><trkpt lat="22.096964" lon="103.83297"><ele>654.0</ele><time>2011-04-25T10:21:05.0000000+00:00</time></trkpt><trkpt lat="22.096899" lon="103.833054"><ele>653.6</ele><time>2011-04-25T10:21:10.0000000+00:00</time></trkpt><trkpt lat="22.096838" lon="103.83316"><ele>653.4</ele><time>2011-04-25T10:21:15.0000000+00:00</time></trkpt><trkpt lat="22.096706" lon="103.833328"><ele>651.9</ele><time>2011-04-25T10:21:20.0000000+00:00</time></trkpt><trkpt lat="22.096533" lon="103.833588"><ele>650.1</ele><time>2011-04-25T10:21:25.0000000+00:00</time></trkpt><trkpt lat="22.096317" lon="103.833893"><ele>648.6</ele><time>2011-04-25T10:21:30.0000000+00:00</time></trkpt><trkpt lat="22.096033" lon="103.834236"><ele>647.2</ele><time>2011-04-25T10:21:35.0000000+00:00</time></trkpt><trkpt lat="22.095642" lon="103.834549"><ele>644.7</ele><time>2011-04-25T10:21:40.0000000+00:00</time></trkpt><trkpt lat="22.095192" lon="103.834785"><ele>641.5</ele><time>2011-04-25T10:21:45.0000000+00:00</time></trkpt><trkpt lat="22.0947" lon="103.834846"><ele>640.3</ele><time>2011-04-25T10:21:50.0000000+00:00</time></trkpt><trkpt lat="22.094257" lon="103.834999"><ele>639.4</ele><time>2011-04-25T10:21:55.0000000+00:00</time></trkpt><trkpt lat="22.093779" lon="103.835274"><ele>636.9</ele><time>2011-04-25T10:22:00.0000000+00:00</time></trkpt><trkpt lat="22.093393" lon="103.835342"><ele>636.8</ele><time>2011-04-25T10:22:05.0000000+00:00</time></trkpt><trkpt lat="22.093098" lon="103.835243"><ele>635.7</ele><time>2011-04-25T10:22:10.0000000+00:00</time></trkpt><trkpt lat="22.092756" lon="103.83532"><ele>633.6</ele><time>2011-04-25T10:22:15.0000000+00:00</time></trkpt><trkpt lat="22.092438" lon="103.835449"><ele>632.7</ele><time>2011-04-25T10:22:20.0000000+00:00</time></trkpt><trkpt lat="22.092142" lon="103.835632"><ele>633.2</ele><time>2011-04-25T10:22:25.0000000+00:00</time></trkpt><trkpt lat="22.091944" lon="103.835953"><ele>630.8</ele><time>2011-04-25T10:22:30.0000000+00:00</time></trkpt><trkpt lat="22.091824" lon="103.836334"><ele>632.1</ele><time>2011-04-25T10:22:35.0000000+00:00</time></trkpt><trkpt lat="22.091822" lon="103.836739"><ele>629.6</ele><time>2011-04-25T10:22:40.0000000+00:00</time></trkpt><trkpt lat="22.091755" lon="103.837173"><ele>625.5</ele><time>2011-04-25T10:22:45.0000000+00:00</time></trkpt><trkpt lat="22.091717" lon="103.837608"><ele>624.0</ele><time>2011-04-25T10:22:50.0000000+00:00</time></trkpt><trkpt lat="22.091717" lon="103.838028"><ele>624.2</ele><time>2011-04-25T10:22:55.0000000+00:00</time></trkpt><trkpt lat="22.091627" lon="103.83844"><ele>625.4</ele><time>2011-04-25T10:23:00.0000000+00:00</time></trkpt><trkpt lat="22.091326" lon="103.838722"><ele>627.4</ele><time>2011-04-25T10:23:05.0000000+00:00</time></trkpt><trkpt lat="22.090965" lon="103.838814"><ele>627.1</ele><time>2011-04-25T10:23:10.0000000+00:00</time></trkpt><trkpt lat="22.090473" lon="103.838631"><ele>626.7</ele><time>2011-04-25T10:23:15.0000000+00:00</time></trkpt><trkpt lat="22.089994" lon="103.838524"><ele>625.1</ele><time>2011-04-25T10:23:20.0000000+00:00</time></trkpt><trkpt lat="22.089783" lon="103.83889"><ele>622.5</ele><time>2011-04-25T10:23:25.0000000+00:00</time></trkpt><trkpt lat="22.089537" lon="103.839287"><ele>620.8</ele><time>2011-04-25T10:23:30.0000000+00:00</time></trkpt><trkpt lat="22.08918" lon="103.839622"><ele>618.2</ele><time>2011-04-25T10:23:35.0000000+00:00</time></trkpt><trkpt lat="22.088736" lon="103.839653"><ele>618.1</ele><time>2011-04-25T10:23:40.0000000+00:00</time></trkpt><trkpt lat="22.088354" lon="103.839615"><ele>618.1</ele><time>2011-04-25T10:23:45.0000000+00:00</time></trkpt><trkpt lat="22.088081" lon="103.839851"><ele>616.9</ele><time>2011-04-25T10:23:50.0000000+00:00</time></trkpt><trkpt lat="22.087896" lon="103.84024"><ele>612.8</ele><time>2011-04-25T10:23:55.0000000+00:00</time></trkpt><trkpt lat="22.087654" lon="103.840637"><ele>613.2</ele><time>2011-04-25T10:24:00.0000000+00:00</time></trkpt><trkpt lat="22.087399" lon="103.840958"><ele>616.0</ele><time>2011-04-25T10:24:05.0000000+00:00</time></trkpt><trkpt lat="22.087111" lon="103.84127"><ele>617.5</ele><time>2011-04-25T10:24:10.0000000+00:00</time></trkpt><trkpt lat="22.086811" lon="103.841545"><ele>616.1</ele><time>2011-04-25T10:24:15.0000000+00:00</time></trkpt><trkpt lat="22.08647" lon="103.841591"><ele>616.9</ele><time>2011-04-25T10:24:20.0000000+00:00</time></trkpt><trkpt lat="22.086145" lon="103.841553"><ele>618.4</ele><time>2011-04-25T10:24:25.0000000+00:00</time></trkpt><trkpt lat="22.085852" lon="103.84137"><ele>618.2</ele><time>2011-04-25T10:24:30.0000000+00:00</time></trkpt><trkpt lat="22.085585" lon="103.841293"><ele>618.6</ele><time>2011-04-25T10:24:35.0000000+00:00</time></trkpt><trkpt lat="22.085312" lon="103.841331"><ele>618.9</ele><time>2011-04-25T10:24:40.0000000+00:00</time></trkpt><trkpt lat="22.085033" lon="103.841408"><ele>619.4</ele><time>2011-04-25T10:24:45.0000000+00:00</time></trkpt><trkpt lat="22.084717" lon="103.841515"><ele>619.7</ele><time>2011-04-25T10:24:50.0000000+00:00</time></trkpt><trkpt lat="22.084351" lon="103.841736"><ele>619.6</ele><time>2011-04-25T10:24:55.0000000+00:00</time></trkpt><trkpt lat="22.084007" lon="103.84198"><ele>618.5</ele><time>2011-04-25T10:25:00.0000000+00:00</time></trkpt><trkpt lat="22.083597" lon="103.842117"><ele>618.1</ele><time>2011-04-25T10:25:05.0000000+00:00</time></trkpt><trkpt lat="22.083158" lon="103.842186"><ele>616.8</ele><time>2011-04-25T10:25:10.0000000+00:00</time></trkpt><trkpt lat="22.082737" lon="103.8423"><ele>615.2</ele><time>2011-04-25T10:25:15.0000000+00:00</time></trkpt><trkpt lat="22.082397" lon="103.842567"><ele>613.4</ele><time>2011-04-25T10:25:20.0000000+00:00</time></trkpt><trkpt lat="22.082094" lon="103.842865"><ele>612.1</ele><time>2011-04-25T10:25:25.0000000+00:00</time></trkpt><trkpt lat="22.081831" lon="103.843002"><ele>612.6</ele><time>2011-04-25T10:25:30.0000000+00:00</time></trkpt><trkpt lat="22.081564" lon="103.843117"><ele>612.2</ele><time>2011-04-25T10:25:35.0000000+00:00</time></trkpt><trkpt lat="22.081341" lon="103.843262"><ele>611.6</ele><time>2011-04-25T10:25:40.0000000+00:00</time></trkpt><trkpt lat="22.08112" lon="103.843422"><ele>608.4</ele><time>2011-04-25T10:25:45.0000000+00:00</time></trkpt><trkpt lat="22.08094" lon="103.843575"><ele>607.1</ele><time>2011-04-25T10:25:50.0000000+00:00</time></trkpt><trkpt lat="22.080774" lon="103.843681"><ele>606.5</ele><time>2011-04-25T10:25:55.0000000+00:00</time></trkpt><trkpt lat="22.080616" lon="103.843773"><ele>605.1</ele><time>2011-04-25T10:26:00.0000000+00:00</time></trkpt><trkpt lat="22.080433" lon="103.843872"><ele>604.8</ele><time>2011-04-25T10:26:05.0000000+00:00</time></trkpt><trkpt lat="22.080233" lon="103.843979"><ele>606.4</ele><time>2011-04-25T10:26:10.0000000+00:00</time></trkpt><trkpt lat="22.080044" lon="103.844086"><ele>606.2</ele><time>2011-04-25T10:26:15.0000000+00:00</time></trkpt><trkpt lat="22.079826" lon="103.844246"><ele>603.8</ele><time>2011-04-25T10:26:20.0000000+00:00</time></trkpt><trkpt lat="22.079576" lon="103.844452"><ele>600.5</ele><time>2011-04-25T10:26:25.0000000+00:00</time></trkpt><trkpt lat="22.079317" lon="103.844666"><ele>600.5</ele><time>2011-04-25T10:26:30.0000000+00:00</time></trkpt><trkpt lat="22.079046" lon="103.844879"><ele>599.4</ele><time>2011-04-25T10:26:35.0000000+00:00</time></trkpt><trkpt lat="22.078751" lon="103.845108"><ele>598.8</ele><time>2011-04-25T10:26:40.0000000+00:00</time></trkpt><trkpt lat="22.078506" lon="103.845375"><ele>594.6</ele><time>2011-04-25T10:26:45.0000000+00:00</time></trkpt><trkpt lat="22.078304" lon="103.845673"><ele>592.9</ele><time>2011-04-25T10:26:50.0000000+00:00</time></trkpt><trkpt lat="22.078186" lon="103.845955"><ele>593.3</ele><time>2011-04-25T10:26:55.0000000+00:00</time></trkpt><trkpt lat="22.07827" lon="103.84626"><ele>591.6</ele><time>2011-04-25T10:27:00.0000000+00:00</time></trkpt><trkpt lat="22.078463" lon="103.84655"><ele>591.1</ele><time>2011-04-25T10:27:05.0000000+00:00</time></trkpt><trkpt lat="22.07865" lon="103.846832"><ele>588.0</ele><time>2011-04-25T10:27:10.0000000+00:00</time></trkpt><trkpt lat="22.078764" lon="103.84713"><ele>587.7</ele><time>2011-04-25T10:27:15.0000000+00:00</time></trkpt><trkpt lat="22.078732" lon="103.847496"><ele>587.0</ele><time>2011-04-25T10:27:20.0000000+00:00</time></trkpt><trkpt lat="22.078587" lon="103.847824"><ele>587.4</ele><time>2011-04-25T10:27:25.0000000+00:00</time></trkpt><trkpt lat="22.078447" lon="103.848129"><ele>586.1</ele><time>2011-04-25T10:27:30.0000000+00:00</time></trkpt><trkpt lat="22.078314" lon="103.848396"><ele>587.5</ele><time>2011-04-25T10:27:35.0000000+00:00</time></trkpt><trkpt lat="22.078157" lon="103.848656"><ele>589.0</ele><time>2011-04-25T10:27:40.0000000+00:00</time></trkpt><trkpt lat="22.077906" lon="103.848755"><ele>591.3</ele><time>2011-04-25T10:27:45.0000000+00:00</time></trkpt><trkpt lat="22.077654" lon="103.848663"><ele>593.2</ele><time>2011-04-25T10:27:50.0000000+00:00</time></trkpt><trkpt lat="22.077446" lon="103.848503"><ele>594.8</ele><time>2011-04-25T10:27:55.0000000+00:00</time></trkpt><trkpt lat="22.077263" lon="103.84832"><ele>596.8</ele><time>2011-04-25T10:28:00.0000000+00:00</time></trkpt><trkpt lat="22.077091" lon="103.848114"><ele>597.6</ele><time>2011-04-25T10:28:05.0000000+00:00</time></trkpt><trkpt lat="22.076853" lon="103.847939"><ele>598.4</ele><time>2011-04-25T10:28:10.0000000+00:00</time></trkpt><trkpt lat="22.076611" lon="103.847794"><ele>598.3</ele><time>2011-04-25T10:28:15.0000000+00:00</time></trkpt><trkpt lat="22.076342" lon="103.847679"><ele>598.8</ele><time>2011-04-25T10:28:20.0000000+00:00</time></trkpt><trkpt lat="22.076094" lon="103.847633"><ele>599.7</ele><time>2011-04-25T10:28:25.0000000+00:00</time></trkpt><trkpt lat="22.075876" lon="103.84771"><ele>601.6</ele><time>2011-04-25T10:28:30.0000000+00:00</time></trkpt><trkpt lat="22.075663" lon="103.8479"><ele>600.6</ele><time>2011-04-25T10:28:35.0000000+00:00</time></trkpt><trkpt lat="22.075453" lon="103.84816"><ele>597.8</ele><time>2011-04-25T10:28:40.0000000+00:00</time></trkpt><trkpt lat="22.075382" lon="103.848511"><ele>596.6</ele><time>2011-04-25T10:28:45.0000000+00:00</time></trkpt><trkpt lat="22.075367" lon="103.848938"><ele>592.3</ele><time>2011-04-25T10:28:50.0000000+00:00</time></trkpt><trkpt lat="22.075159" lon="103.849319"><ele>594.1</ele><time>2011-04-25T10:28:55.0000000+00:00</time></trkpt><trkpt lat="22.074921" lon="103.849602"><ele>594.7</ele><time>2011-04-25T10:29:00.0000000+00:00</time></trkpt><trkpt lat="22.074661" lon="103.849785"><ele>595.7</ele><time>2011-04-25T10:29:05.0000000+00:00</time></trkpt><trkpt lat="22.074455" lon="103.849907"><ele>595.9</ele><time>2011-04-25T10:29:10.0000000+00:00</time></trkpt><trkpt lat="22.074301" lon="103.850014"><ele>595.2</ele><time>2011-04-25T10:29:15.0000000+00:00</time></trkpt><trkpt lat="22.074188" lon="103.850098"><ele>594.9</ele><time>2011-04-25T10:29:20.0000000+00:00</time></trkpt><trkpt lat="22.074047" lon="103.850243"><ele>594.9</ele><time>2011-04-25T10:29:25.0000000+00:00</time></trkpt><trkpt lat="22.07394" lon="103.85041"><ele>594.4</ele><time>2011-04-25T10:29:30.0000000+00:00</time></trkpt><trkpt lat="22.073885" lon="103.850555"><ele>592.0</ele><time>2011-04-25T10:29:35.0000000+00:00</time></trkpt><trkpt lat="22.073841" lon="103.850639"><ele>591.8</ele><time>2011-04-25T10:29:40.0000000+00:00</time></trkpt><trkpt lat="22.073782" lon="103.850739"><ele>589.8</ele><time>2011-04-25T10:29:45.0000000+00:00</time></trkpt><trkpt lat="22.07373" lon="103.850891"><ele>588.3</ele><time>2011-04-25T10:29:50.0000000+00:00</time></trkpt><trkpt lat="22.073704" lon="103.85096"><ele>587.0</ele><time>2011-04-25T10:29:55.0000000+00:00</time></trkpt><trkpt lat="22.073689" lon="103.85096"><ele>587.6</ele><time>2011-04-25T10:30:00.0000000+00:00</time></trkpt><trkpt lat="22.07369" lon="103.85096"><ele>587.7</ele><time>2011-04-25T10:30:05.0000000+00:00</time></trkpt><trkpt lat="22.07369" lon="103.85096"><ele>587.8</ele><time>2011-04-25T10:30:10.0000000+00:00</time></trkpt><trkpt lat="22.07369" lon="103.85096"><ele>587.8</ele><time>2011-04-25T10:30:15.0000000+00:00</time></trkpt><trkpt lat="22.073689" lon="103.85096"><ele>587.8</ele><time>2011-04-25T10:30:20.0000000+00:00</time></trkpt><trkpt lat="22.073689" lon="103.850967"><ele>587.9</ele><time>2011-04-25T10:30:25.0000000+00:00</time></trkpt><trkpt lat="22.073692" lon="103.850967"><ele>587.9</ele><time>2011-04-25T10:30:30.0000000+00:00</time></trkpt><trkpt lat="22.073694" lon="103.850967"><ele>588.0</ele><time>2011-04-25T10:30:35.0000000+00:00</time></trkpt><trkpt lat="22.073694" lon="103.850967"><ele>588.0</ele><time>2011-04-25T10:30:40.0000000+00:00</time></trkpt><trkpt lat="22.073694" lon="103.850967"><ele>588.0</ele><time>2011-04-25T10:30:45.0000000+00:00</time></trkpt><trkpt lat="22.073694" lon="103.850967"><ele>587.9</ele><time>2011-04-25T10:30:50.0000000+00:00</time></trkpt><trkpt lat="22.073694" lon="103.850967"><ele>587.9</ele><time>2011-04-25T10:30:55.0000000+00:00</time></trkpt><trkpt lat="22.073696" lon="103.850967"><ele>587.9</ele><time>2011-04-25T10:31:00.0000000+00:00</time></trkpt><trkpt lat="22.073696" lon="103.850967"><ele>587.9</ele><time>2011-04-25T10:31:05.0000000+00:00</time></trkpt><trkpt lat="22.073694" lon="103.850975"><ele>588.0</ele><time>2011-04-25T10:31:10.0000000+00:00</time></trkpt><trkpt lat="22.073694" lon="103.850975"><ele>588.0</ele><time>2011-04-25T10:31:15.0000000+00:00</time></trkpt><trkpt lat="22.073694" lon="103.850975"><ele>588.0</ele><time>2011-04-25T10:31:20.0000000+00:00</time></trkpt><trkpt lat="22.073694" lon="103.850975"><ele>588.2</ele><time>2011-04-25T10:31:25.0000000+00:00</time></trkpt><trkpt lat="22.073694" lon="103.850975"><ele>588.3</ele><time>2011-04-25T10:31:30.0000000+00:00</time></trkpt><trkpt lat="22.073694" lon="103.850975"><ele>588.3</ele><time>2011-04-25T10:31:35.0000000+00:00</time></trkpt><trkpt lat="22.073694" lon="103.850975"><ele>588.4</ele><time>2011-04-25T10:31:40.0000000+00:00</time></trkpt><trkpt lat="22.073694" lon="103.850975"><ele>588.4</ele><time>2011-04-25T10:31:45.0000000+00:00</time></trkpt><trkpt lat="22.073696" lon="103.850975"><ele>588.5</ele><time>2011-04-25T10:31:50.0000000+00:00</time></trkpt><trkpt lat="22.073696" lon="103.850975"><ele>588.5</ele><time>2011-04-25T10:31:55.0000000+00:00</time></trkpt><trkpt lat="22.073696" lon="103.850975"><ele>588.5</ele><time>2011-04-25T10:32:00.0000000+00:00</time></trkpt><trkpt lat="22.073696" lon="103.850983"><ele>588.6</ele><time>2011-04-25T10:32:05.0000000+00:00</time></trkpt><trkpt lat="22.073696" lon="103.850983"><ele>588.5</ele><time>2011-04-25T10:32:10.0000000+00:00</time></trkpt><trkpt lat="22.073696" lon="103.850983"><ele>588.5</ele><time>2011-04-25T10:32:15.0000000+00:00</time></trkpt><trkpt lat="22.073696" lon="103.850983"><ele>588.5</ele><time>2011-04-25T10:32:20.0000000+00:00</time></trkpt><trkpt lat="22.073696" lon="103.850983"><ele>588.5</ele><time>2011-04-25T10:32:25.0000000+00:00</time></trkpt><trkpt lat="22.073696" lon="103.850983"><ele>588.5</ele><time>2011-04-25T10:32:30.0000000+00:00</time></trkpt><trkpt lat="22.073696" lon="103.850983"><ele>588.5</ele><time>2011-04-25T10:32:35.0000000+00:00</time></trkpt><trkpt lat="22.073696" lon="103.850983"><ele>588.5</ele><time>2011-04-25T10:32:40.0000000+00:00</time></trkpt><trkpt lat="22.073698" lon="103.850983"><ele>588.5</ele><time>2011-04-25T10:32:45.0000000+00:00</time></trkpt><trkpt lat="22.073698" lon="103.850983"><ele>588.5</ele><time>2011-04-25T10:32:50.0000000+00:00</time></trkpt><trkpt lat="22.073698" lon="103.850983"><ele>588.5</ele><time>2011-04-25T10:32:55.0000000+00:00</time></trkpt><trkpt lat="22.073698" lon="103.850983"><ele>588.6</ele><time>2011-04-25T10:33:00.0000000+00:00</time></trkpt><trkpt lat="22.073694" lon="103.85099"><ele>588.5</ele><time>2011-04-25T10:33:05.0000000+00:00</time></trkpt><trkpt lat="22.073692" lon="103.850998"><ele>588.5</ele><time>2011-04-25T10:33:10.0000000+00:00</time></trkpt><trkpt lat="22.073694" lon="103.850998"><ele>588.5</ele><time>2011-04-25T10:33:15.0000000+00:00</time></trkpt><trkpt lat="22.073692" lon="103.851006"><ele>588.6</ele><time>2011-04-25T10:33:20.0000000+00:00</time></trkpt><trkpt lat="22.073702" lon="103.851006"><ele>587.1</ele><time>2011-04-25T10:33:25.0000000+00:00</time></trkpt><trkpt lat="22.073706" lon="103.850998"><ele>585.4</ele><time>2011-04-25T10:33:30.0000000+00:00</time></trkpt><trkpt lat="22.073708" lon="103.850998"><ele>584.4</ele><time>2011-04-25T10:33:35.0000000+00:00</time></trkpt><trkpt lat="22.073709" lon="103.850998"><ele>583.8</ele><time>2011-04-25T10:33:40.0000000+00:00</time></trkpt><trkpt lat="22.073709" lon="103.851006"><ele>583.6</ele><time>2011-04-25T10:33:45.0000000+00:00</time></trkpt><trkpt lat="22.073711" lon="103.851021"><ele>583.1</ele><time>2011-04-25T10:33:50.0000000+00:00</time></trkpt><trkpt lat="22.073711" lon="103.851028"><ele>582.9</ele><time>2011-04-25T10:33:55.0000000+00:00</time></trkpt><trkpt lat="22.073713" lon="103.851036"><ele>581.4</ele><time>2011-04-25T10:34:00.0000000+00:00</time></trkpt><trkpt lat="22.073713" lon="103.851036"><ele>581.4</ele><time>2011-04-25T10:34:05.0000000+00:00</time></trkpt><trkpt lat="22.073713" lon="103.851036"><ele>581.3</ele><time>2011-04-25T10:34:10.0000000+00:00</time></trkpt><trkpt lat="22.073715" lon="103.851036"><ele>581.3</ele><time>2011-04-25T10:34:15.0000000+00:00</time></trkpt><trkpt lat="22.073715" lon="103.851028"><ele>581.2</ele><time>2011-04-25T10:34:20.0000000+00:00</time></trkpt><trkpt lat="22.073715" lon="103.851036"><ele>581.2</ele><time>2011-04-25T10:34:25.0000000+00:00</time></trkpt><trkpt lat="22.073715" lon="103.851036"><ele>581.1</ele><time>2011-04-25T10:34:30.0000000+00:00</time></trkpt><trkpt lat="22.073715" lon="103.851036"><ele>581.1</ele><time>2011-04-25T10:34:35.0000000+00:00</time></trkpt><trkpt lat="22.073715" lon="103.851036"><ele>581.1</ele><time>2011-04-25T10:34:40.0000000+00:00</time></trkpt><trkpt lat="22.073715" lon="103.851036"><ele>581.0</ele><time>2011-04-25T10:34:45.0000000+00:00</time></trkpt><trkpt lat="22.073715" lon="103.851036"><ele>581.0</ele><time>2011-04-25T10:34:50.0000000+00:00</time></trkpt><trkpt lat="22.073715" lon="103.851036"><ele>581.0</ele><time>2011-04-25T10:34:55.0000000+00:00</time></trkpt><trkpt lat="22.073711" lon="103.851036"><ele>581.0</ele><time>2011-04-25T10:35:00.0000000+00:00</time></trkpt><trkpt lat="22.073683" lon="103.851181"><ele>580.4</ele><time>2011-04-25T10:35:05.0000000+00:00</time></trkpt><trkpt lat="22.073626" lon="103.851288"><ele>580.7</ele><time>2011-04-25T10:35:10.0000000+00:00</time></trkpt><trkpt lat="22.073574" lon="103.851379"><ele>581.9</ele><time>2011-04-25T10:35:15.0000000+00:00</time></trkpt><trkpt lat="22.073532" lon="103.851486"><ele>583.4</ele><time>2011-04-25T10:35:20.0000000+00:00</time></trkpt><trkpt lat="22.073463" lon="103.851585"><ele>585.7</ele><time>2011-04-25T10:35:25.0000000+00:00</time></trkpt><trkpt lat="22.073368" lon="103.851692"><ele>586.7</ele><time>2011-04-25T10:35:30.0000000+00:00</time></trkpt><trkpt lat="22.073305" lon="103.851753"><ele>586.9</ele><time>2011-04-25T10:35:35.0000000+00:00</time></trkpt><trkpt lat="22.073277" lon="103.851791"><ele>586.9</ele><time>2011-04-25T10:35:40.0000000+00:00</time></trkpt><trkpt lat="22.073231" lon="103.851845"><ele>586.9</ele><time>2011-04-25T10:35:45.0000000+00:00</time></trkpt><trkpt lat="22.073122" lon="103.851952"><ele>585.4</ele><time>2011-04-25T10:35:50.0000000+00:00</time></trkpt><trkpt lat="22.073013" lon="103.852058"><ele>584.3</ele><time>2011-04-25T10:35:55.0000000+00:00</time></trkpt><trkpt lat="22.07288" lon="103.852196"><ele>584.0</ele><time>2011-04-25T10:36:00.0000000+00:00</time></trkpt><trkpt lat="22.07276" lon="103.852325"><ele>584.0</ele><time>2011-04-25T10:36:05.0000000+00:00</time></trkpt><trkpt lat="22.072672" lon="103.852402"><ele>584.1</ele><time>2011-04-25T10:36:10.0000000+00:00</time></trkpt><trkpt lat="22.072638" lon="103.852463"><ele>584.1</ele><time>2011-04-25T10:36:15.0000000+00:00</time></trkpt><trkpt lat="22.072592" lon="103.852493"><ele>584.2</ele><time>2011-04-25T10:36:20.0000000+00:00</time></trkpt><trkpt lat="22.072594" lon="103.852501"><ele>584.1</ele><time>2011-04-25T10:36:25.0000000+00:00</time></trkpt><trkpt lat="22.072624" lon="103.852501"><ele>584.1</ele><time>2011-04-25T10:36:30.0000000+00:00</time></trkpt><trkpt lat="22.07268" lon="103.852478"><ele>584.3</ele><time>2011-04-25T10:36:35.0000000+00:00</time></trkpt><trkpt lat="22.072802" lon="103.852417"><ele>584.2</ele><time>2011-04-25T10:36:40.0000000+00:00</time></trkpt><trkpt lat="22.072962" lon="103.852226"><ele>584.6</ele><time>2011-04-25T10:36:45.0000000+00:00</time></trkpt><trkpt lat="22.073135" lon="103.85202"><ele>585.3</ele><time>2011-04-25T10:36:50.0000000+00:00</time></trkpt><trkpt lat="22.073322" lon="103.851814"><ele>586.3</ele><time>2011-04-25T10:36:55.0000000+00:00</time></trkpt><trkpt lat="22.073488" lon="103.851639"><ele>587.1</ele><time>2011-04-25T10:37:00.0000000+00:00</time></trkpt><trkpt lat="22.073601" lon="103.851494"><ele>587.9</ele><time>2011-04-25T10:37:05.0000000+00:00</time></trkpt><trkpt lat="22.073677" lon="103.851364"><ele>589.5</ele><time>2011-04-25T10:37:10.0000000+00:00</time></trkpt><trkpt lat="22.073721" lon="103.851181"><ele>590.8</ele><time>2011-04-25T10:37:15.0000000+00:00</time></trkpt><trkpt lat="22.07373" lon="103.851089"><ele>591.9</ele><time>2011-04-25T10:37:20.0000000+00:00</time></trkpt><trkpt lat="22.073729" lon="103.851082"><ele>591.7</ele><time>2011-04-25T10:37:25.0000000+00:00</time></trkpt><trkpt lat="22.073729" lon="103.851074"><ele>591.8</ele><time>2011-04-25T10:37:30.0000000+00:00</time></trkpt><trkpt lat="22.073727" lon="103.851059"><ele>591.8</ele><time>2011-04-25T10:37:35.0000000+00:00</time></trkpt><trkpt lat="22.07373" lon="103.851051"><ele>591.9</ele><time>2011-04-25T10:37:40.0000000+00:00</time></trkpt><trkpt lat="22.073732" lon="103.851044"><ele>591.9</ele><time>2011-04-25T10:37:45.0000000+00:00</time></trkpt><trkpt lat="22.073734" lon="103.851044"><ele>592.0</ele><time>2011-04-25T10:37:50.0000000+00:00</time></trkpt><trkpt lat="22.073736" lon="103.851036"><ele>592.0</ele><time>2011-04-25T10:37:55.0000000+00:00</time></trkpt><trkpt lat="22.073738" lon="103.851036"><ele>592.0</ele><time>2011-04-25T10:38:00.0000000+00:00</time></trkpt><trkpt lat="22.073738" lon="103.851036"><ele>592.0</ele><time>2011-04-25T10:38:05.0000000+00:00</time></trkpt><trkpt lat="22.07374" lon="103.851028"><ele>592.0</ele><time>2011-04-25T10:38:10.0000000+00:00</time></trkpt><trkpt lat="22.07375" lon="103.851028"><ele>592.0</ele><time>2011-04-25T10:38:15.0000000+00:00</time></trkpt><trkpt lat="22.073759" lon="103.851021"><ele>592.0</ele><time>2011-04-25T10:38:20.0000000+00:00</time></trkpt><trkpt lat="22.073765" lon="103.851013"><ele>591.9</ele><time>2011-04-25T10:38:25.0000000+00:00</time></trkpt><trkpt lat="22.073769" lon="103.851013"><ele>591.9</ele><time>2011-04-25T10:38:30.0000000+00:00</time></trkpt><trkpt lat="22.073776" lon="103.851006"><ele>591.9</ele><time>2011-04-25T10:38:35.0000000+00:00</time></trkpt><trkpt lat="22.073774" lon="103.851006"><ele>591.8</ele><time>2011-04-25T10:38:40.0000000+00:00</time></trkpt><trkpt lat="22.073772" lon="103.851006"><ele>591.8</ele><time>2011-04-25T10:38:45.0000000+00:00</time></trkpt><trkpt lat="22.073771" lon="103.851013"><ele>591.8</ele><time>2011-04-25T10:38:50.0000000+00:00</time></trkpt><trkpt lat="22.073767" lon="103.851013"><ele>591.8</ele><time>2011-04-25T10:38:55.0000000+00:00</time></trkpt><trkpt lat="22.073767" lon="103.851013"><ele>591.9</ele><time>2011-04-25T10:39:00.0000000+00:00</time></trkpt><trkpt lat="22.073767" lon="103.851013"><ele>591.9</ele><time>2011-04-25T10:39:05.0000000+00:00</time></trkpt><trkpt lat="22.073765" lon="103.851021"><ele>591.9</ele><time>2011-04-25T10:39:10.0000000+00:00</time></trkpt><trkpt lat="22.073759" lon="103.851074"><ele>592.1</ele><time>2011-04-25T10:39:15.0000000+00:00</time></trkpt><trkpt lat="22.073692" lon="103.851242"><ele>592.6</ele><time>2011-04-25T10:39:20.0000000+00:00</time></trkpt><trkpt lat="22.073648" lon="103.851311"><ele>593.0</ele><time>2011-04-25T10:39:25.0000000+00:00</time></trkpt><trkpt lat="22.073576" lon="103.851425"><ele>593.6</ele><time>2011-04-25T10:39:30.0000000+00:00</time></trkpt><trkpt lat="22.073473" lon="103.85157"><ele>594.1</ele><time>2011-04-25T10:39:35.0000000+00:00</time></trkpt><trkpt lat="22.073318" lon="103.851746"><ele>594.9</ele><time>2011-04-25T10:39:40.0000000+00:00</time></trkpt><trkpt lat="22.073133" lon="103.851936"><ele>595.2</ele><time>2011-04-25T10:39:45.0000000+00:00</time></trkpt><trkpt lat="22.072973" lon="103.852112"><ele>590.6</ele><time>2011-04-25T10:39:50.0000000+00:00</time></trkpt><trkpt lat="22.07283" lon="103.852272"><ele>586.2</ele><time>2011-04-25T10:39:55.0000000+00:00</time></trkpt><trkpt lat="22.072701" lon="103.852394"><ele>583.2</ele><time>2011-04-25T10:40:00.0000000+00:00</time></trkpt><trkpt lat="22.072674" lon="103.852432"><ele>581.8</ele><time>2011-04-25T10:40:05.0000000+00:00</time></trkpt><trkpt lat="22.07266" lon="103.85244"><ele>581.4</ele><time>2011-04-25T10:40:10.0000000+00:00</time></trkpt><trkpt lat="22.07258" lon="103.852509"><ele>581.0</ele><time>2011-04-25T10:40:15.0000000+00:00</time></trkpt><trkpt lat="22.072449" lon="103.8526"><ele>581.0</ele><time>2011-04-25T10:40:20.0000000+00:00</time></trkpt><trkpt lat="22.072334" lon="103.852676"><ele>581.1</ele><time>2011-04-25T10:40:25.0000000+00:00</time></trkpt><trkpt lat="22.072243" lon="103.852745"><ele>581.3</ele><time>2011-04-25T10:40:30.0000000+00:00</time></trkpt><trkpt lat="22.072319" lon="103.852753"><ele>581.1</ele><time>2011-04-25T10:40:35.0000000+00:00</time></trkpt><trkpt lat="22.072441" lon="103.852722"><ele>581.2</ele><time>2011-04-25T10:40:40.0000000+00:00</time></trkpt><trkpt lat="22.072536" lon="103.852699"><ele>581.1</ele><time>2011-04-25T10:40:45.0000000+00:00</time></trkpt><trkpt lat="22.072596" lon="103.852669"><ele>581.7</ele><time>2011-04-25T10:40:50.0000000+00:00</time></trkpt><trkpt lat="22.072611" lon="103.852661"><ele>582.4</ele><time>2011-04-25T10:40:55.0000000+00:00</time></trkpt><trkpt lat="22.072617" lon="103.852669"><ele>582.6</ele><time>2011-04-25T10:41:00.0000000+00:00</time></trkpt><trkpt lat="22.07262" lon="103.852676"><ele>582.6</ele><time>2011-04-25T10:41:05.0000000+00:00</time></trkpt><trkpt lat="22.07262" lon="103.852676"><ele>582.6</ele><time>2011-04-25T10:41:10.0000000+00:00</time></trkpt><trkpt lat="22.07262" lon="103.852676"><ele>582.6</ele><time>2011-04-25T10:41:15.0000000+00:00</time></trkpt><trkpt lat="22.072618" lon="103.852676"><ele>582.6</ele><time>2011-04-25T10:41:20.0000000+00:00</time></trkpt><trkpt lat="22.072618" lon="103.852676"><ele>582.6</ele><time>2011-04-25T10:41:25.0000000+00:00</time></trkpt><trkpt lat="22.072618" lon="103.852676"><ele>582.6</ele><time>2011-04-25T10:41:30.0000000+00:00</time></trkpt><trkpt lat="22.072618" lon="103.852676"><ele>582.5</ele><time>2011-04-25T10:41:35.0000000+00:00</time></trkpt><trkpt lat="22.07262" lon="103.852676"><ele>582.5</ele><time>2011-04-25T10:41:40.0000000+00:00</time></trkpt><trkpt lat="22.072618" lon="103.852676"><ele>582.5</ele><time>2011-04-25T10:41:45.0000000+00:00</time></trkpt><trkpt lat="22.07262" lon="103.852676"><ele>582.4</ele><time>2011-04-25T10:41:50.0000000+00:00</time></trkpt><trkpt lat="22.07262" lon="103.852676"><ele>582.2</ele><time>2011-04-25T10:41:55.0000000+00:00</time></trkpt><trkpt lat="22.072622" lon="103.852676"><ele>582.0</ele><time>2011-04-25T10:42:00.0000000+00:00</time></trkpt><trkpt lat="22.07262" lon="103.852676"><ele>581.9</ele><time>2011-04-25T10:42:05.0000000+00:00</time></trkpt><trkpt lat="22.072622" lon="103.852676"><ele>581.8</ele><time>2011-04-25T10:42:10.0000000+00:00</time></trkpt><trkpt lat="22.072622" lon="103.852676"><ele>581.6</ele><time>2011-04-25T10:42:15.0000000+00:00</time></trkpt><trkpt lat="22.072622" lon="103.852676"><ele>581.5</ele><time>2011-04-25T10:42:20.0000000+00:00</time></trkpt><trkpt lat="22.072622" lon="103.852676"><ele>581.5</ele><time>2011-04-25T10:42:25.0000000+00:00</time></trkpt><trkpt lat="22.07262" lon="103.852669"><ele>581.5</ele><time>2011-04-25T10:42:30.0000000+00:00</time></trkpt><trkpt lat="22.072622" lon="103.852676"><ele>581.5</ele><time>2011-04-25T10:42:35.0000000+00:00</time></trkpt><trkpt lat="22.072624" lon="103.852676"><ele>581.5</ele><time>2011-04-25T10:42:40.0000000+00:00</time></trkpt><trkpt lat="22.07263" lon="103.852676"><ele>581.4</ele><time>2011-04-25T10:42:45.0000000+00:00</time></trkpt><trkpt lat="22.072634" lon="103.852676"><ele>581.2</ele><time>2011-04-25T10:42:50.0000000+00:00</time></trkpt><trkpt lat="22.072638" lon="103.852676"><ele>581.0</ele><time>2011-04-25T10:42:55.0000000+00:00</time></trkpt><trkpt lat="22.072638" lon="103.852676"><ele>580.7</ele><time>2011-04-25T10:43:00.0000000+00:00</time></trkpt><trkpt lat="22.072639" lon="103.852676"><ele>580.6</ele><time>2011-04-25T10:43:05.0000000+00:00</time></trkpt><trkpt lat="22.072638" lon="103.852676"><ele>580.5</ele><time>2011-04-25T10:43:10.0000000+00:00</time></trkpt><trkpt lat="22.072638" lon="103.852676"><ele>580.4</ele><time>2011-04-25T10:43:15.0000000+00:00</time></trkpt><trkpt lat="22.072636" lon="103.852676"><ele>580.4</ele><time>2011-04-25T10:43:20.0000000+00:00</time></trkpt><trkpt lat="22.072632" lon="103.852676"><ele>580.4</ele><time>2011-04-25T10:43:25.0000000+00:00</time></trkpt><trkpt lat="22.072628" lon="103.852676"><ele>580.4</ele><time>2011-04-25T10:43:30.0000000+00:00</time></trkpt><trkpt lat="22.07263" lon="103.852676"><ele>580.4</ele><time>2011-04-25T10:43:35.0000000+00:00</time></trkpt><trkpt lat="22.072632" lon="103.852676"><ele>580.4</ele><time>2011-04-25T10:43:40.0000000+00:00</time></trkpt><trkpt lat="22.072634" lon="103.852676"><ele>580.3</ele><time>2011-04-25T10:43:45.0000000+00:00</time></trkpt><trkpt lat="22.072634" lon="103.852676"><ele>580.2</ele><time>2011-04-25T10:43:50.0000000+00:00</time></trkpt><trkpt lat="22.072634" lon="103.852676"><ele>580.2</ele><time>2011-04-25T10:43:55.0000000+00:00</time></trkpt><trkpt lat="22.072636" lon="103.852676"><ele>580.1</ele><time>2011-04-25T10:44:00.0000000+00:00</time></trkpt><trkpt lat="22.072643" lon="103.852631"><ele>579.5</ele><time>2011-04-25T10:44:05.0000000+00:00</time></trkpt><trkpt lat="22.072651" lon="103.852623"><ele>578.8</ele><time>2011-04-25T10:44:10.0000000+00:00</time></trkpt><trkpt lat="22.072561" lon="103.852631"><ele>578.6</ele><time>2011-04-25T10:44:15.0000000+00:00</time></trkpt><trkpt lat="22.072407" lon="103.852684"><ele>578.2</ele><time>2011-04-25T10:44:20.0000000+00:00</time></trkpt><trkpt lat="22.072239" lon="103.852776"><ele>577.7</ele><time>2011-04-25T10:44:25.0000000+00:00</time></trkpt><trkpt lat="22.072041" lon="103.852875"><ele>577.4</ele><time>2011-04-25T10:44:30.0000000+00:00</time></trkpt><trkpt lat="22.071777" lon="103.852997"><ele>577.1</ele><time>2011-04-25T10:44:35.0000000+00:00</time></trkpt><trkpt lat="22.071625" lon="103.853073"><ele>576.7</ele><time>2011-04-25T10:44:40.0000000+00:00</time></trkpt><trkpt lat="22.071621" lon="103.853065"><ele>576.8</ele><time>2011-04-25T10:44:45.0000000+00:00</time></trkpt><trkpt lat="22.071621" lon="103.853065"><ele>576.8</ele><time>2011-04-25T10:44:50.0000000+00:00</time></trkpt><trkpt lat="22.071619" lon="103.853065"><ele>576.8</ele><time>2011-04-25T10:44:55.0000000+00:00</time></trkpt><trkpt lat="22.071621" lon="103.853065"><ele>576.8</ele><time>2011-04-25T10:45:00.0000000+00:00</time></trkpt><trkpt lat="22.071621" lon="103.853065"><ele>576.8</ele><time>2011-04-25T10:45:05.0000000+00:00</time></trkpt><trkpt lat="22.071651" lon="103.853088"><ele>576.9</ele><time>2011-04-25T10:45:10.0000000+00:00</time></trkpt><trkpt lat="22.071749" lon="103.853058"><ele>577.4</ele><time>2011-04-25T10:45:15.0000000+00:00</time></trkpt><trkpt lat="22.07192" lon="103.852966"><ele>577.6</ele><time>2011-04-25T10:45:20.0000000+00:00</time></trkpt><trkpt lat="22.072144" lon="103.852867"><ele>577.4</ele><time>2011-04-25T10:45:25.0000000+00:00</time></trkpt><trkpt lat="22.072397" lon="103.852737"><ele>577.8</ele><time>2011-04-25T10:45:30.0000000+00:00</time></trkpt><trkpt lat="22.072598" lon="103.852638"><ele>578.7</ele><time>2011-04-25T10:45:35.0000000+00:00</time></trkpt><trkpt lat="22.072716" lon="103.85257"><ele>579.2</ele><time>2011-04-25T10:45:40.0000000+00:00</time></trkpt><trkpt lat="22.072779" lon="103.852524"><ele>579.0</ele><time>2011-04-25T10:45:45.0000000+00:00</time></trkpt><trkpt lat="22.072779" lon="103.852516"><ele>579.2</ele><time>2011-04-25T10:45:50.0000000+00:00</time></trkpt><trkpt lat="22.072777" lon="103.852516"><ele>579.2</ele><time>2011-04-25T10:45:55.0000000+00:00</time></trkpt><trkpt lat="22.072777" lon="103.852509"><ele>579.2</ele><time>2011-04-25T10:46:00.0000000+00:00</time></trkpt><trkpt lat="22.072781" lon="103.852509"><ele>579.2</ele><time>2011-04-25T10:46:05.0000000+00:00</time></trkpt><trkpt lat="22.072783" lon="103.852509"><ele>579.2</ele><time>2011-04-25T10:46:10.0000000+00:00</time></trkpt><trkpt lat="22.072779" lon="103.852509"><ele>579.1</ele><time>2011-04-25T10:46:15.0000000+00:00</time></trkpt><trkpt lat="22.072777" lon="103.852501"><ele>579.1</ele><time>2011-04-25T10:46:20.0000000+00:00</time></trkpt><trkpt lat="22.072775" lon="103.852493"><ele>579.1</ele><time>2011-04-25T10:46:25.0000000+00:00</time></trkpt><trkpt lat="22.072773" lon="103.852486"><ele>579.1</ele><time>2011-04-25T10:46:30.0000000+00:00</time></trkpt><trkpt lat="22.072771" lon="103.852478"><ele>579.1</ele><time>2011-04-25T10:46:35.0000000+00:00</time></trkpt><trkpt lat="22.072769" lon="103.85247"><ele>579.1</ele><time>2011-04-25T10:46:40.0000000+00:00</time></trkpt><trkpt lat="22.072767" lon="103.852463"><ele>579.1</ele><time>2011-04-25T10:46:45.0000000+00:00</time></trkpt><trkpt lat="22.072767" lon="103.852463"><ele>579.1</ele><time>2011-04-25T10:46:50.0000000+00:00</time></trkpt><trkpt lat="22.072765" lon="103.852455"><ele>579.1</ele><time>2011-04-25T10:46:55.0000000+00:00</time></trkpt><trkpt lat="22.072763" lon="103.852455"><ele>579.1</ele><time>2011-04-25T10:47:00.0000000+00:00</time></trkpt><trkpt lat="22.072765" lon="103.852455"><ele>579.1</ele><time>2011-04-25T10:47:05.0000000+00:00</time></trkpt><trkpt lat="22.072767" lon="103.852455"><ele>579.1</ele><time>2011-04-25T10:47:10.0000000+00:00</time></trkpt><trkpt lat="22.072769" lon="103.852463"><ele>579.0</ele><time>2011-04-25T10:47:15.0000000+00:00</time></trkpt><trkpt lat="22.072773" lon="103.852478"><ele>579.0</ele><time>2011-04-25T10:47:20.0000000+00:00</time></trkpt><trkpt lat="22.072775" lon="103.852486"><ele>579.0</ele><time>2011-04-25T10:47:25.0000000+00:00</time></trkpt><trkpt lat="22.072777" lon="103.852486"><ele>579.0</ele><time>2011-04-25T10:47:30.0000000+00:00</time></trkpt><trkpt lat="22.072777" lon="103.852493"><ele>578.9</ele><time>2011-04-25T10:47:35.0000000+00:00</time></trkpt><trkpt lat="22.072775" lon="103.852493"><ele>578.9</ele><time>2011-04-25T10:47:40.0000000+00:00</time></trkpt><trkpt lat="22.072773" lon="103.852493"><ele>578.9</ele><time>2011-04-25T10:47:45.0000000+00:00</time></trkpt><trkpt lat="22.07276" lon="103.852486"><ele>579.0</ele><time>2011-04-25T10:47:50.0000000+00:00</time></trkpt><trkpt lat="22.07276" lon="103.852486"><ele>578.9</ele><time>2011-04-25T10:47:55.0000000+00:00</time></trkpt><trkpt lat="22.072758" lon="103.852486"><ele>578.9</ele><time>2011-04-25T10:48:00.0000000+00:00</time></trkpt><trkpt lat="22.072712" lon="103.85247"><ele>579.0</ele><time>2011-04-25T10:48:05.0000000+00:00</time></trkpt><trkpt lat="22.07254" lon="103.8526"><ele>578.7</ele><time>2011-04-25T10:48:10.0000000+00:00</time></trkpt><trkpt lat="22.07233" lon="103.852715"><ele>578.9</ele><time>2011-04-25T10:48:15.0000000+00:00</time></trkpt><trkpt lat="22.072084" lon="103.852806"><ele>579.1</ele><time>2011-04-25T10:48:20.0000000+00:00</time></trkpt><trkpt lat="22.071823" lon="103.852936"><ele>579.1</ele><time>2011-04-25T10:48:25.0000000+00:00</time></trkpt><trkpt lat="22.071541" lon="103.853081"><ele>579.2</ele><time>2011-04-25T10:48:30.0000000+00:00</time></trkpt><trkpt lat="22.071218" lon="103.853233"><ele>579.1</ele><time>2011-04-25T10:48:35.0000000+00:00</time></trkpt><trkpt lat="22.07089" lon="103.853424"><ele>578.9</ele><time>2011-04-25T10:48:40.0000000+00:00</time></trkpt><trkpt lat="22.070538" lon="103.853729"><ele>578.9</ele><time>2011-04-25T10:48:45.0000000+00:00</time></trkpt><trkpt lat="22.070219" lon="103.85408"><ele>578.6</ele><time>2011-04-25T10:48:50.0000000+00:00</time></trkpt><trkpt lat="22.069902" lon="103.854454"><ele>578.1</ele><time>2011-04-25T10:48:55.0000000+00:00</time></trkpt><trkpt lat="22.069616" lon="103.854851"><ele>577.3</ele><time>2011-04-25T10:49:00.0000000+00:00</time></trkpt><trkpt lat="22.069431" lon="103.855316"><ele>575.9</ele><time>2011-04-25T10:49:05.0000000+00:00</time></trkpt><trkpt lat="22.069246" lon="103.855766"><ele>574.7</ele><time>2011-04-25T10:49:10.0000000+00:00</time></trkpt><trkpt lat="22.06909" lon="103.856178"><ele>573.9</ele><time>2011-04-25T10:49:15.0000000+00:00</time></trkpt><trkpt lat="22.068941" lon="103.856552"><ele>573.6</ele><time>2011-04-25T10:49:20.0000000+00:00</time></trkpt><trkpt lat="22.068806" lon="103.856827"><ele>573.6</ele><time>2011-04-25T10:49:25.0000000+00:00</time></trkpt><trkpt lat="22.068737" lon="103.856895"><ele>573.4</ele><time>2011-04-25T10:49:30.0000000+00:00</time></trkpt><trkpt lat="22.06875" lon="103.856888"><ele>573.1</ele><time>2011-04-25T10:49:35.0000000+00:00</time></trkpt><trkpt lat="22.068752" lon="103.856888"><ele>573.1</ele><time>2011-04-25T10:49:40.0000000+00:00</time></trkpt><trkpt lat="22.068754" lon="103.85688"><ele>573.1</ele><time>2011-04-25T10:49:45.0000000+00:00</time></trkpt><trkpt lat="22.068752" lon="103.85688"><ele>573.1</ele><time>2011-04-25T10:49:50.0000000+00:00</time></trkpt><trkpt lat="22.068754" lon="103.85688"><ele>573.2</ele><time>2011-04-25T10:49:55.0000000+00:00</time></trkpt><trkpt lat="22.068752" lon="103.85688"><ele>573.2</ele><time>2011-04-25T10:50:00.0000000+00:00</time></trkpt><trkpt lat="22.06875" lon="103.85688"><ele>573.1</ele><time>2011-04-25T10:50:05.0000000+00:00</time></trkpt><trkpt lat="22.06875" lon="103.85688"><ele>573.1</ele><time>2011-04-25T10:50:10.0000000+00:00</time></trkpt><trkpt lat="22.06875" lon="103.85688"><ele>573.1</ele><time>2011-04-25T10:50:15.0000000+00:00</time></trkpt><trkpt lat="22.068754" lon="103.85688"><ele>573.1</ele><time>2011-04-25T10:50:20.0000000+00:00</time></trkpt><trkpt lat="22.068754" lon="103.85688"><ele>573.1</ele><time>2011-04-25T10:50:25.0000000+00:00</time></trkpt><trkpt lat="22.068752" lon="103.85688"><ele>573.1</ele><time>2011-04-25T10:50:30.0000000+00:00</time></trkpt><trkpt lat="22.068752" lon="103.85688"><ele>573.1</ele><time>2011-04-25T10:50:35.0000000+00:00</time></trkpt><trkpt lat="22.068754" lon="103.85688"><ele>573.1</ele><time>2011-04-25T10:50:40.0000000+00:00</time></trkpt><trkpt lat="22.06875" lon="103.856873"><ele>573.1</ele><time>2011-04-25T10:50:45.0000000+00:00</time></trkpt><trkpt lat="22.068748" lon="103.856873"><ele>573.1</ele><time>2011-04-25T10:50:50.0000000+00:00</time></trkpt><trkpt lat="22.068748" lon="103.856873"><ele>573.1</ele><time>2011-04-25T10:50:55.0000000+00:00</time></trkpt><trkpt lat="22.068747" lon="103.856873"><ele>573.1</ele><time>2011-04-25T10:51:00.0000000+00:00</time></trkpt><trkpt lat="22.068747" lon="103.856873"><ele>573.1</ele><time>2011-04-25T10:51:05.0000000+00:00</time></trkpt><trkpt lat="22.068745" lon="103.856873"><ele>573.1</ele><time>2011-04-25T10:51:10.0000000+00:00</time></trkpt><trkpt lat="22.068745" lon="103.856873"><ele>573.1</ele><time>2011-04-25T10:51:15.0000000+00:00</time></trkpt><trkpt lat="22.068745" lon="103.856865"><ele>573.2</ele><time>2011-04-25T10:51:20.0000000+00:00</time></trkpt><trkpt lat="22.068747" lon="103.856873"><ele>573.2</ele><time>2011-04-25T10:51:25.0000000+00:00</time></trkpt><trkpt lat="22.068747" lon="103.856873"><ele>573.2</ele><time>2011-04-25T10:51:30.0000000+00:00</time></trkpt><trkpt lat="22.068735" lon="103.85688"><ele>573.2</ele><time>2011-04-25T10:51:35.0000000+00:00</time></trkpt><trkpt lat="22.06867" lon="103.856926"><ele>573.0</ele><time>2011-04-25T10:51:40.0000000+00:00</time></trkpt><trkpt lat="22.068579" lon="103.856995"><ele>572.5</ele><time>2011-04-25T10:51:45.0000000+00:00</time></trkpt><trkpt lat="22.068419" lon="103.857033"><ele>573.0</ele><time>2011-04-25T10:51:50.0000000+00:00</time></trkpt><trkpt lat="22.068254" lon="103.857063"><ele>573.6</ele><time>2011-04-25T10:51:55.0000000+00:00</time></trkpt><trkpt lat="22.068094" lon="103.857201"><ele>573.7</ele><time>2011-04-25T10:52:00.0000000+00:00</time></trkpt><trkpt lat="22.067982" lon="103.857407"><ele>572.8</ele><time>2011-04-25T10:52:05.0000000+00:00</time></trkpt><trkpt lat="22.067877" lon="103.85762"><ele>571.9</ele><time>2011-04-25T10:52:10.0000000+00:00</time></trkpt><trkpt lat="22.067762" lon="103.857834"><ele>571.6</ele><time>2011-04-25T10:52:15.0000000+00:00</time></trkpt><trkpt lat="22.067646" lon="103.858055"><ele>571.6</ele><time>2011-04-25T10:52:20.0000000+00:00</time></trkpt><trkpt lat="22.067507" lon="103.858192"><ele>571.6</ele><time>2011-04-25T10:52:25.0000000+00:00</time></trkpt><trkpt lat="22.067366" lon="103.858261"><ele>571.9</ele><time>2011-04-25T10:52:30.0000000+00:00</time></trkpt><trkpt lat="22.067263" lon="103.858269"><ele>570.1</ele><time>2011-04-25T10:52:35.0000000+00:00</time></trkpt><trkpt lat="22.067158" lon="103.858299"><ele>569.2</ele><time>2011-04-25T10:52:40.0000000+00:00</time></trkpt><trkpt lat="22.067051" lon="103.858307"><ele>569.4</ele><time>2011-04-25T10:52:45.0000000+00:00</time></trkpt><trkpt lat="22.066975" lon="103.858376"><ele>569.3</ele><time>2011-04-25T10:52:50.0000000+00:00</time></trkpt><trkpt lat="22.066919" lon="103.858444"><ele>569.0</ele><time>2011-04-25T10:52:55.0000000+00:00</time></trkpt><trkpt lat="22.066889" lon="103.858536"><ele>569.5</ele><time>2011-04-25T10:53:00.0000000+00:00</time></trkpt><trkpt lat="22.066874" lon="103.85862"><ele>570.7</ele><time>2011-04-25T10:53:05.0000000+00:00</time></trkpt><trkpt lat="22.066854" lon="103.858665"><ele>571.7</ele><time>2011-04-25T10:53:10.0000000+00:00</time></trkpt><trkpt lat="22.066849" lon="103.858673"><ele>571.4</ele><time>2011-04-25T10:53:15.0000000+00:00</time></trkpt><trkpt lat="22.066847" lon="103.858665"><ele>571.5</ele><time>2011-04-25T10:53:20.0000000+00:00</time></trkpt><trkpt lat="22.066845" lon="103.858665"><ele>571.5</ele><time>2011-04-25T10:53:25.0000000+00:00</time></trkpt><trkpt lat="22.066845" lon="103.858665"><ele>571.5</ele><time>2011-04-25T10:53:30.0000000+00:00</time></trkpt><trkpt lat="22.066845" lon="103.858665"><ele>571.5</ele><time>2011-04-25T10:53:35.0000000+00:00</time></trkpt><trkpt lat="22.066849" lon="103.858673"><ele>571.4</ele><time>2011-04-25T10:53:40.0000000+00:00</time></trkpt><trkpt lat="22.066843" lon="103.858749"><ele>571.0</ele><time>2011-04-25T10:53:45.0000000+00:00</time></trkpt><trkpt lat="22.066837" lon="103.858856"><ele>570.5</ele><time>2011-04-25T10:53:50.0000000+00:00</time></trkpt><trkpt lat="22.066795" lon="103.85894"><ele>570.8</ele><time>2011-04-25T10:53:55.0000000+00:00</time></trkpt><trkpt lat="22.066751" lon="103.859024"><ele>570.9</ele><time>2011-04-25T10:54:00.0000000+00:00</time></trkpt><trkpt lat="22.066713" lon="103.859093"><ele>571.1</ele><time>2011-04-25T10:54:05.0000000+00:00</time></trkpt><trkpt lat="22.066635" lon="103.859154"><ele>572.0</ele><time>2011-04-25T10:54:10.0000000+00:00</time></trkpt><trkpt lat="22.066553" lon="103.8592"><ele>574.3</ele><time>2011-04-25T10:54:15.0000000+00:00</time></trkpt><trkpt lat="22.066505" lon="103.859245"><ele>574.5</ele><time>2011-04-25T10:54:20.0000000+00:00</time></trkpt><trkpt lat="22.066446" lon="103.859283"><ele>575.5</ele><time>2011-04-25T10:54:25.0000000+00:00</time></trkpt><trkpt lat="22.066395" lon="103.859314"><ele>576.3</ele><time>2011-04-25T10:54:30.0000000+00:00</time></trkpt><trkpt lat="22.066336" lon="103.859367"><ele>577.5</ele><time>2011-04-25T10:54:35.0000000+00:00</time></trkpt><trkpt lat="22.066282" lon="103.859436"><ele>578.0</ele><time>2011-04-25T10:54:40.0000000+00:00</time></trkpt><trkpt lat="22.066254" lon="103.859505"><ele>578.4</ele><time>2011-04-25T10:54:45.0000000+00:00</time></trkpt><trkpt lat="22.066242" lon="103.859589"><ele>578.9</ele><time>2011-04-25T10:54:50.0000000+00:00</time></trkpt><trkpt lat="22.066235" lon="103.859657"><ele>579.4</ele><time>2011-04-25T10:54:55.0000000+00:00</time></trkpt><trkpt lat="22.066235" lon="103.859734"><ele>580.1</ele><time>2011-04-25T10:55:00.0000000+00:00</time></trkpt><trkpt lat="22.066216" lon="103.85981"><ele>581.3</ele><time>2011-04-25T10:55:05.0000000+00:00</time></trkpt><trkpt lat="22.066181" lon="103.859901"><ele>582.4</ele><time>2011-04-25T10:55:10.0000000+00:00</time></trkpt><trkpt lat="22.066139" lon="103.859962"><ele>583.6</ele><time>2011-04-25T10:55:15.0000000+00:00</time></trkpt><trkpt lat="22.066071" lon="103.860001"><ele>585.4</ele><time>2011-04-25T10:55:20.0000000+00:00</time></trkpt><trkpt lat="22.06601" lon="103.860031"><ele>586.7</ele><time>2011-04-25T10:55:25.0000000+00:00</time></trkpt><trkpt lat="22.065952" lon="103.860062"><ele>587.7</ele><time>2011-04-25T10:55:30.0000000+00:00</time></trkpt><trkpt lat="22.065895" lon="103.8601"><ele>588.6</ele><time>2011-04-25T10:55:35.0000000+00:00</time></trkpt><trkpt lat="22.065838" lon="103.860138"><ele>589.6</ele><time>2011-04-25T10:55:40.0000000+00:00</time></trkpt><trkpt lat="22.065773" lon="103.860207"><ele>590.9</ele><time>2011-04-25T10:55:45.0000000+00:00</time></trkpt><trkpt lat="22.065729" lon="103.86026"><ele>591.8</ele><time>2011-04-25T10:55:50.0000000+00:00</time></trkpt><trkpt lat="22.065712" lon="103.860306"><ele>592.5</ele><time>2011-04-25T10:55:55.0000000+00:00</time></trkpt><trkpt lat="22.065687" lon="103.860352"><ele>593.2</ele><time>2011-04-25T10:56:00.0000000+00:00</time></trkpt><trkpt lat="22.065651" lon="103.860413"><ele>594.0</ele><time>2011-04-25T10:56:05.0000000+00:00</time></trkpt><trkpt lat="22.065622" lon="103.860481"><ele>594.4</ele><time>2011-04-25T10:56:10.0000000+00:00</time></trkpt><trkpt lat="22.065596" lon="103.860542"><ele>595.2</ele><time>2011-04-25T10:56:15.0000000+00:00</time></trkpt><trkpt lat="22.065565" lon="103.860611"><ele>595.9</ele><time>2011-04-25T10:56:20.0000000+00:00</time></trkpt><trkpt lat="22.065531" lon="103.86068"><ele>596.8</ele><time>2011-04-25T10:56:25.0000000+00:00</time></trkpt><trkpt lat="22.065493" lon="103.860733"><ele>598.1</ele><time>2011-04-25T10:56:30.0000000+00:00</time></trkpt><trkpt lat="22.065462" lon="103.860786"><ele>599.9</ele><time>2011-04-25T10:56:35.0000000+00:00</time></trkpt><trkpt lat="22.065443" lon="103.860847"><ele>601.0</ele><time>2011-04-25T10:56:40.0000000+00:00</time></trkpt><trkpt lat="22.065414" lon="103.860901"><ele>601.8</ele><time>2011-04-25T10:56:45.0000000+00:00</time></trkpt><trkpt lat="22.065378" lon="103.860954"><ele>602.7</ele><time>2011-04-25T10:56:50.0000000+00:00</time></trkpt><trkpt lat="22.065346" lon="103.861015"><ele>603.1</ele><time>2011-04-25T10:56:55.0000000+00:00</time></trkpt><trkpt lat="22.065323" lon="103.861076"><ele>603.5</ele><time>2011-04-25T10:57:00.0000000+00:00</time></trkpt><trkpt lat="22.065287" lon="103.861137"><ele>603.7</ele><time>2011-04-25T10:57:05.0000000+00:00</time></trkpt><trkpt lat="22.065245" lon="103.861214"><ele>604.1</ele><time>2011-04-25T10:57:10.0000000+00:00</time></trkpt><trkpt lat="22.065201" lon="103.861282"><ele>604.9</ele><time>2011-04-25T10:57:15.0000000+00:00</time></trkpt><trkpt lat="22.065165" lon="103.861351"><ele>605.8</ele><time>2011-04-25T10:57:20.0000000+00:00</time></trkpt><trkpt lat="22.065126" lon="103.86142"><ele>606.1</ele><time>2011-04-25T10:57:25.0000000+00:00</time></trkpt><trkpt lat="22.065079" lon="103.861496"><ele>606.6</ele><time>2011-04-25T10:57:30.0000000+00:00</time></trkpt><trkpt lat="22.065031" lon="103.861549"><ele>606.6</ele><time>2011-04-25T10:57:35.0000000+00:00</time></trkpt><trkpt lat="22.064999" lon="103.861618"><ele>605.1</ele><time>2011-04-25T10:57:40.0000000+00:00</time></trkpt><trkpt lat="22.06496" lon="103.861679"><ele>605.0</ele><time>2011-04-25T10:57:45.0000000+00:00</time></trkpt><trkpt lat="22.064928" lon="103.861748"><ele>604.9</ele><time>2011-04-25T10:57:50.0000000+00:00</time></trkpt><trkpt lat="22.064901" lon="103.861816"><ele>605.6</ele><time>2011-04-25T10:57:55.0000000+00:00</time></trkpt><trkpt lat="22.064856" lon="103.861877"><ele>604.7</ele><time>2011-04-25T10:58:00.0000000+00:00</time></trkpt><trkpt lat="22.064829" lon="103.861946"><ele>604.6</ele><time>2011-04-25T10:58:05.0000000+00:00</time></trkpt><trkpt lat="22.064785" lon="103.862007"><ele>606.4</ele><time>2011-04-25T10:58:10.0000000+00:00</time></trkpt><trkpt lat="22.064753" lon="103.862068"><ele>608.1</ele><time>2011-04-25T10:58:15.0000000+00:00</time></trkpt><trkpt lat="22.06473" lon="103.862137"><ele>608.6</ele><time>2011-04-25T10:58:20.0000000+00:00</time></trkpt><trkpt lat="22.064699" lon="103.862198"><ele>609.4</ele><time>2011-04-25T10:58:25.0000000+00:00</time></trkpt><trkpt lat="22.064682" lon="103.862259"><ele>609.6</ele><time>2011-04-25T10:58:30.0000000+00:00</time></trkpt><trkpt lat="22.064678" lon="103.862328"><ele>610.2</ele><time>2011-04-25T10:58:35.0000000+00:00</time></trkpt><trkpt lat="22.06468" lon="103.862381"><ele>610.5</ele><time>2011-04-25T10:58:40.0000000+00:00</time></trkpt><trkpt lat="22.064693" lon="103.862465"><ele>609.6</ele><time>2011-04-25T10:58:45.0000000+00:00</time></trkpt><trkpt lat="22.064705" lon="103.862534"><ele>609.7</ele><time>2011-04-25T10:58:50.0000000+00:00</time></trkpt><trkpt lat="22.064703" lon="103.862564"><ele>609.2</ele><time>2011-04-25T10:58:55.0000000+00:00</time></trkpt><trkpt lat="22.064713" lon="103.862556"><ele>609.3</ele><time>2011-04-25T10:59:00.0000000+00:00</time></trkpt><trkpt lat="22.064718" lon="103.862556"><ele>609.3</ele><time>2011-04-25T10:59:05.0000000+00:00</time></trkpt><trkpt lat="22.064726" lon="103.862556"><ele>609.4</ele><time>2011-04-25T10:59:10.0000000+00:00</time></trkpt><trkpt lat="22.064735" lon="103.862556"><ele>609.4</ele><time>2011-04-25T10:59:15.0000000+00:00</time></trkpt><trkpt lat="22.064791" lon="103.862556"><ele>609.5</ele><time>2011-04-25T10:59:20.0000000+00:00</time></trkpt><trkpt lat="22.064821" lon="103.862572"><ele>609.6</ele><time>2011-04-25T10:59:25.0000000+00:00</time></trkpt><trkpt lat="22.064833" lon="103.862579"><ele>609.6</ele><time>2011-04-25T10:59:30.0000000+00:00</time></trkpt><trkpt lat="22.064837" lon="103.862579"><ele>609.6</ele><time>2011-04-25T10:59:35.0000000+00:00</time></trkpt><trkpt lat="22.064829" lon="103.862617"><ele>609.2</ele><time>2011-04-25T10:59:40.0000000+00:00</time></trkpt><trkpt lat="22.064825" lon="103.862679"><ele>608.9</ele><time>2011-04-25T10:59:45.0000000+00:00</time></trkpt><trkpt lat="22.064844" lon="103.862762"><ele>608.6</ele><time>2011-04-25T10:59:50.0000000+00:00</time></trkpt><trkpt lat="22.064909" lon="103.862892"><ele>608.8</ele><time>2011-04-25T10:59:55.0000000+00:00</time></trkpt><trkpt lat="22.065067" lon="103.863052"><ele>607.0</ele><time>2011-04-25T11:00:00.0000000+00:00</time></trkpt><trkpt lat="22.065315" lon="103.863159"><ele>605.1</ele><time>2011-04-25T11:00:05.0000000+00:00</time></trkpt><trkpt lat="22.065611" lon="103.863251"><ele>602.4</ele><time>2011-04-25T11:00:10.0000000+00:00</time></trkpt><trkpt lat="22.065931" lon="103.863457"><ele>599.9</ele><time>2011-04-25T11:00:15.0000000+00:00</time></trkpt><trkpt lat="22.066212" lon="103.863777"><ele>598.6</ele><time>2011-04-25T11:00:20.0000000+00:00</time></trkpt><trkpt lat="22.066151" lon="103.864105"><ele>598.0</ele><time>2011-04-25T11:00:25.0000000+00:00</time></trkpt><trkpt lat="22.066101" lon="103.864388"><ele>597.0</ele><time>2011-04-25T11:00:30.0000000+00:00</time></trkpt><trkpt lat="22.06612" lon="103.864624"><ele>595.8</ele><time>2011-04-25T11:00:35.0000000+00:00</time></trkpt><trkpt lat="22.066191" lon="103.864815"><ele>595.1</ele><time>2011-04-25T11:00:40.0000000+00:00</time></trkpt><trkpt lat="22.066277" lon="103.864944"><ele>594.6</ele><time>2011-04-25T11:00:45.0000000+00:00</time></trkpt><trkpt lat="22.066315" lon="103.865166"><ele>594.1</ele><time>2011-04-25T11:00:50.0000000+00:00</time></trkpt><trkpt lat="22.066334" lon="103.865417"><ele>592.8</ele><time>2011-04-25T11:00:55.0000000+00:00</time></trkpt><trkpt lat="22.066395" lon="103.865768"><ele>592.9</ele><time>2011-04-25T11:01:00.0000000+00:00</time></trkpt><trkpt lat="22.066591" lon="103.86615"><ele>592.2</ele><time>2011-04-25T11:01:05.0000000+00:00</time></trkpt><trkpt lat="22.066753" lon="103.866608"><ele>592.1</ele><time>2011-04-25T11:01:10.0000000+00:00</time></trkpt><trkpt lat="22.066795" lon="103.867149"><ele>591.2</ele><time>2011-04-25T11:01:15.0000000+00:00</time></trkpt><trkpt lat="22.066679" lon="103.867714"><ele>589.3</ele><time>2011-04-25T11:01:20.0000000+00:00</time></trkpt><trkpt lat="22.066551" lon="103.868164"><ele>589.0</ele><time>2011-04-25T11:01:25.0000000+00:00</time></trkpt><trkpt lat="22.066475" lon="103.868431"><ele>590.1</ele><time>2011-04-25T11:01:30.0000000+00:00</time></trkpt><trkpt lat="22.066444" lon="103.86853"><ele>591.9</ele><time>2011-04-25T11:01:35.0000000+00:00</time></trkpt><trkpt lat="22.066423" lon="103.868591"><ele>592.4</ele><time>2011-04-25T11:01:40.0000000+00:00</time></trkpt><trkpt lat="22.066429" lon="103.868584"><ele>595.0</ele><time>2011-04-25T11:01:45.0000000+00:00</time></trkpt><trkpt lat="22.066427" lon="103.868591"><ele>595.0</ele><time>2011-04-25T11:01:50.0000000+00:00</time></trkpt><trkpt lat="22.06642" lon="103.868645"><ele>595.3</ele><time>2011-04-25T11:01:55.0000000+00:00</time></trkpt><trkpt lat="22.066393" lon="103.868774"><ele>596.9</ele><time>2011-04-25T11:02:00.0000000+00:00</time></trkpt><trkpt lat="22.066359" lon="103.868904"><ele>597.5</ele><time>2011-04-25T11:02:05.0000000+00:00</time></trkpt><trkpt lat="22.066319" lon="103.869034"><ele>598.3</ele><time>2011-04-25T11:02:10.0000000+00:00</time></trkpt><trkpt lat="22.066256" lon="103.869179"><ele>601.2</ele><time>2011-04-25T11:02:15.0000000+00:00</time></trkpt><trkpt lat="22.066175" lon="103.869339"><ele>604.4</ele><time>2011-04-25T11:02:20.0000000+00:00</time></trkpt><trkpt lat="22.066084" lon="103.869476"><ele>609.1</ele><time>2011-04-25T11:02:25.0000000+00:00</time></trkpt><trkpt lat="22.065981" lon="103.869637"><ele>613.5</ele><time>2011-04-25T11:02:30.0000000+00:00</time></trkpt><trkpt lat="22.065868" lon="103.869789"><ele>614.7</ele><time>2011-04-25T11:02:35.0000000+00:00</time></trkpt><trkpt lat="22.065754" lon="103.869957"><ele>615.9</ele><time>2011-04-25T11:02:40.0000000+00:00</time></trkpt><trkpt lat="22.065622" lon="103.870148"><ele>617.5</ele><time>2011-04-25T11:02:45.0000000+00:00</time></trkpt><trkpt lat="22.065521" lon="103.870346"><ele>616.8</ele><time>2011-04-25T11:02:50.0000000+00:00</time></trkpt><trkpt lat="22.065367" lon="103.870522"><ele>616.8</ele><time>2011-04-25T11:02:55.0000000+00:00</time></trkpt><trkpt lat="22.065184" lon="103.870659"><ele>617.1</ele><time>2011-04-25T11:03:00.0000000+00:00</time></trkpt><trkpt lat="22.065025" lon="103.870811"><ele>618.0</ele><time>2011-04-25T11:03:05.0000000+00:00</time></trkpt><trkpt lat="22.064939" lon="103.870987"><ele>618.9</ele><time>2011-04-25T11:03:10.0000000+00:00</time></trkpt><trkpt lat="22.064899" lon="103.871155"><ele>616.4</ele><time>2011-04-25T11:03:15.0000000+00:00</time></trkpt><trkpt lat="22.064905" lon="103.8713"><ele>612.5</ele><time>2011-04-25T11:03:20.0000000+00:00</time></trkpt><trkpt lat="22.06492" lon="103.871407"><ele>611.4</ele><time>2011-04-25T11:03:25.0000000+00:00</time></trkpt><trkpt lat="22.064953" lon="103.871513"><ele>607.9</ele><time>2011-04-25T11:03:30.0000000+00:00</time></trkpt><trkpt lat="22.064972" lon="103.871582"><ele>605.7</ele><time>2011-04-25T11:03:35.0000000+00:00</time></trkpt><trkpt lat="22.064966" lon="103.871597"><ele>604.8</ele><time>2011-04-25T11:03:40.0000000+00:00</time></trkpt><trkpt lat="22.064962" lon="103.871605"><ele>604.7</ele><time>2011-04-25T11:03:45.0000000+00:00</time></trkpt><trkpt lat="22.064959" lon="103.871605"><ele>604.7</ele><time>2011-04-25T11:03:50.0000000+00:00</time></trkpt><trkpt lat="22.064955" lon="103.871605"><ele>604.7</ele><time>2011-04-25T11:03:55.0000000+00:00</time></trkpt><trkpt lat="22.064957" lon="103.871605"><ele>604.7</ele><time>2011-04-25T11:04:00.0000000+00:00</time></trkpt><trkpt lat="22.064978" lon="103.871666"><ele>604.7</ele><time>2011-04-25T11:04:05.0000000+00:00</time></trkpt><trkpt lat="22.065016" lon="103.871773"><ele>604.9</ele><time>2011-04-25T11:04:10.0000000+00:00</time></trkpt><trkpt lat="22.065039" lon="103.87191"><ele>604.5</ele><time>2011-04-25T11:04:15.0000000+00:00</time></trkpt><trkpt lat="22.065067" lon="103.872055"><ele>603.5</ele><time>2011-04-25T11:04:20.0000000+00:00</time></trkpt><trkpt lat="22.065086" lon="103.872162"><ele>603.2</ele><time>2011-04-25T11:04:25.0000000+00:00</time></trkpt><trkpt lat="22.065104" lon="103.872246"><ele>602.0</ele><time>2011-04-25T11:04:30.0000000+00:00</time></trkpt><trkpt lat="22.065121" lon="103.872269"><ele>601.3</ele><time>2011-04-25T11:04:35.0000000+00:00</time></trkpt><trkpt lat="22.065121" lon="103.872284"><ele>601.4</ele><time>2011-04-25T11:04:40.0000000+00:00</time></trkpt><trkpt lat="22.065121" lon="103.872284"><ele>601.4</ele><time>2011-04-25T11:04:45.0000000+00:00</time></trkpt><trkpt lat="22.065123" lon="103.872284"><ele>601.4</ele><time>2011-04-25T11:04:50.0000000+00:00</time></trkpt><trkpt lat="22.065128" lon="103.872284"><ele>601.4</ele><time>2011-04-25T11:04:55.0000000+00:00</time></trkpt><trkpt lat="22.065153" lon="103.872353"><ele>600.6</ele><time>2011-04-25T11:05:00.0000000+00:00</time></trkpt><trkpt lat="22.065166" lon="103.87249"><ele>601.8</ele><time>2011-04-25T11:05:05.0000000+00:00</time></trkpt><trkpt lat="22.065165" lon="103.872597"><ele>601.6</ele><time>2011-04-25T11:05:10.0000000+00:00</time></trkpt><trkpt lat="22.065161" lon="103.87262"><ele>601.6</ele><time>2011-04-25T11:05:15.0000000+00:00</time></trkpt><trkpt lat="22.065165" lon="103.872612"><ele>601.6</ele><time>2011-04-25T11:05:20.0000000+00:00</time></trkpt><trkpt lat="22.065166" lon="103.872612"><ele>601.8</ele><time>2011-04-25T11:05:25.0000000+00:00</time></trkpt><trkpt lat="22.065166" lon="103.87262"><ele>601.8</ele><time>2011-04-25T11:05:30.0000000+00:00</time></trkpt><trkpt lat="22.065166" lon="103.872612"><ele>601.8</ele><time>2011-04-25T11:05:35.0000000+00:00</time></trkpt><trkpt lat="22.065166" lon="103.872612"><ele>601.8</ele><time>2011-04-25T11:05:40.0000000+00:00</time></trkpt><trkpt lat="22.065166" lon="103.872612"><ele>601.8</ele><time>2011-04-25T11:05:45.0000000+00:00</time></trkpt><trkpt lat="22.065166" lon="103.872612"><ele>601.8</ele><time>2011-04-25T11:05:50.0000000+00:00</time></trkpt><trkpt lat="22.065166" lon="103.872612"><ele>601.8</ele><time>2011-04-25T11:05:55.0000000+00:00</time></trkpt><trkpt lat="22.065166" lon="103.872612"><ele>601.8</ele><time>2011-04-25T11:06:00.0000000+00:00</time></trkpt><trkpt lat="22.065166" lon="103.872612"><ele>601.8</ele><time>2011-04-25T11:06:05.0000000+00:00</time></trkpt><trkpt lat="22.065166" lon="103.872612"><ele>601.7</ele><time>2011-04-25T11:06:10.0000000+00:00</time></trkpt><trkpt lat="22.065166" lon="103.872612"><ele>601.7</ele><time>2011-04-25T11:06:15.0000000+00:00</time></trkpt><trkpt lat="22.065166" lon="103.87262"><ele>601.7</ele><time>2011-04-25T11:06:20.0000000+00:00</time></trkpt><trkpt lat="22.065166" lon="103.87262"><ele>601.7</ele><time>2011-04-25T11:06:25.0000000+00:00</time></trkpt><trkpt lat="22.065166" lon="103.87262"><ele>601.7</ele><time>2011-04-25T11:06:30.0000000+00:00</time></trkpt><trkpt lat="22.065166" lon="103.87262"><ele>601.7</ele><time>2011-04-25T11:06:35.0000000+00:00</time></trkpt><trkpt lat="22.065166" lon="103.87262"><ele>601.7</ele><time>2011-04-25T11:06:40.0000000+00:00</time></trkpt><trkpt lat="22.065166" lon="103.87262"><ele>601.7</ele><time>2011-04-25T11:06:45.0000000+00:00</time></trkpt><trkpt lat="22.065168" lon="103.872612"><ele>601.7</ele><time>2011-04-25T11:06:50.0000000+00:00</time></trkpt><trkpt lat="22.065168" lon="103.872612"><ele>601.7</ele><time>2011-04-25T11:06:55.0000000+00:00</time></trkpt><trkpt lat="22.065168" lon="103.872612"><ele>601.8</ele><time>2011-04-25T11:07:00.0000000+00:00</time></trkpt><trkpt lat="22.065168" lon="103.872612"><ele>601.8</ele><time>2011-04-25T11:07:05.0000000+00:00</time></trkpt><trkpt lat="22.065168" lon="103.87262"><ele>601.8</ele><time>2011-04-25T11:07:10.0000000+00:00</time></trkpt><trkpt lat="22.065168" lon="103.87262"><ele>601.8</ele><time>2011-04-25T11:07:15.0000000+00:00</time></trkpt><trkpt lat="22.065168" lon="103.87262"><ele>601.8</ele><time>2011-04-25T11:07:20.0000000+00:00</time></trkpt><trkpt lat="22.065168" lon="103.87262"><ele>601.8</ele><time>2011-04-25T11:07:25.0000000+00:00</time></trkpt><trkpt lat="22.065168" lon="103.87262"><ele>601.8</ele><time>2011-04-25T11:07:30.0000000+00:00</time></trkpt><trkpt lat="22.065168" lon="103.87262"><ele>601.8</ele><time>2011-04-25T11:07:35.0000000+00:00</time></trkpt><trkpt lat="22.065168" lon="103.87262"><ele>601.9</ele><time>2011-04-25T11:07:40.0000000+00:00</time></trkpt><trkpt lat="22.065168" lon="103.87262"><ele>601.9</ele><time>2011-04-25T11:07:45.0000000+00:00</time></trkpt><trkpt lat="22.065168" lon="103.87262"><ele>601.9</ele><time>2011-04-25T11:07:50.0000000+00:00</time></trkpt><trkpt lat="22.065168" lon="103.87262"><ele>601.9</ele><time>2011-04-25T11:07:55.0000000+00:00</time></trkpt><trkpt lat="22.065168" lon="103.87262"><ele>601.9</ele><time>2011-04-25T11:08:00.0000000+00:00</time></trkpt><trkpt lat="22.065168" lon="103.87262"><ele>601.9</ele><time>2011-04-25T11:08:05.0000000+00:00</time></trkpt><trkpt lat="22.065168" lon="103.87262"><ele>601.9</ele><time>2011-04-25T11:08:10.0000000+00:00</time></trkpt><trkpt lat="22.065168" lon="103.87262"><ele>601.9</ele><time>2011-04-25T11:08:15.0000000+00:00</time></trkpt><trkpt lat="22.065168" lon="103.87262"><ele>601.8</ele><time>2011-04-25T11:08:20.0000000+00:00</time></trkpt><trkpt lat="22.065168" lon="103.87262"><ele>601.8</ele><time>2011-04-25T11:08:25.0000000+00:00</time></trkpt><trkpt lat="22.065168" lon="103.87262"><ele>601.8</ele><time>2011-04-25T11:08:30.0000000+00:00</time></trkpt><trkpt lat="22.065168" lon="103.87262"><ele>601.8</ele><time>2011-04-25T11:08:35.0000000+00:00</time></trkpt><trkpt lat="22.065168" lon="103.87262"><ele>601.9</ele><time>2011-04-25T11:08:40.0000000+00:00</time></trkpt><trkpt lat="22.065166" lon="103.87262"><ele>601.9</ele><time>2011-04-25T11:08:45.0000000+00:00</time></trkpt><trkpt lat="22.065166" lon="103.87262"><ele>601.9</ele><time>2011-04-25T11:08:50.0000000+00:00</time></trkpt><trkpt lat="22.065166" lon="103.87262"><ele>601.9</ele><time>2011-04-25T11:08:55.0000000+00:00</time></trkpt><trkpt lat="22.065166" lon="103.87262"><ele>601.9</ele><time>2011-04-25T11:09:00.0000000+00:00</time></trkpt><trkpt lat="22.065166" lon="103.87262"><ele>601.8</ele><time>2011-04-25T11:09:05.0000000+00:00</time></trkpt><trkpt lat="22.065166" lon="103.87262"><ele>601.8</ele><time>2011-04-25T11:09:10.0000000+00:00</time></trkpt><trkpt lat="22.065168" lon="103.87262"><ele>601.9</ele><time>2011-04-25T11:09:15.0000000+00:00</time></trkpt><trkpt lat="22.065168" lon="103.87262"><ele>601.9</ele><time>2011-04-25T11:09:20.0000000+00:00</time></trkpt><trkpt lat="22.065166" lon="103.87262"><ele>601.8</ele><time>2011-04-25T11:09:25.0000000+00:00</time></trkpt><trkpt lat="22.065166" lon="103.87262"><ele>601.8</ele><time>2011-04-25T11:09:30.0000000+00:00</time></trkpt><trkpt lat="22.065168" lon="103.87262"><ele>601.8</ele><time>2011-04-25T11:09:35.0000000+00:00</time></trkpt><trkpt lat="22.065168" lon="103.87262"><ele>601.8</ele><time>2011-04-25T11:09:40.0000000+00:00</time></trkpt><trkpt lat="22.065168" lon="103.87262"><ele>601.8</ele><time>2011-04-25T11:09:45.0000000+00:00</time></trkpt><trkpt lat="22.065168" lon="103.87262"><ele>601.8</ele><time>2011-04-25T11:09:50.0000000+00:00</time></trkpt><trkpt lat="22.065168" lon="103.87262"><ele>601.8</ele><time>2011-04-25T11:09:55.0000000+00:00</time></trkpt><trkpt lat="22.065168" lon="103.87262"><ele>601.8</ele><time>2011-04-25T11:10:00.0000000+00:00</time></trkpt><trkpt lat="22.065168" lon="103.87262"><ele>601.8</ele><time>2011-04-25T11:10:05.0000000+00:00</time></trkpt><trkpt lat="22.065168" lon="103.87262"><ele>601.8</ele><time>2011-04-25T11:10:10.0000000+00:00</time></trkpt><trkpt lat="22.065168" lon="103.87262"><ele>601.8</ele><time>2011-04-25T11:10:15.0000000+00:00</time></trkpt><trkpt lat="22.065168" lon="103.87262"><ele>601.8</ele><time>2011-04-25T11:10:20.0000000+00:00</time></trkpt><trkpt lat="22.065168" lon="103.87262"><ele>601.8</ele><time>2011-04-25T11:10:25.0000000+00:00</time></trkpt><trkpt lat="22.065168" lon="103.87262"><ele>601.7</ele><time>2011-04-25T11:10:30.0000000+00:00</time></trkpt><trkpt lat="22.065168" lon="103.87262"><ele>601.8</ele><time>2011-04-25T11:10:35.0000000+00:00</time></trkpt><trkpt lat="22.065168" lon="103.87262"><ele>601.8</ele><time>2011-04-25T11:10:40.0000000+00:00</time></trkpt><trkpt lat="22.065168" lon="103.87262"><ele>601.7</ele><time>2011-04-25T11:10:45.0000000+00:00</time></trkpt><trkpt lat="22.065168" lon="103.87262"><ele>601.6</ele><time>2011-04-25T11:10:50.0000000+00:00</time></trkpt><trkpt lat="22.065168" lon="103.87262"><ele>601.6</ele><time>2011-04-25T11:10:55.0000000+00:00</time></trkpt><trkpt lat="22.065168" lon="103.87262"><ele>601.6</ele><time>2011-04-25T11:11:00.0000000+00:00</time></trkpt><trkpt lat="22.065168" lon="103.87262"><ele>601.6</ele><time>2011-04-25T11:11:05.0000000+00:00</time></trkpt><trkpt lat="22.065168" lon="103.87262"><ele>601.6</ele><time>2011-04-25T11:11:10.0000000+00:00</time></trkpt><trkpt lat="22.065168" lon="103.87262"><ele>601.6</ele><time>2011-04-25T11:11:15.0000000+00:00</time></trkpt><trkpt lat="22.065168" lon="103.87262"><ele>601.6</ele><time>2011-04-25T11:11:20.0000000+00:00</time></trkpt><trkpt lat="22.065184" lon="103.872581"><ele>602.1</ele><time>2011-04-25T11:11:25.0000000+00:00</time></trkpt><trkpt lat="22.065184" lon="103.872459"><ele>602.2</ele><time>2011-04-25T11:11:30.0000000+00:00</time></trkpt><trkpt lat="22.065149" lon="103.872253"><ele>601.1</ele><time>2011-04-25T11:11:35.0000000+00:00</time></trkpt><trkpt lat="22.065107" lon="103.872078"><ele>598.6</ele><time>2011-04-25T11:11:40.0000000+00:00</time></trkpt><trkpt lat="22.065071" lon="103.871933"><ele>598.5</ele><time>2011-04-25T11:11:45.0000000+00:00</time></trkpt><trkpt lat="22.065081" lon="103.871857"><ele>597.7</ele><time>2011-04-25T11:11:50.0000000+00:00</time></trkpt><trkpt lat="22.065107" lon="103.871841"><ele>597.2</ele><time>2011-04-25T11:11:55.0000000+00:00</time></trkpt><trkpt lat="22.065134" lon="103.871841"><ele>597.0</ele><time>2011-04-25T11:12:00.0000000+00:00</time></trkpt><trkpt lat="22.065151" lon="103.871834"><ele>596.8</ele><time>2011-04-25T11:12:05.0000000+00:00</time></trkpt><trkpt lat="22.065191" lon="103.871834"><ele>596.5</ele><time>2011-04-25T11:12:10.0000000+00:00</time></trkpt><trkpt lat="22.065241" lon="103.87188"><ele>596.3</ele><time>2011-04-25T11:12:15.0000000+00:00</time></trkpt><trkpt lat="22.065319" lon="103.871872"><ele>596.1</ele><time>2011-04-25T11:12:20.0000000+00:00</time></trkpt><trkpt lat="22.065367" lon="103.871872"><ele>595.9</ele><time>2011-04-25T11:12:25.0000000+00:00</time></trkpt><trkpt lat="22.065378" lon="103.871872"><ele>597.2</ele><time>2011-04-25T11:12:30.0000000+00:00</time></trkpt><trkpt lat="22.06538" lon="103.87188"><ele>597.6</ele><time>2011-04-25T11:12:35.0000000+00:00</time></trkpt><trkpt lat="22.06538" lon="103.87188"><ele>597.7</ele><time>2011-04-25T11:12:40.0000000+00:00</time></trkpt><trkpt lat="22.065378" lon="103.87188"><ele>597.7</ele><time>2011-04-25T11:12:45.0000000+00:00</time></trkpt><trkpt lat="22.065397" lon="103.87188"><ele>598.1</ele><time>2011-04-25T11:12:50.0000000+00:00</time></trkpt><trkpt lat="22.065426" lon="103.871872"><ele>597.7</ele><time>2011-04-25T11:12:55.0000000+00:00</time></trkpt><trkpt lat="22.065443" lon="103.87188"><ele>597.9</ele><time>2011-04-25T11:13:00.0000000+00:00</time></trkpt><trkpt lat="22.065445" lon="103.871887"><ele>598.7</ele><time>2011-04-25T11:13:05.0000000+00:00</time></trkpt><trkpt lat="22.065441" lon="103.871887"><ele>599.0</ele><time>2011-04-25T11:13:10.0000000+00:00</time></trkpt><trkpt lat="22.065443" lon="103.87188"><ele>599.3</ele><time>2011-04-25T11:13:15.0000000+00:00</time></trkpt><trkpt lat="22.065468" lon="103.871864"><ele>599.2</ele><time>2011-04-25T11:13:20.0000000+00:00</time></trkpt><trkpt lat="22.065474" lon="103.871864"><ele>599.1</ele><time>2011-04-25T11:13:25.0000000+00:00</time></trkpt><trkpt lat="22.065487" lon="103.871902"><ele>599.0</ele><time>2011-04-25T11:13:30.0000000+00:00</time></trkpt><trkpt lat="22.065495" lon="103.871948"><ele>599.2</ele><time>2011-04-25T11:13:35.0000000+00:00</time></trkpt><trkpt lat="22.065487" lon="103.871971"><ele>599.2</ele><time>2011-04-25T11:13:40.0000000+00:00</time></trkpt><trkpt lat="22.065487" lon="103.871986"><ele>599.3</ele><time>2011-04-25T11:13:45.0000000+00:00</time></trkpt><trkpt lat="22.065508" lon="103.872025"><ele>599.0</ele><time>2011-04-25T11:13:50.0000000+00:00</time></trkpt><trkpt lat="22.065552" lon="103.872055"><ele>598.8</ele><time>2011-04-25T11:13:55.0000000+00:00</time></trkpt><trkpt lat="22.065577" lon="103.872101"><ele>598.9</ele><time>2011-04-25T11:14:00.0000000+00:00</time></trkpt><trkpt lat="22.065599" lon="103.872154"><ele>598.8</ele><time>2011-04-25T11:14:05.0000000+00:00</time></trkpt><trkpt lat="22.065605" lon="103.872192"><ele>598.7</ele><time>2011-04-25T11:14:10.0000000+00:00</time></trkpt><trkpt lat="22.065617" lon="103.8722"><ele>597.8</ele><time>2011-04-25T11:14:15.0000000+00:00</time></trkpt><trkpt lat="22.06562" lon="103.872223"><ele>597.4</ele><time>2011-04-25T11:14:20.0000000+00:00</time></trkpt><trkpt lat="22.065626" lon="103.872238"><ele>598.4</ele><time>2011-04-25T11:14:25.0000000+00:00</time></trkpt><trkpt lat="22.06563" lon="103.872238"><ele>598.9</ele><time>2011-04-25T11:14:30.0000000+00:00</time></trkpt><trkpt lat="22.065651" lon="103.872246"><ele>599.5</ele><time>2011-04-25T11:14:35.0000000+00:00</time></trkpt><trkpt lat="22.065662" lon="103.872269"><ele>600.0</ele><time>2011-04-25T11:14:40.0000000+00:00</time></trkpt><trkpt lat="22.065668" lon="103.872269"><ele>600.4</ele><time>2011-04-25T11:14:45.0000000+00:00</time></trkpt><trkpt lat="22.065697" lon="103.872292"><ele>600.6</ele><time>2011-04-25T11:14:50.0000000+00:00</time></trkpt><trkpt lat="22.065733" lon="103.872314"><ele>600.9</ele><time>2011-04-25T11:14:55.0000000+00:00</time></trkpt><trkpt lat="22.065741" lon="103.872345"><ele>601.2</ele><time>2011-04-25T11:15:00.0000000+00:00</time></trkpt><trkpt lat="22.065756" lon="103.872391"><ele>601.6</ele><time>2011-04-25T11:15:05.0000000+00:00</time></trkpt><trkpt lat="22.065779" lon="103.872421"><ele>601.8</ele><time>2011-04-25T11:15:10.0000000+00:00</time></trkpt><trkpt lat="22.065788" lon="103.872475"><ele>602.0</ele><time>2011-04-25T11:15:15.0000000+00:00</time></trkpt><trkpt lat="22.06579" lon="103.872536"><ele>602.4</ele><time>2011-04-25T11:15:20.0000000+00:00</time></trkpt><trkpt lat="22.065794" lon="103.872581"><ele>603.1</ele><time>2011-04-25T11:15:25.0000000+00:00</time></trkpt><trkpt lat="22.065804" lon="103.872635"><ele>603.9</ele><time>2011-04-25T11:15:30.0000000+00:00</time></trkpt><trkpt lat="22.065804" lon="103.872681"><ele>604.4</ele><time>2011-04-25T11:15:35.0000000+00:00</time></trkpt><trkpt lat="22.065796" lon="103.872719"><ele>605.0</ele><time>2011-04-25T11:15:40.0000000+00:00</time></trkpt><trkpt lat="22.065794" lon="103.872726"><ele>605.4</ele><time>2011-04-25T11:15:45.0000000+00:00</time></trkpt><trkpt lat="22.06579" lon="103.872726"><ele>605.9</ele><time>2011-04-25T11:15:50.0000000+00:00</time></trkpt></trkseg><trkseg><trkpt lat="22.065081" lon="103.872223"><ele>598.4</ele><time>2011-04-26T01:27:05.0000000+00:00</time></trkpt><trkpt lat="22.065107" lon="103.872231"><ele>596.6</ele><time>2011-04-26T01:27:10.0000000+00:00</time></trkpt><trkpt lat="22.065117" lon="103.872231"><ele>597.0</ele><time>2011-04-26T01:27:15.0000000+00:00</time></trkpt><trkpt lat="22.065111" lon="103.872215"><ele>598.7</ele><time>2011-04-26T01:27:20.0000000+00:00</time></trkpt><trkpt lat="22.06509" lon="103.872192"><ele>600.1</ele><time>2011-04-26T01:27:25.0000000+00:00</time></trkpt><trkpt lat="22.065088" lon="103.872192"><ele>599.3</ele><time>2011-04-26T01:27:30.0000000+00:00</time></trkpt><trkpt lat="22.065083" lon="103.872185"><ele>598.3</ele><time>2011-04-26T01:27:35.0000000+00:00</time></trkpt><trkpt lat="22.065084" lon="103.872185"><ele>597.1</ele><time>2011-04-26T01:27:40.0000000+00:00</time></trkpt><trkpt lat="22.065084" lon="103.872185"><ele>596.9</ele><time>2011-04-26T01:27:45.0000000+00:00</time></trkpt><trkpt lat="22.065084" lon="103.872185"><ele>597.0</ele><time>2011-04-26T01:27:50.0000000+00:00</time></trkpt><trkpt lat="22.065084" lon="103.872185"><ele>596.9</ele><time>2011-04-26T01:27:55.0000000+00:00</time></trkpt><trkpt lat="22.065084" lon="103.872185"><ele>596.9</ele><time>2011-04-26T01:28:00.0000000+00:00</time></trkpt><trkpt lat="22.065084" lon="103.872185"><ele>596.9</ele><time>2011-04-26T01:28:05.0000000+00:00</time></trkpt><trkpt lat="22.065084" lon="103.872185"><ele>596.9</ele><time>2011-04-26T01:28:10.0000000+00:00</time></trkpt><trkpt lat="22.065084" lon="103.872185"><ele>596.9</ele><time>2011-04-26T01:28:15.0000000+00:00</time></trkpt><trkpt lat="22.065084" lon="103.872185"><ele>596.9</ele><time>2011-04-26T01:28:20.0000000+00:00</time></trkpt><trkpt lat="22.065084" lon="103.872185"><ele>596.9</ele><time>2011-04-26T01:28:25.0000000+00:00</time></trkpt><trkpt lat="22.065083" lon="103.872185"><ele>596.9</ele><time>2011-04-26T01:28:30.0000000+00:00</time></trkpt><trkpt lat="22.065083" lon="103.872185"><ele>596.9</ele><time>2011-04-26T01:28:35.0000000+00:00</time></trkpt><trkpt lat="22.065083" lon="103.872185"><ele>596.9</ele><time>2011-04-26T01:28:40.0000000+00:00</time></trkpt><trkpt lat="22.065083" lon="103.872185"><ele>596.9</ele><time>2011-04-26T01:28:45.0000000+00:00</time></trkpt><trkpt lat="22.065083" lon="103.872185"><ele>596.9</ele><time>2011-04-26T01:28:50.0000000+00:00</time></trkpt><trkpt lat="22.065083" lon="103.872185"><ele>596.9</ele><time>2011-04-26T01:28:55.0000000+00:00</time></trkpt><trkpt lat="22.065083" lon="103.872185"><ele>596.9</ele><time>2011-04-26T01:29:00.0000000+00:00</time></trkpt><trkpt lat="22.065083" lon="103.872185"><ele>596.9</ele><time>2011-04-26T01:29:05.0000000+00:00</time></trkpt><trkpt lat="22.065083" lon="103.872185"><ele>596.8</ele><time>2011-04-26T01:29:10.0000000+00:00</time></trkpt><trkpt lat="22.065083" lon="103.872185"><ele>596.8</ele><time>2011-04-26T01:29:15.0000000+00:00</time></trkpt><trkpt lat="22.065083" lon="103.872185"><ele>596.8</ele><time>2011-04-26T01:29:20.0000000+00:00</time></trkpt><trkpt lat="22.065083" lon="103.872185"><ele>596.8</ele><time>2011-04-26T01:29:25.0000000+00:00</time></trkpt><trkpt lat="22.065083" lon="103.872185"><ele>596.8</ele><time>2011-04-26T01:29:30.0000000+00:00</time></trkpt><trkpt lat="22.065083" lon="103.872185"><ele>596.8</ele><time>2011-04-26T01:29:35.0000000+00:00</time></trkpt><trkpt lat="22.065083" lon="103.872185"><ele>596.8</ele><time>2011-04-26T01:29:40.0000000+00:00</time></trkpt><trkpt lat="22.065083" lon="103.872185"><ele>596.8</ele><time>2011-04-26T01:29:45.0000000+00:00</time></trkpt><trkpt lat="22.065083" lon="103.872185"><ele>596.8</ele><time>2011-04-26T01:29:50.0000000+00:00</time></trkpt><trkpt lat="22.065083" lon="103.872185"><ele>596.7</ele><time>2011-04-26T01:29:55.0000000+00:00</time></trkpt><trkpt lat="22.065083" lon="103.872185"><ele>596.7</ele><time>2011-04-26T01:30:00.0000000+00:00</time></trkpt><trkpt lat="22.065083" lon="103.872185"><ele>596.7</ele><time>2011-04-26T01:30:05.0000000+00:00</time></trkpt><trkpt lat="22.065083" lon="103.872185"><ele>596.7</ele><time>2011-04-26T01:30:10.0000000+00:00</time></trkpt><trkpt lat="22.065073" lon="103.872185"><ele>596.6</ele><time>2011-04-26T01:30:15.0000000+00:00</time></trkpt><trkpt lat="22.06506" lon="103.872177"><ele>596.7</ele><time>2011-04-26T01:30:20.0000000+00:00</time></trkpt><trkpt lat="22.06506" lon="103.872169"><ele>596.4</ele><time>2011-04-26T01:30:25.0000000+00:00</time></trkpt><trkpt lat="22.065052" lon="103.872162"><ele>596.9</ele><time>2011-04-26T01:30:30.0000000+00:00</time></trkpt><trkpt lat="22.065048" lon="103.872162"><ele>596.7</ele><time>2011-04-26T01:30:35.0000000+00:00</time></trkpt><trkpt lat="22.065048" lon="103.872154"><ele>596.2</ele><time>2011-04-26T01:30:40.0000000+00:00</time></trkpt><trkpt lat="22.065044" lon="103.872154"><ele>596.1</ele><time>2011-04-26T01:30:45.0000000+00:00</time></trkpt><trkpt lat="22.065039" lon="103.872147"><ele>596.2</ele><time>2011-04-26T01:30:50.0000000+00:00</time></trkpt><trkpt lat="22.065039" lon="103.872154"><ele>596.0</ele><time>2011-04-26T01:30:55.0000000+00:00</time></trkpt><trkpt lat="22.065039" lon="103.872154"><ele>596.0</ele><time>2011-04-26T01:31:00.0000000+00:00</time></trkpt><trkpt lat="22.065039" lon="103.872154"><ele>595.9</ele><time>2011-04-26T01:31:05.0000000+00:00</time></trkpt><trkpt lat="22.065039" lon="103.872154"><ele>595.9</ele><time>2011-04-26T01:31:10.0000000+00:00</time></trkpt><trkpt lat="22.065039" lon="103.872154"><ele>595.9</ele><time>2011-04-26T01:31:15.0000000+00:00</time></trkpt><trkpt lat="22.065039" lon="103.872154"><ele>595.9</ele><time>2011-04-26T01:31:20.0000000+00:00</time></trkpt><trkpt lat="22.065039" lon="103.872154"><ele>595.9</ele><time>2011-04-26T01:31:25.0000000+00:00</time></trkpt><trkpt lat="22.065039" lon="103.872154"><ele>595.9</ele><time>2011-04-26T01:31:30.0000000+00:00</time></trkpt><trkpt lat="22.065039" lon="103.872154"><ele>595.9</ele><time>2011-04-26T01:31:35.0000000+00:00</time></trkpt><trkpt lat="22.065039" lon="103.872154"><ele>595.9</ele><time>2011-04-26T01:31:40.0000000+00:00</time></trkpt><trkpt lat="22.065039" lon="103.872154"><ele>595.8</ele><time>2011-04-26T01:31:45.0000000+00:00</time></trkpt><trkpt lat="22.065039" lon="103.872154"><ele>595.8</ele><time>2011-04-26T01:31:50.0000000+00:00</time></trkpt><trkpt lat="22.065039" lon="103.872154"><ele>595.8</ele><time>2011-04-26T01:31:55.0000000+00:00</time></trkpt><trkpt lat="22.065039" lon="103.872154"><ele>595.8</ele><time>2011-04-26T01:32:00.0000000+00:00</time></trkpt><trkpt lat="22.065039" lon="103.872154"><ele>595.8</ele><time>2011-04-26T01:32:05.0000000+00:00</time></trkpt><trkpt lat="22.065039" lon="103.872154"><ele>595.8</ele><time>2011-04-26T01:32:10.0000000+00:00</time></trkpt><trkpt lat="22.065037" lon="103.872154"><ele>595.8</ele><time>2011-04-26T01:32:15.0000000+00:00</time></trkpt><trkpt lat="22.065037" lon="103.872154"><ele>595.8</ele><time>2011-04-26T01:32:20.0000000+00:00</time></trkpt><trkpt lat="22.065037" lon="103.872154"><ele>595.8</ele><time>2011-04-26T01:32:25.0000000+00:00</time></trkpt><trkpt lat="22.065037" lon="103.872154"><ele>595.7</ele><time>2011-04-26T01:32:30.0000000+00:00</time></trkpt><trkpt lat="22.065037" lon="103.872154"><ele>595.8</ele><time>2011-04-26T01:32:35.0000000+00:00</time></trkpt><trkpt lat="22.065037" lon="103.872154"><ele>595.7</ele><time>2011-04-26T01:32:40.0000000+00:00</time></trkpt><trkpt lat="22.065037" lon="103.872154"><ele>595.8</ele><time>2011-04-26T01:32:45.0000000+00:00</time></trkpt><trkpt lat="22.065037" lon="103.872154"><ele>595.8</ele><time>2011-04-26T01:32:50.0000000+00:00</time></trkpt><trkpt lat="22.065037" lon="103.872154"><ele>595.7</ele><time>2011-04-26T01:32:55.0000000+00:00</time></trkpt><trkpt lat="22.065037" lon="103.872154"><ele>595.7</ele><time>2011-04-26T01:33:00.0000000+00:00</time></trkpt><trkpt lat="22.065037" lon="103.872154"><ele>595.7</ele><time>2011-04-26T01:33:05.0000000+00:00</time></trkpt><trkpt lat="22.065037" lon="103.872154"><ele>595.7</ele><time>2011-04-26T01:33:10.0000000+00:00</time></trkpt><trkpt lat="22.065037" lon="103.872154"><ele>595.7</ele><time>2011-04-26T01:33:15.0000000+00:00</time></trkpt><trkpt lat="22.065037" lon="103.872154"><ele>595.7</ele><time>2011-04-26T01:33:20.0000000+00:00</time></trkpt><trkpt lat="22.065037" lon="103.872154"><ele>595.7</ele><time>2011-04-26T01:33:25.0000000+00:00</time></trkpt><trkpt lat="22.065037" lon="103.872154"><ele>595.7</ele><time>2011-04-26T01:33:30.0000000+00:00</time></trkpt><trkpt lat="22.065037" lon="103.872154"><ele>595.6</ele><time>2011-04-26T01:33:35.0000000+00:00</time></trkpt><trkpt lat="22.065037" lon="103.872154"><ele>595.6</ele><time>2011-04-26T01:33:40.0000000+00:00</time></trkpt><trkpt lat="22.065037" lon="103.872154"><ele>595.6</ele><time>2011-04-26T01:33:45.0000000+00:00</time></trkpt><trkpt lat="22.065037" lon="103.872154"><ele>595.6</ele><time>2011-04-26T01:33:50.0000000+00:00</time></trkpt><trkpt lat="22.065037" lon="103.872154"><ele>595.6</ele><time>2011-04-26T01:33:55.0000000+00:00</time></trkpt><trkpt lat="22.065037" lon="103.872154"><ele>595.6</ele><time>2011-04-26T01:34:00.0000000+00:00</time></trkpt><trkpt lat="22.065037" lon="103.872154"><ele>595.6</ele><time>2011-04-26T01:34:05.0000000+00:00</time></trkpt><trkpt lat="22.065037" lon="103.872154"><ele>595.6</ele><time>2011-04-26T01:34:10.0000000+00:00</time></trkpt><trkpt lat="22.065037" lon="103.872154"><ele>595.6</ele><time>2011-04-26T01:34:15.0000000+00:00</time></trkpt><trkpt lat="22.065037" lon="103.872154"><ele>595.6</ele><time>2011-04-26T01:34:20.0000000+00:00</time></trkpt><trkpt lat="22.065037" lon="103.872154"><ele>595.5</ele><time>2011-04-26T01:34:25.0000000+00:00</time></trkpt><trkpt lat="22.065037" lon="103.872154"><ele>595.5</ele><time>2011-04-26T01:34:30.0000000+00:00</time></trkpt><trkpt lat="22.065037" lon="103.872154"><ele>595.5</ele><time>2011-04-26T01:34:35.0000000+00:00</time></trkpt><trkpt lat="22.065037" lon="103.872154"><ele>595.4</ele><time>2011-04-26T01:34:40.0000000+00:00</time></trkpt><trkpt lat="22.065037" lon="103.872154"><ele>595.4</ele><time>2011-04-26T01:34:45.0000000+00:00</time></trkpt><trkpt lat="22.065037" lon="103.872154"><ele>595.4</ele><time>2011-04-26T01:34:50.0000000+00:00</time></trkpt><trkpt lat="22.065037" lon="103.872154"><ele>595.4</ele><time>2011-04-26T01:34:55.0000000+00:00</time></trkpt><trkpt lat="22.065037" lon="103.872154"><ele>595.4</ele><time>2011-04-26T01:35:00.0000000+00:00</time></trkpt><trkpt lat="22.065037" lon="103.872154"><ele>595.4</ele><time>2011-04-26T01:35:05.0000000+00:00</time></trkpt><trkpt lat="22.065037" lon="103.872154"><ele>595.3</ele><time>2011-04-26T01:35:10.0000000+00:00</time></trkpt><trkpt lat="22.065037" lon="103.872154"><ele>595.3</ele><time>2011-04-26T01:35:15.0000000+00:00</time></trkpt><trkpt lat="22.065037" lon="103.872154"><ele>595.3</ele><time>2011-04-26T01:35:20.0000000+00:00</time></trkpt><trkpt lat="22.065037" lon="103.872154"><ele>595.3</ele><time>2011-04-26T01:35:25.0000000+00:00</time></trkpt><trkpt lat="22.065037" lon="103.872154"><ele>595.3</ele><time>2011-04-26T01:35:30.0000000+00:00</time></trkpt><trkpt lat="22.065037" lon="103.872154"><ele>595.3</ele><time>2011-04-26T01:35:35.0000000+00:00</time></trkpt><trkpt lat="22.065037" lon="103.872154"><ele>595.4</ele><time>2011-04-26T01:35:40.0000000+00:00</time></trkpt><trkpt lat="22.065037" lon="103.872154"><ele>595.4</ele><time>2011-04-26T01:35:45.0000000+00:00</time></trkpt><trkpt lat="22.065037" lon="103.872154"><ele>595.4</ele><time>2011-04-26T01:35:50.0000000+00:00</time></trkpt><trkpt lat="22.065037" lon="103.872154"><ele>595.4</ele><time>2011-04-26T01:35:55.0000000+00:00</time></trkpt><trkpt lat="22.065037" lon="103.872154"><ele>595.4</ele><time>2011-04-26T01:36:00.0000000+00:00</time></trkpt><trkpt lat="22.065037" lon="103.872154"><ele>595.3</ele><time>2011-04-26T01:36:05.0000000+00:00</time></trkpt><trkpt lat="22.065037" lon="103.872154"><ele>595.3</ele><time>2011-04-26T01:36:10.0000000+00:00</time></trkpt><trkpt lat="22.065037" lon="103.872154"><ele>595.3</ele><time>2011-04-26T01:36:15.0000000+00:00</time></trkpt><trkpt lat="22.065037" lon="103.872154"><ele>595.3</ele><time>2011-04-26T01:36:20.0000000+00:00</time></trkpt><trkpt lat="22.065037" lon="103.872154"><ele>595.3</ele><time>2011-04-26T01:36:25.0000000+00:00</time></trkpt><trkpt lat="22.065037" lon="103.872154"><ele>595.3</ele><time>2011-04-26T01:36:30.0000000+00:00</time></trkpt><trkpt lat="22.065037" lon="103.872154"><ele>595.3</ele><time>2011-04-26T01:36:35.0000000+00:00</time></trkpt><trkpt lat="22.065037" lon="103.872154"><ele>595.3</ele><time>2011-04-26T01:36:40.0000000+00:00</time></trkpt><trkpt lat="22.065037" lon="103.872154"><ele>595.3</ele><time>2011-04-26T01:36:45.0000000+00:00</time></trkpt><trkpt lat="22.065037" lon="103.872154"><ele>595.3</ele><time>2011-04-26T01:36:50.0000000+00:00</time></trkpt><trkpt lat="22.065037" lon="103.872154"><ele>595.3</ele><time>2011-04-26T01:36:55.0000000+00:00</time></trkpt><trkpt lat="22.065037" lon="103.872154"><ele>595.4</ele><time>2011-04-26T01:37:00.0000000+00:00</time></trkpt><trkpt lat="22.065037" lon="103.872154"><ele>595.4</ele><time>2011-04-26T01:37:05.0000000+00:00</time></trkpt><trkpt lat="22.065037" lon="103.872154"><ele>595.4</ele><time>2011-04-26T01:37:10.0000000+00:00</time></trkpt><trkpt lat="22.065037" lon="103.872154"><ele>595.4</ele><time>2011-04-26T01:37:15.0000000+00:00</time></trkpt><trkpt lat="22.065037" lon="103.872154"><ele>595.4</ele><time>2011-04-26T01:37:20.0000000+00:00</time></trkpt><trkpt lat="22.065037" lon="103.872154"><ele>595.5</ele><time>2011-04-26T01:37:25.0000000+00:00</time></trkpt><trkpt lat="22.065037" lon="103.872154"><ele>595.4</ele><time>2011-04-26T01:37:30.0000000+00:00</time></trkpt><trkpt lat="22.065037" lon="103.872154"><ele>595.4</ele><time>2011-04-26T01:37:35.0000000+00:00</time></trkpt><trkpt lat="22.065037" lon="103.872154"><ele>595.5</ele><time>2011-04-26T01:37:40.0000000+00:00</time></trkpt><trkpt lat="22.065037" lon="103.872154"><ele>595.5</ele><time>2011-04-26T01:37:45.0000000+00:00</time></trkpt><trkpt lat="22.065037" lon="103.872154"><ele>595.5</ele><time>2011-04-26T01:37:50.0000000+00:00</time></trkpt><trkpt lat="22.065037" lon="103.872154"><ele>595.5</ele><time>2011-04-26T01:37:55.0000000+00:00</time></trkpt><trkpt lat="22.065037" lon="103.872154"><ele>595.5</ele><time>2011-04-26T01:38:00.0000000+00:00</time></trkpt><trkpt lat="22.065037" lon="103.872154"><ele>595.6</ele><time>2011-04-26T01:38:05.0000000+00:00</time></trkpt><trkpt lat="22.065037" lon="103.872154"><ele>595.6</ele><time>2011-04-26T01:38:10.0000000+00:00</time></trkpt><trkpt lat="22.065037" lon="103.872154"><ele>595.6</ele><time>2011-04-26T01:38:15.0000000+00:00</time></trkpt><trkpt lat="22.065037" lon="103.872154"><ele>595.6</ele><time>2011-04-26T01:38:20.0000000+00:00</time></trkpt><trkpt lat="22.065037" lon="103.872154"><ele>595.6</ele><time>2011-04-26T01:38:25.0000000+00:00</time></trkpt><trkpt lat="22.065037" lon="103.872154"><ele>595.7</ele><time>2011-04-26T01:38:30.0000000+00:00</time></trkpt><trkpt lat="22.065037" lon="103.872154"><ele>595.7</ele><time>2011-04-26T01:38:35.0000000+00:00</time></trkpt><trkpt lat="22.065037" lon="103.872154"><ele>595.7</ele><time>2011-04-26T01:38:40.0000000+00:00</time></trkpt><trkpt lat="22.065037" lon="103.872154"><ele>595.7</ele><time>2011-04-26T01:38:45.0000000+00:00</time></trkpt><trkpt lat="22.065037" lon="103.872154"><ele>595.7</ele><time>2011-04-26T01:38:50.0000000+00:00</time></trkpt><trkpt lat="22.065037" lon="103.872154"><ele>595.7</ele><time>2011-04-26T01:38:55.0000000+00:00</time></trkpt><trkpt lat="22.065037" lon="103.872154"><ele>595.7</ele><time>2011-04-26T01:39:00.0000000+00:00</time></trkpt><trkpt lat="22.065037" lon="103.872154"><ele>595.7</ele><time>2011-04-26T01:39:05.0000000+00:00</time></trkpt><trkpt lat="22.065037" lon="103.872154"><ele>595.7</ele><time>2011-04-26T01:39:10.0000000+00:00</time></trkpt><trkpt lat="22.065037" lon="103.872162"><ele>595.7</ele><time>2011-04-26T01:39:15.0000000+00:00</time></trkpt><trkpt lat="22.065037" lon="103.872162"><ele>595.7</ele><time>2011-04-26T01:39:20.0000000+00:00</time></trkpt><trkpt lat="22.065037" lon="103.872162"><ele>595.7</ele><time>2011-04-26T01:39:25.0000000+00:00</time></trkpt><trkpt lat="22.065042" lon="103.872154"><ele>595.7</ele><time>2011-04-26T01:39:30.0000000+00:00</time></trkpt><trkpt lat="22.065056" lon="103.872147"><ele>595.2</ele><time>2011-04-26T01:39:35.0000000+00:00</time></trkpt><trkpt lat="22.065117" lon="103.872162"><ele>594.2</ele><time>2011-04-26T01:39:40.0000000+00:00</time></trkpt><trkpt lat="22.065159" lon="103.872284"><ele>594.3</ele><time>2011-04-26T01:39:45.0000000+00:00</time></trkpt><trkpt lat="22.065165" lon="103.872414"><ele>594.0</ele><time>2011-04-26T01:39:50.0000000+00:00</time></trkpt><trkpt lat="22.06518" lon="103.872543"><ele>594.7</ele><time>2011-04-26T01:39:55.0000000+00:00</time></trkpt><trkpt lat="22.065193" lon="103.872681"><ele>596.3</ele><time>2011-04-26T01:40:00.0000000+00:00</time></trkpt><trkpt lat="22.065191" lon="103.87281"><ele>597.8</ele><time>2011-04-26T01:40:05.0000000+00:00</time></trkpt><trkpt lat="22.065182" lon="103.872955"><ele>599.1</ele><time>2011-04-26T01:40:10.0000000+00:00</time></trkpt><trkpt lat="22.065166" lon="103.873131"><ele>600.1</ele><time>2011-04-26T01:40:15.0000000+00:00</time></trkpt><trkpt lat="22.065159" lon="103.873306"><ele>600.4</ele><time>2011-04-26T01:40:20.0000000+00:00</time></trkpt><trkpt lat="22.065149" lon="103.873474"><ele>603.4</ele><time>2011-04-26T01:40:25.0000000+00:00</time></trkpt><trkpt lat="22.06513" lon="103.873642"><ele>605.1</ele><time>2011-04-26T01:40:30.0000000+00:00</time></trkpt><trkpt lat="22.06513" lon="103.873802"><ele>609.8</ele><time>2011-04-26T01:40:35.0000000+00:00</time></trkpt><trkpt lat="22.065157" lon="103.873962"><ele>613.2</ele><time>2011-04-26T01:40:40.0000000+00:00</time></trkpt><trkpt lat="22.065222" lon="103.874107"><ele>616.0</ele><time>2011-04-26T01:40:45.0000000+00:00</time></trkpt><trkpt lat="22.065329" lon="103.874245"><ele>617.7</ele><time>2011-04-26T01:40:50.0000000+00:00</time></trkpt><trkpt lat="22.06546" lon="103.874359"><ele>618.6</ele><time>2011-04-26T01:40:55.0000000+00:00</time></trkpt><trkpt lat="22.065603" lon="103.874451"><ele>620.5</ele><time>2011-04-26T01:41:00.0000000+00:00</time></trkpt><trkpt lat="22.065718" lon="103.874542"><ele>622.5</ele><time>2011-04-26T01:41:05.0000000+00:00</time></trkpt><trkpt lat="22.065815" lon="103.874687"><ele>623.8</ele><time>2011-04-26T01:41:10.0000000+00:00</time></trkpt><trkpt lat="22.065859" lon="103.874832"><ele>625.1</ele><time>2011-04-26T01:41:15.0000000+00:00</time></trkpt><trkpt lat="22.065844" lon="103.874947"><ele>626.6</ele><time>2011-04-26T01:41:20.0000000+00:00</time></trkpt><trkpt lat="22.065842" lon="103.875092"><ele>626.6</ele><time>2011-04-26T01:41:25.0000000+00:00</time></trkpt><trkpt lat="22.065817" lon="103.875214"><ele>626.9</ele><time>2011-04-26T01:41:30.0000000+00:00</time></trkpt><trkpt lat="22.065798" lon="103.875343"><ele>627.7</ele><time>2011-04-26T01:41:35.0000000+00:00</time></trkpt><trkpt lat="22.065788" lon="103.875465"><ele>627.8</ele><time>2011-04-26T01:41:40.0000000+00:00</time></trkpt><trkpt lat="22.065771" lon="103.875603"><ele>628.3</ele><time>2011-04-26T01:41:45.0000000+00:00</time></trkpt><trkpt lat="22.065756" lon="103.87574"><ele>628.1</ele><time>2011-04-26T01:41:50.0000000+00:00</time></trkpt><trkpt lat="22.065739" lon="103.87587"><ele>628.4</ele><time>2011-04-26T01:41:55.0000000+00:00</time></trkpt><trkpt lat="22.065729" lon="103.876007"><ele>629.1</ele><time>2011-04-26T01:42:00.0000000+00:00</time></trkpt><trkpt lat="22.065714" lon="103.876144"><ele>630.5</ele><time>2011-04-26T01:42:05.0000000+00:00</time></trkpt><trkpt lat="22.065693" lon="103.876274"><ele>631.4</ele><time>2011-04-26T01:42:10.0000000+00:00</time></trkpt><trkpt lat="22.065676" lon="103.876381"><ele>631.5</ele><time>2011-04-26T01:42:15.0000000+00:00</time></trkpt><trkpt lat="22.065657" lon="103.876511"><ele>632.7</ele><time>2011-04-26T01:42:20.0000000+00:00</time></trkpt><trkpt lat="22.065609" lon="103.876671"><ele>633.9</ele><time>2011-04-26T01:42:25.0000000+00:00</time></trkpt><trkpt lat="22.065601" lon="103.876778"><ele>635.6</ele><time>2011-04-26T01:42:30.0000000+00:00</time></trkpt><trkpt lat="22.065596" lon="103.876892"><ele>637.6</ele><time>2011-04-26T01:42:35.0000000+00:00</time></trkpt><trkpt lat="22.065588" lon="103.877007"><ele>639.7</ele><time>2011-04-26T01:42:40.0000000+00:00</time></trkpt><trkpt lat="22.065561" lon="103.877121"><ele>642.3</ele><time>2011-04-26T01:42:45.0000000+00:00</time></trkpt><trkpt lat="22.065556" lon="103.877251"><ele>644.6</ele><time>2011-04-26T01:42:50.0000000+00:00</time></trkpt><trkpt lat="22.065552" lon="103.877365"><ele>645.7</ele><time>2011-04-26T01:42:55.0000000+00:00</time></trkpt><trkpt lat="22.065546" lon="103.877464"><ele>646.2</ele><time>2011-04-26T01:43:00.0000000+00:00</time></trkpt><trkpt lat="22.065544" lon="103.877586"><ele>647.6</ele><time>2011-04-26T01:43:05.0000000+00:00</time></trkpt><trkpt lat="22.065552" lon="103.877686"><ele>648.5</ele><time>2011-04-26T01:43:10.0000000+00:00</time></trkpt><trkpt lat="22.065571" lon="103.877808"><ele>646.9</ele><time>2011-04-26T01:43:15.0000000+00:00</time></trkpt><trkpt lat="22.065573" lon="103.877914"><ele>645.6</ele><time>2011-04-26T01:43:20.0000000+00:00</time></trkpt><trkpt lat="22.065588" lon="103.878021"><ele>646.0</ele><time>2011-04-26T01:43:25.0000000+00:00</time></trkpt><trkpt lat="22.065599" lon="103.878128"><ele>646.0</ele><time>2011-04-26T01:43:30.0000000+00:00</time></trkpt><trkpt lat="22.065613" lon="103.878235"><ele>644.0</ele><time>2011-04-26T01:43:35.0000000+00:00</time></trkpt><trkpt lat="22.065626" lon="103.878357"><ele>640.7</ele><time>2011-04-26T01:43:40.0000000+00:00</time></trkpt><trkpt lat="22.065634" lon="103.878471"><ele>639.9</ele><time>2011-04-26T01:43:45.0000000+00:00</time></trkpt><trkpt lat="22.065647" lon="103.878571"><ele>640.2</ele><time>2011-04-26T01:43:50.0000000+00:00</time></trkpt><trkpt lat="22.065643" lon="103.87867"><ele>640.9</ele><time>2011-04-26T01:43:55.0000000+00:00</time></trkpt><trkpt lat="22.06566" lon="103.878761"><ele>640.9</ele><time>2011-04-26T01:44:00.0000000+00:00</time></trkpt><trkpt lat="22.065659" lon="103.87886"><ele>641.1</ele><time>2011-04-26T01:44:05.0000000+00:00</time></trkpt><trkpt lat="22.065666" lon="103.878967"><ele>641.0</ele><time>2011-04-26T01:44:10.0000000+00:00</time></trkpt><trkpt lat="22.065676" lon="103.879059"><ele>639.8</ele><time>2011-04-26T01:44:15.0000000+00:00</time></trkpt><trkpt lat="22.065676" lon="103.879158"><ele>640.4</ele><time>2011-04-26T01:44:20.0000000+00:00</time></trkpt><trkpt lat="22.06568" lon="103.879265"><ele>640.5</ele><time>2011-04-26T01:44:25.0000000+00:00</time></trkpt><trkpt lat="22.065689" lon="103.879379"><ele>640.5</ele><time>2011-04-26T01:44:30.0000000+00:00</time></trkpt><trkpt lat="22.065697" lon="103.879478"><ele>640.6</ele><time>2011-04-26T01:44:35.0000000+00:00</time></trkpt><trkpt lat="22.065702" lon="103.879578"><ele>640.9</ele><time>2011-04-26T01:44:40.0000000+00:00</time></trkpt><trkpt lat="22.065708" lon="103.879684"><ele>639.9</ele><time>2011-04-26T01:44:45.0000000+00:00</time></trkpt><trkpt lat="22.065702" lon="103.879807"><ele>640.1</ele><time>2011-04-26T01:44:50.0000000+00:00</time></trkpt><trkpt lat="22.065718" lon="103.879906"><ele>640.0</ele><time>2011-04-26T01:44:55.0000000+00:00</time></trkpt><trkpt lat="22.065737" lon="103.879997"><ele>640.1</ele><time>2011-04-26T01:45:00.0000000+00:00</time></trkpt><trkpt lat="22.065741" lon="103.880066"><ele>640.0</ele><time>2011-04-26T01:45:05.0000000+00:00</time></trkpt><trkpt lat="22.065752" lon="103.880165"><ele>638.7</ele><time>2011-04-26T01:45:10.0000000+00:00</time></trkpt><trkpt lat="22.065763" lon="103.880257"><ele>639.1</ele><time>2011-04-26T01:45:15.0000000+00:00</time></trkpt><trkpt lat="22.065767" lon="103.880356"><ele>639.9</ele><time>2011-04-26T01:45:20.0000000+00:00</time></trkpt><trkpt lat="22.065763" lon="103.880447"><ele>641.6</ele><time>2011-04-26T01:45:25.0000000+00:00</time></trkpt><trkpt lat="22.06576" lon="103.880547"><ele>642.3</ele><time>2011-04-26T01:45:30.0000000+00:00</time></trkpt><trkpt lat="22.065762" lon="103.880638"><ele>643.2</ele><time>2011-04-26T01:45:35.0000000+00:00</time></trkpt><trkpt lat="22.065769" lon="103.880737"><ele>643.2</ele><time>2011-04-26T01:45:40.0000000+00:00</time></trkpt><trkpt lat="22.065771" lon="103.880798"><ele>643.5</ele><time>2011-04-26T01:45:45.0000000+00:00</time></trkpt><trkpt lat="22.065779" lon="103.880882"><ele>643.8</ele><time>2011-04-26T01:45:50.0000000+00:00</time></trkpt><trkpt lat="22.06579" lon="103.880959"><ele>644.7</ele><time>2011-04-26T01:45:55.0000000+00:00</time></trkpt><trkpt lat="22.065796" lon="103.881042"><ele>645.3</ele><time>2011-04-26T01:46:00.0000000+00:00</time></trkpt><trkpt lat="22.065811" lon="103.881134"><ele>645.1</ele><time>2011-04-26T01:46:05.0000000+00:00</time></trkpt><trkpt lat="22.065813" lon="103.881233"><ele>645.1</ele><time>2011-04-26T01:46:10.0000000+00:00</time></trkpt><trkpt lat="22.065811" lon="103.88131"><ele>644.8</ele><time>2011-04-26T01:46:15.0000000+00:00</time></trkpt><trkpt lat="22.065821" lon="103.881393"><ele>644.4</ele><time>2011-04-26T01:46:20.0000000+00:00</time></trkpt><trkpt lat="22.065832" lon="103.881454"><ele>644.3</ele><time>2011-04-26T01:46:25.0000000+00:00</time></trkpt><trkpt lat="22.065832" lon="103.881462"><ele>644.2</ele><time>2011-04-26T01:46:30.0000000+00:00</time></trkpt><trkpt lat="22.065825" lon="103.881485"><ele>644.2</ele><time>2011-04-26T01:46:35.0000000+00:00</time></trkpt><trkpt lat="22.065821" lon="103.881561"><ele>643.9</ele><time>2011-04-26T01:46:40.0000000+00:00</time></trkpt><trkpt lat="22.065828" lon="103.881668"><ele>643.6</ele><time>2011-04-26T01:46:45.0000000+00:00</time></trkpt><trkpt lat="22.065844" lon="103.881783"><ele>642.9</ele><time>2011-04-26T01:46:50.0000000+00:00</time></trkpt><trkpt lat="22.065842" lon="103.881897"><ele>641.7</ele><time>2011-04-26T01:46:55.0000000+00:00</time></trkpt><trkpt lat="22.065842" lon="103.881996"><ele>640.8</ele><time>2011-04-26T01:47:00.0000000+00:00</time></trkpt><trkpt lat="22.065845" lon="103.882072"><ele>639.8</ele><time>2011-04-26T01:47:05.0000000+00:00</time></trkpt><trkpt lat="22.065847" lon="103.882141"><ele>640.6</ele><time>2011-04-26T01:47:10.0000000+00:00</time></trkpt><trkpt lat="22.065853" lon="103.882225"><ele>640.6</ele><time>2011-04-26T01:47:15.0000000+00:00</time></trkpt><trkpt lat="22.065865" lon="103.882301"><ele>639.6</ele><time>2011-04-26T01:47:20.0000000+00:00</time></trkpt><trkpt lat="22.065868" lon="103.882385"><ele>639.3</ele><time>2011-04-26T01:47:25.0000000+00:00</time></trkpt><trkpt lat="22.065884" lon="103.882469"><ele>641.7</ele><time>2011-04-26T01:47:30.0000000+00:00</time></trkpt><trkpt lat="22.065891" lon="103.882553"><ele>643.6</ele><time>2011-04-26T01:47:35.0000000+00:00</time></trkpt><trkpt lat="22.065899" lon="103.882629"><ele>642.5</ele><time>2011-04-26T01:47:40.0000000+00:00</time></trkpt><trkpt lat="22.065908" lon="103.882706"><ele>642.5</ele><time>2011-04-26T01:47:45.0000000+00:00</time></trkpt><trkpt lat="22.065908" lon="103.88279"><ele>642.0</ele><time>2011-04-26T01:47:50.0000000+00:00</time></trkpt><trkpt lat="22.06591" lon="103.882881"><ele>641.8</ele><time>2011-04-26T01:47:55.0000000+00:00</time></trkpt><trkpt lat="22.065926" lon="103.882973"><ele>641.1</ele><time>2011-04-26T01:48:00.0000000+00:00</time></trkpt><trkpt lat="22.065916" lon="103.883041"><ele>643.3</ele><time>2011-04-26T01:48:05.0000000+00:00</time></trkpt><trkpt lat="22.065933" lon="103.883133"><ele>642.5</ele><time>2011-04-26T01:48:10.0000000+00:00</time></trkpt><trkpt lat="22.06595" lon="103.883217"><ele>644.2</ele><time>2011-04-26T01:48:15.0000000+00:00</time></trkpt><trkpt lat="22.065958" lon="103.883308"><ele>646.9</ele><time>2011-04-26T01:48:20.0000000+00:00</time></trkpt><trkpt lat="22.065962" lon="103.883392"><ele>648.0</ele><time>2011-04-26T01:48:25.0000000+00:00</time></trkpt><trkpt lat="22.06596" lon="103.883499"><ele>648.6</ele><time>2011-04-26T01:48:30.0000000+00:00</time></trkpt><trkpt lat="22.065962" lon="103.883591"><ele>648.4</ele><time>2011-04-26T01:48:35.0000000+00:00</time></trkpt><trkpt lat="22.065969" lon="103.88369"><ele>648.9</ele><time>2011-04-26T01:48:40.0000000+00:00</time></trkpt><trkpt lat="22.065981" lon="103.883781"><ele>648.4</ele><time>2011-04-26T01:48:45.0000000+00:00</time></trkpt><trkpt lat="22.065985" lon="103.883865"><ele>648.6</ele><time>2011-04-26T01:48:50.0000000+00:00</time></trkpt><trkpt lat="22.06599" lon="103.883942"><ele>648.1</ele><time>2011-04-26T01:48:55.0000000+00:00</time></trkpt><trkpt lat="22.066004" lon="103.884041"><ele>649.3</ele><time>2011-04-26T01:49:00.0000000+00:00</time></trkpt><trkpt lat="22.066006" lon="103.884125"><ele>649.8</ele><time>2011-04-26T01:49:05.0000000+00:00</time></trkpt><trkpt lat="22.066015" lon="103.884201"><ele>650.9</ele><time>2011-04-26T01:49:10.0000000+00:00</time></trkpt><trkpt lat="22.066021" lon="103.884285"><ele>650.5</ele><time>2011-04-26T01:49:15.0000000+00:00</time></trkpt><trkpt lat="22.066034" lon="103.884369"><ele>650.0</ele><time>2011-04-26T01:49:20.0000000+00:00</time></trkpt><trkpt lat="22.06604" lon="103.884453"><ele>649.2</ele><time>2011-04-26T01:49:25.0000000+00:00</time></trkpt><trkpt lat="22.066046" lon="103.884529"><ele>648.6</ele><time>2011-04-26T01:49:30.0000000+00:00</time></trkpt><trkpt lat="22.066046" lon="103.884598"><ele>649.3</ele><time>2011-04-26T01:49:35.0000000+00:00</time></trkpt><trkpt lat="22.066042" lon="103.884674"><ele>648.9</ele><time>2011-04-26T01:49:40.0000000+00:00</time></trkpt><trkpt lat="22.066061" lon="103.884766"><ele>649.0</ele><time>2011-04-26T01:49:45.0000000+00:00</time></trkpt><trkpt lat="22.066074" lon="103.88485"><ele>649.2</ele><time>2011-04-26T01:49:50.0000000+00:00</time></trkpt><trkpt lat="22.066076" lon="103.884926"><ele>649.1</ele><time>2011-04-26T01:49:55.0000000+00:00</time></trkpt><trkpt lat="22.06608" lon="103.88501"><ele>650.0</ele><time>2011-04-26T01:50:00.0000000+00:00</time></trkpt><trkpt lat="22.066084" lon="103.885109"><ele>652.1</ele><time>2011-04-26T01:50:05.0000000+00:00</time></trkpt><trkpt lat="22.066095" lon="103.885193"><ele>653.2</ele><time>2011-04-26T01:50:10.0000000+00:00</time></trkpt><trkpt lat="22.066099" lon="103.885262"><ele>654.4</ele><time>2011-04-26T01:50:15.0000000+00:00</time></trkpt><trkpt lat="22.066103" lon="103.885338"><ele>654.2</ele><time>2011-04-26T01:50:20.0000000+00:00</time></trkpt><trkpt lat="22.066114" lon="103.885429"><ele>654.7</ele><time>2011-04-26T01:50:25.0000000+00:00</time></trkpt><trkpt lat="22.066124" lon="103.885506"><ele>656.3</ele><time>2011-04-26T01:50:30.0000000+00:00</time></trkpt><trkpt lat="22.066124" lon="103.88559"><ele>657.2</ele><time>2011-04-26T01:50:35.0000000+00:00</time></trkpt><trkpt lat="22.066135" lon="103.885666"><ele>658.6</ele><time>2011-04-26T01:50:40.0000000+00:00</time></trkpt><trkpt lat="22.066145" lon="103.88575"><ele>659.7</ele><time>2011-04-26T01:50:45.0000000+00:00</time></trkpt><trkpt lat="22.066147" lon="103.885818"><ele>661.0</ele><time>2011-04-26T01:50:50.0000000+00:00</time></trkpt><trkpt lat="22.066149" lon="103.885895"><ele>661.0</ele><time>2011-04-26T01:50:55.0000000+00:00</time></trkpt><trkpt lat="22.066158" lon="103.885979"><ele>662.6</ele><time>2011-04-26T01:51:00.0000000+00:00</time></trkpt><trkpt lat="22.066166" lon="103.886055"><ele>664.8</ele><time>2011-04-26T01:51:05.0000000+00:00</time></trkpt><trkpt lat="22.066168" lon="103.886131"><ele>665.7</ele><time>2011-04-26T01:51:10.0000000+00:00</time></trkpt><trkpt lat="22.066168" lon="103.8862"><ele>666.7</ele><time>2011-04-26T01:51:15.0000000+00:00</time></trkpt><trkpt lat="22.066175" lon="103.886269"><ele>667.5</ele><time>2011-04-26T01:51:20.0000000+00:00</time></trkpt><trkpt lat="22.066172" lon="103.88633"><ele>668.7</ele><time>2011-04-26T01:51:25.0000000+00:00</time></trkpt><trkpt lat="22.066174" lon="103.886406"><ele>670.0</ele><time>2011-04-26T01:51:30.0000000+00:00</time></trkpt><trkpt lat="22.066185" lon="103.886482"><ele>671.1</ele><time>2011-04-26T01:51:35.0000000+00:00</time></trkpt><trkpt lat="22.0662" lon="103.886559"><ele>672.4</ele><time>2011-04-26T01:51:40.0000000+00:00</time></trkpt><trkpt lat="22.066212" lon="103.88662"><ele>673.7</ele><time>2011-04-26T01:51:45.0000000+00:00</time></trkpt><trkpt lat="22.066227" lon="103.886711"><ele>674.8</ele><time>2011-04-26T01:51:50.0000000+00:00</time></trkpt><trkpt lat="22.06625" lon="103.886818"><ele>675.7</ele><time>2011-04-26T01:51:55.0000000+00:00</time></trkpt><trkpt lat="22.066301" lon="103.886971"><ele>675.2</ele><time>2011-04-26T01:52:00.0000000+00:00</time></trkpt><trkpt lat="22.066383" lon="103.887146"><ele>673.4</ele><time>2011-04-26T01:52:05.0000000+00:00</time></trkpt><trkpt lat="22.066475" lon="103.887321"><ele>671.9</ele><time>2011-04-26T01:52:10.0000000+00:00</time></trkpt><trkpt lat="22.066547" lon="103.887474"><ele>672.8</ele><time>2011-04-26T01:52:15.0000000+00:00</time></trkpt><trkpt lat="22.066608" lon="103.887634"><ele>675.9</ele><time>2011-04-26T01:52:20.0000000+00:00</time></trkpt><trkpt lat="22.066643" lon="103.887787"><ele>677.2</ele><time>2011-04-26T01:52:25.0000000+00:00</time></trkpt><trkpt lat="22.066654" lon="103.887917"><ele>678.3</ele><time>2011-04-26T01:52:30.0000000+00:00</time></trkpt><trkpt lat="22.066648" lon="103.888016"><ele>679.3</ele><time>2011-04-26T01:52:35.0000000+00:00</time></trkpt><trkpt lat="22.066633" lon="103.8881"><ele>680.0</ele><time>2011-04-26T01:52:40.0000000+00:00</time></trkpt><trkpt lat="22.066628" lon="103.888191"><ele>682.0</ele><time>2011-04-26T01:52:45.0000000+00:00</time></trkpt><trkpt lat="22.066605" lon="103.888268"><ele>682.4</ele><time>2011-04-26T01:52:50.0000000+00:00</time></trkpt><trkpt lat="22.066584" lon="103.888336"><ele>682.8</ele><time>2011-04-26T01:52:55.0000000+00:00</time></trkpt><trkpt lat="22.066559" lon="103.88839"><ele>683.3</ele><time>2011-04-26T01:53:00.0000000+00:00</time></trkpt><trkpt lat="22.066513" lon="103.888466"><ele>684.5</ele><time>2011-04-26T01:53:05.0000000+00:00</time></trkpt><trkpt lat="22.066494" lon="103.888512"><ele>685.1</ele><time>2011-04-26T01:53:10.0000000+00:00</time></trkpt><trkpt lat="22.066473" lon="103.888573"><ele>685.8</ele><time>2011-04-26T01:53:15.0000000+00:00</time></trkpt><trkpt lat="22.066448" lon="103.888657"><ele>686.1</ele><time>2011-04-26T01:53:20.0000000+00:00</time></trkpt><trkpt lat="22.066423" lon="103.888748"><ele>686.8</ele><time>2011-04-26T01:53:25.0000000+00:00</time></trkpt><trkpt lat="22.066414" lon="103.888817"><ele>687.2</ele><time>2011-04-26T01:53:30.0000000+00:00</time></trkpt><trkpt lat="22.066399" lon="103.888878"><ele>688.2</ele><time>2011-04-26T01:53:35.0000000+00:00</time></trkpt><trkpt lat="22.066404" lon="103.888962"><ele>689.2</ele><time>2011-04-26T01:53:40.0000000+00:00</time></trkpt><trkpt lat="22.066402" lon="103.889046"><ele>690.2</ele><time>2011-04-26T01:53:45.0000000+00:00</time></trkpt><trkpt lat="22.066401" lon="103.889122"><ele>691.1</ele><time>2011-04-26T01:53:50.0000000+00:00</time></trkpt><trkpt lat="22.066399" lon="103.889198"><ele>691.9</ele><time>2011-04-26T01:53:55.0000000+00:00</time></trkpt><trkpt lat="22.06641" lon="103.889259"><ele>693.5</ele><time>2011-04-26T01:54:00.0000000+00:00</time></trkpt><trkpt lat="22.066404" lon="103.88932"><ele>693.3</ele><time>2011-04-26T01:54:05.0000000+00:00</time></trkpt><trkpt lat="22.066408" lon="103.889397"><ele>694.1</ele><time>2011-04-26T01:54:10.0000000+00:00</time></trkpt><trkpt lat="22.06642" lon="103.889465"><ele>695.5</ele><time>2011-04-26T01:54:15.0000000+00:00</time></trkpt><trkpt lat="22.066429" lon="103.889534"><ele>696.3</ele><time>2011-04-26T01:54:20.0000000+00:00</time></trkpt><trkpt lat="22.066425" lon="103.889557"><ele>695.9</ele><time>2011-04-26T01:54:25.0000000+00:00</time></trkpt><trkpt lat="22.066425" lon="103.889557"><ele>695.4</ele><time>2011-04-26T01:54:30.0000000+00:00</time></trkpt><trkpt lat="22.066425" lon="103.889557"><ele>695.3</ele><time>2011-04-26T01:54:35.0000000+00:00</time></trkpt><trkpt lat="22.066423" lon="103.889565"><ele>695.3</ele><time>2011-04-26T01:54:40.0000000+00:00</time></trkpt><trkpt lat="22.066416" lon="103.889572"><ele>695.3</ele><time>2011-04-26T01:54:45.0000000+00:00</time></trkpt><trkpt lat="22.066423" lon="103.889618"><ele>695.8</ele><time>2011-04-26T01:54:50.0000000+00:00</time></trkpt><trkpt lat="22.066418" lon="103.889633"><ele>696.3</ele><time>2011-04-26T01:54:55.0000000+00:00</time></trkpt><trkpt lat="22.066418" lon="103.889633"><ele>696.2</ele><time>2011-04-26T01:55:00.0000000+00:00</time></trkpt><trkpt lat="22.066416" lon="103.889633"><ele>696.3</ele><time>2011-04-26T01:55:05.0000000+00:00</time></trkpt><trkpt lat="22.066416" lon="103.889633"><ele>696.3</ele><time>2011-04-26T01:55:10.0000000+00:00</time></trkpt><trkpt lat="22.066416" lon="103.889633"><ele>696.3</ele><time>2011-04-26T01:55:15.0000000+00:00</time></trkpt><trkpt lat="22.066418" lon="103.889633"><ele>696.3</ele><time>2011-04-26T01:55:20.0000000+00:00</time></trkpt><trkpt lat="22.066418" lon="103.889633"><ele>696.3</ele><time>2011-04-26T01:55:25.0000000+00:00</time></trkpt><trkpt lat="22.066418" lon="103.889633"><ele>696.3</ele><time>2011-04-26T01:55:30.0000000+00:00</time></trkpt><trkpt lat="22.066418" lon="103.889633"><ele>696.3</ele><time>2011-04-26T01:55:35.0000000+00:00</time></trkpt><trkpt lat="22.066418" lon="103.889633"><ele>696.3</ele><time>2011-04-26T01:55:40.0000000+00:00</time></trkpt><trkpt lat="22.066418" lon="103.889633"><ele>696.3</ele><time>2011-04-26T01:55:45.0000000+00:00</time></trkpt><trkpt lat="22.066418" lon="103.889633"><ele>696.3</ele><time>2011-04-26T01:55:50.0000000+00:00</time></trkpt><trkpt lat="22.066418" lon="103.889633"><ele>696.3</ele><time>2011-04-26T01:55:55.0000000+00:00</time></trkpt><trkpt lat="22.066418" lon="103.889633"><ele>696.3</ele><time>2011-04-26T01:56:00.0000000+00:00</time></trkpt><trkpt lat="22.066418" lon="103.889633"><ele>696.3</ele><time>2011-04-26T01:56:05.0000000+00:00</time></trkpt><trkpt lat="22.066418" lon="103.889633"><ele>696.3</ele><time>2011-04-26T01:56:10.0000000+00:00</time></trkpt><trkpt lat="22.066418" lon="103.889633"><ele>696.3</ele><time>2011-04-26T01:56:15.0000000+00:00</time></trkpt><trkpt lat="22.066418" lon="103.889633"><ele>696.3</ele><time>2011-04-26T01:56:20.0000000+00:00</time></trkpt><trkpt lat="22.066418" lon="103.889633"><ele>696.3</ele><time>2011-04-26T01:56:25.0000000+00:00</time></trkpt><trkpt lat="22.066418" lon="103.889633"><ele>696.3</ele><time>2011-04-26T01:56:30.0000000+00:00</time></trkpt><trkpt lat="22.066418" lon="103.889633"><ele>696.3</ele><time>2011-04-26T01:56:35.0000000+00:00</time></trkpt><trkpt lat="22.066418" lon="103.889633"><ele>696.3</ele><time>2011-04-26T01:56:40.0000000+00:00</time></trkpt><trkpt lat="22.066418" lon="103.889633"><ele>696.4</ele><time>2011-04-26T01:56:45.0000000+00:00</time></trkpt><trkpt lat="22.066418" lon="103.889633"><ele>696.4</ele><time>2011-04-26T01:56:50.0000000+00:00</time></trkpt><trkpt lat="22.066418" lon="103.889633"><ele>696.4</ele><time>2011-04-26T01:56:55.0000000+00:00</time></trkpt><trkpt lat="22.06642" lon="103.889633"><ele>696.5</ele><time>2011-04-26T01:57:00.0000000+00:00</time></trkpt><trkpt lat="22.06642" lon="103.889633"><ele>696.5</ele><time>2011-04-26T01:57:05.0000000+00:00</time></trkpt><trkpt lat="22.066427" lon="103.889702"><ele>697.6</ele><time>2011-04-26T01:57:10.0000000+00:00</time></trkpt><trkpt lat="22.066435" lon="103.889778"><ele>697.7</ele><time>2011-04-26T01:57:15.0000000+00:00</time></trkpt><trkpt lat="22.066448" lon="103.889862"><ele>698.2</ele><time>2011-04-26T01:57:20.0000000+00:00</time></trkpt><trkpt lat="22.066454" lon="103.889961"><ele>699.1</ele><time>2011-04-26T01:57:25.0000000+00:00</time></trkpt><trkpt lat="22.066462" lon="103.890068"><ele>699.6</ele><time>2011-04-26T01:57:30.0000000+00:00</time></trkpt><trkpt lat="22.066462" lon="103.890182"><ele>699.8</ele><time>2011-04-26T01:57:35.0000000+00:00</time></trkpt><trkpt lat="22.066471" lon="103.89032"><ele>698.8</ele><time>2011-04-26T01:57:40.0000000+00:00</time></trkpt><trkpt lat="22.06649" lon="103.89045"><ele>698.1</ele><time>2011-04-26T01:57:45.0000000+00:00</time></trkpt><trkpt lat="22.066502" lon="103.890594"><ele>698.5</ele><time>2011-04-26T01:57:50.0000000+00:00</time></trkpt><trkpt lat="22.066507" lon="103.890747"><ele>699.1</ele><time>2011-04-26T01:57:55.0000000+00:00</time></trkpt><trkpt lat="22.066515" lon="103.890884"><ele>699.3</ele><time>2011-04-26T01:58:00.0000000+00:00</time></trkpt><trkpt lat="22.066526" lon="103.890984"><ele>700.1</ele><time>2011-04-26T01:58:05.0000000+00:00</time></trkpt><trkpt lat="22.066526" lon="103.891068"><ele>699.5</ele><time>2011-04-26T01:58:10.0000000+00:00</time></trkpt><trkpt lat="22.066532" lon="103.891151"><ele>699.8</ele><time>2011-04-26T01:58:15.0000000+00:00</time></trkpt><trkpt lat="22.066532" lon="103.891228"><ele>699.9</ele><time>2011-04-26T01:58:20.0000000+00:00</time></trkpt><trkpt lat="22.066536" lon="103.891312"><ele>699.9</ele><time>2011-04-26T01:58:25.0000000+00:00</time></trkpt><trkpt lat="22.066525" lon="103.89138"><ele>700.7</ele><time>2011-04-26T01:58:30.0000000+00:00</time></trkpt><trkpt lat="22.066519" lon="103.891449"><ele>701.1</ele><time>2011-04-26T01:58:35.0000000+00:00</time></trkpt><trkpt lat="22.066507" lon="103.891518"><ele>701.7</ele><time>2011-04-26T01:58:40.0000000+00:00</time></trkpt><trkpt lat="22.066496" lon="103.891586"><ele>701.8</ele><time>2011-04-26T01:58:45.0000000+00:00</time></trkpt><trkpt lat="22.066481" lon="103.89167"><ele>702.4</ele><time>2011-04-26T01:58:50.0000000+00:00</time></trkpt><trkpt lat="22.066475" lon="103.891739"><ele>702.7</ele><time>2011-04-26T01:58:55.0000000+00:00</time></trkpt><trkpt lat="22.066465" lon="103.891815"><ele>702.9</ele><time>2011-04-26T01:59:00.0000000+00:00</time></trkpt><trkpt lat="22.066441" lon="103.891914"><ele>703.4</ele><time>2011-04-26T01:59:05.0000000+00:00</time></trkpt><trkpt lat="22.066414" lon="103.892014"><ele>703.6</ele><time>2011-04-26T01:59:10.0000000+00:00</time></trkpt><trkpt lat="22.066372" lon="103.892136"><ele>705.0</ele><time>2011-04-26T01:59:15.0000000+00:00</time></trkpt><trkpt lat="22.066311" lon="103.892281"><ele>704.5</ele><time>2011-04-26T01:59:20.0000000+00:00</time></trkpt><trkpt lat="22.066221" lon="103.892448"><ele>703.9</ele><time>2011-04-26T01:59:25.0000000+00:00</time></trkpt><trkpt lat="22.066107" lon="103.892639"><ele>703.9</ele><time>2011-04-26T01:59:30.0000000+00:00</time></trkpt><trkpt lat="22.065985" lon="103.892807"><ele>703.4</ele><time>2011-04-26T01:59:35.0000000+00:00</time></trkpt><trkpt lat="22.065844" lon="103.892967"><ele>704.0</ele><time>2011-04-26T01:59:40.0000000+00:00</time></trkpt><trkpt lat="22.06572" lon="103.893112"><ele>704.2</ele><time>2011-04-26T01:59:45.0000000+00:00</time></trkpt><trkpt lat="22.065598" lon="103.893242"><ele>704.4</ele><time>2011-04-26T01:59:50.0000000+00:00</time></trkpt><trkpt lat="22.065489" lon="103.893372"><ele>704.9</ele><time>2011-04-26T01:59:55.0000000+00:00</time></trkpt><trkpt lat="22.065386" lon="103.893478"><ele>705.1</ele><time>2011-04-26T02:00:00.0000000+00:00</time></trkpt><trkpt lat="22.065279" lon="103.8936"><ele>705.1</ele><time>2011-04-26T02:00:05.0000000+00:00</time></trkpt><trkpt lat="22.065205" lon="103.8937"><ele>705.4</ele><time>2011-04-26T02:00:10.0000000+00:00</time></trkpt><trkpt lat="22.065115" lon="103.893806"><ele>705.6</ele><time>2011-04-26T02:00:15.0000000+00:00</time></trkpt><trkpt lat="22.065008" lon="103.893921"><ele>706.0</ele><time>2011-04-26T02:00:20.0000000+00:00</time></trkpt><trkpt lat="22.064911" lon="103.894035"><ele>707.6</ele><time>2011-04-26T02:00:25.0000000+00:00</time></trkpt><trkpt lat="22.064831" lon="103.894142"><ele>707.6</ele><time>2011-04-26T02:00:30.0000000+00:00</time></trkpt><trkpt lat="22.064745" lon="103.894249"><ele>707.8</ele><time>2011-04-26T02:00:35.0000000+00:00</time></trkpt><trkpt lat="22.064653" lon="103.894356"><ele>707.7</ele><time>2011-04-26T02:00:40.0000000+00:00</time></trkpt><trkpt lat="22.064587" lon="103.894424"><ele>708.5</ele><time>2011-04-26T02:00:45.0000000+00:00</time></trkpt><trkpt lat="22.064529" lon="103.894493"><ele>708.9</ele><time>2011-04-26T02:00:50.0000000+00:00</time></trkpt><trkpt lat="22.064434" lon="103.894585"><ele>709.9</ele><time>2011-04-26T02:00:55.0000000+00:00</time></trkpt><trkpt lat="22.064363" lon="103.894669"><ele>711.1</ele><time>2011-04-26T02:01:00.0000000+00:00</time></trkpt><trkpt lat="22.064312" lon="103.894745"><ele>713.0</ele><time>2011-04-26T02:01:05.0000000+00:00</time></trkpt><trkpt lat="22.064253" lon="103.894806"><ele>714.6</ele><time>2011-04-26T02:01:10.0000000+00:00</time></trkpt><trkpt lat="22.064211" lon="103.894859"><ele>715.1</ele><time>2011-04-26T02:01:15.0000000+00:00</time></trkpt><trkpt lat="22.064207" lon="103.894867"><ele>715.3</ele><time>2011-04-26T02:01:20.0000000+00:00</time></trkpt><trkpt lat="22.064209" lon="103.894867"><ele>715.4</ele><time>2011-04-26T02:01:25.0000000+00:00</time></trkpt><trkpt lat="22.064211" lon="103.894875"><ele>715.4</ele><time>2011-04-26T02:01:30.0000000+00:00</time></trkpt><trkpt lat="22.064213" lon="103.894875"><ele>715.4</ele><time>2011-04-26T02:01:35.0000000+00:00</time></trkpt><trkpt lat="22.064213" lon="103.894882"><ele>715.4</ele><time>2011-04-26T02:01:40.0000000+00:00</time></trkpt><trkpt lat="22.064213" lon="103.894882"><ele>715.4</ele><time>2011-04-26T02:01:45.0000000+00:00</time></trkpt><trkpt lat="22.064215" lon="103.894882"><ele>715.4</ele><time>2011-04-26T02:01:50.0000000+00:00</time></trkpt><trkpt lat="22.064217" lon="103.894882"><ele>715.4</ele><time>2011-04-26T02:01:55.0000000+00:00</time></trkpt><trkpt lat="22.064217" lon="103.89489"><ele>715.4</ele><time>2011-04-26T02:02:00.0000000+00:00</time></trkpt><trkpt lat="22.064217" lon="103.894897"><ele>715.4</ele><time>2011-04-26T02:02:05.0000000+00:00</time></trkpt><trkpt lat="22.064219" lon="103.894897"><ele>715.4</ele><time>2011-04-26T02:02:10.0000000+00:00</time></trkpt><trkpt lat="22.064219" lon="103.894897"><ele>715.6</ele><time>2011-04-26T02:02:15.0000000+00:00</time></trkpt><trkpt lat="22.064219" lon="103.894897"><ele>715.6</ele><time>2011-04-26T02:02:20.0000000+00:00</time></trkpt><trkpt lat="22.064219" lon="103.894897"><ele>715.6</ele><time>2011-04-26T02:02:25.0000000+00:00</time></trkpt><trkpt lat="22.064219" lon="103.894897"><ele>715.6</ele><time>2011-04-26T02:02:30.0000000+00:00</time></trkpt><trkpt lat="22.064219" lon="103.894897"><ele>715.6</ele><time>2011-04-26T02:02:35.0000000+00:00</time></trkpt><trkpt lat="22.064219" lon="103.89489"><ele>715.5</ele><time>2011-04-26T02:02:40.0000000+00:00</time></trkpt><trkpt lat="22.064219" lon="103.89489"><ele>715.5</ele><time>2011-04-26T02:02:45.0000000+00:00</time></trkpt><trkpt lat="22.064219" lon="103.89489"><ele>715.5</ele><time>2011-04-26T02:02:50.0000000+00:00</time></trkpt><trkpt lat="22.064219" lon="103.89489"><ele>715.5</ele><time>2011-04-26T02:02:55.0000000+00:00</time></trkpt><trkpt lat="22.064219" lon="103.89489"><ele>715.5</ele><time>2011-04-26T02:03:00.0000000+00:00</time></trkpt><trkpt lat="22.064219" lon="103.89489"><ele>715.5</ele><time>2011-04-26T02:03:05.0000000+00:00</time></trkpt><trkpt lat="22.064219" lon="103.89489"><ele>715.5</ele><time>2011-04-26T02:03:10.0000000+00:00</time></trkpt><trkpt lat="22.064177" lon="103.894936"><ele>714.8</ele><time>2011-04-26T02:03:15.0000000+00:00</time></trkpt><trkpt lat="22.064102" lon="103.895004"><ele>714.9</ele><time>2011-04-26T02:03:20.0000000+00:00</time></trkpt><trkpt lat="22.06403" lon="103.895073"><ele>715.6</ele><time>2011-04-26T02:03:25.0000000+00:00</time></trkpt><trkpt lat="22.063961" lon="103.895134"><ele>716.3</ele><time>2011-04-26T02:03:30.0000000+00:00</time></trkpt><trkpt lat="22.063889" lon="103.89521"><ele>717.7</ele><time>2011-04-26T02:03:35.0000000+00:00</time></trkpt><trkpt lat="22.063829" lon="103.895294"><ele>719.4</ele><time>2011-04-26T02:03:40.0000000+00:00</time></trkpt><trkpt lat="22.063766" lon="103.895386"><ele>720.5</ele><time>2011-04-26T02:03:45.0000000+00:00</time></trkpt><trkpt lat="22.063698" lon="103.895462"><ele>722.1</ele><time>2011-04-26T02:03:50.0000000+00:00</time></trkpt><trkpt lat="22.063608" lon="103.895561"><ele>720.6</ele><time>2011-04-26T02:03:55.0000000+00:00</time></trkpt><trkpt lat="22.063517" lon="103.895668"><ele>719.7</ele><time>2011-04-26T02:04:00.0000000+00:00</time></trkpt><trkpt lat="22.063416" lon="103.895782"><ele>719.3</ele><time>2011-04-26T02:04:05.0000000+00:00</time></trkpt><trkpt lat="22.063309" lon="103.895889"><ele>719.9</ele><time>2011-04-26T02:04:10.0000000+00:00</time></trkpt><trkpt lat="22.063181" lon="103.895981"><ele>719.9</ele><time>2011-04-26T02:04:15.0000000+00:00</time></trkpt><trkpt lat="22.063034" lon="103.896057"><ele>720.2</ele><time>2011-04-26T02:04:20.0000000+00:00</time></trkpt><trkpt lat="22.062893" lon="103.896126"><ele>720.3</ele><time>2011-04-26T02:04:25.0000000+00:00</time></trkpt><trkpt lat="22.062748" lon="103.896202"><ele>721.1</ele><time>2011-04-26T02:04:30.0000000+00:00</time></trkpt><trkpt lat="22.062599" lon="103.896286"><ele>720.8</ele><time>2011-04-26T02:04:35.0000000+00:00</time></trkpt><trkpt lat="22.062464" lon="103.89637"><ele>720.8</ele><time>2011-04-26T02:04:40.0000000+00:00</time></trkpt><trkpt lat="22.062309" lon="103.896454"><ele>720.9</ele><time>2011-04-26T02:04:45.0000000+00:00</time></trkpt><trkpt lat="22.062168" lon="103.896538"><ele>721.0</ele><time>2011-04-26T02:04:50.0000000+00:00</time></trkpt><trkpt lat="22.062031" lon="103.896614"><ele>720.7</ele><time>2011-04-26T02:04:55.0000000+00:00</time></trkpt><trkpt lat="22.061893" lon="103.89669"><ele>720.6</ele><time>2011-04-26T02:05:00.0000000+00:00</time></trkpt><trkpt lat="22.061768" lon="103.896759"><ele>721.3</ele><time>2011-04-26T02:05:05.0000000+00:00</time></trkpt><trkpt lat="22.061638" lon="103.896835"><ele>722.1</ele><time>2011-04-26T02:05:10.0000000+00:00</time></trkpt><trkpt lat="22.061514" lon="103.896912"><ele>723.9</ele><time>2011-04-26T02:05:15.0000000+00:00</time></trkpt><trkpt lat="22.061378" lon="103.896988"><ele>724.4</ele><time>2011-04-26T02:05:20.0000000+00:00</time></trkpt><trkpt lat="22.061274" lon="103.897057"><ele>725.0</ele><time>2011-04-26T02:05:25.0000000+00:00</time></trkpt><trkpt lat="22.061146" lon="103.897125"><ele>725.1</ele><time>2011-04-26T02:05:30.0000000+00:00</time></trkpt><trkpt lat="22.061005" lon="103.897209"><ele>726.3</ele><time>2011-04-26T02:05:35.0000000+00:00</time></trkpt><trkpt lat="22.060852" lon="103.897308"><ele>726.6</ele><time>2011-04-26T02:05:40.0000000+00:00</time></trkpt><trkpt lat="22.060724" lon="103.897385"><ele>726.4</ele><time>2011-04-26T02:05:45.0000000+00:00</time></trkpt><trkpt lat="22.060581" lon="103.89743"><ele>726.2</ele><time>2011-04-26T02:05:50.0000000+00:00</time></trkpt><trkpt lat="22.060341" lon="103.897568"><ele>726.1</ele><time>2011-04-26T02:05:55.0000000+00:00</time></trkpt><trkpt lat="22.060022" lon="103.897728"><ele>725.3</ele><time>2011-04-26T02:06:00.0000000+00:00</time></trkpt><trkpt lat="22.059763" lon="103.897949"><ele>724.6</ele><time>2011-04-26T02:06:05.0000000+00:00</time></trkpt><trkpt lat="22.059608" lon="103.898239"><ele>724.7</ele><time>2011-04-26T02:06:10.0000000+00:00</time></trkpt><trkpt lat="22.059536" lon="103.898567"><ele>725.1</ele><time>2011-04-26T02:06:15.0000000+00:00</time></trkpt><trkpt lat="22.059528" lon="103.89888"><ele>725.0</ele><time>2011-04-26T02:06:20.0000000+00:00</time></trkpt><trkpt lat="22.059557" lon="103.89917"><ele>722.1</ele><time>2011-04-26T02:06:25.0000000+00:00</time></trkpt><trkpt lat="22.059547" lon="103.899353"><ele>720.7</ele><time>2011-04-26T02:06:30.0000000+00:00</time></trkpt><trkpt lat="22.05954" lon="103.89949"><ele>720.6</ele><time>2011-04-26T02:06:35.0000000+00:00</time></trkpt><trkpt lat="22.059486" lon="103.899681"><ele>720.8</ele><time>2011-04-26T02:06:40.0000000+00:00</time></trkpt><trkpt lat="22.059341" lon="103.899879"><ele>721.2</ele><time>2011-04-26T02:06:45.0000000+00:00</time></trkpt><trkpt lat="22.059134" lon="103.900032"><ele>721.5</ele><time>2011-04-26T02:06:50.0000000+00:00</time></trkpt><trkpt lat="22.058882" lon="103.900169"><ele>722.3</ele><time>2011-04-26T02:06:55.0000000+00:00</time></trkpt><trkpt lat="22.058613" lon="103.900215"><ele>722.9</ele><time>2011-04-26T02:07:00.0000000+00:00</time></trkpt><trkpt lat="22.058308" lon="103.900169"><ele>722.4</ele><time>2011-04-26T02:07:05.0000000+00:00</time></trkpt><trkpt lat="22.05802" lon="103.900108"><ele>722.6</ele><time>2011-04-26T02:07:10.0000000+00:00</time></trkpt><trkpt lat="22.057728" lon="103.900047"><ele>723.5</ele><time>2011-04-26T02:07:15.0000000+00:00</time></trkpt><trkpt lat="22.057434" lon="103.899963"><ele>724.3</ele><time>2011-04-26T02:07:20.0000000+00:00</time></trkpt><trkpt lat="22.057158" lon="103.899971"><ele>725.3</ele><time>2011-04-26T02:07:25.0000000+00:00</time></trkpt><trkpt lat="22.056889" lon="103.900032"><ele>726.3</ele><time>2011-04-26T02:07:30.0000000+00:00</time></trkpt><trkpt lat="22.056589" lon="103.900253"><ele>727.4</ele><time>2011-04-26T02:07:35.0000000+00:00</time></trkpt><trkpt lat="22.056236" lon="103.90065"><ele>728.3</ele><time>2011-04-26T02:07:40.0000000+00:00</time></trkpt><trkpt lat="22.055855" lon="103.901093"><ele>729.1</ele><time>2011-04-26T02:07:45.0000000+00:00</time></trkpt><trkpt lat="22.055519" lon="103.901657"><ele>727.8</ele><time>2011-04-26T02:07:50.0000000+00:00</time></trkpt><trkpt lat="22.055317" lon="103.902206"><ele>727.7</ele><time>2011-04-26T02:07:55.0000000+00:00</time></trkpt><trkpt lat="22.055077" lon="103.902817"><ele>727.4</ele><time>2011-04-26T02:08:00.0000000+00:00</time></trkpt><trkpt lat="22.054852" lon="103.903381"><ele>728.0</ele><time>2011-04-26T02:08:05.0000000+00:00</time></trkpt><trkpt lat="22.054552" lon="103.903831"><ele>728.8</ele><time>2011-04-26T02:08:10.0000000+00:00</time></trkpt><trkpt lat="22.054203" lon="103.904182"><ele>729.9</ele><time>2011-04-26T02:08:15.0000000+00:00</time></trkpt><trkpt lat="22.053757" lon="103.904297"><ele>730.6</ele><time>2011-04-26T02:08:20.0000000+00:00</time></trkpt><trkpt lat="22.053347" lon="103.904419"><ele>731.4</ele><time>2011-04-26T02:08:25.0000000+00:00</time></trkpt><trkpt lat="22.053005" lon="103.904686"><ele>732.5</ele><time>2011-04-26T02:08:30.0000000+00:00</time></trkpt><trkpt lat="22.052711" lon="103.905106"><ele>731.4</ele><time>2011-04-26T02:08:35.0000000+00:00</time></trkpt><trkpt lat="22.052464" lon="103.905518"><ele>728.1</ele><time>2011-04-26T02:08:40.0000000+00:00</time></trkpt><trkpt lat="22.052319" lon="103.906006"><ele>721.6</ele><time>2011-04-26T02:08:45.0000000+00:00</time></trkpt><trkpt lat="22.052259" lon="103.906525"><ele>715.7</ele><time>2011-04-26T02:08:50.0000000+00:00</time></trkpt><trkpt lat="22.052179" lon="103.907028"><ele>715.1</ele><time>2011-04-26T02:08:55.0000000+00:00</time></trkpt><trkpt lat="22.051975" lon="103.907387"><ele>714.7</ele><time>2011-04-26T02:09:00.0000000+00:00</time></trkpt><trkpt lat="22.051733" lon="103.907661"><ele>714.6</ele><time>2011-04-26T02:09:05.0000000+00:00</time></trkpt><trkpt lat="22.051521" lon="103.907928"><ele>714.4</ele><time>2011-04-26T02:09:10.0000000+00:00</time></trkpt><trkpt lat="22.051315" lon="103.908203"><ele>714.4</ele><time>2011-04-26T02:09:15.0000000+00:00</time></trkpt><trkpt lat="22.05113" lon="103.90847"><ele>714.1</ele><time>2011-04-26T02:09:20.0000000+00:00</time></trkpt><trkpt lat="22.050982" lon="103.908722"><ele>714.1</ele><time>2011-04-26T02:09:25.0000000+00:00</time></trkpt><trkpt lat="22.050797" lon="103.908966"><ele>714.4</ele><time>2011-04-26T02:09:30.0000000+00:00</time></trkpt><trkpt lat="22.050606" lon="103.909195"><ele>711.0</ele><time>2011-04-26T02:09:35.0000000+00:00</time></trkpt><trkpt lat="22.050278" lon="103.909355"><ele>707.7</ele><time>2011-04-26T02:09:40.0000000+00:00</time></trkpt><trkpt lat="22.049892" lon="103.909508"><ele>703.1</ele><time>2011-04-26T02:09:45.0000000+00:00</time></trkpt><trkpt lat="22.049612" lon="103.909584"><ele>701.5</ele><time>2011-04-26T02:09:50.0000000+00:00</time></trkpt><trkpt lat="22.049461" lon="103.909676"><ele>697.4</ele><time>2011-04-26T02:09:55.0000000+00:00</time></trkpt><trkpt lat="22.04929" lon="103.909798"><ele>692.0</ele><time>2011-04-26T02:10:00.0000000+00:00</time></trkpt><trkpt lat="22.049086" lon="103.909866"><ele>689.2</ele><time>2011-04-26T02:10:05.0000000+00:00</time></trkpt><trkpt lat="22.048855" lon="103.90992"><ele>687.4</ele><time>2011-04-26T02:10:10.0000000+00:00</time></trkpt><trkpt lat="22.048519" lon="103.910034"><ele>681.5</ele><time>2011-04-26T02:10:15.0000000+00:00</time></trkpt><trkpt lat="22.048147" lon="103.910301"><ele>674.1</ele><time>2011-04-26T02:10:20.0000000+00:00</time></trkpt><trkpt lat="22.047718" lon="103.910622"><ele>667.4</ele><time>2011-04-26T02:10:25.0000000+00:00</time></trkpt><trkpt lat="22.047239" lon="103.91098"><ele>661.0</ele><time>2011-04-26T02:10:30.0000000+00:00</time></trkpt><trkpt lat="22.046751" lon="103.911385"><ele>654.3</ele><time>2011-04-26T02:10:35.0000000+00:00</time></trkpt><trkpt lat="22.046276" lon="103.911835"><ele>648.8</ele><time>2011-04-26T02:10:40.0000000+00:00</time></trkpt><trkpt lat="22.045792" lon="103.912315"><ele>643.9</ele><time>2011-04-26T02:10:45.0000000+00:00</time></trkpt><trkpt lat="22.045319" lon="103.912781"><ele>638.3</ele><time>2011-04-26T02:10:50.0000000+00:00</time></trkpt><trkpt lat="22.044882" lon="103.913208"><ele>633.4</ele><time>2011-04-26T02:10:55.0000000+00:00</time></trkpt><trkpt lat="22.044477" lon="103.913612"><ele>629.2</ele><time>2011-04-26T02:11:00.0000000+00:00</time></trkpt><trkpt lat="22.044123" lon="103.913956"><ele>625.2</ele><time>2011-04-26T02:11:05.0000000+00:00</time></trkpt><trkpt lat="22.043758" lon="103.914284"><ele>621.6</ele><time>2011-04-26T02:11:10.0000000+00:00</time></trkpt><trkpt lat="22.043367" lon="103.914566"><ele>617.8</ele><time>2011-04-26T02:11:15.0000000+00:00</time></trkpt><trkpt lat="22.04295" lon="103.914764"><ele>614.3</ele><time>2011-04-26T02:11:20.0000000+00:00</time></trkpt><trkpt lat="22.04253" lon="103.914886"><ele>612.6</ele><time>2011-04-26T02:11:25.0000000+00:00</time></trkpt><trkpt lat="22.041992" lon="103.915016"><ele>610.9</ele><time>2011-04-26T02:11:30.0000000+00:00</time></trkpt><trkpt lat="22.041405" lon="103.915207"><ele>607.3</ele><time>2011-04-26T02:11:35.0000000+00:00</time></trkpt><trkpt lat="22.040869" lon="103.915352"><ele>603.6</ele><time>2011-04-26T02:11:40.0000000+00:00</time></trkpt><trkpt lat="22.040346" lon="103.91552"><ele>600.1</ele><time>2011-04-26T02:11:45.0000000+00:00</time></trkpt><trkpt lat="22.039846" lon="103.915665"><ele>592.9</ele><time>2011-04-26T02:11:50.0000000+00:00</time></trkpt><trkpt lat="22.039343" lon="103.915833"><ele>592.0</ele><time>2011-04-26T02:11:55.0000000+00:00</time></trkpt><trkpt lat="22.038893" lon="103.915977"><ele>591.8</ele><time>2011-04-26T02:12:00.0000000+00:00</time></trkpt><trkpt lat="22.038502" lon="103.916092"><ele>591.8</ele><time>2011-04-26T02:12:05.0000000+00:00</time></trkpt><trkpt lat="22.038137" lon="103.916199"><ele>591.3</ele><time>2011-04-26T02:12:10.0000000+00:00</time></trkpt><trkpt lat="22.037815" lon="103.91629"><ele>590.9</ele><time>2011-04-26T02:12:15.0000000+00:00</time></trkpt><trkpt lat="22.037525" lon="103.916382"><ele>590.7</ele><time>2011-04-26T02:12:20.0000000+00:00</time></trkpt><trkpt lat="22.037241" lon="103.916473"><ele>591.8</ele><time>2011-04-26T02:12:25.0000000+00:00</time></trkpt><trkpt lat="22.036947" lon="103.916527"><ele>591.5</ele><time>2011-04-26T02:12:30.0000000+00:00</time></trkpt><trkpt lat="22.036665" lon="103.916519"><ele>592.8</ele><time>2011-04-26T02:12:35.0000000+00:00</time></trkpt><trkpt lat="22.036413" lon="103.916443"><ele>594.5</ele><time>2011-04-26T02:12:40.0000000+00:00</time></trkpt><trkpt lat="22.036182" lon="103.916351"><ele>595.7</ele><time>2011-04-26T02:12:45.0000000+00:00</time></trkpt><trkpt lat="22.035929" lon="103.916252"><ele>596.3</ele><time>2011-04-26T02:12:50.0000000+00:00</time></trkpt><trkpt lat="22.035637" lon="103.916145"><ele>596.9</ele><time>2011-04-26T02:12:55.0000000+00:00</time></trkpt><trkpt lat="22.035309" lon="103.916023"><ele>597.3</ele><time>2011-04-26T02:13:00.0000000+00:00</time></trkpt><trkpt lat="22.034975" lon="103.915886"><ele>597.4</ele><time>2011-04-26T02:13:05.0000000+00:00</time></trkpt><trkpt lat="22.034693" lon="103.915787"><ele>597.7</ele><time>2011-04-26T02:13:10.0000000+00:00</time></trkpt><trkpt lat="22.034443" lon="103.915695"><ele>598.6</ele><time>2011-04-26T02:13:15.0000000+00:00</time></trkpt><trkpt lat="22.034239" lon="103.915627"><ele>600.2</ele><time>2011-04-26T02:13:20.0000000+00:00</time></trkpt><trkpt lat="22.034061" lon="103.915558"><ele>601.5</ele><time>2011-04-26T02:13:25.0000000+00:00</time></trkpt><trkpt lat="22.033915" lon="103.915504"><ele>602.2</ele><time>2011-04-26T02:13:30.0000000+00:00</time></trkpt><trkpt lat="22.033794" lon="103.915451"><ele>603.0</ele><time>2011-04-26T02:13:35.0000000+00:00</time></trkpt><trkpt lat="22.033627" lon="103.915382"><ele>603.4</ele><time>2011-04-26T02:13:40.0000000+00:00</time></trkpt><trkpt lat="22.033396" lon="103.915291"><ele>603.4</ele><time>2011-04-26T02:13:45.0000000+00:00</time></trkpt><trkpt lat="22.033085" lon="103.915215"><ele>603.1</ele><time>2011-04-26T02:13:50.0000000+00:00</time></trkpt><trkpt lat="22.032721" lon="103.9151"><ele>601.9</ele><time>2011-04-26T02:13:55.0000000+00:00</time></trkpt><trkpt lat="22.032503" lon="103.915009"><ele>600.0</ele><time>2011-04-26T02:14:00.0000000+00:00</time></trkpt><trkpt lat="22.032431" lon="103.914955"><ele>597.4</ele><time>2011-04-26T02:14:05.0000000+00:00</time></trkpt><trkpt lat="22.03231" lon="103.914902"><ele>595.3</ele><time>2011-04-26T02:14:10.0000000+00:00</time></trkpt><trkpt lat="22.03219" lon="103.914856"><ele>594.1</ele><time>2011-04-26T02:14:15.0000000+00:00</time></trkpt><trkpt lat="22.032053" lon="103.914818"><ele>593.0</ele><time>2011-04-26T02:14:20.0000000+00:00</time></trkpt><trkpt lat="22.031965" lon="103.914787"><ele>591.9</ele><time>2011-04-26T02:14:25.0000000+00:00</time></trkpt><trkpt lat="22.0319" lon="103.914749"><ele>590.9</ele><time>2011-04-26T02:14:30.0000000+00:00</time></trkpt><trkpt lat="22.031839" lon="103.914711"><ele>589.7</ele><time>2011-04-26T02:14:35.0000000+00:00</time></trkpt><trkpt lat="22.031763" lon="103.914658"><ele>589.0</ele><time>2011-04-26T02:14:40.0000000+00:00</time></trkpt><trkpt lat="22.03161" lon="103.914513"><ele>587.3</ele><time>2011-04-26T02:14:45.0000000+00:00</time></trkpt><trkpt lat="22.031363" lon="103.914276"><ele>585.7</ele><time>2011-04-26T02:14:50.0000000+00:00</time></trkpt><trkpt lat="22.031055" lon="103.913971"><ele>583.5</ele><time>2011-04-26T02:14:55.0000000+00:00</time></trkpt><trkpt lat="22.030701" lon="103.913635"><ele>581.1</ele><time>2011-04-26T02:15:00.0000000+00:00</time></trkpt><trkpt lat="22.030319" lon="103.913445"><ele>578.6</ele><time>2011-04-26T02:15:05.0000000+00:00</time></trkpt><trkpt lat="22.029852" lon="103.913399"><ele>575.4</ele><time>2011-04-26T02:15:10.0000000+00:00</time></trkpt><trkpt lat="22.029329" lon="103.913338"><ele>572.1</ele><time>2011-04-26T02:15:15.0000000+00:00</time></trkpt><trkpt lat="22.028763" lon="103.913399"><ele>568.8</ele><time>2011-04-26T02:15:20.0000000+00:00</time></trkpt><trkpt lat="22.02824" lon="103.913673"><ele>565.4</ele><time>2011-04-26T02:15:25.0000000+00:00</time></trkpt><trkpt lat="22.027779" lon="103.913948"><ele>562.6</ele><time>2011-04-26T02:15:30.0000000+00:00</time></trkpt><trkpt lat="22.027342" lon="103.914207"><ele>559.8</ele><time>2011-04-26T02:15:35.0000000+00:00</time></trkpt><trkpt lat="22.026943" lon="103.914429"><ele>557.4</ele><time>2011-04-26T02:15:40.0000000+00:00</time></trkpt><trkpt lat="22.026564" lon="103.914673"><ele>555.6</ele><time>2011-04-26T02:15:45.0000000+00:00</time></trkpt><trkpt lat="22.026163" lon="103.914833"><ele>553.9</ele><time>2011-04-26T02:15:50.0000000+00:00</time></trkpt><trkpt lat="22.025759" lon="103.914803"><ele>552.5</ele><time>2011-04-26T02:15:55.0000000+00:00</time></trkpt><trkpt lat="22.025349" lon="103.914749"><ele>551.1</ele><time>2011-04-26T02:16:00.0000000+00:00</time></trkpt><trkpt lat="22.024948" lon="103.914642"><ele>550.4</ele><time>2011-04-26T02:16:05.0000000+00:00</time></trkpt><trkpt lat="22.024563" lon="103.914467"><ele>549.2</ele><time>2011-04-26T02:16:10.0000000+00:00</time></trkpt><trkpt lat="22.024191" lon="103.91433"><ele>548.6</ele><time>2011-04-26T02:16:15.0000000+00:00</time></trkpt><trkpt lat="22.023769" lon="103.914223"><ele>547.2</ele><time>2011-04-26T02:16:20.0000000+00:00</time></trkpt><trkpt lat="22.023323" lon="103.914268"><ele>545.9</ele><time>2011-04-26T02:16:25.0000000+00:00</time></trkpt><trkpt lat="22.022949" lon="103.914406"><ele>544.5</ele><time>2011-04-26T02:16:30.0000000+00:00</time></trkpt><trkpt lat="22.022619" lon="103.914597"><ele>543.2</ele><time>2011-04-26T02:16:35.0000000+00:00</time></trkpt><trkpt lat="22.022312" lon="103.914795"><ele>542.7</ele><time>2011-04-26T02:16:40.0000000+00:00</time></trkpt><trkpt lat="22.021999" lon="103.914955"><ele>542.8</ele><time>2011-04-26T02:16:45.0000000+00:00</time></trkpt><trkpt lat="22.021696" lon="103.915054"><ele>544.9</ele><time>2011-04-26T02:16:50.0000000+00:00</time></trkpt><trkpt lat="22.021442" lon="103.915077"><ele>544.9</ele><time>2011-04-26T02:16:55.0000000+00:00</time></trkpt><trkpt lat="22.021204" lon="103.915092"><ele>544.0</ele><time>2011-04-26T02:17:00.0000000+00:00</time></trkpt><trkpt lat="22.021004" lon="103.915062"><ele>542.4</ele><time>2011-04-26T02:17:05.0000000+00:00</time></trkpt><trkpt lat="22.020842" lon="103.915039"><ele>542.3</ele><time>2011-04-26T02:17:10.0000000+00:00</time></trkpt><trkpt lat="22.020674" lon="103.915024"><ele>541.4</ele><time>2011-04-26T02:17:15.0000000+00:00</time></trkpt><trkpt lat="22.020506" lon="103.915016"><ele>539.9</ele><time>2011-04-26T02:17:20.0000000+00:00</time></trkpt><trkpt lat="22.020351" lon="103.915001"><ele>538.8</ele><time>2011-04-26T02:17:25.0000000+00:00</time></trkpt><trkpt lat="22.02018" lon="103.914978"><ele>538.2</ele><time>2011-04-26T02:17:30.0000000+00:00</time></trkpt><trkpt lat="22.020008" lon="103.914948"><ele>538.8</ele><time>2011-04-26T02:17:35.0000000+00:00</time></trkpt><trkpt lat="22.019789" lon="103.914917"><ele>538.9</ele><time>2011-04-26T02:17:40.0000000+00:00</time></trkpt><trkpt lat="22.019566" lon="103.914886"><ele>538.2</ele><time>2011-04-26T02:17:45.0000000+00:00</time></trkpt><trkpt lat="22.019344" lon="103.914848"><ele>537.4</ele><time>2011-04-26T02:17:50.0000000+00:00</time></trkpt><trkpt lat="22.019121" lon="103.914803"><ele>537.0</ele><time>2011-04-26T02:17:55.0000000+00:00</time></trkpt><trkpt lat="22.018913" lon="103.914787"><ele>535.9</ele><time>2011-04-26T02:18:00.0000000+00:00</time></trkpt><trkpt lat="22.018717" lon="103.914772"><ele>536.1</ele><time>2011-04-26T02:18:05.0000000+00:00</time></trkpt><trkpt lat="22.018499" lon="103.914734"><ele>541.4</ele><time>2011-04-26T02:18:10.0000000+00:00</time></trkpt><trkpt lat="22.018295" lon="103.914688"><ele>546.1</ele><time>2011-04-26T02:18:15.0000000+00:00</time></trkpt><trkpt lat="22.018114" lon="103.91465"><ele>546.2</ele><time>2011-04-26T02:18:20.0000000+00:00</time></trkpt><trkpt lat="22.017914" lon="103.914627"><ele>546.6</ele><time>2011-04-26T02:18:25.0000000+00:00</time></trkpt><trkpt lat="22.017702" lon="103.914612"><ele>547.1</ele><time>2011-04-26T02:18:30.0000000+00:00</time></trkpt><trkpt lat="22.017492" lon="103.914566"><ele>549.4</ele><time>2011-04-26T02:18:35.0000000+00:00</time></trkpt><trkpt lat="22.017309" lon="103.914536"><ele>551.0</ele><time>2011-04-26T02:18:40.0000000+00:00</time></trkpt><trkpt lat="22.017134" lon="103.914505"><ele>552.3</ele><time>2011-04-26T02:18:45.0000000+00:00</time></trkpt><trkpt lat="22.01696" lon="103.914505"><ele>550.2</ele><time>2011-04-26T02:18:50.0000000+00:00</time></trkpt><trkpt lat="22.016788" lon="103.914528"><ele>547.5</ele><time>2011-04-26T02:18:55.0000000+00:00</time></trkpt><trkpt lat="22.016624" lon="103.914635"><ele>546.2</ele><time>2011-04-26T02:19:00.0000000+00:00</time></trkpt><trkpt lat="22.016518" lon="103.914726"><ele>544.5</ele><time>2011-04-26T02:19:05.0000000+00:00</time></trkpt><trkpt lat="22.016447" lon="103.914795"><ele>544.6</ele><time>2011-04-26T02:19:10.0000000+00:00</time></trkpt><trkpt lat="22.01643" lon="103.914856"><ele>544.1</ele><time>2011-04-26T02:19:15.0000000+00:00</time></trkpt><trkpt lat="22.01639" lon="103.914948"><ele>546.0</ele><time>2011-04-26T02:19:20.0000000+00:00</time></trkpt><trkpt lat="22.016375" lon="103.915077"><ele>545.8</ele><time>2011-04-26T02:19:25.0000000+00:00</time></trkpt><trkpt lat="22.016361" lon="103.915184"><ele>547.5</ele><time>2011-04-26T02:19:30.0000000+00:00</time></trkpt><trkpt lat="22.01634" lon="103.915352"><ele>548.0</ele><time>2011-04-26T02:19:35.0000000+00:00</time></trkpt><trkpt lat="22.016331" lon="103.915497"><ele>548.6</ele><time>2011-04-26T02:19:40.0000000+00:00</time></trkpt><trkpt lat="22.01631" lon="103.915672"><ele>549.7</ele><time>2011-04-26T02:19:45.0000000+00:00</time></trkpt><trkpt lat="22.016289" lon="103.915794"><ele>550.8</ele><time>2011-04-26T02:19:50.0000000+00:00</time></trkpt><trkpt lat="22.016272" lon="103.915878"><ele>553.0</ele><time>2011-04-26T02:19:55.0000000+00:00</time></trkpt><trkpt lat="22.016256" lon="103.916"><ele>553.9</ele><time>2011-04-26T02:20:00.0000000+00:00</time></trkpt><trkpt lat="22.016241" lon="103.916145"><ele>555.6</ele><time>2011-04-26T02:20:05.0000000+00:00</time></trkpt><trkpt lat="22.01622" lon="103.91626"><ele>556.9</ele><time>2011-04-26T02:20:10.0000000+00:00</time></trkpt><trkpt lat="22.016197" lon="103.916382"><ele>559.2</ele><time>2011-04-26T02:20:15.0000000+00:00</time></trkpt><trkpt lat="22.016184" lon="103.916481"><ele>560.3</ele><time>2011-04-26T02:20:20.0000000+00:00</time></trkpt><trkpt lat="22.016171" lon="103.916588"><ele>561.6</ele><time>2011-04-26T02:20:25.0000000+00:00</time></trkpt><trkpt lat="22.016161" lon="103.916672"><ele>562.7</ele><time>2011-04-26T02:20:30.0000000+00:00</time></trkpt><trkpt lat="22.016171" lon="103.916748"><ele>564.3</ele><time>2011-04-26T02:20:35.0000000+00:00</time></trkpt><trkpt lat="22.016176" lon="103.916901"><ele>565.1</ele><time>2011-04-26T02:20:40.0000000+00:00</time></trkpt><trkpt lat="22.016178" lon="103.917053"><ele>565.6</ele><time>2011-04-26T02:20:45.0000000+00:00</time></trkpt><trkpt lat="22.016188" lon="103.917191"><ele>565.9</ele><time>2011-04-26T02:20:50.0000000+00:00</time></trkpt><trkpt lat="22.016209" lon="103.917328"><ele>566.4</ele><time>2011-04-26T02:20:55.0000000+00:00</time></trkpt><trkpt lat="22.016226" lon="103.917473"><ele>566.8</ele><time>2011-04-26T02:21:00.0000000+00:00</time></trkpt><trkpt lat="22.016235" lon="103.917633"><ele>568.0</ele><time>2011-04-26T02:21:05.0000000+00:00</time></trkpt><trkpt lat="22.016254" lon="103.91777"><ele>568.4</ele><time>2011-04-26T02:21:10.0000000+00:00</time></trkpt><trkpt lat="22.016275" lon="103.917892"><ele>567.8</ele><time>2011-04-26T02:21:15.0000000+00:00</time></trkpt><trkpt lat="22.016294" lon="103.917976"><ele>566.8</ele><time>2011-04-26T02:21:20.0000000+00:00</time></trkpt><trkpt lat="22.016306" lon="103.918068"><ele>566.9</ele><time>2011-04-26T02:21:25.0000000+00:00</time></trkpt><trkpt lat="22.016342" lon="103.918182"><ele>567.5</ele><time>2011-04-26T02:21:30.0000000+00:00</time></trkpt><trkpt lat="22.016352" lon="103.918304"><ele>567.3</ele><time>2011-04-26T02:21:35.0000000+00:00</time></trkpt><trkpt lat="22.016367" lon="103.918411"><ele>567.3</ele><time>2011-04-26T02:21:40.0000000+00:00</time></trkpt><trkpt lat="22.016386" lon="103.918518"><ele>567.8</ele><time>2011-04-26T02:21:45.0000000+00:00</time></trkpt><trkpt lat="22.016397" lon="103.918633"><ele>566.7</ele><time>2011-04-26T02:21:50.0000000+00:00</time></trkpt><trkpt lat="22.016411" lon="103.918739"><ele>568.0</ele><time>2011-04-26T02:21:55.0000000+00:00</time></trkpt><trkpt lat="22.016428" lon="103.918839"><ele>568.6</ele><time>2011-04-26T02:22:00.0000000+00:00</time></trkpt><trkpt lat="22.016443" lon="103.918953"><ele>569.1</ele><time>2011-04-26T02:22:05.0000000+00:00</time></trkpt><trkpt lat="22.016457" lon="103.919052"><ele>569.9</ele><time>2011-04-26T02:22:10.0000000+00:00</time></trkpt><trkpt lat="22.01647" lon="103.919144"><ele>570.5</ele><time>2011-04-26T02:22:15.0000000+00:00</time></trkpt><trkpt lat="22.016504" lon="103.919235"><ele>570.0</ele><time>2011-04-26T02:22:20.0000000+00:00</time></trkpt><trkpt lat="22.016535" lon="103.919334"><ele>570.4</ele><time>2011-04-26T02:22:25.0000000+00:00</time></trkpt><trkpt lat="22.016571" lon="103.919426"><ele>570.6</ele><time>2011-04-26T02:22:30.0000000+00:00</time></trkpt><trkpt lat="22.016605" lon="103.919525"><ele>571.1</ele><time>2011-04-26T02:22:35.0000000+00:00</time></trkpt><trkpt lat="22.016621" lon="103.91964"><ele>572.2</ele><time>2011-04-26T02:22:40.0000000+00:00</time></trkpt><trkpt lat="22.016642" lon="103.919708"><ele>573.4</ele><time>2011-04-26T02:22:45.0000000+00:00</time></trkpt><trkpt lat="22.016663" lon="103.919777"><ele>574.0</ele><time>2011-04-26T02:22:50.0000000+00:00</time></trkpt><trkpt lat="22.016689" lon="103.919861"><ele>574.9</ele><time>2011-04-26T02:22:55.0000000+00:00</time></trkpt><trkpt lat="22.016724" lon="103.919952"><ele>575.5</ele><time>2011-04-26T02:23:00.0000000+00:00</time></trkpt><trkpt lat="22.016762" lon="103.920052"><ele>576.2</ele><time>2011-04-26T02:23:05.0000000+00:00</time></trkpt><trkpt lat="22.016798" lon="103.920158"><ele>575.9</ele><time>2011-04-26T02:23:10.0000000+00:00</time></trkpt><trkpt lat="22.016825" lon="103.920219"><ele>576.1</ele><time>2011-04-26T02:23:15.0000000+00:00</time></trkpt><trkpt lat="22.016867" lon="103.92028"><ele>576.4</ele><time>2011-04-26T02:23:20.0000000+00:00</time></trkpt><trkpt lat="22.01689" lon="103.920387"><ele>577.3</ele><time>2011-04-26T02:23:25.0000000+00:00</time></trkpt><trkpt lat="22.016932" lon="103.920456"><ele>578.4</ele><time>2011-04-26T02:23:30.0000000+00:00</time></trkpt><trkpt lat="22.01697" lon="103.920525"><ele>579.1</ele><time>2011-04-26T02:23:35.0000000+00:00</time></trkpt><trkpt lat="22.017015" lon="103.92057"><ele>580.4</ele><time>2011-04-26T02:23:40.0000000+00:00</time></trkpt><trkpt lat="22.017065" lon="103.920624"><ele>582.5</ele><time>2011-04-26T02:23:45.0000000+00:00</time></trkpt><trkpt lat="22.017113" lon="103.920692"><ele>584.6</ele><time>2011-04-26T02:23:50.0000000+00:00</time></trkpt><trkpt lat="22.017149" lon="103.920731"><ele>586.7</ele><time>2011-04-26T02:23:55.0000000+00:00</time></trkpt><trkpt lat="22.017221" lon="103.920792"><ele>587.3</ele><time>2011-04-26T02:24:00.0000000+00:00</time></trkpt><trkpt lat="22.017302" lon="103.92083"><ele>589.1</ele><time>2011-04-26T02:24:05.0000000+00:00</time></trkpt><trkpt lat="22.01737" lon="103.920883"><ele>590.4</ele><time>2011-04-26T02:24:10.0000000+00:00</time></trkpt><trkpt lat="22.017441" lon="103.920929"><ele>591.4</ele><time>2011-04-26T02:24:15.0000000+00:00</time></trkpt><trkpt lat="22.017488" lon="103.92099"><ele>592.6</ele><time>2011-04-26T02:24:20.0000000+00:00</time></trkpt><trkpt lat="22.01755" lon="103.921059"><ele>593.2</ele><time>2011-04-26T02:24:25.0000000+00:00</time></trkpt><trkpt lat="22.017614" lon="103.921127"><ele>593.4</ele><time>2011-04-26T02:24:30.0000000+00:00</time></trkpt><trkpt lat="22.017681" lon="103.921181"><ele>593.6</ele><time>2011-04-26T02:24:35.0000000+00:00</time></trkpt><trkpt lat="22.017735" lon="103.921234"><ele>593.8</ele><time>2011-04-26T02:24:40.0000000+00:00</time></trkpt><trkpt lat="22.01779" lon="103.921288"><ele>593.5</ele><time>2011-04-26T02:24:45.0000000+00:00</time></trkpt><trkpt lat="22.017841" lon="103.921349"><ele>594.3</ele><time>2011-04-26T02:24:50.0000000+00:00</time></trkpt><trkpt lat="22.017899" lon="103.921402"><ele>595.4</ele><time>2011-04-26T02:24:55.0000000+00:00</time></trkpt><trkpt lat="22.01796" lon="103.921455"><ele>596.2</ele><time>2011-04-26T02:25:00.0000000+00:00</time></trkpt><trkpt lat="22.01799" lon="103.921532"><ele>597.9</ele><time>2011-04-26T02:25:05.0000000+00:00</time></trkpt><trkpt lat="22.018038" lon="103.9216"><ele>598.0</ele><time>2011-04-26T02:25:10.0000000+00:00</time></trkpt><trkpt lat="22.018068" lon="103.921661"><ele>597.9</ele><time>2011-04-26T02:25:15.0000000+00:00</time></trkpt><trkpt lat="22.018085" lon="103.921745"><ele>598.4</ele><time>2011-04-26T02:25:20.0000000+00:00</time></trkpt><trkpt lat="22.018106" lon="103.921814"><ele>598.8</ele><time>2011-04-26T02:25:25.0000000+00:00</time></trkpt><trkpt lat="22.018135" lon="103.921883"><ele>599.9</ele><time>2011-04-26T02:25:30.0000000+00:00</time></trkpt><trkpt lat="22.018141" lon="103.921967"><ele>600.5</ele><time>2011-04-26T02:25:35.0000000+00:00</time></trkpt><trkpt lat="22.018154" lon="103.922043"><ele>601.0</ele><time>2011-04-26T02:25:40.0000000+00:00</time></trkpt><trkpt lat="22.018175" lon="103.922127"><ele>601.7</ele><time>2011-04-26T02:25:45.0000000+00:00</time></trkpt><trkpt lat="22.0182" lon="103.922226"><ele>602.1</ele><time>2011-04-26T02:25:50.0000000+00:00</time></trkpt><trkpt lat="22.018221" lon="103.922295"><ele>602.3</ele><time>2011-04-26T02:25:55.0000000+00:00</time></trkpt><trkpt lat="22.018238" lon="103.922379"><ele>602.5</ele><time>2011-04-26T02:26:00.0000000+00:00</time></trkpt><trkpt lat="22.018257" lon="103.922478"><ele>601.9</ele><time>2011-04-26T02:26:05.0000000+00:00</time></trkpt><trkpt lat="22.018269" lon="103.922531"><ele>601.9</ele><time>2011-04-26T02:26:10.0000000+00:00</time></trkpt><trkpt lat="22.018291" lon="103.9226"><ele>601.9</ele><time>2011-04-26T02:26:15.0000000+00:00</time></trkpt><trkpt lat="22.018326" lon="103.922676"><ele>601.8</ele><time>2011-04-26T02:26:20.0000000+00:00</time></trkpt><trkpt lat="22.018356" lon="103.922768"><ele>601.6</ele><time>2011-04-26T02:26:25.0000000+00:00</time></trkpt><trkpt lat="22.018375" lon="103.922836"><ele>601.4</ele><time>2011-04-26T02:26:30.0000000+00:00</time></trkpt><trkpt lat="22.018423" lon="103.922913"><ele>601.0</ele><time>2011-04-26T02:26:35.0000000+00:00</time></trkpt><trkpt lat="22.018438" lon="103.922997"><ele>601.0</ele><time>2011-04-26T02:26:40.0000000+00:00</time></trkpt><trkpt lat="22.018475" lon="103.92305"><ele>600.9</ele><time>2011-04-26T02:26:45.0000000+00:00</time></trkpt><trkpt lat="22.018524" lon="103.923141"><ele>600.5</ele><time>2011-04-26T02:26:50.0000000+00:00</time></trkpt><trkpt lat="22.018559" lon="103.923225"><ele>599.6</ele><time>2011-04-26T02:26:55.0000000+00:00</time></trkpt><trkpt lat="22.018589" lon="103.923302"><ele>599.6</ele><time>2011-04-26T02:27:00.0000000+00:00</time></trkpt><trkpt lat="22.018621" lon="103.923393"><ele>600.0</ele><time>2011-04-26T02:27:05.0000000+00:00</time></trkpt><trkpt lat="22.01866" lon="103.923447"><ele>600.2</ele><time>2011-04-26T02:27:10.0000000+00:00</time></trkpt><trkpt lat="22.018711" lon="103.9235"><ele>599.9</ele><time>2011-04-26T02:27:15.0000000+00:00</time></trkpt><trkpt lat="22.018738" lon="103.923576"><ele>599.8</ele><time>2011-04-26T02:27:20.0000000+00:00</time></trkpt><trkpt lat="22.01877" lon="103.923637"><ele>599.5</ele><time>2011-04-26T02:27:25.0000000+00:00</time></trkpt><trkpt lat="22.018805" lon="103.923714"><ele>599.3</ele><time>2011-04-26T02:27:30.0000000+00:00</time></trkpt><trkpt lat="22.018843" lon="103.923782"><ele>599.5</ele><time>2011-04-26T02:27:35.0000000+00:00</time></trkpt><trkpt lat="22.018867" lon="103.923866"><ele>599.4</ele><time>2011-04-26T02:27:40.0000000+00:00</time></trkpt><trkpt lat="22.018913" lon="103.923935"><ele>599.5</ele><time>2011-04-26T02:27:45.0000000+00:00</time></trkpt><trkpt lat="22.01893" lon="103.923996"><ele>598.6</ele><time>2011-04-26T02:27:50.0000000+00:00</time></trkpt><trkpt lat="22.018957" lon="103.924042"><ele>598.3</ele><time>2011-04-26T02:27:55.0000000+00:00</time></trkpt><trkpt lat="22.018993" lon="103.924095"><ele>598.5</ele><time>2011-04-26T02:28:00.0000000+00:00</time></trkpt><trkpt lat="22.01902" lon="103.924164"><ele>599.0</ele><time>2011-04-26T02:28:05.0000000+00:00</time></trkpt><trkpt lat="22.019043" lon="103.924202"><ele>599.1</ele><time>2011-04-26T02:28:10.0000000+00:00</time></trkpt><trkpt lat="22.019037" lon="103.924202"><ele>599.1</ele><time>2011-04-26T02:28:15.0000000+00:00</time></trkpt><trkpt lat="22.019037" lon="103.924202"><ele>599.1</ele><time>2011-04-26T02:28:20.0000000+00:00</time></trkpt><trkpt lat="22.019043" lon="103.924202"><ele>599.1</ele><time>2011-04-26T02:28:25.0000000+00:00</time></trkpt><trkpt lat="22.019043" lon="103.924202"><ele>599.1</ele><time>2011-04-26T02:28:30.0000000+00:00</time></trkpt><trkpt lat="22.019043" lon="103.924194"><ele>599.0</ele><time>2011-04-26T02:28:35.0000000+00:00</time></trkpt><trkpt lat="22.019043" lon="103.924194"><ele>599.0</ele><time>2011-04-26T02:28:40.0000000+00:00</time></trkpt><trkpt lat="22.019043" lon="103.924202"><ele>599.0</ele><time>2011-04-26T02:28:45.0000000+00:00</time></trkpt><trkpt lat="22.019043" lon="103.924202"><ele>599.1</ele><time>2011-04-26T02:28:50.0000000+00:00</time></trkpt><trkpt lat="22.019041" lon="103.924202"><ele>599.1</ele><time>2011-04-26T02:28:55.0000000+00:00</time></trkpt><trkpt lat="22.019041" lon="103.924202"><ele>599.1</ele><time>2011-04-26T02:29:00.0000000+00:00</time></trkpt><trkpt lat="22.019041" lon="103.924202"><ele>599.1</ele><time>2011-04-26T02:29:05.0000000+00:00</time></trkpt><trkpt lat="22.019041" lon="103.924202"><ele>599.1</ele><time>2011-04-26T02:29:10.0000000+00:00</time></trkpt><trkpt lat="22.019041" lon="103.924202"><ele>599.1</ele><time>2011-04-26T02:29:15.0000000+00:00</time></trkpt><trkpt lat="22.019041" lon="103.924202"><ele>599.1</ele><time>2011-04-26T02:29:20.0000000+00:00</time></trkpt><trkpt lat="22.019041" lon="103.924202"><ele>599.1</ele><time>2011-04-26T02:29:25.0000000+00:00</time></trkpt><trkpt lat="22.019041" lon="103.924202"><ele>599.1</ele><time>2011-04-26T02:29:30.0000000+00:00</time></trkpt><trkpt lat="22.019041" lon="103.924202"><ele>599.1</ele><time>2011-04-26T02:29:35.0000000+00:00</time></trkpt><trkpt lat="22.019041" lon="103.924202"><ele>599.1</ele><time>2011-04-26T02:29:40.0000000+00:00</time></trkpt><trkpt lat="22.019041" lon="103.924202"><ele>599.1</ele><time>2011-04-26T02:29:45.0000000+00:00</time></trkpt><trkpt lat="22.019041" lon="103.924202"><ele>599.1</ele><time>2011-04-26T02:29:50.0000000+00:00</time></trkpt><trkpt lat="22.019041" lon="103.924202"><ele>599.1</ele><time>2011-04-26T02:29:55.0000000+00:00</time></trkpt><trkpt lat="22.019041" lon="103.924202"><ele>599.1</ele><time>2011-04-26T02:30:00.0000000+00:00</time></trkpt><trkpt lat="22.019041" lon="103.924202"><ele>599.1</ele><time>2011-04-26T02:30:05.0000000+00:00</time></trkpt><trkpt lat="22.019041" lon="103.924202"><ele>599.1</ele><time>2011-04-26T02:30:10.0000000+00:00</time></trkpt><trkpt lat="22.019041" lon="103.924202"><ele>599.1</ele><time>2011-04-26T02:30:15.0000000+00:00</time></trkpt><trkpt lat="22.019041" lon="103.924202"><ele>599.1</ele><time>2011-04-26T02:30:20.0000000+00:00</time></trkpt><trkpt lat="22.019041" lon="103.924202"><ele>599.1</ele><time>2011-04-26T02:30:25.0000000+00:00</time></trkpt><trkpt lat="22.019041" lon="103.924202"><ele>599.1</ele><time>2011-04-26T02:30:30.0000000+00:00</time></trkpt><trkpt lat="22.019039" lon="103.924202"><ele>599.1</ele><time>2011-04-26T02:30:35.0000000+00:00</time></trkpt><trkpt lat="22.019039" lon="103.924202"><ele>599.1</ele><time>2011-04-26T02:30:40.0000000+00:00</time></trkpt><trkpt lat="22.019039" lon="103.924202"><ele>599.1</ele><time>2011-04-26T02:30:45.0000000+00:00</time></trkpt><trkpt lat="22.019039" lon="103.924202"><ele>599.1</ele><time>2011-04-26T02:30:50.0000000+00:00</time></trkpt><trkpt lat="22.019039" lon="103.924202"><ele>599.1</ele><time>2011-04-26T02:30:55.0000000+00:00</time></trkpt><trkpt lat="22.019039" lon="103.924202"><ele>599.1</ele><time>2011-04-26T02:31:00.0000000+00:00</time></trkpt><trkpt lat="22.019039" lon="103.924202"><ele>599.1</ele><time>2011-04-26T02:31:05.0000000+00:00</time></trkpt><trkpt lat="22.019039" lon="103.924202"><ele>599.1</ele><time>2011-04-26T02:31:10.0000000+00:00</time></trkpt><trkpt lat="22.019039" lon="103.924202"><ele>599.1</ele><time>2011-04-26T02:31:15.0000000+00:00</time></trkpt><trkpt lat="22.019039" lon="103.924202"><ele>599.1</ele><time>2011-04-26T02:31:20.0000000+00:00</time></trkpt><trkpt lat="22.019039" lon="103.924202"><ele>599.1</ele><time>2011-04-26T02:31:25.0000000+00:00</time></trkpt><trkpt lat="22.019039" lon="103.924202"><ele>599.1</ele><time>2011-04-26T02:31:30.0000000+00:00</time></trkpt><trkpt lat="22.019039" lon="103.924202"><ele>599.1</ele><time>2011-04-26T02:31:35.0000000+00:00</time></trkpt><trkpt lat="22.019039" lon="103.924202"><ele>599.1</ele><time>2011-04-26T02:31:40.0000000+00:00</time></trkpt><trkpt lat="22.019039" lon="103.924202"><ele>599.1</ele><time>2011-04-26T02:31:45.0000000+00:00</time></trkpt><trkpt lat="22.019039" lon="103.924202"><ele>599.1</ele><time>2011-04-26T02:31:50.0000000+00:00</time></trkpt><trkpt lat="22.019039" lon="103.924202"><ele>599.1</ele><time>2011-04-26T02:31:55.0000000+00:00</time></trkpt><trkpt lat="22.019039" lon="103.924202"><ele>599.1</ele><time>2011-04-26T02:32:00.0000000+00:00</time></trkpt><trkpt lat="22.019039" lon="103.924202"><ele>599.1</ele><time>2011-04-26T02:32:05.0000000+00:00</time></trkpt><trkpt lat="22.019039" lon="103.924202"><ele>599.1</ele><time>2011-04-26T02:32:10.0000000+00:00</time></trkpt><trkpt lat="22.019045" lon="103.92421"><ele>599.1</ele><time>2011-04-26T02:32:15.0000000+00:00</time></trkpt><trkpt lat="22.019093" lon="103.924271"><ele>599.3</ele><time>2011-04-26T02:32:20.0000000+00:00</time></trkpt><trkpt lat="22.019125" lon="103.924332"><ele>599.8</ele><time>2011-04-26T02:32:25.0000000+00:00</time></trkpt><trkpt lat="22.019127" lon="103.924332"><ele>599.7</ele><time>2011-04-26T02:32:30.0000000+00:00</time></trkpt><trkpt lat="22.019129" lon="103.924347"><ele>599.7</ele><time>2011-04-26T02:32:35.0000000+00:00</time></trkpt><trkpt lat="22.019157" lon="103.924431"><ele>599.9</ele><time>2011-04-26T02:32:40.0000000+00:00</time></trkpt><trkpt lat="22.019205" lon="103.924515"><ele>600.0</ele><time>2011-04-26T02:32:45.0000000+00:00</time></trkpt><trkpt lat="22.019245" lon="103.924622"><ele>600.6</ele><time>2011-04-26T02:32:50.0000000+00:00</time></trkpt><trkpt lat="22.019289" lon="103.924713"><ele>601.0</ele><time>2011-04-26T02:32:55.0000000+00:00</time></trkpt><trkpt lat="22.019352" lon="103.92482"><ele>601.4</ele><time>2011-04-26T02:33:00.0000000+00:00</time></trkpt><trkpt lat="22.01939" lon="103.924919"><ele>601.6</ele><time>2011-04-26T02:33:05.0000000+00:00</time></trkpt><trkpt lat="22.019447" lon="103.925011"><ele>601.9</ele><time>2011-04-26T02:33:10.0000000+00:00</time></trkpt><trkpt lat="22.019508" lon="103.925125"><ele>602.0</ele><time>2011-04-26T02:33:15.0000000+00:00</time></trkpt><trkpt lat="22.019554" lon="103.925201"><ele>601.9</ele><time>2011-04-26T02:33:20.0000000+00:00</time></trkpt><trkpt lat="22.019617" lon="103.925301"><ele>601.6</ele><time>2011-04-26T02:33:25.0000000+00:00</time></trkpt><trkpt lat="22.019667" lon="103.9254"><ele>601.4</ele><time>2011-04-26T02:33:30.0000000+00:00</time></trkpt><trkpt lat="22.019705" lon="103.925507"><ele>601.4</ele><time>2011-04-26T02:33:35.0000000+00:00</time></trkpt><trkpt lat="22.019762" lon="103.925613"><ele>601.3</ele><time>2011-04-26T02:33:40.0000000+00:00</time></trkpt><trkpt lat="22.019817" lon="103.92572"><ele>601.2</ele><time>2011-04-26T02:33:45.0000000+00:00</time></trkpt><trkpt lat="22.019855" lon="103.925842"><ele>601.2</ele><time>2011-04-26T02:33:50.0000000+00:00</time></trkpt><trkpt lat="22.01989" lon="103.925941"><ele>601.1</ele><time>2011-04-26T02:33:55.0000000+00:00</time></trkpt><trkpt lat="22.019938" lon="103.926041"><ele>601.2</ele><time>2011-04-26T02:34:00.0000000+00:00</time></trkpt><trkpt lat="22.019972" lon="103.926147"><ele>600.6</ele><time>2011-04-26T02:34:05.0000000+00:00</time></trkpt><trkpt lat="22.02" lon="103.926247"><ele>600.2</ele><time>2011-04-26T02:34:10.0000000+00:00</time></trkpt><trkpt lat="22.020012" lon="103.926315"><ele>600.2</ele><time>2011-04-26T02:34:15.0000000+00:00</time></trkpt><trkpt lat="22.020042" lon="103.926392"><ele>600.1</ele><time>2011-04-26T02:34:20.0000000+00:00</time></trkpt><trkpt lat="22.020075" lon="103.926483"><ele>599.6</ele><time>2011-04-26T02:34:25.0000000+00:00</time></trkpt><trkpt lat="22.020102" lon="103.926567"><ele>599.1</ele><time>2011-04-26T02:34:30.0000000+00:00</time></trkpt><trkpt lat="22.020128" lon="103.926659"><ele>598.9</ele><time>2011-04-26T02:34:35.0000000+00:00</time></trkpt><trkpt lat="22.020163" lon="103.92675"><ele>599.1</ele><time>2011-04-26T02:34:40.0000000+00:00</time></trkpt><trkpt lat="22.02021" lon="103.926834"><ele>599.1</ele><time>2011-04-26T02:34:45.0000000+00:00</time></trkpt><trkpt lat="22.02026" lon="103.926933"><ele>598.8</ele><time>2011-04-26T02:34:50.0000000+00:00</time></trkpt><trkpt lat="22.020311" lon="103.927032"><ele>599.1</ele><time>2011-04-26T02:34:55.0000000+00:00</time></trkpt><trkpt lat="22.020367" lon="103.927116"><ele>599.8</ele><time>2011-04-26T02:35:00.0000000+00:00</time></trkpt><trkpt lat="22.020454" lon="103.927216"><ele>600.3</ele><time>2011-04-26T02:35:05.0000000+00:00</time></trkpt><trkpt lat="22.020508" lon="103.927277"><ele>600.8</ele><time>2011-04-26T02:35:10.0000000+00:00</time></trkpt><trkpt lat="22.020586" lon="103.927353"><ele>601.1</ele><time>2011-04-26T02:35:15.0000000+00:00</time></trkpt><trkpt lat="22.020662" lon="103.927444"><ele>602.1</ele><time>2011-04-26T02:35:20.0000000+00:00</time></trkpt><trkpt lat="22.020752" lon="103.927544"><ele>602.4</ele><time>2011-04-26T02:35:25.0000000+00:00</time></trkpt><trkpt lat="22.020813" lon="103.927658"><ele>603.1</ele><time>2011-04-26T02:35:30.0000000+00:00</time></trkpt><trkpt lat="22.02087" lon="103.927742"><ele>603.3</ele><time>2011-04-26T02:35:35.0000000+00:00</time></trkpt><trkpt lat="22.020933" lon="103.927834"><ele>603.5</ele><time>2011-04-26T02:35:40.0000000+00:00</time></trkpt><trkpt lat="22.020975" lon="103.92791"><ele>604.3</ele><time>2011-04-26T02:35:45.0000000+00:00</time></trkpt><trkpt lat="22.021027" lon="103.928024"><ele>604.4</ele><time>2011-04-26T02:35:50.0000000+00:00</time></trkpt><trkpt lat="22.02108" lon="103.928116"><ele>604.6</ele><time>2011-04-26T02:35:55.0000000+00:00</time></trkpt><trkpt lat="22.021124" lon="103.928223"><ele>605.0</ele><time>2011-04-26T02:36:00.0000000+00:00</time></trkpt><trkpt lat="22.02116" lon="103.928329"><ele>605.9</ele><time>2011-04-26T02:36:05.0000000+00:00</time></trkpt><trkpt lat="22.021221" lon="103.928406"><ele>606.9</ele><time>2011-04-26T02:36:10.0000000+00:00</time></trkpt><trkpt lat="22.02128" lon="103.928467"><ele>607.8</ele><time>2011-04-26T02:36:15.0000000+00:00</time></trkpt><trkpt lat="22.021303" lon="103.928535"><ele>609.0</ele><time>2011-04-26T02:36:20.0000000+00:00</time></trkpt><trkpt lat="22.021345" lon="103.928604"><ele>609.7</ele><time>2011-04-26T02:36:25.0000000+00:00</time></trkpt><trkpt lat="22.021387" lon="103.928673"><ele>610.4</ele><time>2011-04-26T02:36:30.0000000+00:00</time></trkpt><trkpt lat="22.021429" lon="103.928741"><ele>610.6</ele><time>2011-04-26T02:36:35.0000000+00:00</time></trkpt><trkpt lat="22.021456" lon="103.928802"><ele>611.4</ele><time>2011-04-26T02:36:40.0000000+00:00</time></trkpt><trkpt lat="22.021473" lon="103.928886"><ele>611.6</ele><time>2011-04-26T02:36:45.0000000+00:00</time></trkpt><trkpt lat="22.02149" lon="103.928978"><ele>611.9</ele><time>2011-04-26T02:36:50.0000000+00:00</time></trkpt><trkpt lat="22.021502" lon="103.929062"><ele>613.2</ele><time>2011-04-26T02:36:55.0000000+00:00</time></trkpt><trkpt lat="22.021509" lon="103.929138"><ele>614.3</ele><time>2011-04-26T02:37:00.0000000+00:00</time></trkpt><trkpt lat="22.021523" lon="103.929222"><ele>615.2</ele><time>2011-04-26T02:37:05.0000000+00:00</time></trkpt><trkpt lat="22.021542" lon="103.929314"><ele>615.4</ele><time>2011-04-26T02:37:10.0000000+00:00</time></trkpt><trkpt lat="22.021563" lon="103.929382"><ele>616.3</ele><time>2011-04-26T02:37:15.0000000+00:00</time></trkpt><trkpt lat="22.021574" lon="103.929443"><ele>617.0</ele><time>2011-04-26T02:37:20.0000000+00:00</time></trkpt><trkpt lat="22.021597" lon="103.929497"><ele>618.2</ele><time>2011-04-26T02:37:25.0000000+00:00</time></trkpt><trkpt lat="22.02161" lon="103.929573"><ele>618.6</ele><time>2011-04-26T02:37:30.0000000+00:00</time></trkpt><trkpt lat="22.02162" lon="103.929642"><ele>619.4</ele><time>2011-04-26T02:37:35.0000000+00:00</time></trkpt><trkpt lat="22.021635" lon="103.929718"><ele>620.1</ele><time>2011-04-26T02:37:40.0000000+00:00</time></trkpt><trkpt lat="22.021637" lon="103.929741"><ele>619.9</ele><time>2011-04-26T02:37:45.0000000+00:00</time></trkpt><trkpt lat="22.021643" lon="103.929779"><ele>619.1</ele><time>2011-04-26T02:37:50.0000000+00:00</time></trkpt><trkpt lat="22.021648" lon="103.929855"><ele>619.0</ele><time>2011-04-26T02:37:55.0000000+00:00</time></trkpt><trkpt lat="22.021658" lon="103.929932"><ele>621.0</ele><time>2011-04-26T02:38:00.0000000+00:00</time></trkpt><trkpt lat="22.021671" lon="103.930016"><ele>622.0</ele><time>2011-04-26T02:38:05.0000000+00:00</time></trkpt><trkpt lat="22.021708" lon="103.930099"><ele>621.0</ele><time>2011-04-26T02:38:10.0000000+00:00</time></trkpt><trkpt lat="22.021721" lon="103.930199"><ele>621.4</ele><time>2011-04-26T02:38:15.0000000+00:00</time></trkpt><trkpt lat="22.021732" lon="103.930275"><ele>621.8</ele><time>2011-04-26T02:38:20.0000000+00:00</time></trkpt><trkpt lat="22.021755" lon="103.930367"><ele>621.9</ele><time>2011-04-26T02:38:25.0000000+00:00</time></trkpt><trkpt lat="22.021765" lon="103.93045"><ele>622.6</ele><time>2011-04-26T02:38:30.0000000+00:00</time></trkpt><trkpt lat="22.021761" lon="103.930489"><ele>623.6</ele><time>2011-04-26T02:38:35.0000000+00:00</time></trkpt><trkpt lat="22.021755" lon="103.930481"><ele>624.1</ele><time>2011-04-26T02:38:40.0000000+00:00</time></trkpt><trkpt lat="22.021742" lon="103.930466"><ele>625.7</ele><time>2011-04-26T02:38:45.0000000+00:00</time></trkpt><trkpt lat="22.02174" lon="103.930466"><ele>625.6</ele><time>2011-04-26T02:38:50.0000000+00:00</time></trkpt><trkpt lat="22.021736" lon="103.930466"><ele>625.7</ele><time>2011-04-26T02:38:55.0000000+00:00</time></trkpt><trkpt lat="22.02173" lon="103.930466"><ele>625.9</ele><time>2011-04-26T02:39:00.0000000+00:00</time></trkpt><trkpt lat="22.021725" lon="103.930466"><ele>626.0</ele><time>2011-04-26T02:39:05.0000000+00:00</time></trkpt><trkpt lat="22.021727" lon="103.930466"><ele>626.0</ele><time>2011-04-26T02:39:10.0000000+00:00</time></trkpt><trkpt lat="22.021721" lon="103.930466"><ele>626.4</ele><time>2011-04-26T02:39:15.0000000+00:00</time></trkpt><trkpt lat="22.021717" lon="103.930473"><ele>626.4</ele><time>2011-04-26T02:39:20.0000000+00:00</time></trkpt><trkpt lat="22.02173" lon="103.930489"><ele>626.5</ele><time>2011-04-26T02:39:25.0000000+00:00</time></trkpt><trkpt lat="22.021749" lon="103.930603"><ele>626.4</ele><time>2011-04-26T02:39:30.0000000+00:00</time></trkpt><trkpt lat="22.021759" lon="103.93071"><ele>626.6</ele><time>2011-04-26T02:39:35.0000000+00:00</time></trkpt><trkpt lat="22.021799" lon="103.930809"><ele>627.6</ele><time>2011-04-26T02:39:40.0000000+00:00</time></trkpt><trkpt lat="22.021822" lon="103.930908"><ele>628.0</ele><time>2011-04-26T02:39:45.0000000+00:00</time></trkpt><trkpt lat="22.021847" lon="103.931015"><ele>628.4</ele><time>2011-04-26T02:39:50.0000000+00:00</time></trkpt><trkpt lat="22.02187" lon="103.931107"><ele>628.9</ele><time>2011-04-26T02:39:55.0000000+00:00</time></trkpt><trkpt lat="22.021894" lon="103.931198"><ele>629.4</ele><time>2011-04-26T02:40:00.0000000+00:00</time></trkpt><trkpt lat="22.021915" lon="103.93129"><ele>629.9</ele><time>2011-04-26T02:40:05.0000000+00:00</time></trkpt><trkpt lat="22.021935" lon="103.931412"><ele>630.4</ele><time>2011-04-26T02:40:10.0000000+00:00</time></trkpt><trkpt lat="22.021961" lon="103.931519"><ele>630.1</ele><time>2011-04-26T02:40:15.0000000+00:00</time></trkpt><trkpt lat="22.021978" lon="103.93161"><ele>630.5</ele><time>2011-04-26T02:40:20.0000000+00:00</time></trkpt><trkpt lat="22.021994" lon="103.931702"><ele>631.1</ele><time>2011-04-26T02:40:25.0000000+00:00</time></trkpt><trkpt lat="22.022007" lon="103.931801"><ele>631.4</ele><time>2011-04-26T02:40:30.0000000+00:00</time></trkpt><trkpt lat="22.02202" lon="103.931908"><ele>631.4</ele><time>2011-04-26T02:40:35.0000000+00:00</time></trkpt><trkpt lat="22.022045" lon="103.932007"><ele>630.7</ele><time>2011-04-26T02:40:40.0000000+00:00</time></trkpt><trkpt lat="22.02206" lon="103.932106"><ele>631.0</ele><time>2011-04-26T02:40:45.0000000+00:00</time></trkpt><trkpt lat="22.022078" lon="103.932205"><ele>631.1</ele><time>2011-04-26T02:40:50.0000000+00:00</time></trkpt><trkpt lat="22.022099" lon="103.932304"><ele>631.1</ele><time>2011-04-26T02:40:55.0000000+00:00</time></trkpt><trkpt lat="22.022135" lon="103.932411"><ele>630.7</ele><time>2011-04-26T02:41:00.0000000+00:00</time></trkpt><trkpt lat="22.022139" lon="103.93251"><ele>630.9</ele><time>2011-04-26T02:41:05.0000000+00:00</time></trkpt><trkpt lat="22.022152" lon="103.93261"><ele>630.7</ele><time>2011-04-26T02:41:10.0000000+00:00</time></trkpt><trkpt lat="22.022158" lon="103.932655"><ele>631.1</ele><time>2011-04-26T02:41:15.0000000+00:00</time></trkpt><trkpt lat="22.022154" lon="103.932655"><ele>631.1</ele><time>2011-04-26T02:41:20.0000000+00:00</time></trkpt><trkpt lat="22.02215" lon="103.932648"><ele>631.0</ele><time>2011-04-26T02:41:25.0000000+00:00</time></trkpt><trkpt lat="22.022148" lon="103.932648"><ele>631.1</ele><time>2011-04-26T02:41:30.0000000+00:00</time></trkpt><trkpt lat="22.022146" lon="103.932648"><ele>630.9</ele><time>2011-04-26T02:41:35.0000000+00:00</time></trkpt><trkpt lat="22.022141" lon="103.932655"><ele>630.8</ele><time>2011-04-26T02:41:40.0000000+00:00</time></trkpt><trkpt lat="22.022135" lon="103.932678"><ele>630.9</ele><time>2011-04-26T02:41:45.0000000+00:00</time></trkpt><trkpt lat="22.022148" lon="103.932762"><ele>631.3</ele><time>2011-04-26T02:41:50.0000000+00:00</time></trkpt><trkpt lat="22.022175" lon="103.932877"><ele>631.8</ele><time>2011-04-26T02:41:55.0000000+00:00</time></trkpt><trkpt lat="22.022219" lon="103.932991"><ele>632.5</ele><time>2011-04-26T02:42:00.0000000+00:00</time></trkpt><trkpt lat="22.022282" lon="103.933105"><ele>633.5</ele><time>2011-04-26T02:42:05.0000000+00:00</time></trkpt><trkpt lat="22.022346" lon="103.93322"><ele>634.7</ele><time>2011-04-26T02:42:10.0000000+00:00</time></trkpt><trkpt lat="22.022423" lon="103.933334"><ele>636.3</ele><time>2011-04-26T02:42:15.0000000+00:00</time></trkpt><trkpt lat="22.022518" lon="103.933426"><ele>638.0</ele><time>2011-04-26T02:42:20.0000000+00:00</time></trkpt><trkpt lat="22.022594" lon="103.933517"><ele>639.1</ele><time>2011-04-26T02:42:25.0000000+00:00</time></trkpt><trkpt lat="22.022659" lon="103.933609"><ele>639.9</ele><time>2011-04-26T02:42:30.0000000+00:00</time></trkpt><trkpt lat="22.022745" lon="103.933685"><ele>641.1</ele><time>2011-04-26T02:42:35.0000000+00:00</time></trkpt><trkpt lat="22.022818" lon="103.933731"><ele>642.3</ele><time>2011-04-26T02:42:40.0000000+00:00</time></trkpt><trkpt lat="22.022896" lon="103.933754"><ele>643.3</ele><time>2011-04-26T02:42:45.0000000+00:00</time></trkpt><trkpt lat="22.022959" lon="103.933807"><ele>644.0</ele><time>2011-04-26T02:42:50.0000000+00:00</time></trkpt><trkpt lat="22.023064" lon="103.933815"><ele>643.1</ele><time>2011-04-26T02:42:55.0000000+00:00</time></trkpt><trkpt lat="22.023176" lon="103.933792"><ele>641.9</ele><time>2011-04-26T02:43:00.0000000+00:00</time></trkpt><trkpt lat="22.023273" lon="103.933754"><ele>640.9</ele><time>2011-04-26T02:43:05.0000000+00:00</time></trkpt><trkpt lat="22.023386" lon="103.933701"><ele>637.9</ele><time>2011-04-26T02:43:10.0000000+00:00</time></trkpt><trkpt lat="22.023516" lon="103.933617"><ele>634.9</ele><time>2011-04-26T02:43:15.0000000+00:00</time></trkpt><trkpt lat="22.023657" lon="103.933464"><ele>641.2</ele><time>2011-04-26T02:43:20.0000000+00:00</time></trkpt><trkpt lat="22.023771" lon="103.93338"><ele>644.4</ele><time>2011-04-26T02:43:25.0000000+00:00</time></trkpt><trkpt lat="22.02388" lon="103.933304"><ele>645.6</ele><time>2011-04-26T02:43:30.0000000+00:00</time></trkpt><trkpt lat="22.023994" lon="103.933235"><ele>645.9</ele><time>2011-04-26T02:43:35.0000000+00:00</time></trkpt><trkpt lat="22.024086" lon="103.933167"><ele>645.8</ele><time>2011-04-26T02:43:40.0000000+00:00</time></trkpt><trkpt lat="22.024199" lon="103.933105"><ele>645.6</ele><time>2011-04-26T02:43:45.0000000+00:00</time></trkpt><trkpt lat="22.024321" lon="103.933052"><ele>646.1</ele><time>2011-04-26T02:43:50.0000000+00:00</time></trkpt><trkpt lat="22.024448" lon="103.933029"><ele>646.6</ele><time>2011-04-26T02:43:55.0000000+00:00</time></trkpt><trkpt lat="22.024574" lon="103.933037"><ele>647.5</ele><time>2011-04-26T02:44:00.0000000+00:00</time></trkpt><trkpt lat="22.024687" lon="103.933075"><ele>647.9</ele><time>2011-04-26T02:44:05.0000000+00:00</time></trkpt><trkpt lat="22.024799" lon="103.933098"><ele>648.6</ele><time>2011-04-26T02:44:10.0000000+00:00</time></trkpt><trkpt lat="22.024895" lon="103.933128"><ele>649.0</ele><time>2011-04-26T02:44:15.0000000+00:00</time></trkpt><trkpt lat="22.024988" lon="103.933159"><ele>649.5</ele><time>2011-04-26T02:44:20.0000000+00:00</time></trkpt><trkpt lat="22.025072" lon="103.933197"><ele>649.9</ele><time>2011-04-26T02:44:25.0000000+00:00</time></trkpt><trkpt lat="22.025143" lon="103.933243"><ele>650.3</ele><time>2011-04-26T02:44:30.0000000+00:00</time></trkpt><trkpt lat="22.025223" lon="103.933296"><ele>650.8</ele><time>2011-04-26T02:44:35.0000000+00:00</time></trkpt><trkpt lat="22.025282" lon="103.933365"><ele>651.2</ele><time>2011-04-26T02:44:40.0000000+00:00</time></trkpt><trkpt lat="22.025364" lon="103.933434"><ele>651.8</ele><time>2011-04-26T02:44:45.0000000+00:00</time></trkpt><trkpt lat="22.025436" lon="103.93351"><ele>652.1</ele><time>2011-04-26T02:44:50.0000000+00:00</time></trkpt><trkpt lat="22.025505" lon="103.933586"><ele>652.9</ele><time>2011-04-26T02:44:55.0000000+00:00</time></trkpt><trkpt lat="22.025593" lon="103.933708"><ele>654.4</ele><time>2011-04-26T02:45:00.0000000+00:00</time></trkpt><trkpt lat="22.02566" lon="103.933777"><ele>655.2</ele><time>2011-04-26T02:45:05.0000000+00:00</time></trkpt><trkpt lat="22.02573" lon="103.933853"><ele>656.3</ele><time>2011-04-26T02:45:10.0000000+00:00</time></trkpt><trkpt lat="22.025806" lon="103.933929"><ele>657.4</ele><time>2011-04-26T02:45:15.0000000+00:00</time></trkpt><trkpt lat="22.02589" lon="103.934013"><ele>657.9</ele><time>2011-04-26T02:45:20.0000000+00:00</time></trkpt><trkpt lat="22.025957" lon="103.934105"><ele>660.1</ele><time>2011-04-26T02:45:25.0000000+00:00</time></trkpt><trkpt lat="22.026041" lon="103.934189"><ele>661.0</ele><time>2011-04-26T02:45:30.0000000+00:00</time></trkpt><trkpt lat="22.02614" lon="103.934273"><ele>661.5</ele><time>2011-04-26T02:45:35.0000000+00:00</time></trkpt><trkpt lat="22.026245" lon="103.934311"><ele>662.4</ele><time>2011-04-26T02:45:40.0000000+00:00</time></trkpt><trkpt lat="22.026363" lon="103.934326"><ele>661.5</ele><time>2011-04-26T02:45:45.0000000+00:00</time></trkpt><trkpt lat="22.026485" lon="103.934311"><ele>661.2</ele><time>2011-04-26T02:45:50.0000000+00:00</time></trkpt><trkpt lat="22.026567" lon="103.93428"><ele>661.9</ele><time>2011-04-26T02:45:55.0000000+00:00</time></trkpt><trkpt lat="22.026638" lon="103.934258"><ele>660.9</ele><time>2011-04-26T02:46:00.0000000+00:00</time></trkpt><trkpt lat="22.026716" lon="103.934235"><ele>660.0</ele><time>2011-04-26T02:46:05.0000000+00:00</time></trkpt><trkpt lat="22.026815" lon="103.934219"><ele>659.8</ele><time>2011-04-26T02:46:10.0000000+00:00</time></trkpt><trkpt lat="22.026901" lon="103.934196"><ele>659.7</ele><time>2011-04-26T02:46:15.0000000+00:00</time></trkpt><trkpt lat="22.026987" lon="103.934189"><ele>658.1</ele><time>2011-04-26T02:46:20.0000000+00:00</time></trkpt><trkpt lat="22.027075" lon="103.934189"><ele>657.0</ele><time>2011-04-26T02:46:25.0000000+00:00</time></trkpt><trkpt lat="22.027142" lon="103.934189"><ele>658.6</ele><time>2011-04-26T02:46:30.0000000+00:00</time></trkpt><trkpt lat="22.027212" lon="103.934204"><ele>659.1</ele><time>2011-04-26T02:46:35.0000000+00:00</time></trkpt><trkpt lat="22.027306" lon="103.934227"><ele>661.3</ele><time>2011-04-26T02:46:40.0000000+00:00</time></trkpt><trkpt lat="22.027395" lon="103.934242"><ele>665.6</ele><time>2011-04-26T02:46:45.0000000+00:00</time></trkpt><trkpt lat="22.027475" lon="103.934273"><ele>666.4</ele><time>2011-04-26T02:46:50.0000000+00:00</time></trkpt><trkpt lat="22.027508" lon="103.934296"><ele>665.2</ele><time>2011-04-26T02:46:55.0000000+00:00</time></trkpt><trkpt lat="22.027529" lon="103.934265"><ele>669.5</ele><time>2011-04-26T02:47:00.0000000+00:00</time></trkpt><trkpt lat="22.027531" lon="103.934265"><ele>669.6</ele><time>2011-04-26T02:47:05.0000000+00:00</time></trkpt><trkpt lat="22.027538" lon="103.934265"><ele>669.8</ele><time>2011-04-26T02:47:10.0000000+00:00</time></trkpt><trkpt lat="22.027538" lon="103.934273"><ele>669.9</ele><time>2011-04-26T02:47:15.0000000+00:00</time></trkpt><trkpt lat="22.027542" lon="103.934273"><ele>669.9</ele><time>2011-04-26T02:47:20.0000000+00:00</time></trkpt><trkpt lat="22.027546" lon="103.934273"><ele>669.9</ele><time>2011-04-26T02:47:25.0000000+00:00</time></trkpt><trkpt lat="22.027546" lon="103.93428"><ele>669.9</ele><time>2011-04-26T02:47:30.0000000+00:00</time></trkpt><trkpt lat="22.02755" lon="103.93428"><ele>669.9</ele><time>2011-04-26T02:47:35.0000000+00:00</time></trkpt><trkpt lat="22.027555" lon="103.934288"><ele>669.9</ele><time>2011-04-26T02:47:40.0000000+00:00</time></trkpt><trkpt lat="22.027557" lon="103.934296"><ele>669.9</ele><time>2011-04-26T02:47:45.0000000+00:00</time></trkpt><trkpt lat="22.027554" lon="103.934288"><ele>669.9</ele><time>2011-04-26T02:47:50.0000000+00:00</time></trkpt><trkpt lat="22.027557" lon="103.934296"><ele>669.8</ele><time>2011-04-26T02:47:55.0000000+00:00</time></trkpt><trkpt lat="22.027548" lon="103.934319"><ele>668.6</ele><time>2011-04-26T02:48:00.0000000+00:00</time></trkpt><trkpt lat="22.027542" lon="103.934334"><ele>668.2</ele><time>2011-04-26T02:48:05.0000000+00:00</time></trkpt><trkpt lat="22.02754" lon="103.934349"><ele>668.1</ele><time>2011-04-26T02:48:10.0000000+00:00</time></trkpt><trkpt lat="22.027536" lon="103.934357"><ele>668.1</ele><time>2011-04-26T02:48:15.0000000+00:00</time></trkpt><trkpt lat="22.027533" lon="103.934364"><ele>668.1</ele><time>2011-04-26T02:48:20.0000000+00:00</time></trkpt><trkpt lat="22.027533" lon="103.934357"><ele>668.0</ele><time>2011-04-26T02:48:25.0000000+00:00</time></trkpt><trkpt lat="22.027533" lon="103.934357"><ele>667.9</ele><time>2011-04-26T02:48:30.0000000+00:00</time></trkpt><trkpt lat="22.027533" lon="103.934357"><ele>667.8</ele><time>2011-04-26T02:48:35.0000000+00:00</time></trkpt><trkpt lat="22.027533" lon="103.934357"><ele>667.8</ele><time>2011-04-26T02:48:40.0000000+00:00</time></trkpt><trkpt lat="22.027533" lon="103.934357"><ele>667.7</ele><time>2011-04-26T02:48:45.0000000+00:00</time></trkpt><trkpt lat="22.027533" lon="103.934357"><ele>667.7</ele><time>2011-04-26T02:48:50.0000000+00:00</time></trkpt><trkpt lat="22.027533" lon="103.934357"><ele>667.7</ele><time>2011-04-26T02:48:55.0000000+00:00</time></trkpt><trkpt lat="22.027533" lon="103.934357"><ele>667.7</ele><time>2011-04-26T02:49:00.0000000+00:00</time></trkpt><trkpt lat="22.027533" lon="103.934357"><ele>667.6</ele><time>2011-04-26T02:49:05.0000000+00:00</time></trkpt><trkpt lat="22.027533" lon="103.934357"><ele>667.6</ele><time>2011-04-26T02:49:10.0000000+00:00</time></trkpt><trkpt lat="22.027533" lon="103.934357"><ele>667.5</ele><time>2011-04-26T02:49:15.0000000+00:00</time></trkpt><trkpt lat="22.027533" lon="103.934357"><ele>667.5</ele><time>2011-04-26T02:49:20.0000000+00:00</time></trkpt><trkpt lat="22.027533" lon="103.934357"><ele>667.4</ele><time>2011-04-26T02:49:25.0000000+00:00</time></trkpt><trkpt lat="22.027533" lon="103.934357"><ele>667.3</ele><time>2011-04-26T02:49:30.0000000+00:00</time></trkpt><trkpt lat="22.027533" lon="103.934357"><ele>667.1</ele><time>2011-04-26T02:49:35.0000000+00:00</time></trkpt><trkpt lat="22.027533" lon="103.934357"><ele>667.1</ele><time>2011-04-26T02:49:40.0000000+00:00</time></trkpt><trkpt lat="22.027533" lon="103.934357"><ele>667.1</ele><time>2011-04-26T02:49:45.0000000+00:00</time></trkpt><trkpt lat="22.027533" lon="103.934357"><ele>667.0</ele><time>2011-04-26T02:49:50.0000000+00:00</time></trkpt><trkpt lat="22.027533" lon="103.934357"><ele>667.0</ele><time>2011-04-26T02:49:55.0000000+00:00</time></trkpt><trkpt lat="22.027533" lon="103.934357"><ele>667.0</ele><time>2011-04-26T02:50:00.0000000+00:00</time></trkpt><trkpt lat="22.027576" lon="103.934425"><ele>666.8</ele><time>2011-04-26T02:50:05.0000000+00:00</time></trkpt><trkpt lat="22.027622" lon="103.934502"><ele>667.7</ele><time>2011-04-26T02:50:10.0000000+00:00</time></trkpt><trkpt lat="22.027655" lon="103.934593"><ele>668.8</ele><time>2011-04-26T02:50:15.0000000+00:00</time></trkpt><trkpt lat="22.027685" lon="103.934669"><ele>670.3</ele><time>2011-04-26T02:50:20.0000000+00:00</time></trkpt><trkpt lat="22.0277" lon="103.934723"><ele>671.3</ele><time>2011-04-26T02:50:25.0000000+00:00</time></trkpt><trkpt lat="22.027718" lon="103.934799"><ele>673.6</ele><time>2011-04-26T02:50:30.0000000+00:00</time></trkpt><trkpt lat="22.027723" lon="103.934898"><ele>674.5</ele><time>2011-04-26T02:50:35.0000000+00:00</time></trkpt><trkpt lat="22.027742" lon="103.934998"><ele>674.9</ele><time>2011-04-26T02:50:40.0000000+00:00</time></trkpt><trkpt lat="22.027782" lon="103.935112"><ele>677.8</ele><time>2011-04-26T02:50:45.0000000+00:00</time></trkpt><trkpt lat="22.027845" lon="103.935204"><ele>679.1</ele><time>2011-04-26T02:50:50.0000000+00:00</time></trkpt><trkpt lat="22.027958" lon="103.935257"><ele>677.5</ele><time>2011-04-26T02:50:55.0000000+00:00</time></trkpt><trkpt lat="22.028078" lon="103.93528"><ele>676.9</ele><time>2011-04-26T02:51:00.0000000+00:00</time></trkpt><trkpt lat="22.028179" lon="103.93528"><ele>677.6</ele><time>2011-04-26T02:51:05.0000000+00:00</time></trkpt><trkpt lat="22.028301" lon="103.935265"><ele>676.9</ele><time>2011-04-26T02:51:10.0000000+00:00</time></trkpt><trkpt lat="22.028408" lon="103.935242"><ele>676.2</ele><time>2011-04-26T02:51:15.0000000+00:00</time></trkpt><trkpt lat="22.028502" lon="103.935219"><ele>676.7</ele><time>2011-04-26T02:51:20.0000000+00:00</time></trkpt><trkpt lat="22.028606" lon="103.935173"><ele>679.9</ele><time>2011-04-26T02:51:25.0000000+00:00</time></trkpt><trkpt lat="22.028715" lon="103.935135"><ele>682.0</ele><time>2011-04-26T02:51:30.0000000+00:00</time></trkpt><trkpt lat="22.028851" lon="103.93512"><ele>681.2</ele><time>2011-04-26T02:51:35.0000000+00:00</time></trkpt><trkpt lat="22.028969" lon="103.935097"><ele>681.6</ele><time>2011-04-26T02:51:40.0000000+00:00</time></trkpt><trkpt lat="22.029093" lon="103.935089"><ele>680.0</ele><time>2011-04-26T02:51:45.0000000+00:00</time></trkpt><trkpt lat="22.029202" lon="103.935051"><ele>679.1</ele><time>2011-04-26T02:51:50.0000000+00:00</time></trkpt><trkpt lat="22.029303" lon="103.935013"><ele>678.3</ele><time>2011-04-26T02:51:55.0000000+00:00</time></trkpt><trkpt lat="22.029411" lon="103.934998"><ele>676.7</ele><time>2011-04-26T02:52:00.0000000+00:00</time></trkpt><trkpt lat="22.029509" lon="103.934982"><ele>677.0</ele><time>2011-04-26T02:52:05.0000000+00:00</time></trkpt><trkpt lat="22.029629" lon="103.934959"><ele>675.4</ele><time>2011-04-26T02:52:10.0000000+00:00</time></trkpt><trkpt lat="22.029757" lon="103.934959"><ele>676.2</ele><time>2011-04-26T02:52:15.0000000+00:00</time></trkpt><trkpt lat="22.0299" lon="103.935013"><ele>679.3</ele><time>2011-04-26T02:52:20.0000000+00:00</time></trkpt><trkpt lat="22.030018" lon="103.935089"><ele>680.0</ele><time>2011-04-26T02:52:25.0000000+00:00</time></trkpt><trkpt lat="22.030104" lon="103.935181"><ele>680.2</ele><time>2011-04-26T02:52:30.0000000+00:00</time></trkpt><trkpt lat="22.03017" lon="103.935287"><ele>679.9</ele><time>2011-04-26T02:52:35.0000000+00:00</time></trkpt><trkpt lat="22.030197" lon="103.935387"><ele>680.4</ele><time>2011-04-26T02:52:40.0000000+00:00</time></trkpt><trkpt lat="22.030209" lon="103.935455"><ele>681.4</ele><time>2011-04-26T02:52:45.0000000+00:00</time></trkpt><trkpt lat="22.03022" lon="103.935555"><ele>681.9</ele><time>2011-04-26T02:52:50.0000000+00:00</time></trkpt><trkpt lat="22.030226" lon="103.935646"><ele>682.0</ele><time>2011-04-26T02:52:55.0000000+00:00</time></trkpt><trkpt lat="22.030239" lon="103.935722"><ele>681.7</ele><time>2011-04-26T02:53:00.0000000+00:00</time></trkpt><trkpt lat="22.030256" lon="103.935814"><ele>682.0</ele><time>2011-04-26T02:53:05.0000000+00:00</time></trkpt><trkpt lat="22.030268" lon="103.935913"><ele>681.7</ele><time>2011-04-26T02:53:10.0000000+00:00</time></trkpt><trkpt lat="22.030283" lon="103.935997"><ele>681.4</ele><time>2011-04-26T02:53:15.0000000+00:00</time></trkpt><trkpt lat="22.03031" lon="103.936104"><ele>682.4</ele><time>2011-04-26T02:53:20.0000000+00:00</time></trkpt><trkpt lat="22.030348" lon="103.93618"><ele>682.5</ele><time>2011-04-26T02:53:25.0000000+00:00</time></trkpt><trkpt lat="22.030396" lon="103.936279"><ele>683.8</ele><time>2011-04-26T02:53:30.0000000+00:00</time></trkpt><trkpt lat="22.030447" lon="103.936363"><ele>684.3</ele><time>2011-04-26T02:53:35.0000000+00:00</time></trkpt><trkpt lat="22.030487" lon="103.93644"><ele>685.1</ele><time>2011-04-26T02:53:40.0000000+00:00</time></trkpt><trkpt lat="22.030531" lon="103.936501"><ele>685.7</ele><time>2011-04-26T02:53:45.0000000+00:00</time></trkpt><trkpt lat="22.030605" lon="103.936562"><ele>685.1</ele><time>2011-04-26T02:53:50.0000000+00:00</time></trkpt><trkpt lat="22.030668" lon="103.9366"><ele>686.0</ele><time>2011-04-26T02:53:55.0000000+00:00</time></trkpt><trkpt lat="22.030746" lon="103.936646"><ele>686.5</ele><time>2011-04-26T02:54:00.0000000+00:00</time></trkpt><trkpt lat="22.030817" lon="103.936668"><ele>686.3</ele><time>2011-04-26T02:54:05.0000000+00:00</time></trkpt><trkpt lat="22.030884" lon="103.936707"><ele>687.3</ele><time>2011-04-26T02:54:10.0000000+00:00</time></trkpt><trkpt lat="22.030956" lon="103.936729"><ele>688.7</ele><time>2011-04-26T02:54:15.0000000+00:00</time></trkpt><trkpt lat="22.031034" lon="103.936768"><ele>689.5</ele><time>2011-04-26T02:54:20.0000000+00:00</time></trkpt><trkpt lat="22.031139" lon="103.936813"><ele>689.9</ele><time>2011-04-26T02:54:25.0000000+00:00</time></trkpt><trkpt lat="22.031229" lon="103.936844"><ele>691.8</ele><time>2011-04-26T02:54:30.0000000+00:00</time></trkpt><trkpt lat="22.031319" lon="103.936867"><ele>693.9</ele><time>2011-04-26T02:54:35.0000000+00:00</time></trkpt><trkpt lat="22.031414" lon="103.936897"><ele>693.9</ele><time>2011-04-26T02:54:40.0000000+00:00</time></trkpt><trkpt lat="22.031487" lon="103.936943"><ele>694.7</ele><time>2011-04-26T02:54:45.0000000+00:00</time></trkpt><trkpt lat="22.031528" lon="103.937027"><ele>695.8</ele><time>2011-04-26T02:54:50.0000000+00:00</time></trkpt><trkpt lat="22.031578" lon="103.937088"><ele>696.8</ele><time>2011-04-26T02:54:55.0000000+00:00</time></trkpt><trkpt lat="22.031593" lon="103.93718"><ele>697.7</ele><time>2011-04-26T02:55:00.0000000+00:00</time></trkpt><trkpt lat="22.031607" lon="103.937271"><ele>699.1</ele><time>2011-04-26T02:55:05.0000000+00:00</time></trkpt><trkpt lat="22.031614" lon="103.93734"><ele>699.7</ele><time>2011-04-26T02:55:10.0000000+00:00</time></trkpt><trkpt lat="22.031614" lon="103.937424"><ele>701.0</ele><time>2011-04-26T02:55:15.0000000+00:00</time></trkpt><trkpt lat="22.031616" lon="103.937508"><ele>702.6</ele><time>2011-04-26T02:55:20.0000000+00:00</time></trkpt><trkpt lat="22.031624" lon="103.937592"><ele>704.5</ele><time>2011-04-26T02:55:25.0000000+00:00</time></trkpt><trkpt lat="22.031603" lon="103.937637"><ele>707.3</ele><time>2011-04-26T02:55:30.0000000+00:00</time></trkpt><trkpt lat="22.031601" lon="103.937721"><ele>709.8</ele><time>2011-04-26T02:55:35.0000000+00:00</time></trkpt><trkpt lat="22.031614" lon="103.937813"><ele>711.3</ele><time>2011-04-26T02:55:40.0000000+00:00</time></trkpt><trkpt lat="22.031593" lon="103.937904"><ele>713.3</ele><time>2011-04-26T02:55:45.0000000+00:00</time></trkpt><trkpt lat="22.031586" lon="103.938011"><ele>714.7</ele><time>2011-04-26T02:55:50.0000000+00:00</time></trkpt><trkpt lat="22.031595" lon="103.938118"><ele>715.6</ele><time>2011-04-26T02:55:55.0000000+00:00</time></trkpt><trkpt lat="22.03158" lon="103.938225"><ele>717.6</ele><time>2011-04-26T02:56:00.0000000+00:00</time></trkpt><trkpt lat="22.031569" lon="103.938354"><ele>717.7</ele><time>2011-04-26T02:56:05.0000000+00:00</time></trkpt><trkpt lat="22.031542" lon="103.938446"><ele>719.1</ele><time>2011-04-26T02:56:10.0000000+00:00</time></trkpt><trkpt lat="22.031502" lon="103.938538"><ele>720.4</ele><time>2011-04-26T02:56:15.0000000+00:00</time></trkpt><trkpt lat="22.031469" lon="103.938614"><ele>721.6</ele><time>2011-04-26T02:56:20.0000000+00:00</time></trkpt><trkpt lat="22.031399" lon="103.938705"><ele>723.1</ele><time>2011-04-26T02:56:25.0000000+00:00</time></trkpt><trkpt lat="22.031382" lon="103.938774"><ele>724.2</ele><time>2011-04-26T02:56:30.0000000+00:00</time></trkpt><trkpt lat="22.031338" lon="103.938843"><ele>725.7</ele><time>2011-04-26T02:56:35.0000000+00:00</time></trkpt><trkpt lat="22.031319" lon="103.938934"><ele>726.6</ele><time>2011-04-26T02:56:40.0000000+00:00</time></trkpt><trkpt lat="22.031277" lon="103.939026"><ele>728.4</ele><time>2011-04-26T02:56:45.0000000+00:00</time></trkpt><trkpt lat="22.031244" lon="103.939125"><ele>729.5</ele><time>2011-04-26T02:56:50.0000000+00:00</time></trkpt><trkpt lat="22.031191" lon="103.939209"><ele>730.1</ele><time>2011-04-26T02:56:55.0000000+00:00</time></trkpt><trkpt lat="22.031183" lon="103.939293"><ele>730.6</ele><time>2011-04-26T02:57:00.0000000+00:00</time></trkpt><trkpt lat="22.031185" lon="103.939362"><ele>731.1</ele><time>2011-04-26T02:57:05.0000000+00:00</time></trkpt><trkpt lat="22.031189" lon="103.939468"><ele>731.6</ele><time>2011-04-26T02:57:10.0000000+00:00</time></trkpt><trkpt lat="22.031216" lon="103.93956"><ele>733.1</ele><time>2011-04-26T02:57:15.0000000+00:00</time></trkpt><trkpt lat="22.031218" lon="103.939636"><ele>734.1</ele><time>2011-04-26T02:57:20.0000000+00:00</time></trkpt><trkpt lat="22.031284" lon="103.939697"><ele>734.6</ele><time>2011-04-26T02:57:25.0000000+00:00</time></trkpt><trkpt lat="22.031319" lon="103.939735"><ele>735.6</ele><time>2011-04-26T02:57:30.0000000+00:00</time></trkpt><trkpt lat="22.031292" lon="103.939735"><ele>734.7</ele><time>2011-04-26T02:57:35.0000000+00:00</time></trkpt><trkpt lat="22.031282" lon="103.93972"><ele>735.3</ele><time>2011-04-26T02:57:40.0000000+00:00</time></trkpt><trkpt lat="22.031267" lon="103.93969"><ele>734.1</ele><time>2011-04-26T02:57:45.0000000+00:00</time></trkpt><trkpt lat="22.031321" lon="103.939674"><ele>734.4</ele><time>2011-04-26T02:57:50.0000000+00:00</time></trkpt><trkpt lat="22.031305" lon="103.93969"><ele>733.8</ele><time>2011-04-26T02:57:55.0000000+00:00</time></trkpt><trkpt lat="22.031303" lon="103.93969"><ele>734.3</ele><time>2011-04-26T02:58:00.0000000+00:00</time></trkpt><trkpt lat="22.031263" lon="103.939682"><ele>734.1</ele><time>2011-04-26T02:58:05.0000000+00:00</time></trkpt><trkpt lat="22.031225" lon="103.939674"><ele>732.7</ele><time>2011-04-26T02:58:10.0000000+00:00</time></trkpt><trkpt lat="22.031225" lon="103.939674"><ele>732.9</ele><time>2011-04-26T02:58:15.0000000+00:00</time></trkpt><trkpt lat="22.031223" lon="103.939682"><ele>733.0</ele><time>2011-04-26T02:58:20.0000000+00:00</time></trkpt><trkpt lat="22.031225" lon="103.939682"><ele>733.2</ele><time>2011-04-26T02:58:25.0000000+00:00</time></trkpt><trkpt lat="22.031223" lon="103.939682"><ele>733.4</ele><time>2011-04-26T02:58:30.0000000+00:00</time></trkpt><trkpt lat="22.031221" lon="103.939674"><ele>733.6</ele><time>2011-04-26T02:58:35.0000000+00:00</time></trkpt><trkpt lat="22.031221" lon="103.939674"><ele>733.8</ele><time>2011-04-26T02:58:40.0000000+00:00</time></trkpt><trkpt lat="22.031265" lon="103.939667"><ele>733.3</ele><time>2011-04-26T02:58:45.0000000+00:00</time></trkpt><trkpt lat="22.031292" lon="103.939651"><ele>732.6</ele><time>2011-04-26T02:58:50.0000000+00:00</time></trkpt><trkpt lat="22.031324" lon="103.939636"><ele>731.7</ele><time>2011-04-26T02:58:55.0000000+00:00</time></trkpt><trkpt lat="22.031389" lon="103.939621"><ele>730.8</ele><time>2011-04-26T02:59:00.0000000+00:00</time></trkpt><trkpt lat="22.031443" lon="103.939636"><ele>730.0</ele><time>2011-04-26T02:59:05.0000000+00:00</time></trkpt><trkpt lat="22.031456" lon="103.939659"><ele>729.7</ele><time>2011-04-26T02:59:10.0000000+00:00</time></trkpt><trkpt lat="22.031416" lon="103.939674"><ele>729.4</ele><time>2011-04-26T02:59:15.0000000+00:00</time></trkpt><trkpt lat="22.031368" lon="103.939667"><ele>729.4</ele><time>2011-04-26T02:59:20.0000000+00:00</time></trkpt><trkpt lat="22.031315" lon="103.939682"><ele>729.3</ele><time>2011-04-26T02:59:25.0000000+00:00</time></trkpt><trkpt lat="22.031315" lon="103.939682"><ele>729.3</ele><time>2011-04-26T02:59:30.0000000+00:00</time></trkpt><trkpt lat="22.031317" lon="103.939682"><ele>729.3</ele><time>2011-04-26T02:59:35.0000000+00:00</time></trkpt><trkpt lat="22.031326" lon="103.939682"><ele>729.3</ele><time>2011-04-26T02:59:40.0000000+00:00</time></trkpt><trkpt lat="22.031349" lon="103.939682"><ele>729.1</ele><time>2011-04-26T02:59:45.0000000+00:00</time></trkpt><trkpt lat="22.031399" lon="103.93969"><ele>728.9</ele><time>2011-04-26T02:59:50.0000000+00:00</time></trkpt><trkpt lat="22.031441" lon="103.939674"><ele>728.6</ele><time>2011-04-26T02:59:55.0000000+00:00</time></trkpt><trkpt lat="22.031519" lon="103.939674"><ele>728.0</ele><time>2011-04-26T03:00:00.0000000+00:00</time></trkpt><trkpt lat="22.031635" lon="103.939674"><ele>727.2</ele><time>2011-04-26T03:00:05.0000000+00:00</time></trkpt><trkpt lat="22.031712" lon="103.939713"><ele>726.2</ele><time>2011-04-26T03:00:10.0000000+00:00</time></trkpt><trkpt lat="22.031731" lon="103.939743"><ele>725.0</ele><time>2011-04-26T03:00:15.0000000+00:00</time></trkpt><trkpt lat="22.031723" lon="103.939781"><ele>724.3</ele><time>2011-04-26T03:00:20.0000000+00:00</time></trkpt><trkpt lat="22.03171" lon="103.939796"><ele>724.0</ele><time>2011-04-26T03:00:25.0000000+00:00</time></trkpt><trkpt lat="22.03171" lon="103.939804"><ele>723.9</ele><time>2011-04-26T03:00:30.0000000+00:00</time></trkpt><trkpt lat="22.031603" lon="103.939827"><ele>723.5</ele><time>2011-04-26T03:00:35.0000000+00:00</time></trkpt><trkpt lat="22.031479" lon="103.939842"><ele>722.7</ele><time>2011-04-26T03:00:40.0000000+00:00</time></trkpt><trkpt lat="22.031422" lon="103.93985"><ele>722.4</ele><time>2011-04-26T03:00:45.0000000+00:00</time></trkpt><trkpt lat="22.031389" lon="103.939857"><ele>721.7</ele><time>2011-04-26T03:00:50.0000000+00:00</time></trkpt><trkpt lat="22.031324" lon="103.939857"><ele>720.7</ele><time>2011-04-26T03:00:55.0000000+00:00</time></trkpt><trkpt lat="22.031263" lon="103.93985"><ele>719.8</ele><time>2011-04-26T03:01:00.0000000+00:00</time></trkpt><trkpt lat="22.03121" lon="103.93985"><ele>719.0</ele><time>2011-04-26T03:01:05.0000000+00:00</time></trkpt><trkpt lat="22.03117" lon="103.93985"><ele>718.3</ele><time>2011-04-26T03:01:10.0000000+00:00</time></trkpt><trkpt lat="22.031164" lon="103.93985"><ele>717.8</ele><time>2011-04-26T03:01:15.0000000+00:00</time></trkpt><trkpt lat="22.031179" lon="103.93985"><ele>717.9</ele><time>2011-04-26T03:01:20.0000000+00:00</time></trkpt><trkpt lat="22.031179" lon="103.93985"><ele>717.6</ele><time>2011-04-26T03:01:25.0000000+00:00</time></trkpt><trkpt lat="22.031319" lon="103.939865"><ele>716.8</ele><time>2011-04-26T03:01:30.0000000+00:00</time></trkpt><trkpt lat="22.031418" lon="103.939888"><ele>718.1</ele><time>2011-04-26T03:01:35.0000000+00:00</time></trkpt><trkpt lat="22.031517" lon="103.939873"><ele>718.5</ele><time>2011-04-26T03:01:40.0000000+00:00</time></trkpt><trkpt lat="22.031605" lon="103.939835"><ele>719.8</ele><time>2011-04-26T03:01:45.0000000+00:00</time></trkpt><trkpt lat="22.031658" lon="103.939789"><ele>721.2</ele><time>2011-04-26T03:01:50.0000000+00:00</time></trkpt><trkpt lat="22.031736" lon="103.939751"><ele>722.5</ele><time>2011-04-26T03:01:55.0000000+00:00</time></trkpt><trkpt lat="22.031824" lon="103.93969"><ele>724.1</ele><time>2011-04-26T03:02:00.0000000+00:00</time></trkpt><trkpt lat="22.031931" lon="103.939629"><ele>724.7</ele><time>2011-04-26T03:02:05.0000000+00:00</time></trkpt><trkpt lat="22.032051" lon="103.939583"><ele>726.1</ele><time>2011-04-26T03:02:10.0000000+00:00</time></trkpt><trkpt lat="22.032152" lon="103.939507"><ele>727.7</ele><time>2011-04-26T03:02:15.0000000+00:00</time></trkpt><trkpt lat="22.032227" lon="103.939453"><ele>728.9</ele><time>2011-04-26T03:02:20.0000000+00:00</time></trkpt><trkpt lat="22.032343" lon="103.939423"><ele>731.1</ele><time>2011-04-26T03:02:25.0000000+00:00</time></trkpt><trkpt lat="22.032444" lon="103.939407"><ele>732.8</ele><time>2011-04-26T03:02:30.0000000+00:00</time></trkpt><trkpt lat="22.032562" lon="103.9394"><ele>734.6</ele><time>2011-04-26T03:02:35.0000000+00:00</time></trkpt><trkpt lat="22.03269" lon="103.939415"><ele>736.3</ele><time>2011-04-26T03:02:40.0000000+00:00</time></trkpt><trkpt lat="22.032793" lon="103.939438"><ele>734.7</ele><time>2011-04-26T03:02:45.0000000+00:00</time></trkpt><trkpt lat="22.032911" lon="103.939507"><ele>734.3</ele><time>2011-04-26T03:02:50.0000000+00:00</time></trkpt><trkpt lat="22.033016" lon="103.939575"><ele>734.9</ele><time>2011-04-26T03:02:55.0000000+00:00</time></trkpt><trkpt lat="22.033094" lon="103.939629"><ele>734.3</ele><time>2011-04-26T03:03:00.0000000+00:00</time></trkpt><trkpt lat="22.033186" lon="103.939697"><ele>734.3</ele><time>2011-04-26T03:03:05.0000000+00:00</time></trkpt><trkpt lat="22.033251" lon="103.939758"><ele>735.2</ele><time>2011-04-26T03:03:10.0000000+00:00</time></trkpt><trkpt lat="22.033325" lon="103.939827"><ele>735.0</ele><time>2011-04-26T03:03:15.0000000+00:00</time></trkpt><trkpt lat="22.033419" lon="103.939873"><ele>734.4</ele><time>2011-04-26T03:03:20.0000000+00:00</time></trkpt><trkpt lat="22.033512" lon="103.939888"><ele>734.5</ele><time>2011-04-26T03:03:25.0000000+00:00</time></trkpt><trkpt lat="22.033655" lon="103.939873"><ele>734.5</ele><time>2011-04-26T03:03:30.0000000+00:00</time></trkpt><trkpt lat="22.033749" lon="103.939842"><ele>735.1</ele><time>2011-04-26T03:03:35.0000000+00:00</time></trkpt><trkpt lat="22.033802" lon="103.939796"><ele>735.2</ele><time>2011-04-26T03:03:40.0000000+00:00</time></trkpt><trkpt lat="22.033838" lon="103.939743"><ele>734.9</ele><time>2011-04-26T03:03:45.0000000+00:00</time></trkpt><trkpt lat="22.033873" lon="103.939667"><ele>734.7</ele><time>2011-04-26T03:03:50.0000000+00:00</time></trkpt><trkpt lat="22.033895" lon="103.939575"><ele>734.4</ele><time>2011-04-26T03:03:55.0000000+00:00</time></trkpt><trkpt lat="22.03389" lon="103.939476"><ele>734.3</ele><time>2011-04-26T03:04:00.0000000+00:00</time></trkpt><trkpt lat="22.033892" lon="103.939369"><ele>734.7</ele><time>2011-04-26T03:04:05.0000000+00:00</time></trkpt><trkpt lat="22.033918" lon="103.939278"><ele>735.3</ele><time>2011-04-26T03:04:10.0000000+00:00</time></trkpt><trkpt lat="22.033886" lon="103.939201"><ele>734.4</ele><time>2011-04-26T03:04:15.0000000+00:00</time></trkpt><trkpt lat="22.033924" lon="103.939133"><ele>734.6</ele><time>2011-04-26T03:04:20.0000000+00:00</time></trkpt><trkpt lat="22.033983" lon="103.939102"><ele>734.7</ele><time>2011-04-26T03:04:25.0000000+00:00</time></trkpt><trkpt lat="22.034081" lon="103.939102"><ele>733.1</ele><time>2011-04-26T03:04:30.0000000+00:00</time></trkpt><trkpt lat="22.034174" lon="103.939102"><ele>733.1</ele><time>2011-04-26T03:04:35.0000000+00:00</time></trkpt><trkpt lat="22.034241" lon="103.939133"><ele>733.4</ele><time>2011-04-26T03:04:40.0000000+00:00</time></trkpt><trkpt lat="22.034317" lon="103.939148"><ele>733.5</ele><time>2011-04-26T03:04:45.0000000+00:00</time></trkpt><trkpt lat="22.034378" lon="103.939163"><ele>733.6</ele><time>2011-04-26T03:04:50.0000000+00:00</time></trkpt><trkpt lat="22.034433" lon="103.939209"><ele>732.5</ele><time>2011-04-26T03:04:55.0000000+00:00</time></trkpt><trkpt lat="22.03454" lon="103.939224"><ele>733.4</ele><time>2011-04-26T03:05:00.0000000+00:00</time></trkpt><trkpt lat="22.03463" lon="103.939232"><ele>734.4</ele><time>2011-04-26T03:05:05.0000000+00:00</time></trkpt><trkpt lat="22.03471" lon="103.939255"><ele>735.9</ele><time>2011-04-26T03:05:10.0000000+00:00</time></trkpt><trkpt lat="22.034788" lon="103.939247"><ele>736.2</ele><time>2011-04-26T03:05:15.0000000+00:00</time></trkpt><trkpt lat="22.034847" lon="103.939247"><ele>736.1</ele><time>2011-04-26T03:05:20.0000000+00:00</time></trkpt><trkpt lat="22.03492" lon="103.939262"><ele>735.9</ele><time>2011-04-26T03:05:25.0000000+00:00</time></trkpt><trkpt lat="22.035009" lon="103.939255"><ele>737.4</ele><time>2011-04-26T03:05:30.0000000+00:00</time></trkpt><trkpt lat="22.035067" lon="103.93924"><ele>740.3</ele><time>2011-04-26T03:05:35.0000000+00:00</time></trkpt><trkpt lat="22.035109" lon="103.939224"><ele>741.4</ele><time>2011-04-26T03:05:40.0000000+00:00</time></trkpt><trkpt lat="22.035141" lon="103.939209"><ele>742.7</ele><time>2011-04-26T03:05:45.0000000+00:00</time></trkpt><trkpt lat="22.035206" lon="103.939201"><ele>744.9</ele><time>2011-04-26T03:05:50.0000000+00:00</time></trkpt><trkpt lat="22.035271" lon="103.939186"><ele>746.8</ele><time>2011-04-26T03:05:55.0000000+00:00</time></trkpt><trkpt lat="22.035328" lon="103.939171"><ele>748.9</ele><time>2011-04-26T03:06:00.0000000+00:00</time></trkpt><trkpt lat="22.035391" lon="103.939148"><ele>753.2</ele><time>2011-04-26T03:06:05.0000000+00:00</time></trkpt><trkpt lat="22.035465" lon="103.939125"><ele>756.0</ele><time>2011-04-26T03:06:10.0000000+00:00</time></trkpt><trkpt lat="22.035519" lon="103.939087"><ele>757.8</ele><time>2011-04-26T03:06:15.0000000+00:00</time></trkpt><trkpt lat="22.035603" lon="103.939064"><ele>758.0</ele><time>2011-04-26T03:06:20.0000000+00:00</time></trkpt><trkpt lat="22.035654" lon="103.939049"><ele>758.4</ele><time>2011-04-26T03:06:25.0000000+00:00</time></trkpt><trkpt lat="22.035704" lon="103.939026"><ele>759.5</ele><time>2011-04-26T03:06:30.0000000+00:00</time></trkpt><trkpt lat="22.035784" lon="103.939026"><ele>758.4</ele><time>2011-04-26T03:06:35.0000000+00:00</time></trkpt><trkpt lat="22.035837" lon="103.939026"><ele>759.3</ele><time>2011-04-26T03:06:40.0000000+00:00</time></trkpt><trkpt lat="22.035887" lon="103.939026"><ele>756.9</ele><time>2011-04-26T03:06:45.0000000+00:00</time></trkpt><trkpt lat="22.035925" lon="103.939041"><ele>756.1</ele><time>2011-04-26T03:06:50.0000000+00:00</time></trkpt><trkpt lat="22.035967" lon="103.939056"><ele>755.1</ele><time>2011-04-26T03:06:55.0000000+00:00</time></trkpt><trkpt lat="22.036022" lon="103.939056"><ele>753.0</ele><time>2011-04-26T03:07:00.0000000+00:00</time></trkpt><trkpt lat="22.036079" lon="103.939041"><ele>753.4</ele><time>2011-04-26T03:07:05.0000000+00:00</time></trkpt><trkpt lat="22.036135" lon="103.939049"><ele>752.8</ele><time>2011-04-26T03:07:10.0000000+00:00</time></trkpt><trkpt lat="22.036184" lon="103.939041"><ele>754.0</ele><time>2011-04-26T03:07:15.0000000+00:00</time></trkpt><trkpt lat="22.036232" lon="103.939056"><ele>755.1</ele><time>2011-04-26T03:07:20.0000000+00:00</time></trkpt><trkpt lat="22.036289" lon="103.939072"><ele>754.6</ele><time>2011-04-26T03:07:25.0000000+00:00</time></trkpt><trkpt lat="22.036364" lon="103.939064"><ele>754.8</ele><time>2011-04-26T03:07:30.0000000+00:00</time></trkpt><trkpt lat="22.036432" lon="103.939049"><ele>755.8</ele><time>2011-04-26T03:07:35.0000000+00:00</time></trkpt><trkpt lat="22.036507" lon="103.939049"><ele>756.6</ele><time>2011-04-26T03:07:40.0000000+00:00</time></trkpt><trkpt lat="22.036554" lon="103.939064"><ele>758.4</ele><time>2011-04-26T03:07:45.0000000+00:00</time></trkpt><trkpt lat="22.036591" lon="103.939056"><ele>760.2</ele><time>2011-04-26T03:07:50.0000000+00:00</time></trkpt><trkpt lat="22.036657" lon="103.939056"><ele>759.4</ele><time>2011-04-26T03:07:55.0000000+00:00</time></trkpt><trkpt lat="22.036695" lon="103.939064"><ele>760.1</ele><time>2011-04-26T03:08:00.0000000+00:00</time></trkpt><trkpt lat="22.036711" lon="103.939072"><ele>760.0</ele><time>2011-04-26T03:08:05.0000000+00:00</time></trkpt><trkpt lat="22.036718" lon="103.939064"><ele>760.6</ele><time>2011-04-26T03:08:10.0000000+00:00</time></trkpt><trkpt lat="22.036722" lon="103.939072"><ele>761.3</ele><time>2011-04-26T03:08:15.0000000+00:00</time></trkpt><trkpt lat="22.036724" lon="103.939072"><ele>761.9</ele><time>2011-04-26T03:08:20.0000000+00:00</time></trkpt><trkpt lat="22.036741" lon="103.939072"><ele>762.5</ele><time>2011-04-26T03:08:25.0000000+00:00</time></trkpt><trkpt lat="22.036789" lon="103.939087"><ele>762.8</ele><time>2011-04-26T03:08:30.0000000+00:00</time></trkpt><trkpt lat="22.036846" lon="103.93911"><ele>763.6</ele><time>2011-04-26T03:08:35.0000000+00:00</time></trkpt><trkpt lat="22.036905" lon="103.93914"><ele>763.5</ele><time>2011-04-26T03:08:40.0000000+00:00</time></trkpt><trkpt lat="22.036964" lon="103.939194"><ele>763.8</ele><time>2011-04-26T03:08:45.0000000+00:00</time></trkpt><trkpt lat="22.03702" lon="103.93927"><ele>763.3</ele><time>2011-04-26T03:08:50.0000000+00:00</time></trkpt><trkpt lat="22.03706" lon="103.939316"><ele>763.4</ele><time>2011-04-26T03:08:55.0000000+00:00</time></trkpt><trkpt lat="22.037079" lon="103.9394"><ele>763.9</ele><time>2011-04-26T03:09:00.0000000+00:00</time></trkpt><trkpt lat="22.037085" lon="103.939484"><ele>765.7</ele><time>2011-04-26T03:09:05.0000000+00:00</time></trkpt><trkpt lat="22.0371" lon="103.939552"><ele>766.8</ele><time>2011-04-26T03:09:10.0000000+00:00</time></trkpt><trkpt lat="22.037094" lon="103.939613"><ele>768.8</ele><time>2011-04-26T03:09:15.0000000+00:00</time></trkpt><trkpt lat="22.037117" lon="103.939674"><ele>771.2</ele><time>2011-04-26T03:09:20.0000000+00:00</time></trkpt><trkpt lat="22.037119" lon="103.939751"><ele>773.2</ele><time>2011-04-26T03:09:25.0000000+00:00</time></trkpt><trkpt lat="22.037127" lon="103.939842"><ele>776.3</ele><time>2011-04-26T03:09:30.0000000+00:00</time></trkpt><trkpt lat="22.037138" lon="103.939903"><ele>778.2</ele><time>2011-04-26T03:09:35.0000000+00:00</time></trkpt><trkpt lat="22.037153" lon="103.939987"><ele>780.0</ele><time>2011-04-26T03:09:40.0000000+00:00</time></trkpt><trkpt lat="22.037146" lon="103.940079"><ele>781.9</ele><time>2011-04-26T03:09:45.0000000+00:00</time></trkpt><trkpt lat="22.037153" lon="103.940163"><ele>784.1</ele><time>2011-04-26T03:09:50.0000000+00:00</time></trkpt><trkpt lat="22.037155" lon="103.940216"><ele>785.8</ele><time>2011-04-26T03:09:55.0000000+00:00</time></trkpt><trkpt lat="22.037153" lon="103.940277"><ele>786.6</ele><time>2011-04-26T03:10:00.0000000+00:00</time></trkpt><trkpt lat="22.037169" lon="103.940361"><ele>787.9</ele><time>2011-04-26T03:10:05.0000000+00:00</time></trkpt><trkpt lat="22.037172" lon="103.940422"><ele>789.7</ele><time>2011-04-26T03:10:10.0000000+00:00</time></trkpt><trkpt lat="22.037201" lon="103.940506"><ele>792.2</ele><time>2011-04-26T03:10:15.0000000+00:00</time></trkpt><trkpt lat="22.037231" lon="103.94059"><ele>793.5</ele><time>2011-04-26T03:10:20.0000000+00:00</time></trkpt><trkpt lat="22.03726" lon="103.940674"><ele>793.8</ele><time>2011-04-26T03:10:25.0000000+00:00</time></trkpt><trkpt lat="22.037294" lon="103.940742"><ele>794.4</ele><time>2011-04-26T03:10:30.0000000+00:00</time></trkpt><trkpt lat="22.037348" lon="103.940826"><ele>793.1</ele><time>2011-04-26T03:10:35.0000000+00:00</time></trkpt><trkpt lat="22.03743" lon="103.940872"><ele>791.9</ele><time>2011-04-26T03:10:40.0000000+00:00</time></trkpt><trkpt lat="22.037495" lon="103.94091"><ele>790.6</ele><time>2011-04-26T03:10:45.0000000+00:00</time></trkpt><trkpt lat="22.037542" lon="103.940964"><ele>789.9</ele><time>2011-04-26T03:10:50.0000000+00:00</time></trkpt><trkpt lat="22.037605" lon="103.940994"><ele>789.6</ele><time>2011-04-26T03:10:55.0000000+00:00</time></trkpt><trkpt lat="22.037659" lon="103.941025"><ele>787.6</ele><time>2011-04-26T03:11:00.0000000+00:00</time></trkpt><trkpt lat="22.037727" lon="103.941055"><ele>787.2</ele><time>2011-04-26T03:11:05.0000000+00:00</time></trkpt><trkpt lat="22.037766" lon="103.941086"><ele>787.1</ele><time>2011-04-26T03:11:10.0000000+00:00</time></trkpt><trkpt lat="22.037792" lon="103.941116"><ele>786.8</ele><time>2011-04-26T03:11:15.0000000+00:00</time></trkpt><trkpt lat="22.037848" lon="103.941154"><ele>786.1</ele><time>2011-04-26T03:11:20.0000000+00:00</time></trkpt><trkpt lat="22.037888" lon="103.9412"><ele>785.8</ele><time>2011-04-26T03:11:25.0000000+00:00</time></trkpt><trkpt lat="22.037937" lon="103.941246"><ele>785.8</ele><time>2011-04-26T03:11:30.0000000+00:00</time></trkpt><trkpt lat="22.037966" lon="103.941307"><ele>786.0</ele><time>2011-04-26T03:11:35.0000000+00:00</time></trkpt><trkpt lat="22.037985" lon="103.94136"><ele>785.9</ele><time>2011-04-26T03:11:40.0000000+00:00</time></trkpt><trkpt lat="22.037981" lon="103.941429"><ele>786.1</ele><time>2011-04-26T03:11:45.0000000+00:00</time></trkpt><trkpt lat="22.037979" lon="103.941475"><ele>786.3</ele><time>2011-04-26T03:11:50.0000000+00:00</time></trkpt><trkpt lat="22.037985" lon="103.941544"><ele>785.6</ele><time>2011-04-26T03:11:55.0000000+00:00</time></trkpt><trkpt lat="22.037991" lon="103.941605"><ele>785.8</ele><time>2011-04-26T03:12:00.0000000+00:00</time></trkpt><trkpt lat="22.037998" lon="103.941643"><ele>785.8</ele><time>2011-04-26T03:12:05.0000000+00:00</time></trkpt><trkpt lat="22.037998" lon="103.941711"><ele>785.8</ele><time>2011-04-26T03:12:10.0000000+00:00</time></trkpt><trkpt lat="22.037977" lon="103.94178"><ele>786.1</ele><time>2011-04-26T03:12:15.0000000+00:00</time></trkpt><trkpt lat="22.037949" lon="103.941841"><ele>786.5</ele><time>2011-04-26T03:12:20.0000000+00:00</time></trkpt><trkpt lat="22.037956" lon="103.941895"><ele>787.6</ele><time>2011-04-26T03:12:25.0000000+00:00</time></trkpt><trkpt lat="22.03801" lon="103.941978"><ele>789.4</ele><time>2011-04-26T03:12:30.0000000+00:00</time></trkpt><trkpt lat="22.038054" lon="103.942062"><ele>789.5</ele><time>2011-04-26T03:12:35.0000000+00:00</time></trkpt><trkpt lat="22.038128" lon="103.942169"><ele>788.6</ele><time>2011-04-26T03:12:40.0000000+00:00</time></trkpt><trkpt lat="22.038153" lon="103.942223"><ele>789.3</ele><time>2011-04-26T03:12:45.0000000+00:00</time></trkpt><trkpt lat="22.038206" lon="103.942284"><ele>790.0</ele><time>2011-04-26T03:12:50.0000000+00:00</time></trkpt><trkpt lat="22.038216" lon="103.942345"><ele>790.1</ele><time>2011-04-26T03:12:55.0000000+00:00</time></trkpt><trkpt lat="22.038235" lon="103.942398"><ele>790.3</ele><time>2011-04-26T03:13:00.0000000+00:00</time></trkpt><trkpt lat="22.038275" lon="103.942459"><ele>790.5</ele><time>2011-04-26T03:13:05.0000000+00:00</time></trkpt><trkpt lat="22.0383" lon="103.942535"><ele>790.0</ele><time>2011-04-26T03:13:10.0000000+00:00</time></trkpt><trkpt lat="22.038282" lon="103.942612"><ele>789.6</ele><time>2011-04-26T03:13:15.0000000+00:00</time></trkpt><trkpt lat="22.038267" lon="103.942696"><ele>789.1</ele><time>2011-04-26T03:13:20.0000000+00:00</time></trkpt><trkpt lat="22.038246" lon="103.942764"><ele>789.1</ele><time>2011-04-26T03:13:25.0000000+00:00</time></trkpt><trkpt lat="22.038282" lon="103.942825"><ele>789.6</ele><time>2011-04-26T03:13:30.0000000+00:00</time></trkpt><trkpt lat="22.038279" lon="103.942879"><ele>791.3</ele><time>2011-04-26T03:13:35.0000000+00:00</time></trkpt><trkpt lat="22.038271" lon="103.942955"><ele>792.0</ele><time>2011-04-26T03:13:40.0000000+00:00</time></trkpt><trkpt lat="22.038267" lon="103.943024"><ele>792.6</ele><time>2011-04-26T03:13:45.0000000+00:00</time></trkpt><trkpt lat="22.038242" lon="103.943085"><ele>793.3</ele><time>2011-04-26T03:13:50.0000000+00:00</time></trkpt><trkpt lat="22.038246" lon="103.943146"><ele>793.8</ele><time>2011-04-26T03:13:55.0000000+00:00</time></trkpt><trkpt lat="22.038231" lon="103.94323"><ele>794.4</ele><time>2011-04-26T03:14:00.0000000+00:00</time></trkpt><trkpt lat="22.038235" lon="103.943283"><ele>794.9</ele><time>2011-04-26T03:14:05.0000000+00:00</time></trkpt><trkpt lat="22.038242" lon="103.943352"><ele>794.8</ele><time>2011-04-26T03:14:10.0000000+00:00</time></trkpt><trkpt lat="22.038239" lon="103.943428"><ele>796.0</ele><time>2011-04-26T03:14:15.0000000+00:00</time></trkpt><trkpt lat="22.038244" lon="103.943489"><ele>796.5</ele><time>2011-04-26T03:14:20.0000000+00:00</time></trkpt><trkpt lat="22.038286" lon="103.943581"><ele>797.9</ele><time>2011-04-26T03:14:25.0000000+00:00</time></trkpt><trkpt lat="22.038301" lon="103.943642"><ele>799.1</ele><time>2011-04-26T03:14:30.0000000+00:00</time></trkpt><trkpt lat="22.038324" lon="103.94371"><ele>800.4</ele><time>2011-04-26T03:14:35.0000000+00:00</time></trkpt><trkpt lat="22.03834" lon="103.943756"><ele>800.9</ele><time>2011-04-26T03:14:40.0000000+00:00</time></trkpt><trkpt lat="22.038334" lon="103.943817"><ele>801.1</ele><time>2011-04-26T03:14:45.0000000+00:00</time></trkpt><trkpt lat="22.038307" lon="103.943855"><ele>801.6</ele><time>2011-04-26T03:14:50.0000000+00:00</time></trkpt><trkpt lat="22.038275" lon="103.943909"><ele>802.8</ele><time>2011-04-26T03:14:55.0000000+00:00</time></trkpt><trkpt lat="22.038219" lon="103.94397"><ele>803.8</ele><time>2011-04-26T03:15:00.0000000+00:00</time></trkpt><trkpt lat="22.03817" lon="103.944023"><ele>804.7</ele><time>2011-04-26T03:15:05.0000000+00:00</time></trkpt><trkpt lat="22.038172" lon="103.944038"><ele>805.4</ele><time>2011-04-26T03:15:10.0000000+00:00</time></trkpt><trkpt lat="22.038187" lon="103.944038"><ele>805.8</ele><time>2011-04-26T03:15:15.0000000+00:00</time></trkpt><trkpt lat="22.038193" lon="103.944046"><ele>806.4</ele><time>2011-04-26T03:15:20.0000000+00:00</time></trkpt><trkpt lat="22.038193" lon="103.944046"><ele>807.0</ele><time>2011-04-26T03:15:25.0000000+00:00</time></trkpt><trkpt lat="22.038189" lon="103.944046"><ele>807.6</ele><time>2011-04-26T03:15:30.0000000+00:00</time></trkpt><trkpt lat="22.038187" lon="103.944046"><ele>808.2</ele><time>2011-04-26T03:15:35.0000000+00:00</time></trkpt><trkpt lat="22.038189" lon="103.944046"><ele>808.8</ele><time>2011-04-26T03:15:40.0000000+00:00</time></trkpt><trkpt lat="22.038189" lon="103.944038"><ele>809.4</ele><time>2011-04-26T03:15:45.0000000+00:00</time></trkpt><trkpt lat="22.038193" lon="103.944023"><ele>809.9</ele><time>2011-04-26T03:15:50.0000000+00:00</time></trkpt><trkpt lat="22.038197" lon="103.944016"><ele>810.5</ele><time>2011-04-26T03:15:55.0000000+00:00</time></trkpt><trkpt lat="22.0382" lon="103.944016"><ele>811.1</ele><time>2011-04-26T03:16:00.0000000+00:00</time></trkpt><trkpt lat="22.038204" lon="103.944008"><ele>811.7</ele><time>2011-04-26T03:16:05.0000000+00:00</time></trkpt><trkpt lat="22.038208" lon="103.944008"><ele>812.3</ele><time>2011-04-26T03:16:10.0000000+00:00</time></trkpt><trkpt lat="22.038208" lon="103.944008"><ele>812.8</ele><time>2011-04-26T03:16:15.0000000+00:00</time></trkpt><trkpt lat="22.038206" lon="103.944008"><ele>813.4</ele><time>2011-04-26T03:16:20.0000000+00:00</time></trkpt><trkpt lat="22.038204" lon="103.944008"><ele>814.0</ele><time>2011-04-26T03:16:25.0000000+00:00</time></trkpt><trkpt lat="22.038204" lon="103.944008"><ele>814.6</ele><time>2011-04-26T03:16:30.0000000+00:00</time></trkpt><trkpt lat="22.038198" lon="103.944008"><ele>815.1</ele><time>2011-04-26T03:16:35.0000000+00:00</time></trkpt><trkpt lat="22.038191" lon="103.944008"><ele>815.7</ele><time>2011-04-26T03:16:40.0000000+00:00</time></trkpt><trkpt lat="22.038162" lon="103.944046"><ele>816.1</ele><time>2011-04-26T03:16:45.0000000+00:00</time></trkpt><trkpt lat="22.038111" lon="103.944107"><ele>816.1</ele><time>2011-04-26T03:16:50.0000000+00:00</time></trkpt><trkpt lat="22.038048" lon="103.944183"><ele>816.1</ele><time>2011-04-26T03:16:55.0000000+00:00</time></trkpt><trkpt lat="22.037996" lon="103.944237"><ele>815.5</ele><time>2011-04-26T03:17:00.0000000+00:00</time></trkpt><trkpt lat="22.037949" lon="103.94429"><ele>814.8</ele><time>2011-04-26T03:17:05.0000000+00:00</time></trkpt><trkpt lat="22.037874" lon="103.944351"><ele>813.4</ele><time>2011-04-26T03:17:10.0000000+00:00</time></trkpt><trkpt lat="22.037792" lon="103.944412"><ele>811.7</ele><time>2011-04-26T03:17:15.0000000+00:00</time></trkpt><trkpt lat="22.037739" lon="103.944466"><ele>811.6</ele><time>2011-04-26T03:17:20.0000000+00:00</time></trkpt><trkpt lat="22.037683" lon="103.944496"><ele>810.7</ele><time>2011-04-26T03:17:25.0000000+00:00</time></trkpt><trkpt lat="22.037609" lon="103.944572"><ele>811.2</ele><time>2011-04-26T03:17:30.0000000+00:00</time></trkpt><trkpt lat="22.037567" lon="103.944618"><ele>810.9</ele><time>2011-04-26T03:17:35.0000000+00:00</time></trkpt><trkpt lat="22.037525" lon="103.944695"><ele>810.9</ele><time>2011-04-26T03:17:40.0000000+00:00</time></trkpt><trkpt lat="22.037477" lon="103.944771"><ele>811.1</ele><time>2011-04-26T03:17:45.0000000+00:00</time></trkpt><trkpt lat="22.037458" lon="103.944855"><ele>811.0</ele><time>2011-04-26T03:17:50.0000000+00:00</time></trkpt><trkpt lat="22.037468" lon="103.944969"><ele>811.9</ele><time>2011-04-26T03:17:55.0000000+00:00</time></trkpt><trkpt lat="22.037447" lon="103.945061"><ele>812.3</ele><time>2011-04-26T03:18:00.0000000+00:00</time></trkpt><trkpt lat="22.037415" lon="103.945152"><ele>811.8</ele><time>2011-04-26T03:18:05.0000000+00:00</time></trkpt><trkpt lat="22.037451" lon="103.945251"><ele>812.5</ele><time>2011-04-26T03:18:10.0000000+00:00</time></trkpt><trkpt lat="22.037416" lon="103.945335"><ele>813.0</ele><time>2011-04-26T03:18:15.0000000+00:00</time></trkpt><trkpt lat="22.037409" lon="103.945435"><ele>813.5</ele><time>2011-04-26T03:18:20.0000000+00:00</time></trkpt><trkpt lat="22.037384" lon="103.945511"><ele>814.1</ele><time>2011-04-26T03:18:25.0000000+00:00</time></trkpt><trkpt lat="22.037378" lon="103.945564"><ele>814.5</ele><time>2011-04-26T03:18:30.0000000+00:00</time></trkpt><trkpt lat="22.037369" lon="103.945633"><ele>815.3</ele><time>2011-04-26T03:18:35.0000000+00:00</time></trkpt><trkpt lat="22.037365" lon="103.945717"><ele>815.6</ele><time>2011-04-26T03:18:40.0000000+00:00</time></trkpt><trkpt lat="22.037331" lon="103.945824"><ele>816.8</ele><time>2011-04-26T03:18:45.0000000+00:00</time></trkpt><trkpt lat="22.037294" lon="103.945892"><ele>816.7</ele><time>2011-04-26T03:18:50.0000000+00:00</time></trkpt><trkpt lat="22.03727" lon="103.945969"><ele>816.1</ele><time>2011-04-26T03:18:55.0000000+00:00</time></trkpt><trkpt lat="22.037237" lon="103.94603"><ele>816.3</ele><time>2011-04-26T03:19:00.0000000+00:00</time></trkpt><trkpt lat="22.037201" lon="103.946068"><ele>816.7</ele><time>2011-04-26T03:19:05.0000000+00:00</time></trkpt><trkpt lat="22.037148" lon="103.946129"><ele>816.9</ele><time>2011-04-26T03:19:10.0000000+00:00</time></trkpt><trkpt lat="22.037098" lon="103.946205"><ele>817.6</ele><time>2011-04-26T03:19:15.0000000+00:00</time></trkpt><trkpt lat="22.037037" lon="103.946304"><ele>818.3</ele><time>2011-04-26T03:19:20.0000000+00:00</time></trkpt><trkpt lat="22.036972" lon="103.946358"><ele>819.4</ele><time>2011-04-26T03:19:25.0000000+00:00</time></trkpt><trkpt lat="22.0369" lon="103.946434"><ele>819.4</ele><time>2011-04-26T03:19:30.0000000+00:00</time></trkpt><trkpt lat="22.036837" lon="103.946518"><ele>820.1</ele><time>2011-04-26T03:19:35.0000000+00:00</time></trkpt><trkpt lat="22.036787" lon="103.946571"><ele>821.7</ele><time>2011-04-26T03:19:40.0000000+00:00</time></trkpt><trkpt lat="22.03673" lon="103.946632"><ele>822.0</ele><time>2011-04-26T03:19:45.0000000+00:00</time></trkpt><trkpt lat="22.036674" lon="103.946701"><ele>822.7</ele><time>2011-04-26T03:19:50.0000000+00:00</time></trkpt><trkpt lat="22.036631" lon="103.9468"><ele>823.5</ele><time>2011-04-26T03:19:55.0000000+00:00</time></trkpt><trkpt lat="22.036608" lon="103.946884"><ele>822.4</ele><time>2011-04-26T03:20:00.0000000+00:00</time></trkpt><trkpt lat="22.03657" lon="103.94696"><ele>823.3</ele><time>2011-04-26T03:20:05.0000000+00:00</time></trkpt><trkpt lat="22.03652" lon="103.947021"><ele>823.4</ele><time>2011-04-26T03:20:10.0000000+00:00</time></trkpt><trkpt lat="22.036417" lon="103.947105"><ele>824.0</ele><time>2011-04-26T03:20:15.0000000+00:00</time></trkpt><trkpt lat="22.036345" lon="103.947205"><ele>823.3</ele><time>2011-04-26T03:20:20.0000000+00:00</time></trkpt><trkpt lat="22.036287" lon="103.947273"><ele>823.1</ele><time>2011-04-26T03:20:25.0000000+00:00</time></trkpt><trkpt lat="22.036251" lon="103.94738"><ele>823.3</ele><time>2011-04-26T03:20:30.0000000+00:00</time></trkpt><trkpt lat="22.036224" lon="103.947456"><ele>822.6</ele><time>2011-04-26T03:20:35.0000000+00:00</time></trkpt><trkpt lat="22.036226" lon="103.947525"><ele>822.1</ele><time>2011-04-26T03:20:40.0000000+00:00</time></trkpt><trkpt lat="22.036234" lon="103.947571"><ele>822.2</ele><time>2011-04-26T03:20:45.0000000+00:00</time></trkpt><trkpt lat="22.036274" lon="103.947655"><ele>823.1</ele><time>2011-04-26T03:20:50.0000000+00:00</time></trkpt><trkpt lat="22.036341" lon="103.947739"><ele>823.7</ele><time>2011-04-26T03:20:55.0000000+00:00</time></trkpt><trkpt lat="22.036396" lon="103.9478"><ele>825.5</ele><time>2011-04-26T03:21:00.0000000+00:00</time></trkpt><trkpt lat="22.036377" lon="103.9478"><ele>825.6</ele><time>2011-04-26T03:21:05.0000000+00:00</time></trkpt><trkpt lat="22.036373" lon="103.947823"><ele>825.2</ele><time>2011-04-26T03:21:10.0000000+00:00</time></trkpt><trkpt lat="22.036369" lon="103.94783"><ele>825.0</ele><time>2011-04-26T03:21:15.0000000+00:00</time></trkpt><trkpt lat="22.036371" lon="103.947845"><ele>824.8</ele><time>2011-04-26T03:21:20.0000000+00:00</time></trkpt><trkpt lat="22.036388" lon="103.94783"><ele>824.7</ele><time>2011-04-26T03:21:25.0000000+00:00</time></trkpt><trkpt lat="22.036413" lon="103.947823"><ele>824.6</ele><time>2011-04-26T03:21:30.0000000+00:00</time></trkpt><trkpt lat="22.036423" lon="103.947815"><ele>824.4</ele><time>2011-04-26T03:21:35.0000000+00:00</time></trkpt><trkpt lat="22.03643" lon="103.947815"><ele>824.1</ele><time>2011-04-26T03:21:40.0000000+00:00</time></trkpt><trkpt lat="22.036436" lon="103.947807"><ele>823.9</ele><time>2011-04-26T03:21:45.0000000+00:00</time></trkpt><trkpt lat="22.036436" lon="103.947807"><ele>823.8</ele><time>2011-04-26T03:21:50.0000000+00:00</time></trkpt><trkpt lat="22.036434" lon="103.947815"><ele>823.6</ele><time>2011-04-26T03:21:55.0000000+00:00</time></trkpt><trkpt lat="22.036432" lon="103.947815"><ele>823.5</ele><time>2011-04-26T03:22:00.0000000+00:00</time></trkpt><trkpt lat="22.03643" lon="103.947815"><ele>823.5</ele><time>2011-04-26T03:22:05.0000000+00:00</time></trkpt><trkpt lat="22.036432" lon="103.947815"><ele>823.6</ele><time>2011-04-26T03:22:10.0000000+00:00</time></trkpt><trkpt lat="22.036436" lon="103.947823"><ele>823.7</ele><time>2011-04-26T03:22:15.0000000+00:00</time></trkpt><trkpt lat="22.036444" lon="103.94783"><ele>823.9</ele><time>2011-04-26T03:22:20.0000000+00:00</time></trkpt><trkpt lat="22.036453" lon="103.94783"><ele>824.2</ele><time>2011-04-26T03:22:25.0000000+00:00</time></trkpt><trkpt lat="22.03648" lon="103.947838"><ele>826.2</ele><time>2011-04-26T03:22:30.0000000+00:00</time></trkpt><trkpt lat="22.036488" lon="103.947845"><ele>827.7</ele><time>2011-04-26T03:22:35.0000000+00:00</time></trkpt><trkpt lat="22.036493" lon="103.947845"><ele>828.1</ele><time>2011-04-26T03:22:40.0000000+00:00</time></trkpt><trkpt lat="22.036497" lon="103.947845"><ele>828.5</ele><time>2011-04-26T03:22:45.0000000+00:00</time></trkpt><trkpt lat="22.036497" lon="103.947845"><ele>828.9</ele><time>2011-04-26T03:22:50.0000000+00:00</time></trkpt><trkpt lat="22.036499" lon="103.947845"><ele>829.4</ele><time>2011-04-26T03:22:55.0000000+00:00</time></trkpt><trkpt lat="22.036501" lon="103.947845"><ele>829.9</ele><time>2011-04-26T03:23:00.0000000+00:00</time></trkpt><trkpt lat="22.036507" lon="103.947845"><ele>830.4</ele><time>2011-04-26T03:23:05.0000000+00:00</time></trkpt><trkpt lat="22.036512" lon="103.947853"><ele>830.9</ele><time>2011-04-26T03:23:10.0000000+00:00</time></trkpt><trkpt lat="22.036518" lon="103.947861"><ele>831.5</ele><time>2011-04-26T03:23:15.0000000+00:00</time></trkpt><trkpt lat="22.036524" lon="103.947861"><ele>832.1</ele><time>2011-04-26T03:23:20.0000000+00:00</time></trkpt><trkpt lat="22.036531" lon="103.947868"><ele>832.7</ele><time>2011-04-26T03:23:25.0000000+00:00</time></trkpt><trkpt lat="22.036539" lon="103.947868"><ele>833.2</ele><time>2011-04-26T03:23:30.0000000+00:00</time></trkpt><trkpt lat="22.036543" lon="103.947868"><ele>833.8</ele><time>2011-04-26T03:23:35.0000000+00:00</time></trkpt><trkpt lat="22.036547" lon="103.947876"><ele>834.4</ele><time>2011-04-26T03:23:40.0000000+00:00</time></trkpt><trkpt lat="22.036551" lon="103.947876"><ele>835.1</ele><time>2011-04-26T03:23:45.0000000+00:00</time></trkpt><trkpt lat="22.036554" lon="103.947868"><ele>835.7</ele><time>2011-04-26T03:23:50.0000000+00:00</time></trkpt><trkpt lat="22.036554" lon="103.947868"><ele>836.4</ele><time>2011-04-26T03:23:55.0000000+00:00</time></trkpt><trkpt lat="22.036552" lon="103.947853"><ele>837.0</ele><time>2011-04-26T03:24:00.0000000+00:00</time></trkpt><trkpt lat="22.036552" lon="103.947845"><ele>837.6</ele><time>2011-04-26T03:24:05.0000000+00:00</time></trkpt><trkpt lat="22.036552" lon="103.947845"><ele>838.3</ele><time>2011-04-26T03:24:10.0000000+00:00</time></trkpt><trkpt lat="22.036554" lon="103.947838"><ele>839.0</ele><time>2011-04-26T03:24:15.0000000+00:00</time></trkpt><trkpt lat="22.036558" lon="103.947838"><ele>839.6</ele><time>2011-04-26T03:24:20.0000000+00:00</time></trkpt><trkpt lat="22.036558" lon="103.947838"><ele>840.3</ele><time>2011-04-26T03:24:25.0000000+00:00</time></trkpt><trkpt lat="22.036558" lon="103.94783"><ele>841.0</ele><time>2011-04-26T03:24:30.0000000+00:00</time></trkpt><trkpt lat="22.036558" lon="103.947823"><ele>841.7</ele><time>2011-04-26T03:24:35.0000000+00:00</time></trkpt><trkpt lat="22.036558" lon="103.947815"><ele>842.4</ele><time>2011-04-26T03:24:40.0000000+00:00</time></trkpt><trkpt lat="22.036552" lon="103.9478"><ele>843.2</ele><time>2011-04-26T03:24:45.0000000+00:00</time></trkpt><trkpt lat="22.036554" lon="103.9478"><ele>843.7</ele><time>2011-04-26T03:24:50.0000000+00:00</time></trkpt><trkpt lat="22.036554" lon="103.947792"><ele>844.3</ele><time>2011-04-26T03:24:55.0000000+00:00</time></trkpt><trkpt lat="22.036554" lon="103.947784"><ele>844.9</ele><time>2011-04-26T03:25:00.0000000+00:00</time></trkpt><trkpt lat="22.036556" lon="103.947784"><ele>845.5</ele><time>2011-04-26T03:25:05.0000000+00:00</time></trkpt><trkpt lat="22.036558" lon="103.947784"><ele>846.1</ele><time>2011-04-26T03:25:10.0000000+00:00</time></trkpt><trkpt lat="22.03656" lon="103.947784"><ele>846.6</ele><time>2011-04-26T03:25:15.0000000+00:00</time></trkpt><trkpt lat="22.036566" lon="103.947784"><ele>847.2</ele><time>2011-04-26T03:25:20.0000000+00:00</time></trkpt><trkpt lat="22.036572" lon="103.947792"><ele>847.8</ele><time>2011-04-26T03:25:25.0000000+00:00</time></trkpt><trkpt lat="22.036575" lon="103.9478"><ele>848.4</ele><time>2011-04-26T03:25:30.0000000+00:00</time></trkpt><trkpt lat="22.036575" lon="103.947792"><ele>848.9</ele><time>2011-04-26T03:25:35.0000000+00:00</time></trkpt><trkpt lat="22.036577" lon="103.947792"><ele>849.5</ele><time>2011-04-26T03:25:40.0000000+00:00</time></trkpt><trkpt lat="22.036579" lon="103.947784"><ele>850.1</ele><time>2011-04-26T03:25:45.0000000+00:00</time></trkpt><trkpt lat="22.036579" lon="103.947784"><ele>850.6</ele><time>2011-04-26T03:25:50.0000000+00:00</time></trkpt><trkpt lat="22.036581" lon="103.947784"><ele>851.2</ele><time>2011-04-26T03:25:55.0000000+00:00</time></trkpt><trkpt lat="22.036583" lon="103.947777"><ele>851.8</ele><time>2011-04-26T03:26:00.0000000+00:00</time></trkpt><trkpt lat="22.036583" lon="103.947777"><ele>852.4</ele><time>2011-04-26T03:26:05.0000000+00:00</time></trkpt><trkpt lat="22.036583" lon="103.947769"><ele>852.9</ele><time>2011-04-26T03:26:10.0000000+00:00</time></trkpt><trkpt lat="22.036583" lon="103.947762"><ele>853.5</ele><time>2011-04-26T03:26:15.0000000+00:00</time></trkpt><trkpt lat="22.036585" lon="103.947762"><ele>854.1</ele><time>2011-04-26T03:26:20.0000000+00:00</time></trkpt><trkpt lat="22.036585" lon="103.947754"><ele>854.6</ele><time>2011-04-26T03:26:25.0000000+00:00</time></trkpt><trkpt lat="22.036587" lon="103.947754"><ele>855.2</ele><time>2011-04-26T03:26:30.0000000+00:00</time></trkpt><trkpt lat="22.036591" lon="103.947754"><ele>855.8</ele><time>2011-04-26T03:26:35.0000000+00:00</time></trkpt><trkpt lat="22.036596" lon="103.947762"><ele>856.4</ele><time>2011-04-26T03:26:40.0000000+00:00</time></trkpt><trkpt lat="22.0366" lon="103.947769"><ele>857.0</ele><time>2011-04-26T03:26:45.0000000+00:00</time></trkpt><trkpt lat="22.036604" lon="103.947769"><ele>857.5</ele><time>2011-04-26T03:26:50.0000000+00:00</time></trkpt><trkpt lat="22.036606" lon="103.947769"><ele>858.1</ele><time>2011-04-26T03:26:55.0000000+00:00</time></trkpt><trkpt lat="22.036608" lon="103.947769"><ele>858.6</ele><time>2011-04-26T03:27:00.0000000+00:00</time></trkpt><trkpt lat="22.036612" lon="103.947769"><ele>859.2</ele><time>2011-04-26T03:27:05.0000000+00:00</time></trkpt><trkpt lat="22.036613" lon="103.947769"><ele>859.7</ele><time>2011-04-26T03:27:10.0000000+00:00</time></trkpt><trkpt lat="22.036615" lon="103.947769"><ele>860.2</ele><time>2011-04-26T03:27:15.0000000+00:00</time></trkpt><trkpt lat="22.036615" lon="103.947762"><ele>860.7</ele><time>2011-04-26T03:27:20.0000000+00:00</time></trkpt><trkpt lat="22.036613" lon="103.947754"><ele>861.1</ele><time>2011-04-26T03:27:25.0000000+00:00</time></trkpt><trkpt lat="22.036615" lon="103.947754"><ele>861.5</ele><time>2011-04-26T03:27:30.0000000+00:00</time></trkpt><trkpt lat="22.036615" lon="103.947754"><ele>861.9</ele><time>2011-04-26T03:27:35.0000000+00:00</time></trkpt><trkpt lat="22.036615" lon="103.947746"><ele>862.4</ele><time>2011-04-26T03:27:40.0000000+00:00</time></trkpt><trkpt lat="22.036613" lon="103.947739"><ele>862.8</ele><time>2011-04-26T03:27:45.0000000+00:00</time></trkpt><trkpt lat="22.036615" lon="103.947739"><ele>863.2</ele><time>2011-04-26T03:27:50.0000000+00:00</time></trkpt><trkpt lat="22.036617" lon="103.947739"><ele>863.6</ele><time>2011-04-26T03:27:55.0000000+00:00</time></trkpt><trkpt lat="22.036623" lon="103.947746"><ele>864.0</ele><time>2011-04-26T03:28:00.0000000+00:00</time></trkpt><trkpt lat="22.036623" lon="103.947746"><ele>864.3</ele><time>2011-04-26T03:28:05.0000000+00:00</time></trkpt><trkpt lat="22.036625" lon="103.947746"><ele>864.7</ele><time>2011-04-26T03:28:10.0000000+00:00</time></trkpt><trkpt lat="22.036627" lon="103.947746"><ele>865.0</ele><time>2011-04-26T03:28:15.0000000+00:00</time></trkpt><trkpt lat="22.036629" lon="103.947746"><ele>865.4</ele><time>2011-04-26T03:28:20.0000000+00:00</time></trkpt><trkpt lat="22.036631" lon="103.947754"><ele>865.7</ele><time>2011-04-26T03:28:25.0000000+00:00</time></trkpt><trkpt lat="22.036634" lon="103.947762"><ele>866.1</ele><time>2011-04-26T03:28:30.0000000+00:00</time></trkpt><trkpt lat="22.036638" lon="103.947769"><ele>866.4</ele><time>2011-04-26T03:28:35.0000000+00:00</time></trkpt><trkpt lat="22.036642" lon="103.947769"><ele>866.7</ele><time>2011-04-26T03:28:40.0000000+00:00</time></trkpt><trkpt lat="22.036644" lon="103.947769"><ele>867.0</ele><time>2011-04-26T03:28:45.0000000+00:00</time></trkpt><trkpt lat="22.036644" lon="103.947769"><ele>867.3</ele><time>2011-04-26T03:28:50.0000000+00:00</time></trkpt><trkpt lat="22.036642" lon="103.947762"><ele>867.6</ele><time>2011-04-26T03:28:55.0000000+00:00</time></trkpt><trkpt lat="22.03664" lon="103.947754"><ele>867.9</ele><time>2011-04-26T03:29:00.0000000+00:00</time></trkpt><trkpt lat="22.036638" lon="103.947746"><ele>868.1</ele><time>2011-04-26T03:29:05.0000000+00:00</time></trkpt><trkpt lat="22.036636" lon="103.947746"><ele>868.3</ele><time>2011-04-26T03:29:10.0000000+00:00</time></trkpt><trkpt lat="22.036631" lon="103.947739"><ele>868.5</ele><time>2011-04-26T03:29:15.0000000+00:00</time></trkpt><trkpt lat="22.036629" lon="103.947731"><ele>868.7</ele><time>2011-04-26T03:29:20.0000000+00:00</time></trkpt><trkpt lat="22.036625" lon="103.947723"><ele>868.9</ele><time>2011-04-26T03:29:25.0000000+00:00</time></trkpt><trkpt lat="22.036623" lon="103.947723"><ele>869.1</ele><time>2011-04-26T03:29:30.0000000+00:00</time></trkpt><trkpt lat="22.036619" lon="103.947723"><ele>869.2</ele><time>2011-04-26T03:29:35.0000000+00:00</time></trkpt><trkpt lat="22.036615" lon="103.947716"><ele>869.4</ele><time>2011-04-26T03:29:40.0000000+00:00</time></trkpt><trkpt lat="22.036612" lon="103.947716"><ele>869.6</ele><time>2011-04-26T03:29:45.0000000+00:00</time></trkpt><trkpt lat="22.036608" lon="103.947716"><ele>869.7</ele><time>2011-04-26T03:29:50.0000000+00:00</time></trkpt><trkpt lat="22.036608" lon="103.947723"><ele>869.9</ele><time>2011-04-26T03:29:55.0000000+00:00</time></trkpt><trkpt lat="22.03661" lon="103.947716"><ele>870.0</ele><time>2011-04-26T03:30:00.0000000+00:00</time></trkpt><trkpt lat="22.036613" lon="103.947723"><ele>870.1</ele><time>2011-04-26T03:30:05.0000000+00:00</time></trkpt><trkpt lat="22.036619" lon="103.947723"><ele>870.2</ele><time>2011-04-26T03:30:10.0000000+00:00</time></trkpt><trkpt lat="22.036625" lon="103.947731"><ele>870.3</ele><time>2011-04-26T03:30:15.0000000+00:00</time></trkpt><trkpt lat="22.036633" lon="103.947746"><ele>870.4</ele><time>2011-04-26T03:30:20.0000000+00:00</time></trkpt><trkpt lat="22.036642" lon="103.947746"><ele>870.4</ele><time>2011-04-26T03:30:25.0000000+00:00</time></trkpt><trkpt lat="22.036652" lon="103.947746"><ele>870.5</ele><time>2011-04-26T03:30:30.0000000+00:00</time></trkpt><trkpt lat="22.036657" lon="103.947746"><ele>870.5</ele><time>2011-04-26T03:30:35.0000000+00:00</time></trkpt><trkpt lat="22.036661" lon="103.947754"><ele>870.6</ele><time>2011-04-26T03:30:40.0000000+00:00</time></trkpt><trkpt lat="22.036657" lon="103.947762"><ele>870.5</ele><time>2011-04-26T03:30:45.0000000+00:00</time></trkpt><trkpt lat="22.036655" lon="103.947762"><ele>870.4</ele><time>2011-04-26T03:30:50.0000000+00:00</time></trkpt><trkpt lat="22.036648" lon="103.947762"><ele>870.3</ele><time>2011-04-26T03:30:55.0000000+00:00</time></trkpt><trkpt lat="22.03664" lon="103.947754"><ele>870.2</ele><time>2011-04-26T03:31:00.0000000+00:00</time></trkpt><trkpt lat="22.036631" lon="103.947746"><ele>870.0</ele><time>2011-04-26T03:31:05.0000000+00:00</time></trkpt><trkpt lat="22.036608" lon="103.947746"><ele>869.2</ele><time>2011-04-26T03:31:10.0000000+00:00</time></trkpt><trkpt lat="22.036573" lon="103.947762"><ele>866.4</ele><time>2011-04-26T03:31:15.0000000+00:00</time></trkpt><trkpt lat="22.03656" lon="103.947762"><ele>864.4</ele><time>2011-04-26T03:31:20.0000000+00:00</time></trkpt><trkpt lat="22.036558" lon="103.947762"><ele>863.9</ele><time>2011-04-26T03:31:25.0000000+00:00</time></trkpt><trkpt lat="22.036566" lon="103.947754"><ele>863.5</ele><time>2011-04-26T03:31:30.0000000+00:00</time></trkpt><trkpt lat="22.036572" lon="103.947746"><ele>863.0</ele><time>2011-04-26T03:31:35.0000000+00:00</time></trkpt><trkpt lat="22.036575" lon="103.947739"><ele>862.5</ele><time>2011-04-26T03:31:40.0000000+00:00</time></trkpt><trkpt lat="22.036581" lon="103.947739"><ele>862.0</ele><time>2011-04-26T03:31:45.0000000+00:00</time></trkpt><trkpt lat="22.036617" lon="103.947693"><ele>862.6</ele><time>2011-04-26T03:31:50.0000000+00:00</time></trkpt><trkpt lat="22.036661" lon="103.947685"><ele>863.0</ele><time>2011-04-26T03:31:55.0000000+00:00</time></trkpt><trkpt lat="22.036669" lon="103.947685"><ele>862.8</ele><time>2011-04-26T03:32:00.0000000+00:00</time></trkpt><trkpt lat="22.03668" lon="103.947685"><ele>863.2</ele><time>2011-04-26T03:32:05.0000000+00:00</time></trkpt><trkpt lat="22.036686" lon="103.947678"><ele>862.9</ele><time>2011-04-26T03:32:10.0000000+00:00</time></trkpt><trkpt lat="22.036688" lon="103.947662"><ele>862.4</ele><time>2011-04-26T03:32:15.0000000+00:00</time></trkpt><trkpt lat="22.036671" lon="103.947655"><ele>861.9</ele><time>2011-04-26T03:32:20.0000000+00:00</time></trkpt><trkpt lat="22.036636" lon="103.947617"><ele>860.9</ele><time>2011-04-26T03:32:25.0000000+00:00</time></trkpt><trkpt lat="22.036615" lon="103.947647"><ele>860.0</ele><time>2011-04-26T03:32:30.0000000+00:00</time></trkpt><trkpt lat="22.036608" lon="103.947647"><ele>860.0</ele><time>2011-04-26T03:32:35.0000000+00:00</time></trkpt><trkpt lat="22.036606" lon="103.947624"><ele>860.7</ele><time>2011-04-26T03:32:40.0000000+00:00</time></trkpt><trkpt lat="22.036596" lon="103.947601"><ele>860.8</ele><time>2011-04-26T03:32:45.0000000+00:00</time></trkpt><trkpt lat="22.036619" lon="103.947563"><ele>860.9</ele><time>2011-04-26T03:32:50.0000000+00:00</time></trkpt><trkpt lat="22.036596" lon="103.947578"><ele>859.0</ele><time>2011-04-26T03:32:55.0000000+00:00</time></trkpt><trkpt lat="22.036554" lon="103.947708"><ele>850.4</ele><time>2011-04-26T03:33:00.0000000+00:00</time></trkpt><trkpt lat="22.036526" lon="103.947739"><ele>845.9</ele><time>2011-04-26T03:33:05.0000000+00:00</time></trkpt><trkpt lat="22.036524" lon="103.947746"><ele>845.1</ele><time>2011-04-26T03:33:10.0000000+00:00</time></trkpt><trkpt lat="22.036522" lon="103.947746"><ele>844.5</ele><time>2011-04-26T03:33:15.0000000+00:00</time></trkpt><trkpt lat="22.036522" lon="103.947746"><ele>843.6</ele><time>2011-04-26T03:33:20.0000000+00:00</time></trkpt><trkpt lat="22.036526" lon="103.947746"><ele>842.8</ele><time>2011-04-26T03:33:25.0000000+00:00</time></trkpt><trkpt lat="22.036528" lon="103.947762"><ele>842.8</ele><time>2011-04-26T03:33:30.0000000+00:00</time></trkpt><trkpt lat="22.036526" lon="103.947769"><ele>842.3</ele><time>2011-04-26T03:33:35.0000000+00:00</time></trkpt><trkpt lat="22.036526" lon="103.947769"><ele>841.7</ele><time>2011-04-26T03:33:40.0000000+00:00</time></trkpt><trkpt lat="22.036524" lon="103.947769"><ele>841.1</ele><time>2011-04-26T03:33:45.0000000+00:00</time></trkpt><trkpt lat="22.036522" lon="103.947769"><ele>840.6</ele><time>2011-04-26T03:33:50.0000000+00:00</time></trkpt><trkpt lat="22.03652" lon="103.947777"><ele>840.1</ele><time>2011-04-26T03:33:55.0000000+00:00</time></trkpt><trkpt lat="22.036522" lon="103.947784"><ele>839.6</ele><time>2011-04-26T03:34:00.0000000+00:00</time></trkpt><trkpt lat="22.036524" lon="103.947792"><ele>839.1</ele><time>2011-04-26T03:34:05.0000000+00:00</time></trkpt><trkpt lat="22.036526" lon="103.947792"><ele>838.6</ele><time>2011-04-26T03:34:10.0000000+00:00</time></trkpt><trkpt lat="22.036526" lon="103.9478"><ele>838.1</ele><time>2011-04-26T03:34:15.0000000+00:00</time></trkpt><trkpt lat="22.036528" lon="103.9478"><ele>837.6</ele><time>2011-04-26T03:34:20.0000000+00:00</time></trkpt><trkpt lat="22.03653" lon="103.947807"><ele>837.2</ele><time>2011-04-26T03:34:25.0000000+00:00</time></trkpt><trkpt lat="22.036531" lon="103.947807"><ele>836.7</ele><time>2011-04-26T03:34:30.0000000+00:00</time></trkpt><trkpt lat="22.036537" lon="103.947807"><ele>836.3</ele><time>2011-04-26T03:34:35.0000000+00:00</time></trkpt><trkpt lat="22.036547" lon="103.947815"><ele>835.9</ele><time>2011-04-26T03:34:40.0000000+00:00</time></trkpt><trkpt lat="22.036552" lon="103.947823"><ele>835.5</ele><time>2011-04-26T03:34:45.0000000+00:00</time></trkpt><trkpt lat="22.036552" lon="103.94783"><ele>835.1</ele><time>2011-04-26T03:34:50.0000000+00:00</time></trkpt><trkpt lat="22.036541" lon="103.947853"><ele>834.7</ele><time>2011-04-26T03:34:55.0000000+00:00</time></trkpt><trkpt lat="22.036503" lon="103.947891"><ele>834.8</ele><time>2011-04-26T03:35:00.0000000+00:00</time></trkpt><trkpt lat="22.03652" lon="103.947891"><ele>835.1</ele><time>2011-04-26T03:35:05.0000000+00:00</time></trkpt><trkpt lat="22.036545" lon="103.947884"><ele>835.2</ele><time>2011-04-26T03:35:10.0000000+00:00</time></trkpt><trkpt lat="22.036581" lon="103.947914"><ele>835.0</ele><time>2011-04-26T03:35:15.0000000+00:00</time></trkpt><trkpt lat="22.036631" lon="103.947968"><ele>834.7</ele><time>2011-04-26T03:35:20.0000000+00:00</time></trkpt><trkpt lat="22.036682" lon="103.948021"><ele>834.6</ele><time>2011-04-26T03:35:25.0000000+00:00</time></trkpt><trkpt lat="22.036758" lon="103.948067"><ele>834.4</ele><time>2011-04-26T03:35:30.0000000+00:00</time></trkpt><trkpt lat="22.036825" lon="103.948097"><ele>834.6</ele><time>2011-04-26T03:35:35.0000000+00:00</time></trkpt><trkpt lat="22.036938" lon="103.948143"><ele>837.1</ele><time>2011-04-26T03:35:40.0000000+00:00</time></trkpt><trkpt lat="22.037029" lon="103.948166"><ele>838.0</ele><time>2011-04-26T03:35:45.0000000+00:00</time></trkpt><trkpt lat="22.037073" lon="103.948204"><ele>838.2</ele><time>2011-04-26T03:35:50.0000000+00:00</time></trkpt><trkpt lat="22.037159" lon="103.948227"><ele>837.9</ele><time>2011-04-26T03:35:55.0000000+00:00</time></trkpt><trkpt lat="22.037228" lon="103.948257"><ele>837.4</ele><time>2011-04-26T03:36:00.0000000+00:00</time></trkpt><trkpt lat="22.0373" lon="103.948273"><ele>837.7</ele><time>2011-04-26T03:36:05.0000000+00:00</time></trkpt><trkpt lat="22.037399" lon="103.948265"><ele>839.0</ele><time>2011-04-26T03:36:10.0000000+00:00</time></trkpt><trkpt lat="22.037498" lon="103.948242"><ele>840.7</ele><time>2011-04-26T03:36:15.0000000+00:00</time></trkpt><trkpt lat="22.037603" lon="103.948174"><ele>843.6</ele><time>2011-04-26T03:36:20.0000000+00:00</time></trkpt><trkpt lat="22.03768" lon="103.94812"><ele>848.4</ele><time>2011-04-26T03:36:25.0000000+00:00</time></trkpt><trkpt lat="22.037783" lon="103.948097"><ele>850.8</ele><time>2011-04-26T03:36:30.0000000+00:00</time></trkpt><trkpt lat="22.037851" lon="103.94809"><ele>851.5</ele><time>2011-04-26T03:36:35.0000000+00:00</time></trkpt><trkpt lat="22.037954" lon="103.94809"><ele>851.5</ele><time>2011-04-26T03:36:40.0000000+00:00</time></trkpt><trkpt lat="22.038036" lon="103.948082"><ele>852.0</ele><time>2011-04-26T03:36:45.0000000+00:00</time></trkpt><trkpt lat="22.038115" lon="103.948074"><ele>852.2</ele><time>2011-04-26T03:36:50.0000000+00:00</time></trkpt><trkpt lat="22.038197" lon="103.948074"><ele>851.3</ele><time>2011-04-26T03:36:55.0000000+00:00</time></trkpt><trkpt lat="22.038321" lon="103.948051"><ele>851.5</ele><time>2011-04-26T03:37:00.0000000+00:00</time></trkpt><trkpt lat="22.038445" lon="103.94799"><ele>852.1</ele><time>2011-04-26T03:37:05.0000000+00:00</time></trkpt><trkpt lat="22.038513" lon="103.94796"><ele>851.7</ele><time>2011-04-26T03:37:10.0000000+00:00</time></trkpt><trkpt lat="22.038567" lon="103.947891"><ele>855.9</ele><time>2011-04-26T03:37:15.0000000+00:00</time></trkpt><trkpt lat="22.038651" lon="103.947838"><ele>858.9</ele><time>2011-04-26T03:37:20.0000000+00:00</time></trkpt><trkpt lat="22.038687" lon="103.947762"><ele>859.9</ele><time>2011-04-26T03:37:25.0000000+00:00</time></trkpt><trkpt lat="22.03878" lon="103.947662"><ele>862.1</ele><time>2011-04-26T03:37:30.0000000+00:00</time></trkpt><trkpt lat="22.038795" lon="103.947601"><ele>864.8</ele><time>2011-04-26T03:37:35.0000000+00:00</time></trkpt><trkpt lat="22.038862" lon="103.947525"><ele>867.4</ele><time>2011-04-26T03:37:40.0000000+00:00</time></trkpt><trkpt lat="22.038914" lon="103.947464"><ele>868.2</ele><time>2011-04-26T03:37:45.0000000+00:00</time></trkpt><trkpt lat="22.038992" lon="103.94738"><ele>867.5</ele><time>2011-04-26T03:37:50.0000000+00:00</time></trkpt><trkpt lat="22.03907" lon="103.947304"><ele>867.4</ele><time>2011-04-26T03:37:55.0000000+00:00</time></trkpt><trkpt lat="22.03915" lon="103.94725"><ele>868.0</ele><time>2011-04-26T03:38:00.0000000+00:00</time></trkpt><trkpt lat="22.039219" lon="103.947189"><ele>868.4</ele><time>2011-04-26T03:38:05.0000000+00:00</time></trkpt><trkpt lat="22.039278" lon="103.947136"><ele>868.9</ele><time>2011-04-26T03:38:10.0000000+00:00</time></trkpt><trkpt lat="22.03933" lon="103.947113"><ele>869.9</ele><time>2011-04-26T03:38:15.0000000+00:00</time></trkpt><trkpt lat="22.039385" lon="103.947098"><ele>869.9</ele><time>2011-04-26T03:38:20.0000000+00:00</time></trkpt><trkpt lat="22.039459" lon="103.947121"><ele>869.0</ele><time>2011-04-26T03:38:25.0000000+00:00</time></trkpt><trkpt lat="22.03957" lon="103.947113"><ele>870.5</ele><time>2011-04-26T03:38:30.0000000+00:00</time></trkpt><trkpt lat="22.0396" lon="103.947174"><ele>870.8</ele><time>2011-04-26T03:38:35.0000000+00:00</time></trkpt><trkpt lat="22.039625" lon="103.947212"><ele>870.7</ele><time>2011-04-26T03:38:40.0000000+00:00</time></trkpt><trkpt lat="22.039654" lon="103.947266"><ele>871.0</ele><time>2011-04-26T03:38:45.0000000+00:00</time></trkpt><trkpt lat="22.039671" lon="103.947342"><ele>871.8</ele><time>2011-04-26T03:38:50.0000000+00:00</time></trkpt><trkpt lat="22.039696" lon="103.947411"><ele>872.7</ele><time>2011-04-26T03:38:55.0000000+00:00</time></trkpt><trkpt lat="22.039696" lon="103.94751"><ele>872.7</ele><time>2011-04-26T03:39:00.0000000+00:00</time></trkpt><trkpt lat="22.03969" lon="103.947578"><ele>874.3</ele><time>2011-04-26T03:39:05.0000000+00:00</time></trkpt><trkpt lat="22.039694" lon="103.947632"><ele>873.8</ele><time>2011-04-26T03:39:10.0000000+00:00</time></trkpt><trkpt lat="22.039713" lon="103.947693"><ele>874.4</ele><time>2011-04-26T03:39:15.0000000+00:00</time></trkpt><trkpt lat="22.039753" lon="103.947762"><ele>874.6</ele><time>2011-04-26T03:39:20.0000000+00:00</time></trkpt><trkpt lat="22.03978" lon="103.947815"><ele>875.4</ele><time>2011-04-26T03:39:25.0000000+00:00</time></trkpt><trkpt lat="22.039797" lon="103.947891"><ele>875.9</ele><time>2011-04-26T03:39:30.0000000+00:00</time></trkpt><trkpt lat="22.039827" lon="103.94796"><ele>875.6</ele><time>2011-04-26T03:39:35.0000000+00:00</time></trkpt><trkpt lat="22.039854" lon="103.948021"><ele>875.4</ele><time>2011-04-26T03:39:40.0000000+00:00</time></trkpt><trkpt lat="22.039875" lon="103.948097"><ele>876.1</ele><time>2011-04-26T03:39:45.0000000+00:00</time></trkpt><trkpt lat="22.039925" lon="103.948174"><ele>876.8</ele><time>2011-04-26T03:39:50.0000000+00:00</time></trkpt><trkpt lat="22.039963" lon="103.948242"><ele>877.2</ele><time>2011-04-26T03:39:55.0000000+00:00</time></trkpt><trkpt lat="22.040005" lon="103.948296"><ele>878.0</ele><time>2011-04-26T03:40:00.0000000+00:00</time></trkpt><trkpt lat="22.040043" lon="103.948357"><ele>878.5</ele><time>2011-04-26T03:40:05.0000000+00:00</time></trkpt><trkpt lat="22.04006" lon="103.948418"><ele>879.0</ele><time>2011-04-26T03:40:10.0000000+00:00</time></trkpt><trkpt lat="22.040081" lon="103.948486"><ele>880.0</ele><time>2011-04-26T03:40:15.0000000+00:00</time></trkpt><trkpt lat="22.040094" lon="103.948563"><ele>880.8</ele><time>2011-04-26T03:40:20.0000000+00:00</time></trkpt><trkpt lat="22.040102" lon="103.948639"><ele>882.7</ele><time>2011-04-26T03:40:25.0000000+00:00</time></trkpt><trkpt lat="22.040091" lon="103.94873"><ele>885.0</ele><time>2011-04-26T03:40:30.0000000+00:00</time></trkpt><trkpt lat="22.040081" lon="103.948822"><ele>886.7</ele><time>2011-04-26T03:40:35.0000000+00:00</time></trkpt><trkpt lat="22.040047" lon="103.948906"><ele>888.0</ele><time>2011-04-26T03:40:40.0000000+00:00</time></trkpt><trkpt lat="22.040022" lon="103.948952"><ele>889.9</ele><time>2011-04-26T03:40:45.0000000+00:00</time></trkpt><trkpt lat="22.039959" lon="103.94902"><ele>891.0</ele><time>2011-04-26T03:40:50.0000000+00:00</time></trkpt><trkpt lat="22.039906" lon="103.949051"><ele>892.9</ele><time>2011-04-26T03:40:55.0000000+00:00</time></trkpt><trkpt lat="22.039824" lon="103.949059"><ele>894.6</ele><time>2011-04-26T03:41:00.0000000+00:00</time></trkpt><trkpt lat="22.039736" lon="103.949036"><ele>896.3</ele><time>2011-04-26T03:41:05.0000000+00:00</time></trkpt><trkpt lat="22.03966" lon="103.949059"><ele>896.9</ele><time>2011-04-26T03:41:10.0000000+00:00</time></trkpt><trkpt lat="22.039566" lon="103.949104"><ele>897.3</ele><time>2011-04-26T03:41:15.0000000+00:00</time></trkpt><trkpt lat="22.039505" lon="103.949158"><ele>897.8</ele><time>2011-04-26T03:41:20.0000000+00:00</time></trkpt><trkpt lat="22.039442" lon="103.949226"><ele>897.8</ele><time>2011-04-26T03:41:25.0000000+00:00</time></trkpt><trkpt lat="22.039394" lon="103.94931"><ele>898.2</ele><time>2011-04-26T03:41:30.0000000+00:00</time></trkpt><trkpt lat="22.039377" lon="103.949394"><ele>898.1</ele><time>2011-04-26T03:41:35.0000000+00:00</time></trkpt><trkpt lat="22.039373" lon="103.949478"><ele>898.3</ele><time>2011-04-26T03:41:40.0000000+00:00</time></trkpt><trkpt lat="22.039364" lon="103.949562"><ele>898.8</ele><time>2011-04-26T03:41:45.0000000+00:00</time></trkpt><trkpt lat="22.039324" lon="103.949661"><ele>898.4</ele><time>2011-04-26T03:41:50.0000000+00:00</time></trkpt><trkpt lat="22.039324" lon="103.949753"><ele>898.7</ele><time>2011-04-26T03:41:55.0000000+00:00</time></trkpt><trkpt lat="22.039335" lon="103.949852"><ele>898.6</ele><time>2011-04-26T03:42:00.0000000+00:00</time></trkpt><trkpt lat="22.039356" lon="103.949913"><ele>898.5</ele><time>2011-04-26T03:42:05.0000000+00:00</time></trkpt><trkpt lat="22.039385" lon="103.949974"><ele>898.9</ele><time>2011-04-26T03:42:10.0000000+00:00</time></trkpt><trkpt lat="22.039406" lon="103.95005"><ele>897.7</ele><time>2011-04-26T03:42:15.0000000+00:00</time></trkpt><trkpt lat="22.039415" lon="103.950127"><ele>896.5</ele><time>2011-04-26T03:42:20.0000000+00:00</time></trkpt><trkpt lat="22.039419" lon="103.950211"><ele>894.9</ele><time>2011-04-26T03:42:25.0000000+00:00</time></trkpt><trkpt lat="22.039484" lon="103.950287"><ele>894.4</ele><time>2011-04-26T03:42:30.0000000+00:00</time></trkpt><trkpt lat="22.039536" lon="103.950363"><ele>893.0</ele><time>2011-04-26T03:42:35.0000000+00:00</time></trkpt><trkpt lat="22.039536" lon="103.950439"><ele>892.4</ele><time>2011-04-26T03:42:40.0000000+00:00</time></trkpt><trkpt lat="22.039528" lon="103.950523"><ele>893.0</ele><time>2011-04-26T03:42:45.0000000+00:00</time></trkpt><trkpt lat="22.039549" lon="103.9506"><ele>893.6</ele><time>2011-04-26T03:42:50.0000000+00:00</time></trkpt><trkpt lat="22.039579" lon="103.950661"><ele>894.7</ele><time>2011-04-26T03:42:55.0000000+00:00</time></trkpt><trkpt lat="22.039639" lon="103.950714"><ele>897.2</ele><time>2011-04-26T03:43:00.0000000+00:00</time></trkpt><trkpt lat="22.039663" lon="103.95076"><ele>899.1</ele><time>2011-04-26T03:43:05.0000000+00:00</time></trkpt><trkpt lat="22.03966" lon="103.950829"><ele>902.4</ele><time>2011-04-26T03:43:10.0000000+00:00</time></trkpt><trkpt lat="22.039673" lon="103.950928"><ele>904.2</ele><time>2011-04-26T03:43:15.0000000+00:00</time></trkpt><trkpt lat="22.03968" lon="103.951004"><ele>905.7</ele><time>2011-04-26T03:43:20.0000000+00:00</time></trkpt><trkpt lat="22.039692" lon="103.951073"><ele>906.5</ele><time>2011-04-26T03:43:25.0000000+00:00</time></trkpt><trkpt lat="22.039696" lon="103.951134"><ele>905.9</ele><time>2011-04-26T03:43:30.0000000+00:00</time></trkpt><trkpt lat="22.039696" lon="103.951187"><ele>906.2</ele><time>2011-04-26T03:43:35.0000000+00:00</time></trkpt><trkpt lat="22.03969" lon="103.951263"><ele>905.5</ele><time>2011-04-26T03:43:40.0000000+00:00</time></trkpt><trkpt lat="22.039686" lon="103.951317"><ele>905.8</ele><time>2011-04-26T03:43:45.0000000+00:00</time></trkpt><trkpt lat="22.039669" lon="103.951408"><ele>906.9</ele><time>2011-04-26T03:43:50.0000000+00:00</time></trkpt><trkpt lat="22.039658" lon="103.951477"><ele>907.3</ele><time>2011-04-26T03:43:55.0000000+00:00</time></trkpt><trkpt lat="22.039658" lon="103.951561"><ele>908.9</ele><time>2011-04-26T03:44:00.0000000+00:00</time></trkpt><trkpt lat="22.03964" lon="103.951607"><ele>909.5</ele><time>2011-04-26T03:44:05.0000000+00:00</time></trkpt><trkpt lat="22.039625" lon="103.951675"><ele>910.3</ele><time>2011-04-26T03:44:10.0000000+00:00</time></trkpt><trkpt lat="22.039618" lon="103.951736"><ele>912.9</ele><time>2011-04-26T03:44:15.0000000+00:00</time></trkpt><trkpt lat="22.039612" lon="103.951813"><ele>914.8</ele><time>2011-04-26T03:44:20.0000000+00:00</time></trkpt><trkpt lat="22.039616" lon="103.951889"><ele>917.0</ele><time>2011-04-26T03:44:25.0000000+00:00</time></trkpt><trkpt lat="22.039642" lon="103.951973"><ele>918.3</ele><time>2011-04-26T03:44:30.0000000+00:00</time></trkpt><trkpt lat="22.039705" lon="103.952103"><ele>919.4</ele><time>2011-04-26T03:44:35.0000000+00:00</time></trkpt><trkpt lat="22.039751" lon="103.952194"><ele>919.6</ele><time>2011-04-26T03:44:40.0000000+00:00</time></trkpt><trkpt lat="22.039827" lon="103.952271"><ele>922.0</ele><time>2011-04-26T03:44:45.0000000+00:00</time></trkpt><trkpt lat="22.039885" lon="103.952309"><ele>922.4</ele><time>2011-04-26T03:44:50.0000000+00:00</time></trkpt><trkpt lat="22.039923" lon="103.952347"><ele>922.5</ele><time>2011-04-26T03:44:55.0000000+00:00</time></trkpt><trkpt lat="22.039974" lon="103.952408"><ele>922.8</ele><time>2011-04-26T03:45:00.0000000+00:00</time></trkpt><trkpt lat="22.040026" lon="103.952461"><ele>923.1</ele><time>2011-04-26T03:45:05.0000000+00:00</time></trkpt><trkpt lat="22.040108" lon="103.95253"><ele>923.6</ele><time>2011-04-26T03:45:10.0000000+00:00</time></trkpt><trkpt lat="22.040215" lon="103.952583"><ele>924.4</ele><time>2011-04-26T03:45:15.0000000+00:00</time></trkpt><trkpt lat="22.040316" lon="103.952614"><ele>925.3</ele><time>2011-04-26T03:45:20.0000000+00:00</time></trkpt><trkpt lat="22.040409" lon="103.952644"><ele>925.6</ele><time>2011-04-26T03:45:25.0000000+00:00</time></trkpt><trkpt lat="22.040474" lon="103.952682"><ele>926.2</ele><time>2011-04-26T03:45:30.0000000+00:00</time></trkpt><trkpt lat="22.040506" lon="103.952736"><ele>926.4</ele><time>2011-04-26T03:45:35.0000000+00:00</time></trkpt><trkpt lat="22.040524" lon="103.952782"><ele>926.7</ele><time>2011-04-26T03:45:40.0000000+00:00</time></trkpt><trkpt lat="22.040539" lon="103.95285"><ele>927.2</ele><time>2011-04-26T03:45:45.0000000+00:00</time></trkpt><trkpt lat="22.040531" lon="103.952942"><ele>928.2</ele><time>2011-04-26T03:45:50.0000000+00:00</time></trkpt><trkpt lat="22.040533" lon="103.953003"><ele>928.2</ele><time>2011-04-26T03:45:55.0000000+00:00</time></trkpt><trkpt lat="22.040531" lon="103.953102"><ele>928.3</ele><time>2011-04-26T03:46:00.0000000+00:00</time></trkpt><trkpt lat="22.040535" lon="103.953194"><ele>929.0</ele><time>2011-04-26T03:46:05.0000000+00:00</time></trkpt><trkpt lat="22.040577" lon="103.953278"><ele>928.9</ele><time>2011-04-26T03:46:10.0000000+00:00</time></trkpt><trkpt lat="22.04063" lon="103.953369"><ele>928.9</ele><time>2011-04-26T03:46:15.0000000+00:00</time></trkpt><trkpt lat="22.040667" lon="103.953453"><ele>930.1</ele><time>2011-04-26T03:46:20.0000000+00:00</time></trkpt><trkpt lat="22.04073" lon="103.953506"><ele>930.4</ele><time>2011-04-26T03:46:25.0000000+00:00</time></trkpt><trkpt lat="22.04077" lon="103.95356"><ele>930.9</ele><time>2011-04-26T03:46:30.0000000+00:00</time></trkpt><trkpt lat="22.040831" lon="103.953613"><ele>931.0</ele><time>2011-04-26T03:46:35.0000000+00:00</time></trkpt><trkpt lat="22.040876" lon="103.953667"><ele>930.4</ele><time>2011-04-26T03:46:40.0000000+00:00</time></trkpt><trkpt lat="22.04093" lon="103.953735"><ele>930.5</ele><time>2011-04-26T03:46:45.0000000+00:00</time></trkpt><trkpt lat="22.040991" lon="103.953812"><ele>931.1</ele><time>2011-04-26T03:46:50.0000000+00:00</time></trkpt><trkpt lat="22.041037" lon="103.953873"><ele>931.4</ele><time>2011-04-26T03:46:55.0000000+00:00</time></trkpt><trkpt lat="22.041075" lon="103.953949"><ele>932.2</ele><time>2011-04-26T03:47:00.0000000+00:00</time></trkpt><trkpt lat="22.041126" lon="103.953972"><ele>932.4</ele><time>2011-04-26T03:47:05.0000000+00:00</time></trkpt><trkpt lat="22.04117" lon="103.954002"><ele>933.6</ele><time>2011-04-26T03:47:10.0000000+00:00</time></trkpt><trkpt lat="22.041265" lon="103.954048"><ele>934.5</ele><time>2011-04-26T03:47:15.0000000+00:00</time></trkpt><trkpt lat="22.041357" lon="103.954056"><ele>935.4</ele><time>2011-04-26T03:47:20.0000000+00:00</time></trkpt><trkpt lat="22.041445" lon="103.954086"><ele>936.0</ele><time>2011-04-26T03:47:25.0000000+00:00</time></trkpt><trkpt lat="22.041491" lon="103.954109"><ele>936.3</ele><time>2011-04-26T03:47:30.0000000+00:00</time></trkpt><trkpt lat="22.041544" lon="103.954117"><ele>936.8</ele><time>2011-04-26T03:47:35.0000000+00:00</time></trkpt><trkpt lat="22.041618" lon="103.954109"><ele>937.1</ele><time>2011-04-26T03:47:40.0000000+00:00</time></trkpt><trkpt lat="22.041668" lon="103.954117"><ele>937.3</ele><time>2011-04-26T03:47:45.0000000+00:00</time></trkpt><trkpt lat="22.041744" lon="103.954124"><ele>937.2</ele><time>2011-04-26T03:47:50.0000000+00:00</time></trkpt><trkpt lat="22.041819" lon="103.954185"><ele>937.3</ele><time>2011-04-26T03:47:55.0000000+00:00</time></trkpt><trkpt lat="22.041935" lon="103.954254"><ele>937.4</ele><time>2011-04-26T03:48:00.0000000+00:00</time></trkpt><trkpt lat="22.04199" lon="103.954292"><ele>937.6</ele><time>2011-04-26T03:48:05.0000000+00:00</time></trkpt><trkpt lat="22.042042" lon="103.95433"><ele>937.7</ele><time>2011-04-26T03:48:10.0000000+00:00</time></trkpt><trkpt lat="22.042112" lon="103.954361"><ele>937.9</ele><time>2011-04-26T03:48:15.0000000+00:00</time></trkpt><trkpt lat="22.042177" lon="103.954369"><ele>938.2</ele><time>2011-04-26T03:48:20.0000000+00:00</time></trkpt><trkpt lat="22.042253" lon="103.954369"><ele>938.2</ele><time>2011-04-26T03:48:25.0000000+00:00</time></trkpt><trkpt lat="22.042316" lon="103.954353"><ele>938.4</ele><time>2011-04-26T03:48:30.0000000+00:00</time></trkpt><trkpt lat="22.042372" lon="103.954353"><ele>938.3</ele><time>2011-04-26T03:48:35.0000000+00:00</time></trkpt><trkpt lat="22.042416" lon="103.954315"><ele>938.3</ele><time>2011-04-26T03:48:40.0000000+00:00</time></trkpt><trkpt lat="22.042448" lon="103.954315"><ele>938.8</ele><time>2011-04-26T03:48:45.0000000+00:00</time></trkpt><trkpt lat="22.042503" lon="103.954323"><ele>939.2</ele><time>2011-04-26T03:48:50.0000000+00:00</time></trkpt><trkpt lat="22.042599" lon="103.954315"><ele>940.2</ele><time>2011-04-26T03:48:55.0000000+00:00</time></trkpt><trkpt lat="22.042614" lon="103.954361"><ele>942.8</ele><time>2011-04-26T03:49:00.0000000+00:00</time></trkpt><trkpt lat="22.04266" lon="103.954399"><ele>943.4</ele><time>2011-04-26T03:49:05.0000000+00:00</time></trkpt><trkpt lat="22.042665" lon="103.954453"><ele>944.1</ele><time>2011-04-26T03:49:10.0000000+00:00</time></trkpt><trkpt lat="22.042669" lon="103.954491"><ele>944.2</ele><time>2011-04-26T03:49:15.0000000+00:00</time></trkpt><trkpt lat="22.042671" lon="103.954529"><ele>944.5</ele><time>2011-04-26T03:49:20.0000000+00:00</time></trkpt><trkpt lat="22.042692" lon="103.954605"><ele>945.1</ele><time>2011-04-26T03:49:25.0000000+00:00</time></trkpt><trkpt lat="22.042679" lon="103.954704"><ele>944.7</ele><time>2011-04-26T03:49:30.0000000+00:00</time></trkpt><trkpt lat="22.042671" lon="103.954781"><ele>946.8</ele><time>2011-04-26T03:49:35.0000000+00:00</time></trkpt><trkpt lat="22.042667" lon="103.954849"><ele>948.2</ele><time>2011-04-26T03:49:40.0000000+00:00</time></trkpt><trkpt lat="22.042694" lon="103.95488"><ele>949.9</ele><time>2011-04-26T03:49:45.0000000+00:00</time></trkpt><trkpt lat="22.042715" lon="103.954933"><ele>951.8</ele><time>2011-04-26T03:49:50.0000000+00:00</time></trkpt><trkpt lat="22.042711" lon="103.954994"><ele>953.4</ele><time>2011-04-26T03:49:55.0000000+00:00</time></trkpt><trkpt lat="22.042704" lon="103.954994"><ele>954.8</ele><time>2011-04-26T03:50:00.0000000+00:00</time></trkpt><trkpt lat="22.042711" lon="103.954987"><ele>955.6</ele><time>2011-04-26T03:50:05.0000000+00:00</time></trkpt><trkpt lat="22.042706" lon="103.954994"><ele>956.5</ele><time>2011-04-26T03:50:10.0000000+00:00</time></trkpt><trkpt lat="22.042702" lon="103.955002"><ele>957.4</ele><time>2011-04-26T03:50:15.0000000+00:00</time></trkpt><trkpt lat="22.042694" lon="103.955009"><ele>958.3</ele><time>2011-04-26T03:50:20.0000000+00:00</time></trkpt><trkpt lat="22.042685" lon="103.955009"><ele>959.0</ele><time>2011-04-26T03:50:25.0000000+00:00</time></trkpt><trkpt lat="22.042679" lon="103.955017"><ele>959.9</ele><time>2011-04-26T03:50:30.0000000+00:00</time></trkpt><trkpt lat="22.042669" lon="103.955025"><ele>960.6</ele><time>2011-04-26T03:50:35.0000000+00:00</time></trkpt><trkpt lat="22.042662" lon="103.955032"><ele>961.5</ele><time>2011-04-26T03:50:40.0000000+00:00</time></trkpt><trkpt lat="22.042662" lon="103.95504"><ele>962.3</ele><time>2011-04-26T03:50:45.0000000+00:00</time></trkpt><trkpt lat="22.042694" lon="103.955055"><ele>962.7</ele><time>2011-04-26T03:50:50.0000000+00:00</time></trkpt><trkpt lat="22.042749" lon="103.955055"><ele>962.9</ele><time>2011-04-26T03:50:55.0000000+00:00</time></trkpt><trkpt lat="22.042789" lon="103.95504"><ele>963.8</ele><time>2011-04-26T03:51:00.0000000+00:00</time></trkpt><trkpt lat="22.042772" lon="103.955055"><ele>965.0</ele><time>2011-04-26T03:51:05.0000000+00:00</time></trkpt><trkpt lat="22.042763" lon="103.955078"><ele>965.9</ele><time>2011-04-26T03:51:10.0000000+00:00</time></trkpt><trkpt lat="22.042757" lon="103.955116"><ele>967.1</ele><time>2011-04-26T03:51:15.0000000+00:00</time></trkpt><trkpt lat="22.042772" lon="103.955177"><ele>967.8</ele><time>2011-04-26T03:51:20.0000000+00:00</time></trkpt><trkpt lat="22.042803" lon="103.955254"><ele>968.5</ele><time>2011-04-26T03:51:25.0000000+00:00</time></trkpt><trkpt lat="22.04285" lon="103.95533"><ele>969.3</ele><time>2011-04-26T03:51:30.0000000+00:00</time></trkpt><trkpt lat="22.042931" lon="103.955353"><ele>969.9</ele><time>2011-04-26T03:51:35.0000000+00:00</time></trkpt><trkpt lat="22.043015" lon="103.955376"><ele>971.1</ele><time>2011-04-26T03:51:40.0000000+00:00</time></trkpt><trkpt lat="22.043089" lon="103.955414"><ele>972.6</ele><time>2011-04-26T03:51:45.0000000+00:00</time></trkpt><trkpt lat="22.04318" lon="103.955444"><ele>973.2</ele><time>2011-04-26T03:51:50.0000000+00:00</time></trkpt><trkpt lat="22.043232" lon="103.955475"><ele>974.0</ele><time>2011-04-26T03:51:55.0000000+00:00</time></trkpt><trkpt lat="22.043289" lon="103.955482"><ele>974.9</ele><time>2011-04-26T03:52:00.0000000+00:00</time></trkpt><trkpt lat="22.043335" lon="103.955498"><ele>976.2</ele><time>2011-04-26T03:52:05.0000000+00:00</time></trkpt><trkpt lat="22.043436" lon="103.955505"><ele>977.5</ele><time>2011-04-26T03:52:10.0000000+00:00</time></trkpt><trkpt lat="22.043486" lon="103.955528"><ele>978.9</ele><time>2011-04-26T03:52:15.0000000+00:00</time></trkpt><trkpt lat="22.043571" lon="103.955574"><ele>980.2</ele><time>2011-04-26T03:52:20.0000000+00:00</time></trkpt><trkpt lat="22.043627" lon="103.955589"><ele>981.0</ele><time>2011-04-26T03:52:25.0000000+00:00</time></trkpt><trkpt lat="22.043678" lon="103.955627"><ele>982.9</ele><time>2011-04-26T03:52:30.0000000+00:00</time></trkpt><trkpt lat="22.043713" lon="103.955643"><ele>984.5</ele><time>2011-04-26T03:52:35.0000000+00:00</time></trkpt><trkpt lat="22.043745" lon="103.955635"><ele>986.0</ele><time>2011-04-26T03:52:40.0000000+00:00</time></trkpt><trkpt lat="22.043808" lon="103.955658"><ele>987.2</ele><time>2011-04-26T03:52:45.0000000+00:00</time></trkpt><trkpt lat="22.043896" lon="103.955742"><ele>987.8</ele><time>2011-04-26T03:52:50.0000000+00:00</time></trkpt><trkpt lat="22.043955" lon="103.955765"><ele>988.3</ele><time>2011-04-26T03:52:55.0000000+00:00</time></trkpt><trkpt lat="22.044024" lon="103.955772"><ele>988.7</ele><time>2011-04-26T03:53:00.0000000+00:00</time></trkpt><trkpt lat="22.044073" lon="103.955772"><ele>989.5</ele><time>2011-04-26T03:53:05.0000000+00:00</time></trkpt><trkpt lat="22.044195" lon="103.955688"><ele>991.0</ele><time>2011-04-26T03:53:10.0000000+00:00</time></trkpt><trkpt lat="22.044283" lon="103.95562"><ele>992.8</ele><time>2011-04-26T03:53:15.0000000+00:00</time></trkpt><trkpt lat="22.044352" lon="103.955559"><ele>994.0</ele><time>2011-04-26T03:53:20.0000000+00:00</time></trkpt><trkpt lat="22.044399" lon="103.955513"><ele>993.9</ele><time>2011-04-26T03:53:25.0000000+00:00</time></trkpt><trkpt lat="22.044453" lon="103.955475"><ele>993.3</ele><time>2011-04-26T03:53:30.0000000+00:00</time></trkpt><trkpt lat="22.044506" lon="103.955429"><ele>993.1</ele><time>2011-04-26T03:53:35.0000000+00:00</time></trkpt><trkpt lat="22.044548" lon="103.955391"><ele>993.1</ele><time>2011-04-26T03:53:40.0000000+00:00</time></trkpt><trkpt lat="22.044621" lon="103.955322"><ele>993.0</ele><time>2011-04-26T03:53:45.0000000+00:00</time></trkpt><trkpt lat="22.044651" lon="103.955261"><ele>992.6</ele><time>2011-04-26T03:53:50.0000000+00:00</time></trkpt><trkpt lat="22.044722" lon="103.955238"><ele>992.5</ele><time>2011-04-26T03:53:55.0000000+00:00</time></trkpt><trkpt lat="22.044764" lon="103.955223"><ele>992.8</ele><time>2011-04-26T03:54:00.0000000+00:00</time></trkpt><trkpt lat="22.044811" lon="103.955208"><ele>993.2</ele><time>2011-04-26T03:54:05.0000000+00:00</time></trkpt><trkpt lat="22.04487" lon="103.9552"><ele>993.2</ele><time>2011-04-26T03:54:10.0000000+00:00</time></trkpt><trkpt lat="22.044933" lon="103.955177"><ele>993.2</ele><time>2011-04-26T03:54:15.0000000+00:00</time></trkpt><trkpt lat="22.044987" lon="103.955124"><ele>993.3</ele><time>2011-04-26T03:54:20.0000000+00:00</time></trkpt><trkpt lat="22.045084" lon="103.955048"><ele>993.1</ele><time>2011-04-26T03:54:25.0000000+00:00</time></trkpt><trkpt lat="22.045128" lon="103.954987"><ele>992.8</ele><time>2011-04-26T03:54:30.0000000+00:00</time></trkpt><trkpt lat="22.045166" lon="103.954887"><ele>993.2</ele><time>2011-04-26T03:54:35.0000000+00:00</time></trkpt><trkpt lat="22.04516" lon="103.954819"><ele>993.2</ele><time>2011-04-26T03:54:40.0000000+00:00</time></trkpt><trkpt lat="22.045132" lon="103.954819"><ele>993.1</ele><time>2011-04-26T03:54:45.0000000+00:00</time></trkpt><trkpt lat="22.045132" lon="103.954826"><ele>993.2</ele><time>2011-04-26T03:54:50.0000000+00:00</time></trkpt><trkpt lat="22.04513" lon="103.954826"><ele>993.3</ele><time>2011-04-26T03:54:55.0000000+00:00</time></trkpt><trkpt lat="22.045132" lon="103.954826"><ele>993.3</ele><time>2011-04-26T03:55:00.0000000+00:00</time></trkpt><trkpt lat="22.04513" lon="103.954819"><ele>993.0</ele><time>2011-04-26T03:55:05.0000000+00:00</time></trkpt><trkpt lat="22.045126" lon="103.954819"><ele>993.0</ele><time>2011-04-26T03:55:10.0000000+00:00</time></trkpt><trkpt lat="22.04512" lon="103.954811"><ele>992.8</ele><time>2011-04-26T03:55:15.0000000+00:00</time></trkpt><trkpt lat="22.045101" lon="103.954735"><ele>991.9</ele><time>2011-04-26T03:55:20.0000000+00:00</time></trkpt><trkpt lat="22.045095" lon="103.954689"><ele>990.6</ele><time>2011-04-26T03:55:25.0000000+00:00</time></trkpt><trkpt lat="22.045074" lon="103.954643"><ele>990.4</ele><time>2011-04-26T03:55:30.0000000+00:00</time></trkpt><trkpt lat="22.045055" lon="103.954605"><ele>990.3</ele><time>2011-04-26T03:55:35.0000000+00:00</time></trkpt><trkpt lat="22.045004" lon="103.954575"><ele>990.4</ele><time>2011-04-26T03:55:40.0000000+00:00</time></trkpt><trkpt lat="22.044977" lon="103.954544"><ele>990.4</ele><time>2011-04-26T03:55:45.0000000+00:00</time></trkpt><trkpt lat="22.044971" lon="103.954445"><ele>990.4</ele><time>2011-04-26T03:55:50.0000000+00:00</time></trkpt><trkpt lat="22.044956" lon="103.954353"><ele>990.3</ele><time>2011-04-26T03:55:55.0000000+00:00</time></trkpt><trkpt lat="22.044937" lon="103.954292"><ele>990.1</ele><time>2011-04-26T03:56:00.0000000+00:00</time></trkpt><trkpt lat="22.044935" lon="103.954216"><ele>989.9</ele><time>2011-04-26T03:56:05.0000000+00:00</time></trkpt><trkpt lat="22.044937" lon="103.954163"><ele>989.7</ele><time>2011-04-26T03:56:10.0000000+00:00</time></trkpt><trkpt lat="22.04492" lon="103.954117"><ele>990.0</ele><time>2011-04-26T03:56:15.0000000+00:00</time></trkpt><trkpt lat="22.044922" lon="103.954048"><ele>990.0</ele><time>2011-04-26T03:56:20.0000000+00:00</time></trkpt><trkpt lat="22.044907" lon="103.954018"><ele>989.9</ele><time>2011-04-26T03:56:25.0000000+00:00</time></trkpt><trkpt lat="22.044905" lon="103.953995"><ele>989.6</ele><time>2011-04-26T03:56:30.0000000+00:00</time></trkpt><trkpt lat="22.044905" lon="103.954002"><ele>989.3</ele><time>2011-04-26T03:56:35.0000000+00:00</time></trkpt><trkpt lat="22.04491" lon="103.953964"><ele>988.8</ele><time>2011-04-26T03:56:40.0000000+00:00</time></trkpt><trkpt lat="22.044935" lon="103.953911"><ele>988.2</ele><time>2011-04-26T03:56:45.0000000+00:00</time></trkpt><trkpt lat="22.04491" lon="103.95385"><ele>987.3</ele><time>2011-04-26T03:56:50.0000000+00:00</time></trkpt><trkpt lat="22.044926" lon="103.953796"><ele>986.8</ele><time>2011-04-26T03:56:55.0000000+00:00</time></trkpt><trkpt lat="22.044928" lon="103.953728"><ele>986.8</ele><time>2011-04-26T03:57:00.0000000+00:00</time></trkpt><trkpt lat="22.044943" lon="103.953651"><ele>986.8</ele><time>2011-04-26T03:57:05.0000000+00:00</time></trkpt><trkpt lat="22.044966" lon="103.953568"><ele>987.2</ele><time>2011-04-26T03:57:10.0000000+00:00</time></trkpt><trkpt lat="22.044985" lon="103.953506"><ele>987.3</ele><time>2011-04-26T03:57:15.0000000+00:00</time></trkpt><trkpt lat="22.044985" lon="103.953453"><ele>988.1</ele><time>2011-04-26T03:57:20.0000000+00:00</time></trkpt><trkpt lat="22.045006" lon="103.953331"><ele>989.4</ele><time>2011-04-26T03:57:25.0000000+00:00</time></trkpt><trkpt lat="22.04501" lon="103.953262"><ele>989.4</ele><time>2011-04-26T03:57:30.0000000+00:00</time></trkpt><trkpt lat="22.045034" lon="103.953194"><ele>989.8</ele><time>2011-04-26T03:57:35.0000000+00:00</time></trkpt><trkpt lat="22.045065" lon="103.95314"><ele>990.3</ele><time>2011-04-26T03:57:40.0000000+00:00</time></trkpt><trkpt lat="22.045076" lon="103.95311"><ele>990.6</ele><time>2011-04-26T03:57:45.0000000+00:00</time></trkpt><trkpt lat="22.045118" lon="103.953064"><ele>990.9</ele><time>2011-04-26T03:57:50.0000000+00:00</time></trkpt><trkpt lat="22.045143" lon="103.953018"><ele>991.2</ele><time>2011-04-26T03:57:55.0000000+00:00</time></trkpt><trkpt lat="22.04517" lon="103.952972"><ele>991.7</ele><time>2011-04-26T03:58:00.0000000+00:00</time></trkpt><trkpt lat="22.045177" lon="103.952934"><ele>991.5</ele><time>2011-04-26T03:58:05.0000000+00:00</time></trkpt><trkpt lat="22.045179" lon="103.952942"><ele>991.5</ele><time>2011-04-26T03:58:10.0000000+00:00</time></trkpt><trkpt lat="22.045179" lon="103.952942"><ele>991.5</ele><time>2011-04-26T03:58:15.0000000+00:00</time></trkpt><trkpt lat="22.045181" lon="103.952942"><ele>991.6</ele><time>2011-04-26T03:58:20.0000000+00:00</time></trkpt><trkpt lat="22.045185" lon="103.952942"><ele>991.6</ele><time>2011-04-26T03:58:25.0000000+00:00</time></trkpt><trkpt lat="22.045189" lon="103.952934"><ele>991.6</ele><time>2011-04-26T03:58:30.0000000+00:00</time></trkpt><trkpt lat="22.04521" lon="103.952904"><ele>991.4</ele><time>2011-04-26T03:58:35.0000000+00:00</time></trkpt><trkpt lat="22.045229" lon="103.952858"><ele>991.1</ele><time>2011-04-26T03:58:40.0000000+00:00</time></trkpt><trkpt lat="22.04525" lon="103.952789"><ele>990.7</ele><time>2011-04-26T03:58:45.0000000+00:00</time></trkpt><trkpt lat="22.045279" lon="103.952728"><ele>990.3</ele><time>2011-04-26T03:58:50.0000000+00:00</time></trkpt><trkpt lat="22.045321" lon="103.952675"><ele>990.0</ele><time>2011-04-26T03:58:55.0000000+00:00</time></trkpt><trkpt lat="22.045448" lon="103.952606"><ele>989.4</ele><time>2011-04-26T03:59:00.0000000+00:00</time></trkpt><trkpt lat="22.045481" lon="103.952515"><ele>988.9</ele><time>2011-04-26T03:59:05.0000000+00:00</time></trkpt><trkpt lat="22.045519" lon="103.952431"><ele>988.6</ele><time>2011-04-26T03:59:10.0000000+00:00</time></trkpt><trkpt lat="22.045525" lon="103.952362"><ele>988.3</ele><time>2011-04-26T03:59:15.0000000+00:00</time></trkpt><trkpt lat="22.045551" lon="103.952301"><ele>987.8</ele><time>2011-04-26T03:59:20.0000000+00:00</time></trkpt><trkpt lat="22.045582" lon="103.952263"><ele>987.2</ele><time>2011-04-26T03:59:25.0000000+00:00</time></trkpt><trkpt lat="22.045635" lon="103.952232"><ele>986.7</ele><time>2011-04-26T03:59:30.0000000+00:00</time></trkpt><trkpt lat="22.045706" lon="103.952225"><ele>986.9</ele><time>2011-04-26T03:59:35.0000000+00:00</time></trkpt><trkpt lat="22.045732" lon="103.952232"><ele>986.4</ele><time>2011-04-26T03:59:40.0000000+00:00</time></trkpt><trkpt lat="22.045723" lon="103.952209"><ele>987.3</ele><time>2011-04-26T03:59:45.0000000+00:00</time></trkpt><trkpt lat="22.045723" lon="103.952209"><ele>987.5</ele><time>2011-04-26T03:59:50.0000000+00:00</time></trkpt><trkpt lat="22.045723" lon="103.952209"><ele>987.6</ele><time>2011-04-26T03:59:55.0000000+00:00</time></trkpt><trkpt lat="22.045727" lon="103.952209"><ele>987.7</ele><time>2011-04-26T04:00:00.0000000+00:00</time></trkpt><trkpt lat="22.045746" lon="103.952194"><ele>987.7</ele><time>2011-04-26T04:00:05.0000000+00:00</time></trkpt><trkpt lat="22.045799" lon="103.952179"><ele>987.6</ele><time>2011-04-26T04:00:10.0000000+00:00</time></trkpt><trkpt lat="22.045864" lon="103.952141"><ele>987.6</ele><time>2011-04-26T04:00:15.0000000+00:00</time></trkpt><trkpt lat="22.045933" lon="103.95211"><ele>987.9</ele><time>2011-04-26T04:00:20.0000000+00:00</time></trkpt><trkpt lat="22.045998" lon="103.952072"><ele>988.3</ele><time>2011-04-26T04:00:25.0000000+00:00</time></trkpt><trkpt lat="22.046053" lon="103.952049"><ele>989.3</ele><time>2011-04-26T04:00:30.0000000+00:00</time></trkpt><trkpt lat="22.046108" lon="103.952049"><ele>990.9</ele><time>2011-04-26T04:00:35.0000000+00:00</time></trkpt><trkpt lat="22.046143" lon="103.95208"><ele>991.6</ele><time>2011-04-26T04:00:40.0000000+00:00</time></trkpt><trkpt lat="22.046207" lon="103.952095"><ele>992.3</ele><time>2011-04-26T04:00:45.0000000+00:00</time></trkpt><trkpt lat="22.046265" lon="103.952141"><ele>992.6</ele><time>2011-04-26T04:00:50.0000000+00:00</time></trkpt><trkpt lat="22.04632" lon="103.952187"><ele>992.6</ele><time>2011-04-26T04:00:55.0000000+00:00</time></trkpt><trkpt lat="22.04637" lon="103.95224"><ele>992.9</ele><time>2011-04-26T04:01:00.0000000+00:00</time></trkpt><trkpt lat="22.046432" lon="103.952301"><ele>993.4</ele><time>2011-04-26T04:01:05.0000000+00:00</time></trkpt><trkpt lat="22.046499" lon="103.952354"><ele>993.5</ele><time>2011-04-26T04:01:10.0000000+00:00</time></trkpt><trkpt lat="22.04653" lon="103.952393"><ele>994.0</ele><time>2011-04-26T04:01:15.0000000+00:00</time></trkpt><trkpt lat="22.046547" lon="103.952438"><ele>993.3</ele><time>2011-04-26T04:01:20.0000000+00:00</time></trkpt><trkpt lat="22.046534" lon="103.95253"><ele>992.6</ele><time>2011-04-26T04:01:25.0000000+00:00</time></trkpt><trkpt lat="22.046515" lon="103.952637"><ele>991.9</ele><time>2011-04-26T04:01:30.0000000+00:00</time></trkpt><trkpt lat="22.046507" lon="103.952713"><ele>992.6</ele><time>2011-04-26T04:01:35.0000000+00:00</time></trkpt><trkpt lat="22.046503" lon="103.952782"><ele>993.5</ele><time>2011-04-26T04:01:40.0000000+00:00</time></trkpt><trkpt lat="22.04652" lon="103.952904"><ele>994.3</ele><time>2011-04-26T04:01:45.0000000+00:00</time></trkpt><trkpt lat="22.046551" lon="103.952957"><ele>995.6</ele><time>2011-04-26T04:01:50.0000000+00:00</time></trkpt><trkpt lat="22.046555" lon="103.952965"><ele>995.7</ele><time>2011-04-26T04:01:55.0000000+00:00</time></trkpt><trkpt lat="22.046556" lon="103.952965"><ele>995.9</ele><time>2011-04-26T04:02:00.0000000+00:00</time></trkpt><trkpt lat="22.046553" lon="103.952965"><ele>996.1</ele><time>2011-04-26T04:02:05.0000000+00:00</time></trkpt><trkpt lat="22.046551" lon="103.952965"><ele>996.3</ele><time>2011-04-26T04:02:10.0000000+00:00</time></trkpt><trkpt lat="22.046553" lon="103.952965"><ele>996.6</ele><time>2011-04-26T04:02:15.0000000+00:00</time></trkpt><trkpt lat="22.046555" lon="103.952965"><ele>997.0</ele><time>2011-04-26T04:02:20.0000000+00:00</time></trkpt><trkpt lat="22.046555" lon="103.952965"><ele>997.3</ele><time>2011-04-26T04:02:25.0000000+00:00</time></trkpt><trkpt lat="22.046556" lon="103.952965"><ele>997.5</ele><time>2011-04-26T04:02:30.0000000+00:00</time></trkpt><trkpt lat="22.046556" lon="103.952965"><ele>997.7</ele><time>2011-04-26T04:02:35.0000000+00:00</time></trkpt><trkpt lat="22.046556" lon="103.952965"><ele>997.9</ele><time>2011-04-26T04:02:40.0000000+00:00</time></trkpt><trkpt lat="22.046558" lon="103.952965"><ele>998.0</ele><time>2011-04-26T04:02:45.0000000+00:00</time></trkpt><trkpt lat="22.046558" lon="103.952965"><ele>998.1</ele><time>2011-04-26T04:02:50.0000000+00:00</time></trkpt><trkpt lat="22.046558" lon="103.952965"><ele>998.3</ele><time>2011-04-26T04:02:55.0000000+00:00</time></trkpt><trkpt lat="22.04656" lon="103.952965"><ele>998.4</ele><time>2011-04-26T04:03:00.0000000+00:00</time></trkpt><trkpt lat="22.04656" lon="103.952965"><ele>998.6</ele><time>2011-04-26T04:03:05.0000000+00:00</time></trkpt><trkpt lat="22.04656" lon="103.952965"><ele>998.7</ele><time>2011-04-26T04:03:10.0000000+00:00</time></trkpt><trkpt lat="22.04656" lon="103.952965"><ele>998.9</ele><time>2011-04-26T04:03:15.0000000+00:00</time></trkpt><trkpt lat="22.046562" lon="103.952965"><ele>998.9</ele><time>2011-04-26T04:03:20.0000000+00:00</time></trkpt><trkpt lat="22.046562" lon="103.952965"><ele>999.0</ele><time>2011-04-26T04:03:25.0000000+00:00</time></trkpt><trkpt lat="22.046562" lon="103.952965"><ele>999.1</ele><time>2011-04-26T04:03:30.0000000+00:00</time></trkpt><trkpt lat="22.046562" lon="103.952965"><ele>999.2</ele><time>2011-04-26T04:03:35.0000000+00:00</time></trkpt><trkpt lat="22.046562" lon="103.952965"><ele>999.3</ele><time>2011-04-26T04:03:40.0000000+00:00</time></trkpt><trkpt lat="22.046564" lon="103.952965"><ele>999.4</ele><time>2011-04-26T04:03:45.0000000+00:00</time></trkpt><trkpt lat="22.046564" lon="103.952965"><ele>999.6</ele><time>2011-04-26T04:03:50.0000000+00:00</time></trkpt><trkpt lat="22.046564" lon="103.952965"><ele>999.7</ele><time>2011-04-26T04:03:55.0000000+00:00</time></trkpt><trkpt lat="22.046564" lon="103.952965"><ele>999.9</ele><time>2011-04-26T04:04:00.0000000+00:00</time></trkpt><trkpt lat="22.046564" lon="103.952965"><ele>1000.1</ele><time>2011-04-26T04:04:05.0000000+00:00</time></trkpt><trkpt lat="22.046566" lon="103.952957"><ele>1000.3</ele><time>2011-04-26T04:04:10.0000000+00:00</time></trkpt><trkpt lat="22.046566" lon="103.952957"><ele>1000.5</ele><time>2011-04-26T04:04:15.0000000+00:00</time></trkpt><trkpt lat="22.046566" lon="103.952957"><ele>1000.7</ele><time>2011-04-26T04:04:20.0000000+00:00</time></trkpt><trkpt lat="22.046566" lon="103.952957"><ele>1000.9</ele><time>2011-04-26T04:04:25.0000000+00:00</time></trkpt><trkpt lat="22.046566" lon="103.952957"><ele>1001.2</ele><time>2011-04-26T04:04:30.0000000+00:00</time></trkpt><trkpt lat="22.046568" lon="103.952957"><ele>1001.4</ele><time>2011-04-26T04:04:35.0000000+00:00</time></trkpt><trkpt lat="22.046568" lon="103.952957"><ele>1001.6</ele><time>2011-04-26T04:04:40.0000000+00:00</time></trkpt><trkpt lat="22.046568" lon="103.952957"><ele>1001.8</ele><time>2011-04-26T04:04:45.0000000+00:00</time></trkpt><trkpt lat="22.046568" lon="103.952957"><ele>1002.0</ele><time>2011-04-26T04:04:50.0000000+00:00</time></trkpt><trkpt lat="22.046568" lon="103.952957"><ele>1002.2</ele><time>2011-04-26T04:04:55.0000000+00:00</time></trkpt><trkpt lat="22.04657" lon="103.952957"><ele>1002.4</ele><time>2011-04-26T04:05:00.0000000+00:00</time></trkpt><trkpt lat="22.04657" lon="103.952957"><ele>1002.6</ele><time>2011-04-26T04:05:05.0000000+00:00</time></trkpt><trkpt lat="22.04657" lon="103.952957"><ele>1002.8</ele><time>2011-04-26T04:05:10.0000000+00:00</time></trkpt><trkpt lat="22.04657" lon="103.952957"><ele>1003.0</ele><time>2011-04-26T04:05:15.0000000+00:00</time></trkpt><trkpt lat="22.04657" lon="103.952957"><ele>1003.2</ele><time>2011-04-26T04:05:20.0000000+00:00</time></trkpt><trkpt lat="22.046572" lon="103.952957"><ele>1003.3</ele><time>2011-04-26T04:05:25.0000000+00:00</time></trkpt><trkpt lat="22.046572" lon="103.952957"><ele>1003.5</ele><time>2011-04-26T04:05:30.0000000+00:00</time></trkpt><trkpt lat="22.046572" lon="103.95295"><ele>1003.7</ele><time>2011-04-26T04:05:35.0000000+00:00</time></trkpt><trkpt lat="22.046572" lon="103.95295"><ele>1003.9</ele><time>2011-04-26T04:05:40.0000000+00:00</time></trkpt><trkpt lat="22.046572" lon="103.95295"><ele>1004.1</ele><time>2011-04-26T04:05:45.0000000+00:00</time></trkpt><trkpt lat="22.046572" lon="103.95295"><ele>1004.2</ele><time>2011-04-26T04:05:50.0000000+00:00</time></trkpt><trkpt lat="22.046574" lon="103.95295"><ele>1004.3</ele><time>2011-04-26T04:05:55.0000000+00:00</time></trkpt><trkpt lat="22.046574" lon="103.95295"><ele>1004.4</ele><time>2011-04-26T04:06:00.0000000+00:00</time></trkpt><trkpt lat="22.046574" lon="103.95295"><ele>1004.5</ele><time>2011-04-26T04:06:05.0000000+00:00</time></trkpt><trkpt lat="22.046574" lon="103.95295"><ele>1004.7</ele><time>2011-04-26T04:06:10.0000000+00:00</time></trkpt><trkpt lat="22.046574" lon="103.95295"><ele>1004.9</ele><time>2011-04-26T04:06:15.0000000+00:00</time></trkpt><trkpt lat="22.046574" lon="103.95295"><ele>1005.1</ele><time>2011-04-26T04:06:20.0000000+00:00</time></trkpt><trkpt lat="22.046576" lon="103.95295"><ele>1005.2</ele><time>2011-04-26T04:06:25.0000000+00:00</time></trkpt><trkpt lat="22.046576" lon="103.95295"><ele>1005.4</ele><time>2011-04-26T04:06:30.0000000+00:00</time></trkpt><trkpt lat="22.046576" lon="103.95295"><ele>1005.5</ele><time>2011-04-26T04:06:35.0000000+00:00</time></trkpt><trkpt lat="22.046576" lon="103.95295"><ele>1005.7</ele><time>2011-04-26T04:06:40.0000000+00:00</time></trkpt><trkpt lat="22.046576" lon="103.95295"><ele>1005.8</ele><time>2011-04-26T04:06:45.0000000+00:00</time></trkpt><trkpt lat="22.046576" lon="103.95295"><ele>1006.0</ele><time>2011-04-26T04:06:50.0000000+00:00</time></trkpt><trkpt lat="22.046577" lon="103.95295"><ele>1006.2</ele><time>2011-04-26T04:06:55.0000000+00:00</time></trkpt><trkpt lat="22.046577" lon="103.95295"><ele>1006.5</ele><time>2011-04-26T04:07:00.0000000+00:00</time></trkpt><trkpt lat="22.046577" lon="103.95295"><ele>1006.8</ele><time>2011-04-26T04:07:05.0000000+00:00</time></trkpt><trkpt lat="22.046577" lon="103.952942"><ele>1007.2</ele><time>2011-04-26T04:07:10.0000000+00:00</time></trkpt><trkpt lat="22.046577" lon="103.952942"><ele>1007.6</ele><time>2011-04-26T04:07:15.0000000+00:00</time></trkpt><trkpt lat="22.046579" lon="103.952942"><ele>1008.0</ele><time>2011-04-26T04:07:20.0000000+00:00</time></trkpt><trkpt lat="22.046579" lon="103.952942"><ele>1008.4</ele><time>2011-04-26T04:07:25.0000000+00:00</time></trkpt><trkpt lat="22.046579" lon="103.952942"><ele>1008.8</ele><time>2011-04-26T04:07:30.0000000+00:00</time></trkpt><trkpt lat="22.046579" lon="103.952942"><ele>1009.2</ele><time>2011-04-26T04:07:35.0000000+00:00</time></trkpt><trkpt lat="22.046579" lon="103.952942"><ele>1009.6</ele><time>2011-04-26T04:07:40.0000000+00:00</time></trkpt><trkpt lat="22.046581" lon="103.952942"><ele>1010.0</ele><time>2011-04-26T04:07:45.0000000+00:00</time></trkpt><trkpt lat="22.046581" lon="103.952934"><ele>1010.3</ele><time>2011-04-26T04:07:50.0000000+00:00</time></trkpt><trkpt lat="22.046581" lon="103.952934"><ele>1010.6</ele><time>2011-04-26T04:07:55.0000000+00:00</time></trkpt><trkpt lat="22.046581" lon="103.952934"><ele>1010.9</ele><time>2011-04-26T04:08:00.0000000+00:00</time></trkpt><trkpt lat="22.046581" lon="103.952934"><ele>1011.1</ele><time>2011-04-26T04:08:05.0000000+00:00</time></trkpt><trkpt lat="22.046581" lon="103.952934"><ele>1011.3</ele><time>2011-04-26T04:08:10.0000000+00:00</time></trkpt><trkpt lat="22.046581" lon="103.952934"><ele>1011.6</ele><time>2011-04-26T04:08:15.0000000+00:00</time></trkpt><trkpt lat="22.046581" lon="103.952934"><ele>1011.8</ele><time>2011-04-26T04:08:20.0000000+00:00</time></trkpt><trkpt lat="22.046583" lon="103.952934"><ele>1012.0</ele><time>2011-04-26T04:08:25.0000000+00:00</time></trkpt><trkpt lat="22.046583" lon="103.952934"><ele>1012.2</ele><time>2011-04-26T04:08:30.0000000+00:00</time></trkpt><trkpt lat="22.046583" lon="103.952934"><ele>1012.4</ele><time>2011-04-26T04:08:35.0000000+00:00</time></trkpt><trkpt lat="22.046583" lon="103.952934"><ele>1012.6</ele><time>2011-04-26T04:08:40.0000000+00:00</time></trkpt><trkpt lat="22.046583" lon="103.952934"><ele>1012.7</ele><time>2011-04-26T04:08:45.0000000+00:00</time></trkpt><trkpt lat="22.046583" lon="103.952934"><ele>1012.9</ele><time>2011-04-26T04:08:50.0000000+00:00</time></trkpt><trkpt lat="22.046583" lon="103.952934"><ele>1013.1</ele><time>2011-04-26T04:08:55.0000000+00:00</time></trkpt><trkpt lat="22.046583" lon="103.952934"><ele>1013.1</ele><time>2011-04-26T04:09:00.0000000+00:00</time></trkpt><trkpt lat="22.046583" lon="103.952934"><ele>1013.2</ele><time>2011-04-26T04:09:05.0000000+00:00</time></trkpt><trkpt lat="22.046585" lon="103.952934"><ele>1013.2</ele><time>2011-04-26T04:09:10.0000000+00:00</time></trkpt><trkpt lat="22.046585" lon="103.952934"><ele>1013.2</ele><time>2011-04-26T04:09:15.0000000+00:00</time></trkpt><trkpt lat="22.046585" lon="103.952934"><ele>1013.3</ele><time>2011-04-26T04:09:20.0000000+00:00</time></trkpt><trkpt lat="22.046585" lon="103.952934"><ele>1013.3</ele><time>2011-04-26T04:09:25.0000000+00:00</time></trkpt><trkpt lat="22.046585" lon="103.952934"><ele>1013.3</ele><time>2011-04-26T04:09:30.0000000+00:00</time></trkpt><trkpt lat="22.046585" lon="103.952934"><ele>1013.4</ele><time>2011-04-26T04:09:35.0000000+00:00</time></trkpt><trkpt lat="22.046585" lon="103.952934"><ele>1013.5</ele><time>2011-04-26T04:09:40.0000000+00:00</time></trkpt><trkpt lat="22.046585" lon="103.952934"><ele>1013.6</ele><time>2011-04-26T04:09:45.0000000+00:00</time></trkpt><trkpt lat="22.046585" lon="103.952934"><ele>1013.6</ele><time>2011-04-26T04:09:50.0000000+00:00</time></trkpt><trkpt lat="22.046585" lon="103.952934"><ele>1013.7</ele><time>2011-04-26T04:09:55.0000000+00:00</time></trkpt><trkpt lat="22.046585" lon="103.952934"><ele>1013.8</ele><time>2011-04-26T04:10:00.0000000+00:00</time></trkpt><trkpt lat="22.046585" lon="103.952934"><ele>1013.8</ele><time>2011-04-26T04:10:05.0000000+00:00</time></trkpt><trkpt lat="22.046585" lon="103.952934"><ele>1013.8</ele><time>2011-04-26T04:10:10.0000000+00:00</time></trkpt><trkpt lat="22.046585" lon="103.952934"><ele>1013.9</ele><time>2011-04-26T04:10:15.0000000+00:00</time></trkpt><trkpt lat="22.046587" lon="103.952934"><ele>1013.9</ele><time>2011-04-26T04:10:20.0000000+00:00</time></trkpt><trkpt lat="22.046587" lon="103.952934"><ele>1014.1</ele><time>2011-04-26T04:10:25.0000000+00:00</time></trkpt><trkpt lat="22.046587" lon="103.952934"><ele>1014.2</ele><time>2011-04-26T04:10:30.0000000+00:00</time></trkpt><trkpt lat="22.046587" lon="103.952934"><ele>1014.2</ele><time>2011-04-26T04:10:35.0000000+00:00</time></trkpt><trkpt lat="22.046587" lon="103.952934"><ele>1014.2</ele><time>2011-04-26T04:10:40.0000000+00:00</time></trkpt><trkpt lat="22.046587" lon="103.952934"><ele>1014.3</ele><time>2011-04-26T04:10:45.0000000+00:00</time></trkpt><trkpt lat="22.046587" lon="103.952934"><ele>1014.3</ele><time>2011-04-26T04:10:50.0000000+00:00</time></trkpt><trkpt lat="22.046587" lon="103.952934"><ele>1014.4</ele><time>2011-04-26T04:10:55.0000000+00:00</time></trkpt><trkpt lat="22.046587" lon="103.952934"><ele>1014.4</ele><time>2011-04-26T04:11:00.0000000+00:00</time></trkpt><trkpt lat="22.046587" lon="103.952934"><ele>1014.5</ele><time>2011-04-26T04:11:05.0000000+00:00</time></trkpt><trkpt lat="22.046587" lon="103.952934"><ele>1014.5</ele><time>2011-04-26T04:11:10.0000000+00:00</time></trkpt><trkpt lat="22.046589" lon="103.952934"><ele>1014.5</ele><time>2011-04-26T04:11:15.0000000+00:00</time></trkpt><trkpt lat="22.046589" lon="103.952934"><ele>1014.5</ele><time>2011-04-26T04:11:20.0000000+00:00</time></trkpt><trkpt lat="22.046589" lon="103.952934"><ele>1014.5</ele><time>2011-04-26T04:11:25.0000000+00:00</time></trkpt><trkpt lat="22.046589" lon="103.952934"><ele>1014.6</ele><time>2011-04-26T04:11:30.0000000+00:00</time></trkpt><trkpt lat="22.046589" lon="103.952934"><ele>1014.6</ele><time>2011-04-26T04:11:35.0000000+00:00</time></trkpt><trkpt lat="22.046589" lon="103.952934"><ele>1014.7</ele><time>2011-04-26T04:11:40.0000000+00:00</time></trkpt><trkpt lat="22.046589" lon="103.952934"><ele>1014.7</ele><time>2011-04-26T04:11:45.0000000+00:00</time></trkpt><trkpt lat="22.046589" lon="103.952934"><ele>1014.8</ele><time>2011-04-26T04:11:50.0000000+00:00</time></trkpt><trkpt lat="22.046589" lon="103.952934"><ele>1014.8</ele><time>2011-04-26T04:11:55.0000000+00:00</time></trkpt><trkpt lat="22.046589" lon="103.952934"><ele>1014.8</ele><time>2011-04-26T04:12:00.0000000+00:00</time></trkpt><trkpt lat="22.046589" lon="103.952934"><ele>1014.8</ele><time>2011-04-26T04:12:05.0000000+00:00</time></trkpt><trkpt lat="22.046589" lon="103.952934"><ele>1014.9</ele><time>2011-04-26T04:12:10.0000000+00:00</time></trkpt><trkpt lat="22.046589" lon="103.952934"><ele>1014.9</ele><time>2011-04-26T04:12:15.0000000+00:00</time></trkpt><trkpt lat="22.046589" lon="103.952934"><ele>1014.9</ele><time>2011-04-26T04:12:20.0000000+00:00</time></trkpt><trkpt lat="22.046589" lon="103.952934"><ele>1015.0</ele><time>2011-04-26T04:12:25.0000000+00:00</time></trkpt><trkpt lat="22.046589" lon="103.952934"><ele>1015.0</ele><time>2011-04-26T04:12:30.0000000+00:00</time></trkpt><trkpt lat="22.046589" lon="103.952934"><ele>1015.0</ele><time>2011-04-26T04:12:35.0000000+00:00</time></trkpt><trkpt lat="22.046589" lon="103.952934"><ele>1015.1</ele><time>2011-04-26T04:12:40.0000000+00:00</time></trkpt><trkpt lat="22.046589" lon="103.952934"><ele>1015.1</ele><time>2011-04-26T04:12:45.0000000+00:00</time></trkpt><trkpt lat="22.046589" lon="103.952934"><ele>1015.1</ele><time>2011-04-26T04:12:50.0000000+00:00</time></trkpt><trkpt lat="22.046589" lon="103.952934"><ele>1015.2</ele><time>2011-04-26T04:12:55.0000000+00:00</time></trkpt><trkpt lat="22.046589" lon="103.952934"><ele>1015.2</ele><time>2011-04-26T04:13:00.0000000+00:00</time></trkpt><trkpt lat="22.046589" lon="103.952934"><ele>1015.3</ele><time>2011-04-26T04:13:05.0000000+00:00</time></trkpt><trkpt lat="22.046589" lon="103.952934"><ele>1015.3</ele><time>2011-04-26T04:13:10.0000000+00:00</time></trkpt><trkpt lat="22.046589" lon="103.952934"><ele>1015.3</ele><time>2011-04-26T04:13:15.0000000+00:00</time></trkpt><trkpt lat="22.046589" lon="103.952934"><ele>1015.4</ele><time>2011-04-26T04:13:20.0000000+00:00</time></trkpt><trkpt lat="22.046589" lon="103.952934"><ele>1015.4</ele><time>2011-04-26T04:13:25.0000000+00:00</time></trkpt><trkpt lat="22.046591" lon="103.952934"><ele>1015.4</ele><time>2011-04-26T04:13:30.0000000+00:00</time></trkpt><trkpt lat="22.046591" lon="103.952934"><ele>1015.4</ele><time>2011-04-26T04:13:35.0000000+00:00</time></trkpt><trkpt lat="22.046591" lon="103.952934"><ele>1015.5</ele><time>2011-04-26T04:13:40.0000000+00:00</time></trkpt><trkpt lat="22.046591" lon="103.952934"><ele>1015.5</ele><time>2011-04-26T04:13:45.0000000+00:00</time></trkpt><trkpt lat="22.046591" lon="103.952934"><ele>1015.6</ele><time>2011-04-26T04:13:50.0000000+00:00</time></trkpt><trkpt lat="22.046591" lon="103.952934"><ele>1015.6</ele><time>2011-04-26T04:13:55.0000000+00:00</time></trkpt><trkpt lat="22.046591" lon="103.952934"><ele>1015.6</ele><time>2011-04-26T04:14:00.0000000+00:00</time></trkpt><trkpt lat="22.046591" lon="103.952934"><ele>1015.6</ele><time>2011-04-26T04:14:05.0000000+00:00</time></trkpt><trkpt lat="22.046591" lon="103.952934"><ele>1015.7</ele><time>2011-04-26T04:14:10.0000000+00:00</time></trkpt><trkpt lat="22.046593" lon="103.952942"><ele>1016.2</ele><time>2011-04-26T04:14:15.0000000+00:00</time></trkpt><trkpt lat="22.046598" lon="103.95295"><ele>1016.8</ele><time>2011-04-26T04:14:20.0000000+00:00</time></trkpt><trkpt lat="22.046606" lon="103.952957"><ele>1017.5</ele><time>2011-04-26T04:14:25.0000000+00:00</time></trkpt><trkpt lat="22.04661" lon="103.952965"><ele>1018.0</ele><time>2011-04-26T04:14:30.0000000+00:00</time></trkpt><trkpt lat="22.04661" lon="103.952965"><ele>1018.3</ele><time>2011-04-26T04:14:35.0000000+00:00</time></trkpt><trkpt lat="22.046606" lon="103.952972"><ele>1018.9</ele><time>2011-04-26T04:14:40.0000000+00:00</time></trkpt><trkpt lat="22.04661" lon="103.952972"><ele>1020.3</ele><time>2011-04-26T04:14:45.0000000+00:00</time></trkpt><trkpt lat="22.04661" lon="103.95298"><ele>1021.3</ele><time>2011-04-26T04:14:50.0000000+00:00</time></trkpt><trkpt lat="22.046614" lon="103.95298"><ele>1022.5</ele><time>2011-04-26T04:14:55.0000000+00:00</time></trkpt><trkpt lat="22.046614" lon="103.95298"><ele>1022.6</ele><time>2011-04-26T04:15:00.0000000+00:00</time></trkpt><trkpt lat="22.046614" lon="103.95298"><ele>1022.6</ele><time>2011-04-26T04:15:05.0000000+00:00</time></trkpt><trkpt lat="22.046614" lon="103.95298"><ele>1022.6</ele><time>2011-04-26T04:15:10.0000000+00:00</time></trkpt><trkpt lat="22.04661" lon="103.95298"><ele>1022.9</ele><time>2011-04-26T04:15:15.0000000+00:00</time></trkpt><trkpt lat="22.046602" lon="103.952972"><ele>1024.1</ele><time>2011-04-26T04:15:20.0000000+00:00</time></trkpt><trkpt lat="22.046587" lon="103.952988"><ele>1024.5</ele><time>2011-04-26T04:15:25.0000000+00:00</time></trkpt><trkpt lat="22.046545" lon="103.953026"><ele>1024.6</ele><time>2011-04-26T04:15:30.0000000+00:00</time></trkpt><trkpt lat="22.04652" lon="103.953072"><ele>1024.6</ele><time>2011-04-26T04:15:35.0000000+00:00</time></trkpt><trkpt lat="22.046474" lon="103.953163"><ele>1024.7</ele><time>2011-04-26T04:15:40.0000000+00:00</time></trkpt><trkpt lat="22.046371" lon="103.953293"><ele>1025.0</ele><time>2011-04-26T04:15:45.0000000+00:00</time></trkpt><trkpt lat="22.046297" lon="103.953438"><ele>1025.3</ele><time>2011-04-26T04:15:50.0000000+00:00</time></trkpt><trkpt lat="22.046257" lon="103.953545"><ele>1025.8</ele><time>2011-04-26T04:15:55.0000000+00:00</time></trkpt><trkpt lat="22.046196" lon="103.953651"><ele>1026.1</ele><time>2011-04-26T04:16:00.0000000+00:00</time></trkpt><trkpt lat="22.046162" lon="103.953735"><ele>1026.6</ele><time>2011-04-26T04:16:05.0000000+00:00</time></trkpt><trkpt lat="22.046146" lon="103.953766"><ele>1027.4</ele><time>2011-04-26T04:16:10.0000000+00:00</time></trkpt><trkpt lat="22.046152" lon="103.953773"><ele>1027.8</ele><time>2011-04-26T04:16:15.0000000+00:00</time></trkpt><trkpt lat="22.04615" lon="103.953773"><ele>1027.9</ele><time>2011-04-26T04:16:20.0000000+00:00</time></trkpt><trkpt lat="22.04615" lon="103.953781"><ele>1028.0</ele><time>2011-04-26T04:16:25.0000000+00:00</time></trkpt><trkpt lat="22.046146" lon="103.953781"><ele>1028.0</ele><time>2011-04-26T04:16:30.0000000+00:00</time></trkpt><trkpt lat="22.046144" lon="103.953789"><ele>1028.0</ele><time>2011-04-26T04:16:35.0000000+00:00</time></trkpt><trkpt lat="22.046143" lon="103.953789"><ele>1028.0</ele><time>2011-04-26T04:16:40.0000000+00:00</time></trkpt><trkpt lat="22.046146" lon="103.953781"><ele>1028.0</ele><time>2011-04-26T04:16:45.0000000+00:00</time></trkpt><trkpt lat="22.046146" lon="103.953781"><ele>1028.0</ele><time>2011-04-26T04:16:50.0000000+00:00</time></trkpt><trkpt lat="22.046148" lon="103.953781"><ele>1028.0</ele><time>2011-04-26T04:16:55.0000000+00:00</time></trkpt><trkpt lat="22.046143" lon="103.953781"><ele>1028.1</ele><time>2011-04-26T04:17:00.0000000+00:00</time></trkpt><trkpt lat="22.046137" lon="103.953781"><ele>1028.1</ele><time>2011-04-26T04:17:05.0000000+00:00</time></trkpt><trkpt lat="22.046133" lon="103.953781"><ele>1028.1</ele><time>2011-04-26T04:17:10.0000000+00:00</time></trkpt><trkpt lat="22.046131" lon="103.953789"><ele>1028.1</ele><time>2011-04-26T04:17:15.0000000+00:00</time></trkpt><trkpt lat="22.046131" lon="103.953796"><ele>1028.1</ele><time>2011-04-26T04:17:20.0000000+00:00</time></trkpt><trkpt lat="22.046135" lon="103.953804"><ele>1028.1</ele><time>2011-04-26T04:17:25.0000000+00:00</time></trkpt><trkpt lat="22.046135" lon="103.953804"><ele>1028.2</ele><time>2011-04-26T04:17:30.0000000+00:00</time></trkpt><trkpt lat="22.046137" lon="103.953804"><ele>1028.2</ele><time>2011-04-26T04:17:35.0000000+00:00</time></trkpt><trkpt lat="22.046143" lon="103.953804"><ele>1028.2</ele><time>2011-04-26T04:17:40.0000000+00:00</time></trkpt><trkpt lat="22.046141" lon="103.953804"><ele>1028.2</ele><time>2011-04-26T04:17:45.0000000+00:00</time></trkpt><trkpt lat="22.046141" lon="103.953812"><ele>1028.3</ele><time>2011-04-26T04:17:50.0000000+00:00</time></trkpt><trkpt lat="22.046137" lon="103.953812"><ele>1028.3</ele><time>2011-04-26T04:17:55.0000000+00:00</time></trkpt><trkpt lat="22.046135" lon="103.953804"><ele>1028.3</ele><time>2011-04-26T04:18:00.0000000+00:00</time></trkpt><trkpt lat="22.046131" lon="103.953796"><ele>1028.3</ele><time>2011-04-26T04:18:05.0000000+00:00</time></trkpt><trkpt lat="22.046133" lon="103.953789"><ele>1028.4</ele><time>2011-04-26T04:18:10.0000000+00:00</time></trkpt><trkpt lat="22.046135" lon="103.953789"><ele>1028.4</ele><time>2011-04-26T04:18:15.0000000+00:00</time></trkpt><trkpt lat="22.046139" lon="103.953789"><ele>1028.4</ele><time>2011-04-26T04:18:20.0000000+00:00</time></trkpt><trkpt lat="22.046141" lon="103.953789"><ele>1028.4</ele><time>2011-04-26T04:18:25.0000000+00:00</time></trkpt><trkpt lat="22.046144" lon="103.953796"><ele>1028.4</ele><time>2011-04-26T04:18:30.0000000+00:00</time></trkpt><trkpt lat="22.046146" lon="103.953804"><ele>1028.4</ele><time>2011-04-26T04:18:35.0000000+00:00</time></trkpt><trkpt lat="22.046144" lon="103.953804"><ele>1028.5</ele><time>2011-04-26T04:18:40.0000000+00:00</time></trkpt><trkpt lat="22.046139" lon="103.953796"><ele>1028.5</ele><time>2011-04-26T04:18:45.0000000+00:00</time></trkpt><trkpt lat="22.046139" lon="103.953789"><ele>1028.5</ele><time>2011-04-26T04:18:50.0000000+00:00</time></trkpt><trkpt lat="22.046139" lon="103.953789"><ele>1028.5</ele><time>2011-04-26T04:18:55.0000000+00:00</time></trkpt><trkpt lat="22.046137" lon="103.953781"><ele>1028.5</ele><time>2011-04-26T04:19:00.0000000+00:00</time></trkpt><trkpt lat="22.046139" lon="103.953773"><ele>1028.6</ele><time>2011-04-26T04:19:05.0000000+00:00</time></trkpt><trkpt lat="22.046141" lon="103.953766"><ele>1028.6</ele><time>2011-04-26T04:19:10.0000000+00:00</time></trkpt><trkpt lat="22.046141" lon="103.953766"><ele>1028.7</ele><time>2011-04-26T04:19:15.0000000+00:00</time></trkpt><trkpt lat="22.046139" lon="103.953766"><ele>1028.8</ele><time>2011-04-26T04:19:20.0000000+00:00</time></trkpt><trkpt lat="22.046139" lon="103.953773"><ele>1028.8</ele><time>2011-04-26T04:19:25.0000000+00:00</time></trkpt><trkpt lat="22.046137" lon="103.953773"><ele>1028.8</ele><time>2011-04-26T04:19:30.0000000+00:00</time></trkpt><trkpt lat="22.046135" lon="103.953781"><ele>1028.8</ele><time>2011-04-26T04:19:35.0000000+00:00</time></trkpt><trkpt lat="22.046131" lon="103.953781"><ele>1028.8</ele><time>2011-04-26T04:19:40.0000000+00:00</time></trkpt><trkpt lat="22.046127" lon="103.953789"><ele>1028.8</ele><time>2011-04-26T04:19:45.0000000+00:00</time></trkpt><trkpt lat="22.046124" lon="103.953789"><ele>1028.8</ele><time>2011-04-26T04:19:50.0000000+00:00</time></trkpt><trkpt lat="22.046122" lon="103.953796"><ele>1028.8</ele><time>2011-04-26T04:19:55.0000000+00:00</time></trkpt><trkpt lat="22.046122" lon="103.953796"><ele>1028.8</ele><time>2011-04-26T04:20:00.0000000+00:00</time></trkpt><trkpt lat="22.046124" lon="103.953796"><ele>1028.8</ele><time>2011-04-26T04:20:05.0000000+00:00</time></trkpt><trkpt lat="22.046124" lon="103.953804"><ele>1028.8</ele><time>2011-04-26T04:20:10.0000000+00:00</time></trkpt><trkpt lat="22.046124" lon="103.953804"><ele>1028.9</ele><time>2011-04-26T04:20:15.0000000+00:00</time></trkpt><trkpt lat="22.046122" lon="103.953804"><ele>1028.9</ele><time>2011-04-26T04:20:20.0000000+00:00</time></trkpt><trkpt lat="22.04612" lon="103.953804"><ele>1029.0</ele><time>2011-04-26T04:20:25.0000000+00:00</time></trkpt><trkpt lat="22.046118" lon="103.953804"><ele>1029.0</ele><time>2011-04-26T04:20:30.0000000+00:00</time></trkpt><trkpt lat="22.046116" lon="103.953804"><ele>1029.0</ele><time>2011-04-26T04:20:35.0000000+00:00</time></trkpt><trkpt lat="22.046116" lon="103.953804"><ele>1029.1</ele><time>2011-04-26T04:20:40.0000000+00:00</time></trkpt><trkpt lat="22.046116" lon="103.953812"><ele>1029.1</ele><time>2011-04-26T04:20:45.0000000+00:00</time></trkpt><trkpt lat="22.046122" lon="103.953812"><ele>1029.1</ele><time>2011-04-26T04:20:50.0000000+00:00</time></trkpt><trkpt lat="22.046125" lon="103.953812"><ele>1029.2</ele><time>2011-04-26T04:20:55.0000000+00:00</time></trkpt><trkpt lat="22.046127" lon="103.953812"><ele>1029.3</ele><time>2011-04-26T04:21:00.0000000+00:00</time></trkpt><trkpt lat="22.046129" lon="103.953812"><ele>1029.5</ele><time>2011-04-26T04:21:05.0000000+00:00</time></trkpt><trkpt lat="22.046129" lon="103.953812"><ele>1029.5</ele><time>2011-04-26T04:21:10.0000000+00:00</time></trkpt><trkpt lat="22.046129" lon="103.953812"><ele>1029.6</ele><time>2011-04-26T04:21:15.0000000+00:00</time></trkpt><trkpt lat="22.046129" lon="103.953812"><ele>1029.6</ele><time>2011-04-26T04:21:20.0000000+00:00</time></trkpt><trkpt lat="22.046129" lon="103.953812"><ele>1029.7</ele><time>2011-04-26T04:21:25.0000000+00:00</time></trkpt><trkpt lat="22.046129" lon="103.953812"><ele>1029.7</ele><time>2011-04-26T04:21:30.0000000+00:00</time></trkpt><trkpt lat="22.046127" lon="103.953812"><ele>1029.7</ele><time>2011-04-26T04:21:35.0000000+00:00</time></trkpt><trkpt lat="22.046129" lon="103.953812"><ele>1029.9</ele><time>2011-04-26T04:21:40.0000000+00:00</time></trkpt><trkpt lat="22.046129" lon="103.953812"><ele>1029.9</ele><time>2011-04-26T04:21:45.0000000+00:00</time></trkpt><trkpt lat="22.046129" lon="103.953812"><ele>1030.0</ele><time>2011-04-26T04:21:50.0000000+00:00</time></trkpt><trkpt lat="22.046131" lon="103.953812"><ele>1030.4</ele><time>2011-04-26T04:21:55.0000000+00:00</time></trkpt><trkpt lat="22.046133" lon="103.953804"><ele>1031.8</ele><time>2011-04-26T04:22:00.0000000+00:00</time></trkpt><trkpt lat="22.046137" lon="103.953796"><ele>1031.8</ele><time>2011-04-26T04:22:05.0000000+00:00</time></trkpt><trkpt lat="22.046139" lon="103.953796"><ele>1031.7</ele><time>2011-04-26T04:22:10.0000000+00:00</time></trkpt><trkpt lat="22.046141" lon="103.953796"><ele>1031.6</ele><time>2011-04-26T04:22:15.0000000+00:00</time></trkpt><trkpt lat="22.046141" lon="103.953804"><ele>1031.8</ele><time>2011-04-26T04:22:20.0000000+00:00</time></trkpt><trkpt lat="22.046131" lon="103.953827"><ele>1031.5</ele><time>2011-04-26T04:22:25.0000000+00:00</time></trkpt><trkpt lat="22.04611" lon="103.95385"><ele>1031.0</ele><time>2011-04-26T04:22:30.0000000+00:00</time></trkpt><trkpt lat="22.046116" lon="103.95385"><ele>1031.4</ele><time>2011-04-26T04:22:35.0000000+00:00</time></trkpt><trkpt lat="22.04612" lon="103.95385"><ele>1031.5</ele><time>2011-04-26T04:22:40.0000000+00:00</time></trkpt><trkpt lat="22.04612" lon="103.95385"><ele>1031.5</ele><time>2011-04-26T04:22:45.0000000+00:00</time></trkpt><trkpt lat="22.04612" lon="103.95385"><ele>1031.5</ele><time>2011-04-26T04:22:50.0000000+00:00</time></trkpt><trkpt lat="22.046122" lon="103.95385"><ele>1031.5</ele><time>2011-04-26T04:22:55.0000000+00:00</time></trkpt><trkpt lat="22.046118" lon="103.95385"><ele>1031.5</ele><time>2011-04-26T04:23:00.0000000+00:00</time></trkpt><trkpt lat="22.046108" lon="103.953865"><ele>1031.5</ele><time>2011-04-26T04:23:05.0000000+00:00</time></trkpt><trkpt lat="22.046068" lon="103.953949"><ele>1032.0</ele><time>2011-04-26T04:23:10.0000000+00:00</time></trkpt><trkpt lat="22.046024" lon="103.954109"><ele>1032.3</ele><time>2011-04-26T04:23:15.0000000+00:00</time></trkpt><trkpt lat="22.045965" lon="103.954239"><ele>1032.4</ele><time>2011-04-26T04:23:20.0000000+00:00</time></trkpt><trkpt lat="22.045969" lon="103.954437"><ele>1032.2</ele><time>2011-04-26T04:23:25.0000000+00:00</time></trkpt><trkpt lat="22.046009" lon="103.954651"><ele>1031.9</ele><time>2011-04-26T04:23:30.0000000+00:00</time></trkpt><trkpt lat="22.046051" lon="103.954826"><ele>1032.0</ele><time>2011-04-26T04:23:35.0000000+00:00</time></trkpt><trkpt lat="22.04608" lon="103.954979"><ele>1031.8</ele><time>2011-04-26T04:23:40.0000000+00:00</time></trkpt><trkpt lat="22.046087" lon="103.955124"><ele>1031.9</ele><time>2011-04-26T04:23:45.0000000+00:00</time></trkpt><trkpt lat="22.046053" lon="103.955231"><ele>1032.1</ele><time>2011-04-26T04:23:50.0000000+00:00</time></trkpt><trkpt lat="22.045979" lon="103.955307"><ele>1033.0</ele><time>2011-04-26T04:23:55.0000000+00:00</time></trkpt><trkpt lat="22.045914" lon="103.95536"><ele>1034.0</ele><time>2011-04-26T04:24:00.0000000+00:00</time></trkpt><trkpt lat="22.045813" lon="103.955376"><ele>1034.1</ele><time>2011-04-26T04:24:05.0000000+00:00</time></trkpt><trkpt lat="22.045622" lon="103.955383"><ele>1034.1</ele><time>2011-04-26T04:24:10.0000000+00:00</time></trkpt><trkpt lat="22.045488" lon="103.955299"><ele>1034.3</ele><time>2011-04-26T04:24:15.0000000+00:00</time></trkpt><trkpt lat="22.045332" lon="103.955322"><ele>1034.1</ele><time>2011-04-26T04:24:20.0000000+00:00</time></trkpt><trkpt lat="22.045277" lon="103.955322"><ele>1034.3</ele><time>2011-04-26T04:24:25.0000000+00:00</time></trkpt><trkpt lat="22.045275" lon="103.955307"><ele>1034.5</ele><time>2011-04-26T04:24:30.0000000+00:00</time></trkpt><trkpt lat="22.045275" lon="103.955299"><ele>1034.7</ele><time>2011-04-26T04:24:35.0000000+00:00</time></trkpt><trkpt lat="22.045275" lon="103.955307"><ele>1034.6</ele><time>2011-04-26T04:24:40.0000000+00:00</time></trkpt><trkpt lat="22.045271" lon="103.955299"><ele>1034.5</ele><time>2011-04-26T04:24:45.0000000+00:00</time></trkpt><trkpt lat="22.045271" lon="103.955299"><ele>1034.5</ele><time>2011-04-26T04:24:50.0000000+00:00</time></trkpt><trkpt lat="22.045271" lon="103.955299"><ele>1034.5</ele><time>2011-04-26T04:24:55.0000000+00:00</time></trkpt><trkpt lat="22.045271" lon="103.955299"><ele>1034.6</ele><time>2011-04-26T04:25:00.0000000+00:00</time></trkpt><trkpt lat="22.045269" lon="103.955307"><ele>1034.6</ele><time>2011-04-26T04:25:05.0000000+00:00</time></trkpt><trkpt lat="22.045269" lon="103.955307"><ele>1034.6</ele><time>2011-04-26T04:25:10.0000000+00:00</time></trkpt><trkpt lat="22.045269" lon="103.955315"><ele>1034.5</ele><time>2011-04-26T04:25:15.0000000+00:00</time></trkpt><trkpt lat="22.045269" lon="103.955322"><ele>1034.5</ele><time>2011-04-26T04:25:20.0000000+00:00</time></trkpt><trkpt lat="22.045271" lon="103.95533"><ele>1034.5</ele><time>2011-04-26T04:25:25.0000000+00:00</time></trkpt><trkpt lat="22.045271" lon="103.95533"><ele>1034.5</ele><time>2011-04-26T04:25:30.0000000+00:00</time></trkpt><trkpt lat="22.045271" lon="103.95533"><ele>1034.5</ele><time>2011-04-26T04:25:35.0000000+00:00</time></trkpt><trkpt lat="22.045269" lon="103.955322"><ele>1034.5</ele><time>2011-04-26T04:25:40.0000000+00:00</time></trkpt><trkpt lat="22.045267" lon="103.955307"><ele>1034.5</ele><time>2011-04-26T04:25:45.0000000+00:00</time></trkpt><trkpt lat="22.045267" lon="103.955292"><ele>1034.5</ele><time>2011-04-26T04:25:50.0000000+00:00</time></trkpt><trkpt lat="22.045263" lon="103.955276"><ele>1034.5</ele><time>2011-04-26T04:25:55.0000000+00:00</time></trkpt><trkpt lat="22.045261" lon="103.955261"><ele>1034.5</ele><time>2011-04-26T04:26:00.0000000+00:00</time></trkpt><trkpt lat="22.045261" lon="103.955254"><ele>1034.5</ele><time>2011-04-26T04:26:05.0000000+00:00</time></trkpt><trkpt lat="22.045261" lon="103.955254"><ele>1034.5</ele><time>2011-04-26T04:26:10.0000000+00:00</time></trkpt><trkpt lat="22.045259" lon="103.955254"><ele>1034.5</ele><time>2011-04-26T04:26:15.0000000+00:00</time></trkpt><trkpt lat="22.045259" lon="103.955254"><ele>1034.5</ele><time>2011-04-26T04:26:20.0000000+00:00</time></trkpt><trkpt lat="22.045261" lon="103.955269"><ele>1034.5</ele><time>2011-04-26T04:26:25.0000000+00:00</time></trkpt><trkpt lat="22.045261" lon="103.955284"><ele>1034.5</ele><time>2011-04-26T04:26:30.0000000+00:00</time></trkpt><trkpt lat="22.045263" lon="103.955299"><ele>1034.5</ele><time>2011-04-26T04:26:35.0000000+00:00</time></trkpt><trkpt lat="22.045263" lon="103.955307"><ele>1034.4</ele><time>2011-04-26T04:26:40.0000000+00:00</time></trkpt><trkpt lat="22.045263" lon="103.955307"><ele>1034.4</ele><time>2011-04-26T04:26:45.0000000+00:00</time></trkpt><trkpt lat="22.045263" lon="103.955307"><ele>1034.4</ele><time>2011-04-26T04:26:50.0000000+00:00</time></trkpt><trkpt lat="22.045263" lon="103.955307"><ele>1034.4</ele><time>2011-04-26T04:26:55.0000000+00:00</time></trkpt><trkpt lat="22.045263" lon="103.955307"><ele>1034.4</ele><time>2011-04-26T04:27:00.0000000+00:00</time></trkpt><trkpt lat="22.045263" lon="103.955307"><ele>1034.4</ele><time>2011-04-26T04:27:05.0000000+00:00</time></trkpt><trkpt lat="22.045263" lon="103.955307"><ele>1034.5</ele><time>2011-04-26T04:27:10.0000000+00:00</time></trkpt><trkpt lat="22.045263" lon="103.955315"><ele>1034.5</ele><time>2011-04-26T04:27:15.0000000+00:00</time></trkpt><trkpt lat="22.045263" lon="103.955307"><ele>1034.5</ele><time>2011-04-26T04:27:20.0000000+00:00</time></trkpt><trkpt lat="22.045265" lon="103.955307"><ele>1034.4</ele><time>2011-04-26T04:27:25.0000000+00:00</time></trkpt><trkpt lat="22.045265" lon="103.955315"><ele>1034.4</ele><time>2011-04-26T04:27:30.0000000+00:00</time></trkpt><trkpt lat="22.045265" lon="103.955315"><ele>1034.3</ele><time>2011-04-26T04:27:35.0000000+00:00</time></trkpt><trkpt lat="22.045265" lon="103.955315"><ele>1034.2</ele><time>2011-04-26T04:27:40.0000000+00:00</time></trkpt><trkpt lat="22.045265" lon="103.955315"><ele>1034.2</ele><time>2011-04-26T04:27:45.0000000+00:00</time></trkpt><trkpt lat="22.045267" lon="103.955315"><ele>1034.3</ele><time>2011-04-26T04:27:50.0000000+00:00</time></trkpt><trkpt lat="22.045269" lon="103.955315"><ele>1034.3</ele><time>2011-04-26T04:27:55.0000000+00:00</time></trkpt><trkpt lat="22.045267" lon="103.955307"><ele>1034.3</ele><time>2011-04-26T04:28:00.0000000+00:00</time></trkpt><trkpt lat="22.045265" lon="103.955307"><ele>1034.4</ele><time>2011-04-26T04:28:05.0000000+00:00</time></trkpt><trkpt lat="22.045265" lon="103.955315"><ele>1034.4</ele><time>2011-04-26T04:28:10.0000000+00:00</time></trkpt><trkpt lat="22.045258" lon="103.955315"><ele>1034.4</ele><time>2011-04-26T04:28:15.0000000+00:00</time></trkpt><trkpt lat="22.045103" lon="103.955345"><ele>1034.2</ele><time>2011-04-26T04:28:20.0000000+00:00</time></trkpt><trkpt lat="22.04497" lon="103.955406"><ele>1034.3</ele><time>2011-04-26T04:28:25.0000000+00:00</time></trkpt><trkpt lat="22.044968" lon="103.955414"><ele>1034.4</ele><time>2011-04-26T04:28:30.0000000+00:00</time></trkpt><trkpt lat="22.044958" lon="103.955429"><ele>1034.7</ele><time>2011-04-26T04:28:35.0000000+00:00</time></trkpt><trkpt lat="22.044863" lon="103.955574"><ele>1034.6</ele><time>2011-04-26T04:28:40.0000000+00:00</time></trkpt><trkpt lat="22.044775" lon="103.955917"><ele>1033.1</ele><time>2011-04-26T04:28:45.0000000+00:00</time></trkpt><trkpt lat="22.044773" lon="103.956253"><ele>1032.1</ele><time>2011-04-26T04:28:50.0000000+00:00</time></trkpt><trkpt lat="22.044729" lon="103.956619"><ele>1030.0</ele><time>2011-04-26T04:28:55.0000000+00:00</time></trkpt><trkpt lat="22.044657" lon="103.956902"><ele>1029.1</ele><time>2011-04-26T04:29:00.0000000+00:00</time></trkpt><trkpt lat="22.04479" lon="103.957207"><ele>1026.2</ele><time>2011-04-26T04:29:05.0000000+00:00</time></trkpt><trkpt lat="22.045107" lon="103.957489"><ele>1022.4</ele><time>2011-04-26T04:29:10.0000000+00:00</time></trkpt><trkpt lat="22.045395" lon="103.957779"><ele>1020.2</ele><time>2011-04-26T04:29:15.0000000+00:00</time></trkpt><trkpt lat="22.045704" lon="103.958008"><ele>1019.6</ele><time>2011-04-26T04:29:20.0000000+00:00</time></trkpt><trkpt lat="22.045984" lon="103.958221"><ele>1018.0</ele><time>2011-04-26T04:29:25.0000000+00:00</time></trkpt><trkpt lat="22.046144" lon="103.958527"><ele>1016.3</ele><time>2011-04-26T04:29:30.0000000+00:00</time></trkpt><trkpt lat="22.046143" lon="103.958862"><ele>1016.5</ele><time>2011-04-26T04:29:35.0000000+00:00</time></trkpt><trkpt lat="22.046148" lon="103.959129"><ele>1018.0</ele><time>2011-04-26T04:29:40.0000000+00:00</time></trkpt><trkpt lat="22.046257" lon="103.959351"><ele>1018.3</ele><time>2011-04-26T04:29:45.0000000+00:00</time></trkpt><trkpt lat="22.046495" lon="103.959496"><ele>1017.4</ele><time>2011-04-26T04:29:50.0000000+00:00</time></trkpt><trkpt lat="22.046764" lon="103.959679"><ele>1015.9</ele><time>2011-04-26T04:29:55.0000000+00:00</time></trkpt><trkpt lat="22.047054" lon="103.959908"><ele>1015.0</ele><time>2011-04-26T04:30:00.0000000+00:00</time></trkpt><trkpt lat="22.047361" lon="103.96019"><ele>1014.6</ele><time>2011-04-26T04:30:05.0000000+00:00</time></trkpt><trkpt lat="22.047707" lon="103.960419"><ele>1013.8</ele><time>2011-04-26T04:30:10.0000000+00:00</time></trkpt><trkpt lat="22.048136" lon="103.960365"><ele>1012.9</ele><time>2011-04-26T04:30:15.0000000+00:00</time></trkpt><trkpt lat="22.048611" lon="103.960251"><ele>1011.0</ele><time>2011-04-26T04:30:20.0000000+00:00</time></trkpt><trkpt lat="22.049059" lon="103.960075"><ele>1007.9</ele><time>2011-04-26T04:30:25.0000000+00:00</time></trkpt><trkpt lat="22.049414" lon="103.960098"><ele>1006.0</ele><time>2011-04-26T04:30:30.0000000+00:00</time></trkpt><trkpt lat="22.049782" lon="103.960243"><ele>1004.5</ele><time>2011-04-26T04:30:35.0000000+00:00</time></trkpt><trkpt lat="22.050203" lon="103.960388"><ele>1003.2</ele><time>2011-04-26T04:30:40.0000000+00:00</time></trkpt><trkpt lat="22.050673" lon="103.960396"><ele>1001.5</ele><time>2011-04-26T04:30:45.0000000+00:00</time></trkpt><trkpt lat="22.051001" lon="103.960167"><ele>1000.6</ele><time>2011-04-26T04:30:50.0000000+00:00</time></trkpt><trkpt lat="22.051359" lon="103.960052"><ele>999.9</ele><time>2011-04-26T04:30:55.0000000+00:00</time></trkpt><trkpt lat="22.051666" lon="103.96006"><ele>999.8</ele><time>2011-04-26T04:31:00.0000000+00:00</time></trkpt><trkpt lat="22.051914" lon="103.959953"><ele>999.7</ele><time>2011-04-26T04:31:05.0000000+00:00</time></trkpt><trkpt lat="22.052214" lon="103.959824"><ele>1000.0</ele><time>2011-04-26T04:31:10.0000000+00:00</time></trkpt><trkpt lat="22.052546" lon="103.959717"><ele>998.7</ele><time>2011-04-26T04:31:15.0000000+00:00</time></trkpt><trkpt lat="22.052679" lon="103.959427"><ele>995.1</ele><time>2011-04-26T04:31:20.0000000+00:00</time></trkpt><trkpt lat="22.052959" lon="103.959145"><ele>992.0</ele><time>2011-04-26T04:31:25.0000000+00:00</time></trkpt><trkpt lat="22.053268" lon="103.959091"><ele>989.3</ele><time>2011-04-26T04:31:30.0000000+00:00</time></trkpt><trkpt lat="22.053553" lon="103.959084"><ele>988.3</ele><time>2011-04-26T04:31:35.0000000+00:00</time></trkpt><trkpt lat="22.053854" lon="103.959084"><ele>987.8</ele><time>2011-04-26T04:31:40.0000000+00:00</time></trkpt><trkpt lat="22.054144" lon="103.959091"><ele>987.7</ele><time>2011-04-26T04:31:45.0000000+00:00</time></trkpt><trkpt lat="22.054335" lon="103.959137"><ele>988.5</ele><time>2011-04-26T04:31:50.0000000+00:00</time></trkpt><trkpt lat="22.054428" lon="103.959297"><ele>989.0</ele><time>2011-04-26T04:31:55.0000000+00:00</time></trkpt><trkpt lat="22.054537" lon="103.959496"><ele>989.4</ele><time>2011-04-26T04:32:00.0000000+00:00</time></trkpt><trkpt lat="22.05468" lon="103.959778"><ele>990.1</ele><time>2011-04-26T04:32:05.0000000+00:00</time></trkpt><trkpt lat="22.054779" lon="103.96006"><ele>990.3</ele><time>2011-04-26T04:32:10.0000000+00:00</time></trkpt><trkpt lat="22.054731" lon="103.960358"><ele>990.2</ele><time>2011-04-26T04:32:15.0000000+00:00</time></trkpt><trkpt lat="22.054556" lon="103.960556"><ele>989.5</ele><time>2011-04-26T04:32:20.0000000+00:00</time></trkpt><trkpt lat="22.054365" lon="103.960747"><ele>987.7</ele><time>2011-04-26T04:32:25.0000000+00:00</time></trkpt><trkpt lat="22.054193" lon="103.960953"><ele>987.2</ele><time>2011-04-26T04:32:30.0000000+00:00</time></trkpt><trkpt lat="22.053993" lon="103.961113"><ele>987.3</ele><time>2011-04-26T04:32:35.0000000+00:00</time></trkpt><trkpt lat="22.053732" lon="103.961197"><ele>986.3</ele><time>2011-04-26T04:32:40.0000000+00:00</time></trkpt><trkpt lat="22.053446" lon="103.961349"><ele>986.7</ele><time>2011-04-26T04:32:45.0000000+00:00</time></trkpt><trkpt lat="22.053215" lon="103.961525"><ele>985.6</ele><time>2011-04-26T04:32:50.0000000+00:00</time></trkpt><trkpt lat="22.053137" lon="103.961861"><ele>982.5</ele><time>2011-04-26T04:32:55.0000000+00:00</time></trkpt><trkpt lat="22.053024" lon="103.962227"><ele>979.8</ele><time>2011-04-26T04:33:00.0000000+00:00</time></trkpt><trkpt lat="22.052782" lon="103.962471"><ele>977.8</ele><time>2011-04-26T04:33:05.0000000+00:00</time></trkpt><trkpt lat="22.052523" lon="103.962578"><ele>976.5</ele><time>2011-04-26T04:33:10.0000000+00:00</time></trkpt><trkpt lat="22.052246" lon="103.962601"><ele>975.2</ele><time>2011-04-26T04:33:15.0000000+00:00</time></trkpt><trkpt lat="22.052048" lon="103.962738"><ele>974.1</ele><time>2011-04-26T04:33:20.0000000+00:00</time></trkpt><trkpt lat="22.05196" lon="103.962875"><ele>971.0</ele><time>2011-04-26T04:33:25.0000000+00:00</time></trkpt><trkpt lat="22.051914" lon="103.962997"><ele>969.1</ele><time>2011-04-26T04:33:30.0000000+00:00</time></trkpt><trkpt lat="22.05187" lon="103.963295"><ele>965.8</ele><time>2011-04-26T04:33:35.0000000+00:00</time></trkpt><trkpt lat="22.051971" lon="103.963661"><ele>960.2</ele><time>2011-04-26T04:33:40.0000000+00:00</time></trkpt><trkpt lat="22.052034" lon="103.964012"><ele>955.9</ele><time>2011-04-26T04:33:45.0000000+00:00</time></trkpt><trkpt lat="22.051882" lon="103.964264"><ele>952.4</ele><time>2011-04-26T04:33:50.0000000+00:00</time></trkpt><trkpt lat="22.051657" lon="103.964394"><ele>949.7</ele><time>2011-04-26T04:33:55.0000000+00:00</time></trkpt><trkpt lat="22.051401" lon="103.964401"><ele>947.4</ele><time>2011-04-26T04:34:00.0000000+00:00</time></trkpt><trkpt lat="22.051205" lon="103.964218"><ele>945.2</ele><time>2011-04-26T04:34:05.0000000+00:00</time></trkpt><trkpt lat="22.050955" lon="103.964149"><ele>943.0</ele><time>2011-04-26T04:34:10.0000000+00:00</time></trkpt><trkpt lat="22.050684" lon="103.964142"><ele>941.3</ele><time>2011-04-26T04:34:15.0000000+00:00</time></trkpt><trkpt lat="22.050346" lon="103.96431"><ele>940.2</ele><time>2011-04-26T04:34:20.0000000+00:00</time></trkpt><trkpt lat="22.049992" lon="103.9645"><ele>938.3</ele><time>2011-04-26T04:34:25.0000000+00:00</time></trkpt><trkpt lat="22.049749" lon="103.964706"><ele>936.9</ele><time>2011-04-26T04:34:30.0000000+00:00</time></trkpt><trkpt lat="22.049658" lon="103.965034"><ele>935.9</ele><time>2011-04-26T04:34:35.0000000+00:00</time></trkpt><trkpt lat="22.049587" lon="103.965332"><ele>935.6</ele><time>2011-04-26T04:34:40.0000000+00:00</time></trkpt><trkpt lat="22.049387" lon="103.965515"><ele>933.8</ele><time>2011-04-26T04:34:45.0000000+00:00</time></trkpt><trkpt lat="22.049093" lon="103.965553"><ele>932.6</ele><time>2011-04-26T04:34:50.0000000+00:00</time></trkpt><trkpt lat="22.048828" lon="103.96553"><ele>931.1</ele><time>2011-04-26T04:34:55.0000000+00:00</time></trkpt><trkpt lat="22.048574" lon="103.96553"><ele>929.7</ele><time>2011-04-26T04:35:00.0000000+00:00</time></trkpt><trkpt lat="22.048309" lon="103.965599"><ele>928.3</ele><time>2011-04-26T04:35:05.0000000+00:00</time></trkpt><trkpt lat="22.048061" lon="103.965721"><ele>927.4</ele><time>2011-04-26T04:35:10.0000000+00:00</time></trkpt><trkpt lat="22.047895" lon="103.965889"><ele>925.9</ele><time>2011-04-26T04:35:15.0000000+00:00</time></trkpt><trkpt lat="22.047699" lon="103.965981"><ele>924.7</ele><time>2011-04-26T04:35:20.0000000+00:00</time></trkpt><trkpt lat="22.047495" lon="103.965881"><ele>923.4</ele><time>2011-04-26T04:35:25.0000000+00:00</time></trkpt><trkpt lat="22.047268" lon="103.965797"><ele>921.9</ele><time>2011-04-26T04:35:30.0000000+00:00</time></trkpt><trkpt lat="22.047064" lon="103.965904"><ele>921.7</ele><time>2011-04-26T04:35:35.0000000+00:00</time></trkpt><trkpt lat="22.046936" lon="103.966095"><ele>921.0</ele><time>2011-04-26T04:35:40.0000000+00:00</time></trkpt><trkpt lat="22.046797" lon="103.966225"><ele>919.9</ele><time>2011-04-26T04:35:45.0000000+00:00</time></trkpt><trkpt lat="22.046669" lon="103.96627"><ele>919.1</ele><time>2011-04-26T04:35:50.0000000+00:00</time></trkpt><trkpt lat="22.04644" lon="103.966377"><ele>919.0</ele><time>2011-04-26T04:35:55.0000000+00:00</time></trkpt><trkpt lat="22.046289" lon="103.966644"><ele>919.4</ele><time>2011-04-26T04:36:00.0000000+00:00</time></trkpt><trkpt lat="22.04615" lon="103.966881"><ele>919.8</ele><time>2011-04-26T04:36:05.0000000+00:00</time></trkpt><trkpt lat="22.045971" lon="103.967033"><ele>919.1</ele><time>2011-04-26T04:36:10.0000000+00:00</time></trkpt><trkpt lat="22.045837" lon="103.967247"><ele>918.9</ele><time>2011-04-26T04:36:15.0000000+00:00</time></trkpt><trkpt lat="22.045742" lon="103.967514"><ele>918.1</ele><time>2011-04-26T04:36:20.0000000+00:00</time></trkpt><trkpt lat="22.04562" lon="103.967789"><ele>916.5</ele><time>2011-04-26T04:36:25.0000000+00:00</time></trkpt><trkpt lat="22.045565" lon="103.968086"><ele>913.9</ele><time>2011-04-26T04:36:30.0000000+00:00</time></trkpt><trkpt lat="22.045643" lon="103.968315"><ele>912.5</ele><time>2011-04-26T04:36:35.0000000+00:00</time></trkpt><trkpt lat="22.045671" lon="103.968361"><ele>910.5</ele><time>2011-04-26T04:36:40.0000000+00:00</time></trkpt><trkpt lat="22.04567" lon="103.968361"><ele>910.4</ele><time>2011-04-26T04:36:45.0000000+00:00</time></trkpt><trkpt lat="22.04567" lon="103.968361"><ele>910.4</ele><time>2011-04-26T04:36:50.0000000+00:00</time></trkpt><trkpt lat="22.04567" lon="103.968369"><ele>910.4</ele><time>2011-04-26T04:36:55.0000000+00:00</time></trkpt><trkpt lat="22.045671" lon="103.968369"><ele>910.4</ele><time>2011-04-26T04:37:00.0000000+00:00</time></trkpt><trkpt lat="22.045671" lon="103.968369"><ele>910.4</ele><time>2011-04-26T04:37:05.0000000+00:00</time></trkpt><trkpt lat="22.045692" lon="103.968369"><ele>910.3</ele><time>2011-04-26T04:37:10.0000000+00:00</time></trkpt><trkpt lat="22.045837" lon="103.968445"><ele>909.9</ele><time>2011-04-26T04:37:15.0000000+00:00</time></trkpt><trkpt lat="22.046032" lon="103.968628"><ele>909.1</ele><time>2011-04-26T04:37:20.0000000+00:00</time></trkpt><trkpt lat="22.046059" lon="103.968941"><ele>909.1</ele><time>2011-04-26T04:37:25.0000000+00:00</time></trkpt><trkpt lat="22.046001" lon="103.969292"><ele>908.6</ele><time>2011-04-26T04:37:30.0000000+00:00</time></trkpt><trkpt lat="22.045803" lon="103.969612"><ele>908.6</ele><time>2011-04-26T04:37:35.0000000+00:00</time></trkpt><trkpt lat="22.045782" lon="103.969971"><ele>907.6</ele><time>2011-04-26T04:37:40.0000000+00:00</time></trkpt><trkpt lat="22.046127" lon="103.970222"><ele>905.4</ele><time>2011-04-26T04:37:45.0000000+00:00</time></trkpt><trkpt lat="22.046482" lon="103.970413"><ele>903.4</ele><time>2011-04-26T04:37:50.0000000+00:00</time></trkpt><trkpt lat="22.046543" lon="103.970703"><ele>900.8</ele><time>2011-04-26T04:37:55.0000000+00:00</time></trkpt><trkpt lat="22.04641" lon="103.971008"><ele>899.1</ele><time>2011-04-26T04:38:00.0000000+00:00</time></trkpt><trkpt lat="22.046206" lon="103.971291"><ele>898.1</ele><time>2011-04-26T04:38:05.0000000+00:00</time></trkpt><trkpt lat="22.0459" lon="103.971527"><ele>897.2</ele><time>2011-04-26T04:38:10.0000000+00:00</time></trkpt><trkpt lat="22.045507" lon="103.971786"><ele>896.2</ele><time>2011-04-26T04:38:15.0000000+00:00</time></trkpt><trkpt lat="22.045248" lon="103.971985"><ele>894.7</ele><time>2011-04-26T04:38:20.0000000+00:00</time></trkpt><trkpt lat="22.044992" lon="103.971992"><ele>893.3</ele><time>2011-04-26T04:38:25.0000000+00:00</time></trkpt><trkpt lat="22.044868" lon="103.971764"><ele>890.8</ele><time>2011-04-26T04:38:30.0000000+00:00</time></trkpt><trkpt lat="22.044964" lon="103.971397"><ele>889.1</ele><time>2011-04-26T04:38:35.0000000+00:00</time></trkpt><trkpt lat="22.045235" lon="103.971146"><ele>885.4</ele><time>2011-04-26T04:38:40.0000000+00:00</time></trkpt><trkpt lat="22.045576" lon="103.970932"><ele>884.3</ele><time>2011-04-26T04:38:45.0000000+00:00</time></trkpt><trkpt lat="22.045763" lon="103.970634"><ele>878.1</ele><time>2011-04-26T04:38:50.0000000+00:00</time></trkpt><trkpt lat="22.045557" lon="103.97036"><ele>873.5</ele><time>2011-04-26T04:38:55.0000000+00:00</time></trkpt><trkpt lat="22.045456" lon="103.970284"><ele>871.2</ele><time>2011-04-26T04:39:00.0000000+00:00</time></trkpt><trkpt lat="22.045382" lon="103.970238"><ele>869.0</ele><time>2011-04-26T04:39:05.0000000+00:00</time></trkpt><trkpt lat="22.045298" lon="103.970161"><ele>866.0</ele><time>2011-04-26T04:39:10.0000000+00:00</time></trkpt><trkpt lat="22.045189" lon="103.970032"><ele>863.5</ele><time>2011-04-26T04:39:15.0000000+00:00</time></trkpt><trkpt lat="22.045103" lon="103.969864"><ele>860.1</ele><time>2011-04-26T04:39:20.0000000+00:00</time></trkpt><trkpt lat="22.045094" lon="103.969696"><ele>857.5</ele><time>2011-04-26T04:39:25.0000000+00:00</time></trkpt><trkpt lat="22.045111" lon="103.969612"><ele>855.9</ele><time>2011-04-26T04:39:30.0000000+00:00</time></trkpt><trkpt lat="22.045145" lon="103.969429"><ele>855.1</ele><time>2011-04-26T04:39:35.0000000+00:00</time></trkpt><trkpt lat="22.045202" lon="103.9692"><ele>854.0</ele><time>2011-04-26T04:39:40.0000000+00:00</time></trkpt><trkpt lat="22.045118" lon="103.968948"><ele>853.3</ele><time>2011-04-26T04:39:45.0000000+00:00</time></trkpt><trkpt lat="22.044935" lon="103.968704"><ele>852.0</ele><time>2011-04-26T04:39:50.0000000+00:00</time></trkpt><trkpt lat="22.044809" lon="103.968391"><ele>850.3</ele><time>2011-04-26T04:39:55.0000000+00:00</time></trkpt><trkpt lat="22.044834" lon="103.968048"><ele>849.0</ele><time>2011-04-26T04:40:00.0000000+00:00</time></trkpt><trkpt lat="22.044945" lon="103.967796"><ele>848.5</ele><time>2011-04-26T04:40:05.0000000+00:00</time></trkpt><trkpt lat="22.045078" lon="103.96756"><ele>847.1</ele><time>2011-04-26T04:40:10.0000000+00:00</time></trkpt><trkpt lat="22.045141" lon="103.967316"><ele>845.9</ele><time>2011-04-26T04:40:15.0000000+00:00</time></trkpt><trkpt lat="22.045145" lon="103.967079"><ele>844.9</ele><time>2011-04-26T04:40:20.0000000+00:00</time></trkpt><trkpt lat="22.045158" lon="103.966805"><ele>842.7</ele><time>2011-04-26T04:40:25.0000000+00:00</time></trkpt><trkpt lat="22.045282" lon="103.966461"><ele>839.7</ele><time>2011-04-26T04:40:30.0000000+00:00</time></trkpt><trkpt lat="22.04561" lon="103.966141"><ele>836.3</ele><time>2011-04-26T04:40:35.0000000+00:00</time></trkpt><trkpt lat="22.045933" lon="103.965767"><ele>833.1</ele><time>2011-04-26T04:40:40.0000000+00:00</time></trkpt><trkpt lat="22.046051" lon="103.965393"><ele>828.9</ele><time>2011-04-26T04:40:45.0000000+00:00</time></trkpt><trkpt lat="22.046133" lon="103.965088"><ele>825.3</ele><time>2011-04-26T04:40:50.0000000+00:00</time></trkpt><trkpt lat="22.04637" lon="103.964844"><ele>822.5</ele><time>2011-04-26T04:40:55.0000000+00:00</time></trkpt><trkpt lat="22.046635" lon="103.9646"><ele>820.2</ele><time>2011-04-26T04:41:00.0000000+00:00</time></trkpt><trkpt lat="22.046743" lon="103.964317"><ele>818.2</ele><time>2011-04-26T04:41:05.0000000+00:00</time></trkpt><trkpt lat="22.046663" lon="103.964066"><ele>816.5</ele><time>2011-04-26T04:41:10.0000000+00:00</time></trkpt><trkpt lat="22.046503" lon="103.963905"><ele>814.7</ele><time>2011-04-26T04:41:15.0000000+00:00</time></trkpt><trkpt lat="22.046379" lon="103.963791"><ele>811.9</ele><time>2011-04-26T04:41:20.0000000+00:00</time></trkpt><trkpt lat="22.046253" lon="103.963715"><ele>808.7</ele><time>2011-04-26T04:41:25.0000000+00:00</time></trkpt><trkpt lat="22.046112" lon="103.963715"><ele>806.4</ele><time>2011-04-26T04:41:30.0000000+00:00</time></trkpt><trkpt lat="22.045984" lon="103.963806"><ele>804.2</ele><time>2011-04-26T04:41:35.0000000+00:00</time></trkpt><trkpt lat="22.045853" lon="103.963875"><ele>803.6</ele><time>2011-04-26T04:41:40.0000000+00:00</time></trkpt><trkpt lat="22.045832" lon="103.96389"><ele>803.4</ele><time>2011-04-26T04:41:45.0000000+00:00</time></trkpt><trkpt lat="22.045832" lon="103.963882"><ele>802.6</ele><time>2011-04-26T04:41:50.0000000+00:00</time></trkpt><trkpt lat="22.045834" lon="103.963882"><ele>802.3</ele><time>2011-04-26T04:41:55.0000000+00:00</time></trkpt><trkpt lat="22.045832" lon="103.963882"><ele>802.2</ele><time>2011-04-26T04:42:00.0000000+00:00</time></trkpt><trkpt lat="22.045832" lon="103.96389"><ele>802.2</ele><time>2011-04-26T04:42:05.0000000+00:00</time></trkpt><trkpt lat="22.045834" lon="103.96389"><ele>802.2</ele><time>2011-04-26T04:42:10.0000000+00:00</time></trkpt><trkpt lat="22.045834" lon="103.96389"><ele>802.3</ele><time>2011-04-26T04:42:15.0000000+00:00</time></trkpt><trkpt lat="22.045834" lon="103.96389"><ele>802.3</ele><time>2011-04-26T04:42:20.0000000+00:00</time></trkpt><trkpt lat="22.045834" lon="103.96389"><ele>802.3</ele><time>2011-04-26T04:42:25.0000000+00:00</time></trkpt><trkpt lat="22.045834" lon="103.96389"><ele>802.4</ele><time>2011-04-26T04:42:30.0000000+00:00</time></trkpt><trkpt lat="22.045835" lon="103.96389"><ele>802.4</ele><time>2011-04-26T04:42:35.0000000+00:00</time></trkpt><trkpt lat="22.045839" lon="103.96389"><ele>802.4</ele><time>2011-04-26T04:42:40.0000000+00:00</time></trkpt><trkpt lat="22.045843" lon="103.96389"><ele>802.4</ele><time>2011-04-26T04:42:45.0000000+00:00</time></trkpt><trkpt lat="22.045841" lon="103.96389"><ele>802.4</ele><time>2011-04-26T04:42:50.0000000+00:00</time></trkpt><trkpt lat="22.045839" lon="103.96389"><ele>802.4</ele><time>2011-04-26T04:42:55.0000000+00:00</time></trkpt><trkpt lat="22.045837" lon="103.963898"><ele>802.5</ele><time>2011-04-26T04:43:00.0000000+00:00</time></trkpt><trkpt lat="22.045837" lon="103.963898"><ele>802.5</ele><time>2011-04-26T04:43:05.0000000+00:00</time></trkpt><trkpt lat="22.045837" lon="103.963898"><ele>802.5</ele><time>2011-04-26T04:43:10.0000000+00:00</time></trkpt><trkpt lat="22.045839" lon="103.963905"><ele>802.5</ele><time>2011-04-26T04:43:15.0000000+00:00</time></trkpt><trkpt lat="22.045837" lon="103.963898"><ele>802.5</ele><time>2011-04-26T04:43:20.0000000+00:00</time></trkpt><trkpt lat="22.045839" lon="103.963905"><ele>802.6</ele><time>2011-04-26T04:43:25.0000000+00:00</time></trkpt><trkpt lat="22.045837" lon="103.963905"><ele>802.6</ele><time>2011-04-26T04:43:30.0000000+00:00</time></trkpt><trkpt lat="22.045837" lon="103.963905"><ele>802.7</ele><time>2011-04-26T04:43:35.0000000+00:00</time></trkpt><trkpt lat="22.045839" lon="103.963905"><ele>802.7</ele><time>2011-04-26T04:43:40.0000000+00:00</time></trkpt><trkpt lat="22.045837" lon="103.963913"><ele>802.8</ele><time>2011-04-26T04:43:45.0000000+00:00</time></trkpt><trkpt lat="22.045835" lon="103.963905"><ele>802.8</ele><time>2011-04-26T04:43:50.0000000+00:00</time></trkpt><trkpt lat="22.045816" lon="103.963913"><ele>802.9</ele><time>2011-04-26T04:43:55.0000000+00:00</time></trkpt><trkpt lat="22.045809" lon="103.963913"><ele>802.9</ele><time>2011-04-26T04:44:00.0000000+00:00</time></trkpt><trkpt lat="22.045799" lon="103.963905"><ele>802.9</ele><time>2011-04-26T04:44:05.0000000+00:00</time></trkpt><trkpt lat="22.045792" lon="103.963898"><ele>803.0</ele><time>2011-04-26T04:44:10.0000000+00:00</time></trkpt><trkpt lat="22.045788" lon="103.963898"><ele>803.0</ele><time>2011-04-26T04:44:15.0000000+00:00</time></trkpt><trkpt lat="22.045786" lon="103.96389"><ele>803.0</ele><time>2011-04-26T04:44:20.0000000+00:00</time></trkpt><trkpt lat="22.045782" lon="103.96389"><ele>803.0</ele><time>2011-04-26T04:44:25.0000000+00:00</time></trkpt><trkpt lat="22.045778" lon="103.96389"><ele>803.0</ele><time>2011-04-26T04:44:30.0000000+00:00</time></trkpt><trkpt lat="22.045784" lon="103.96389"><ele>803.1</ele><time>2011-04-26T04:44:35.0000000+00:00</time></trkpt><trkpt lat="22.045784" lon="103.963898"><ele>803.2</ele><time>2011-04-26T04:44:40.0000000+00:00</time></trkpt><trkpt lat="22.045784" lon="103.963898"><ele>803.3</ele><time>2011-04-26T04:44:45.0000000+00:00</time></trkpt><trkpt lat="22.045786" lon="103.963898"><ele>803.5</ele><time>2011-04-26T04:44:50.0000000+00:00</time></trkpt><trkpt lat="22.045784" lon="103.963898"><ele>803.5</ele><time>2011-04-26T04:44:55.0000000+00:00</time></trkpt><trkpt lat="22.045778" lon="103.963905"><ele>803.6</ele><time>2011-04-26T04:45:00.0000000+00:00</time></trkpt><trkpt lat="22.045767" lon="103.963913"><ele>803.6</ele><time>2011-04-26T04:45:05.0000000+00:00</time></trkpt><trkpt lat="22.045681" lon="103.963974"><ele>803.6</ele><time>2011-04-26T04:45:10.0000000+00:00</time></trkpt><trkpt lat="22.045568" lon="103.964073"><ele>802.9</ele><time>2011-04-26T04:45:15.0000000+00:00</time></trkpt><trkpt lat="22.045456" lon="103.964119"><ele>801.7</ele><time>2011-04-26T04:45:20.0000000+00:00</time></trkpt><trkpt lat="22.045351" lon="103.964149"><ele>802.4</ele><time>2011-04-26T04:45:25.0000000+00:00</time></trkpt><trkpt lat="22.045237" lon="103.964226"><ele>803.3</ele><time>2011-04-26T04:45:30.0000000+00:00</time></trkpt><trkpt lat="22.045094" lon="103.964256"><ele>802.8</ele><time>2011-04-26T04:45:35.0000000+00:00</time></trkpt><trkpt lat="22.044947" lon="103.964302"><ele>803.8</ele><time>2011-04-26T04:45:40.0000000+00:00</time></trkpt><trkpt lat="22.044817" lon="103.964348"><ele>804.4</ele><time>2011-04-26T04:45:45.0000000+00:00</time></trkpt><trkpt lat="22.044683" lon="103.964378"><ele>804.2</ele><time>2011-04-26T04:45:50.0000000+00:00</time></trkpt><trkpt lat="22.044529" lon="103.964439"><ele>804.3</ele><time>2011-04-26T04:45:55.0000000+00:00</time></trkpt><trkpt lat="22.044447" lon="103.964478"><ele>805.1</ele><time>2011-04-26T04:46:00.0000000+00:00</time></trkpt><trkpt lat="22.044334" lon="103.9645"><ele>805.5</ele><time>2011-04-26T04:46:05.0000000+00:00</time></trkpt><trkpt lat="22.044191" lon="103.964485"><ele>805.9</ele><time>2011-04-26T04:46:10.0000000+00:00</time></trkpt><trkpt lat="22.044056" lon="103.964394"><ele>807.4</ele><time>2011-04-26T04:46:15.0000000+00:00</time></trkpt><trkpt lat="22.043972" lon="103.964119"><ele>807.0</ele><time>2011-04-26T04:46:20.0000000+00:00</time></trkpt><trkpt lat="22.043823" lon="103.963821"><ele>806.0</ele><time>2011-04-26T04:46:25.0000000+00:00</time></trkpt><trkpt lat="22.043552" lon="103.963699"><ele>805.4</ele><time>2011-04-26T04:46:30.0000000+00:00</time></trkpt><trkpt lat="22.043257" lon="103.963791"><ele>802.9</ele><time>2011-04-26T04:46:35.0000000+00:00</time></trkpt><trkpt lat="22.043026" lon="103.964043"><ele>801.2</ele><time>2011-04-26T04:46:40.0000000+00:00</time></trkpt><trkpt lat="22.042837" lon="103.964417"><ele>799.6</ele><time>2011-04-26T04:46:45.0000000+00:00</time></trkpt><trkpt lat="22.042572" lon="103.964745"><ele>796.0</ele><time>2011-04-26T04:46:50.0000000+00:00</time></trkpt><trkpt lat="22.042301" lon="103.964928"><ele>794.6</ele><time>2011-04-26T04:46:55.0000000+00:00</time></trkpt><trkpt lat="22.042091" lon="103.964867"><ele>791.4</ele><time>2011-04-26T04:47:00.0000000+00:00</time></trkpt><trkpt lat="22.041838" lon="103.964729"><ele>787.1</ele><time>2011-04-26T04:47:05.0000000+00:00</time></trkpt><trkpt lat="22.041557" lon="103.964546"><ele>783.9</ele><time>2011-04-26T04:47:10.0000000+00:00</time></trkpt><trkpt lat="22.041258" lon="103.96434"><ele>779.7</ele><time>2011-04-26T04:47:15.0000000+00:00</time></trkpt><trkpt lat="22.041014" lon="103.964134"><ele>777.6</ele><time>2011-04-26T04:47:20.0000000+00:00</time></trkpt><trkpt lat="22.040821" lon="103.963928"><ele>775.7</ele><time>2011-04-26T04:47:25.0000000+00:00</time></trkpt><trkpt lat="22.04055" lon="103.963814"><ele>777.0</ele><time>2011-04-26T04:47:30.0000000+00:00</time></trkpt><trkpt lat="22.040257" lon="103.963943"><ele>777.4</ele><time>2011-04-26T04:47:35.0000000+00:00</time></trkpt><trkpt lat="22.040131" lon="103.964142"><ele>778.8</ele><time>2011-04-26T04:47:40.0000000+00:00</time></trkpt><trkpt lat="22.040087" lon="103.964302"><ele>780.2</ele><time>2011-04-26T04:47:45.0000000+00:00</time></trkpt><trkpt lat="22.040071" lon="103.964485"><ele>779.5</ele><time>2011-04-26T04:47:50.0000000+00:00</time></trkpt><trkpt lat="22.040056" lon="103.964607"><ele>779.6</ele><time>2011-04-26T04:47:55.0000000+00:00</time></trkpt><trkpt lat="22.040037" lon="103.964844"><ele>780.4</ele><time>2011-04-26T04:48:00.0000000+00:00</time></trkpt><trkpt lat="22.039955" lon="103.965141"><ele>780.2</ele><time>2011-04-26T04:48:05.0000000+00:00</time></trkpt><trkpt lat="22.040089" lon="103.965446"><ele>784.9</ele><time>2011-04-26T04:48:10.0000000+00:00</time></trkpt><trkpt lat="22.040161" lon="103.965736"><ele>787.1</ele><time>2011-04-26T04:48:15.0000000+00:00</time></trkpt><trkpt lat="22.040195" lon="103.966057"><ele>789.2</ele><time>2011-04-26T04:48:20.0000000+00:00</time></trkpt><trkpt lat="22.040226" lon="103.966393"><ele>790.4</ele><time>2011-04-26T04:48:25.0000000+00:00</time></trkpt><trkpt lat="22.04027" lon="103.96669"><ele>790.2</ele><time>2011-04-26T04:48:30.0000000+00:00</time></trkpt><trkpt lat="22.040249" lon="103.96701"><ele>789.3</ele><time>2011-04-26T04:48:35.0000000+00:00</time></trkpt><trkpt lat="22.040203" lon="103.967354"><ele>788.8</ele><time>2011-04-26T04:48:40.0000000+00:00</time></trkpt><trkpt lat="22.040266" lon="103.967628"><ele>787.3</ele><time>2011-04-26T04:48:45.0000000+00:00</time></trkpt><trkpt lat="22.040348" lon="103.967758"><ele>785.2</ele><time>2011-04-26T04:48:50.0000000+00:00</time></trkpt><trkpt lat="22.040373" lon="103.967796"><ele>781.6</ele><time>2011-04-26T04:48:55.0000000+00:00</time></trkpt><trkpt lat="22.040398" lon="103.967796"><ele>780.6</ele><time>2011-04-26T04:49:00.0000000+00:00</time></trkpt><trkpt lat="22.0404" lon="103.967804"><ele>780.6</ele><time>2011-04-26T04:49:05.0000000+00:00</time></trkpt><trkpt lat="22.040398" lon="103.967804"><ele>780.6</ele><time>2011-04-26T04:49:10.0000000+00:00</time></trkpt><trkpt lat="22.040394" lon="103.967804"><ele>780.5</ele><time>2011-04-26T04:49:15.0000000+00:00</time></trkpt><trkpt lat="22.040394" lon="103.967804"><ele>780.5</ele><time>2011-04-26T04:49:20.0000000+00:00</time></trkpt><trkpt lat="22.040394" lon="103.967804"><ele>780.4</ele><time>2011-04-26T04:49:25.0000000+00:00</time></trkpt><trkpt lat="22.040396" lon="103.967804"><ele>780.3</ele><time>2011-04-26T04:49:30.0000000+00:00</time></trkpt><trkpt lat="22.040401" lon="103.967804"><ele>780.2</ele><time>2011-04-26T04:49:35.0000000+00:00</time></trkpt><trkpt lat="22.040403" lon="103.967804"><ele>780.0</ele><time>2011-04-26T04:49:40.0000000+00:00</time></trkpt><trkpt lat="22.040403" lon="103.967804"><ele>779.9</ele><time>2011-04-26T04:49:45.0000000+00:00</time></trkpt><trkpt lat="22.040405" lon="103.967812"><ele>779.8</ele><time>2011-04-26T04:49:50.0000000+00:00</time></trkpt><trkpt lat="22.040424" lon="103.967857"><ele>779.0</ele><time>2011-04-26T04:49:55.0000000+00:00</time></trkpt><trkpt lat="22.040445" lon="103.967903"><ele>777.7</ele><time>2011-04-26T04:50:00.0000000+00:00</time></trkpt><trkpt lat="22.040443" lon="103.967903"><ele>777.4</ele><time>2011-04-26T04:50:05.0000000+00:00</time></trkpt><trkpt lat="22.040442" lon="103.967903"><ele>777.2</ele><time>2011-04-26T04:50:10.0000000+00:00</time></trkpt><trkpt lat="22.040442" lon="103.967911"><ele>777.2</ele><time>2011-04-26T04:50:15.0000000+00:00</time></trkpt><trkpt lat="22.040438" lon="103.967911"><ele>777.8</ele><time>2011-04-26T04:50:20.0000000+00:00</time></trkpt><trkpt lat="22.040442" lon="103.967911"><ele>778.4</ele><time>2011-04-26T04:50:25.0000000+00:00</time></trkpt><trkpt lat="22.040459" lon="103.967957"><ele>778.8</ele><time>2011-04-26T04:50:30.0000000+00:00</time></trkpt><trkpt lat="22.04052" lon="103.96814"><ele>778.9</ele><time>2011-04-26T04:50:35.0000000+00:00</time></trkpt><trkpt lat="22.040583" lon="103.96833"><ele>778.5</ele><time>2011-04-26T04:50:40.0000000+00:00</time></trkpt><trkpt lat="22.040575" lon="103.968552"><ele>778.0</ele><time>2011-04-26T04:50:45.0000000+00:00</time></trkpt><trkpt lat="22.040535" lon="103.968796"><ele>777.8</ele><time>2011-04-26T04:50:50.0000000+00:00</time></trkpt><trkpt lat="22.040628" lon="103.96907"><ele>777.6</ele><time>2011-04-26T04:50:55.0000000+00:00</time></trkpt><trkpt lat="22.040777" lon="103.96933"><ele>777.3</ele><time>2011-04-26T04:51:00.0000000+00:00</time></trkpt><trkpt lat="22.040886" lon="103.969482"><ele>776.5</ele><time>2011-04-26T04:51:05.0000000+00:00</time></trkpt><trkpt lat="22.040895" lon="103.969513"><ele>776.0</ele><time>2011-04-26T04:51:10.0000000+00:00</time></trkpt><trkpt lat="22.040897" lon="103.969513"><ele>776.0</ele><time>2011-04-26T04:51:15.0000000+00:00</time></trkpt><trkpt lat="22.040903" lon="103.969505"><ele>776.0</ele><time>2011-04-26T04:51:20.0000000+00:00</time></trkpt><trkpt lat="22.040905" lon="103.969505"><ele>776.0</ele><time>2011-04-26T04:51:25.0000000+00:00</time></trkpt><trkpt lat="22.040905" lon="103.969513"><ele>775.9</ele><time>2011-04-26T04:51:30.0000000+00:00</time></trkpt><trkpt lat="22.040897" lon="103.969536"><ele>775.9</ele><time>2011-04-26T04:51:35.0000000+00:00</time></trkpt><trkpt lat="22.040909" lon="103.969566"><ele>774.4</ele><time>2011-04-26T04:51:40.0000000+00:00</time></trkpt><trkpt lat="22.040928" lon="103.969574"><ele>772.0</ele><time>2011-04-26T04:51:45.0000000+00:00</time></trkpt><trkpt lat="22.040934" lon="103.969574"><ele>771.8</ele><time>2011-04-26T04:51:50.0000000+00:00</time></trkpt><trkpt lat="22.040937" lon="103.969582"><ele>771.7</ele><time>2011-04-26T04:51:55.0000000+00:00</time></trkpt><trkpt lat="22.040945" lon="103.969589"><ele>771.6</ele><time>2011-04-26T04:52:00.0000000+00:00</time></trkpt><trkpt lat="22.040951" lon="103.969597"><ele>771.6</ele><time>2011-04-26T04:52:05.0000000+00:00</time></trkpt><trkpt lat="22.040958" lon="103.969597"><ele>771.5</ele><time>2011-04-26T04:52:10.0000000+00:00</time></trkpt><trkpt lat="22.04096" lon="103.969604"><ele>771.5</ele><time>2011-04-26T04:52:15.0000000+00:00</time></trkpt><trkpt lat="22.04096" lon="103.969612"><ele>771.4</ele><time>2011-04-26T04:52:20.0000000+00:00</time></trkpt><trkpt lat="22.040964" lon="103.969612"><ele>771.3</ele><time>2011-04-26T04:52:25.0000000+00:00</time></trkpt><trkpt lat="22.040968" lon="103.969612"><ele>771.3</ele><time>2011-04-26T04:52:30.0000000+00:00</time></trkpt><trkpt lat="22.040972" lon="103.969612"><ele>771.2</ele><time>2011-04-26T04:52:35.0000000+00:00</time></trkpt><trkpt lat="22.040977" lon="103.969612"><ele>771.0</ele><time>2011-04-26T04:52:40.0000000+00:00</time></trkpt><trkpt lat="22.040991" lon="103.969627"><ele>770.7</ele><time>2011-04-26T04:52:45.0000000+00:00</time></trkpt><trkpt lat="22.040991" lon="103.969643"><ele>769.6</ele><time>2011-04-26T04:52:50.0000000+00:00</time></trkpt><trkpt lat="22.040997" lon="103.96965"><ele>768.7</ele><time>2011-04-26T04:52:55.0000000+00:00</time></trkpt><trkpt lat="22.041002" lon="103.969666"><ele>768.0</ele><time>2011-04-26T04:53:00.0000000+00:00</time></trkpt><trkpt lat="22.041004" lon="103.969696"><ele>767.2</ele><time>2011-04-26T04:53:05.0000000+00:00</time></trkpt><trkpt lat="22.040995" lon="103.969719"><ele>766.4</ele><time>2011-04-26T04:53:10.0000000+00:00</time></trkpt><trkpt lat="22.040989" lon="103.969742"><ele>765.3</ele><time>2011-04-26T04:53:15.0000000+00:00</time></trkpt><trkpt lat="22.040976" lon="103.969742"><ele>764.4</ele><time>2011-04-26T04:53:20.0000000+00:00</time></trkpt><trkpt lat="22.040953" lon="103.969727"><ele>762.9</ele><time>2011-04-26T04:53:25.0000000+00:00</time></trkpt><trkpt lat="22.040936" lon="103.969711"><ele>761.3</ele><time>2011-04-26T04:53:30.0000000+00:00</time></trkpt><trkpt lat="22.040928" lon="103.969711"><ele>758.8</ele><time>2011-04-26T04:53:35.0000000+00:00</time></trkpt><trkpt lat="22.040924" lon="103.969704"><ele>757.7</ele><time>2011-04-26T04:53:40.0000000+00:00</time></trkpt><trkpt lat="22.040926" lon="103.969704"><ele>757.3</ele><time>2011-04-26T04:53:45.0000000+00:00</time></trkpt><trkpt lat="22.040932" lon="103.969711"><ele>756.9</ele><time>2011-04-26T04:53:50.0000000+00:00</time></trkpt><trkpt lat="22.040934" lon="103.969711"><ele>756.4</ele><time>2011-04-26T04:53:55.0000000+00:00</time></trkpt><trkpt lat="22.040937" lon="103.969719"><ele>755.9</ele><time>2011-04-26T04:54:00.0000000+00:00</time></trkpt><trkpt lat="22.040941" lon="103.969719"><ele>755.4</ele><time>2011-04-26T04:54:05.0000000+00:00</time></trkpt><trkpt lat="22.040947" lon="103.969727"><ele>754.9</ele><time>2011-04-26T04:54:10.0000000+00:00</time></trkpt><trkpt lat="22.040951" lon="103.969727"><ele>754.3</ele><time>2011-04-26T04:54:15.0000000+00:00</time></trkpt><trkpt lat="22.040953" lon="103.969727"><ele>753.8</ele><time>2011-04-26T04:54:20.0000000+00:00</time></trkpt><trkpt lat="22.040953" lon="103.969719"><ele>753.4</ele><time>2011-04-26T04:54:25.0000000+00:00</time></trkpt><trkpt lat="22.040953" lon="103.969719"><ele>752.9</ele><time>2011-04-26T04:54:30.0000000+00:00</time></trkpt><trkpt lat="22.040955" lon="103.969719"><ele>752.5</ele><time>2011-04-26T04:54:35.0000000+00:00</time></trkpt><trkpt lat="22.040956" lon="103.969719"><ele>752.0</ele><time>2011-04-26T04:54:40.0000000+00:00</time></trkpt><trkpt lat="22.04096" lon="103.969711"><ele>751.5</ele><time>2011-04-26T04:54:45.0000000+00:00</time></trkpt><trkpt lat="22.040968" lon="103.969711"><ele>751.0</ele><time>2011-04-26T04:54:50.0000000+00:00</time></trkpt><trkpt lat="22.040974" lon="103.969711"><ele>750.5</ele><time>2011-04-26T04:54:55.0000000+00:00</time></trkpt><trkpt lat="22.040977" lon="103.969711"><ele>750.1</ele><time>2011-04-26T04:55:00.0000000+00:00</time></trkpt><trkpt lat="22.040981" lon="103.969711"><ele>749.7</ele><time>2011-04-26T04:55:05.0000000+00:00</time></trkpt><trkpt lat="22.040985" lon="103.969719"><ele>749.3</ele><time>2011-04-26T04:55:10.0000000+00:00</time></trkpt><trkpt lat="22.040989" lon="103.969719"><ele>748.9</ele><time>2011-04-26T04:55:15.0000000+00:00</time></trkpt><trkpt lat="22.040995" lon="103.969727"><ele>748.6</ele><time>2011-04-26T04:55:20.0000000+00:00</time></trkpt><trkpt lat="22.040997" lon="103.969734"><ele>748.2</ele><time>2011-04-26T04:55:25.0000000+00:00</time></trkpt><trkpt lat="22.041" lon="103.969734"><ele>747.9</ele><time>2011-04-26T04:55:30.0000000+00:00</time></trkpt><trkpt lat="22.041002" lon="103.969734"><ele>747.5</ele><time>2011-04-26T04:55:35.0000000+00:00</time></trkpt><trkpt lat="22.041002" lon="103.969742"><ele>747.2</ele><time>2011-04-26T04:55:40.0000000+00:00</time></trkpt><trkpt lat="22.041" lon="103.969749"><ele>746.9</ele><time>2011-04-26T04:55:45.0000000+00:00</time></trkpt><trkpt lat="22.040995" lon="103.969887"><ele>746.9</ele><time>2011-04-26T04:55:50.0000000+00:00</time></trkpt><trkpt lat="22.040915" lon="103.970078"><ele>745.4</ele><time>2011-04-26T04:55:55.0000000+00:00</time></trkpt><trkpt lat="22.040739" lon="103.97036"><ele>745.2</ele><time>2011-04-26T04:56:00.0000000+00:00</time></trkpt><trkpt lat="22.040712" lon="103.970634"><ele>744.3</ele><time>2011-04-26T04:56:05.0000000+00:00</time></trkpt><trkpt lat="22.040739" lon="103.970909"><ele>742.6</ele><time>2011-04-26T04:56:10.0000000+00:00</time></trkpt><trkpt lat="22.040712" lon="103.971199"><ele>740.9</ele><time>2011-04-26T04:56:15.0000000+00:00</time></trkpt><trkpt lat="22.040581" lon="103.971542"><ele>738.6</ele><time>2011-04-26T04:56:20.0000000+00:00</time></trkpt><trkpt lat="22.040426" lon="103.97187"><ele>737.0</ele><time>2011-04-26T04:56:25.0000000+00:00</time></trkpt><trkpt lat="22.040293" lon="103.972168"><ele>735.3</ele><time>2011-04-26T04:56:30.0000000+00:00</time></trkpt><trkpt lat="22.040161" lon="103.972435"><ele>733.4</ele><time>2011-04-26T04:56:35.0000000+00:00</time></trkpt><trkpt lat="22.040005" lon="103.972633"><ele>731.2</ele><time>2011-04-26T04:56:40.0000000+00:00</time></trkpt><trkpt lat="22.039757" lon="103.972687"><ele>730.6</ele><time>2011-04-26T04:56:45.0000000+00:00</time></trkpt><trkpt lat="22.039524" lon="103.972443"><ele>727.9</ele><time>2011-04-26T04:56:50.0000000+00:00</time></trkpt><trkpt lat="22.039261" lon="103.97213"><ele>724.9</ele><time>2011-04-26T04:56:55.0000000+00:00</time></trkpt><trkpt lat="22.039009" lon="103.971848"><ele>721.3</ele><time>2011-04-26T04:57:00.0000000+00:00</time></trkpt><trkpt lat="22.038723" lon="103.971695"><ele>718.6</ele><time>2011-04-26T04:57:05.0000000+00:00</time></trkpt><trkpt lat="22.038429" lon="103.971779"><ele>715.4</ele><time>2011-04-26T04:57:10.0000000+00:00</time></trkpt><trkpt lat="22.038174" lon="103.97187"><ele>712.7</ele><time>2011-04-26T04:57:15.0000000+00:00</time></trkpt><trkpt lat="22.037893" lon="103.971848"><ele>709.7</ele><time>2011-04-26T04:57:20.0000000+00:00</time></trkpt><trkpt lat="22.03764" lon="103.971703"><ele>705.9</ele><time>2011-04-26T04:57:25.0000000+00:00</time></trkpt><trkpt lat="22.037355" lon="103.971466"><ele>702.0</ele><time>2011-04-26T04:57:30.0000000+00:00</time></trkpt><trkpt lat="22.037121" lon="103.971107"><ele>698.2</ele><time>2011-04-26T04:57:35.0000000+00:00</time></trkpt><trkpt lat="22.036928" lon="103.970802"><ele>694.8</ele><time>2011-04-26T04:57:40.0000000+00:00</time></trkpt><trkpt lat="22.036787" lon="103.970612"><ele>692.8</ele><time>2011-04-26T04:57:45.0000000+00:00</time></trkpt><trkpt lat="22.036629" lon="103.970512"><ele>689.2</ele><time>2011-04-26T04:57:50.0000000+00:00</time></trkpt><trkpt lat="22.036402" lon="103.970444"><ele>686.4</ele><time>2011-04-26T04:57:55.0000000+00:00</time></trkpt><trkpt lat="22.036272" lon="103.970482"><ele>682.1</ele><time>2011-04-26T04:58:00.0000000+00:00</time></trkpt><trkpt lat="22.036182" lon="103.970535"><ele>679.1</ele><time>2011-04-26T04:58:05.0000000+00:00</time></trkpt><trkpt lat="22.036104" lon="103.970619"><ele>676.4</ele><time>2011-04-26T04:58:10.0000000+00:00</time></trkpt><trkpt lat="22.036016" lon="103.970711"><ele>674.7</ele><time>2011-04-26T04:58:15.0000000+00:00</time></trkpt><trkpt lat="22.03594" lon="103.970795"><ele>672.8</ele><time>2011-04-26T04:58:20.0000000+00:00</time></trkpt><trkpt lat="22.035856" lon="103.970879"><ele>671.6</ele><time>2011-04-26T04:58:25.0000000+00:00</time></trkpt><trkpt lat="22.035784" lon="103.970985"><ele>670.0</ele><time>2011-04-26T04:58:30.0000000+00:00</time></trkpt><trkpt lat="22.035679" lon="103.971123"><ele>668.4</ele><time>2011-04-26T04:58:35.0000000+00:00</time></trkpt><trkpt lat="22.035616" lon="103.971382"><ele>666.5</ele><time>2011-04-26T04:58:40.0000000+00:00</time></trkpt><trkpt lat="22.035639" lon="103.971596"><ele>664.4</ele><time>2011-04-26T04:58:45.0000000+00:00</time></trkpt><trkpt lat="22.035763" lon="103.971771"><ele>662.4</ele><time>2011-04-26T04:58:50.0000000+00:00</time></trkpt><trkpt lat="22.0359" lon="103.971901"><ele>661.0</ele><time>2011-04-26T04:58:55.0000000+00:00</time></trkpt><trkpt lat="22.03598" lon="103.971962"><ele>658.7</ele><time>2011-04-26T04:59:00.0000000+00:00</time></trkpt><trkpt lat="22.036062" lon="103.972008"><ele>656.7</ele><time>2011-04-26T04:59:05.0000000+00:00</time></trkpt><trkpt lat="22.036171" lon="103.972061"><ele>655.2</ele><time>2011-04-26T04:59:10.0000000+00:00</time></trkpt><trkpt lat="22.036303" lon="103.972137"><ele>654.4</ele><time>2011-04-26T04:59:15.0000000+00:00</time></trkpt><trkpt lat="22.036444" lon="103.972229"><ele>653.4</ele><time>2011-04-26T04:59:20.0000000+00:00</time></trkpt><trkpt lat="22.036554" lon="103.972351"><ele>653.1</ele><time>2011-04-26T04:59:25.0000000+00:00</time></trkpt><trkpt lat="22.036694" lon="103.972527"><ele>652.1</ele><time>2011-04-26T04:59:30.0000000+00:00</time></trkpt><trkpt lat="22.036898" lon="103.972687"><ele>650.9</ele><time>2011-04-26T04:59:35.0000000+00:00</time></trkpt><trkpt lat="22.037058" lon="103.97287"><ele>649.7</ele><time>2011-04-26T04:59:40.0000000+00:00</time></trkpt><trkpt lat="22.037209" lon="103.973053"><ele>648.4</ele><time>2011-04-26T04:59:45.0000000+00:00</time></trkpt><trkpt lat="22.037331" lon="103.97319"><ele>647.8</ele><time>2011-04-26T04:59:50.0000000+00:00</time></trkpt><trkpt lat="22.037378" lon="103.973198"><ele>646.4</ele><time>2011-04-26T04:59:55.0000000+00:00</time></trkpt><trkpt lat="22.037472" lon="103.973259"><ele>645.9</ele><time>2011-04-26T05:00:00.0000000+00:00</time></trkpt><trkpt lat="22.037642" lon="103.973457"><ele>644.7</ele><time>2011-04-26T05:00:05.0000000+00:00</time></trkpt><trkpt lat="22.037909" lon="103.973755"><ele>643.4</ele><time>2011-04-26T05:00:10.0000000+00:00</time></trkpt><trkpt lat="22.03821" lon="103.974052"><ele>643.4</ele><time>2011-04-26T05:00:15.0000000+00:00</time></trkpt><trkpt lat="22.038483" lon="103.974358"><ele>643.0</ele><time>2011-04-26T05:00:20.0000000+00:00</time></trkpt><trkpt lat="22.038528" lon="103.974663"><ele>642.3</ele><time>2011-04-26T05:00:25.0000000+00:00</time></trkpt><trkpt lat="22.038445" lon="103.974991"><ele>641.4</ele><time>2011-04-26T05:00:30.0000000+00:00</time></trkpt><trkpt lat="22.038366" lon="103.975327"><ele>640.7</ele><time>2011-04-26T05:00:35.0000000+00:00</time></trkpt><trkpt lat="22.038439" lon="103.975647"><ele>640.1</ele><time>2011-04-26T05:00:40.0000000+00:00</time></trkpt><trkpt lat="22.038578" lon="103.97596"><ele>639.4</ele><time>2011-04-26T05:00:45.0000000+00:00</time></trkpt><trkpt lat="22.038755" lon="103.976311"><ele>638.7</ele><time>2011-04-26T05:00:50.0000000+00:00</time></trkpt><trkpt lat="22.03898" lon="103.976677"><ele>638.1</ele><time>2011-04-26T05:00:55.0000000+00:00</time></trkpt><trkpt lat="22.039165" lon="103.977058"><ele>637.7</ele><time>2011-04-26T05:01:00.0000000+00:00</time></trkpt><trkpt lat="22.039091" lon="103.977432"><ele>637.7</ele><time>2011-04-26T05:01:05.0000000+00:00</time></trkpt><trkpt lat="22.038891" lon="103.977844"><ele>637.4</ele><time>2011-04-26T05:01:10.0000000+00:00</time></trkpt><trkpt lat="22.038986" lon="103.97831"><ele>637.5</ele><time>2011-04-26T05:01:15.0000000+00:00</time></trkpt><trkpt lat="22.039316" lon="103.97863"><ele>637.4</ele><time>2011-04-26T05:01:20.0000000+00:00</time></trkpt><trkpt lat="22.039476" lon="103.978798"><ele>638.1</ele><time>2011-04-26T05:01:25.0000000+00:00</time></trkpt><trkpt lat="22.039564" lon="103.978874"><ele>638.8</ele><time>2011-04-26T05:01:30.0000000+00:00</time></trkpt><trkpt lat="22.039661" lon="103.978996"><ele>639.3</ele><time>2011-04-26T05:01:35.0000000+00:00</time></trkpt><trkpt lat="22.039742" lon="103.979111"><ele>639.4</ele><time>2011-04-26T05:01:40.0000000+00:00</time></trkpt><trkpt lat="22.039764" lon="103.979233"><ele>639.8</ele><time>2011-04-26T05:01:45.0000000+00:00</time></trkpt><trkpt lat="22.039761" lon="103.979385"><ele>639.9</ele><time>2011-04-26T05:01:50.0000000+00:00</time></trkpt><trkpt lat="22.039698" lon="103.979591"><ele>639.9</ele><time>2011-04-26T05:01:55.0000000+00:00</time></trkpt><trkpt lat="22.039635" lon="103.979927"><ele>639.7</ele><time>2011-04-26T05:02:00.0000000+00:00</time></trkpt><trkpt lat="22.039328" lon="103.980179"><ele>640.0</ele><time>2011-04-26T05:02:05.0000000+00:00</time></trkpt><trkpt lat="22.039114" lon="103.980499"><ele>639.1</ele><time>2011-04-26T05:02:10.0000000+00:00</time></trkpt><trkpt lat="22.039135" lon="103.980804"><ele>638.8</ele><time>2011-04-26T05:02:15.0000000+00:00</time></trkpt><trkpt lat="22.03915" lon="103.980949"><ele>638.9</ele><time>2011-04-26T05:02:20.0000000+00:00</time></trkpt><trkpt lat="22.039183" lon="103.981033"><ele>639.7</ele><time>2011-04-26T05:02:25.0000000+00:00</time></trkpt><trkpt lat="22.039286" lon="103.981133"><ele>640.8</ele><time>2011-04-26T05:02:30.0000000+00:00</time></trkpt><trkpt lat="22.039398" lon="103.981232"><ele>641.5</ele><time>2011-04-26T05:02:35.0000000+00:00</time></trkpt><trkpt lat="22.039503" lon="103.981361"><ele>641.2</ele><time>2011-04-26T05:02:40.0000000+00:00</time></trkpt><trkpt lat="22.039574" lon="103.981461"><ele>641.2</ele><time>2011-04-26T05:02:45.0000000+00:00</time></trkpt><trkpt lat="22.039663" lon="103.981537"><ele>641.2</ele><time>2011-04-26T05:02:50.0000000+00:00</time></trkpt><trkpt lat="22.039759" lon="103.981628"><ele>641.5</ele><time>2011-04-26T05:02:55.0000000+00:00</time></trkpt><trkpt lat="22.039814" lon="103.981659"><ele>641.8</ele><time>2011-04-26T05:03:00.0000000+00:00</time></trkpt><trkpt lat="22.039841" lon="103.981758"><ele>642.4</ele><time>2011-04-26T05:03:05.0000000+00:00</time></trkpt><trkpt lat="22.039791" lon="103.981834"><ele>642.6</ele><time>2011-04-26T05:03:10.0000000+00:00</time></trkpt><trkpt lat="22.039709" lon="103.981926"><ele>643.1</ele><time>2011-04-26T05:03:15.0000000+00:00</time></trkpt><trkpt lat="22.039625" lon="103.982002"><ele>642.9</ele><time>2011-04-26T05:03:20.0000000+00:00</time></trkpt><trkpt lat="22.039539" lon="103.982101"><ele>643.7</ele><time>2011-04-26T05:03:25.0000000+00:00</time></trkpt><trkpt lat="22.039457" lon="103.982193"><ele>644.1</ele><time>2011-04-26T05:03:30.0000000+00:00</time></trkpt><trkpt lat="22.039358" lon="103.982292"><ele>644.7</ele><time>2011-04-26T05:03:35.0000000+00:00</time></trkpt><trkpt lat="22.039265" lon="103.982422"><ele>645.4</ele><time>2011-04-26T05:03:40.0000000+00:00</time></trkpt><trkpt lat="22.039206" lon="103.982544"><ele>646.0</ele><time>2011-04-26T05:03:45.0000000+00:00</time></trkpt><trkpt lat="22.039162" lon="103.982742"><ele>647.0</ele><time>2011-04-26T05:03:50.0000000+00:00</time></trkpt><trkpt lat="22.039165" lon="103.982903"><ele>648.6</ele><time>2011-04-26T05:03:55.0000000+00:00</time></trkpt><trkpt lat="22.039165" lon="103.983055"><ele>649.8</ele><time>2011-04-26T05:04:00.0000000+00:00</time></trkpt><trkpt lat="22.03919" lon="103.983231"><ele>650.4</ele><time>2011-04-26T05:04:05.0000000+00:00</time></trkpt><trkpt lat="22.039227" lon="103.983383"><ele>650.9</ele><time>2011-04-26T05:04:10.0000000+00:00</time></trkpt><trkpt lat="22.039307" lon="103.983559"><ele>650.7</ele><time>2011-04-26T05:04:15.0000000+00:00</time></trkpt><trkpt lat="22.039392" lon="103.983734"><ele>650.7</ele><time>2011-04-26T05:04:20.0000000+00:00</time></trkpt><trkpt lat="22.039392" lon="103.983925"><ele>651.5</ele><time>2011-04-26T05:04:25.0000000+00:00</time></trkpt><trkpt lat="22.039362" lon="103.9841"><ele>653.0</ele><time>2011-04-26T05:04:30.0000000+00:00</time></trkpt><trkpt lat="22.039354" lon="103.98436"><ele>653.8</ele><time>2011-04-26T05:04:35.0000000+00:00</time></trkpt><trkpt lat="22.039381" lon="103.984619"><ele>655.4</ele><time>2011-04-26T05:04:40.0000000+00:00</time></trkpt><trkpt lat="22.039486" lon="103.98484"><ele>656.5</ele><time>2011-04-26T05:04:45.0000000+00:00</time></trkpt><trkpt lat="22.039389" lon="103.985023"><ele>656.9</ele><time>2011-04-26T05:04:50.0000000+00:00</time></trkpt><trkpt lat="22.039352" lon="103.985237"><ele>656.1</ele><time>2011-04-26T05:04:55.0000000+00:00</time></trkpt><trkpt lat="22.039505" lon="103.985474"><ele>655.7</ele><time>2011-04-26T05:05:00.0000000+00:00</time></trkpt><trkpt lat="22.039658" lon="103.985672"><ele>653.2</ele><time>2011-04-26T05:05:05.0000000+00:00</time></trkpt><trkpt lat="22.039722" lon="103.985825"><ele>650.2</ele><time>2011-04-26T05:05:10.0000000+00:00</time></trkpt><trkpt lat="22.03974" lon="103.986015"><ele>647.2</ele><time>2011-04-26T05:05:15.0000000+00:00</time></trkpt><trkpt lat="22.039719" lon="103.98632"><ele>647.4</ele><time>2011-04-26T05:05:20.0000000+00:00</time></trkpt><trkpt lat="22.039865" lon="103.98658"><ele>647.0</ele><time>2011-04-26T05:05:25.0000000+00:00</time></trkpt><trkpt lat="22.040115" lon="103.986755"><ele>644.5</ele><time>2011-04-26T05:05:30.0000000+00:00</time></trkpt><trkpt lat="22.040272" lon="103.986992"><ele>643.1</ele><time>2011-04-26T05:05:35.0000000+00:00</time></trkpt><trkpt lat="22.040314" lon="103.987228"><ele>640.0</ele><time>2011-04-26T05:05:40.0000000+00:00</time></trkpt><trkpt lat="22.040329" lon="103.987343"><ele>635.7</ele><time>2011-04-26T05:05:45.0000000+00:00</time></trkpt><trkpt lat="22.040346" lon="103.987343"><ele>635.2</ele><time>2011-04-26T05:05:50.0000000+00:00</time></trkpt><trkpt lat="22.040346" lon="103.987343"><ele>635.0</ele><time>2011-04-26T05:05:55.0000000+00:00</time></trkpt><trkpt lat="22.040344" lon="103.987343"><ele>634.9</ele><time>2011-04-26T05:06:00.0000000+00:00</time></trkpt><trkpt lat="22.040348" lon="103.98735"><ele>634.8</ele><time>2011-04-26T05:06:05.0000000+00:00</time></trkpt><trkpt lat="22.040352" lon="103.98735"><ele>634.8</ele><time>2011-04-26T05:06:10.0000000+00:00</time></trkpt><trkpt lat="22.040354" lon="103.98735"><ele>634.8</ele><time>2011-04-26T05:06:15.0000000+00:00</time></trkpt><trkpt lat="22.040361" lon="103.987358"><ele>634.8</ele><time>2011-04-26T05:06:20.0000000+00:00</time></trkpt><trkpt lat="22.040365" lon="103.987358"><ele>634.9</ele><time>2011-04-26T05:06:25.0000000+00:00</time></trkpt><trkpt lat="22.040367" lon="103.987366"><ele>634.9</ele><time>2011-04-26T05:06:30.0000000+00:00</time></trkpt><trkpt lat="22.040365" lon="103.987381"><ele>634.9</ele><time>2011-04-26T05:06:35.0000000+00:00</time></trkpt><trkpt lat="22.040348" lon="103.987518"><ele>634.8</ele><time>2011-04-26T05:06:40.0000000+00:00</time></trkpt><trkpt lat="22.040323" lon="103.987755"><ele>634.5</ele><time>2011-04-26T05:06:45.0000000+00:00</time></trkpt><trkpt lat="22.040352" lon="103.987991"><ele>633.4</ele><time>2011-04-26T05:06:50.0000000+00:00</time></trkpt><trkpt lat="22.040428" lon="103.98819"><ele>632.1</ele><time>2011-04-26T05:06:55.0000000+00:00</time></trkpt><trkpt lat="22.040539" lon="103.988472"><ele>629.6</ele><time>2011-04-26T05:07:00.0000000+00:00</time></trkpt><trkpt lat="22.040546" lon="103.988785"><ele>625.9</ele><time>2011-04-26T05:07:05.0000000+00:00</time></trkpt><trkpt lat="22.040533" lon="103.989014"><ele>620.0</ele><time>2011-04-26T05:07:10.0000000+00:00</time></trkpt><trkpt lat="22.04043" lon="103.989082"><ele>614.5</ele><time>2011-04-26T05:07:15.0000000+00:00</time></trkpt><trkpt lat="22.040432" lon="103.98909"><ele>609.0</ele><time>2011-04-26T05:07:20.0000000+00:00</time></trkpt><trkpt lat="22.040438" lon="103.989044"><ele>605.5</ele><time>2011-04-26T05:07:25.0000000+00:00</time></trkpt><trkpt lat="22.040432" lon="103.989029"><ele>603.0</ele><time>2011-04-26T05:07:30.0000000+00:00</time></trkpt><trkpt lat="22.040432" lon="103.989021"><ele>601.1</ele><time>2011-04-26T05:07:35.0000000+00:00</time></trkpt><trkpt lat="22.040434" lon="103.989014"><ele>601.0</ele><time>2011-04-26T05:07:40.0000000+00:00</time></trkpt><trkpt lat="22.040432" lon="103.989021"><ele>600.9</ele><time>2011-04-26T05:07:45.0000000+00:00</time></trkpt><trkpt lat="22.04043" lon="103.989029"><ele>600.9</ele><time>2011-04-26T05:07:50.0000000+00:00</time></trkpt><trkpt lat="22.040424" lon="103.989037"><ele>600.8</ele><time>2011-04-26T05:07:55.0000000+00:00</time></trkpt><trkpt lat="22.040413" lon="103.989037"><ele>600.8</ele><time>2011-04-26T05:08:00.0000000+00:00</time></trkpt><trkpt lat="22.040411" lon="103.989044"><ele>600.8</ele><time>2011-04-26T05:08:05.0000000+00:00</time></trkpt><trkpt lat="22.040409" lon="103.989052"><ele>600.8</ele><time>2011-04-26T05:08:10.0000000+00:00</time></trkpt><trkpt lat="22.040407" lon="103.989059"><ele>600.8</ele><time>2011-04-26T05:08:15.0000000+00:00</time></trkpt><trkpt lat="22.0404" lon="103.989067"><ele>600.8</ele><time>2011-04-26T05:08:20.0000000+00:00</time></trkpt><trkpt lat="22.040304" lon="103.989098"><ele>600.5</ele><time>2011-04-26T05:08:25.0000000+00:00</time></trkpt><trkpt lat="22.040104" lon="103.989128"><ele>597.9</ele><time>2011-04-26T05:08:30.0000000+00:00</time></trkpt><trkpt lat="22.039934" lon="103.989128"><ele>594.5</ele><time>2011-04-26T05:08:35.0000000+00:00</time></trkpt><trkpt lat="22.039799" lon="103.989128"><ele>592.3</ele><time>2011-04-26T05:08:40.0000000+00:00</time></trkpt><trkpt lat="22.039728" lon="103.989159"><ele>588.0</ele><time>2011-04-26T05:08:45.0000000+00:00</time></trkpt><trkpt lat="22.039732" lon="103.989136"><ele>585.1</ele><time>2011-04-26T05:08:50.0000000+00:00</time></trkpt><trkpt lat="22.039728" lon="103.989136"><ele>584.2</ele><time>2011-04-26T05:08:55.0000000+00:00</time></trkpt><trkpt lat="22.039726" lon="103.989136"><ele>583.9</ele><time>2011-04-26T05:09:00.0000000+00:00</time></trkpt><trkpt lat="22.039722" lon="103.989128"><ele>583.8</ele><time>2011-04-26T05:09:05.0000000+00:00</time></trkpt><trkpt lat="22.039717" lon="103.989128"><ele>583.7</ele><time>2011-04-26T05:09:10.0000000+00:00</time></trkpt><trkpt lat="22.039711" lon="103.989128"><ele>583.7</ele><time>2011-04-26T05:09:15.0000000+00:00</time></trkpt><trkpt lat="22.039703" lon="103.98912"><ele>583.7</ele><time>2011-04-26T05:09:20.0000000+00:00</time></trkpt><trkpt lat="22.03969" lon="103.989128"><ele>583.7</ele><time>2011-04-26T05:09:25.0000000+00:00</time></trkpt><trkpt lat="22.039684" lon="103.989128"><ele>583.8</ele><time>2011-04-26T05:09:30.0000000+00:00</time></trkpt><trkpt lat="22.03969" lon="103.989128"><ele>583.7</ele><time>2011-04-26T05:09:35.0000000+00:00</time></trkpt><trkpt lat="22.039698" lon="103.989128"><ele>583.7</ele><time>2011-04-26T05:09:40.0000000+00:00</time></trkpt><trkpt lat="22.039703" lon="103.98912"><ele>583.6</ele><time>2011-04-26T05:09:45.0000000+00:00</time></trkpt><trkpt lat="22.039701" lon="103.98912"><ele>583.6</ele><time>2011-04-26T05:09:50.0000000+00:00</time></trkpt><trkpt lat="22.0397" lon="103.98912"><ele>583.6</ele><time>2011-04-26T05:09:55.0000000+00:00</time></trkpt><trkpt lat="22.039701" lon="103.989113"><ele>583.6</ele><time>2011-04-26T05:10:00.0000000+00:00</time></trkpt><trkpt lat="22.039703" lon="103.989113"><ele>583.7</ele><time>2011-04-26T05:10:05.0000000+00:00</time></trkpt><trkpt lat="22.039703" lon="103.989113"><ele>583.7</ele><time>2011-04-26T05:10:10.0000000+00:00</time></trkpt><trkpt lat="22.039707" lon="103.989105"><ele>583.7</ele><time>2011-04-26T05:10:15.0000000+00:00</time></trkpt><trkpt lat="22.039711" lon="103.98909"><ele>583.8</ele><time>2011-04-26T05:10:20.0000000+00:00</time></trkpt><trkpt lat="22.039717" lon="103.989082"><ele>583.8</ele><time>2011-04-26T05:10:25.0000000+00:00</time></trkpt><trkpt lat="22.039717" lon="103.989067"><ele>583.9</ele><time>2011-04-26T05:10:30.0000000+00:00</time></trkpt><trkpt lat="22.039717" lon="103.989059"><ele>583.9</ele><time>2011-04-26T05:10:35.0000000+00:00</time></trkpt><trkpt lat="22.039719" lon="103.989044"><ele>584.0</ele><time>2011-04-26T05:10:40.0000000+00:00</time></trkpt><trkpt lat="22.039721" lon="103.989037"><ele>584.0</ele><time>2011-04-26T05:10:45.0000000+00:00</time></trkpt><trkpt lat="22.039719" lon="103.989044"><ele>584.1</ele><time>2011-04-26T05:10:50.0000000+00:00</time></trkpt><trkpt lat="22.039722" lon="103.989052"><ele>584.1</ele><time>2011-04-26T05:10:55.0000000+00:00</time></trkpt><trkpt lat="22.039724" lon="103.989052"><ele>584.1</ele><time>2011-04-26T05:11:00.0000000+00:00</time></trkpt><trkpt lat="22.039728" lon="103.989052"><ele>584.1</ele><time>2011-04-26T05:11:05.0000000+00:00</time></trkpt><trkpt lat="22.03973" lon="103.989059"><ele>584.1</ele><time>2011-04-26T05:11:10.0000000+00:00</time></trkpt><trkpt lat="22.039728" lon="103.989059"><ele>584.0</ele><time>2011-04-26T05:11:15.0000000+00:00</time></trkpt><trkpt lat="22.039728" lon="103.989067"><ele>583.9</ele><time>2011-04-26T05:11:20.0000000+00:00</time></trkpt><trkpt lat="22.039734" lon="103.989067"><ele>583.8</ele><time>2011-04-26T05:11:25.0000000+00:00</time></trkpt><trkpt lat="22.039736" lon="103.989075"><ele>583.8</ele><time>2011-04-26T05:11:30.0000000+00:00</time></trkpt><trkpt lat="22.039736" lon="103.989075"><ele>583.7</ele><time>2011-04-26T05:11:35.0000000+00:00</time></trkpt><trkpt lat="22.039734" lon="103.989067"><ele>583.7</ele><time>2011-04-26T05:11:40.0000000+00:00</time></trkpt><trkpt lat="22.039736" lon="103.989067"><ele>583.8</ele><time>2011-04-26T05:11:45.0000000+00:00</time></trkpt><trkpt lat="22.039745" lon="103.989059"><ele>583.9</ele><time>2011-04-26T05:11:50.0000000+00:00</time></trkpt><trkpt lat="22.039732" lon="103.989044"><ele>584.0</ele><time>2011-04-26T05:11:55.0000000+00:00</time></trkpt><trkpt lat="22.039598" lon="103.989037"><ele>584.9</ele><time>2011-04-26T05:12:00.0000000+00:00</time></trkpt><trkpt lat="22.039371" lon="103.989014"><ele>585.1</ele><time>2011-04-26T05:12:05.0000000+00:00</time></trkpt><trkpt lat="22.03911" lon="103.989082"><ele>584.3</ele><time>2011-04-26T05:12:10.0000000+00:00</time></trkpt><trkpt lat="22.038847" lon="103.989212"><ele>583.8</ele><time>2011-04-26T05:12:15.0000000+00:00</time></trkpt><trkpt lat="22.038597" lon="103.989334"><ele>583.5</ele><time>2011-04-26T05:12:20.0000000+00:00</time></trkpt><trkpt lat="22.038317" lon="103.989365"><ele>583.1</ele><time>2011-04-26T05:12:25.0000000+00:00</time></trkpt><trkpt lat="22.038143" lon="103.989204"><ele>582.2</ele><time>2011-04-26T05:12:30.0000000+00:00</time></trkpt><trkpt lat="22.037928" lon="103.989098"><ele>581.7</ele><time>2011-04-26T05:12:35.0000000+00:00</time></trkpt><trkpt lat="22.03772" lon="103.989059"><ele>580.9</ele><time>2011-04-26T05:12:40.0000000+00:00</time></trkpt><trkpt lat="22.037506" lon="103.988998"><ele>580.1</ele><time>2011-04-26T05:12:45.0000000+00:00</time></trkpt><trkpt lat="22.03731" lon="103.988899"><ele>579.0</ele><time>2011-04-26T05:12:50.0000000+00:00</time></trkpt><trkpt lat="22.037106" lon="103.988831"><ele>575.8</ele><time>2011-04-26T05:12:55.0000000+00:00</time></trkpt><trkpt lat="22.037128" lon="103.989021"><ele>573.9</ele><time>2011-04-26T05:13:00.0000000+00:00</time></trkpt><trkpt lat="22.037218" lon="103.989197"><ele>571.5</ele><time>2011-04-26T05:13:05.0000000+00:00</time></trkpt><trkpt lat="22.037394" lon="103.989372"><ele>569.8</ele><time>2011-04-26T05:13:10.0000000+00:00</time></trkpt><trkpt lat="22.037527" lon="103.989487"><ele>568.7</ele><time>2011-04-26T05:13:15.0000000+00:00</time></trkpt><trkpt lat="22.037592" lon="103.989616"><ele>568.2</ele><time>2011-04-26T05:13:20.0000000+00:00</time></trkpt><trkpt lat="22.037615" lon="103.989746"><ele>568.5</ele><time>2011-04-26T05:13:25.0000000+00:00</time></trkpt><trkpt lat="22.037663" lon="103.989807"><ele>569.1</ele><time>2011-04-26T05:13:30.0000000+00:00</time></trkpt><trkpt lat="22.037643" lon="103.989838"><ele>569.6</ele><time>2011-04-26T05:13:35.0000000+00:00</time></trkpt><trkpt lat="22.037739" lon="103.989883"><ele>570.0</ele><time>2011-04-26T05:13:40.0000000+00:00</time></trkpt><trkpt lat="22.037834" lon="103.990059"><ele>571.0</ele><time>2011-04-26T05:13:45.0000000+00:00</time></trkpt><trkpt lat="22.037916" lon="103.990379"><ele>571.3</ele><time>2011-04-26T05:13:50.0000000+00:00</time></trkpt><trkpt lat="22.038034" lon="103.990562"><ele>572.0</ele><time>2011-04-26T05:13:55.0000000+00:00</time></trkpt><trkpt lat="22.038052" lon="103.990723"><ele>571.2</ele><time>2011-04-26T05:14:00.0000000+00:00</time></trkpt><trkpt lat="22.038067" lon="103.99073"><ele>571.3</ele><time>2011-04-26T05:14:05.0000000+00:00</time></trkpt><trkpt lat="22.038069" lon="103.990738"><ele>571.6</ele><time>2011-04-26T05:14:10.0000000+00:00</time></trkpt><trkpt lat="22.038071" lon="103.990746"><ele>571.5</ele><time>2011-04-26T05:14:15.0000000+00:00</time></trkpt><trkpt lat="22.038073" lon="103.990746"><ele>571.6</ele><time>2011-04-26T05:14:20.0000000+00:00</time></trkpt><trkpt lat="22.038073" lon="103.990746"><ele>571.6</ele><time>2011-04-26T05:14:25.0000000+00:00</time></trkpt><trkpt lat="22.038074" lon="103.990746"><ele>571.6</ele><time>2011-04-26T05:14:30.0000000+00:00</time></trkpt><trkpt lat="22.038074" lon="103.990746"><ele>571.7</ele><time>2011-04-26T05:14:35.0000000+00:00</time></trkpt><trkpt lat="22.038073" lon="103.990746"><ele>571.8</ele><time>2011-04-26T05:14:40.0000000+00:00</time></trkpt><trkpt lat="22.038071" lon="103.990746"><ele>572.0</ele><time>2011-04-26T05:14:45.0000000+00:00</time></trkpt><trkpt lat="22.038069" lon="103.990746"><ele>572.1</ele><time>2011-04-26T05:14:50.0000000+00:00</time></trkpt><trkpt lat="22.038071" lon="103.990746"><ele>572.3</ele><time>2011-04-26T05:14:55.0000000+00:00</time></trkpt><trkpt lat="22.038069" lon="103.990738"><ele>572.4</ele><time>2011-04-26T05:15:00.0000000+00:00</time></trkpt><trkpt lat="22.038069" lon="103.990738"><ele>572.5</ele><time>2011-04-26T05:15:05.0000000+00:00</time></trkpt><trkpt lat="22.038071" lon="103.990738"><ele>572.7</ele><time>2011-04-26T05:15:10.0000000+00:00</time></trkpt><trkpt lat="22.038076" lon="103.990753"><ele>572.9</ele><time>2011-04-26T05:15:15.0000000+00:00</time></trkpt><trkpt lat="22.038073" lon="103.990753"><ele>573.1</ele><time>2011-04-26T05:15:20.0000000+00:00</time></trkpt><trkpt lat="22.038067" lon="103.990761"><ele>573.4</ele><time>2011-04-26T05:15:25.0000000+00:00</time></trkpt><trkpt lat="22.038082" lon="103.990799"><ele>573.7</ele><time>2011-04-26T05:15:30.0000000+00:00</time></trkpt><trkpt lat="22.038088" lon="103.990814"><ele>574.1</ele><time>2011-04-26T05:15:35.0000000+00:00</time></trkpt><trkpt lat="22.038084" lon="103.990814"><ele>574.3</ele><time>2011-04-26T05:15:40.0000000+00:00</time></trkpt><trkpt lat="22.03809" lon="103.990807"><ele>574.4</ele><time>2011-04-26T05:15:45.0000000+00:00</time></trkpt><trkpt lat="22.038073" lon="103.990814"><ele>574.6</ele><time>2011-04-26T05:15:50.0000000+00:00</time></trkpt><trkpt lat="22.038069" lon="103.990822"><ele>574.7</ele><time>2011-04-26T05:15:55.0000000+00:00</time></trkpt><trkpt lat="22.038065" lon="103.990822"><ele>574.9</ele><time>2011-04-26T05:16:00.0000000+00:00</time></trkpt><trkpt lat="22.038057" lon="103.990822"><ele>575.0</ele><time>2011-04-26T05:16:05.0000000+00:00</time></trkpt><trkpt lat="22.038048" lon="103.990822"><ele>575.2</ele><time>2011-04-26T05:16:10.0000000+00:00</time></trkpt><trkpt lat="22.038034" lon="103.990814"><ele>575.3</ele><time>2011-04-26T05:16:15.0000000+00:00</time></trkpt><trkpt lat="22.038023" lon="103.990814"><ele>575.5</ele><time>2011-04-26T05:16:20.0000000+00:00</time></trkpt><trkpt lat="22.03801" lon="103.990807"><ele>575.6</ele><time>2011-04-26T05:16:25.0000000+00:00</time></trkpt><trkpt lat="22.038" lon="103.990807"><ele>575.8</ele><time>2011-04-26T05:16:30.0000000+00:00</time></trkpt><trkpt lat="22.038004" lon="103.990807"><ele>575.9</ele><time>2011-04-26T05:16:35.0000000+00:00</time></trkpt><trkpt lat="22.038013" lon="103.990807"><ele>576.1</ele><time>2011-04-26T05:16:40.0000000+00:00</time></trkpt><trkpt lat="22.038017" lon="103.990799"><ele>576.2</ele><time>2011-04-26T05:16:45.0000000+00:00</time></trkpt><trkpt lat="22.038021" lon="103.990791"><ele>576.4</ele><time>2011-04-26T05:16:50.0000000+00:00</time></trkpt><trkpt lat="22.038025" lon="103.990784"><ele>576.5</ele><time>2011-04-26T05:16:55.0000000+00:00</time></trkpt><trkpt lat="22.038034" lon="103.990776"><ele>576.7</ele><time>2011-04-26T05:17:00.0000000+00:00</time></trkpt><trkpt lat="22.03805" lon="103.990776"><ele>576.7</ele><time>2011-04-26T05:17:05.0000000+00:00</time></trkpt><trkpt lat="22.038057" lon="103.990761"><ele>576.9</ele><time>2011-04-26T05:17:10.0000000+00:00</time></trkpt><trkpt lat="22.038069" lon="103.990753"><ele>577.0</ele><time>2011-04-26T05:17:15.0000000+00:00</time></trkpt><trkpt lat="22.038097" lon="103.990753"><ele>577.1</ele><time>2011-04-26T05:17:20.0000000+00:00</time></trkpt><trkpt lat="22.038126" lon="103.990723"><ele>577.3</ele><time>2011-04-26T05:17:25.0000000+00:00</time></trkpt><trkpt lat="22.038155" lon="103.99073"><ele>577.5</ele><time>2011-04-26T05:17:30.0000000+00:00</time></trkpt><trkpt lat="22.038145" lon="103.990753"><ele>577.6</ele><time>2011-04-26T05:17:35.0000000+00:00</time></trkpt><trkpt lat="22.038137" lon="103.990768"><ele>577.9</ele><time>2011-04-26T05:17:40.0000000+00:00</time></trkpt><trkpt lat="22.038145" lon="103.990776"><ele>578.0</ele><time>2011-04-26T05:17:45.0000000+00:00</time></trkpt><trkpt lat="22.038149" lon="103.990784"><ele>578.2</ele><time>2011-04-26T05:17:50.0000000+00:00</time></trkpt><trkpt lat="22.038151" lon="103.990799"><ele>578.3</ele><time>2011-04-26T05:17:55.0000000+00:00</time></trkpt><trkpt lat="22.038149" lon="103.990807"><ele>578.5</ele><time>2011-04-26T05:18:00.0000000+00:00</time></trkpt><trkpt lat="22.038149" lon="103.990822"><ele>578.7</ele><time>2011-04-26T05:18:05.0000000+00:00</time></trkpt><trkpt lat="22.038151" lon="103.990829"><ele>578.8</ele><time>2011-04-26T05:18:10.0000000+00:00</time></trkpt><trkpt lat="22.038153" lon="103.990837"><ele>579.0</ele><time>2011-04-26T05:18:15.0000000+00:00</time></trkpt><trkpt lat="22.038143" lon="103.990829"><ele>579.1</ele><time>2011-04-26T05:18:20.0000000+00:00</time></trkpt><trkpt lat="22.03808" lon="103.990799"><ele>579.5</ele><time>2011-04-26T05:18:25.0000000+00:00</time></trkpt><trkpt lat="22.038065" lon="103.990791"><ele>580.0</ele><time>2011-04-26T05:18:30.0000000+00:00</time></trkpt><trkpt lat="22.038054" lon="103.990807"><ele>580.3</ele><time>2011-04-26T05:18:35.0000000+00:00</time></trkpt><trkpt lat="22.037994" lon="103.990898"><ele>580.6</ele><time>2011-04-26T05:18:40.0000000+00:00</time></trkpt><trkpt lat="22.03788" lon="103.990997"><ele>580.8</ele><time>2011-04-26T05:18:45.0000000+00:00</time></trkpt><trkpt lat="22.037733" lon="103.991165"><ele>581.4</ele><time>2011-04-26T05:18:50.0000000+00:00</time></trkpt><trkpt lat="22.037539" lon="103.991394"><ele>581.8</ele><time>2011-04-26T05:18:55.0000000+00:00</time></trkpt><trkpt lat="22.037394" lon="103.991623"><ele>581.6</ele><time>2011-04-26T05:19:00.0000000+00:00</time></trkpt><trkpt lat="22.037313" lon="103.991867"><ele>581.4</ele><time>2011-04-26T05:19:05.0000000+00:00</time></trkpt><trkpt lat="22.037169" lon="103.992172"><ele>580.3</ele><time>2011-04-26T05:19:10.0000000+00:00</time></trkpt><trkpt lat="22.036844" lon="103.99234"><ele>580.2</ele><time>2011-04-26T05:19:15.0000000+00:00</time></trkpt><trkpt lat="22.036596" lon="103.992538"><ele>578.3</ele><time>2011-04-26T05:19:20.0000000+00:00</time></trkpt><trkpt lat="22.036644" lon="103.992882"><ele>578.8</ele><time>2011-04-26T05:19:25.0000000+00:00</time></trkpt><trkpt lat="22.036846" lon="103.993027"><ele>579.2</ele><time>2011-04-26T05:19:30.0000000+00:00</time></trkpt><trkpt lat="22.036934" lon="103.993149"><ele>580.3</ele><time>2011-04-26T05:19:35.0000000+00:00</time></trkpt><trkpt lat="22.037064" lon="103.993217"><ele>581.1</ele><time>2011-04-26T05:19:40.0000000+00:00</time></trkpt><trkpt lat="22.037174" lon="103.993286"><ele>582.7</ele><time>2011-04-26T05:19:45.0000000+00:00</time></trkpt><trkpt lat="22.037281" lon="103.99334"><ele>584.2</ele><time>2011-04-26T05:19:50.0000000+00:00</time></trkpt><trkpt lat="22.037386" lon="103.993378"><ele>585.6</ele><time>2011-04-26T05:19:55.0000000+00:00</time></trkpt><trkpt lat="22.037497" lon="103.993408"><ele>587.2</ele><time>2011-04-26T05:20:00.0000000+00:00</time></trkpt><trkpt lat="22.037643" lon="103.993477"><ele>589.0</ele><time>2011-04-26T05:20:05.0000000+00:00</time></trkpt><trkpt lat="22.037773" lon="103.993523"><ele>590.5</ele><time>2011-04-26T05:20:10.0000000+00:00</time></trkpt><trkpt lat="22.037952" lon="103.993599"><ele>592.1</ele><time>2011-04-26T05:20:15.0000000+00:00</time></trkpt><trkpt lat="22.038061" lon="103.993607"><ele>593.7</ele><time>2011-04-26T05:20:20.0000000+00:00</time></trkpt><trkpt lat="22.038277" lon="103.99369"><ele>592.8</ele><time>2011-04-26T05:20:25.0000000+00:00</time></trkpt><trkpt lat="22.038412" lon="103.99382"><ele>593.1</ele><time>2011-04-26T05:20:30.0000000+00:00</time></trkpt><trkpt lat="22.038559" lon="103.99411"><ele>589.7</ele><time>2011-04-26T05:20:35.0000000+00:00</time></trkpt><trkpt lat="22.038771" lon="103.99437"><ele>586.6</ele><time>2011-04-26T05:20:40.0000000+00:00</time></trkpt><trkpt lat="22.039066" lon="103.994591"><ele>583.9</ele><time>2011-04-26T05:20:45.0000000+00:00</time></trkpt><trkpt lat="22.039316" lon="103.994789"><ele>582.5</ele><time>2011-04-26T05:20:50.0000000+00:00</time></trkpt><trkpt lat="22.03949" lon="103.994949"><ele>581.6</ele><time>2011-04-26T05:20:55.0000000+00:00</time></trkpt><trkpt lat="22.039627" lon="103.995041"><ele>580.9</ele><time>2011-04-26T05:21:00.0000000+00:00</time></trkpt><trkpt lat="22.039749" lon="103.995155"><ele>580.0</ele><time>2011-04-26T05:21:05.0000000+00:00</time></trkpt><trkpt lat="22.039846" lon="103.9953"><ele>578.4</ele><time>2011-04-26T05:21:10.0000000+00:00</time></trkpt><trkpt lat="22.039888" lon="103.995514"><ele>576.0</ele><time>2011-04-26T05:21:15.0000000+00:00</time></trkpt><trkpt lat="22.039879" lon="103.995743"><ele>574.8</ele><time>2011-04-26T05:21:20.0000000+00:00</time></trkpt><trkpt lat="22.039761" lon="103.99601"><ele>573.2</ele><time>2011-04-26T05:21:25.0000000+00:00</time></trkpt><trkpt lat="22.039604" lon="103.996391"><ele>571.6</ele><time>2011-04-26T05:21:30.0000000+00:00</time></trkpt><trkpt lat="22.039585" lon="103.996826"><ele>570.4</ele><time>2011-04-26T05:21:35.0000000+00:00</time></trkpt><trkpt lat="22.039513" lon="103.997223"><ele>569.5</ele><time>2011-04-26T05:21:40.0000000+00:00</time></trkpt><trkpt lat="22.039345" lon="103.99762"><ele>568.3</ele><time>2011-04-26T05:21:45.0000000+00:00</time></trkpt><trkpt lat="22.039139" lon="103.997978"><ele>567.5</ele><time>2011-04-26T05:21:50.0000000+00:00</time></trkpt><trkpt lat="22.039007" lon="103.998192"><ele>566.4</ele><time>2011-04-26T05:21:55.0000000+00:00</time></trkpt><trkpt lat="22.038877" lon="103.998344"><ele>566.5</ele><time>2011-04-26T05:22:00.0000000+00:00</time></trkpt><trkpt lat="22.038721" lon="103.998543"><ele>566.9</ele><time>2011-04-26T05:22:05.0000000+00:00</time></trkpt><trkpt lat="22.038521" lon="103.998772"><ele>566.9</ele><time>2011-04-26T05:22:10.0000000+00:00</time></trkpt><trkpt lat="22.038296" lon="103.999008"><ele>567.1</ele><time>2011-04-26T05:22:15.0000000+00:00</time></trkpt><trkpt lat="22.037975" lon="103.999321"><ele>567.1</ele><time>2011-04-26T05:22:20.0000000+00:00</time></trkpt><trkpt lat="22.037661" lon="103.999664"><ele>567.2</ele><time>2011-04-26T05:22:25.0000000+00:00</time></trkpt><trkpt lat="22.037399" lon="104.000153"><ele>566.7</ele><time>2011-04-26T05:22:30.0000000+00:00</time></trkpt><trkpt lat="22.037315" lon="104.000656"><ele>567.0</ele><time>2011-04-26T05:22:35.0000000+00:00</time></trkpt><trkpt lat="22.037312" lon="104.001106"><ele>566.4</ele><time>2011-04-26T05:22:40.0000000+00:00</time></trkpt><trkpt lat="22.037386" lon="104.001434"><ele>564.9</ele><time>2011-04-26T05:22:45.0000000+00:00</time></trkpt><trkpt lat="22.037436" lon="104.001686"><ele>564.6</ele><time>2011-04-26T05:22:50.0000000+00:00</time></trkpt><trkpt lat="22.03742" lon="104.001854"><ele>564.8</ele><time>2011-04-26T05:22:55.0000000+00:00</time></trkpt><trkpt lat="22.037363" lon="104.00193"><ele>565.2</ele><time>2011-04-26T05:23:00.0000000+00:00</time></trkpt><trkpt lat="22.037281" lon="104.001976"><ele>566.1</ele><time>2011-04-26T05:23:05.0000000+00:00</time></trkpt><trkpt lat="22.03718" lon="104.002022"><ele>567.1</ele><time>2011-04-26T05:23:10.0000000+00:00</time></trkpt><trkpt lat="22.037035" lon="104.002014"><ele>567.8</ele><time>2011-04-26T05:23:15.0000000+00:00</time></trkpt><trkpt lat="22.036949" lon="104.002029"><ele>568.8</ele><time>2011-04-26T05:23:20.0000000+00:00</time></trkpt><trkpt lat="22.03688" lon="104.002068"><ele>570.1</ele><time>2011-04-26T05:23:25.0000000+00:00</time></trkpt><trkpt lat="22.036867" lon="104.002068"><ele>571.7</ele><time>2011-04-26T05:23:30.0000000+00:00</time></trkpt><trkpt lat="22.036842" lon="104.002068"><ele>572.9</ele><time>2011-04-26T05:23:35.0000000+00:00</time></trkpt><trkpt lat="22.036802" lon="104.002083"><ele>574.1</ele><time>2011-04-26T05:23:40.0000000+00:00</time></trkpt><trkpt lat="22.036802" lon="104.002144"><ele>575.5</ele><time>2011-04-26T05:23:45.0000000+00:00</time></trkpt><trkpt lat="22.036835" lon="104.002182"><ele>576.4</ele><time>2011-04-26T05:23:50.0000000+00:00</time></trkpt><trkpt lat="22.036823" lon="104.002213"><ele>576.6</ele><time>2011-04-26T05:23:55.0000000+00:00</time></trkpt><trkpt lat="22.036856" lon="104.00222"><ele>575.6</ele><time>2011-04-26T05:24:00.0000000+00:00</time></trkpt><trkpt lat="22.036852" lon="104.002228"><ele>575.5</ele><time>2011-04-26T05:24:05.0000000+00:00</time></trkpt><trkpt lat="22.036873" lon="104.002182"><ele>575.2</ele><time>2011-04-26T05:24:10.0000000+00:00</time></trkpt><trkpt lat="22.036898" lon="104.002113"><ele>574.7</ele><time>2011-04-26T05:24:15.0000000+00:00</time></trkpt><trkpt lat="22.03697" lon="104.002007"><ele>573.4</ele><time>2011-04-26T05:24:20.0000000+00:00</time></trkpt><trkpt lat="22.03693" lon="104.002014"><ele>571.8</ele><time>2011-04-26T05:24:25.0000000+00:00</time></trkpt><trkpt lat="22.036854" lon="104.002022"><ele>571.6</ele><time>2011-04-26T05:24:30.0000000+00:00</time></trkpt><trkpt lat="22.036722" lon="104.002029"><ele>570.0</ele><time>2011-04-26T05:24:35.0000000+00:00</time></trkpt><trkpt lat="22.036648" lon="104.001991"><ele>569.4</ele><time>2011-04-26T05:24:40.0000000+00:00</time></trkpt><trkpt lat="22.036648" lon="104.001991"><ele>569.1</ele><time>2011-04-26T05:24:45.0000000+00:00</time></trkpt><trkpt lat="22.036629" lon="104.002014"><ele>568.5</ele><time>2011-04-26T05:24:50.0000000+00:00</time></trkpt><trkpt lat="22.036587" lon="104.001999"><ele>568.6</ele><time>2011-04-26T05:24:55.0000000+00:00</time></trkpt><trkpt lat="22.036579" lon="104.001991"><ele>566.2</ele><time>2011-04-26T05:25:00.0000000+00:00</time></trkpt><trkpt lat="22.036591" lon="104.002014"><ele>562.9</ele><time>2011-04-26T05:25:05.0000000+00:00</time></trkpt><trkpt lat="22.036592" lon="104.002029"><ele>562.6</ele><time>2011-04-26T05:25:10.0000000+00:00</time></trkpt><trkpt lat="22.036615" lon="104.002052"><ele>561.2</ele><time>2011-04-26T05:25:15.0000000+00:00</time></trkpt><trkpt lat="22.036644" lon="104.002106"><ele>559.8</ele><time>2011-04-26T05:25:20.0000000+00:00</time></trkpt><trkpt lat="22.036625" lon="104.002106"><ele>559.4</ele><time>2011-04-26T05:25:25.0000000+00:00</time></trkpt><trkpt lat="22.036581" lon="104.002083"><ele>559.1</ele><time>2011-04-26T05:25:30.0000000+00:00</time></trkpt><trkpt lat="22.036583" lon="104.002083"><ele>559.1</ele><time>2011-04-26T05:25:35.0000000+00:00</time></trkpt><trkpt lat="22.036587" lon="104.002083"><ele>559.1</ele><time>2011-04-26T05:25:40.0000000+00:00</time></trkpt><trkpt lat="22.036585" lon="104.00209"><ele>559.0</ele><time>2011-04-26T05:25:45.0000000+00:00</time></trkpt><trkpt lat="22.036585" lon="104.00209"><ele>559.1</ele><time>2011-04-26T05:25:50.0000000+00:00</time></trkpt><trkpt lat="22.036598" lon="104.002098"><ele>559.1</ele><time>2011-04-26T05:25:55.0000000+00:00</time></trkpt><trkpt lat="22.036615" lon="104.002106"><ele>559.1</ele><time>2011-04-26T05:26:00.0000000+00:00</time></trkpt><trkpt lat="22.036631" lon="104.002106"><ele>559.0</ele><time>2011-04-26T05:26:05.0000000+00:00</time></trkpt><trkpt lat="22.036684" lon="104.002151"><ele>558.4</ele><time>2011-04-26T05:26:10.0000000+00:00</time></trkpt><trkpt lat="22.036646" lon="104.00209"><ele>558.5</ele><time>2011-04-26T05:26:15.0000000+00:00</time></trkpt><trkpt lat="22.036602" lon="104.002052"><ele>558.5</ele><time>2011-04-26T05:26:20.0000000+00:00</time></trkpt><trkpt lat="22.036592" lon="104.002029"><ele>558.6</ele><time>2011-04-26T05:26:25.0000000+00:00</time></trkpt><trkpt lat="22.0366" lon="104.002037"><ele>558.6</ele><time>2011-04-26T05:26:30.0000000+00:00</time></trkpt><trkpt lat="22.036598" lon="104.002045"><ele>558.6</ele><time>2011-04-26T05:26:35.0000000+00:00</time></trkpt><trkpt lat="22.036617" lon="104.002083"><ele>558.7</ele><time>2011-04-26T05:26:40.0000000+00:00</time></trkpt><trkpt lat="22.036707" lon="104.002182"><ele>559.1</ele><time>2011-04-26T05:26:45.0000000+00:00</time></trkpt><trkpt lat="22.036808" lon="104.002274"><ele>558.8</ele><time>2011-04-26T05:26:50.0000000+00:00</time></trkpt><trkpt lat="22.036879" lon="104.002327"><ele>557.9</ele><time>2011-04-26T05:26:55.0000000+00:00</time></trkpt><trkpt lat="22.036911" lon="104.002373"><ele>557.3</ele><time>2011-04-26T05:27:00.0000000+00:00</time></trkpt><trkpt lat="22.036928" lon="104.002411"><ele>556.8</ele><time>2011-04-26T05:27:05.0000000+00:00</time></trkpt><trkpt lat="22.036922" lon="104.002373"><ele>556.4</ele><time>2011-04-26T05:27:10.0000000+00:00</time></trkpt><trkpt lat="22.036909" lon="104.002365"><ele>556.4</ele><time>2011-04-26T05:27:15.0000000+00:00</time></trkpt><trkpt lat="22.036926" lon="104.00235"><ele>555.0</ele><time>2011-04-26T05:27:20.0000000+00:00</time></trkpt><trkpt lat="22.036924" lon="104.002357"><ele>554.9</ele><time>2011-04-26T05:27:25.0000000+00:00</time></trkpt><trkpt lat="22.03693" lon="104.002365"><ele>554.8</ele><time>2011-04-26T05:27:30.0000000+00:00</time></trkpt><trkpt lat="22.03694" lon="104.002403"><ele>554.0</ele><time>2011-04-26T05:27:35.0000000+00:00</time></trkpt><trkpt lat="22.036936" lon="104.002388"><ele>552.5</ele><time>2011-04-26T05:27:40.0000000+00:00</time></trkpt><trkpt lat="22.036898" lon="104.002365"><ele>552.2</ele><time>2011-04-26T05:27:45.0000000+00:00</time></trkpt><trkpt lat="22.036894" lon="104.002365"><ele>552.1</ele><time>2011-04-26T05:27:50.0000000+00:00</time></trkpt><trkpt lat="22.036886" lon="104.002357"><ele>552.1</ele><time>2011-04-26T05:27:55.0000000+00:00</time></trkpt><trkpt lat="22.036884" lon="104.002365"><ele>552.1</ele><time>2011-04-26T05:28:00.0000000+00:00</time></trkpt><trkpt lat="22.036877" lon="104.002365"><ele>552.1</ele><time>2011-04-26T05:28:05.0000000+00:00</time></trkpt><trkpt lat="22.036835" lon="104.002327"><ele>551.6</ele><time>2011-04-26T05:28:10.0000000+00:00</time></trkpt><trkpt lat="22.036732" lon="104.002197"><ele>551.0</ele><time>2011-04-26T05:28:15.0000000+00:00</time></trkpt><trkpt lat="22.036648" lon="104.002121"><ele>550.7</ele><time>2011-04-26T05:28:20.0000000+00:00</time></trkpt><trkpt lat="22.036604" lon="104.002068"><ele>550.5</ele><time>2011-04-26T05:28:25.0000000+00:00</time></trkpt><trkpt lat="22.036516" lon="104.001976"><ele>551.1</ele><time>2011-04-26T05:28:30.0000000+00:00</time></trkpt><trkpt lat="22.036469" lon="104.001915"><ele>551.6</ele><time>2011-04-26T05:28:35.0000000+00:00</time></trkpt><trkpt lat="22.036446" lon="104.0019"><ele>551.0</ele><time>2011-04-26T05:28:40.0000000+00:00</time></trkpt><trkpt lat="22.036472" lon="104.001892"><ele>551.1</ele><time>2011-04-26T05:28:45.0000000+00:00</time></trkpt><trkpt lat="22.036497" lon="104.001915"><ele>550.9</ele><time>2011-04-26T05:28:50.0000000+00:00</time></trkpt><trkpt lat="22.036507" lon="104.00193"><ele>550.7</ele><time>2011-04-26T05:28:55.0000000+00:00</time></trkpt><trkpt lat="22.036516" lon="104.001945"><ele>551.1</ele><time>2011-04-26T05:29:00.0000000+00:00</time></trkpt><trkpt lat="22.036516" lon="104.001945"><ele>551.1</ele><time>2011-04-26T05:29:05.0000000+00:00</time></trkpt><trkpt lat="22.03653" lon="104.001976"><ele>550.9</ele><time>2011-04-26T05:29:10.0000000+00:00</time></trkpt><trkpt lat="22.036547" lon="104.002014"><ele>550.5</ele><time>2011-04-26T05:29:15.0000000+00:00</time></trkpt><trkpt lat="22.036554" lon="104.002029"><ele>550.3</ele><time>2011-04-26T05:29:20.0000000+00:00</time></trkpt><trkpt lat="22.036572" lon="104.002045"><ele>549.8</ele><time>2011-04-26T05:29:25.0000000+00:00</time></trkpt><trkpt lat="22.036568" lon="104.00206"><ele>549.1</ele><time>2011-04-26T05:29:30.0000000+00:00</time></trkpt><trkpt lat="22.036572" lon="104.00206"><ele>549.6</ele><time>2011-04-26T05:29:35.0000000+00:00</time></trkpt><trkpt lat="22.036587" lon="104.002075"><ele>549.9</ele><time>2011-04-26T05:29:40.0000000+00:00</time></trkpt><trkpt lat="22.036549" lon="104.00209"><ele>549.9</ele><time>2011-04-26T05:29:45.0000000+00:00</time></trkpt><trkpt lat="22.036539" lon="104.002083"><ele>550.0</ele><time>2011-04-26T05:29:50.0000000+00:00</time></trkpt><trkpt lat="22.036503" lon="104.002052"><ele>550.2</ele><time>2011-04-26T05:29:55.0000000+00:00</time></trkpt><trkpt lat="22.036396" lon="104.001991"><ele>550.5</ele><time>2011-04-26T05:30:00.0000000+00:00</time></trkpt><trkpt lat="22.036388" lon="104.001976"><ele>550.6</ele><time>2011-04-26T05:30:05.0000000+00:00</time></trkpt><trkpt lat="22.036446" lon="104.002007"><ele>550.5</ele><time>2011-04-26T05:30:10.0000000+00:00</time></trkpt><trkpt lat="22.036476" lon="104.002029"><ele>550.1</ele><time>2011-04-26T05:30:15.0000000+00:00</time></trkpt><trkpt lat="22.036518" lon="104.002052"><ele>550.1</ele><time>2011-04-26T05:30:20.0000000+00:00</time></trkpt><trkpt lat="22.036505" lon="104.002029"><ele>549.9</ele><time>2011-04-26T05:30:25.0000000+00:00</time></trkpt><trkpt lat="22.036482" lon="104.002007"><ele>550.6</ele><time>2011-04-26T05:30:30.0000000+00:00</time></trkpt><trkpt lat="22.036484" lon="104.002007"><ele>550.6</ele><time>2011-04-26T05:30:35.0000000+00:00</time></trkpt><trkpt lat="22.036491" lon="104.002014"><ele>550.7</ele><time>2011-04-26T05:30:40.0000000+00:00</time></trkpt><trkpt lat="22.036495" lon="104.002014"><ele>550.7</ele><time>2011-04-26T05:30:45.0000000+00:00</time></trkpt><trkpt lat="22.036491" lon="104.002014"><ele>550.7</ele><time>2011-04-26T05:30:50.0000000+00:00</time></trkpt><trkpt lat="22.036476" lon="104.002007"><ele>551.1</ele><time>2011-04-26T05:30:55.0000000+00:00</time></trkpt><trkpt lat="22.036482" lon="104.002014"><ele>551.1</ele><time>2011-04-26T05:31:00.0000000+00:00</time></trkpt><trkpt lat="22.036493" lon="104.002029"><ele>551.1</ele><time>2011-04-26T05:31:05.0000000+00:00</time></trkpt><trkpt lat="22.03652" lon="104.002052"><ele>551.4</ele><time>2011-04-26T05:31:10.0000000+00:00</time></trkpt><trkpt lat="22.036547" lon="104.002075"><ele>551.6</ele><time>2011-04-26T05:31:15.0000000+00:00</time></trkpt><trkpt lat="22.036585" lon="104.002121"><ele>551.8</ele><time>2011-04-26T05:31:20.0000000+00:00</time></trkpt><trkpt lat="22.036709" lon="104.002197"><ele>550.5</ele><time>2011-04-26T05:31:25.0000000+00:00</time></trkpt><trkpt lat="22.036745" lon="104.002235"><ele>550.1</ele><time>2011-04-26T05:31:30.0000000+00:00</time></trkpt><trkpt lat="22.036751" lon="104.002251"><ele>549.7</ele><time>2011-04-26T05:31:35.0000000+00:00</time></trkpt><trkpt lat="22.036722" lon="104.00222"><ele>549.6</ele><time>2011-04-26T05:31:40.0000000+00:00</time></trkpt><trkpt lat="22.036684" lon="104.002182"><ele>549.4</ele><time>2011-04-26T05:31:45.0000000+00:00</time></trkpt><trkpt lat="22.036631" lon="104.002151"><ele>548.5</ele><time>2011-04-26T05:31:50.0000000+00:00</time></trkpt><trkpt lat="22.036648" lon="104.002174"><ele>548.1</ele><time>2011-04-26T05:31:55.0000000+00:00</time></trkpt><trkpt lat="22.036661" lon="104.00219"><ele>548.1</ele><time>2011-04-26T05:32:00.0000000+00:00</time></trkpt><trkpt lat="22.036686" lon="104.00222"><ele>548.0</ele><time>2011-04-26T05:32:05.0000000+00:00</time></trkpt><trkpt lat="22.036762" lon="104.002296"><ele>548.8</ele><time>2011-04-26T05:32:10.0000000+00:00</time></trkpt><trkpt lat="22.036823" lon="104.00235"><ele>548.8</ele><time>2011-04-26T05:32:15.0000000+00:00</time></trkpt><trkpt lat="22.03685" lon="104.002388"><ele>549.0</ele><time>2011-04-26T05:32:20.0000000+00:00</time></trkpt><trkpt lat="22.036869" lon="104.002426"><ele>549.2</ele><time>2011-04-26T05:32:25.0000000+00:00</time></trkpt><trkpt lat="22.036913" lon="104.002487"><ele>549.4</ele><time>2011-04-26T05:32:30.0000000+00:00</time></trkpt><trkpt lat="22.036974" lon="104.002563"><ele>548.9</ele><time>2011-04-26T05:32:35.0000000+00:00</time></trkpt><trkpt lat="22.036993" lon="104.002563"><ele>548.7</ele><time>2011-04-26T05:32:40.0000000+00:00</time></trkpt><trkpt lat="22.036985" lon="104.002502"><ele>549.2</ele><time>2011-04-26T05:32:45.0000000+00:00</time></trkpt><trkpt lat="22.036966" lon="104.00248"><ele>549.2</ele><time>2011-04-26T05:32:50.0000000+00:00</time></trkpt><trkpt lat="22.036837" lon="104.002373"><ele>549.3</ele><time>2011-04-26T05:32:55.0000000+00:00</time></trkpt><trkpt lat="22.036802" lon="104.002319"><ele>549.4</ele><time>2011-04-26T05:33:00.0000000+00:00</time></trkpt><trkpt lat="22.036703" lon="104.002213"><ele>548.8</ele><time>2011-04-26T05:33:05.0000000+00:00</time></trkpt><trkpt lat="22.036644" lon="104.002129"><ele>548.8</ele><time>2011-04-26T05:33:10.0000000+00:00</time></trkpt><trkpt lat="22.036617" lon="104.00209"><ele>548.6</ele><time>2011-04-26T05:33:15.0000000+00:00</time></trkpt><trkpt lat="22.036604" lon="104.002075"><ele>548.5</ele><time>2011-04-26T05:33:20.0000000+00:00</time></trkpt><trkpt lat="22.036598" lon="104.002068"><ele>548.3</ele><time>2011-04-26T05:33:25.0000000+00:00</time></trkpt><trkpt lat="22.036583" lon="104.00206"><ele>548.2</ele><time>2011-04-26T05:33:30.0000000+00:00</time></trkpt><trkpt lat="22.036552" lon="104.002029"><ele>548.2</ele><time>2011-04-26T05:33:35.0000000+00:00</time></trkpt><trkpt lat="22.036526" lon="104.002014"><ele>548.3</ele><time>2011-04-26T05:33:40.0000000+00:00</time></trkpt><trkpt lat="22.03651" lon="104.002083"><ele>548.4</ele><time>2011-04-26T05:33:45.0000000+00:00</time></trkpt><trkpt lat="22.036549" lon="104.002144"><ele>548.5</ele><time>2011-04-26T05:33:50.0000000+00:00</time></trkpt><trkpt lat="22.036591" lon="104.002136"><ele>548.4</ele><time>2011-04-26T05:33:55.0000000+00:00</time></trkpt><trkpt lat="22.036634" lon="104.002136"><ele>548.3</ele><time>2011-04-26T05:34:00.0000000+00:00</time></trkpt><trkpt lat="22.036699" lon="104.002182"><ele>548.1</ele><time>2011-04-26T05:34:05.0000000+00:00</time></trkpt><trkpt lat="22.03677" lon="104.002251"><ele>548.1</ele><time>2011-04-26T05:34:10.0000000+00:00</time></trkpt><trkpt lat="22.036814" lon="104.002281"><ele>548.1</ele><time>2011-04-26T05:34:15.0000000+00:00</time></trkpt><trkpt lat="22.036833" lon="104.002289"><ele>548.2</ele><time>2011-04-26T05:34:20.0000000+00:00</time></trkpt><trkpt lat="22.036724" lon="104.002167"><ele>548.2</ele><time>2011-04-26T05:34:25.0000000+00:00</time></trkpt><trkpt lat="22.03669" lon="104.002113"><ele>548.2</ele><time>2011-04-26T05:34:30.0000000+00:00</time></trkpt><trkpt lat="22.036646" lon="104.002068"><ele>548.3</ele><time>2011-04-26T05:34:35.0000000+00:00</time></trkpt><trkpt lat="22.036631" lon="104.002022"><ele>548.2</ele><time>2011-04-26T05:34:40.0000000+00:00</time></trkpt><trkpt lat="22.036749" lon="104.002144"><ele>548.1</ele><time>2011-04-26T05:34:45.0000000+00:00</time></trkpt><trkpt lat="22.036743" lon="104.002197"><ele>548.6</ele><time>2011-04-26T05:34:50.0000000+00:00</time></trkpt><trkpt lat="22.036734" lon="104.002167"><ele>548.5</ele><time>2011-04-26T05:34:55.0000000+00:00</time></trkpt><trkpt lat="22.036736" lon="104.002174"><ele>548.6</ele><time>2011-04-26T05:35:00.0000000+00:00</time></trkpt><trkpt lat="22.036684" lon="104.002113"><ele>548.6</ele><time>2011-04-26T05:35:05.0000000+00:00</time></trkpt><trkpt lat="22.036699" lon="104.002136"><ele>548.4</ele><time>2011-04-26T05:35:10.0000000+00:00</time></trkpt><trkpt lat="22.036697" lon="104.002129"><ele>548.3</ele><time>2011-04-26T05:35:15.0000000+00:00</time></trkpt><trkpt lat="22.036621" lon="104.002052"><ele>548.1</ele><time>2011-04-26T05:35:20.0000000+00:00</time></trkpt><trkpt lat="22.036583" lon="104.002014"><ele>547.9</ele><time>2011-04-26T05:35:25.0000000+00:00</time></trkpt><trkpt lat="22.03657" lon="104.001991"><ele>547.7</ele><time>2011-04-26T05:35:30.0000000+00:00</time></trkpt><trkpt lat="22.036551" lon="104.001976"><ele>547.7</ele><time>2011-04-26T05:35:35.0000000+00:00</time></trkpt><trkpt lat="22.036604" lon="104.002029"><ele>547.8</ele><time>2011-04-26T05:35:40.0000000+00:00</time></trkpt><trkpt lat="22.036648" lon="104.002106"><ele>547.6</ele><time>2011-04-26T05:35:45.0000000+00:00</time></trkpt><trkpt lat="22.036692" lon="104.002136"><ele>547.6</ele><time>2011-04-26T05:35:50.0000000+00:00</time></trkpt><trkpt lat="22.036692" lon="104.002136"><ele>547.7</ele><time>2011-04-26T05:35:55.0000000+00:00</time></trkpt><trkpt lat="22.036661" lon="104.002113"><ele>548.0</ele><time>2011-04-26T05:36:00.0000000+00:00</time></trkpt><trkpt lat="22.036663" lon="104.002121"><ele>548.0</ele><time>2011-04-26T05:36:05.0000000+00:00</time></trkpt><trkpt lat="22.036663" lon="104.002129"><ele>548.0</ele><time>2011-04-26T05:36:10.0000000+00:00</time></trkpt><trkpt lat="22.036707" lon="104.00219"><ele>547.6</ele><time>2011-04-26T05:36:15.0000000+00:00</time></trkpt><trkpt lat="22.036755" lon="104.002251"><ele>548.0</ele><time>2011-04-26T05:36:20.0000000+00:00</time></trkpt><trkpt lat="22.036718" lon="104.002197"><ele>548.4</ele><time>2011-04-26T05:36:25.0000000+00:00</time></trkpt><trkpt lat="22.0368" lon="104.002281"><ele>547.9</ele><time>2011-04-26T05:36:30.0000000+00:00</time></trkpt><trkpt lat="22.036865" lon="104.002357"><ele>547.1</ele><time>2011-04-26T05:36:35.0000000+00:00</time></trkpt><trkpt lat="22.036867" lon="104.00235"><ele>547.1</ele><time>2011-04-26T05:36:40.0000000+00:00</time></trkpt><trkpt lat="22.036909" lon="104.002403"><ele>547.4</ele><time>2011-04-26T05:36:45.0000000+00:00</time></trkpt><trkpt lat="22.036961" lon="104.002472"><ele>547.6</ele><time>2011-04-26T05:36:50.0000000+00:00</time></trkpt><trkpt lat="22.037014" lon="104.002548"><ele>547.2</ele><time>2011-04-26T05:36:55.0000000+00:00</time></trkpt><trkpt lat="22.036959" lon="104.002495"><ele>546.8</ele><time>2011-04-26T05:37:00.0000000+00:00</time></trkpt><trkpt lat="22.036911" lon="104.002464"><ele>546.5</ele><time>2011-04-26T05:37:05.0000000+00:00</time></trkpt><trkpt lat="22.036926" lon="104.002495"><ele>546.6</ele><time>2011-04-26T05:37:10.0000000+00:00</time></trkpt><trkpt lat="22.036879" lon="104.002411"><ele>546.3</ele><time>2011-04-26T05:37:15.0000000+00:00</time></trkpt><trkpt lat="22.036861" lon="104.002365"><ele>546.2</ele><time>2011-04-26T05:37:20.0000000+00:00</time></trkpt><trkpt lat="22.03685" lon="104.002312"><ele>545.9</ele><time>2011-04-26T05:37:25.0000000+00:00</time></trkpt><trkpt lat="22.036821" lon="104.002281"><ele>546.3</ele><time>2011-04-26T05:37:30.0000000+00:00</time></trkpt><trkpt lat="22.036825" lon="104.002266"><ele>546.9</ele><time>2011-04-26T05:37:35.0000000+00:00</time></trkpt><trkpt lat="22.036821" lon="104.002274"><ele>546.8</ele><time>2011-04-26T05:37:40.0000000+00:00</time></trkpt><trkpt lat="22.03685" lon="104.002365"><ele>547.5</ele><time>2011-04-26T05:37:45.0000000+00:00</time></trkpt><trkpt lat="22.036858" lon="104.00235"><ele>547.7</ele><time>2011-04-26T05:37:50.0000000+00:00</time></trkpt><trkpt lat="22.036827" lon="104.002266"><ele>548.6</ele><time>2011-04-26T05:37:55.0000000+00:00</time></trkpt><trkpt lat="22.036814" lon="104.002235"><ele>548.9</ele><time>2011-04-26T05:38:00.0000000+00:00</time></trkpt><trkpt lat="22.036812" lon="104.002235"><ele>548.9</ele><time>2011-04-26T05:38:05.0000000+00:00</time></trkpt><trkpt lat="22.036806" lon="104.002235"><ele>548.9</ele><time>2011-04-26T05:38:10.0000000+00:00</time></trkpt><trkpt lat="22.036842" lon="104.002304"><ele>549.0</ele><time>2011-04-26T05:38:15.0000000+00:00</time></trkpt><trkpt lat="22.036957" lon="104.002457"><ele>548.6</ele><time>2011-04-26T05:38:20.0000000+00:00</time></trkpt><trkpt lat="22.037041" lon="104.002556"><ele>548.6</ele><time>2011-04-26T05:38:25.0000000+00:00</time></trkpt><trkpt lat="22.037043" lon="104.002556"><ele>549.0</ele><time>2011-04-26T05:38:30.0000000+00:00</time></trkpt><trkpt lat="22.037022" lon="104.002541"><ele>549.8</ele><time>2011-04-26T05:38:35.0000000+00:00</time></trkpt><trkpt lat="22.037006" lon="104.00251"><ele>550.9</ele><time>2011-04-26T05:38:40.0000000+00:00</time></trkpt><trkpt lat="22.036993" lon="104.002472"><ele>551.5</ele><time>2011-04-26T05:38:45.0000000+00:00</time></trkpt><trkpt lat="22.03689" lon="104.002434"><ele>551.8</ele><time>2011-04-26T05:38:50.0000000+00:00</time></trkpt><trkpt lat="22.036808" lon="104.002365"><ele>552.4</ele><time>2011-04-26T05:38:55.0000000+00:00</time></trkpt><trkpt lat="22.036741" lon="104.002274"><ele>552.8</ele><time>2011-04-26T05:39:00.0000000+00:00</time></trkpt><trkpt lat="22.036724" lon="104.002228"><ele>551.2</ele><time>2011-04-26T05:39:05.0000000+00:00</time></trkpt><trkpt lat="22.036705" lon="104.002182"><ele>550.8</ele><time>2011-04-26T05:39:10.0000000+00:00</time></trkpt><trkpt lat="22.036667" lon="104.002136"><ele>551.6</ele><time>2011-04-26T05:39:15.0000000+00:00</time></trkpt><trkpt lat="22.036646" lon="104.002113"><ele>549.9</ele><time>2011-04-26T05:39:20.0000000+00:00</time></trkpt><trkpt lat="22.036655" lon="104.002113"><ele>549.4</ele><time>2011-04-26T05:39:25.0000000+00:00</time></trkpt><trkpt lat="22.036625" lon="104.002098"><ele>550.4</ele><time>2011-04-26T05:39:30.0000000+00:00</time></trkpt><trkpt lat="22.036619" lon="104.002098"><ele>550.5</ele><time>2011-04-26T05:39:35.0000000+00:00</time></trkpt><trkpt lat="22.03661" lon="104.00209"><ele>548.3</ele><time>2011-04-26T05:39:40.0000000+00:00</time></trkpt><trkpt lat="22.036572" lon="104.002068"><ele>547.7</ele><time>2011-04-26T05:39:45.0000000+00:00</time></trkpt><trkpt lat="22.036535" lon="104.002007"><ele>547.5</ele><time>2011-04-26T05:39:50.0000000+00:00</time></trkpt><trkpt lat="22.036533" lon="104.002022"><ele>545.4</ele><time>2011-04-26T05:39:55.0000000+00:00</time></trkpt><trkpt lat="22.036533" lon="104.002029"><ele>544.0</ele><time>2011-04-26T05:40:00.0000000+00:00</time></trkpt><trkpt lat="22.036581" lon="104.002068"><ele>543.1</ele><time>2011-04-26T05:40:05.0000000+00:00</time></trkpt><trkpt lat="22.036579" lon="104.002083"><ele>543.4</ele><time>2011-04-26T05:40:10.0000000+00:00</time></trkpt><trkpt lat="22.036528" lon="104.002045"><ele>544.7</ele><time>2011-04-26T05:40:15.0000000+00:00</time></trkpt><trkpt lat="22.036543" lon="104.002075"><ele>544.4</ele><time>2011-04-26T05:40:20.0000000+00:00</time></trkpt><trkpt lat="22.036551" lon="104.00209"><ele>544.3</ele><time>2011-04-26T05:40:25.0000000+00:00</time></trkpt><trkpt lat="22.036577" lon="104.002113"><ele>544.3</ele><time>2011-04-26T05:40:30.0000000+00:00</time></trkpt><trkpt lat="22.036575" lon="104.002113"><ele>544.2</ele><time>2011-04-26T05:40:35.0000000+00:00</time></trkpt><trkpt lat="22.036566" lon="104.002151"><ele>543.3</ele><time>2011-04-26T05:40:40.0000000+00:00</time></trkpt><trkpt lat="22.036638" lon="104.002167"><ele>541.6</ele><time>2011-04-26T05:40:45.0000000+00:00</time></trkpt><trkpt lat="22.036634" lon="104.002174"><ele>541.2</ele><time>2011-04-26T05:40:50.0000000+00:00</time></trkpt><trkpt lat="22.036585" lon="104.002136"><ele>542.1</ele><time>2011-04-26T05:40:55.0000000+00:00</time></trkpt><trkpt lat="22.036573" lon="104.002106"><ele>541.6</ele><time>2011-04-26T05:41:00.0000000+00:00</time></trkpt><trkpt lat="22.036572" lon="104.002106"><ele>541.4</ele><time>2011-04-26T05:41:05.0000000+00:00</time></trkpt><trkpt lat="22.036579" lon="104.002098"><ele>541.9</ele><time>2011-04-26T05:41:10.0000000+00:00</time></trkpt><trkpt lat="22.036566" lon="104.002068"><ele>542.6</ele><time>2011-04-26T05:41:15.0000000+00:00</time></trkpt><trkpt lat="22.036545" lon="104.002037"><ele>543.8</ele><time>2011-04-26T05:41:20.0000000+00:00</time></trkpt><trkpt lat="22.036545" lon="104.002052"><ele>544.0</ele><time>2011-04-26T05:41:25.0000000+00:00</time></trkpt><trkpt lat="22.036579" lon="104.00209"><ele>543.9</ele><time>2011-04-26T05:41:30.0000000+00:00</time></trkpt><trkpt lat="22.036585" lon="104.002106"><ele>543.7</ele><time>2011-04-26T05:41:35.0000000+00:00</time></trkpt><trkpt lat="22.036596" lon="104.002106"><ele>543.4</ele><time>2011-04-26T05:41:40.0000000+00:00</time></trkpt><trkpt lat="22.036585" lon="104.002098"><ele>543.5</ele><time>2011-04-26T05:41:45.0000000+00:00</time></trkpt><trkpt lat="22.036585" lon="104.002106"><ele>543.9</ele><time>2011-04-26T05:41:50.0000000+00:00</time></trkpt><trkpt lat="22.0366" lon="104.002113"><ele>544.6</ele><time>2011-04-26T05:41:55.0000000+00:00</time></trkpt><trkpt lat="22.03661" lon="104.002121"><ele>545.2</ele><time>2011-04-26T05:42:00.0000000+00:00</time></trkpt><trkpt lat="22.036608" lon="104.002098"><ele>545.0</ele><time>2011-04-26T05:42:05.0000000+00:00</time></trkpt><trkpt lat="22.036606" lon="104.002068"><ele>546.6</ele><time>2011-04-26T05:42:10.0000000+00:00</time></trkpt><trkpt lat="22.036606" lon="104.002075"><ele>547.7</ele><time>2011-04-26T05:42:15.0000000+00:00</time></trkpt><trkpt lat="22.036573" lon="104.00209"><ele>547.4</ele><time>2011-04-26T05:42:20.0000000+00:00</time></trkpt><trkpt lat="22.036543" lon="104.002106"><ele>545.8</ele><time>2011-04-26T05:42:25.0000000+00:00</time></trkpt><trkpt lat="22.036512" lon="104.002113"><ele>544.3</ele><time>2011-04-26T05:42:30.0000000+00:00</time></trkpt><trkpt lat="22.036476" lon="104.002098"><ele>543.2</ele><time>2011-04-26T05:42:35.0000000+00:00</time></trkpt><trkpt lat="22.036438" lon="104.002075"><ele>542.6</ele><time>2011-04-26T05:42:40.0000000+00:00</time></trkpt><trkpt lat="22.036446" lon="104.002068"><ele>542.2</ele><time>2011-04-26T05:42:45.0000000+00:00</time></trkpt><trkpt lat="22.036446" lon="104.002052"><ele>542.2</ele><time>2011-04-26T05:42:50.0000000+00:00</time></trkpt><trkpt lat="22.036451" lon="104.002045"><ele>542.4</ele><time>2011-04-26T05:42:55.0000000+00:00</time></trkpt><trkpt lat="22.036486" lon="104.002052"><ele>541.6</ele><time>2011-04-26T05:43:00.0000000+00:00</time></trkpt><trkpt lat="22.036524" lon="104.002068"><ele>541.6</ele><time>2011-04-26T05:43:05.0000000+00:00</time></trkpt><trkpt lat="22.036524" lon="104.002029"><ele>541.4</ele><time>2011-04-26T05:43:10.0000000+00:00</time></trkpt><trkpt lat="22.036472" lon="104.002029"><ele>540.5</ele><time>2011-04-26T05:43:15.0000000+00:00</time></trkpt><trkpt lat="22.036459" lon="104.002029"><ele>539.8</ele><time>2011-04-26T05:43:20.0000000+00:00</time></trkpt><trkpt lat="22.036472" lon="104.002068"><ele>537.1</ele><time>2011-04-26T05:43:25.0000000+00:00</time></trkpt><trkpt lat="22.036503" lon="104.002098"><ele>536.7</ele><time>2011-04-26T05:43:30.0000000+00:00</time></trkpt><trkpt lat="22.036543" lon="104.002113"><ele>536.5</ele><time>2011-04-26T05:43:35.0000000+00:00</time></trkpt><trkpt lat="22.036579" lon="104.002144"><ele>535.9</ele><time>2011-04-26T05:43:40.0000000+00:00</time></trkpt><trkpt lat="22.03656" lon="104.002106"><ele>536.3</ele><time>2011-04-26T05:43:45.0000000+00:00</time></trkpt><trkpt lat="22.036575" lon="104.002121"><ele>535.6</ele><time>2011-04-26T05:43:50.0000000+00:00</time></trkpt><trkpt lat="22.036554" lon="104.002121"><ele>535.0</ele><time>2011-04-26T05:43:55.0000000+00:00</time></trkpt><trkpt lat="22.036528" lon="104.002106"><ele>534.8</ele><time>2011-04-26T05:44:00.0000000+00:00</time></trkpt><trkpt lat="22.036537" lon="104.002113"><ele>534.9</ele><time>2011-04-26T05:44:05.0000000+00:00</time></trkpt><trkpt lat="22.036629" lon="104.002151"><ele>534.8</ele><time>2011-04-26T05:44:10.0000000+00:00</time></trkpt><trkpt lat="22.03665" lon="104.00222"><ele>536.5</ele><time>2011-04-26T05:44:15.0000000+00:00</time></trkpt><trkpt lat="22.036697" lon="104.002266"><ele>537.8</ele><time>2011-04-26T05:44:20.0000000+00:00</time></trkpt><trkpt lat="22.03676" lon="104.002289"><ele>540.2</ele><time>2011-04-26T05:44:25.0000000+00:00</time></trkpt><trkpt lat="22.036764" lon="104.002296"><ele>543.1</ele><time>2011-04-26T05:44:30.0000000+00:00</time></trkpt><trkpt lat="22.036758" lon="104.002312"><ele>543.0</ele><time>2011-04-26T05:44:35.0000000+00:00</time></trkpt><trkpt lat="22.036743" lon="104.002258"><ele>544.0</ele><time>2011-04-26T05:44:40.0000000+00:00</time></trkpt><trkpt lat="22.036777" lon="104.002258"><ele>544.3</ele><time>2011-04-26T05:44:45.0000000+00:00</time></trkpt><trkpt lat="22.036785" lon="104.002289"><ele>542.8</ele><time>2011-04-26T05:44:50.0000000+00:00</time></trkpt><trkpt lat="22.036718" lon="104.002266"><ele>541.6</ele><time>2011-04-26T05:44:55.0000000+00:00</time></trkpt><trkpt lat="22.036676" lon="104.002235"><ele>539.5</ele><time>2011-04-26T05:45:00.0000000+00:00</time></trkpt><trkpt lat="22.036676" lon="104.00222"><ele>537.9</ele><time>2011-04-26T05:45:05.0000000+00:00</time></trkpt><trkpt lat="22.036625" lon="104.002136"><ele>538.4</ele><time>2011-04-26T05:45:10.0000000+00:00</time></trkpt><trkpt lat="22.036587" lon="104.002068"><ele>538.9</ele><time>2011-04-26T05:45:15.0000000+00:00</time></trkpt><trkpt lat="22.03657" lon="104.00206"><ele>540.3</ele><time>2011-04-26T05:45:20.0000000+00:00</time></trkpt><trkpt lat="22.036606" lon="104.002098"><ele>539.2</ele><time>2011-04-26T05:45:25.0000000+00:00</time></trkpt><trkpt lat="22.036621" lon="104.002136"><ele>537.2</ele><time>2011-04-26T05:45:30.0000000+00:00</time></trkpt><trkpt lat="22.0366" lon="104.002106"><ele>536.9</ele><time>2011-04-26T05:45:35.0000000+00:00</time></trkpt><trkpt lat="22.036604" lon="104.002121"><ele>537.0</ele><time>2011-04-26T05:45:40.0000000+00:00</time></trkpt><trkpt lat="22.036592" lon="104.002136"><ele>535.3</ele><time>2011-04-26T05:45:45.0000000+00:00</time></trkpt><trkpt lat="22.036591" lon="104.002151"><ele>535.4</ele><time>2011-04-26T05:45:50.0000000+00:00</time></trkpt><trkpt lat="22.036594" lon="104.002151"><ele>535.4</ele><time>2011-04-26T05:45:55.0000000+00:00</time></trkpt><trkpt lat="22.036602" lon="104.002144"><ele>535.5</ele><time>2011-04-26T05:46:00.0000000+00:00</time></trkpt><trkpt lat="22.036598" lon="104.002144"><ele>535.5</ele><time>2011-04-26T05:46:05.0000000+00:00</time></trkpt><trkpt lat="22.0366" lon="104.002136"><ele>535.5</ele><time>2011-04-26T05:46:10.0000000+00:00</time></trkpt><trkpt lat="22.036604" lon="104.002136"><ele>535.5</ele><time>2011-04-26T05:46:15.0000000+00:00</time></trkpt><trkpt lat="22.036608" lon="104.002136"><ele>535.5</ele><time>2011-04-26T05:46:20.0000000+00:00</time></trkpt><trkpt lat="22.036615" lon="104.002129"><ele>535.6</ele><time>2011-04-26T05:46:25.0000000+00:00</time></trkpt><trkpt lat="22.036615" lon="104.002129"><ele>535.6</ele><time>2011-04-26T05:46:30.0000000+00:00</time></trkpt><trkpt lat="22.036608" lon="104.002129"><ele>535.6</ele><time>2011-04-26T05:46:35.0000000+00:00</time></trkpt><trkpt lat="22.036589" lon="104.002129"><ele>534.6</ele><time>2011-04-26T05:46:40.0000000+00:00</time></trkpt><trkpt lat="22.036583" lon="104.002144"><ele>534.7</ele><time>2011-04-26T05:46:45.0000000+00:00</time></trkpt><trkpt lat="22.036591" lon="104.002151"><ele>534.7</ele><time>2011-04-26T05:46:50.0000000+00:00</time></trkpt><trkpt lat="22.036598" lon="104.002151"><ele>534.8</ele><time>2011-04-26T05:46:55.0000000+00:00</time></trkpt><trkpt lat="22.036606" lon="104.002151"><ele>534.9</ele><time>2011-04-26T05:47:00.0000000+00:00</time></trkpt><trkpt lat="22.036613" lon="104.002151"><ele>534.9</ele><time>2011-04-26T05:47:05.0000000+00:00</time></trkpt><trkpt lat="22.036615" lon="104.002159"><ele>534.9</ele><time>2011-04-26T05:47:10.0000000+00:00</time></trkpt><trkpt lat="22.036619" lon="104.002167"><ele>534.8</ele><time>2011-04-26T05:47:15.0000000+00:00</time></trkpt><trkpt lat="22.036617" lon="104.002174"><ele>534.8</ele><time>2011-04-26T05:47:20.0000000+00:00</time></trkpt><trkpt lat="22.036617" lon="104.002174"><ele>534.8</ele><time>2011-04-26T05:47:25.0000000+00:00</time></trkpt><trkpt lat="22.03661" lon="104.002167"><ele>534.9</ele><time>2011-04-26T05:47:30.0000000+00:00</time></trkpt><trkpt lat="22.036602" lon="104.002167"><ele>534.9</ele><time>2011-04-26T05:47:35.0000000+00:00</time></trkpt><trkpt lat="22.036587" lon="104.002151"><ele>534.6</ele><time>2011-04-26T05:47:40.0000000+00:00</time></trkpt><trkpt lat="22.036591" lon="104.002129"><ele>534.0</ele><time>2011-04-26T05:47:45.0000000+00:00</time></trkpt><trkpt lat="22.036587" lon="104.002113"><ele>534.0</ele><time>2011-04-26T05:47:50.0000000+00:00</time></trkpt><trkpt lat="22.036583" lon="104.002113"><ele>534.0</ele><time>2011-04-26T05:47:55.0000000+00:00</time></trkpt><trkpt lat="22.036537" lon="104.002098"><ele>534.7</ele><time>2011-04-26T05:48:00.0000000+00:00</time></trkpt><trkpt lat="22.036488" lon="104.00206"><ele>535.3</ele><time>2011-04-26T05:48:05.0000000+00:00</time></trkpt><trkpt lat="22.036491" lon="104.002068"><ele>534.8</ele><time>2011-04-26T05:48:10.0000000+00:00</time></trkpt><trkpt lat="22.036507" lon="104.002083"><ele>534.5</ele><time>2011-04-26T05:48:15.0000000+00:00</time></trkpt><trkpt lat="22.036528" lon="104.002106"><ele>534.1</ele><time>2011-04-26T05:48:20.0000000+00:00</time></trkpt><trkpt lat="22.036526" lon="104.002121"><ele>534.0</ele><time>2011-04-26T05:48:25.0000000+00:00</time></trkpt><trkpt lat="22.036545" lon="104.002106"><ele>534.4</ele><time>2011-04-26T05:48:30.0000000+00:00</time></trkpt><trkpt lat="22.036568" lon="104.002098"><ele>534.6</ele><time>2011-04-26T05:48:35.0000000+00:00</time></trkpt><trkpt lat="22.036562" lon="104.002098"><ele>534.6</ele><time>2011-04-26T05:48:40.0000000+00:00</time></trkpt><trkpt lat="22.036554" lon="104.00209"><ele>534.7</ele><time>2011-04-26T05:48:45.0000000+00:00</time></trkpt><trkpt lat="22.036551" lon="104.00209"><ele>534.7</ele><time>2011-04-26T05:48:50.0000000+00:00</time></trkpt><trkpt lat="22.036543" lon="104.002083"><ele>534.7</ele><time>2011-04-26T05:48:55.0000000+00:00</time></trkpt><trkpt lat="22.036543" lon="104.002083"><ele>534.7</ele><time>2011-04-26T05:49:00.0000000+00:00</time></trkpt><trkpt lat="22.036545" lon="104.002075"><ele>534.7</ele><time>2011-04-26T05:49:05.0000000+00:00</time></trkpt><trkpt lat="22.036547" lon="104.002083"><ele>534.8</ele><time>2011-04-26T05:49:10.0000000+00:00</time></trkpt><trkpt lat="22.03656" lon="104.002083"><ele>534.6</ele><time>2011-04-26T05:49:15.0000000+00:00</time></trkpt><trkpt lat="22.036568" lon="104.00209"><ele>534.0</ele><time>2011-04-26T05:49:20.0000000+00:00</time></trkpt><trkpt lat="22.036562" lon="104.002083"><ele>534.0</ele><time>2011-04-26T05:49:25.0000000+00:00</time></trkpt><trkpt lat="22.036566" lon="104.00209"><ele>534.1</ele><time>2011-04-26T05:49:30.0000000+00:00</time></trkpt><trkpt lat="22.036568" lon="104.00209"><ele>534.0</ele><time>2011-04-26T05:49:35.0000000+00:00</time></trkpt><trkpt lat="22.036564" lon="104.00209"><ele>534.0</ele><time>2011-04-26T05:49:40.0000000+00:00</time></trkpt><trkpt lat="22.036552" lon="104.002083"><ele>534.0</ele><time>2011-04-26T05:49:45.0000000+00:00</time></trkpt><trkpt lat="22.036489" lon="104.00206"><ele>534.2</ele><time>2011-04-26T05:49:50.0000000+00:00</time></trkpt><trkpt lat="22.036453" lon="104.002052"><ele>534.4</ele><time>2011-04-26T05:49:55.0000000+00:00</time></trkpt><trkpt lat="22.03644" lon="104.002029"><ele>535.3</ele><time>2011-04-26T05:50:00.0000000+00:00</time></trkpt><trkpt lat="22.036459" lon="104.002022"><ele>535.7</ele><time>2011-04-26T05:50:05.0000000+00:00</time></trkpt><trkpt lat="22.036465" lon="104.002022"><ele>535.8</ele><time>2011-04-26T05:50:10.0000000+00:00</time></trkpt><trkpt lat="22.03647" lon="104.002022"><ele>535.9</ele><time>2011-04-26T05:50:15.0000000+00:00</time></trkpt><trkpt lat="22.036474" lon="104.002029"><ele>536.0</ele><time>2011-04-26T05:50:20.0000000+00:00</time></trkpt><trkpt lat="22.03647" lon="104.002037"><ele>536.0</ele><time>2011-04-26T05:50:25.0000000+00:00</time></trkpt><trkpt lat="22.036474" lon="104.002045"><ele>536.0</ele><time>2011-04-26T05:50:30.0000000+00:00</time></trkpt><trkpt lat="22.036489" lon="104.00206"><ele>536.1</ele><time>2011-04-26T05:50:35.0000000+00:00</time></trkpt><trkpt lat="22.036522" lon="104.00206"><ele>536.2</ele><time>2011-04-26T05:50:40.0000000+00:00</time></trkpt><trkpt lat="22.036543" lon="104.00206"><ele>536.6</ele><time>2011-04-26T05:50:45.0000000+00:00</time></trkpt><trkpt lat="22.036549" lon="104.002068"><ele>536.7</ele><time>2011-04-26T05:50:50.0000000+00:00</time></trkpt><trkpt lat="22.036541" lon="104.002052"><ele>536.6</ele><time>2011-04-26T05:50:55.0000000+00:00</time></trkpt><trkpt lat="22.036539" lon="104.002045"><ele>536.6</ele><time>2011-04-26T05:51:00.0000000+00:00</time></trkpt><trkpt lat="22.036539" lon="104.002045"><ele>536.6</ele><time>2011-04-26T05:51:05.0000000+00:00</time></trkpt><trkpt lat="22.036535" lon="104.002045"><ele>536.5</ele><time>2011-04-26T05:51:10.0000000+00:00</time></trkpt><trkpt lat="22.03653" lon="104.002045"><ele>536.4</ele><time>2011-04-26T05:51:15.0000000+00:00</time></trkpt><trkpt lat="22.03656" lon="104.00206"><ele>535.7</ele><time>2011-04-26T05:51:20.0000000+00:00</time></trkpt><trkpt lat="22.03656" lon="104.002068"><ele>535.7</ele><time>2011-04-26T05:51:25.0000000+00:00</time></trkpt><trkpt lat="22.036554" lon="104.002068"><ele>535.7</ele><time>2011-04-26T05:51:30.0000000+00:00</time></trkpt><trkpt lat="22.036547" lon="104.002068"><ele>535.7</ele><time>2011-04-26T05:51:35.0000000+00:00</time></trkpt><trkpt lat="22.036539" lon="104.002075"><ele>535.7</ele><time>2011-04-26T05:51:40.0000000+00:00</time></trkpt><trkpt lat="22.036535" lon="104.002075"><ele>535.8</ele><time>2011-04-26T05:51:45.0000000+00:00</time></trkpt><trkpt lat="22.03653" lon="104.002083"><ele>535.8</ele><time>2011-04-26T05:51:50.0000000+00:00</time></trkpt><trkpt lat="22.03653" lon="104.002083"><ele>535.8</ele><time>2011-04-26T05:51:55.0000000+00:00</time></trkpt><trkpt lat="22.036533" lon="104.00209"><ele>535.9</ele><time>2011-04-26T05:52:00.0000000+00:00</time></trkpt><trkpt lat="22.036539" lon="104.002098"><ele>535.9</ele><time>2011-04-26T05:52:05.0000000+00:00</time></trkpt><trkpt lat="22.036545" lon="104.002098"><ele>535.9</ele><time>2011-04-26T05:52:10.0000000+00:00</time></trkpt><trkpt lat="22.036551" lon="104.002098"><ele>535.9</ele><time>2011-04-26T05:52:15.0000000+00:00</time></trkpt><trkpt lat="22.036551" lon="104.002098"><ele>536.0</ele><time>2011-04-26T05:52:20.0000000+00:00</time></trkpt><trkpt lat="22.036551" lon="104.002098"><ele>536.0</ele><time>2011-04-26T05:52:25.0000000+00:00</time></trkpt><trkpt lat="22.036547" lon="104.00209"><ele>536.0</ele><time>2011-04-26T05:52:30.0000000+00:00</time></trkpt><trkpt lat="22.036543" lon="104.00209"><ele>536.1</ele><time>2011-04-26T05:52:35.0000000+00:00</time></trkpt><trkpt lat="22.036489" lon="104.002075"><ele>536.3</ele><time>2011-04-26T05:52:40.0000000+00:00</time></trkpt><trkpt lat="22.036457" lon="104.002052"><ele>536.2</ele><time>2011-04-26T05:52:45.0000000+00:00</time></trkpt><trkpt lat="22.036413" lon="104.002045"><ele>536.1</ele><time>2011-04-26T05:52:50.0000000+00:00</time></trkpt><trkpt lat="22.036409" lon="104.002052"><ele>536.1</ele><time>2011-04-26T05:52:55.0000000+00:00</time></trkpt><trkpt lat="22.036419" lon="104.002052"><ele>536.1</ele><time>2011-04-26T05:53:00.0000000+00:00</time></trkpt><trkpt lat="22.036415" lon="104.00206"><ele>536.1</ele><time>2011-04-26T05:53:05.0000000+00:00</time></trkpt><trkpt lat="22.036413" lon="104.002068"><ele>536.1</ele><time>2011-04-26T05:53:10.0000000+00:00</time></trkpt><trkpt lat="22.036409" lon="104.002083"><ele>535.6</ele><time>2011-04-26T05:53:15.0000000+00:00</time></trkpt><trkpt lat="22.036415" lon="104.002121"><ele>535.0</ele><time>2011-04-26T05:53:20.0000000+00:00</time></trkpt><trkpt lat="22.036434" lon="104.002113"><ele>535.0</ele><time>2011-04-26T05:53:25.0000000+00:00</time></trkpt><trkpt lat="22.036449" lon="104.002113"><ele>535.0</ele><time>2011-04-26T05:53:30.0000000+00:00</time></trkpt><trkpt lat="22.036482" lon="104.00209"><ele>534.7</ele><time>2011-04-26T05:53:35.0000000+00:00</time></trkpt><trkpt lat="22.036489" lon="104.00209"><ele>534.7</ele><time>2011-04-26T05:53:40.0000000+00:00</time></trkpt><trkpt lat="22.036491" lon="104.002098"><ele>534.7</ele><time>2011-04-26T05:53:45.0000000+00:00</time></trkpt><trkpt lat="22.036489" lon="104.002106"><ele>534.8</ele><time>2011-04-26T05:53:50.0000000+00:00</time></trkpt><trkpt lat="22.036484" lon="104.002106"><ele>534.8</ele><time>2011-04-26T05:53:55.0000000+00:00</time></trkpt><trkpt lat="22.036486" lon="104.002098"><ele>534.8</ele><time>2011-04-26T05:54:00.0000000+00:00</time></trkpt><trkpt lat="22.036491" lon="104.002098"><ele>534.9</ele><time>2011-04-26T05:54:05.0000000+00:00</time></trkpt><trkpt lat="22.036493" lon="104.002098"><ele>534.9</ele><time>2011-04-26T05:54:10.0000000+00:00</time></trkpt><trkpt lat="22.036489" lon="104.002106"><ele>534.9</ele><time>2011-04-26T05:54:15.0000000+00:00</time></trkpt><trkpt lat="22.036478" lon="104.002098"><ele>535.0</ele><time>2011-04-26T05:54:20.0000000+00:00</time></trkpt><trkpt lat="22.036474" lon="104.00209"><ele>535.0</ele><time>2011-04-26T05:54:25.0000000+00:00</time></trkpt><trkpt lat="22.036451" lon="104.002075"><ele>535.1</ele><time>2011-04-26T05:54:30.0000000+00:00</time></trkpt><trkpt lat="22.036434" lon="104.002075"><ele>536.2</ele><time>2011-04-26T05:54:35.0000000+00:00</time></trkpt><trkpt lat="22.036427" lon="104.002083"><ele>536.2</ele><time>2011-04-26T05:54:40.0000000+00:00</time></trkpt><trkpt lat="22.03643" lon="104.00209"><ele>536.3</ele><time>2011-04-26T05:54:45.0000000+00:00</time></trkpt><trkpt lat="22.036449" lon="104.002083"><ele>536.5</ele><time>2011-04-26T05:54:50.0000000+00:00</time></trkpt><trkpt lat="22.036461" lon="104.002075"><ele>536.7</ele><time>2011-04-26T05:54:55.0000000+00:00</time></trkpt><trkpt lat="22.036455" lon="104.00206"><ele>536.7</ele><time>2011-04-26T05:55:00.0000000+00:00</time></trkpt><trkpt lat="22.036451" lon="104.00206"><ele>536.7</ele><time>2011-04-26T05:55:05.0000000+00:00</time></trkpt><trkpt lat="22.036444" lon="104.00206"><ele>536.7</ele><time>2011-04-26T05:55:10.0000000+00:00</time></trkpt><trkpt lat="22.036434" lon="104.002052"><ele>536.8</ele><time>2011-04-26T05:55:15.0000000+00:00</time></trkpt><trkpt lat="22.036432" lon="104.002045"><ele>536.8</ele><time>2011-04-26T05:55:20.0000000+00:00</time></trkpt><trkpt lat="22.03643" lon="104.002037"><ele>536.8</ele><time>2011-04-26T05:55:25.0000000+00:00</time></trkpt><trkpt lat="22.036428" lon="104.002037"><ele>536.8</ele><time>2011-04-26T05:55:30.0000000+00:00</time></trkpt><trkpt lat="22.03643" lon="104.002045"><ele>536.8</ele><time>2011-04-26T05:55:35.0000000+00:00</time></trkpt><trkpt lat="22.03644" lon="104.002052"><ele>536.8</ele><time>2011-04-26T05:55:40.0000000+00:00</time></trkpt><trkpt lat="22.036442" lon="104.00206"><ele>536.8</ele><time>2011-04-26T05:55:45.0000000+00:00</time></trkpt><trkpt lat="22.036446" lon="104.00206"><ele>536.8</ele><time>2011-04-26T05:55:50.0000000+00:00</time></trkpt><trkpt lat="22.036451" lon="104.00206"><ele>536.9</ele><time>2011-04-26T05:55:55.0000000+00:00</time></trkpt><trkpt lat="22.036448" lon="104.002083"><ele>536.7</ele><time>2011-04-26T05:56:00.0000000+00:00</time></trkpt><trkpt lat="22.036448" lon="104.002106"><ele>536.5</ele><time>2011-04-26T05:56:05.0000000+00:00</time></trkpt><trkpt lat="22.036442" lon="104.002113"><ele>536.5</ele><time>2011-04-26T05:56:10.0000000+00:00</time></trkpt><trkpt lat="22.036434" lon="104.002106"><ele>536.5</ele><time>2011-04-26T05:56:15.0000000+00:00</time></trkpt><trkpt lat="22.036434" lon="104.002098"><ele>536.5</ele><time>2011-04-26T05:56:20.0000000+00:00</time></trkpt><trkpt lat="22.036438" lon="104.00209"><ele>536.5</ele><time>2011-04-26T05:56:25.0000000+00:00</time></trkpt><trkpt lat="22.036438" lon="104.00209"><ele>536.5</ele><time>2011-04-26T05:56:30.0000000+00:00</time></trkpt><trkpt lat="22.036438" lon="104.002083"><ele>536.5</ele><time>2011-04-26T05:56:35.0000000+00:00</time></trkpt><trkpt lat="22.036432" lon="104.002075"><ele>536.5</ele><time>2011-04-26T05:56:40.0000000+00:00</time></trkpt><trkpt lat="22.036432" lon="104.002075"><ele>536.5</ele><time>2011-04-26T05:56:45.0000000+00:00</time></trkpt><trkpt lat="22.036444" lon="104.002075"><ele>536.6</ele><time>2011-04-26T05:56:50.0000000+00:00</time></trkpt><trkpt lat="22.036467" lon="104.002068"><ele>536.5</ele><time>2011-04-26T05:56:55.0000000+00:00</time></trkpt><trkpt lat="22.036489" lon="104.002045"><ele>536.0</ele><time>2011-04-26T05:57:00.0000000+00:00</time></trkpt><trkpt lat="22.036489" lon="104.002037"><ele>536.0</ele><time>2011-04-26T05:57:05.0000000+00:00</time></trkpt><trkpt lat="22.036486" lon="104.002037"><ele>536.0</ele><time>2011-04-26T05:57:10.0000000+00:00</time></trkpt><trkpt lat="22.036488" lon="104.002037"><ele>536.0</ele><time>2011-04-26T05:57:15.0000000+00:00</time></trkpt><trkpt lat="22.036486" lon="104.002037"><ele>536.0</ele><time>2011-04-26T05:57:20.0000000+00:00</time></trkpt><trkpt lat="22.036484" lon="104.002037"><ele>536.0</ele><time>2011-04-26T05:57:25.0000000+00:00</time></trkpt><trkpt lat="22.036482" lon="104.002037"><ele>536.0</ele><time>2011-04-26T05:57:30.0000000+00:00</time></trkpt><trkpt lat="22.036484" lon="104.002045"><ele>536.0</ele><time>2011-04-26T05:57:35.0000000+00:00</time></trkpt><trkpt lat="22.036486" lon="104.002052"><ele>536.0</ele><time>2011-04-26T05:57:40.0000000+00:00</time></trkpt><trkpt lat="22.036486" lon="104.00206"><ele>536.0</ele><time>2011-04-26T05:57:45.0000000+00:00</time></trkpt><trkpt lat="22.036488" lon="104.002068"><ele>536.1</ele><time>2011-04-26T05:57:50.0000000+00:00</time></trkpt><trkpt lat="22.036488" lon="104.002068"><ele>536.1</ele><time>2011-04-26T05:57:55.0000000+00:00</time></trkpt><trkpt lat="22.036482" lon="104.002068"><ele>536.1</ele><time>2011-04-26T05:58:00.0000000+00:00</time></trkpt><trkpt lat="22.03648" lon="104.00206"><ele>536.1</ele><time>2011-04-26T05:58:05.0000000+00:00</time></trkpt><trkpt lat="22.036472" lon="104.00206"><ele>536.1</ele><time>2011-04-26T05:58:10.0000000+00:00</time></trkpt><trkpt lat="22.036476" lon="104.00206"><ele>536.1</ele><time>2011-04-26T05:58:15.0000000+00:00</time></trkpt><trkpt lat="22.036488" lon="104.002068"><ele>536.1</ele><time>2011-04-26T05:58:20.0000000+00:00</time></trkpt><trkpt lat="22.036493" lon="104.002075"><ele>536.1</ele><time>2011-04-26T05:58:25.0000000+00:00</time></trkpt><trkpt lat="22.036497" lon="104.002083"><ele>536.1</ele><time>2011-04-26T05:58:30.0000000+00:00</time></trkpt><trkpt lat="22.036507" lon="104.00209"><ele>536.1</ele><time>2011-04-26T05:58:35.0000000+00:00</time></trkpt><trkpt lat="22.03651" lon="104.002098"><ele>536.2</ele><time>2011-04-26T05:58:40.0000000+00:00</time></trkpt><trkpt lat="22.036514" lon="104.00209"><ele>536.2</ele><time>2011-04-26T05:58:45.0000000+00:00</time></trkpt><trkpt lat="22.036516" lon="104.00209"><ele>536.2</ele><time>2011-04-26T05:58:50.0000000+00:00</time></trkpt><trkpt lat="22.036516" lon="104.00209"><ele>536.2</ele><time>2011-04-26T05:58:55.0000000+00:00</time></trkpt><trkpt lat="22.036518" lon="104.002083"><ele>536.3</ele><time>2011-04-26T05:59:00.0000000+00:00</time></trkpt><trkpt lat="22.036522" lon="104.00209"><ele>536.3</ele><time>2011-04-26T05:59:05.0000000+00:00</time></trkpt><trkpt lat="22.036524" lon="104.002083"><ele>536.3</ele><time>2011-04-26T05:59:10.0000000+00:00</time></trkpt><trkpt lat="22.036526" lon="104.002083"><ele>536.4</ele><time>2011-04-26T05:59:15.0000000+00:00</time></trkpt><trkpt lat="22.036533" lon="104.002083"><ele>536.4</ele><time>2011-04-26T05:59:20.0000000+00:00</time></trkpt><trkpt lat="22.036533" lon="104.002075"><ele>536.6</ele><time>2011-04-26T05:59:25.0000000+00:00</time></trkpt><trkpt lat="22.03653" lon="104.002075"><ele>536.6</ele><time>2011-04-26T05:59:30.0000000+00:00</time></trkpt><trkpt lat="22.036524" lon="104.002075"><ele>536.6</ele><time>2011-04-26T05:59:35.0000000+00:00</time></trkpt><trkpt lat="22.036522" lon="104.002075"><ele>536.6</ele><time>2011-04-26T05:59:40.0000000+00:00</time></trkpt><trkpt lat="22.03652" lon="104.002083"><ele>536.7</ele><time>2011-04-26T05:59:45.0000000+00:00</time></trkpt><trkpt lat="22.03652" lon="104.002083"><ele>536.7</ele><time>2011-04-26T05:59:50.0000000+00:00</time></trkpt><trkpt lat="22.036522" lon="104.002083"><ele>536.8</ele><time>2011-04-26T05:59:55.0000000+00:00</time></trkpt><trkpt lat="22.036514" lon="104.002083"><ele>536.8</ele><time>2011-04-26T06:00:00.0000000+00:00</time></trkpt><trkpt lat="22.036518" lon="104.002083"><ele>536.6</ele><time>2011-04-26T06:00:05.0000000+00:00</time></trkpt><trkpt lat="22.036528" lon="104.00209"><ele>536.3</ele><time>2011-04-26T06:00:10.0000000+00:00</time></trkpt><trkpt lat="22.03653" lon="104.002098"><ele>536.4</ele><time>2011-04-26T06:00:15.0000000+00:00</time></trkpt><trkpt lat="22.036524" lon="104.002098"><ele>536.4</ele><time>2011-04-26T06:00:20.0000000+00:00</time></trkpt><trkpt lat="22.036522" lon="104.002098"><ele>536.4</ele><time>2011-04-26T06:00:25.0000000+00:00</time></trkpt><trkpt lat="22.036524" lon="104.00209"><ele>536.4</ele><time>2011-04-26T06:00:30.0000000+00:00</time></trkpt><trkpt lat="22.036516" lon="104.002098"><ele>536.4</ele><time>2011-04-26T06:00:35.0000000+00:00</time></trkpt><trkpt lat="22.036514" lon="104.002098"><ele>536.4</ele><time>2011-04-26T06:00:40.0000000+00:00</time></trkpt><trkpt lat="22.036509" lon="104.002106"><ele>536.5</ele><time>2011-04-26T06:00:45.0000000+00:00</time></trkpt><trkpt lat="22.036507" lon="104.002106"><ele>536.5</ele><time>2011-04-26T06:00:50.0000000+00:00</time></trkpt><trkpt lat="22.036509" lon="104.002113"><ele>536.5</ele><time>2011-04-26T06:00:55.0000000+00:00</time></trkpt><trkpt lat="22.036509" lon="104.002113"><ele>536.5</ele><time>2011-04-26T06:01:00.0000000+00:00</time></trkpt><trkpt lat="22.036512" lon="104.002113"><ele>536.6</ele><time>2011-04-26T06:01:05.0000000+00:00</time></trkpt><trkpt lat="22.036514" lon="104.002106"><ele>536.6</ele><time>2011-04-26T06:01:10.0000000+00:00</time></trkpt><trkpt lat="22.03652" lon="104.002106"><ele>536.5</ele><time>2011-04-26T06:01:15.0000000+00:00</time></trkpt><trkpt lat="22.036516" lon="104.002106"><ele>536.5</ele><time>2011-04-26T06:01:20.0000000+00:00</time></trkpt><trkpt lat="22.036516" lon="104.002113"><ele>536.5</ele><time>2011-04-26T06:01:25.0000000+00:00</time></trkpt><trkpt lat="22.036522" lon="104.002113"><ele>536.5</ele><time>2011-04-26T06:01:30.0000000+00:00</time></trkpt><trkpt lat="22.036528" lon="104.002113"><ele>536.6</ele><time>2011-04-26T06:01:35.0000000+00:00</time></trkpt><trkpt lat="22.036531" lon="104.002113"><ele>536.6</ele><time>2011-04-26T06:01:40.0000000+00:00</time></trkpt><trkpt lat="22.03653" lon="104.002121"><ele>536.6</ele><time>2011-04-26T06:01:45.0000000+00:00</time></trkpt><trkpt lat="22.036531" lon="104.002121"><ele>536.6</ele><time>2011-04-26T06:01:50.0000000+00:00</time></trkpt><trkpt lat="22.036537" lon="104.002129"><ele>536.6</ele><time>2011-04-26T06:01:55.0000000+00:00</time></trkpt><trkpt lat="22.036543" lon="104.002129"><ele>536.6</ele><time>2011-04-26T06:02:00.0000000+00:00</time></trkpt><trkpt lat="22.036549" lon="104.002129"><ele>536.6</ele><time>2011-04-26T06:02:05.0000000+00:00</time></trkpt><trkpt lat="22.036547" lon="104.002136"><ele>536.6</ele><time>2011-04-26T06:02:10.0000000+00:00</time></trkpt><trkpt lat="22.036543" lon="104.002136"><ele>536.6</ele><time>2011-04-26T06:02:15.0000000+00:00</time></trkpt><trkpt lat="22.036545" lon="104.002136"><ele>536.6</ele><time>2011-04-26T06:02:20.0000000+00:00</time></trkpt><trkpt lat="22.036549" lon="104.002144"><ele>536.7</ele><time>2011-04-26T06:02:25.0000000+00:00</time></trkpt><trkpt lat="22.036547" lon="104.002151"><ele>536.7</ele><time>2011-04-26T06:02:30.0000000+00:00</time></trkpt><trkpt lat="22.036545" lon="104.002151"><ele>536.7</ele><time>2011-04-26T06:02:35.0000000+00:00</time></trkpt><trkpt lat="22.036545" lon="104.002144"><ele>536.7</ele><time>2011-04-26T06:02:40.0000000+00:00</time></trkpt><trkpt lat="22.036539" lon="104.002136"><ele>536.7</ele><time>2011-04-26T06:02:45.0000000+00:00</time></trkpt><trkpt lat="22.036535" lon="104.002136"><ele>536.7</ele><time>2011-04-26T06:02:50.0000000+00:00</time></trkpt><trkpt lat="22.036531" lon="104.002136"><ele>536.7</ele><time>2011-04-26T06:02:55.0000000+00:00</time></trkpt><trkpt lat="22.036535" lon="104.002136"><ele>536.7</ele><time>2011-04-26T06:03:00.0000000+00:00</time></trkpt><trkpt lat="22.036539" lon="104.002136"><ele>536.7</ele><time>2011-04-26T06:03:05.0000000+00:00</time></trkpt><trkpt lat="22.036547" lon="104.002136"><ele>536.7</ele><time>2011-04-26T06:03:10.0000000+00:00</time></trkpt><trkpt lat="22.036549" lon="104.002144"><ele>536.8</ele><time>2011-04-26T06:03:15.0000000+00:00</time></trkpt><trkpt lat="22.036543" lon="104.002144"><ele>536.8</ele><time>2011-04-26T06:03:20.0000000+00:00</time></trkpt><trkpt lat="22.036537" lon="104.002144"><ele>536.7</ele><time>2011-04-26T06:03:25.0000000+00:00</time></trkpt><trkpt lat="22.036539" lon="104.002144"><ele>536.7</ele><time>2011-04-26T06:03:30.0000000+00:00</time></trkpt><trkpt lat="22.036543" lon="104.002144"><ele>536.8</ele><time>2011-04-26T06:03:35.0000000+00:00</time></trkpt><trkpt lat="22.036539" lon="104.002151"><ele>536.8</ele><time>2011-04-26T06:03:40.0000000+00:00</time></trkpt><trkpt lat="22.036535" lon="104.002144"><ele>536.8</ele><time>2011-04-26T06:03:45.0000000+00:00</time></trkpt><trkpt lat="22.036537" lon="104.002144"><ele>536.8</ele><time>2011-04-26T06:03:50.0000000+00:00</time></trkpt><trkpt lat="22.036545" lon="104.002144"><ele>536.8</ele><time>2011-04-26T06:03:55.0000000+00:00</time></trkpt><trkpt lat="22.036551" lon="104.002144"><ele>536.8</ele><time>2011-04-26T06:04:00.0000000+00:00</time></trkpt><trkpt lat="22.036577" lon="104.002144"><ele>536.6</ele><time>2011-04-26T06:04:05.0000000+00:00</time></trkpt><trkpt lat="22.036568" lon="104.002136"><ele>536.3</ele><time>2011-04-26T06:04:10.0000000+00:00</time></trkpt><trkpt lat="22.03657" lon="104.002136"><ele>536.3</ele><time>2011-04-26T06:04:15.0000000+00:00</time></trkpt><trkpt lat="22.036568" lon="104.002136"><ele>536.3</ele><time>2011-04-26T06:04:20.0000000+00:00</time></trkpt><trkpt lat="22.03657" lon="104.002144"><ele>536.3</ele><time>2011-04-26T06:04:25.0000000+00:00</time></trkpt><trkpt lat="22.036573" lon="104.002144"><ele>536.3</ele><time>2011-04-26T06:04:30.0000000+00:00</time></trkpt><trkpt lat="22.036573" lon="104.002144"><ele>536.3</ele><time>2011-04-26T06:04:35.0000000+00:00</time></trkpt><trkpt lat="22.03657" lon="104.002144"><ele>536.3</ele><time>2011-04-26T06:04:40.0000000+00:00</time></trkpt><trkpt lat="22.036577" lon="104.002144"><ele>536.3</ele><time>2011-04-26T06:04:45.0000000+00:00</time></trkpt><trkpt lat="22.036577" lon="104.002144"><ele>536.3</ele><time>2011-04-26T06:04:50.0000000+00:00</time></trkpt><trkpt lat="22.036575" lon="104.002144"><ele>536.3</ele><time>2011-04-26T06:04:55.0000000+00:00</time></trkpt><trkpt lat="22.036581" lon="104.002151"><ele>536.3</ele><time>2011-04-26T06:05:00.0000000+00:00</time></trkpt><trkpt lat="22.036583" lon="104.002151"><ele>536.3</ele><time>2011-04-26T06:05:05.0000000+00:00</time></trkpt><trkpt lat="22.036585" lon="104.002151"><ele>536.3</ele><time>2011-04-26T06:05:10.0000000+00:00</time></trkpt><trkpt lat="22.036579" lon="104.002151"><ele>536.4</ele><time>2011-04-26T06:05:15.0000000+00:00</time></trkpt><trkpt lat="22.036572" lon="104.002151"><ele>536.4</ele><time>2011-04-26T06:05:20.0000000+00:00</time></trkpt><trkpt lat="22.036566" lon="104.002144"><ele>536.4</ele><time>2011-04-26T06:05:25.0000000+00:00</time></trkpt><trkpt lat="22.036566" lon="104.002136"><ele>536.4</ele><time>2011-04-26T06:05:30.0000000+00:00</time></trkpt><trkpt lat="22.036575" lon="104.002136"><ele>536.4</ele><time>2011-04-26T06:05:35.0000000+00:00</time></trkpt><trkpt lat="22.036589" lon="104.002121"><ele>536.2</ele><time>2011-04-26T06:05:40.0000000+00:00</time></trkpt><trkpt lat="22.036629" lon="104.002106"><ele>535.7</ele><time>2011-04-26T06:05:45.0000000+00:00</time></trkpt><trkpt lat="22.036636" lon="104.002113"><ele>535.6</ele><time>2011-04-26T06:05:50.0000000+00:00</time></trkpt><trkpt lat="22.036634" lon="104.002106"><ele>535.6</ele><time>2011-04-26T06:05:55.0000000+00:00</time></trkpt><trkpt lat="22.036631" lon="104.002113"><ele>535.6</ele><time>2011-04-26T06:06:00.0000000+00:00</time></trkpt><trkpt lat="22.036627" lon="104.002113"><ele>535.6</ele><time>2011-04-26T06:06:05.0000000+00:00</time></trkpt><trkpt lat="22.036623" lon="104.002113"><ele>535.6</ele><time>2011-04-26T06:06:10.0000000+00:00</time></trkpt><trkpt lat="22.036615" lon="104.002106"><ele>535.6</ele><time>2011-04-26T06:06:15.0000000+00:00</time></trkpt><trkpt lat="22.036594" lon="104.002098"><ele>535.5</ele><time>2011-04-26T06:06:20.0000000+00:00</time></trkpt><trkpt lat="22.036533" lon="104.002106"><ele>535.3</ele><time>2011-04-26T06:06:25.0000000+00:00</time></trkpt><trkpt lat="22.036537" lon="104.002121"><ele>535.3</ele><time>2011-04-26T06:06:30.0000000+00:00</time></trkpt><trkpt lat="22.036539" lon="104.002129"><ele>535.3</ele><time>2011-04-26T06:06:35.0000000+00:00</time></trkpt><trkpt lat="22.036547" lon="104.002136"><ele>535.3</ele><time>2011-04-26T06:06:40.0000000+00:00</time></trkpt><trkpt lat="22.036551" lon="104.002136"><ele>535.3</ele><time>2011-04-26T06:06:45.0000000+00:00</time></trkpt><trkpt lat="22.036547" lon="104.002136"><ele>535.3</ele><time>2011-04-26T06:06:50.0000000+00:00</time></trkpt><trkpt lat="22.036547" lon="104.002136"><ele>535.3</ele><time>2011-04-26T06:06:55.0000000+00:00</time></trkpt><trkpt lat="22.036543" lon="104.002144"><ele>535.2</ele><time>2011-04-26T06:07:00.0000000+00:00</time></trkpt><trkpt lat="22.036543" lon="104.002151"><ele>535.2</ele><time>2011-04-26T06:07:05.0000000+00:00</time></trkpt><trkpt lat="22.036545" lon="104.002151"><ele>535.2</ele><time>2011-04-26T06:07:10.0000000+00:00</time></trkpt><trkpt lat="22.036549" lon="104.002159"><ele>535.2</ele><time>2011-04-26T06:07:15.0000000+00:00</time></trkpt><trkpt lat="22.036549" lon="104.002167"><ele>535.2</ele><time>2011-04-26T06:07:20.0000000+00:00</time></trkpt><trkpt lat="22.036549" lon="104.002174"><ele>535.2</ele><time>2011-04-26T06:07:25.0000000+00:00</time></trkpt><trkpt lat="22.036549" lon="104.002174"><ele>535.2</ele><time>2011-04-26T06:07:30.0000000+00:00</time></trkpt><trkpt lat="22.036552" lon="104.002174"><ele>535.2</ele><time>2011-04-26T06:07:35.0000000+00:00</time></trkpt><trkpt lat="22.036558" lon="104.002182"><ele>535.2</ele><time>2011-04-26T06:07:40.0000000+00:00</time></trkpt><trkpt lat="22.036562" lon="104.00219"><ele>535.2</ele><time>2011-04-26T06:07:45.0000000+00:00</time></trkpt><trkpt lat="22.036562" lon="104.002197"><ele>535.3</ele><time>2011-04-26T06:07:50.0000000+00:00</time></trkpt><trkpt lat="22.03656" lon="104.002197"><ele>535.3</ele><time>2011-04-26T06:07:55.0000000+00:00</time></trkpt><trkpt lat="22.036558" lon="104.002197"><ele>535.3</ele><time>2011-04-26T06:08:00.0000000+00:00</time></trkpt><trkpt lat="22.036556" lon="104.00219"><ele>535.3</ele><time>2011-04-26T06:08:05.0000000+00:00</time></trkpt><trkpt lat="22.03656" lon="104.00219"><ele>535.3</ele><time>2011-04-26T06:08:10.0000000+00:00</time></trkpt><trkpt lat="22.036562" lon="104.00219"><ele>535.3</ele><time>2011-04-26T06:08:15.0000000+00:00</time></trkpt><trkpt lat="22.036564" lon="104.002182"><ele>535.3</ele><time>2011-04-26T06:08:20.0000000+00:00</time></trkpt><trkpt lat="22.036566" lon="104.002182"><ele>535.2</ele><time>2011-04-26T06:08:25.0000000+00:00</time></trkpt><trkpt lat="22.036564" lon="104.00219"><ele>535.2</ele><time>2011-04-26T06:08:30.0000000+00:00</time></trkpt><trkpt lat="22.036564" lon="104.00219"><ele>535.2</ele><time>2011-04-26T06:08:35.0000000+00:00</time></trkpt><trkpt lat="22.036562" lon="104.002197"><ele>535.2</ele><time>2011-04-26T06:08:40.0000000+00:00</time></trkpt><trkpt lat="22.03656" lon="104.002197"><ele>535.2</ele><time>2011-04-26T06:08:45.0000000+00:00</time></trkpt><trkpt lat="22.03656" lon="104.002205"><ele>535.2</ele><time>2011-04-26T06:08:50.0000000+00:00</time></trkpt><trkpt lat="22.036558" lon="104.002205"><ele>535.2</ele><time>2011-04-26T06:08:55.0000000+00:00</time></trkpt><trkpt lat="22.036562" lon="104.002205"><ele>535.2</ele><time>2011-04-26T06:09:00.0000000+00:00</time></trkpt><trkpt lat="22.036564" lon="104.002213"><ele>535.3</ele><time>2011-04-26T06:09:05.0000000+00:00</time></trkpt><trkpt lat="22.036564" lon="104.002213"><ele>535.3</ele><time>2011-04-26T06:09:10.0000000+00:00</time></trkpt><trkpt lat="22.036564" lon="104.002213"><ele>535.2</ele><time>2011-04-26T06:09:15.0000000+00:00</time></trkpt><trkpt lat="22.036564" lon="104.002213"><ele>535.2</ele><time>2011-04-26T06:09:20.0000000+00:00</time></trkpt><trkpt lat="22.036564" lon="104.002213"><ele>535.2</ele><time>2011-04-26T06:09:25.0000000+00:00</time></trkpt><trkpt lat="22.036562" lon="104.002213"><ele>535.2</ele><time>2011-04-26T06:09:30.0000000+00:00</time></trkpt><trkpt lat="22.036562" lon="104.002213"><ele>535.1</ele><time>2011-04-26T06:09:35.0000000+00:00</time></trkpt><trkpt lat="22.036562" lon="104.002213"><ele>535.1</ele><time>2011-04-26T06:09:40.0000000+00:00</time></trkpt><trkpt lat="22.036558" lon="104.002213"><ele>535.1</ele><time>2011-04-26T06:09:45.0000000+00:00</time></trkpt><trkpt lat="22.036554" lon="104.002213"><ele>535.1</ele><time>2011-04-26T06:09:50.0000000+00:00</time></trkpt><trkpt lat="22.036552" lon="104.002213"><ele>535.1</ele><time>2011-04-26T06:09:55.0000000+00:00</time></trkpt><trkpt lat="22.036552" lon="104.002213"><ele>535.1</ele><time>2011-04-26T06:10:00.0000000+00:00</time></trkpt><trkpt lat="22.036552" lon="104.002213"><ele>535.1</ele><time>2011-04-26T06:10:05.0000000+00:00</time></trkpt><trkpt lat="22.036551" lon="104.00222"><ele>535.1</ele><time>2011-04-26T06:10:10.0000000+00:00</time></trkpt><trkpt lat="22.036549" lon="104.00222"><ele>535.1</ele><time>2011-04-26T06:10:15.0000000+00:00</time></trkpt><trkpt lat="22.036547" lon="104.002228"><ele>535.1</ele><time>2011-04-26T06:10:20.0000000+00:00</time></trkpt><trkpt lat="22.036547" lon="104.002235"><ele>535.1</ele><time>2011-04-26T06:10:25.0000000+00:00</time></trkpt><trkpt lat="22.036545" lon="104.002235"><ele>535.0</ele><time>2011-04-26T06:10:30.0000000+00:00</time></trkpt><trkpt lat="22.036543" lon="104.002243"><ele>535.0</ele><time>2011-04-26T06:10:35.0000000+00:00</time></trkpt><trkpt lat="22.036541" lon="104.002251"><ele>535.0</ele><time>2011-04-26T06:10:40.0000000+00:00</time></trkpt><trkpt lat="22.036539" lon="104.002258"><ele>535.0</ele><time>2011-04-26T06:10:45.0000000+00:00</time></trkpt><trkpt lat="22.036537" lon="104.002266"><ele>535.0</ele><time>2011-04-26T06:10:50.0000000+00:00</time></trkpt><trkpt lat="22.036535" lon="104.002266"><ele>535.0</ele><time>2011-04-26T06:10:55.0000000+00:00</time></trkpt><trkpt lat="22.036535" lon="104.002266"><ele>535.0</ele><time>2011-04-26T06:11:00.0000000+00:00</time></trkpt><trkpt lat="22.036537" lon="104.002258"><ele>535.0</ele><time>2011-04-26T06:11:05.0000000+00:00</time></trkpt><trkpt lat="22.036537" lon="104.002258"><ele>535.0</ele><time>2011-04-26T06:11:10.0000000+00:00</time></trkpt><trkpt lat="22.036533" lon="104.002258"><ele>535.0</ele><time>2011-04-26T06:11:15.0000000+00:00</time></trkpt><trkpt lat="22.036533" lon="104.002266"><ele>535.0</ele><time>2011-04-26T06:11:20.0000000+00:00</time></trkpt><trkpt lat="22.036533" lon="104.002266"><ele>534.9</ele><time>2011-04-26T06:11:25.0000000+00:00</time></trkpt><trkpt lat="22.036531" lon="104.002266"><ele>534.9</ele><time>2011-04-26T06:11:30.0000000+00:00</time></trkpt><trkpt lat="22.03653" lon="104.002266"><ele>534.9</ele><time>2011-04-26T06:11:35.0000000+00:00</time></trkpt><trkpt lat="22.03653" lon="104.002274"><ele>534.9</ele><time>2011-04-26T06:11:40.0000000+00:00</time></trkpt><trkpt lat="22.03653" lon="104.002274"><ele>534.9</ele><time>2011-04-26T06:11:45.0000000+00:00</time></trkpt><trkpt lat="22.036528" lon="104.002274"><ele>534.9</ele><time>2011-04-26T06:11:50.0000000+00:00</time></trkpt><trkpt lat="22.03653" lon="104.002266"><ele>534.9</ele><time>2011-04-26T06:11:55.0000000+00:00</time></trkpt><trkpt lat="22.036528" lon="104.002274"><ele>534.9</ele><time>2011-04-26T06:12:00.0000000+00:00</time></trkpt><trkpt lat="22.036524" lon="104.002266"><ele>534.9</ele><time>2011-04-26T06:12:05.0000000+00:00</time></trkpt><trkpt lat="22.036518" lon="104.002266"><ele>534.8</ele><time>2011-04-26T06:12:10.0000000+00:00</time></trkpt><trkpt lat="22.036509" lon="104.002266"><ele>534.8</ele><time>2011-04-26T06:12:15.0000000+00:00</time></trkpt><trkpt lat="22.036501" lon="104.002266"><ele>534.9</ele><time>2011-04-26T06:12:20.0000000+00:00</time></trkpt><trkpt lat="22.036497" lon="104.002258"><ele>534.9</ele><time>2011-04-26T06:12:25.0000000+00:00</time></trkpt><trkpt lat="22.036493" lon="104.002251"><ele>534.9</ele><time>2011-04-26T06:12:30.0000000+00:00</time></trkpt><trkpt lat="22.036491" lon="104.002243"><ele>534.9</ele><time>2011-04-26T06:12:35.0000000+00:00</time></trkpt><trkpt lat="22.036489" lon="104.002235"><ele>534.9</ele><time>2011-04-26T06:12:40.0000000+00:00</time></trkpt><trkpt lat="22.036484" lon="104.002235"><ele>534.9</ele><time>2011-04-26T06:12:45.0000000+00:00</time></trkpt><trkpt lat="22.036476" lon="104.002228"><ele>534.9</ele><time>2011-04-26T06:12:50.0000000+00:00</time></trkpt><trkpt lat="22.036472" lon="104.002213"><ele>534.8</ele><time>2011-04-26T06:12:55.0000000+00:00</time></trkpt><trkpt lat="22.03647" lon="104.002213"><ele>534.8</ele><time>2011-04-26T06:13:00.0000000+00:00</time></trkpt><trkpt lat="22.03647" lon="104.002205"><ele>534.8</ele><time>2011-04-26T06:13:05.0000000+00:00</time></trkpt><trkpt lat="22.036469" lon="104.002205"><ele>534.8</ele><time>2011-04-26T06:13:10.0000000+00:00</time></trkpt><trkpt lat="22.036465" lon="104.002205"><ele>534.8</ele><time>2011-04-26T06:13:15.0000000+00:00</time></trkpt><trkpt lat="22.036463" lon="104.002205"><ele>534.8</ele><time>2011-04-26T06:13:20.0000000+00:00</time></trkpt><trkpt lat="22.036459" lon="104.002205"><ele>534.7</ele><time>2011-04-26T06:13:25.0000000+00:00</time></trkpt><trkpt lat="22.036453" lon="104.002205"><ele>534.7</ele><time>2011-04-26T06:13:30.0000000+00:00</time></trkpt><trkpt lat="22.036448" lon="104.002197"><ele>534.7</ele><time>2011-04-26T06:13:35.0000000+00:00</time></trkpt><trkpt lat="22.03644" lon="104.00219"><ele>534.7</ele><time>2011-04-26T06:13:40.0000000+00:00</time></trkpt><trkpt lat="22.036438" lon="104.002197"><ele>534.7</ele><time>2011-04-26T06:13:45.0000000+00:00</time></trkpt><trkpt lat="22.036438" lon="104.002197"><ele>534.7</ele><time>2011-04-26T06:13:50.0000000+00:00</time></trkpt><trkpt lat="22.036436" lon="104.002197"><ele>534.7</ele><time>2011-04-26T06:13:55.0000000+00:00</time></trkpt><trkpt lat="22.036438" lon="104.002205"><ele>534.7</ele><time>2011-04-26T06:14:00.0000000+00:00</time></trkpt><trkpt lat="22.036438" lon="104.002205"><ele>534.7</ele><time>2011-04-26T06:14:05.0000000+00:00</time></trkpt><trkpt lat="22.036436" lon="104.002205"><ele>534.6</ele><time>2011-04-26T06:14:10.0000000+00:00</time></trkpt><trkpt lat="22.036436" lon="104.002205"><ele>534.6</ele><time>2011-04-26T06:14:15.0000000+00:00</time></trkpt><trkpt lat="22.036436" lon="104.002205"><ele>534.6</ele><time>2011-04-26T06:14:20.0000000+00:00</time></trkpt><trkpt lat="22.036436" lon="104.002205"><ele>534.6</ele><time>2011-04-26T06:14:25.0000000+00:00</time></trkpt><trkpt lat="22.036436" lon="104.002213"><ele>534.6</ele><time>2011-04-26T06:14:30.0000000+00:00</time></trkpt><trkpt lat="22.036436" lon="104.002213"><ele>534.6</ele><time>2011-04-26T06:14:35.0000000+00:00</time></trkpt><trkpt lat="22.036434" lon="104.002213"><ele>534.6</ele><time>2011-04-26T06:14:40.0000000+00:00</time></trkpt><trkpt lat="22.036434" lon="104.002213"><ele>534.6</ele><time>2011-04-26T06:14:45.0000000+00:00</time></trkpt><trkpt lat="22.036436" lon="104.002213"><ele>534.5</ele><time>2011-04-26T06:14:50.0000000+00:00</time></trkpt><trkpt lat="22.036434" lon="104.00222"><ele>534.5</ele><time>2011-04-26T06:14:55.0000000+00:00</time></trkpt><trkpt lat="22.036432" lon="104.002228"><ele>534.5</ele><time>2011-04-26T06:15:00.0000000+00:00</time></trkpt><trkpt lat="22.036432" lon="104.002228"><ele>534.5</ele><time>2011-04-26T06:15:05.0000000+00:00</time></trkpt><trkpt lat="22.036432" lon="104.002235"><ele>534.5</ele><time>2011-04-26T06:15:10.0000000+00:00</time></trkpt><trkpt lat="22.03643" lon="104.002235"><ele>534.5</ele><time>2011-04-26T06:15:15.0000000+00:00</time></trkpt><trkpt lat="22.036432" lon="104.002235"><ele>534.5</ele><time>2011-04-26T06:15:20.0000000+00:00</time></trkpt><trkpt lat="22.03643" lon="104.002235"><ele>534.5</ele><time>2011-04-26T06:15:25.0000000+00:00</time></trkpt><trkpt lat="22.03643" lon="104.002243"><ele>534.5</ele><time>2011-04-26T06:15:30.0000000+00:00</time></trkpt><trkpt lat="22.03643" lon="104.002243"><ele>534.5</ele><time>2011-04-26T06:15:35.0000000+00:00</time></trkpt><trkpt lat="22.03643" lon="104.002243"><ele>534.5</ele><time>2011-04-26T06:15:40.0000000+00:00</time></trkpt><trkpt lat="22.03643" lon="104.002243"><ele>534.5</ele><time>2011-04-26T06:15:45.0000000+00:00</time></trkpt><trkpt lat="22.03643" lon="104.002243"><ele>534.5</ele><time>2011-04-26T06:15:50.0000000+00:00</time></trkpt><trkpt lat="22.036428" lon="104.002243"><ele>534.5</ele><time>2011-04-26T06:15:55.0000000+00:00</time></trkpt><trkpt lat="22.03643" lon="104.002243"><ele>534.5</ele><time>2011-04-26T06:16:00.0000000+00:00</time></trkpt><trkpt lat="22.03643" lon="104.002243"><ele>534.5</ele><time>2011-04-26T06:16:05.0000000+00:00</time></trkpt><trkpt lat="22.03643" lon="104.002243"><ele>534.4</ele><time>2011-04-26T06:16:10.0000000+00:00</time></trkpt><trkpt lat="22.03643" lon="104.002243"><ele>534.4</ele><time>2011-04-26T06:16:15.0000000+00:00</time></trkpt><trkpt lat="22.03643" lon="104.002243"><ele>534.4</ele><time>2011-04-26T06:16:20.0000000+00:00</time></trkpt><trkpt lat="22.03643" lon="104.002243"><ele>534.4</ele><time>2011-04-26T06:16:25.0000000+00:00</time></trkpt><trkpt lat="22.03643" lon="104.002243"><ele>534.4</ele><time>2011-04-26T06:16:30.0000000+00:00</time></trkpt><trkpt lat="22.03643" lon="104.002243"><ele>534.4</ele><time>2011-04-26T06:16:35.0000000+00:00</time></trkpt><trkpt lat="22.036428" lon="104.002251"><ele>534.4</ele><time>2011-04-26T06:16:40.0000000+00:00</time></trkpt><trkpt lat="22.036427" lon="104.002258"><ele>534.4</ele><time>2011-04-26T06:16:45.0000000+00:00</time></trkpt><trkpt lat="22.036427" lon="104.002266"><ele>534.4</ele><time>2011-04-26T06:16:50.0000000+00:00</time></trkpt><trkpt lat="22.036427" lon="104.002266"><ele>534.4</ele><time>2011-04-26T06:16:55.0000000+00:00</time></trkpt><trkpt lat="22.036425" lon="104.002266"><ele>534.4</ele><time>2011-04-26T06:17:00.0000000+00:00</time></trkpt><trkpt lat="22.036425" lon="104.002266"><ele>534.4</ele><time>2011-04-26T06:17:05.0000000+00:00</time></trkpt><trkpt lat="22.036427" lon="104.002266"><ele>534.4</ele><time>2011-04-26T06:17:10.0000000+00:00</time></trkpt><trkpt lat="22.036427" lon="104.002266"><ele>534.3</ele><time>2011-04-26T06:17:15.0000000+00:00</time></trkpt><trkpt lat="22.036427" lon="104.002266"><ele>534.3</ele><time>2011-04-26T06:17:20.0000000+00:00</time></trkpt><trkpt lat="22.036427" lon="104.002266"><ele>534.3</ele><time>2011-04-26T06:17:25.0000000+00:00</time></trkpt><trkpt lat="22.036425" lon="104.002266"><ele>534.3</ele><time>2011-04-26T06:17:30.0000000+00:00</time></trkpt><trkpt lat="22.036427" lon="104.002266"><ele>534.3</ele><time>2011-04-26T06:17:35.0000000+00:00</time></trkpt><trkpt lat="22.036432" lon="104.002266"><ele>534.3</ele><time>2011-04-26T06:17:40.0000000+00:00</time></trkpt><trkpt lat="22.036436" lon="104.002274"><ele>534.3</ele><time>2011-04-26T06:17:45.0000000+00:00</time></trkpt><trkpt lat="22.03644" lon="104.002266"><ele>534.3</ele><time>2011-04-26T06:17:50.0000000+00:00</time></trkpt><trkpt lat="22.036446" lon="104.002251"><ele>534.2</ele><time>2011-04-26T06:17:55.0000000+00:00</time></trkpt><trkpt lat="22.036448" lon="104.002251"><ele>534.2</ele><time>2011-04-26T06:18:00.0000000+00:00</time></trkpt><trkpt lat="22.036453" lon="104.002251"><ele>534.1</ele><time>2011-04-26T06:18:05.0000000+00:00</time></trkpt><trkpt lat="22.036461" lon="104.002251"><ele>534.1</ele><time>2011-04-26T06:18:10.0000000+00:00</time></trkpt><trkpt lat="22.036469" lon="104.002251"><ele>534.2</ele><time>2011-04-26T06:18:15.0000000+00:00</time></trkpt><trkpt lat="22.036472" lon="104.002251"><ele>534.2</ele><time>2011-04-26T06:18:20.0000000+00:00</time></trkpt><trkpt lat="22.036474" lon="104.002251"><ele>534.2</ele><time>2011-04-26T06:18:25.0000000+00:00</time></trkpt><trkpt lat="22.036478" lon="104.002243"><ele>534.3</ele><time>2011-04-26T06:18:30.0000000+00:00</time></trkpt><trkpt lat="22.036478" lon="104.002243"><ele>534.3</ele><time>2011-04-26T06:18:35.0000000+00:00</time></trkpt><trkpt lat="22.03648" lon="104.002251"><ele>534.4</ele><time>2011-04-26T06:18:40.0000000+00:00</time></trkpt><trkpt lat="22.03648" lon="104.002251"><ele>534.3</ele><time>2011-04-26T06:18:45.0000000+00:00</time></trkpt><trkpt lat="22.036478" lon="104.002251"><ele>534.3</ele><time>2011-04-26T06:18:50.0000000+00:00</time></trkpt><trkpt lat="22.03648" lon="104.002258"><ele>534.3</ele><time>2011-04-26T06:18:55.0000000+00:00</time></trkpt><trkpt lat="22.036484" lon="104.002258"><ele>534.3</ele><time>2011-04-26T06:19:00.0000000+00:00</time></trkpt><trkpt lat="22.036484" lon="104.002258"><ele>534.3</ele><time>2011-04-26T06:19:05.0000000+00:00</time></trkpt><trkpt lat="22.036484" lon="104.002258"><ele>534.2</ele><time>2011-04-26T06:19:10.0000000+00:00</time></trkpt><trkpt lat="22.036486" lon="104.002266"><ele>534.1</ele><time>2011-04-26T06:19:15.0000000+00:00</time></trkpt><trkpt lat="22.036486" lon="104.002266"><ele>534.1</ele><time>2011-04-26T06:19:20.0000000+00:00</time></trkpt><trkpt lat="22.036486" lon="104.002266"><ele>534.0</ele><time>2011-04-26T06:19:25.0000000+00:00</time></trkpt><trkpt lat="22.036488" lon="104.002266"><ele>533.9</ele><time>2011-04-26T06:19:30.0000000+00:00</time></trkpt><trkpt lat="22.036491" lon="104.002266"><ele>533.9</ele><time>2011-04-26T06:19:35.0000000+00:00</time></trkpt><trkpt lat="22.036489" lon="104.002258"><ele>533.9</ele><time>2011-04-26T06:19:40.0000000+00:00</time></trkpt><trkpt lat="22.036491" lon="104.002235"><ele>533.5</ele><time>2011-04-26T06:19:45.0000000+00:00</time></trkpt><trkpt lat="22.036484" lon="104.00222"><ele>533.4</ele><time>2011-04-26T06:19:50.0000000+00:00</time></trkpt><trkpt lat="22.036461" lon="104.002113"><ele>532.2</ele><time>2011-04-26T06:19:55.0000000+00:00</time></trkpt><trkpt lat="22.036512" lon="104.002075"><ele>532.4</ele><time>2011-04-26T06:20:00.0000000+00:00</time></trkpt><trkpt lat="22.036556" lon="104.002045"><ele>532.9</ele><time>2011-04-26T06:20:05.0000000+00:00</time></trkpt><trkpt lat="22.036579" lon="104.002029"><ele>531.9</ele><time>2011-04-26T06:20:10.0000000+00:00</time></trkpt><trkpt lat="22.036556" lon="104.002022"><ele>532.0</ele><time>2011-04-26T06:20:15.0000000+00:00</time></trkpt><trkpt lat="22.036533" lon="104.002014"><ele>532.3</ele><time>2011-04-26T06:20:20.0000000+00:00</time></trkpt><trkpt lat="22.036541" lon="104.002037"><ele>531.5</ele><time>2011-04-26T06:20:25.0000000+00:00</time></trkpt><trkpt lat="22.036541" lon="104.002045"><ele>531.5</ele><time>2011-04-26T06:20:30.0000000+00:00</time></trkpt><trkpt lat="22.036545" lon="104.002037"><ele>531.5</ele><time>2011-04-26T06:20:35.0000000+00:00</time></trkpt><trkpt lat="22.036509" lon="104.002014"><ele>531.8</ele><time>2011-04-26T06:20:40.0000000+00:00</time></trkpt><trkpt lat="22.036501" lon="104.002007"><ele>531.6</ele><time>2011-04-26T06:20:45.0000000+00:00</time></trkpt><trkpt lat="22.036503" lon="104.001991"><ele>530.6</ele><time>2011-04-26T06:20:50.0000000+00:00</time></trkpt><trkpt lat="22.036501" lon="104.001991"><ele>530.6</ele><time>2011-04-26T06:20:55.0000000+00:00</time></trkpt><trkpt lat="22.036499" lon="104.001999"><ele>530.5</ele><time>2011-04-26T06:21:00.0000000+00:00</time></trkpt><trkpt lat="22.036497" lon="104.001984"><ele>527.3</ele><time>2011-04-26T06:21:05.0000000+00:00</time></trkpt><trkpt lat="22.036499" lon="104.001999"><ele>527.3</ele><time>2011-04-26T06:21:10.0000000+00:00</time></trkpt><trkpt lat="22.036501" lon="104.002007"><ele>527.2</ele><time>2011-04-26T06:21:15.0000000+00:00</time></trkpt><trkpt lat="22.036505" lon="104.002029"><ele>527.2</ele><time>2011-04-26T06:21:20.0000000+00:00</time></trkpt><trkpt lat="22.036505" lon="104.002037"><ele>527.8</ele><time>2011-04-26T06:21:25.0000000+00:00</time></trkpt><trkpt lat="22.036505" lon="104.002037"><ele>527.9</ele><time>2011-04-26T06:21:30.0000000+00:00</time></trkpt><trkpt lat="22.036505" lon="104.002037"><ele>528.0</ele><time>2011-04-26T06:21:35.0000000+00:00</time></trkpt><trkpt lat="22.036507" lon="104.002037"><ele>528.1</ele><time>2011-04-26T06:21:40.0000000+00:00</time></trkpt><trkpt lat="22.036507" lon="104.002045"><ele>528.2</ele><time>2011-04-26T06:21:45.0000000+00:00</time></trkpt><trkpt lat="22.03651" lon="104.002052"><ele>528.3</ele><time>2011-04-26T06:21:50.0000000+00:00</time></trkpt><trkpt lat="22.036512" lon="104.00206"><ele>528.3</ele><time>2011-04-26T06:21:55.0000000+00:00</time></trkpt><trkpt lat="22.036514" lon="104.002068"><ele>528.4</ele><time>2011-04-26T06:22:00.0000000+00:00</time></trkpt><trkpt lat="22.036518" lon="104.002075"><ele>528.4</ele><time>2011-04-26T06:22:05.0000000+00:00</time></trkpt><trkpt lat="22.036514" lon="104.002083"><ele>528.4</ele><time>2011-04-26T06:22:10.0000000+00:00</time></trkpt><trkpt lat="22.036512" lon="104.002083"><ele>528.5</ele><time>2011-04-26T06:22:15.0000000+00:00</time></trkpt><trkpt lat="22.036509" lon="104.002083"><ele>528.6</ele><time>2011-04-26T06:22:20.0000000+00:00</time></trkpt><trkpt lat="22.036509" lon="104.002083"><ele>528.7</ele><time>2011-04-26T06:22:25.0000000+00:00</time></trkpt><trkpt lat="22.03651" lon="104.002083"><ele>528.7</ele><time>2011-04-26T06:22:30.0000000+00:00</time></trkpt><trkpt lat="22.036512" lon="104.00209"><ele>528.8</ele><time>2011-04-26T06:22:35.0000000+00:00</time></trkpt><trkpt lat="22.036516" lon="104.002098"><ele>528.9</ele><time>2011-04-26T06:22:40.0000000+00:00</time></trkpt><trkpt lat="22.036528" lon="104.002113"><ele>526.8</ele><time>2011-04-26T06:22:45.0000000+00:00</time></trkpt><trkpt lat="22.036537" lon="104.002129"><ele>525.1</ele><time>2011-04-26T06:22:50.0000000+00:00</time></trkpt><trkpt lat="22.036554" lon="104.002144"><ele>524.1</ele><time>2011-04-26T06:22:55.0000000+00:00</time></trkpt><trkpt lat="22.036558" lon="104.002151"><ele>523.8</ele><time>2011-04-26T06:23:00.0000000+00:00</time></trkpt><trkpt lat="22.036562" lon="104.002167"><ele>523.7</ele><time>2011-04-26T06:23:05.0000000+00:00</time></trkpt><trkpt lat="22.036564" lon="104.002174"><ele>523.5</ele><time>2011-04-26T06:23:10.0000000+00:00</time></trkpt><trkpt lat="22.036562" lon="104.002167"><ele>523.3</ele><time>2011-04-26T06:23:15.0000000+00:00</time></trkpt><trkpt lat="22.036558" lon="104.002159"><ele>523.2</ele><time>2011-04-26T06:23:20.0000000+00:00</time></trkpt><trkpt lat="22.036554" lon="104.002151"><ele>523.1</ele><time>2011-04-26T06:23:25.0000000+00:00</time></trkpt><trkpt lat="22.036552" lon="104.002144"><ele>521.4</ele><time>2011-04-26T06:23:30.0000000+00:00</time></trkpt><trkpt lat="22.036543" lon="104.002121"><ele>520.6</ele><time>2011-04-26T06:23:35.0000000+00:00</time></trkpt><trkpt lat="22.036539" lon="104.002113"><ele>520.3</ele><time>2011-04-26T06:23:40.0000000+00:00</time></trkpt><trkpt lat="22.036535" lon="104.002106"><ele>519.8</ele><time>2011-04-26T06:23:45.0000000+00:00</time></trkpt><trkpt lat="22.036531" lon="104.00209"><ele>519.3</ele><time>2011-04-26T06:23:50.0000000+00:00</time></trkpt><trkpt lat="22.036518" lon="104.002045"><ele>518.4</ele><time>2011-04-26T06:23:55.0000000+00:00</time></trkpt><trkpt lat="22.036482" lon="104.001968"><ele>516.6</ele><time>2011-04-26T06:24:00.0000000+00:00</time></trkpt><trkpt lat="22.036474" lon="104.001938"><ele>515.7</ele><time>2011-04-26T06:24:05.0000000+00:00</time></trkpt><trkpt lat="22.036469" lon="104.001938"><ele>515.3</ele><time>2011-04-26T06:24:10.0000000+00:00</time></trkpt><trkpt lat="22.036472" lon="104.001953"><ele>514.8</ele><time>2011-04-26T06:24:15.0000000+00:00</time></trkpt><trkpt lat="22.036469" lon="104.001945"><ele>514.2</ele><time>2011-04-26T06:24:20.0000000+00:00</time></trkpt><trkpt lat="22.036467" lon="104.001938"><ele>513.7</ele><time>2011-04-26T06:24:25.0000000+00:00</time></trkpt><trkpt lat="22.036469" lon="104.001938"><ele>513.2</ele><time>2011-04-26T06:24:30.0000000+00:00</time></trkpt><trkpt lat="22.036501" lon="104.002007"><ele>512.9</ele><time>2011-04-26T06:24:35.0000000+00:00</time></trkpt><trkpt lat="22.036522" lon="104.002075"><ele>512.8</ele><time>2011-04-26T06:24:40.0000000+00:00</time></trkpt><trkpt lat="22.036535" lon="104.002075"><ele>512.4</ele><time>2011-04-26T06:24:45.0000000+00:00</time></trkpt><trkpt lat="22.036539" lon="104.00209"><ele>511.9</ele><time>2011-04-26T06:24:50.0000000+00:00</time></trkpt><trkpt lat="22.03653" lon="104.002098"><ele>511.3</ele><time>2011-04-26T06:24:55.0000000+00:00</time></trkpt><trkpt lat="22.036518" lon="104.002098"><ele>510.6</ele><time>2011-04-26T06:25:00.0000000+00:00</time></trkpt><trkpt lat="22.036512" lon="104.002098"><ele>510.0</ele><time>2011-04-26T06:25:05.0000000+00:00</time></trkpt><trkpt lat="22.03651" lon="104.002106"><ele>509.5</ele><time>2011-04-26T06:25:10.0000000+00:00</time></trkpt><trkpt lat="22.036507" lon="104.002106"><ele>509.0</ele><time>2011-04-26T06:25:15.0000000+00:00</time></trkpt><trkpt lat="22.036507" lon="104.002106"><ele>508.5</ele><time>2011-04-26T06:25:20.0000000+00:00</time></trkpt><trkpt lat="22.036505" lon="104.002106"><ele>508.0</ele><time>2011-04-26T06:25:25.0000000+00:00</time></trkpt><trkpt lat="22.036505" lon="104.002106"><ele>507.5</ele><time>2011-04-26T06:25:30.0000000+00:00</time></trkpt><trkpt lat="22.036507" lon="104.002098"><ele>507.0</ele><time>2011-04-26T06:25:35.0000000+00:00</time></trkpt><trkpt lat="22.03651" lon="104.00209"><ele>506.5</ele><time>2011-04-26T06:25:40.0000000+00:00</time></trkpt><trkpt lat="22.036514" lon="104.002075"><ele>506.1</ele><time>2011-04-26T06:25:45.0000000+00:00</time></trkpt><trkpt lat="22.036528" lon="104.002052"><ele>505.6</ele><time>2011-04-26T06:25:50.0000000+00:00</time></trkpt><trkpt lat="22.036535" lon="104.002037"><ele>505.1</ele><time>2011-04-26T06:25:55.0000000+00:00</time></trkpt><trkpt lat="22.036543" lon="104.002029"><ele>504.6</ele><time>2011-04-26T06:26:00.0000000+00:00</time></trkpt><trkpt lat="22.036554" lon="104.002029"><ele>504.2</ele><time>2011-04-26T06:26:05.0000000+00:00</time></trkpt><trkpt lat="22.036564" lon="104.002022"><ele>503.7</ele><time>2011-04-26T06:26:10.0000000+00:00</time></trkpt><trkpt lat="22.036572" lon="104.002022"><ele>503.3</ele><time>2011-04-26T06:26:15.0000000+00:00</time></trkpt><trkpt lat="22.036577" lon="104.002014"><ele>502.8</ele><time>2011-04-26T06:26:20.0000000+00:00</time></trkpt><trkpt lat="22.036585" lon="104.002014"><ele>502.3</ele><time>2011-04-26T06:26:25.0000000+00:00</time></trkpt><trkpt lat="22.036589" lon="104.002014"><ele>501.9</ele><time>2011-04-26T06:26:30.0000000+00:00</time></trkpt><trkpt lat="22.036589" lon="104.002014"><ele>501.4</ele><time>2011-04-26T06:26:35.0000000+00:00</time></trkpt><trkpt lat="22.036583" lon="104.002014"><ele>501.0</ele><time>2011-04-26T06:26:40.0000000+00:00</time></trkpt><trkpt lat="22.036577" lon="104.002014"><ele>500.5</ele><time>2011-04-26T06:26:45.0000000+00:00</time></trkpt><trkpt lat="22.03657" lon="104.002022"><ele>500.1</ele><time>2011-04-26T06:26:50.0000000+00:00</time></trkpt><trkpt lat="22.036564" lon="104.002029"><ele>499.6</ele><time>2011-04-26T06:26:55.0000000+00:00</time></trkpt><trkpt lat="22.036564" lon="104.002037"><ele>499.2</ele><time>2011-04-26T06:27:00.0000000+00:00</time></trkpt><trkpt lat="22.036566" lon="104.002045"><ele>498.8</ele><time>2011-04-26T06:27:05.0000000+00:00</time></trkpt><trkpt lat="22.036568" lon="104.002052"><ele>498.3</ele><time>2011-04-26T06:27:10.0000000+00:00</time></trkpt><trkpt lat="22.036572" lon="104.002045"><ele>497.9</ele><time>2011-04-26T06:27:15.0000000+00:00</time></trkpt><trkpt lat="22.036575" lon="104.002045"><ele>497.5</ele><time>2011-04-26T06:27:20.0000000+00:00</time></trkpt><trkpt lat="22.036577" lon="104.002037"><ele>497.0</ele><time>2011-04-26T06:27:25.0000000+00:00</time></trkpt><trkpt lat="22.036581" lon="104.002037"><ele>496.6</ele><time>2011-04-26T06:27:30.0000000+00:00</time></trkpt><trkpt lat="22.036585" lon="104.002029"><ele>496.2</ele><time>2011-04-26T06:27:35.0000000+00:00</time></trkpt><trkpt lat="22.036587" lon="104.002029"><ele>495.7</ele><time>2011-04-26T06:27:40.0000000+00:00</time></trkpt><trkpt lat="22.036589" lon="104.002029"><ele>495.3</ele><time>2011-04-26T06:27:45.0000000+00:00</time></trkpt><trkpt lat="22.036587" lon="104.002029"><ele>494.9</ele><time>2011-04-26T06:27:50.0000000+00:00</time></trkpt><trkpt lat="22.036581" lon="104.002037"><ele>494.5</ele><time>2011-04-26T06:27:55.0000000+00:00</time></trkpt><trkpt lat="22.036573" lon="104.002037"><ele>494.1</ele><time>2011-04-26T06:28:00.0000000+00:00</time></trkpt><trkpt lat="22.03656" lon="104.002037"><ele>493.6</ele><time>2011-04-26T06:28:05.0000000+00:00</time></trkpt><trkpt lat="22.036545" lon="104.002037"><ele>493.2</ele><time>2011-04-26T06:28:10.0000000+00:00</time></trkpt><trkpt lat="22.036531" lon="104.002037"><ele>493.0</ele><time>2011-04-26T06:28:15.0000000+00:00</time></trkpt><trkpt lat="22.03652" lon="104.002037"><ele>492.6</ele><time>2011-04-26T06:28:20.0000000+00:00</time></trkpt><trkpt lat="22.036512" lon="104.002037"><ele>492.2</ele><time>2011-04-26T06:28:25.0000000+00:00</time></trkpt><trkpt lat="22.036509" lon="104.002037"><ele>491.8</ele><time>2011-04-26T06:28:30.0000000+00:00</time></trkpt><trkpt lat="22.036512" lon="104.002045"><ele>491.4</ele><time>2011-04-26T06:28:35.0000000+00:00</time></trkpt><trkpt lat="22.03652" lon="104.002052"><ele>491.0</ele><time>2011-04-26T06:28:40.0000000+00:00</time></trkpt><trkpt lat="22.036528" lon="104.002052"><ele>490.6</ele><time>2011-04-26T06:28:45.0000000+00:00</time></trkpt><trkpt lat="22.036537" lon="104.00206"><ele>490.2</ele><time>2011-04-26T06:28:50.0000000+00:00</time></trkpt><trkpt lat="22.036545" lon="104.00206"><ele>489.9</ele><time>2011-04-26T06:28:55.0000000+00:00</time></trkpt><trkpt lat="22.036552" lon="104.002052"><ele>489.5</ele><time>2011-04-26T06:29:00.0000000+00:00</time></trkpt><trkpt lat="22.036554" lon="104.002052"><ele>489.1</ele><time>2011-04-26T06:29:05.0000000+00:00</time></trkpt><trkpt lat="22.036552" lon="104.002045"><ele>488.7</ele><time>2011-04-26T06:29:10.0000000+00:00</time></trkpt><trkpt lat="22.036551" lon="104.002045"><ele>488.3</ele><time>2011-04-26T06:29:15.0000000+00:00</time></trkpt><trkpt lat="22.036552" lon="104.002045"><ele>488.0</ele><time>2011-04-26T06:29:20.0000000+00:00</time></trkpt><trkpt lat="22.036552" lon="104.002045"><ele>487.6</ele><time>2011-04-26T06:29:25.0000000+00:00</time></trkpt><trkpt lat="22.036552" lon="104.002037"><ele>487.2</ele><time>2011-04-26T06:29:30.0000000+00:00</time></trkpt><trkpt lat="22.036545" lon="104.002037"><ele>486.9</ele><time>2011-04-26T06:29:35.0000000+00:00</time></trkpt><trkpt lat="22.036535" lon="104.002037"><ele>486.5</ele><time>2011-04-26T06:29:40.0000000+00:00</time></trkpt><trkpt lat="22.03653" lon="104.002037"><ele>486.1</ele><time>2011-04-26T06:29:45.0000000+00:00</time></trkpt><trkpt lat="22.036526" lon="104.002037"><ele>485.8</ele><time>2011-04-26T06:29:50.0000000+00:00</time></trkpt><trkpt lat="22.036524" lon="104.002029"><ele>485.4</ele><time>2011-04-26T06:29:55.0000000+00:00</time></trkpt><trkpt lat="22.036524" lon="104.002022"><ele>485.0</ele><time>2011-04-26T06:30:00.0000000+00:00</time></trkpt><trkpt lat="22.036528" lon="104.002014"><ele>484.7</ele><time>2011-04-26T06:30:05.0000000+00:00</time></trkpt><trkpt lat="22.036533" lon="104.002007"><ele>484.3</ele><time>2011-04-26T06:30:10.0000000+00:00</time></trkpt><trkpt lat="22.036537" lon="104.002007"><ele>483.9</ele><time>2011-04-26T06:30:15.0000000+00:00</time></trkpt><trkpt lat="22.036541" lon="104.001999"><ele>483.6</ele><time>2011-04-26T06:30:20.0000000+00:00</time></trkpt><trkpt lat="22.036549" lon="104.001999"><ele>483.2</ele><time>2011-04-26T06:30:25.0000000+00:00</time></trkpt><trkpt lat="22.036554" lon="104.001991"><ele>482.9</ele><time>2011-04-26T06:30:30.0000000+00:00</time></trkpt><trkpt lat="22.036564" lon="104.001991"><ele>482.6</ele><time>2011-04-26T06:30:35.0000000+00:00</time></trkpt><trkpt lat="22.036572" lon="104.001991"><ele>482.2</ele><time>2011-04-26T06:30:40.0000000+00:00</time></trkpt><trkpt lat="22.036577" lon="104.001991"><ele>481.9</ele><time>2011-04-26T06:30:45.0000000+00:00</time></trkpt><trkpt lat="22.036579" lon="104.001991"><ele>481.6</ele><time>2011-04-26T06:30:50.0000000+00:00</time></trkpt><trkpt lat="22.036579" lon="104.001991"><ele>481.2</ele><time>2011-04-26T06:30:55.0000000+00:00</time></trkpt><trkpt lat="22.036579" lon="104.001991"><ele>480.9</ele><time>2011-04-26T06:31:00.0000000+00:00</time></trkpt><trkpt lat="22.036577" lon="104.001991"><ele>480.6</ele><time>2011-04-26T06:31:05.0000000+00:00</time></trkpt><trkpt lat="22.036572" lon="104.001991"><ele>480.2</ele><time>2011-04-26T06:31:10.0000000+00:00</time></trkpt><trkpt lat="22.036568" lon="104.001991"><ele>479.9</ele><time>2011-04-26T06:31:15.0000000+00:00</time></trkpt><trkpt lat="22.036562" lon="104.001991"><ele>479.6</ele><time>2011-04-26T06:31:20.0000000+00:00</time></trkpt><trkpt lat="22.036552" lon="104.001984"><ele>479.2</ele><time>2011-04-26T06:31:25.0000000+00:00</time></trkpt><trkpt lat="22.036545" lon="104.001984"><ele>478.9</ele><time>2011-04-26T06:31:30.0000000+00:00</time></trkpt><trkpt lat="22.036541" lon="104.001984"><ele>478.6</ele><time>2011-04-26T06:31:35.0000000+00:00</time></trkpt><trkpt lat="22.036541" lon="104.001976"><ele>478.3</ele><time>2011-04-26T06:31:40.0000000+00:00</time></trkpt><trkpt lat="22.036539" lon="104.001984"><ele>478.0</ele><time>2011-04-26T06:31:45.0000000+00:00</time></trkpt><trkpt lat="22.036537" lon="104.001984"><ele>477.7</ele><time>2011-04-26T06:31:50.0000000+00:00</time></trkpt><trkpt lat="22.036537" lon="104.001984"><ele>477.4</ele><time>2011-04-26T06:31:55.0000000+00:00</time></trkpt><trkpt lat="22.036541" lon="104.001984"><ele>477.1</ele><time>2011-04-26T06:32:00.0000000+00:00</time></trkpt><trkpt lat="22.036547" lon="104.001984"><ele>476.7</ele><time>2011-04-26T06:32:05.0000000+00:00</time></trkpt><trkpt lat="22.036552" lon="104.001984"><ele>476.4</ele><time>2011-04-26T06:32:10.0000000+00:00</time></trkpt><trkpt lat="22.03656" lon="104.001984"><ele>476.1</ele><time>2011-04-26T06:32:15.0000000+00:00</time></trkpt><trkpt lat="22.03657" lon="104.001976"><ele>475.8</ele><time>2011-04-26T06:32:20.0000000+00:00</time></trkpt><trkpt lat="22.036575" lon="104.001976"><ele>475.5</ele><time>2011-04-26T06:32:25.0000000+00:00</time></trkpt><trkpt lat="22.036575" lon="104.001976"><ele>475.2</ele><time>2011-04-26T06:32:30.0000000+00:00</time></trkpt><trkpt lat="22.036572" lon="104.001976"><ele>474.9</ele><time>2011-04-26T06:32:35.0000000+00:00</time></trkpt><trkpt lat="22.03657" lon="104.001976"><ele>474.6</ele><time>2011-04-26T06:32:40.0000000+00:00</time></trkpt><trkpt lat="22.036564" lon="104.001976"><ele>474.3</ele><time>2011-04-26T06:32:45.0000000+00:00</time></trkpt><trkpt lat="22.036558" lon="104.001976"><ele>474.1</ele><time>2011-04-26T06:32:50.0000000+00:00</time></trkpt><trkpt lat="22.036552" lon="104.001968"><ele>473.8</ele><time>2011-04-26T06:32:55.0000000+00:00</time></trkpt><trkpt lat="22.036543" lon="104.001961"><ele>473.5</ele><time>2011-04-26T06:33:00.0000000+00:00</time></trkpt><trkpt lat="22.036531" lon="104.001961"><ele>473.2</ele><time>2011-04-26T06:33:05.0000000+00:00</time></trkpt><trkpt lat="22.036514" lon="104.001991"><ele>473.2</ele><time>2011-04-26T06:33:10.0000000+00:00</time></trkpt><trkpt lat="22.036512" lon="104.002007"><ele>473.3</ele><time>2011-04-26T06:33:15.0000000+00:00</time></trkpt><trkpt lat="22.036535" lon="104.001999"><ele>472.4</ele><time>2011-04-26T06:33:20.0000000+00:00</time></trkpt><trkpt lat="22.036537" lon="104.001999"><ele>472.1</ele><time>2011-04-26T06:33:25.0000000+00:00</time></trkpt><trkpt lat="22.036539" lon="104.001991"><ele>471.9</ele><time>2011-04-26T06:33:30.0000000+00:00</time></trkpt><trkpt lat="22.036539" lon="104.001991"><ele>471.6</ele><time>2011-04-26T06:33:35.0000000+00:00</time></trkpt><trkpt lat="22.036537" lon="104.001984"><ele>471.4</ele><time>2011-04-26T06:33:40.0000000+00:00</time></trkpt><trkpt lat="22.036577" lon="104.001915"><ele>474.0</ele><time>2011-04-26T06:33:45.0000000+00:00</time></trkpt><trkpt lat="22.036573" lon="104.001877"><ele>475.1</ele><time>2011-04-26T06:33:50.0000000+00:00</time></trkpt><trkpt lat="22.036562" lon="104.001869"><ele>475.5</ele><time>2011-04-26T06:33:55.0000000+00:00</time></trkpt><trkpt lat="22.036558" lon="104.001862"><ele>475.6</ele><time>2011-04-26T06:34:00.0000000+00:00</time></trkpt><trkpt lat="22.036556" lon="104.001854"><ele>475.3</ele><time>2011-04-26T06:34:05.0000000+00:00</time></trkpt><trkpt lat="22.036556" lon="104.001854"><ele>475.1</ele><time>2011-04-26T06:34:10.0000000+00:00</time></trkpt><trkpt lat="22.036558" lon="104.001854"><ele>474.8</ele><time>2011-04-26T06:34:15.0000000+00:00</time></trkpt><trkpt lat="22.036566" lon="104.001862"><ele>474.6</ele><time>2011-04-26T06:34:20.0000000+00:00</time></trkpt><trkpt lat="22.036573" lon="104.001869"><ele>474.3</ele><time>2011-04-26T06:34:25.0000000+00:00</time></trkpt><trkpt lat="22.036581" lon="104.001869"><ele>474.1</ele><time>2011-04-26T06:34:30.0000000+00:00</time></trkpt><trkpt lat="22.036644" lon="104.001953"><ele>478.3</ele><time>2011-04-26T06:34:35.0000000+00:00</time></trkpt><trkpt lat="22.036634" lon="104.001953"><ele>481.9</ele><time>2011-04-26T06:34:40.0000000+00:00</time></trkpt><trkpt lat="22.036615" lon="104.001938"><ele>483.2</ele><time>2011-04-26T06:34:45.0000000+00:00</time></trkpt><trkpt lat="22.036613" lon="104.001938"><ele>483.0</ele><time>2011-04-26T06:34:50.0000000+00:00</time></trkpt><trkpt lat="22.036612" lon="104.001938"><ele>482.9</ele><time>2011-04-26T06:34:55.0000000+00:00</time></trkpt><trkpt lat="22.03661" lon="104.001945"><ele>482.7</ele><time>2011-04-26T06:35:00.0000000+00:00</time></trkpt><trkpt lat="22.03661" lon="104.001945"><ele>482.5</ele><time>2011-04-26T06:35:05.0000000+00:00</time></trkpt><trkpt lat="22.0366" lon="104.001953"><ele>482.3</ele><time>2011-04-26T06:35:10.0000000+00:00</time></trkpt><trkpt lat="22.036591" lon="104.001953"><ele>482.1</ele><time>2011-04-26T06:35:15.0000000+00:00</time></trkpt><trkpt lat="22.03657" lon="104.001953"><ele>483.3</ele><time>2011-04-26T06:35:20.0000000+00:00</time></trkpt><trkpt lat="22.036543" lon="104.001938"><ele>486.8</ele><time>2011-04-26T06:35:25.0000000+00:00</time></trkpt><trkpt lat="22.036533" lon="104.00193"><ele>488.1</ele><time>2011-04-26T06:35:30.0000000+00:00</time></trkpt><trkpt lat="22.03653" lon="104.001923"><ele>488.2</ele><time>2011-04-26T06:35:35.0000000+00:00</time></trkpt><trkpt lat="22.036526" lon="104.001923"><ele>488.3</ele><time>2011-04-26T06:35:40.0000000+00:00</time></trkpt><trkpt lat="22.036524" lon="104.001915"><ele>488.4</ele><time>2011-04-26T06:35:45.0000000+00:00</time></trkpt><trkpt lat="22.036524" lon="104.001915"><ele>488.5</ele><time>2011-04-26T06:35:50.0000000+00:00</time></trkpt><trkpt lat="22.036524" lon="104.001915"><ele>488.6</ele><time>2011-04-26T06:35:55.0000000+00:00</time></trkpt><trkpt lat="22.036524" lon="104.001923"><ele>488.7</ele><time>2011-04-26T06:36:00.0000000+00:00</time></trkpt><trkpt lat="22.036526" lon="104.001923"><ele>488.8</ele><time>2011-04-26T06:36:05.0000000+00:00</time></trkpt><trkpt lat="22.036528" lon="104.001923"><ele>488.9</ele><time>2011-04-26T06:36:10.0000000+00:00</time></trkpt><trkpt lat="22.036533" lon="104.001938"><ele>489.0</ele><time>2011-04-26T06:36:15.0000000+00:00</time></trkpt><trkpt lat="22.036551" lon="104.001961"><ele>490.1</ele><time>2011-04-26T06:36:20.0000000+00:00</time></trkpt><trkpt lat="22.036554" lon="104.001968"><ele>491.3</ele><time>2011-04-26T06:36:25.0000000+00:00</time></trkpt><trkpt lat="22.03656" lon="104.001976"><ele>491.5</ele><time>2011-04-26T06:36:30.0000000+00:00</time></trkpt><trkpt lat="22.036562" lon="104.001984"><ele>491.6</ele><time>2011-04-26T06:36:35.0000000+00:00</time></trkpt><trkpt lat="22.036558" lon="104.001976"><ele>491.7</ele><time>2011-04-26T06:36:40.0000000+00:00</time></trkpt><trkpt lat="22.036552" lon="104.001976"><ele>491.9</ele><time>2011-04-26T06:36:45.0000000+00:00</time></trkpt><trkpt lat="22.036549" lon="104.001968"><ele>492.1</ele><time>2011-04-26T06:36:50.0000000+00:00</time></trkpt><trkpt lat="22.036549" lon="104.001968"><ele>492.3</ele><time>2011-04-26T06:36:55.0000000+00:00</time></trkpt><trkpt lat="22.036547" lon="104.001976"><ele>492.5</ele><time>2011-04-26T06:37:00.0000000+00:00</time></trkpt><trkpt lat="22.036547" lon="104.001976"><ele>492.7</ele><time>2011-04-26T06:37:05.0000000+00:00</time></trkpt><trkpt lat="22.036545" lon="104.001976"><ele>492.9</ele><time>2011-04-26T06:37:10.0000000+00:00</time></trkpt><trkpt lat="22.036545" lon="104.001976"><ele>493.2</ele><time>2011-04-26T06:37:15.0000000+00:00</time></trkpt><trkpt lat="22.036543" lon="104.001976"><ele>493.4</ele><time>2011-04-26T06:37:20.0000000+00:00</time></trkpt><trkpt lat="22.036541" lon="104.001976"><ele>493.6</ele><time>2011-04-26T06:37:25.0000000+00:00</time></trkpt><trkpt lat="22.036537" lon="104.001976"><ele>493.8</ele><time>2011-04-26T06:37:30.0000000+00:00</time></trkpt><trkpt lat="22.036535" lon="104.001976"><ele>494.0</ele><time>2011-04-26T06:37:35.0000000+00:00</time></trkpt><trkpt lat="22.036533" lon="104.001976"><ele>494.3</ele><time>2011-04-26T06:37:40.0000000+00:00</time></trkpt><trkpt lat="22.036533" lon="104.001976"><ele>494.6</ele><time>2011-04-26T06:37:45.0000000+00:00</time></trkpt><trkpt lat="22.036535" lon="104.001976"><ele>494.9</ele><time>2011-04-26T06:37:50.0000000+00:00</time></trkpt><trkpt lat="22.036535" lon="104.001976"><ele>495.2</ele><time>2011-04-26T06:37:55.0000000+00:00</time></trkpt><trkpt lat="22.036535" lon="104.001976"><ele>495.5</ele><time>2011-04-26T06:38:00.0000000+00:00</time></trkpt><trkpt lat="22.036535" lon="104.001984"><ele>495.9</ele><time>2011-04-26T06:38:05.0000000+00:00</time></trkpt><trkpt lat="22.036535" lon="104.001984"><ele>496.4</ele><time>2011-04-26T06:38:10.0000000+00:00</time></trkpt><trkpt lat="22.036535" lon="104.001991"><ele>496.8</ele><time>2011-04-26T06:38:15.0000000+00:00</time></trkpt><trkpt lat="22.036535" lon="104.001999"><ele>497.2</ele><time>2011-04-26T06:38:20.0000000+00:00</time></trkpt><trkpt lat="22.036533" lon="104.001999"><ele>497.6</ele><time>2011-04-26T06:38:25.0000000+00:00</time></trkpt><trkpt lat="22.036533" lon="104.001999"><ele>498.1</ele><time>2011-04-26T06:38:30.0000000+00:00</time></trkpt><trkpt lat="22.036531" lon="104.002007"><ele>498.5</ele><time>2011-04-26T06:38:35.0000000+00:00</time></trkpt><trkpt lat="22.036531" lon="104.002014"><ele>499.0</ele><time>2011-04-26T06:38:40.0000000+00:00</time></trkpt><trkpt lat="22.03653" lon="104.002014"><ele>499.4</ele><time>2011-04-26T06:38:45.0000000+00:00</time></trkpt><trkpt lat="22.036528" lon="104.002022"><ele>499.9</ele><time>2011-04-26T06:38:50.0000000+00:00</time></trkpt><trkpt lat="22.036528" lon="104.002022"><ele>500.3</ele><time>2011-04-26T06:38:55.0000000+00:00</time></trkpt><trkpt lat="22.036526" lon="104.002029"><ele>500.8</ele><time>2011-04-26T06:39:00.0000000+00:00</time></trkpt><trkpt lat="22.036524" lon="104.002029"><ele>501.2</ele><time>2011-04-26T06:39:05.0000000+00:00</time></trkpt><trkpt lat="22.036524" lon="104.002037"><ele>501.7</ele><time>2011-04-26T06:39:10.0000000+00:00</time></trkpt><trkpt lat="22.036522" lon="104.002037"><ele>502.1</ele><time>2011-04-26T06:39:15.0000000+00:00</time></trkpt><trkpt lat="22.03652" lon="104.002045"><ele>502.6</ele><time>2011-04-26T06:39:20.0000000+00:00</time></trkpt><trkpt lat="22.03652" lon="104.002045"><ele>503.0</ele><time>2011-04-26T06:39:25.0000000+00:00</time></trkpt><trkpt lat="22.03652" lon="104.002045"><ele>503.4</ele><time>2011-04-26T06:39:30.0000000+00:00</time></trkpt><trkpt lat="22.03652" lon="104.002045"><ele>503.7</ele><time>2011-04-26T06:39:35.0000000+00:00</time></trkpt><trkpt lat="22.036524" lon="104.002045"><ele>504.1</ele><time>2011-04-26T06:39:40.0000000+00:00</time></trkpt><trkpt lat="22.036522" lon="104.002037"><ele>504.4</ele><time>2011-04-26T06:39:45.0000000+00:00</time></trkpt><trkpt lat="22.03652" lon="104.002037"><ele>504.8</ele><time>2011-04-26T06:39:50.0000000+00:00</time></trkpt><trkpt lat="22.03652" lon="104.002037"><ele>505.1</ele><time>2011-04-26T06:39:55.0000000+00:00</time></trkpt><trkpt lat="22.036524" lon="104.002037"><ele>505.5</ele><time>2011-04-26T06:40:00.0000000+00:00</time></trkpt><trkpt lat="22.036526" lon="104.002037"><ele>505.9</ele><time>2011-04-26T06:40:05.0000000+00:00</time></trkpt><trkpt lat="22.036526" lon="104.002037"><ele>506.3</ele><time>2011-04-26T06:40:10.0000000+00:00</time></trkpt><trkpt lat="22.036528" lon="104.002037"><ele>506.7</ele><time>2011-04-26T06:40:15.0000000+00:00</time></trkpt><trkpt lat="22.036528" lon="104.002037"><ele>507.0</ele><time>2011-04-26T06:40:20.0000000+00:00</time></trkpt><trkpt lat="22.036528" lon="104.002037"><ele>507.4</ele><time>2011-04-26T06:40:25.0000000+00:00</time></trkpt><trkpt lat="22.036528" lon="104.002037"><ele>507.8</ele><time>2011-04-26T06:40:30.0000000+00:00</time></trkpt><trkpt lat="22.03653" lon="104.002037"><ele>508.2</ele><time>2011-04-26T06:40:35.0000000+00:00</time></trkpt><trkpt lat="22.03653" lon="104.002037"><ele>508.6</ele><time>2011-04-26T06:40:40.0000000+00:00</time></trkpt><trkpt lat="22.036531" lon="104.002037"><ele>509.0</ele><time>2011-04-26T06:40:45.0000000+00:00</time></trkpt><trkpt lat="22.03653" lon="104.002045"><ele>509.5</ele><time>2011-04-26T06:40:50.0000000+00:00</time></trkpt><trkpt lat="22.036524" lon="104.002045"><ele>509.9</ele><time>2011-04-26T06:40:55.0000000+00:00</time></trkpt><trkpt lat="22.036522" lon="104.002045"><ele>510.3</ele><time>2011-04-26T06:41:00.0000000+00:00</time></trkpt><trkpt lat="22.036526" lon="104.002037"><ele>510.7</ele><time>2011-04-26T06:41:05.0000000+00:00</time></trkpt><trkpt lat="22.036526" lon="104.002037"><ele>511.1</ele><time>2011-04-26T06:41:10.0000000+00:00</time></trkpt><trkpt lat="22.036524" lon="104.002037"><ele>511.5</ele><time>2011-04-26T06:41:15.0000000+00:00</time></trkpt><trkpt lat="22.036524" lon="104.002037"><ele>512.0</ele><time>2011-04-26T06:41:20.0000000+00:00</time></trkpt><trkpt lat="22.03652" lon="104.002037"><ele>512.4</ele><time>2011-04-26T06:41:25.0000000+00:00</time></trkpt><trkpt lat="22.03651" lon="104.002029"><ele>512.8</ele><time>2011-04-26T06:41:30.0000000+00:00</time></trkpt><trkpt lat="22.036501" lon="104.002029"><ele>513.2</ele><time>2011-04-26T06:41:35.0000000+00:00</time></trkpt><trkpt lat="22.036488" lon="104.002022"><ele>513.6</ele><time>2011-04-26T06:41:40.0000000+00:00</time></trkpt><trkpt lat="22.036486" lon="104.002068"><ele>513.1</ele><time>2011-04-26T06:41:45.0000000+00:00</time></trkpt><trkpt lat="22.036474" lon="104.002068"><ele>512.9</ele><time>2011-04-26T06:41:50.0000000+00:00</time></trkpt><trkpt lat="22.036467" lon="104.002068"><ele>513.2</ele><time>2011-04-26T06:41:55.0000000+00:00</time></trkpt><trkpt lat="22.036463" lon="104.00206"><ele>513.5</ele><time>2011-04-26T06:42:00.0000000+00:00</time></trkpt><trkpt lat="22.036463" lon="104.00206"><ele>513.8</ele><time>2011-04-26T06:42:05.0000000+00:00</time></trkpt><trkpt lat="22.036472" lon="104.00206"><ele>514.1</ele><time>2011-04-26T06:42:10.0000000+00:00</time></trkpt><trkpt lat="22.036484" lon="104.00206"><ele>514.4</ele><time>2011-04-26T06:42:15.0000000+00:00</time></trkpt><trkpt lat="22.036524" lon="104.00206"><ele>515.1</ele><time>2011-04-26T06:42:20.0000000+00:00</time></trkpt><trkpt lat="22.036528" lon="104.002075"><ele>515.7</ele><time>2011-04-26T06:42:25.0000000+00:00</time></trkpt><trkpt lat="22.036526" lon="104.002083"><ele>516.1</ele><time>2011-04-26T06:42:30.0000000+00:00</time></trkpt><trkpt lat="22.036526" lon="104.002083"><ele>516.4</ele><time>2011-04-26T06:42:35.0000000+00:00</time></trkpt><trkpt lat="22.036526" lon="104.00209"><ele>516.7</ele><time>2011-04-26T06:42:40.0000000+00:00</time></trkpt><trkpt lat="22.036526" lon="104.00209"><ele>517.0</ele><time>2011-04-26T06:42:45.0000000+00:00</time></trkpt><trkpt lat="22.036531" lon="104.002098"><ele>517.4</ele><time>2011-04-26T06:42:50.0000000+00:00</time></trkpt><trkpt lat="22.036623" lon="104.002075"><ele>517.6</ele><time>2011-04-26T06:42:55.0000000+00:00</time></trkpt><trkpt lat="22.036757" lon="104.002098"><ele>518.1</ele><time>2011-04-26T06:43:00.0000000+00:00</time></trkpt><trkpt lat="22.036839" lon="104.002144"><ele>518.6</ele><time>2011-04-26T06:43:05.0000000+00:00</time></trkpt><trkpt lat="22.036852" lon="104.00222"><ele>519.3</ele><time>2011-04-26T06:43:10.0000000+00:00</time></trkpt><trkpt lat="22.03685" lon="104.002266"><ele>519.9</ele><time>2011-04-26T06:43:15.0000000+00:00</time></trkpt><trkpt lat="22.036863" lon="104.002296"><ele>520.3</ele><time>2011-04-26T06:43:20.0000000+00:00</time></trkpt><trkpt lat="22.036892" lon="104.002357"><ele>520.8</ele><time>2011-04-26T06:43:25.0000000+00:00</time></trkpt><trkpt lat="22.03697" lon="104.002426"><ele>521.1</ele><time>2011-04-26T06:43:30.0000000+00:00</time></trkpt><trkpt lat="22.037046" lon="104.002464"><ele>521.6</ele><time>2011-04-26T06:43:35.0000000+00:00</time></trkpt><trkpt lat="22.037127" lon="104.002449"><ele>522.0</ele><time>2011-04-26T06:43:40.0000000+00:00</time></trkpt><trkpt lat="22.037241" lon="104.002411"><ele>521.8</ele><time>2011-04-26T06:43:45.0000000+00:00</time></trkpt><trkpt lat="22.037336" lon="104.00238"><ele>521.3</ele><time>2011-04-26T06:43:50.0000000+00:00</time></trkpt><trkpt lat="22.037395" lon="104.002365"><ele>521.3</ele><time>2011-04-26T06:43:55.0000000+00:00</time></trkpt><trkpt lat="22.037485" lon="104.002365"><ele>521.5</ele><time>2011-04-26T06:44:00.0000000+00:00</time></trkpt><trkpt lat="22.037558" lon="104.002365"><ele>521.6</ele><time>2011-04-26T06:44:05.0000000+00:00</time></trkpt><trkpt lat="22.037647" lon="104.002342"><ele>522.0</ele><time>2011-04-26T06:44:10.0000000+00:00</time></trkpt><trkpt lat="22.037722" lon="104.002342"><ele>521.4</ele><time>2011-04-26T06:44:15.0000000+00:00</time></trkpt><trkpt lat="22.0378" lon="104.002357"><ele>520.1</ele><time>2011-04-26T06:44:20.0000000+00:00</time></trkpt><trkpt lat="22.037874" lon="104.002396"><ele>521.0</ele><time>2011-04-26T06:44:25.0000000+00:00</time></trkpt><trkpt lat="22.03791" lon="104.002464"><ele>522.9</ele><time>2011-04-26T06:44:30.0000000+00:00</time></trkpt><trkpt lat="22.037954" lon="104.002541"><ele>523.8</ele><time>2011-04-26T06:44:35.0000000+00:00</time></trkpt><trkpt lat="22.037966" lon="104.002602"><ele>525.1</ele><time>2011-04-26T06:44:40.0000000+00:00</time></trkpt><trkpt lat="22.03792" lon="104.002663"><ele>526.0</ele><time>2011-04-26T06:44:45.0000000+00:00</time></trkpt><trkpt lat="22.037954" lon="104.002724"><ele>526.7</ele><time>2011-04-26T06:44:50.0000000+00:00</time></trkpt><trkpt lat="22.037981" lon="104.0028"><ele>527.2</ele><time>2011-04-26T06:44:55.0000000+00:00</time></trkpt><trkpt lat="22.038006" lon="104.002869"><ele>527.6</ele><time>2011-04-26T06:45:00.0000000+00:00</time></trkpt><trkpt lat="22.038015" lon="104.002953"><ele>527.9</ele><time>2011-04-26T06:45:05.0000000+00:00</time></trkpt><trkpt lat="22.038013" lon="104.003044"><ele>528.3</ele><time>2011-04-26T06:45:10.0000000+00:00</time></trkpt><trkpt lat="22.038025" lon="104.003113"><ele>528.6</ele><time>2011-04-26T06:45:15.0000000+00:00</time></trkpt><trkpt lat="22.038088" lon="104.003181"><ele>529.0</ele><time>2011-04-26T06:45:20.0000000+00:00</time></trkpt><trkpt lat="22.03816" lon="104.003235"><ele>529.1</ele><time>2011-04-26T06:45:25.0000000+00:00</time></trkpt><trkpt lat="22.038261" lon="104.003304"><ele>529.3</ele><time>2011-04-26T06:45:30.0000000+00:00</time></trkpt><trkpt lat="22.038296" lon="104.003357"><ele>529.4</ele><time>2011-04-26T06:45:35.0000000+00:00</time></trkpt><trkpt lat="22.03829" lon="104.003365"><ele>529.4</ele><time>2011-04-26T06:45:40.0000000+00:00</time></trkpt><trkpt lat="22.038275" lon="104.003372"><ele>529.1</ele><time>2011-04-26T06:45:45.0000000+00:00</time></trkpt><trkpt lat="22.038286" lon="104.003395"><ele>528.7</ele><time>2011-04-26T06:45:50.0000000+00:00</time></trkpt><trkpt lat="22.038374" lon="104.003525"><ele>528.3</ele><time>2011-04-26T06:45:55.0000000+00:00</time></trkpt><trkpt lat="22.038427" lon="104.003662"><ele>527.9</ele><time>2011-04-26T06:46:00.0000000+00:00</time></trkpt><trkpt lat="22.038523" lon="104.003906"><ele>527.1</ele><time>2011-04-26T06:46:05.0000000+00:00</time></trkpt><trkpt lat="22.038584" lon="104.004227"><ele>526.2</ele><time>2011-04-26T06:46:10.0000000+00:00</time></trkpt><trkpt lat="22.038599" lon="104.004623"><ele>525.2</ele><time>2011-04-26T06:46:15.0000000+00:00</time></trkpt><trkpt lat="22.038624" lon="104.005066"><ele>525.0</ele><time>2011-04-26T06:46:20.0000000+00:00</time></trkpt><trkpt lat="22.038649" lon="104.005386"><ele>524.9</ele><time>2011-04-26T06:46:25.0000000+00:00</time></trkpt><trkpt lat="22.038643" lon="104.005638"><ele>525.0</ele><time>2011-04-26T06:46:30.0000000+00:00</time></trkpt><trkpt lat="22.038803" lon="104.005997"><ele>524.9</ele><time>2011-04-26T06:46:35.0000000+00:00</time></trkpt><trkpt lat="22.038853" lon="104.006248"><ele>524.3</ele><time>2011-04-26T06:46:40.0000000+00:00</time></trkpt><trkpt lat="22.038824" lon="104.006531"><ele>523.4</ele><time>2011-04-26T06:46:45.0000000+00:00</time></trkpt><trkpt lat="22.038767" lon="104.006882"><ele>522.5</ele><time>2011-04-26T06:46:50.0000000+00:00</time></trkpt><trkpt lat="22.038776" lon="104.007263"><ele>521.9</ele><time>2011-04-26T06:46:55.0000000+00:00</time></trkpt><trkpt lat="22.038792" lon="104.00769"><ele>521.5</ele><time>2011-04-26T06:47:00.0000000+00:00</time></trkpt><trkpt lat="22.038809" lon="104.007996"><ele>521.1</ele><time>2011-04-26T06:47:05.0000000+00:00</time></trkpt><trkpt lat="22.038832" lon="104.00824"><ele>521.1</ele><time>2011-04-26T06:47:10.0000000+00:00</time></trkpt><trkpt lat="22.038807" lon="104.008392"><ele>521.1</ele><time>2011-04-26T06:47:15.0000000+00:00</time></trkpt><trkpt lat="22.038729" lon="104.008598"><ele>521.3</ele><time>2011-04-26T06:47:20.0000000+00:00</time></trkpt><trkpt lat="22.038633" lon="104.008789"><ele>520.9</ele><time>2011-04-26T06:47:25.0000000+00:00</time></trkpt><trkpt lat="22.038561" lon="104.008972"><ele>520.1</ele><time>2011-04-26T06:47:30.0000000+00:00</time></trkpt><trkpt lat="22.038504" lon="104.009094"><ele>519.8</ele><time>2011-04-26T06:47:35.0000000+00:00</time></trkpt><trkpt lat="22.038439" lon="104.009247"><ele>519.7</ele><time>2011-04-26T06:47:40.0000000+00:00</time></trkpt><trkpt lat="22.03841" lon="104.009422"><ele>519.7</ele><time>2011-04-26T06:47:45.0000000+00:00</time></trkpt><trkpt lat="22.038349" lon="104.009666"><ele>518.7</ele><time>2011-04-26T06:47:50.0000000+00:00</time></trkpt><trkpt lat="22.038202" lon="104.009819"><ele>517.2</ele><time>2011-04-26T06:47:55.0000000+00:00</time></trkpt><trkpt lat="22.037941" lon="104.01004"><ele>515.4</ele><time>2011-04-26T06:48:00.0000000+00:00</time></trkpt><trkpt lat="22.037601" lon="104.010399"><ele>513.3</ele><time>2011-04-26T06:48:05.0000000+00:00</time></trkpt><trkpt lat="22.037357" lon="104.010773"><ele>512.0</ele><time>2011-04-26T06:48:10.0000000+00:00</time></trkpt><trkpt lat="22.037001" lon="104.010941"><ele>510.8</ele><time>2011-04-26T06:48:15.0000000+00:00</time></trkpt><trkpt lat="22.036709" lon="104.011078"><ele>509.7</ele><time>2011-04-26T06:48:20.0000000+00:00</time></trkpt><trkpt lat="22.036469" lon="104.011353"><ele>508.7</ele><time>2011-04-26T06:48:25.0000000+00:00</time></trkpt><trkpt lat="22.036163" lon="104.011642"><ele>507.5</ele><time>2011-04-26T06:48:30.0000000+00:00</time></trkpt><trkpt lat="22.035877" lon="104.012039"><ele>506.1</ele><time>2011-04-26T06:48:35.0000000+00:00</time></trkpt><trkpt lat="22.035627" lon="104.012421"><ele>504.9</ele><time>2011-04-26T06:48:40.0000000+00:00</time></trkpt><trkpt lat="22.03548" lon="104.012688"><ele>504.4</ele><time>2011-04-26T06:48:45.0000000+00:00</time></trkpt><trkpt lat="22.035421" lon="104.012817"><ele>504.0</ele><time>2011-04-26T06:48:50.0000000+00:00</time></trkpt><trkpt lat="22.035389" lon="104.012863"><ele>503.9</ele><time>2011-04-26T06:48:55.0000000+00:00</time></trkpt><trkpt lat="22.035368" lon="104.012924"><ele>503.9</ele><time>2011-04-26T06:49:00.0000000+00:00</time></trkpt><trkpt lat="22.035337" lon="104.012962"><ele>504.1</ele><time>2011-04-26T06:49:05.0000000+00:00</time></trkpt><trkpt lat="22.035318" lon="104.012978"><ele>504.0</ele><time>2011-04-26T06:49:10.0000000+00:00</time></trkpt><trkpt lat="22.035295" lon="104.012985"><ele>503.9</ele><time>2011-04-26T06:49:15.0000000+00:00</time></trkpt><trkpt lat="22.035288" lon="104.012985"><ele>503.7</ele><time>2011-04-26T06:49:20.0000000+00:00</time></trkpt><trkpt lat="22.035292" lon="104.013008"><ele>503.7</ele><time>2011-04-26T06:49:25.0000000+00:00</time></trkpt><trkpt lat="22.035301" lon="104.013077"><ele>503.8</ele><time>2011-04-26T06:49:30.0000000+00:00</time></trkpt><trkpt lat="22.035276" lon="104.013145"><ele>504.0</ele><time>2011-04-26T06:49:35.0000000+00:00</time></trkpt><trkpt lat="22.035263" lon="104.013252"><ele>504.2</ele><time>2011-04-26T06:49:40.0000000+00:00</time></trkpt><trkpt lat="22.035248" lon="104.013382"><ele>504.3</ele><time>2011-04-26T06:49:45.0000000+00:00</time></trkpt><trkpt lat="22.035254" lon="104.013474"><ele>504.7</ele><time>2011-04-26T06:49:50.0000000+00:00</time></trkpt><trkpt lat="22.035238" lon="104.013573"><ele>505.2</ele><time>2011-04-26T06:49:55.0000000+00:00</time></trkpt><trkpt lat="22.035223" lon="104.013641"><ele>505.8</ele><time>2011-04-26T06:50:00.0000000+00:00</time></trkpt><trkpt lat="22.035217" lon="104.013733"><ele>506.1</ele><time>2011-04-26T06:50:05.0000000+00:00</time></trkpt><trkpt lat="22.035233" lon="104.013794"><ele>506.5</ele><time>2011-04-26T06:50:10.0000000+00:00</time></trkpt><trkpt lat="22.0352" lon="104.013878"><ele>506.9</ele><time>2011-04-26T06:50:15.0000000+00:00</time></trkpt><trkpt lat="22.035181" lon="104.013977"><ele>507.3</ele><time>2011-04-26T06:50:20.0000000+00:00</time></trkpt><trkpt lat="22.035173" lon="104.014061"><ele>507.5</ele><time>2011-04-26T06:50:25.0000000+00:00</time></trkpt><trkpt lat="22.035137" lon="104.014183"><ele>507.6</ele><time>2011-04-26T06:50:30.0000000+00:00</time></trkpt><trkpt lat="22.035128" lon="104.014244"><ele>507.8</ele><time>2011-04-26T06:50:35.0000000+00:00</time></trkpt><trkpt lat="22.035109" lon="104.01432"><ele>507.7</ele><time>2011-04-26T06:50:40.0000000+00:00</time></trkpt><trkpt lat="22.035093" lon="104.014397"><ele>507.6</ele><time>2011-04-26T06:50:45.0000000+00:00</time></trkpt><trkpt lat="22.035103" lon="104.014534"><ele>507.4</ele><time>2011-04-26T06:50:50.0000000+00:00</time></trkpt><trkpt lat="22.035101" lon="104.014641"><ele>507.2</ele><time>2011-04-26T06:50:55.0000000+00:00</time></trkpt><trkpt lat="22.035143" lon="104.01474"><ele>507.1</ele><time>2011-04-26T06:51:00.0000000+00:00</time></trkpt><trkpt lat="22.035189" lon="104.014832"><ele>506.8</ele><time>2011-04-26T06:51:05.0000000+00:00</time></trkpt><trkpt lat="22.035231" lon="104.014923"><ele>506.5</ele><time>2011-04-26T06:51:10.0000000+00:00</time></trkpt><trkpt lat="22.03528" lon="104.014992"><ele>505.9</ele><time>2011-04-26T06:51:15.0000000+00:00</time></trkpt><trkpt lat="22.03532" lon="104.015045"><ele>505.5</ele><time>2011-04-26T06:51:20.0000000+00:00</time></trkpt><trkpt lat="22.035324" lon="104.015129"><ele>505.7</ele><time>2011-04-26T06:51:25.0000000+00:00</time></trkpt><trkpt lat="22.035322" lon="104.015228"><ele>506.9</ele><time>2011-04-26T06:51:30.0000000+00:00</time></trkpt><trkpt lat="22.035276" lon="104.01535"><ele>505.5</ele><time>2011-04-26T06:51:35.0000000+00:00</time></trkpt><trkpt lat="22.035215" lon="104.015526"><ele>504.3</ele><time>2011-04-26T06:51:40.0000000+00:00</time></trkpt><trkpt lat="22.035141" lon="104.015739"><ele>503.3</ele><time>2011-04-26T06:51:45.0000000+00:00</time></trkpt><trkpt lat="22.035055" lon="104.016022"><ele>502.6</ele><time>2011-04-26T06:51:50.0000000+00:00</time></trkpt><trkpt lat="22.034973" lon="104.016342"><ele>501.5</ele><time>2011-04-26T06:51:55.0000000+00:00</time></trkpt><trkpt lat="22.034824" lon="104.01664"><ele>501.0</ele><time>2011-04-26T06:52:00.0000000+00:00</time></trkpt><trkpt lat="22.034739" lon="104.016853"><ele>498.4</ele><time>2011-04-26T06:52:05.0000000+00:00</time></trkpt><trkpt lat="22.034691" lon="104.016991"><ele>499.1</ele><time>2011-04-26T06:52:10.0000000+00:00</time></trkpt><trkpt lat="22.034653" lon="104.01709"><ele>500.2</ele><time>2011-04-26T06:52:15.0000000+00:00</time></trkpt><trkpt lat="22.034578" lon="104.017174"><ele>500.2</ele><time>2011-04-26T06:52:20.0000000+00:00</time></trkpt><trkpt lat="22.034477" lon="104.017258"><ele>499.6</ele><time>2011-04-26T06:52:25.0000000+00:00</time></trkpt><trkpt lat="22.034266" lon="104.017273"><ele>500.3</ele><time>2011-04-26T06:52:30.0000000+00:00</time></trkpt><trkpt lat="22.034048" lon="104.017281"><ele>498.7</ele><time>2011-04-26T06:52:35.0000000+00:00</time></trkpt><trkpt lat="22.03393" lon="104.017387"><ele>497.9</ele><time>2011-04-26T06:52:40.0000000+00:00</time></trkpt><trkpt lat="22.03392" lon="104.017433"><ele>497.7</ele><time>2011-04-26T06:52:45.0000000+00:00</time></trkpt><trkpt lat="22.033937" lon="104.017525"><ele>497.2</ele><time>2011-04-26T06:52:50.0000000+00:00</time></trkpt><trkpt lat="22.033939" lon="104.017548"><ele>497.3</ele><time>2011-04-26T06:52:55.0000000+00:00</time></trkpt><trkpt lat="22.033941" lon="104.017548"><ele>497.1</ele><time>2011-04-26T06:53:00.0000000+00:00</time></trkpt><trkpt lat="22.033949" lon="104.01757"><ele>497.2</ele><time>2011-04-26T06:53:05.0000000+00:00</time></trkpt><trkpt lat="22.033947" lon="104.017593"><ele>497.2</ele><time>2011-04-26T06:53:10.0000000+00:00</time></trkpt><trkpt lat="22.03396" lon="104.017609"><ele>497.2</ele><time>2011-04-26T06:53:15.0000000+00:00</time></trkpt><trkpt lat="22.033972" lon="104.017624"><ele>497.2</ele><time>2011-04-26T06:53:20.0000000+00:00</time></trkpt><trkpt lat="22.033978" lon="104.017639"><ele>497.2</ele><time>2011-04-26T06:53:25.0000000+00:00</time></trkpt><trkpt lat="22.03396" lon="104.017677"><ele>497.6</ele><time>2011-04-26T06:53:30.0000000+00:00</time></trkpt><trkpt lat="22.033955" lon="104.017685"><ele>497.7</ele><time>2011-04-26T06:53:35.0000000+00:00</time></trkpt><trkpt lat="22.033974" lon="104.017738"><ele>497.7</ele><time>2011-04-26T06:53:40.0000000+00:00</time></trkpt><trkpt lat="22.034006" lon="104.017807"><ele>497.8</ele><time>2011-04-26T06:53:45.0000000+00:00</time></trkpt><trkpt lat="22.034033" lon="104.017876"><ele>497.8</ele><time>2011-04-26T06:53:50.0000000+00:00</time></trkpt><trkpt lat="22.034016" lon="104.017952"><ele>497.8</ele><time>2011-04-26T06:53:55.0000000+00:00</time></trkpt><trkpt lat="22.033972" lon="104.018044"><ele>497.8</ele><time>2011-04-26T06:54:00.0000000+00:00</time></trkpt><trkpt lat="22.033924" lon="104.018112"><ele>497.9</ele><time>2011-04-26T06:54:05.0000000+00:00</time></trkpt><trkpt lat="22.033895" lon="104.018143"><ele>497.9</ele><time>2011-04-26T06:54:10.0000000+00:00</time></trkpt><trkpt lat="22.03388" lon="104.018188"><ele>497.8</ele><time>2011-04-26T06:54:15.0000000+00:00</time></trkpt><trkpt lat="22.033865" lon="104.018227"><ele>497.7</ele><time>2011-04-26T06:54:20.0000000+00:00</time></trkpt><trkpt lat="22.033796" lon="104.01828"><ele>497.5</ele><time>2011-04-26T06:54:25.0000000+00:00</time></trkpt><trkpt lat="22.033768" lon="104.018333"><ele>497.1</ele><time>2011-04-26T06:54:30.0000000+00:00</time></trkpt><trkpt lat="22.033703" lon="104.018372"><ele>496.8</ele><time>2011-04-26T06:54:35.0000000+00:00</time></trkpt><trkpt lat="22.033642" lon="104.018448"><ele>496.4</ele><time>2011-04-26T06:54:40.0000000+00:00</time></trkpt><trkpt lat="22.033619" lon="104.018509"><ele>495.9</ele><time>2011-04-26T06:54:45.0000000+00:00</time></trkpt><trkpt lat="22.033602" lon="104.018524"><ele>495.6</ele><time>2011-04-26T06:54:50.0000000+00:00</time></trkpt><trkpt lat="22.033566" lon="104.018562"><ele>495.4</ele><time>2011-04-26T06:54:55.0000000+00:00</time></trkpt><trkpt lat="22.033512" lon="104.018639"><ele>494.9</ele><time>2011-04-26T06:55:00.0000000+00:00</time></trkpt><trkpt lat="22.033474" lon="104.0187"><ele>494.5</ele><time>2011-04-26T06:55:05.0000000+00:00</time></trkpt><trkpt lat="22.033438" lon="104.018738"><ele>494.3</ele><time>2011-04-26T06:55:10.0000000+00:00</time></trkpt><trkpt lat="22.033401" lon="104.018799"><ele>493.9</ele><time>2011-04-26T06:55:15.0000000+00:00</time></trkpt><trkpt lat="22.033377" lon="104.018829"><ele>493.9</ele><time>2011-04-26T06:55:20.0000000+00:00</time></trkpt><trkpt lat="22.03334" lon="104.018852"><ele>493.6</ele><time>2011-04-26T06:55:25.0000000+00:00</time></trkpt><trkpt lat="22.03331" lon="104.01889"><ele>493.5</ele><time>2011-04-26T06:55:30.0000000+00:00</time></trkpt><trkpt lat="22.033272" lon="104.018936"><ele>493.3</ele><time>2011-04-26T06:55:35.0000000+00:00</time></trkpt><trkpt lat="22.033224" lon="104.018959"><ele>493.3</ele><time>2011-04-26T06:55:40.0000000+00:00</time></trkpt><trkpt lat="22.033194" lon="104.019005"><ele>493.1</ele><time>2011-04-26T06:55:45.0000000+00:00</time></trkpt><trkpt lat="22.033146" lon="104.019089"><ele>493.0</ele><time>2011-04-26T06:55:50.0000000+00:00</time></trkpt><trkpt lat="22.033083" lon="104.019157"><ele>492.9</ele><time>2011-04-26T06:55:55.0000000+00:00</time></trkpt><trkpt lat="22.033041" lon="104.019249"><ele>492.7</ele><time>2011-04-26T06:56:00.0000000+00:00</time></trkpt><trkpt lat="22.032991" lon="104.019386"><ele>492.3</ele><time>2011-04-26T06:56:05.0000000+00:00</time></trkpt><trkpt lat="22.032936" lon="104.019562"><ele>491.3</ele><time>2011-04-26T06:56:10.0000000+00:00</time></trkpt><trkpt lat="22.032902" lon="104.019669"><ele>490.7</ele><time>2011-04-26T06:56:15.0000000+00:00</time></trkpt><trkpt lat="22.032873" lon="104.019775"><ele>490.1</ele><time>2011-04-26T06:56:20.0000000+00:00</time></trkpt><trkpt lat="22.032822" lon="104.019867"><ele>489.7</ele><time>2011-04-26T06:56:25.0000000+00:00</time></trkpt><trkpt lat="22.032761" lon="104.019974"><ele>489.3</ele><time>2011-04-26T06:56:30.0000000+00:00</time></trkpt><trkpt lat="22.032722" lon="104.020126"><ele>488.3</ele><time>2011-04-26T06:56:35.0000000+00:00</time></trkpt><trkpt lat="22.032724" lon="104.020271"><ele>486.8</ele><time>2011-04-26T06:56:40.0000000+00:00</time></trkpt><trkpt lat="22.032715" lon="104.02034"><ele>485.8</ele><time>2011-04-26T06:56:45.0000000+00:00</time></trkpt><trkpt lat="22.032732" lon="104.020416"><ele>484.7</ele><time>2011-04-26T06:56:50.0000000+00:00</time></trkpt><trkpt lat="22.032722" lon="104.020584"><ele>483.7</ele><time>2011-04-26T06:56:55.0000000+00:00</time></trkpt><trkpt lat="22.032785" lon="104.020821"><ele>482.7</ele><time>2011-04-26T06:57:00.0000000+00:00</time></trkpt><trkpt lat="22.032806" lon="104.021118"><ele>481.3</ele><time>2011-04-26T06:57:05.0000000+00:00</time></trkpt><trkpt lat="22.032808" lon="104.021355"><ele>479.4</ele><time>2011-04-26T06:57:10.0000000+00:00</time></trkpt><trkpt lat="22.033022" lon="104.021599"><ele>477.1</ele><time>2011-04-26T06:57:15.0000000+00:00</time></trkpt><trkpt lat="22.033237" lon="104.021713"><ele>475.2</ele><time>2011-04-26T06:57:20.0000000+00:00</time></trkpt><trkpt lat="22.033274" lon="104.021759"><ele>475.2</ele><time>2011-04-26T06:57:25.0000000+00:00</time></trkpt><trkpt lat="22.033283" lon="104.021759"><ele>475.4</ele><time>2011-04-26T06:57:30.0000000+00:00</time></trkpt><trkpt lat="22.033283" lon="104.021759"><ele>475.3</ele><time>2011-04-26T06:57:35.0000000+00:00</time></trkpt><trkpt lat="22.033285" lon="104.021759"><ele>475.2</ele><time>2011-04-26T06:57:40.0000000+00:00</time></trkpt><trkpt lat="22.033283" lon="104.021767"><ele>475.2</ele><time>2011-04-26T06:57:45.0000000+00:00</time></trkpt><trkpt lat="22.033281" lon="104.021759"><ele>475.2</ele><time>2011-04-26T06:57:50.0000000+00:00</time></trkpt><trkpt lat="22.033346" lon="104.021797"><ele>475.6</ele><time>2011-04-26T06:57:55.0000000+00:00</time></trkpt><trkpt lat="22.03352" lon="104.021935"><ele>475.6</ele><time>2011-04-26T06:58:00.0000000+00:00</time></trkpt><trkpt lat="22.033735" lon="104.022102"><ele>475.0</ele><time>2011-04-26T06:58:05.0000000+00:00</time></trkpt><trkpt lat="22.033957" lon="104.022293"><ele>474.4</ele><time>2011-04-26T06:58:10.0000000+00:00</time></trkpt><trkpt lat="22.034111" lon="104.022636"><ele>473.5</ele><time>2011-04-26T06:58:15.0000000+00:00</time></trkpt><trkpt lat="22.034214" lon="104.023033"><ele>472.7</ele><time>2011-04-26T06:58:20.0000000+00:00</time></trkpt><trkpt lat="22.034369" lon="104.023376"><ele>471.7</ele><time>2011-04-26T06:58:25.0000000+00:00</time></trkpt><trkpt lat="22.034391" lon="104.02372"><ele>471.1</ele><time>2011-04-26T06:58:30.0000000+00:00</time></trkpt><trkpt lat="22.034388" lon="104.024132"><ele>470.1</ele><time>2011-04-26T06:58:35.0000000+00:00</time></trkpt><trkpt lat="22.034445" lon="104.024612"><ele>469.6</ele><time>2011-04-26T06:58:40.0000000+00:00</time></trkpt><trkpt lat="22.034555" lon="104.025093"><ele>470.0</ele><time>2011-04-26T06:58:45.0000000+00:00</time></trkpt><trkpt lat="22.034685" lon="104.025497"><ele>470.5</ele><time>2011-04-26T06:58:50.0000000+00:00</time></trkpt><trkpt lat="22.034765" lon="104.025703"><ele>472.4</ele><time>2011-04-26T06:58:55.0000000+00:00</time></trkpt><trkpt lat="22.034809" lon="104.025856"><ele>472.7</ele><time>2011-04-26T06:59:00.0000000+00:00</time></trkpt><trkpt lat="22.034821" lon="104.025986"><ele>473.1</ele><time>2011-04-26T06:59:05.0000000+00:00</time></trkpt><trkpt lat="22.034908" lon="104.026077"><ele>472.8</ele><time>2011-04-26T06:59:10.0000000+00:00</time></trkpt><trkpt lat="22.034918" lon="104.026077"><ele>472.5</ele><time>2011-04-26T06:59:15.0000000+00:00</time></trkpt><trkpt lat="22.034922" lon="104.026077"><ele>472.2</ele><time>2011-04-26T06:59:20.0000000+00:00</time></trkpt><trkpt lat="22.034927" lon="104.026077"><ele>472.1</ele><time>2011-04-26T06:59:25.0000000+00:00</time></trkpt><trkpt lat="22.034935" lon="104.026093"><ele>472.5</ele><time>2011-04-26T06:59:30.0000000+00:00</time></trkpt><trkpt lat="22.034939" lon="104.0261"><ele>472.6</ele><time>2011-04-26T06:59:35.0000000+00:00</time></trkpt><trkpt lat="22.034941" lon="104.026108"><ele>472.6</ele><time>2011-04-26T06:59:40.0000000+00:00</time></trkpt><trkpt lat="22.034946" lon="104.026115"><ele>472.6</ele><time>2011-04-26T06:59:45.0000000+00:00</time></trkpt><trkpt lat="22.034952" lon="104.026131"><ele>472.6</ele><time>2011-04-26T06:59:50.0000000+00:00</time></trkpt><trkpt lat="22.034956" lon="104.026146"><ele>472.6</ele><time>2011-04-26T06:59:55.0000000+00:00</time></trkpt><trkpt lat="22.034956" lon="104.026169"><ele>472.6</ele><time>2011-04-26T07:00:00.0000000+00:00</time></trkpt><trkpt lat="22.034954" lon="104.026184"><ele>472.6</ele><time>2011-04-26T07:00:05.0000000+00:00</time></trkpt><trkpt lat="22.034956" lon="104.026184"><ele>472.6</ele><time>2011-04-26T07:00:10.0000000+00:00</time></trkpt><trkpt lat="22.03496" lon="104.026184"><ele>472.7</ele><time>2011-04-26T07:00:15.0000000+00:00</time></trkpt><trkpt lat="22.034958" lon="104.026184"><ele>472.7</ele><time>2011-04-26T07:00:20.0000000+00:00</time></trkpt><trkpt lat="22.034954" lon="104.026192"><ele>472.7</ele><time>2011-04-26T07:00:25.0000000+00:00</time></trkpt><trkpt lat="22.034948" lon="104.026199"><ele>472.7</ele><time>2011-04-26T07:00:30.0000000+00:00</time></trkpt><trkpt lat="22.034946" lon="104.026192"><ele>472.8</ele><time>2011-04-26T07:00:35.0000000+00:00</time></trkpt><trkpt lat="22.034954" lon="104.026199"><ele>472.8</ele><time>2011-04-26T07:00:40.0000000+00:00</time></trkpt><trkpt lat="22.034958" lon="104.026199"><ele>472.8</ele><time>2011-04-26T07:00:45.0000000+00:00</time></trkpt><trkpt lat="22.03496" lon="104.026215"><ele>472.9</ele><time>2011-04-26T07:00:50.0000000+00:00</time></trkpt><trkpt lat="22.034943" lon="104.02623"><ele>473.5</ele><time>2011-04-26T07:00:55.0000000+00:00</time></trkpt><trkpt lat="22.034954" lon="104.026245"><ele>474.0</ele><time>2011-04-26T07:01:00.0000000+00:00</time></trkpt><trkpt lat="22.034964" lon="104.026276"><ele>475.6</ele><time>2011-04-26T07:01:05.0000000+00:00</time></trkpt><trkpt lat="22.034966" lon="104.026291"><ele>476.8</ele><time>2011-04-26T07:01:10.0000000+00:00</time></trkpt><trkpt lat="22.034969" lon="104.026283"><ele>477.9</ele><time>2011-04-26T07:01:15.0000000+00:00</time></trkpt><trkpt lat="22.034973" lon="104.026283"><ele>479.2</ele><time>2011-04-26T07:01:20.0000000+00:00</time></trkpt><trkpt lat="22.034966" lon="104.026268"><ele>479.8</ele><time>2011-04-26T07:01:25.0000000+00:00</time></trkpt><trkpt lat="22.034973" lon="104.026268"><ele>480.5</ele><time>2011-04-26T07:01:30.0000000+00:00</time></trkpt><trkpt lat="22.034966" lon="104.026268"><ele>480.4</ele><time>2011-04-26T07:01:35.0000000+00:00</time></trkpt><trkpt lat="22.034975" lon="104.026237"><ele>482.6</ele><time>2011-04-26T07:01:40.0000000+00:00</time></trkpt><trkpt lat="22.034971" lon="104.026237"><ele>482.8</ele><time>2011-04-26T07:01:45.0000000+00:00</time></trkpt><trkpt lat="22.034946" lon="104.026245"><ele>482.7</ele><time>2011-04-26T07:01:50.0000000+00:00</time></trkpt><trkpt lat="22.034935" lon="104.02626"><ele>482.9</ele><time>2011-04-26T07:01:55.0000000+00:00</time></trkpt><trkpt lat="22.034939" lon="104.026268"><ele>482.6</ele><time>2011-04-26T07:02:00.0000000+00:00</time></trkpt><trkpt lat="22.03492" lon="104.026245"><ele>482.9</ele><time>2011-04-26T07:02:05.0000000+00:00</time></trkpt><trkpt lat="22.034906" lon="104.02623"><ele>482.6</ele><time>2011-04-26T07:02:10.0000000+00:00</time></trkpt><trkpt lat="22.034922" lon="104.026268"><ele>481.4</ele><time>2011-04-26T07:02:15.0000000+00:00</time></trkpt><trkpt lat="22.034935" lon="104.026276"><ele>481.1</ele><time>2011-04-26T07:02:20.0000000+00:00</time></trkpt><trkpt lat="22.034941" lon="104.026276"><ele>481.1</ele><time>2011-04-26T07:02:25.0000000+00:00</time></trkpt><trkpt lat="22.034946" lon="104.026283"><ele>481.1</ele><time>2011-04-26T07:02:30.0000000+00:00</time></trkpt><trkpt lat="22.034948" lon="104.026283"><ele>481.1</ele><time>2011-04-26T07:02:35.0000000+00:00</time></trkpt><trkpt lat="22.034948" lon="104.026276"><ele>481.1</ele><time>2011-04-26T07:02:40.0000000+00:00</time></trkpt><trkpt lat="22.03495" lon="104.026268"><ele>481.1</ele><time>2011-04-26T07:02:45.0000000+00:00</time></trkpt><trkpt lat="22.034954" lon="104.026276"><ele>481.1</ele><time>2011-04-26T07:02:50.0000000+00:00</time></trkpt><trkpt lat="22.034956" lon="104.026283"><ele>481.1</ele><time>2011-04-26T07:02:55.0000000+00:00</time></trkpt><trkpt lat="22.034956" lon="104.026283"><ele>481.2</ele><time>2011-04-26T07:03:00.0000000+00:00</time></trkpt><trkpt lat="22.034958" lon="104.026283"><ele>481.2</ele><time>2011-04-26T07:03:05.0000000+00:00</time></trkpt><trkpt lat="22.034962" lon="104.026291"><ele>481.2</ele><time>2011-04-26T07:03:10.0000000+00:00</time></trkpt><trkpt lat="22.034996" lon="104.026329"><ele>481.9</ele><time>2011-04-26T07:03:15.0000000+00:00</time></trkpt><trkpt lat="22.035002" lon="104.026337"><ele>483.3</ele><time>2011-04-26T07:03:20.0000000+00:00</time></trkpt><trkpt lat="22.035007" lon="104.026329"><ele>483.4</ele><time>2011-04-26T07:03:25.0000000+00:00</time></trkpt><trkpt lat="22.035006" lon="104.026321"><ele>483.6</ele><time>2011-04-26T07:03:30.0000000+00:00</time></trkpt><trkpt lat="22.034998" lon="104.026321"><ele>483.8</ele><time>2011-04-26T07:03:35.0000000+00:00</time></trkpt><trkpt lat="22.03499" lon="104.026306"><ele>484.1</ele><time>2011-04-26T07:03:40.0000000+00:00</time></trkpt><trkpt lat="22.034967" lon="104.026245"><ele>484.9</ele><time>2011-04-26T07:03:45.0000000+00:00</time></trkpt><trkpt lat="22.034966" lon="104.026215"><ele>485.1</ele><time>2011-04-26T07:03:50.0000000+00:00</time></trkpt><trkpt lat="22.034962" lon="104.026215"><ele>485.5</ele><time>2011-04-26T07:03:55.0000000+00:00</time></trkpt><trkpt lat="22.034962" lon="104.026207"><ele>485.9</ele><time>2011-04-26T07:04:00.0000000+00:00</time></trkpt><trkpt lat="22.03496" lon="104.026207"><ele>486.3</ele><time>2011-04-26T07:04:05.0000000+00:00</time></trkpt><trkpt lat="22.034962" lon="104.026207"><ele>486.8</ele><time>2011-04-26T07:04:10.0000000+00:00</time></trkpt><trkpt lat="22.034964" lon="104.026207"><ele>487.4</ele><time>2011-04-26T07:04:15.0000000+00:00</time></trkpt><trkpt lat="22.034962" lon="104.026207"><ele>488.0</ele><time>2011-04-26T07:04:20.0000000+00:00</time></trkpt><trkpt lat="22.03496" lon="104.026215"><ele>488.8</ele><time>2011-04-26T07:04:25.0000000+00:00</time></trkpt><trkpt lat="22.034956" lon="104.026215"><ele>489.6</ele><time>2011-04-26T07:04:30.0000000+00:00</time></trkpt><trkpt lat="22.034954" lon="104.026222"><ele>490.4</ele><time>2011-04-26T07:04:35.0000000+00:00</time></trkpt><trkpt lat="22.034952" lon="104.02623"><ele>491.2</ele><time>2011-04-26T07:04:40.0000000+00:00</time></trkpt><trkpt lat="22.034946" lon="104.026237"><ele>492.0</ele><time>2011-04-26T07:04:45.0000000+00:00</time></trkpt><trkpt lat="22.034943" lon="104.026245"><ele>492.7</ele><time>2011-04-26T07:04:50.0000000+00:00</time></trkpt><trkpt lat="22.034939" lon="104.026253"><ele>493.4</ele><time>2011-04-26T07:04:55.0000000+00:00</time></trkpt><trkpt lat="22.034935" lon="104.02626"><ele>494.1</ele><time>2011-04-26T07:05:00.0000000+00:00</time></trkpt><trkpt lat="22.034933" lon="104.02626"><ele>494.9</ele><time>2011-04-26T07:05:05.0000000+00:00</time></trkpt><trkpt lat="22.034929" lon="104.026268"><ele>495.9</ele><time>2011-04-26T07:05:10.0000000+00:00</time></trkpt><trkpt lat="22.034927" lon="104.026268"><ele>496.8</ele><time>2011-04-26T07:05:15.0000000+00:00</time></trkpt><trkpt lat="22.034924" lon="104.026268"><ele>497.8</ele><time>2011-04-26T07:05:20.0000000+00:00</time></trkpt><trkpt lat="22.034924" lon="104.026276"><ele>498.8</ele><time>2011-04-26T07:05:25.0000000+00:00</time></trkpt><trkpt lat="22.034925" lon="104.026276"><ele>499.9</ele><time>2011-04-26T07:05:30.0000000+00:00</time></trkpt><trkpt lat="22.034924" lon="104.026276"><ele>501.0</ele><time>2011-04-26T07:05:35.0000000+00:00</time></trkpt><trkpt lat="22.034925" lon="104.026276"><ele>502.1</ele><time>2011-04-26T07:05:40.0000000+00:00</time></trkpt><trkpt lat="22.034927" lon="104.026268"><ele>503.4</ele><time>2011-04-26T07:05:45.0000000+00:00</time></trkpt><trkpt lat="22.034931" lon="104.02626"><ele>504.6</ele><time>2011-04-26T07:05:50.0000000+00:00</time></trkpt><trkpt lat="22.034937" lon="104.02626"><ele>505.9</ele><time>2011-04-26T07:05:55.0000000+00:00</time></trkpt><trkpt lat="22.034941" lon="104.026253"><ele>507.2</ele><time>2011-04-26T07:06:00.0000000+00:00</time></trkpt><trkpt lat="22.034946" lon="104.026245"><ele>508.4</ele><time>2011-04-26T07:06:05.0000000+00:00</time></trkpt><trkpt lat="22.03495" lon="104.026237"><ele>509.6</ele><time>2011-04-26T07:06:10.0000000+00:00</time></trkpt><trkpt lat="22.034954" lon="104.02623"><ele>510.7</ele><time>2011-04-26T07:06:15.0000000+00:00</time></trkpt><trkpt lat="22.034958" lon="104.02623"><ele>511.8</ele><time>2011-04-26T07:06:20.0000000+00:00</time></trkpt><trkpt lat="22.034962" lon="104.026222"><ele>512.9</ele><time>2011-04-26T07:06:25.0000000+00:00</time></trkpt><trkpt lat="22.034964" lon="104.026215"><ele>513.9</ele><time>2011-04-26T07:06:30.0000000+00:00</time></trkpt><trkpt lat="22.034966" lon="104.026207"><ele>514.8</ele><time>2011-04-26T07:06:35.0000000+00:00</time></trkpt><trkpt lat="22.034962" lon="104.026207"><ele>515.6</ele><time>2011-04-26T07:06:40.0000000+00:00</time></trkpt><trkpt lat="22.034958" lon="104.026207"><ele>516.3</ele><time>2011-04-26T07:06:45.0000000+00:00</time></trkpt><trkpt lat="22.034956" lon="104.026215"><ele>516.9</ele><time>2011-04-26T07:06:50.0000000+00:00</time></trkpt><trkpt lat="22.034954" lon="104.026215"><ele>517.3</ele><time>2011-04-26T07:06:55.0000000+00:00</time></trkpt><trkpt lat="22.034948" lon="104.026222"><ele>517.7</ele><time>2011-04-26T07:07:00.0000000+00:00</time></trkpt><trkpt lat="22.034945" lon="104.02623"><ele>518.1</ele><time>2011-04-26T07:07:05.0000000+00:00</time></trkpt><trkpt lat="22.034937" lon="104.026237"><ele>518.4</ele><time>2011-04-26T07:07:10.0000000+00:00</time></trkpt><trkpt lat="22.034925" lon="104.026253"><ele>518.4</ele><time>2011-04-26T07:07:15.0000000+00:00</time></trkpt><trkpt lat="22.034918" lon="104.026253"><ele>516.1</ele><time>2011-04-26T07:07:20.0000000+00:00</time></trkpt><trkpt lat="22.034914" lon="104.02626"><ele>515.9</ele><time>2011-04-26T07:07:25.0000000+00:00</time></trkpt><trkpt lat="22.034912" lon="104.02626"><ele>515.6</ele><time>2011-04-26T07:07:30.0000000+00:00</time></trkpt><trkpt lat="22.034914" lon="104.026268"><ele>515.1</ele><time>2011-04-26T07:07:35.0000000+00:00</time></trkpt><trkpt lat="22.034912" lon="104.026268"><ele>514.6</ele><time>2011-04-26T07:07:40.0000000+00:00</time></trkpt><trkpt lat="22.03491" lon="104.026268"><ele>513.9</ele><time>2011-04-26T07:07:45.0000000+00:00</time></trkpt><trkpt lat="22.034914" lon="104.026268"><ele>513.2</ele><time>2011-04-26T07:07:50.0000000+00:00</time></trkpt><trkpt lat="22.03492" lon="104.026276"><ele>512.5</ele><time>2011-04-26T07:07:55.0000000+00:00</time></trkpt><trkpt lat="22.034922" lon="104.026291"><ele>511.7</ele><time>2011-04-26T07:08:00.0000000+00:00</time></trkpt><trkpt lat="22.034922" lon="104.026299"><ele>511.0</ele><time>2011-04-26T07:08:05.0000000+00:00</time></trkpt><trkpt lat="22.034918" lon="104.026306"><ele>510.2</ele><time>2011-04-26T07:08:10.0000000+00:00</time></trkpt><trkpt lat="22.034914" lon="104.026314"><ele>509.4</ele><time>2011-04-26T07:08:15.0000000+00:00</time></trkpt><trkpt lat="22.034908" lon="104.026321"><ele>508.8</ele><time>2011-04-26T07:08:20.0000000+00:00</time></trkpt><trkpt lat="22.034904" lon="104.026329"><ele>508.2</ele><time>2011-04-26T07:08:25.0000000+00:00</time></trkpt><trkpt lat="22.034901" lon="104.026329"><ele>507.6</ele><time>2011-04-26T07:08:30.0000000+00:00</time></trkpt><trkpt lat="22.034899" lon="104.026337"><ele>507.2</ele><time>2011-04-26T07:08:35.0000000+00:00</time></trkpt><trkpt lat="22.034897" lon="104.026337"><ele>506.9</ele><time>2011-04-26T07:08:40.0000000+00:00</time></trkpt><trkpt lat="22.034895" lon="104.026337"><ele>506.7</ele><time>2011-04-26T07:08:45.0000000+00:00</time></trkpt><trkpt lat="22.034895" lon="104.026337"><ele>506.6</ele><time>2011-04-26T07:08:50.0000000+00:00</time></trkpt><trkpt lat="22.034895" lon="104.026337"><ele>506.7</ele><time>2011-04-26T07:08:55.0000000+00:00</time></trkpt><trkpt lat="22.034895" lon="104.026337"><ele>506.7</ele><time>2011-04-26T07:09:00.0000000+00:00</time></trkpt><trkpt lat="22.034895" lon="104.026337"><ele>506.7</ele><time>2011-04-26T07:09:05.0000000+00:00</time></trkpt><trkpt lat="22.034895" lon="104.026337"><ele>506.7</ele><time>2011-04-26T07:09:10.0000000+00:00</time></trkpt><trkpt lat="22.034895" lon="104.026337"><ele>506.7</ele><time>2011-04-26T07:09:15.0000000+00:00</time></trkpt><trkpt lat="22.034895" lon="104.026337"><ele>506.7</ele><time>2011-04-26T07:09:20.0000000+00:00</time></trkpt><trkpt lat="22.034893" lon="104.026337"><ele>506.7</ele><time>2011-04-26T07:09:25.0000000+00:00</time></trkpt><trkpt lat="22.034893" lon="104.026337"><ele>506.7</ele><time>2011-04-26T07:09:30.0000000+00:00</time></trkpt><trkpt lat="22.034895" lon="104.026337"><ele>506.8</ele><time>2011-04-26T07:09:35.0000000+00:00</time></trkpt><trkpt lat="22.034895" lon="104.026337"><ele>506.8</ele><time>2011-04-26T07:09:40.0000000+00:00</time></trkpt><trkpt lat="22.034895" lon="104.026337"><ele>506.8</ele><time>2011-04-26T07:09:45.0000000+00:00</time></trkpt><trkpt lat="22.034895" lon="104.026337"><ele>506.8</ele><time>2011-04-26T07:09:50.0000000+00:00</time></trkpt><trkpt lat="22.034895" lon="104.026337"><ele>506.8</ele><time>2011-04-26T07:09:55.0000000+00:00</time></trkpt><trkpt lat="22.034895" lon="104.026337"><ele>506.8</ele><time>2011-04-26T07:10:00.0000000+00:00</time></trkpt><trkpt lat="22.034895" lon="104.026337"><ele>506.8</ele><time>2011-04-26T07:10:05.0000000+00:00</time></trkpt><trkpt lat="22.034895" lon="104.026337"><ele>506.8</ele><time>2011-04-26T07:10:10.0000000+00:00</time></trkpt><trkpt lat="22.034897" lon="104.026337"><ele>506.9</ele><time>2011-04-26T07:10:15.0000000+00:00</time></trkpt><trkpt lat="22.034897" lon="104.026337"><ele>506.9</ele><time>2011-04-26T07:10:20.0000000+00:00</time></trkpt><trkpt lat="22.034897" lon="104.026337"><ele>506.9</ele><time>2011-04-26T07:10:25.0000000+00:00</time></trkpt><trkpt lat="22.034895" lon="104.026337"><ele>507.0</ele><time>2011-04-26T07:10:30.0000000+00:00</time></trkpt><trkpt lat="22.034897" lon="104.026329"><ele>507.0</ele><time>2011-04-26T07:10:35.0000000+00:00</time></trkpt><trkpt lat="22.034897" lon="104.026329"><ele>507.0</ele><time>2011-04-26T07:10:40.0000000+00:00</time></trkpt><trkpt lat="22.034897" lon="104.026329"><ele>506.9</ele><time>2011-04-26T07:10:45.0000000+00:00</time></trkpt><trkpt lat="22.034897" lon="104.026329"><ele>506.9</ele><time>2011-04-26T07:10:50.0000000+00:00</time></trkpt><trkpt lat="22.034899" lon="104.026329"><ele>506.8</ele><time>2011-04-26T07:10:55.0000000+00:00</time></trkpt><trkpt lat="22.034899" lon="104.026329"><ele>506.8</ele><time>2011-04-26T07:11:00.0000000+00:00</time></trkpt><trkpt lat="22.034899" lon="104.026329"><ele>506.7</ele><time>2011-04-26T07:11:05.0000000+00:00</time></trkpt><trkpt lat="22.034899" lon="104.026329"><ele>506.7</ele><time>2011-04-26T07:11:10.0000000+00:00</time></trkpt><trkpt lat="22.034899" lon="104.026329"><ele>506.7</ele><time>2011-04-26T07:11:15.0000000+00:00</time></trkpt><trkpt lat="22.034899" lon="104.026329"><ele>506.7</ele><time>2011-04-26T07:11:20.0000000+00:00</time></trkpt><trkpt lat="22.034901" lon="104.026329"><ele>506.8</ele><time>2011-04-26T07:11:25.0000000+00:00</time></trkpt><trkpt lat="22.034901" lon="104.026329"><ele>506.8</ele><time>2011-04-26T07:11:30.0000000+00:00</time></trkpt><trkpt lat="22.034901" lon="104.026329"><ele>506.8</ele><time>2011-04-26T07:11:35.0000000+00:00</time></trkpt><trkpt lat="22.034891" lon="104.026337"><ele>506.7</ele><time>2011-04-26T07:11:40.0000000+00:00</time></trkpt><trkpt lat="22.034821" lon="104.026413"><ele>506.0</ele><time>2011-04-26T07:11:45.0000000+00:00</time></trkpt><trkpt lat="22.034712" lon="104.026489"><ele>502.8</ele><time>2011-04-26T07:11:50.0000000+00:00</time></trkpt><trkpt lat="22.034609" lon="104.026535"><ele>499.1</ele><time>2011-04-26T07:11:55.0000000+00:00</time></trkpt><trkpt lat="22.034523" lon="104.026558"><ele>499.7</ele><time>2011-04-26T07:12:00.0000000+00:00</time></trkpt><trkpt lat="22.034426" lon="104.026619"><ele>498.0</ele><time>2011-04-26T07:12:05.0000000+00:00</time></trkpt><trkpt lat="22.034332" lon="104.026642"><ele>500.0</ele><time>2011-04-26T07:12:10.0000000+00:00</time></trkpt><trkpt lat="22.034317" lon="104.026657"><ele>497.9</ele><time>2011-04-26T07:12:15.0000000+00:00</time></trkpt><trkpt lat="22.034311" lon="104.026642"><ele>496.8</ele><time>2011-04-26T07:12:20.0000000+00:00</time></trkpt><trkpt lat="22.034309" lon="104.026642"><ele>496.8</ele><time>2011-04-26T07:12:25.0000000+00:00</time></trkpt><trkpt lat="22.03429" lon="104.026672"><ele>495.3</ele><time>2011-04-26T07:12:30.0000000+00:00</time></trkpt><trkpt lat="22.034187" lon="104.026695"><ele>495.8</ele><time>2011-04-26T07:12:35.0000000+00:00</time></trkpt><trkpt lat="22.034092" lon="104.026718"><ele>495.8</ele><time>2011-04-26T07:12:40.0000000+00:00</time></trkpt><trkpt lat="22.034004" lon="104.026741"><ele>496.0</ele><time>2011-04-26T07:12:45.0000000+00:00</time></trkpt><trkpt lat="22.033926" lon="104.026764"><ele>496.8</ele><time>2011-04-26T07:12:50.0000000+00:00</time></trkpt><trkpt lat="22.03385" lon="104.026794"><ele>497.4</ele><time>2011-04-26T07:12:55.0000000+00:00</time></trkpt><trkpt lat="22.033773" lon="104.026825"><ele>498.2</ele><time>2011-04-26T07:13:00.0000000+00:00</time></trkpt><trkpt lat="22.033691" lon="104.026901"><ele>498.1</ele><time>2011-04-26T07:13:05.0000000+00:00</time></trkpt><trkpt lat="22.033617" lon="104.026939"><ele>500.1</ele><time>2011-04-26T07:13:10.0000000+00:00</time></trkpt><trkpt lat="22.033546" lon="104.026993"><ele>501.3</ele><time>2011-04-26T07:13:15.0000000+00:00</time></trkpt><trkpt lat="22.03347" lon="104.027031"><ele>502.5</ele><time>2011-04-26T07:13:20.0000000+00:00</time></trkpt><trkpt lat="22.03339" lon="104.027084"><ele>502.2</ele><time>2011-04-26T07:13:25.0000000+00:00</time></trkpt><trkpt lat="22.033302" lon="104.027138"><ele>503.0</ele><time>2011-04-26T07:13:30.0000000+00:00</time></trkpt><trkpt lat="22.033211" lon="104.027199"><ele>505.0</ele><time>2011-04-26T07:13:35.0000000+00:00</time></trkpt><trkpt lat="22.033127" lon="104.027245"><ele>505.3</ele><time>2011-04-26T07:13:40.0000000+00:00</time></trkpt><trkpt lat="22.033035" lon="104.027298"><ele>504.7</ele><time>2011-04-26T07:13:45.0000000+00:00</time></trkpt><trkpt lat="22.032949" lon="104.027351"><ele>503.9</ele><time>2011-04-26T07:13:50.0000000+00:00</time></trkpt><trkpt lat="22.032856" lon="104.027412"><ele>503.5</ele><time>2011-04-26T07:13:55.0000000+00:00</time></trkpt><trkpt lat="22.032766" lon="104.027481"><ele>505.5</ele><time>2011-04-26T07:14:00.0000000+00:00</time></trkpt><trkpt lat="22.032663" lon="104.02755"><ele>507.3</ele><time>2011-04-26T07:14:05.0000000+00:00</time></trkpt><trkpt lat="22.032564" lon="104.027573"><ele>507.6</ele><time>2011-04-26T07:14:10.0000000+00:00</time></trkpt><trkpt lat="22.032434" lon="104.027634"><ele>509.0</ele><time>2011-04-26T07:14:15.0000000+00:00</time></trkpt><trkpt lat="22.032228" lon="104.027611"><ele>508.2</ele><time>2011-04-26T07:14:20.0000000+00:00</time></trkpt><trkpt lat="22.031942" lon="104.02758"><ele>508.6</ele><time>2011-04-26T07:14:25.0000000+00:00</time></trkpt><trkpt lat="22.031706" lon="104.027657"><ele>511.1</ele><time>2011-04-26T07:14:30.0000000+00:00</time></trkpt><trkpt lat="22.031597" lon="104.027771"><ele>513.3</ele><time>2011-04-26T07:14:35.0000000+00:00</time></trkpt><trkpt lat="22.031513" lon="104.027992"><ele>515.1</ele><time>2011-04-26T07:14:40.0000000+00:00</time></trkpt><trkpt lat="22.031473" lon="104.028183"><ele>515.6</ele><time>2011-04-26T07:14:45.0000000+00:00</time></trkpt><trkpt lat="22.031467" lon="104.028412"><ele>513.3</ele><time>2011-04-26T07:14:50.0000000+00:00</time></trkpt><trkpt lat="22.031469" lon="104.028679"><ele>511.5</ele><time>2011-04-26T07:14:55.0000000+00:00</time></trkpt><trkpt lat="22.031446" lon="104.028954"><ele>506.3</ele><time>2011-04-26T07:15:00.0000000+00:00</time></trkpt><trkpt lat="22.03141" lon="104.029121"><ele>505.1</ele><time>2011-04-26T07:15:05.0000000+00:00</time></trkpt><trkpt lat="22.031355" lon="104.029221"><ele>504.7</ele><time>2011-04-26T07:15:10.0000000+00:00</time></trkpt><trkpt lat="22.031351" lon="104.029243"><ele>505.3</ele><time>2011-04-26T07:15:15.0000000+00:00</time></trkpt><trkpt lat="22.031349" lon="104.029251"><ele>505.2</ele><time>2011-04-26T07:15:20.0000000+00:00</time></trkpt><trkpt lat="22.031347" lon="104.029251"><ele>505.2</ele><time>2011-04-26T07:15:25.0000000+00:00</time></trkpt><trkpt lat="22.031347" lon="104.029251"><ele>505.2</ele><time>2011-04-26T07:15:30.0000000+00:00</time></trkpt><trkpt lat="22.031347" lon="104.029251"><ele>505.1</ele><time>2011-04-26T07:15:35.0000000+00:00</time></trkpt><trkpt lat="22.031349" lon="104.029251"><ele>505.1</ele><time>2011-04-26T07:15:40.0000000+00:00</time></trkpt><trkpt lat="22.031345" lon="104.029259"><ele>505.1</ele><time>2011-04-26T07:15:45.0000000+00:00</time></trkpt><trkpt lat="22.031336" lon="104.029266"><ele>505.1</ele><time>2011-04-26T07:15:50.0000000+00:00</time></trkpt><trkpt lat="22.031326" lon="104.029274"><ele>505.1</ele><time>2011-04-26T07:15:55.0000000+00:00</time></trkpt><trkpt lat="22.031321" lon="104.029274"><ele>505.1</ele><time>2011-04-26T07:16:00.0000000+00:00</time></trkpt><trkpt lat="22.031317" lon="104.029274"><ele>505.1</ele><time>2011-04-26T07:16:05.0000000+00:00</time></trkpt><trkpt lat="22.031317" lon="104.029274"><ele>505.1</ele><time>2011-04-26T07:16:10.0000000+00:00</time></trkpt><trkpt lat="22.031315" lon="104.029274"><ele>505.2</ele><time>2011-04-26T07:16:15.0000000+00:00</time></trkpt><trkpt lat="22.031315" lon="104.029274"><ele>505.1</ele><time>2011-04-26T07:16:20.0000000+00:00</time></trkpt><trkpt lat="22.031315" lon="104.029274"><ele>505.1</ele><time>2011-04-26T07:16:25.0000000+00:00</time></trkpt><trkpt lat="22.031315" lon="104.029282"><ele>505.1</ele><time>2011-04-26T07:16:30.0000000+00:00</time></trkpt><trkpt lat="22.031313" lon="104.029282"><ele>505.1</ele><time>2011-04-26T07:16:35.0000000+00:00</time></trkpt><trkpt lat="22.031315" lon="104.029282"><ele>505.1</ele><time>2011-04-26T07:16:40.0000000+00:00</time></trkpt><trkpt lat="22.031315" lon="104.029282"><ele>505.1</ele><time>2011-04-26T07:16:45.0000000+00:00</time></trkpt><trkpt lat="22.031315" lon="104.029282"><ele>505.0</ele><time>2011-04-26T07:16:50.0000000+00:00</time></trkpt><trkpt lat="22.031315" lon="104.029282"><ele>505.0</ele><time>2011-04-26T07:16:55.0000000+00:00</time></trkpt><trkpt lat="22.031315" lon="104.029282"><ele>505.1</ele><time>2011-04-26T07:17:00.0000000+00:00</time></trkpt><trkpt lat="22.031315" lon="104.029282"><ele>505.1</ele><time>2011-04-26T07:17:05.0000000+00:00</time></trkpt><trkpt lat="22.031315" lon="104.029282"><ele>505.1</ele><time>2011-04-26T07:17:10.0000000+00:00</time></trkpt><trkpt lat="22.031315" lon="104.029282"><ele>505.1</ele><time>2011-04-26T07:17:15.0000000+00:00</time></trkpt><trkpt lat="22.031315" lon="104.029282"><ele>505.1</ele><time>2011-04-26T07:17:20.0000000+00:00</time></trkpt><trkpt lat="22.031315" lon="104.029289"><ele>505.0</ele><time>2011-04-26T07:17:25.0000000+00:00</time></trkpt><trkpt lat="22.031309" lon="104.029297"><ele>505.0</ele><time>2011-04-26T07:17:30.0000000+00:00</time></trkpt><trkpt lat="22.031294" lon="104.029312"><ele>505.0</ele><time>2011-04-26T07:17:35.0000000+00:00</time></trkpt><trkpt lat="22.031252" lon="104.029366"><ele>505.1</ele><time>2011-04-26T07:17:40.0000000+00:00</time></trkpt><trkpt lat="22.031046" lon="104.029488"><ele>504.8</ele><time>2011-04-26T07:17:45.0000000+00:00</time></trkpt><trkpt lat="22.03079" lon="104.02961"><ele>504.1</ele><time>2011-04-26T07:17:50.0000000+00:00</time></trkpt><trkpt lat="22.03075" lon="104.029884"><ele>503.2</ele><time>2011-04-26T07:17:55.0000000+00:00</time></trkpt><trkpt lat="22.030704" lon="104.030334"><ele>501.9</ele><time>2011-04-26T07:18:00.0000000+00:00</time></trkpt><trkpt lat="22.030554" lon="104.030899"><ele>500.9</ele><time>2011-04-26T07:18:05.0000000+00:00</time></trkpt><trkpt lat="22.030514" lon="104.031189"><ele>499.8</ele><time>2011-04-26T07:18:10.0000000+00:00</time></trkpt><trkpt lat="22.030449" lon="104.031448"><ele>499.0</ele><time>2011-04-26T07:18:15.0000000+00:00</time></trkpt><trkpt lat="22.030369" lon="104.031738"><ele>498.0</ele><time>2011-04-26T07:18:20.0000000+00:00</time></trkpt><trkpt lat="22.030237" lon="104.032127"><ele>496.9</ele><time>2011-04-26T07:18:25.0000000+00:00</time></trkpt><trkpt lat="22.03009" lon="104.032578"><ele>495.7</ele><time>2011-04-26T07:18:30.0000000+00:00</time></trkpt><trkpt lat="22.02997" lon="104.032959"><ele>494.8</ele><time>2011-04-26T07:18:35.0000000+00:00</time></trkpt><trkpt lat="22.029785" lon="104.033279"><ele>494.4</ele><time>2011-04-26T07:18:40.0000000+00:00</time></trkpt><trkpt lat="22.029528" lon="104.033554"><ele>493.7</ele><time>2011-04-26T07:18:45.0000000+00:00</time></trkpt><trkpt lat="22.029356" lon="104.033806"><ele>493.4</ele><time>2011-04-26T07:18:50.0000000+00:00</time></trkpt><trkpt lat="22.029224" lon="104.034088"><ele>493.3</ele><time>2011-04-26T07:18:55.0000000+00:00</time></trkpt><trkpt lat="22.029211" lon="104.034538"><ele>493.1</ele><time>2011-04-26T07:19:00.0000000+00:00</time></trkpt><trkpt lat="22.029181" lon="104.034882"><ele>493.1</ele><time>2011-04-26T07:19:05.0000000+00:00</time></trkpt><trkpt lat="22.029068" lon="104.035225"><ele>493.3</ele><time>2011-04-26T07:19:10.0000000+00:00</time></trkpt><trkpt lat="22.028948" lon="104.035507"><ele>492.2</ele><time>2011-04-26T07:19:15.0000000+00:00</time></trkpt><trkpt lat="22.028835" lon="104.035782"><ele>490.3</ele><time>2011-04-26T07:19:20.0000000+00:00</time></trkpt><trkpt lat="22.028685" lon="104.035965"><ele>489.8</ele><time>2011-04-26T07:19:25.0000000+00:00</time></trkpt><trkpt lat="22.02846" lon="104.036079"><ele>487.3</ele><time>2011-04-26T07:19:30.0000000+00:00</time></trkpt><trkpt lat="22.028252" lon="104.036095"><ele>485.7</ele><time>2011-04-26T07:19:35.0000000+00:00</time></trkpt><trkpt lat="22.028109" lon="104.036064"><ele>483.5</ele><time>2011-04-26T07:19:40.0000000+00:00</time></trkpt><trkpt lat="22.028008" lon="104.036034"><ele>482.4</ele><time>2011-04-26T07:19:45.0000000+00:00</time></trkpt><trkpt lat="22.027916" lon="104.036011"><ele>479.7</ele><time>2011-04-26T07:19:50.0000000+00:00</time></trkpt><trkpt lat="22.027826" lon="104.035995"><ele>477.3</ele><time>2011-04-26T07:19:55.0000000+00:00</time></trkpt><trkpt lat="22.027718" lon="104.035973"><ele>475.8</ele><time>2011-04-26T07:20:00.0000000+00:00</time></trkpt><trkpt lat="22.027609" lon="104.035912"><ele>474.5</ele><time>2011-04-26T07:20:05.0000000+00:00</time></trkpt><trkpt lat="22.027456" lon="104.035858"><ele>469.7</ele><time>2011-04-26T07:20:10.0000000+00:00</time></trkpt><trkpt lat="22.027317" lon="104.035812"><ele>468.2</ele><time>2011-04-26T07:20:15.0000000+00:00</time></trkpt><trkpt lat="22.027138" lon="104.035774"><ele>466.7</ele><time>2011-04-26T07:20:20.0000000+00:00</time></trkpt><trkpt lat="22.026951" lon="104.035721"><ele>464.7</ele><time>2011-04-26T07:20:25.0000000+00:00</time></trkpt><trkpt lat="22.02676" lon="104.035805"><ele>462.5</ele><time>2011-04-26T07:20:30.0000000+00:00</time></trkpt><trkpt lat="22.026611" lon="104.035912"><ele>460.6</ele><time>2011-04-26T07:20:35.0000000+00:00</time></trkpt><trkpt lat="22.026554" lon="104.035942"><ele>459.8</ele><time>2011-04-26T07:20:40.0000000+00:00</time></trkpt><trkpt lat="22.02655" lon="104.035934"><ele>459.0</ele><time>2011-04-26T07:20:45.0000000+00:00</time></trkpt><trkpt lat="22.026545" lon="104.035934"><ele>458.9</ele><time>2011-04-26T07:20:50.0000000+00:00</time></trkpt><trkpt lat="22.026545" lon="104.035934"><ele>458.9</ele><time>2011-04-26T07:20:55.0000000+00:00</time></trkpt><trkpt lat="22.026543" lon="104.035934"><ele>458.8</ele><time>2011-04-26T07:21:00.0000000+00:00</time></trkpt><trkpt lat="22.026543" lon="104.035934"><ele>458.8</ele><time>2011-04-26T07:21:05.0000000+00:00</time></trkpt><trkpt lat="22.026541" lon="104.03595"><ele>458.7</ele><time>2011-04-26T07:21:10.0000000+00:00</time></trkpt><trkpt lat="22.02655" lon="104.03598"><ele>459.5</ele><time>2011-04-26T07:21:15.0000000+00:00</time></trkpt><trkpt lat="22.026558" lon="104.035995"><ele>459.4</ele><time>2011-04-26T07:21:20.0000000+00:00</time></trkpt><trkpt lat="22.026558" lon="104.035995"><ele>459.4</ele><time>2011-04-26T07:21:25.0000000+00:00</time></trkpt><trkpt lat="22.026556" lon="104.035995"><ele>459.4</ele><time>2011-04-26T07:21:30.0000000+00:00</time></trkpt><trkpt lat="22.026556" lon="104.035995"><ele>459.4</ele><time>2011-04-26T07:21:35.0000000+00:00</time></trkpt><trkpt lat="22.026556" lon="104.035995"><ele>459.3</ele><time>2011-04-26T07:21:40.0000000+00:00</time></trkpt><trkpt lat="22.026556" lon="104.035995"><ele>459.3</ele><time>2011-04-26T07:21:45.0000000+00:00</time></trkpt><trkpt lat="22.026556" lon="104.036003"><ele>459.3</ele><time>2011-04-26T07:21:50.0000000+00:00</time></trkpt><trkpt lat="22.026554" lon="104.036003"><ele>459.3</ele><time>2011-04-26T07:21:55.0000000+00:00</time></trkpt><trkpt lat="22.026552" lon="104.036003"><ele>459.3</ele><time>2011-04-26T07:22:00.0000000+00:00</time></trkpt><trkpt lat="22.02655" lon="104.036003"><ele>459.4</ele><time>2011-04-26T07:22:05.0000000+00:00</time></trkpt><trkpt lat="22.026548" lon="104.036003"><ele>459.4</ele><time>2011-04-26T07:22:10.0000000+00:00</time></trkpt><trkpt lat="22.026546" lon="104.036003"><ele>459.5</ele><time>2011-04-26T07:22:15.0000000+00:00</time></trkpt><trkpt lat="22.026545" lon="104.036003"><ele>459.5</ele><time>2011-04-26T07:22:20.0000000+00:00</time></trkpt><trkpt lat="22.026543" lon="104.036003"><ele>459.6</ele><time>2011-04-26T07:22:25.0000000+00:00</time></trkpt><trkpt lat="22.026539" lon="104.036003"><ele>459.8</ele><time>2011-04-26T07:22:30.0000000+00:00</time></trkpt><trkpt lat="22.026537" lon="104.036003"><ele>459.9</ele><time>2011-04-26T07:22:35.0000000+00:00</time></trkpt><trkpt lat="22.026533" lon="104.036003"><ele>460.1</ele><time>2011-04-26T07:22:40.0000000+00:00</time></trkpt><trkpt lat="22.026531" lon="104.036003"><ele>460.3</ele><time>2011-04-26T07:22:45.0000000+00:00</time></trkpt><trkpt lat="22.026527" lon="104.036003"><ele>460.4</ele><time>2011-04-26T07:22:50.0000000+00:00</time></trkpt><trkpt lat="22.026524" lon="104.036003"><ele>460.7</ele><time>2011-04-26T07:22:55.0000000+00:00</time></trkpt><trkpt lat="22.02652" lon="104.036003"><ele>461.0</ele><time>2011-04-26T07:23:00.0000000+00:00</time></trkpt><trkpt lat="22.026516" lon="104.036003"><ele>461.2</ele><time>2011-04-26T07:23:05.0000000+00:00</time></trkpt><trkpt lat="22.02651" lon="104.036003"><ele>461.5</ele><time>2011-04-26T07:23:10.0000000+00:00</time></trkpt><trkpt lat="22.026505" lon="104.036003"><ele>461.8</ele><time>2011-04-26T07:23:15.0000000+00:00</time></trkpt><trkpt lat="22.026501" lon="104.036011"><ele>462.1</ele><time>2011-04-26T07:23:20.0000000+00:00</time></trkpt><trkpt lat="22.026497" lon="104.036011"><ele>462.3</ele><time>2011-04-26T07:23:25.0000000+00:00</time></trkpt><trkpt lat="22.026493" lon="104.036011"><ele>462.6</ele><time>2011-04-26T07:23:30.0000000+00:00</time></trkpt><trkpt lat="22.026489" lon="104.036011"><ele>462.8</ele><time>2011-04-26T07:23:35.0000000+00:00</time></trkpt><trkpt lat="22.026484" lon="104.036011"><ele>463.0</ele><time>2011-04-26T07:23:40.0000000+00:00</time></trkpt><trkpt lat="22.026478" lon="104.036011"><ele>463.2</ele><time>2011-04-26T07:23:45.0000000+00:00</time></trkpt><trkpt lat="22.026472" lon="104.036011"><ele>463.4</ele><time>2011-04-26T07:23:50.0000000+00:00</time></trkpt><trkpt lat="22.026466" lon="104.036018"><ele>463.6</ele><time>2011-04-26T07:23:55.0000000+00:00</time></trkpt><trkpt lat="22.026461" lon="104.036018"><ele>463.8</ele><time>2011-04-26T07:24:00.0000000+00:00</time></trkpt><trkpt lat="22.026455" lon="104.036018"><ele>464.0</ele><time>2011-04-26T07:24:05.0000000+00:00</time></trkpt><trkpt lat="22.026447" lon="104.036018"><ele>464.1</ele><time>2011-04-26T07:24:10.0000000+00:00</time></trkpt><trkpt lat="22.026443" lon="104.036026"><ele>464.2</ele><time>2011-04-26T07:24:15.0000000+00:00</time></trkpt><trkpt lat="22.02644" lon="104.036026"><ele>464.2</ele><time>2011-04-26T07:24:20.0000000+00:00</time></trkpt><trkpt lat="22.026436" lon="104.036026"><ele>464.2</ele><time>2011-04-26T07:24:25.0000000+00:00</time></trkpt><trkpt lat="22.026434" lon="104.036026"><ele>464.1</ele><time>2011-04-26T07:24:30.0000000+00:00</time></trkpt><trkpt lat="22.02643" lon="104.036026"><ele>464.1</ele><time>2011-04-26T07:24:35.0000000+00:00</time></trkpt><trkpt lat="22.026428" lon="104.036026"><ele>464.0</ele><time>2011-04-26T07:24:40.0000000+00:00</time></trkpt><trkpt lat="22.026419" lon="104.036026"><ele>463.9</ele><time>2011-04-26T07:24:45.0000000+00:00</time></trkpt><trkpt lat="22.026402" lon="104.036041"><ele>463.4</ele><time>2011-04-26T07:24:50.0000000+00:00</time></trkpt><trkpt lat="22.026321" lon="104.036125"><ele>460.4</ele><time>2011-04-26T07:24:55.0000000+00:00</time></trkpt><trkpt lat="22.026211" lon="104.036247"><ele>456.6</ele><time>2011-04-26T07:25:00.0000000+00:00</time></trkpt><trkpt lat="22.026094" lon="104.036346"><ele>453.8</ele><time>2011-04-26T07:25:05.0000000+00:00</time></trkpt><trkpt lat="22.025963" lon="104.036461"><ele>450.7</ele><time>2011-04-26T07:25:10.0000000+00:00</time></trkpt><trkpt lat="22.025806" lon="104.036583"><ele>449.4</ele><time>2011-04-26T07:25:15.0000000+00:00</time></trkpt><trkpt lat="22.025705" lon="104.036652"><ele>447.4</ele><time>2011-04-26T07:25:20.0000000+00:00</time></trkpt><trkpt lat="22.025595" lon="104.036797"><ele>447.2</ele><time>2011-04-26T07:25:25.0000000+00:00</time></trkpt><trkpt lat="22.025511" lon="104.036926"><ele>448.0</ele><time>2011-04-26T07:25:30.0000000+00:00</time></trkpt><trkpt lat="22.025423" lon="104.037086"><ele>448.3</ele><time>2011-04-26T07:25:35.0000000+00:00</time></trkpt><trkpt lat="22.025335" lon="104.037285"><ele>452.5</ele><time>2011-04-26T07:25:40.0000000+00:00</time></trkpt><trkpt lat="22.025232" lon="104.037483"><ele>453.1</ele><time>2011-04-26T07:25:45.0000000+00:00</time></trkpt><trkpt lat="22.025173" lon="104.037674"><ele>451.4</ele><time>2011-04-26T07:25:50.0000000+00:00</time></trkpt><trkpt lat="22.025137" lon="104.037926"><ele>450.8</ele><time>2011-04-26T07:25:55.0000000+00:00</time></trkpt><trkpt lat="22.025095" lon="104.038132"><ele>450.6</ele><time>2011-04-26T07:26:00.0000000+00:00</time></trkpt><trkpt lat="22.025034" lon="104.038261"><ele>451.1</ele><time>2011-04-26T07:26:05.0000000+00:00</time></trkpt><trkpt lat="22.024942" lon="104.038383"><ele>451.9</ele><time>2011-04-26T07:26:10.0000000+00:00</time></trkpt><trkpt lat="22.024811" lon="104.038506"><ele>452.7</ele><time>2011-04-26T07:26:15.0000000+00:00</time></trkpt><trkpt lat="22.024666" lon="104.03862"><ele>454.2</ele><time>2011-04-26T07:26:20.0000000+00:00</time></trkpt><trkpt lat="22.024481" lon="104.038658"><ele>454.7</ele><time>2011-04-26T07:26:25.0000000+00:00</time></trkpt><trkpt lat="22.024359" lon="104.038704"><ele>455.7</ele><time>2011-04-26T07:26:30.0000000+00:00</time></trkpt><trkpt lat="22.02421" lon="104.03875"><ele>457.5</ele><time>2011-04-26T07:26:35.0000000+00:00</time></trkpt><trkpt lat="22.024088" lon="104.038773"><ele>458.8</ele><time>2011-04-26T07:26:40.0000000+00:00</time></trkpt><trkpt lat="22.023949" lon="104.038795"><ele>460.0</ele><time>2011-04-26T07:26:45.0000000+00:00</time></trkpt><trkpt lat="22.023827" lon="104.038834"><ele>461.4</ele><time>2011-04-26T07:26:50.0000000+00:00</time></trkpt><trkpt lat="22.023705" lon="104.038834"><ele>464.0</ele><time>2011-04-26T07:26:55.0000000+00:00</time></trkpt><trkpt lat="22.023542" lon="104.038841"><ele>465.7</ele><time>2011-04-26T07:27:00.0000000+00:00</time></trkpt><trkpt lat="22.023399" lon="104.038864"><ele>467.3</ele><time>2011-04-26T07:27:05.0000000+00:00</time></trkpt><trkpt lat="22.023272" lon="104.038887"><ele>469.5</ele><time>2011-04-26T07:27:10.0000000+00:00</time></trkpt><trkpt lat="22.023142" lon="104.038902"><ele>471.0</ele><time>2011-04-26T07:27:15.0000000+00:00</time></trkpt><trkpt lat="22.023003" lon="104.038925"><ele>473.0</ele><time>2011-04-26T07:27:20.0000000+00:00</time></trkpt><trkpt lat="22.02286" lon="104.03894"><ele>474.8</ele><time>2011-04-26T07:27:25.0000000+00:00</time></trkpt><trkpt lat="22.022667" lon="104.038956"><ele>475.0</ele><time>2011-04-26T07:27:30.0000000+00:00</time></trkpt><trkpt lat="22.022511" lon="104.038963"><ele>475.7</ele><time>2011-04-26T07:27:35.0000000+00:00</time></trkpt><trkpt lat="22.022352" lon="104.039001"><ele>477.6</ele><time>2011-04-26T07:27:40.0000000+00:00</time></trkpt><trkpt lat="22.022213" lon="104.03907"><ele>479.3</ele><time>2011-04-26T07:27:45.0000000+00:00</time></trkpt><trkpt lat="22.022034" lon="104.039139"><ele>479.9</ele><time>2011-04-26T07:27:50.0000000+00:00</time></trkpt><trkpt lat="22.021843" lon="104.039246"><ele>480.3</ele><time>2011-04-26T07:27:55.0000000+00:00</time></trkpt><trkpt lat="22.021622" lon="104.039413"><ele>479.7</ele><time>2011-04-26T07:28:00.0000000+00:00</time></trkpt><trkpt lat="22.021412" lon="104.039612"><ele>478.3</ele><time>2011-04-26T07:28:05.0000000+00:00</time></trkpt><trkpt lat="22.021175" lon="104.039909"><ele>474.0</ele><time>2011-04-26T07:28:10.0000000+00:00</time></trkpt><trkpt lat="22.021006" lon="104.040131"><ele>474.1</ele><time>2011-04-26T07:28:15.0000000+00:00</time></trkpt><trkpt lat="22.020758" lon="104.040398"><ele>471.3</ele><time>2011-04-26T07:28:20.0000000+00:00</time></trkpt><trkpt lat="22.020456" lon="104.040634"><ele>464.2</ele><time>2011-04-26T07:28:25.0000000+00:00</time></trkpt><trkpt lat="22.020172" lon="104.040863"><ele>461.5</ele><time>2011-04-26T07:28:30.0000000+00:00</time></trkpt><trkpt lat="22.01992" lon="104.041046"><ele>458.5</ele><time>2011-04-26T07:28:35.0000000+00:00</time></trkpt><trkpt lat="22.019756" lon="104.041153"><ele>456.0</ele><time>2011-04-26T07:28:40.0000000+00:00</time></trkpt><trkpt lat="22.019632" lon="104.041245"><ele>455.0</ele><time>2011-04-26T07:28:45.0000000+00:00</time></trkpt><trkpt lat="22.019543" lon="104.041336"><ele>453.0</ele><time>2011-04-26T07:28:50.0000000+00:00</time></trkpt><trkpt lat="22.019451" lon="104.041389"><ele>452.1</ele><time>2011-04-26T07:28:55.0000000+00:00</time></trkpt><trkpt lat="22.019361" lon="104.041481"><ele>451.4</ele><time>2011-04-26T07:29:00.0000000+00:00</time></trkpt><trkpt lat="22.019281" lon="104.041634"><ele>454.0</ele><time>2011-04-26T07:29:05.0000000+00:00</time></trkpt><trkpt lat="22.019192" lon="104.04174"><ele>453.8</ele><time>2011-04-26T07:29:10.0000000+00:00</time></trkpt><trkpt lat="22.019089" lon="104.041878"><ele>453.7</ele><time>2011-04-26T07:29:15.0000000+00:00</time></trkpt><trkpt lat="22.018984" lon="104.042023"><ele>453.5</ele><time>2011-04-26T07:29:20.0000000+00:00</time></trkpt><trkpt lat="22.018904" lon="104.042183"><ele>452.5</ele><time>2011-04-26T07:29:25.0000000+00:00</time></trkpt><trkpt lat="22.018799" lon="104.042358"><ele>452.2</ele><time>2011-04-26T07:29:30.0000000+00:00</time></trkpt><trkpt lat="22.01866" lon="104.042496"><ele>453.0</ele><time>2011-04-26T07:29:35.0000000+00:00</time></trkpt><trkpt lat="22.018494" lon="104.042564"><ele>454.1</ele><time>2011-04-26T07:29:40.0000000+00:00</time></trkpt><trkpt lat="22.018326" lon="104.042656"><ele>456.1</ele><time>2011-04-26T07:29:45.0000000+00:00</time></trkpt><trkpt lat="22.018173" lon="104.042717"><ele>456.9</ele><time>2011-04-26T07:29:50.0000000+00:00</time></trkpt><trkpt lat="22.018023" lon="104.04277"><ele>458.8</ele><time>2011-04-26T07:29:55.0000000+00:00</time></trkpt><trkpt lat="22.017914" lon="104.042854"><ele>461.5</ele><time>2011-04-26T07:30:00.0000000+00:00</time></trkpt><trkpt lat="22.017851" lon="104.042946"><ele>463.9</ele><time>2011-04-26T07:30:05.0000000+00:00</time></trkpt><trkpt lat="22.017717" lon="104.043114"><ele>464.9</ele><time>2011-04-26T07:30:10.0000000+00:00</time></trkpt><trkpt lat="22.017572" lon="104.043228"><ele>467.3</ele><time>2011-04-26T07:30:15.0000000+00:00</time></trkpt><trkpt lat="22.017418" lon="104.043396"><ele>470.4</ele><time>2011-04-26T07:30:20.0000000+00:00</time></trkpt><trkpt lat="22.017319" lon="104.043541"><ele>472.6</ele><time>2011-04-26T07:30:25.0000000+00:00</time></trkpt><trkpt lat="22.017204" lon="104.043678"><ele>475.6</ele><time>2011-04-26T07:30:30.0000000+00:00</time></trkpt><trkpt lat="22.017117" lon="104.0438"><ele>478.3</ele><time>2011-04-26T07:30:35.0000000+00:00</time></trkpt><trkpt lat="22.017023" lon="104.043922"><ele>481.7</ele><time>2011-04-26T07:30:40.0000000+00:00</time></trkpt><trkpt lat="22.016911" lon="104.044098"><ele>484.1</ele><time>2011-04-26T07:30:45.0000000+00:00</time></trkpt><trkpt lat="22.016825" lon="104.044212"><ele>486.8</ele><time>2011-04-26T07:30:50.0000000+00:00</time></trkpt><trkpt lat="22.016729" lon="104.044319"><ele>485.9</ele><time>2011-04-26T07:30:55.0000000+00:00</time></trkpt><trkpt lat="22.016653" lon="104.044403"><ele>486.9</ele><time>2011-04-26T07:31:00.0000000+00:00</time></trkpt><trkpt lat="22.016602" lon="104.044586"><ele>488.7</ele><time>2011-04-26T07:31:05.0000000+00:00</time></trkpt><trkpt lat="22.016558" lon="104.044731"><ele>490.7</ele><time>2011-04-26T07:31:10.0000000+00:00</time></trkpt><trkpt lat="22.016512" lon="104.044868"><ele>492.6</ele><time>2011-04-26T07:31:15.0000000+00:00</time></trkpt><trkpt lat="22.016449" lon="104.044983"><ele>494.8</ele><time>2011-04-26T07:31:20.0000000+00:00</time></trkpt><trkpt lat="22.016352" lon="104.045105"><ele>496.8</ele><time>2011-04-26T07:31:25.0000000+00:00</time></trkpt><trkpt lat="22.016232" lon="104.045235"><ele>497.4</ele><time>2011-04-26T07:31:30.0000000+00:00</time></trkpt><trkpt lat="22.016113" lon="104.045372"><ele>498.1</ele><time>2011-04-26T07:31:35.0000000+00:00</time></trkpt><trkpt lat="22.015926" lon="104.045517"><ele>497.6</ele><time>2011-04-26T07:31:40.0000000+00:00</time></trkpt><trkpt lat="22.015749" lon="104.045647"><ele>498.0</ele><time>2011-04-26T07:31:45.0000000+00:00</time></trkpt><trkpt lat="22.015577" lon="104.045753"><ele>497.2</ele><time>2011-04-26T07:31:50.0000000+00:00</time></trkpt><trkpt lat="22.015469" lon="104.045952"><ele>494.8</ele><time>2011-04-26T07:31:55.0000000+00:00</time></trkpt><trkpt lat="22.015432" lon="104.046165"><ele>496.5</ele><time>2011-04-26T07:32:00.0000000+00:00</time></trkpt><trkpt lat="22.015455" lon="104.046326"><ele>494.5</ele><time>2011-04-26T07:32:05.0000000+00:00</time></trkpt><trkpt lat="22.015484" lon="104.046516"><ele>491.9</ele><time>2011-04-26T07:32:10.0000000+00:00</time></trkpt><trkpt lat="22.015491" lon="104.046692"><ele>486.6</ele><time>2011-04-26T07:32:15.0000000+00:00</time></trkpt><trkpt lat="22.015514" lon="104.04686"><ele>482.1</ele><time>2011-04-26T07:32:20.0000000+00:00</time></trkpt><trkpt lat="22.015537" lon="104.047035"><ele>478.0</ele><time>2011-04-26T07:32:25.0000000+00:00</time></trkpt><trkpt lat="22.015545" lon="104.047195"><ele>476.2</ele><time>2011-04-26T07:32:30.0000000+00:00</time></trkpt><trkpt lat="22.015539" lon="104.047356"><ele>474.8</ele><time>2011-04-26T07:32:35.0000000+00:00</time></trkpt><trkpt lat="22.015518" lon="104.047516"><ele>474.0</ele><time>2011-04-26T07:32:40.0000000+00:00</time></trkpt><trkpt lat="22.015453" lon="104.047638"><ele>473.4</ele><time>2011-04-26T07:32:45.0000000+00:00</time></trkpt><trkpt lat="22.015394" lon="104.047729"><ele>473.6</ele><time>2011-04-26T07:32:50.0000000+00:00</time></trkpt><trkpt lat="22.015337" lon="104.047821"><ele>473.4</ele><time>2011-04-26T07:32:55.0000000+00:00</time></trkpt><trkpt lat="22.015245" lon="104.047958"><ele>474.2</ele><time>2011-04-26T07:33:00.0000000+00:00</time></trkpt><trkpt lat="22.015167" lon="104.04808"><ele>474.4</ele><time>2011-04-26T07:33:05.0000000+00:00</time></trkpt><trkpt lat="22.015059" lon="104.048286"><ele>474.8</ele><time>2011-04-26T07:33:10.0000000+00:00</time></trkpt><trkpt lat="22.015007" lon="104.048439"><ele>477.2</ele><time>2011-04-26T07:33:15.0000000+00:00</time></trkpt><trkpt lat="22.014936" lon="104.048592"><ele>478.0</ele><time>2011-04-26T07:33:20.0000000+00:00</time></trkpt><trkpt lat="22.014805" lon="104.048729"><ele>478.8</ele><time>2011-04-26T07:33:25.0000000+00:00</time></trkpt><trkpt lat="22.014679" lon="104.048935"><ele>478.9</ele><time>2011-04-26T07:33:30.0000000+00:00</time></trkpt><trkpt lat="22.014551" lon="104.049133"><ele>478.2</ele><time>2011-04-26T07:33:35.0000000+00:00</time></trkpt><trkpt lat="22.014467" lon="104.049355"><ele>477.8</ele><time>2011-04-26T07:33:40.0000000+00:00</time></trkpt><trkpt lat="22.014378" lon="104.049561"><ele>477.8</ele><time>2011-04-26T07:33:45.0000000+00:00</time></trkpt><trkpt lat="22.014254" lon="104.049744"><ele>474.3</ele><time>2011-04-26T07:33:50.0000000+00:00</time></trkpt><trkpt lat="22.014124" lon="104.04985"><ele>473.2</ele><time>2011-04-26T07:33:55.0000000+00:00</time></trkpt><trkpt lat="22.013948" lon="104.050011"><ele>471.5</ele><time>2011-04-26T07:34:00.0000000+00:00</time></trkpt><trkpt lat="22.013762" lon="104.050179"><ele>470.1</ele><time>2011-04-26T07:34:05.0000000+00:00</time></trkpt><trkpt lat="22.013597" lon="104.050301"><ele>469.4</ele><time>2011-04-26T07:34:10.0000000+00:00</time></trkpt><trkpt lat="22.013472" lon="104.050446"><ele>467.4</ele><time>2011-04-26T07:34:15.0000000+00:00</time></trkpt><trkpt lat="22.013388" lon="104.05056"><ele>467.6</ele><time>2011-04-26T07:34:20.0000000+00:00</time></trkpt><trkpt lat="22.013273" lon="104.050697"><ele>467.0</ele><time>2011-04-26T07:34:25.0000000+00:00</time></trkpt><trkpt lat="22.013153" lon="104.050774"><ele>466.4</ele><time>2011-04-26T07:34:30.0000000+00:00</time></trkpt><trkpt lat="22.013071" lon="104.050812"><ele>466.4</ele><time>2011-04-26T07:34:35.0000000+00:00</time></trkpt><trkpt lat="22.012934" lon="104.05085"><ele>466.8</ele><time>2011-04-26T07:34:40.0000000+00:00</time></trkpt><trkpt lat="22.01273" lon="104.050896"><ele>466.2</ele><time>2011-04-26T07:34:45.0000000+00:00</time></trkpt><trkpt lat="22.012548" lon="104.050919"><ele>465.5</ele><time>2011-04-26T07:34:50.0000000+00:00</time></trkpt><trkpt lat="22.012403" lon="104.050949"><ele>465.1</ele><time>2011-04-26T07:34:55.0000000+00:00</time></trkpt><trkpt lat="22.012259" lon="104.050964"><ele>466.7</ele><time>2011-04-26T07:35:00.0000000+00:00</time></trkpt><trkpt lat="22.012129" lon="104.050941"><ele>468.3</ele><time>2011-04-26T07:35:05.0000000+00:00</time></trkpt><trkpt lat="22.01195" lon="104.050972"><ele>469.2</ele><time>2011-04-26T07:35:10.0000000+00:00</time></trkpt><trkpt lat="22.011831" lon="104.050987"><ele>469.2</ele><time>2011-04-26T07:35:15.0000000+00:00</time></trkpt><trkpt lat="22.011702" lon="104.050957"><ele>469.5</ele><time>2011-04-26T07:35:20.0000000+00:00</time></trkpt><trkpt lat="22.011541" lon="104.050919"><ele>472.2</ele><time>2011-04-26T07:35:25.0000000+00:00</time></trkpt><trkpt lat="22.011383" lon="104.050941"><ele>472.7</ele><time>2011-04-26T07:35:30.0000000+00:00</time></trkpt><trkpt lat="22.011292" lon="104.050987"><ele>474.6</ele><time>2011-04-26T07:35:35.0000000+00:00</time></trkpt><trkpt lat="22.01119" lon="104.050987"><ele>474.7</ele><time>2011-04-26T07:35:40.0000000+00:00</time></trkpt><trkpt lat="22.011093" lon="104.050995"><ele>476.3</ele><time>2011-04-26T07:35:45.0000000+00:00</time></trkpt><trkpt lat="22.011036" lon="104.051033"><ele>477.4</ele><time>2011-04-26T07:35:50.0000000+00:00</time></trkpt><trkpt lat="22.011044" lon="104.051041"><ele>477.9</ele><time>2011-04-26T07:35:55.0000000+00:00</time></trkpt><trkpt lat="22.011042" lon="104.051033"><ele>478.1</ele><time>2011-04-26T07:36:00.0000000+00:00</time></trkpt><trkpt lat="22.011045" lon="104.051025"><ele>478.3</ele><time>2011-04-26T07:36:05.0000000+00:00</time></trkpt><trkpt lat="22.010988" lon="104.051064"><ele>479.0</ele><time>2011-04-26T07:36:10.0000000+00:00</time></trkpt><trkpt lat="22.010836" lon="104.051201"><ele>477.9</ele><time>2011-04-26T07:36:15.0000000+00:00</time></trkpt><trkpt lat="22.010742" lon="104.051315"><ele>476.4</ele><time>2011-04-26T07:36:20.0000000+00:00</time></trkpt><trkpt lat="22.010674" lon="104.051392"><ele>474.8</ele><time>2011-04-26T07:36:25.0000000+00:00</time></trkpt><trkpt lat="22.010603" lon="104.05146"><ele>473.6</ele><time>2011-04-26T07:36:30.0000000+00:00</time></trkpt><trkpt lat="22.01059" lon="104.051498"><ele>472.0</ele><time>2011-04-26T07:36:35.0000000+00:00</time></trkpt><trkpt lat="22.01059" lon="104.051506"><ele>471.2</ele><time>2011-04-26T07:36:40.0000000+00:00</time></trkpt><trkpt lat="22.010578" lon="104.051514"><ele>471.4</ele><time>2011-04-26T07:36:45.0000000+00:00</time></trkpt><trkpt lat="22.010578" lon="104.051514"><ele>471.5</ele><time>2011-04-26T07:36:50.0000000+00:00</time></trkpt><trkpt lat="22.010578" lon="104.051514"><ele>471.5</ele><time>2011-04-26T07:36:55.0000000+00:00</time></trkpt><trkpt lat="22.01058" lon="104.051514"><ele>471.6</ele><time>2011-04-26T07:37:00.0000000+00:00</time></trkpt><trkpt lat="22.01058" lon="104.051514"><ele>471.6</ele><time>2011-04-26T07:37:05.0000000+00:00</time></trkpt><trkpt lat="22.01058" lon="104.051514"><ele>471.6</ele><time>2011-04-26T07:37:10.0000000+00:00</time></trkpt><trkpt lat="22.01058" lon="104.051514"><ele>471.6</ele><time>2011-04-26T07:37:15.0000000+00:00</time></trkpt><trkpt lat="22.01058" lon="104.051514"><ele>471.6</ele><time>2011-04-26T07:37:20.0000000+00:00</time></trkpt><trkpt lat="22.01058" lon="104.051514"><ele>471.6</ele><time>2011-04-26T07:37:25.0000000+00:00</time></trkpt><trkpt lat="22.010578" lon="104.051514"><ele>471.6</ele><time>2011-04-26T07:37:30.0000000+00:00</time></trkpt><trkpt lat="22.010578" lon="104.051514"><ele>471.6</ele><time>2011-04-26T07:37:35.0000000+00:00</time></trkpt><trkpt lat="22.010576" lon="104.051514"><ele>472.0</ele><time>2011-04-26T07:37:40.0000000+00:00</time></trkpt><trkpt lat="22.010567" lon="104.051521"><ele>471.8</ele><time>2011-04-26T07:37:45.0000000+00:00</time></trkpt><trkpt lat="22.010559" lon="104.051529"><ele>470.7</ele><time>2011-04-26T07:37:50.0000000+00:00</time></trkpt><trkpt lat="22.010553" lon="104.051529"><ele>470.4</ele><time>2011-04-26T07:37:55.0000000+00:00</time></trkpt><trkpt lat="22.01055" lon="104.051544"><ele>470.0</ele><time>2011-04-26T07:38:00.0000000+00:00</time></trkpt><trkpt lat="22.01055" lon="104.051544"><ele>471.1</ele><time>2011-04-26T07:38:05.0000000+00:00</time></trkpt><trkpt lat="22.010553" lon="104.051544"><ele>471.3</ele><time>2011-04-26T07:38:10.0000000+00:00</time></trkpt><trkpt lat="22.010557" lon="104.051544"><ele>471.8</ele><time>2011-04-26T07:38:15.0000000+00:00</time></trkpt><trkpt lat="22.010555" lon="104.051537"><ele>471.9</ele><time>2011-04-26T07:38:20.0000000+00:00</time></trkpt><trkpt lat="22.010555" lon="104.051537"><ele>471.9</ele><time>2011-04-26T07:38:25.0000000+00:00</time></trkpt><trkpt lat="22.010557" lon="104.051537"><ele>471.9</ele><time>2011-04-26T07:38:30.0000000+00:00</time></trkpt><trkpt lat="22.010542" lon="104.051537"><ele>471.9</ele><time>2011-04-26T07:38:35.0000000+00:00</time></trkpt><trkpt lat="22.010468" lon="104.051559"><ele>471.7</ele><time>2011-04-26T07:38:40.0000000+00:00</time></trkpt><trkpt lat="22.010288" lon="104.051735"><ele>471.7</ele><time>2011-04-26T07:38:45.0000000+00:00</time></trkpt><trkpt lat="22.010109" lon="104.051895"><ele>471.1</ele><time>2011-04-26T07:38:50.0000000+00:00</time></trkpt><trkpt lat="22.009911" lon="104.052055"><ele>471.3</ele><time>2011-04-26T07:38:55.0000000+00:00</time></trkpt><trkpt lat="22.009699" lon="104.052185"><ele>471.5</ele><time>2011-04-26T07:39:00.0000000+00:00</time></trkpt><trkpt lat="22.00952" lon="104.052315"><ele>470.9</ele><time>2011-04-26T07:39:05.0000000+00:00</time></trkpt><trkpt lat="22.009359" lon="104.052422"><ele>470.2</ele><time>2011-04-26T07:39:10.0000000+00:00</time></trkpt><trkpt lat="22.009157" lon="104.052551"><ele>469.6</ele><time>2011-04-26T07:39:15.0000000+00:00</time></trkpt><trkpt lat="22.008995" lon="104.052704"><ele>469.3</ele><time>2011-04-26T07:39:20.0000000+00:00</time></trkpt><trkpt lat="22.008862" lon="104.052872"><ele>468.6</ele><time>2011-04-26T07:39:25.0000000+00:00</time></trkpt><trkpt lat="22.008722" lon="104.053032"><ele>468.0</ele><time>2011-04-26T07:39:30.0000000+00:00</time></trkpt><trkpt lat="22.008644" lon="104.053131"><ele>467.9</ele><time>2011-04-26T07:39:35.0000000+00:00</time></trkpt><trkpt lat="22.008558" lon="104.053246"><ele>468.4</ele><time>2011-04-26T07:39:40.0000000+00:00</time></trkpt><trkpt lat="22.008516" lon="104.053314"><ele>468.3</ele><time>2011-04-26T07:39:45.0000000+00:00</time></trkpt><trkpt lat="22.008511" lon="104.053322"><ele>468.1</ele><time>2011-04-26T07:39:50.0000000+00:00</time></trkpt><trkpt lat="22.008503" lon="104.053345"><ele>468.1</ele><time>2011-04-26T07:39:55.0000000+00:00</time></trkpt><trkpt lat="22.008472" lon="104.053391"><ele>468.2</ele><time>2011-04-26T07:40:00.0000000+00:00</time></trkpt><trkpt lat="22.008396" lon="104.053528"><ele>469.3</ele><time>2011-04-26T07:40:05.0000000+00:00</time></trkpt><trkpt lat="22.008387" lon="104.053673"><ele>469.1</ele><time>2011-04-26T07:40:10.0000000+00:00</time></trkpt><trkpt lat="22.008375" lon="104.053825"><ele>468.9</ele><time>2011-04-26T07:40:15.0000000+00:00</time></trkpt><trkpt lat="22.00839" lon="104.054031"><ele>466.6</ele><time>2011-04-26T07:40:20.0000000+00:00</time></trkpt><trkpt lat="22.0084" lon="104.054268"><ele>467.0</ele><time>2011-04-26T07:40:25.0000000+00:00</time></trkpt><trkpt lat="22.008392" lon="104.054512"><ele>466.8</ele><time>2011-04-26T07:40:30.0000000+00:00</time></trkpt><trkpt lat="22.008339" lon="104.054726"><ele>469.1</ele><time>2011-04-26T07:40:35.0000000+00:00</time></trkpt><trkpt lat="22.008251" lon="104.054855"><ele>470.0</ele><time>2011-04-26T07:40:40.0000000+00:00</time></trkpt><trkpt lat="22.008175" lon="104.054901"><ele>471.2</ele><time>2011-04-26T07:40:45.0000000+00:00</time></trkpt><trkpt lat="22.008085" lon="104.054985"><ele>472.0</ele><time>2011-04-26T07:40:50.0000000+00:00</time></trkpt><trkpt lat="22.007992" lon="104.055107"><ele>472.4</ele><time>2011-04-26T07:40:55.0000000+00:00</time></trkpt><trkpt lat="22.007891" lon="104.055283"><ele>474.0</ele><time>2011-04-26T07:41:00.0000000+00:00</time></trkpt><trkpt lat="22.007816" lon="104.055504"><ele>475.8</ele><time>2011-04-26T07:41:05.0000000+00:00</time></trkpt><trkpt lat="22.007793" lon="104.055809"><ele>475.8</ele><time>2011-04-26T07:41:10.0000000+00:00</time></trkpt><trkpt lat="22.007833" lon="104.056099"><ele>475.9</ele><time>2011-04-26T07:41:15.0000000+00:00</time></trkpt><trkpt lat="22.007999" lon="104.05648"><ele>476.5</ele><time>2011-04-26T07:41:20.0000000+00:00</time></trkpt><trkpt lat="22.008234" lon="104.056831"><ele>476.5</ele><time>2011-04-26T07:41:25.0000000+00:00</time></trkpt><trkpt lat="22.008457" lon="104.057068"><ele>476.9</ele><time>2011-04-26T07:41:30.0000000+00:00</time></trkpt><trkpt lat="22.008615" lon="104.057312"><ele>477.3</ele><time>2011-04-26T07:41:35.0000000+00:00</time></trkpt><trkpt lat="22.008711" lon="104.05764"><ele>475.8</ele><time>2011-04-26T07:41:40.0000000+00:00</time></trkpt><trkpt lat="22.008802" lon="104.058006"><ele>473.3</ele><time>2011-04-26T07:41:45.0000000+00:00</time></trkpt><trkpt lat="22.008696" lon="104.058311"><ele>468.5</ele><time>2011-04-26T07:41:50.0000000+00:00</time></trkpt><trkpt lat="22.008595" lon="104.058441"><ele>466.8</ele><time>2011-04-26T07:41:55.0000000+00:00</time></trkpt><trkpt lat="22.00852" lon="104.05854"><ele>465.3</ele><time>2011-04-26T07:42:00.0000000+00:00</time></trkpt><trkpt lat="22.008421" lon="104.058731"><ele>464.4</ele><time>2011-04-26T07:42:05.0000000+00:00</time></trkpt><trkpt lat="22.008326" lon="104.058914"><ele>461.6</ele><time>2011-04-26T07:42:10.0000000+00:00</time></trkpt><trkpt lat="22.008232" lon="104.059074"><ele>458.5</ele><time>2011-04-26T07:42:15.0000000+00:00</time></trkpt><trkpt lat="22.008123" lon="104.059196"><ele>455.5</ele><time>2011-04-26T07:42:20.0000000+00:00</time></trkpt><trkpt lat="22.007978" lon="104.059303"><ele>454.1</ele><time>2011-04-26T07:42:25.0000000+00:00</time></trkpt><trkpt lat="22.007849" lon="104.059402"><ele>452.3</ele><time>2011-04-26T07:42:30.0000000+00:00</time></trkpt><trkpt lat="22.007717" lon="104.059486"><ele>450.9</ele><time>2011-04-26T07:42:35.0000000+00:00</time></trkpt><trkpt lat="22.007566" lon="104.059578"><ele>449.3</ele><time>2011-04-26T07:42:40.0000000+00:00</time></trkpt><trkpt lat="22.007416" lon="104.059692"><ele>446.5</ele><time>2011-04-26T07:42:45.0000000+00:00</time></trkpt><trkpt lat="22.00728" lon="104.059792"><ele>444.4</ele><time>2011-04-26T07:42:50.0000000+00:00</time></trkpt><trkpt lat="22.00716" lon="104.059944"><ele>441.7</ele><time>2011-04-26T07:42:55.0000000+00:00</time></trkpt><trkpt lat="22.007084" lon="104.060074"><ele>439.9</ele><time>2011-04-26T07:43:00.0000000+00:00</time></trkpt><trkpt lat="22.006985" lon="104.06031"><ele>436.6</ele><time>2011-04-26T07:43:05.0000000+00:00</time></trkpt><trkpt lat="22.00692" lon="104.060471"><ele>433.7</ele><time>2011-04-26T07:43:10.0000000+00:00</time></trkpt><trkpt lat="22.006887" lon="104.060501"><ele>433.3</ele><time>2011-04-26T07:43:15.0000000+00:00</time></trkpt><trkpt lat="22.006887" lon="104.060501"><ele>433.1</ele><time>2011-04-26T07:43:20.0000000+00:00</time></trkpt><trkpt lat="22.006882" lon="104.060516"><ele>432.9</ele><time>2011-04-26T07:43:25.0000000+00:00</time></trkpt><trkpt lat="22.006886" lon="104.060516"><ele>432.8</ele><time>2011-04-26T07:43:30.0000000+00:00</time></trkpt><trkpt lat="22.00688" lon="104.060516"><ele>432.9</ele><time>2011-04-26T07:43:35.0000000+00:00</time></trkpt><trkpt lat="22.006863" lon="104.060623"><ele>432.9</ele><time>2011-04-26T07:43:40.0000000+00:00</time></trkpt><trkpt lat="22.00684" lon="104.060806"><ele>432.6</ele><time>2011-04-26T07:43:45.0000000+00:00</time></trkpt><trkpt lat="22.006815" lon="104.060997"><ele>431.4</ele><time>2011-04-26T07:43:50.0000000+00:00</time></trkpt><trkpt lat="22.006912" lon="104.061157"><ele>430.4</ele><time>2011-04-26T07:43:55.0000000+00:00</time></trkpt><trkpt lat="22.007038" lon="104.061264"><ele>429.2</ele><time>2011-04-26T07:44:00.0000000+00:00</time></trkpt><trkpt lat="22.007116" lon="104.061409"><ele>428.3</ele><time>2011-04-26T07:44:05.0000000+00:00</time></trkpt><trkpt lat="22.007154" lon="104.061501"><ele>427.3</ele><time>2011-04-26T07:44:10.0000000+00:00</time></trkpt><trkpt lat="22.007164" lon="104.061584"><ele>426.5</ele><time>2011-04-26T07:44:15.0000000+00:00</time></trkpt><trkpt lat="22.007185" lon="104.061691"><ele>426.0</ele><time>2011-04-26T07:44:20.0000000+00:00</time></trkpt><trkpt lat="22.007229" lon="104.06179"><ele>425.4</ele><time>2011-04-26T07:44:25.0000000+00:00</time></trkpt><trkpt lat="22.007263" lon="104.061905"><ele>425.1</ele><time>2011-04-26T07:44:30.0000000+00:00</time></trkpt><trkpt lat="22.007259" lon="104.062012"><ele>424.7</ele><time>2011-04-26T07:44:35.0000000+00:00</time></trkpt><trkpt lat="22.007206" lon="104.062119"><ele>424.3</ele><time>2011-04-26T07:44:40.0000000+00:00</time></trkpt><trkpt lat="22.007153" lon="104.062241"><ele>424.0</ele><time>2011-04-26T07:44:45.0000000+00:00</time></trkpt><trkpt lat="22.007114" lon="104.062347"><ele>423.8</ele><time>2011-04-26T07:44:50.0000000+00:00</time></trkpt><trkpt lat="22.007036" lon="104.062469"><ele>423.6</ele><time>2011-04-26T07:44:55.0000000+00:00</time></trkpt><trkpt lat="22.006966" lon="104.062653"><ele>423.1</ele><time>2011-04-26T07:45:00.0000000+00:00</time></trkpt><trkpt lat="22.006861" lon="104.062874"><ele>422.7</ele><time>2011-04-26T07:45:05.0000000+00:00</time></trkpt><trkpt lat="22.006691" lon="104.063148"><ele>422.4</ele><time>2011-04-26T07:45:10.0000000+00:00</time></trkpt><trkpt lat="22.006428" lon="104.063454"><ele>422.5</ele><time>2011-04-26T07:45:15.0000000+00:00</time></trkpt><trkpt lat="22.006172" lon="104.063705"><ele>422.6</ele><time>2011-04-26T07:45:20.0000000+00:00</time></trkpt><trkpt lat="22.005955" lon="104.063911"><ele>423.2</ele><time>2011-04-26T07:45:25.0000000+00:00</time></trkpt><trkpt lat="22.005823" lon="104.064011"><ele>423.4</ele><time>2011-04-26T07:45:30.0000000+00:00</time></trkpt><trkpt lat="22.005714" lon="104.064056"><ele>423.3</ele><time>2011-04-26T07:45:35.0000000+00:00</time></trkpt><trkpt lat="22.005581" lon="104.064095"><ele>423.3</ele><time>2011-04-26T07:45:40.0000000+00:00</time></trkpt><trkpt lat="22.005419" lon="104.064102"><ele>425.1</ele><time>2011-04-26T07:45:45.0000000+00:00</time></trkpt><trkpt lat="22.005316" lon="104.064232"><ele>424.2</ele><time>2011-04-26T07:45:50.0000000+00:00</time></trkpt><trkpt lat="22.00523" lon="104.064308"><ele>424.0</ele><time>2011-04-26T07:45:55.0000000+00:00</time></trkpt><trkpt lat="22.005125" lon="104.064438"><ele>424.8</ele><time>2011-04-26T07:46:00.0000000+00:00</time></trkpt><trkpt lat="22.005041" lon="104.064568"><ele>425.2</ele><time>2011-04-26T07:46:05.0000000+00:00</time></trkpt><trkpt lat="22.004986" lon="104.064697"><ele>426.5</ele><time>2011-04-26T07:46:10.0000000+00:00</time></trkpt><trkpt lat="22.004944" lon="104.064873"><ele>427.9</ele><time>2011-04-26T07:46:15.0000000+00:00</time></trkpt><trkpt lat="22.004946" lon="104.065125"><ele>429.9</ele><time>2011-04-26T07:46:20.0000000+00:00</time></trkpt><trkpt lat="22.004932" lon="104.065315"><ele>431.1</ele><time>2011-04-26T07:46:25.0000000+00:00</time></trkpt><trkpt lat="22.004879" lon="104.065559"><ele>433.9</ele><time>2011-04-26T07:46:30.0000000+00:00</time></trkpt><trkpt lat="22.00485" lon="104.065628"><ele>431.0</ele><time>2011-04-26T07:46:35.0000000+00:00</time></trkpt><trkpt lat="22.004848" lon="104.065636"><ele>431.0</ele><time>2011-04-26T07:46:40.0000000+00:00</time></trkpt><trkpt lat="22.004848" lon="104.065636"><ele>431.1</ele><time>2011-04-26T07:46:45.0000000+00:00</time></trkpt><trkpt lat="22.004848" lon="104.065636"><ele>431.2</ele><time>2011-04-26T07:46:50.0000000+00:00</time></trkpt><trkpt lat="22.004848" lon="104.065636"><ele>431.1</ele><time>2011-04-26T07:46:55.0000000+00:00</time></trkpt><trkpt lat="22.004845" lon="104.065697"><ele>431.3</ele><time>2011-04-26T07:47:00.0000000+00:00</time></trkpt><trkpt lat="22.004845" lon="104.065872"><ele>431.9</ele><time>2011-04-26T07:47:05.0000000+00:00</time></trkpt><trkpt lat="22.004835" lon="104.06604"><ele>432.5</ele><time>2011-04-26T07:47:10.0000000+00:00</time></trkpt><trkpt lat="22.004856" lon="104.0662"><ele>432.8</ele><time>2011-04-26T07:47:15.0000000+00:00</time></trkpt><trkpt lat="22.004915" lon="104.066292"><ele>433.8</ele><time>2011-04-26T07:47:20.0000000+00:00</time></trkpt><trkpt lat="22.004995" lon="104.066383"><ele>434.3</ele><time>2011-04-26T07:47:25.0000000+00:00</time></trkpt><trkpt lat="22.005068" lon="104.066483"><ele>434.8</ele><time>2011-04-26T07:47:30.0000000+00:00</time></trkpt><trkpt lat="22.005129" lon="104.066574"><ele>435.3</ele><time>2011-04-26T07:47:35.0000000+00:00</time></trkpt><trkpt lat="22.005173" lon="104.066658"><ele>435.9</ele><time>2011-04-26T07:47:40.0000000+00:00</time></trkpt><trkpt lat="22.005213" lon="104.06675"><ele>436.3</ele><time>2011-04-26T07:47:45.0000000+00:00</time></trkpt><trkpt lat="22.005226" lon="104.066833"><ele>436.9</ele><time>2011-04-26T07:47:50.0000000+00:00</time></trkpt><trkpt lat="22.005234" lon="104.06691"><ele>437.5</ele><time>2011-04-26T07:47:55.0000000+00:00</time></trkpt><trkpt lat="22.005224" lon="104.066986"><ele>438.2</ele><time>2011-04-26T07:48:00.0000000+00:00</time></trkpt><trkpt lat="22.005215" lon="104.06707"><ele>438.6</ele><time>2011-04-26T07:48:05.0000000+00:00</time></trkpt><trkpt lat="22.005205" lon="104.067108"><ele>439.2</ele><time>2011-04-26T07:48:10.0000000+00:00</time></trkpt><trkpt lat="22.005201" lon="104.067162"><ele>439.7</ele><time>2011-04-26T07:48:15.0000000+00:00</time></trkpt><trkpt lat="22.005194" lon="104.067261"><ele>440.1</ele><time>2011-04-26T07:48:20.0000000+00:00</time></trkpt><trkpt lat="22.005184" lon="104.067314"><ele>440.4</ele><time>2011-04-26T07:48:25.0000000+00:00</time></trkpt><trkpt lat="22.005194" lon="104.067398"><ele>440.9</ele><time>2011-04-26T07:48:30.0000000+00:00</time></trkpt><trkpt lat="22.005194" lon="104.067505"><ele>441.1</ele><time>2011-04-26T07:48:35.0000000+00:00</time></trkpt><trkpt lat="22.005192" lon="104.067574"><ele>441.6</ele><time>2011-04-26T07:48:40.0000000+00:00</time></trkpt><trkpt lat="22.005194" lon="104.067657"><ele>442.3</ele><time>2011-04-26T07:48:45.0000000+00:00</time></trkpt><trkpt lat="22.005163" lon="104.067726"><ele>443.1</ele><time>2011-04-26T07:48:50.0000000+00:00</time></trkpt><trkpt lat="22.005167" lon="104.067818"><ele>443.8</ele><time>2011-04-26T07:48:55.0000000+00:00</time></trkpt><trkpt lat="22.005188" lon="104.067909"><ele>444.3</ele><time>2011-04-26T07:49:00.0000000+00:00</time></trkpt><trkpt lat="22.005213" lon="104.067986"><ele>444.9</ele><time>2011-04-26T07:49:05.0000000+00:00</time></trkpt><trkpt lat="22.005236" lon="104.068054"><ele>445.9</ele><time>2011-04-26T07:49:10.0000000+00:00</time></trkpt><trkpt lat="22.005224" lon="104.06813"><ele>446.8</ele><time>2011-04-26T07:49:15.0000000+00:00</time></trkpt><trkpt lat="22.005232" lon="104.068237"><ele>447.4</ele><time>2011-04-26T07:49:20.0000000+00:00</time></trkpt><trkpt lat="22.005236" lon="104.068336"><ele>447.8</ele><time>2011-04-26T07:49:25.0000000+00:00</time></trkpt><trkpt lat="22.00527" lon="104.068428"><ele>448.0</ele><time>2011-04-26T07:49:30.0000000+00:00</time></trkpt><trkpt lat="22.005278" lon="104.068512"><ele>448.6</ele><time>2011-04-26T07:49:35.0000000+00:00</time></trkpt><trkpt lat="22.005276" lon="104.068596"><ele>449.1</ele><time>2011-04-26T07:49:40.0000000+00:00</time></trkpt><trkpt lat="22.005287" lon="104.068657"><ele>449.6</ele><time>2011-04-26T07:49:45.0000000+00:00</time></trkpt><trkpt lat="22.005257" lon="104.068748"><ele>449.6</ele><time>2011-04-26T07:49:50.0000000+00:00</time></trkpt><trkpt lat="22.005224" lon="104.068848"><ele>449.9</ele><time>2011-04-26T07:49:55.0000000+00:00</time></trkpt><trkpt lat="22.005205" lon="104.068993"><ele>450.0</ele><time>2011-04-26T07:50:00.0000000+00:00</time></trkpt><trkpt lat="22.005173" lon="104.069145"><ele>451.7</ele><time>2011-04-26T07:50:05.0000000+00:00</time></trkpt><trkpt lat="22.005167" lon="104.069283"><ele>453.2</ele><time>2011-04-26T07:50:10.0000000+00:00</time></trkpt><trkpt lat="22.005175" lon="104.069397"><ele>454.4</ele><time>2011-04-26T07:50:15.0000000+00:00</time></trkpt><trkpt lat="22.005157" lon="104.069534"><ele>455.2</ele><time>2011-04-26T07:50:20.0000000+00:00</time></trkpt><trkpt lat="22.005123" lon="104.069725"><ele>456.7</ele><time>2011-04-26T07:50:25.0000000+00:00</time></trkpt><trkpt lat="22.005136" lon="104.069832"><ele>456.9</ele><time>2011-04-26T07:50:30.0000000+00:00</time></trkpt><trkpt lat="22.005157" lon="104.069916"><ele>457.7</ele><time>2011-04-26T07:50:35.0000000+00:00</time></trkpt><trkpt lat="22.005161" lon="104.070038"><ele>459.0</ele><time>2011-04-26T07:50:40.0000000+00:00</time></trkpt><trkpt lat="22.005131" lon="104.070183"><ele>459.8</ele><time>2011-04-26T07:50:45.0000000+00:00</time></trkpt><trkpt lat="22.005123" lon="104.070351"><ele>459.9</ele><time>2011-04-26T07:50:50.0000000+00:00</time></trkpt><trkpt lat="22.005152" lon="104.070465"><ele>461.4</ele><time>2011-04-26T07:50:55.0000000+00:00</time></trkpt><trkpt lat="22.005148" lon="104.070503"><ele>462.1</ele><time>2011-04-26T07:51:00.0000000+00:00</time></trkpt><trkpt lat="22.005135" lon="104.070518"><ele>462.4</ele><time>2011-04-26T07:51:05.0000000+00:00</time></trkpt><trkpt lat="22.005135" lon="104.070518"><ele>462.5</ele><time>2011-04-26T07:51:10.0000000+00:00</time></trkpt><trkpt lat="22.005138" lon="104.070518"><ele>462.6</ele><time>2011-04-26T07:51:15.0000000+00:00</time></trkpt><trkpt lat="22.00514" lon="104.070518"><ele>462.6</ele><time>2011-04-26T07:51:20.0000000+00:00</time></trkpt><trkpt lat="22.00514" lon="104.070518"><ele>462.6</ele><time>2011-04-26T07:51:25.0000000+00:00</time></trkpt><trkpt lat="22.005144" lon="104.070526"><ele>462.6</ele><time>2011-04-26T07:51:30.0000000+00:00</time></trkpt><trkpt lat="22.005148" lon="104.070526"><ele>462.6</ele><time>2011-04-26T07:51:35.0000000+00:00</time></trkpt><trkpt lat="22.005148" lon="104.070526"><ele>462.6</ele><time>2011-04-26T07:51:40.0000000+00:00</time></trkpt><trkpt lat="22.005146" lon="104.070526"><ele>462.6</ele><time>2011-04-26T07:51:45.0000000+00:00</time></trkpt><trkpt lat="22.00515" lon="104.070526"><ele>462.6</ele><time>2011-04-26T07:51:50.0000000+00:00</time></trkpt><trkpt lat="22.005152" lon="104.070526"><ele>462.6</ele><time>2011-04-26T07:51:55.0000000+00:00</time></trkpt><trkpt lat="22.00515" lon="104.070526"><ele>462.6</ele><time>2011-04-26T07:52:00.0000000+00:00</time></trkpt><trkpt lat="22.00515" lon="104.070526"><ele>462.6</ele><time>2011-04-26T07:52:05.0000000+00:00</time></trkpt><trkpt lat="22.005148" lon="104.070526"><ele>462.6</ele><time>2011-04-26T07:52:10.0000000+00:00</time></trkpt><trkpt lat="22.005146" lon="104.070526"><ele>462.6</ele><time>2011-04-26T07:52:15.0000000+00:00</time></trkpt><trkpt lat="22.005146" lon="104.070526"><ele>462.6</ele><time>2011-04-26T07:52:20.0000000+00:00</time></trkpt><trkpt lat="22.00515" lon="104.070526"><ele>462.6</ele><time>2011-04-26T07:52:25.0000000+00:00</time></trkpt><trkpt lat="22.005152" lon="104.070526"><ele>462.5</ele><time>2011-04-26T07:52:30.0000000+00:00</time></trkpt><trkpt lat="22.005152" lon="104.070526"><ele>462.5</ele><time>2011-04-26T07:52:35.0000000+00:00</time></trkpt><trkpt lat="22.005152" lon="104.070526"><ele>462.5</ele><time>2011-04-26T07:52:40.0000000+00:00</time></trkpt><trkpt lat="22.005152" lon="104.070526"><ele>462.5</ele><time>2011-04-26T07:52:45.0000000+00:00</time></trkpt><trkpt lat="22.005154" lon="104.070526"><ele>462.5</ele><time>2011-04-26T07:52:50.0000000+00:00</time></trkpt><trkpt lat="22.005154" lon="104.070526"><ele>462.5</ele><time>2011-04-26T07:52:55.0000000+00:00</time></trkpt><trkpt lat="22.005154" lon="104.070526"><ele>462.5</ele><time>2011-04-26T07:53:00.0000000+00:00</time></trkpt><trkpt lat="22.005154" lon="104.070526"><ele>462.5</ele><time>2011-04-26T07:53:05.0000000+00:00</time></trkpt><trkpt lat="22.005154" lon="104.070526"><ele>462.5</ele><time>2011-04-26T07:53:10.0000000+00:00</time></trkpt><trkpt lat="22.005156" lon="104.070526"><ele>462.5</ele><time>2011-04-26T07:53:15.0000000+00:00</time></trkpt><trkpt lat="22.005156" lon="104.070526"><ele>462.5</ele><time>2011-04-26T07:53:20.0000000+00:00</time></trkpt><trkpt lat="22.005156" lon="104.070526"><ele>462.6</ele><time>2011-04-26T07:53:25.0000000+00:00</time></trkpt><trkpt lat="22.005156" lon="104.070526"><ele>462.6</ele><time>2011-04-26T07:53:30.0000000+00:00</time></trkpt><trkpt lat="22.005156" lon="104.070526"><ele>462.6</ele><time>2011-04-26T07:53:35.0000000+00:00</time></trkpt><trkpt lat="22.005154" lon="104.070526"><ele>462.6</ele><time>2011-04-26T07:53:40.0000000+00:00</time></trkpt><trkpt lat="22.005154" lon="104.070526"><ele>462.7</ele><time>2011-04-26T07:53:45.0000000+00:00</time></trkpt><trkpt lat="22.005154" lon="104.070526"><ele>462.7</ele><time>2011-04-26T07:53:50.0000000+00:00</time></trkpt><trkpt lat="22.005152" lon="104.070526"><ele>462.7</ele><time>2011-04-26T07:53:55.0000000+00:00</time></trkpt><trkpt lat="22.005152" lon="104.070526"><ele>462.7</ele><time>2011-04-26T07:54:00.0000000+00:00</time></trkpt><trkpt lat="22.005152" lon="104.070526"><ele>462.7</ele><time>2011-04-26T07:54:05.0000000+00:00</time></trkpt><trkpt lat="22.005154" lon="104.070526"><ele>462.7</ele><time>2011-04-26T07:54:10.0000000+00:00</time></trkpt><trkpt lat="22.005154" lon="104.070526"><ele>462.7</ele><time>2011-04-26T07:54:15.0000000+00:00</time></trkpt><trkpt lat="22.005154" lon="104.070526"><ele>462.7</ele><time>2011-04-26T07:54:20.0000000+00:00</time></trkpt><trkpt lat="22.005154" lon="104.070526"><ele>462.7</ele><time>2011-04-26T07:54:25.0000000+00:00</time></trkpt><trkpt lat="22.005154" lon="104.070518"><ele>462.7</ele><time>2011-04-26T07:54:30.0000000+00:00</time></trkpt><trkpt lat="22.005154" lon="104.070518"><ele>462.7</ele><time>2011-04-26T07:54:35.0000000+00:00</time></trkpt><trkpt lat="22.005154" lon="104.070518"><ele>462.8</ele><time>2011-04-26T07:54:40.0000000+00:00</time></trkpt><trkpt lat="22.005154" lon="104.070511"><ele>462.9</ele><time>2011-04-26T07:54:45.0000000+00:00</time></trkpt><trkpt lat="22.005154" lon="104.070511"><ele>462.9</ele><time>2011-04-26T07:54:50.0000000+00:00</time></trkpt><trkpt lat="22.005154" lon="104.070511"><ele>463.0</ele><time>2011-04-26T07:54:55.0000000+00:00</time></trkpt><trkpt lat="22.005154" lon="104.070503"><ele>463.1</ele><time>2011-04-26T07:55:00.0000000+00:00</time></trkpt><trkpt lat="22.005156" lon="104.070503"><ele>463.2</ele><time>2011-04-26T07:55:05.0000000+00:00</time></trkpt><trkpt lat="22.005156" lon="104.070503"><ele>463.2</ele><time>2011-04-26T07:55:10.0000000+00:00</time></trkpt><trkpt lat="22.005156" lon="104.070503"><ele>463.3</ele><time>2011-04-26T07:55:15.0000000+00:00</time></trkpt><trkpt lat="22.005157" lon="104.070496"><ele>463.4</ele><time>2011-04-26T07:55:20.0000000+00:00</time></trkpt><trkpt lat="22.005161" lon="104.070496"><ele>463.4</ele><time>2011-04-26T07:55:25.0000000+00:00</time></trkpt><trkpt lat="22.005163" lon="104.070488"><ele>463.5</ele><time>2011-04-26T07:55:30.0000000+00:00</time></trkpt><trkpt lat="22.005165" lon="104.070488"><ele>463.6</ele><time>2011-04-26T07:55:35.0000000+00:00</time></trkpt><trkpt lat="22.005167" lon="104.07048"><ele>463.6</ele><time>2011-04-26T07:55:40.0000000+00:00</time></trkpt><trkpt lat="22.005167" lon="104.07048"><ele>463.7</ele><time>2011-04-26T07:55:45.0000000+00:00</time></trkpt><trkpt lat="22.005169" lon="104.070473"><ele>463.7</ele><time>2011-04-26T07:55:50.0000000+00:00</time></trkpt><trkpt lat="22.005169" lon="104.070473"><ele>463.8</ele><time>2011-04-26T07:55:55.0000000+00:00</time></trkpt><trkpt lat="22.005169" lon="104.07048"><ele>463.8</ele><time>2011-04-26T07:56:00.0000000+00:00</time></trkpt><trkpt lat="22.005169" lon="104.07048"><ele>463.8</ele><time>2011-04-26T07:56:05.0000000+00:00</time></trkpt><trkpt lat="22.005171" lon="104.07048"><ele>463.9</ele><time>2011-04-26T07:56:10.0000000+00:00</time></trkpt><trkpt lat="22.005173" lon="104.07048"><ele>463.9</ele><time>2011-04-26T07:56:15.0000000+00:00</time></trkpt><trkpt lat="22.005175" lon="104.07048"><ele>463.9</ele><time>2011-04-26T07:56:20.0000000+00:00</time></trkpt><trkpt lat="22.005177" lon="104.070488"><ele>463.9</ele><time>2011-04-26T07:56:25.0000000+00:00</time></trkpt><trkpt lat="22.005177" lon="104.070488"><ele>464.0</ele><time>2011-04-26T07:56:30.0000000+00:00</time></trkpt><trkpt lat="22.005177" lon="104.07048"><ele>464.0</ele><time>2011-04-26T07:56:35.0000000+00:00</time></trkpt><trkpt lat="22.005175" lon="104.07048"><ele>464.0</ele><time>2011-04-26T07:56:40.0000000+00:00</time></trkpt><trkpt lat="22.005173" lon="104.070488"><ele>464.0</ele><time>2011-04-26T07:56:45.0000000+00:00</time></trkpt><trkpt lat="22.005171" lon="104.070488"><ele>464.1</ele><time>2011-04-26T07:56:50.0000000+00:00</time></trkpt><trkpt lat="22.005169" lon="104.070488"><ele>464.1</ele><time>2011-04-26T07:56:55.0000000+00:00</time></trkpt><trkpt lat="22.005167" lon="104.070488"><ele>464.1</ele><time>2011-04-26T07:57:00.0000000+00:00</time></trkpt><trkpt lat="22.005163" lon="104.070496"><ele>464.2</ele><time>2011-04-26T07:57:05.0000000+00:00</time></trkpt><trkpt lat="22.005159" lon="104.070503"><ele>464.2</ele><time>2011-04-26T07:57:10.0000000+00:00</time></trkpt><trkpt lat="22.005154" lon="104.070511"><ele>464.2</ele><time>2011-04-26T07:57:15.0000000+00:00</time></trkpt><trkpt lat="22.005148" lon="104.070518"><ele>464.2</ele><time>2011-04-26T07:57:20.0000000+00:00</time></trkpt><trkpt lat="22.005142" lon="104.070534"><ele>464.2</ele><time>2011-04-26T07:57:25.0000000+00:00</time></trkpt><trkpt lat="22.005138" lon="104.070541"><ele>464.3</ele><time>2011-04-26T07:57:30.0000000+00:00</time></trkpt><trkpt lat="22.005135" lon="104.070549"><ele>464.3</ele><time>2011-04-26T07:57:35.0000000+00:00</time></trkpt><trkpt lat="22.005135" lon="104.070557"><ele>464.3</ele><time>2011-04-26T07:57:40.0000000+00:00</time></trkpt><trkpt lat="22.005135" lon="104.070557"><ele>464.3</ele><time>2011-04-26T07:57:45.0000000+00:00</time></trkpt><trkpt lat="22.005135" lon="104.070557"><ele>464.3</ele><time>2011-04-26T07:57:50.0000000+00:00</time></trkpt><trkpt lat="22.005135" lon="104.070557"><ele>464.3</ele><time>2011-04-26T07:57:55.0000000+00:00</time></trkpt><trkpt lat="22.005136" lon="104.070557"><ele>464.3</ele><time>2011-04-26T07:58:00.0000000+00:00</time></trkpt><trkpt lat="22.005142" lon="104.070557"><ele>464.3</ele><time>2011-04-26T07:58:05.0000000+00:00</time></trkpt><trkpt lat="22.005175" lon="104.070602"><ele>464.2</ele><time>2011-04-26T07:58:10.0000000+00:00</time></trkpt><trkpt lat="22.005215" lon="104.070763"><ele>463.8</ele><time>2011-04-26T07:58:15.0000000+00:00</time></trkpt><trkpt lat="22.005161" lon="104.071106"><ele>462.5</ele><time>2011-04-26T07:58:20.0000000+00:00</time></trkpt><trkpt lat="22.005243" lon="104.071297"><ele>461.6</ele><time>2011-04-26T07:58:25.0000000+00:00</time></trkpt><trkpt lat="22.005293" lon="104.071388"><ele>461.2</ele><time>2011-04-26T07:58:30.0000000+00:00</time></trkpt><trkpt lat="22.005396" lon="104.071495"><ele>460.3</ele><time>2011-04-26T07:58:35.0000000+00:00</time></trkpt><trkpt lat="22.005455" lon="104.071587"><ele>459.9</ele><time>2011-04-26T07:58:40.0000000+00:00</time></trkpt><trkpt lat="22.005491" lon="104.071671"><ele>459.6</ele><time>2011-04-26T07:58:45.0000000+00:00</time></trkpt><trkpt lat="22.005497" lon="104.071739"><ele>459.2</ele><time>2011-04-26T07:58:50.0000000+00:00</time></trkpt><trkpt lat="22.005468" lon="104.071808"><ele>459.9</ele><time>2011-04-26T07:58:55.0000000+00:00</time></trkpt><trkpt lat="22.005423" lon="104.071899"><ele>460.4</ele><time>2011-04-26T07:59:00.0000000+00:00</time></trkpt><trkpt lat="22.005386" lon="104.071968"><ele>460.3</ele><time>2011-04-26T07:59:05.0000000+00:00</time></trkpt><trkpt lat="22.005337" lon="104.072052"><ele>460.3</ele><time>2011-04-26T07:59:10.0000000+00:00</time></trkpt><trkpt lat="22.005301" lon="104.072121"><ele>460.4</ele><time>2011-04-26T07:59:15.0000000+00:00</time></trkpt><trkpt lat="22.005243" lon="104.072182"><ele>460.7</ele><time>2011-04-26T07:59:20.0000000+00:00</time></trkpt><trkpt lat="22.005171" lon="104.072273"><ele>460.4</ele><time>2011-04-26T07:59:25.0000000+00:00</time></trkpt><trkpt lat="22.005125" lon="104.072433"><ele>460.6</ele><time>2011-04-26T07:59:30.0000000+00:00</time></trkpt><trkpt lat="22.005157" lon="104.072556"><ele>461.5</ele><time>2011-04-26T07:59:35.0000000+00:00</time></trkpt><trkpt lat="22.005177" lon="104.07267"><ele>462.5</ele><time>2011-04-26T07:59:40.0000000+00:00</time></trkpt><trkpt lat="22.005198" lon="104.072762"><ele>463.3</ele><time>2011-04-26T07:59:45.0000000+00:00</time></trkpt><trkpt lat="22.005211" lon="104.072853"><ele>464.3</ele><time>2011-04-26T07:59:50.0000000+00:00</time></trkpt><trkpt lat="22.00523" lon="104.072937"><ele>465.5</ele><time>2011-04-26T07:59:55.0000000+00:00</time></trkpt><trkpt lat="22.005276" lon="104.073013"><ele>466.2</ele><time>2011-04-26T08:00:00.0000000+00:00</time></trkpt><trkpt lat="22.005346" lon="104.073082"><ele>467.2</ele><time>2011-04-26T08:00:05.0000000+00:00</time></trkpt><trkpt lat="22.005421" lon="104.073097"><ele>468.0</ele><time>2011-04-26T08:00:10.0000000+00:00</time></trkpt><trkpt lat="22.005499" lon="104.07309"><ele>468.6</ele><time>2011-04-26T08:00:15.0000000+00:00</time></trkpt><trkpt lat="22.005569" lon="104.073074"><ele>469.3</ele><time>2011-04-26T08:00:20.0000000+00:00</time></trkpt><trkpt lat="22.005629" lon="104.073067"><ele>469.7</ele><time>2011-04-26T08:00:25.0000000+00:00</time></trkpt><trkpt lat="22.005707" lon="104.073059"><ele>470.1</ele><time>2011-04-26T08:00:30.0000000+00:00</time></trkpt><trkpt lat="22.005781" lon="104.073051"><ele>470.4</ele><time>2011-04-26T08:00:35.0000000+00:00</time></trkpt><trkpt lat="22.005878" lon="104.073006"><ele>471.1</ele><time>2011-04-26T08:00:40.0000000+00:00</time></trkpt><trkpt lat="22.005962" lon="104.07299"><ele>471.8</ele><time>2011-04-26T08:00:45.0000000+00:00</time></trkpt><trkpt lat="22.006044" lon="104.072891"><ele>472.3</ele><time>2011-04-26T08:00:50.0000000+00:00</time></trkpt><trkpt lat="22.006126" lon="104.072861"><ele>472.8</ele><time>2011-04-26T08:00:55.0000000+00:00</time></trkpt><trkpt lat="22.006201" lon="104.072823"><ele>473.1</ele><time>2011-04-26T08:01:00.0000000+00:00</time></trkpt><trkpt lat="22.006296" lon="104.07283"><ele>473.4</ele><time>2011-04-26T08:01:05.0000000+00:00</time></trkpt><trkpt lat="22.006388" lon="104.072884"><ele>474.0</ele><time>2011-04-26T08:01:10.0000000+00:00</time></trkpt><trkpt lat="22.006464" lon="104.072929"><ele>473.4</ele><time>2011-04-26T08:01:15.0000000+00:00</time></trkpt><trkpt lat="22.006508" lon="104.072983"><ele>473.8</ele><time>2011-04-26T08:01:20.0000000+00:00</time></trkpt><trkpt lat="22.006542" lon="104.073051"><ele>475.7</ele><time>2011-04-26T08:01:25.0000000+00:00</time></trkpt><trkpt lat="22.006544" lon="104.073135"><ele>476.7</ele><time>2011-04-26T08:01:30.0000000+00:00</time></trkpt><trkpt lat="22.006533" lon="104.073204"><ele>477.6</ele><time>2011-04-26T08:01:35.0000000+00:00</time></trkpt><trkpt lat="22.006533" lon="104.073303"><ele>478.2</ele><time>2011-04-26T08:01:40.0000000+00:00</time></trkpt><trkpt lat="22.006529" lon="104.07341"><ele>479.1</ele><time>2011-04-26T08:01:45.0000000+00:00</time></trkpt><trkpt lat="22.006554" lon="104.073593"><ele>479.9</ele><time>2011-04-26T08:01:50.0000000+00:00</time></trkpt><trkpt lat="22.006636" lon="104.073692"><ele>481.1</ele><time>2011-04-26T08:01:55.0000000+00:00</time></trkpt><trkpt lat="22.006651" lon="104.073685"><ele>481.7</ele><time>2011-04-26T08:02:00.0000000+00:00</time></trkpt><trkpt lat="22.006647" lon="104.073685"><ele>482.0</ele><time>2011-04-26T08:02:05.0000000+00:00</time></trkpt><trkpt lat="22.006645" lon="104.073685"><ele>482.0</ele><time>2011-04-26T08:02:10.0000000+00:00</time></trkpt><trkpt lat="22.006647" lon="104.073685"><ele>482.3</ele><time>2011-04-26T08:02:15.0000000+00:00</time></trkpt><trkpt lat="22.006647" lon="104.073692"><ele>482.1</ele><time>2011-04-26T08:02:20.0000000+00:00</time></trkpt><trkpt lat="22.006647" lon="104.073692"><ele>482.2</ele><time>2011-04-26T08:02:25.0000000+00:00</time></trkpt><trkpt lat="22.006622" lon="104.0737"><ele>482.4</ele><time>2011-04-26T08:02:30.0000000+00:00</time></trkpt><trkpt lat="22.006605" lon="104.0737"><ele>482.4</ele><time>2011-04-26T08:02:35.0000000+00:00</time></trkpt><trkpt lat="22.00659" lon="104.073708"><ele>482.5</ele><time>2011-04-26T08:02:40.0000000+00:00</time></trkpt><trkpt lat="22.00659" lon="104.073723"><ele>482.7</ele><time>2011-04-26T08:02:45.0000000+00:00</time></trkpt><trkpt lat="22.006592" lon="104.073723"><ele>482.8</ele><time>2011-04-26T08:02:50.0000000+00:00</time></trkpt><trkpt lat="22.00659" lon="104.073715"><ele>482.9</ele><time>2011-04-26T08:02:55.0000000+00:00</time></trkpt><trkpt lat="22.00659" lon="104.073715"><ele>482.9</ele><time>2011-04-26T08:03:00.0000000+00:00</time></trkpt><trkpt lat="22.006588" lon="104.073708"><ele>482.9</ele><time>2011-04-26T08:03:05.0000000+00:00</time></trkpt><trkpt lat="22.006588" lon="104.073692"><ele>482.9</ele><time>2011-04-26T08:03:10.0000000+00:00</time></trkpt><trkpt lat="22.00659" lon="104.073692"><ele>482.9</ele><time>2011-04-26T08:03:15.0000000+00:00</time></trkpt><trkpt lat="22.006639" lon="104.073723"><ele>482.7</ele><time>2011-04-26T08:03:20.0000000+00:00</time></trkpt><trkpt lat="22.006737" lon="104.073784"><ele>482.4</ele><time>2011-04-26T08:03:25.0000000+00:00</time></trkpt><trkpt lat="22.006769" lon="104.073792"><ele>482.3</ele><time>2011-04-26T08:03:30.0000000+00:00</time></trkpt><trkpt lat="22.006763" lon="104.073792"><ele>482.3</ele><time>2011-04-26T08:03:35.0000000+00:00</time></trkpt><trkpt lat="22.006765" lon="104.073799"><ele>481.8</ele><time>2011-04-26T08:03:40.0000000+00:00</time></trkpt><trkpt lat="22.006865" lon="104.07386"><ele>481.1</ele><time>2011-04-26T08:03:45.0000000+00:00</time></trkpt><trkpt lat="22.007088" lon="104.073997"><ele>480.4</ele><time>2011-04-26T08:03:50.0000000+00:00</time></trkpt><trkpt lat="22.007364" lon="104.074181"><ele>479.5</ele><time>2011-04-26T08:03:55.0000000+00:00</time></trkpt><trkpt lat="22.00765" lon="104.074478"><ele>478.7</ele><time>2011-04-26T08:04:00.0000000+00:00</time></trkpt><trkpt lat="22.008045" lon="104.07486"><ele>477.6</ele><time>2011-04-26T08:04:05.0000000+00:00</time></trkpt><trkpt lat="22.008448" lon="104.075241"><ele>475.5</ele><time>2011-04-26T08:04:10.0000000+00:00</time></trkpt><trkpt lat="22.008965" lon="104.075584"><ele>473.7</ele><time>2011-04-26T08:04:15.0000000+00:00</time></trkpt><trkpt lat="22.009464" lon="104.076012"><ele>471.5</ele><time>2011-04-26T08:04:20.0000000+00:00</time></trkpt><trkpt lat="22.00984" lon="104.076256"><ele>468.9</ele><time>2011-04-26T08:04:25.0000000+00:00</time></trkpt><trkpt lat="22.010033" lon="104.076324"><ele>466.3</ele><time>2011-04-26T08:04:30.0000000+00:00</time></trkpt><trkpt lat="22.010094" lon="104.076347"><ele>464.8</ele><time>2011-04-26T08:04:35.0000000+00:00</time></trkpt><trkpt lat="22.010101" lon="104.076355"><ele>464.7</ele><time>2011-04-26T08:04:40.0000000+00:00</time></trkpt><trkpt lat="22.010105" lon="104.076355"><ele>464.5</ele><time>2011-04-26T08:04:45.0000000+00:00</time></trkpt><trkpt lat="22.010117" lon="104.07637"><ele>464.4</ele><time>2011-04-26T08:04:50.0000000+00:00</time></trkpt><trkpt lat="22.01037" lon="104.076439"><ele>461.6</ele><time>2011-04-26T08:04:55.0000000+00:00</time></trkpt><trkpt lat="22.010681" lon="104.076553"><ele>459.5</ele><time>2011-04-26T08:05:00.0000000+00:00</time></trkpt><trkpt lat="22.010952" lon="104.076668"><ele>454.2</ele><time>2011-04-26T08:05:05.0000000+00:00</time></trkpt><trkpt lat="22.011259" lon="104.076599"><ele>452.7</ele><time>2011-04-26T08:05:10.0000000+00:00</time></trkpt><trkpt lat="22.011572" lon="104.076607"><ele>451.7</ele><time>2011-04-26T08:05:15.0000000+00:00</time></trkpt><trkpt lat="22.011814" lon="104.076752"><ele>449.2</ele><time>2011-04-26T08:05:20.0000000+00:00</time></trkpt><trkpt lat="22.011877" lon="104.076729"><ele>446.8</ele><time>2011-04-26T08:05:25.0000000+00:00</time></trkpt><trkpt lat="22.011881" lon="104.076729"><ele>446.6</ele><time>2011-04-26T08:05:30.0000000+00:00</time></trkpt><trkpt lat="22.01195" lon="104.076706"><ele>443.0</ele><time>2011-04-26T08:05:35.0000000+00:00</time></trkpt><trkpt lat="22.01195" lon="104.076698"><ele>442.7</ele><time>2011-04-26T08:05:40.0000000+00:00</time></trkpt><trkpt lat="22.01195" lon="104.076698"><ele>442.6</ele><time>2011-04-26T08:05:45.0000000+00:00</time></trkpt><trkpt lat="22.01195" lon="104.076698"><ele>442.6</ele><time>2011-04-26T08:05:50.0000000+00:00</time></trkpt><trkpt lat="22.01195" lon="104.076698"><ele>442.6</ele><time>2011-04-26T08:05:55.0000000+00:00</time></trkpt><trkpt lat="22.01195" lon="104.076698"><ele>442.6</ele><time>2011-04-26T08:06:00.0000000+00:00</time></trkpt><trkpt lat="22.011982" lon="104.076721"><ele>441.8</ele><time>2011-04-26T08:06:05.0000000+00:00</time></trkpt><trkpt lat="22.012066" lon="104.076782"><ele>440.8</ele><time>2011-04-26T08:06:10.0000000+00:00</time></trkpt><trkpt lat="22.012222" lon="104.076851"><ele>440.6</ele><time>2011-04-26T08:06:15.0000000+00:00</time></trkpt><trkpt lat="22.012369" lon="104.076935"><ele>440.6</ele><time>2011-04-26T08:06:20.0000000+00:00</time></trkpt><trkpt lat="22.012491" lon="104.077003"><ele>440.6</ele><time>2011-04-26T08:06:25.0000000+00:00</time></trkpt><trkpt lat="22.012543" lon="104.077057"><ele>439.9</ele><time>2011-04-26T08:06:30.0000000+00:00</time></trkpt><trkpt lat="22.012541" lon="104.077065"><ele>440.1</ele><time>2011-04-26T08:06:35.0000000+00:00</time></trkpt><trkpt lat="22.012535" lon="104.077072"><ele>440.1</ele><time>2011-04-26T08:06:40.0000000+00:00</time></trkpt><trkpt lat="22.012533" lon="104.077072"><ele>440.1</ele><time>2011-04-26T08:06:45.0000000+00:00</time></trkpt><trkpt lat="22.012531" lon="104.077072"><ele>440.1</ele><time>2011-04-26T08:06:50.0000000+00:00</time></trkpt><trkpt lat="22.012531" lon="104.077072"><ele>440.1</ele><time>2011-04-26T08:06:55.0000000+00:00</time></trkpt><trkpt lat="22.012531" lon="104.07708"><ele>440.1</ele><time>2011-04-26T08:07:00.0000000+00:00</time></trkpt><trkpt lat="22.012535" lon="104.07708"><ele>440.1</ele><time>2011-04-26T08:07:05.0000000+00:00</time></trkpt><trkpt lat="22.012533" lon="104.07708"><ele>440.1</ele><time>2011-04-26T08:07:10.0000000+00:00</time></trkpt><trkpt lat="22.012535" lon="104.077087"><ele>440.1</ele><time>2011-04-26T08:07:15.0000000+00:00</time></trkpt><trkpt lat="22.012537" lon="104.077095"><ele>440.1</ele><time>2011-04-26T08:07:20.0000000+00:00</time></trkpt><trkpt lat="22.012537" lon="104.077103"><ele>440.1</ele><time>2011-04-26T08:07:25.0000000+00:00</time></trkpt><trkpt lat="22.012535" lon="104.077103"><ele>440.2</ele><time>2011-04-26T08:07:30.0000000+00:00</time></trkpt><trkpt lat="22.012531" lon="104.07711"><ele>440.2</ele><time>2011-04-26T08:07:35.0000000+00:00</time></trkpt><trkpt lat="22.012531" lon="104.07711"><ele>440.2</ele><time>2011-04-26T08:07:40.0000000+00:00</time></trkpt><trkpt lat="22.012531" lon="104.07711"><ele>440.2</ele><time>2011-04-26T08:07:45.0000000+00:00</time></trkpt><trkpt lat="22.012531" lon="104.07711"><ele>440.1</ele><time>2011-04-26T08:07:50.0000000+00:00</time></trkpt><trkpt lat="22.012539" lon="104.07711"><ele>440.1</ele><time>2011-04-26T08:07:55.0000000+00:00</time></trkpt><trkpt lat="22.012541" lon="104.077103"><ele>440.1</ele><time>2011-04-26T08:08:00.0000000+00:00</time></trkpt><trkpt lat="22.012541" lon="104.077103"><ele>440.1</ele><time>2011-04-26T08:08:05.0000000+00:00</time></trkpt><trkpt lat="22.012543" lon="104.077103"><ele>440.1</ele><time>2011-04-26T08:08:10.0000000+00:00</time></trkpt><trkpt lat="22.012545" lon="104.077095"><ele>440.1</ele><time>2011-04-26T08:08:15.0000000+00:00</time></trkpt><trkpt lat="22.012545" lon="104.077095"><ele>440.1</ele><time>2011-04-26T08:08:20.0000000+00:00</time></trkpt><trkpt lat="22.012541" lon="104.077103"><ele>440.1</ele><time>2011-04-26T08:08:25.0000000+00:00</time></trkpt><trkpt lat="22.012541" lon="104.077103"><ele>440.1</ele><time>2011-04-26T08:08:30.0000000+00:00</time></trkpt><trkpt lat="22.012543" lon="104.077103"><ele>440.1</ele><time>2011-04-26T08:08:35.0000000+00:00</time></trkpt><trkpt lat="22.012547" lon="104.077103"><ele>440.1</ele><time>2011-04-26T08:08:40.0000000+00:00</time></trkpt><trkpt lat="22.012548" lon="104.07711"><ele>440.0</ele><time>2011-04-26T08:08:45.0000000+00:00</time></trkpt><trkpt lat="22.01255" lon="104.077118"><ele>440.0</ele><time>2011-04-26T08:08:50.0000000+00:00</time></trkpt><trkpt lat="22.012552" lon="104.077118"><ele>440.0</ele><time>2011-04-26T08:08:55.0000000+00:00</time></trkpt><trkpt lat="22.012554" lon="104.077126"><ele>440.0</ele><time>2011-04-26T08:09:00.0000000+00:00</time></trkpt><trkpt lat="22.012558" lon="104.077133"><ele>440.0</ele><time>2011-04-26T08:09:05.0000000+00:00</time></trkpt><trkpt lat="22.01256" lon="104.077133"><ele>440.0</ele><time>2011-04-26T08:09:10.0000000+00:00</time></trkpt><trkpt lat="22.01256" lon="104.077133"><ele>440.0</ele><time>2011-04-26T08:09:15.0000000+00:00</time></trkpt><trkpt lat="22.012564" lon="104.077133"><ele>440.0</ele><time>2011-04-26T08:09:20.0000000+00:00</time></trkpt><trkpt lat="22.012571" lon="104.077141"><ele>439.9</ele><time>2011-04-26T08:09:25.0000000+00:00</time></trkpt><trkpt lat="22.012575" lon="104.077141"><ele>439.9</ele><time>2011-04-26T08:09:30.0000000+00:00</time></trkpt><trkpt lat="22.012581" lon="104.077141"><ele>439.9</ele><time>2011-04-26T08:09:35.0000000+00:00</time></trkpt><trkpt lat="22.012583" lon="104.077148"><ele>439.9</ele><time>2011-04-26T08:09:40.0000000+00:00</time></trkpt><trkpt lat="22.012583" lon="104.077156"><ele>439.9</ele><time>2011-04-26T08:09:45.0000000+00:00</time></trkpt><trkpt lat="22.012585" lon="104.077156"><ele>439.9</ele><time>2011-04-26T08:09:50.0000000+00:00</time></trkpt><trkpt lat="22.012587" lon="104.077164"><ele>439.8</ele><time>2011-04-26T08:09:55.0000000+00:00</time></trkpt><trkpt lat="22.012592" lon="104.077156"><ele>439.8</ele><time>2011-04-26T08:10:00.0000000+00:00</time></trkpt><trkpt lat="22.012596" lon="104.077148"><ele>439.7</ele><time>2011-04-26T08:10:05.0000000+00:00</time></trkpt><trkpt lat="22.0126" lon="104.077141"><ele>439.7</ele><time>2011-04-26T08:10:10.0000000+00:00</time></trkpt><trkpt lat="22.012602" lon="104.077141"><ele>439.7</ele><time>2011-04-26T08:10:15.0000000+00:00</time></trkpt><trkpt lat="22.012602" lon="104.077141"><ele>439.7</ele><time>2011-04-26T08:10:20.0000000+00:00</time></trkpt><trkpt lat="22.012602" lon="104.077148"><ele>439.6</ele><time>2011-04-26T08:10:25.0000000+00:00</time></trkpt><trkpt lat="22.012604" lon="104.077148"><ele>439.6</ele><time>2011-04-26T08:10:30.0000000+00:00</time></trkpt><trkpt lat="22.012606" lon="104.077141"><ele>439.6</ele><time>2011-04-26T08:10:35.0000000+00:00</time></trkpt><trkpt lat="22.012611" lon="104.077118"><ele>438.9</ele><time>2011-04-26T08:10:40.0000000+00:00</time></trkpt><trkpt lat="22.012636" lon="104.077065"><ele>436.3</ele><time>2011-04-26T08:10:45.0000000+00:00</time></trkpt><trkpt lat="22.012646" lon="104.077042"><ele>435.0</ele><time>2011-04-26T08:10:50.0000000+00:00</time></trkpt><trkpt lat="22.012646" lon="104.077034"><ele>434.9</ele><time>2011-04-26T08:10:55.0000000+00:00</time></trkpt><trkpt lat="22.012646" lon="104.077026"><ele>434.8</ele><time>2011-04-26T08:11:00.0000000+00:00</time></trkpt><trkpt lat="22.012646" lon="104.077026"><ele>434.8</ele><time>2011-04-26T08:11:05.0000000+00:00</time></trkpt><trkpt lat="22.012644" lon="104.077026"><ele>434.8</ele><time>2011-04-26T08:11:10.0000000+00:00</time></trkpt><trkpt lat="22.012644" lon="104.077019"><ele>434.7</ele><time>2011-04-26T08:11:15.0000000+00:00</time></trkpt><trkpt lat="22.012642" lon="104.077019"><ele>434.7</ele><time>2011-04-26T08:11:20.0000000+00:00</time></trkpt><trkpt lat="22.012642" lon="104.077026"><ele>434.6</ele><time>2011-04-26T08:11:25.0000000+00:00</time></trkpt><trkpt lat="22.01264" lon="104.077019"><ele>434.5</ele><time>2011-04-26T08:11:30.0000000+00:00</time></trkpt><trkpt lat="22.012636" lon="104.077019"><ele>434.5</ele><time>2011-04-26T08:11:35.0000000+00:00</time></trkpt><trkpt lat="22.012634" lon="104.077019"><ele>434.4</ele><time>2011-04-26T08:11:40.0000000+00:00</time></trkpt><trkpt lat="22.012634" lon="104.077019"><ele>434.4</ele><time>2011-04-26T08:11:45.0000000+00:00</time></trkpt><trkpt lat="22.01263" lon="104.077026"><ele>434.3</ele><time>2011-04-26T08:11:50.0000000+00:00</time></trkpt><trkpt lat="22.012629" lon="104.077026"><ele>434.3</ele><time>2011-04-26T08:11:55.0000000+00:00</time></trkpt><trkpt lat="22.012625" lon="104.077034"><ele>434.3</ele><time>2011-04-26T08:12:00.0000000+00:00</time></trkpt><trkpt lat="22.012623" lon="104.077042"><ele>434.3</ele><time>2011-04-26T08:12:05.0000000+00:00</time></trkpt><trkpt lat="22.012621" lon="104.077049"><ele>434.3</ele><time>2011-04-26T08:12:10.0000000+00:00</time></trkpt><trkpt lat="22.012621" lon="104.077042"><ele>434.2</ele><time>2011-04-26T08:12:15.0000000+00:00</time></trkpt><trkpt lat="22.012634" lon="104.077019"><ele>434.0</ele><time>2011-04-26T08:12:20.0000000+00:00</time></trkpt><trkpt lat="22.012644" lon="104.077019"><ele>433.7</ele><time>2011-04-26T08:12:25.0000000+00:00</time></trkpt><trkpt lat="22.012646" lon="104.077019"><ele>433.6</ele><time>2011-04-26T08:12:30.0000000+00:00</time></trkpt><trkpt lat="22.012644" lon="104.077026"><ele>433.6</ele><time>2011-04-26T08:12:35.0000000+00:00</time></trkpt><trkpt lat="22.012642" lon="104.077026"><ele>433.4</ele><time>2011-04-26T08:12:40.0000000+00:00</time></trkpt><trkpt lat="22.012638" lon="104.077026"><ele>433.4</ele><time>2011-04-26T08:12:45.0000000+00:00</time></trkpt><trkpt lat="22.01264" lon="104.077026"><ele>433.3</ele><time>2011-04-26T08:12:50.0000000+00:00</time></trkpt><trkpt lat="22.012644" lon="104.077026"><ele>433.2</ele><time>2011-04-26T08:12:55.0000000+00:00</time></trkpt><trkpt lat="22.012651" lon="104.077019"><ele>433.2</ele><time>2011-04-26T08:13:00.0000000+00:00</time></trkpt><trkpt lat="22.012659" lon="104.077019"><ele>433.1</ele><time>2011-04-26T08:13:05.0000000+00:00</time></trkpt><trkpt lat="22.012691" lon="104.077026"><ele>432.5</ele><time>2011-04-26T08:13:10.0000000+00:00</time></trkpt><trkpt lat="22.012751" lon="104.077072"><ele>431.8</ele><time>2011-04-26T08:13:15.0000000+00:00</time></trkpt><trkpt lat="22.012791" lon="104.077141"><ele>430.5</ele><time>2011-04-26T08:13:20.0000000+00:00</time></trkpt><trkpt lat="22.012907" lon="104.077232"><ele>429.9</ele><time>2011-04-26T08:13:25.0000000+00:00</time></trkpt><trkpt lat="22.013021" lon="104.077278"><ele>429.3</ele><time>2011-04-26T08:13:30.0000000+00:00</time></trkpt><trkpt lat="22.013136" lon="104.077278"><ele>428.4</ele><time>2011-04-26T08:13:35.0000000+00:00</time></trkpt><trkpt lat="22.013239" lon="104.077293"><ele>427.4</ele><time>2011-04-26T08:13:40.0000000+00:00</time></trkpt><trkpt lat="22.013329" lon="104.077309"><ele>423.7</ele><time>2011-04-26T08:13:45.0000000+00:00</time></trkpt><trkpt lat="22.013445" lon="104.077332"><ele>419.5</ele><time>2011-04-26T08:13:50.0000000+00:00</time></trkpt><trkpt lat="22.013544" lon="104.077362"><ele>417.3</ele><time>2011-04-26T08:13:55.0000000+00:00</time></trkpt><trkpt lat="22.013632" lon="104.077408"><ele>414.2</ele><time>2011-04-26T08:14:00.0000000+00:00</time></trkpt><trkpt lat="22.013739" lon="104.077461"><ele>412.8</ele><time>2011-04-26T08:14:05.0000000+00:00</time></trkpt><trkpt lat="22.013851" lon="104.077522"><ele>412.1</ele><time>2011-04-26T08:14:10.0000000+00:00</time></trkpt><trkpt lat="22.013962" lon="104.077583"><ele>411.1</ele><time>2011-04-26T08:14:15.0000000+00:00</time></trkpt><trkpt lat="22.014061" lon="104.077713"><ele>411.2</ele><time>2011-04-26T08:14:20.0000000+00:00</time></trkpt><trkpt lat="22.014172" lon="104.077812"><ele>410.5</ele><time>2011-04-26T08:14:25.0000000+00:00</time></trkpt><trkpt lat="22.014278" lon="104.077911"><ele>409.9</ele><time>2011-04-26T08:14:30.0000000+00:00</time></trkpt><trkpt lat="22.014418" lon="104.077919"><ele>408.7</ele><time>2011-04-26T08:14:35.0000000+00:00</time></trkpt><trkpt lat="22.014557" lon="104.077888"><ele>408.5</ele><time>2011-04-26T08:14:40.0000000+00:00</time></trkpt><trkpt lat="22.014694" lon="104.077827"><ele>408.4</ele><time>2011-04-26T08:14:45.0000000+00:00</time></trkpt><trkpt lat="22.014788" lon="104.077766"><ele>408.6</ele><time>2011-04-26T08:14:50.0000000+00:00</time></trkpt><trkpt lat="22.014889" lon="104.077713"><ele>409.1</ele><time>2011-04-26T08:14:55.0000000+00:00</time></trkpt><trkpt lat="22.01499" lon="104.077667"><ele>409.5</ele><time>2011-04-26T08:15:00.0000000+00:00</time></trkpt><trkpt lat="22.015097" lon="104.077621"><ele>409.4</ele><time>2011-04-26T08:15:05.0000000+00:00</time></trkpt><trkpt lat="22.015221" lon="104.077599"><ele>410.3</ele><time>2011-04-26T08:15:10.0000000+00:00</time></trkpt><trkpt lat="22.015322" lon="104.077568"><ele>411.0</ele><time>2011-04-26T08:15:15.0000000+00:00</time></trkpt><trkpt lat="22.015444" lon="104.077545"><ele>411.8</ele><time>2011-04-26T08:15:20.0000000+00:00</time></trkpt><trkpt lat="22.015566" lon="104.077454"><ele>412.7</ele><time>2011-04-26T08:15:25.0000000+00:00</time></trkpt><trkpt lat="22.015661" lon="104.077415"><ele>414.9</ele><time>2011-04-26T08:15:30.0000000+00:00</time></trkpt><trkpt lat="22.015776" lon="104.077354"><ele>416.6</ele><time>2011-04-26T08:15:35.0000000+00:00</time></trkpt><trkpt lat="22.015879" lon="104.077286"><ele>418.4</ele><time>2011-04-26T08:15:40.0000000+00:00</time></trkpt><trkpt lat="22.016001" lon="104.077225"><ele>420.1</ele><time>2011-04-26T08:15:45.0000000+00:00</time></trkpt><trkpt lat="22.016069" lon="104.077148"><ele>420.1</ele><time>2011-04-26T08:15:50.0000000+00:00</time></trkpt><trkpt lat="22.016144" lon="104.077087"><ele>420.9</ele><time>2011-04-26T08:15:55.0000000+00:00</time></trkpt><trkpt lat="22.016224" lon="104.077026"><ele>420.3</ele><time>2011-04-26T08:16:00.0000000+00:00</time></trkpt><trkpt lat="22.016346" lon="104.07695"><ele>421.1</ele><time>2011-04-26T08:16:05.0000000+00:00</time></trkpt><trkpt lat="22.016468" lon="104.076904"><ele>420.6</ele><time>2011-04-26T08:16:10.0000000+00:00</time></trkpt><trkpt lat="22.016602" lon="104.07682"><ele>420.4</ele><time>2011-04-26T08:16:15.0000000+00:00</time></trkpt><trkpt lat="22.016756" lon="104.076752"><ele>421.0</ele><time>2011-04-26T08:16:20.0000000+00:00</time></trkpt><trkpt lat="22.016933" lon="104.076653"><ele>420.8</ele><time>2011-04-26T08:16:25.0000000+00:00</time></trkpt><trkpt lat="22.017145" lon="104.076538"><ele>420.3</ele><time>2011-04-26T08:16:30.0000000+00:00</time></trkpt><trkpt lat="22.017429" lon="104.076485"><ele>419.4</ele><time>2011-04-26T08:16:35.0000000+00:00</time></trkpt><trkpt lat="22.017744" lon="104.076393"><ele>419.7</ele><time>2011-04-26T08:16:40.0000000+00:00</time></trkpt><trkpt lat="22.018003" lon="104.076317"><ele>420.0</ele><time>2011-04-26T08:16:45.0000000+00:00</time></trkpt><trkpt lat="22.018211" lon="104.07621"><ele>418.8</ele><time>2011-04-26T08:16:50.0000000+00:00</time></trkpt><trkpt lat="22.018387" lon="104.076225"><ele>417.2</ele><time>2011-04-26T08:16:55.0000000+00:00</time></trkpt><trkpt lat="22.018511" lon="104.076271"><ele>416.1</ele><time>2011-04-26T08:17:00.0000000+00:00</time></trkpt><trkpt lat="22.018616" lon="104.076332"><ele>415.9</ele><time>2011-04-26T08:17:05.0000000+00:00</time></trkpt><trkpt lat="22.018724" lon="104.076363"><ele>416.6</ele><time>2011-04-26T08:17:10.0000000+00:00</time></trkpt><trkpt lat="22.018833" lon="104.076416"><ele>417.1</ele><time>2011-04-26T08:17:15.0000000+00:00</time></trkpt><trkpt lat="22.018898" lon="104.076469"><ele>417.3</ele><time>2011-04-26T08:17:20.0000000+00:00</time></trkpt><trkpt lat="22.018965" lon="104.076515"><ele>416.7</ele><time>2011-04-26T08:17:25.0000000+00:00</time></trkpt><trkpt lat="22.018988" lon="104.076561"><ele>416.9</ele><time>2011-04-26T08:17:30.0000000+00:00</time></trkpt><trkpt lat="22.019039" lon="104.076607"><ele>416.3</ele><time>2011-04-26T08:17:35.0000000+00:00</time></trkpt><trkpt lat="22.019068" lon="104.076675"><ele>416.2</ele><time>2011-04-26T08:17:40.0000000+00:00</time></trkpt><trkpt lat="22.019108" lon="104.076729"><ele>416.3</ele><time>2011-04-26T08:17:45.0000000+00:00</time></trkpt><trkpt lat="22.019135" lon="104.076797"><ele>416.2</ele><time>2011-04-26T08:17:50.0000000+00:00</time></trkpt><trkpt lat="22.019154" lon="104.076851"><ele>415.8</ele><time>2011-04-26T08:17:55.0000000+00:00</time></trkpt><trkpt lat="22.019156" lon="104.076889"><ele>416.0</ele><time>2011-04-26T08:18:00.0000000+00:00</time></trkpt><trkpt lat="22.019156" lon="104.076942"><ele>415.8</ele><time>2011-04-26T08:18:05.0000000+00:00</time></trkpt><trkpt lat="22.019182" lon="104.077011"><ele>416.1</ele><time>2011-04-26T08:18:10.0000000+00:00</time></trkpt><trkpt lat="22.019209" lon="104.077095"><ele>415.8</ele><time>2011-04-26T08:18:15.0000000+00:00</time></trkpt><trkpt lat="22.019222" lon="104.077171"><ele>415.6</ele><time>2011-04-26T08:18:20.0000000+00:00</time></trkpt><trkpt lat="22.019243" lon="104.077209"><ele>415.9</ele><time>2011-04-26T08:18:25.0000000+00:00</time></trkpt><trkpt lat="22.019279" lon="104.077263"><ele>416.8</ele><time>2011-04-26T08:18:30.0000000+00:00</time></trkpt><trkpt lat="22.01932" lon="104.077309"><ele>417.5</ele><time>2011-04-26T08:18:35.0000000+00:00</time></trkpt><trkpt lat="22.019375" lon="104.077316"><ele>417.7</ele><time>2011-04-26T08:18:40.0000000+00:00</time></trkpt><trkpt lat="22.019444" lon="104.077339"><ele>417.9</ele><time>2011-04-26T08:18:45.0000000+00:00</time></trkpt><trkpt lat="22.019495" lon="104.077377"><ele>418.5</ele><time>2011-04-26T08:18:50.0000000+00:00</time></trkpt><trkpt lat="22.019552" lon="104.077385"><ele>419.1</ele><time>2011-04-26T08:18:55.0000000+00:00</time></trkpt><trkpt lat="22.019567" lon="104.077423"><ele>418.9</ele><time>2011-04-26T08:19:00.0000000+00:00</time></trkpt><trkpt lat="22.0196" lon="104.077431"><ele>418.7</ele><time>2011-04-26T08:19:05.0000000+00:00</time></trkpt><trkpt lat="22.019651" lon="104.077454"><ele>418.6</ele><time>2011-04-26T08:19:10.0000000+00:00</time></trkpt><trkpt lat="22.019686" lon="104.077438"><ele>418.8</ele><time>2011-04-26T08:19:15.0000000+00:00</time></trkpt><trkpt lat="22.019726" lon="104.077446"><ele>418.4</ele><time>2011-04-26T08:19:20.0000000+00:00</time></trkpt><trkpt lat="22.019766" lon="104.077484"><ele>418.9</ele><time>2011-04-26T08:19:25.0000000+00:00</time></trkpt><trkpt lat="22.019804" lon="104.077522"><ele>419.1</ele><time>2011-04-26T08:19:30.0000000+00:00</time></trkpt><trkpt lat="22.019831" lon="104.07756"><ele>419.6</ele><time>2011-04-26T08:19:35.0000000+00:00</time></trkpt><trkpt lat="22.019854" lon="104.077583"><ele>419.9</ele><time>2011-04-26T08:19:40.0000000+00:00</time></trkpt><trkpt lat="22.019886" lon="104.077583"><ele>419.3</ele><time>2011-04-26T08:19:45.0000000+00:00</time></trkpt><trkpt lat="22.019936" lon="104.077614"><ele>419.1</ele><time>2011-04-26T08:19:50.0000000+00:00</time></trkpt><trkpt lat="22.01997" lon="104.077606"><ele>419.7</ele><time>2011-04-26T08:19:55.0000000+00:00</time></trkpt><trkpt lat="22.019999" lon="104.077591"><ele>420.7</ele><time>2011-04-26T08:20:00.0000000+00:00</time></trkpt><trkpt lat="22.020041" lon="104.077599"><ele>421.8</ele><time>2011-04-26T08:20:05.0000000+00:00</time></trkpt><trkpt lat="22.020077" lon="104.077614"><ele>422.8</ele><time>2011-04-26T08:20:10.0000000+00:00</time></trkpt><trkpt lat="22.020115" lon="104.077637"><ele>423.1</ele><time>2011-04-26T08:20:15.0000000+00:00</time></trkpt><trkpt lat="22.020149" lon="104.077644"><ele>423.7</ele><time>2011-04-26T08:20:20.0000000+00:00</time></trkpt><trkpt lat="22.020191" lon="104.07766"><ele>424.1</ele><time>2011-04-26T08:20:25.0000000+00:00</time></trkpt><trkpt lat="22.020243" lon="104.077667"><ele>424.6</ele><time>2011-04-26T08:20:30.0000000+00:00</time></trkpt><trkpt lat="22.020285" lon="104.077682"><ele>425.2</ele><time>2011-04-26T08:20:35.0000000+00:00</time></trkpt><trkpt lat="22.020319" lon="104.077705"><ele>426.1</ele><time>2011-04-26T08:20:40.0000000+00:00</time></trkpt><trkpt lat="22.02037" lon="104.077713"><ele>427.0</ele><time>2011-04-26T08:20:45.0000000+00:00</time></trkpt><trkpt lat="22.020407" lon="104.077713"><ele>428.3</ele><time>2011-04-26T08:20:50.0000000+00:00</time></trkpt><trkpt lat="22.020483" lon="104.077705"><ele>429.7</ele><time>2011-04-26T08:20:55.0000000+00:00</time></trkpt><trkpt lat="22.020544" lon="104.077698"><ele>432.9</ele><time>2011-04-26T08:21:00.0000000+00:00</time></trkpt><trkpt lat="22.020605" lon="104.07769"><ele>433.0</ele><time>2011-04-26T08:21:05.0000000+00:00</time></trkpt><trkpt lat="22.020655" lon="104.077675"><ele>434.7</ele><time>2011-04-26T08:21:10.0000000+00:00</time></trkpt><trkpt lat="22.020683" lon="104.077675"><ele>435.4</ele><time>2011-04-26T08:21:15.0000000+00:00</time></trkpt><trkpt lat="22.02071" lon="104.07766"><ele>436.6</ele><time>2011-04-26T08:21:20.0000000+00:00</time></trkpt><trkpt lat="22.020739" lon="104.077644"><ele>438.5</ele><time>2011-04-26T08:21:25.0000000+00:00</time></trkpt><trkpt lat="22.020782" lon="104.077637"><ele>440.0</ele><time>2011-04-26T08:21:30.0000000+00:00</time></trkpt><trkpt lat="22.020826" lon="104.077637"><ele>440.9</ele><time>2011-04-26T08:21:35.0000000+00:00</time></trkpt><trkpt lat="22.020863" lon="104.077614"><ele>441.8</ele><time>2011-04-26T08:21:40.0000000+00:00</time></trkpt><trkpt lat="22.020916" lon="104.077599"><ele>442.9</ele><time>2011-04-26T08:21:45.0000000+00:00</time></trkpt><trkpt lat="22.020977" lon="104.07756"><ele>443.0</ele><time>2011-04-26T08:21:50.0000000+00:00</time></trkpt><trkpt lat="22.021015" lon="104.07753"><ele>443.6</ele><time>2011-04-26T08:21:55.0000000+00:00</time></trkpt><trkpt lat="22.021042" lon="104.077522"><ele>444.4</ele><time>2011-04-26T08:22:00.0000000+00:00</time></trkpt><trkpt lat="22.021088" lon="104.077499"><ele>444.8</ele><time>2011-04-26T08:22:05.0000000+00:00</time></trkpt><trkpt lat="22.021126" lon="104.077469"><ele>445.3</ele><time>2011-04-26T08:22:10.0000000+00:00</time></trkpt><trkpt lat="22.021166" lon="104.077446"><ele>445.7</ele><time>2011-04-26T08:22:15.0000000+00:00</time></trkpt><trkpt lat="22.021194" lon="104.077446"><ele>444.6</ele><time>2011-04-26T08:22:20.0000000+00:00</time></trkpt><trkpt lat="22.021189" lon="104.077446"><ele>444.9</ele><time>2011-04-26T08:22:25.0000000+00:00</time></trkpt><trkpt lat="22.021191" lon="104.077438"><ele>445.6</ele><time>2011-04-26T08:22:30.0000000+00:00</time></trkpt><trkpt lat="22.021208" lon="104.077431"><ele>446.4</ele><time>2011-04-26T08:22:35.0000000+00:00</time></trkpt><trkpt lat="22.021254" lon="104.077415"><ele>446.8</ele><time>2011-04-26T08:22:40.0000000+00:00</time></trkpt><trkpt lat="22.021292" lon="104.077393"><ele>447.3</ele><time>2011-04-26T08:22:45.0000000+00:00</time></trkpt><trkpt lat="22.021351" lon="104.077393"><ele>447.7</ele><time>2011-04-26T08:22:50.0000000+00:00</time></trkpt><trkpt lat="22.021391" lon="104.077385"><ele>448.3</ele><time>2011-04-26T08:22:55.0000000+00:00</time></trkpt><trkpt lat="22.021442" lon="104.07737"><ele>448.9</ele><time>2011-04-26T08:23:00.0000000+00:00</time></trkpt><trkpt lat="22.021482" lon="104.077347"><ele>448.8</ele><time>2011-04-26T08:23:05.0000000+00:00</time></trkpt><trkpt lat="22.021505" lon="104.077385"><ele>448.8</ele><time>2011-04-26T08:23:10.0000000+00:00</time></trkpt><trkpt lat="22.02154" lon="104.07737"><ele>449.1</ele><time>2011-04-26T08:23:15.0000000+00:00</time></trkpt><trkpt lat="22.021584" lon="104.077377"><ele>449.4</ele><time>2011-04-26T08:23:20.0000000+00:00</time></trkpt><trkpt lat="22.021624" lon="104.077377"><ele>450.5</ele><time>2011-04-26T08:23:25.0000000+00:00</time></trkpt><trkpt lat="22.021669" lon="104.0774"><ele>451.2</ele><time>2011-04-26T08:23:30.0000000+00:00</time></trkpt><trkpt lat="22.021713" lon="104.077385"><ele>452.2</ele><time>2011-04-26T08:23:35.0000000+00:00</time></trkpt><trkpt lat="22.021763" lon="104.077385"><ele>452.5</ele><time>2011-04-26T08:23:40.0000000+00:00</time></trkpt><trkpt lat="22.021803" lon="104.07737"><ele>452.8</ele><time>2011-04-26T08:23:45.0000000+00:00</time></trkpt><trkpt lat="22.021812" lon="104.077377"><ele>452.2</ele><time>2011-04-26T08:23:50.0000000+00:00</time></trkpt><trkpt lat="22.021816" lon="104.077408"><ele>452.6</ele><time>2011-04-26T08:23:55.0000000+00:00</time></trkpt><trkpt lat="22.021835" lon="104.0774"><ele>452.4</ele><time>2011-04-26T08:24:00.0000000+00:00</time></trkpt><trkpt lat="22.021894" lon="104.0774"><ele>452.9</ele><time>2011-04-26T08:24:05.0000000+00:00</time></trkpt><trkpt lat="22.021961" lon="104.077415"><ele>453.7</ele><time>2011-04-26T08:24:10.0000000+00:00</time></trkpt><trkpt lat="22.022041" lon="104.077431"><ele>455.0</ele><time>2011-04-26T08:24:15.0000000+00:00</time></trkpt><trkpt lat="22.02212" lon="104.077438"><ele>457.0</ele><time>2011-04-26T08:24:20.0000000+00:00</time></trkpt><trkpt lat="22.022198" lon="104.077446"><ele>457.4</ele><time>2011-04-26T08:24:25.0000000+00:00</time></trkpt><trkpt lat="22.022301" lon="104.077499"><ele>456.8</ele><time>2011-04-26T08:24:30.0000000+00:00</time></trkpt><trkpt lat="22.022417" lon="104.077576"><ele>458.4</ele><time>2011-04-26T08:24:35.0000000+00:00</time></trkpt><trkpt lat="22.022484" lon="104.07766"><ele>459.4</ele><time>2011-04-26T08:24:40.0000000+00:00</time></trkpt><trkpt lat="22.022535" lon="104.077744"><ele>460.3</ele><time>2011-04-26T08:24:45.0000000+00:00</time></trkpt><trkpt lat="22.022549" lon="104.077812"><ele>461.2</ele><time>2011-04-26T08:24:50.0000000+00:00</time></trkpt><trkpt lat="22.022579" lon="104.077881"><ele>462.1</ele><time>2011-04-26T08:24:55.0000000+00:00</time></trkpt><trkpt lat="22.022608" lon="104.077934"><ele>462.9</ele><time>2011-04-26T08:25:00.0000000+00:00</time></trkpt><trkpt lat="22.022631" lon="104.078011"><ele>462.8</ele><time>2011-04-26T08:25:05.0000000+00:00</time></trkpt><trkpt lat="22.022671" lon="104.078102"><ele>463.5</ele><time>2011-04-26T08:25:10.0000000+00:00</time></trkpt><trkpt lat="22.022715" lon="104.078186"><ele>464.0</ele><time>2011-04-26T08:25:15.0000000+00:00</time></trkpt><trkpt lat="22.022778" lon="104.078285"><ele>464.6</ele><time>2011-04-26T08:25:20.0000000+00:00</time></trkpt><trkpt lat="22.022858" lon="104.078369"><ele>465.4</ele><time>2011-04-26T08:25:25.0000000+00:00</time></trkpt><trkpt lat="22.022943" lon="104.078506"><ele>467.3</ele><time>2011-04-26T08:25:30.0000000+00:00</time></trkpt><trkpt lat="22.023012" lon="104.07859"><ele>467.4</ele><time>2011-04-26T08:25:35.0000000+00:00</time></trkpt><trkpt lat="22.023079" lon="104.078629"><ele>467.6</ele><time>2011-04-26T08:25:40.0000000+00:00</time></trkpt><trkpt lat="22.023186" lon="104.078712"><ele>468.1</ele><time>2011-04-26T08:25:45.0000000+00:00</time></trkpt><trkpt lat="22.02327" lon="104.078766"><ele>468.6</ele><time>2011-04-26T08:25:50.0000000+00:00</time></trkpt><trkpt lat="22.023361" lon="104.078827"><ele>468.8</ele><time>2011-04-26T08:25:55.0000000+00:00</time></trkpt><trkpt lat="22.023457" lon="104.078865"><ele>468.3</ele><time>2011-04-26T08:26:00.0000000+00:00</time></trkpt><trkpt lat="22.023525" lon="104.078903"><ele>469.0</ele><time>2011-04-26T08:26:05.0000000+00:00</time></trkpt><trkpt lat="22.023575" lon="104.078949"><ele>469.9</ele><time>2011-04-26T08:26:10.0000000+00:00</time></trkpt><trkpt lat="22.023624" lon="104.079018"><ele>470.9</ele><time>2011-04-26T08:26:15.0000000+00:00</time></trkpt><trkpt lat="22.023642" lon="104.079094"><ele>471.0</ele><time>2011-04-26T08:26:20.0000000+00:00</time></trkpt><trkpt lat="22.023676" lon="104.079208"><ele>470.3</ele><time>2011-04-26T08:26:25.0000000+00:00</time></trkpt><trkpt lat="22.023724" lon="104.079285"><ele>471.0</ele><time>2011-04-26T08:26:30.0000000+00:00</time></trkpt><trkpt lat="22.023767" lon="104.079384"><ele>470.9</ele><time>2011-04-26T08:26:35.0000000+00:00</time></trkpt><trkpt lat="22.023808" lon="104.079468"><ele>470.6</ele><time>2011-04-26T08:26:40.0000000+00:00</time></trkpt><trkpt lat="22.023869" lon="104.079552"><ele>469.9</ele><time>2011-04-26T08:26:45.0000000+00:00</time></trkpt><trkpt lat="22.023926" lon="104.079613"><ele>469.1</ele><time>2011-04-26T08:26:50.0000000+00:00</time></trkpt><trkpt lat="22.023954" lon="104.079636"><ele>469.4</ele><time>2011-04-26T08:26:55.0000000+00:00</time></trkpt><trkpt lat="22.023972" lon="104.079628"><ele>467.9</ele><time>2011-04-26T08:27:00.0000000+00:00</time></trkpt><trkpt lat="22.023975" lon="104.079628"><ele>467.5</ele><time>2011-04-26T08:27:05.0000000+00:00</time></trkpt><trkpt lat="22.023977" lon="104.079636"><ele>467.1</ele><time>2011-04-26T08:27:10.0000000+00:00</time></trkpt><trkpt lat="22.023985" lon="104.079636"><ele>466.7</ele><time>2011-04-26T08:27:15.0000000+00:00</time></trkpt><trkpt lat="22.023989" lon="104.079636"><ele>466.3</ele><time>2011-04-26T08:27:20.0000000+00:00</time></trkpt><trkpt lat="22.023991" lon="104.079628"><ele>465.9</ele><time>2011-04-26T08:27:25.0000000+00:00</time></trkpt><trkpt lat="22.023993" lon="104.079628"><ele>465.5</ele><time>2011-04-26T08:27:30.0000000+00:00</time></trkpt><trkpt lat="22.023994" lon="104.079628"><ele>465.5</ele><time>2011-04-26T08:27:35.0000000+00:00</time></trkpt><trkpt lat="22.023994" lon="104.079628"><ele>465.5</ele><time>2011-04-26T08:27:40.0000000+00:00</time></trkpt><trkpt lat="22.023994" lon="104.079628"><ele>465.5</ele><time>2011-04-26T08:27:45.0000000+00:00</time></trkpt><trkpt lat="22.023994" lon="104.079628"><ele>465.5</ele><time>2011-04-26T08:27:50.0000000+00:00</time></trkpt><trkpt lat="22.023994" lon="104.079628"><ele>465.5</ele><time>2011-04-26T08:27:55.0000000+00:00</time></trkpt><trkpt lat="22.023994" lon="104.079628"><ele>465.5</ele><time>2011-04-26T08:28:00.0000000+00:00</time></trkpt><trkpt lat="22.023994" lon="104.079628"><ele>465.5</ele><time>2011-04-26T08:28:05.0000000+00:00</time></trkpt><trkpt lat="22.023994" lon="104.079628"><ele>465.4</ele><time>2011-04-26T08:28:10.0000000+00:00</time></trkpt><trkpt lat="22.023994" lon="104.079628"><ele>465.5</ele><time>2011-04-26T08:28:15.0000000+00:00</time></trkpt><trkpt lat="22.023994" lon="104.079628"><ele>465.4</ele><time>2011-04-26T08:28:20.0000000+00:00</time></trkpt><trkpt lat="22.023994" lon="104.079628"><ele>465.4</ele><time>2011-04-26T08:28:25.0000000+00:00</time></trkpt><trkpt lat="22.023994" lon="104.079628"><ele>465.5</ele><time>2011-04-26T08:28:30.0000000+00:00</time></trkpt><trkpt lat="22.023994" lon="104.079628"><ele>465.4</ele><time>2011-04-26T08:28:35.0000000+00:00</time></trkpt><trkpt lat="22.023994" lon="104.079628"><ele>465.4</ele><time>2011-04-26T08:28:40.0000000+00:00</time></trkpt><trkpt lat="22.023996" lon="104.079628"><ele>465.4</ele><time>2011-04-26T08:28:45.0000000+00:00</time></trkpt><trkpt lat="22.023996" lon="104.079628"><ele>465.4</ele><time>2011-04-26T08:28:50.0000000+00:00</time></trkpt><trkpt lat="22.023996" lon="104.079628"><ele>465.4</ele><time>2011-04-26T08:28:55.0000000+00:00</time></trkpt><trkpt lat="22.023996" lon="104.079628"><ele>465.4</ele><time>2011-04-26T08:29:00.0000000+00:00</time></trkpt><trkpt lat="22.023996" lon="104.079628"><ele>465.4</ele><time>2011-04-26T08:29:05.0000000+00:00</time></trkpt><trkpt lat="22.023994" lon="104.079628"><ele>465.4</ele><time>2011-04-26T08:29:10.0000000+00:00</time></trkpt><trkpt lat="22.023994" lon="104.079636"><ele>465.5</ele><time>2011-04-26T08:29:15.0000000+00:00</time></trkpt><trkpt lat="22.023993" lon="104.079643"><ele>465.7</ele><time>2011-04-26T08:29:20.0000000+00:00</time></trkpt><trkpt lat="22.023987" lon="104.079651"><ele>465.9</ele><time>2011-04-26T08:29:25.0000000+00:00</time></trkpt><trkpt lat="22.023983" lon="104.079659"><ele>466.3</ele><time>2011-04-26T08:29:30.0000000+00:00</time></trkpt><trkpt lat="22.023979" lon="104.079666"><ele>466.5</ele><time>2011-04-26T08:29:35.0000000+00:00</time></trkpt><trkpt lat="22.023977" lon="104.079666"><ele>466.7</ele><time>2011-04-26T08:29:40.0000000+00:00</time></trkpt><trkpt lat="22.023977" lon="104.079666"><ele>466.8</ele><time>2011-04-26T08:29:45.0000000+00:00</time></trkpt><trkpt lat="22.023983" lon="104.079659"><ele>466.9</ele><time>2011-04-26T08:29:50.0000000+00:00</time></trkpt><trkpt lat="22.023985" lon="104.079651"><ele>466.9</ele><time>2011-04-26T08:29:55.0000000+00:00</time></trkpt><trkpt lat="22.023983" lon="104.079659"><ele>467.0</ele><time>2011-04-26T08:30:00.0000000+00:00</time></trkpt><trkpt lat="22.023983" lon="104.079659"><ele>467.1</ele><time>2011-04-26T08:30:05.0000000+00:00</time></trkpt><trkpt lat="22.023981" lon="104.079659"><ele>467.1</ele><time>2011-04-26T08:30:10.0000000+00:00</time></trkpt><trkpt lat="22.023981" lon="104.079659"><ele>467.2</ele><time>2011-04-26T08:30:15.0000000+00:00</time></trkpt><trkpt lat="22.023981" lon="104.079659"><ele>467.2</ele><time>2011-04-26T08:30:20.0000000+00:00</time></trkpt><trkpt lat="22.023981" lon="104.079659"><ele>467.2</ele><time>2011-04-26T08:30:25.0000000+00:00</time></trkpt><trkpt lat="22.023981" lon="104.079659"><ele>467.2</ele><time>2011-04-26T08:30:30.0000000+00:00</time></trkpt><trkpt lat="22.023981" lon="104.079659"><ele>467.3</ele><time>2011-04-26T08:30:35.0000000+00:00</time></trkpt><trkpt lat="22.023981" lon="104.079659"><ele>467.3</ele><time>2011-04-26T08:30:40.0000000+00:00</time></trkpt><trkpt lat="22.023981" lon="104.079659"><ele>467.4</ele><time>2011-04-26T08:30:45.0000000+00:00</time></trkpt><trkpt lat="22.023981" lon="104.079659"><ele>467.4</ele><time>2011-04-26T08:30:50.0000000+00:00</time></trkpt><trkpt lat="22.023981" lon="104.079659"><ele>467.4</ele><time>2011-04-26T08:30:55.0000000+00:00</time></trkpt><trkpt lat="22.023981" lon="104.079659"><ele>467.5</ele><time>2011-04-26T08:31:00.0000000+00:00</time></trkpt><trkpt lat="22.023981" lon="104.079659"><ele>467.5</ele><time>2011-04-26T08:31:05.0000000+00:00</time></trkpt><trkpt lat="22.023981" lon="104.079659"><ele>467.5</ele><time>2011-04-26T08:31:10.0000000+00:00</time></trkpt><trkpt lat="22.023981" lon="104.079659"><ele>467.5</ele><time>2011-04-26T08:31:15.0000000+00:00</time></trkpt><trkpt lat="22.023981" lon="104.079659"><ele>467.5</ele><time>2011-04-26T08:31:20.0000000+00:00</time></trkpt><trkpt lat="22.023981" lon="104.079659"><ele>467.5</ele><time>2011-04-26T08:31:25.0000000+00:00</time></trkpt><trkpt lat="22.023981" lon="104.079659"><ele>467.5</ele><time>2011-04-26T08:31:30.0000000+00:00</time></trkpt><trkpt lat="22.023981" lon="104.079659"><ele>467.6</ele><time>2011-04-26T08:31:35.0000000+00:00</time></trkpt><trkpt lat="22.023981" lon="104.079659"><ele>467.7</ele><time>2011-04-26T08:31:40.0000000+00:00</time></trkpt><trkpt lat="22.023981" lon="104.079659"><ele>467.8</ele><time>2011-04-26T08:31:45.0000000+00:00</time></trkpt><trkpt lat="22.023979" lon="104.079659"><ele>468.1</ele><time>2011-04-26T08:31:50.0000000+00:00</time></trkpt><trkpt lat="22.023977" lon="104.079659"><ele>468.5</ele><time>2011-04-26T08:31:55.0000000+00:00</time></trkpt><trkpt lat="22.023975" lon="104.079659"><ele>469.0</ele><time>2011-04-26T08:32:00.0000000+00:00</time></trkpt><trkpt lat="22.023972" lon="104.079666"><ele>469.5</ele><time>2011-04-26T08:32:05.0000000+00:00</time></trkpt><trkpt lat="22.023968" lon="104.079666"><ele>470.1</ele><time>2011-04-26T08:32:10.0000000+00:00</time></trkpt><trkpt lat="22.023966" lon="104.079666"><ele>470.7</ele><time>2011-04-26T08:32:15.0000000+00:00</time></trkpt><trkpt lat="22.023964" lon="104.079674"><ele>471.2</ele><time>2011-04-26T08:32:20.0000000+00:00</time></trkpt><trkpt lat="22.02396" lon="104.079674"><ele>471.7</ele><time>2011-04-26T08:32:25.0000000+00:00</time></trkpt><trkpt lat="22.023958" lon="104.079674"><ele>472.1</ele><time>2011-04-26T08:32:30.0000000+00:00</time></trkpt><trkpt lat="22.023956" lon="104.079674"><ele>472.5</ele><time>2011-04-26T08:32:35.0000000+00:00</time></trkpt><trkpt lat="22.023956" lon="104.079674"><ele>472.8</ele><time>2011-04-26T08:32:40.0000000+00:00</time></trkpt><trkpt lat="22.023958" lon="104.079674"><ele>473.1</ele><time>2011-04-26T08:32:45.0000000+00:00</time></trkpt><trkpt lat="22.023964" lon="104.079674"><ele>473.3</ele><time>2011-04-26T08:32:50.0000000+00:00</time></trkpt><trkpt lat="22.023972" lon="104.079674"><ele>473.5</ele><time>2011-04-26T08:32:55.0000000+00:00</time></trkpt><trkpt lat="22.023979" lon="104.079674"><ele>473.7</ele><time>2011-04-26T08:33:00.0000000+00:00</time></trkpt><trkpt lat="22.023979" lon="104.079674"><ele>473.9</ele><time>2011-04-26T08:33:05.0000000+00:00</time></trkpt><trkpt lat="22.023977" lon="104.079674"><ele>474.1</ele><time>2011-04-26T08:33:10.0000000+00:00</time></trkpt><trkpt lat="22.023977" lon="104.079674"><ele>474.2</ele><time>2011-04-26T08:33:15.0000000+00:00</time></trkpt><trkpt lat="22.023977" lon="104.079674"><ele>474.2</ele><time>2011-04-26T08:33:20.0000000+00:00</time></trkpt><trkpt lat="22.023977" lon="104.079674"><ele>474.2</ele><time>2011-04-26T08:33:25.0000000+00:00</time></trkpt><trkpt lat="22.023977" lon="104.079674"><ele>474.2</ele><time>2011-04-26T08:33:30.0000000+00:00</time></trkpt><trkpt lat="22.023977" lon="104.079674"><ele>474.3</ele><time>2011-04-26T08:33:35.0000000+00:00</time></trkpt><trkpt lat="22.023979" lon="104.079674"><ele>474.3</ele><time>2011-04-26T08:33:40.0000000+00:00</time></trkpt><trkpt lat="22.023979" lon="104.079674"><ele>474.3</ele><time>2011-04-26T08:33:45.0000000+00:00</time></trkpt><trkpt lat="22.023979" lon="104.079674"><ele>474.4</ele><time>2011-04-26T08:33:50.0000000+00:00</time></trkpt><trkpt lat="22.023979" lon="104.079674"><ele>474.4</ele><time>2011-04-26T08:33:55.0000000+00:00</time></trkpt><trkpt lat="22.023979" lon="104.079674"><ele>474.4</ele><time>2011-04-26T08:34:00.0000000+00:00</time></trkpt><trkpt lat="22.023979" lon="104.079674"><ele>474.4</ele><time>2011-04-26T08:34:05.0000000+00:00</time></trkpt><trkpt lat="22.023979" lon="104.079666"><ele>474.4</ele><time>2011-04-26T08:34:10.0000000+00:00</time></trkpt><trkpt lat="22.023979" lon="104.079666"><ele>474.4</ele><time>2011-04-26T08:34:15.0000000+00:00</time></trkpt><trkpt lat="22.023979" lon="104.079666"><ele>474.3</ele><time>2011-04-26T08:34:20.0000000+00:00</time></trkpt><trkpt lat="22.023981" lon="104.079666"><ele>474.2</ele><time>2011-04-26T08:34:25.0000000+00:00</time></trkpt><trkpt lat="22.023981" lon="104.079666"><ele>474.1</ele><time>2011-04-26T08:34:30.0000000+00:00</time></trkpt><trkpt lat="22.023983" lon="104.079666"><ele>474.0</ele><time>2011-04-26T08:34:35.0000000+00:00</time></trkpt><trkpt lat="22.023983" lon="104.079666"><ele>473.9</ele><time>2011-04-26T08:34:40.0000000+00:00</time></trkpt><trkpt lat="22.023983" lon="104.079666"><ele>474.0</ele><time>2011-04-26T08:34:45.0000000+00:00</time></trkpt><trkpt lat="22.023983" lon="104.079666"><ele>474.0</ele><time>2011-04-26T08:34:50.0000000+00:00</time></trkpt><trkpt lat="22.023983" lon="104.079666"><ele>474.1</ele><time>2011-04-26T08:34:55.0000000+00:00</time></trkpt><trkpt lat="22.023983" lon="104.079666"><ele>474.1</ele><time>2011-04-26T08:35:00.0000000+00:00</time></trkpt><trkpt lat="22.023981" lon="104.079666"><ele>474.1</ele><time>2011-04-26T08:35:05.0000000+00:00</time></trkpt><trkpt lat="22.023983" lon="104.079666"><ele>474.2</ele><time>2011-04-26T08:35:10.0000000+00:00</time></trkpt><trkpt lat="22.023983" lon="104.079666"><ele>474.2</ele><time>2011-04-26T08:35:15.0000000+00:00</time></trkpt><trkpt lat="22.023983" lon="104.079666"><ele>474.2</ele><time>2011-04-26T08:35:20.0000000+00:00</time></trkpt><trkpt lat="22.023983" lon="104.079666"><ele>474.3</ele><time>2011-04-26T08:35:25.0000000+00:00</time></trkpt><trkpt lat="22.023981" lon="104.079666"><ele>474.3</ele><time>2011-04-26T08:35:30.0000000+00:00</time></trkpt><trkpt lat="22.023981" lon="104.079666"><ele>474.3</ele><time>2011-04-26T08:35:35.0000000+00:00</time></trkpt><trkpt lat="22.023981" lon="104.079666"><ele>474.3</ele><time>2011-04-26T08:35:40.0000000+00:00</time></trkpt><trkpt lat="22.023981" lon="104.079666"><ele>474.3</ele><time>2011-04-26T08:35:45.0000000+00:00</time></trkpt><trkpt lat="22.023981" lon="104.079666"><ele>474.3</ele><time>2011-04-26T08:35:50.0000000+00:00</time></trkpt><trkpt lat="22.023981" lon="104.079666"><ele>474.3</ele><time>2011-04-26T08:35:55.0000000+00:00</time></trkpt><trkpt lat="22.023983" lon="104.079666"><ele>474.3</ele><time>2011-04-26T08:36:00.0000000+00:00</time></trkpt><trkpt lat="22.023983" lon="104.079666"><ele>474.3</ele><time>2011-04-26T08:36:05.0000000+00:00</time></trkpt><trkpt lat="22.023983" lon="104.079666"><ele>474.3</ele><time>2011-04-26T08:36:10.0000000+00:00</time></trkpt><trkpt lat="22.023983" lon="104.079666"><ele>474.3</ele><time>2011-04-26T08:36:15.0000000+00:00</time></trkpt><trkpt lat="22.023983" lon="104.079666"><ele>474.3</ele><time>2011-04-26T08:36:20.0000000+00:00</time></trkpt><trkpt lat="22.023983" lon="104.079666"><ele>474.3</ele><time>2011-04-26T08:36:25.0000000+00:00</time></trkpt><trkpt lat="22.023983" lon="104.079666"><ele>474.3</ele><time>2011-04-26T08:36:30.0000000+00:00</time></trkpt><trkpt lat="22.023983" lon="104.079666"><ele>474.3</ele><time>2011-04-26T08:36:35.0000000+00:00</time></trkpt><trkpt lat="22.023983" lon="104.079666"><ele>474.3</ele><time>2011-04-26T08:36:40.0000000+00:00</time></trkpt><trkpt lat="22.023983" lon="104.079666"><ele>474.3</ele><time>2011-04-26T08:36:45.0000000+00:00</time></trkpt><trkpt lat="22.023983" lon="104.079666"><ele>474.3</ele><time>2011-04-26T08:36:50.0000000+00:00</time></trkpt><trkpt lat="22.023983" lon="104.079666"><ele>474.2</ele><time>2011-04-26T08:36:55.0000000+00:00</time></trkpt><trkpt lat="22.023983" lon="104.079666"><ele>474.2</ele><time>2011-04-26T08:37:00.0000000+00:00</time></trkpt><trkpt lat="22.023983" lon="104.079666"><ele>474.2</ele><time>2011-04-26T08:37:05.0000000+00:00</time></trkpt><trkpt lat="22.023983" lon="104.079666"><ele>474.2</ele><time>2011-04-26T08:37:10.0000000+00:00</time></trkpt><trkpt lat="22.023983" lon="104.079666"><ele>474.2</ele><time>2011-04-26T08:37:15.0000000+00:00</time></trkpt><trkpt lat="22.023983" lon="104.079666"><ele>474.3</ele><time>2011-04-26T08:37:20.0000000+00:00</time></trkpt><trkpt lat="22.023983" lon="104.079666"><ele>474.4</ele><time>2011-04-26T08:37:25.0000000+00:00</time></trkpt><trkpt lat="22.023983" lon="104.079666"><ele>474.5</ele><time>2011-04-26T08:37:30.0000000+00:00</time></trkpt><trkpt lat="22.023983" lon="104.079666"><ele>474.6</ele><time>2011-04-26T08:37:35.0000000+00:00</time></trkpt><trkpt lat="22.023987" lon="104.079666"><ele>474.6</ele><time>2011-04-26T08:37:40.0000000+00:00</time></trkpt><trkpt lat="22.023991" lon="104.079659"><ele>474.6</ele><time>2011-04-26T08:37:45.0000000+00:00</time></trkpt><trkpt lat="22.023994" lon="104.079659"><ele>474.5</ele><time>2011-04-26T08:37:50.0000000+00:00</time></trkpt><trkpt lat="22.023996" lon="104.079659"><ele>474.5</ele><time>2011-04-26T08:37:55.0000000+00:00</time></trkpt><trkpt lat="22.023998" lon="104.079659"><ele>474.5</ele><time>2011-04-26T08:38:00.0000000+00:00</time></trkpt><trkpt lat="22.023998" lon="104.079659"><ele>474.5</ele><time>2011-04-26T08:38:05.0000000+00:00</time></trkpt><trkpt lat="22.023998" lon="104.079659"><ele>474.6</ele><time>2011-04-26T08:38:10.0000000+00:00</time></trkpt><trkpt lat="22.023998" lon="104.079659"><ele>474.6</ele><time>2011-04-26T08:38:15.0000000+00:00</time></trkpt><trkpt lat="22.023998" lon="104.079659"><ele>474.6</ele><time>2011-04-26T08:38:20.0000000+00:00</time></trkpt><trkpt lat="22.023998" lon="104.079659"><ele>474.7</ele><time>2011-04-26T08:38:25.0000000+00:00</time></trkpt><trkpt lat="22.023998" lon="104.079659"><ele>474.7</ele><time>2011-04-26T08:38:30.0000000+00:00</time></trkpt><trkpt lat="22.023998" lon="104.079659"><ele>474.7</ele><time>2011-04-26T08:38:35.0000000+00:00</time></trkpt><trkpt lat="22.023998" lon="104.079659"><ele>474.7</ele><time>2011-04-26T08:38:40.0000000+00:00</time></trkpt><trkpt lat="22.023998" lon="104.079659"><ele>474.8</ele><time>2011-04-26T08:38:45.0000000+00:00</time></trkpt><trkpt lat="22.023998" lon="104.079659"><ele>474.8</ele><time>2011-04-26T08:38:50.0000000+00:00</time></trkpt><trkpt lat="22.023998" lon="104.079659"><ele>474.8</ele><time>2011-04-26T08:38:55.0000000+00:00</time></trkpt><trkpt lat="22.023998" lon="104.079659"><ele>474.9</ele><time>2011-04-26T08:39:00.0000000+00:00</time></trkpt><trkpt lat="22.023998" lon="104.079659"><ele>474.9</ele><time>2011-04-26T08:39:05.0000000+00:00</time></trkpt><trkpt lat="22.023998" lon="104.079659"><ele>474.9</ele><time>2011-04-26T08:39:10.0000000+00:00</time></trkpt><trkpt lat="22.023998" lon="104.079659"><ele>474.9</ele><time>2011-04-26T08:39:15.0000000+00:00</time></trkpt><trkpt lat="22.023998" lon="104.079659"><ele>475.0</ele><time>2011-04-26T08:39:20.0000000+00:00</time></trkpt><trkpt lat="22.023998" lon="104.079659"><ele>475.0</ele><time>2011-04-26T08:39:25.0000000+00:00</time></trkpt><trkpt lat="22.023998" lon="104.079659"><ele>475.0</ele><time>2011-04-26T08:39:30.0000000+00:00</time></trkpt><trkpt lat="22.023998" lon="104.079659"><ele>475.1</ele><time>2011-04-26T08:39:35.0000000+00:00</time></trkpt><trkpt lat="22.023998" lon="104.079659"><ele>475.2</ele><time>2011-04-26T08:39:40.0000000+00:00</time></trkpt><trkpt lat="22.023998" lon="104.079659"><ele>475.2</ele><time>2011-04-26T08:39:45.0000000+00:00</time></trkpt><trkpt lat="22.023998" lon="104.079659"><ele>475.3</ele><time>2011-04-26T08:39:50.0000000+00:00</time></trkpt><trkpt lat="22.023998" lon="104.079659"><ele>475.4</ele><time>2011-04-26T08:39:55.0000000+00:00</time></trkpt><trkpt lat="22.023998" lon="104.079659"><ele>475.4</ele><time>2011-04-26T08:40:00.0000000+00:00</time></trkpt><trkpt lat="22.023998" lon="104.079659"><ele>475.5</ele><time>2011-04-26T08:40:05.0000000+00:00</time></trkpt><trkpt lat="22.023998" lon="104.079659"><ele>475.5</ele><time>2011-04-26T08:40:10.0000000+00:00</time></trkpt><trkpt lat="22.023998" lon="104.079659"><ele>475.5</ele><time>2011-04-26T08:40:15.0000000+00:00</time></trkpt><trkpt lat="22.024002" lon="104.079659"><ele>475.6</ele><time>2011-04-26T08:40:20.0000000+00:00</time></trkpt><trkpt lat="22.024004" lon="104.079659"><ele>475.7</ele><time>2011-04-26T08:40:25.0000000+00:00</time></trkpt><trkpt lat="22.024008" lon="104.079659"><ele>475.9</ele><time>2011-04-26T08:40:30.0000000+00:00</time></trkpt><trkpt lat="22.024014" lon="104.079659"><ele>476.0</ele><time>2011-04-26T08:40:35.0000000+00:00</time></trkpt><trkpt lat="22.024019" lon="104.079659"><ele>476.3</ele><time>2011-04-26T08:40:40.0000000+00:00</time></trkpt><trkpt lat="22.024023" lon="104.079659"><ele>476.6</ele><time>2011-04-26T08:40:45.0000000+00:00</time></trkpt><trkpt lat="22.024025" lon="104.079659"><ele>477.1</ele><time>2011-04-26T08:40:50.0000000+00:00</time></trkpt><trkpt lat="22.024029" lon="104.079659"><ele>477.6</ele><time>2011-04-26T08:40:55.0000000+00:00</time></trkpt><trkpt lat="22.024027" lon="104.079659"><ele>478.1</ele><time>2011-04-26T08:41:00.0000000+00:00</time></trkpt><trkpt lat="22.024023" lon="104.079666"><ele>478.7</ele><time>2011-04-26T08:41:05.0000000+00:00</time></trkpt><trkpt lat="22.024021" lon="104.079666"><ele>479.3</ele><time>2011-04-26T08:41:10.0000000+00:00</time></trkpt><trkpt lat="22.024019" lon="104.079666"><ele>479.9</ele><time>2011-04-26T08:41:15.0000000+00:00</time></trkpt><trkpt lat="22.024017" lon="104.079666"><ele>480.5</ele><time>2011-04-26T08:41:20.0000000+00:00</time></trkpt><trkpt lat="22.024014" lon="104.079674"><ele>481.1</ele><time>2011-04-26T08:41:25.0000000+00:00</time></trkpt><trkpt lat="22.024012" lon="104.079674"><ele>481.7</ele><time>2011-04-26T08:41:30.0000000+00:00</time></trkpt><trkpt lat="22.02401" lon="104.079674"><ele>482.2</ele><time>2011-04-26T08:41:35.0000000+00:00</time></trkpt><trkpt lat="22.024008" lon="104.079674"><ele>482.6</ele><time>2011-04-26T08:41:40.0000000+00:00</time></trkpt><trkpt lat="22.024008" lon="104.079674"><ele>483.0</ele><time>2011-04-26T08:41:45.0000000+00:00</time></trkpt><trkpt lat="22.024008" lon="104.079674"><ele>483.4</ele><time>2011-04-26T08:41:50.0000000+00:00</time></trkpt><trkpt lat="22.024006" lon="104.079681"><ele>483.8</ele><time>2011-04-26T08:41:55.0000000+00:00</time></trkpt><trkpt lat="22.024008" lon="104.079681"><ele>484.2</ele><time>2011-04-26T08:42:00.0000000+00:00</time></trkpt><trkpt lat="22.024008" lon="104.079681"><ele>484.5</ele><time>2011-04-26T08:42:05.0000000+00:00</time></trkpt><trkpt lat="22.024006" lon="104.079681"><ele>484.8</ele><time>2011-04-26T08:42:10.0000000+00:00</time></trkpt><trkpt lat="22.024004" lon="104.079689"><ele>485.1</ele><time>2011-04-26T08:42:15.0000000+00:00</time></trkpt><trkpt lat="22.024008" lon="104.079727"><ele>485.4</ele><time>2011-04-26T08:42:20.0000000+00:00</time></trkpt><trkpt lat="22.024029" lon="104.079773"><ele>485.7</ele><time>2011-04-26T08:42:25.0000000+00:00</time></trkpt><trkpt lat="22.02413" lon="104.079926"><ele>485.8</ele><time>2011-04-26T08:42:30.0000000+00:00</time></trkpt><trkpt lat="22.024254" lon="104.080261"><ele>484.9</ele><time>2011-04-26T08:42:35.0000000+00:00</time></trkpt><trkpt lat="22.024387" lon="104.080429"><ele>484.6</ele><time>2011-04-26T08:42:40.0000000+00:00</time></trkpt><trkpt lat="22.024599" lon="104.080544"><ele>484.3</ele><time>2011-04-26T08:42:45.0000000+00:00</time></trkpt><trkpt lat="22.024761" lon="104.080658"><ele>484.5</ele><time>2011-04-26T08:42:50.0000000+00:00</time></trkpt><trkpt lat="22.024889" lon="104.080818"><ele>485.2</ele><time>2011-04-26T08:42:55.0000000+00:00</time></trkpt><trkpt lat="22.024975" lon="104.081009"><ele>486.0</ele><time>2011-04-26T08:43:00.0000000+00:00</time></trkpt><trkpt lat="22.025034" lon="104.081184"><ele>485.8</ele><time>2011-04-26T08:43:05.0000000+00:00</time></trkpt><trkpt lat="22.025084" lon="104.081383"><ele>486.2</ele><time>2011-04-26T08:43:10.0000000+00:00</time></trkpt><trkpt lat="22.025211" lon="104.081543"><ele>486.2</ele><time>2011-04-26T08:43:15.0000000+00:00</time></trkpt><trkpt lat="22.025431" lon="104.081612"><ele>486.5</ele><time>2011-04-26T08:43:20.0000000+00:00</time></trkpt><trkpt lat="22.025711" lon="104.081589"><ele>486.2</ele><time>2011-04-26T08:43:25.0000000+00:00</time></trkpt><trkpt lat="22.025993" lon="104.081459"><ele>485.5</ele><time>2011-04-26T08:43:30.0000000+00:00</time></trkpt><trkpt lat="22.02627" lon="104.081444"><ele>485.1</ele><time>2011-04-26T08:43:35.0000000+00:00</time></trkpt><trkpt lat="22.026569" lon="104.081558"><ele>485.0</ele><time>2011-04-26T08:43:40.0000000+00:00</time></trkpt><trkpt lat="22.026842" lon="104.081421"><ele>485.2</ele><time>2011-04-26T08:43:45.0000000+00:00</time></trkpt><trkpt lat="22.026958" lon="104.081123"><ele>484.0</ele><time>2011-04-26T08:43:50.0000000+00:00</time></trkpt><trkpt lat="22.026987" lon="104.080811"><ele>482.3</ele><time>2011-04-26T08:43:55.0000000+00:00</time></trkpt><trkpt lat="22.027067" lon="104.080544"><ele>479.9</ele><time>2011-04-26T08:44:00.0000000+00:00</time></trkpt><trkpt lat="22.027107" lon="104.08046"><ele>478.3</ele><time>2011-04-26T08:44:05.0000000+00:00</time></trkpt><trkpt lat="22.027113" lon="104.080452"><ele>477.5</ele><time>2011-04-26T08:44:10.0000000+00:00</time></trkpt><trkpt lat="22.027155" lon="104.080399"><ele>475.0</ele><time>2011-04-26T08:44:15.0000000+00:00</time></trkpt><trkpt lat="22.027355" lon="104.080307"><ele>472.1</ele><time>2011-04-26T08:44:20.0000000+00:00</time></trkpt><trkpt lat="22.027597" lon="104.080345"><ele>472.0</ele><time>2011-04-26T08:44:25.0000000+00:00</time></trkpt><trkpt lat="22.027899" lon="104.08036"><ele>466.4</ele><time>2011-04-26T08:44:30.0000000+00:00</time></trkpt><trkpt lat="22.028179" lon="104.080437"><ele>463.7</ele><time>2011-04-26T08:44:35.0000000+00:00</time></trkpt><trkpt lat="22.028496" lon="104.080505"><ele>461.5</ele><time>2011-04-26T08:44:40.0000000+00:00</time></trkpt><trkpt lat="22.028749" lon="104.080559"><ele>460.2</ele><time>2011-04-26T08:44:45.0000000+00:00</time></trkpt><trkpt lat="22.028952" lon="104.080505"><ele>458.2</ele><time>2011-04-26T08:44:50.0000000+00:00</time></trkpt><trkpt lat="22.029139" lon="104.080467"><ele>456.6</ele><time>2011-04-26T08:44:55.0000000+00:00</time></trkpt><trkpt lat="22.029366" lon="104.080399"><ele>453.6</ele><time>2011-04-26T08:45:00.0000000+00:00</time></trkpt><trkpt lat="22.029615" lon="104.080452"><ele>454.0</ele><time>2011-04-26T08:45:05.0000000+00:00</time></trkpt><trkpt lat="22.029835" lon="104.080528"><ele>453.4</ele><time>2011-04-26T08:45:10.0000000+00:00</time></trkpt><trkpt lat="22.030111" lon="104.080559"><ele>452.4</ele><time>2011-04-26T08:45:15.0000000+00:00</time></trkpt><trkpt lat="22.030382" lon="104.08062"><ele>451.0</ele><time>2011-04-26T08:45:20.0000000+00:00</time></trkpt><trkpt lat="22.030724" lon="104.080673"><ele>449.3</ele><time>2011-04-26T08:45:25.0000000+00:00</time></trkpt><trkpt lat="22.031078" lon="104.080788"><ele>449.0</ele><time>2011-04-26T08:45:30.0000000+00:00</time></trkpt><trkpt lat="22.031416" lon="104.080917"><ele>448.1</ele><time>2011-04-26T08:45:35.0000000+00:00</time></trkpt><trkpt lat="22.031635" lon="104.081024"><ele>448.6</ele><time>2011-04-26T08:45:40.0000000+00:00</time></trkpt><trkpt lat="22.031797" lon="104.081192"><ele>447.1</ele><time>2011-04-26T08:45:45.0000000+00:00</time></trkpt><trkpt lat="22.031996" lon="104.081367"><ele>437.4</ele><time>2011-04-26T08:45:50.0000000+00:00</time></trkpt><trkpt lat="22.032274" lon="104.081642"><ele>433.2</ele><time>2011-04-26T08:45:55.0000000+00:00</time></trkpt><trkpt lat="22.032597" lon="104.081825"><ele>427.2</ele><time>2011-04-26T08:46:00.0000000+00:00</time></trkpt><trkpt lat="22.032778" lon="104.082161"><ele>420.2</ele><time>2011-04-26T08:46:05.0000000+00:00</time></trkpt><trkpt lat="22.033018" lon="104.082344"><ele>416.7</ele><time>2011-04-26T08:46:10.0000000+00:00</time></trkpt><trkpt lat="22.033184" lon="104.082321"><ele>415.2</ele><time>2011-04-26T08:46:15.0000000+00:00</time></trkpt><trkpt lat="22.033302" lon="104.082306"><ele>414.5</ele><time>2011-04-26T08:46:20.0000000+00:00</time></trkpt><trkpt lat="22.033384" lon="104.082321"><ele>412.7</ele><time>2011-04-26T08:46:25.0000000+00:00</time></trkpt><trkpt lat="22.033443" lon="104.082314"><ele>411.4</ele><time>2011-04-26T08:46:30.0000000+00:00</time></trkpt><trkpt lat="22.03348" lon="104.082336"><ele>413.1</ele><time>2011-04-26T08:46:35.0000000+00:00</time></trkpt><trkpt lat="22.033516" lon="104.082359"><ele>414.5</ele><time>2011-04-26T08:46:40.0000000+00:00</time></trkpt><trkpt lat="22.033583" lon="104.082375"><ele>415.1</ele><time>2011-04-26T08:46:45.0000000+00:00</time></trkpt><trkpt lat="22.033663" lon="104.08242"><ele>415.8</ele><time>2011-04-26T08:46:50.0000000+00:00</time></trkpt><trkpt lat="22.03373" lon="104.082451"><ele>416.2</ele><time>2011-04-26T08:46:55.0000000+00:00</time></trkpt><trkpt lat="22.033779" lon="104.082504"><ele>415.6</ele><time>2011-04-26T08:47:00.0000000+00:00</time></trkpt><trkpt lat="22.033875" lon="104.082581"><ele>416.0</ele><time>2011-04-26T08:47:05.0000000+00:00</time></trkpt><trkpt lat="22.033974" lon="104.082619"><ele>415.8</ele><time>2011-04-26T08:47:10.0000000+00:00</time></trkpt><trkpt lat="22.034082" lon="104.082664"><ele>416.3</ele><time>2011-04-26T08:47:15.0000000+00:00</time></trkpt><trkpt lat="22.0341" lon="104.082687"><ele>416.5</ele><time>2011-04-26T08:47:20.0000000+00:00</time></trkpt><trkpt lat="22.034092" lon="104.082703"><ele>416.4</ele><time>2011-04-26T08:47:25.0000000+00:00</time></trkpt><trkpt lat="22.034128" lon="104.082718"><ele>416.4</ele><time>2011-04-26T08:47:30.0000000+00:00</time></trkpt><trkpt lat="22.03421" lon="104.082787"><ele>415.8</ele><time>2011-04-26T08:47:35.0000000+00:00</time></trkpt><trkpt lat="22.034273" lon="104.082985"><ele>412.1</ele><time>2011-04-26T08:47:40.0000000+00:00</time></trkpt><trkpt lat="22.03442" lon="104.083176"><ele>409.4</ele><time>2011-04-26T08:47:45.0000000+00:00</time></trkpt><trkpt lat="22.034441" lon="104.083519"><ele>407.5</ele><time>2011-04-26T08:47:50.0000000+00:00</time></trkpt><trkpt lat="22.034597" lon="104.083679"><ele>405.3</ele><time>2011-04-26T08:47:55.0000000+00:00</time></trkpt><trkpt lat="22.034721" lon="104.083832"><ele>401.9</ele><time>2011-04-26T08:48:00.0000000+00:00</time></trkpt><trkpt lat="22.034866" lon="104.083939"><ele>400.2</ele><time>2011-04-26T08:48:05.0000000+00:00</time></trkpt><trkpt lat="22.035076" lon="104.084106"><ele>398.5</ele><time>2011-04-26T08:48:10.0000000+00:00</time></trkpt><trkpt lat="22.035326" lon="104.084351"><ele>397.5</ele><time>2011-04-26T08:48:15.0000000+00:00</time></trkpt><trkpt lat="22.035589" lon="104.084679"><ele>396.7</ele><time>2011-04-26T08:48:20.0000000+00:00</time></trkpt><trkpt lat="22.035889" lon="104.085007"><ele>396.0</ele><time>2011-04-26T08:48:25.0000000+00:00</time></trkpt><trkpt lat="22.036013" lon="104.085213"><ele>395.2</ele><time>2011-04-26T08:48:30.0000000+00:00</time></trkpt><trkpt lat="22.036076" lon="104.085289"><ele>395.2</ele><time>2011-04-26T08:48:35.0000000+00:00</time></trkpt><trkpt lat="22.036177" lon="104.085434"><ele>394.3</ele><time>2011-04-26T08:48:40.0000000+00:00</time></trkpt><trkpt lat="22.036224" lon="104.085526"><ele>391.1</ele><time>2011-04-26T08:48:45.0000000+00:00</time></trkpt><trkpt lat="22.036268" lon="104.085609"><ele>388.7</ele><time>2011-04-26T08:48:50.0000000+00:00</time></trkpt><trkpt lat="22.036322" lon="104.08567"><ele>386.9</ele><time>2011-04-26T08:48:55.0000000+00:00</time></trkpt><trkpt lat="22.036346" lon="104.085747"><ele>386.4</ele><time>2011-04-26T08:49:00.0000000+00:00</time></trkpt><trkpt lat="22.036425" lon="104.085808"><ele>384.8</ele><time>2011-04-26T08:49:05.0000000+00:00</time></trkpt><trkpt lat="22.036478" lon="104.085869"><ele>383.8</ele><time>2011-04-26T08:49:10.0000000+00:00</time></trkpt><trkpt lat="22.036524" lon="104.085938"><ele>382.6</ele><time>2011-04-26T08:49:15.0000000+00:00</time></trkpt><trkpt lat="22.036531" lon="104.086014"><ele>382.5</ele><time>2011-04-26T08:49:20.0000000+00:00</time></trkpt><trkpt lat="22.036552" lon="104.086082"><ele>382.6</ele><time>2011-04-26T08:49:25.0000000+00:00</time></trkpt><trkpt lat="22.036625" lon="104.086128"><ele>383.0</ele><time>2011-04-26T08:49:30.0000000+00:00</time></trkpt><trkpt lat="22.036697" lon="104.086235"><ele>382.2</ele><time>2011-04-26T08:49:35.0000000+00:00</time></trkpt><trkpt lat="22.036751" lon="104.086342"><ele>382.5</ele><time>2011-04-26T08:49:40.0000000+00:00</time></trkpt><trkpt lat="22.036831" lon="104.086403"><ele>384.1</ele><time>2011-04-26T08:49:45.0000000+00:00</time></trkpt><trkpt lat="22.036879" lon="104.086456"><ele>384.9</ele><time>2011-04-26T08:49:50.0000000+00:00</time></trkpt><trkpt lat="22.03693" lon="104.086555"><ele>384.7</ele><time>2011-04-26T08:49:55.0000000+00:00</time></trkpt><trkpt lat="22.036974" lon="104.08667"><ele>383.6</ele><time>2011-04-26T08:50:00.0000000+00:00</time></trkpt><trkpt lat="22.037018" lon="104.086792"><ele>383.0</ele><time>2011-04-26T08:50:05.0000000+00:00</time></trkpt><trkpt lat="22.037058" lon="104.086945"><ele>381.6</ele><time>2011-04-26T08:50:10.0000000+00:00</time></trkpt><trkpt lat="22.037115" lon="104.087143"><ele>381.1</ele><time>2011-04-26T08:50:15.0000000+00:00</time></trkpt><trkpt lat="22.037159" lon="104.087364"><ele>380.3</ele><time>2011-04-26T08:50:20.0000000+00:00</time></trkpt><trkpt lat="22.037169" lon="104.087578"><ele>379.6</ele><time>2011-04-26T08:50:25.0000000+00:00</time></trkpt><trkpt lat="22.037184" lon="104.087784"><ele>378.8</ele><time>2011-04-26T08:50:30.0000000+00:00</time></trkpt><trkpt lat="22.037289" lon="104.088005"><ele>378.1</ele><time>2011-04-26T08:50:35.0000000+00:00</time></trkpt><trkpt lat="22.037466" lon="104.08815"><ele>377.9</ele><time>2011-04-26T08:50:40.0000000+00:00</time></trkpt><trkpt lat="22.037731" lon="104.088326"><ele>377.6</ele><time>2011-04-26T08:50:45.0000000+00:00</time></trkpt><trkpt lat="22.038082" lon="104.08857"><ele>376.1</ele><time>2011-04-26T08:50:50.0000000+00:00</time></trkpt><trkpt lat="22.038404" lon="104.08889"><ele>373.2</ele><time>2011-04-26T08:50:55.0000000+00:00</time></trkpt><trkpt lat="22.038507" lon="104.089226"><ele>370.3</ele><time>2011-04-26T08:51:00.0000000+00:00</time></trkpt><trkpt lat="22.038315" lon="104.089531"><ele>367.4</ele><time>2011-04-26T08:51:05.0000000+00:00</time></trkpt><trkpt lat="22.038313" lon="104.089806"><ele>364.1</ele><time>2011-04-26T08:51:10.0000000+00:00</time></trkpt><trkpt lat="22.038519" lon="104.089905"><ele>364.1</ele><time>2011-04-26T08:51:15.0000000+00:00</time></trkpt><trkpt lat="22.038708" lon="104.08992"><ele>366.1</ele><time>2011-04-26T08:51:20.0000000+00:00</time></trkpt><trkpt lat="22.038919" lon="104.090096"><ele>365.7</ele><time>2011-04-26T08:51:25.0000000+00:00</time></trkpt><trkpt lat="22.039108" lon="104.090302"><ele>364.7</ele><time>2011-04-26T08:51:30.0000000+00:00</time></trkpt><trkpt lat="22.03956" lon="104.090302"><ele>366.2</ele><time>2011-04-26T08:51:35.0000000+00:00</time></trkpt><trkpt lat="22.039953" lon="104.090416"><ele>363.2</ele><time>2011-04-26T08:51:40.0000000+00:00</time></trkpt><trkpt lat="22.040293" lon="104.090652"><ele>361.8</ele><time>2011-04-26T08:51:45.0000000+00:00</time></trkpt><trkpt lat="22.040653" lon="104.091049"><ele>359.8</ele><time>2011-04-26T08:51:50.0000000+00:00</time></trkpt><trkpt lat="22.041103" lon="104.091484"><ele>357.1</ele><time>2011-04-26T08:51:55.0000000+00:00</time></trkpt><trkpt lat="22.041441" lon="104.091827"><ele>356.2</ele><time>2011-04-26T08:52:00.0000000+00:00</time></trkpt><trkpt lat="22.04155" lon="104.092117"><ele>356.9</ele><time>2011-04-26T08:52:05.0000000+00:00</time></trkpt><trkpt lat="22.041569" lon="104.092361"><ele>357.1</ele><time>2011-04-26T08:52:10.0000000+00:00</time></trkpt><trkpt lat="22.041603" lon="104.092522"><ele>357.1</ele><time>2011-04-26T08:52:15.0000000+00:00</time></trkpt><trkpt lat="22.041641" lon="104.092621"><ele>356.7</ele><time>2011-04-26T08:52:20.0000000+00:00</time></trkpt><trkpt lat="22.041668" lon="104.092697"><ele>356.8</ele><time>2011-04-26T08:52:25.0000000+00:00</time></trkpt><trkpt lat="22.041693" lon="104.092735"><ele>356.9</ele><time>2011-04-26T08:52:30.0000000+00:00</time></trkpt><trkpt lat="22.041698" lon="104.092781"><ele>356.5</ele><time>2011-04-26T08:52:35.0000000+00:00</time></trkpt><trkpt lat="22.041719" lon="104.092834"><ele>356.6</ele><time>2011-04-26T08:52:40.0000000+00:00</time></trkpt><trkpt lat="22.041718" lon="104.092888"><ele>356.9</ele><time>2011-04-26T08:52:45.0000000+00:00</time></trkpt><trkpt lat="22.041744" lon="104.092941"><ele>357.6</ele><time>2011-04-26T08:52:50.0000000+00:00</time></trkpt><trkpt lat="22.041765" lon="104.093002"><ele>357.8</ele><time>2011-04-26T08:52:55.0000000+00:00</time></trkpt><trkpt lat="22.041796" lon="104.093063"><ele>358.0</ele><time>2011-04-26T08:53:00.0000000+00:00</time></trkpt><trkpt lat="22.041899" lon="104.093155"><ele>360.3</ele><time>2011-04-26T08:53:05.0000000+00:00</time></trkpt><trkpt lat="22.041906" lon="104.093163"><ele>360.1</ele><time>2011-04-26T08:53:10.0000000+00:00</time></trkpt><trkpt lat="22.041903" lon="104.093163"><ele>360.1</ele><time>2011-04-26T08:53:15.0000000+00:00</time></trkpt><trkpt lat="22.041903" lon="104.093163"><ele>360.1</ele><time>2011-04-26T08:53:20.0000000+00:00</time></trkpt><trkpt lat="22.041914" lon="104.093185"><ele>360.0</ele><time>2011-04-26T08:53:25.0000000+00:00</time></trkpt><trkpt lat="22.041956" lon="104.093254"><ele>360.3</ele><time>2011-04-26T08:53:30.0000000+00:00</time></trkpt><trkpt lat="22.042007" lon="104.093285"><ele>360.5</ele><time>2011-04-26T08:53:35.0000000+00:00</time></trkpt><trkpt lat="22.042061" lon="104.093346"><ele>360.6</ele><time>2011-04-26T08:53:40.0000000+00:00</time></trkpt><trkpt lat="22.042109" lon="104.093376"><ele>360.4</ele><time>2011-04-26T08:53:45.0000000+00:00</time></trkpt><trkpt lat="22.042158" lon="104.093414"><ele>360.4</ele><time>2011-04-26T08:53:50.0000000+00:00</time></trkpt><trkpt lat="22.042212" lon="104.093452"><ele>360.4</ele><time>2011-04-26T08:53:55.0000000+00:00</time></trkpt><trkpt lat="22.042248" lon="104.093498"><ele>360.5</ele><time>2011-04-26T08:54:00.0000000+00:00</time></trkpt><trkpt lat="22.042288" lon="104.093529"><ele>360.4</ele><time>2011-04-26T08:54:05.0000000+00:00</time></trkpt><trkpt lat="22.042326" lon="104.093567"><ele>360.6</ele><time>2011-04-26T08:54:10.0000000+00:00</time></trkpt><trkpt lat="22.042381" lon="104.093605"><ele>360.7</ele><time>2011-04-26T08:54:15.0000000+00:00</time></trkpt><trkpt lat="22.042446" lon="104.093651"><ele>360.8</ele><time>2011-04-26T08:54:20.0000000+00:00</time></trkpt><trkpt lat="22.042501" lon="104.093689"><ele>361.3</ele><time>2011-04-26T08:54:25.0000000+00:00</time></trkpt><trkpt lat="22.042549" lon="104.093712"><ele>361.6</ele><time>2011-04-26T08:54:30.0000000+00:00</time></trkpt><trkpt lat="22.042591" lon="104.09375"><ele>362.1</ele><time>2011-04-26T08:54:35.0000000+00:00</time></trkpt><trkpt lat="22.042624" lon="104.093765"><ele>362.1</ele><time>2011-04-26T08:54:40.0000000+00:00</time></trkpt><trkpt lat="22.042669" lon="104.093796"><ele>362.6</ele><time>2011-04-26T08:54:45.0000000+00:00</time></trkpt><trkpt lat="22.042704" lon="104.093834"><ele>363.5</ele><time>2011-04-26T08:54:50.0000000+00:00</time></trkpt><trkpt lat="22.04274" lon="104.09388"><ele>365.8</ele><time>2011-04-26T08:54:55.0000000+00:00</time></trkpt><trkpt lat="22.042746" lon="104.093903"><ele>366.7</ele><time>2011-04-26T08:55:00.0000000+00:00</time></trkpt><trkpt lat="22.042759" lon="104.093933"><ele>367.0</ele><time>2011-04-26T08:55:05.0000000+00:00</time></trkpt><trkpt lat="22.042759" lon="104.093971"><ele>367.7</ele><time>2011-04-26T08:55:10.0000000+00:00</time></trkpt><trkpt lat="22.042784" lon="104.094009"><ele>368.3</ele><time>2011-04-26T08:55:15.0000000+00:00</time></trkpt><trkpt lat="22.042797" lon="104.09407"><ele>369.8</ele><time>2011-04-26T08:55:20.0000000+00:00</time></trkpt><trkpt lat="22.042797" lon="104.094116"><ele>370.7</ele><time>2011-04-26T08:55:25.0000000+00:00</time></trkpt><trkpt lat="22.042812" lon="104.094177"><ele>371.3</ele><time>2011-04-26T08:55:30.0000000+00:00</time></trkpt><trkpt lat="22.042843" lon="104.094231"><ele>371.8</ele><time>2011-04-26T08:55:35.0000000+00:00</time></trkpt><trkpt lat="22.042858" lon="104.094284"><ele>372.4</ele><time>2011-04-26T08:55:40.0000000+00:00</time></trkpt><trkpt lat="22.042881" lon="104.09433"><ele>373.1</ele><time>2011-04-26T08:55:45.0000000+00:00</time></trkpt><trkpt lat="22.042904" lon="104.094376"><ele>373.6</ele><time>2011-04-26T08:55:50.0000000+00:00</time></trkpt><trkpt lat="22.042938" lon="104.09446"><ele>374.7</ele><time>2011-04-26T08:55:55.0000000+00:00</time></trkpt><trkpt lat="22.042963" lon="104.094505"><ele>375.3</ele><time>2011-04-26T08:56:00.0000000+00:00</time></trkpt><trkpt lat="22.04298" lon="104.094559"><ele>375.9</ele><time>2011-04-26T08:56:05.0000000+00:00</time></trkpt><trkpt lat="22.042999" lon="104.094589"><ele>376.4</ele><time>2011-04-26T08:56:10.0000000+00:00</time></trkpt><trkpt lat="22.043028" lon="104.09462"><ele>376.9</ele><time>2011-04-26T08:56:15.0000000+00:00</time></trkpt><trkpt lat="22.04302" lon="104.09465"><ele>377.3</ele><time>2011-04-26T08:56:20.0000000+00:00</time></trkpt><trkpt lat="22.043036" lon="104.094673"><ele>377.5</ele><time>2011-04-26T08:56:25.0000000+00:00</time></trkpt><trkpt lat="22.043076" lon="104.094711"><ele>377.9</ele><time>2011-04-26T08:56:30.0000000+00:00</time></trkpt><trkpt lat="22.043116" lon="104.094772"><ele>378.5</ele><time>2011-04-26T08:56:35.0000000+00:00</time></trkpt><trkpt lat="22.043163" lon="104.094826"><ele>379.1</ele><time>2011-04-26T08:56:40.0000000+00:00</time></trkpt><trkpt lat="22.043201" lon="104.094872"><ele>379.2</ele><time>2011-04-26T08:56:45.0000000+00:00</time></trkpt><trkpt lat="22.043262" lon="104.094933"><ele>379.8</ele><time>2011-04-26T08:56:50.0000000+00:00</time></trkpt><trkpt lat="22.043324" lon="104.094978"><ele>380.6</ele><time>2011-04-26T08:56:55.0000000+00:00</time></trkpt><trkpt lat="22.043339" lon="104.094986"><ele>381.1</ele><time>2011-04-26T08:57:00.0000000+00:00</time></trkpt><trkpt lat="22.043335" lon="104.094994"><ele>381.3</ele><time>2011-04-26T08:57:05.0000000+00:00</time></trkpt><trkpt lat="22.043335" lon="104.095016"><ele>381.5</ele><time>2011-04-26T08:57:10.0000000+00:00</time></trkpt><trkpt lat="22.043356" lon="104.095047"><ele>381.7</ele><time>2011-04-26T08:57:15.0000000+00:00</time></trkpt><trkpt lat="22.043396" lon="104.095093"><ele>381.5</ele><time>2011-04-26T08:57:20.0000000+00:00</time></trkpt><trkpt lat="22.04343" lon="104.095154"><ele>381.3</ele><time>2011-04-26T08:57:25.0000000+00:00</time></trkpt><trkpt lat="22.043463" lon="104.095215"><ele>381.3</ele><time>2011-04-26T08:57:30.0000000+00:00</time></trkpt><trkpt lat="22.043486" lon="104.095268"><ele>380.9</ele><time>2011-04-26T08:57:35.0000000+00:00</time></trkpt><trkpt lat="22.043524" lon="104.095329"><ele>380.9</ele><time>2011-04-26T08:57:40.0000000+00:00</time></trkpt><trkpt lat="22.043554" lon="104.095383"><ele>381.1</ele><time>2011-04-26T08:57:45.0000000+00:00</time></trkpt><trkpt lat="22.043627" lon="104.095406"><ele>381.2</ele><time>2011-04-26T08:57:50.0000000+00:00</time></trkpt><trkpt lat="22.043652" lon="104.095444"><ele>381.6</ele><time>2011-04-26T08:57:55.0000000+00:00</time></trkpt><trkpt lat="22.043682" lon="104.095497"><ele>381.9</ele><time>2011-04-26T08:58:00.0000000+00:00</time></trkpt><trkpt lat="22.043732" lon="104.095551"><ele>382.2</ele><time>2011-04-26T08:58:05.0000000+00:00</time></trkpt><trkpt lat="22.043772" lon="104.095596"><ele>382.6</ele><time>2011-04-26T08:58:10.0000000+00:00</time></trkpt><trkpt lat="22.043819" lon="104.095665"><ele>385.3</ele><time>2011-04-26T08:58:15.0000000+00:00</time></trkpt><trkpt lat="22.043854" lon="104.095718"><ele>385.9</ele><time>2011-04-26T08:58:20.0000000+00:00</time></trkpt><trkpt lat="22.043882" lon="104.095787"><ele>386.7</ele><time>2011-04-26T08:58:25.0000000+00:00</time></trkpt><trkpt lat="22.043903" lon="104.09584"><ele>387.5</ele><time>2011-04-26T08:58:30.0000000+00:00</time></trkpt><trkpt lat="22.043928" lon="104.095871"><ele>387.6</ele><time>2011-04-26T08:58:35.0000000+00:00</time></trkpt><trkpt lat="22.043955" lon="104.095917"><ele>388.0</ele><time>2011-04-26T08:58:40.0000000+00:00</time></trkpt><trkpt lat="22.043985" lon="104.09597"><ele>388.9</ele><time>2011-04-26T08:58:45.0000000+00:00</time></trkpt><trkpt lat="22.044008" lon="104.096016"><ele>389.8</ele><time>2011-04-26T08:58:50.0000000+00:00</time></trkpt><trkpt lat="22.044035" lon="104.096092"><ele>390.9</ele><time>2011-04-26T08:58:55.0000000+00:00</time></trkpt><trkpt lat="22.044048" lon="104.096146"><ele>392.0</ele><time>2011-04-26T08:59:00.0000000+00:00</time></trkpt><trkpt lat="22.04406" lon="104.096176"><ele>393.2</ele><time>2011-04-26T08:59:05.0000000+00:00</time></trkpt><trkpt lat="22.044075" lon="104.096237"><ele>394.4</ele><time>2011-04-26T08:59:10.0000000+00:00</time></trkpt><trkpt lat="22.044064" lon="104.096283"><ele>395.1</ele><time>2011-04-26T08:59:15.0000000+00:00</time></trkpt><trkpt lat="22.044062" lon="104.096283"><ele>395.5</ele><time>2011-04-26T08:59:20.0000000+00:00</time></trkpt><trkpt lat="22.044058" lon="104.096291"><ele>395.7</ele><time>2011-04-26T08:59:25.0000000+00:00</time></trkpt><trkpt lat="22.04406" lon="104.096298"><ele>396.0</ele><time>2011-04-26T08:59:30.0000000+00:00</time></trkpt><trkpt lat="22.044062" lon="104.096306"><ele>396.2</ele><time>2011-04-26T08:59:35.0000000+00:00</time></trkpt><trkpt lat="22.044064" lon="104.096321"><ele>396.5</ele><time>2011-04-26T08:59:40.0000000+00:00</time></trkpt><trkpt lat="22.044065" lon="104.096321"><ele>396.7</ele><time>2011-04-26T08:59:45.0000000+00:00</time></trkpt><trkpt lat="22.044067" lon="104.096329"><ele>397.0</ele><time>2011-04-26T08:59:50.0000000+00:00</time></trkpt><trkpt lat="22.044069" lon="104.096336"><ele>397.2</ele><time>2011-04-26T08:59:55.0000000+00:00</time></trkpt><trkpt lat="22.044069" lon="104.096329"><ele>397.5</ele><time>2011-04-26T09:00:00.0000000+00:00</time></trkpt><trkpt lat="22.044071" lon="104.096329"><ele>397.7</ele><time>2011-04-26T09:00:05.0000000+00:00</time></trkpt><trkpt lat="22.044075" lon="104.096321"><ele>397.9</ele><time>2011-04-26T09:00:10.0000000+00:00</time></trkpt><trkpt lat="22.044079" lon="104.096321"><ele>398.2</ele><time>2011-04-26T09:00:15.0000000+00:00</time></trkpt><trkpt lat="22.044083" lon="104.096313"><ele>398.4</ele><time>2011-04-26T09:00:20.0000000+00:00</time></trkpt><trkpt lat="22.044081" lon="104.096313"><ele>398.7</ele><time>2011-04-26T09:00:25.0000000+00:00</time></trkpt><trkpt lat="22.044079" lon="104.096313"><ele>398.9</ele><time>2011-04-26T09:00:30.0000000+00:00</time></trkpt><trkpt lat="22.044079" lon="104.096313"><ele>398.9</ele><time>2011-04-26T09:00:35.0000000+00:00</time></trkpt><trkpt lat="22.044079" lon="104.096313"><ele>398.9</ele><time>2011-04-26T09:00:40.0000000+00:00</time></trkpt><trkpt lat="22.044079" lon="104.096313"><ele>398.9</ele><time>2011-04-26T09:00:45.0000000+00:00</time></trkpt><trkpt lat="22.044079" lon="104.096321"><ele>398.9</ele><time>2011-04-26T09:00:50.0000000+00:00</time></trkpt><trkpt lat="22.044079" lon="104.096321"><ele>398.9</ele><time>2011-04-26T09:00:55.0000000+00:00</time></trkpt><trkpt lat="22.044081" lon="104.096321"><ele>398.9</ele><time>2011-04-26T09:01:00.0000000+00:00</time></trkpt><trkpt lat="22.044085" lon="104.096321"><ele>398.9</ele><time>2011-04-26T09:01:05.0000000+00:00</time></trkpt><trkpt lat="22.044088" lon="104.096329"><ele>398.9</ele><time>2011-04-26T09:01:10.0000000+00:00</time></trkpt><trkpt lat="22.044092" lon="104.096336"><ele>398.9</ele><time>2011-04-26T09:01:15.0000000+00:00</time></trkpt><trkpt lat="22.044094" lon="104.096336"><ele>398.9</ele><time>2011-04-26T09:01:20.0000000+00:00</time></trkpt><trkpt lat="22.044096" lon="104.096336"><ele>398.9</ele><time>2011-04-26T09:01:25.0000000+00:00</time></trkpt><trkpt lat="22.044098" lon="104.096344"><ele>398.9</ele><time>2011-04-26T09:01:30.0000000+00:00</time></trkpt><trkpt lat="22.044096" lon="104.096344"><ele>398.9</ele><time>2011-04-26T09:01:35.0000000+00:00</time></trkpt><trkpt lat="22.044096" lon="104.096344"><ele>398.9</ele><time>2011-04-26T09:01:40.0000000+00:00</time></trkpt><trkpt lat="22.044096" lon="104.096344"><ele>398.9</ele><time>2011-04-26T09:01:45.0000000+00:00</time></trkpt><trkpt lat="22.044096" lon="104.096344"><ele>398.9</ele><time>2011-04-26T09:01:50.0000000+00:00</time></trkpt><trkpt lat="22.044094" lon="104.096344"><ele>398.9</ele><time>2011-04-26T09:01:55.0000000+00:00</time></trkpt><trkpt lat="22.044094" lon="104.096336"><ele>398.9</ele><time>2011-04-26T09:02:00.0000000+00:00</time></trkpt><trkpt lat="22.044094" lon="104.096336"><ele>398.9</ele><time>2011-04-26T09:02:05.0000000+00:00</time></trkpt><trkpt lat="22.044094" lon="104.096336"><ele>398.9</ele><time>2011-04-26T09:02:10.0000000+00:00</time></trkpt><trkpt lat="22.044094" lon="104.096344"><ele>398.9</ele><time>2011-04-26T09:02:15.0000000+00:00</time></trkpt><trkpt lat="22.044094" lon="104.096344"><ele>398.9</ele><time>2011-04-26T09:02:20.0000000+00:00</time></trkpt><trkpt lat="22.044094" lon="104.096344"><ele>398.9</ele><time>2011-04-26T09:02:25.0000000+00:00</time></trkpt><trkpt lat="22.044094" lon="104.096344"><ele>398.9</ele><time>2011-04-26T09:02:30.0000000+00:00</time></trkpt><trkpt lat="22.044094" lon="104.096344"><ele>398.9</ele><time>2011-04-26T09:02:35.0000000+00:00</time></trkpt><trkpt lat="22.044094" lon="104.096344"><ele>399.0</ele><time>2011-04-26T09:02:40.0000000+00:00</time></trkpt><trkpt lat="22.044094" lon="104.096344"><ele>399.0</ele><time>2011-04-26T09:02:45.0000000+00:00</time></trkpt><trkpt lat="22.044094" lon="104.096344"><ele>399.0</ele><time>2011-04-26T09:02:50.0000000+00:00</time></trkpt><trkpt lat="22.044092" lon="104.096344"><ele>399.0</ele><time>2011-04-26T09:02:55.0000000+00:00</time></trkpt><trkpt lat="22.044092" lon="104.096344"><ele>399.0</ele><time>2011-04-26T09:03:00.0000000+00:00</time></trkpt><trkpt lat="22.044094" lon="104.096344"><ele>399.1</ele><time>2011-04-26T09:03:05.0000000+00:00</time></trkpt><trkpt lat="22.044094" lon="104.096344"><ele>399.1</ele><time>2011-04-26T09:03:10.0000000+00:00</time></trkpt><trkpt lat="22.044094" lon="104.096344"><ele>399.1</ele><time>2011-04-26T09:03:15.0000000+00:00</time></trkpt><trkpt lat="22.044094" lon="104.096344"><ele>399.2</ele><time>2011-04-26T09:03:20.0000000+00:00</time></trkpt><trkpt lat="22.044094" lon="104.096344"><ele>399.2</ele><time>2011-04-26T09:03:25.0000000+00:00</time></trkpt><trkpt lat="22.044094" lon="104.096344"><ele>399.2</ele><time>2011-04-26T09:03:30.0000000+00:00</time></trkpt><trkpt lat="22.044094" lon="104.096344"><ele>399.3</ele><time>2011-04-26T09:03:35.0000000+00:00</time></trkpt><trkpt lat="22.044094" lon="104.096344"><ele>399.3</ele><time>2011-04-26T09:03:40.0000000+00:00</time></trkpt><trkpt lat="22.044094" lon="104.096344"><ele>399.3</ele><time>2011-04-26T09:03:45.0000000+00:00</time></trkpt><trkpt lat="22.044094" lon="104.096336"><ele>399.3</ele><time>2011-04-26T09:03:50.0000000+00:00</time></trkpt><trkpt lat="22.044094" lon="104.096336"><ele>399.4</ele><time>2011-04-26T09:03:55.0000000+00:00</time></trkpt><trkpt lat="22.044094" lon="104.096336"><ele>399.4</ele><time>2011-04-26T09:04:00.0000000+00:00</time></trkpt><trkpt lat="22.044094" lon="104.096336"><ele>399.4</ele><time>2011-04-26T09:04:05.0000000+00:00</time></trkpt><trkpt lat="22.044094" lon="104.096336"><ele>399.4</ele><time>2011-04-26T09:04:10.0000000+00:00</time></trkpt><trkpt lat="22.044094" lon="104.096336"><ele>399.4</ele><time>2011-04-26T09:04:15.0000000+00:00</time></trkpt><trkpt lat="22.044094" lon="104.096336"><ele>399.4</ele><time>2011-04-26T09:04:20.0000000+00:00</time></trkpt><trkpt lat="22.044094" lon="104.096336"><ele>399.4</ele><time>2011-04-26T09:04:25.0000000+00:00</time></trkpt><trkpt lat="22.044094" lon="104.096336"><ele>399.5</ele><time>2011-04-26T09:04:30.0000000+00:00</time></trkpt><trkpt lat="22.044094" lon="104.096336"><ele>399.5</ele><time>2011-04-26T09:04:35.0000000+00:00</time></trkpt><trkpt lat="22.044094" lon="104.096336"><ele>399.5</ele><time>2011-04-26T09:04:40.0000000+00:00</time></trkpt><trkpt lat="22.044094" lon="104.096336"><ele>399.5</ele><time>2011-04-26T09:04:45.0000000+00:00</time></trkpt><trkpt lat="22.044094" lon="104.096336"><ele>399.6</ele><time>2011-04-26T09:04:50.0000000+00:00</time></trkpt><trkpt lat="22.044094" lon="104.096336"><ele>399.6</ele><time>2011-04-26T09:04:55.0000000+00:00</time></trkpt><trkpt lat="22.044094" lon="104.096336"><ele>399.6</ele><time>2011-04-26T09:05:00.0000000+00:00</time></trkpt><trkpt lat="22.044094" lon="104.096336"><ele>399.6</ele><time>2011-04-26T09:05:05.0000000+00:00</time></trkpt><trkpt lat="22.044094" lon="104.096344"><ele>399.6</ele><time>2011-04-26T09:05:10.0000000+00:00</time></trkpt><trkpt lat="22.044094" lon="104.096344"><ele>399.7</ele><time>2011-04-26T09:05:15.0000000+00:00</time></trkpt><trkpt lat="22.044094" lon="104.096336"><ele>399.7</ele><time>2011-04-26T09:05:20.0000000+00:00</time></trkpt><trkpt lat="22.044094" lon="104.096344"><ele>399.7</ele><time>2011-04-26T09:05:25.0000000+00:00</time></trkpt><trkpt lat="22.044094" lon="104.096344"><ele>399.8</ele><time>2011-04-26T09:05:30.0000000+00:00</time></trkpt><trkpt lat="22.044094" lon="104.096344"><ele>399.8</ele><time>2011-04-26T09:05:35.0000000+00:00</time></trkpt><trkpt lat="22.044094" lon="104.096344"><ele>399.9</ele><time>2011-04-26T09:05:40.0000000+00:00</time></trkpt><trkpt lat="22.044094" lon="104.096344"><ele>399.9</ele><time>2011-04-26T09:05:45.0000000+00:00</time></trkpt><trkpt lat="22.044094" lon="104.096344"><ele>399.9</ele><time>2011-04-26T09:05:50.0000000+00:00</time></trkpt><trkpt lat="22.044094" lon="104.096344"><ele>399.9</ele><time>2011-04-26T09:05:55.0000000+00:00</time></trkpt><trkpt lat="22.044094" lon="104.096344"><ele>399.9</ele><time>2011-04-26T09:06:00.0000000+00:00</time></trkpt><trkpt lat="22.044094" lon="104.096344"><ele>400.0</ele><time>2011-04-26T09:06:05.0000000+00:00</time></trkpt><trkpt lat="22.044094" lon="104.096336"><ele>400.0</ele><time>2011-04-26T09:06:10.0000000+00:00</time></trkpt><trkpt lat="22.044096" lon="104.096336"><ele>400.1</ele><time>2011-04-26T09:06:15.0000000+00:00</time></trkpt><trkpt lat="22.044096" lon="104.096336"><ele>400.1</ele><time>2011-04-26T09:06:20.0000000+00:00</time></trkpt><trkpt lat="22.044096" lon="104.096336"><ele>400.1</ele><time>2011-04-26T09:06:25.0000000+00:00</time></trkpt><trkpt lat="22.044096" lon="104.096336"><ele>400.1</ele><time>2011-04-26T09:06:30.0000000+00:00</time></trkpt><trkpt lat="22.044096" lon="104.096336"><ele>400.1</ele><time>2011-04-26T09:06:35.0000000+00:00</time></trkpt><trkpt lat="22.044096" lon="104.096336"><ele>400.2</ele><time>2011-04-26T09:06:40.0000000+00:00</time></trkpt><trkpt lat="22.044096" lon="104.096336"><ele>400.2</ele><time>2011-04-26T09:06:45.0000000+00:00</time></trkpt><trkpt lat="22.044096" lon="104.096336"><ele>400.3</ele><time>2011-04-26T09:06:50.0000000+00:00</time></trkpt><trkpt lat="22.044096" lon="104.096336"><ele>400.3</ele><time>2011-04-26T09:06:55.0000000+00:00</time></trkpt><trkpt lat="22.044096" lon="104.096336"><ele>400.3</ele><time>2011-04-26T09:07:00.0000000+00:00</time></trkpt><trkpt lat="22.044096" lon="104.096336"><ele>400.3</ele><time>2011-04-26T09:07:05.0000000+00:00</time></trkpt><trkpt lat="22.044096" lon="104.096336"><ele>400.4</ele><time>2011-04-26T09:07:10.0000000+00:00</time></trkpt><trkpt lat="22.044096" lon="104.096336"><ele>400.4</ele><time>2011-04-26T09:07:15.0000000+00:00</time></trkpt><trkpt lat="22.044096" lon="104.096336"><ele>400.4</ele><time>2011-04-26T09:07:20.0000000+00:00</time></trkpt><trkpt lat="22.044096" lon="104.096336"><ele>400.5</ele><time>2011-04-26T09:07:25.0000000+00:00</time></trkpt><trkpt lat="22.044096" lon="104.096336"><ele>400.5</ele><time>2011-04-26T09:07:30.0000000+00:00</time></trkpt><trkpt lat="22.044096" lon="104.096336"><ele>400.5</ele><time>2011-04-26T09:07:35.0000000+00:00</time></trkpt><trkpt lat="22.044098" lon="104.096336"><ele>400.6</ele><time>2011-04-26T09:07:40.0000000+00:00</time></trkpt><trkpt lat="22.044098" lon="104.096336"><ele>400.6</ele><time>2011-04-26T09:07:45.0000000+00:00</time></trkpt><trkpt lat="22.044098" lon="104.096336"><ele>400.7</ele><time>2011-04-26T09:07:50.0000000+00:00</time></trkpt><trkpt lat="22.044098" lon="104.096336"><ele>400.7</ele><time>2011-04-26T09:07:55.0000000+00:00</time></trkpt><trkpt lat="22.044098" lon="104.096336"><ele>400.7</ele><time>2011-04-26T09:08:00.0000000+00:00</time></trkpt><trkpt lat="22.044098" lon="104.096336"><ele>400.7</ele><time>2011-04-26T09:08:05.0000000+00:00</time></trkpt><trkpt lat="22.044098" lon="104.096336"><ele>400.7</ele><time>2011-04-26T09:08:10.0000000+00:00</time></trkpt><trkpt lat="22.0441" lon="104.096336"><ele>400.7</ele><time>2011-04-26T09:08:15.0000000+00:00</time></trkpt><trkpt lat="22.0441" lon="104.096336"><ele>400.8</ele><time>2011-04-26T09:08:20.0000000+00:00</time></trkpt><trkpt lat="22.0441" lon="104.096336"><ele>400.8</ele><time>2011-04-26T09:08:25.0000000+00:00</time></trkpt><trkpt lat="22.0441" lon="104.096336"><ele>400.8</ele><time>2011-04-26T09:08:30.0000000+00:00</time></trkpt><trkpt lat="22.0441" lon="104.096336"><ele>400.8</ele><time>2011-04-26T09:08:35.0000000+00:00</time></trkpt><trkpt lat="22.0441" lon="104.096336"><ele>400.9</ele><time>2011-04-26T09:08:40.0000000+00:00</time></trkpt><trkpt lat="22.0441" lon="104.096336"><ele>400.9</ele><time>2011-04-26T09:08:45.0000000+00:00</time></trkpt><trkpt lat="22.0441" lon="104.096336"><ele>400.9</ele><time>2011-04-26T09:08:50.0000000+00:00</time></trkpt><trkpt lat="22.0441" lon="104.096336"><ele>401.0</ele><time>2011-04-26T09:08:55.0000000+00:00</time></trkpt><trkpt lat="22.0441" lon="104.096336"><ele>401.0</ele><time>2011-04-26T09:09:00.0000000+00:00</time></trkpt><trkpt lat="22.0441" lon="104.096336"><ele>401.0</ele><time>2011-04-26T09:09:05.0000000+00:00</time></trkpt><trkpt lat="22.0441" lon="104.096336"><ele>401.0</ele><time>2011-04-26T09:09:10.0000000+00:00</time></trkpt><trkpt lat="22.0441" lon="104.096336"><ele>401.0</ele><time>2011-04-26T09:09:15.0000000+00:00</time></trkpt><trkpt lat="22.0441" lon="104.096336"><ele>401.1</ele><time>2011-04-26T09:09:20.0000000+00:00</time></trkpt><trkpt lat="22.0441" lon="104.096336"><ele>401.0</ele><time>2011-04-26T09:09:25.0000000+00:00</time></trkpt><trkpt lat="22.0441" lon="104.096336"><ele>401.1</ele><time>2011-04-26T09:09:30.0000000+00:00</time></trkpt><trkpt lat="22.0441" lon="104.096336"><ele>401.1</ele><time>2011-04-26T09:09:35.0000000+00:00</time></trkpt><trkpt lat="22.0441" lon="104.096336"><ele>401.1</ele><time>2011-04-26T09:09:40.0000000+00:00</time></trkpt><trkpt lat="22.0441" lon="104.096336"><ele>401.1</ele><time>2011-04-26T09:09:45.0000000+00:00</time></trkpt><trkpt lat="22.0441" lon="104.096336"><ele>401.1</ele><time>2011-04-26T09:09:50.0000000+00:00</time></trkpt><trkpt lat="22.0441" lon="104.096344"><ele>401.1</ele><time>2011-04-26T09:09:55.0000000+00:00</time></trkpt><trkpt lat="22.044098" lon="104.096359"><ele>401.1</ele><time>2011-04-26T09:10:00.0000000+00:00</time></trkpt><trkpt lat="22.044098" lon="104.096367"><ele>401.1</ele><time>2011-04-26T09:10:05.0000000+00:00</time></trkpt><trkpt lat="22.044106" lon="104.096367"><ele>401.2</ele><time>2011-04-26T09:10:10.0000000+00:00</time></trkpt><trkpt lat="22.044113" lon="104.096367"><ele>401.2</ele><time>2011-04-26T09:10:15.0000000+00:00</time></trkpt><trkpt lat="22.044123" lon="104.096367"><ele>401.2</ele><time>2011-04-26T09:10:20.0000000+00:00</time></trkpt><trkpt lat="22.044132" lon="104.096359"><ele>401.2</ele><time>2011-04-26T09:10:25.0000000+00:00</time></trkpt><trkpt lat="22.044142" lon="104.096359"><ele>401.3</ele><time>2011-04-26T09:10:30.0000000+00:00</time></trkpt><trkpt lat="22.044151" lon="104.096359"><ele>401.3</ele><time>2011-04-26T09:10:35.0000000+00:00</time></trkpt><trkpt lat="22.044159" lon="104.096359"><ele>401.4</ele><time>2011-04-26T09:10:40.0000000+00:00</time></trkpt><trkpt lat="22.044168" lon="104.096367"><ele>401.4</ele><time>2011-04-26T09:10:45.0000000+00:00</time></trkpt><trkpt lat="22.044182" lon="104.096367"><ele>401.4</ele><time>2011-04-26T09:10:50.0000000+00:00</time></trkpt><trkpt lat="22.044193" lon="104.096367"><ele>401.5</ele><time>2011-04-26T09:10:55.0000000+00:00</time></trkpt><trkpt lat="22.044178" lon="104.096413"><ele>401.9</ele><time>2011-04-26T09:11:00.0000000+00:00</time></trkpt><trkpt lat="22.04414" lon="104.096527"><ele>402.3</ele><time>2011-04-26T09:11:05.0000000+00:00</time></trkpt><trkpt lat="22.044136" lon="104.096718"><ele>402.0</ele><time>2011-04-26T09:11:10.0000000+00:00</time></trkpt><trkpt lat="22.044172" lon="104.097023"><ele>399.1</ele><time>2011-04-26T09:11:15.0000000+00:00</time></trkpt><trkpt lat="22.044334" lon="104.097343"><ele>395.3</ele><time>2011-04-26T09:11:20.0000000+00:00</time></trkpt><trkpt lat="22.044428" lon="104.097633"><ele>392.7</ele><time>2011-04-26T09:11:25.0000000+00:00</time></trkpt><trkpt lat="22.044498" lon="104.097939"><ele>391.4</ele><time>2011-04-26T09:11:30.0000000+00:00</time></trkpt><trkpt lat="22.04458" lon="104.098236"><ele>389.4</ele><time>2011-04-26T09:11:35.0000000+00:00</time></trkpt><trkpt lat="22.04463" lon="104.098434"><ele>387.3</ele><time>2011-04-26T09:11:40.0000000+00:00</time></trkpt><trkpt lat="22.044666" lon="104.09864"><ele>384.7</ele><time>2011-04-26T09:11:45.0000000+00:00</time></trkpt><trkpt lat="22.044727" lon="104.098892"><ele>382.7</ele><time>2011-04-26T09:11:50.0000000+00:00</time></trkpt><trkpt lat="22.044718" lon="104.099052"><ele>381.1</ele><time>2011-04-26T09:11:55.0000000+00:00</time></trkpt><trkpt lat="22.044626" lon="104.099251"><ele>379.2</ele><time>2011-04-26T09:12:00.0000000+00:00</time></trkpt><trkpt lat="22.044319" lon="104.099579"><ele>376.8</ele><time>2011-04-26T09:12:05.0000000+00:00</time></trkpt><trkpt lat="22.043964" lon="104.100021"><ele>373.9</ele><time>2011-04-26T09:12:10.0000000+00:00</time></trkpt><trkpt lat="22.043749" lon="104.100479"><ele>371.9</ele><time>2011-04-26T09:12:15.0000000+00:00</time></trkpt><trkpt lat="22.04352" lon="104.1008"><ele>370.5</ele><time>2011-04-26T09:12:20.0000000+00:00</time></trkpt><trkpt lat="22.04331" lon="104.100998"><ele>369.6</ele><time>2011-04-26T09:12:25.0000000+00:00</time></trkpt><trkpt lat="22.043133" lon="104.101196"><ele>368.7</ele><time>2011-04-26T09:12:30.0000000+00:00</time></trkpt><trkpt lat="22.042917" lon="104.101448"><ele>368.4</ele><time>2011-04-26T09:12:35.0000000+00:00</time></trkpt><trkpt lat="22.042597" lon="104.101555"><ele>367.7</ele><time>2011-04-26T09:12:40.0000000+00:00</time></trkpt><trkpt lat="22.04228" lon="104.101433"><ele>366.3</ele><time>2011-04-26T09:12:45.0000000+00:00</time></trkpt><trkpt lat="22.041845" lon="104.101379"><ele>366.0</ele><time>2011-04-26T09:12:50.0000000+00:00</time></trkpt><trkpt lat="22.041378" lon="104.10154"><ele>364.1</ele><time>2011-04-26T09:12:55.0000000+00:00</time></trkpt><trkpt lat="22.041014" lon="104.101906"><ele>362.5</ele><time>2011-04-26T09:13:00.0000000+00:00</time></trkpt><trkpt lat="22.040958" lon="104.102303"><ele>358.7</ele><time>2011-04-26T09:13:05.0000000+00:00</time></trkpt><trkpt lat="22.041147" lon="104.102737"><ele>355.2</ele><time>2011-04-26T09:13:10.0000000+00:00</time></trkpt><trkpt lat="22.041241" lon="104.103241"><ele>350.7</ele><time>2011-04-26T09:13:15.0000000+00:00</time></trkpt><trkpt lat="22.041206" lon="104.103745"><ele>345.1</ele><time>2011-04-26T09:13:20.0000000+00:00</time></trkpt><trkpt lat="22.041113" lon="104.104111"><ele>339.3</ele><time>2011-04-26T09:13:25.0000000+00:00</time></trkpt><trkpt lat="22.040955" lon="104.104538"><ele>334.5</ele><time>2011-04-26T09:13:30.0000000+00:00</time></trkpt><trkpt lat="22.04101" lon="104.105042"><ele>328.5</ele><time>2011-04-26T09:13:35.0000000+00:00</time></trkpt><trkpt lat="22.041275" lon="104.105515"><ele>322.6</ele><time>2011-04-26T09:13:40.0000000+00:00</time></trkpt><trkpt lat="22.041544" lon="104.106003"><ele>316.0</ele><time>2011-04-26T09:13:45.0000000+00:00</time></trkpt><trkpt lat="22.041725" lon="104.106544"><ele>310.3</ele><time>2011-04-26T09:13:50.0000000+00:00</time></trkpt><trkpt lat="22.0418" lon="104.107124"><ele>306.9</ele><time>2011-04-26T09:13:55.0000000+00:00</time></trkpt><trkpt lat="22.041889" lon="104.107544"><ele>304.5</ele><time>2011-04-26T09:14:00.0000000+00:00</time></trkpt><trkpt lat="22.04203" lon="104.107826"><ele>301.8</ele><time>2011-04-26T09:14:05.0000000+00:00</time></trkpt><trkpt lat="22.042135" lon="104.108025"><ele>299.8</ele><time>2011-04-26T09:14:10.0000000+00:00</time></trkpt><trkpt lat="22.042217" lon="104.108192"><ele>298.4</ele><time>2011-04-26T09:14:15.0000000+00:00</time></trkpt><trkpt lat="22.04237" lon="104.108269"><ele>297.1</ele><time>2011-04-26T09:14:20.0000000+00:00</time></trkpt><trkpt lat="22.042555" lon="104.10833"><ele>298.3</ele><time>2011-04-26T09:14:25.0000000+00:00</time></trkpt><trkpt lat="22.042723" lon="104.108498"><ele>297.8</ele><time>2011-04-26T09:14:30.0000000+00:00</time></trkpt><trkpt lat="22.042902" lon="104.108673"><ele>297.5</ele><time>2011-04-26T09:14:35.0000000+00:00</time></trkpt><trkpt lat="22.043098" lon="104.108795"><ele>298.7</ele><time>2011-04-26T09:14:40.0000000+00:00</time></trkpt><trkpt lat="22.043224" lon="104.108856"><ele>300.4</ele><time>2011-04-26T09:14:45.0000000+00:00</time></trkpt><trkpt lat="22.043295" lon="104.108879"><ele>301.5</ele><time>2011-04-26T09:14:50.0000000+00:00</time></trkpt><trkpt lat="22.043377" lon="104.108917"><ele>303.4</ele><time>2011-04-26T09:14:55.0000000+00:00</time></trkpt><trkpt lat="22.043465" lon="104.108971"><ele>306.0</ele><time>2011-04-26T09:15:00.0000000+00:00</time></trkpt><trkpt lat="22.043526" lon="104.108994"><ele>308.2</ele><time>2011-04-26T09:15:05.0000000+00:00</time></trkpt><trkpt lat="22.0436" lon="104.109016"><ele>310.0</ele><time>2011-04-26T09:15:10.0000000+00:00</time></trkpt><trkpt lat="22.043688" lon="104.109039"><ele>309.9</ele><time>2011-04-26T09:15:15.0000000+00:00</time></trkpt><trkpt lat="22.043758" lon="104.109077"><ele>310.3</ele><time>2011-04-26T09:15:20.0000000+00:00</time></trkpt><trkpt lat="22.043808" lon="104.109116"><ele>310.5</ele><time>2011-04-26T09:15:25.0000000+00:00</time></trkpt><trkpt lat="22.043877" lon="104.109138"><ele>310.8</ele><time>2011-04-26T09:15:30.0000000+00:00</time></trkpt><trkpt lat="22.043957" lon="104.109161"><ele>308.7</ele><time>2011-04-26T09:15:35.0000000+00:00</time></trkpt><trkpt lat="22.043962" lon="104.109161"><ele>308.2</ele><time>2011-04-26T09:15:40.0000000+00:00</time></trkpt><trkpt lat="22.043962" lon="104.109161"><ele>308.2</ele><time>2011-04-26T09:15:45.0000000+00:00</time></trkpt><trkpt lat="22.043962" lon="104.109161"><ele>308.1</ele><time>2011-04-26T09:15:50.0000000+00:00</time></trkpt><trkpt lat="22.043964" lon="104.109161"><ele>308.1</ele><time>2011-04-26T09:15:55.0000000+00:00</time></trkpt><trkpt lat="22.04398" lon="104.109169"><ele>308.1</ele><time>2011-04-26T09:16:00.0000000+00:00</time></trkpt><trkpt lat="22.044086" lon="104.1092"><ele>307.1</ele><time>2011-04-26T09:16:05.0000000+00:00</time></trkpt><trkpt lat="22.044207" lon="104.109268"><ele>305.8</ele><time>2011-04-26T09:16:10.0000000+00:00</time></trkpt><trkpt lat="22.044315" lon="104.109344"><ele>303.7</ele><time>2011-04-26T09:16:15.0000000+00:00</time></trkpt><trkpt lat="22.04442" lon="104.109406"><ele>300.9</ele><time>2011-04-26T09:16:20.0000000+00:00</time></trkpt><trkpt lat="22.044529" lon="104.109451"><ele>297.9</ele><time>2011-04-26T09:16:25.0000000+00:00</time></trkpt><trkpt lat="22.044641" lon="104.109512"><ele>297.3</ele><time>2011-04-26T09:16:30.0000000+00:00</time></trkpt><trkpt lat="22.044777" lon="104.109612"><ele>296.1</ele><time>2011-04-26T09:16:35.0000000+00:00</time></trkpt><trkpt lat="22.04493" lon="104.109756"><ele>294.8</ele><time>2011-04-26T09:16:40.0000000+00:00</time></trkpt><trkpt lat="22.045042" lon="104.109909"><ele>294.4</ele><time>2011-04-26T09:16:45.0000000+00:00</time></trkpt><trkpt lat="22.04513" lon="104.110069"><ele>295.0</ele><time>2011-04-26T09:16:50.0000000+00:00</time></trkpt><trkpt lat="22.045208" lon="104.110214"><ele>296.5</ele><time>2011-04-26T09:16:55.0000000+00:00</time></trkpt><trkpt lat="22.045282" lon="104.110359"><ele>298.7</ele><time>2011-04-26T09:17:00.0000000+00:00</time></trkpt><trkpt lat="22.045437" lon="104.110519"><ele>296.9</ele><time>2011-04-26T09:17:05.0000000+00:00</time></trkpt><trkpt lat="22.045637" lon="104.110672"><ele>292.8</ele><time>2011-04-26T09:17:10.0000000+00:00</time></trkpt><trkpt lat="22.045811" lon="104.110771"><ele>289.5</ele><time>2011-04-26T09:17:15.0000000+00:00</time></trkpt><trkpt lat="22.045986" lon="104.110832"><ele>289.5</ele><time>2011-04-26T09:17:20.0000000+00:00</time></trkpt><trkpt lat="22.046185" lon="104.110901"><ele>289.2</ele><time>2011-04-26T09:17:25.0000000+00:00</time></trkpt><trkpt lat="22.046371" lon="104.111"><ele>287.6</ele><time>2011-04-26T09:17:30.0000000+00:00</time></trkpt><trkpt lat="22.046551" lon="104.111115"><ele>284.8</ele><time>2011-04-26T09:17:35.0000000+00:00</time></trkpt><trkpt lat="22.046753" lon="104.111229"><ele>282.8</ele><time>2011-04-26T09:17:40.0000000+00:00</time></trkpt><trkpt lat="22.046989" lon="104.111336"><ele>281.1</ele><time>2011-04-26T09:17:45.0000000+00:00</time></trkpt><trkpt lat="22.047266" lon="104.111534"><ele>279.3</ele><time>2011-04-26T09:17:50.0000000+00:00</time></trkpt><trkpt lat="22.04744" lon="104.111847"><ele>277.4</ele><time>2011-04-26T09:17:55.0000000+00:00</time></trkpt><trkpt lat="22.047407" lon="104.112099"><ele>276.6</ele><time>2011-04-26T09:18:00.0000000+00:00</time></trkpt><trkpt lat="22.047411" lon="104.112289"><ele>276.8</ele><time>2011-04-26T09:18:05.0000000+00:00</time></trkpt><trkpt lat="22.04744" lon="104.112526"><ele>275.8</ele><time>2011-04-26T09:18:10.0000000+00:00</time></trkpt><trkpt lat="22.047489" lon="104.112747"><ele>274.3</ele><time>2011-04-26T09:18:15.0000000+00:00</time></trkpt><trkpt lat="22.047615" lon="104.113037"><ele>270.5</ele><time>2011-04-26T09:18:20.0000000+00:00</time></trkpt><trkpt lat="22.047764" lon="104.113335"><ele>266.6</ele><time>2011-04-26T09:18:25.0000000+00:00</time></trkpt><trkpt lat="22.047897" lon="104.113647"><ele>262.3</ele><time>2011-04-26T09:18:30.0000000+00:00</time></trkpt><trkpt lat="22.048037" lon="104.113953"><ele>258.1</ele><time>2011-04-26T09:18:35.0000000+00:00</time></trkpt><trkpt lat="22.048243" lon="104.114281"><ele>254.3</ele><time>2011-04-26T09:18:40.0000000+00:00</time></trkpt><trkpt lat="22.048382" lon="104.114655"><ele>249.9</ele><time>2011-04-26T09:18:45.0000000+00:00</time></trkpt><trkpt lat="22.048458" lon="104.11496"><ele>248.7</ele><time>2011-04-26T09:18:50.0000000+00:00</time></trkpt><trkpt lat="22.048479" lon="104.115044"><ele>247.3</ele><time>2011-04-26T09:18:55.0000000+00:00</time></trkpt><trkpt lat="22.048479" lon="104.115044"><ele>247.5</ele><time>2011-04-26T09:19:00.0000000+00:00</time></trkpt><trkpt lat="22.048483" lon="104.115059"><ele>247.4</ele><time>2011-04-26T09:19:05.0000000+00:00</time></trkpt><trkpt lat="22.048502" lon="104.115089"><ele>247.7</ele><time>2011-04-26T09:19:10.0000000+00:00</time></trkpt><trkpt lat="22.048519" lon="104.115089"><ele>248.2</ele><time>2011-04-26T09:19:15.0000000+00:00</time></trkpt><trkpt lat="22.048521" lon="104.115089"><ele>248.1</ele><time>2011-04-26T09:19:20.0000000+00:00</time></trkpt><trkpt lat="22.04858" lon="104.115189"><ele>246.8</ele><time>2011-04-26T09:19:25.0000000+00:00</time></trkpt><trkpt lat="22.048693" lon="104.115425"><ele>245.6</ele><time>2011-04-26T09:19:30.0000000+00:00</time></trkpt><trkpt lat="22.048841" lon="104.115753"><ele>244.1</ele><time>2011-04-26T09:19:35.0000000+00:00</time></trkpt><trkpt lat="22.04903" lon="104.116096"><ele>242.8</ele><time>2011-04-26T09:19:40.0000000+00:00</time></trkpt><trkpt lat="22.049202" lon="104.116432"><ele>241.5</ele><time>2011-04-26T09:19:45.0000000+00:00</time></trkpt><trkpt lat="22.04936" lon="104.11673"><ele>241.5</ele><time>2011-04-26T09:19:50.0000000+00:00</time></trkpt><trkpt lat="22.049501" lon="104.11705"><ele>241.5</ele><time>2011-04-26T09:19:55.0000000+00:00</time></trkpt><trkpt lat="22.049593" lon="104.117279"><ele>241.7</ele><time>2011-04-26T09:20:00.0000000+00:00</time></trkpt><trkpt lat="22.049665" lon="104.11747"><ele>241.5</ele><time>2011-04-26T09:20:05.0000000+00:00</time></trkpt><trkpt lat="22.049763" lon="104.117683"><ele>241.8</ele><time>2011-04-26T09:20:10.0000000+00:00</time></trkpt><trkpt lat="22.049843" lon="104.117882"><ele>242.3</ele><time>2011-04-26T09:20:15.0000000+00:00</time></trkpt><trkpt lat="22.049932" lon="104.118118"><ele>240.9</ele><time>2011-04-26T09:20:20.0000000+00:00</time></trkpt><trkpt lat="22.050032" lon="104.118355"><ele>241.9</ele><time>2011-04-26T09:20:25.0000000+00:00</time></trkpt><trkpt lat="22.050167" lon="104.118538"><ele>243.1</ele><time>2011-04-26T09:20:30.0000000+00:00</time></trkpt><trkpt lat="22.050325" lon="104.118736"><ele>244.7</ele><time>2011-04-26T09:20:35.0000000+00:00</time></trkpt><trkpt lat="22.050499" lon="104.118919"><ele>245.6</ele><time>2011-04-26T09:20:40.0000000+00:00</time></trkpt><trkpt lat="22.050657" lon="104.119133"><ele>245.9</ele><time>2011-04-26T09:20:45.0000000+00:00</time></trkpt><trkpt lat="22.050783" lon="104.119339"><ele>246.7</ele><time>2011-04-26T09:20:50.0000000+00:00</time></trkpt><trkpt lat="22.050821" lon="104.119568"><ele>247.6</ele><time>2011-04-26T09:20:55.0000000+00:00</time></trkpt><trkpt lat="22.050789" lon="104.119736"><ele>248.3</ele><time>2011-04-26T09:21:00.0000000+00:00</time></trkpt><trkpt lat="22.050758" lon="104.119919"><ele>248.9</ele><time>2011-04-26T09:21:05.0000000+00:00</time></trkpt><trkpt lat="22.050724" lon="104.120094"><ele>249.8</ele><time>2011-04-26T09:21:10.0000000+00:00</time></trkpt><trkpt lat="22.050711" lon="104.1203"><ele>250.2</ele><time>2011-04-26T09:21:15.0000000+00:00</time></trkpt><trkpt lat="22.050686" lon="104.120453"><ele>251.1</ele><time>2011-04-26T09:21:20.0000000+00:00</time></trkpt><trkpt lat="22.050663" lon="104.120651"><ele>251.1</ele><time>2011-04-26T09:21:25.0000000+00:00</time></trkpt><trkpt lat="22.050655" lon="104.120789"><ele>251.9</ele><time>2011-04-26T09:21:30.0000000+00:00</time></trkpt><trkpt lat="22.050625" lon="104.120926"><ele>252.7</ele><time>2011-04-26T09:21:35.0000000+00:00</time></trkpt><trkpt lat="22.050587" lon="104.121033"><ele>253.6</ele><time>2011-04-26T09:21:40.0000000+00:00</time></trkpt><trkpt lat="22.050558" lon="104.12117"><ele>254.7</ele><time>2011-04-26T09:21:45.0000000+00:00</time></trkpt><trkpt lat="22.050535" lon="104.121262"><ele>255.7</ele><time>2011-04-26T09:21:50.0000000+00:00</time></trkpt><trkpt lat="22.050537" lon="104.121269"><ele>256.6</ele><time>2011-04-26T09:21:55.0000000+00:00</time></trkpt><trkpt lat="22.050543" lon="104.121277"><ele>256.8</ele><time>2011-04-26T09:22:00.0000000+00:00</time></trkpt><trkpt lat="22.050541" lon="104.121292"><ele>256.9</ele><time>2011-04-26T09:22:05.0000000+00:00</time></trkpt><trkpt lat="22.050535" lon="104.1213"><ele>257.0</ele><time>2011-04-26T09:22:10.0000000+00:00</time></trkpt><trkpt lat="22.050526" lon="104.121323"><ele>257.1</ele><time>2011-04-26T09:22:15.0000000+00:00</time></trkpt><trkpt lat="22.050516" lon="104.121338"><ele>257.1</ele><time>2011-04-26T09:22:20.0000000+00:00</time></trkpt><trkpt lat="22.050514" lon="104.121361"><ele>257.2</ele><time>2011-04-26T09:22:25.0000000+00:00</time></trkpt><trkpt lat="22.050482" lon="104.121483"><ele>256.5</ele><time>2011-04-26T09:22:30.0000000+00:00</time></trkpt><trkpt lat="22.050428" lon="104.121635"><ele>255.9</ele><time>2011-04-26T09:22:35.0000000+00:00</time></trkpt><trkpt lat="22.050375" lon="104.121849"><ele>255.4</ele><time>2011-04-26T09:22:40.0000000+00:00</time></trkpt><trkpt lat="22.050365" lon="104.12207"><ele>254.0</ele><time>2011-04-26T09:22:45.0000000+00:00</time></trkpt><trkpt lat="22.050369" lon="104.122208"><ele>253.3</ele><time>2011-04-26T09:22:50.0000000+00:00</time></trkpt><trkpt lat="22.050373" lon="104.122299"><ele>252.9</ele><time>2011-04-26T09:22:55.0000000+00:00</time></trkpt><trkpt lat="22.050398" lon="104.122421"><ele>253.3</ele><time>2011-04-26T09:23:00.0000000+00:00</time></trkpt><trkpt lat="22.050436" lon="104.122589"><ele>253.5</ele><time>2011-04-26T09:23:05.0000000+00:00</time></trkpt><trkpt lat="22.050457" lon="104.122734"><ele>253.4</ele><time>2011-04-26T09:23:10.0000000+00:00</time></trkpt><trkpt lat="22.050404" lon="104.122955"><ele>252.9</ele><time>2011-04-26T09:23:15.0000000+00:00</time></trkpt><trkpt lat="22.050356" lon="104.123131"><ele>253.5</ele><time>2011-04-26T09:23:20.0000000+00:00</time></trkpt><trkpt lat="22.050285" lon="104.123283"><ele>252.9</ele><time>2011-04-26T09:23:25.0000000+00:00</time></trkpt><trkpt lat="22.050232" lon="104.123398"><ele>252.6</ele><time>2011-04-26T09:23:30.0000000+00:00</time></trkpt><trkpt lat="22.050203" lon="104.123474"><ele>253.0</ele><time>2011-04-26T09:23:35.0000000+00:00</time></trkpt><trkpt lat="22.050169" lon="104.123512"><ele>252.1</ele><time>2011-04-26T09:23:40.0000000+00:00</time></trkpt><trkpt lat="22.050169" lon="104.123581"><ele>252.1</ele><time>2011-04-26T09:23:45.0000000+00:00</time></trkpt><trkpt lat="22.050165" lon="104.123634"><ele>252.2</ele><time>2011-04-26T09:23:50.0000000+00:00</time></trkpt><trkpt lat="22.050173" lon="104.12368"><ele>252.6</ele><time>2011-04-26T09:23:55.0000000+00:00</time></trkpt><trkpt lat="22.050179" lon="104.123756"><ele>253.3</ele><time>2011-04-26T09:24:00.0000000+00:00</time></trkpt><trkpt lat="22.050184" lon="104.123833"><ele>253.6</ele><time>2011-04-26T09:24:05.0000000+00:00</time></trkpt><trkpt lat="22.050188" lon="104.123909"><ele>254.1</ele><time>2011-04-26T09:24:10.0000000+00:00</time></trkpt><trkpt lat="22.050192" lon="104.124001"><ele>255.5</ele><time>2011-04-26T09:24:15.0000000+00:00</time></trkpt><trkpt lat="22.050186" lon="104.124077"><ele>256.0</ele><time>2011-04-26T09:24:20.0000000+00:00</time></trkpt><trkpt lat="22.050196" lon="104.124176"><ele>256.6</ele><time>2011-04-26T09:24:25.0000000+00:00</time></trkpt><trkpt lat="22.050201" lon="104.12426"><ele>257.6</ele><time>2011-04-26T09:24:30.0000000+00:00</time></trkpt><trkpt lat="22.050186" lon="104.124336"><ele>258.5</ele><time>2011-04-26T09:24:35.0000000+00:00</time></trkpt><trkpt lat="22.050182" lon="104.12442"><ele>260.1</ele><time>2011-04-26T09:24:40.0000000+00:00</time></trkpt><trkpt lat="22.05019" lon="104.124504"><ele>261.1</ele><time>2011-04-26T09:24:45.0000000+00:00</time></trkpt><trkpt lat="22.05018" lon="104.12458"><ele>261.8</ele><time>2011-04-26T09:24:50.0000000+00:00</time></trkpt><trkpt lat="22.05018" lon="104.124657"><ele>262.7</ele><time>2011-04-26T09:24:55.0000000+00:00</time></trkpt><trkpt lat="22.050165" lon="104.124748"><ele>263.5</ele><time>2011-04-26T09:25:00.0000000+00:00</time></trkpt><trkpt lat="22.050146" lon="104.124825"><ele>264.3</ele><time>2011-04-26T09:25:05.0000000+00:00</time></trkpt><trkpt lat="22.050135" lon="104.124924"><ele>265.1</ele><time>2011-04-26T09:25:10.0000000+00:00</time></trkpt><trkpt lat="22.050125" lon="104.125008"><ele>265.4</ele><time>2011-04-26T09:25:15.0000000+00:00</time></trkpt><trkpt lat="22.050116" lon="104.125107"><ele>265.7</ele><time>2011-04-26T09:25:20.0000000+00:00</time></trkpt><trkpt lat="22.050083" lon="104.125191"><ele>267.1</ele><time>2011-04-26T09:25:25.0000000+00:00</time></trkpt><trkpt lat="22.050035" lon="104.125305"><ele>267.8</ele><time>2011-04-26T09:25:30.0000000+00:00</time></trkpt><trkpt lat="22.04999" lon="104.125389"><ele>268.9</ele><time>2011-04-26T09:25:35.0000000+00:00</time></trkpt><trkpt lat="22.049974" lon="104.125412"><ele>269.6</ele><time>2011-04-26T09:25:40.0000000+00:00</time></trkpt><trkpt lat="22.049973" lon="104.125412"><ele>269.9</ele><time>2011-04-26T09:25:45.0000000+00:00</time></trkpt><trkpt lat="22.049961" lon="104.12542"><ele>269.9</ele><time>2011-04-26T09:25:50.0000000+00:00</time></trkpt><trkpt lat="22.049953" lon="104.125443"><ele>269.6</ele><time>2011-04-26T09:25:55.0000000+00:00</time></trkpt><trkpt lat="22.049953" lon="104.125458"><ele>269.8</ele><time>2011-04-26T09:26:00.0000000+00:00</time></trkpt><trkpt lat="22.049955" lon="104.125458"><ele>269.8</ele><time>2011-04-26T09:26:05.0000000+00:00</time></trkpt><trkpt lat="22.049957" lon="104.125458"><ele>269.9</ele><time>2011-04-26T09:26:10.0000000+00:00</time></trkpt><trkpt lat="22.049961" lon="104.125458"><ele>269.9</ele><time>2011-04-26T09:26:15.0000000+00:00</time></trkpt><trkpt lat="22.049961" lon="104.125458"><ele>269.8</ele><time>2011-04-26T09:26:20.0000000+00:00</time></trkpt><trkpt lat="22.049961" lon="104.125458"><ele>269.8</ele><time>2011-04-26T09:26:25.0000000+00:00</time></trkpt><trkpt lat="22.049961" lon="104.125458"><ele>269.8</ele><time>2011-04-26T09:26:30.0000000+00:00</time></trkpt><trkpt lat="22.049959" lon="104.125458"><ele>269.8</ele><time>2011-04-26T09:26:35.0000000+00:00</time></trkpt><trkpt lat="22.049963" lon="104.125458"><ele>269.8</ele><time>2011-04-26T09:26:40.0000000+00:00</time></trkpt><trkpt lat="22.049965" lon="104.125458"><ele>269.8</ele><time>2011-04-26T09:26:45.0000000+00:00</time></trkpt><trkpt lat="22.049971" lon="104.125465"><ele>269.8</ele><time>2011-04-26T09:26:50.0000000+00:00</time></trkpt><trkpt lat="22.049973" lon="104.125465"><ele>269.8</ele><time>2011-04-26T09:26:55.0000000+00:00</time></trkpt><trkpt lat="22.049973" lon="104.125465"><ele>269.8</ele><time>2011-04-26T09:27:00.0000000+00:00</time></trkpt><trkpt lat="22.049971" lon="104.125465"><ele>269.8</ele><time>2011-04-26T09:27:05.0000000+00:00</time></trkpt><trkpt lat="22.049967" lon="104.125458"><ele>269.8</ele><time>2011-04-26T09:27:10.0000000+00:00</time></trkpt><trkpt lat="22.049967" lon="104.125465"><ele>269.8</ele><time>2011-04-26T09:27:15.0000000+00:00</time></trkpt><trkpt lat="22.049967" lon="104.125465"><ele>269.8</ele><time>2011-04-26T09:27:20.0000000+00:00</time></trkpt><trkpt lat="22.049965" lon="104.125465"><ele>269.9</ele><time>2011-04-26T09:27:25.0000000+00:00</time></trkpt><trkpt lat="22.049967" lon="104.125465"><ele>269.9</ele><time>2011-04-26T09:27:30.0000000+00:00</time></trkpt><trkpt lat="22.049967" lon="104.125465"><ele>269.9</ele><time>2011-04-26T09:27:35.0000000+00:00</time></trkpt><trkpt lat="22.049967" lon="104.125465"><ele>270.0</ele><time>2011-04-26T09:27:40.0000000+00:00</time></trkpt><trkpt lat="22.049967" lon="104.125465"><ele>270.0</ele><time>2011-04-26T09:27:45.0000000+00:00</time></trkpt><trkpt lat="22.049963" lon="104.125465"><ele>270.0</ele><time>2011-04-26T09:27:50.0000000+00:00</time></trkpt><trkpt lat="22.049959" lon="104.125458"><ele>270.0</ele><time>2011-04-26T09:27:55.0000000+00:00</time></trkpt><trkpt lat="22.049955" lon="104.125458"><ele>270.0</ele><time>2011-04-26T09:28:00.0000000+00:00</time></trkpt><trkpt lat="22.049952" lon="104.12545"><ele>270.0</ele><time>2011-04-26T09:28:05.0000000+00:00</time></trkpt><trkpt lat="22.049948" lon="104.12545"><ele>270.0</ele><time>2011-04-26T09:28:10.0000000+00:00</time></trkpt><trkpt lat="22.049946" lon="104.12545"><ele>270.1</ele><time>2011-04-26T09:28:15.0000000+00:00</time></trkpt><trkpt lat="22.049948" lon="104.12545"><ele>270.1</ele><time>2011-04-26T09:28:20.0000000+00:00</time></trkpt><trkpt lat="22.049948" lon="104.12545"><ele>270.1</ele><time>2011-04-26T09:28:25.0000000+00:00</time></trkpt><trkpt lat="22.049946" lon="104.12545"><ele>270.1</ele><time>2011-04-26T09:28:30.0000000+00:00</time></trkpt><trkpt lat="22.049944" lon="104.12545"><ele>270.1</ele><time>2011-04-26T09:28:35.0000000+00:00</time></trkpt><trkpt lat="22.049942" lon="104.12545"><ele>270.0</ele><time>2011-04-26T09:28:40.0000000+00:00</time></trkpt><trkpt lat="22.04994" lon="104.125458"><ele>269.8</ele><time>2011-04-26T09:28:45.0000000+00:00</time></trkpt><trkpt lat="22.049938" lon="104.12545"><ele>269.7</ele><time>2011-04-26T09:28:50.0000000+00:00</time></trkpt><trkpt lat="22.049936" lon="104.12545"><ele>269.6</ele><time>2011-04-26T09:28:55.0000000+00:00</time></trkpt><trkpt lat="22.049885" lon="104.125504"><ele>269.8</ele><time>2011-04-26T09:29:00.0000000+00:00</time></trkpt><trkpt lat="22.049841" lon="104.125587"><ele>269.9</ele><time>2011-04-26T09:29:05.0000000+00:00</time></trkpt><trkpt lat="22.049818" lon="104.125664"><ele>270.2</ele><time>2011-04-26T09:29:10.0000000+00:00</time></trkpt><trkpt lat="22.049799" lon="104.125771"><ele>270.0</ele><time>2011-04-26T09:29:15.0000000+00:00</time></trkpt><trkpt lat="22.049803" lon="104.125893"><ele>270.5</ele><time>2011-04-26T09:29:20.0000000+00:00</time></trkpt><trkpt lat="22.049835" lon="104.126038"><ele>271.2</ele><time>2011-04-26T09:29:25.0000000+00:00</time></trkpt><trkpt lat="22.049885" lon="104.126282"><ele>269.9</ele><time>2011-04-26T09:29:30.0000000+00:00</time></trkpt><trkpt lat="22.049953" lon="104.126511"><ele>269.8</ele><time>2011-04-26T09:29:35.0000000+00:00</time></trkpt><trkpt lat="22.050049" lon="104.126678"><ele>270.2</ele><time>2011-04-26T09:29:40.0000000+00:00</time></trkpt><trkpt lat="22.050161" lon="104.126869"><ele>269.8</ele><time>2011-04-26T09:29:45.0000000+00:00</time></trkpt><trkpt lat="22.050329" lon="104.127159"><ele>267.9</ele><time>2011-04-26T09:29:50.0000000+00:00</time></trkpt><trkpt lat="22.05048" lon="104.127396"><ele>265.5</ele><time>2011-04-26T09:29:55.0000000+00:00</time></trkpt><trkpt lat="22.050591" lon="104.127647"><ele>264.3</ele><time>2011-04-26T09:30:00.0000000+00:00</time></trkpt><trkpt lat="22.050713" lon="104.127937"><ele>261.7</ele><time>2011-04-26T09:30:05.0000000+00:00</time></trkpt><trkpt lat="22.050816" lon="104.128212"><ele>259.2</ele><time>2011-04-26T09:30:10.0000000+00:00</time></trkpt><trkpt lat="22.050926" lon="104.128563"><ele>257.1</ele><time>2011-04-26T09:30:15.0000000+00:00</time></trkpt><trkpt lat="22.050985" lon="104.129036"><ele>253.8</ele><time>2011-04-26T09:30:20.0000000+00:00</time></trkpt><trkpt lat="22.051016" lon="104.129509"><ele>250.6</ele><time>2011-04-26T09:30:25.0000000+00:00</time></trkpt><trkpt lat="22.051252" lon="104.129875"><ele>246.5</ele><time>2011-04-26T09:30:30.0000000+00:00</time></trkpt><trkpt lat="22.051365" lon="104.130188"><ele>244.7</ele><time>2011-04-26T09:30:35.0000000+00:00</time></trkpt><trkpt lat="22.051277" lon="104.130486"><ele>243.3</ele><time>2011-04-26T09:30:40.0000000+00:00</time></trkpt><trkpt lat="22.051142" lon="104.130875"><ele>242.4</ele><time>2011-04-26T09:30:45.0000000+00:00</time></trkpt><trkpt lat="22.051043" lon="104.131203"><ele>240.7</ele><time>2011-04-26T09:30:50.0000000+00:00</time></trkpt><trkpt lat="22.051027" lon="104.13147"><ele>238.7</ele><time>2011-04-26T09:30:55.0000000+00:00</time></trkpt><trkpt lat="22.051069" lon="104.131836"><ele>235.9</ele><time>2011-04-26T09:31:00.0000000+00:00</time></trkpt><trkpt lat="22.051096" lon="104.132103"><ele>235.1</ele><time>2011-04-26T09:31:05.0000000+00:00</time></trkpt><trkpt lat="22.051147" lon="104.132355"><ele>233.6</ele><time>2011-04-26T09:31:10.0000000+00:00</time></trkpt><trkpt lat="22.051207" lon="104.132553"><ele>233.4</ele><time>2011-04-26T09:31:15.0000000+00:00</time></trkpt><trkpt lat="22.051266" lon="104.13269"><ele>232.5</ele><time>2011-04-26T09:31:20.0000000+00:00</time></trkpt><trkpt lat="22.051317" lon="104.132813"><ele>235.2</ele><time>2011-04-26T09:31:25.0000000+00:00</time></trkpt><trkpt lat="22.051407" lon="104.132935"><ele>235.8</ele><time>2011-04-26T09:31:30.0000000+00:00</time></trkpt><trkpt lat="22.051523" lon="104.133064"><ele>235.6</ele><time>2011-04-26T09:31:35.0000000+00:00</time></trkpt><trkpt lat="22.051601" lon="104.133179"><ele>237.1</ele><time>2011-04-26T09:31:40.0000000+00:00</time></trkpt><trkpt lat="22.051649" lon="104.13327"><ele>238.5</ele><time>2011-04-26T09:31:45.0000000+00:00</time></trkpt><trkpt lat="22.051682" lon="104.133354"><ele>239.0</ele><time>2011-04-26T09:31:50.0000000+00:00</time></trkpt><trkpt lat="22.05175" lon="104.133476"><ele>238.4</ele><time>2011-04-26T09:31:55.0000000+00:00</time></trkpt><trkpt lat="22.051781" lon="104.133591"><ele>238.2</ele><time>2011-04-26T09:32:00.0000000+00:00</time></trkpt><trkpt lat="22.051813" lon="104.133698"><ele>238.4</ele><time>2011-04-26T09:32:05.0000000+00:00</time></trkpt><trkpt lat="22.051844" lon="104.133804"><ele>239.0</ele><time>2011-04-26T09:32:10.0000000+00:00</time></trkpt><trkpt lat="22.051874" lon="104.133926"><ele>238.2</ele><time>2011-04-26T09:32:15.0000000+00:00</time></trkpt><trkpt lat="22.051893" lon="104.134079"><ele>237.3</ele><time>2011-04-26T09:32:20.0000000+00:00</time></trkpt><trkpt lat="22.051914" lon="104.134209"><ele>236.3</ele><time>2011-04-26T09:32:25.0000000+00:00</time></trkpt><trkpt lat="22.051952" lon="104.134354"><ele>237.1</ele><time>2011-04-26T09:32:30.0000000+00:00</time></trkpt><trkpt lat="22.051996" lon="104.134499"><ele>235.5</ele><time>2011-04-26T09:32:35.0000000+00:00</time></trkpt><trkpt lat="22.052034" lon="104.134636"><ele>235.6</ele><time>2011-04-26T09:32:40.0000000+00:00</time></trkpt><trkpt lat="22.052038" lon="104.134781"><ele>235.3</ele><time>2011-04-26T09:32:45.0000000+00:00</time></trkpt><trkpt lat="22.052076" lon="104.134972"><ele>233.8</ele><time>2011-04-26T09:32:50.0000000+00:00</time></trkpt><trkpt lat="22.052116" lon="104.135162"><ele>232.8</ele><time>2011-04-26T09:32:55.0000000+00:00</time></trkpt><trkpt lat="22.05217" lon="104.135361"><ele>232.4</ele><time>2011-04-26T09:33:00.0000000+00:00</time></trkpt><trkpt lat="22.052212" lon="104.135529"><ele>232.5</ele><time>2011-04-26T09:33:05.0000000+00:00</time></trkpt><trkpt lat="22.052225" lon="104.135696"><ele>231.9</ele><time>2011-04-26T09:33:10.0000000+00:00</time></trkpt><trkpt lat="22.052166" lon="104.135887"><ele>232.1</ele><time>2011-04-26T09:33:15.0000000+00:00</time></trkpt><trkpt lat="22.052027" lon="104.136124"><ele>231.4</ele><time>2011-04-26T09:33:20.0000000+00:00</time></trkpt><trkpt lat="22.051903" lon="104.136383"><ele>230.6</ele><time>2011-04-26T09:33:25.0000000+00:00</time></trkpt><trkpt lat="22.051834" lon="104.136658"><ele>229.1</ele><time>2011-04-26T09:33:30.0000000+00:00</time></trkpt><trkpt lat="22.051777" lon="104.136879"><ele>229.4</ele><time>2011-04-26T09:33:35.0000000+00:00</time></trkpt><trkpt lat="22.051704" lon="104.137062"><ele>229.7</ele><time>2011-04-26T09:33:40.0000000+00:00</time></trkpt><trkpt lat="22.051657" lon="104.13726"><ele>229.9</ele><time>2011-04-26T09:33:45.0000000+00:00</time></trkpt><trkpt lat="22.051609" lon="104.137482"><ele>229.0</ele><time>2011-04-26T09:33:50.0000000+00:00</time></trkpt><trkpt lat="22.051559" lon="104.137688"><ele>227.8</ele><time>2011-04-26T09:33:55.0000000+00:00</time></trkpt><trkpt lat="22.051512" lon="104.137886"><ele>226.9</ele><time>2011-04-26T09:34:00.0000000+00:00</time></trkpt><trkpt lat="22.051481" lon="104.138107"><ele>226.6</ele><time>2011-04-26T09:34:05.0000000+00:00</time></trkpt><trkpt lat="22.05151" lon="104.138359"><ele>226.8</ele><time>2011-04-26T09:34:10.0000000+00:00</time></trkpt><trkpt lat="22.051573" lon="104.13855"><ele>226.5</ele><time>2011-04-26T09:34:15.0000000+00:00</time></trkpt><trkpt lat="22.051611" lon="104.138687"><ele>227.3</ele><time>2011-04-26T09:34:20.0000000+00:00</time></trkpt><trkpt lat="22.051697" lon="104.138885"><ele>227.6</ele><time>2011-04-26T09:34:25.0000000+00:00</time></trkpt><trkpt lat="22.051804" lon="104.139145"><ele>227.3</ele><time>2011-04-26T09:34:30.0000000+00:00</time></trkpt><trkpt lat="22.051888" lon="104.139404"><ele>227.4</ele><time>2011-04-26T09:34:35.0000000+00:00</time></trkpt><trkpt lat="22.051949" lon="104.13958"><ele>227.1</ele><time>2011-04-26T09:34:40.0000000+00:00</time></trkpt><trkpt lat="22.052008" lon="104.139832"><ele>227.3</ele><time>2011-04-26T09:34:45.0000000+00:00</time></trkpt><trkpt lat="22.052113" lon="104.140091"><ele>228.1</ele><time>2011-04-26T09:34:50.0000000+00:00</time></trkpt><trkpt lat="22.052248" lon="104.140282"><ele>228.4</ele><time>2011-04-26T09:34:55.0000000+00:00</time></trkpt><trkpt lat="22.052435" lon="104.140457"><ele>227.8</ele><time>2011-04-26T09:35:00.0000000+00:00</time></trkpt><trkpt lat="22.052588" lon="104.14061"><ele>227.6</ele><time>2011-04-26T09:35:05.0000000+00:00</time></trkpt><trkpt lat="22.052671" lon="104.140747"><ele>228.5</ele><time>2011-04-26T09:35:10.0000000+00:00</time></trkpt><trkpt lat="22.052794" lon="104.140892"><ele>229.3</ele><time>2011-04-26T09:35:15.0000000+00:00</time></trkpt><trkpt lat="22.052904" lon="104.141052"><ele>229.5</ele><time>2011-04-26T09:35:20.0000000+00:00</time></trkpt><trkpt lat="22.052986" lon="104.14119"><ele>229.8</ele><time>2011-04-26T09:35:25.0000000+00:00</time></trkpt><trkpt lat="22.05307" lon="104.14138"><ele>227.4</ele><time>2011-04-26T09:35:30.0000000+00:00</time></trkpt><trkpt lat="22.053186" lon="104.141533"><ele>227.6</ele><time>2011-04-26T09:35:35.0000000+00:00</time></trkpt><trkpt lat="22.053324" lon="104.141663"><ele>229.0</ele><time>2011-04-26T09:35:40.0000000+00:00</time></trkpt><trkpt lat="22.053493" lon="104.141838"><ele>227.5</ele><time>2011-04-26T09:35:45.0000000+00:00</time></trkpt><trkpt lat="22.053692" lon="104.141937"><ele>227.2</ele><time>2011-04-26T09:35:50.0000000+00:00</time></trkpt><trkpt lat="22.053938" lon="104.142044"><ele>227.6</ele><time>2011-04-26T09:35:55.0000000+00:00</time></trkpt><trkpt lat="22.054125" lon="104.14209"><ele>226.5</ele><time>2011-04-26T09:36:00.0000000+00:00</time></trkpt><trkpt lat="22.054335" lon="104.142181"><ele>228.5</ele><time>2011-04-26T09:36:05.0000000+00:00</time></trkpt><trkpt lat="22.054455" lon="104.14225"><ele>230.2</ele><time>2011-04-26T09:36:10.0000000+00:00</time></trkpt><trkpt lat="22.054569" lon="104.142296"><ele>231.7</ele><time>2011-04-26T09:36:15.0000000+00:00</time></trkpt><trkpt lat="22.054699" lon="104.14241"><ele>231.8</ele><time>2011-04-26T09:36:20.0000000+00:00</time></trkpt><trkpt lat="22.054798" lon="104.142471"><ele>233.3</ele><time>2011-04-26T09:36:25.0000000+00:00</time></trkpt><trkpt lat="22.054903" lon="104.14254"><ele>233.5</ele><time>2011-04-26T09:36:30.0000000+00:00</time></trkpt><trkpt lat="22.054981" lon="104.142616"><ele>233.5</ele><time>2011-04-26T09:36:35.0000000+00:00</time></trkpt><trkpt lat="22.055016" lon="104.142685"><ele>234.8</ele><time>2011-04-26T09:36:40.0000000+00:00</time></trkpt><trkpt lat="22.05504" lon="104.142723"><ele>236.2</ele><time>2011-04-26T09:36:45.0000000+00:00</time></trkpt><trkpt lat="22.055058" lon="104.142715"><ele>236.5</ele><time>2011-04-26T09:36:50.0000000+00:00</time></trkpt><trkpt lat="22.055075" lon="104.142715"><ele>236.8</ele><time>2011-04-26T09:36:55.0000000+00:00</time></trkpt><trkpt lat="22.055094" lon="104.142708"><ele>237.0</ele><time>2011-04-26T09:37:00.0000000+00:00</time></trkpt><trkpt lat="22.055117" lon="104.1427"><ele>237.2</ele><time>2011-04-26T09:37:05.0000000+00:00</time></trkpt><trkpt lat="22.05514" lon="104.1427"><ele>237.4</ele><time>2011-04-26T09:37:10.0000000+00:00</time></trkpt><trkpt lat="22.055164" lon="104.1427"><ele>237.7</ele><time>2011-04-26T09:37:15.0000000+00:00</time></trkpt><trkpt lat="22.055197" lon="104.142738"><ele>237.0</ele><time>2011-04-26T09:37:20.0000000+00:00</time></trkpt><trkpt lat="22.055265" lon="104.142807"><ele>237.3</ele><time>2011-04-26T09:37:25.0000000+00:00</time></trkpt><trkpt lat="22.055323" lon="104.142899"><ele>235.9</ele><time>2011-04-26T09:37:30.0000000+00:00</time></trkpt><trkpt lat="22.055382" lon="104.142982"><ele>235.5</ele><time>2011-04-26T09:37:35.0000000+00:00</time></trkpt><trkpt lat="22.055426" lon="104.143051"><ele>236.1</ele><time>2011-04-26T09:37:40.0000000+00:00</time></trkpt><trkpt lat="22.055454" lon="104.143127"><ele>237.3</ele><time>2011-04-26T09:37:45.0000000+00:00</time></trkpt><trkpt lat="22.055492" lon="104.143196"><ele>238.5</ele><time>2011-04-26T09:37:50.0000000+00:00</time></trkpt><trkpt lat="22.05551" lon="104.143265"><ele>239.4</ele><time>2011-04-26T09:37:55.0000000+00:00</time></trkpt><trkpt lat="22.055536" lon="104.143349"><ele>240.4</ele><time>2011-04-26T09:38:00.0000000+00:00</time></trkpt><trkpt lat="22.055546" lon="104.14341"><ele>242.4</ele><time>2011-04-26T09:38:05.0000000+00:00</time></trkpt><trkpt lat="22.05555" lon="104.143471"><ele>242.2</ele><time>2011-04-26T09:38:10.0000000+00:00</time></trkpt><trkpt lat="22.055546" lon="104.143478"><ele>243.3</ele><time>2011-04-26T09:38:15.0000000+00:00</time></trkpt><trkpt lat="22.055544" lon="104.143478"><ele>243.7</ele><time>2011-04-26T09:38:20.0000000+00:00</time></trkpt><trkpt lat="22.055542" lon="104.143478"><ele>244.0</ele><time>2011-04-26T09:38:25.0000000+00:00</time></trkpt><trkpt lat="22.055532" lon="104.143539"><ele>244.2</ele><time>2011-04-26T09:38:30.0000000+00:00</time></trkpt><trkpt lat="22.055538" lon="104.143562"><ele>244.2</ele><time>2011-04-26T09:38:35.0000000+00:00</time></trkpt><trkpt lat="22.055546" lon="104.143555"><ele>244.1</ele><time>2011-04-26T09:38:40.0000000+00:00</time></trkpt><trkpt lat="22.055553" lon="104.143555"><ele>244.2</ele><time>2011-04-26T09:38:45.0000000+00:00</time></trkpt><trkpt lat="22.055552" lon="104.143555"><ele>244.2</ele><time>2011-04-26T09:38:50.0000000+00:00</time></trkpt><trkpt lat="22.055552" lon="104.143555"><ele>244.2</ele><time>2011-04-26T09:38:55.0000000+00:00</time></trkpt><trkpt lat="22.055553" lon="104.143555"><ele>244.2</ele><time>2011-04-26T09:39:00.0000000+00:00</time></trkpt><trkpt lat="22.055559" lon="104.143555"><ele>244.2</ele><time>2011-04-26T09:39:05.0000000+00:00</time></trkpt><trkpt lat="22.055563" lon="104.143562"><ele>244.1</ele><time>2011-04-26T09:39:10.0000000+00:00</time></trkpt><trkpt lat="22.055571" lon="104.143562"><ele>244.1</ele><time>2011-04-26T09:39:15.0000000+00:00</time></trkpt><trkpt lat="22.055578" lon="104.143562"><ele>244.1</ele><time>2011-04-26T09:39:20.0000000+00:00</time></trkpt><trkpt lat="22.055603" lon="104.143578"><ele>244.1</ele><time>2011-04-26T09:39:25.0000000+00:00</time></trkpt><trkpt lat="22.055626" lon="104.143578"><ele>244.1</ele><time>2011-04-26T09:39:30.0000000+00:00</time></trkpt><trkpt lat="22.055641" lon="104.143585"><ele>244.0</ele><time>2011-04-26T09:39:35.0000000+00:00</time></trkpt><trkpt lat="22.055653" lon="104.143585"><ele>244.1</ele><time>2011-04-26T09:39:40.0000000+00:00</time></trkpt><trkpt lat="22.055662" lon="104.143593"><ele>244.1</ele><time>2011-04-26T09:39:45.0000000+00:00</time></trkpt><trkpt lat="22.055668" lon="104.143593"><ele>244.2</ele><time>2011-04-26T09:39:50.0000000+00:00</time></trkpt><trkpt lat="22.055672" lon="104.1436"><ele>244.2</ele><time>2011-04-26T09:39:55.0000000+00:00</time></trkpt><trkpt lat="22.055676" lon="104.1436"><ele>244.3</ele><time>2011-04-26T09:40:00.0000000+00:00</time></trkpt><trkpt lat="22.055677" lon="104.1436"><ele>244.3</ele><time>2011-04-26T09:40:05.0000000+00:00</time></trkpt><trkpt lat="22.055677" lon="104.1436"><ele>244.3</ele><time>2011-04-26T09:40:10.0000000+00:00</time></trkpt><trkpt lat="22.055677" lon="104.1436"><ele>244.3</ele><time>2011-04-26T09:40:15.0000000+00:00</time></trkpt><trkpt lat="22.055677" lon="104.1436"><ele>244.3</ele><time>2011-04-26T09:40:20.0000000+00:00</time></trkpt><trkpt lat="22.055676" lon="104.1436"><ele>244.3</ele><time>2011-04-26T09:40:25.0000000+00:00</time></trkpt><trkpt lat="22.055676" lon="104.1436"><ele>244.3</ele><time>2011-04-26T09:40:30.0000000+00:00</time></trkpt><trkpt lat="22.055676" lon="104.1436"><ele>244.3</ele><time>2011-04-26T09:40:35.0000000+00:00</time></trkpt><trkpt lat="22.055674" lon="104.143593"><ele>244.3</ele><time>2011-04-26T09:40:40.0000000+00:00</time></trkpt><trkpt lat="22.055674" lon="104.143593"><ele>244.4</ele><time>2011-04-26T09:40:45.0000000+00:00</time></trkpt><trkpt lat="22.055674" lon="104.143593"><ele>244.4</ele><time>2011-04-26T09:40:50.0000000+00:00</time></trkpt><trkpt lat="22.055674" lon="104.143593"><ele>244.4</ele><time>2011-04-26T09:40:55.0000000+00:00</time></trkpt><trkpt lat="22.055674" lon="104.143593"><ele>244.4</ele><time>2011-04-26T09:41:00.0000000+00:00</time></trkpt><trkpt lat="22.055674" lon="104.143593"><ele>244.4</ele><time>2011-04-26T09:41:05.0000000+00:00</time></trkpt><trkpt lat="22.055674" lon="104.143593"><ele>244.4</ele><time>2011-04-26T09:41:10.0000000+00:00</time></trkpt><trkpt lat="22.055674" lon="104.143593"><ele>244.3</ele><time>2011-04-26T09:41:15.0000000+00:00</time></trkpt><trkpt lat="22.055674" lon="104.143593"><ele>244.3</ele><time>2011-04-26T09:41:20.0000000+00:00</time></trkpt><trkpt lat="22.055674" lon="104.143593"><ele>244.3</ele><time>2011-04-26T09:41:25.0000000+00:00</time></trkpt><trkpt lat="22.055674" lon="104.143593"><ele>244.3</ele><time>2011-04-26T09:41:30.0000000+00:00</time></trkpt><trkpt lat="22.055674" lon="104.143593"><ele>244.3</ele><time>2011-04-26T09:41:35.0000000+00:00</time></trkpt><trkpt lat="22.055672" lon="104.143593"><ele>244.3</ele><time>2011-04-26T09:41:40.0000000+00:00</time></trkpt><trkpt lat="22.055672" lon="104.143593"><ele>244.3</ele><time>2011-04-26T09:41:45.0000000+00:00</time></trkpt><trkpt lat="22.055672" lon="104.143593"><ele>244.3</ele><time>2011-04-26T09:41:50.0000000+00:00</time></trkpt><trkpt lat="22.055672" lon="104.143593"><ele>244.2</ele><time>2011-04-26T09:41:55.0000000+00:00</time></trkpt><trkpt lat="22.055672" lon="104.143593"><ele>244.2</ele><time>2011-04-26T09:42:00.0000000+00:00</time></trkpt><trkpt lat="22.055672" lon="104.143593"><ele>244.2</ele><time>2011-04-26T09:42:05.0000000+00:00</time></trkpt><trkpt lat="22.055672" lon="104.143593"><ele>244.2</ele><time>2011-04-26T09:42:10.0000000+00:00</time></trkpt><trkpt lat="22.055672" lon="104.143593"><ele>244.2</ele><time>2011-04-26T09:42:15.0000000+00:00</time></trkpt><trkpt lat="22.055672" lon="104.143593"><ele>244.2</ele><time>2011-04-26T09:42:20.0000000+00:00</time></trkpt><trkpt lat="22.055672" lon="104.143593"><ele>244.2</ele><time>2011-04-26T09:42:25.0000000+00:00</time></trkpt><trkpt lat="22.055672" lon="104.143593"><ele>244.2</ele><time>2011-04-26T09:42:30.0000000+00:00</time></trkpt><trkpt lat="22.055672" lon="104.143593"><ele>244.2</ele><time>2011-04-26T09:42:35.0000000+00:00</time></trkpt><trkpt lat="22.055672" lon="104.143593"><ele>244.2</ele><time>2011-04-26T09:42:40.0000000+00:00</time></trkpt><trkpt lat="22.055672" lon="104.143593"><ele>244.2</ele><time>2011-04-26T09:42:45.0000000+00:00</time></trkpt><trkpt lat="22.055672" lon="104.143593"><ele>244.2</ele><time>2011-04-26T09:42:50.0000000+00:00</time></trkpt><trkpt lat="22.055672" lon="104.143593"><ele>244.1</ele><time>2011-04-26T09:42:55.0000000+00:00</time></trkpt><trkpt lat="22.055672" lon="104.143593"><ele>244.1</ele><time>2011-04-26T09:43:00.0000000+00:00</time></trkpt><trkpt lat="22.055672" lon="104.143593"><ele>244.1</ele><time>2011-04-26T09:43:05.0000000+00:00</time></trkpt><trkpt lat="22.055672" lon="104.143593"><ele>244.1</ele><time>2011-04-26T09:43:10.0000000+00:00</time></trkpt><trkpt lat="22.055672" lon="104.143593"><ele>244.1</ele><time>2011-04-26T09:43:15.0000000+00:00</time></trkpt><trkpt lat="22.055672" lon="104.143593"><ele>244.1</ele><time>2011-04-26T09:43:20.0000000+00:00</time></trkpt><trkpt lat="22.055672" lon="104.143593"><ele>244.1</ele><time>2011-04-26T09:43:25.0000000+00:00</time></trkpt><trkpt lat="22.05567" lon="104.143593"><ele>244.1</ele><time>2011-04-26T09:43:30.0000000+00:00</time></trkpt><trkpt lat="22.05567" lon="104.143593"><ele>244.1</ele><time>2011-04-26T09:43:35.0000000+00:00</time></trkpt><trkpt lat="22.05567" lon="104.143593"><ele>244.1</ele><time>2011-04-26T09:43:40.0000000+00:00</time></trkpt><trkpt lat="22.05567" lon="104.143593"><ele>244.1</ele><time>2011-04-26T09:43:45.0000000+00:00</time></trkpt><trkpt lat="22.05567" lon="104.143593"><ele>244.1</ele><time>2011-04-26T09:43:50.0000000+00:00</time></trkpt><trkpt lat="22.05567" lon="104.143593"><ele>244.1</ele><time>2011-04-26T09:43:55.0000000+00:00</time></trkpt><trkpt lat="22.05567" lon="104.143593"><ele>244.1</ele><time>2011-04-26T09:44:00.0000000+00:00</time></trkpt><trkpt lat="22.05567" lon="104.143593"><ele>244.1</ele><time>2011-04-26T09:44:05.0000000+00:00</time></trkpt><trkpt lat="22.05567" lon="104.143593"><ele>244.1</ele><time>2011-04-26T09:44:10.0000000+00:00</time></trkpt><trkpt lat="22.05567" lon="104.143593"><ele>244.0</ele><time>2011-04-26T09:44:15.0000000+00:00</time></trkpt><trkpt lat="22.05567" lon="104.143593"><ele>244.0</ele><time>2011-04-26T09:44:20.0000000+00:00</time></trkpt><trkpt lat="22.05567" lon="104.143593"><ele>244.0</ele><time>2011-04-26T09:44:25.0000000+00:00</time></trkpt><trkpt lat="22.05567" lon="104.143593"><ele>244.0</ele><time>2011-04-26T09:44:30.0000000+00:00</time></trkpt><trkpt lat="22.05567" lon="104.143593"><ele>244.0</ele><time>2011-04-26T09:44:35.0000000+00:00</time></trkpt><trkpt lat="22.05567" lon="104.143593"><ele>244.1</ele><time>2011-04-26T09:44:40.0000000+00:00</time></trkpt><trkpt lat="22.05567" lon="104.143593"><ele>244.1</ele><time>2011-04-26T09:44:45.0000000+00:00</time></trkpt><trkpt lat="22.055668" lon="104.143593"><ele>244.1</ele><time>2011-04-26T09:44:50.0000000+00:00</time></trkpt><trkpt lat="22.055668" lon="104.143593"><ele>244.1</ele><time>2011-04-26T09:44:55.0000000+00:00</time></trkpt><trkpt lat="22.055668" lon="104.143593"><ele>244.1</ele><time>2011-04-26T09:45:00.0000000+00:00</time></trkpt><trkpt lat="22.055668" lon="104.143593"><ele>244.0</ele><time>2011-04-26T09:45:05.0000000+00:00</time></trkpt><trkpt lat="22.055668" lon="104.143593"><ele>244.0</ele><time>2011-04-26T09:45:10.0000000+00:00</time></trkpt><trkpt lat="22.055668" lon="104.143593"><ele>244.0</ele><time>2011-04-26T09:45:15.0000000+00:00</time></trkpt><trkpt lat="22.055668" lon="104.143593"><ele>244.0</ele><time>2011-04-26T09:45:20.0000000+00:00</time></trkpt><trkpt lat="22.055668" lon="104.143593"><ele>244.0</ele><time>2011-04-26T09:45:25.0000000+00:00</time></trkpt><trkpt lat="22.055668" lon="104.143593"><ele>244.0</ele><time>2011-04-26T09:45:30.0000000+00:00</time></trkpt><trkpt lat="22.055666" lon="104.143593"><ele>244.0</ele><time>2011-04-26T09:45:35.0000000+00:00</time></trkpt><trkpt lat="22.055666" lon="104.143593"><ele>244.0</ele><time>2011-04-26T09:45:40.0000000+00:00</time></trkpt><trkpt lat="22.055666" lon="104.143593"><ele>244.0</ele><time>2011-04-26T09:45:45.0000000+00:00</time></trkpt><trkpt lat="22.055666" lon="104.143593"><ele>243.9</ele><time>2011-04-26T09:45:50.0000000+00:00</time></trkpt><trkpt lat="22.055668" lon="104.143593"><ele>243.9</ele><time>2011-04-26T09:45:55.0000000+00:00</time></trkpt><trkpt lat="22.055666" lon="104.143593"><ele>243.9</ele><time>2011-04-26T09:46:00.0000000+00:00</time></trkpt><trkpt lat="22.055666" lon="104.143593"><ele>243.9</ele><time>2011-04-26T09:46:05.0000000+00:00</time></trkpt><trkpt lat="22.055666" lon="104.143593"><ele>243.9</ele><time>2011-04-26T09:46:10.0000000+00:00</time></trkpt><trkpt lat="22.055666" lon="104.143593"><ele>243.8</ele><time>2011-04-26T09:46:15.0000000+00:00</time></trkpt><trkpt lat="22.055666" lon="104.143593"><ele>243.8</ele><time>2011-04-26T09:46:20.0000000+00:00</time></trkpt><trkpt lat="22.055666" lon="104.143593"><ele>243.8</ele><time>2011-04-26T09:46:25.0000000+00:00</time></trkpt><trkpt lat="22.055666" lon="104.143593"><ele>243.8</ele><time>2011-04-26T09:46:30.0000000+00:00</time></trkpt><trkpt lat="22.055666" lon="104.143593"><ele>243.8</ele><time>2011-04-26T09:46:35.0000000+00:00</time></trkpt><trkpt lat="22.055666" lon="104.143593"><ele>243.8</ele><time>2011-04-26T09:46:40.0000000+00:00</time></trkpt><trkpt lat="22.055664" lon="104.143593"><ele>243.8</ele><time>2011-04-26T09:46:45.0000000+00:00</time></trkpt><trkpt lat="22.055664" lon="104.143593"><ele>243.8</ele><time>2011-04-26T09:46:50.0000000+00:00</time></trkpt><trkpt lat="22.055664" lon="104.143593"><ele>243.8</ele><time>2011-04-26T09:46:55.0000000+00:00</time></trkpt><trkpt lat="22.055664" lon="104.143593"><ele>243.8</ele><time>2011-04-26T09:47:00.0000000+00:00</time></trkpt><trkpt lat="22.055664" lon="104.143593"><ele>243.8</ele><time>2011-04-26T09:47:05.0000000+00:00</time></trkpt><trkpt lat="22.055664" lon="104.143585"><ele>243.8</ele><time>2011-04-26T09:47:10.0000000+00:00</time></trkpt><trkpt lat="22.055664" lon="104.143585"><ele>243.8</ele><time>2011-04-26T09:47:15.0000000+00:00</time></trkpt><trkpt lat="22.055664" lon="104.143585"><ele>243.8</ele><time>2011-04-26T09:47:20.0000000+00:00</time></trkpt><trkpt lat="22.055664" lon="104.143585"><ele>243.8</ele><time>2011-04-26T09:47:25.0000000+00:00</time></trkpt><trkpt lat="22.055664" lon="104.143585"><ele>243.8</ele><time>2011-04-26T09:47:30.0000000+00:00</time></trkpt><trkpt lat="22.055664" lon="104.143585"><ele>243.7</ele><time>2011-04-26T09:47:35.0000000+00:00</time></trkpt><trkpt lat="22.055664" lon="104.143585"><ele>243.8</ele><time>2011-04-26T09:47:40.0000000+00:00</time></trkpt><trkpt lat="22.055664" lon="104.143585"><ele>243.8</ele><time>2011-04-26T09:47:45.0000000+00:00</time></trkpt><trkpt lat="22.055664" lon="104.143585"><ele>243.8</ele><time>2011-04-26T09:47:50.0000000+00:00</time></trkpt><trkpt lat="22.055664" lon="104.143585"><ele>243.7</ele><time>2011-04-26T09:47:55.0000000+00:00</time></trkpt><trkpt lat="22.055664" lon="104.143585"><ele>243.7</ele><time>2011-04-26T09:48:00.0000000+00:00</time></trkpt><trkpt lat="22.055662" lon="104.143585"><ele>243.7</ele><time>2011-04-26T09:48:05.0000000+00:00</time></trkpt><trkpt lat="22.055662" lon="104.143585"><ele>243.7</ele><time>2011-04-26T09:48:10.0000000+00:00</time></trkpt><trkpt lat="22.055662" lon="104.143585"><ele>243.7</ele><time>2011-04-26T09:48:15.0000000+00:00</time></trkpt><trkpt lat="22.055662" lon="104.143585"><ele>243.7</ele><time>2011-04-26T09:48:20.0000000+00:00</time></trkpt><trkpt lat="22.055662" lon="104.143585"><ele>243.7</ele><time>2011-04-26T09:48:25.0000000+00:00</time></trkpt><trkpt lat="22.055662" lon="104.143585"><ele>243.8</ele><time>2011-04-26T09:48:30.0000000+00:00</time></trkpt><trkpt lat="22.055662" lon="104.143585"><ele>243.8</ele><time>2011-04-26T09:48:35.0000000+00:00</time></trkpt><trkpt lat="22.055662" lon="104.143585"><ele>243.8</ele><time>2011-04-26T09:48:40.0000000+00:00</time></trkpt><trkpt lat="22.05566" lon="104.143585"><ele>243.8</ele><time>2011-04-26T09:48:45.0000000+00:00</time></trkpt><trkpt lat="22.05566" lon="104.143585"><ele>243.8</ele><time>2011-04-26T09:48:50.0000000+00:00</time></trkpt><trkpt lat="22.05566" lon="104.143585"><ele>243.8</ele><time>2011-04-26T09:48:55.0000000+00:00</time></trkpt><trkpt lat="22.05566" lon="104.143585"><ele>243.7</ele><time>2011-04-26T09:49:00.0000000+00:00</time></trkpt><trkpt lat="22.05566" lon="104.143585"><ele>243.7</ele><time>2011-04-26T09:49:05.0000000+00:00</time></trkpt><trkpt lat="22.05566" lon="104.143585"><ele>243.7</ele><time>2011-04-26T09:49:10.0000000+00:00</time></trkpt><trkpt lat="22.05566" lon="104.143585"><ele>243.7</ele><time>2011-04-26T09:49:15.0000000+00:00</time></trkpt><trkpt lat="22.05566" lon="104.143585"><ele>243.7</ele><time>2011-04-26T09:49:20.0000000+00:00</time></trkpt><trkpt lat="22.05566" lon="104.143585"><ele>243.7</ele><time>2011-04-26T09:49:25.0000000+00:00</time></trkpt><trkpt lat="22.055658" lon="104.143585"><ele>243.7</ele><time>2011-04-26T09:49:30.0000000+00:00</time></trkpt><trkpt lat="22.055658" lon="104.143585"><ele>243.6</ele><time>2011-04-26T09:49:35.0000000+00:00</time></trkpt><trkpt lat="22.055658" lon="104.143585"><ele>243.6</ele><time>2011-04-26T09:49:40.0000000+00:00</time></trkpt><trkpt lat="22.055658" lon="104.143585"><ele>243.6</ele><time>2011-04-26T09:49:45.0000000+00:00</time></trkpt><trkpt lat="22.055658" lon="104.143585"><ele>243.6</ele><time>2011-04-26T09:49:50.0000000+00:00</time></trkpt><trkpt lat="22.055658" lon="104.143585"><ele>243.6</ele><time>2011-04-26T09:49:55.0000000+00:00</time></trkpt><trkpt lat="22.055658" lon="104.143585"><ele>243.6</ele><time>2011-04-26T09:50:00.0000000+00:00</time></trkpt><trkpt lat="22.055656" lon="104.143585"><ele>243.5</ele><time>2011-04-26T09:50:05.0000000+00:00</time></trkpt><trkpt lat="22.055656" lon="104.143585"><ele>243.5</ele><time>2011-04-26T09:50:10.0000000+00:00</time></trkpt><trkpt lat="22.055656" lon="104.143585"><ele>243.4</ele><time>2011-04-26T09:50:15.0000000+00:00</time></trkpt><trkpt lat="22.055656" lon="104.143585"><ele>243.4</ele><time>2011-04-26T09:50:20.0000000+00:00</time></trkpt><trkpt lat="22.055656" lon="104.143585"><ele>243.4</ele><time>2011-04-26T09:50:25.0000000+00:00</time></trkpt><trkpt lat="22.055656" lon="104.143585"><ele>243.4</ele><time>2011-04-26T09:50:30.0000000+00:00</time></trkpt><trkpt lat="22.055656" lon="104.143585"><ele>243.3</ele><time>2011-04-26T09:50:35.0000000+00:00</time></trkpt><trkpt lat="22.055656" lon="104.143585"><ele>243.3</ele><time>2011-04-26T09:50:40.0000000+00:00</time></trkpt><trkpt lat="22.055656" lon="104.143585"><ele>243.3</ele><time>2011-04-26T09:50:45.0000000+00:00</time></trkpt><trkpt lat="22.055656" lon="104.143585"><ele>243.2</ele><time>2011-04-26T09:50:50.0000000+00:00</time></trkpt><trkpt lat="22.055656" lon="104.143593"><ele>243.1</ele><time>2011-04-26T09:50:55.0000000+00:00</time></trkpt><trkpt lat="22.055656" lon="104.143593"><ele>243.0</ele><time>2011-04-26T09:51:00.0000000+00:00</time></trkpt><trkpt lat="22.055656" lon="104.143593"><ele>243.0</ele><time>2011-04-26T09:51:05.0000000+00:00</time></trkpt><trkpt lat="22.055656" lon="104.143593"><ele>243.0</ele><time>2011-04-26T09:51:10.0000000+00:00</time></trkpt><trkpt lat="22.055656" lon="104.143593"><ele>243.0</ele><time>2011-04-26T09:51:15.0000000+00:00</time></trkpt><trkpt lat="22.055655" lon="104.143593"><ele>243.0</ele><time>2011-04-26T09:51:20.0000000+00:00</time></trkpt><trkpt lat="22.055655" lon="104.143593"><ele>243.0</ele><time>2011-04-26T09:51:25.0000000+00:00</time></trkpt><trkpt lat="22.055655" lon="104.143593"><ele>243.0</ele><time>2011-04-26T09:51:30.0000000+00:00</time></trkpt><trkpt lat="22.055655" lon="104.143593"><ele>243.0</ele><time>2011-04-26T09:51:35.0000000+00:00</time></trkpt><trkpt lat="22.055655" lon="104.143593"><ele>243.0</ele><time>2011-04-26T09:51:40.0000000+00:00</time></trkpt><trkpt lat="22.055655" lon="104.143593"><ele>242.9</ele><time>2011-04-26T09:51:45.0000000+00:00</time></trkpt><trkpt lat="22.055655" lon="104.143593"><ele>242.9</ele><time>2011-04-26T09:51:50.0000000+00:00</time></trkpt><trkpt lat="22.055655" lon="104.143593"><ele>242.9</ele><time>2011-04-26T09:51:55.0000000+00:00</time></trkpt><trkpt lat="22.055653" lon="104.143593"><ele>242.8</ele><time>2011-04-26T09:52:00.0000000+00:00</time></trkpt><trkpt lat="22.055653" lon="104.143593"><ele>242.8</ele><time>2011-04-26T09:52:05.0000000+00:00</time></trkpt><trkpt lat="22.055653" lon="104.143593"><ele>242.8</ele><time>2011-04-26T09:52:10.0000000+00:00</time></trkpt><trkpt lat="22.055653" lon="104.143593"><ele>242.8</ele><time>2011-04-26T09:52:15.0000000+00:00</time></trkpt><trkpt lat="22.055653" lon="104.143593"><ele>242.8</ele><time>2011-04-26T09:52:20.0000000+00:00</time></trkpt><trkpt lat="22.055653" lon="104.143593"><ele>242.8</ele><time>2011-04-26T09:52:25.0000000+00:00</time></trkpt><trkpt lat="22.055653" lon="104.143593"><ele>242.8</ele><time>2011-04-26T09:52:30.0000000+00:00</time></trkpt><trkpt lat="22.055653" lon="104.143593"><ele>242.8</ele><time>2011-04-26T09:52:35.0000000+00:00</time></trkpt><trkpt lat="22.055653" lon="104.143593"><ele>242.8</ele><time>2011-04-26T09:52:40.0000000+00:00</time></trkpt><trkpt lat="22.055653" lon="104.143593"><ele>242.8</ele><time>2011-04-26T09:52:45.0000000+00:00</time></trkpt><trkpt lat="22.055653" lon="104.143593"><ele>242.8</ele><time>2011-04-26T09:52:50.0000000+00:00</time></trkpt><trkpt lat="22.055653" lon="104.143593"><ele>242.7</ele><time>2011-04-26T09:52:55.0000000+00:00</time></trkpt><trkpt lat="22.055653" lon="104.143593"><ele>242.7</ele><time>2011-04-26T09:53:00.0000000+00:00</time></trkpt><trkpt lat="22.055653" lon="104.143593"><ele>242.7</ele><time>2011-04-26T09:53:05.0000000+00:00</time></trkpt><trkpt lat="22.055653" lon="104.143593"><ele>242.7</ele><time>2011-04-26T09:53:10.0000000+00:00</time></trkpt><trkpt lat="22.055651" lon="104.143593"><ele>242.7</ele><time>2011-04-26T09:53:15.0000000+00:00</time></trkpt><trkpt lat="22.055651" lon="104.143593"><ele>242.7</ele><time>2011-04-26T09:53:20.0000000+00:00</time></trkpt><trkpt lat="22.055651" lon="104.143585"><ele>242.7</ele><time>2011-04-26T09:53:25.0000000+00:00</time></trkpt><trkpt lat="22.055651" lon="104.143585"><ele>242.8</ele><time>2011-04-26T09:53:30.0000000+00:00</time></trkpt><trkpt lat="22.055651" lon="104.143585"><ele>242.8</ele><time>2011-04-26T09:53:35.0000000+00:00</time></trkpt><trkpt lat="22.055651" lon="104.143585"><ele>242.7</ele><time>2011-04-26T09:53:40.0000000+00:00</time></trkpt><trkpt lat="22.055649" lon="104.143585"><ele>242.7</ele><time>2011-04-26T09:53:45.0000000+00:00</time></trkpt><trkpt lat="22.055649" lon="104.143585"><ele>242.7</ele><time>2011-04-26T09:53:50.0000000+00:00</time></trkpt><trkpt lat="22.055649" lon="104.143585"><ele>242.7</ele><time>2011-04-26T09:53:55.0000000+00:00</time></trkpt><trkpt lat="22.055649" lon="104.143585"><ele>242.7</ele><time>2011-04-26T09:54:00.0000000+00:00</time></trkpt><trkpt lat="22.055649" lon="104.143585"><ele>242.7</ele><time>2011-04-26T09:54:05.0000000+00:00</time></trkpt><trkpt lat="22.055649" lon="104.143585"><ele>242.8</ele><time>2011-04-26T09:54:10.0000000+00:00</time></trkpt><trkpt lat="22.055649" lon="104.143585"><ele>242.8</ele><time>2011-04-26T09:54:15.0000000+00:00</time></trkpt><trkpt lat="22.055647" lon="104.143585"><ele>242.8</ele><time>2011-04-26T09:54:20.0000000+00:00</time></trkpt><trkpt lat="22.055641" lon="104.143585"><ele>242.7</ele><time>2011-04-26T09:54:25.0000000+00:00</time></trkpt><trkpt lat="22.055635" lon="104.143585"><ele>242.6</ele><time>2011-04-26T09:54:30.0000000+00:00</time></trkpt><trkpt lat="22.055628" lon="104.143585"><ele>242.5</ele><time>2011-04-26T09:54:35.0000000+00:00</time></trkpt><trkpt lat="22.055622" lon="104.143585"><ele>242.3</ele><time>2011-04-26T09:54:40.0000000+00:00</time></trkpt><trkpt lat="22.055618" lon="104.143585"><ele>242.2</ele><time>2011-04-26T09:54:45.0000000+00:00</time></trkpt><trkpt lat="22.055618" lon="104.143585"><ele>242.0</ele><time>2011-04-26T09:54:50.0000000+00:00</time></trkpt><trkpt lat="22.055618" lon="104.143585"><ele>241.9</ele><time>2011-04-26T09:54:55.0000000+00:00</time></trkpt><trkpt lat="22.05562" lon="104.143585"><ele>241.7</ele><time>2011-04-26T09:55:00.0000000+00:00</time></trkpt><trkpt lat="22.055622" lon="104.143585"><ele>241.6</ele><time>2011-04-26T09:55:05.0000000+00:00</time></trkpt><trkpt lat="22.055624" lon="104.143585"><ele>241.4</ele><time>2011-04-26T09:55:10.0000000+00:00</time></trkpt><trkpt lat="22.055626" lon="104.143585"><ele>241.3</ele><time>2011-04-26T09:55:15.0000000+00:00</time></trkpt><trkpt lat="22.055626" lon="104.143585"><ele>241.1</ele><time>2011-04-26T09:55:20.0000000+00:00</time></trkpt><trkpt lat="22.055628" lon="104.143585"><ele>241.0</ele><time>2011-04-26T09:55:25.0000000+00:00</time></trkpt><trkpt lat="22.055626" lon="104.143585"><ele>241.1</ele><time>2011-04-26T09:55:30.0000000+00:00</time></trkpt><trkpt lat="22.055626" lon="104.143585"><ele>241.1</ele><time>2011-04-26T09:55:35.0000000+00:00</time></trkpt><trkpt lat="22.055626" lon="104.143585"><ele>241.1</ele><time>2011-04-26T09:55:40.0000000+00:00</time></trkpt><trkpt lat="22.055626" lon="104.143585"><ele>241.1</ele><time>2011-04-26T09:55:45.0000000+00:00</time></trkpt><trkpt lat="22.055626" lon="104.143585"><ele>241.0</ele><time>2011-04-26T09:55:50.0000000+00:00</time></trkpt><trkpt lat="22.055626" lon="104.143585"><ele>241.0</ele><time>2011-04-26T09:55:55.0000000+00:00</time></trkpt><trkpt lat="22.055626" lon="104.143585"><ele>241.0</ele><time>2011-04-26T09:56:00.0000000+00:00</time></trkpt><trkpt lat="22.055626" lon="104.143585"><ele>240.9</ele><time>2011-04-26T09:56:05.0000000+00:00</time></trkpt><trkpt lat="22.055626" lon="104.143585"><ele>240.9</ele><time>2011-04-26T09:56:10.0000000+00:00</time></trkpt><trkpt lat="22.055626" lon="104.143585"><ele>240.8</ele><time>2011-04-26T09:56:15.0000000+00:00</time></trkpt><trkpt lat="22.055626" lon="104.143585"><ele>240.8</ele><time>2011-04-26T09:56:20.0000000+00:00</time></trkpt><trkpt lat="22.055626" lon="104.143585"><ele>240.8</ele><time>2011-04-26T09:56:25.0000000+00:00</time></trkpt><trkpt lat="22.055626" lon="104.143585"><ele>240.7</ele><time>2011-04-26T09:56:30.0000000+00:00</time></trkpt><trkpt lat="22.055626" lon="104.143585"><ele>240.7</ele><time>2011-04-26T09:56:35.0000000+00:00</time></trkpt><trkpt lat="22.055622" lon="104.143585"><ele>240.3</ele><time>2011-04-26T09:56:40.0000000+00:00</time></trkpt><trkpt lat="22.055622" lon="104.143585"><ele>240.3</ele><time>2011-04-26T09:56:45.0000000+00:00</time></trkpt><trkpt lat="22.05562" lon="104.143578"><ele>240.0</ele><time>2011-04-26T09:56:50.0000000+00:00</time></trkpt><trkpt lat="22.055616" lon="104.143578"><ele>239.4</ele><time>2011-04-26T09:56:55.0000000+00:00</time></trkpt><trkpt lat="22.055613" lon="104.143578"><ele>239.0</ele><time>2011-04-26T09:57:00.0000000+00:00</time></trkpt><trkpt lat="22.055613" lon="104.143578"><ele>239.1</ele><time>2011-04-26T09:57:05.0000000+00:00</time></trkpt><trkpt lat="22.055611" lon="104.143578"><ele>239.1</ele><time>2011-04-26T09:57:10.0000000+00:00</time></trkpt><trkpt lat="22.055607" lon="104.143578"><ele>239.0</ele><time>2011-04-26T09:57:15.0000000+00:00</time></trkpt><trkpt lat="22.055603" lon="104.143578"><ele>238.9</ele><time>2011-04-26T09:57:20.0000000+00:00</time></trkpt><trkpt lat="22.055601" lon="104.143578"><ele>238.9</ele><time>2011-04-26T09:57:25.0000000+00:00</time></trkpt><trkpt lat="22.055599" lon="104.143578"><ele>238.9</ele><time>2011-04-26T09:57:30.0000000+00:00</time></trkpt><trkpt lat="22.055597" lon="104.143578"><ele>238.9</ele><time>2011-04-26T09:57:35.0000000+00:00</time></trkpt><trkpt lat="22.055597" lon="104.143578"><ele>238.9</ele><time>2011-04-26T09:57:40.0000000+00:00</time></trkpt><trkpt lat="22.055597" lon="104.143578"><ele>238.9</ele><time>2011-04-26T09:57:45.0000000+00:00</time></trkpt><trkpt lat="22.055597" lon="104.143578"><ele>238.9</ele><time>2011-04-26T09:57:50.0000000+00:00</time></trkpt><trkpt lat="22.055599" lon="104.143578"><ele>238.9</ele><time>2011-04-26T09:57:55.0000000+00:00</time></trkpt><trkpt lat="22.055597" lon="104.143578"><ele>238.9</ele><time>2011-04-26T09:58:00.0000000+00:00</time></trkpt><trkpt lat="22.055599" lon="104.143578"><ele>238.9</ele><time>2011-04-26T09:58:05.0000000+00:00</time></trkpt><trkpt lat="22.055599" lon="104.143585"><ele>238.9</ele><time>2011-04-26T09:58:10.0000000+00:00</time></trkpt><trkpt lat="22.055597" lon="104.143585"><ele>238.9</ele><time>2011-04-26T09:58:15.0000000+00:00</time></trkpt><trkpt lat="22.055595" lon="104.143593"><ele>238.9</ele><time>2011-04-26T09:58:20.0000000+00:00</time></trkpt><trkpt lat="22.055593" lon="104.143593"><ele>238.9</ele><time>2011-04-26T09:58:25.0000000+00:00</time></trkpt><trkpt lat="22.055592" lon="104.143593"><ele>238.9</ele><time>2011-04-26T09:58:30.0000000+00:00</time></trkpt><trkpt lat="22.05559" lon="104.1436"><ele>238.9</ele><time>2011-04-26T09:58:35.0000000+00:00</time></trkpt><trkpt lat="22.055588" lon="104.1436"><ele>238.8</ele><time>2011-04-26T09:58:40.0000000+00:00</time></trkpt><trkpt lat="22.055586" lon="104.1436"><ele>238.8</ele><time>2011-04-26T09:58:45.0000000+00:00</time></trkpt><trkpt lat="22.055586" lon="104.1436"><ele>238.8</ele><time>2011-04-26T09:58:50.0000000+00:00</time></trkpt><trkpt lat="22.055582" lon="104.1436"><ele>238.8</ele><time>2011-04-26T09:58:55.0000000+00:00</time></trkpt><trkpt lat="22.05558" lon="104.1436"><ele>238.8</ele><time>2011-04-26T09:59:00.0000000+00:00</time></trkpt><trkpt lat="22.055578" lon="104.1436"><ele>238.8</ele><time>2011-04-26T09:59:05.0000000+00:00</time></trkpt><trkpt lat="22.055578" lon="104.143593"><ele>238.8</ele><time>2011-04-26T09:59:10.0000000+00:00</time></trkpt><trkpt lat="22.055576" lon="104.1436"><ele>238.8</ele><time>2011-04-26T09:59:15.0000000+00:00</time></trkpt><trkpt lat="22.055576" lon="104.1436"><ele>238.8</ele><time>2011-04-26T09:59:20.0000000+00:00</time></trkpt><trkpt lat="22.055576" lon="104.1436"><ele>238.7</ele><time>2011-04-26T09:59:25.0000000+00:00</time></trkpt><trkpt lat="22.055576" lon="104.1436"><ele>238.7</ele><time>2011-04-26T09:59:30.0000000+00:00</time></trkpt><trkpt lat="22.055576" lon="104.143608"><ele>238.7</ele><time>2011-04-26T09:59:35.0000000+00:00</time></trkpt><trkpt lat="22.055578" lon="104.143608"><ele>238.7</ele><time>2011-04-26T09:59:40.0000000+00:00</time></trkpt><trkpt lat="22.055578" lon="104.143608"><ele>238.7</ele><time>2011-04-26T09:59:45.0000000+00:00</time></trkpt><trkpt lat="22.055578" lon="104.143608"><ele>238.7</ele><time>2011-04-26T09:59:50.0000000+00:00</time></trkpt><trkpt lat="22.055578" lon="104.143608"><ele>238.7</ele><time>2011-04-26T09:59:55.0000000+00:00</time></trkpt><trkpt lat="22.055578" lon="104.143608"><ele>238.7</ele><time>2011-04-26T10:00:00.0000000+00:00</time></trkpt><trkpt lat="22.055578" lon="104.143608"><ele>238.7</ele><time>2011-04-26T10:00:05.0000000+00:00</time></trkpt><trkpt lat="22.055578" lon="104.143608"><ele>238.7</ele><time>2011-04-26T10:00:10.0000000+00:00</time></trkpt><trkpt lat="22.055578" lon="104.143608"><ele>238.7</ele><time>2011-04-26T10:00:15.0000000+00:00</time></trkpt><trkpt lat="22.055578" lon="104.143608"><ele>238.7</ele><time>2011-04-26T10:00:20.0000000+00:00</time></trkpt><trkpt lat="22.055578" lon="104.143608"><ele>238.7</ele><time>2011-04-26T10:00:25.0000000+00:00</time></trkpt><trkpt lat="22.055578" lon="104.143608"><ele>238.7</ele><time>2011-04-26T10:00:30.0000000+00:00</time></trkpt><trkpt lat="22.055578" lon="104.143608"><ele>238.7</ele><time>2011-04-26T10:00:35.0000000+00:00</time></trkpt><trkpt lat="22.055578" lon="104.143608"><ele>238.7</ele><time>2011-04-26T10:00:40.0000000+00:00</time></trkpt><trkpt lat="22.055578" lon="104.143608"><ele>238.7</ele><time>2011-04-26T10:00:45.0000000+00:00</time></trkpt><trkpt lat="22.055578" lon="104.143608"><ele>238.8</ele><time>2011-04-26T10:00:50.0000000+00:00</time></trkpt><trkpt lat="22.055578" lon="104.143608"><ele>238.8</ele><time>2011-04-26T10:00:55.0000000+00:00</time></trkpt><trkpt lat="22.055578" lon="104.143608"><ele>238.8</ele><time>2011-04-26T10:01:00.0000000+00:00</time></trkpt><trkpt lat="22.055578" lon="104.143608"><ele>238.9</ele><time>2011-04-26T10:01:05.0000000+00:00</time></trkpt><trkpt lat="22.055578" lon="104.143608"><ele>238.9</ele><time>2011-04-26T10:01:10.0000000+00:00</time></trkpt><trkpt lat="22.055578" lon="104.143608"><ele>238.9</ele><time>2011-04-26T10:01:15.0000000+00:00</time></trkpt><trkpt lat="22.055578" lon="104.143608"><ele>238.9</ele><time>2011-04-26T10:01:20.0000000+00:00</time></trkpt><trkpt lat="22.055578" lon="104.1436"><ele>239.0</ele><time>2011-04-26T10:01:25.0000000+00:00</time></trkpt><trkpt lat="22.055576" lon="104.1436"><ele>239.2</ele><time>2011-04-26T10:01:30.0000000+00:00</time></trkpt><trkpt lat="22.055576" lon="104.143593"><ele>239.4</ele><time>2011-04-26T10:01:35.0000000+00:00</time></trkpt><trkpt lat="22.055574" lon="104.143593"><ele>239.7</ele><time>2011-04-26T10:01:40.0000000+00:00</time></trkpt><trkpt lat="22.055576" lon="104.143585"><ele>240.0</ele><time>2011-04-26T10:01:45.0000000+00:00</time></trkpt><trkpt lat="22.055576" lon="104.143585"><ele>240.4</ele><time>2011-04-26T10:01:50.0000000+00:00</time></trkpt><trkpt lat="22.055574" lon="104.143578"><ele>240.8</ele><time>2011-04-26T10:01:55.0000000+00:00</time></trkpt><trkpt lat="22.055574" lon="104.143585"><ele>241.2</ele><time>2011-04-26T10:02:00.0000000+00:00</time></trkpt><trkpt lat="22.055571" lon="104.143585"><ele>241.7</ele><time>2011-04-26T10:02:05.0000000+00:00</time></trkpt><trkpt lat="22.055569" lon="104.143578"><ele>242.3</ele><time>2011-04-26T10:02:10.0000000+00:00</time></trkpt><trkpt lat="22.055565" lon="104.143578"><ele>242.8</ele><time>2011-04-26T10:02:15.0000000+00:00</time></trkpt><trkpt lat="22.055561" lon="104.143578"><ele>243.3</ele><time>2011-04-26T10:02:20.0000000+00:00</time></trkpt><trkpt lat="22.055555" lon="104.143578"><ele>243.8</ele><time>2011-04-26T10:02:25.0000000+00:00</time></trkpt><trkpt lat="22.055552" lon="104.143578"><ele>244.2</ele><time>2011-04-26T10:02:30.0000000+00:00</time></trkpt><trkpt lat="22.05555" lon="104.143578"><ele>244.7</ele><time>2011-04-26T10:02:35.0000000+00:00</time></trkpt><trkpt lat="22.055548" lon="104.143578"><ele>245.0</ele><time>2011-04-26T10:02:40.0000000+00:00</time></trkpt><trkpt lat="22.055548" lon="104.14357"><ele>245.2</ele><time>2011-04-26T10:02:45.0000000+00:00</time></trkpt><trkpt lat="22.055548" lon="104.14357"><ele>245.2</ele><time>2011-04-26T10:02:50.0000000+00:00</time></trkpt><trkpt lat="22.055548" lon="104.14357"><ele>245.1</ele><time>2011-04-26T10:02:55.0000000+00:00</time></trkpt><trkpt lat="22.055553" lon="104.14357"><ele>244.9</ele><time>2011-04-26T10:03:00.0000000+00:00</time></trkpt><trkpt lat="22.055555" lon="104.14357"><ele>244.6</ele><time>2011-04-26T10:03:05.0000000+00:00</time></trkpt><trkpt lat="22.055557" lon="104.143578"><ele>244.4</ele><time>2011-04-26T10:03:10.0000000+00:00</time></trkpt><trkpt lat="22.055557" lon="104.143578"><ele>244.2</ele><time>2011-04-26T10:03:15.0000000+00:00</time></trkpt><trkpt lat="22.055557" lon="104.143578"><ele>244.2</ele><time>2011-04-26T10:03:20.0000000+00:00</time></trkpt><trkpt lat="22.055557" lon="104.14357"><ele>244.3</ele><time>2011-04-26T10:03:25.0000000+00:00</time></trkpt><trkpt lat="22.055563" lon="104.143578"><ele>244.3</ele><time>2011-04-26T10:03:30.0000000+00:00</time></trkpt><trkpt lat="22.055565" lon="104.143578"><ele>244.4</ele><time>2011-04-26T10:03:35.0000000+00:00</time></trkpt><trkpt lat="22.055567" lon="104.143578"><ele>244.4</ele><time>2011-04-26T10:03:40.0000000+00:00</time></trkpt><trkpt lat="22.055567" lon="104.143585"><ele>244.4</ele><time>2011-04-26T10:03:45.0000000+00:00</time></trkpt><trkpt lat="22.055567" lon="104.143585"><ele>244.4</ele><time>2011-04-26T10:03:50.0000000+00:00</time></trkpt><trkpt lat="22.055567" lon="104.143585"><ele>244.4</ele><time>2011-04-26T10:03:55.0000000+00:00</time></trkpt><trkpt lat="22.055567" lon="104.143585"><ele>244.5</ele><time>2011-04-26T10:04:00.0000000+00:00</time></trkpt><trkpt lat="22.055565" lon="104.143585"><ele>244.5</ele><time>2011-04-26T10:04:05.0000000+00:00</time></trkpt><trkpt lat="22.055567" lon="104.1436"><ele>243.7</ele><time>2011-04-26T10:04:10.0000000+00:00</time></trkpt><trkpt lat="22.055548" lon="104.143738"><ele>242.0</ele><time>2011-04-26T10:04:15.0000000+00:00</time></trkpt><trkpt lat="22.055511" lon="104.143898"><ele>242.3</ele><time>2011-04-26T10:04:20.0000000+00:00</time></trkpt><trkpt lat="22.055464" lon="104.144157"><ele>241.9</ele><time>2011-04-26T10:04:25.0000000+00:00</time></trkpt><trkpt lat="22.055387" lon="104.144447"><ele>240.5</ele><time>2011-04-26T10:04:30.0000000+00:00</time></trkpt><trkpt lat="22.0553" lon="104.144753"><ele>239.1</ele><time>2011-04-26T10:04:35.0000000+00:00</time></trkpt><trkpt lat="22.055237" lon="104.145042"><ele>238.6</ele><time>2011-04-26T10:04:40.0000000+00:00</time></trkpt><trkpt lat="22.055218" lon="104.14537"><ele>237.1</ele><time>2011-04-26T10:04:45.0000000+00:00</time></trkpt><trkpt lat="22.055281" lon="104.145714"><ele>234.3</ele><time>2011-04-26T10:04:50.0000000+00:00</time></trkpt><trkpt lat="22.055384" lon="104.146049"><ele>232.2</ele><time>2011-04-26T10:04:55.0000000+00:00</time></trkpt><trkpt lat="22.055487" lon="104.146416"><ele>228.2</ele><time>2011-04-26T10:05:00.0000000+00:00</time></trkpt><trkpt lat="22.055567" lon="104.146698"><ele>225.9</ele><time>2011-04-26T10:05:05.0000000+00:00</time></trkpt><trkpt lat="22.055628" lon="104.146889"><ele>224.1</ele><time>2011-04-26T10:05:10.0000000+00:00</time></trkpt><trkpt lat="22.055626" lon="104.146935"><ele>223.4</ele><time>2011-04-26T10:05:15.0000000+00:00</time></trkpt><trkpt lat="22.055628" lon="104.146942"><ele>223.2</ele><time>2011-04-26T10:05:20.0000000+00:00</time></trkpt><trkpt lat="22.05563" lon="104.146942"><ele>223.0</ele><time>2011-04-26T10:05:25.0000000+00:00</time></trkpt><trkpt lat="22.05563" lon="104.146942"><ele>222.9</ele><time>2011-04-26T10:05:30.0000000+00:00</time></trkpt><trkpt lat="22.055637" lon="104.146957"><ele>223.0</ele><time>2011-04-26T10:05:35.0000000+00:00</time></trkpt><trkpt lat="22.055689" lon="104.147049"><ele>222.7</ele><time>2011-04-26T10:05:40.0000000+00:00</time></trkpt><trkpt lat="22.055775" lon="104.147202"><ele>222.6</ele><time>2011-04-26T10:05:45.0000000+00:00</time></trkpt><trkpt lat="22.055904" lon="104.147362"><ele>222.5</ele><time>2011-04-26T10:05:50.0000000+00:00</time></trkpt><trkpt lat="22.056137" lon="104.147522"><ele>220.7</ele><time>2011-04-26T10:05:55.0000000+00:00</time></trkpt><trkpt lat="22.056416" lon="104.14772"><ele>219.8</ele><time>2011-04-26T10:06:00.0000000+00:00</time></trkpt><trkpt lat="22.056644" lon="104.147987"><ele>218.9</ele><time>2011-04-26T10:06:05.0000000+00:00</time></trkpt><trkpt lat="22.056883" lon="104.148247"><ele>218.4</ele><time>2011-04-26T10:06:10.0000000+00:00</time></trkpt><trkpt lat="22.057135" lon="104.14846"><ele>217.8</ele><time>2011-04-26T10:06:15.0000000+00:00</time></trkpt><trkpt lat="22.057379" lon="104.148598"><ele>217.3</ele><time>2011-04-26T10:06:20.0000000+00:00</time></trkpt><trkpt lat="22.057596" lon="104.148705"><ele>216.8</ele><time>2011-04-26T10:06:25.0000000+00:00</time></trkpt><trkpt lat="22.057823" lon="104.148811"><ele>217.2</ele><time>2011-04-26T10:06:30.0000000+00:00</time></trkpt><trkpt lat="22.058058" lon="104.148933"><ele>218.3</ele><time>2011-04-26T10:06:35.0000000+00:00</time></trkpt><trkpt lat="22.058277" lon="104.149055"><ele>218.4</ele><time>2011-04-26T10:06:40.0000000+00:00</time></trkpt><trkpt lat="22.058487" lon="104.149139"><ele>217.5</ele><time>2011-04-26T10:06:45.0000000+00:00</time></trkpt><trkpt lat="22.058723" lon="104.149216"><ele>217.3</ele><time>2011-04-26T10:06:50.0000000+00:00</time></trkpt><trkpt lat="22.058964" lon="104.149292"><ele>215.8</ele><time>2011-04-26T10:06:55.0000000+00:00</time></trkpt><trkpt lat="22.059149" lon="104.149422"><ele>215.7</ele><time>2011-04-26T10:07:00.0000000+00:00</time></trkpt><trkpt lat="22.059296" lon="104.149605"><ele>214.9</ele><time>2011-04-26T10:07:05.0000000+00:00</time></trkpt><trkpt lat="22.059355" lon="104.149857"><ele>215.2</ele><time>2011-04-26T10:07:10.0000000+00:00</time></trkpt><trkpt lat="22.059372" lon="104.150139"><ele>214.5</ele><time>2011-04-26T10:07:15.0000000+00:00</time></trkpt><trkpt lat="22.059366" lon="104.150398"><ele>217.2</ele><time>2011-04-26T10:07:20.0000000+00:00</time></trkpt><trkpt lat="22.059351" lon="104.150612"><ele>216.5</ele><time>2011-04-26T10:07:25.0000000+00:00</time></trkpt><trkpt lat="22.05934" lon="104.150826"><ele>216.0</ele><time>2011-04-26T10:07:30.0000000+00:00</time></trkpt><trkpt lat="22.059275" lon="104.151047"><ele>215.6</ele><time>2011-04-26T10:07:35.0000000+00:00</time></trkpt><trkpt lat="22.059145" lon="104.151245"><ele>214.8</ele><time>2011-04-26T10:07:40.0000000+00:00</time></trkpt><trkpt lat="22.058973" lon="104.151466"><ele>213.8</ele><time>2011-04-26T10:07:45.0000000+00:00</time></trkpt><trkpt lat="22.058796" lon="104.151642"><ele>213.7</ele><time>2011-04-26T10:07:50.0000000+00:00</time></trkpt><trkpt lat="22.058661" lon="104.151787"><ele>214.0</ele><time>2011-04-26T10:07:55.0000000+00:00</time></trkpt><trkpt lat="22.058502" lon="104.151947"><ele>214.1</ele><time>2011-04-26T10:08:00.0000000+00:00</time></trkpt><trkpt lat="22.058304" lon="104.152176"><ele>214.8</ele><time>2011-04-26T10:08:05.0000000+00:00</time></trkpt><trkpt lat="22.058182" lon="104.152428"><ele>214.5</ele><time>2011-04-26T10:08:10.0000000+00:00</time></trkpt><trkpt lat="22.058123" lon="104.152649"><ele>215.1</ele><time>2011-04-26T10:08:15.0000000+00:00</time></trkpt><trkpt lat="22.058075" lon="104.15287"><ele>216.3</ele><time>2011-04-26T10:08:20.0000000+00:00</time></trkpt><trkpt lat="22.058031" lon="104.153145"><ele>218.3</ele><time>2011-04-26T10:08:25.0000000+00:00</time></trkpt><trkpt lat="22.058092" lon="104.153404"><ele>219.5</ele><time>2011-04-26T10:08:30.0000000+00:00</time></trkpt><trkpt lat="22.058168" lon="104.15361"><ele>219.0</ele><time>2011-04-26T10:08:35.0000000+00:00</time></trkpt><trkpt lat="22.058279" lon="104.153755"><ele>220.2</ele><time>2011-04-26T10:08:40.0000000+00:00</time></trkpt><trkpt lat="22.058413" lon="104.1539"><ele>220.8</ele><time>2011-04-26T10:08:45.0000000+00:00</time></trkpt><trkpt lat="22.058546" lon="104.154045"><ele>221.0</ele><time>2011-04-26T10:08:50.0000000+00:00</time></trkpt><trkpt lat="22.058689" lon="104.154182"><ele>221.2</ele><time>2011-04-26T10:08:55.0000000+00:00</time></trkpt><trkpt lat="22.058826" lon="104.154312"><ele>221.6</ele><time>2011-04-26T10:09:00.0000000+00:00</time></trkpt><trkpt lat="22.058971" lon="104.154449"><ele>221.8</ele><time>2011-04-26T10:09:05.0000000+00:00</time></trkpt><trkpt lat="22.059118" lon="104.154587"><ele>221.9</ele><time>2011-04-26T10:09:10.0000000+00:00</time></trkpt><trkpt lat="22.059273" lon="104.154747"><ele>220.9</ele><time>2011-04-26T10:09:15.0000000+00:00</time></trkpt><trkpt lat="22.059416" lon="104.154884"><ele>219.9</ele><time>2011-04-26T10:09:20.0000000+00:00</time></trkpt><trkpt lat="22.059542" lon="104.154991"><ele>219.0</ele><time>2011-04-26T10:09:25.0000000+00:00</time></trkpt><trkpt lat="22.059656" lon="104.155098"><ele>218.5</ele><time>2011-04-26T10:09:30.0000000+00:00</time></trkpt><trkpt lat="22.059776" lon="104.155212"><ele>218.4</ele><time>2011-04-26T10:09:35.0000000+00:00</time></trkpt><trkpt lat="22.05987" lon="104.155342"><ele>218.6</ele><time>2011-04-26T10:09:40.0000000+00:00</time></trkpt><trkpt lat="22.059937" lon="104.155449"><ele>218.5</ele><time>2011-04-26T10:09:45.0000000+00:00</time></trkpt><trkpt lat="22.060003" lon="104.155556"><ele>218.8</ele><time>2011-04-26T10:09:50.0000000+00:00</time></trkpt><trkpt lat="22.060074" lon="104.155663"><ele>218.9</ele><time>2011-04-26T10:09:55.0000000+00:00</time></trkpt><trkpt lat="22.060143" lon="104.155762"><ele>219.0</ele><time>2011-04-26T10:10:00.0000000+00:00</time></trkpt><trkpt lat="22.060205" lon="104.155846"><ele>218.9</ele><time>2011-04-26T10:10:05.0000000+00:00</time></trkpt><trkpt lat="22.060297" lon="104.155922"><ele>218.9</ele><time>2011-04-26T10:10:10.0000000+00:00</time></trkpt><trkpt lat="22.060364" lon="104.156029"><ele>219.5</ele><time>2011-04-26T10:10:15.0000000+00:00</time></trkpt><trkpt lat="22.060522" lon="104.15612"><ele>219.0</ele><time>2011-04-26T10:10:20.0000000+00:00</time></trkpt><trkpt lat="22.060667" lon="104.156189"><ele>218.0</ele><time>2011-04-26T10:10:25.0000000+00:00</time></trkpt><trkpt lat="22.060791" lon="104.156258"><ele>217.9</ele><time>2011-04-26T10:10:30.0000000+00:00</time></trkpt><trkpt lat="22.060953" lon="104.156334"><ele>217.7</ele><time>2011-04-26T10:10:35.0000000+00:00</time></trkpt><trkpt lat="22.061123" lon="104.156342"><ele>217.0</ele><time>2011-04-26T10:10:40.0000000+00:00</time></trkpt><trkpt lat="22.061344" lon="104.156311"><ele>216.1</ele><time>2011-04-26T10:10:45.0000000+00:00</time></trkpt><trkpt lat="22.061647" lon="104.156242"><ele>215.3</ele><time>2011-04-26T10:10:50.0000000+00:00</time></trkpt><trkpt lat="22.061989" lon="104.156197"><ele>214.0</ele><time>2011-04-26T10:10:55.0000000+00:00</time></trkpt><trkpt lat="22.062313" lon="104.156197"><ele>213.6</ele><time>2011-04-26T10:11:00.0000000+00:00</time></trkpt><trkpt lat="22.06262" lon="104.156296"><ele>211.7</ele><time>2011-04-26T10:11:05.0000000+00:00</time></trkpt><trkpt lat="22.062902" lon="104.15638"><ele>213.7</ele><time>2011-04-26T10:11:10.0000000+00:00</time></trkpt><trkpt lat="22.063137" lon="104.156456"><ele>216.9</ele><time>2011-04-26T10:11:15.0000000+00:00</time></trkpt><trkpt lat="22.063307" lon="104.156525"><ele>217.9</ele><time>2011-04-26T10:11:20.0000000+00:00</time></trkpt><trkpt lat="22.063461" lon="104.156555"><ele>219.6</ele><time>2011-04-26T10:11:25.0000000+00:00</time></trkpt><trkpt lat="22.063591" lon="104.156563"><ele>222.3</ele><time>2011-04-26T10:11:30.0000000+00:00</time></trkpt><trkpt lat="22.063711" lon="104.156563"><ele>223.2</ele><time>2011-04-26T10:11:35.0000000+00:00</time></trkpt><trkpt lat="22.063807" lon="104.15654"><ele>222.0</ele><time>2011-04-26T10:11:40.0000000+00:00</time></trkpt><trkpt lat="22.063967" lon="104.156563"><ele>223.2</ele><time>2011-04-26T10:11:45.0000000+00:00</time></trkpt><trkpt lat="22.064068" lon="104.156578"><ele>221.1</ele><time>2011-04-26T10:11:50.0000000+00:00</time></trkpt><trkpt lat="22.064123" lon="104.156578"><ele>221.6</ele><time>2011-04-26T10:11:55.0000000+00:00</time></trkpt><trkpt lat="22.064154" lon="104.156578"><ele>224.8</ele><time>2011-04-26T10:12:00.0000000+00:00</time></trkpt><trkpt lat="22.064156" lon="104.156578"><ele>225.0</ele><time>2011-04-26T10:12:05.0000000+00:00</time></trkpt><trkpt lat="22.064156" lon="104.156586"><ele>225.1</ele><time>2011-04-26T10:12:10.0000000+00:00</time></trkpt><trkpt lat="22.064135" lon="104.156601"><ele>225.3</ele><time>2011-04-26T10:12:15.0000000+00:00</time></trkpt><trkpt lat="22.064177" lon="104.156609"><ele>225.3</ele><time>2011-04-26T10:12:20.0000000+00:00</time></trkpt><trkpt lat="22.064407" lon="104.156708"><ele>225.5</ele><time>2011-04-26T10:12:25.0000000+00:00</time></trkpt><trkpt lat="22.064642" lon="104.156937"><ele>225.2</ele><time>2011-04-26T10:12:30.0000000+00:00</time></trkpt><trkpt lat="22.064829" lon="104.157135"><ele>225.8</ele><time>2011-04-26T10:12:35.0000000+00:00</time></trkpt><trkpt lat="22.064976" lon="104.15731"><ele>227.0</ele><time>2011-04-26T10:12:40.0000000+00:00</time></trkpt><trkpt lat="22.065138" lon="104.157463"><ele>227.2</ele><time>2011-04-26T10:12:45.0000000+00:00</time></trkpt><trkpt lat="22.065298" lon="104.157616"><ele>227.6</ele><time>2011-04-26T10:12:50.0000000+00:00</time></trkpt><trkpt lat="22.065529" lon="104.157883"><ele>226.8</ele><time>2011-04-26T10:12:55.0000000+00:00</time></trkpt><trkpt lat="22.065783" lon="104.158096"><ele>226.8</ele><time>2011-04-26T10:13:00.0000000+00:00</time></trkpt><trkpt lat="22.066025" lon="104.158257"><ele>226.7</ele><time>2011-04-26T10:13:05.0000000+00:00</time></trkpt><trkpt lat="22.066254" lon="104.158371"><ele>226.6</ele><time>2011-04-26T10:13:10.0000000+00:00</time></trkpt><trkpt lat="22.06646" lon="104.158524"><ele>227.4</ele><time>2011-04-26T10:13:15.0000000+00:00</time></trkpt><trkpt lat="22.066618" lon="104.158638"><ele>228.1</ele><time>2011-04-26T10:13:20.0000000+00:00</time></trkpt><trkpt lat="22.066748" lon="104.15873"><ele>228.2</ele><time>2011-04-26T10:13:25.0000000+00:00</time></trkpt><trkpt lat="22.066927" lon="104.158867"><ele>227.1</ele><time>2011-04-26T10:13:30.0000000+00:00</time></trkpt><trkpt lat="22.067085" lon="104.158936"><ele>227.4</ele><time>2011-04-26T10:13:35.0000000+00:00</time></trkpt><trkpt lat="22.067278" lon="104.159035"><ele>229.0</ele><time>2011-04-26T10:13:40.0000000+00:00</time></trkpt><trkpt lat="22.067539" lon="104.159218"><ele>225.9</ele><time>2011-04-26T10:13:45.0000000+00:00</time></trkpt><trkpt lat="22.06789" lon="104.159523"><ele>221.4</ele><time>2011-04-26T10:13:50.0000000+00:00</time></trkpt><trkpt lat="22.068207" lon="104.159805"><ele>219.7</ele><time>2011-04-26T10:13:55.0000000+00:00</time></trkpt><trkpt lat="22.068497" lon="104.160103"><ele>217.0</ele><time>2011-04-26T10:14:00.0000000+00:00</time></trkpt><trkpt lat="22.068758" lon="104.160378"><ele>215.2</ele><time>2011-04-26T10:14:05.0000000+00:00</time></trkpt><trkpt lat="22.068996" lon="104.16053"><ele>213.7</ele><time>2011-04-26T10:14:10.0000000+00:00</time></trkpt><trkpt lat="22.069239" lon="104.160683"><ele>212.1</ele><time>2011-04-26T10:14:15.0000000+00:00</time></trkpt><trkpt lat="22.069469" lon="104.160759"><ele>212.0</ele><time>2011-04-26T10:14:20.0000000+00:00</time></trkpt><trkpt lat="22.069668" lon="104.160835"><ele>213.5</ele><time>2011-04-26T10:14:25.0000000+00:00</time></trkpt><trkpt lat="22.069843" lon="104.160896"><ele>215.3</ele><time>2011-04-26T10:14:30.0000000+00:00</time></trkpt><trkpt lat="22.069967" lon="104.160934"><ele>216.5</ele><time>2011-04-26T10:14:35.0000000+00:00</time></trkpt><trkpt lat="22.070053" lon="104.160973"><ele>216.9</ele><time>2011-04-26T10:14:40.0000000+00:00</time></trkpt><trkpt lat="22.070158" lon="104.16098"><ele>217.1</ele><time>2011-04-26T10:14:45.0000000+00:00</time></trkpt><trkpt lat="22.070322" lon="104.160988"><ele>219.2</ele><time>2011-04-26T10:14:50.0000000+00:00</time></trkpt><trkpt lat="22.070459" lon="104.161003"><ele>219.9</ele><time>2011-04-26T10:14:55.0000000+00:00</time></trkpt><trkpt lat="22.070627" lon="104.161018"><ele>219.4</ele><time>2011-04-26T10:15:00.0000000+00:00</time></trkpt><trkpt lat="22.070814" lon="104.161034"><ele>216.6</ele><time>2011-04-26T10:15:05.0000000+00:00</time></trkpt><trkpt lat="22.070965" lon="104.161018"><ele>215.2</ele><time>2011-04-26T10:15:10.0000000+00:00</time></trkpt><trkpt lat="22.071157" lon="104.161003"><ele>209.5</ele><time>2011-04-26T10:15:15.0000000+00:00</time></trkpt><trkpt lat="22.07135" lon="104.160995"><ele>205.7</ele><time>2011-04-26T10:15:20.0000000+00:00</time></trkpt><trkpt lat="22.07156" lon="104.161003"><ele>202.7</ele><time>2011-04-26T10:15:25.0000000+00:00</time></trkpt><trkpt lat="22.071835" lon="104.160957"><ele>208.0</ele><time>2011-04-26T10:15:30.0000000+00:00</time></trkpt><trkpt lat="22.072124" lon="104.160942"><ele>214.2</ele><time>2011-04-26T10:15:35.0000000+00:00</time></trkpt><trkpt lat="22.072386" lon="104.160957"><ele>213.5</ele><time>2011-04-26T10:15:40.0000000+00:00</time></trkpt><trkpt lat="22.072636" lon="104.160995"><ele>211.1</ele><time>2011-04-26T10:15:45.0000000+00:00</time></trkpt><trkpt lat="22.072908" lon="104.161011"><ele>210.5</ele><time>2011-04-26T10:15:50.0000000+00:00</time></trkpt><trkpt lat="22.073141" lon="104.161011"><ele>217.0</ele><time>2011-04-26T10:15:55.0000000+00:00</time></trkpt><trkpt lat="22.073357" lon="104.161034"><ele>213.5</ele><time>2011-04-26T10:16:00.0000000+00:00</time></trkpt><trkpt lat="22.073582" lon="104.161041"><ele>211.2</ele><time>2011-04-26T10:16:05.0000000+00:00</time></trkpt><trkpt lat="22.073776" lon="104.161041"><ele>207.2</ele><time>2011-04-26T10:16:10.0000000+00:00</time></trkpt><trkpt lat="22.073957" lon="104.161018"><ele>205.7</ele><time>2011-04-26T10:16:15.0000000+00:00</time></trkpt><trkpt lat="22.074137" lon="104.161095"><ele>203.0</ele><time>2011-04-26T10:16:20.0000000+00:00</time></trkpt><trkpt lat="22.074312" lon="104.161255"><ele>201.1</ele><time>2011-04-26T10:16:25.0000000+00:00</time></trkpt><trkpt lat="22.074467" lon="104.161438"><ele>199.8</ele><time>2011-04-26T10:16:30.0000000+00:00</time></trkpt><trkpt lat="22.074612" lon="104.161667"><ele>199.2</ele><time>2011-04-26T10:16:35.0000000+00:00</time></trkpt><trkpt lat="22.074795" lon="104.161964"><ele>196.1</ele><time>2011-04-26T10:16:40.0000000+00:00</time></trkpt><trkpt lat="22.074976" lon="104.162193"><ele>192.5</ele><time>2011-04-26T10:16:45.0000000+00:00</time></trkpt><trkpt lat="22.075119" lon="104.162437"><ele>192.5</ele><time>2011-04-26T10:16:50.0000000+00:00</time></trkpt><trkpt lat="22.075249" lon="104.162651"><ele>193.2</ele><time>2011-04-26T10:16:55.0000000+00:00</time></trkpt><trkpt lat="22.075357" lon="104.162827"><ele>192.9</ele><time>2011-04-26T10:17:00.0000000+00:00</time></trkpt><trkpt lat="22.075464" lon="104.163002"><ele>193.4</ele><time>2011-04-26T10:17:05.0000000+00:00</time></trkpt><trkpt lat="22.075605" lon="104.163193"><ele>192.3</ele><time>2011-04-26T10:17:10.0000000+00:00</time></trkpt><trkpt lat="22.075724" lon="104.163368"><ele>191.9</ele><time>2011-04-26T10:17:15.0000000+00:00</time></trkpt><trkpt lat="22.075832" lon="104.163582"><ele>191.8</ele><time>2011-04-26T10:17:20.0000000+00:00</time></trkpt><trkpt lat="22.075907" lon="104.163788"><ele>191.7</ele><time>2011-04-26T10:17:25.0000000+00:00</time></trkpt><trkpt lat="22.075968" lon="104.163979"><ele>192.3</ele><time>2011-04-26T10:17:30.0000000+00:00</time></trkpt><trkpt lat="22.07608" lon="104.164192"><ele>193.5</ele><time>2011-04-26T10:17:35.0000000+00:00</time></trkpt><trkpt lat="22.076181" lon="104.164505"><ele>196.2</ele><time>2011-04-26T10:17:40.0000000+00:00</time></trkpt><trkpt lat="22.076265" lon="104.164772"><ele>197.2</ele><time>2011-04-26T10:17:45.0000000+00:00</time></trkpt><trkpt lat="22.076326" lon="104.165031"><ele>198.4</ele><time>2011-04-26T10:17:50.0000000+00:00</time></trkpt><trkpt lat="22.076357" lon="104.165321"><ele>199.2</ele><time>2011-04-26T10:17:55.0000000+00:00</time></trkpt><trkpt lat="22.076384" lon="104.165627"><ele>200.1</ele><time>2011-04-26T10:18:00.0000000+00:00</time></trkpt><trkpt lat="22.076454" lon="104.165932"><ele>200.5</ele><time>2011-04-26T10:18:05.0000000+00:00</time></trkpt><trkpt lat="22.076555" lon="104.166229"><ele>200.9</ele><time>2011-04-26T10:18:10.0000000+00:00</time></trkpt><trkpt lat="22.076687" lon="104.166534"><ele>200.5</ele><time>2011-04-26T10:18:15.0000000+00:00</time></trkpt><trkpt lat="22.076824" lon="104.166824"><ele>200.3</ele><time>2011-04-26T10:18:20.0000000+00:00</time></trkpt><trkpt lat="22.076942" lon="104.167091"><ele>199.7</ele><time>2011-04-26T10:18:25.0000000+00:00</time></trkpt><trkpt lat="22.077065" lon="104.167351"><ele>199.2</ele><time>2011-04-26T10:18:30.0000000+00:00</time></trkpt><trkpt lat="22.077164" lon="104.16758"><ele>200.7</ele><time>2011-04-26T10:18:35.0000000+00:00</time></trkpt><trkpt lat="22.077234" lon="104.16777"><ele>202.6</ele><time>2011-04-26T10:18:40.0000000+00:00</time></trkpt><trkpt lat="22.077309" lon="104.167938"><ele>203.5</ele><time>2011-04-26T10:18:45.0000000+00:00</time></trkpt><trkpt lat="22.077414" lon="104.168152"><ele>203.9</ele><time>2011-04-26T10:18:50.0000000+00:00</time></trkpt><trkpt lat="22.077524" lon="104.168335"><ele>204.6</ele><time>2011-04-26T10:18:55.0000000+00:00</time></trkpt><trkpt lat="22.077637" lon="104.168526"><ele>204.0</ele><time>2011-04-26T10:19:00.0000000+00:00</time></trkpt><trkpt lat="22.077776" lon="104.168762"><ele>203.7</ele><time>2011-04-26T10:19:05.0000000+00:00</time></trkpt><trkpt lat="22.077953" lon="104.16906"><ele>203.5</ele><time>2011-04-26T10:19:10.0000000+00:00</time></trkpt><trkpt lat="22.078112" lon="104.169434"><ele>206.4</ele><time>2011-04-26T10:19:15.0000000+00:00</time></trkpt><trkpt lat="22.07826" lon="104.169754"><ele>208.9</ele><time>2011-04-26T10:19:20.0000000+00:00</time></trkpt><trkpt lat="22.078362" lon="104.169998"><ele>211.4</ele><time>2011-04-26T10:19:25.0000000+00:00</time></trkpt><trkpt lat="22.078442" lon="104.170235"><ele>214.3</ele><time>2011-04-26T10:19:30.0000000+00:00</time></trkpt><trkpt lat="22.078541" lon="104.170456"><ele>212.9</ele><time>2011-04-26T10:19:35.0000000+00:00</time></trkpt><trkpt lat="22.078636" lon="104.170723"><ele>211.7</ele><time>2011-04-26T10:19:40.0000000+00:00</time></trkpt><trkpt lat="22.07873" lon="104.170975"><ele>211.2</ele><time>2011-04-26T10:19:45.0000000+00:00</time></trkpt><trkpt lat="22.078817" lon="104.171204"><ele>210.9</ele><time>2011-04-26T10:19:50.0000000+00:00</time></trkpt><trkpt lat="22.078918" lon="104.171463"><ele>211.3</ele><time>2011-04-26T10:19:55.0000000+00:00</time></trkpt><trkpt lat="22.078997" lon="104.171707"><ele>212.0</ele><time>2011-04-26T10:20:00.0000000+00:00</time></trkpt><trkpt lat="22.079063" lon="104.171967"><ele>210.9</ele><time>2011-04-26T10:20:05.0000000+00:00</time></trkpt><trkpt lat="22.07917" lon="104.172241"><ele>210.8</ele><time>2011-04-26T10:20:10.0000000+00:00</time></trkpt><trkpt lat="22.079298" lon="104.172447"><ele>211.5</ele><time>2011-04-26T10:20:15.0000000+00:00</time></trkpt><trkpt lat="22.079449" lon="104.172607"><ele>212.4</ele><time>2011-04-26T10:20:20.0000000+00:00</time></trkpt><trkpt lat="22.079601" lon="104.172806"><ele>212.5</ele><time>2011-04-26T10:20:25.0000000+00:00</time></trkpt><trkpt lat="22.079735" lon="104.173172"><ele>209.9</ele><time>2011-04-26T10:20:30.0000000+00:00</time></trkpt><trkpt lat="22.079844" lon="104.173531"><ele>208.1</ele><time>2011-04-26T10:20:35.0000000+00:00</time></trkpt><trkpt lat="22.079996" lon="104.173874"><ele>209.7</ele><time>2011-04-26T10:20:40.0000000+00:00</time></trkpt><trkpt lat="22.080143" lon="104.174026"><ele>211.4</ele><time>2011-04-26T10:20:45.0000000+00:00</time></trkpt><trkpt lat="22.080231" lon="104.174133"><ele>212.9</ele><time>2011-04-26T10:20:50.0000000+00:00</time></trkpt><trkpt lat="22.080336" lon="104.174255"><ele>214.6</ele><time>2011-04-26T10:20:55.0000000+00:00</time></trkpt><trkpt lat="22.080397" lon="104.174355"><ele>215.7</ele><time>2011-04-26T10:21:00.0000000+00:00</time></trkpt><trkpt lat="22.080446" lon="104.174461"><ele>215.8</ele><time>2011-04-26T10:21:05.0000000+00:00</time></trkpt><trkpt lat="22.080538" lon="104.174568"><ele>216.7</ele><time>2011-04-26T10:21:10.0000000+00:00</time></trkpt><trkpt lat="22.080585" lon="104.174667"><ele>218.6</ele><time>2011-04-26T10:21:15.0000000+00:00</time></trkpt><trkpt lat="22.080622" lon="104.174767"><ele>219.8</ele><time>2011-04-26T10:21:20.0000000+00:00</time></trkpt><trkpt lat="22.080658" lon="104.174866"><ele>221.3</ele><time>2011-04-26T10:21:25.0000000+00:00</time></trkpt><trkpt lat="22.08075" lon="104.17495"><ele>223.1</ele><time>2011-04-26T10:21:30.0000000+00:00</time></trkpt><trkpt lat="22.08086" lon="104.175049"><ele>225.7</ele><time>2011-04-26T10:21:35.0000000+00:00</time></trkpt><trkpt lat="22.080925" lon="104.175148"><ele>228.0</ele><time>2011-04-26T10:21:40.0000000+00:00</time></trkpt><trkpt lat="22.080975" lon="104.175247"><ele>230.4</ele><time>2011-04-26T10:21:45.0000000+00:00</time></trkpt><trkpt lat="22.081034" lon="104.175354"><ele>232.9</ele><time>2011-04-26T10:21:50.0000000+00:00</time></trkpt><trkpt lat="22.081108" lon="104.175468"><ele>235.0</ele><time>2011-04-26T10:21:55.0000000+00:00</time></trkpt><trkpt lat="22.08119" lon="104.175674"><ele>232.5</ele><time>2011-04-26T10:22:00.0000000+00:00</time></trkpt><trkpt lat="22.081253" lon="104.175941"><ele>231.3</ele><time>2011-04-26T10:22:05.0000000+00:00</time></trkpt><trkpt lat="22.081289" lon="104.176285"><ele>226.8</ele><time>2011-04-26T10:22:10.0000000+00:00</time></trkpt><trkpt lat="22.081333" lon="104.17672"><ele>225.9</ele><time>2011-04-26T10:22:15.0000000+00:00</time></trkpt><trkpt lat="22.08147" lon="104.177177"><ele>221.1</ele><time>2011-04-26T10:22:20.0000000+00:00</time></trkpt><trkpt lat="22.081619" lon="104.17765"><ele>217.0</ele><time>2011-04-26T10:22:25.0000000+00:00</time></trkpt><trkpt lat="22.081694" lon="104.178223"><ele>213.4</ele><time>2011-04-26T10:22:30.0000000+00:00</time></trkpt><trkpt lat="22.081858" lon="104.178719"><ele>213.1</ele><time>2011-04-26T10:22:35.0000000+00:00</time></trkpt><trkpt lat="22.082052" lon="104.178909"><ele>212.6</ele><time>2011-04-26T10:22:40.0000000+00:00</time></trkpt><trkpt lat="22.082264" lon="104.179054"><ele>212.6</ele><time>2011-04-26T10:22:45.0000000+00:00</time></trkpt><trkpt lat="22.082449" lon="104.179253"><ele>212.0</ele><time>2011-04-26T10:22:50.0000000+00:00</time></trkpt><trkpt lat="22.08259" lon="104.17952"><ele>211.3</ele><time>2011-04-26T10:22:55.0000000+00:00</time></trkpt><trkpt lat="22.082766" lon="104.179794"><ele>211.3</ele><time>2011-04-26T10:23:00.0000000+00:00</time></trkpt><trkpt lat="22.082903" lon="104.179977"><ele>210.8</ele><time>2011-04-26T10:23:05.0000000+00:00</time></trkpt><trkpt lat="22.082989" lon="104.180122"><ele>210.1</ele><time>2011-04-26T10:23:10.0000000+00:00</time></trkpt><trkpt lat="22.08304" lon="104.180328"><ele>207.5</ele><time>2011-04-26T10:23:15.0000000+00:00</time></trkpt><trkpt lat="22.083134" lon="104.180504"><ele>206.1</ele><time>2011-04-26T10:23:20.0000000+00:00</time></trkpt><trkpt lat="22.08321" lon="104.180649"><ele>207.0</ele><time>2011-04-26T10:23:25.0000000+00:00</time></trkpt><trkpt lat="22.083269" lon="104.180801"><ele>206.6</ele><time>2011-04-26T10:23:30.0000000+00:00</time></trkpt><trkpt lat="22.083345" lon="104.180962"><ele>207.8</ele><time>2011-04-26T10:23:35.0000000+00:00</time></trkpt><trkpt lat="22.083405" lon="104.181114"><ele>207.7</ele><time>2011-04-26T10:23:40.0000000+00:00</time></trkpt><trkpt lat="22.083488" lon="104.18129"><ele>209.8</ele><time>2011-04-26T10:23:45.0000000+00:00</time></trkpt><trkpt lat="22.083559" lon="104.181412"><ele>210.1</ele><time>2011-04-26T10:23:50.0000000+00:00</time></trkpt><trkpt lat="22.083628" lon="104.181564"><ele>211.1</ele><time>2011-04-26T10:23:55.0000000+00:00</time></trkpt><trkpt lat="22.083708" lon="104.18177"><ele>210.0</ele><time>2011-04-26T10:24:00.0000000+00:00</time></trkpt><trkpt lat="22.083841" lon="104.181984"><ele>209.6</ele><time>2011-04-26T10:24:05.0000000+00:00</time></trkpt><trkpt lat="22.083954" lon="104.18219"><ele>209.0</ele><time>2011-04-26T10:24:10.0000000+00:00</time></trkpt><trkpt lat="22.084023" lon="104.182487"><ele>206.4</ele><time>2011-04-26T10:24:15.0000000+00:00</time></trkpt><trkpt lat="22.083998" lon="104.182838"><ele>207.3</ele><time>2011-04-26T10:24:20.0000000+00:00</time></trkpt><trkpt lat="22.083763" lon="104.183151"><ele>205.2</ele><time>2011-04-26T10:24:25.0000000+00:00</time></trkpt><trkpt lat="22.08354" lon="104.183571"><ele>204.2</ele><time>2011-04-26T10:24:30.0000000+00:00</time></trkpt><trkpt lat="22.083504" lon="104.184212"><ele>207.2</ele><time>2011-04-26T10:24:35.0000000+00:00</time></trkpt><trkpt lat="22.083536" lon="104.184593"><ele>209.8</ele><time>2011-04-26T10:24:40.0000000+00:00</time></trkpt><trkpt lat="22.083603" lon="104.184868"><ele>213.2</ele><time>2011-04-26T10:24:45.0000000+00:00</time></trkpt><trkpt lat="22.083673" lon="104.185165"><ele>212.5</ele><time>2011-04-26T10:24:50.0000000+00:00</time></trkpt><trkpt lat="22.08374" lon="104.185455"><ele>212.8</ele><time>2011-04-26T10:24:55.0000000+00:00</time></trkpt><trkpt lat="22.083803" lon="104.185768"><ele>212.8</ele><time>2011-04-26T10:25:00.0000000+00:00</time></trkpt><trkpt lat="22.083874" lon="104.186089"><ele>211.8</ele><time>2011-04-26T10:25:05.0000000+00:00</time></trkpt><trkpt lat="22.083937" lon="104.186409"><ele>212.0</ele><time>2011-04-26T10:25:10.0000000+00:00</time></trkpt><trkpt lat="22.084013" lon="104.186661"><ele>213.5</ele><time>2011-04-26T10:25:15.0000000+00:00</time></trkpt><trkpt lat="22.084078" lon="104.186981"><ele>214.6</ele><time>2011-04-26T10:25:20.0000000+00:00</time></trkpt><trkpt lat="22.084162" lon="104.187248"><ele>215.8</ele><time>2011-04-26T10:25:25.0000000+00:00</time></trkpt><trkpt lat="22.084232" lon="104.187492"><ele>216.9</ele><time>2011-04-26T10:25:30.0000000+00:00</time></trkpt><trkpt lat="22.084339" lon="104.187729"><ele>218.0</ele><time>2011-04-26T10:25:35.0000000+00:00</time></trkpt><trkpt lat="22.084492" lon="104.187981"><ele>218.3</ele><time>2011-04-26T10:25:40.0000000+00:00</time></trkpt><trkpt lat="22.084614" lon="104.188232"><ele>219.7</ele><time>2011-04-26T10:25:45.0000000+00:00</time></trkpt><trkpt lat="22.084732" lon="104.188499"><ele>220.9</ele><time>2011-04-26T10:25:50.0000000+00:00</time></trkpt><trkpt lat="22.084852" lon="104.188789"><ele>220.0</ele><time>2011-04-26T10:25:55.0000000+00:00</time></trkpt><trkpt lat="22.084993" lon="104.189018"><ele>220.1</ele><time>2011-04-26T10:26:00.0000000+00:00</time></trkpt><trkpt lat="22.085127" lon="104.189201"><ele>221.1</ele><time>2011-04-26T10:26:05.0000000+00:00</time></trkpt><trkpt lat="22.085283" lon="104.189491"><ele>218.6</ele><time>2011-04-26T10:26:10.0000000+00:00</time></trkpt><trkpt lat="22.085403" lon="104.189751"><ele>217.9</ele><time>2011-04-26T10:26:15.0000000+00:00</time></trkpt><trkpt lat="22.085512" lon="104.190018"><ele>217.3</ele><time>2011-04-26T10:26:20.0000000+00:00</time></trkpt><trkpt lat="22.085625" lon="104.190285"><ele>216.9</ele><time>2011-04-26T10:26:25.0000000+00:00</time></trkpt><trkpt lat="22.085712" lon="104.190582"><ele>216.4</ele><time>2011-04-26T10:26:30.0000000+00:00</time></trkpt><trkpt lat="22.08577" lon="104.190842"><ele>215.4</ele><time>2011-04-26T10:26:35.0000000+00:00</time></trkpt><trkpt lat="22.085844" lon="104.191139"><ele>215.0</ele><time>2011-04-26T10:26:40.0000000+00:00</time></trkpt><trkpt lat="22.085962" lon="104.191483"><ele>214.4</ele><time>2011-04-26T10:26:45.0000000+00:00</time></trkpt><trkpt lat="22.086084" lon="104.191757"><ele>213.9</ele><time>2011-04-26T10:26:50.0000000+00:00</time></trkpt><trkpt lat="22.086187" lon="104.192055"><ele>213.5</ele><time>2011-04-26T10:26:55.0000000+00:00</time></trkpt><trkpt lat="22.086304" lon="104.192352"><ele>213.1</ele><time>2011-04-26T10:27:00.0000000+00:00</time></trkpt><trkpt lat="22.086416" lon="104.192642"><ele>212.8</ele><time>2011-04-26T10:27:05.0000000+00:00</time></trkpt><trkpt lat="22.086588" lon="104.192863"><ele>212.7</ele><time>2011-04-26T10:27:10.0000000+00:00</time></trkpt><trkpt lat="22.086817" lon="104.193077"><ele>212.9</ele><time>2011-04-26T10:27:15.0000000+00:00</time></trkpt><trkpt lat="22.087097" lon="104.193268"><ele>215.1</ele><time>2011-04-26T10:27:20.0000000+00:00</time></trkpt><trkpt lat="22.087404" lon="104.193428"><ele>218.3</ele><time>2011-04-26T10:27:25.0000000+00:00</time></trkpt><trkpt lat="22.087641" lon="104.193695"><ele>220.2</ele><time>2011-04-26T10:27:30.0000000+00:00</time></trkpt><trkpt lat="22.08782" lon="104.194016"><ele>221.3</ele><time>2011-04-26T10:27:35.0000000+00:00</time></trkpt><trkpt lat="22.088078" lon="104.194283"><ele>221.3</ele><time>2011-04-26T10:27:40.0000000+00:00</time></trkpt><trkpt lat="22.088318" lon="104.194473"><ele>222.1</ele><time>2011-04-26T10:27:45.0000000+00:00</time></trkpt><trkpt lat="22.088514" lon="104.194595"><ele>222.6</ele><time>2011-04-26T10:27:50.0000000+00:00</time></trkpt><trkpt lat="22.088741" lon="104.194763"><ele>223.2</ele><time>2011-04-26T10:27:55.0000000+00:00</time></trkpt><trkpt lat="22.088961" lon="104.194946"><ele>223.9</ele><time>2011-04-26T10:28:00.0000000+00:00</time></trkpt><trkpt lat="22.089211" lon="104.195099"><ele>224.1</ele><time>2011-04-26T10:28:05.0000000+00:00</time></trkpt><trkpt lat="22.089485" lon="104.195229"><ele>223.5</ele><time>2011-04-26T10:28:10.0000000+00:00</time></trkpt><trkpt lat="22.089727" lon="104.195335"><ele>223.2</ele><time>2011-04-26T10:28:15.0000000+00:00</time></trkpt><trkpt lat="22.089966" lon="104.195412"><ele>222.9</ele><time>2011-04-26T10:28:20.0000000+00:00</time></trkpt><trkpt lat="22.090218" lon="104.195541"><ele>221.9</ele><time>2011-04-26T10:28:25.0000000+00:00</time></trkpt><trkpt lat="22.090429" lon="104.195633"><ele>221.7</ele><time>2011-04-26T10:28:30.0000000+00:00</time></trkpt><trkpt lat="22.09062" lon="104.195717"><ele>220.3</ele><time>2011-04-26T10:28:35.0000000+00:00</time></trkpt><trkpt lat="22.090784" lon="104.195854"><ele>218.9</ele><time>2011-04-26T10:28:40.0000000+00:00</time></trkpt><trkpt lat="22.090963" lon="104.19603"><ele>217.9</ele><time>2011-04-26T10:28:45.0000000+00:00</time></trkpt><trkpt lat="22.091091" lon="104.196266"><ele>216.4</ele><time>2011-04-26T10:28:50.0000000+00:00</time></trkpt><trkpt lat="22.091211" lon="104.196487"><ele>215.2</ele><time>2011-04-26T10:28:55.0000000+00:00</time></trkpt><trkpt lat="22.091341" lon="104.196785"><ele>212.9</ele><time>2011-04-26T10:29:00.0000000+00:00</time></trkpt><trkpt lat="22.091467" lon="104.196983"><ele>212.4</ele><time>2011-04-26T10:29:05.0000000+00:00</time></trkpt><trkpt lat="22.091576" lon="104.19722"><ele>209.1</ele><time>2011-04-26T10:29:10.0000000+00:00</time></trkpt><trkpt lat="22.091654" lon="104.197464"><ele>208.4</ele><time>2011-04-26T10:29:15.0000000+00:00</time></trkpt><trkpt lat="22.091675" lon="104.197693"><ele>207.7</ele><time>2011-04-26T10:29:20.0000000+00:00</time></trkpt><trkpt lat="22.091675" lon="104.197853"><ele>208.2</ele><time>2011-04-26T10:29:25.0000000+00:00</time></trkpt><trkpt lat="22.091616" lon="104.198074"><ele>209.2</ele><time>2011-04-26T10:29:30.0000000+00:00</time></trkpt><trkpt lat="22.091516" lon="104.198273"><ele>210.0</ele><time>2011-04-26T10:29:35.0000000+00:00</time></trkpt><trkpt lat="22.091398" lon="104.198456"><ele>211.3</ele><time>2011-04-26T10:29:40.0000000+00:00</time></trkpt><trkpt lat="22.091269" lon="104.198677"><ele>211.6</ele><time>2011-04-26T10:29:45.0000000+00:00</time></trkpt><trkpt lat="22.09115" lon="104.198891"><ele>211.6</ele><time>2011-04-26T10:29:50.0000000+00:00</time></trkpt><trkpt lat="22.091028" lon="104.199135"><ele>212.1</ele><time>2011-04-26T10:29:55.0000000+00:00</time></trkpt><trkpt lat="22.090908" lon="104.199333"><ele>213.7</ele><time>2011-04-26T10:30:00.0000000+00:00</time></trkpt><trkpt lat="22.090809" lon="104.199577"><ele>215.1</ele><time>2011-04-26T10:30:05.0000000+00:00</time></trkpt><trkpt lat="22.09074" lon="104.199837"><ele>216.5</ele><time>2011-04-26T10:30:10.0000000+00:00</time></trkpt><trkpt lat="22.090708" lon="104.200073"><ele>217.1</ele><time>2011-04-26T10:30:15.0000000+00:00</time></trkpt><trkpt lat="22.090708" lon="104.200226"><ele>218.8</ele><time>2011-04-26T10:30:20.0000000+00:00</time></trkpt><trkpt lat="22.090687" lon="104.200462"><ele>218.0</ele><time>2011-04-26T10:30:25.0000000+00:00</time></trkpt><trkpt lat="22.090645" lon="104.20076"><ele>218.5</ele><time>2011-04-26T10:30:30.0000000+00:00</time></trkpt><trkpt lat="22.090588" lon="104.201118"><ele>219.7</ele><time>2011-04-26T10:30:35.0000000+00:00</time></trkpt><trkpt lat="22.090521" lon="104.201454"><ele>220.0</ele><time>2011-04-26T10:30:40.0000000+00:00</time></trkpt><trkpt lat="22.090477" lon="104.201767"><ele>220.2</ele><time>2011-04-26T10:30:45.0000000+00:00</time></trkpt><trkpt lat="22.090443" lon="104.202072"><ele>220.3</ele><time>2011-04-26T10:30:50.0000000+00:00</time></trkpt><trkpt lat="22.090412" lon="104.202408"><ele>219.7</ele><time>2011-04-26T10:30:55.0000000+00:00</time></trkpt><trkpt lat="22.090395" lon="104.202751"><ele>219.4</ele><time>2011-04-26T10:31:00.0000000+00:00</time></trkpt><trkpt lat="22.090378" lon="104.203056"><ele>220.1</ele><time>2011-04-26T10:31:05.0000000+00:00</time></trkpt><trkpt lat="22.090366" lon="104.203285"><ele>220.5</ele><time>2011-04-26T10:31:10.0000000+00:00</time></trkpt><trkpt lat="22.090343" lon="104.203377"><ele>220.8</ele><time>2011-04-26T10:31:15.0000000+00:00</time></trkpt><trkpt lat="22.090336" lon="104.203392"><ele>220.6</ele><time>2011-04-26T10:31:20.0000000+00:00</time></trkpt><trkpt lat="22.09033" lon="104.203415"><ele>220.7</ele><time>2011-04-26T10:31:25.0000000+00:00</time></trkpt><trkpt lat="22.090322" lon="104.203491"><ele>220.5</ele><time>2011-04-26T10:31:30.0000000+00:00</time></trkpt><trkpt lat="22.090267" lon="104.20369"><ele>220.5</ele><time>2011-04-26T10:31:35.0000000+00:00</time></trkpt><trkpt lat="22.090233" lon="104.20385"><ele>219.7</ele><time>2011-04-26T10:31:40.0000000+00:00</time></trkpt><trkpt lat="22.090172" lon="104.204018"><ele>219.1</ele><time>2011-04-26T10:31:45.0000000+00:00</time></trkpt><trkpt lat="22.090124" lon="104.204216"><ele>218.9</ele><time>2011-04-26T10:31:50.0000000+00:00</time></trkpt><trkpt lat="22.090075" lon="104.204407"><ele>218.9</ele><time>2011-04-26T10:31:55.0000000+00:00</time></trkpt><trkpt lat="22.090044" lon="104.204613"><ele>219.0</ele><time>2011-04-26T10:32:00.0000000+00:00</time></trkpt><trkpt lat="22.089973" lon="104.20488"><ele>219.7</ele><time>2011-04-26T10:32:05.0000000+00:00</time></trkpt><trkpt lat="22.089918" lon="104.205101"><ele>219.6</ele><time>2011-04-26T10:32:10.0000000+00:00</time></trkpt><trkpt lat="22.089819" lon="104.205368"><ele>219.5</ele><time>2011-04-26T10:32:15.0000000+00:00</time></trkpt><trkpt lat="22.089739" lon="104.205605"><ele>218.5</ele><time>2011-04-26T10:32:20.0000000+00:00</time></trkpt><trkpt lat="22.08964" lon="104.205917"><ele>217.5</ele><time>2011-04-26T10:32:25.0000000+00:00</time></trkpt><trkpt lat="22.089527" lon="104.206192"><ele>217.6</ele><time>2011-04-26T10:32:30.0000000+00:00</time></trkpt><trkpt lat="22.089418" lon="104.206474"><ele>216.5</ele><time>2011-04-26T10:32:35.0000000+00:00</time></trkpt><trkpt lat="22.089306" lon="104.206764"><ele>216.2</ele><time>2011-04-26T10:32:40.0000000+00:00</time></trkpt><trkpt lat="22.089186" lon="104.207047"><ele>214.9</ele><time>2011-04-26T10:32:45.0000000+00:00</time></trkpt><trkpt lat="22.089069" lon="104.207283"><ele>214.7</ele><time>2011-04-26T10:32:50.0000000+00:00</time></trkpt><trkpt lat="22.088972" lon="104.207489"><ele>214.4</ele><time>2011-04-26T10:32:55.0000000+00:00</time></trkpt><trkpt lat="22.088875" lon="104.207664"><ele>217.6</ele><time>2011-04-26T10:33:00.0000000+00:00</time></trkpt><trkpt lat="22.088793" lon="104.20784"><ele>220.3</ele><time>2011-04-26T10:33:05.0000000+00:00</time></trkpt><trkpt lat="22.088722" lon="104.207977"><ele>221.9</ele><time>2011-04-26T10:33:10.0000000+00:00</time></trkpt><trkpt lat="22.088669" lon="104.208122"><ele>222.3</ele><time>2011-04-26T10:33:15.0000000+00:00</time></trkpt><trkpt lat="22.088604" lon="104.208252"><ele>223.9</ele><time>2011-04-26T10:33:20.0000000+00:00</time></trkpt><trkpt lat="22.088535" lon="104.208374"><ele>223.8</ele><time>2011-04-26T10:33:25.0000000+00:00</time></trkpt><trkpt lat="22.088459" lon="104.208473"><ele>225.9</ele><time>2011-04-26T10:33:30.0000000+00:00</time></trkpt><trkpt lat="22.088385" lon="104.208572"><ele>226.8</ele><time>2011-04-26T10:33:35.0000000+00:00</time></trkpt><trkpt lat="22.08832" lon="104.208656"><ele>226.7</ele><time>2011-04-26T10:33:40.0000000+00:00</time></trkpt><trkpt lat="22.088243" lon="104.208717"><ele>227.6</ele><time>2011-04-26T10:33:45.0000000+00:00</time></trkpt><trkpt lat="22.088161" lon="104.208778"><ele>226.8</ele><time>2011-04-26T10:33:50.0000000+00:00</time></trkpt><trkpt lat="22.088085" lon="104.20887"><ele>227.3</ele><time>2011-04-26T10:33:55.0000000+00:00</time></trkpt><trkpt lat="22.088005" lon="104.208969"><ele>227.1</ele><time>2011-04-26T10:34:00.0000000+00:00</time></trkpt><trkpt lat="22.087927" lon="104.209038"><ele>227.8</ele><time>2011-04-26T10:34:05.0000000+00:00</time></trkpt><trkpt lat="22.087833" lon="104.209122"><ele>228.2</ele><time>2011-04-26T10:34:10.0000000+00:00</time></trkpt><trkpt lat="22.087746" lon="104.209198"><ele>229.3</ele><time>2011-04-26T10:34:15.0000000+00:00</time></trkpt><trkpt lat="22.087664" lon="104.209274"><ele>229.6</ele><time>2011-04-26T10:34:20.0000000+00:00</time></trkpt><trkpt lat="22.087555" lon="104.209389"><ele>228.6</ele><time>2011-04-26T10:34:25.0000000+00:00</time></trkpt><trkpt lat="22.087473" lon="104.209488"><ele>228.0</ele><time>2011-04-26T10:34:30.0000000+00:00</time></trkpt><trkpt lat="22.087376" lon="104.209595"><ele>228.0</ele><time>2011-04-26T10:34:35.0000000+00:00</time></trkpt><trkpt lat="22.087317" lon="104.209686"><ele>228.8</ele><time>2011-04-26T10:34:40.0000000+00:00</time></trkpt><trkpt lat="22.087246" lon="104.20977"><ele>228.4</ele><time>2011-04-26T10:34:45.0000000+00:00</time></trkpt><trkpt lat="22.087189" lon="104.209846"><ele>228.9</ele><time>2011-04-26T10:34:50.0000000+00:00</time></trkpt><trkpt lat="22.087111" lon="104.209923"><ele>229.2</ele><time>2011-04-26T10:34:55.0000000+00:00</time></trkpt><trkpt lat="22.087048" lon="104.210014"><ele>228.3</ele><time>2011-04-26T10:35:00.0000000+00:00</time></trkpt><trkpt lat="22.086981" lon="104.210091"><ele>228.2</ele><time>2011-04-26T10:35:05.0000000+00:00</time></trkpt><trkpt lat="22.086903" lon="104.210144"><ele>229.4</ele><time>2011-04-26T10:35:10.0000000+00:00</time></trkpt><trkpt lat="22.08683" lon="104.210236"><ele>229.9</ele><time>2011-04-26T10:35:15.0000000+00:00</time></trkpt><trkpt lat="22.086775" lon="104.21032"><ele>230.0</ele><time>2011-04-26T10:35:20.0000000+00:00</time></trkpt><trkpt lat="22.086714" lon="104.210396"><ele>230.0</ele><time>2011-04-26T10:35:25.0000000+00:00</time></trkpt><trkpt lat="22.086658" lon="104.210457"><ele>230.0</ele><time>2011-04-26T10:35:30.0000000+00:00</time></trkpt><trkpt lat="22.086592" lon="104.21051"><ele>230.6</ele><time>2011-04-26T10:35:35.0000000+00:00</time></trkpt><trkpt lat="22.086525" lon="104.210556"><ele>231.1</ele><time>2011-04-26T10:35:40.0000000+00:00</time></trkpt><trkpt lat="22.086443" lon="104.210609"><ele>231.7</ele><time>2011-04-26T10:35:45.0000000+00:00</time></trkpt><trkpt lat="22.08637" lon="104.21067"><ele>231.9</ele><time>2011-04-26T10:35:50.0000000+00:00</time></trkpt><trkpt lat="22.086288" lon="104.210709"><ele>232.0</ele><time>2011-04-26T10:35:55.0000000+00:00</time></trkpt><trkpt lat="22.086235" lon="104.210777"><ele>232.1</ele><time>2011-04-26T10:36:00.0000000+00:00</time></trkpt><trkpt lat="22.086189" lon="104.210838"><ele>232.0</ele><time>2011-04-26T10:36:05.0000000+00:00</time></trkpt><trkpt lat="22.086142" lon="104.210915"><ele>231.8</ele><time>2011-04-26T10:36:10.0000000+00:00</time></trkpt><trkpt lat="22.0861" lon="104.210968"><ele>231.9</ele><time>2011-04-26T10:36:15.0000000+00:00</time></trkpt><trkpt lat="22.086033" lon="104.210999"><ele>232.4</ele><time>2011-04-26T10:36:20.0000000+00:00</time></trkpt><trkpt lat="22.085962" lon="104.211052"><ele>232.6</ele><time>2011-04-26T10:36:25.0000000+00:00</time></trkpt><trkpt lat="22.085892" lon="104.211098"><ele>232.5</ele><time>2011-04-26T10:36:30.0000000+00:00</time></trkpt><trkpt lat="22.085844" lon="104.211136"><ele>232.7</ele><time>2011-04-26T10:36:35.0000000+00:00</time></trkpt><trkpt lat="22.085781" lon="104.211182"><ele>233.1</ele><time>2011-04-26T10:36:40.0000000+00:00</time></trkpt><trkpt lat="22.085724" lon="104.211235"><ele>233.3</ele><time>2011-04-26T10:36:45.0000000+00:00</time></trkpt><trkpt lat="22.085693" lon="104.211281"><ele>233.7</ele><time>2011-04-26T10:36:50.0000000+00:00</time></trkpt><trkpt lat="22.085625" lon="104.211365"><ele>234.4</ele><time>2011-04-26T10:36:55.0000000+00:00</time></trkpt><trkpt lat="22.085588" lon="104.211449"><ele>235.1</ele><time>2011-04-26T10:37:00.0000000+00:00</time></trkpt><trkpt lat="22.085564" lon="104.211502"><ele>236.1</ele><time>2011-04-26T10:37:05.0000000+00:00</time></trkpt><trkpt lat="22.085522" lon="104.211578"><ele>236.9</ele><time>2011-04-26T10:37:10.0000000+00:00</time></trkpt><trkpt lat="22.085461" lon="104.211662"><ele>237.6</ele><time>2011-04-26T10:37:15.0000000+00:00</time></trkpt><trkpt lat="22.085417" lon="104.211716"><ele>238.0</ele><time>2011-04-26T10:37:20.0000000+00:00</time></trkpt><trkpt lat="22.085382" lon="104.211761"><ele>239.2</ele><time>2011-04-26T10:37:25.0000000+00:00</time></trkpt><trkpt lat="22.085335" lon="104.21183"><ele>239.9</ele><time>2011-04-26T10:37:30.0000000+00:00</time></trkpt><trkpt lat="22.085283" lon="104.211914"><ele>240.1</ele><time>2011-04-26T10:37:35.0000000+00:00</time></trkpt><trkpt lat="22.085241" lon="104.212021"><ele>239.9</ele><time>2011-04-26T10:37:40.0000000+00:00</time></trkpt><trkpt lat="22.085201" lon="104.21209"><ele>240.1</ele><time>2011-04-26T10:37:45.0000000+00:00</time></trkpt><trkpt lat="22.085169" lon="104.212143"><ele>240.4</ele><time>2011-04-26T10:37:50.0000000+00:00</time></trkpt><trkpt lat="22.085144" lon="104.212219"><ele>241.3</ele><time>2011-04-26T10:37:55.0000000+00:00</time></trkpt><trkpt lat="22.085094" lon="104.212311"><ele>241.3</ele><time>2011-04-26T10:38:00.0000000+00:00</time></trkpt><trkpt lat="22.085072" lon="104.212372"><ele>242.0</ele><time>2011-04-26T10:38:05.0000000+00:00</time></trkpt><trkpt lat="22.085003" lon="104.212418"><ele>242.7</ele><time>2011-04-26T10:38:10.0000000+00:00</time></trkpt><trkpt lat="22.08498" lon="104.212479"><ele>243.5</ele><time>2011-04-26T10:38:15.0000000+00:00</time></trkpt><trkpt lat="22.084942" lon="104.212585"><ele>244.1</ele><time>2011-04-26T10:38:20.0000000+00:00</time></trkpt><trkpt lat="22.084919" lon="104.212692"><ele>244.8</ele><time>2011-04-26T10:38:25.0000000+00:00</time></trkpt><trkpt lat="22.084911" lon="104.212837"><ele>244.7</ele><time>2011-04-26T10:38:30.0000000+00:00</time></trkpt><trkpt lat="22.084927" lon="104.21286"><ele>244.6</ele><time>2011-04-26T10:38:35.0000000+00:00</time></trkpt><trkpt lat="22.084923" lon="104.212875"><ele>244.3</ele><time>2011-04-26T10:38:40.0000000+00:00</time></trkpt><trkpt lat="22.084921" lon="104.212906"><ele>244.3</ele><time>2011-04-26T10:38:45.0000000+00:00</time></trkpt><trkpt lat="22.084913" lon="104.212921"><ele>244.9</ele><time>2011-04-26T10:38:50.0000000+00:00</time></trkpt><trkpt lat="22.084915" lon="104.212921"><ele>244.9</ele><time>2011-04-26T10:38:55.0000000+00:00</time></trkpt><trkpt lat="22.084917" lon="104.212921"><ele>245.0</ele><time>2011-04-26T10:39:00.0000000+00:00</time></trkpt><trkpt lat="22.084919" lon="104.212921"><ele>245.0</ele><time>2011-04-26T10:39:05.0000000+00:00</time></trkpt><trkpt lat="22.084919" lon="104.212921"><ele>245.0</ele><time>2011-04-26T10:39:10.0000000+00:00</time></trkpt><trkpt lat="22.084915" lon="104.212921"><ele>245.0</ele><time>2011-04-26T10:39:15.0000000+00:00</time></trkpt><trkpt lat="22.084909" lon="104.212914"><ele>245.0</ele><time>2011-04-26T10:39:20.0000000+00:00</time></trkpt><trkpt lat="22.084908" lon="104.212914"><ele>245.0</ele><time>2011-04-26T10:39:25.0000000+00:00</time></trkpt><trkpt lat="22.084913" lon="104.212914"><ele>245.0</ele><time>2011-04-26T10:39:30.0000000+00:00</time></trkpt><trkpt lat="22.084917" lon="104.212914"><ele>245.0</ele><time>2011-04-26T10:39:35.0000000+00:00</time></trkpt><trkpt lat="22.084921" lon="104.212914"><ele>245.0</ele><time>2011-04-26T10:39:40.0000000+00:00</time></trkpt><trkpt lat="22.084925" lon="104.212914"><ele>245.0</ele><time>2011-04-26T10:39:45.0000000+00:00</time></trkpt><trkpt lat="22.084927" lon="104.212914"><ele>245.0</ele><time>2011-04-26T10:39:50.0000000+00:00</time></trkpt><trkpt lat="22.084929" lon="104.212914"><ele>245.0</ele><time>2011-04-26T10:39:55.0000000+00:00</time></trkpt><trkpt lat="22.08493" lon="104.212914"><ele>245.0</ele><time>2011-04-26T10:40:00.0000000+00:00</time></trkpt><trkpt lat="22.084932" lon="104.212906"><ele>245.0</ele><time>2011-04-26T10:40:05.0000000+00:00</time></trkpt><trkpt lat="22.084932" lon="104.212914"><ele>245.0</ele><time>2011-04-26T10:40:10.0000000+00:00</time></trkpt><trkpt lat="22.084929" lon="104.212914"><ele>245.1</ele><time>2011-04-26T10:40:15.0000000+00:00</time></trkpt><trkpt lat="22.084932" lon="104.212914"><ele>245.1</ele><time>2011-04-26T10:40:20.0000000+00:00</time></trkpt><trkpt lat="22.08493" lon="104.212914"><ele>245.2</ele><time>2011-04-26T10:40:25.0000000+00:00</time></trkpt><trkpt lat="22.084932" lon="104.212906"><ele>245.2</ele><time>2011-04-26T10:40:30.0000000+00:00</time></trkpt><trkpt lat="22.08493" lon="104.212906"><ele>245.2</ele><time>2011-04-26T10:40:35.0000000+00:00</time></trkpt><trkpt lat="22.084927" lon="104.212906"><ele>245.2</ele><time>2011-04-26T10:40:40.0000000+00:00</time></trkpt><trkpt lat="22.084927" lon="104.212906"><ele>245.1</ele><time>2011-04-26T10:40:45.0000000+00:00</time></trkpt><trkpt lat="22.084925" lon="104.212906"><ele>245.1</ele><time>2011-04-26T10:40:50.0000000+00:00</time></trkpt><trkpt lat="22.084925" lon="104.212914"><ele>245.2</ele><time>2011-04-26T10:40:55.0000000+00:00</time></trkpt><trkpt lat="22.084917" lon="104.212914"><ele>245.2</ele><time>2011-04-26T10:41:00.0000000+00:00</time></trkpt><trkpt lat="22.084919" lon="104.212914"><ele>245.2</ele><time>2011-04-26T10:41:05.0000000+00:00</time></trkpt><trkpt lat="22.084919" lon="104.212914"><ele>245.2</ele><time>2011-04-26T10:41:10.0000000+00:00</time></trkpt><trkpt lat="22.084913" lon="104.212914"><ele>245.2</ele><time>2011-04-26T10:41:15.0000000+00:00</time></trkpt><trkpt lat="22.084908" lon="104.212921"><ele>245.6</ele><time>2011-04-26T10:41:20.0000000+00:00</time></trkpt><trkpt lat="22.084908" lon="104.212975"><ele>246.9</ele><time>2011-04-26T10:41:25.0000000+00:00</time></trkpt><trkpt lat="22.084911" lon="104.21302"><ele>248.0</ele><time>2011-04-26T10:41:30.0000000+00:00</time></trkpt><trkpt lat="22.084929" lon="104.213036"><ele>249.4</ele><time>2011-04-26T10:41:35.0000000+00:00</time></trkpt><trkpt lat="22.084942" lon="104.213066"><ele>250.3</ele><time>2011-04-26T10:41:40.0000000+00:00</time></trkpt><trkpt lat="22.084949" lon="104.213074"><ele>250.6</ele><time>2011-04-26T10:41:45.0000000+00:00</time></trkpt><trkpt lat="22.084953" lon="104.213089"><ele>250.7</ele><time>2011-04-26T10:41:50.0000000+00:00</time></trkpt><trkpt lat="22.084955" lon="104.213097"><ele>250.8</ele><time>2011-04-26T10:41:55.0000000+00:00</time></trkpt><trkpt lat="22.084951" lon="104.213097"><ele>251.0</ele><time>2011-04-26T10:42:00.0000000+00:00</time></trkpt><trkpt lat="22.084949" lon="104.213097"><ele>251.4</ele><time>2011-04-26T10:42:05.0000000+00:00</time></trkpt><trkpt lat="22.084949" lon="104.213097"><ele>251.8</ele><time>2011-04-26T10:42:10.0000000+00:00</time></trkpt><trkpt lat="22.084948" lon="104.213104"><ele>252.3</ele><time>2011-04-26T10:42:15.0000000+00:00</time></trkpt><trkpt lat="22.084949" lon="104.213104"><ele>252.6</ele><time>2011-04-26T10:42:20.0000000+00:00</time></trkpt><trkpt lat="22.084949" lon="104.213104"><ele>252.6</ele><time>2011-04-26T10:42:25.0000000+00:00</time></trkpt><trkpt lat="22.084949" lon="104.213104"><ele>252.6</ele><time>2011-04-26T10:42:30.0000000+00:00</time></trkpt><trkpt lat="22.084948" lon="104.213097"><ele>252.9</ele><time>2011-04-26T10:42:35.0000000+00:00</time></trkpt><trkpt lat="22.084948" lon="104.213089"><ele>253.4</ele><time>2011-04-26T10:42:40.0000000+00:00</time></trkpt><trkpt lat="22.084946" lon="104.213104"><ele>255.0</ele><time>2011-04-26T10:42:45.0000000+00:00</time></trkpt><trkpt lat="22.084944" lon="104.213104"><ele>255.4</ele><time>2011-04-26T10:42:50.0000000+00:00</time></trkpt><trkpt lat="22.084948" lon="104.213104"><ele>256.0</ele><time>2011-04-26T10:42:55.0000000+00:00</time></trkpt><trkpt lat="22.084946" lon="104.213104"><ele>256.9</ele><time>2011-04-26T10:43:00.0000000+00:00</time></trkpt><trkpt lat="22.084946" lon="104.213112"><ele>257.9</ele><time>2011-04-26T10:43:05.0000000+00:00</time></trkpt><trkpt lat="22.084946" lon="104.213104"><ele>257.5</ele><time>2011-04-26T10:43:10.0000000+00:00</time></trkpt><trkpt lat="22.084946" lon="104.213104"><ele>257.7</ele><time>2011-04-26T10:43:15.0000000+00:00</time></trkpt><trkpt lat="22.084946" lon="104.213104"><ele>257.7</ele><time>2011-04-26T10:43:20.0000000+00:00</time></trkpt><trkpt lat="22.084946" lon="104.213104"><ele>257.7</ele><time>2011-04-26T10:43:25.0000000+00:00</time></trkpt><trkpt lat="22.084946" lon="104.213104"><ele>257.7</ele><time>2011-04-26T10:43:30.0000000+00:00</time></trkpt><trkpt lat="22.084946" lon="104.213104"><ele>257.7</ele><time>2011-04-26T10:43:35.0000000+00:00</time></trkpt><trkpt lat="22.084946" lon="104.213104"><ele>257.7</ele><time>2011-04-26T10:43:40.0000000+00:00</time></trkpt><trkpt lat="22.084946" lon="104.213104"><ele>257.7</ele><time>2011-04-26T10:43:45.0000000+00:00</time></trkpt><trkpt lat="22.084946" lon="104.213104"><ele>257.7</ele><time>2011-04-26T10:43:50.0000000+00:00</time></trkpt><trkpt lat="22.084946" lon="104.213104"><ele>257.7</ele><time>2011-04-26T10:43:55.0000000+00:00</time></trkpt><trkpt lat="22.084946" lon="104.213104"><ele>257.7</ele><time>2011-04-26T10:44:00.0000000+00:00</time></trkpt><trkpt lat="22.084946" lon="104.213104"><ele>257.7</ele><time>2011-04-26T10:44:05.0000000+00:00</time></trkpt><trkpt lat="22.084946" lon="104.213104"><ele>257.7</ele><time>2011-04-26T10:44:10.0000000+00:00</time></trkpt><trkpt lat="22.084946" lon="104.213104"><ele>257.7</ele><time>2011-04-26T10:44:15.0000000+00:00</time></trkpt><trkpt lat="22.08494" lon="104.213196"><ele>257.8</ele><time>2011-04-26T10:44:20.0000000+00:00</time></trkpt><trkpt lat="22.084938" lon="104.213318"><ele>257.9</ele><time>2011-04-26T10:44:25.0000000+00:00</time></trkpt><trkpt lat="22.084929" lon="104.213463"><ele>257.3</ele><time>2011-04-26T10:44:30.0000000+00:00</time></trkpt><trkpt lat="22.084902" lon="104.213692"><ele>256.1</ele><time>2011-04-26T10:44:35.0000000+00:00</time></trkpt><trkpt lat="22.084764" lon="104.214035"><ele>253.9</ele><time>2011-04-26T10:44:40.0000000+00:00</time></trkpt><trkpt lat="22.084515" lon="104.214455"><ele>251.7</ele><time>2011-04-26T10:44:45.0000000+00:00</time></trkpt><trkpt lat="22.084145" lon="104.214867"><ele>248.4</ele><time>2011-04-26T10:44:50.0000000+00:00</time></trkpt><trkpt lat="22.083719" lon="104.215195"><ele>246.3</ele><time>2011-04-26T10:44:55.0000000+00:00</time></trkpt><trkpt lat="22.083344" lon="104.215462"><ele>244.8</ele><time>2011-04-26T10:45:00.0000000+00:00</time></trkpt><trkpt lat="22.083023" lon="104.215767"><ele>243.7</ele><time>2011-04-26T10:45:05.0000000+00:00</time></trkpt><trkpt lat="22.082745" lon="104.216133"><ele>242.1</ele><time>2011-04-26T10:45:10.0000000+00:00</time></trkpt><trkpt lat="22.082577" lon="104.216492"><ele>239.1</ele><time>2011-04-26T10:45:15.0000000+00:00</time></trkpt><trkpt lat="22.082655" lon="104.21685"><ele>236.3</ele><time>2011-04-26T10:45:20.0000000+00:00</time></trkpt><trkpt lat="22.0828" lon="104.21711"><ele>236.2</ele><time>2011-04-26T10:45:25.0000000+00:00</time></trkpt><trkpt lat="22.08301" lon="104.21743"><ele>234.7</ele><time>2011-04-26T10:45:30.0000000+00:00</time></trkpt><trkpt lat="22.083138" lon="104.217926"><ele>229.5</ele><time>2011-04-26T10:45:35.0000000+00:00</time></trkpt><trkpt lat="22.083302" lon="104.218369"><ele>225.0</ele><time>2011-04-26T10:45:40.0000000+00:00</time></trkpt><trkpt lat="22.083704" lon="104.218704"><ele>219.2</ele><time>2011-04-26T10:45:45.0000000+00:00</time></trkpt><trkpt lat="22.084116" lon="104.219147"><ele>216.7</ele><time>2011-04-26T10:45:50.0000000+00:00</time></trkpt><trkpt lat="22.084375" lon="104.219627"><ele>217.4</ele><time>2011-04-26T10:45:55.0000000+00:00</time></trkpt><trkpt lat="22.084528" lon="104.220032"><ele>217.6</ele><time>2011-04-26T10:46:00.0000000+00:00</time></trkpt><trkpt lat="22.084574" lon="104.220306"><ele>219.5</ele><time>2011-04-26T10:46:05.0000000+00:00</time></trkpt><trkpt lat="22.084585" lon="104.220474"><ele>220.1</ele><time>2011-04-26T10:46:10.0000000+00:00</time></trkpt><trkpt lat="22.084635" lon="104.220612"><ele>219.4</ele><time>2011-04-26T10:46:15.0000000+00:00</time></trkpt><trkpt lat="22.084681" lon="104.220787"><ele>219.1</ele><time>2011-04-26T10:46:20.0000000+00:00</time></trkpt><trkpt lat="22.084724" lon="104.221001"><ele>219.4</ele><time>2011-04-26T10:46:25.0000000+00:00</time></trkpt><trkpt lat="22.084768" lon="104.221214"><ele>219.8</ele><time>2011-04-26T10:46:30.0000000+00:00</time></trkpt><trkpt lat="22.084839" lon="104.22142"><ele>220.2</ele><time>2011-04-26T10:46:35.0000000+00:00</time></trkpt><trkpt lat="22.084888" lon="104.221611"><ele>219.5</ele><time>2011-04-26T10:46:40.0000000+00:00</time></trkpt><trkpt lat="22.084929" lon="104.221779"><ele>219.4</ele><time>2011-04-26T10:46:45.0000000+00:00</time></trkpt><trkpt lat="22.084982" lon="104.221962"><ele>218.8</ele><time>2011-04-26T10:46:50.0000000+00:00</time></trkpt><trkpt lat="22.085024" lon="104.222168"><ele>218.4</ele><time>2011-04-26T10:46:55.0000000+00:00</time></trkpt><trkpt lat="22.085072" lon="104.222382"><ele>218.6</ele><time>2011-04-26T10:47:00.0000000+00:00</time></trkpt><trkpt lat="22.085117" lon="104.222595"><ele>218.8</ele><time>2011-04-26T10:47:05.0000000+00:00</time></trkpt><trkpt lat="22.085176" lon="104.222794"><ele>219.0</ele><time>2011-04-26T10:47:10.0000000+00:00</time></trkpt><trkpt lat="22.085239" lon="104.222992"><ele>219.0</ele><time>2011-04-26T10:47:15.0000000+00:00</time></trkpt><trkpt lat="22.085295" lon="104.223228"><ele>219.0</ele><time>2011-04-26T10:47:20.0000000+00:00</time></trkpt><trkpt lat="22.085329" lon="104.22348"><ele>218.9</ele><time>2011-04-26T10:47:25.0000000+00:00</time></trkpt><trkpt lat="22.08539" lon="104.223732"><ele>219.1</ele><time>2011-04-26T10:47:30.0000000+00:00</time></trkpt><trkpt lat="22.085445" lon="104.223953"><ele>218.4</ele><time>2011-04-26T10:47:35.0000000+00:00</time></trkpt><trkpt lat="22.085505" lon="104.224167"><ele>218.8</ele><time>2011-04-26T10:47:40.0000000+00:00</time></trkpt><trkpt lat="22.085567" lon="104.224411"><ele>218.7</ele><time>2011-04-26T10:47:45.0000000+00:00</time></trkpt><trkpt lat="22.085638" lon="104.224663"><ele>217.5</ele><time>2011-04-26T10:47:50.0000000+00:00</time></trkpt><trkpt lat="22.085787" lon="104.225067"><ele>216.0</ele><time>2011-04-26T10:47:55.0000000+00:00</time></trkpt><trkpt lat="22.086048" lon="104.225372"><ele>214.2</ele><time>2011-04-26T10:48:00.0000000+00:00</time></trkpt><trkpt lat="22.086321" lon="104.225586"><ele>212.5</ele><time>2011-04-26T10:48:05.0000000+00:00</time></trkpt><trkpt lat="22.086573" lon="104.225761"><ele>209.2</ele><time>2011-04-26T10:48:10.0000000+00:00</time></trkpt><trkpt lat="22.086811" lon="104.225983"><ele>207.5</ele><time>2011-04-26T10:48:15.0000000+00:00</time></trkpt><trkpt lat="22.087009" lon="104.226303"><ele>205.7</ele><time>2011-04-26T10:48:20.0000000+00:00</time></trkpt><trkpt lat="22.087122" lon="104.226608"><ele>206.6</ele><time>2011-04-26T10:48:25.0000000+00:00</time></trkpt><trkpt lat="22.087187" lon="104.22686"><ele>207.4</ele><time>2011-04-26T10:48:30.0000000+00:00</time></trkpt><trkpt lat="22.087234" lon="104.227081"><ele>208.0</ele><time>2011-04-26T10:48:35.0000000+00:00</time></trkpt><trkpt lat="22.087254" lon="104.227295"><ele>209.2</ele><time>2011-04-26T10:48:40.0000000+00:00</time></trkpt><trkpt lat="22.087267" lon="104.227493"><ele>209.7</ele><time>2011-04-26T10:48:45.0000000+00:00</time></trkpt><trkpt lat="22.087275" lon="104.227692"><ele>210.3</ele><time>2011-04-26T10:48:50.0000000+00:00</time></trkpt><trkpt lat="22.087238" lon="104.227875"><ele>211.4</ele><time>2011-04-26T10:48:55.0000000+00:00</time></trkpt><trkpt lat="22.087179" lon="104.228012"><ele>213.2</ele><time>2011-04-26T10:49:00.0000000+00:00</time></trkpt><trkpt lat="22.087112" lon="104.228127"><ele>214.5</ele><time>2011-04-26T10:49:05.0000000+00:00</time></trkpt><trkpt lat="22.087051" lon="104.228279"><ele>215.9</ele><time>2011-04-26T10:49:10.0000000+00:00</time></trkpt><trkpt lat="22.086975" lon="104.228424"><ele>216.2</ele><time>2011-04-26T10:49:15.0000000+00:00</time></trkpt><trkpt lat="22.086939" lon="104.228508"><ele>217.9</ele><time>2011-04-26T10:49:20.0000000+00:00</time></trkpt><trkpt lat="22.086899" lon="104.228622"><ele>219.9</ele><time>2011-04-26T10:49:25.0000000+00:00</time></trkpt><trkpt lat="22.086887" lon="104.228722"><ele>221.6</ele><time>2011-04-26T10:49:30.0000000+00:00</time></trkpt><trkpt lat="22.086866" lon="104.228836"><ele>223.8</ele><time>2011-04-26T10:49:35.0000000+00:00</time></trkpt><trkpt lat="22.086861" lon="104.228951"><ele>225.8</ele><time>2011-04-26T10:49:40.0000000+00:00</time></trkpt><trkpt lat="22.086853" lon="104.229073"><ele>225.2</ele><time>2011-04-26T10:49:45.0000000+00:00</time></trkpt><trkpt lat="22.086845" lon="104.22921"><ele>225.1</ele><time>2011-04-26T10:49:50.0000000+00:00</time></trkpt><trkpt lat="22.086834" lon="104.229347"><ele>224.9</ele><time>2011-04-26T10:49:55.0000000+00:00</time></trkpt><trkpt lat="22.086821" lon="104.2295"><ele>225.0</ele><time>2011-04-26T10:50:00.0000000+00:00</time></trkpt><trkpt lat="22.086809" lon="104.22963"><ele>224.7</ele><time>2011-04-26T10:50:05.0000000+00:00</time></trkpt><trkpt lat="22.086784" lon="104.229767"><ele>222.7</ele><time>2011-04-26T10:50:10.0000000+00:00</time></trkpt><trkpt lat="22.086775" lon="104.229904"><ele>223.4</ele><time>2011-04-26T10:50:15.0000000+00:00</time></trkpt><trkpt lat="22.086765" lon="104.230011"><ele>224.9</ele><time>2011-04-26T10:50:20.0000000+00:00</time></trkpt><trkpt lat="22.086752" lon="104.23011"><ele>225.8</ele><time>2011-04-26T10:50:25.0000000+00:00</time></trkpt><trkpt lat="22.086737" lon="104.230217"><ele>226.3</ele><time>2011-04-26T10:50:30.0000000+00:00</time></trkpt><trkpt lat="22.086727" lon="104.230316"><ele>227.8</ele><time>2011-04-26T10:50:35.0000000+00:00</time></trkpt><trkpt lat="22.086733" lon="104.230408"><ele>229.5</ele><time>2011-04-26T10:50:40.0000000+00:00</time></trkpt><trkpt lat="22.086784" lon="104.230515"><ele>227.1</ele><time>2011-04-26T10:50:45.0000000+00:00</time></trkpt><trkpt lat="22.086843" lon="104.230621"><ele>225.3</ele><time>2011-04-26T10:50:50.0000000+00:00</time></trkpt><trkpt lat="22.086927" lon="104.230751"><ele>224.2</ele><time>2011-04-26T10:50:55.0000000+00:00</time></trkpt><trkpt lat="22.087004" lon="104.230865"><ele>223.8</ele><time>2011-04-26T10:51:00.0000000+00:00</time></trkpt><trkpt lat="22.087061" lon="104.230972"><ele>224.3</ele><time>2011-04-26T10:51:05.0000000+00:00</time></trkpt><trkpt lat="22.087133" lon="104.231056"><ele>224.8</ele><time>2011-04-26T10:51:10.0000000+00:00</time></trkpt><trkpt lat="22.087219" lon="104.231171"><ele>225.3</ele><time>2011-04-26T10:51:15.0000000+00:00</time></trkpt><trkpt lat="22.087317" lon="104.231293"><ele>225.3</ele><time>2011-04-26T10:51:20.0000000+00:00</time></trkpt><trkpt lat="22.087402" lon="104.231445"><ele>225.2</ele><time>2011-04-26T10:51:25.0000000+00:00</time></trkpt><trkpt lat="22.087549" lon="104.231613"><ele>225.7</ele><time>2011-04-26T10:51:30.0000000+00:00</time></trkpt><trkpt lat="22.087734" lon="104.231819"><ele>223.7</ele><time>2011-04-26T10:51:35.0000000+00:00</time></trkpt><trkpt lat="22.087879" lon="104.232056"><ele>223.2</ele><time>2011-04-26T10:51:40.0000000+00:00</time></trkpt><trkpt lat="22.088039" lon="104.232376"><ele>222.6</ele><time>2011-04-26T10:51:45.0000000+00:00</time></trkpt><trkpt lat="22.088186" lon="104.23278"><ele>221.5</ele><time>2011-04-26T10:51:50.0000000+00:00</time></trkpt><trkpt lat="22.088219" lon="104.233307"><ele>220.2</ele><time>2011-04-26T10:51:55.0000000+00:00</time></trkpt><trkpt lat="22.088154" lon="104.233948"><ele>219.3</ele><time>2011-04-26T10:52:00.0000000+00:00</time></trkpt><trkpt lat="22.088209" lon="104.234482"><ele>217.5</ele><time>2011-04-26T10:52:05.0000000+00:00</time></trkpt><trkpt lat="22.088488" lon="104.234825"><ele>215.3</ele><time>2011-04-26T10:52:10.0000000+00:00</time></trkpt><trkpt lat="22.088821" lon="104.234978"><ele>213.6</ele><time>2011-04-26T10:52:15.0000000+00:00</time></trkpt><trkpt lat="22.08914" lon="104.235275"><ele>210.5</ele><time>2011-04-26T10:52:20.0000000+00:00</time></trkpt><trkpt lat="22.089251" lon="104.235672"><ele>208.9</ele><time>2011-04-26T10:52:25.0000000+00:00</time></trkpt><trkpt lat="22.089317" lon="104.236046"><ele>208.1</ele><time>2011-04-26T10:52:30.0000000+00:00</time></trkpt><trkpt lat="22.089342" lon="104.236389"><ele>206.9</ele><time>2011-04-26T10:52:35.0000000+00:00</time></trkpt><trkpt lat="22.089376" lon="104.236732"><ele>206.6</ele><time>2011-04-26T10:52:40.0000000+00:00</time></trkpt><trkpt lat="22.089397" lon="104.23703"><ele>205.4</ele><time>2011-04-26T10:52:45.0000000+00:00</time></trkpt><trkpt lat="22.089441" lon="104.237343"><ele>204.0</ele><time>2011-04-26T10:52:50.0000000+00:00</time></trkpt><trkpt lat="22.089493" lon="104.23764"><ele>203.2</ele><time>2011-04-26T10:52:55.0000000+00:00</time></trkpt><trkpt lat="22.089533" lon="104.23793"><ele>202.2</ele><time>2011-04-26T10:53:00.0000000+00:00</time></trkpt><trkpt lat="22.089567" lon="104.238228"><ele>201.2</ele><time>2011-04-26T10:53:05.0000000+00:00</time></trkpt><trkpt lat="22.089602" lon="104.238525"><ele>199.8</ele><time>2011-04-26T10:53:10.0000000+00:00</time></trkpt><trkpt lat="22.089634" lon="104.2388"><ele>199.2</ele><time>2011-04-26T10:53:15.0000000+00:00</time></trkpt><trkpt lat="22.089666" lon="104.239044"><ele>199.8</ele><time>2011-04-26T10:53:20.0000000+00:00</time></trkpt><trkpt lat="22.089706" lon="104.23925"><ele>200.2</ele><time>2011-04-26T10:53:25.0000000+00:00</time></trkpt><trkpt lat="22.089756" lon="104.239441"><ele>199.5</ele><time>2011-04-26T10:53:30.0000000+00:00</time></trkpt><trkpt lat="22.089798" lon="104.239616"><ele>201.8</ele><time>2011-04-26T10:53:35.0000000+00:00</time></trkpt><trkpt lat="22.089857" lon="104.239822"><ele>203.4</ele><time>2011-04-26T10:53:40.0000000+00:00</time></trkpt><trkpt lat="22.089897" lon="104.240044"><ele>205.7</ele><time>2011-04-26T10:53:45.0000000+00:00</time></trkpt><trkpt lat="22.089819" lon="104.240341"><ele>208.1</ele><time>2011-04-26T10:53:50.0000000+00:00</time></trkpt><trkpt lat="22.089685" lon="104.240677"><ele>210.3</ele><time>2011-04-26T10:53:55.0000000+00:00</time></trkpt><trkpt lat="22.089512" lon="104.241051"><ele>212.1</ele><time>2011-04-26T10:54:00.0000000+00:00</time></trkpt><trkpt lat="22.089359" lon="104.241379"><ele>214.0</ele><time>2011-04-26T10:54:05.0000000+00:00</time></trkpt><trkpt lat="22.089231" lon="104.241676"><ele>215.9</ele><time>2011-04-26T10:54:10.0000000+00:00</time></trkpt><trkpt lat="22.089119" lon="104.241943"><ele>217.8</ele><time>2011-04-26T10:54:15.0000000+00:00</time></trkpt><trkpt lat="22.089008" lon="104.24218"><ele>219.7</ele><time>2011-04-26T10:54:20.0000000+00:00</time></trkpt><trkpt lat="22.08893" lon="104.242432"><ele>221.1</ele><time>2011-04-26T10:54:25.0000000+00:00</time></trkpt><trkpt lat="22.088823" lon="104.242676"><ele>222.2</ele><time>2011-04-26T10:54:30.0000000+00:00</time></trkpt><trkpt lat="22.088724" lon="104.242912"><ele>223.2</ele><time>2011-04-26T10:54:35.0000000+00:00</time></trkpt><trkpt lat="22.088642" lon="104.243111"><ele>223.9</ele><time>2011-04-26T10:54:40.0000000+00:00</time></trkpt><trkpt lat="22.088562" lon="104.243294"><ele>225.2</ele><time>2011-04-26T10:54:45.0000000+00:00</time></trkpt><trkpt lat="22.08849" lon="104.243462"><ele>225.7</ele><time>2011-04-26T10:54:50.0000000+00:00</time></trkpt><trkpt lat="22.08843" lon="104.243584"><ele>225.9</ele><time>2011-04-26T10:54:55.0000000+00:00</time></trkpt><trkpt lat="22.088388" lon="104.243706"><ele>226.0</ele><time>2011-04-26T10:55:00.0000000+00:00</time></trkpt><trkpt lat="22.088348" lon="104.243835"><ele>225.9</ele><time>2011-04-26T10:55:05.0000000+00:00</time></trkpt><trkpt lat="22.088322" lon="104.243965"><ele>225.7</ele><time>2011-04-26T10:55:10.0000000+00:00</time></trkpt><trkpt lat="22.088308" lon="104.244102"><ele>225.2</ele><time>2011-04-26T10:55:15.0000000+00:00</time></trkpt><trkpt lat="22.088276" lon="104.244225"><ele>225.3</ele><time>2011-04-26T10:55:20.0000000+00:00</time></trkpt><trkpt lat="22.088266" lon="104.244347"><ele>224.8</ele><time>2011-04-26T10:55:25.0000000+00:00</time></trkpt><trkpt lat="22.088289" lon="104.244461"><ele>223.8</ele><time>2011-04-26T10:55:30.0000000+00:00</time></trkpt><trkpt lat="22.088291" lon="104.244537"><ele>221.8</ele><time>2011-04-26T10:55:35.0000000+00:00</time></trkpt><trkpt lat="22.088297" lon="104.244568"><ele>221.3</ele><time>2011-04-26T10:55:40.0000000+00:00</time></trkpt><trkpt lat="22.088297" lon="104.244568"><ele>221.6</ele><time>2011-04-26T10:55:45.0000000+00:00</time></trkpt><trkpt lat="22.088291" lon="104.244568"><ele>221.7</ele><time>2011-04-26T10:55:50.0000000+00:00</time></trkpt><trkpt lat="22.088282" lon="104.244568"><ele>221.7</ele><time>2011-04-26T10:55:55.0000000+00:00</time></trkpt><trkpt lat="22.08827" lon="104.244576"><ele>221.6</ele><time>2011-04-26T10:56:00.0000000+00:00</time></trkpt><trkpt lat="22.088257" lon="104.244576"><ele>221.5</ele><time>2011-04-26T10:56:05.0000000+00:00</time></trkpt><trkpt lat="22.088245" lon="104.244576"><ele>221.5</ele><time>2011-04-26T10:56:10.0000000+00:00</time></trkpt><trkpt lat="22.088234" lon="104.244576"><ele>221.3</ele><time>2011-04-26T10:56:15.0000000+00:00</time></trkpt><trkpt lat="22.08823" lon="104.244576"><ele>221.2</ele><time>2011-04-26T10:56:20.0000000+00:00</time></trkpt><trkpt lat="22.088232" lon="104.244583"><ele>221.1</ele><time>2011-04-26T10:56:25.0000000+00:00</time></trkpt><trkpt lat="22.088234" lon="104.244583"><ele>220.8</ele><time>2011-04-26T10:56:30.0000000+00:00</time></trkpt><trkpt lat="22.088236" lon="104.244583"><ele>220.6</ele><time>2011-04-26T10:56:35.0000000+00:00</time></trkpt><trkpt lat="22.088236" lon="104.244583"><ele>220.6</ele><time>2011-04-26T10:56:40.0000000+00:00</time></trkpt><trkpt lat="22.088236" lon="104.244583"><ele>220.5</ele><time>2011-04-26T10:56:45.0000000+00:00</time></trkpt><trkpt lat="22.088236" lon="104.244583"><ele>220.4</ele><time>2011-04-26T10:56:50.0000000+00:00</time></trkpt><trkpt lat="22.088236" lon="104.244583"><ele>220.4</ele><time>2011-04-26T10:56:55.0000000+00:00</time></trkpt><trkpt lat="22.088236" lon="104.244583"><ele>220.2</ele><time>2011-04-26T10:57:00.0000000+00:00</time></trkpt><trkpt lat="22.088249" lon="104.244774"><ele>217.3</ele><time>2011-04-26T10:57:05.0000000+00:00</time></trkpt><trkpt lat="22.088251" lon="104.244957"><ele>216.8</ele><time>2011-04-26T10:57:10.0000000+00:00</time></trkpt><trkpt lat="22.088261" lon="104.24511"><ele>216.2</ele><time>2011-04-26T10:57:15.0000000+00:00</time></trkpt><trkpt lat="22.088255" lon="104.245262"><ele>214.2</ele><time>2011-04-26T10:57:20.0000000+00:00</time></trkpt><trkpt lat="22.088253" lon="104.245399"><ele>211.4</ele><time>2011-04-26T10:57:25.0000000+00:00</time></trkpt><trkpt lat="22.088257" lon="104.245506"><ele>205.6</ele><time>2011-04-26T10:57:30.0000000+00:00</time></trkpt><trkpt lat="22.088259" lon="104.245621"><ele>204.0</ele><time>2011-04-26T10:57:35.0000000+00:00</time></trkpt><trkpt lat="22.088287" lon="104.245789"><ele>202.2</ele><time>2011-04-26T10:57:40.0000000+00:00</time></trkpt><trkpt lat="22.088337" lon="104.245995"><ele>200.3</ele><time>2011-04-26T10:57:45.0000000+00:00</time></trkpt><trkpt lat="22.088404" lon="104.246216"><ele>199.5</ele><time>2011-04-26T10:57:50.0000000+00:00</time></trkpt><trkpt lat="22.088461" lon="104.246414"><ele>200.6</ele><time>2011-04-26T10:57:55.0000000+00:00</time></trkpt><trkpt lat="22.088518" lon="104.246582"><ele>201.3</ele><time>2011-04-26T10:58:00.0000000+00:00</time></trkpt><trkpt lat="22.088581" lon="104.246765"><ele>203.3</ele><time>2011-04-26T10:58:05.0000000+00:00</time></trkpt><trkpt lat="22.088625" lon="104.246971"><ele>203.3</ele><time>2011-04-26T10:58:10.0000000+00:00</time></trkpt><trkpt lat="22.088671" lon="104.247162"><ele>200.5</ele><time>2011-04-26T10:58:15.0000000+00:00</time></trkpt><trkpt lat="22.088722" lon="104.247353"><ele>199.7</ele><time>2011-04-26T10:58:20.0000000+00:00</time></trkpt><trkpt lat="22.08877" lon="104.247543"><ele>199.1</ele><time>2011-04-26T10:58:25.0000000+00:00</time></trkpt><trkpt lat="22.0888" lon="104.247688"><ele>197.9</ele><time>2011-04-26T10:58:30.0000000+00:00</time></trkpt><trkpt lat="22.088854" lon="104.247849"><ele>196.9</ele><time>2011-04-26T10:58:35.0000000+00:00</time></trkpt><trkpt lat="22.088894" lon="104.248009"><ele>194.9</ele><time>2011-04-26T10:58:40.0000000+00:00</time></trkpt><trkpt lat="22.088934" lon="104.248161"><ele>195.2</ele><time>2011-04-26T10:58:45.0000000+00:00</time></trkpt><trkpt lat="22.088972" lon="104.248314"><ele>195.9</ele><time>2011-04-26T10:58:50.0000000+00:00</time></trkpt><trkpt lat="22.08901" lon="104.248444"><ele>198.6</ele><time>2011-04-26T10:58:55.0000000+00:00</time></trkpt><trkpt lat="22.089035" lon="104.248566"><ele>200.6</ele><time>2011-04-26T10:59:00.0000000+00:00</time></trkpt><trkpt lat="22.089069" lon="104.248672"><ele>202.7</ele><time>2011-04-26T10:59:05.0000000+00:00</time></trkpt><trkpt lat="22.089098" lon="104.248741"><ele>204.7</ele><time>2011-04-26T10:59:10.0000000+00:00</time></trkpt><trkpt lat="22.089125" lon="104.24881"><ele>204.3</ele><time>2011-04-26T10:59:15.0000000+00:00</time></trkpt><trkpt lat="22.089138" lon="104.248894"><ele>203.9</ele><time>2011-04-26T10:59:20.0000000+00:00</time></trkpt><trkpt lat="22.089161" lon="104.248993"><ele>203.6</ele><time>2011-04-26T10:59:25.0000000+00:00</time></trkpt><trkpt lat="22.089197" lon="104.249115"><ele>204.0</ele><time>2011-04-26T10:59:30.0000000+00:00</time></trkpt><trkpt lat="22.08923" lon="104.249229"><ele>204.2</ele><time>2011-04-26T10:59:35.0000000+00:00</time></trkpt><trkpt lat="22.08927" lon="104.249359"><ele>204.7</ele><time>2011-04-26T10:59:40.0000000+00:00</time></trkpt><trkpt lat="22.089291" lon="104.249512"><ele>205.3</ele><time>2011-04-26T10:59:45.0000000+00:00</time></trkpt><trkpt lat="22.089302" lon="104.249619"><ele>203.3</ele><time>2011-04-26T10:59:50.0000000+00:00</time></trkpt><trkpt lat="22.089338" lon="104.249718"><ele>202.7</ele><time>2011-04-26T10:59:55.0000000+00:00</time></trkpt><trkpt lat="22.089373" lon="104.249802"><ele>202.0</ele><time>2011-04-26T11:00:00.0000000+00:00</time></trkpt><trkpt lat="22.089392" lon="104.249832"><ele>201.8</ele><time>2011-04-26T11:00:05.0000000+00:00</time></trkpt><trkpt lat="22.089396" lon="104.24984"><ele>201.7</ele><time>2011-04-26T11:00:10.0000000+00:00</time></trkpt><trkpt lat="22.089399" lon="104.249847"><ele>201.6</ele><time>2011-04-26T11:00:15.0000000+00:00</time></trkpt><trkpt lat="22.089434" lon="104.249939"><ele>202.0</ele><time>2011-04-26T11:00:20.0000000+00:00</time></trkpt><trkpt lat="22.089458" lon="104.250061"><ele>202.6</ele><time>2011-04-26T11:00:25.0000000+00:00</time></trkpt><trkpt lat="22.089491" lon="104.250206"><ele>203.8</ele><time>2011-04-26T11:00:30.0000000+00:00</time></trkpt><trkpt lat="22.089499" lon="104.250343"><ele>204.7</ele><time>2011-04-26T11:00:35.0000000+00:00</time></trkpt><trkpt lat="22.089502" lon="104.250481"><ele>207.0</ele><time>2011-04-26T11:00:40.0000000+00:00</time></trkpt><trkpt lat="22.089493" lon="104.250587"><ele>208.4</ele><time>2011-04-26T11:00:45.0000000+00:00</time></trkpt><trkpt lat="22.089499" lon="104.250694"><ele>210.3</ele><time>2011-04-26T11:00:50.0000000+00:00</time></trkpt><trkpt lat="22.089487" lon="104.250816"><ele>209.1</ele><time>2011-04-26T11:00:55.0000000+00:00</time></trkpt><trkpt lat="22.089499" lon="104.250969"><ele>210.1</ele><time>2011-04-26T11:01:00.0000000+00:00</time></trkpt><trkpt lat="22.089508" lon="104.251144"><ele>210.3</ele><time>2011-04-26T11:01:05.0000000+00:00</time></trkpt><trkpt lat="22.089518" lon="104.25132"><ele>210.7</ele><time>2011-04-26T11:01:10.0000000+00:00</time></trkpt><trkpt lat="22.089518" lon="104.251503"><ele>211.7</ele><time>2011-04-26T11:01:15.0000000+00:00</time></trkpt><trkpt lat="22.089521" lon="104.251709"><ele>210.4</ele><time>2011-04-26T11:01:20.0000000+00:00</time></trkpt><trkpt lat="22.089516" lon="104.251877"><ele>209.1</ele><time>2011-04-26T11:01:25.0000000+00:00</time></trkpt><trkpt lat="22.089502" lon="104.251907"><ele>208.4</ele><time>2011-04-26T11:01:30.0000000+00:00</time></trkpt><trkpt lat="22.089502" lon="104.251915"><ele>208.5</ele><time>2011-04-26T11:01:35.0000000+00:00</time></trkpt><trkpt lat="22.089518" lon="104.252007"><ele>207.7</ele><time>2011-04-26T11:01:40.0000000+00:00</time></trkpt><trkpt lat="22.08951" lon="104.252205"><ele>210.0</ele><time>2011-04-26T11:01:45.0000000+00:00</time></trkpt><trkpt lat="22.089483" lon="104.252357"><ele>209.4</ele><time>2011-04-26T11:01:50.0000000+00:00</time></trkpt><trkpt lat="22.08942" lon="104.252411"><ele>208.6</ele><time>2011-04-26T11:01:55.0000000+00:00</time></trkpt><trkpt lat="22.089268" lon="104.252388"><ele>208.9</ele><time>2011-04-26T11:02:00.0000000+00:00</time></trkpt><trkpt lat="22.089088" lon="104.25235"><ele>208.1</ele><time>2011-04-26T11:02:05.0000000+00:00</time></trkpt><trkpt lat="22.089066" lon="104.252342"><ele>207.6</ele><time>2011-04-26T11:02:10.0000000+00:00</time></trkpt><trkpt lat="22.089066" lon="104.252342"><ele>207.6</ele><time>2011-04-26T11:02:15.0000000+00:00</time></trkpt><trkpt lat="22.089064" lon="104.25235"><ele>207.5</ele><time>2011-04-26T11:02:20.0000000+00:00</time></trkpt><trkpt lat="22.08906" lon="104.25235"><ele>207.5</ele><time>2011-04-26T11:02:25.0000000+00:00</time></trkpt><trkpt lat="22.08906" lon="104.25235"><ele>207.5</ele><time>2011-04-26T11:02:30.0000000+00:00</time></trkpt><trkpt lat="22.08906" lon="104.252342"><ele>207.5</ele><time>2011-04-26T11:02:35.0000000+00:00</time></trkpt><trkpt lat="22.089006" lon="104.252304"><ele>206.5</ele><time>2011-04-26T11:02:40.0000000+00:00</time></trkpt><trkpt lat="22.0889" lon="104.252228"><ele>205.8</ele><time>2011-04-26T11:02:45.0000000+00:00</time></trkpt><trkpt lat="22.088787" lon="104.252159"><ele>205.0</ele><time>2011-04-26T11:02:50.0000000+00:00</time></trkpt><trkpt lat="22.08872" lon="104.252151"><ele>204.3</ele><time>2011-04-26T11:02:55.0000000+00:00</time></trkpt><trkpt lat="22.088728" lon="104.252098"><ele>202.4</ele><time>2011-04-26T11:03:00.0000000+00:00</time></trkpt><trkpt lat="22.088726" lon="104.252098"><ele>202.4</ele><time>2011-04-26T11:03:05.0000000+00:00</time></trkpt><trkpt lat="22.088682" lon="104.252083"><ele>203.1</ele><time>2011-04-26T11:03:10.0000000+00:00</time></trkpt><trkpt lat="22.0886" lon="104.252151"><ele>202.8</ele><time>2011-04-26T11:03:15.0000000+00:00</time></trkpt><trkpt lat="22.088522" lon="104.252205"><ele>203.4</ele><time>2011-04-26T11:03:20.0000000+00:00</time></trkpt><trkpt lat="22.088409" lon="104.252312"><ele>205.3</ele><time>2011-04-26T11:03:25.0000000+00:00</time></trkpt><trkpt lat="22.088329" lon="104.252396"><ele>206.3</ele><time>2011-04-26T11:03:30.0000000+00:00</time></trkpt><trkpt lat="22.08831" lon="104.252419"><ele>205.7</ele><time>2011-04-26T11:03:35.0000000+00:00</time></trkpt><trkpt lat="22.088268" lon="104.252495"><ele>204.7</ele><time>2011-04-26T11:03:40.0000000+00:00</time></trkpt><trkpt lat="22.088238" lon="104.252617"><ele>204.8</ele><time>2011-04-26T11:03:45.0000000+00:00</time></trkpt><trkpt lat="22.088224" lon="104.252693"><ele>204.7</ele><time>2011-04-26T11:03:50.0000000+00:00</time></trkpt><trkpt lat="22.088205" lon="104.252739"><ele>204.4</ele><time>2011-04-26T11:03:55.0000000+00:00</time></trkpt><trkpt lat="22.088167" lon="104.252823"><ele>204.0</ele><time>2011-04-26T11:04:00.0000000+00:00</time></trkpt><trkpt lat="22.088127" lon="104.252953"><ele>202.9</ele><time>2011-04-26T11:04:05.0000000+00:00</time></trkpt><trkpt lat="22.088089" lon="104.253075"><ele>201.5</ele><time>2011-04-26T11:04:10.0000000+00:00</time></trkpt><trkpt lat="22.088036" lon="104.253166"><ele>200.0</ele><time>2011-04-26T11:04:15.0000000+00:00</time></trkpt><trkpt lat="22.088013" lon="104.253296"><ele>200.6</ele><time>2011-04-26T11:04:20.0000000+00:00</time></trkpt><trkpt lat="22.087976" lon="104.25338"><ele>200.6</ele><time>2011-04-26T11:04:25.0000000+00:00</time></trkpt><trkpt lat="22.087948" lon="104.253471"><ele>200.9</ele><time>2011-04-26T11:04:30.0000000+00:00</time></trkpt><trkpt lat="22.087925" lon="104.253563"><ele>200.7</ele><time>2011-04-26T11:04:35.0000000+00:00</time></trkpt><trkpt lat="22.087872" lon="104.253654"><ele>200.9</ele><time>2011-04-26T11:04:40.0000000+00:00</time></trkpt><trkpt lat="22.087845" lon="104.253769"><ele>201.6</ele><time>2011-04-26T11:04:45.0000000+00:00</time></trkpt><trkpt lat="22.087837" lon="104.253815"><ele>202.1</ele><time>2011-04-26T11:04:50.0000000+00:00</time></trkpt><trkpt lat="22.087824" lon="104.253845"><ele>202.6</ele><time>2011-04-26T11:04:55.0000000+00:00</time></trkpt><trkpt lat="22.087841" lon="104.25386"><ele>204.0</ele><time>2011-04-26T11:05:00.0000000+00:00</time></trkpt><trkpt lat="22.087851" lon="104.253853"><ele>204.3</ele><time>2011-04-26T11:05:05.0000000+00:00</time></trkpt><trkpt lat="22.087858" lon="104.253838"><ele>204.8</ele><time>2011-04-26T11:05:10.0000000+00:00</time></trkpt><trkpt lat="22.087868" lon="104.253807"><ele>206.3</ele><time>2011-04-26T11:05:15.0000000+00:00</time></trkpt><trkpt lat="22.087872" lon="104.253799"><ele>207.2</ele><time>2011-04-26T11:05:20.0000000+00:00</time></trkpt><trkpt lat="22.087868" lon="104.253792"><ele>207.4</ele><time>2011-04-26T11:05:25.0000000+00:00</time></trkpt><trkpt lat="22.08787" lon="104.253784"><ele>207.6</ele><time>2011-04-26T11:05:30.0000000+00:00</time></trkpt><trkpt lat="22.087872" lon="104.253761"><ele>208.3</ele><time>2011-04-26T11:05:35.0000000+00:00</time></trkpt><trkpt lat="22.087873" lon="104.253746"><ele>208.8</ele><time>2011-04-26T11:05:40.0000000+00:00</time></trkpt><trkpt lat="22.087877" lon="104.253738"><ele>208.8</ele><time>2011-04-26T11:05:45.0000000+00:00</time></trkpt><trkpt lat="22.087877" lon="104.253723"><ele>208.8</ele><time>2011-04-26T11:05:50.0000000+00:00</time></trkpt><trkpt lat="22.087873" lon="104.253723"><ele>208.9</ele><time>2011-04-26T11:05:55.0000000+00:00</time></trkpt><trkpt lat="22.087864" lon="104.253708"><ele>209.2</ele><time>2011-04-26T11:06:00.0000000+00:00</time></trkpt><trkpt lat="22.087856" lon="104.253685"><ele>210.1</ele><time>2011-04-26T11:06:05.0000000+00:00</time></trkpt><trkpt lat="22.08786" lon="104.253639"><ele>210.9</ele><time>2011-04-26T11:06:10.0000000+00:00</time></trkpt><trkpt lat="22.087868" lon="104.253639"><ele>211.4</ele><time>2011-04-26T11:06:15.0000000+00:00</time></trkpt><trkpt lat="22.087847" lon="104.25367"><ele>211.1</ele><time>2011-04-26T11:06:20.0000000+00:00</time></trkpt><trkpt lat="22.087837" lon="104.253769"><ele>211.4</ele><time>2011-04-26T11:06:25.0000000+00:00</time></trkpt><trkpt lat="22.087852" lon="104.253784"><ele>211.9</ele><time>2011-04-26T11:06:30.0000000+00:00</time></trkpt><trkpt lat="22.087856" lon="104.253815"><ele>212.0</ele><time>2011-04-26T11:06:35.0000000+00:00</time></trkpt><trkpt lat="22.087845" lon="104.25383"><ele>212.3</ele><time>2011-04-26T11:06:40.0000000+00:00</time></trkpt><trkpt lat="22.087841" lon="104.25383"><ele>212.3</ele><time>2011-04-26T11:06:45.0000000+00:00</time></trkpt><trkpt lat="22.087845" lon="104.25383"><ele>212.3</ele><time>2011-04-26T11:06:50.0000000+00:00</time></trkpt><trkpt lat="22.087854" lon="104.25383"><ele>212.4</ele><time>2011-04-26T11:06:55.0000000+00:00</time></trkpt><trkpt lat="22.087879" lon="104.253845"><ele>212.8</ele><time>2011-04-26T11:07:00.0000000+00:00</time></trkpt><trkpt lat="22.087889" lon="104.253853"><ele>213.0</ele><time>2011-04-26T11:07:05.0000000+00:00</time></trkpt><trkpt lat="22.087896" lon="104.253853"><ele>212.9</ele><time>2011-04-26T11:07:10.0000000+00:00</time></trkpt><trkpt lat="22.087921" lon="104.25386"><ele>213.0</ele><time>2011-04-26T11:07:15.0000000+00:00</time></trkpt><trkpt lat="22.087954" lon="104.25386"><ele>213.6</ele><time>2011-04-26T11:07:20.0000000+00:00</time></trkpt><trkpt lat="22.087969" lon="104.25386"><ele>213.9</ele><time>2011-04-26T11:07:25.0000000+00:00</time></trkpt><trkpt lat="22.087967" lon="104.253845"><ele>214.5</ele><time>2011-04-26T11:07:30.0000000+00:00</time></trkpt><trkpt lat="22.087944" lon="104.253822"><ele>214.8</ele><time>2011-04-26T11:07:35.0000000+00:00</time></trkpt><trkpt lat="22.087931" lon="104.253822"><ele>215.2</ele><time>2011-04-26T11:07:40.0000000+00:00</time></trkpt><trkpt lat="22.087925" lon="104.253838"><ele>215.3</ele><time>2011-04-26T11:07:45.0000000+00:00</time></trkpt><trkpt lat="22.08791" lon="104.25383"><ele>215.4</ele><time>2011-04-26T11:07:50.0000000+00:00</time></trkpt><trkpt lat="22.087893" lon="104.253807"><ele>216.4</ele><time>2011-04-26T11:07:55.0000000+00:00</time></trkpt><trkpt lat="22.08786" lon="104.253815"><ele>217.0</ele><time>2011-04-26T11:08:00.0000000+00:00</time></trkpt><trkpt lat="22.087847" lon="104.253815"><ele>217.7</ele><time>2011-04-26T11:08:05.0000000+00:00</time></trkpt><trkpt lat="22.087833" lon="104.253815"><ele>217.8</ele><time>2011-04-26T11:08:10.0000000+00:00</time></trkpt><trkpt lat="22.087828" lon="104.253822"><ele>217.8</ele><time>2011-04-26T11:08:15.0000000+00:00</time></trkpt><trkpt lat="22.08782" lon="104.253822"><ele>217.8</ele><time>2011-04-26T11:08:20.0000000+00:00</time></trkpt><trkpt lat="22.08783" lon="104.253838"><ele>218.4</ele><time>2011-04-26T11:08:25.0000000+00:00</time></trkpt><trkpt lat="22.087826" lon="104.253845"><ele>218.4</ele><time>2011-04-26T11:08:30.0000000+00:00</time></trkpt><trkpt lat="22.087822" lon="104.253845"><ele>218.5</ele><time>2011-04-26T11:08:35.0000000+00:00</time></trkpt><trkpt lat="22.087824" lon="104.253845"><ele>218.5</ele><time>2011-04-26T11:08:40.0000000+00:00</time></trkpt><trkpt lat="22.087831" lon="104.253838"><ele>218.7</ele><time>2011-04-26T11:08:45.0000000+00:00</time></trkpt><trkpt lat="22.087841" lon="104.253822"><ele>218.7</ele><time>2011-04-26T11:08:50.0000000+00:00</time></trkpt><trkpt lat="22.087868" lon="104.253807"><ele>218.6</ele><time>2011-04-26T11:08:55.0000000+00:00</time></trkpt><trkpt lat="22.08787" lon="104.253815"><ele>218.6</ele><time>2011-04-26T11:09:00.0000000+00:00</time></trkpt><trkpt lat="22.087872" lon="104.253815"><ele>219.0</ele><time>2011-04-26T11:09:05.0000000+00:00</time></trkpt><trkpt lat="22.08787" lon="104.253799"><ele>219.4</ele><time>2011-04-26T11:09:10.0000000+00:00</time></trkpt><trkpt lat="22.087851" lon="104.253807"><ele>219.7</ele><time>2011-04-26T11:09:15.0000000+00:00</time></trkpt><trkpt lat="22.087862" lon="104.253807"><ele>219.7</ele><time>2011-04-26T11:09:20.0000000+00:00</time></trkpt><trkpt lat="22.087879" lon="104.253815"><ele>219.9</ele><time>2011-04-26T11:09:25.0000000+00:00</time></trkpt><trkpt lat="22.087875" lon="104.253799"><ele>220.5</ele><time>2011-04-26T11:09:30.0000000+00:00</time></trkpt><trkpt lat="22.087868" lon="104.253777"><ele>221.0</ele><time>2011-04-26T11:09:35.0000000+00:00</time></trkpt><trkpt lat="22.087868" lon="104.253777"><ele>221.7</ele><time>2011-04-26T11:09:40.0000000+00:00</time></trkpt><trkpt lat="22.08786" lon="104.253777"><ele>222.2</ele><time>2011-04-26T11:09:45.0000000+00:00</time></trkpt><trkpt lat="22.087856" lon="104.253754"><ele>222.5</ele><time>2011-04-26T11:09:50.0000000+00:00</time></trkpt><trkpt lat="22.08787" lon="104.253746"><ele>223.2</ele><time>2011-04-26T11:09:55.0000000+00:00</time></trkpt><trkpt lat="22.087849" lon="104.253731"><ele>223.7</ele><time>2011-04-26T11:10:00.0000000+00:00</time></trkpt><trkpt lat="22.087854" lon="104.253723"><ele>223.8</ele><time>2011-04-26T11:10:05.0000000+00:00</time></trkpt><trkpt lat="22.087856" lon="104.253723"><ele>223.8</ele><time>2011-04-26T11:10:10.0000000+00:00</time></trkpt><trkpt lat="22.08783" lon="104.253731"><ele>223.8</ele><time>2011-04-26T11:10:15.0000000+00:00</time></trkpt><trkpt lat="22.087814" lon="104.253761"><ele>223.8</ele><time>2011-04-26T11:10:20.0000000+00:00</time></trkpt><trkpt lat="22.087797" lon="104.253777"><ele>224.5</ele><time>2011-04-26T11:10:25.0000000+00:00</time></trkpt><trkpt lat="22.087784" lon="104.253807"><ele>224.4</ele><time>2011-04-26T11:10:30.0000000+00:00</time></trkpt><trkpt lat="22.087732" lon="104.253792"><ele>224.2</ele><time>2011-04-26T11:10:35.0000000+00:00</time></trkpt><trkpt lat="22.087709" lon="104.253769"><ele>224.2</ele><time>2011-04-26T11:10:40.0000000+00:00</time></trkpt><trkpt lat="22.087734" lon="104.253754"><ele>224.1</ele><time>2011-04-26T11:10:45.0000000+00:00</time></trkpt><trkpt lat="22.087744" lon="104.253746"><ele>224.1</ele><time>2011-04-26T11:10:50.0000000+00:00</time></trkpt><trkpt lat="22.087755" lon="104.253731"><ele>224.0</ele><time>2011-04-26T11:10:55.0000000+00:00</time></trkpt><trkpt lat="22.08777" lon="104.253738"><ele>223.9</ele><time>2011-04-26T11:11:00.0000000+00:00</time></trkpt><trkpt lat="22.087807" lon="104.253754"><ele>223.9</ele><time>2011-04-26T11:11:05.0000000+00:00</time></trkpt><trkpt lat="22.087856" lon="104.253777"><ele>224.2</ele><time>2011-04-26T11:11:10.0000000+00:00</time></trkpt><trkpt lat="22.087938" lon="104.253815"><ele>224.6</ele><time>2011-04-26T11:11:15.0000000+00:00</time></trkpt><trkpt lat="22.088005" lon="104.25383"><ele>225.1</ele><time>2011-04-26T11:11:20.0000000+00:00</time></trkpt><trkpt lat="22.08802" lon="104.253792"><ele>225.6</ele><time>2011-04-26T11:11:25.0000000+00:00</time></trkpt><trkpt lat="22.088001" lon="104.253738"><ele>226.4</ele><time>2011-04-26T11:11:30.0000000+00:00</time></trkpt><trkpt lat="22.087997" lon="104.253708"><ele>227.1</ele><time>2011-04-26T11:11:35.0000000+00:00</time></trkpt><trkpt lat="22.088011" lon="104.253685"><ele>227.6</ele><time>2011-04-26T11:11:40.0000000+00:00</time></trkpt><trkpt lat="22.088001" lon="104.253677"><ele>228.2</ele><time>2011-04-26T11:11:45.0000000+00:00</time></trkpt><trkpt lat="22.087969" lon="104.253677"><ele>228.6</ele><time>2011-04-26T11:11:50.0000000+00:00</time></trkpt><trkpt lat="22.087961" lon="104.25367"><ele>228.7</ele><time>2011-04-26T11:11:55.0000000+00:00</time></trkpt><trkpt lat="22.087955" lon="104.253677"><ele>228.7</ele><time>2011-04-26T11:12:00.0000000+00:00</time></trkpt><trkpt lat="22.087934" lon="104.253708"><ele>228.3</ele><time>2011-04-26T11:12:05.0000000+00:00</time></trkpt><trkpt lat="22.087927" lon="104.253738"><ele>228.0</ele><time>2011-04-26T11:12:10.0000000+00:00</time></trkpt><trkpt lat="22.087902" lon="104.253746"><ele>227.6</ele><time>2011-04-26T11:12:15.0000000+00:00</time></trkpt><trkpt lat="22.087894" lon="104.253754"><ele>227.5</ele><time>2011-04-26T11:12:20.0000000+00:00</time></trkpt><trkpt lat="22.087868" lon="104.253769"><ele>226.8</ele><time>2011-04-26T11:12:25.0000000+00:00</time></trkpt><trkpt lat="22.08787" lon="104.253792"><ele>226.5</ele><time>2011-04-26T11:12:30.0000000+00:00</time></trkpt><trkpt lat="22.087887" lon="104.253822"><ele>226.1</ele><time>2011-04-26T11:12:35.0000000+00:00</time></trkpt><trkpt lat="22.087887" lon="104.253815"><ele>225.9</ele><time>2011-04-26T11:12:40.0000000+00:00</time></trkpt><trkpt lat="22.087885" lon="104.253822"><ele>225.7</ele><time>2011-04-26T11:12:45.0000000+00:00</time></trkpt><trkpt lat="22.087885" lon="104.25383"><ele>225.5</ele><time>2011-04-26T11:12:50.0000000+00:00</time></trkpt><trkpt lat="22.087887" lon="104.25383"><ele>225.5</ele><time>2011-04-26T11:12:55.0000000+00:00</time></trkpt><trkpt lat="22.087898" lon="104.253799"><ele>225.3</ele><time>2011-04-26T11:13:00.0000000+00:00</time></trkpt><trkpt lat="22.087914" lon="104.253761"><ele>225.2</ele><time>2011-04-26T11:13:05.0000000+00:00</time></trkpt><trkpt lat="22.0879" lon="104.253731"><ele>225.1</ele><time>2011-04-26T11:13:10.0000000+00:00</time></trkpt><trkpt lat="22.087875" lon="104.253693"><ele>224.9</ele><time>2011-04-26T11:13:15.0000000+00:00</time></trkpt><trkpt lat="22.087885" lon="104.253677"><ele>225.1</ele><time>2011-04-26T11:13:20.0000000+00:00</time></trkpt><trkpt lat="22.087893" lon="104.253677"><ele>225.0</ele><time>2011-04-26T11:13:25.0000000+00:00</time></trkpt><trkpt lat="22.087902" lon="104.253693"><ele>225.0</ele><time>2011-04-26T11:13:30.0000000+00:00</time></trkpt><trkpt lat="22.087891" lon="104.2537"><ele>224.9</ele><time>2011-04-26T11:13:35.0000000+00:00</time></trkpt><trkpt lat="22.087887" lon="104.2537"><ele>224.9</ele><time>2011-04-26T11:13:40.0000000+00:00</time></trkpt><trkpt lat="22.087883" lon="104.2537"><ele>225.0</ele><time>2011-04-26T11:13:45.0000000+00:00</time></trkpt><trkpt lat="22.087879" lon="104.2537"><ele>225.0</ele><time>2011-04-26T11:13:50.0000000+00:00</time></trkpt><trkpt lat="22.087868" lon="104.2537"><ele>225.0</ele><time>2011-04-26T11:13:55.0000000+00:00</time></trkpt><trkpt lat="22.08786" lon="104.2537"><ele>225.1</ele><time>2011-04-26T11:14:00.0000000+00:00</time></trkpt><trkpt lat="22.087839" lon="104.253693"><ele>225.1</ele><time>2011-04-26T11:14:05.0000000+00:00</time></trkpt><trkpt lat="22.087835" lon="104.2537"><ele>225.3</ele><time>2011-04-26T11:14:10.0000000+00:00</time></trkpt><trkpt lat="22.087839" lon="104.253693"><ele>225.3</ele><time>2011-04-26T11:14:15.0000000+00:00</time></trkpt><trkpt lat="22.087833" lon="104.253693"><ele>225.3</ele><time>2011-04-26T11:14:20.0000000+00:00</time></trkpt><trkpt lat="22.087826" lon="104.253693"><ele>225.3</ele><time>2011-04-26T11:14:25.0000000+00:00</time></trkpt><trkpt lat="22.08783" lon="104.253693"><ele>225.3</ele><time>2011-04-26T11:14:30.0000000+00:00</time></trkpt><trkpt lat="22.087835" lon="104.2537"><ele>225.3</ele><time>2011-04-26T11:14:35.0000000+00:00</time></trkpt><trkpt lat="22.087849" lon="104.253716"><ele>225.2</ele><time>2011-04-26T11:14:40.0000000+00:00</time></trkpt><trkpt lat="22.087858" lon="104.253716"><ele>225.3</ele><time>2011-04-26T11:14:45.0000000+00:00</time></trkpt><trkpt lat="22.087864" lon="104.253708"><ele>225.3</ele><time>2011-04-26T11:14:50.0000000+00:00</time></trkpt><trkpt lat="22.087872" lon="104.2537"><ele>225.4</ele><time>2011-04-26T11:14:55.0000000+00:00</time></trkpt><trkpt lat="22.08787" lon="104.253716"><ele>225.8</ele><time>2011-04-26T11:15:00.0000000+00:00</time></trkpt><trkpt lat="22.087864" lon="104.253716"><ele>225.8</ele><time>2011-04-26T11:15:05.0000000+00:00</time></trkpt><trkpt lat="22.087837" lon="104.253708"><ele>225.7</ele><time>2011-04-26T11:15:10.0000000+00:00</time></trkpt><trkpt lat="22.087828" lon="104.253716"><ele>225.7</ele><time>2011-04-26T11:15:15.0000000+00:00</time></trkpt><trkpt lat="22.087837" lon="104.253716"><ele>225.6</ele><time>2011-04-26T11:15:20.0000000+00:00</time></trkpt><trkpt lat="22.087864" lon="104.253777"><ele>225.9</ele><time>2011-04-26T11:15:25.0000000+00:00</time></trkpt><trkpt lat="22.087852" lon="104.253792"><ele>225.7</ele><time>2011-04-26T11:15:30.0000000+00:00</time></trkpt><trkpt lat="22.087854" lon="104.253792"><ele>225.7</ele><time>2011-04-26T11:15:35.0000000+00:00</time></trkpt><trkpt lat="22.087847" lon="104.253799"><ele>225.6</ele><time>2011-04-26T11:15:40.0000000+00:00</time></trkpt><trkpt lat="22.087839" lon="104.253799"><ele>225.6</ele><time>2011-04-26T11:15:45.0000000+00:00</time></trkpt><trkpt lat="22.087831" lon="104.253807"><ele>225.6</ele><time>2011-04-26T11:15:50.0000000+00:00</time></trkpt><trkpt lat="22.087822" lon="104.253807"><ele>225.6</ele><time>2011-04-26T11:15:55.0000000+00:00</time></trkpt><trkpt lat="22.087826" lon="104.253815"><ele>225.7</ele><time>2011-04-26T11:16:00.0000000+00:00</time></trkpt><trkpt lat="22.087824" lon="104.253807"><ele>225.9</ele><time>2011-04-26T11:16:05.0000000+00:00</time></trkpt><trkpt lat="22.087809" lon="104.253769"><ele>225.7</ele><time>2011-04-26T11:16:10.0000000+00:00</time></trkpt><trkpt lat="22.087788" lon="104.253777"><ele>225.4</ele><time>2011-04-26T11:16:15.0000000+00:00</time></trkpt><trkpt lat="22.087786" lon="104.253769"><ele>225.5</ele><time>2011-04-26T11:16:20.0000000+00:00</time></trkpt><trkpt lat="22.08779" lon="104.253769"><ele>225.5</ele><time>2011-04-26T11:16:25.0000000+00:00</time></trkpt><trkpt lat="22.087778" lon="104.253769"><ele>225.4</ele><time>2011-04-26T11:16:30.0000000+00:00</time></trkpt><trkpt lat="22.087778" lon="104.253769"><ele>225.4</ele><time>2011-04-26T11:16:35.0000000+00:00</time></trkpt><trkpt lat="22.087786" lon="104.253769"><ele>225.3</ele><time>2011-04-26T11:16:40.0000000+00:00</time></trkpt><trkpt lat="22.087776" lon="104.253799"><ele>224.9</ele><time>2011-04-26T11:16:45.0000000+00:00</time></trkpt><trkpt lat="22.08777" lon="104.253807"><ele>224.9</ele><time>2011-04-26T11:16:50.0000000+00:00</time></trkpt><trkpt lat="22.087759" lon="104.253815"><ele>224.7</ele><time>2011-04-26T11:16:55.0000000+00:00</time></trkpt><trkpt lat="22.087759" lon="104.253807"><ele>224.5</ele><time>2011-04-26T11:17:00.0000000+00:00</time></trkpt><trkpt lat="22.08774" lon="104.253822"><ele>223.9</ele><time>2011-04-26T11:17:05.0000000+00:00</time></trkpt><trkpt lat="22.087734" lon="104.25383"><ele>223.9</ele><time>2011-04-26T11:17:10.0000000+00:00</time></trkpt><trkpt lat="22.087738" lon="104.253815"><ele>223.8</ele><time>2011-04-26T11:17:15.0000000+00:00</time></trkpt><trkpt lat="22.087736" lon="104.253822"><ele>223.9</ele><time>2011-04-26T11:17:20.0000000+00:00</time></trkpt><trkpt lat="22.08773" lon="104.253838"><ele>224.0</ele><time>2011-04-26T11:17:25.0000000+00:00</time></trkpt><trkpt lat="22.08773" lon="104.25383"><ele>224.0</ele><time>2011-04-26T11:17:30.0000000+00:00</time></trkpt><trkpt lat="22.087736" lon="104.253845"><ele>223.9</ele><time>2011-04-26T11:17:35.0000000+00:00</time></trkpt><trkpt lat="22.087761" lon="104.253838"><ele>223.8</ele><time>2011-04-26T11:17:40.0000000+00:00</time></trkpt><trkpt lat="22.087793" lon="104.253799"><ele>223.6</ele><time>2011-04-26T11:17:45.0000000+00:00</time></trkpt><trkpt lat="22.087807" lon="104.253799"><ele>223.1</ele><time>2011-04-26T11:17:50.0000000+00:00</time></trkpt><trkpt lat="22.087786" lon="104.253822"><ele>222.7</ele><time>2011-04-26T11:17:55.0000000+00:00</time></trkpt><trkpt lat="22.087778" lon="104.253815"><ele>223.1</ele><time>2011-04-26T11:18:00.0000000+00:00</time></trkpt><trkpt lat="22.087778" lon="104.253799"><ele>223.8</ele><time>2011-04-26T11:18:05.0000000+00:00</time></trkpt><trkpt lat="22.087765" lon="104.253784"><ele>224.5</ele><time>2011-04-26T11:18:10.0000000+00:00</time></trkpt><trkpt lat="22.087742" lon="104.253807"><ele>225.0</ele><time>2011-04-26T11:18:15.0000000+00:00</time></trkpt><trkpt lat="22.087742" lon="104.253807"><ele>225.0</ele><time>2011-04-26T11:18:20.0000000+00:00</time></trkpt><trkpt lat="22.087732" lon="104.253815"><ele>225.0</ele><time>2011-04-26T11:18:25.0000000+00:00</time></trkpt><trkpt lat="22.087723" lon="104.253815"><ele>225.4</ele><time>2011-04-26T11:18:30.0000000+00:00</time></trkpt><trkpt lat="22.087723" lon="104.253845"><ele>226.0</ele><time>2011-04-26T11:18:35.0000000+00:00</time></trkpt><trkpt lat="22.087715" lon="104.253883"><ele>226.3</ele><time>2011-04-26T11:18:40.0000000+00:00</time></trkpt><trkpt lat="22.087723" lon="104.253876"><ele>226.4</ele><time>2011-04-26T11:18:45.0000000+00:00</time></trkpt><trkpt lat="22.087753" lon="104.253883"><ele>226.2</ele><time>2011-04-26T11:18:50.0000000+00:00</time></trkpt><trkpt lat="22.087767" lon="104.253868"><ele>226.2</ele><time>2011-04-26T11:18:55.0000000+00:00</time></trkpt><trkpt lat="22.08777" lon="104.253876"><ele>226.1</ele><time>2011-04-26T11:19:00.0000000+00:00</time></trkpt><trkpt lat="22.08777" lon="104.253876"><ele>226.1</ele><time>2011-04-26T11:19:05.0000000+00:00</time></trkpt><trkpt lat="22.087782" lon="104.25386"><ele>226.2</ele><time>2011-04-26T11:19:10.0000000+00:00</time></trkpt><trkpt lat="22.087795" lon="104.253853"><ele>226.2</ele><time>2011-04-26T11:19:15.0000000+00:00</time></trkpt><trkpt lat="22.087811" lon="104.253845"><ele>226.3</ele><time>2011-04-26T11:19:20.0000000+00:00</time></trkpt><trkpt lat="22.08783" lon="104.25383"><ele>226.2</ele><time>2011-04-26T11:19:25.0000000+00:00</time></trkpt><trkpt lat="22.087822" lon="104.253838"><ele>226.2</ele><time>2011-04-26T11:19:30.0000000+00:00</time></trkpt><trkpt lat="22.087822" lon="104.253838"><ele>226.2</ele><time>2011-04-26T11:19:35.0000000+00:00</time></trkpt><trkpt lat="22.08782" lon="104.253838"><ele>226.2</ele><time>2011-04-26T11:19:40.0000000+00:00</time></trkpt><trkpt lat="22.087828" lon="104.25383"><ele>226.2</ele><time>2011-04-26T11:19:45.0000000+00:00</time></trkpt><trkpt lat="22.08783" lon="104.253822"><ele>226.0</ele><time>2011-04-26T11:19:50.0000000+00:00</time></trkpt><trkpt lat="22.087828" lon="104.25383"><ele>226.0</ele><time>2011-04-26T11:19:55.0000000+00:00</time></trkpt><trkpt lat="22.087828" lon="104.25383"><ele>226.5</ele><time>2011-04-26T11:20:00.0000000+00:00</time></trkpt><trkpt lat="22.087837" lon="104.253853"><ele>226.6</ele><time>2011-04-26T11:20:05.0000000+00:00</time></trkpt><trkpt lat="22.087824" lon="104.253899"><ele>226.8</ele><time>2011-04-26T11:20:10.0000000+00:00</time></trkpt><trkpt lat="22.087845" lon="104.253876"><ele>226.9</ele><time>2011-04-26T11:20:15.0000000+00:00</time></trkpt><trkpt lat="22.087841" lon="104.25386"><ele>226.9</ele><time>2011-04-26T11:20:20.0000000+00:00</time></trkpt><trkpt lat="22.087841" lon="104.25386"><ele>226.9</ele><time>2011-04-26T11:20:25.0000000+00:00</time></trkpt><trkpt lat="22.087858" lon="104.25386"><ele>226.8</ele><time>2011-04-26T11:20:30.0000000+00:00</time></trkpt><trkpt lat="22.087889" lon="104.253845"><ele>226.5</ele><time>2011-04-26T11:20:35.0000000+00:00</time></trkpt><trkpt lat="22.087898" lon="104.253822"><ele>226.3</ele><time>2011-04-26T11:20:40.0000000+00:00</time></trkpt><trkpt lat="22.087896" lon="104.253815"><ele>225.9</ele><time>2011-04-26T11:20:45.0000000+00:00</time></trkpt><trkpt lat="22.087887" lon="104.253815"><ele>225.0</ele><time>2011-04-26T11:20:50.0000000+00:00</time></trkpt><trkpt lat="22.087875" lon="104.25383"><ele>224.6</ele><time>2011-04-26T11:20:55.0000000+00:00</time></trkpt><trkpt lat="22.08786" lon="104.253845"><ele>223.8</ele><time>2011-04-26T11:21:00.0000000+00:00</time></trkpt><trkpt lat="22.087862" lon="104.253845"><ele>223.8</ele><time>2011-04-26T11:21:05.0000000+00:00</time></trkpt><trkpt lat="22.08786" lon="104.253853"><ele>223.7</ele><time>2011-04-26T11:21:10.0000000+00:00</time></trkpt><trkpt lat="22.087854" lon="104.25386"><ele>223.7</ele><time>2011-04-26T11:21:15.0000000+00:00</time></trkpt><trkpt lat="22.087854" lon="104.253853"><ele>223.6</ele><time>2011-04-26T11:21:20.0000000+00:00</time></trkpt><trkpt lat="22.087858" lon="104.253845"><ele>223.3</ele><time>2011-04-26T11:21:25.0000000+00:00</time></trkpt><trkpt lat="22.087877" lon="104.253807"><ele>223.3</ele><time>2011-04-26T11:21:30.0000000+00:00</time></trkpt><trkpt lat="22.087885" lon="104.253807"><ele>223.1</ele><time>2011-04-26T11:21:35.0000000+00:00</time></trkpt><trkpt lat="22.087875" lon="104.253807"><ele>223.1</ele><time>2011-04-26T11:21:40.0000000+00:00</time></trkpt><trkpt lat="22.087854" lon="104.253815"><ele>223.2</ele><time>2011-04-26T11:21:45.0000000+00:00</time></trkpt><trkpt lat="22.087849" lon="104.253822"><ele>223.2</ele><time>2011-04-26T11:21:50.0000000+00:00</time></trkpt><trkpt lat="22.087822" lon="104.253807"><ele>223.3</ele><time>2011-04-26T11:21:55.0000000+00:00</time></trkpt><trkpt lat="22.087835" lon="104.253799"><ele>223.2</ele><time>2011-04-26T11:22:00.0000000+00:00</time></trkpt><trkpt lat="22.087811" lon="104.253784"><ele>223.3</ele><time>2011-04-26T11:22:05.0000000+00:00</time></trkpt><trkpt lat="22.087803" lon="104.253784"><ele>223.6</ele><time>2011-04-26T11:22:10.0000000+00:00</time></trkpt><trkpt lat="22.087786" lon="104.253799"><ele>223.7</ele><time>2011-04-26T11:22:15.0000000+00:00</time></trkpt><trkpt lat="22.087778" lon="104.253815"><ele>223.6</ele><time>2011-04-26T11:22:20.0000000+00:00</time></trkpt><trkpt lat="22.087793" lon="104.253815"><ele>223.5</ele><time>2011-04-26T11:22:25.0000000+00:00</time></trkpt><trkpt lat="22.087797" lon="104.253822"><ele>223.6</ele><time>2011-04-26T11:22:30.0000000+00:00</time></trkpt><trkpt lat="22.087784" lon="104.253838"><ele>223.6</ele><time>2011-04-26T11:22:35.0000000+00:00</time></trkpt><trkpt lat="22.087791" lon="104.253891"><ele>223.8</ele><time>2011-04-26T11:22:40.0000000+00:00</time></trkpt><trkpt lat="22.087799" lon="104.253883"><ele>224.1</ele><time>2011-04-26T11:22:45.0000000+00:00</time></trkpt><trkpt lat="22.087782" lon="104.253838"><ele>224.6</ele><time>2011-04-26T11:22:50.0000000+00:00</time></trkpt><trkpt lat="22.087788" lon="104.253845"><ele>224.7</ele><time>2011-04-26T11:22:55.0000000+00:00</time></trkpt><trkpt lat="22.087778" lon="104.25383"><ele>224.9</ele><time>2011-04-26T11:23:00.0000000+00:00</time></trkpt><trkpt lat="22.087753" lon="104.253799"><ele>224.7</ele><time>2011-04-26T11:23:05.0000000+00:00</time></trkpt><trkpt lat="22.087748" lon="104.253761"><ele>224.4</ele><time>2011-04-26T11:23:10.0000000+00:00</time></trkpt><trkpt lat="22.087723" lon="104.253723"><ele>223.4</ele><time>2011-04-26T11:23:15.0000000+00:00</time></trkpt><trkpt lat="22.087715" lon="104.253693"><ele>222.1</ele><time>2011-04-26T11:23:20.0000000+00:00</time></trkpt><trkpt lat="22.08773" lon="104.253731"><ele>220.3</ele><time>2011-04-26T11:23:25.0000000+00:00</time></trkpt><trkpt lat="22.087749" lon="104.253777"><ele>219.3</ele><time>2011-04-26T11:23:30.0000000+00:00</time></trkpt><trkpt lat="22.087738" lon="104.253792"><ele>218.7</ele><time>2011-04-26T11:23:35.0000000+00:00</time></trkpt><trkpt lat="22.087708" lon="104.253761"><ele>218.4</ele><time>2011-04-26T11:23:40.0000000+00:00</time></trkpt><trkpt lat="22.087704" lon="104.253761"><ele>218.1</ele><time>2011-04-26T11:23:45.0000000+00:00</time></trkpt><trkpt lat="22.087704" lon="104.253754"><ele>217.9</ele><time>2011-04-26T11:23:50.0000000+00:00</time></trkpt><trkpt lat="22.087744" lon="104.253708"><ele>217.7</ele><time>2011-04-26T11:23:55.0000000+00:00</time></trkpt><trkpt lat="22.087774" lon="104.253677"><ele>217.7</ele><time>2011-04-26T11:24:00.0000000+00:00</time></trkpt><trkpt lat="22.087797" lon="104.253685"><ele>217.8</ele><time>2011-04-26T11:24:05.0000000+00:00</time></trkpt><trkpt lat="22.087839" lon="104.253723"><ele>218.4</ele><time>2011-04-26T11:24:10.0000000+00:00</time></trkpt><trkpt lat="22.087864" lon="104.253738"><ele>218.9</ele><time>2011-04-26T11:24:15.0000000+00:00</time></trkpt><trkpt lat="22.087866" lon="104.253777"><ele>219.1</ele><time>2011-04-26T11:24:20.0000000+00:00</time></trkpt><trkpt lat="22.087873" lon="104.253784"><ele>219.1</ele><time>2011-04-26T11:24:25.0000000+00:00</time></trkpt><trkpt lat="22.087872" lon="104.253799"><ele>218.7</ele><time>2011-04-26T11:24:30.0000000+00:00</time></trkpt><trkpt lat="22.08787" lon="104.253777"><ele>218.7</ele><time>2011-04-26T11:24:35.0000000+00:00</time></trkpt><trkpt lat="22.087845" lon="104.253822"><ele>218.4</ele><time>2011-04-26T11:24:40.0000000+00:00</time></trkpt><trkpt lat="22.08787" lon="104.25386"><ele>218.3</ele><time>2011-04-26T11:24:45.0000000+00:00</time></trkpt><trkpt lat="22.0879" lon="104.253868"><ele>218.1</ele><time>2011-04-26T11:24:50.0000000+00:00</time></trkpt><trkpt lat="22.08794" lon="104.25386"><ele>217.9</ele><time>2011-04-26T11:24:55.0000000+00:00</time></trkpt><trkpt lat="22.087914" lon="104.253822"><ele>218.1</ele><time>2011-04-26T11:25:00.0000000+00:00</time></trkpt><trkpt lat="22.087887" lon="104.253799"><ele>218.3</ele><time>2011-04-26T11:25:05.0000000+00:00</time></trkpt><trkpt lat="22.087864" lon="104.253799"><ele>218.7</ele><time>2011-04-26T11:25:10.0000000+00:00</time></trkpt><trkpt lat="22.08786" lon="104.253799"><ele>219.0</ele><time>2011-04-26T11:25:15.0000000+00:00</time></trkpt><trkpt lat="22.087845" lon="104.253815"><ele>219.5</ele><time>2011-04-26T11:25:20.0000000+00:00</time></trkpt><trkpt lat="22.087841" lon="104.253815"><ele>219.5</ele><time>2011-04-26T11:25:25.0000000+00:00</time></trkpt><trkpt lat="22.087818" lon="104.253838"><ele>219.3</ele><time>2011-04-26T11:25:30.0000000+00:00</time></trkpt><trkpt lat="22.08782" lon="104.25386"><ele>219.2</ele><time>2011-04-26T11:25:35.0000000+00:00</time></trkpt><trkpt lat="22.08782" lon="104.25386"><ele>219.2</ele><time>2011-04-26T11:25:40.0000000+00:00</time></trkpt><trkpt lat="22.08782" lon="104.253853"><ele>219.1</ele><time>2011-04-26T11:25:45.0000000+00:00</time></trkpt><trkpt lat="22.087795" lon="104.253822"><ele>219.1</ele><time>2011-04-26T11:25:50.0000000+00:00</time></trkpt><trkpt lat="22.08778" lon="104.25383"><ele>219.0</ele><time>2011-04-26T11:25:55.0000000+00:00</time></trkpt><trkpt lat="22.087784" lon="104.253815"><ele>219.3</ele><time>2011-04-26T11:26:00.0000000+00:00</time></trkpt><trkpt lat="22.08779" lon="104.253815"><ele>219.5</ele><time>2011-04-26T11:26:05.0000000+00:00</time></trkpt><trkpt lat="22.087793" lon="104.253815"><ele>219.5</ele><time>2011-04-26T11:26:10.0000000+00:00</time></trkpt><trkpt lat="22.08778" lon="104.253822"><ele>219.4</ele><time>2011-04-26T11:26:15.0000000+00:00</time></trkpt><trkpt lat="22.087755" lon="104.25386"><ele>219.5</ele><time>2011-04-26T11:26:20.0000000+00:00</time></trkpt><trkpt lat="22.087742" lon="104.253883"><ele>220.1</ele><time>2011-04-26T11:26:25.0000000+00:00</time></trkpt><trkpt lat="22.087727" lon="104.253883"><ele>220.3</ele><time>2011-04-26T11:26:30.0000000+00:00</time></trkpt><trkpt lat="22.087723" lon="104.253891"><ele>220.3</ele><time>2011-04-26T11:26:35.0000000+00:00</time></trkpt><trkpt lat="22.087725" lon="104.253891"><ele>220.3</ele><time>2011-04-26T11:26:40.0000000+00:00</time></trkpt><trkpt lat="22.08773" lon="104.253891"><ele>220.4</ele><time>2011-04-26T11:26:45.0000000+00:00</time></trkpt><trkpt lat="22.087765" lon="104.253853"><ele>220.9</ele><time>2011-04-26T11:26:50.0000000+00:00</time></trkpt><trkpt lat="22.087769" lon="104.253838"><ele>220.9</ele><time>2011-04-26T11:26:55.0000000+00:00</time></trkpt><trkpt lat="22.087772" lon="104.253822"><ele>221.5</ele><time>2011-04-26T11:27:00.0000000+00:00</time></trkpt><trkpt lat="22.087778" lon="104.253815"><ele>221.7</ele><time>2011-04-26T11:27:05.0000000+00:00</time></trkpt><trkpt lat="22.087799" lon="104.253799"><ele>221.8</ele><time>2011-04-26T11:27:10.0000000+00:00</time></trkpt><trkpt lat="22.087812" lon="104.25383"><ele>222.0</ele><time>2011-04-26T11:27:15.0000000+00:00</time></trkpt><trkpt lat="22.087801" lon="104.25383"><ele>221.9</ele><time>2011-04-26T11:27:20.0000000+00:00</time></trkpt><trkpt lat="22.087791" lon="104.25386"><ele>221.7</ele><time>2011-04-26T11:27:25.0000000+00:00</time></trkpt><trkpt lat="22.087791" lon="104.253876"><ele>221.6</ele><time>2011-04-26T11:27:30.0000000+00:00</time></trkpt><trkpt lat="22.087784" lon="104.253891"><ele>221.2</ele><time>2011-04-26T11:27:35.0000000+00:00</time></trkpt><trkpt lat="22.087776" lon="104.253906"><ele>220.9</ele><time>2011-04-26T11:27:40.0000000+00:00</time></trkpt><trkpt lat="22.08778" lon="104.253922"><ele>220.7</ele><time>2011-04-26T11:27:45.0000000+00:00</time></trkpt><trkpt lat="22.087784" lon="104.253922"><ele>220.6</ele><time>2011-04-26T11:27:50.0000000+00:00</time></trkpt><trkpt lat="22.087786" lon="104.253922"><ele>220.6</ele><time>2011-04-26T11:27:55.0000000+00:00</time></trkpt><trkpt lat="22.087786" lon="104.253922"><ele>220.6</ele><time>2011-04-26T11:28:00.0000000+00:00</time></trkpt><trkpt lat="22.087786" lon="104.253922"><ele>220.6</ele><time>2011-04-26T11:28:05.0000000+00:00</time></trkpt><trkpt lat="22.087793" lon="104.253922"><ele>220.6</ele><time>2011-04-26T11:28:10.0000000+00:00</time></trkpt><trkpt lat="22.087797" lon="104.253914"><ele>220.7</ele><time>2011-04-26T11:28:15.0000000+00:00</time></trkpt><trkpt lat="22.087801" lon="104.253899"><ele>220.6</ele><time>2011-04-26T11:28:20.0000000+00:00</time></trkpt><trkpt lat="22.087809" lon="104.253883"><ele>220.8</ele><time>2011-04-26T11:28:25.0000000+00:00</time></trkpt><trkpt lat="22.087818" lon="104.253883"><ele>220.8</ele><time>2011-04-26T11:28:30.0000000+00:00</time></trkpt><trkpt lat="22.087812" lon="104.253876"><ele>220.7</ele><time>2011-04-26T11:28:35.0000000+00:00</time></trkpt><trkpt lat="22.087818" lon="104.253883"><ele>220.7</ele><time>2011-04-26T11:28:40.0000000+00:00</time></trkpt><trkpt lat="22.087818" lon="104.253876"><ele>220.7</ele><time>2011-04-26T11:28:45.0000000+00:00</time></trkpt><trkpt lat="22.087824" lon="104.25386"><ele>220.4</ele><time>2011-04-26T11:28:50.0000000+00:00</time></trkpt><trkpt lat="22.087824" lon="104.253853"><ele>220.4</ele><time>2011-04-26T11:28:55.0000000+00:00</time></trkpt><trkpt lat="22.087818" lon="104.253845"><ele>220.1</ele><time>2011-04-26T11:29:00.0000000+00:00</time></trkpt><trkpt lat="22.087831" lon="104.253838"><ele>219.5</ele><time>2011-04-26T11:29:05.0000000+00:00</time></trkpt><trkpt lat="22.087828" lon="104.253838"><ele>219.6</ele><time>2011-04-26T11:29:10.0000000+00:00</time></trkpt><trkpt lat="22.087816" lon="104.253838"><ele>219.6</ele><time>2011-04-26T11:29:15.0000000+00:00</time></trkpt><trkpt lat="22.087807" lon="104.253838"><ele>219.5</ele><time>2011-04-26T11:29:20.0000000+00:00</time></trkpt><trkpt lat="22.087797" lon="104.253838"><ele>219.5</ele><time>2011-04-26T11:29:25.0000000+00:00</time></trkpt><trkpt lat="22.08779" lon="104.253838"><ele>219.5</ele><time>2011-04-26T11:29:30.0000000+00:00</time></trkpt><trkpt lat="22.087784" lon="104.253845"><ele>219.1</ele><time>2011-04-26T11:29:35.0000000+00:00</time></trkpt><trkpt lat="22.087803" lon="104.25383"><ele>218.9</ele><time>2011-04-26T11:29:40.0000000+00:00</time></trkpt><trkpt lat="22.087812" lon="104.253845"><ele>219.1</ele><time>2011-04-26T11:29:45.0000000+00:00</time></trkpt><trkpt lat="22.087837" lon="104.253853"><ele>218.8</ele><time>2011-04-26T11:29:50.0000000+00:00</time></trkpt><trkpt lat="22.087849" lon="104.253853"><ele>217.7</ele><time>2011-04-26T11:29:55.0000000+00:00</time></trkpt><trkpt lat="22.087856" lon="104.253838"><ele>217.1</ele><time>2011-04-26T11:30:00.0000000+00:00</time></trkpt><trkpt lat="22.087847" lon="104.253845"><ele>216.7</ele><time>2011-04-26T11:30:05.0000000+00:00</time></trkpt><trkpt lat="22.087847" lon="104.253845"><ele>216.7</ele><time>2011-04-26T11:30:10.0000000+00:00</time></trkpt><trkpt lat="22.087845" lon="104.253853"><ele>216.7</ele><time>2011-04-26T11:30:15.0000000+00:00</time></trkpt><trkpt lat="22.087852" lon="104.253853"><ele>216.6</ele><time>2011-04-26T11:30:20.0000000+00:00</time></trkpt><trkpt lat="22.08786" lon="104.253853"><ele>216.6</ele><time>2011-04-26T11:30:25.0000000+00:00</time></trkpt><trkpt lat="22.087866" lon="104.253853"><ele>216.5</ele><time>2011-04-26T11:30:30.0000000+00:00</time></trkpt><trkpt lat="22.08787" lon="104.253853"><ele>216.5</ele><time>2011-04-26T11:30:35.0000000+00:00</time></trkpt><trkpt lat="22.087862" lon="104.253853"><ele>216.5</ele><time>2011-04-26T11:30:40.0000000+00:00</time></trkpt><trkpt lat="22.087854" lon="104.253845"><ele>216.5</ele><time>2011-04-26T11:30:45.0000000+00:00</time></trkpt><trkpt lat="22.087851" lon="104.25386"><ele>216.4</ele><time>2011-04-26T11:30:50.0000000+00:00</time></trkpt></trkseg><trkseg><trkpt lat="22.088186" lon="104.254097"><ele>176.9</ele><time>2011-04-27T03:08:01.0000000+00:00</time></trkpt><trkpt lat="22.088142" lon="104.254051"><ele>176.9</ele><time>2011-04-27T03:08:06.0000000+00:00</time></trkpt><trkpt lat="22.088186" lon="104.254066"><ele>176.8</ele><time>2011-04-27T03:08:11.0000000+00:00</time></trkpt><trkpt lat="22.088305" lon="104.254082"><ele>176.9</ele><time>2011-04-27T03:08:16.0000000+00:00</time></trkpt><trkpt lat="22.088327" lon="104.254082"><ele>176.9</ele><time>2011-04-27T03:08:21.0000000+00:00</time></trkpt><trkpt lat="22.088409" lon="104.254105"><ele>177.1</ele><time>2011-04-27T03:08:26.0000000+00:00</time></trkpt><trkpt lat="22.088434" lon="104.254097"><ele>177.1</ele><time>2011-04-27T03:08:31.0000000+00:00</time></trkpt><trkpt lat="22.088423" lon="104.254105"><ele>177.1</ele><time>2011-04-27T03:08:36.0000000+00:00</time></trkpt><trkpt lat="22.088404" lon="104.254089"><ele>177.1</ele><time>2011-04-27T03:08:41.0000000+00:00</time></trkpt><trkpt lat="22.088408" lon="104.254089"><ele>177.1</ele><time>2011-04-27T03:08:46.0000000+00:00</time></trkpt><trkpt lat="22.088415" lon="104.254089"><ele>177.1</ele><time>2011-04-27T03:08:51.0000000+00:00</time></trkpt><trkpt lat="22.088408" lon="104.254089"><ele>177.1</ele><time>2011-04-27T03:08:56.0000000+00:00</time></trkpt><trkpt lat="22.088406" lon="104.254089"><ele>177.1</ele><time>2011-04-27T03:09:01.0000000+00:00</time></trkpt><trkpt lat="22.088406" lon="104.254097"><ele>177.1</ele><time>2011-04-27T03:09:06.0000000+00:00</time></trkpt><trkpt lat="22.088377" lon="104.254089"><ele>177.1</ele><time>2011-04-27T03:09:11.0000000+00:00</time></trkpt><trkpt lat="22.088284" lon="104.254066"><ele>177.0</ele><time>2011-04-27T03:09:16.0000000+00:00</time></trkpt><trkpt lat="22.088263" lon="104.254074"><ele>177.1</ele><time>2011-04-27T03:09:21.0000000+00:00</time></trkpt><trkpt lat="22.087618" lon="104.254036"><ele>214.4</ele><time>2011-04-27T03:09:26.0000000+00:00</time></trkpt><trkpt lat="22.087624" lon="104.254036"><ele>214.7</ele><time>2011-04-27T03:09:31.0000000+00:00</time></trkpt><trkpt lat="22.087626" lon="104.254028"><ele>214.8</ele><time>2011-04-27T03:09:36.0000000+00:00</time></trkpt><trkpt lat="22.087629" lon="104.254021"><ele>214.2</ele><time>2011-04-27T03:09:41.0000000+00:00</time></trkpt><trkpt lat="22.087654" lon="104.25399"><ele>211.5</ele><time>2011-04-27T03:09:46.0000000+00:00</time></trkpt><trkpt lat="22.08766" lon="104.25399"><ele>211.4</ele><time>2011-04-27T03:09:51.0000000+00:00</time></trkpt><trkpt lat="22.087666" lon="104.25399"><ele>211.3</ele><time>2011-04-27T03:09:56.0000000+00:00</time></trkpt><trkpt lat="22.087666" lon="104.253983"><ele>211.3</ele><time>2011-04-27T03:10:01.0000000+00:00</time></trkpt><trkpt lat="22.087662" lon="104.253983"><ele>211.2</ele><time>2011-04-27T03:10:06.0000000+00:00</time></trkpt><trkpt lat="22.087662" lon="104.253975"><ele>211.0</ele><time>2011-04-27T03:10:11.0000000+00:00</time></trkpt><trkpt lat="22.087683" lon="104.253967"><ele>210.4</ele><time>2011-04-27T03:10:16.0000000+00:00</time></trkpt><trkpt lat="22.087704" lon="104.253952"><ele>209.9</ele><time>2011-04-27T03:10:21.0000000+00:00</time></trkpt><trkpt lat="22.087696" lon="104.25396"><ele>209.8</ele><time>2011-04-27T03:10:26.0000000+00:00</time></trkpt><trkpt lat="22.087679" lon="104.253975"><ele>209.8</ele><time>2011-04-27T03:10:31.0000000+00:00</time></trkpt><trkpt lat="22.087673" lon="104.253975"><ele>209.7</ele><time>2011-04-27T03:10:36.0000000+00:00</time></trkpt><trkpt lat="22.087667" lon="104.253975"><ele>209.6</ele><time>2011-04-27T03:10:41.0000000+00:00</time></trkpt><trkpt lat="22.087652" lon="104.254005"><ele>209.6</ele><time>2011-04-27T03:10:46.0000000+00:00</time></trkpt><trkpt lat="22.087578" lon="104.254105"><ele>208.9</ele><time>2011-04-27T03:10:51.0000000+00:00</time></trkpt><trkpt lat="22.087545" lon="104.254219"><ele>205.5</ele><time>2011-04-27T03:10:56.0000000+00:00</time></trkpt><trkpt lat="22.08757" lon="104.254364"><ele>203.6</ele><time>2011-04-27T03:11:01.0000000+00:00</time></trkpt><trkpt lat="22.087696" lon="104.254417"><ele>203.6</ele><time>2011-04-27T03:11:06.0000000+00:00</time></trkpt><trkpt lat="22.087831" lon="104.254463"><ele>203.2</ele><time>2011-04-27T03:11:11.0000000+00:00</time></trkpt><trkpt lat="22.087963" lon="104.254471"><ele>200.8</ele><time>2011-04-27T03:11:16.0000000+00:00</time></trkpt><trkpt lat="22.088163" lon="104.254494"><ele>197.9</ele><time>2011-04-27T03:11:21.0000000+00:00</time></trkpt><trkpt lat="22.088322" lon="104.254509"><ele>194.9</ele><time>2011-04-27T03:11:26.0000000+00:00</time></trkpt><trkpt lat="22.088488" lon="104.254501"><ele>198.0</ele><time>2011-04-27T03:11:31.0000000+00:00</time></trkpt><trkpt lat="22.088667" lon="104.254501"><ele>198.4</ele><time>2011-04-27T03:11:36.0000000+00:00</time></trkpt><trkpt lat="22.088779" lon="104.254524"><ele>196.5</ele><time>2011-04-27T03:11:41.0000000+00:00</time></trkpt><trkpt lat="22.088917" lon="104.254539"><ele>195.2</ele><time>2011-04-27T03:11:46.0000000+00:00</time></trkpt><trkpt lat="22.089085" lon="104.254539"><ele>196.3</ele><time>2011-04-27T03:11:51.0000000+00:00</time></trkpt><trkpt lat="22.089252" lon="104.254532"><ele>194.0</ele><time>2011-04-27T03:11:56.0000000+00:00</time></trkpt><trkpt lat="22.089346" lon="104.254517"><ele>189.4</ele><time>2011-04-27T03:12:01.0000000+00:00</time></trkpt><trkpt lat="22.089413" lon="104.25444"><ele>189.4</ele><time>2011-04-27T03:12:06.0000000+00:00</time></trkpt><trkpt lat="22.089432" lon="104.254288"><ele>189.3</ele><time>2011-04-27T03:12:11.0000000+00:00</time></trkpt><trkpt lat="22.089508" lon="104.25412"><ele>191.7</ele><time>2011-04-27T03:12:16.0000000+00:00</time></trkpt><trkpt lat="22.089531" lon="104.25399"><ele>192.3</ele><time>2011-04-27T03:12:21.0000000+00:00</time></trkpt><trkpt lat="22.089537" lon="104.253868"><ele>192.3</ele><time>2011-04-27T03:12:26.0000000+00:00</time></trkpt><trkpt lat="22.08955" lon="104.253754"><ele>191.0</ele><time>2011-04-27T03:12:31.0000000+00:00</time></trkpt><trkpt lat="22.089571" lon="104.253639"><ele>192.3</ele><time>2011-04-27T03:12:36.0000000+00:00</time></trkpt><trkpt lat="22.089611" lon="104.253616"><ele>193.2</ele><time>2011-04-27T03:12:41.0000000+00:00</time></trkpt><trkpt lat="22.089607" lon="104.253609"><ele>193.7</ele><time>2011-04-27T03:12:46.0000000+00:00</time></trkpt><trkpt lat="22.089609" lon="104.253609"><ele>193.7</ele><time>2011-04-27T03:12:51.0000000+00:00</time></trkpt><trkpt lat="22.089621" lon="104.253624"><ele>194.6</ele><time>2011-04-27T03:12:56.0000000+00:00</time></trkpt><trkpt lat="22.089622" lon="104.253624"><ele>195.0</ele><time>2011-04-27T03:13:01.0000000+00:00</time></trkpt><trkpt lat="22.089613" lon="104.253632"><ele>195.2</ele><time>2011-04-27T03:13:06.0000000+00:00</time></trkpt><trkpt lat="22.089613" lon="104.253632"><ele>195.2</ele><time>2011-04-27T03:13:11.0000000+00:00</time></trkpt><trkpt lat="22.089613" lon="104.253632"><ele>195.2</ele><time>2011-04-27T03:13:16.0000000+00:00</time></trkpt><trkpt lat="22.089619" lon="104.253632"><ele>195.5</ele><time>2011-04-27T03:13:21.0000000+00:00</time></trkpt><trkpt lat="22.089626" lon="104.253632"><ele>196.2</ele><time>2011-04-27T03:13:26.0000000+00:00</time></trkpt><trkpt lat="22.089628" lon="104.253632"><ele>196.4</ele><time>2011-04-27T03:13:31.0000000+00:00</time></trkpt><trkpt lat="22.089632" lon="104.253632"><ele>196.5</ele><time>2011-04-27T03:13:36.0000000+00:00</time></trkpt><trkpt lat="22.089632" lon="104.253624"><ele>196.5</ele><time>2011-04-27T03:13:41.0000000+00:00</time></trkpt><trkpt lat="22.089634" lon="104.253624"><ele>196.5</ele><time>2011-04-27T03:13:46.0000000+00:00</time></trkpt><trkpt lat="22.089634" lon="104.253624"><ele>196.6</ele><time>2011-04-27T03:13:51.0000000+00:00</time></trkpt><trkpt lat="22.089634" lon="104.253624"><ele>196.6</ele><time>2011-04-27T03:13:56.0000000+00:00</time></trkpt><trkpt lat="22.089632" lon="104.253632"><ele>196.6</ele><time>2011-04-27T03:14:01.0000000+00:00</time></trkpt><trkpt lat="22.089632" lon="104.253632"><ele>196.5</ele><time>2011-04-27T03:14:06.0000000+00:00</time></trkpt><trkpt lat="22.089632" lon="104.253632"><ele>196.5</ele><time>2011-04-27T03:14:11.0000000+00:00</time></trkpt><trkpt lat="22.089632" lon="104.253632"><ele>196.5</ele><time>2011-04-27T03:14:16.0000000+00:00</time></trkpt><trkpt lat="22.08963" lon="104.253632"><ele>196.6</ele><time>2011-04-27T03:14:21.0000000+00:00</time></trkpt><trkpt lat="22.08963" lon="104.253632"><ele>196.5</ele><time>2011-04-27T03:14:26.0000000+00:00</time></trkpt><trkpt lat="22.08963" lon="104.253632"><ele>196.6</ele><time>2011-04-27T03:14:31.0000000+00:00</time></trkpt><trkpt lat="22.08963" lon="104.253632"><ele>196.6</ele><time>2011-04-27T03:14:36.0000000+00:00</time></trkpt><trkpt lat="22.08963" lon="104.253632"><ele>196.6</ele><time>2011-04-27T03:14:41.0000000+00:00</time></trkpt><trkpt lat="22.08963" lon="104.253632"><ele>196.6</ele><time>2011-04-27T03:14:46.0000000+00:00</time></trkpt><trkpt lat="22.08963" lon="104.253632"><ele>196.5</ele><time>2011-04-27T03:14:51.0000000+00:00</time></trkpt><trkpt lat="22.08963" lon="104.253632"><ele>196.5</ele><time>2011-04-27T03:14:56.0000000+00:00</time></trkpt><trkpt lat="22.08963" lon="104.253632"><ele>196.5</ele><time>2011-04-27T03:15:01.0000000+00:00</time></trkpt><trkpt lat="22.089628" lon="104.253632"><ele>196.4</ele><time>2011-04-27T03:15:06.0000000+00:00</time></trkpt><trkpt lat="22.089628" lon="104.253632"><ele>196.4</ele><time>2011-04-27T03:15:11.0000000+00:00</time></trkpt><trkpt lat="22.089628" lon="104.253632"><ele>196.5</ele><time>2011-04-27T03:15:16.0000000+00:00</time></trkpt><trkpt lat="22.089628" lon="104.253632"><ele>196.4</ele><time>2011-04-27T03:15:21.0000000+00:00</time></trkpt><trkpt lat="22.089628" lon="104.253632"><ele>196.4</ele><time>2011-04-27T03:15:26.0000000+00:00</time></trkpt><trkpt lat="22.089628" lon="104.253632"><ele>196.4</ele><time>2011-04-27T03:15:31.0000000+00:00</time></trkpt><trkpt lat="22.089626" lon="104.253632"><ele>196.4</ele><time>2011-04-27T03:15:36.0000000+00:00</time></trkpt><trkpt lat="22.089626" lon="104.253632"><ele>196.4</ele><time>2011-04-27T03:15:41.0000000+00:00</time></trkpt><trkpt lat="22.089626" lon="104.253632"><ele>196.4</ele><time>2011-04-27T03:15:46.0000000+00:00</time></trkpt><trkpt lat="22.089624" lon="104.253632"><ele>196.6</ele><time>2011-04-27T03:15:51.0000000+00:00</time></trkpt><trkpt lat="22.089613" lon="104.253654"><ele>197.3</ele><time>2011-04-27T03:15:56.0000000+00:00</time></trkpt><trkpt lat="22.089598" lon="104.253677"><ele>198.8</ele><time>2011-04-27T03:16:01.0000000+00:00</time></trkpt><trkpt lat="22.089586" lon="104.2537"><ele>200.4</ele><time>2011-04-27T03:16:06.0000000+00:00</time></trkpt><trkpt lat="22.089573" lon="104.253708"><ele>200.8</ele><time>2011-04-27T03:16:11.0000000+00:00</time></trkpt><trkpt lat="22.08956" lon="104.253723"><ele>201.9</ele><time>2011-04-27T03:16:16.0000000+00:00</time></trkpt><trkpt lat="22.089548" lon="104.253731"><ele>202.3</ele><time>2011-04-27T03:16:21.0000000+00:00</time></trkpt><trkpt lat="22.089567" lon="104.253716"><ele>204.6</ele><time>2011-04-27T03:16:26.0000000+00:00</time></trkpt><trkpt lat="22.089577" lon="104.2537"><ele>205.7</ele><time>2011-04-27T03:16:31.0000000+00:00</time></trkpt><trkpt lat="22.089577" lon="104.253693"><ele>206.1</ele><time>2011-04-27T03:16:36.0000000+00:00</time></trkpt><trkpt lat="22.089577" lon="104.253693"><ele>206.2</ele><time>2011-04-27T03:16:41.0000000+00:00</time></trkpt><trkpt lat="22.089579" lon="104.253693"><ele>206.2</ele><time>2011-04-27T03:16:46.0000000+00:00</time></trkpt><trkpt lat="22.089579" lon="104.253693"><ele>206.2</ele><time>2011-04-27T03:16:51.0000000+00:00</time></trkpt><trkpt lat="22.089579" lon="104.253693"><ele>206.2</ele><time>2011-04-27T03:16:56.0000000+00:00</time></trkpt><trkpt lat="22.089579" lon="104.253693"><ele>206.2</ele><time>2011-04-27T03:17:01.0000000+00:00</time></trkpt><trkpt lat="22.089581" lon="104.253693"><ele>206.2</ele><time>2011-04-27T03:17:06.0000000+00:00</time></trkpt><trkpt lat="22.089581" lon="104.253693"><ele>206.3</ele><time>2011-04-27T03:17:11.0000000+00:00</time></trkpt><trkpt lat="22.089581" lon="104.253693"><ele>206.3</ele><time>2011-04-27T03:17:16.0000000+00:00</time></trkpt><trkpt lat="22.089581" lon="104.253693"><ele>206.3</ele><time>2011-04-27T03:17:21.0000000+00:00</time></trkpt><trkpt lat="22.089581" lon="104.253693"><ele>206.3</ele><time>2011-04-27T03:17:26.0000000+00:00</time></trkpt><trkpt lat="22.089581" lon="104.253693"><ele>206.4</ele><time>2011-04-27T03:17:31.0000000+00:00</time></trkpt><trkpt lat="22.089581" lon="104.253693"><ele>206.4</ele><time>2011-04-27T03:17:36.0000000+00:00</time></trkpt><trkpt lat="22.089581" lon="104.253693"><ele>206.5</ele><time>2011-04-27T03:17:41.0000000+00:00</time></trkpt><trkpt lat="22.089581" lon="104.253693"><ele>206.5</ele><time>2011-04-27T03:17:46.0000000+00:00</time></trkpt><trkpt lat="22.089582" lon="104.253693"><ele>206.5</ele><time>2011-04-27T03:17:51.0000000+00:00</time></trkpt><trkpt lat="22.089582" lon="104.253693"><ele>206.5</ele><time>2011-04-27T03:17:56.0000000+00:00</time></trkpt><trkpt lat="22.089582" lon="104.253685"><ele>206.6</ele><time>2011-04-27T03:18:01.0000000+00:00</time></trkpt><trkpt lat="22.089582" lon="104.253693"><ele>206.6</ele><time>2011-04-27T03:18:06.0000000+00:00</time></trkpt><trkpt lat="22.089582" lon="104.253693"><ele>206.6</ele><time>2011-04-27T03:18:11.0000000+00:00</time></trkpt><trkpt lat="22.089582" lon="104.253685"><ele>206.6</ele><time>2011-04-27T03:18:16.0000000+00:00</time></trkpt><trkpt lat="22.089584" lon="104.253685"><ele>206.5</ele><time>2011-04-27T03:18:21.0000000+00:00</time></trkpt><trkpt lat="22.089584" lon="104.253685"><ele>206.5</ele><time>2011-04-27T03:18:26.0000000+00:00</time></trkpt><trkpt lat="22.089584" lon="104.253693"><ele>206.5</ele><time>2011-04-27T03:18:31.0000000+00:00</time></trkpt><trkpt lat="22.089584" lon="104.253693"><ele>206.5</ele><time>2011-04-27T03:18:36.0000000+00:00</time></trkpt><trkpt lat="22.089584" lon="104.253693"><ele>206.4</ele><time>2011-04-27T03:18:41.0000000+00:00</time></trkpt><trkpt lat="22.089584" lon="104.253685"><ele>206.4</ele><time>2011-04-27T03:18:46.0000000+00:00</time></trkpt><trkpt lat="22.089584" lon="104.253685"><ele>206.5</ele><time>2011-04-27T03:18:51.0000000+00:00</time></trkpt><trkpt lat="22.089586" lon="104.253685"><ele>206.5</ele><time>2011-04-27T03:18:56.0000000+00:00</time></trkpt><trkpt lat="22.089586" lon="104.253685"><ele>206.6</ele><time>2011-04-27T03:19:01.0000000+00:00</time></trkpt><trkpt lat="22.089586" lon="104.253685"><ele>206.6</ele><time>2011-04-27T03:19:06.0000000+00:00</time></trkpt><trkpt lat="22.089586" lon="104.253685"><ele>206.6</ele><time>2011-04-27T03:19:11.0000000+00:00</time></trkpt><trkpt lat="22.089588" lon="104.253685"><ele>206.7</ele><time>2011-04-27T03:19:16.0000000+00:00</time></trkpt><trkpt lat="22.089588" lon="104.253685"><ele>206.8</ele><time>2011-04-27T03:19:21.0000000+00:00</time></trkpt><trkpt lat="22.08959" lon="104.253685"><ele>206.9</ele><time>2011-04-27T03:19:26.0000000+00:00</time></trkpt><trkpt lat="22.089592" lon="104.253685"><ele>207.0</ele><time>2011-04-27T03:19:31.0000000+00:00</time></trkpt><trkpt lat="22.089592" lon="104.253685"><ele>207.1</ele><time>2011-04-27T03:19:36.0000000+00:00</time></trkpt><trkpt lat="22.089594" lon="104.253685"><ele>207.1</ele><time>2011-04-27T03:19:41.0000000+00:00</time></trkpt><trkpt lat="22.089594" lon="104.253685"><ele>207.2</ele><time>2011-04-27T03:19:46.0000000+00:00</time></trkpt><trkpt lat="22.089596" lon="104.253685"><ele>207.2</ele><time>2011-04-27T03:19:51.0000000+00:00</time></trkpt><trkpt lat="22.089596" lon="104.253685"><ele>207.3</ele><time>2011-04-27T03:19:56.0000000+00:00</time></trkpt><trkpt lat="22.089598" lon="104.253685"><ele>207.3</ele><time>2011-04-27T03:20:01.0000000+00:00</time></trkpt><trkpt lat="22.089598" lon="104.253685"><ele>207.4</ele><time>2011-04-27T03:20:06.0000000+00:00</time></trkpt><trkpt lat="22.089598" lon="104.253685"><ele>207.4</ele><time>2011-04-27T03:20:11.0000000+00:00</time></trkpt><trkpt lat="22.089598" lon="104.253685"><ele>207.4</ele><time>2011-04-27T03:20:16.0000000+00:00</time></trkpt><trkpt lat="22.0896" lon="104.253685"><ele>207.4</ele><time>2011-04-27T03:20:21.0000000+00:00</time></trkpt><trkpt lat="22.0896" lon="104.253685"><ele>207.5</ele><time>2011-04-27T03:20:26.0000000+00:00</time></trkpt><trkpt lat="22.0896" lon="104.253685"><ele>207.6</ele><time>2011-04-27T03:20:31.0000000+00:00</time></trkpt><trkpt lat="22.0896" lon="104.253685"><ele>207.7</ele><time>2011-04-27T03:20:36.0000000+00:00</time></trkpt><trkpt lat="22.0896" lon="104.253685"><ele>207.7</ele><time>2011-04-27T03:20:41.0000000+00:00</time></trkpt><trkpt lat="22.0896" lon="104.253685"><ele>207.8</ele><time>2011-04-27T03:20:46.0000000+00:00</time></trkpt><trkpt lat="22.0896" lon="104.253685"><ele>207.8</ele><time>2011-04-27T03:20:51.0000000+00:00</time></trkpt><trkpt lat="22.0896" lon="104.253685"><ele>207.9</ele><time>2011-04-27T03:20:56.0000000+00:00</time></trkpt><trkpt lat="22.0896" lon="104.253685"><ele>207.9</ele><time>2011-04-27T03:21:01.0000000+00:00</time></trkpt><trkpt lat="22.0896" lon="104.253685"><ele>207.9</ele><time>2011-04-27T03:21:06.0000000+00:00</time></trkpt><trkpt lat="22.0896" lon="104.253685"><ele>208.0</ele><time>2011-04-27T03:21:11.0000000+00:00</time></trkpt><trkpt lat="22.0896" lon="104.253685"><ele>208.1</ele><time>2011-04-27T03:21:16.0000000+00:00</time></trkpt><trkpt lat="22.089602" lon="104.253685"><ele>208.2</ele><time>2011-04-27T03:21:21.0000000+00:00</time></trkpt><trkpt lat="22.089602" lon="104.253685"><ele>208.3</ele><time>2011-04-27T03:21:26.0000000+00:00</time></trkpt><trkpt lat="22.089602" lon="104.253685"><ele>208.3</ele><time>2011-04-27T03:21:31.0000000+00:00</time></trkpt><trkpt lat="22.089602" lon="104.253685"><ele>208.4</ele><time>2011-04-27T03:21:36.0000000+00:00</time></trkpt><trkpt lat="22.089603" lon="104.253677"><ele>208.4</ele><time>2011-04-27T03:21:41.0000000+00:00</time></trkpt><trkpt lat="22.089603" lon="104.253677"><ele>208.5</ele><time>2011-04-27T03:21:46.0000000+00:00</time></trkpt><trkpt lat="22.089603" lon="104.253677"><ele>208.5</ele><time>2011-04-27T03:21:51.0000000+00:00</time></trkpt><trkpt lat="22.089603" lon="104.253677"><ele>208.5</ele><time>2011-04-27T03:21:56.0000000+00:00</time></trkpt><trkpt lat="22.089603" lon="104.253677"><ele>208.5</ele><time>2011-04-27T03:22:01.0000000+00:00</time></trkpt><trkpt lat="22.089603" lon="104.253677"><ele>208.5</ele><time>2011-04-27T03:22:06.0000000+00:00</time></trkpt><trkpt lat="22.089605" lon="104.253677"><ele>208.6</ele><time>2011-04-27T03:22:11.0000000+00:00</time></trkpt><trkpt lat="22.089605" lon="104.253677"><ele>208.7</ele><time>2011-04-27T03:22:16.0000000+00:00</time></trkpt><trkpt lat="22.089607" lon="104.253677"><ele>208.7</ele><time>2011-04-27T03:22:21.0000000+00:00</time></trkpt><trkpt lat="22.089607" lon="104.253677"><ele>208.7</ele><time>2011-04-27T03:22:26.0000000+00:00</time></trkpt><trkpt lat="22.089607" lon="104.253677"><ele>208.7</ele><time>2011-04-27T03:22:31.0000000+00:00</time></trkpt><trkpt lat="22.089607" lon="104.253677"><ele>208.7</ele><time>2011-04-27T03:22:36.0000000+00:00</time></trkpt><trkpt lat="22.089609" lon="104.253677"><ele>208.7</ele><time>2011-04-27T03:22:41.0000000+00:00</time></trkpt><trkpt lat="22.089609" lon="104.253677"><ele>208.7</ele><time>2011-04-27T03:22:46.0000000+00:00</time></trkpt><trkpt lat="22.089609" lon="104.253677"><ele>208.7</ele><time>2011-04-27T03:22:51.0000000+00:00</time></trkpt><trkpt lat="22.089609" lon="104.253677"><ele>208.7</ele><time>2011-04-27T03:22:56.0000000+00:00</time></trkpt><trkpt lat="22.089609" lon="104.253677"><ele>208.7</ele><time>2011-04-27T03:23:01.0000000+00:00</time></trkpt><trkpt lat="22.089609" lon="104.253677"><ele>208.7</ele><time>2011-04-27T03:23:06.0000000+00:00</time></trkpt><trkpt lat="22.089609" lon="104.253677"><ele>208.8</ele><time>2011-04-27T03:23:11.0000000+00:00</time></trkpt><trkpt lat="22.089609" lon="104.253677"><ele>208.8</ele><time>2011-04-27T03:23:16.0000000+00:00</time></trkpt><trkpt lat="22.089611" lon="104.253677"><ele>208.8</ele><time>2011-04-27T03:23:21.0000000+00:00</time></trkpt><trkpt lat="22.089611" lon="104.253677"><ele>208.9</ele><time>2011-04-27T03:23:26.0000000+00:00</time></trkpt><trkpt lat="22.089611" lon="104.253677"><ele>208.9</ele><time>2011-04-27T03:23:31.0000000+00:00</time></trkpt><trkpt lat="22.089611" lon="104.253677"><ele>208.9</ele><time>2011-04-27T03:23:36.0000000+00:00</time></trkpt><trkpt lat="22.089611" lon="104.253677"><ele>209.0</ele><time>2011-04-27T03:23:41.0000000+00:00</time></trkpt><trkpt lat="22.089611" lon="104.253677"><ele>209.0</ele><time>2011-04-27T03:23:46.0000000+00:00</time></trkpt><trkpt lat="22.089611" lon="104.253677"><ele>209.0</ele><time>2011-04-27T03:23:51.0000000+00:00</time></trkpt><trkpt lat="22.089611" lon="104.253677"><ele>209.0</ele><time>2011-04-27T03:23:56.0000000+00:00</time></trkpt><trkpt lat="22.089613" lon="104.25367"><ele>209.1</ele><time>2011-04-27T03:24:01.0000000+00:00</time></trkpt><trkpt lat="22.089613" lon="104.25367"><ele>209.2</ele><time>2011-04-27T03:24:06.0000000+00:00</time></trkpt><trkpt lat="22.089615" lon="104.25367"><ele>209.2</ele><time>2011-04-27T03:24:11.0000000+00:00</time></trkpt><trkpt lat="22.089615" lon="104.25367"><ele>209.3</ele><time>2011-04-27T03:24:16.0000000+00:00</time></trkpt><trkpt lat="22.089615" lon="104.25367"><ele>209.3</ele><time>2011-04-27T03:24:21.0000000+00:00</time></trkpt><trkpt lat="22.089615" lon="104.25367"><ele>209.4</ele><time>2011-04-27T03:24:26.0000000+00:00</time></trkpt><trkpt lat="22.089615" lon="104.25367"><ele>209.4</ele><time>2011-04-27T03:24:31.0000000+00:00</time></trkpt><trkpt lat="22.089615" lon="104.25367"><ele>209.4</ele><time>2011-04-27T03:24:36.0000000+00:00</time></trkpt><trkpt lat="22.089615" lon="104.25367"><ele>209.4</ele><time>2011-04-27T03:24:41.0000000+00:00</time></trkpt><trkpt lat="22.089615" lon="104.25367"><ele>209.4</ele><time>2011-04-27T03:24:46.0000000+00:00</time></trkpt><trkpt lat="22.089617" lon="104.25367"><ele>209.4</ele><time>2011-04-27T03:24:51.0000000+00:00</time></trkpt><trkpt lat="22.089617" lon="104.25367"><ele>209.4</ele><time>2011-04-27T03:24:56.0000000+00:00</time></trkpt><trkpt lat="22.089617" lon="104.25367"><ele>209.5</ele><time>2011-04-27T03:25:01.0000000+00:00</time></trkpt><trkpt lat="22.089617" lon="104.25367"><ele>209.5</ele><time>2011-04-27T03:25:06.0000000+00:00</time></trkpt><trkpt lat="22.089617" lon="104.25367"><ele>209.5</ele><time>2011-04-27T03:25:11.0000000+00:00</time></trkpt><trkpt lat="22.089617" lon="104.25367"><ele>209.4</ele><time>2011-04-27T03:25:16.0000000+00:00</time></trkpt><trkpt lat="22.089617" lon="104.25367"><ele>209.4</ele><time>2011-04-27T03:25:21.0000000+00:00</time></trkpt><trkpt lat="22.089617" lon="104.25367"><ele>209.4</ele><time>2011-04-27T03:25:26.0000000+00:00</time></trkpt><trkpt lat="22.089617" lon="104.25367"><ele>209.4</ele><time>2011-04-27T03:25:31.0000000+00:00</time></trkpt><trkpt lat="22.089617" lon="104.25367"><ele>209.4</ele><time>2011-04-27T03:25:36.0000000+00:00</time></trkpt><trkpt lat="22.089617" lon="104.25367"><ele>209.4</ele><time>2011-04-27T03:25:41.0000000+00:00</time></trkpt><trkpt lat="22.089617" lon="104.25367"><ele>209.4</ele><time>2011-04-27T03:25:46.0000000+00:00</time></trkpt><trkpt lat="22.089617" lon="104.25367"><ele>209.4</ele><time>2011-04-27T03:25:51.0000000+00:00</time></trkpt><trkpt lat="22.089617" lon="104.25367"><ele>209.4</ele><time>2011-04-27T03:25:56.0000000+00:00</time></trkpt><trkpt lat="22.089619" lon="104.25367"><ele>209.5</ele><time>2011-04-27T03:26:01.0000000+00:00</time></trkpt><trkpt lat="22.089619" lon="104.25367"><ele>209.6</ele><time>2011-04-27T03:26:06.0000000+00:00</time></trkpt><trkpt lat="22.089619" lon="104.25367"><ele>209.6</ele><time>2011-04-27T03:26:11.0000000+00:00</time></trkpt><trkpt lat="22.089619" lon="104.25367"><ele>209.7</ele><time>2011-04-27T03:26:16.0000000+00:00</time></trkpt><trkpt lat="22.089619" lon="104.25367"><ele>209.7</ele><time>2011-04-27T03:26:21.0000000+00:00</time></trkpt><trkpt lat="22.089617" lon="104.25367"><ele>209.8</ele><time>2011-04-27T03:26:26.0000000+00:00</time></trkpt><trkpt lat="22.089617" lon="104.25367"><ele>209.9</ele><time>2011-04-27T03:26:31.0000000+00:00</time></trkpt><trkpt lat="22.089617" lon="104.25367"><ele>209.9</ele><time>2011-04-27T03:26:36.0000000+00:00</time></trkpt><trkpt lat="22.089617" lon="104.25367"><ele>210.0</ele><time>2011-04-27T03:26:41.0000000+00:00</time></trkpt><trkpt lat="22.089617" lon="104.25367"><ele>210.0</ele><time>2011-04-27T03:26:46.0000000+00:00</time></trkpt><trkpt lat="22.089617" lon="104.25367"><ele>210.1</ele><time>2011-04-27T03:26:51.0000000+00:00</time></trkpt><trkpt lat="22.089619" lon="104.25367"><ele>210.1</ele><time>2011-04-27T03:26:56.0000000+00:00</time></trkpt><trkpt lat="22.089619" lon="104.25367"><ele>210.1</ele><time>2011-04-27T03:27:01.0000000+00:00</time></trkpt><trkpt lat="22.089619" lon="104.25367"><ele>210.1</ele><time>2011-04-27T03:27:06.0000000+00:00</time></trkpt><trkpt lat="22.089619" lon="104.25367"><ele>210.1</ele><time>2011-04-27T03:27:11.0000000+00:00</time></trkpt><trkpt lat="22.089619" lon="104.25367"><ele>210.1</ele><time>2011-04-27T03:27:16.0000000+00:00</time></trkpt><trkpt lat="22.089619" lon="104.25367"><ele>210.2</ele><time>2011-04-27T03:27:21.0000000+00:00</time></trkpt><trkpt lat="22.089619" lon="104.25367"><ele>210.2</ele><time>2011-04-27T03:27:26.0000000+00:00</time></trkpt><trkpt lat="22.089619" lon="104.25367"><ele>210.2</ele><time>2011-04-27T03:27:31.0000000+00:00</time></trkpt><trkpt lat="22.089619" lon="104.25367"><ele>210.2</ele><time>2011-04-27T03:27:36.0000000+00:00</time></trkpt><trkpt lat="22.089619" lon="104.25367"><ele>210.2</ele><time>2011-04-27T03:27:41.0000000+00:00</time></trkpt><trkpt lat="22.089619" lon="104.25367"><ele>210.2</ele><time>2011-04-27T03:27:46.0000000+00:00</time></trkpt><trkpt lat="22.089621" lon="104.25367"><ele>210.2</ele><time>2011-04-27T03:27:51.0000000+00:00</time></trkpt><trkpt lat="22.089621" lon="104.25367"><ele>210.2</ele><time>2011-04-27T03:27:56.0000000+00:00</time></trkpt><trkpt lat="22.089619" lon="104.25367"><ele>210.2</ele><time>2011-04-27T03:28:01.0000000+00:00</time></trkpt><trkpt lat="22.089619" lon="104.25367"><ele>210.2</ele><time>2011-04-27T03:28:06.0000000+00:00</time></trkpt><trkpt lat="22.089619" lon="104.25367"><ele>210.2</ele><time>2011-04-27T03:28:11.0000000+00:00</time></trkpt><trkpt lat="22.089619" lon="104.25367"><ele>210.2</ele><time>2011-04-27T03:28:16.0000000+00:00</time></trkpt><trkpt lat="22.089617" lon="104.25367"><ele>210.2</ele><time>2011-04-27T03:28:21.0000000+00:00</time></trkpt><trkpt lat="22.089617" lon="104.25367"><ele>210.2</ele><time>2011-04-27T03:28:26.0000000+00:00</time></trkpt><trkpt lat="22.089619" lon="104.25367"><ele>210.1</ele><time>2011-04-27T03:28:31.0000000+00:00</time></trkpt><trkpt lat="22.089617" lon="104.25367"><ele>210.1</ele><time>2011-04-27T03:28:36.0000000+00:00</time></trkpt><trkpt lat="22.089619" lon="104.25367"><ele>210.2</ele><time>2011-04-27T03:28:41.0000000+00:00</time></trkpt><trkpt lat="22.089619" lon="104.25367"><ele>210.2</ele><time>2011-04-27T03:28:46.0000000+00:00</time></trkpt><trkpt lat="22.089619" lon="104.25367"><ele>210.2</ele><time>2011-04-27T03:28:51.0000000+00:00</time></trkpt><trkpt lat="22.089619" lon="104.25367"><ele>210.2</ele><time>2011-04-27T03:28:56.0000000+00:00</time></trkpt><trkpt lat="22.089619" lon="104.25367"><ele>210.3</ele><time>2011-04-27T03:29:01.0000000+00:00</time></trkpt><trkpt lat="22.089619" lon="104.25367"><ele>210.3</ele><time>2011-04-27T03:29:06.0000000+00:00</time></trkpt><trkpt lat="22.089619" lon="104.25367"><ele>210.3</ele><time>2011-04-27T03:29:11.0000000+00:00</time></trkpt><trkpt lat="22.089619" lon="104.25367"><ele>210.3</ele><time>2011-04-27T03:29:16.0000000+00:00</time></trkpt><trkpt lat="22.089619" lon="104.25367"><ele>210.4</ele><time>2011-04-27T03:29:21.0000000+00:00</time></trkpt><trkpt lat="22.089619" lon="104.25367"><ele>210.4</ele><time>2011-04-27T03:29:26.0000000+00:00</time></trkpt><trkpt lat="22.089619" lon="104.253677"><ele>210.4</ele><time>2011-04-27T03:29:31.0000000+00:00</time></trkpt><trkpt lat="22.089619" lon="104.253677"><ele>210.4</ele><time>2011-04-27T03:29:36.0000000+00:00</time></trkpt><trkpt lat="22.089619" lon="104.253677"><ele>210.4</ele><time>2011-04-27T03:29:41.0000000+00:00</time></trkpt><trkpt lat="22.089619" lon="104.253677"><ele>210.4</ele><time>2011-04-27T03:29:46.0000000+00:00</time></trkpt><trkpt lat="22.089619" lon="104.253677"><ele>210.4</ele><time>2011-04-27T03:29:51.0000000+00:00</time></trkpt><trkpt lat="22.089619" lon="104.253677"><ele>210.5</ele><time>2011-04-27T03:29:56.0000000+00:00</time></trkpt><trkpt lat="22.089619" lon="104.253677"><ele>210.5</ele><time>2011-04-27T03:30:01.0000000+00:00</time></trkpt><trkpt lat="22.089619" lon="104.253677"><ele>210.6</ele><time>2011-04-27T03:30:06.0000000+00:00</time></trkpt><trkpt lat="22.089619" lon="104.253677"><ele>210.6</ele><time>2011-04-27T03:30:11.0000000+00:00</time></trkpt><trkpt lat="22.089621" lon="104.253677"><ele>210.7</ele><time>2011-04-27T03:30:16.0000000+00:00</time></trkpt><trkpt lat="22.089621" lon="104.253677"><ele>210.7</ele><time>2011-04-27T03:30:21.0000000+00:00</time></trkpt><trkpt lat="22.089621" lon="104.253677"><ele>210.8</ele><time>2011-04-27T03:30:26.0000000+00:00</time></trkpt><trkpt lat="22.089621" lon="104.253677"><ele>210.8</ele><time>2011-04-27T03:30:31.0000000+00:00</time></trkpt><trkpt lat="22.089621" lon="104.253677"><ele>210.9</ele><time>2011-04-27T03:30:36.0000000+00:00</time></trkpt><trkpt lat="22.089621" lon="104.253677"><ele>210.9</ele><time>2011-04-27T03:30:41.0000000+00:00</time></trkpt><trkpt lat="22.089621" lon="104.253677"><ele>210.9</ele><time>2011-04-27T03:30:46.0000000+00:00</time></trkpt><trkpt lat="22.089622" lon="104.253677"><ele>210.8</ele><time>2011-04-27T03:30:51.0000000+00:00</time></trkpt><trkpt lat="22.089622" lon="104.253677"><ele>210.9</ele><time>2011-04-27T03:30:56.0000000+00:00</time></trkpt><trkpt lat="22.089622" lon="104.253677"><ele>210.9</ele><time>2011-04-27T03:31:01.0000000+00:00</time></trkpt><trkpt lat="22.089622" lon="104.253677"><ele>210.9</ele><time>2011-04-27T03:31:06.0000000+00:00</time></trkpt><trkpt lat="22.089622" lon="104.253677"><ele>210.9</ele><time>2011-04-27T03:31:11.0000000+00:00</time></trkpt><trkpt lat="22.089622" lon="104.253677"><ele>210.9</ele><time>2011-04-27T03:31:16.0000000+00:00</time></trkpt><trkpt lat="22.089622" lon="104.253677"><ele>210.9</ele><time>2011-04-27T03:31:21.0000000+00:00</time></trkpt><trkpt lat="22.089622" lon="104.253677"><ele>211.0</ele><time>2011-04-27T03:31:26.0000000+00:00</time></trkpt><trkpt lat="22.089622" lon="104.253677"><ele>211.0</ele><time>2011-04-27T03:31:31.0000000+00:00</time></trkpt><trkpt lat="22.089622" lon="104.253677"><ele>211.0</ele><time>2011-04-27T03:31:36.0000000+00:00</time></trkpt><trkpt lat="22.089622" lon="104.253677"><ele>211.0</ele><time>2011-04-27T03:31:41.0000000+00:00</time></trkpt><trkpt lat="22.089622" lon="104.253677"><ele>211.0</ele><time>2011-04-27T03:31:46.0000000+00:00</time></trkpt><trkpt lat="22.089624" lon="104.253677"><ele>211.0</ele><time>2011-04-27T03:31:51.0000000+00:00</time></trkpt><trkpt lat="22.089624" lon="104.253677"><ele>211.1</ele><time>2011-04-27T03:31:56.0000000+00:00</time></trkpt><trkpt lat="22.089624" lon="104.253677"><ele>211.1</ele><time>2011-04-27T03:32:01.0000000+00:00</time></trkpt><trkpt lat="22.089624" lon="104.253677"><ele>211.1</ele><time>2011-04-27T03:32:06.0000000+00:00</time></trkpt><trkpt lat="22.089624" lon="104.253677"><ele>211.1</ele><time>2011-04-27T03:32:11.0000000+00:00</time></trkpt><trkpt lat="22.089624" lon="104.253677"><ele>211.1</ele><time>2011-04-27T03:32:16.0000000+00:00</time></trkpt><trkpt lat="22.089626" lon="104.253677"><ele>211.2</ele><time>2011-04-27T03:32:21.0000000+00:00</time></trkpt><trkpt lat="22.089626" lon="104.253677"><ele>211.2</ele><time>2011-04-27T03:32:26.0000000+00:00</time></trkpt><trkpt lat="22.089626" lon="104.253677"><ele>211.2</ele><time>2011-04-27T03:32:31.0000000+00:00</time></trkpt><trkpt lat="22.089626" lon="104.253677"><ele>211.2</ele><time>2011-04-27T03:32:36.0000000+00:00</time></trkpt><trkpt lat="22.089626" lon="104.253677"><ele>211.2</ele><time>2011-04-27T03:32:41.0000000+00:00</time></trkpt><trkpt lat="22.089626" lon="104.253677"><ele>211.2</ele><time>2011-04-27T03:32:46.0000000+00:00</time></trkpt><trkpt lat="22.089626" lon="104.253677"><ele>211.2</ele><time>2011-04-27T03:32:51.0000000+00:00</time></trkpt><trkpt lat="22.089626" lon="104.253677"><ele>211.2</ele><time>2011-04-27T03:32:56.0000000+00:00</time></trkpt><trkpt lat="22.089626" lon="104.253677"><ele>211.2</ele><time>2011-04-27T03:33:01.0000000+00:00</time></trkpt><trkpt lat="22.089628" lon="104.253677"><ele>211.3</ele><time>2011-04-27T03:33:06.0000000+00:00</time></trkpt><trkpt lat="22.089628" lon="104.253677"><ele>211.3</ele><time>2011-04-27T03:33:11.0000000+00:00</time></trkpt><trkpt lat="22.089628" lon="104.253677"><ele>211.2</ele><time>2011-04-27T03:33:16.0000000+00:00</time></trkpt><trkpt lat="22.089628" lon="104.253677"><ele>211.2</ele><time>2011-04-27T03:33:21.0000000+00:00</time></trkpt><trkpt lat="22.089628" lon="104.253677"><ele>211.2</ele><time>2011-04-27T03:33:26.0000000+00:00</time></trkpt><trkpt lat="22.089628" lon="104.253677"><ele>211.1</ele><time>2011-04-27T03:33:31.0000000+00:00</time></trkpt><trkpt lat="22.089628" lon="104.253677"><ele>211.1</ele><time>2011-04-27T03:33:36.0000000+00:00</time></trkpt><trkpt lat="22.089628" lon="104.253677"><ele>211.1</ele><time>2011-04-27T03:33:41.0000000+00:00</time></trkpt><trkpt lat="22.08963" lon="104.253677"><ele>211.0</ele><time>2011-04-27T03:33:46.0000000+00:00</time></trkpt><trkpt lat="22.08963" lon="104.253677"><ele>211.0</ele><time>2011-04-27T03:33:51.0000000+00:00</time></trkpt><trkpt lat="22.08963" lon="104.253677"><ele>211.0</ele><time>2011-04-27T03:33:56.0000000+00:00</time></trkpt><trkpt lat="22.08963" lon="104.253677"><ele>211.0</ele><time>2011-04-27T03:34:01.0000000+00:00</time></trkpt><trkpt lat="22.08963" lon="104.253677"><ele>210.9</ele><time>2011-04-27T03:34:06.0000000+00:00</time></trkpt><trkpt lat="22.08963" lon="104.253677"><ele>210.9</ele><time>2011-04-27T03:34:11.0000000+00:00</time></trkpt><trkpt lat="22.08963" lon="104.253677"><ele>210.9</ele><time>2011-04-27T03:34:16.0000000+00:00</time></trkpt><trkpt lat="22.08963" lon="104.253677"><ele>210.9</ele><time>2011-04-27T03:34:21.0000000+00:00</time></trkpt><trkpt lat="22.08963" lon="104.253677"><ele>210.9</ele><time>2011-04-27T03:34:26.0000000+00:00</time></trkpt><trkpt lat="22.08963" lon="104.253677"><ele>210.8</ele><time>2011-04-27T03:34:31.0000000+00:00</time></trkpt><trkpt lat="22.08963" lon="104.253677"><ele>210.8</ele><time>2011-04-27T03:34:36.0000000+00:00</time></trkpt><trkpt lat="22.08963" lon="104.253677"><ele>210.8</ele><time>2011-04-27T03:34:41.0000000+00:00</time></trkpt><trkpt lat="22.08963" lon="104.253677"><ele>210.8</ele><time>2011-04-27T03:34:46.0000000+00:00</time></trkpt><trkpt lat="22.08963" lon="104.253677"><ele>210.7</ele><time>2011-04-27T03:34:51.0000000+00:00</time></trkpt><trkpt lat="22.08963" lon="104.253677"><ele>210.7</ele><time>2011-04-27T03:34:56.0000000+00:00</time></trkpt><trkpt lat="22.08963" lon="104.253677"><ele>210.7</ele><time>2011-04-27T03:35:01.0000000+00:00</time></trkpt><trkpt lat="22.08963" lon="104.253677"><ele>210.6</ele><time>2011-04-27T03:35:06.0000000+00:00</time></trkpt><trkpt lat="22.08963" lon="104.253677"><ele>210.6</ele><time>2011-04-27T03:35:11.0000000+00:00</time></trkpt><trkpt lat="22.08963" lon="104.253677"><ele>210.6</ele><time>2011-04-27T03:35:16.0000000+00:00</time></trkpt><trkpt lat="22.08963" lon="104.253677"><ele>210.6</ele><time>2011-04-27T03:35:21.0000000+00:00</time></trkpt><trkpt lat="22.08963" lon="104.253677"><ele>210.7</ele><time>2011-04-27T03:35:26.0000000+00:00</time></trkpt><trkpt lat="22.08963" lon="104.253677"><ele>210.6</ele><time>2011-04-27T03:35:31.0000000+00:00</time></trkpt><trkpt lat="22.08963" lon="104.253677"><ele>210.6</ele><time>2011-04-27T03:35:36.0000000+00:00</time></trkpt><trkpt lat="22.08963" lon="104.253677"><ele>210.7</ele><time>2011-04-27T03:35:41.0000000+00:00</time></trkpt><trkpt lat="22.08963" lon="104.253677"><ele>210.7</ele><time>2011-04-27T03:35:46.0000000+00:00</time></trkpt><trkpt lat="22.08963" lon="104.253677"><ele>210.7</ele><time>2011-04-27T03:35:51.0000000+00:00</time></trkpt><trkpt lat="22.089632" lon="104.253677"><ele>210.7</ele><time>2011-04-27T03:35:56.0000000+00:00</time></trkpt><trkpt lat="22.089632" lon="104.253677"><ele>210.7</ele><time>2011-04-27T03:36:01.0000000+00:00</time></trkpt><trkpt lat="22.089632" lon="104.253677"><ele>210.8</ele><time>2011-04-27T03:36:06.0000000+00:00</time></trkpt><trkpt lat="22.089632" lon="104.253677"><ele>210.8</ele><time>2011-04-27T03:36:11.0000000+00:00</time></trkpt><trkpt lat="22.089634" lon="104.253677"><ele>210.8</ele><time>2011-04-27T03:36:16.0000000+00:00</time></trkpt><trkpt lat="22.089634" lon="104.253677"><ele>210.7</ele><time>2011-04-27T03:36:21.0000000+00:00</time></trkpt><trkpt lat="22.089636" lon="104.253677"><ele>210.7</ele><time>2011-04-27T03:36:26.0000000+00:00</time></trkpt><trkpt lat="22.089636" lon="104.253677"><ele>210.7</ele><time>2011-04-27T03:36:31.0000000+00:00</time></trkpt><trkpt lat="22.089636" lon="104.253677"><ele>210.7</ele><time>2011-04-27T03:36:36.0000000+00:00</time></trkpt><trkpt lat="22.089636" lon="104.253677"><ele>210.6</ele><time>2011-04-27T03:36:41.0000000+00:00</time></trkpt><trkpt lat="22.089636" lon="104.253677"><ele>210.6</ele><time>2011-04-27T03:36:46.0000000+00:00</time></trkpt><trkpt lat="22.089636" lon="104.253677"><ele>210.6</ele><time>2011-04-27T03:36:51.0000000+00:00</time></trkpt><trkpt lat="22.089636" lon="104.253677"><ele>210.6</ele><time>2011-04-27T03:36:56.0000000+00:00</time></trkpt><trkpt lat="22.089636" lon="104.253677"><ele>210.6</ele><time>2011-04-27T03:37:01.0000000+00:00</time></trkpt><trkpt lat="22.089636" lon="104.253677"><ele>210.5</ele><time>2011-04-27T03:37:06.0000000+00:00</time></trkpt><trkpt lat="22.089636" lon="104.253677"><ele>210.5</ele><time>2011-04-27T03:37:11.0000000+00:00</time></trkpt><trkpt lat="22.089636" lon="104.253677"><ele>210.5</ele><time>2011-04-27T03:37:16.0000000+00:00</time></trkpt><trkpt lat="22.089638" lon="104.253677"><ele>210.5</ele><time>2011-04-27T03:37:21.0000000+00:00</time></trkpt><trkpt lat="22.089638" lon="104.253677"><ele>210.5</ele><time>2011-04-27T03:37:26.0000000+00:00</time></trkpt><trkpt lat="22.089638" lon="104.253677"><ele>210.5</ele><time>2011-04-27T03:37:31.0000000+00:00</time></trkpt><trkpt lat="22.089638" lon="104.25367"><ele>210.5</ele><time>2011-04-27T03:37:36.0000000+00:00</time></trkpt><trkpt lat="22.089638" lon="104.25367"><ele>210.5</ele><time>2011-04-27T03:37:41.0000000+00:00</time></trkpt><trkpt lat="22.08964" lon="104.25367"><ele>210.6</ele><time>2011-04-27T03:37:46.0000000+00:00</time></trkpt><trkpt lat="22.08964" lon="104.25367"><ele>210.5</ele><time>2011-04-27T03:37:51.0000000+00:00</time></trkpt><trkpt lat="22.08964" lon="104.25367"><ele>210.5</ele><time>2011-04-27T03:37:56.0000000+00:00</time></trkpt><trkpt lat="22.08964" lon="104.25367"><ele>210.5</ele><time>2011-04-27T03:38:01.0000000+00:00</time></trkpt><trkpt lat="22.08964" lon="104.25367"><ele>210.6</ele><time>2011-04-27T03:38:06.0000000+00:00</time></trkpt><trkpt lat="22.08964" lon="104.25367"><ele>210.5</ele><time>2011-04-27T03:38:11.0000000+00:00</time></trkpt><trkpt lat="22.089642" lon="104.25367"><ele>210.5</ele><time>2011-04-27T03:38:16.0000000+00:00</time></trkpt><trkpt lat="22.089642" lon="104.25367"><ele>210.5</ele><time>2011-04-27T03:38:21.0000000+00:00</time></trkpt><trkpt lat="22.089642" lon="104.25367"><ele>210.5</ele><time>2011-04-27T03:38:26.0000000+00:00</time></trkpt><trkpt lat="22.089642" lon="104.25367"><ele>210.5</ele><time>2011-04-27T03:38:31.0000000+00:00</time></trkpt><trkpt lat="22.089642" lon="104.25367"><ele>210.5</ele><time>2011-04-27T03:38:36.0000000+00:00</time></trkpt><trkpt lat="22.089642" lon="104.25367"><ele>210.5</ele><time>2011-04-27T03:38:41.0000000+00:00</time></trkpt><trkpt lat="22.089642" lon="104.25367"><ele>210.6</ele><time>2011-04-27T03:38:46.0000000+00:00</time></trkpt><trkpt lat="22.089642" lon="104.25367"><ele>210.7</ele><time>2011-04-27T03:38:51.0000000+00:00</time></trkpt><trkpt lat="22.089643" lon="104.25367"><ele>210.7</ele><time>2011-04-27T03:38:56.0000000+00:00</time></trkpt><trkpt lat="22.089643" lon="104.25367"><ele>210.7</ele><time>2011-04-27T03:39:01.0000000+00:00</time></trkpt><trkpt lat="22.089643" lon="104.25367"><ele>210.7</ele><time>2011-04-27T03:39:06.0000000+00:00</time></trkpt><trkpt lat="22.089643" lon="104.25367"><ele>210.7</ele><time>2011-04-27T03:39:11.0000000+00:00</time></trkpt><trkpt lat="22.089643" lon="104.25367"><ele>210.7</ele><time>2011-04-27T03:39:16.0000000+00:00</time></trkpt><trkpt lat="22.089643" lon="104.25367"><ele>210.7</ele><time>2011-04-27T03:39:21.0000000+00:00</time></trkpt><trkpt lat="22.089643" lon="104.25367"><ele>210.7</ele><time>2011-04-27T03:39:26.0000000+00:00</time></trkpt><trkpt lat="22.089643" lon="104.25367"><ele>210.7</ele><time>2011-04-27T03:39:31.0000000+00:00</time></trkpt><trkpt lat="22.089643" lon="104.25367"><ele>210.7</ele><time>2011-04-27T03:39:36.0000000+00:00</time></trkpt><trkpt lat="22.089643" lon="104.25367"><ele>210.7</ele><time>2011-04-27T03:39:41.0000000+00:00</time></trkpt><trkpt lat="22.089643" lon="104.25367"><ele>210.7</ele><time>2011-04-27T03:39:46.0000000+00:00</time></trkpt><trkpt lat="22.089643" lon="104.25367"><ele>210.7</ele><time>2011-04-27T03:39:51.0000000+00:00</time></trkpt><trkpt lat="22.089645" lon="104.25367"><ele>210.8</ele><time>2011-04-27T03:39:56.0000000+00:00</time></trkpt><trkpt lat="22.089645" lon="104.25367"><ele>210.8</ele><time>2011-04-27T03:40:01.0000000+00:00</time></trkpt><trkpt lat="22.089645" lon="104.25367"><ele>210.9</ele><time>2011-04-27T03:40:06.0000000+00:00</time></trkpt><trkpt lat="22.089645" lon="104.25367"><ele>210.9</ele><time>2011-04-27T03:40:11.0000000+00:00</time></trkpt><trkpt lat="22.089645" lon="104.25367"><ele>210.9</ele><time>2011-04-27T03:40:16.0000000+00:00</time></trkpt><trkpt lat="22.089645" lon="104.25367"><ele>210.9</ele><time>2011-04-27T03:40:21.0000000+00:00</time></trkpt><trkpt lat="22.089645" lon="104.25367"><ele>210.9</ele><time>2011-04-27T03:40:26.0000000+00:00</time></trkpt><trkpt lat="22.089645" lon="104.25367"><ele>210.8</ele><time>2011-04-27T03:40:31.0000000+00:00</time></trkpt><trkpt lat="22.089647" lon="104.25367"><ele>210.8</ele><time>2011-04-27T03:40:36.0000000+00:00</time></trkpt><trkpt lat="22.089647" lon="104.25367"><ele>210.8</ele><time>2011-04-27T03:40:41.0000000+00:00</time></trkpt><trkpt lat="22.089647" lon="104.25367"><ele>210.9</ele><time>2011-04-27T03:40:46.0000000+00:00</time></trkpt><trkpt lat="22.089647" lon="104.25367"><ele>210.9</ele><time>2011-04-27T03:40:51.0000000+00:00</time></trkpt><trkpt lat="22.089647" lon="104.25367"><ele>210.9</ele><time>2011-04-27T03:40:56.0000000+00:00</time></trkpt><trkpt lat="22.089647" lon="104.25367"><ele>210.8</ele><time>2011-04-27T03:41:01.0000000+00:00</time></trkpt><trkpt lat="22.089647" lon="104.25367"><ele>210.8</ele><time>2011-04-27T03:41:06.0000000+00:00</time></trkpt><trkpt lat="22.089647" lon="104.25367"><ele>210.8</ele><time>2011-04-27T03:41:11.0000000+00:00</time></trkpt><trkpt lat="22.089647" lon="104.25367"><ele>210.7</ele><time>2011-04-27T03:41:16.0000000+00:00</time></trkpt><trkpt lat="22.089647" lon="104.25367"><ele>210.7</ele><time>2011-04-27T03:41:21.0000000+00:00</time></trkpt><trkpt lat="22.089647" lon="104.25367"><ele>210.7</ele><time>2011-04-27T03:41:26.0000000+00:00</time></trkpt><trkpt lat="22.089647" lon="104.25367"><ele>210.6</ele><time>2011-04-27T03:41:31.0000000+00:00</time></trkpt><trkpt lat="22.089647" lon="104.25367"><ele>210.6</ele><time>2011-04-27T03:41:36.0000000+00:00</time></trkpt><trkpt lat="22.089647" lon="104.25367"><ele>210.6</ele><time>2011-04-27T03:41:41.0000000+00:00</time></trkpt><trkpt lat="22.089647" lon="104.25367"><ele>210.5</ele><time>2011-04-27T03:41:46.0000000+00:00</time></trkpt><trkpt lat="22.089647" lon="104.25367"><ele>210.4</ele><time>2011-04-27T03:41:51.0000000+00:00</time></trkpt><trkpt lat="22.089647" lon="104.25367"><ele>210.4</ele><time>2011-04-27T03:41:56.0000000+00:00</time></trkpt><trkpt lat="22.089647" lon="104.25367"><ele>210.4</ele><time>2011-04-27T03:42:01.0000000+00:00</time></trkpt><trkpt lat="22.089647" lon="104.25367"><ele>210.4</ele><time>2011-04-27T03:42:06.0000000+00:00</time></trkpt><trkpt lat="22.089647" lon="104.25367"><ele>210.3</ele><time>2011-04-27T03:42:11.0000000+00:00</time></trkpt><trkpt lat="22.089647" lon="104.25367"><ele>210.3</ele><time>2011-04-27T03:42:16.0000000+00:00</time></trkpt><trkpt lat="22.089647" lon="104.25367"><ele>210.3</ele><time>2011-04-27T03:42:21.0000000+00:00</time></trkpt><trkpt lat="22.089647" lon="104.25367"><ele>210.3</ele><time>2011-04-27T03:42:26.0000000+00:00</time></trkpt><trkpt lat="22.089649" lon="104.25367"><ele>210.3</ele><time>2011-04-27T03:42:31.0000000+00:00</time></trkpt><trkpt lat="22.089649" lon="104.25367"><ele>210.2</ele><time>2011-04-27T03:42:36.0000000+00:00</time></trkpt><trkpt lat="22.089649" lon="104.25367"><ele>210.2</ele><time>2011-04-27T03:42:41.0000000+00:00</time></trkpt><trkpt lat="22.089649" lon="104.25367"><ele>210.3</ele><time>2011-04-27T03:42:46.0000000+00:00</time></trkpt><trkpt lat="22.089649" lon="104.25367"><ele>210.2</ele><time>2011-04-27T03:42:51.0000000+00:00</time></trkpt><trkpt lat="22.089649" lon="104.25367"><ele>210.2</ele><time>2011-04-27T03:42:56.0000000+00:00</time></trkpt><trkpt lat="22.089649" lon="104.25367"><ele>210.2</ele><time>2011-04-27T03:43:01.0000000+00:00</time></trkpt><trkpt lat="22.089649" lon="104.25367"><ele>210.2</ele><time>2011-04-27T03:43:06.0000000+00:00</time></trkpt><trkpt lat="22.089649" lon="104.25367"><ele>210.2</ele><time>2011-04-27T03:43:11.0000000+00:00</time></trkpt><trkpt lat="22.089649" lon="104.25367"><ele>210.2</ele><time>2011-04-27T03:43:16.0000000+00:00</time></trkpt><trkpt lat="22.089649" lon="104.25367"><ele>210.3</ele><time>2011-04-27T03:43:21.0000000+00:00</time></trkpt><trkpt lat="22.089649" lon="104.25367"><ele>210.3</ele><time>2011-04-27T03:43:26.0000000+00:00</time></trkpt><trkpt lat="22.089649" lon="104.25367"><ele>210.4</ele><time>2011-04-27T03:43:31.0000000+00:00</time></trkpt><trkpt lat="22.089649" lon="104.25367"><ele>210.5</ele><time>2011-04-27T03:43:36.0000000+00:00</time></trkpt><trkpt lat="22.089649" lon="104.25367"><ele>210.5</ele><time>2011-04-27T03:43:41.0000000+00:00</time></trkpt><trkpt lat="22.089649" lon="104.25367"><ele>210.6</ele><time>2011-04-27T03:43:46.0000000+00:00</time></trkpt><trkpt lat="22.089649" lon="104.25367"><ele>210.7</ele><time>2011-04-27T03:43:51.0000000+00:00</time></trkpt><trkpt lat="22.089649" lon="104.25367"><ele>210.7</ele><time>2011-04-27T03:43:56.0000000+00:00</time></trkpt><trkpt lat="22.089649" lon="104.25367"><ele>210.8</ele><time>2011-04-27T03:44:01.0000000+00:00</time></trkpt><trkpt lat="22.089649" lon="104.253662"><ele>210.8</ele><time>2011-04-27T03:44:06.0000000+00:00</time></trkpt><trkpt lat="22.089649" lon="104.253662"><ele>210.8</ele><time>2011-04-27T03:44:11.0000000+00:00</time></trkpt><trkpt lat="22.089649" lon="104.253662"><ele>210.8</ele><time>2011-04-27T03:44:16.0000000+00:00</time></trkpt><trkpt lat="22.089649" lon="104.253662"><ele>210.8</ele><time>2011-04-27T03:44:21.0000000+00:00</time></trkpt><trkpt lat="22.089649" lon="104.253662"><ele>210.9</ele><time>2011-04-27T03:44:26.0000000+00:00</time></trkpt><trkpt lat="22.089649" lon="104.253662"><ele>210.9</ele><time>2011-04-27T03:44:31.0000000+00:00</time></trkpt><trkpt lat="22.089649" lon="104.253662"><ele>210.9</ele><time>2011-04-27T03:44:36.0000000+00:00</time></trkpt><trkpt lat="22.089651" lon="104.253662"><ele>210.9</ele><time>2011-04-27T03:44:41.0000000+00:00</time></trkpt><trkpt lat="22.089651" lon="104.253662"><ele>210.9</ele><time>2011-04-27T03:44:46.0000000+00:00</time></trkpt><trkpt lat="22.089651" lon="104.253662"><ele>210.9</ele><time>2011-04-27T03:44:51.0000000+00:00</time></trkpt><trkpt lat="22.089651" lon="104.253662"><ele>210.9</ele><time>2011-04-27T03:44:56.0000000+00:00</time></trkpt><trkpt lat="22.089651" lon="104.253662"><ele>210.8</ele><time>2011-04-27T03:45:01.0000000+00:00</time></trkpt><trkpt lat="22.089651" lon="104.253662"><ele>210.8</ele><time>2011-04-27T03:45:06.0000000+00:00</time></trkpt><trkpt lat="22.089651" lon="104.253662"><ele>210.8</ele><time>2011-04-27T03:45:11.0000000+00:00</time></trkpt><trkpt lat="22.089651" lon="104.253662"><ele>210.7</ele><time>2011-04-27T03:45:16.0000000+00:00</time></trkpt><trkpt lat="22.089651" lon="104.253662"><ele>210.7</ele><time>2011-04-27T03:45:21.0000000+00:00</time></trkpt><trkpt lat="22.089651" lon="104.253662"><ele>210.6</ele><time>2011-04-27T03:45:26.0000000+00:00</time></trkpt><trkpt lat="22.089651" lon="104.253662"><ele>210.7</ele><time>2011-04-27T03:45:31.0000000+00:00</time></trkpt><trkpt lat="22.089649" lon="104.253662"><ele>210.7</ele><time>2011-04-27T03:45:36.0000000+00:00</time></trkpt><trkpt lat="22.089649" lon="104.253662"><ele>210.7</ele><time>2011-04-27T03:45:41.0000000+00:00</time></trkpt><trkpt lat="22.089649" lon="104.253662"><ele>210.6</ele><time>2011-04-27T03:45:46.0000000+00:00</time></trkpt><trkpt lat="22.089649" lon="104.253662"><ele>210.6</ele><time>2011-04-27T03:45:51.0000000+00:00</time></trkpt><trkpt lat="22.089649" lon="104.253662"><ele>210.5</ele><time>2011-04-27T03:45:56.0000000+00:00</time></trkpt><trkpt lat="22.089649" lon="104.253662"><ele>210.5</ele><time>2011-04-27T03:46:01.0000000+00:00</time></trkpt><trkpt lat="22.089649" lon="104.253662"><ele>210.5</ele><time>2011-04-27T03:46:06.0000000+00:00</time></trkpt><trkpt lat="22.089649" lon="104.253662"><ele>210.4</ele><time>2011-04-27T03:46:11.0000000+00:00</time></trkpt><trkpt lat="22.089649" lon="104.253662"><ele>210.4</ele><time>2011-04-27T03:46:16.0000000+00:00</time></trkpt><trkpt lat="22.089649" lon="104.253662"><ele>210.5</ele><time>2011-04-27T03:46:21.0000000+00:00</time></trkpt><trkpt lat="22.089649" lon="104.253662"><ele>210.5</ele><time>2011-04-27T03:46:26.0000000+00:00</time></trkpt><trkpt lat="22.089649" lon="104.253662"><ele>210.5</ele><time>2011-04-27T03:46:31.0000000+00:00</time></trkpt><trkpt lat="22.089649" lon="104.253662"><ele>210.5</ele><time>2011-04-27T03:46:36.0000000+00:00</time></trkpt><trkpt lat="22.089649" lon="104.253662"><ele>210.5</ele><time>2011-04-27T03:46:41.0000000+00:00</time></trkpt><trkpt lat="22.089649" lon="104.253662"><ele>210.5</ele><time>2011-04-27T03:46:46.0000000+00:00</time></trkpt><trkpt lat="22.089649" lon="104.253662"><ele>210.5</ele><time>2011-04-27T03:46:51.0000000+00:00</time></trkpt><trkpt lat="22.089649" lon="104.253662"><ele>210.4</ele><time>2011-04-27T03:46:56.0000000+00:00</time></trkpt><trkpt lat="22.089649" lon="104.253662"><ele>210.4</ele><time>2011-04-27T03:47:01.0000000+00:00</time></trkpt><trkpt lat="22.089649" lon="104.253662"><ele>210.4</ele><time>2011-04-27T03:47:06.0000000+00:00</time></trkpt><trkpt lat="22.089649" lon="104.253662"><ele>210.5</ele><time>2011-04-27T03:47:11.0000000+00:00</time></trkpt><trkpt lat="22.089649" lon="104.253662"><ele>210.5</ele><time>2011-04-27T03:47:16.0000000+00:00</time></trkpt><trkpt lat="22.089649" lon="104.253662"><ele>210.5</ele><time>2011-04-27T03:47:21.0000000+00:00</time></trkpt><trkpt lat="22.089649" lon="104.253662"><ele>210.5</ele><time>2011-04-27T03:47:26.0000000+00:00</time></trkpt><trkpt lat="22.089649" lon="104.253662"><ele>210.6</ele><time>2011-04-27T03:47:31.0000000+00:00</time></trkpt><trkpt lat="22.089649" lon="104.253662"><ele>210.6</ele><time>2011-04-27T03:47:36.0000000+00:00</time></trkpt><trkpt lat="22.089649" lon="104.253662"><ele>210.6</ele><time>2011-04-27T03:47:41.0000000+00:00</time></trkpt><trkpt lat="22.089649" lon="104.253662"><ele>210.7</ele><time>2011-04-27T03:47:46.0000000+00:00</time></trkpt><trkpt lat="22.089649" lon="104.253662"><ele>210.7</ele><time>2011-04-27T03:47:51.0000000+00:00</time></trkpt><trkpt lat="22.089649" lon="104.253662"><ele>210.7</ele><time>2011-04-27T03:47:56.0000000+00:00</time></trkpt><trkpt lat="22.089649" lon="104.253662"><ele>210.8</ele><time>2011-04-27T03:48:01.0000000+00:00</time></trkpt><trkpt lat="22.089649" lon="104.253662"><ele>210.8</ele><time>2011-04-27T03:48:06.0000000+00:00</time></trkpt><trkpt lat="22.089649" lon="104.253662"><ele>210.8</ele><time>2011-04-27T03:48:11.0000000+00:00</time></trkpt><trkpt lat="22.089649" lon="104.253662"><ele>210.9</ele><time>2011-04-27T03:48:16.0000000+00:00</time></trkpt><trkpt lat="22.089649" lon="104.253654"><ele>210.9</ele><time>2011-04-27T03:48:21.0000000+00:00</time></trkpt><trkpt lat="22.089649" lon="104.253654"><ele>210.9</ele><time>2011-04-27T03:48:26.0000000+00:00</time></trkpt><trkpt lat="22.089649" lon="104.253654"><ele>210.9</ele><time>2011-04-27T03:48:31.0000000+00:00</time></trkpt><trkpt lat="22.089649" lon="104.253654"><ele>210.9</ele><time>2011-04-27T03:48:36.0000000+00:00</time></trkpt><trkpt lat="22.089649" lon="104.253654"><ele>210.9</ele><time>2011-04-27T03:48:41.0000000+00:00</time></trkpt><trkpt lat="22.089649" lon="104.253654"><ele>210.9</ele><time>2011-04-27T03:48:46.0000000+00:00</time></trkpt><trkpt lat="22.089649" lon="104.253654"><ele>210.9</ele><time>2011-04-27T03:48:51.0000000+00:00</time></trkpt><trkpt lat="22.089649" lon="104.253654"><ele>210.9</ele><time>2011-04-27T03:48:56.0000000+00:00</time></trkpt><trkpt lat="22.089649" lon="104.253654"><ele>210.9</ele><time>2011-04-27T03:49:01.0000000+00:00</time></trkpt><trkpt lat="22.089649" lon="104.253654"><ele>210.9</ele><time>2011-04-27T03:49:06.0000000+00:00</time></trkpt><trkpt lat="22.089649" lon="104.253654"><ele>210.9</ele><time>2011-04-27T03:49:11.0000000+00:00</time></trkpt><trkpt lat="22.089649" lon="104.253654"><ele>210.9</ele><time>2011-04-27T03:49:16.0000000+00:00</time></trkpt><trkpt lat="22.089649" lon="104.253654"><ele>210.9</ele><time>2011-04-27T03:49:21.0000000+00:00</time></trkpt><trkpt lat="22.089649" lon="104.253654"><ele>210.9</ele><time>2011-04-27T03:49:26.0000000+00:00</time></trkpt><trkpt lat="22.089649" lon="104.253654"><ele>210.9</ele><time>2011-04-27T03:49:31.0000000+00:00</time></trkpt><trkpt lat="22.089647" lon="104.253654"><ele>211.0</ele><time>2011-04-27T03:49:36.0000000+00:00</time></trkpt><trkpt lat="22.089647" lon="104.253654"><ele>211.0</ele><time>2011-04-27T03:49:41.0000000+00:00</time></trkpt><trkpt lat="22.089647" lon="104.253654"><ele>211.0</ele><time>2011-04-27T03:49:46.0000000+00:00</time></trkpt><trkpt lat="22.089647" lon="104.253654"><ele>211.0</ele><time>2011-04-27T03:49:51.0000000+00:00</time></trkpt><trkpt lat="22.089647" lon="104.253654"><ele>211.0</ele><time>2011-04-27T03:49:56.0000000+00:00</time></trkpt><trkpt lat="22.089647" lon="104.253654"><ele>211.1</ele><time>2011-04-27T03:50:01.0000000+00:00</time></trkpt><trkpt lat="22.089647" lon="104.253654"><ele>211.1</ele><time>2011-04-27T03:50:06.0000000+00:00</time></trkpt><trkpt lat="22.089647" lon="104.253654"><ele>211.1</ele><time>2011-04-27T03:50:11.0000000+00:00</time></trkpt><trkpt lat="22.089647" lon="104.253654"><ele>211.0</ele><time>2011-04-27T03:50:16.0000000+00:00</time></trkpt><trkpt lat="22.089647" lon="104.253654"><ele>211.0</ele><time>2011-04-27T03:50:21.0000000+00:00</time></trkpt><trkpt lat="22.089647" lon="104.253654"><ele>211.0</ele><time>2011-04-27T03:50:26.0000000+00:00</time></trkpt><trkpt lat="22.089647" lon="104.253654"><ele>211.0</ele><time>2011-04-27T03:50:31.0000000+00:00</time></trkpt><trkpt lat="22.089647" lon="104.253654"><ele>211.0</ele><time>2011-04-27T03:50:36.0000000+00:00</time></trkpt><trkpt lat="22.089647" lon="104.253654"><ele>210.9</ele><time>2011-04-27T03:50:41.0000000+00:00</time></trkpt><trkpt lat="22.089647" lon="104.253654"><ele>210.8</ele><time>2011-04-27T03:50:46.0000000+00:00</time></trkpt><trkpt lat="22.089647" lon="104.253654"><ele>210.8</ele><time>2011-04-27T03:50:51.0000000+00:00</time></trkpt><trkpt lat="22.089647" lon="104.253654"><ele>210.7</ele><time>2011-04-27T03:50:56.0000000+00:00</time></trkpt><trkpt lat="22.089647" lon="104.253654"><ele>210.7</ele><time>2011-04-27T03:51:01.0000000+00:00</time></trkpt><trkpt lat="22.089645" lon="104.253654"><ele>210.6</ele><time>2011-04-27T03:51:06.0000000+00:00</time></trkpt><trkpt lat="22.089645" lon="104.253654"><ele>210.5</ele><time>2011-04-27T03:51:11.0000000+00:00</time></trkpt><trkpt lat="22.089645" lon="104.253654"><ele>210.4</ele><time>2011-04-27T03:51:16.0000000+00:00</time></trkpt><trkpt lat="22.089645" lon="104.253654"><ele>210.4</ele><time>2011-04-27T03:51:21.0000000+00:00</time></trkpt><trkpt lat="22.089645" lon="104.253654"><ele>210.3</ele><time>2011-04-27T03:51:26.0000000+00:00</time></trkpt><trkpt lat="22.089645" lon="104.253654"><ele>210.3</ele><time>2011-04-27T03:51:31.0000000+00:00</time></trkpt><trkpt lat="22.089645" lon="104.253654"><ele>210.2</ele><time>2011-04-27T03:51:36.0000000+00:00</time></trkpt><trkpt lat="22.089645" lon="104.253654"><ele>210.2</ele><time>2011-04-27T03:51:41.0000000+00:00</time></trkpt><trkpt lat="22.089645" lon="104.253654"><ele>210.2</ele><time>2011-04-27T03:51:46.0000000+00:00</time></trkpt><trkpt lat="22.089645" lon="104.253654"><ele>210.1</ele><time>2011-04-27T03:51:51.0000000+00:00</time></trkpt><trkpt lat="22.089645" lon="104.253654"><ele>210.1</ele><time>2011-04-27T03:51:56.0000000+00:00</time></trkpt><trkpt lat="22.089645" lon="104.253654"><ele>210.0</ele><time>2011-04-27T03:52:01.0000000+00:00</time></trkpt><trkpt lat="22.089645" lon="104.253654"><ele>210.0</ele><time>2011-04-27T03:52:06.0000000+00:00</time></trkpt><trkpt lat="22.089645" lon="104.253654"><ele>209.9</ele><time>2011-04-27T03:52:11.0000000+00:00</time></trkpt><trkpt lat="22.089645" lon="104.253654"><ele>209.9</ele><time>2011-04-27T03:52:16.0000000+00:00</time></trkpt><trkpt lat="22.089643" lon="104.253654"><ele>209.8</ele><time>2011-04-27T03:52:21.0000000+00:00</time></trkpt><trkpt lat="22.089643" lon="104.253654"><ele>209.8</ele><time>2011-04-27T03:52:26.0000000+00:00</time></trkpt><trkpt lat="22.089643" lon="104.253654"><ele>209.8</ele><time>2011-04-27T03:52:31.0000000+00:00</time></trkpt><trkpt lat="22.089643" lon="104.253654"><ele>209.7</ele><time>2011-04-27T03:52:36.0000000+00:00</time></trkpt><trkpt lat="22.089643" lon="104.253654"><ele>209.7</ele><time>2011-04-27T03:52:41.0000000+00:00</time></trkpt><trkpt lat="22.089643" lon="104.253654"><ele>209.7</ele><time>2011-04-27T03:52:46.0000000+00:00</time></trkpt><trkpt lat="22.089643" lon="104.253654"><ele>209.6</ele><time>2011-04-27T03:52:51.0000000+00:00</time></trkpt><trkpt lat="22.089643" lon="104.253654"><ele>209.6</ele><time>2011-04-27T03:52:56.0000000+00:00</time></trkpt><trkpt lat="22.089643" lon="104.253654"><ele>209.6</ele><time>2011-04-27T03:53:01.0000000+00:00</time></trkpt><trkpt lat="22.089642" lon="104.253654"><ele>209.5</ele><time>2011-04-27T03:53:06.0000000+00:00</time></trkpt><trkpt lat="22.089642" lon="104.253654"><ele>209.5</ele><time>2011-04-27T03:53:11.0000000+00:00</time></trkpt><trkpt lat="22.089642" lon="104.253654"><ele>209.4</ele><time>2011-04-27T03:53:16.0000000+00:00</time></trkpt><trkpt lat="22.089642" lon="104.253654"><ele>209.4</ele><time>2011-04-27T03:53:21.0000000+00:00</time></trkpt><trkpt lat="22.089642" lon="104.253654"><ele>209.3</ele><time>2011-04-27T03:53:26.0000000+00:00</time></trkpt><trkpt lat="22.089642" lon="104.253654"><ele>209.3</ele><time>2011-04-27T03:53:31.0000000+00:00</time></trkpt><trkpt lat="22.089642" lon="104.253654"><ele>209.3</ele><time>2011-04-27T03:53:36.0000000+00:00</time></trkpt><trkpt lat="22.089642" lon="104.253662"><ele>209.2</ele><time>2011-04-27T03:53:41.0000000+00:00</time></trkpt><trkpt lat="22.089642" lon="104.253662"><ele>209.2</ele><time>2011-04-27T03:53:46.0000000+00:00</time></trkpt><trkpt lat="22.089642" lon="104.253662"><ele>209.2</ele><time>2011-04-27T03:53:51.0000000+00:00</time></trkpt><trkpt lat="22.089642" lon="104.253662"><ele>209.2</ele><time>2011-04-27T03:53:56.0000000+00:00</time></trkpt><trkpt lat="22.089642" lon="104.253662"><ele>209.2</ele><time>2011-04-27T03:54:01.0000000+00:00</time></trkpt><trkpt lat="22.089642" lon="104.253662"><ele>209.1</ele><time>2011-04-27T03:54:06.0000000+00:00</time></trkpt><trkpt lat="22.08964" lon="104.253662"><ele>209.1</ele><time>2011-04-27T03:54:11.0000000+00:00</time></trkpt><trkpt lat="22.08964" lon="104.253662"><ele>209.0</ele><time>2011-04-27T03:54:16.0000000+00:00</time></trkpt><trkpt lat="22.08964" lon="104.253662"><ele>209.0</ele><time>2011-04-27T03:54:21.0000000+00:00</time></trkpt><trkpt lat="22.08964" lon="104.253662"><ele>209.0</ele><time>2011-04-27T03:54:26.0000000+00:00</time></trkpt><trkpt lat="22.08964" lon="104.253662"><ele>208.9</ele><time>2011-04-27T03:54:31.0000000+00:00</time></trkpt><trkpt lat="22.08964" lon="104.253662"><ele>208.9</ele><time>2011-04-27T03:54:36.0000000+00:00</time></trkpt><trkpt lat="22.08964" lon="104.253662"><ele>208.9</ele><time>2011-04-27T03:54:41.0000000+00:00</time></trkpt><trkpt lat="22.08964" lon="104.253662"><ele>208.9</ele><time>2011-04-27T03:54:46.0000000+00:00</time></trkpt><trkpt lat="22.08964" lon="104.253662"><ele>208.9</ele><time>2011-04-27T03:54:51.0000000+00:00</time></trkpt><trkpt lat="22.08964" lon="104.253662"><ele>208.9</ele><time>2011-04-27T03:54:56.0000000+00:00</time></trkpt><trkpt lat="22.08964" lon="104.253662"><ele>208.8</ele><time>2011-04-27T03:55:01.0000000+00:00</time></trkpt><trkpt lat="22.08964" lon="104.253662"><ele>208.8</ele><time>2011-04-27T03:55:06.0000000+00:00</time></trkpt><trkpt lat="22.08964" lon="104.253662"><ele>208.8</ele><time>2011-04-27T03:55:11.0000000+00:00</time></trkpt><trkpt lat="22.089638" lon="104.253662"><ele>208.8</ele><time>2011-04-27T03:55:16.0000000+00:00</time></trkpt><trkpt lat="22.089638" lon="104.253662"><ele>208.7</ele><time>2011-04-27T03:55:21.0000000+00:00</time></trkpt><trkpt lat="22.089638" lon="104.253662"><ele>208.7</ele><time>2011-04-27T03:55:26.0000000+00:00</time></trkpt><trkpt lat="22.089638" lon="104.253662"><ele>208.7</ele><time>2011-04-27T03:55:31.0000000+00:00</time></trkpt><trkpt lat="22.089638" lon="104.253662"><ele>208.6</ele><time>2011-04-27T03:55:36.0000000+00:00</time></trkpt><trkpt lat="22.089638" lon="104.253662"><ele>208.6</ele><time>2011-04-27T03:55:41.0000000+00:00</time></trkpt><trkpt lat="22.089638" lon="104.253662"><ele>208.6</ele><time>2011-04-27T03:55:46.0000000+00:00</time></trkpt><trkpt lat="22.089638" lon="104.253662"><ele>208.6</ele><time>2011-04-27T03:55:51.0000000+00:00</time></trkpt><trkpt lat="22.089638" lon="104.253662"><ele>208.6</ele><time>2011-04-27T03:55:56.0000000+00:00</time></trkpt><trkpt lat="22.089638" lon="104.253662"><ele>208.5</ele><time>2011-04-27T03:56:01.0000000+00:00</time></trkpt><trkpt lat="22.089638" lon="104.253662"><ele>208.6</ele><time>2011-04-27T03:56:06.0000000+00:00</time></trkpt><trkpt lat="22.089638" lon="104.253662"><ele>208.6</ele><time>2011-04-27T03:56:11.0000000+00:00</time></trkpt><trkpt lat="22.089638" lon="104.253662"><ele>208.6</ele><time>2011-04-27T03:56:16.0000000+00:00</time></trkpt><trkpt lat="22.089638" lon="104.253662"><ele>208.6</ele><time>2011-04-27T03:56:21.0000000+00:00</time></trkpt><trkpt lat="22.089638" lon="104.253662"><ele>208.6</ele><time>2011-04-27T03:56:26.0000000+00:00</time></trkpt><trkpt lat="22.089638" lon="104.253662"><ele>208.6</ele><time>2011-04-27T03:56:31.0000000+00:00</time></trkpt><trkpt lat="22.089638" lon="104.253662"><ele>208.6</ele><time>2011-04-27T03:56:36.0000000+00:00</time></trkpt><trkpt lat="22.089638" lon="104.253662"><ele>208.6</ele><time>2011-04-27T03:56:41.0000000+00:00</time></trkpt><trkpt lat="22.089638" lon="104.253662"><ele>208.7</ele><time>2011-04-27T03:56:46.0000000+00:00</time></trkpt><trkpt lat="22.089638" lon="104.253662"><ele>208.7</ele><time>2011-04-27T03:56:51.0000000+00:00</time></trkpt><trkpt lat="22.089638" lon="104.253662"><ele>208.7</ele><time>2011-04-27T03:56:56.0000000+00:00</time></trkpt><trkpt lat="22.089638" lon="104.253662"><ele>208.7</ele><time>2011-04-27T03:57:01.0000000+00:00</time></trkpt><trkpt lat="22.089636" lon="104.253662"><ele>208.7</ele><time>2011-04-27T03:57:06.0000000+00:00</time></trkpt><trkpt lat="22.089636" lon="104.253662"><ele>208.7</ele><time>2011-04-27T03:57:11.0000000+00:00</time></trkpt><trkpt lat="22.089636" lon="104.253662"><ele>208.7</ele><time>2011-04-27T03:57:16.0000000+00:00</time></trkpt><trkpt lat="22.089636" lon="104.253662"><ele>208.7</ele><time>2011-04-27T03:57:21.0000000+00:00</time></trkpt><trkpt lat="22.089636" lon="104.253662"><ele>208.7</ele><time>2011-04-27T03:57:26.0000000+00:00</time></trkpt><trkpt lat="22.089636" lon="104.253662"><ele>208.7</ele><time>2011-04-27T03:57:31.0000000+00:00</time></trkpt><trkpt lat="22.089636" lon="104.253662"><ele>208.8</ele><time>2011-04-27T03:57:36.0000000+00:00</time></trkpt><trkpt lat="22.089636" lon="104.253662"><ele>208.8</ele><time>2011-04-27T03:57:41.0000000+00:00</time></trkpt><trkpt lat="22.089636" lon="104.253662"><ele>208.8</ele><time>2011-04-27T03:57:46.0000000+00:00</time></trkpt><trkpt lat="22.089636" lon="104.253662"><ele>208.8</ele><time>2011-04-27T03:57:51.0000000+00:00</time></trkpt><trkpt lat="22.089636" lon="104.253662"><ele>208.8</ele><time>2011-04-27T03:57:56.0000000+00:00</time></trkpt><trkpt lat="22.089636" lon="104.253662"><ele>208.8</ele><time>2011-04-27T03:58:01.0000000+00:00</time></trkpt><trkpt lat="22.089636" lon="104.253662"><ele>208.8</ele><time>2011-04-27T03:58:06.0000000+00:00</time></trkpt><trkpt lat="22.089636" lon="104.253662"><ele>208.8</ele><time>2011-04-27T03:58:11.0000000+00:00</time></trkpt><trkpt lat="22.089636" lon="104.253662"><ele>208.8</ele><time>2011-04-27T03:58:16.0000000+00:00</time></trkpt><trkpt lat="22.089636" lon="104.253662"><ele>208.7</ele><time>2011-04-27T03:58:21.0000000+00:00</time></trkpt><trkpt lat="22.089636" lon="104.253662"><ele>208.6</ele><time>2011-04-27T03:58:26.0000000+00:00</time></trkpt><trkpt lat="22.089636" lon="104.253662"><ele>208.6</ele><time>2011-04-27T03:58:31.0000000+00:00</time></trkpt><trkpt lat="22.089636" lon="104.253662"><ele>208.7</ele><time>2011-04-27T03:58:36.0000000+00:00</time></trkpt><trkpt lat="22.089636" lon="104.253662"><ele>208.7</ele><time>2011-04-27T03:58:41.0000000+00:00</time></trkpt><trkpt lat="22.089636" lon="104.253662"><ele>208.7</ele><time>2011-04-27T03:58:46.0000000+00:00</time></trkpt><trkpt lat="22.089636" lon="104.253662"><ele>208.7</ele><time>2011-04-27T03:58:51.0000000+00:00</time></trkpt><trkpt lat="22.089636" lon="104.253662"><ele>208.7</ele><time>2011-04-27T03:58:56.0000000+00:00</time></trkpt><trkpt lat="22.089636" lon="104.253662"><ele>208.7</ele><time>2011-04-27T03:59:01.0000000+00:00</time></trkpt><trkpt lat="22.089636" lon="104.253662"><ele>208.7</ele><time>2011-04-27T03:59:06.0000000+00:00</time></trkpt><trkpt lat="22.089636" lon="104.253662"><ele>208.7</ele><time>2011-04-27T03:59:11.0000000+00:00</time></trkpt><trkpt lat="22.089636" lon="104.253662"><ele>208.7</ele><time>2011-04-27T03:59:16.0000000+00:00</time></trkpt><trkpt lat="22.089636" lon="104.253662"><ele>208.7</ele><time>2011-04-27T03:59:21.0000000+00:00</time></trkpt><trkpt lat="22.089636" lon="104.253662"><ele>208.7</ele><time>2011-04-27T03:59:26.0000000+00:00</time></trkpt><trkpt lat="22.089636" lon="104.253662"><ele>208.7</ele><time>2011-04-27T03:59:31.0000000+00:00</time></trkpt><trkpt lat="22.089636" lon="104.253662"><ele>208.7</ele><time>2011-04-27T03:59:36.0000000+00:00</time></trkpt><trkpt lat="22.089636" lon="104.253662"><ele>208.7</ele><time>2011-04-27T03:59:41.0000000+00:00</time></trkpt><trkpt lat="22.089636" lon="104.253662"><ele>208.6</ele><time>2011-04-27T03:59:46.0000000+00:00</time></trkpt><trkpt lat="22.089636" lon="104.253662"><ele>208.6</ele><time>2011-04-27T03:59:51.0000000+00:00</time></trkpt><trkpt lat="22.089636" lon="104.253662"><ele>208.6</ele><time>2011-04-27T03:59:56.0000000+00:00</time></trkpt><trkpt lat="22.089636" lon="104.253662"><ele>208.6</ele><time>2011-04-27T04:00:01.0000000+00:00</time></trkpt><trkpt lat="22.089636" lon="104.253662"><ele>208.6</ele><time>2011-04-27T04:00:06.0000000+00:00</time></trkpt><trkpt lat="22.089636" lon="104.253662"><ele>208.6</ele><time>2011-04-27T04:00:11.0000000+00:00</time></trkpt><trkpt lat="22.089636" lon="104.253662"><ele>208.6</ele><time>2011-04-27T04:00:16.0000000+00:00</time></trkpt><trkpt lat="22.089636" lon="104.253662"><ele>208.6</ele><time>2011-04-27T04:00:21.0000000+00:00</time></trkpt><trkpt lat="22.089636" lon="104.253662"><ele>208.6</ele><time>2011-04-27T04:00:26.0000000+00:00</time></trkpt><trkpt lat="22.089636" lon="104.253662"><ele>208.6</ele><time>2011-04-27T04:00:31.0000000+00:00</time></trkpt><trkpt lat="22.089636" lon="104.253662"><ele>208.6</ele><time>2011-04-27T04:00:36.0000000+00:00</time></trkpt><trkpt lat="22.089636" lon="104.253662"><ele>208.6</ele><time>2011-04-27T04:00:41.0000000+00:00</time></trkpt><trkpt lat="22.089636" lon="104.253662"><ele>208.6</ele><time>2011-04-27T04:00:46.0000000+00:00</time></trkpt><trkpt lat="22.089636" lon="104.253662"><ele>208.6</ele><time>2011-04-27T04:00:51.0000000+00:00</time></trkpt><trkpt lat="22.089636" lon="104.253662"><ele>208.6</ele><time>2011-04-27T04:00:56.0000000+00:00</time></trkpt><trkpt lat="22.089636" lon="104.253662"><ele>208.5</ele><time>2011-04-27T04:01:01.0000000+00:00</time></trkpt><trkpt lat="22.089636" lon="104.253662"><ele>208.5</ele><time>2011-04-27T04:01:06.0000000+00:00</time></trkpt><trkpt lat="22.089636" lon="104.253662"><ele>208.5</ele><time>2011-04-27T04:01:11.0000000+00:00</time></trkpt><trkpt lat="22.089636" lon="104.253662"><ele>208.5</ele><time>2011-04-27T04:01:16.0000000+00:00</time></trkpt><trkpt lat="22.089636" lon="104.25367"><ele>208.5</ele><time>2011-04-27T04:01:21.0000000+00:00</time></trkpt><trkpt lat="22.089636" lon="104.25367"><ele>208.5</ele><time>2011-04-27T04:01:26.0000000+00:00</time></trkpt><trkpt lat="22.089636" lon="104.25367"><ele>208.5</ele><time>2011-04-27T04:01:31.0000000+00:00</time></trkpt><trkpt lat="22.089636" lon="104.25367"><ele>208.5</ele><time>2011-04-27T04:01:36.0000000+00:00</time></trkpt><trkpt lat="22.089636" lon="104.25367"><ele>208.5</ele><time>2011-04-27T04:01:41.0000000+00:00</time></trkpt><trkpt lat="22.089636" lon="104.25367"><ele>208.5</ele><time>2011-04-27T04:01:46.0000000+00:00</time></trkpt><trkpt lat="22.089636" lon="104.25367"><ele>208.5</ele><time>2011-04-27T04:01:51.0000000+00:00</time></trkpt><trkpt lat="22.089636" lon="104.25367"><ele>208.5</ele><time>2011-04-27T04:01:56.0000000+00:00</time></trkpt><trkpt lat="22.089636" lon="104.25367"><ele>208.5</ele><time>2011-04-27T04:02:01.0000000+00:00</time></trkpt><trkpt lat="22.089634" lon="104.25367"><ele>208.6</ele><time>2011-04-27T04:02:06.0000000+00:00</time></trkpt><trkpt lat="22.089634" lon="104.25367"><ele>208.6</ele><time>2011-04-27T04:02:11.0000000+00:00</time></trkpt><trkpt lat="22.089634" lon="104.25367"><ele>208.6</ele><time>2011-04-27T04:02:16.0000000+00:00</time></trkpt><trkpt lat="22.089634" lon="104.25367"><ele>208.6</ele><time>2011-04-27T04:02:21.0000000+00:00</time></trkpt><trkpt lat="22.089634" lon="104.25367"><ele>208.6</ele><time>2011-04-27T04:02:26.0000000+00:00</time></trkpt><trkpt lat="22.089634" lon="104.25367"><ele>208.6</ele><time>2011-04-27T04:02:31.0000000+00:00</time></trkpt><trkpt lat="22.089634" lon="104.25367"><ele>208.5</ele><time>2011-04-27T04:02:36.0000000+00:00</time></trkpt><trkpt lat="22.089634" lon="104.25367"><ele>208.5</ele><time>2011-04-27T04:02:41.0000000+00:00</time></trkpt><trkpt lat="22.089634" lon="104.25367"><ele>208.4</ele><time>2011-04-27T04:02:46.0000000+00:00</time></trkpt><trkpt lat="22.089634" lon="104.25367"><ele>208.4</ele><time>2011-04-27T04:02:51.0000000+00:00</time></trkpt><trkpt lat="22.089634" lon="104.25367"><ele>208.4</ele><time>2011-04-27T04:02:56.0000000+00:00</time></trkpt><trkpt lat="22.089634" lon="104.25367"><ele>208.4</ele><time>2011-04-27T04:03:01.0000000+00:00</time></trkpt><trkpt lat="22.089634" lon="104.25367"><ele>208.3</ele><time>2011-04-27T04:03:06.0000000+00:00</time></trkpt><trkpt lat="22.089634" lon="104.25367"><ele>208.4</ele><time>2011-04-27T04:03:11.0000000+00:00</time></trkpt><trkpt lat="22.089634" lon="104.25367"><ele>208.4</ele><time>2011-04-27T04:03:16.0000000+00:00</time></trkpt><trkpt lat="22.089634" lon="104.25367"><ele>208.4</ele><time>2011-04-27T04:03:21.0000000+00:00</time></trkpt><trkpt lat="22.089634" lon="104.25367"><ele>208.4</ele><time>2011-04-27T04:03:26.0000000+00:00</time></trkpt><trkpt lat="22.089634" lon="104.25367"><ele>208.4</ele><time>2011-04-27T04:03:31.0000000+00:00</time></trkpt><trkpt lat="22.089634" lon="104.25367"><ele>208.4</ele><time>2011-04-27T04:03:36.0000000+00:00</time></trkpt><trkpt lat="22.089634" lon="104.25367"><ele>208.4</ele><time>2011-04-27T04:03:41.0000000+00:00</time></trkpt><trkpt lat="22.089634" lon="104.25367"><ele>208.3</ele><time>2011-04-27T04:03:46.0000000+00:00</time></trkpt><trkpt lat="22.089634" lon="104.25367"><ele>208.3</ele><time>2011-04-27T04:03:51.0000000+00:00</time></trkpt><trkpt lat="22.089634" lon="104.25367"><ele>208.3</ele><time>2011-04-27T04:03:56.0000000+00:00</time></trkpt><trkpt lat="22.089634" lon="104.25367"><ele>208.3</ele><time>2011-04-27T04:04:01.0000000+00:00</time></trkpt><trkpt lat="22.089634" lon="104.25367"><ele>208.3</ele><time>2011-04-27T04:04:06.0000000+00:00</time></trkpt><trkpt lat="22.089634" lon="104.25367"><ele>208.3</ele><time>2011-04-27T04:04:11.0000000+00:00</time></trkpt><trkpt lat="22.089634" lon="104.25367"><ele>208.2</ele><time>2011-04-27T04:04:16.0000000+00:00</time></trkpt><trkpt lat="22.089634" lon="104.25367"><ele>208.2</ele><time>2011-04-27T04:04:21.0000000+00:00</time></trkpt><trkpt lat="22.089634" lon="104.25367"><ele>208.2</ele><time>2011-04-27T04:04:26.0000000+00:00</time></trkpt><trkpt lat="22.089634" lon="104.25367"><ele>208.2</ele><time>2011-04-27T04:04:31.0000000+00:00</time></trkpt><trkpt lat="22.089634" lon="104.25367"><ele>208.2</ele><time>2011-04-27T04:04:36.0000000+00:00</time></trkpt><trkpt lat="22.089634" lon="104.25367"><ele>208.2</ele><time>2011-04-27T04:04:41.0000000+00:00</time></trkpt><trkpt lat="22.089634" lon="104.25367"><ele>208.1</ele><time>2011-04-27T04:04:46.0000000+00:00</time></trkpt><trkpt lat="22.089634" lon="104.25367"><ele>208.2</ele><time>2011-04-27T04:04:51.0000000+00:00</time></trkpt><trkpt lat="22.089634" lon="104.25367"><ele>208.2</ele><time>2011-04-27T04:04:56.0000000+00:00</time></trkpt><trkpt lat="22.089634" lon="104.25367"><ele>208.2</ele><time>2011-04-27T04:05:01.0000000+00:00</time></trkpt><trkpt lat="22.089634" lon="104.25367"><ele>208.3</ele><time>2011-04-27T04:05:06.0000000+00:00</time></trkpt><trkpt lat="22.089634" lon="104.25367"><ele>208.3</ele><time>2011-04-27T04:05:11.0000000+00:00</time></trkpt><trkpt lat="22.089634" lon="104.25367"><ele>208.3</ele><time>2011-04-27T04:05:16.0000000+00:00</time></trkpt><trkpt lat="22.089634" lon="104.25367"><ele>208.3</ele><time>2011-04-27T04:05:21.0000000+00:00</time></trkpt><trkpt lat="22.089634" lon="104.25367"><ele>208.3</ele><time>2011-04-27T04:05:26.0000000+00:00</time></trkpt><trkpt lat="22.089634" lon="104.25367"><ele>208.2</ele><time>2011-04-27T04:05:31.0000000+00:00</time></trkpt><trkpt lat="22.089632" lon="104.25367"><ele>208.2</ele><time>2011-04-27T04:05:36.0000000+00:00</time></trkpt><trkpt lat="22.089632" lon="104.25367"><ele>208.2</ele><time>2011-04-27T04:05:41.0000000+00:00</time></trkpt><trkpt lat="22.089632" lon="104.25367"><ele>208.3</ele><time>2011-04-27T04:05:46.0000000+00:00</time></trkpt><trkpt lat="22.089632" lon="104.25367"><ele>208.3</ele><time>2011-04-27T04:05:51.0000000+00:00</time></trkpt><trkpt lat="22.089632" lon="104.25367"><ele>208.3</ele><time>2011-04-27T04:05:56.0000000+00:00</time></trkpt><trkpt lat="22.08963" lon="104.25367"><ele>208.3</ele><time>2011-04-27T04:06:01.0000000+00:00</time></trkpt><trkpt lat="22.08963" lon="104.25367"><ele>208.3</ele><time>2011-04-27T04:06:06.0000000+00:00</time></trkpt><trkpt lat="22.08963" lon="104.25367"><ele>208.3</ele><time>2011-04-27T04:06:11.0000000+00:00</time></trkpt><trkpt lat="22.08963" lon="104.25367"><ele>208.3</ele><time>2011-04-27T04:06:16.0000000+00:00</time></trkpt><trkpt lat="22.08963" lon="104.25367"><ele>208.3</ele><time>2011-04-27T04:06:21.0000000+00:00</time></trkpt><trkpt lat="22.08963" lon="104.25367"><ele>208.3</ele><time>2011-04-27T04:06:26.0000000+00:00</time></trkpt><trkpt lat="22.089628" lon="104.25367"><ele>208.3</ele><time>2011-04-27T04:06:31.0000000+00:00</time></trkpt><trkpt lat="22.089628" lon="104.25367"><ele>208.2</ele><time>2011-04-27T04:06:36.0000000+00:00</time></trkpt><trkpt lat="22.089628" lon="104.25367"><ele>208.2</ele><time>2011-04-27T04:06:41.0000000+00:00</time></trkpt><trkpt lat="22.089628" lon="104.25367"><ele>208.2</ele><time>2011-04-27T04:06:46.0000000+00:00</time></trkpt><trkpt lat="22.089628" lon="104.25367"><ele>208.2</ele><time>2011-04-27T04:06:51.0000000+00:00</time></trkpt><trkpt lat="22.089628" lon="104.25367"><ele>208.2</ele><time>2011-04-27T04:06:56.0000000+00:00</time></trkpt><trkpt lat="22.089626" lon="104.25367"><ele>208.2</ele><time>2011-04-27T04:07:01.0000000+00:00</time></trkpt><trkpt lat="22.089626" lon="104.25367"><ele>208.2</ele><time>2011-04-27T04:07:06.0000000+00:00</time></trkpt><trkpt lat="22.089626" lon="104.25367"><ele>208.2</ele><time>2011-04-27T04:07:11.0000000+00:00</time></trkpt><trkpt lat="22.089626" lon="104.25367"><ele>208.2</ele><time>2011-04-27T04:07:16.0000000+00:00</time></trkpt><trkpt lat="22.089626" lon="104.25367"><ele>208.2</ele><time>2011-04-27T04:07:21.0000000+00:00</time></trkpt><trkpt lat="22.089626" lon="104.25367"><ele>208.2</ele><time>2011-04-27T04:07:26.0000000+00:00</time></trkpt><trkpt lat="22.089626" lon="104.25367"><ele>208.2</ele><time>2011-04-27T04:07:31.0000000+00:00</time></trkpt><trkpt lat="22.089626" lon="104.25367"><ele>208.2</ele><time>2011-04-27T04:07:36.0000000+00:00</time></trkpt><trkpt lat="22.089626" lon="104.25367"><ele>208.2</ele><time>2011-04-27T04:07:41.0000000+00:00</time></trkpt><trkpt lat="22.089626" lon="104.25367"><ele>208.2</ele><time>2011-04-27T04:07:46.0000000+00:00</time></trkpt><trkpt lat="22.089626" lon="104.25367"><ele>208.2</ele><time>2011-04-27T04:07:51.0000000+00:00</time></trkpt><trkpt lat="22.089624" lon="104.25367"><ele>208.2</ele><time>2011-04-27T04:07:56.0000000+00:00</time></trkpt><trkpt lat="22.089624" lon="104.25367"><ele>208.1</ele><time>2011-04-27T04:08:01.0000000+00:00</time></trkpt><trkpt lat="22.089624" lon="104.25367"><ele>208.1</ele><time>2011-04-27T04:08:06.0000000+00:00</time></trkpt><trkpt lat="22.089624" lon="104.25367"><ele>208.1</ele><time>2011-04-27T04:08:11.0000000+00:00</time></trkpt><trkpt lat="22.089624" lon="104.25367"><ele>208.0</ele><time>2011-04-27T04:08:16.0000000+00:00</time></trkpt><trkpt lat="22.089624" lon="104.253662"><ele>208.0</ele><time>2011-04-27T04:08:21.0000000+00:00</time></trkpt><trkpt lat="22.089624" lon="104.253662"><ele>208.0</ele><time>2011-04-27T04:08:26.0000000+00:00</time></trkpt><trkpt lat="22.089624" lon="104.253662"><ele>208.0</ele><time>2011-04-27T04:08:31.0000000+00:00</time></trkpt><trkpt lat="22.089624" lon="104.253662"><ele>207.9</ele><time>2011-04-27T04:08:36.0000000+00:00</time></trkpt><trkpt lat="22.089624" lon="104.253662"><ele>208.0</ele><time>2011-04-27T04:08:41.0000000+00:00</time></trkpt><trkpt lat="22.089624" lon="104.253662"><ele>208.0</ele><time>2011-04-27T04:08:46.0000000+00:00</time></trkpt><trkpt lat="22.089624" lon="104.253662"><ele>208.0</ele><time>2011-04-27T04:08:51.0000000+00:00</time></trkpt><trkpt lat="22.089624" lon="104.253662"><ele>208.0</ele><time>2011-04-27T04:08:56.0000000+00:00</time></trkpt><trkpt lat="22.089624" lon="104.253662"><ele>208.0</ele><time>2011-04-27T04:09:01.0000000+00:00</time></trkpt><trkpt lat="22.089624" lon="104.253662"><ele>208.0</ele><time>2011-04-27T04:09:06.0000000+00:00</time></trkpt><trkpt lat="22.089624" lon="104.253662"><ele>208.0</ele><time>2011-04-27T04:09:11.0000000+00:00</time></trkpt><trkpt lat="22.089624" lon="104.253662"><ele>208.0</ele><time>2011-04-27T04:09:16.0000000+00:00</time></trkpt><trkpt lat="22.089624" lon="104.253662"><ele>208.0</ele><time>2011-04-27T04:09:21.0000000+00:00</time></trkpt><trkpt lat="22.089622" lon="104.253662"><ele>208.0</ele><time>2011-04-27T04:09:26.0000000+00:00</time></trkpt><trkpt lat="22.089622" lon="104.253662"><ele>208.0</ele><time>2011-04-27T04:09:31.0000000+00:00</time></trkpt><trkpt lat="22.089622" lon="104.253662"><ele>208.0</ele><time>2011-04-27T04:09:36.0000000+00:00</time></trkpt><trkpt lat="22.089563" lon="104.253693"><ele>206.9</ele><time>2011-04-27T04:09:41.0000000+00:00</time></trkpt><trkpt lat="22.089525" lon="104.253815"><ele>206.0</ele><time>2011-04-27T04:09:46.0000000+00:00</time></trkpt><trkpt lat="22.089544" lon="104.253983"><ele>204.5</ele><time>2011-04-27T04:09:51.0000000+00:00</time></trkpt><trkpt lat="22.089539" lon="104.254204"><ele>203.9</ele><time>2011-04-27T04:09:56.0000000+00:00</time></trkpt><trkpt lat="22.089531" lon="104.254433"><ele>202.4</ele><time>2011-04-27T04:10:01.0000000+00:00</time></trkpt><trkpt lat="22.08952" lon="104.254707"><ele>200.3</ele><time>2011-04-27T04:10:06.0000000+00:00</time></trkpt><trkpt lat="22.089527" lon="104.255005"><ele>198.9</ele><time>2011-04-27T04:10:11.0000000+00:00</time></trkpt><trkpt lat="22.089531" lon="104.255302"><ele>195.4</ele><time>2011-04-27T04:10:16.0000000+00:00</time></trkpt><trkpt lat="22.089525" lon="104.255569"><ele>192.6</ele><time>2011-04-27T04:10:21.0000000+00:00</time></trkpt><trkpt lat="22.08952" lon="104.255791"><ele>192.2</ele><time>2011-04-27T04:10:26.0000000+00:00</time></trkpt><trkpt lat="22.089554" lon="104.25589"><ele>193.2</ele><time>2011-04-27T04:10:31.0000000+00:00</time></trkpt><trkpt lat="22.089573" lon="104.255959"><ele>193.7</ele><time>2011-04-27T04:10:36.0000000+00:00</time></trkpt><trkpt lat="22.089582" lon="104.255981"><ele>193.9</ele><time>2011-04-27T04:10:41.0000000+00:00</time></trkpt><trkpt lat="22.089584" lon="104.255981"><ele>194.0</ele><time>2011-04-27T04:10:46.0000000+00:00</time></trkpt><trkpt lat="22.089586" lon="104.255974"><ele>193.9</ele><time>2011-04-27T04:10:51.0000000+00:00</time></trkpt><trkpt lat="22.089586" lon="104.255974"><ele>193.9</ele><time>2011-04-27T04:10:56.0000000+00:00</time></trkpt><trkpt lat="22.089586" lon="104.255974"><ele>193.8</ele><time>2011-04-27T04:11:01.0000000+00:00</time></trkpt><trkpt lat="22.089586" lon="104.255974"><ele>193.8</ele><time>2011-04-27T04:11:06.0000000+00:00</time></trkpt><trkpt lat="22.089586" lon="104.255974"><ele>193.8</ele><time>2011-04-27T04:11:11.0000000+00:00</time></trkpt><trkpt lat="22.089586" lon="104.255974"><ele>193.8</ele><time>2011-04-27T04:11:16.0000000+00:00</time></trkpt><trkpt lat="22.089586" lon="104.255974"><ele>193.7</ele><time>2011-04-27T04:11:21.0000000+00:00</time></trkpt><trkpt lat="22.089586" lon="104.255974"><ele>193.7</ele><time>2011-04-27T04:11:26.0000000+00:00</time></trkpt><trkpt lat="22.089586" lon="104.255974"><ele>193.7</ele><time>2011-04-27T04:11:31.0000000+00:00</time></trkpt><trkpt lat="22.089586" lon="104.255974"><ele>193.7</ele><time>2011-04-27T04:11:36.0000000+00:00</time></trkpt><trkpt lat="22.089586" lon="104.255974"><ele>193.7</ele><time>2011-04-27T04:11:41.0000000+00:00</time></trkpt><trkpt lat="22.089586" lon="104.255974"><ele>193.7</ele><time>2011-04-27T04:11:46.0000000+00:00</time></trkpt><trkpt lat="22.089586" lon="104.255974"><ele>193.7</ele><time>2011-04-27T04:11:51.0000000+00:00</time></trkpt><trkpt lat="22.089586" lon="104.255974"><ele>193.7</ele><time>2011-04-27T04:11:56.0000000+00:00</time></trkpt><trkpt lat="22.089586" lon="104.255974"><ele>193.7</ele><time>2011-04-27T04:12:01.0000000+00:00</time></trkpt><trkpt lat="22.089584" lon="104.255974"><ele>193.7</ele><time>2011-04-27T04:12:06.0000000+00:00</time></trkpt><trkpt lat="22.089584" lon="104.255974"><ele>193.7</ele><time>2011-04-27T04:12:11.0000000+00:00</time></trkpt><trkpt lat="22.089584" lon="104.255974"><ele>193.7</ele><time>2011-04-27T04:12:16.0000000+00:00</time></trkpt><trkpt lat="22.089584" lon="104.255974"><ele>193.7</ele><time>2011-04-27T04:12:21.0000000+00:00</time></trkpt><trkpt lat="22.089584" lon="104.255974"><ele>193.7</ele><time>2011-04-27T04:12:26.0000000+00:00</time></trkpt><trkpt lat="22.089582" lon="104.255974"><ele>193.7</ele><time>2011-04-27T04:12:31.0000000+00:00</time></trkpt><trkpt lat="22.089582" lon="104.255981"><ele>193.7</ele><time>2011-04-27T04:12:36.0000000+00:00</time></trkpt><trkpt lat="22.089535" lon="104.256088"><ele>192.7</ele><time>2011-04-27T04:12:41.0000000+00:00</time></trkpt><trkpt lat="22.089523" lon="104.256294"><ele>191.3</ele><time>2011-04-27T04:12:46.0000000+00:00</time></trkpt><trkpt lat="22.089529" lon="104.256516"><ele>190.8</ele><time>2011-04-27T04:12:51.0000000+00:00</time></trkpt><trkpt lat="22.08951" lon="104.256714"><ele>193.1</ele><time>2011-04-27T04:12:56.0000000+00:00</time></trkpt><trkpt lat="22.089497" lon="104.256882"><ele>192.8</ele><time>2011-04-27T04:13:01.0000000+00:00</time></trkpt><trkpt lat="22.089479" lon="104.256935"><ele>191.0</ele><time>2011-04-27T04:13:06.0000000+00:00</time></trkpt><trkpt lat="22.089481" lon="104.256935"><ele>190.5</ele><time>2011-04-27T04:13:11.0000000+00:00</time></trkpt><trkpt lat="22.089489" lon="104.256958"><ele>190.7</ele><time>2011-04-27T04:13:16.0000000+00:00</time></trkpt><trkpt lat="22.089491" lon="104.257088"><ele>192.0</ele><time>2011-04-27T04:13:21.0000000+00:00</time></trkpt><trkpt lat="22.089474" lon="104.25721"><ele>189.8</ele><time>2011-04-27T04:13:26.0000000+00:00</time></trkpt><trkpt lat="22.089468" lon="104.257317"><ele>189.9</ele><time>2011-04-27T04:13:31.0000000+00:00</time></trkpt><trkpt lat="22.089478" lon="104.257362"><ele>189.0</ele><time>2011-04-27T04:13:36.0000000+00:00</time></trkpt><trkpt lat="22.089495" lon="104.257408"><ele>189.1</ele><time>2011-04-27T04:13:41.0000000+00:00</time></trkpt><trkpt lat="22.089495" lon="104.257408"><ele>189.4</ele><time>2011-04-27T04:13:46.0000000+00:00</time></trkpt><trkpt lat="22.089495" lon="104.257408"><ele>189.4</ele><time>2011-04-27T04:13:51.0000000+00:00</time></trkpt><trkpt lat="22.089493" lon="104.257408"><ele>189.4</ele><time>2011-04-27T04:13:56.0000000+00:00</time></trkpt><trkpt lat="22.089493" lon="104.257408"><ele>189.4</ele><time>2011-04-27T04:14:01.0000000+00:00</time></trkpt><trkpt lat="22.089493" lon="104.257408"><ele>189.5</ele><time>2011-04-27T04:14:06.0000000+00:00</time></trkpt><trkpt lat="22.089495" lon="104.257408"><ele>189.4</ele><time>2011-04-27T04:14:11.0000000+00:00</time></trkpt><trkpt lat="22.089495" lon="104.257408"><ele>189.4</ele><time>2011-04-27T04:14:16.0000000+00:00</time></trkpt><trkpt lat="22.089495" lon="104.257408"><ele>189.4</ele><time>2011-04-27T04:14:21.0000000+00:00</time></trkpt><trkpt lat="22.089495" lon="104.257408"><ele>189.5</ele><time>2011-04-27T04:14:26.0000000+00:00</time></trkpt><trkpt lat="22.089495" lon="104.257408"><ele>189.5</ele><time>2011-04-27T04:14:31.0000000+00:00</time></trkpt><trkpt lat="22.089495" lon="104.257408"><ele>189.4</ele><time>2011-04-27T04:14:36.0000000+00:00</time></trkpt><trkpt lat="22.089495" lon="104.257408"><ele>189.4</ele><time>2011-04-27T04:14:41.0000000+00:00</time></trkpt><trkpt lat="22.089493" lon="104.257408"><ele>189.4</ele><time>2011-04-27T04:14:46.0000000+00:00</time></trkpt><trkpt lat="22.089493" lon="104.257408"><ele>189.4</ele><time>2011-04-27T04:14:51.0000000+00:00</time></trkpt><trkpt lat="22.089493" lon="104.257408"><ele>189.4</ele><time>2011-04-27T04:14:56.0000000+00:00</time></trkpt><trkpt lat="22.089493" lon="104.257408"><ele>189.3</ele><time>2011-04-27T04:15:01.0000000+00:00</time></trkpt><trkpt lat="22.089487" lon="104.257408"><ele>189.1</ele><time>2011-04-27T04:15:06.0000000+00:00</time></trkpt><trkpt lat="22.089489" lon="104.257408"><ele>188.9</ele><time>2011-04-27T04:15:11.0000000+00:00</time></trkpt><trkpt lat="22.089489" lon="104.257408"><ele>188.9</ele><time>2011-04-27T04:15:16.0000000+00:00</time></trkpt><trkpt lat="22.089489" lon="104.257408"><ele>188.9</ele><time>2011-04-27T04:15:21.0000000+00:00</time></trkpt><trkpt lat="22.089487" lon="104.257408"><ele>188.9</ele><time>2011-04-27T04:15:26.0000000+00:00</time></trkpt><trkpt lat="22.089487" lon="104.257408"><ele>188.9</ele><time>2011-04-27T04:15:31.0000000+00:00</time></trkpt><trkpt lat="22.089487" lon="104.257408"><ele>188.9</ele><time>2011-04-27T04:15:36.0000000+00:00</time></trkpt><trkpt lat="22.089487" lon="104.257408"><ele>188.9</ele><time>2011-04-27T04:15:41.0000000+00:00</time></trkpt><trkpt lat="22.089487" lon="104.257408"><ele>188.9</ele><time>2011-04-27T04:15:46.0000000+00:00</time></trkpt><trkpt lat="22.089487" lon="104.257408"><ele>188.8</ele><time>2011-04-27T04:15:51.0000000+00:00</time></trkpt><trkpt lat="22.089487" lon="104.257408"><ele>188.8</ele><time>2011-04-27T04:15:56.0000000+00:00</time></trkpt><trkpt lat="22.089487" lon="104.257408"><ele>188.8</ele><time>2011-04-27T04:16:01.0000000+00:00</time></trkpt><trkpt lat="22.089487" lon="104.257408"><ele>188.7</ele><time>2011-04-27T04:16:06.0000000+00:00</time></trkpt><trkpt lat="22.089487" lon="104.257408"><ele>188.7</ele><time>2011-04-27T04:16:11.0000000+00:00</time></trkpt><trkpt lat="22.089487" lon="104.257408"><ele>188.8</ele><time>2011-04-27T04:16:16.0000000+00:00</time></trkpt><trkpt lat="22.089487" lon="104.257408"><ele>188.7</ele><time>2011-04-27T04:16:21.0000000+00:00</time></trkpt><trkpt lat="22.089487" lon="104.257408"><ele>188.7</ele><time>2011-04-27T04:16:26.0000000+00:00</time></trkpt><trkpt lat="22.089487" lon="104.257408"><ele>188.7</ele><time>2011-04-27T04:16:31.0000000+00:00</time></trkpt><trkpt lat="22.089487" lon="104.257408"><ele>188.7</ele><time>2011-04-27T04:16:36.0000000+00:00</time></trkpt><trkpt lat="22.089487" lon="104.257408"><ele>188.7</ele><time>2011-04-27T04:16:41.0000000+00:00</time></trkpt><trkpt lat="22.089487" lon="104.257408"><ele>188.7</ele><time>2011-04-27T04:16:46.0000000+00:00</time></trkpt><trkpt lat="22.089487" lon="104.257408"><ele>188.8</ele><time>2011-04-27T04:16:51.0000000+00:00</time></trkpt><trkpt lat="22.089487" lon="104.257408"><ele>188.8</ele><time>2011-04-27T04:16:56.0000000+00:00</time></trkpt><trkpt lat="22.089485" lon="104.257408"><ele>188.7</ele><time>2011-04-27T04:17:01.0000000+00:00</time></trkpt><trkpt lat="22.089485" lon="104.257408"><ele>188.8</ele><time>2011-04-27T04:17:06.0000000+00:00</time></trkpt><trkpt lat="22.089485" lon="104.257408"><ele>188.8</ele><time>2011-04-27T04:17:11.0000000+00:00</time></trkpt><trkpt lat="22.089485" lon="104.257408"><ele>188.8</ele><time>2011-04-27T04:17:16.0000000+00:00</time></trkpt><trkpt lat="22.0895" lon="104.257439"><ele>188.8</ele><time>2011-04-27T04:17:21.0000000+00:00</time></trkpt><trkpt lat="22.089552" lon="104.2575"><ele>189.6</ele><time>2011-04-27T04:17:26.0000000+00:00</time></trkpt><trkpt lat="22.0896" lon="104.257584"><ele>190.4</ele><time>2011-04-27T04:17:31.0000000+00:00</time></trkpt><trkpt lat="22.089661" lon="104.25769"><ele>192.9</ele><time>2011-04-27T04:17:36.0000000+00:00</time></trkpt><trkpt lat="22.089687" lon="104.257797"><ele>193.6</ele><time>2011-04-27T04:17:41.0000000+00:00</time></trkpt><trkpt lat="22.089733" lon="104.257874"><ele>194.1</ele><time>2011-04-27T04:17:46.0000000+00:00</time></trkpt><trkpt lat="22.089773" lon="104.258003"><ele>195.5</ele><time>2011-04-27T04:17:51.0000000+00:00</time></trkpt><trkpt lat="22.0898" lon="104.258125"><ele>197.0</ele><time>2011-04-27T04:17:56.0000000+00:00</time></trkpt><trkpt lat="22.089838" lon="104.258224"><ele>198.4</ele><time>2011-04-27T04:18:01.0000000+00:00</time></trkpt><trkpt lat="22.089882" lon="104.258339"><ele>198.0</ele><time>2011-04-27T04:18:06.0000000+00:00</time></trkpt><trkpt lat="22.089912" lon="104.258446"><ele>197.0</ele><time>2011-04-27T04:18:11.0000000+00:00</time></trkpt><trkpt lat="22.089954" lon="104.258545"><ele>199.2</ele><time>2011-04-27T04:18:16.0000000+00:00</time></trkpt><trkpt lat="22.089977" lon="104.258629"><ele>199.0</ele><time>2011-04-27T04:18:21.0000000+00:00</time></trkpt><trkpt lat="22.090012" lon="104.258736"><ele>198.4</ele><time>2011-04-27T04:18:26.0000000+00:00</time></trkpt><trkpt lat="22.090055" lon="104.25885"><ele>198.3</ele><time>2011-04-27T04:18:31.0000000+00:00</time></trkpt><trkpt lat="22.090099" lon="104.258942"><ele>199.2</ele><time>2011-04-27T04:18:36.0000000+00:00</time></trkpt><trkpt lat="22.09013" lon="104.259033"><ele>199.9</ele><time>2011-04-27T04:18:41.0000000+00:00</time></trkpt><trkpt lat="22.090162" lon="104.259155"><ele>200.6</ele><time>2011-04-27T04:18:46.0000000+00:00</time></trkpt><trkpt lat="22.0902" lon="104.259254"><ele>201.6</ele><time>2011-04-27T04:18:51.0000000+00:00</time></trkpt><trkpt lat="22.090237" lon="104.259361"><ele>201.5</ele><time>2011-04-27T04:18:56.0000000+00:00</time></trkpt><trkpt lat="22.090284" lon="104.25946"><ele>200.0</ele><time>2011-04-27T04:19:01.0000000+00:00</time></trkpt><trkpt lat="22.090336" lon="104.259575"><ele>200.2</ele><time>2011-04-27T04:19:06.0000000+00:00</time></trkpt><trkpt lat="22.09037" lon="104.259689"><ele>201.6</ele><time>2011-04-27T04:19:11.0000000+00:00</time></trkpt><trkpt lat="22.090405" lon="104.259781"><ele>201.5</ele><time>2011-04-27T04:19:16.0000000+00:00</time></trkpt><trkpt lat="22.090437" lon="104.25988"><ele>200.9</ele><time>2011-04-27T04:19:21.0000000+00:00</time></trkpt><trkpt lat="22.090475" lon="104.259979"><ele>200.4</ele><time>2011-04-27T04:19:26.0000000+00:00</time></trkpt><trkpt lat="22.090506" lon="104.260109"><ele>203.3</ele><time>2011-04-27T04:19:31.0000000+00:00</time></trkpt><trkpt lat="22.090544" lon="104.260223"><ele>206.5</ele><time>2011-04-27T04:19:36.0000000+00:00</time></trkpt><trkpt lat="22.09059" lon="104.260345"><ele>206.3</ele><time>2011-04-27T04:19:41.0000000+00:00</time></trkpt><trkpt lat="22.090641" lon="104.260475"><ele>207.3</ele><time>2011-04-27T04:19:46.0000000+00:00</time></trkpt><trkpt lat="22.090704" lon="104.260605"><ele>207.5</ele><time>2011-04-27T04:19:51.0000000+00:00</time></trkpt><trkpt lat="22.090776" lon="104.260704"><ele>209.0</ele><time>2011-04-27T04:19:56.0000000+00:00</time></trkpt><trkpt lat="22.090849" lon="104.260803"><ele>208.3</ele><time>2011-04-27T04:20:01.0000000+00:00</time></trkpt><trkpt lat="22.090927" lon="104.260887"><ele>209.3</ele><time>2011-04-27T04:20:06.0000000+00:00</time></trkpt><trkpt lat="22.091003" lon="104.260956"><ele>210.5</ele><time>2011-04-27T04:20:11.0000000+00:00</time></trkpt><trkpt lat="22.091072" lon="104.261032"><ele>211.0</ele><time>2011-04-27T04:20:16.0000000+00:00</time></trkpt><trkpt lat="22.09112" lon="104.261086"><ele>210.7</ele><time>2011-04-27T04:20:21.0000000+00:00</time></trkpt><trkpt lat="22.091179" lon="104.261131"><ele>209.1</ele><time>2011-04-27T04:20:26.0000000+00:00</time></trkpt><trkpt lat="22.091223" lon="104.261192"><ele>209.2</ele><time>2011-04-27T04:20:31.0000000+00:00</time></trkpt><trkpt lat="22.09127" lon="104.26123"><ele>209.8</ele><time>2011-04-27T04:20:36.0000000+00:00</time></trkpt><trkpt lat="22.091328" lon="104.261276"><ele>210.0</ele><time>2011-04-27T04:20:41.0000000+00:00</time></trkpt><trkpt lat="22.091383" lon="104.26133"><ele>210.8</ele><time>2011-04-27T04:20:46.0000000+00:00</time></trkpt><trkpt lat="22.091427" lon="104.261375"><ele>210.3</ele><time>2011-04-27T04:20:51.0000000+00:00</time></trkpt><trkpt lat="22.091486" lon="104.261406"><ele>208.8</ele><time>2011-04-27T04:20:56.0000000+00:00</time></trkpt><trkpt lat="22.091539" lon="104.261436"><ele>209.8</ele><time>2011-04-27T04:21:01.0000000+00:00</time></trkpt><trkpt lat="22.091608" lon="104.261452"><ele>210.1</ele><time>2011-04-27T04:21:06.0000000+00:00</time></trkpt><trkpt lat="22.091671" lon="104.261467"><ele>209.5</ele><time>2011-04-27T04:21:11.0000000+00:00</time></trkpt><trkpt lat="22.091738" lon="104.261467"><ele>208.9</ele><time>2011-04-27T04:21:16.0000000+00:00</time></trkpt><trkpt lat="22.09181" lon="104.261467"><ele>208.5</ele><time>2011-04-27T04:21:21.0000000+00:00</time></trkpt><trkpt lat="22.091879" lon="104.261475"><ele>210.1</ele><time>2011-04-27T04:21:26.0000000+00:00</time></trkpt><trkpt lat="22.091955" lon="104.261482"><ele>210.4</ele><time>2011-04-27T04:21:31.0000000+00:00</time></trkpt><trkpt lat="22.092041" lon="104.26149"><ele>210.5</ele><time>2011-04-27T04:21:36.0000000+00:00</time></trkpt><trkpt lat="22.092133" lon="104.26152"><ele>210.7</ele><time>2011-04-27T04:21:41.0000000+00:00</time></trkpt><trkpt lat="22.092226" lon="104.261551"><ele>211.3</ele><time>2011-04-27T04:21:46.0000000+00:00</time></trkpt><trkpt lat="22.092314" lon="104.261581"><ele>210.8</ele><time>2011-04-27T04:21:51.0000000+00:00</time></trkpt><trkpt lat="22.092402" lon="104.26162"><ele>210.9</ele><time>2011-04-27T04:21:56.0000000+00:00</time></trkpt><trkpt lat="22.092495" lon="104.26165"><ele>211.5</ele><time>2011-04-27T04:22:01.0000000+00:00</time></trkpt><trkpt lat="22.092592" lon="104.261696"><ele>211.5</ele><time>2011-04-27T04:22:06.0000000+00:00</time></trkpt><trkpt lat="22.092697" lon="104.261734"><ele>211.0</ele><time>2011-04-27T04:22:11.0000000+00:00</time></trkpt><trkpt lat="22.092823" lon="104.261772"><ele>209.8</ele><time>2011-04-27T04:22:16.0000000+00:00</time></trkpt><trkpt lat="22.092985" lon="104.261879"><ele>207.9</ele><time>2011-04-27T04:22:21.0000000+00:00</time></trkpt><trkpt lat="22.093145" lon="104.262054"><ele>208.7</ele><time>2011-04-27T04:22:26.0000000+00:00</time></trkpt><trkpt lat="22.093266" lon="104.262199"><ele>208.9</ele><time>2011-04-27T04:22:31.0000000+00:00</time></trkpt><trkpt lat="22.093306" lon="104.26226"><ele>209.2</ele><time>2011-04-27T04:22:36.0000000+00:00</time></trkpt><trkpt lat="22.093306" lon="104.262268"><ele>209.2</ele><time>2011-04-27T04:22:41.0000000+00:00</time></trkpt><trkpt lat="22.093304" lon="104.262268"><ele>209.1</ele><time>2011-04-27T04:22:46.0000000+00:00</time></trkpt><trkpt lat="22.093304" lon="104.262268"><ele>209.0</ele><time>2011-04-27T04:22:51.0000000+00:00</time></trkpt><trkpt lat="22.093304" lon="104.262268"><ele>209.1</ele><time>2011-04-27T04:22:56.0000000+00:00</time></trkpt><trkpt lat="22.093311" lon="104.262268"><ele>209.1</ele><time>2011-04-27T04:23:01.0000000+00:00</time></trkpt><trkpt lat="22.093313" lon="104.262268"><ele>209.1</ele><time>2011-04-27T04:23:06.0000000+00:00</time></trkpt><trkpt lat="22.093315" lon="104.262268"><ele>209.1</ele><time>2011-04-27T04:23:11.0000000+00:00</time></trkpt><trkpt lat="22.093317" lon="104.262268"><ele>209.0</ele><time>2011-04-27T04:23:16.0000000+00:00</time></trkpt><trkpt lat="22.093319" lon="104.262268"><ele>209.0</ele><time>2011-04-27T04:23:21.0000000+00:00</time></trkpt><trkpt lat="22.093319" lon="104.262268"><ele>209.0</ele><time>2011-04-27T04:23:26.0000000+00:00</time></trkpt><trkpt lat="22.093319" lon="104.262268"><ele>209.0</ele><time>2011-04-27T04:23:31.0000000+00:00</time></trkpt><trkpt lat="22.093319" lon="104.262268"><ele>209.1</ele><time>2011-04-27T04:23:36.0000000+00:00</time></trkpt><trkpt lat="22.093319" lon="104.262268"><ele>209.1</ele><time>2011-04-27T04:23:41.0000000+00:00</time></trkpt><trkpt lat="22.093319" lon="104.262268"><ele>209.2</ele><time>2011-04-27T04:23:46.0000000+00:00</time></trkpt><trkpt lat="22.093319" lon="104.262268"><ele>209.3</ele><time>2011-04-27T04:23:51.0000000+00:00</time></trkpt><trkpt lat="22.093319" lon="104.262268"><ele>209.4</ele><time>2011-04-27T04:23:56.0000000+00:00</time></trkpt><trkpt lat="22.093328" lon="104.262276"><ele>209.3</ele><time>2011-04-27T04:24:01.0000000+00:00</time></trkpt><trkpt lat="22.093468" lon="104.262337"><ele>210.0</ele><time>2011-04-27T04:24:06.0000000+00:00</time></trkpt><trkpt lat="22.093651" lon="104.26236"><ele>209.0</ele><time>2011-04-27T04:24:11.0000000+00:00</time></trkpt><trkpt lat="22.093821" lon="104.262375"><ele>210.6</ele><time>2011-04-27T04:24:16.0000000+00:00</time></trkpt><trkpt lat="22.094002" lon="104.26239"><ele>209.0</ele><time>2011-04-27T04:24:21.0000000+00:00</time></trkpt><trkpt lat="22.094158" lon="104.262383"><ele>213.0</ele><time>2011-04-27T04:24:26.0000000+00:00</time></trkpt><trkpt lat="22.094284" lon="104.262344"><ele>216.4</ele><time>2011-04-27T04:24:31.0000000+00:00</time></trkpt><trkpt lat="22.094412" lon="104.262276"><ele>214.5</ele><time>2011-04-27T04:24:36.0000000+00:00</time></trkpt><trkpt lat="22.09453" lon="104.262222"><ele>215.0</ele><time>2011-04-27T04:24:41.0000000+00:00</time></trkpt><trkpt lat="22.094631" lon="104.262184"><ele>217.6</ele><time>2011-04-27T04:24:46.0000000+00:00</time></trkpt><trkpt lat="22.094719" lon="104.262138"><ele>219.4</ele><time>2011-04-27T04:24:51.0000000+00:00</time></trkpt><trkpt lat="22.094803" lon="104.262047"><ele>220.1</ele><time>2011-04-27T04:24:56.0000000+00:00</time></trkpt><trkpt lat="22.094873" lon="104.26194"><ele>220.7</ele><time>2011-04-27T04:25:01.0000000+00:00</time></trkpt><trkpt lat="22.094929" lon="104.261833"><ele>222.9</ele><time>2011-04-27T04:25:06.0000000+00:00</time></trkpt><trkpt lat="22.094961" lon="104.261719"><ele>227.0</ele><time>2011-04-27T04:25:11.0000000+00:00</time></trkpt><trkpt lat="22.095013" lon="104.261574"><ele>228.6</ele><time>2011-04-27T04:25:16.0000000+00:00</time></trkpt><trkpt lat="22.095049" lon="104.261444"><ele>227.9</ele><time>2011-04-27T04:25:21.0000000+00:00</time></trkpt><trkpt lat="22.095104" lon="104.26133"><ele>225.6</ele><time>2011-04-27T04:25:26.0000000+00:00</time></trkpt><trkpt lat="22.095158" lon="104.261246"><ele>224.4</ele><time>2011-04-27T04:25:31.0000000+00:00</time></trkpt><trkpt lat="22.095221" lon="104.261192"><ele>223.6</ele><time>2011-04-27T04:25:36.0000000+00:00</time></trkpt><trkpt lat="22.095284" lon="104.261139"><ele>223.9</ele><time>2011-04-27T04:25:41.0000000+00:00</time></trkpt><trkpt lat="22.095356" lon="104.261086"><ele>223.2</ele><time>2011-04-27T04:25:46.0000000+00:00</time></trkpt><trkpt lat="22.095419" lon="104.261047"><ele>223.1</ele><time>2011-04-27T04:25:51.0000000+00:00</time></trkpt><trkpt lat="22.09547" lon="104.261002"><ele>226.2</ele><time>2011-04-27T04:25:56.0000000+00:00</time></trkpt><trkpt lat="22.095533" lon="104.260956"><ele>226.8</ele><time>2011-04-27T04:26:01.0000000+00:00</time></trkpt><trkpt lat="22.095587" lon="104.260918"><ele>227.0</ele><time>2011-04-27T04:26:06.0000000+00:00</time></trkpt><trkpt lat="22.095654" lon="104.260864"><ele>225.7</ele><time>2011-04-27T04:26:11.0000000+00:00</time></trkpt><trkpt lat="22.095699" lon="104.260818"><ele>225.9</ele><time>2011-04-27T04:26:16.0000000+00:00</time></trkpt><trkpt lat="22.095757" lon="104.260773"><ele>226.1</ele><time>2011-04-27T04:26:21.0000000+00:00</time></trkpt><trkpt lat="22.095804" lon="104.260727"><ele>226.4</ele><time>2011-04-27T04:26:26.0000000+00:00</time></trkpt><trkpt lat="22.095852" lon="104.260681"><ele>227.3</ele><time>2011-04-27T04:26:31.0000000+00:00</time></trkpt><trkpt lat="22.095915" lon="104.260658"><ele>232.8</ele><time>2011-04-27T04:26:36.0000000+00:00</time></trkpt><trkpt lat="22.095961" lon="104.26062"><ele>235.9</ele><time>2011-04-27T04:26:41.0000000+00:00</time></trkpt><trkpt lat="22.09601" lon="104.260567"><ele>238.0</ele><time>2011-04-27T04:26:46.0000000+00:00</time></trkpt><trkpt lat="22.096058" lon="104.260521"><ele>240.1</ele><time>2011-04-27T04:26:51.0000000+00:00</time></trkpt><trkpt lat="22.096106" lon="104.26049"><ele>241.9</ele><time>2011-04-27T04:26:56.0000000+00:00</time></trkpt><trkpt lat="22.096153" lon="104.260452"><ele>242.0</ele><time>2011-04-27T04:27:01.0000000+00:00</time></trkpt><trkpt lat="22.096216" lon="104.260406"><ele>242.8</ele><time>2011-04-27T04:27:06.0000000+00:00</time></trkpt><trkpt lat="22.096266" lon="104.260353"><ele>242.4</ele><time>2011-04-27T04:27:11.0000000+00:00</time></trkpt><trkpt lat="22.096315" lon="104.260292"><ele>241.4</ele><time>2011-04-27T04:27:16.0000000+00:00</time></trkpt><trkpt lat="22.096365" lon="104.260231"><ele>240.6</ele><time>2011-04-27T04:27:21.0000000+00:00</time></trkpt><trkpt lat="22.096422" lon="104.260193"><ele>239.4</ele><time>2011-04-27T04:27:26.0000000+00:00</time></trkpt><trkpt lat="22.09647" lon="104.260155"><ele>239.3</ele><time>2011-04-27T04:27:31.0000000+00:00</time></trkpt><trkpt lat="22.096504" lon="104.260124"><ele>238.9</ele><time>2011-04-27T04:27:36.0000000+00:00</time></trkpt><trkpt lat="22.096561" lon="104.260094"><ele>239.0</ele><time>2011-04-27T04:27:41.0000000+00:00</time></trkpt><trkpt lat="22.096615" lon="104.260071"><ele>239.2</ele><time>2011-04-27T04:27:46.0000000+00:00</time></trkpt><trkpt lat="22.09667" lon="104.260048"><ele>238.8</ele><time>2011-04-27T04:27:51.0000000+00:00</time></trkpt><trkpt lat="22.096737" lon="104.26004"><ele>238.9</ele><time>2011-04-27T04:27:56.0000000+00:00</time></trkpt><trkpt lat="22.09679" lon="104.26004"><ele>238.2</ele><time>2011-04-27T04:28:01.0000000+00:00</time></trkpt><trkpt lat="22.096842" lon="104.260002"><ele>238.9</ele><time>2011-04-27T04:28:06.0000000+00:00</time></trkpt><trkpt lat="22.096903" lon="104.259987"><ele>233.7</ele><time>2011-04-27T04:28:11.0000000+00:00</time></trkpt><trkpt lat="22.096964" lon="104.260002"><ele>234.5</ele><time>2011-04-27T04:28:16.0000000+00:00</time></trkpt><trkpt lat="22.097025" lon="104.259995"><ele>235.9</ele><time>2011-04-27T04:28:21.0000000+00:00</time></trkpt><trkpt lat="22.097078" lon="104.259979"><ele>239.7</ele><time>2011-04-27T04:28:26.0000000+00:00</time></trkpt><trkpt lat="22.097134" lon="104.259972"><ele>242.9</ele><time>2011-04-27T04:28:31.0000000+00:00</time></trkpt><trkpt lat="22.097189" lon="104.259964"><ele>246.0</ele><time>2011-04-27T04:28:36.0000000+00:00</time></trkpt><trkpt lat="22.097239" lon="104.259949"><ele>246.4</ele><time>2011-04-27T04:28:41.0000000+00:00</time></trkpt><trkpt lat="22.097292" lon="104.259949"><ele>248.6</ele><time>2011-04-27T04:28:46.0000000+00:00</time></trkpt><trkpt lat="22.097343" lon="104.259941"><ele>250.1</ele><time>2011-04-27T04:28:51.0000000+00:00</time></trkpt><trkpt lat="22.097389" lon="104.259926"><ele>248.9</ele><time>2011-04-27T04:28:56.0000000+00:00</time></trkpt><trkpt lat="22.097429" lon="104.259911"><ele>248.8</ele><time>2011-04-27T04:29:01.0000000+00:00</time></trkpt><trkpt lat="22.097473" lon="104.259911"><ele>250.4</ele><time>2011-04-27T04:29:06.0000000+00:00</time></trkpt><trkpt lat="22.097536" lon="104.259903"><ele>248.8</ele><time>2011-04-27T04:29:11.0000000+00:00</time></trkpt><trkpt lat="22.09758" lon="104.25988"><ele>248.2</ele><time>2011-04-27T04:29:16.0000000+00:00</time></trkpt><trkpt lat="22.097643" lon="104.259865"><ele>246.6</ele><time>2011-04-27T04:29:21.0000000+00:00</time></trkpt><trkpt lat="22.097706" lon="104.259842"><ele>246.2</ele><time>2011-04-27T04:29:26.0000000+00:00</time></trkpt><trkpt lat="22.097775" lon="104.259819"><ele>246.5</ele><time>2011-04-27T04:29:31.0000000+00:00</time></trkpt><trkpt lat="22.097828" lon="104.259804"><ele>248.1</ele><time>2011-04-27T04:29:36.0000000+00:00</time></trkpt><trkpt lat="22.097881" lon="104.259796"><ele>249.1</ele><time>2011-04-27T04:29:41.0000000+00:00</time></trkpt><trkpt lat="22.097927" lon="104.259766"><ele>250.4</ele><time>2011-04-27T04:29:46.0000000+00:00</time></trkpt><trkpt lat="22.097969" lon="104.259743"><ele>251.1</ele><time>2011-04-27T04:29:51.0000000+00:00</time></trkpt><trkpt lat="22.098022" lon="104.259743"><ele>250.9</ele><time>2011-04-27T04:29:56.0000000+00:00</time></trkpt><trkpt lat="22.098066" lon="104.259705"><ele>251.0</ele><time>2011-04-27T04:30:01.0000000+00:00</time></trkpt><trkpt lat="22.098122" lon="104.259682"><ele>250.8</ele><time>2011-04-27T04:30:06.0000000+00:00</time></trkpt><trkpt lat="22.098166" lon="104.259659"><ele>251.8</ele><time>2011-04-27T04:30:11.0000000+00:00</time></trkpt><trkpt lat="22.098221" lon="104.259644"><ele>251.9</ele><time>2011-04-27T04:30:16.0000000+00:00</time></trkpt><trkpt lat="22.098272" lon="104.259605"><ele>251.9</ele><time>2011-04-27T04:30:21.0000000+00:00</time></trkpt><trkpt lat="22.098322" lon="104.259583"><ele>253.5</ele><time>2011-04-27T04:30:26.0000000+00:00</time></trkpt><trkpt lat="22.098375" lon="104.259544"><ele>252.4</ele><time>2011-04-27T04:30:31.0000000+00:00</time></trkpt><trkpt lat="22.098436" lon="104.259514"><ele>253.1</ele><time>2011-04-27T04:30:36.0000000+00:00</time></trkpt><trkpt lat="22.098484" lon="104.259483"><ele>253.6</ele><time>2011-04-27T04:30:41.0000000+00:00</time></trkpt><trkpt lat="22.09853" lon="104.259468"><ele>254.2</ele><time>2011-04-27T04:30:46.0000000+00:00</time></trkpt><trkpt lat="22.098579" lon="104.25943"><ele>255.2</ele><time>2011-04-27T04:30:51.0000000+00:00</time></trkpt><trkpt lat="22.098623" lon="104.259415"><ele>256.4</ele><time>2011-04-27T04:30:56.0000000+00:00</time></trkpt><trkpt lat="22.098679" lon="104.259392"><ele>257.4</ele><time>2011-04-27T04:31:01.0000000+00:00</time></trkpt><trkpt lat="22.098715" lon="104.259369"><ele>258.4</ele><time>2011-04-27T04:31:06.0000000+00:00</time></trkpt><trkpt lat="22.098778" lon="104.259338"><ele>259.8</ele><time>2011-04-27T04:31:11.0000000+00:00</time></trkpt><trkpt lat="22.098822" lon="104.259331"><ele>261.3</ele><time>2011-04-27T04:31:16.0000000+00:00</time></trkpt><trkpt lat="22.098866" lon="104.259315"><ele>263.3</ele><time>2011-04-27T04:31:21.0000000+00:00</time></trkpt><trkpt lat="22.098919" lon="104.259293"><ele>266.9</ele><time>2011-04-27T04:31:26.0000000+00:00</time></trkpt><trkpt lat="22.098965" lon="104.259285"><ele>269.5</ele><time>2011-04-27T04:31:31.0000000+00:00</time></trkpt><trkpt lat="22.099003" lon="104.25927"><ele>272.6</ele><time>2011-04-27T04:31:36.0000000+00:00</time></trkpt><trkpt lat="22.099052" lon="104.259232"><ele>273.6</ele><time>2011-04-27T04:31:41.0000000+00:00</time></trkpt><trkpt lat="22.099106" lon="104.259201"><ele>276.6</ele><time>2011-04-27T04:31:46.0000000+00:00</time></trkpt><trkpt lat="22.09914" lon="104.259186"><ele>279.2</ele><time>2011-04-27T04:31:51.0000000+00:00</time></trkpt><trkpt lat="22.099188" lon="104.259163"><ele>279.4</ele><time>2011-04-27T04:31:56.0000000+00:00</time></trkpt><trkpt lat="22.099253" lon="104.259117"><ele>280.9</ele><time>2011-04-27T04:32:01.0000000+00:00</time></trkpt><trkpt lat="22.099314" lon="104.259087"><ele>280.9</ele><time>2011-04-27T04:32:06.0000000+00:00</time></trkpt><trkpt lat="22.099348" lon="104.259071"><ele>281.4</ele><time>2011-04-27T04:32:11.0000000+00:00</time></trkpt><trkpt lat="22.099407" lon="104.259048"><ele>282.8</ele><time>2011-04-27T04:32:16.0000000+00:00</time></trkpt><trkpt lat="22.099464" lon="104.259041"><ele>283.8</ele><time>2011-04-27T04:32:21.0000000+00:00</time></trkpt><trkpt lat="22.099518" lon="104.25901"><ele>283.1</ele><time>2011-04-27T04:32:26.0000000+00:00</time></trkpt><trkpt lat="22.099573" lon="104.258987"><ele>283.0</ele><time>2011-04-27T04:32:31.0000000+00:00</time></trkpt><trkpt lat="22.099611" lon="104.258957"><ele>283.6</ele><time>2011-04-27T04:32:36.0000000+00:00</time></trkpt><trkpt lat="22.099651" lon="104.258926"><ele>281.5</ele><time>2011-04-27T04:32:41.0000000+00:00</time></trkpt><trkpt lat="22.09971" lon="104.258896"><ele>281.2</ele><time>2011-04-27T04:32:46.0000000+00:00</time></trkpt><trkpt lat="22.099758" lon="104.258858"><ele>280.8</ele><time>2011-04-27T04:32:51.0000000+00:00</time></trkpt><trkpt lat="22.099806" lon="104.258827"><ele>278.8</ele><time>2011-04-27T04:32:56.0000000+00:00</time></trkpt><trkpt lat="22.099861" lon="104.258797"><ele>278.5</ele><time>2011-04-27T04:33:01.0000000+00:00</time></trkpt><trkpt lat="22.099918" lon="104.258759"><ele>280.4</ele><time>2011-04-27T04:33:06.0000000+00:00</time></trkpt><trkpt lat="22.099972" lon="104.258728"><ele>281.8</ele><time>2011-04-27T04:33:11.0000000+00:00</time></trkpt><trkpt lat="22.100019" lon="104.258698"><ele>283.1</ele><time>2011-04-27T04:33:16.0000000+00:00</time></trkpt><trkpt lat="22.100056" lon="104.258675"><ele>284.0</ele><time>2011-04-27T04:33:21.0000000+00:00</time></trkpt><trkpt lat="22.100103" lon="104.258644"><ele>283.7</ele><time>2011-04-27T04:33:26.0000000+00:00</time></trkpt><trkpt lat="22.100166" lon="104.258606"><ele>284.0</ele><time>2011-04-27T04:33:31.0000000+00:00</time></trkpt><trkpt lat="22.100246" lon="104.258575"><ele>283.6</ele><time>2011-04-27T04:33:36.0000000+00:00</time></trkpt><trkpt lat="22.100307" lon="104.258568"><ele>283.2</ele><time>2011-04-27T04:33:41.0000000+00:00</time></trkpt><trkpt lat="22.100395" lon="104.258591"><ele>283.0</ele><time>2011-04-27T04:33:46.0000000+00:00</time></trkpt><trkpt lat="22.10046" lon="104.258667"><ele>282.4</ele><time>2011-04-27T04:33:51.0000000+00:00</time></trkpt><trkpt lat="22.100506" lon="104.258759"><ele>283.3</ele><time>2011-04-27T04:33:56.0000000+00:00</time></trkpt><trkpt lat="22.100502" lon="104.258827"><ele>283.4</ele><time>2011-04-27T04:34:01.0000000+00:00</time></trkpt><trkpt lat="22.100483" lon="104.258873"><ele>286.0</ele><time>2011-04-27T04:34:06.0000000+00:00</time></trkpt><trkpt lat="22.100431" lon="104.258942"><ele>287.5</ele><time>2011-04-27T04:34:11.0000000+00:00</time></trkpt><trkpt lat="22.100372" lon="104.259003"><ele>290.2</ele><time>2011-04-27T04:34:16.0000000+00:00</time></trkpt><trkpt lat="22.100319" lon="104.259056"><ele>293.0</ele><time>2011-04-27T04:34:21.0000000+00:00</time></trkpt><trkpt lat="22.100246" lon="104.259132"><ele>295.5</ele><time>2011-04-27T04:34:26.0000000+00:00</time></trkpt><trkpt lat="22.100185" lon="104.259201"><ele>297.7</ele><time>2011-04-27T04:34:31.0000000+00:00</time></trkpt><trkpt lat="22.100153" lon="104.259239"><ele>300.8</ele><time>2011-04-27T04:34:36.0000000+00:00</time></trkpt><trkpt lat="22.100101" lon="104.259293"><ele>300.7</ele><time>2011-04-27T04:34:41.0000000+00:00</time></trkpt><trkpt lat="22.100071" lon="104.259331"><ele>300.7</ele><time>2011-04-27T04:34:46.0000000+00:00</time></trkpt><trkpt lat="22.100021" lon="104.259369"><ele>300.8</ele><time>2011-04-27T04:34:51.0000000+00:00</time></trkpt><trkpt lat="22.099972" lon="104.259422"><ele>301.8</ele><time>2011-04-27T04:34:56.0000000+00:00</time></trkpt><trkpt lat="22.099922" lon="104.25946"><ele>303.5</ele><time>2011-04-27T04:35:01.0000000+00:00</time></trkpt><trkpt lat="22.099861" lon="104.259491"><ele>305.2</ele><time>2011-04-27T04:35:06.0000000+00:00</time></trkpt><trkpt lat="22.099766" lon="104.259544"><ele>306.3</ele><time>2011-04-27T04:35:11.0000000+00:00</time></trkpt><trkpt lat="22.09967" lon="104.259621"><ele>306.4</ele><time>2011-04-27T04:35:16.0000000+00:00</time></trkpt><trkpt lat="22.099552" lon="104.259697"><ele>307.2</ele><time>2011-04-27T04:35:21.0000000+00:00</time></trkpt><trkpt lat="22.099453" lon="104.25975"><ele>307.8</ele><time>2011-04-27T04:35:26.0000000+00:00</time></trkpt><trkpt lat="22.099352" lon="104.259827"><ele>308.9</ele><time>2011-04-27T04:35:31.0000000+00:00</time></trkpt><trkpt lat="22.099249" lon="104.259926"><ele>310.0</ele><time>2011-04-27T04:35:36.0000000+00:00</time></trkpt><trkpt lat="22.099154" lon="104.260048"><ele>307.5</ele><time>2011-04-27T04:35:41.0000000+00:00</time></trkpt><trkpt lat="22.099075" lon="104.260178"><ele>299.0</ele><time>2011-04-27T04:35:46.0000000+00:00</time></trkpt><trkpt lat="22.099041" lon="104.260323"><ele>295.4</ele><time>2011-04-27T04:35:51.0000000+00:00</time></trkpt><trkpt lat="22.099066" lon="104.260475"><ele>297.1</ele><time>2011-04-27T04:35:56.0000000+00:00</time></trkpt><trkpt lat="22.099121" lon="104.26059"><ele>295.0</ele><time>2011-04-27T04:36:01.0000000+00:00</time></trkpt><trkpt lat="22.099194" lon="104.260658"><ele>294.0</ele><time>2011-04-27T04:36:06.0000000+00:00</time></trkpt><trkpt lat="22.099262" lon="104.260712"><ele>293.6</ele><time>2011-04-27T04:36:11.0000000+00:00</time></trkpt><trkpt lat="22.099335" lon="104.260727"><ele>293.9</ele><time>2011-04-27T04:36:16.0000000+00:00</time></trkpt><trkpt lat="22.099411" lon="104.260765"><ele>293.2</ele><time>2011-04-27T04:36:21.0000000+00:00</time></trkpt><trkpt lat="22.099493" lon="104.260803"><ele>292.3</ele><time>2011-04-27T04:36:26.0000000+00:00</time></trkpt><trkpt lat="22.099562" lon="104.260841"><ele>292.1</ele><time>2011-04-27T04:36:31.0000000+00:00</time></trkpt><trkpt lat="22.099628" lon="104.260872"><ele>291.4</ele><time>2011-04-27T04:36:36.0000000+00:00</time></trkpt><trkpt lat="22.099682" lon="104.260887"><ele>291.3</ele><time>2011-04-27T04:36:41.0000000+00:00</time></trkpt><trkpt lat="22.099745" lon="104.260918"><ele>290.4</ele><time>2011-04-27T04:36:46.0000000+00:00</time></trkpt><trkpt lat="22.0998" lon="104.260956"><ele>289.9</ele><time>2011-04-27T04:36:51.0000000+00:00</time></trkpt><trkpt lat="22.099861" lon="104.260994"><ele>289.6</ele><time>2011-04-27T04:36:56.0000000+00:00</time></trkpt><trkpt lat="22.099924" lon="104.261002"><ele>289.3</ele><time>2011-04-27T04:37:01.0000000+00:00</time></trkpt><trkpt lat="22.099976" lon="104.261032"><ele>288.4</ele><time>2011-04-27T04:37:06.0000000+00:00</time></trkpt><trkpt lat="22.100037" lon="104.261047"><ele>287.7</ele><time>2011-04-27T04:37:11.0000000+00:00</time></trkpt><trkpt lat="22.100069" lon="104.261055"><ele>288.9</ele><time>2011-04-27T04:37:16.0000000+00:00</time></trkpt><trkpt lat="22.100075" lon="104.261055"><ele>289.1</ele><time>2011-04-27T04:37:21.0000000+00:00</time></trkpt><trkpt lat="22.100079" lon="104.261055"><ele>289.0</ele><time>2011-04-27T04:37:26.0000000+00:00</time></trkpt><trkpt lat="22.100079" lon="104.261055"><ele>288.9</ele><time>2011-04-27T04:37:31.0000000+00:00</time></trkpt><trkpt lat="22.10008" lon="104.261055"><ele>288.9</ele><time>2011-04-27T04:37:36.0000000+00:00</time></trkpt><trkpt lat="22.10008" lon="104.261055"><ele>288.9</ele><time>2011-04-27T04:37:41.0000000+00:00</time></trkpt><trkpt lat="22.100082" lon="104.261047"><ele>288.9</ele><time>2011-04-27T04:37:46.0000000+00:00</time></trkpt><trkpt lat="22.100082" lon="104.261047"><ele>288.9</ele><time>2011-04-27T04:37:51.0000000+00:00</time></trkpt><trkpt lat="22.100082" lon="104.261047"><ele>288.9</ele><time>2011-04-27T04:37:56.0000000+00:00</time></trkpt><trkpt lat="22.10008" lon="104.261047"><ele>288.9</ele><time>2011-04-27T04:38:01.0000000+00:00</time></trkpt><trkpt lat="22.100084" lon="104.26104"><ele>289.0</ele><time>2011-04-27T04:38:06.0000000+00:00</time></trkpt><trkpt lat="22.100086" lon="104.26104"><ele>289.1</ele><time>2011-04-27T04:38:11.0000000+00:00</time></trkpt><trkpt lat="22.100088" lon="104.26104"><ele>289.1</ele><time>2011-04-27T04:38:16.0000000+00:00</time></trkpt><trkpt lat="22.100115" lon="104.26104"><ele>289.2</ele><time>2011-04-27T04:38:21.0000000+00:00</time></trkpt><trkpt lat="22.100187" lon="104.26104"><ele>289.2</ele><time>2011-04-27T04:38:26.0000000+00:00</time></trkpt><trkpt lat="22.100264" lon="104.261047"><ele>290.4</ele><time>2011-04-27T04:38:31.0000000+00:00</time></trkpt><trkpt lat="22.100353" lon="104.261047"><ele>290.4</ele><time>2011-04-27T04:38:36.0000000+00:00</time></trkpt><trkpt lat="22.100441" lon="104.261032"><ele>289.9</ele><time>2011-04-27T04:38:41.0000000+00:00</time></trkpt><trkpt lat="22.1005" lon="104.261009"><ele>290.4</ele><time>2011-04-27T04:38:46.0000000+00:00</time></trkpt><trkpt lat="22.100574" lon="104.261002"><ele>289.9</ele><time>2011-04-27T04:38:51.0000000+00:00</time></trkpt><trkpt lat="22.100637" lon="104.261009"><ele>292.2</ele><time>2011-04-27T04:38:56.0000000+00:00</time></trkpt><trkpt lat="22.100706" lon="104.261024"><ele>292.9</ele><time>2011-04-27T04:39:01.0000000+00:00</time></trkpt><trkpt lat="22.100773" lon="104.261009"><ele>292.8</ele><time>2011-04-27T04:39:06.0000000+00:00</time></trkpt><trkpt lat="22.100838" lon="104.261009"><ele>293.9</ele><time>2011-04-27T04:39:11.0000000+00:00</time></trkpt><trkpt lat="22.100908" lon="104.261024"><ele>295.1</ele><time>2011-04-27T04:39:16.0000000+00:00</time></trkpt><trkpt lat="22.100973" lon="104.261024"><ele>295.3</ele><time>2011-04-27T04:39:21.0000000+00:00</time></trkpt><trkpt lat="22.101015" lon="104.261024"><ele>295.6</ele><time>2011-04-27T04:39:26.0000000+00:00</time></trkpt><trkpt lat="22.101067" lon="104.261032"><ele>295.9</ele><time>2011-04-27T04:39:31.0000000+00:00</time></trkpt><trkpt lat="22.101131" lon="104.26104"><ele>297.1</ele><time>2011-04-27T04:39:36.0000000+00:00</time></trkpt><trkpt lat="22.101181" lon="104.261047"><ele>298.8</ele><time>2011-04-27T04:39:41.0000000+00:00</time></trkpt><trkpt lat="22.101238" lon="104.261055"><ele>299.8</ele><time>2011-04-27T04:39:46.0000000+00:00</time></trkpt><trkpt lat="22.101288" lon="104.261055"><ele>301.8</ele><time>2011-04-27T04:39:51.0000000+00:00</time></trkpt><trkpt lat="22.101345" lon="104.261055"><ele>302.5</ele><time>2011-04-27T04:39:56.0000000+00:00</time></trkpt><trkpt lat="22.101395" lon="104.26107"><ele>305.5</ele><time>2011-04-27T04:40:01.0000000+00:00</time></trkpt><trkpt lat="22.101442" lon="104.261078"><ele>307.1</ele><time>2011-04-27T04:40:06.0000000+00:00</time></trkpt><trkpt lat="22.101484" lon="104.261078"><ele>308.4</ele><time>2011-04-27T04:40:11.0000000+00:00</time></trkpt><trkpt lat="22.101538" lon="104.26107"><ele>308.7</ele><time>2011-04-27T04:40:16.0000000+00:00</time></trkpt><trkpt lat="22.101583" lon="104.261078"><ele>309.0</ele><time>2011-04-27T04:40:21.0000000+00:00</time></trkpt><trkpt lat="22.101633" lon="104.261055"><ele>309.7</ele><time>2011-04-27T04:40:26.0000000+00:00</time></trkpt><trkpt lat="22.101683" lon="104.261017"><ele>312.2</ele><time>2011-04-27T04:40:31.0000000+00:00</time></trkpt><trkpt lat="22.101734" lon="104.260979"><ele>311.9</ele><time>2011-04-27T04:40:36.0000000+00:00</time></trkpt><trkpt lat="22.101774" lon="104.26091"><ele>312.1</ele><time>2011-04-27T04:40:41.0000000+00:00</time></trkpt><trkpt lat="22.10182" lon="104.260857"><ele>312.3</ele><time>2011-04-27T04:40:46.0000000+00:00</time></trkpt><trkpt lat="22.101856" lon="104.260803"><ele>313.9</ele><time>2011-04-27T04:40:51.0000000+00:00</time></trkpt><trkpt lat="22.101879" lon="104.260765"><ele>314.8</ele><time>2011-04-27T04:40:56.0000000+00:00</time></trkpt><trkpt lat="22.101927" lon="104.260712"><ele>316.0</ele><time>2011-04-27T04:41:01.0000000+00:00</time></trkpt><trkpt lat="22.101971" lon="104.260658"><ele>316.0</ele><time>2011-04-27T04:41:06.0000000+00:00</time></trkpt><trkpt lat="22.102026" lon="104.260635"><ele>316.7</ele><time>2011-04-27T04:41:11.0000000+00:00</time></trkpt><trkpt lat="22.102089" lon="104.260628"><ele>318.7</ele><time>2011-04-27T04:41:16.0000000+00:00</time></trkpt><trkpt lat="22.10215" lon="104.260651"><ele>319.8</ele><time>2011-04-27T04:41:21.0000000+00:00</time></trkpt><trkpt lat="22.102194" lon="104.260666"><ele>321.0</ele><time>2011-04-27T04:41:26.0000000+00:00</time></trkpt><trkpt lat="22.10224" lon="104.260689"><ele>321.9</ele><time>2011-04-27T04:41:31.0000000+00:00</time></trkpt><trkpt lat="22.102287" lon="104.260712"><ele>323.8</ele><time>2011-04-27T04:41:36.0000000+00:00</time></trkpt><trkpt lat="22.10232" lon="104.260765"><ele>323.5</ele><time>2011-04-27T04:41:41.0000000+00:00</time></trkpt><trkpt lat="22.102358" lon="104.26078"><ele>323.5</ele><time>2011-04-27T04:41:46.0000000+00:00</time></trkpt><trkpt lat="22.102394" lon="104.260811"><ele>324.4</ele><time>2011-04-27T04:41:51.0000000+00:00</time></trkpt><trkpt lat="22.10244" lon="104.260864"><ele>324.8</ele><time>2011-04-27T04:41:56.0000000+00:00</time></trkpt><trkpt lat="22.102501" lon="104.260895"><ele>325.0</ele><time>2011-04-27T04:42:01.0000000+00:00</time></trkpt><trkpt lat="22.10256" lon="104.260895"><ele>325.1</ele><time>2011-04-27T04:42:06.0000000+00:00</time></trkpt><trkpt lat="22.102615" lon="104.260887"><ele>326.0</ele><time>2011-04-27T04:42:11.0000000+00:00</time></trkpt><trkpt lat="22.102669" lon="104.260872"><ele>326.1</ele><time>2011-04-27T04:42:16.0000000+00:00</time></trkpt><trkpt lat="22.102715" lon="104.260849"><ele>326.3</ele><time>2011-04-27T04:42:21.0000000+00:00</time></trkpt><trkpt lat="22.102764" lon="104.260803"><ele>327.0</ele><time>2011-04-27T04:42:26.0000000+00:00</time></trkpt><trkpt lat="22.10281" lon="104.260765"><ele>326.0</ele><time>2011-04-27T04:42:31.0000000+00:00</time></trkpt><trkpt lat="22.102858" lon="104.260735"><ele>326.6</ele><time>2011-04-27T04:42:36.0000000+00:00</time></trkpt><trkpt lat="22.102907" lon="104.260712"><ele>327.9</ele><time>2011-04-27T04:42:41.0000000+00:00</time></trkpt><trkpt lat="22.102959" lon="104.260674"><ele>327.3</ele><time>2011-04-27T04:42:46.0000000+00:00</time></trkpt><trkpt lat="22.102999" lon="104.260635"><ele>327.9</ele><time>2011-04-27T04:42:51.0000000+00:00</time></trkpt><trkpt lat="22.103058" lon="104.26062"><ele>328.2</ele><time>2011-04-27T04:42:56.0000000+00:00</time></trkpt><trkpt lat="22.103123" lon="104.260628"><ele>328.6</ele><time>2011-04-27T04:43:01.0000000+00:00</time></trkpt><trkpt lat="22.10318" lon="104.260643"><ele>328.5</ele><time>2011-04-27T04:43:06.0000000+00:00</time></trkpt><trkpt lat="22.103228" lon="104.260681"><ele>327.3</ele><time>2011-04-27T04:43:11.0000000+00:00</time></trkpt><trkpt lat="22.103275" lon="104.260704"><ele>326.6</ele><time>2011-04-27T04:43:16.0000000+00:00</time></trkpt><trkpt lat="22.103315" lon="104.260727"><ele>326.1</ele><time>2011-04-27T04:43:21.0000000+00:00</time></trkpt><trkpt lat="22.103355" lon="104.260773"><ele>325.1</ele><time>2011-04-27T04:43:26.0000000+00:00</time></trkpt><trkpt lat="22.103401" lon="104.260818"><ele>324.0</ele><time>2011-04-27T04:43:31.0000000+00:00</time></trkpt><trkpt lat="22.103458" lon="104.260864"><ele>323.3</ele><time>2011-04-27T04:43:36.0000000+00:00</time></trkpt><trkpt lat="22.10351" lon="104.260902"><ele>323.1</ele><time>2011-04-27T04:43:41.0000000+00:00</time></trkpt><trkpt lat="22.103573" lon="104.260925"><ele>322.8</ele><time>2011-04-27T04:43:46.0000000+00:00</time></trkpt><trkpt lat="22.103638" lon="104.260956"><ele>322.4</ele><time>2011-04-27T04:43:51.0000000+00:00</time></trkpt><trkpt lat="22.103697" lon="104.260979"><ele>323.3</ele><time>2011-04-27T04:43:56.0000000+00:00</time></trkpt><trkpt lat="22.103758" lon="104.260994"><ele>324.7</ele><time>2011-04-27T04:44:01.0000000+00:00</time></trkpt><trkpt lat="22.103823" lon="104.260986"><ele>323.2</ele><time>2011-04-27T04:44:06.0000000+00:00</time></trkpt><trkpt lat="22.103888" lon="104.260986"><ele>321.4</ele><time>2011-04-27T04:44:11.0000000+00:00</time></trkpt><trkpt lat="22.103956" lon="104.260986"><ele>322.5</ele><time>2011-04-27T04:44:16.0000000+00:00</time></trkpt><trkpt lat="22.104019" lon="104.260986"><ele>322.3</ele><time>2011-04-27T04:44:21.0000000+00:00</time></trkpt><trkpt lat="22.104073" lon="104.260971"><ele>322.7</ele><time>2011-04-27T04:44:26.0000000+00:00</time></trkpt><trkpt lat="22.104124" lon="104.260971"><ele>322.7</ele><time>2011-04-27T04:44:31.0000000+00:00</time></trkpt><trkpt lat="22.104177" lon="104.260971"><ele>322.6</ele><time>2011-04-27T04:44:36.0000000+00:00</time></trkpt><trkpt lat="22.104233" lon="104.260971"><ele>324.4</ele><time>2011-04-27T04:44:41.0000000+00:00</time></trkpt><trkpt lat="22.104282" lon="104.260963"><ele>326.2</ele><time>2011-04-27T04:44:46.0000000+00:00</time></trkpt><trkpt lat="22.104374" lon="104.260979"><ele>328.4</ele><time>2011-04-27T04:44:51.0000000+00:00</time></trkpt><trkpt lat="22.104431" lon="104.260986"><ele>330.5</ele><time>2011-04-27T04:44:56.0000000+00:00</time></trkpt><trkpt lat="22.104507" lon="104.260971"><ele>334.3</ele><time>2011-04-27T04:45:01.0000000+00:00</time></trkpt><trkpt lat="22.104559" lon="104.260963"><ele>339.6</ele><time>2011-04-27T04:45:06.0000000+00:00</time></trkpt><trkpt lat="22.104597" lon="104.260948"><ele>342.9</ele><time>2011-04-27T04:45:11.0000000+00:00</time></trkpt><trkpt lat="22.104628" lon="104.260902"><ele>342.4</ele><time>2011-04-27T04:45:16.0000000+00:00</time></trkpt><trkpt lat="22.104628" lon="104.260902"><ele>343.5</ele><time>2011-04-27T04:45:21.0000000+00:00</time></trkpt><trkpt lat="22.10463" lon="104.260895"><ele>344.7</ele><time>2011-04-27T04:45:26.0000000+00:00</time></trkpt><trkpt lat="22.104626" lon="104.260887"><ele>347.8</ele><time>2011-04-27T04:45:31.0000000+00:00</time></trkpt><trkpt lat="22.104626" lon="104.260864"><ele>350.3</ele><time>2011-04-27T04:45:36.0000000+00:00</time></trkpt><trkpt lat="22.104624" lon="104.260864"><ele>351.8</ele><time>2011-04-27T04:45:41.0000000+00:00</time></trkpt><trkpt lat="22.10462" lon="104.260864"><ele>352.6</ele><time>2011-04-27T04:45:46.0000000+00:00</time></trkpt><trkpt lat="22.104622" lon="104.260864"><ele>353.4</ele><time>2011-04-27T04:45:51.0000000+00:00</time></trkpt><trkpt lat="22.104614" lon="104.260857"><ele>355.7</ele><time>2011-04-27T04:45:56.0000000+00:00</time></trkpt><trkpt lat="22.104597" lon="104.260841"><ele>357.3</ele><time>2011-04-27T04:46:01.0000000+00:00</time></trkpt><trkpt lat="22.104593" lon="104.260841"><ele>358.6</ele><time>2011-04-27T04:46:06.0000000+00:00</time></trkpt><trkpt lat="22.104593" lon="104.260841"><ele>358.6</ele><time>2011-04-27T04:46:11.0000000+00:00</time></trkpt><trkpt lat="22.104591" lon="104.260841"><ele>358.7</ele><time>2011-04-27T04:46:16.0000000+00:00</time></trkpt><trkpt lat="22.104589" lon="104.260841"><ele>358.7</ele><time>2011-04-27T04:46:21.0000000+00:00</time></trkpt><trkpt lat="22.104586" lon="104.260841"><ele>358.8</ele><time>2011-04-27T04:46:26.0000000+00:00</time></trkpt><trkpt lat="22.104584" lon="104.260841"><ele>358.9</ele><time>2011-04-27T04:46:31.0000000+00:00</time></trkpt><trkpt lat="22.104582" lon="104.260841"><ele>358.9</ele><time>2011-04-27T04:46:36.0000000+00:00</time></trkpt><trkpt lat="22.10458" lon="104.260841"><ele>359.0</ele><time>2011-04-27T04:46:41.0000000+00:00</time></trkpt><trkpt lat="22.104578" lon="104.260849"><ele>359.1</ele><time>2011-04-27T04:46:46.0000000+00:00</time></trkpt><trkpt lat="22.104576" lon="104.260857"><ele>359.2</ele><time>2011-04-27T04:46:51.0000000+00:00</time></trkpt><trkpt lat="22.104574" lon="104.260864"><ele>359.3</ele><time>2011-04-27T04:46:56.0000000+00:00</time></trkpt><trkpt lat="22.104574" lon="104.260864"><ele>359.4</ele><time>2011-04-27T04:47:01.0000000+00:00</time></trkpt><trkpt lat="22.104576" lon="104.260864"><ele>359.5</ele><time>2011-04-27T04:47:06.0000000+00:00</time></trkpt><trkpt lat="22.104576" lon="104.260864"><ele>359.7</ele><time>2011-04-27T04:47:11.0000000+00:00</time></trkpt><trkpt lat="22.104576" lon="104.260857"><ele>359.8</ele><time>2011-04-27T04:47:16.0000000+00:00</time></trkpt><trkpt lat="22.104578" lon="104.260857"><ele>359.9</ele><time>2011-04-27T04:47:21.0000000+00:00</time></trkpt><trkpt lat="22.104584" lon="104.260849"><ele>360.2</ele><time>2011-04-27T04:47:26.0000000+00:00</time></trkpt><trkpt lat="22.104662" lon="104.260818"><ele>362.1</ele><time>2011-04-27T04:47:31.0000000+00:00</time></trkpt><trkpt lat="22.104792" lon="104.260742"><ele>362.3</ele><time>2011-04-27T04:47:36.0000000+00:00</time></trkpt><trkpt lat="22.104931" lon="104.260704"><ele>361.8</ele><time>2011-04-27T04:47:41.0000000+00:00</time></trkpt><trkpt lat="22.105103" lon="104.260674"><ele>363.2</ele><time>2011-04-27T04:47:46.0000000+00:00</time></trkpt><trkpt lat="22.105228" lon="104.260681"><ele>359.1</ele><time>2011-04-27T04:47:51.0000000+00:00</time></trkpt><trkpt lat="22.105358" lon="104.260696"><ele>356.7</ele><time>2011-04-27T04:47:56.0000000+00:00</time></trkpt><trkpt lat="22.105579" lon="104.260719"><ele>348.6</ele><time>2011-04-27T04:48:01.0000000+00:00</time></trkpt><trkpt lat="22.105864" lon="104.260643"><ele>350.2</ele><time>2011-04-27T04:48:06.0000000+00:00</time></trkpt><trkpt lat="22.106173" lon="104.260376"><ele>345.9</ele><time>2011-04-27T04:48:11.0000000+00:00</time></trkpt><trkpt lat="22.106501" lon="104.260178"><ele>342.2</ele><time>2011-04-27T04:48:16.0000000+00:00</time></trkpt><trkpt lat="22.106825" lon="104.26004"><ele>339.2</ele><time>2011-04-27T04:48:21.0000000+00:00</time></trkpt><trkpt lat="22.107067" lon="104.259842"><ele>336.9</ele><time>2011-04-27T04:48:26.0000000+00:00</time></trkpt><trkpt lat="22.107189" lon="104.259567"><ele>334.2</ele><time>2011-04-27T04:48:31.0000000+00:00</time></trkpt><trkpt lat="22.107388" lon="104.259346"><ele>330.4</ele><time>2011-04-27T04:48:36.0000000+00:00</time></trkpt><trkpt lat="22.107714" lon="104.259247"><ele>328.4</ele><time>2011-04-27T04:48:41.0000000+00:00</time></trkpt><trkpt lat="22.108084" lon="104.259117"><ele>326.6</ele><time>2011-04-27T04:48:46.0000000+00:00</time></trkpt><trkpt lat="22.108486" lon="104.259186"><ele>322.2</ele><time>2011-04-27T04:48:51.0000000+00:00</time></trkpt><trkpt lat="22.108833" lon="104.259499"><ele>318.8</ele><time>2011-04-27T04:48:56.0000000+00:00</time></trkpt><trkpt lat="22.109221" lon="104.259804"><ele>315.8</ele><time>2011-04-27T04:49:01.0000000+00:00</time></trkpt><trkpt lat="22.109705" lon="104.259911"><ele>314.5</ele><time>2011-04-27T04:49:06.0000000+00:00</time></trkpt><trkpt lat="22.110146" lon="104.259773"><ele>313.9</ele><time>2011-04-27T04:49:11.0000000+00:00</time></trkpt><trkpt lat="22.110609" lon="104.259651"><ele>310.3</ele><time>2011-04-27T04:49:16.0000000+00:00</time></trkpt><trkpt lat="22.111076" lon="104.259827"><ele>309.0</ele><time>2011-04-27T04:49:21.0000000+00:00</time></trkpt><trkpt lat="22.111616" lon="104.259987"><ele>304.2</ele><time>2011-04-27T04:49:26.0000000+00:00</time></trkpt><trkpt lat="22.112165" lon="104.26004"><ele>300.9</ele><time>2011-04-27T04:49:31.0000000+00:00</time></trkpt><trkpt lat="22.112679" lon="104.259964"><ele>298.9</ele><time>2011-04-27T04:49:36.0000000+00:00</time></trkpt><trkpt lat="22.113165" lon="104.259773"><ele>295.4</ele><time>2011-04-27T04:49:41.0000000+00:00</time></trkpt><trkpt lat="22.113607" lon="104.259544"><ele>293.2</ele><time>2011-04-27T04:49:46.0000000+00:00</time></trkpt><trkpt lat="22.113958" lon="104.259621"><ele>290.4</ele><time>2011-04-27T04:49:51.0000000+00:00</time></trkpt><trkpt lat="22.114122" lon="104.259995"><ele>287.3</ele><time>2011-04-27T04:49:56.0000000+00:00</time></trkpt><trkpt lat="22.114077" lon="104.260544"><ele>285.5</ele><time>2011-04-27T04:50:01.0000000+00:00</time></trkpt><trkpt lat="22.113937" lon="104.261032"><ele>282.2</ele><time>2011-04-27T04:50:06.0000000+00:00</time></trkpt><trkpt lat="22.114021" lon="104.261536"><ele>278.9</ele><time>2011-04-27T04:50:11.0000000+00:00</time></trkpt><trkpt lat="22.114189" lon="104.262001"><ele>276.4</ele><time>2011-04-27T04:50:16.0000000+00:00</time></trkpt><trkpt lat="22.114359" lon="104.262474"><ele>274.0</ele><time>2011-04-27T04:50:21.0000000+00:00</time></trkpt><trkpt lat="22.11458" lon="104.262749"><ele>272.5</ele><time>2011-04-27T04:50:26.0000000+00:00</time></trkpt><trkpt lat="22.11467" lon="104.262802"><ele>271.7</ele><time>2011-04-27T04:50:31.0000000+00:00</time></trkpt><trkpt lat="22.114677" lon="104.262802"><ele>271.8</ele><time>2011-04-27T04:50:36.0000000+00:00</time></trkpt><trkpt lat="22.114677" lon="104.262802"><ele>271.5</ele><time>2011-04-27T04:50:41.0000000+00:00</time></trkpt><trkpt lat="22.114677" lon="104.262802"><ele>271.3</ele><time>2011-04-27T04:50:46.0000000+00:00</time></trkpt><trkpt lat="22.114676" lon="104.262802"><ele>271.1</ele><time>2011-04-27T04:50:51.0000000+00:00</time></trkpt><trkpt lat="22.114676" lon="104.262802"><ele>271.0</ele><time>2011-04-27T04:50:56.0000000+00:00</time></trkpt><trkpt lat="22.114676" lon="104.262802"><ele>271.0</ele><time>2011-04-27T04:51:01.0000000+00:00</time></trkpt><trkpt lat="22.114676" lon="104.262802"><ele>271.0</ele><time>2011-04-27T04:51:06.0000000+00:00</time></trkpt><trkpt lat="22.114676" lon="104.262802"><ele>271.0</ele><time>2011-04-27T04:51:11.0000000+00:00</time></trkpt><trkpt lat="22.114676" lon="104.262802"><ele>271.1</ele><time>2011-04-27T04:51:16.0000000+00:00</time></trkpt><trkpt lat="22.114676" lon="104.262802"><ele>271.1</ele><time>2011-04-27T04:51:21.0000000+00:00</time></trkpt><trkpt lat="22.114676" lon="104.26281"><ele>271.1</ele><time>2011-04-27T04:51:26.0000000+00:00</time></trkpt><trkpt lat="22.114674" lon="104.26281"><ele>271.1</ele><time>2011-04-27T04:51:31.0000000+00:00</time></trkpt><trkpt lat="22.114742" lon="104.262848"><ele>269.7</ele><time>2011-04-27T04:51:36.0000000+00:00</time></trkpt><trkpt lat="22.114935" lon="104.263"><ele>267.1</ele><time>2011-04-27T04:51:41.0000000+00:00</time></trkpt><trkpt lat="22.115143" lon="104.263206"><ele>264.7</ele><time>2011-04-27T04:51:46.0000000+00:00</time></trkpt><trkpt lat="22.115311" lon="104.263412"><ele>263.2</ele><time>2011-04-27T04:51:51.0000000+00:00</time></trkpt><trkpt lat="22.115402" lon="104.26355"><ele>261.9</ele><time>2011-04-27T04:51:56.0000000+00:00</time></trkpt><trkpt lat="22.11541" lon="104.263565"><ele>261.4</ele><time>2011-04-27T04:52:01.0000000+00:00</time></trkpt><trkpt lat="22.115414" lon="104.263565"><ele>260.9</ele><time>2011-04-27T04:52:06.0000000+00:00</time></trkpt><trkpt lat="22.115414" lon="104.263565"><ele>260.8</ele><time>2011-04-27T04:52:11.0000000+00:00</time></trkpt><trkpt lat="22.115416" lon="104.263565"><ele>260.7</ele><time>2011-04-27T04:52:16.0000000+00:00</time></trkpt><trkpt lat="22.11548" lon="104.263603"><ele>260.2</ele><time>2011-04-27T04:52:21.0000000+00:00</time></trkpt><trkpt lat="22.115625" lon="104.263687"><ele>258.5</ele><time>2011-04-27T04:52:26.0000000+00:00</time></trkpt><trkpt lat="22.115671" lon="104.263748"><ele>257.1</ele><time>2011-04-27T04:52:31.0000000+00:00</time></trkpt><trkpt lat="22.115673" lon="104.263748"><ele>256.4</ele><time>2011-04-27T04:52:36.0000000+00:00</time></trkpt><trkpt lat="22.115671" lon="104.263748"><ele>256.4</ele><time>2011-04-27T04:52:41.0000000+00:00</time></trkpt><trkpt lat="22.115673" lon="104.263748"><ele>256.4</ele><time>2011-04-27T04:52:46.0000000+00:00</time></trkpt><trkpt lat="22.115673" lon="104.263748"><ele>256.4</ele><time>2011-04-27T04:52:51.0000000+00:00</time></trkpt><trkpt lat="22.115673" lon="104.263748"><ele>256.5</ele><time>2011-04-27T04:52:56.0000000+00:00</time></trkpt><trkpt lat="22.115673" lon="104.263748"><ele>256.4</ele><time>2011-04-27T04:53:01.0000000+00:00</time></trkpt><trkpt lat="22.115673" lon="104.263748"><ele>256.4</ele><time>2011-04-27T04:53:06.0000000+00:00</time></trkpt><trkpt lat="22.115675" lon="104.263748"><ele>256.4</ele><time>2011-04-27T04:53:11.0000000+00:00</time></trkpt><trkpt lat="22.115677" lon="104.263748"><ele>256.2</ele><time>2011-04-27T04:53:16.0000000+00:00</time></trkpt><trkpt lat="22.115677" lon="104.263748"><ele>256.2</ele><time>2011-04-27T04:53:21.0000000+00:00</time></trkpt><trkpt lat="22.115677" lon="104.263748"><ele>256.4</ele><time>2011-04-27T04:53:26.0000000+00:00</time></trkpt><trkpt lat="22.115677" lon="104.263748"><ele>256.4</ele><time>2011-04-27T04:53:31.0000000+00:00</time></trkpt><trkpt lat="22.115677" lon="104.263756"><ele>256.4</ele><time>2011-04-27T04:53:36.0000000+00:00</time></trkpt><trkpt lat="22.115675" lon="104.263756"><ele>256.4</ele><time>2011-04-27T04:53:41.0000000+00:00</time></trkpt><trkpt lat="22.115686" lon="104.263756"><ele>256.3</ele><time>2011-04-27T04:53:46.0000000+00:00</time></trkpt><trkpt lat="22.115776" lon="104.263756"><ele>255.9</ele><time>2011-04-27T04:53:51.0000000+00:00</time></trkpt><trkpt lat="22.115936" lon="104.263832"><ele>254.6</ele><time>2011-04-27T04:53:56.0000000+00:00</time></trkpt><trkpt lat="22.116127" lon="104.263985"><ele>252.8</ele><time>2011-04-27T04:54:01.0000000+00:00</time></trkpt><trkpt lat="22.11611" lon="104.264175"><ele>250.8</ele><time>2011-04-27T04:54:06.0000000+00:00</time></trkpt><trkpt lat="22.116001" lon="104.264351"><ele>249.5</ele><time>2011-04-27T04:54:11.0000000+00:00</time></trkpt><trkpt lat="22.115938" lon="104.264488"><ele>248.7</ele><time>2011-04-27T04:54:16.0000000+00:00</time></trkpt><trkpt lat="22.115902" lon="104.264664"><ele>247.5</ele><time>2011-04-27T04:54:21.0000000+00:00</time></trkpt><trkpt lat="22.115892" lon="104.264839"><ele>246.9</ele><time>2011-04-27T04:54:26.0000000+00:00</time></trkpt><trkpt lat="22.115879" lon="104.264908"><ele>246.3</ele><time>2011-04-27T04:54:31.0000000+00:00</time></trkpt><trkpt lat="22.115894" lon="104.265022"><ele>245.6</ele><time>2011-04-27T04:54:36.0000000+00:00</time></trkpt><trkpt lat="22.115961" lon="104.265205"><ele>245.0</ele><time>2011-04-27T04:54:41.0000000+00:00</time></trkpt><trkpt lat="22.11614" lon="104.265419"><ele>242.4</ele><time>2011-04-27T04:54:46.0000000+00:00</time></trkpt><trkpt lat="22.116287" lon="104.265617"><ele>241.5</ele><time>2011-04-27T04:54:51.0000000+00:00</time></trkpt><trkpt lat="22.116501" lon="104.2658"><ele>239.8</ele><time>2011-04-27T04:54:56.0000000+00:00</time></trkpt><trkpt lat="22.116652" lon="104.265854"><ele>237.9</ele><time>2011-04-27T04:55:01.0000000+00:00</time></trkpt><trkpt lat="22.116737" lon="104.265884"><ele>236.4</ele><time>2011-04-27T04:55:06.0000000+00:00</time></trkpt><trkpt lat="22.116833" lon="104.265923"><ele>236.2</ele><time>2011-04-27T04:55:11.0000000+00:00</time></trkpt><trkpt lat="22.116917" lon="104.265938"><ele>233.9</ele><time>2011-04-27T04:55:16.0000000+00:00</time></trkpt><trkpt lat="22.116997" lon="104.265976"><ele>235.2</ele><time>2011-04-27T04:55:21.0000000+00:00</time></trkpt><trkpt lat="22.117104" lon="104.266029"><ele>234.2</ele><time>2011-04-27T04:55:26.0000000+00:00</time></trkpt><trkpt lat="22.117178" lon="104.266113"><ele>233.3</ele><time>2011-04-27T04:55:31.0000000+00:00</time></trkpt><trkpt lat="22.117191" lon="104.266144"><ele>233.1</ele><time>2011-04-27T04:55:36.0000000+00:00</time></trkpt><trkpt lat="22.117191" lon="104.266144"><ele>233.2</ele><time>2011-04-27T04:55:41.0000000+00:00</time></trkpt><trkpt lat="22.117191" lon="104.266144"><ele>232.7</ele><time>2011-04-27T04:55:46.0000000+00:00</time></trkpt><trkpt lat="22.117191" lon="104.266144"><ele>232.7</ele><time>2011-04-27T04:55:51.0000000+00:00</time></trkpt><trkpt lat="22.117191" lon="104.266144"><ele>232.7</ele><time>2011-04-27T04:55:56.0000000+00:00</time></trkpt><trkpt lat="22.117191" lon="104.266144"><ele>232.6</ele><time>2011-04-27T04:56:01.0000000+00:00</time></trkpt><trkpt lat="22.117191" lon="104.266144"><ele>232.6</ele><time>2011-04-27T04:56:06.0000000+00:00</time></trkpt><trkpt lat="22.117191" lon="104.266144"><ele>232.5</ele><time>2011-04-27T04:56:11.0000000+00:00</time></trkpt><trkpt lat="22.117191" lon="104.266144"><ele>232.5</ele><time>2011-04-27T04:56:16.0000000+00:00</time></trkpt><trkpt lat="22.117191" lon="104.266144"><ele>232.5</ele><time>2011-04-27T04:56:21.0000000+00:00</time></trkpt><trkpt lat="22.117191" lon="104.266144"><ele>232.5</ele><time>2011-04-27T04:56:26.0000000+00:00</time></trkpt><trkpt lat="22.117191" lon="104.266144"><ele>232.5</ele><time>2011-04-27T04:56:31.0000000+00:00</time></trkpt><trkpt lat="22.117191" lon="104.266144"><ele>232.4</ele><time>2011-04-27T04:56:36.0000000+00:00</time></trkpt><trkpt lat="22.117189" lon="104.266144"><ele>232.4</ele><time>2011-04-27T04:56:41.0000000+00:00</time></trkpt><trkpt lat="22.117189" lon="104.266144"><ele>232.4</ele><time>2011-04-27T04:56:46.0000000+00:00</time></trkpt><trkpt lat="22.117189" lon="104.266144"><ele>232.4</ele><time>2011-04-27T04:56:51.0000000+00:00</time></trkpt><trkpt lat="22.117189" lon="104.266144"><ele>232.4</ele><time>2011-04-27T04:56:56.0000000+00:00</time></trkpt><trkpt lat="22.117189" lon="104.266144"><ele>232.4</ele><time>2011-04-27T04:57:01.0000000+00:00</time></trkpt><trkpt lat="22.117189" lon="104.266144"><ele>232.3</ele><time>2011-04-27T04:57:06.0000000+00:00</time></trkpt><trkpt lat="22.117189" lon="104.266144"><ele>232.3</ele><time>2011-04-27T04:57:11.0000000+00:00</time></trkpt><trkpt lat="22.117189" lon="104.266144"><ele>232.3</ele><time>2011-04-27T04:57:16.0000000+00:00</time></trkpt><trkpt lat="22.117189" lon="104.266144"><ele>232.3</ele><time>2011-04-27T04:57:21.0000000+00:00</time></trkpt><trkpt lat="22.117189" lon="104.266144"><ele>232.2</ele><time>2011-04-27T04:57:26.0000000+00:00</time></trkpt><trkpt lat="22.117203" lon="104.266151"><ele>232.0</ele><time>2011-04-27T04:57:31.0000000+00:00</time></trkpt><trkpt lat="22.117279" lon="104.266243"><ele>231.2</ele><time>2011-04-27T04:57:36.0000000+00:00</time></trkpt><trkpt lat="22.117384" lon="104.266388"><ele>230.4</ele><time>2011-04-27T04:57:41.0000000+00:00</time></trkpt><trkpt lat="22.117548" lon="104.266571"><ele>229.0</ele><time>2011-04-27T04:57:46.0000000+00:00</time></trkpt><trkpt lat="22.117792" lon="104.266754"><ele>227.3</ele><time>2011-04-27T04:57:51.0000000+00:00</time></trkpt><trkpt lat="22.118076" lon="104.26693"><ele>225.0</ele><time>2011-04-27T04:57:56.0000000+00:00</time></trkpt><trkpt lat="22.118231" lon="104.267227"><ele>224.9</ele><time>2011-04-27T04:58:01.0000000+00:00</time></trkpt><trkpt lat="22.118258" lon="104.267532"><ele>224.9</ele><time>2011-04-27T04:58:06.0000000+00:00</time></trkpt><trkpt lat="22.118284" lon="104.26783"><ele>224.2</ele><time>2011-04-27T04:58:11.0000000+00:00</time></trkpt><trkpt lat="22.118383" lon="104.268082"><ele>223.8</ele><time>2011-04-27T04:58:16.0000000+00:00</time></trkpt><trkpt lat="22.118626" lon="104.268173"><ele>222.2</ele><time>2011-04-27T04:58:21.0000000+00:00</time></trkpt><trkpt lat="22.118906" lon="104.268196"><ele>220.0</ele><time>2011-04-27T04:58:26.0000000+00:00</time></trkpt><trkpt lat="22.119173" lon="104.268364"><ele>219.7</ele><time>2011-04-27T04:58:31.0000000+00:00</time></trkpt><trkpt lat="22.119375" lon="104.268707"><ele>217.0</ele><time>2011-04-27T04:58:36.0000000+00:00</time></trkpt><trkpt lat="22.119608" lon="104.26915"><ele>212.2</ele><time>2011-04-27T04:58:41.0000000+00:00</time></trkpt><trkpt lat="22.119867" lon="104.269569"><ele>207.3</ele><time>2011-04-27T04:58:46.0000000+00:00</time></trkpt><trkpt lat="22.120335" lon="104.269753"><ele>201.3</ele><time>2011-04-27T04:58:51.0000000+00:00</time></trkpt><trkpt lat="22.12079" lon="104.269608"><ele>197.0</ele><time>2011-04-27T04:58:56.0000000+00:00</time></trkpt><trkpt lat="22.12112" lon="104.269455"><ele>194.0</ele><time>2011-04-27T04:59:01.0000000+00:00</time></trkpt><trkpt lat="22.121334" lon="104.269318"><ele>192.1</ele><time>2011-04-27T04:59:06.0000000+00:00</time></trkpt><trkpt lat="22.121498" lon="104.269073"><ele>190.2</ele><time>2011-04-27T04:59:11.0000000+00:00</time></trkpt><trkpt lat="22.121698" lon="104.268822"><ele>188.6</ele><time>2011-04-27T04:59:16.0000000+00:00</time></trkpt><trkpt lat="22.121918" lon="104.2687"><ele>187.0</ele><time>2011-04-27T04:59:21.0000000+00:00</time></trkpt><trkpt lat="22.122171" lon="104.268677"><ele>184.9</ele><time>2011-04-27T04:59:26.0000000+00:00</time></trkpt><trkpt lat="22.122259" lon="104.26886"><ele>185.4</ele><time>2011-04-27T04:59:31.0000000+00:00</time></trkpt><trkpt lat="22.122168" lon="104.269096"><ele>185.6</ele><time>2011-04-27T04:59:36.0000000+00:00</time></trkpt><trkpt lat="22.122049" lon="104.269386"><ele>185.1</ele><time>2011-04-27T04:59:41.0000000+00:00</time></trkpt><trkpt lat="22.122089" lon="104.269745"><ele>180.0</ele><time>2011-04-27T04:59:46.0000000+00:00</time></trkpt><trkpt lat="22.122211" lon="104.270027"><ele>177.4</ele><time>2011-04-27T04:59:51.0000000+00:00</time></trkpt><trkpt lat="22.122417" lon="104.270119"><ele>175.1</ele><time>2011-04-27T04:59:56.0000000+00:00</time></trkpt><trkpt lat="22.122616" lon="104.270073"><ele>172.6</ele><time>2011-04-27T05:00:01.0000000+00:00</time></trkpt><trkpt lat="22.122858" lon="104.269958"><ele>170.0</ele><time>2011-04-27T05:00:06.0000000+00:00</time></trkpt><trkpt lat="22.123131" lon="104.269913"><ele>168.2</ele><time>2011-04-27T05:00:11.0000000+00:00</time></trkpt><trkpt lat="22.123327" lon="104.270126"><ele>167.6</ele><time>2011-04-27T05:00:16.0000000+00:00</time></trkpt><trkpt lat="22.123318" lon="104.270309"><ele>167.6</ele><time>2011-04-27T05:00:21.0000000+00:00</time></trkpt><trkpt lat="22.12327" lon="104.270432"><ele>167.5</ele><time>2011-04-27T05:00:26.0000000+00:00</time></trkpt><trkpt lat="22.123211" lon="104.270569"><ele>167.7</ele><time>2011-04-27T05:00:31.0000000+00:00</time></trkpt><trkpt lat="22.123148" lon="104.27066"><ele>167.6</ele><time>2011-04-27T05:00:36.0000000+00:00</time></trkpt><trkpt lat="22.123144" lon="104.270668"><ele>167.5</ele><time>2011-04-27T05:00:41.0000000+00:00</time></trkpt><trkpt lat="22.123144" lon="104.270668"><ele>167.6</ele><time>2011-04-27T05:00:46.0000000+00:00</time></trkpt><trkpt lat="22.123144" lon="104.270668"><ele>167.7</ele><time>2011-04-27T05:00:51.0000000+00:00</time></trkpt><trkpt lat="22.123146" lon="104.270676"><ele>167.7</ele><time>2011-04-27T05:00:56.0000000+00:00</time></trkpt><trkpt lat="22.123131" lon="104.270767"><ele>167.6</ele><time>2011-04-27T05:01:01.0000000+00:00</time></trkpt><trkpt lat="22.123066" lon="104.270882"><ele>167.2</ele><time>2011-04-27T05:01:06.0000000+00:00</time></trkpt><trkpt lat="22.122992" lon="104.271004"><ele>166.8</ele><time>2011-04-27T05:01:11.0000000+00:00</time></trkpt><trkpt lat="22.122904" lon="104.271149"><ele>166.4</ele><time>2011-04-27T05:01:16.0000000+00:00</time></trkpt><trkpt lat="22.122816" lon="104.271324"><ele>165.4</ele><time>2011-04-27T05:01:21.0000000+00:00</time></trkpt><trkpt lat="22.122715" lon="104.271538"><ele>164.0</ele><time>2011-04-27T05:01:26.0000000+00:00</time></trkpt><trkpt lat="22.122669" lon="104.271652"><ele>163.2</ele><time>2011-04-27T05:01:31.0000000+00:00</time></trkpt><trkpt lat="22.122639" lon="104.271713"><ele>161.9</ele><time>2011-04-27T05:01:36.0000000+00:00</time></trkpt><trkpt lat="22.122587" lon="104.271797"><ele>160.8</ele><time>2011-04-27T05:01:41.0000000+00:00</time></trkpt><trkpt lat="22.122522" lon="104.271919"><ele>158.2</ele><time>2011-04-27T05:01:46.0000000+00:00</time></trkpt><trkpt lat="22.122431" lon="104.272057"><ele>157.7</ele><time>2011-04-27T05:01:51.0000000+00:00</time></trkpt><trkpt lat="22.122311" lon="104.272156"><ele>157.6</ele><time>2011-04-27T05:01:56.0000000+00:00</time></trkpt><trkpt lat="22.122274" lon="104.272163"><ele>157.7</ele><time>2011-04-27T05:02:01.0000000+00:00</time></trkpt><trkpt lat="22.122255" lon="104.272163"><ele>157.7</ele><time>2011-04-27T05:02:06.0000000+00:00</time></trkpt><trkpt lat="22.12225" lon="104.272156"><ele>157.9</ele><time>2011-04-27T05:02:11.0000000+00:00</time></trkpt><trkpt lat="22.122253" lon="104.272156"><ele>157.9</ele><time>2011-04-27T05:02:16.0000000+00:00</time></trkpt><trkpt lat="22.122252" lon="104.272156"><ele>158.0</ele><time>2011-04-27T05:02:21.0000000+00:00</time></trkpt><trkpt lat="22.122189" lon="104.272202"><ele>157.8</ele><time>2011-04-27T05:02:26.0000000+00:00</time></trkpt><trkpt lat="22.122068" lon="104.272255"><ele>157.5</ele><time>2011-04-27T05:02:31.0000000+00:00</time></trkpt><trkpt lat="22.121958" lon="104.272301"><ele>157.3</ele><time>2011-04-27T05:02:36.0000000+00:00</time></trkpt><trkpt lat="22.121897" lon="104.272324"><ele>156.9</ele><time>2011-04-27T05:02:41.0000000+00:00</time></trkpt><trkpt lat="22.12183" lon="104.272377"><ele>157.9</ele><time>2011-04-27T05:02:46.0000000+00:00</time></trkpt><trkpt lat="22.121746" lon="104.272453"><ele>158.1</ele><time>2011-04-27T05:02:51.0000000+00:00</time></trkpt><trkpt lat="22.12166" lon="104.272552"><ele>157.8</ele><time>2011-04-27T05:02:56.0000000+00:00</time></trkpt><trkpt lat="22.121611" lon="104.27272"><ele>157.2</ele><time>2011-04-27T05:03:01.0000000+00:00</time></trkpt><trkpt lat="22.121643" lon="104.272934"><ele>157.8</ele><time>2011-04-27T05:03:06.0000000+00:00</time></trkpt><trkpt lat="22.121807" lon="104.273125"><ele>156.0</ele><time>2011-04-27T05:03:11.0000000+00:00</time></trkpt><trkpt lat="22.121992" lon="104.273285"><ele>150.6</ele><time>2011-04-27T05:03:16.0000000+00:00</time></trkpt><trkpt lat="22.122173" lon="104.273476"><ele>148.2</ele><time>2011-04-27T05:03:21.0000000+00:00</time></trkpt><trkpt lat="22.122446" lon="104.273743"><ele>146.1</ele><time>2011-04-27T05:03:26.0000000+00:00</time></trkpt><trkpt lat="22.122765" lon="104.274071"><ele>142.6</ele><time>2011-04-27T05:03:31.0000000+00:00</time></trkpt><trkpt lat="22.12306" lon="104.274361"><ele>139.4</ele><time>2011-04-27T05:03:36.0000000+00:00</time></trkpt><trkpt lat="22.123337" lon="104.274498"><ele>135.7</ele><time>2011-04-27T05:03:41.0000000+00:00</time></trkpt><trkpt lat="22.12359" lon="104.274277"><ele>132.2</ele><time>2011-04-27T05:03:46.0000000+00:00</time></trkpt><trkpt lat="22.123745" lon="104.274033"><ele>129.1</ele><time>2011-04-27T05:03:51.0000000+00:00</time></trkpt><trkpt lat="22.123857" lon="104.273964"><ele>127.6</ele><time>2011-04-27T05:03:56.0000000+00:00</time></trkpt><trkpt lat="22.124056" lon="104.273979"><ele>124.7</ele><time>2011-04-27T05:04:01.0000000+00:00</time></trkpt><trkpt lat="22.124304" lon="104.274193"><ele>121.8</ele><time>2011-04-27T05:04:06.0000000+00:00</time></trkpt><trkpt lat="22.124624" lon="104.274384"><ele>118.7</ele><time>2011-04-27T05:04:11.0000000+00:00</time></trkpt><trkpt lat="22.124947" lon="104.274384"><ele>115.9</ele><time>2011-04-27T05:04:16.0000000+00:00</time></trkpt><trkpt lat="22.125193" lon="104.274353"><ele>114.1</ele><time>2011-04-27T05:04:21.0000000+00:00</time></trkpt><trkpt lat="22.125303" lon="104.274361"><ele>113.5</ele><time>2011-04-27T05:04:26.0000000+00:00</time></trkpt><trkpt lat="22.125347" lon="104.274376"><ele>112.9</ele><time>2011-04-27T05:04:31.0000000+00:00</time></trkpt><trkpt lat="22.125359" lon="104.274376"><ele>112.7</ele><time>2011-04-27T05:04:36.0000000+00:00</time></trkpt><trkpt lat="22.125359" lon="104.274376"><ele>112.6</ele><time>2011-04-27T05:04:41.0000000+00:00</time></trkpt><trkpt lat="22.12536" lon="104.274384"><ele>112.5</ele><time>2011-04-27T05:04:46.0000000+00:00</time></trkpt><trkpt lat="22.125362" lon="104.274399"><ele>112.5</ele><time>2011-04-27T05:04:51.0000000+00:00</time></trkpt><trkpt lat="22.125355" lon="104.274429"><ele>111.8</ele><time>2011-04-27T05:04:56.0000000+00:00</time></trkpt><trkpt lat="22.125349" lon="104.274437"><ele>111.5</ele><time>2011-04-27T05:05:01.0000000+00:00</time></trkpt><trkpt lat="22.125349" lon="104.274437"><ele>111.4</ele><time>2011-04-27T05:05:06.0000000+00:00</time></trkpt><trkpt lat="22.125349" lon="104.274437"><ele>111.4</ele><time>2011-04-27T05:05:11.0000000+00:00</time></trkpt><trkpt lat="22.125347" lon="104.274437"><ele>111.3</ele><time>2011-04-27T05:05:16.0000000+00:00</time></trkpt><trkpt lat="22.125347" lon="104.274437"><ele>111.3</ele><time>2011-04-27T05:05:21.0000000+00:00</time></trkpt><trkpt lat="22.125345" lon="104.274437"><ele>111.4</ele><time>2011-04-27T05:05:26.0000000+00:00</time></trkpt><trkpt lat="22.125347" lon="104.274437"><ele>111.4</ele><time>2011-04-27T05:05:31.0000000+00:00</time></trkpt><trkpt lat="22.125349" lon="104.274437"><ele>111.4</ele><time>2011-04-27T05:05:36.0000000+00:00</time></trkpt><trkpt lat="22.125345" lon="104.274437"><ele>111.4</ele><time>2011-04-27T05:05:41.0000000+00:00</time></trkpt><trkpt lat="22.125343" lon="104.274437"><ele>111.4</ele><time>2011-04-27T05:05:46.0000000+00:00</time></trkpt><trkpt lat="22.125343" lon="104.274437"><ele>111.5</ele><time>2011-04-27T05:05:51.0000000+00:00</time></trkpt><trkpt lat="22.125341" lon="104.274437"><ele>111.5</ele><time>2011-04-27T05:05:56.0000000+00:00</time></trkpt><trkpt lat="22.125341" lon="104.274437"><ele>111.5</ele><time>2011-04-27T05:06:01.0000000+00:00</time></trkpt><trkpt lat="22.125341" lon="104.274437"><ele>111.5</ele><time>2011-04-27T05:06:06.0000000+00:00</time></trkpt><trkpt lat="22.125341" lon="104.274437"><ele>111.4</ele><time>2011-04-27T05:06:11.0000000+00:00</time></trkpt><trkpt lat="22.125341" lon="104.274437"><ele>111.4</ele><time>2011-04-27T05:06:16.0000000+00:00</time></trkpt><trkpt lat="22.125341" lon="104.274437"><ele>111.4</ele><time>2011-04-27T05:06:21.0000000+00:00</time></trkpt><trkpt lat="22.125343" lon="104.274437"><ele>111.4</ele><time>2011-04-27T05:06:26.0000000+00:00</time></trkpt><trkpt lat="22.125343" lon="104.274437"><ele>111.3</ele><time>2011-04-27T05:06:31.0000000+00:00</time></trkpt><trkpt lat="22.125343" lon="104.274437"><ele>111.3</ele><time>2011-04-27T05:06:36.0000000+00:00</time></trkpt><trkpt lat="22.125343" lon="104.274437"><ele>111.2</ele><time>2011-04-27T05:06:41.0000000+00:00</time></trkpt><trkpt lat="22.125343" lon="104.274437"><ele>111.1</ele><time>2011-04-27T05:06:46.0000000+00:00</time></trkpt><trkpt lat="22.125343" lon="104.274437"><ele>111.1</ele><time>2011-04-27T05:06:51.0000000+00:00</time></trkpt><trkpt lat="22.125341" lon="104.274437"><ele>111.0</ele><time>2011-04-27T05:06:56.0000000+00:00</time></trkpt><trkpt lat="22.12534" lon="104.274437"><ele>111.0</ele><time>2011-04-27T05:07:01.0000000+00:00</time></trkpt><trkpt lat="22.125338" lon="104.274429"><ele>110.9</ele><time>2011-04-27T05:07:06.0000000+00:00</time></trkpt><trkpt lat="22.125336" lon="104.274429"><ele>110.9</ele><time>2011-04-27T05:07:11.0000000+00:00</time></trkpt><trkpt lat="22.125336" lon="104.274429"><ele>110.8</ele><time>2011-04-27T05:07:16.0000000+00:00</time></trkpt><trkpt lat="22.125336" lon="104.274429"><ele>110.8</ele><time>2011-04-27T05:07:21.0000000+00:00</time></trkpt><trkpt lat="22.125338" lon="104.274429"><ele>110.7</ele><time>2011-04-27T05:07:26.0000000+00:00</time></trkpt><trkpt lat="22.125338" lon="104.274429"><ele>110.7</ele><time>2011-04-27T05:07:31.0000000+00:00</time></trkpt><trkpt lat="22.125338" lon="104.274429"><ele>110.6</ele><time>2011-04-27T05:07:36.0000000+00:00</time></trkpt><trkpt lat="22.125336" lon="104.274429"><ele>110.6</ele><time>2011-04-27T05:07:41.0000000+00:00</time></trkpt><trkpt lat="22.125336" lon="104.274429"><ele>110.5</ele><time>2011-04-27T05:07:46.0000000+00:00</time></trkpt><trkpt lat="22.125334" lon="104.274429"><ele>110.5</ele><time>2011-04-27T05:07:51.0000000+00:00</time></trkpt><trkpt lat="22.125334" lon="104.274429"><ele>110.4</ele><time>2011-04-27T05:07:56.0000000+00:00</time></trkpt><trkpt lat="22.125336" lon="104.274429"><ele>110.3</ele><time>2011-04-27T05:08:01.0000000+00:00</time></trkpt><trkpt lat="22.125338" lon="104.274429"><ele>110.3</ele><time>2011-04-27T05:08:06.0000000+00:00</time></trkpt><trkpt lat="22.12534" lon="104.274429"><ele>110.2</ele><time>2011-04-27T05:08:11.0000000+00:00</time></trkpt><trkpt lat="22.12534" lon="104.274437"><ele>110.2</ele><time>2011-04-27T05:08:16.0000000+00:00</time></trkpt><trkpt lat="22.12534" lon="104.274437"><ele>110.1</ele><time>2011-04-27T05:08:21.0000000+00:00</time></trkpt><trkpt lat="22.12534" lon="104.274429"><ele>110.1</ele><time>2011-04-27T05:08:26.0000000+00:00</time></trkpt><trkpt lat="22.12534" lon="104.274429"><ele>110.0</ele><time>2011-04-27T05:08:31.0000000+00:00</time></trkpt><trkpt lat="22.12534" lon="104.274429"><ele>110.0</ele><time>2011-04-27T05:08:36.0000000+00:00</time></trkpt><trkpt lat="22.125338" lon="104.274429"><ele>110.0</ele><time>2011-04-27T05:08:41.0000000+00:00</time></trkpt><trkpt lat="22.125338" lon="104.274429"><ele>110.0</ele><time>2011-04-27T05:08:46.0000000+00:00</time></trkpt><trkpt lat="22.125338" lon="104.274429"><ele>110.0</ele><time>2011-04-27T05:08:51.0000000+00:00</time></trkpt><trkpt lat="22.125338" lon="104.274429"><ele>110.0</ele><time>2011-04-27T05:08:56.0000000+00:00</time></trkpt><trkpt lat="22.125338" lon="104.274429"><ele>110.0</ele><time>2011-04-27T05:09:01.0000000+00:00</time></trkpt><trkpt lat="22.125338" lon="104.274429"><ele>110.0</ele><time>2011-04-27T05:09:06.0000000+00:00</time></trkpt><trkpt lat="22.125336" lon="104.274429"><ele>110.0</ele><time>2011-04-27T05:09:11.0000000+00:00</time></trkpt><trkpt lat="22.125336" lon="104.274429"><ele>110.0</ele><time>2011-04-27T05:09:16.0000000+00:00</time></trkpt><trkpt lat="22.125336" lon="104.274429"><ele>110.0</ele><time>2011-04-27T05:09:21.0000000+00:00</time></trkpt><trkpt lat="22.125336" lon="104.274429"><ele>110.0</ele><time>2011-04-27T05:09:26.0000000+00:00</time></trkpt><trkpt lat="22.125336" lon="104.274429"><ele>110.0</ele><time>2011-04-27T05:09:31.0000000+00:00</time></trkpt><trkpt lat="22.125336" lon="104.274429"><ele>110.0</ele><time>2011-04-27T05:09:36.0000000+00:00</time></trkpt><trkpt lat="22.125336" lon="104.274429"><ele>110.0</ele><time>2011-04-27T05:09:41.0000000+00:00</time></trkpt><trkpt lat="22.125334" lon="104.274429"><ele>110.1</ele><time>2011-04-27T05:09:46.0000000+00:00</time></trkpt><trkpt lat="22.125334" lon="104.274429"><ele>110.1</ele><time>2011-04-27T05:09:51.0000000+00:00</time></trkpt><trkpt lat="22.125334" lon="104.274429"><ele>110.1</ele><time>2011-04-27T05:09:56.0000000+00:00</time></trkpt><trkpt lat="22.125334" lon="104.274429"><ele>110.1</ele><time>2011-04-27T05:10:01.0000000+00:00</time></trkpt><trkpt lat="22.125332" lon="104.274429"><ele>110.1</ele><time>2011-04-27T05:10:06.0000000+00:00</time></trkpt><trkpt lat="22.125345" lon="104.274429"><ele>109.8</ele><time>2011-04-27T05:10:11.0000000+00:00</time></trkpt><trkpt lat="22.125389" lon="104.274406"><ele>108.7</ele><time>2011-04-27T05:10:16.0000000+00:00</time></trkpt><trkpt lat="22.125418" lon="104.274406"><ele>107.5</ele><time>2011-04-27T05:10:21.0000000+00:00</time></trkpt><trkpt lat="22.125422" lon="104.274414"><ele>107.2</ele><time>2011-04-27T05:10:26.0000000+00:00</time></trkpt><trkpt lat="22.125475" lon="104.274422"><ele>107.0</ele><time>2011-04-27T05:10:31.0000000+00:00</time></trkpt><trkpt lat="22.125618" lon="104.27446"><ele>106.0</ele><time>2011-04-27T05:10:36.0000000+00:00</time></trkpt><trkpt lat="22.125776" lon="104.274544"><ele>105.1</ele><time>2011-04-27T05:10:41.0000000+00:00</time></trkpt><trkpt lat="22.125893" lon="104.274643"><ele>105.7</ele><time>2011-04-27T05:10:46.0000000+00:00</time></trkpt><trkpt lat="22.12603" lon="104.274773"><ele>105.6</ele><time>2011-04-27T05:10:51.0000000+00:00</time></trkpt><trkpt lat="22.126221" lon="104.274925"><ele>104.5</ele><time>2011-04-27T05:10:56.0000000+00:00</time></trkpt><trkpt lat="22.126379" lon="104.275093"><ele>103.5</ele><time>2011-04-27T05:11:01.0000000+00:00</time></trkpt><trkpt lat="22.126541" lon="104.275307"><ele>101.8</ele><time>2011-04-27T05:11:06.0000000+00:00</time></trkpt><trkpt lat="22.126694" lon="104.275505"><ele>99.0</ele><time>2011-04-27T05:11:11.0000000+00:00</time></trkpt><trkpt lat="22.12682" lon="104.275719"><ele>97.7</ele><time>2011-04-27T05:11:16.0000000+00:00</time></trkpt><trkpt lat="22.126904" lon="104.275902"><ele>97.6</ele><time>2011-04-27T05:11:21.0000000+00:00</time></trkpt><trkpt lat="22.126987" lon="104.276093"><ele>96.0</ele><time>2011-04-27T05:11:26.0000000+00:00</time></trkpt><trkpt lat="22.127075" lon="104.27626"><ele>96.2</ele><time>2011-04-27T05:11:31.0000000+00:00</time></trkpt><trkpt lat="22.12714" lon="104.276405"><ele>96.7</ele><time>2011-04-27T05:11:36.0000000+00:00</time></trkpt><trkpt lat="22.127201" lon="104.276566"><ele>97.3</ele><time>2011-04-27T05:11:41.0000000+00:00</time></trkpt><trkpt lat="22.12727" lon="104.276741"><ele>97.0</ele><time>2011-04-27T05:11:46.0000000+00:00</time></trkpt><trkpt lat="22.127317" lon="104.276848"><ele>98.0</ele><time>2011-04-27T05:11:51.0000000+00:00</time></trkpt><trkpt lat="22.127394" lon="104.276939"><ele>99.1</ele><time>2011-04-27T05:11:56.0000000+00:00</time></trkpt><trkpt lat="22.127499" lon="104.276962"><ele>99.9</ele><time>2011-04-27T05:12:01.0000000+00:00</time></trkpt><trkpt lat="22.127638" lon="104.276993"><ele>100.2</ele><time>2011-04-27T05:12:06.0000000+00:00</time></trkpt><trkpt lat="22.127815" lon="104.277008"><ele>99.6</ele><time>2011-04-27T05:12:11.0000000+00:00</time></trkpt><trkpt lat="22.128004" lon="104.277031"><ele>99.3</ele><time>2011-04-27T05:12:16.0000000+00:00</time></trkpt><trkpt lat="22.128199" lon="104.277061"><ele>98.5</ele><time>2011-04-27T05:12:21.0000000+00:00</time></trkpt><trkpt lat="22.12838" lon="104.277077"><ele>97.7</ele><time>2011-04-27T05:12:26.0000000+00:00</time></trkpt><trkpt lat="22.128508" lon="104.277122"><ele>97.9</ele><time>2011-04-27T05:12:31.0000000+00:00</time></trkpt><trkpt lat="22.128599" lon="104.277176"><ele>97.1</ele><time>2011-04-27T05:12:36.0000000+00:00</time></trkpt><trkpt lat="22.128695" lon="104.277298"><ele>96.9</ele><time>2011-04-27T05:12:41.0000000+00:00</time></trkpt><trkpt lat="22.128736" lon="104.27742"><ele>96.8</ele><time>2011-04-27T05:12:46.0000000+00:00</time></trkpt><trkpt lat="22.128759" lon="104.277412"><ele>96.8</ele><time>2011-04-27T05:12:51.0000000+00:00</time></trkpt><trkpt lat="22.128763" lon="104.27742"><ele>96.7</ele><time>2011-04-27T05:12:56.0000000+00:00</time></trkpt><trkpt lat="22.128761" lon="104.277412"><ele>96.7</ele><time>2011-04-27T05:13:01.0000000+00:00</time></trkpt><trkpt lat="22.128761" lon="104.277412"><ele>96.7</ele><time>2011-04-27T05:13:06.0000000+00:00</time></trkpt><trkpt lat="22.128761" lon="104.277412"><ele>96.7</ele><time>2011-04-27T05:13:11.0000000+00:00</time></trkpt><trkpt lat="22.128761" lon="104.277412"><ele>96.8</ele><time>2011-04-27T05:13:16.0000000+00:00</time></trkpt><trkpt lat="22.128761" lon="104.277412"><ele>96.7</ele><time>2011-04-27T05:13:21.0000000+00:00</time></trkpt><trkpt lat="22.128761" lon="104.277412"><ele>96.7</ele><time>2011-04-27T05:13:26.0000000+00:00</time></trkpt><trkpt lat="22.128775" lon="104.277466"><ele>96.6</ele><time>2011-04-27T05:13:31.0000000+00:00</time></trkpt><trkpt lat="22.128841" lon="104.277641"><ele>93.8</ele><time>2011-04-27T05:13:36.0000000+00:00</time></trkpt><trkpt lat="22.12886" lon="104.27787"><ele>92.4</ele><time>2011-04-27T05:13:41.0000000+00:00</time></trkpt><trkpt lat="22.128849" lon="104.278099"><ele>93.0</ele><time>2011-04-27T05:13:46.0000000+00:00</time></trkpt><trkpt lat="22.12883" lon="104.278297"><ele>94.3</ele><time>2011-04-27T05:13:51.0000000+00:00</time></trkpt><trkpt lat="22.12886" lon="104.278496"><ele>95.5</ele><time>2011-04-27T05:13:56.0000000+00:00</time></trkpt><trkpt lat="22.128988" lon="104.278664"><ele>95.5</ele><time>2011-04-27T05:14:01.0000000+00:00</time></trkpt><trkpt lat="22.129122" lon="104.278809"><ele>97.1</ele><time>2011-04-27T05:14:06.0000000+00:00</time></trkpt><trkpt lat="22.129274" lon="104.27887"><ele>98.5</ele><time>2011-04-27T05:14:11.0000000+00:00</time></trkpt><trkpt lat="22.129452" lon="104.278999"><ele>99.6</ele><time>2011-04-27T05:14:16.0000000+00:00</time></trkpt><trkpt lat="22.129599" lon="104.279144"><ele>100.4</ele><time>2011-04-27T05:14:21.0000000+00:00</time></trkpt><trkpt lat="22.129795" lon="104.279327"><ele>101.5</ele><time>2011-04-27T05:14:26.0000000+00:00</time></trkpt><trkpt lat="22.129934" lon="104.279488"><ele>102.0</ele><time>2011-04-27T05:14:31.0000000+00:00</time></trkpt><trkpt lat="22.130014" lon="104.279617"><ele>101.2</ele><time>2011-04-27T05:14:36.0000000+00:00</time></trkpt><trkpt lat="22.13011" lon="104.279755"><ele>102.0</ele><time>2011-04-27T05:14:41.0000000+00:00</time></trkpt><trkpt lat="22.130192" lon="104.2799"><ele>101.7</ele><time>2011-04-27T05:14:46.0000000+00:00</time></trkpt><trkpt lat="22.130264" lon="104.280052"><ele>102.0</ele><time>2011-04-27T05:14:51.0000000+00:00</time></trkpt><trkpt lat="22.130341" lon="104.280197"><ele>101.5</ele><time>2011-04-27T05:14:56.0000000+00:00</time></trkpt><trkpt lat="22.130421" lon="104.28035"><ele>102.2</ele><time>2011-04-27T05:15:01.0000000+00:00</time></trkpt><trkpt lat="22.130482" lon="104.280457"><ele>102.5</ele><time>2011-04-27T05:15:06.0000000+00:00</time></trkpt><trkpt lat="22.130497" lon="104.280518"><ele>102.5</ele><time>2011-04-27T05:15:11.0000000+00:00</time></trkpt><trkpt lat="22.130548" lon="104.280609"><ele>105.5</ele><time>2011-04-27T05:15:16.0000000+00:00</time></trkpt><trkpt lat="22.130548" lon="104.280655"><ele>108.1</ele><time>2011-04-27T05:15:21.0000000+00:00</time></trkpt><trkpt lat="22.130583" lon="104.280716"><ele>110.0</ele><time>2011-04-27T05:15:26.0000000+00:00</time></trkpt><trkpt lat="22.130602" lon="104.280777"><ele>110.2</ele><time>2011-04-27T05:15:31.0000000+00:00</time></trkpt><trkpt lat="22.130611" lon="104.280807"><ele>110.4</ele><time>2011-04-27T05:15:36.0000000+00:00</time></trkpt><trkpt lat="22.130615" lon="104.280815"><ele>110.7</ele><time>2011-04-27T05:15:41.0000000+00:00</time></trkpt><trkpt lat="22.130617" lon="104.280815"><ele>110.8</ele><time>2011-04-27T05:15:46.0000000+00:00</time></trkpt><trkpt lat="22.130665" lon="104.280876"><ele>110.7</ele><time>2011-04-27T05:15:51.0000000+00:00</time></trkpt><trkpt lat="22.130716" lon="104.280975"><ele>111.1</ele><time>2011-04-27T05:15:56.0000000+00:00</time></trkpt><trkpt lat="22.130758" lon="104.281067"><ele>111.3</ele><time>2011-04-27T05:16:01.0000000+00:00</time></trkpt><trkpt lat="22.130816" lon="104.281158"><ele>111.0</ele><time>2011-04-27T05:16:06.0000000+00:00</time></trkpt><trkpt lat="22.130859" lon="104.281258"><ele>109.6</ele><time>2011-04-27T05:16:11.0000000+00:00</time></trkpt><trkpt lat="22.130888" lon="104.281342"><ele>109.0</ele><time>2011-04-27T05:16:16.0000000+00:00</time></trkpt><trkpt lat="22.130924" lon="104.281441"><ele>108.7</ele><time>2011-04-27T05:16:21.0000000+00:00</time></trkpt><trkpt lat="22.130941" lon="104.281517"><ele>109.2</ele><time>2011-04-27T05:16:26.0000000+00:00</time></trkpt><trkpt lat="22.130957" lon="104.281586"><ele>108.1</ele><time>2011-04-27T05:16:31.0000000+00:00</time></trkpt><trkpt lat="22.130985" lon="104.281677"><ele>108.6</ele><time>2011-04-27T05:16:36.0000000+00:00</time></trkpt><trkpt lat="22.130997" lon="104.281761"><ele>108.1</ele><time>2011-04-27T05:16:41.0000000+00:00</time></trkpt><trkpt lat="22.131023" lon="104.281853"><ele>108.5</ele><time>2011-04-27T05:16:46.0000000+00:00</time></trkpt><trkpt lat="22.131044" lon="104.281937"><ele>110.3</ele><time>2011-04-27T05:16:51.0000000+00:00</time></trkpt><trkpt lat="22.131069" lon="104.282005"><ele>109.9</ele><time>2011-04-27T05:16:56.0000000+00:00</time></trkpt><trkpt lat="22.131063" lon="104.28199"><ele>110.0</ele><time>2011-04-27T05:17:01.0000000+00:00</time></trkpt><trkpt lat="22.131069" lon="104.281998"><ele>110.0</ele><time>2011-04-27T05:17:06.0000000+00:00</time></trkpt><trkpt lat="22.131073" lon="104.282005"><ele>110.0</ele><time>2011-04-27T05:17:11.0000000+00:00</time></trkpt><trkpt lat="22.131073" lon="104.282013"><ele>110.0</ele><time>2011-04-27T05:17:16.0000000+00:00</time></trkpt><trkpt lat="22.131067" lon="104.282013"><ele>110.0</ele><time>2011-04-27T05:17:21.0000000+00:00</time></trkpt><trkpt lat="22.13106" lon="104.282021"><ele>110.0</ele><time>2011-04-27T05:17:26.0000000+00:00</time></trkpt><trkpt lat="22.13105" lon="104.282028"><ele>110.0</ele><time>2011-04-27T05:17:31.0000000+00:00</time></trkpt><trkpt lat="22.131044" lon="104.282036"><ele>110.0</ele><time>2011-04-27T05:17:36.0000000+00:00</time></trkpt><trkpt lat="22.131037" lon="104.282043"><ele>110.0</ele><time>2011-04-27T05:17:41.0000000+00:00</time></trkpt><trkpt lat="22.131027" lon="104.282043"><ele>110.0</ele><time>2011-04-27T05:17:46.0000000+00:00</time></trkpt><trkpt lat="22.131025" lon="104.282051"><ele>110.0</ele><time>2011-04-27T05:17:51.0000000+00:00</time></trkpt><trkpt lat="22.131035" lon="104.282051"><ele>110.0</ele><time>2011-04-27T05:17:56.0000000+00:00</time></trkpt><trkpt lat="22.131035" lon="104.282059"><ele>109.9</ele><time>2011-04-27T05:18:01.0000000+00:00</time></trkpt><trkpt lat="22.131031" lon="104.282059"><ele>109.9</ele><time>2011-04-27T05:18:06.0000000+00:00</time></trkpt><trkpt lat="22.131037" lon="104.282066"><ele>109.9</ele><time>2011-04-27T05:18:11.0000000+00:00</time></trkpt><trkpt lat="22.13105" lon="104.282082"><ele>109.5</ele><time>2011-04-27T05:18:16.0000000+00:00</time></trkpt><trkpt lat="22.131058" lon="104.282089"><ele>109.1</ele><time>2011-04-27T05:18:21.0000000+00:00</time></trkpt><trkpt lat="22.13106" lon="104.282089"><ele>109.1</ele><time>2011-04-27T05:18:26.0000000+00:00</time></trkpt><trkpt lat="22.131058" lon="104.282089"><ele>109.0</ele><time>2011-04-27T05:18:31.0000000+00:00</time></trkpt><trkpt lat="22.131058" lon="104.282089"><ele>109.0</ele><time>2011-04-27T05:18:36.0000000+00:00</time></trkpt><trkpt lat="22.131056" lon="104.282089"><ele>109.0</ele><time>2011-04-27T05:18:41.0000000+00:00</time></trkpt><trkpt lat="22.13106" lon="104.282089"><ele>108.9</ele><time>2011-04-27T05:18:46.0000000+00:00</time></trkpt><trkpt lat="22.131058" lon="104.282082"><ele>108.9</ele><time>2011-04-27T05:18:51.0000000+00:00</time></trkpt><trkpt lat="22.131058" lon="104.282082"><ele>108.8</ele><time>2011-04-27T05:18:56.0000000+00:00</time></trkpt><trkpt lat="22.131056" lon="104.282082"><ele>108.8</ele><time>2011-04-27T05:19:01.0000000+00:00</time></trkpt><trkpt lat="22.131063" lon="104.282082"><ele>109.0</ele><time>2011-04-27T05:19:06.0000000+00:00</time></trkpt><trkpt lat="22.131062" lon="104.282074"><ele>109.4</ele><time>2011-04-27T05:19:11.0000000+00:00</time></trkpt><trkpt lat="22.131062" lon="104.282074"><ele>109.4</ele><time>2011-04-27T05:19:16.0000000+00:00</time></trkpt><trkpt lat="22.131065" lon="104.282066"><ele>109.4</ele><time>2011-04-27T05:19:21.0000000+00:00</time></trkpt><trkpt lat="22.131067" lon="104.282066"><ele>109.4</ele><time>2011-04-27T05:19:26.0000000+00:00</time></trkpt><trkpt lat="22.131067" lon="104.282066"><ele>109.5</ele><time>2011-04-27T05:19:31.0000000+00:00</time></trkpt><trkpt lat="22.131062" lon="104.282074"><ele>109.4</ele><time>2011-04-27T05:19:36.0000000+00:00</time></trkpt><trkpt lat="22.131062" lon="104.282074"><ele>109.4</ele><time>2011-04-27T05:19:41.0000000+00:00</time></trkpt><trkpt lat="22.131065" lon="104.282074"><ele>109.4</ele><time>2011-04-27T05:19:46.0000000+00:00</time></trkpt><trkpt lat="22.131065" lon="104.282074"><ele>109.4</ele><time>2011-04-27T05:19:51.0000000+00:00</time></trkpt><trkpt lat="22.131063" lon="104.282074"><ele>109.4</ele><time>2011-04-27T05:19:56.0000000+00:00</time></trkpt><trkpt lat="22.131063" lon="104.282074"><ele>109.4</ele><time>2011-04-27T05:20:01.0000000+00:00</time></trkpt><trkpt lat="22.131063" lon="104.282074"><ele>109.4</ele><time>2011-04-27T05:20:06.0000000+00:00</time></trkpt><trkpt lat="22.131069" lon="104.282074"><ele>109.3</ele><time>2011-04-27T05:20:11.0000000+00:00</time></trkpt><trkpt lat="22.131075" lon="104.282074"><ele>109.4</ele><time>2011-04-27T05:20:16.0000000+00:00</time></trkpt><trkpt lat="22.131071" lon="104.282074"><ele>109.4</ele><time>2011-04-27T05:20:21.0000000+00:00</time></trkpt><trkpt lat="22.131073" lon="104.282074"><ele>109.4</ele><time>2011-04-27T05:20:26.0000000+00:00</time></trkpt><trkpt lat="22.131075" lon="104.282074"><ele>109.3</ele><time>2011-04-27T05:20:31.0000000+00:00</time></trkpt><trkpt lat="22.131075" lon="104.282074"><ele>109.3</ele><time>2011-04-27T05:20:36.0000000+00:00</time></trkpt><trkpt lat="22.131075" lon="104.282074"><ele>109.2</ele><time>2011-04-27T05:20:41.0000000+00:00</time></trkpt><trkpt lat="22.131075" lon="104.282066"><ele>109.2</ele><time>2011-04-27T05:20:46.0000000+00:00</time></trkpt><trkpt lat="22.131071" lon="104.282074"><ele>109.2</ele><time>2011-04-27T05:20:51.0000000+00:00</time></trkpt><trkpt lat="22.131071" lon="104.282051"><ele>109.2</ele><time>2011-04-27T05:20:56.0000000+00:00</time></trkpt><trkpt lat="22.131083" lon="104.282059"><ele>109.1</ele><time>2011-04-27T05:21:01.0000000+00:00</time></trkpt><trkpt lat="22.13109" lon="104.282059"><ele>109.1</ele><time>2011-04-27T05:21:06.0000000+00:00</time></trkpt><trkpt lat="22.131092" lon="104.282059"><ele>109.2</ele><time>2011-04-27T05:21:11.0000000+00:00</time></trkpt><trkpt lat="22.131081" lon="104.282059"><ele>109.1</ele><time>2011-04-27T05:21:16.0000000+00:00</time></trkpt><trkpt lat="22.131088" lon="104.282066"><ele>109.4</ele><time>2011-04-27T05:21:21.0000000+00:00</time></trkpt><trkpt lat="22.131092" lon="104.282074"><ele>109.3</ele><time>2011-04-27T05:21:26.0000000+00:00</time></trkpt><trkpt lat="22.1311" lon="104.282082"><ele>109.3</ele><time>2011-04-27T05:21:31.0000000+00:00</time></trkpt><trkpt lat="22.131104" lon="104.282089"><ele>109.3</ele><time>2011-04-27T05:21:36.0000000+00:00</time></trkpt><trkpt lat="22.131104" lon="104.282089"><ele>109.2</ele><time>2011-04-27T05:21:41.0000000+00:00</time></trkpt><trkpt lat="22.131105" lon="104.282089"><ele>109.3</ele><time>2011-04-27T05:21:46.0000000+00:00</time></trkpt><trkpt lat="22.131105" lon="104.282089"><ele>109.4</ele><time>2011-04-27T05:21:51.0000000+00:00</time></trkpt><trkpt lat="22.131105" lon="104.282089"><ele>109.3</ele><time>2011-04-27T05:21:56.0000000+00:00</time></trkpt><trkpt lat="22.131105" lon="104.282089"><ele>109.3</ele><time>2011-04-27T05:22:01.0000000+00:00</time></trkpt><trkpt lat="22.131102" lon="104.282104"><ele>109.3</ele><time>2011-04-27T05:22:06.0000000+00:00</time></trkpt><trkpt lat="22.131163" lon="104.282135"><ele>110.0</ele><time>2011-04-27T05:22:11.0000000+00:00</time></trkpt><trkpt lat="22.131226" lon="104.282211"><ele>110.8</ele><time>2011-04-27T05:22:16.0000000+00:00</time></trkpt><trkpt lat="22.131302" lon="104.282295"><ele>111.6</ele><time>2011-04-27T05:22:21.0000000+00:00</time></trkpt><trkpt lat="22.131359" lon="104.282356"><ele>111.6</ele><time>2011-04-27T05:22:26.0000000+00:00</time></trkpt><trkpt lat="22.131433" lon="104.282433"><ele>111.9</ele><time>2011-04-27T05:22:31.0000000+00:00</time></trkpt><trkpt lat="22.13151" lon="104.282516"><ele>112.2</ele><time>2011-04-27T05:22:36.0000000+00:00</time></trkpt><trkpt lat="22.131578" lon="104.282585"><ele>112.1</ele><time>2011-04-27T05:22:41.0000000+00:00</time></trkpt><trkpt lat="22.131643" lon="104.282661"><ele>112.0</ele><time>2011-04-27T05:22:46.0000000+00:00</time></trkpt><trkpt lat="22.131735" lon="104.282761"><ele>111.6</ele><time>2011-04-27T05:22:51.0000000+00:00</time></trkpt><trkpt lat="22.131807" lon="104.282845"><ele>111.0</ele><time>2011-04-27T05:22:56.0000000+00:00</time></trkpt><trkpt lat="22.131886" lon="104.282928"><ele>110.1</ele><time>2011-04-27T05:23:01.0000000+00:00</time></trkpt><trkpt lat="22.131969" lon="104.283028"><ele>109.2</ele><time>2011-04-27T05:23:06.0000000+00:00</time></trkpt><trkpt lat="22.132067" lon="104.28315"><ele>108.2</ele><time>2011-04-27T05:23:11.0000000+00:00</time></trkpt><trkpt lat="22.132113" lon="104.283211"><ele>107.5</ele><time>2011-04-27T05:23:16.0000000+00:00</time></trkpt><trkpt lat="22.132162" lon="104.283264"><ele>107.2</ele><time>2011-04-27T05:23:21.0000000+00:00</time></trkpt><trkpt lat="22.132206" lon="104.28331"><ele>107.6</ele><time>2011-04-27T05:23:26.0000000+00:00</time></trkpt><trkpt lat="22.132263" lon="104.283348"><ele>108.2</ele><time>2011-04-27T05:23:31.0000000+00:00</time></trkpt><trkpt lat="22.132303" lon="104.283379"><ele>109.3</ele><time>2011-04-27T05:23:36.0000000+00:00</time></trkpt><trkpt lat="22.132318" lon="104.283409"><ele>110.5</ele><time>2011-04-27T05:23:41.0000000+00:00</time></trkpt><trkpt lat="22.132357" lon="104.283463"><ele>111.8</ele><time>2011-04-27T05:23:46.0000000+00:00</time></trkpt><trkpt lat="22.132378" lon="104.283501"><ele>113.1</ele><time>2011-04-27T05:23:51.0000000+00:00</time></trkpt><trkpt lat="22.132423" lon="104.283569"><ele>114.2</ele><time>2011-04-27T05:23:56.0000000+00:00</time></trkpt><trkpt lat="22.132444" lon="104.2836"><ele>115.5</ele><time>2011-04-27T05:24:01.0000000+00:00</time></trkpt><trkpt lat="22.132473" lon="104.283661"><ele>117.0</ele><time>2011-04-27T05:24:06.0000000+00:00</time></trkpt><trkpt lat="22.132519" lon="104.283752"><ele>118.2</ele><time>2011-04-27T05:24:11.0000000+00:00</time></trkpt><trkpt lat="22.132502" lon="104.283836"><ele>117.8</ele><time>2011-04-27T05:24:16.0000000+00:00</time></trkpt><trkpt lat="22.1325" lon="104.28389"><ele>116.7</ele><time>2011-04-27T05:24:21.0000000+00:00</time></trkpt><trkpt lat="22.132502" lon="104.283928"><ele>116.5</ele><time>2011-04-27T05:24:26.0000000+00:00</time></trkpt><trkpt lat="22.132494" lon="104.283989"><ele>114.4</ele><time>2011-04-27T05:24:31.0000000+00:00</time></trkpt><trkpt lat="22.132479" lon="104.284065"><ele>113.3</ele><time>2011-04-27T05:24:36.0000000+00:00</time></trkpt><trkpt lat="22.132492" lon="104.284164"><ele>111.9</ele><time>2011-04-27T05:24:41.0000000+00:00</time></trkpt><trkpt lat="22.132507" lon="104.284256"><ele>111.2</ele><time>2011-04-27T05:24:46.0000000+00:00</time></trkpt><trkpt lat="22.132507" lon="104.284332"><ele>111.1</ele><time>2011-04-27T05:24:51.0000000+00:00</time></trkpt><trkpt lat="22.132523" lon="104.284401"><ele>113.1</ele><time>2011-04-27T05:24:56.0000000+00:00</time></trkpt><trkpt lat="22.132549" lon="104.28447"><ele>114.3</ele><time>2011-04-27T05:25:01.0000000+00:00</time></trkpt><trkpt lat="22.132578" lon="104.284546"><ele>115.2</ele><time>2011-04-27T05:25:06.0000000+00:00</time></trkpt><trkpt lat="22.132624" lon="104.284637"><ele>115.1</ele><time>2011-04-27T05:25:11.0000000+00:00</time></trkpt><trkpt lat="22.132675" lon="104.284714"><ele>115.9</ele><time>2011-04-27T05:25:16.0000000+00:00</time></trkpt><trkpt lat="22.132736" lon="104.284813"><ele>115.9</ele><time>2011-04-27T05:25:21.0000000+00:00</time></trkpt><trkpt lat="22.132782" lon="104.284904"><ele>117.1</ele><time>2011-04-27T05:25:26.0000000+00:00</time></trkpt><trkpt lat="22.132856" lon="104.284981"><ele>117.3</ele><time>2011-04-27T05:25:31.0000000+00:00</time></trkpt><trkpt lat="22.132917" lon="104.285057"><ele>117.4</ele><time>2011-04-27T05:25:36.0000000+00:00</time></trkpt><trkpt lat="22.132975" lon="104.28511"><ele>117.6</ele><time>2011-04-27T05:25:41.0000000+00:00</time></trkpt><trkpt lat="22.133028" lon="104.285149"><ele>117.6</ele><time>2011-04-27T05:25:46.0000000+00:00</time></trkpt><trkpt lat="22.133076" lon="104.285202"><ele>118.0</ele><time>2011-04-27T05:25:51.0000000+00:00</time></trkpt><trkpt lat="22.133135" lon="104.285255"><ele>117.5</ele><time>2011-04-27T05:25:56.0000000+00:00</time></trkpt><trkpt lat="22.133209" lon="104.285324"><ele>117.6</ele><time>2011-04-27T05:26:01.0000000+00:00</time></trkpt><trkpt lat="22.133266" lon="104.285408"><ele>117.3</ele><time>2011-04-27T05:26:06.0000000+00:00</time></trkpt><trkpt lat="22.133362" lon="104.285484"><ele>117.2</ele><time>2011-04-27T05:26:11.0000000+00:00</time></trkpt><trkpt lat="22.133453" lon="104.285553"><ele>116.5</ele><time>2011-04-27T05:26:16.0000000+00:00</time></trkpt><trkpt lat="22.133602" lon="104.285645"><ele>115.4</ele><time>2011-04-27T05:26:21.0000000+00:00</time></trkpt><trkpt lat="22.133778" lon="104.285744"><ele>112.0</ele><time>2011-04-27T05:26:26.0000000+00:00</time></trkpt><trkpt lat="22.133976" lon="104.285904"><ele>108.4</ele><time>2011-04-27T05:26:31.0000000+00:00</time></trkpt><trkpt lat="22.134117" lon="104.286095"><ele>105.4</ele><time>2011-04-27T05:26:36.0000000+00:00</time></trkpt><trkpt lat="22.134205" lon="104.286339"><ele>102.2</ele><time>2011-04-27T05:26:41.0000000+00:00</time></trkpt><trkpt lat="22.134199" lon="104.286644"><ele>100.1</ele><time>2011-04-27T05:26:46.0000000+00:00</time></trkpt><trkpt lat="22.134071" lon="104.286926"><ele>99.5</ele><time>2011-04-27T05:26:51.0000000+00:00</time></trkpt><trkpt lat="22.133871" lon="104.28714"><ele>99.4</ele><time>2011-04-27T05:26:56.0000000+00:00</time></trkpt><trkpt lat="22.133677" lon="104.287338"><ele>101.2</ele><time>2011-04-27T05:27:01.0000000+00:00</time></trkpt><trkpt lat="22.133535" lon="104.287498"><ele>103.2</ele><time>2011-04-27T05:27:06.0000000+00:00</time></trkpt><trkpt lat="22.133467" lon="104.287605"><ele>102.7</ele><time>2011-04-27T05:27:11.0000000+00:00</time></trkpt><trkpt lat="22.133429" lon="104.287689"><ele>103.6</ele><time>2011-04-27T05:27:16.0000000+00:00</time></trkpt><trkpt lat="22.133352" lon="104.287758"><ele>102.2</ele><time>2011-04-27T05:27:21.0000000+00:00</time></trkpt><trkpt lat="22.133301" lon="104.287849"><ele>100.7</ele><time>2011-04-27T05:27:26.0000000+00:00</time></trkpt><trkpt lat="22.133261" lon="104.287926"><ele>101.3</ele><time>2011-04-27T05:27:31.0000000+00:00</time></trkpt><trkpt lat="22.133209" lon="104.288017"><ele>102.0</ele><time>2011-04-27T05:27:36.0000000+00:00</time></trkpt><trkpt lat="22.133146" lon="104.288086"><ele>101.9</ele><time>2011-04-27T05:27:41.0000000+00:00</time></trkpt><trkpt lat="22.133093" lon="104.288132"><ele>102.3</ele><time>2011-04-27T05:27:46.0000000+00:00</time></trkpt><trkpt lat="22.133045" lon="104.288177"><ele>100.8</ele><time>2011-04-27T05:27:51.0000000+00:00</time></trkpt><trkpt lat="22.132992" lon="104.288246"><ele>100.8</ele><time>2011-04-27T05:27:56.0000000+00:00</time></trkpt><trkpt lat="22.132915" lon="104.288315"><ele>100.5</ele><time>2011-04-27T05:28:01.0000000+00:00</time></trkpt><trkpt lat="22.132862" lon="104.288361"><ele>100.7</ele><time>2011-04-27T05:28:06.0000000+00:00</time></trkpt><trkpt lat="22.132832" lon="104.288422"><ele>100.4</ele><time>2011-04-27T05:28:11.0000000+00:00</time></trkpt><trkpt lat="22.13278" lon="104.288521"><ele>102.4</ele><time>2011-04-27T05:28:16.0000000+00:00</time></trkpt><trkpt lat="22.132746" lon="104.288612"><ele>103.6</ele><time>2011-04-27T05:28:21.0000000+00:00</time></trkpt><trkpt lat="22.132729" lon="104.28875"><ele>106.5</ele><time>2011-04-27T05:28:26.0000000+00:00</time></trkpt><trkpt lat="22.132736" lon="104.288895"><ele>107.8</ele><time>2011-04-27T05:28:31.0000000+00:00</time></trkpt><trkpt lat="22.132751" lon="104.289055"><ele>108.6</ele><time>2011-04-27T05:28:36.0000000+00:00</time></trkpt><trkpt lat="22.132761" lon="104.289223"><ele>110.5</ele><time>2011-04-27T05:28:41.0000000+00:00</time></trkpt><trkpt lat="22.132742" lon="104.289391"><ele>111.6</ele><time>2011-04-27T05:28:46.0000000+00:00</time></trkpt><trkpt lat="22.132729" lon="104.289558"><ele>114.5</ele><time>2011-04-27T05:28:51.0000000+00:00</time></trkpt><trkpt lat="22.132692" lon="104.289726"><ele>115.8</ele><time>2011-04-27T05:28:56.0000000+00:00</time></trkpt><trkpt lat="22.132629" lon="104.289856"><ele>115.6</ele><time>2011-04-27T05:29:01.0000000+00:00</time></trkpt><trkpt lat="22.132582" lon="104.289986"><ele>117.3</ele><time>2011-04-27T05:29:06.0000000+00:00</time></trkpt><trkpt lat="22.132521" lon="104.290131"><ele>119.7</ele><time>2011-04-27T05:29:11.0000000+00:00</time></trkpt><trkpt lat="22.132462" lon="104.290268"><ele>121.6</ele><time>2011-04-27T05:29:16.0000000+00:00</time></trkpt><trkpt lat="22.132397" lon="104.290421"><ele>123.2</ele><time>2011-04-27T05:29:21.0000000+00:00</time></trkpt><trkpt lat="22.132381" lon="104.29055"><ele>124.0</ele><time>2011-04-27T05:29:26.0000000+00:00</time></trkpt><trkpt lat="22.132458" lon="104.290657"><ele>118.2</ele><time>2011-04-27T05:29:31.0000000+00:00</time></trkpt><trkpt lat="22.132547" lon="104.290771"><ele>114.0</ele><time>2011-04-27T05:29:36.0000000+00:00</time></trkpt><trkpt lat="22.132648" lon="104.290871"><ele>112.0</ele><time>2011-04-27T05:29:41.0000000+00:00</time></trkpt><trkpt lat="22.132692" lon="104.290993"><ele>111.2</ele><time>2011-04-27T05:29:46.0000000+00:00</time></trkpt><trkpt lat="22.132696" lon="104.291122"><ele>111.1</ele><time>2011-04-27T05:29:51.0000000+00:00</time></trkpt><trkpt lat="22.132687" lon="104.291229"><ele>110.9</ele><time>2011-04-27T05:29:56.0000000+00:00</time></trkpt><trkpt lat="22.132656" lon="104.291351"><ele>111.6</ele><time>2011-04-27T05:30:01.0000000+00:00</time></trkpt><trkpt lat="22.132631" lon="104.291458"><ele>112.0</ele><time>2011-04-27T05:30:06.0000000+00:00</time></trkpt><trkpt lat="22.132629" lon="104.291534"><ele>112.5</ele><time>2011-04-27T05:30:11.0000000+00:00</time></trkpt><trkpt lat="22.132616" lon="104.291626"><ele>111.0</ele><time>2011-04-27T05:30:16.0000000+00:00</time></trkpt><trkpt lat="22.132627" lon="104.291725"><ele>109.5</ele><time>2011-04-27T05:30:21.0000000+00:00</time></trkpt><trkpt lat="22.132635" lon="104.291801"><ele>109.2</ele><time>2011-04-27T05:30:26.0000000+00:00</time></trkpt><trkpt lat="22.132666" lon="104.291924"><ele>109.0</ele><time>2011-04-27T05:30:31.0000000+00:00</time></trkpt><trkpt lat="22.132727" lon="104.29203"><ele>110.0</ele><time>2011-04-27T05:30:36.0000000+00:00</time></trkpt><trkpt lat="22.132797" lon="104.292183"><ele>111.7</ele><time>2011-04-27T05:30:41.0000000+00:00</time></trkpt><trkpt lat="22.132839" lon="104.292336"><ele>113.7</ele><time>2011-04-27T05:30:46.0000000+00:00</time></trkpt><trkpt lat="22.132927" lon="104.292503"><ele>114.3</ele><time>2011-04-27T05:30:51.0000000+00:00</time></trkpt><trkpt lat="22.132965" lon="104.292725"><ele>114.6</ele><time>2011-04-27T05:30:56.0000000+00:00</time></trkpt><trkpt lat="22.132963" lon="104.292992"><ele>115.6</ele><time>2011-04-27T05:31:01.0000000+00:00</time></trkpt><trkpt lat="22.133013" lon="104.293289"><ele>115.4</ele><time>2011-04-27T05:31:06.0000000+00:00</time></trkpt><trkpt lat="22.133062" lon="104.293594"><ele>113.9</ele><time>2011-04-27T05:31:11.0000000+00:00</time></trkpt><trkpt lat="22.133022" lon="104.293808"><ele>114.4</ele><time>2011-04-27T05:31:16.0000000+00:00</time></trkpt><trkpt lat="22.133028" lon="104.293907"><ele>110.0</ele><time>2011-04-27T05:31:21.0000000+00:00</time></trkpt><trkpt lat="22.13302" lon="104.293999"><ele>109.6</ele><time>2011-04-27T05:31:26.0000000+00:00</time></trkpt><trkpt lat="22.133003" lon="104.294075"><ele>109.0</ele><time>2011-04-27T05:31:31.0000000+00:00</time></trkpt><trkpt lat="22.133011" lon="104.294151"><ele>109.1</ele><time>2011-04-27T05:31:36.0000000+00:00</time></trkpt><trkpt lat="22.133005" lon="104.294189"><ele>109.9</ele><time>2011-04-27T05:31:41.0000000+00:00</time></trkpt><trkpt lat="22.133007" lon="104.294258"><ele>110.9</ele><time>2011-04-27T05:31:46.0000000+00:00</time></trkpt><trkpt lat="22.133007" lon="104.294327"><ele>112.0</ele><time>2011-04-27T05:31:51.0000000+00:00</time></trkpt><trkpt lat="22.133018" lon="104.294388"><ele>113.0</ele><time>2011-04-27T05:31:56.0000000+00:00</time></trkpt><trkpt lat="22.133026" lon="104.294456"><ele>113.1</ele><time>2011-04-27T05:32:01.0000000+00:00</time></trkpt><trkpt lat="22.133038" lon="104.29451"><ele>113.9</ele><time>2011-04-27T05:32:06.0000000+00:00</time></trkpt><trkpt lat="22.133064" lon="104.294586"><ele>115.0</ele><time>2011-04-27T05:32:11.0000000+00:00</time></trkpt><trkpt lat="22.133089" lon="104.294662"><ele>115.9</ele><time>2011-04-27T05:32:16.0000000+00:00</time></trkpt><trkpt lat="22.13312" lon="104.294708"><ele>117.1</ele><time>2011-04-27T05:32:21.0000000+00:00</time></trkpt><trkpt lat="22.13316" lon="104.294792"><ele>118.1</ele><time>2011-04-27T05:32:26.0000000+00:00</time></trkpt><trkpt lat="22.133184" lon="104.294846"><ele>118.5</ele><time>2011-04-27T05:32:31.0000000+00:00</time></trkpt><trkpt lat="22.133221" lon="104.294922"><ele>119.2</ele><time>2011-04-27T05:32:36.0000000+00:00</time></trkpt><trkpt lat="22.133217" lon="104.294983"><ele>121.4</ele><time>2011-04-27T05:32:41.0000000+00:00</time></trkpt><trkpt lat="22.133232" lon="104.295044"><ele>123.8</ele><time>2011-04-27T05:32:46.0000000+00:00</time></trkpt><trkpt lat="22.133226" lon="104.295097"><ele>124.7</ele><time>2011-04-27T05:32:51.0000000+00:00</time></trkpt><trkpt lat="22.133238" lon="104.295135"><ele>126.1</ele><time>2011-04-27T05:32:56.0000000+00:00</time></trkpt><trkpt lat="22.133257" lon="104.295219"><ele>127.4</ele><time>2011-04-27T05:33:01.0000000+00:00</time></trkpt><trkpt lat="22.13324" lon="104.295288"><ele>128.7</ele><time>2011-04-27T05:33:06.0000000+00:00</time></trkpt><trkpt lat="22.133245" lon="104.295364"><ele>129.8</ele><time>2011-04-27T05:33:11.0000000+00:00</time></trkpt><trkpt lat="22.133247" lon="104.295403"><ele>130.9</ele><time>2011-04-27T05:33:16.0000000+00:00</time></trkpt><trkpt lat="22.133295" lon="104.295486"><ele>131.3</ele><time>2011-04-27T05:33:21.0000000+00:00</time></trkpt><trkpt lat="22.133329" lon="104.295563"><ele>132.5</ele><time>2011-04-27T05:33:26.0000000+00:00</time></trkpt><trkpt lat="22.133341" lon="104.295593"><ele>132.7</ele><time>2011-04-27T05:33:31.0000000+00:00</time></trkpt><trkpt lat="22.133364" lon="104.295639"><ele>131.3</ele><time>2011-04-27T05:33:36.0000000+00:00</time></trkpt><trkpt lat="22.133385" lon="104.29567"><ele>128.4</ele><time>2011-04-27T05:33:41.0000000+00:00</time></trkpt><trkpt lat="22.133413" lon="104.295708"><ele>127.6</ele><time>2011-04-27T05:33:46.0000000+00:00</time></trkpt><trkpt lat="22.133408" lon="104.2957"><ele>126.8</ele><time>2011-04-27T05:33:51.0000000+00:00</time></trkpt><trkpt lat="22.133406" lon="104.295715"><ele>126.7</ele><time>2011-04-27T05:33:56.0000000+00:00</time></trkpt><trkpt lat="22.133417" lon="104.295715"><ele>125.4</ele><time>2011-04-27T05:34:01.0000000+00:00</time></trkpt><trkpt lat="22.133417" lon="104.295715"><ele>125.3</ele><time>2011-04-27T05:34:06.0000000+00:00</time></trkpt><trkpt lat="22.133417" lon="104.295715"><ele>125.3</ele><time>2011-04-27T05:34:11.0000000+00:00</time></trkpt><trkpt lat="22.133417" lon="104.295715"><ele>125.3</ele><time>2011-04-27T05:34:16.0000000+00:00</time></trkpt><trkpt lat="22.133419" lon="104.295715"><ele>125.3</ele><time>2011-04-27T05:34:21.0000000+00:00</time></trkpt><trkpt lat="22.133427" lon="104.295723"><ele>125.1</ele><time>2011-04-27T05:34:26.0000000+00:00</time></trkpt><trkpt lat="22.133472" lon="104.295746"><ele>124.8</ele><time>2011-04-27T05:34:31.0000000+00:00</time></trkpt><trkpt lat="22.133512" lon="104.295792"><ele>124.1</ele><time>2011-04-27T05:34:36.0000000+00:00</time></trkpt><trkpt lat="22.133545" lon="104.295845"><ele>124.9</ele><time>2011-04-27T05:34:41.0000000+00:00</time></trkpt><trkpt lat="22.133564" lon="104.295914"><ele>126.1</ele><time>2011-04-27T05:34:46.0000000+00:00</time></trkpt><trkpt lat="22.133572" lon="104.295975"><ele>127.4</ele><time>2011-04-27T05:34:51.0000000+00:00</time></trkpt><trkpt lat="22.133556" lon="104.296013"><ele>129.0</ele><time>2011-04-27T05:34:56.0000000+00:00</time></trkpt><trkpt lat="22.133532" lon="104.296104"><ele>129.7</ele><time>2011-04-27T05:35:01.0000000+00:00</time></trkpt><trkpt lat="22.133514" lon="104.296165"><ele>131.4</ele><time>2011-04-27T05:35:06.0000000+00:00</time></trkpt><trkpt lat="22.133499" lon="104.296196"><ele>132.1</ele><time>2011-04-27T05:35:11.0000000+00:00</time></trkpt><trkpt lat="22.133495" lon="104.296249"><ele>133.3</ele><time>2011-04-27T05:35:16.0000000+00:00</time></trkpt><trkpt lat="22.133459" lon="104.296288"><ele>134.6</ele><time>2011-04-27T05:35:21.0000000+00:00</time></trkpt><trkpt lat="22.133436" lon="104.296394"><ele>135.7</ele><time>2011-04-27T05:35:26.0000000+00:00</time></trkpt><trkpt lat="22.133421" lon="104.296463"><ele>137.1</ele><time>2011-04-27T05:35:31.0000000+00:00</time></trkpt><trkpt lat="22.133427" lon="104.296532"><ele>138.9</ele><time>2011-04-27T05:35:36.0000000+00:00</time></trkpt><trkpt lat="22.1334" lon="104.296631"><ele>139.9</ele><time>2011-04-27T05:35:41.0000000+00:00</time></trkpt><trkpt lat="22.133429" lon="104.296684"><ele>140.0</ele><time>2011-04-27T05:35:46.0000000+00:00</time></trkpt><trkpt lat="22.133467" lon="104.296738"><ele>140.7</ele><time>2011-04-27T05:35:51.0000000+00:00</time></trkpt><trkpt lat="22.133499" lon="104.296776"><ele>141.6</ele><time>2011-04-27T05:35:56.0000000+00:00</time></trkpt><trkpt lat="22.133545" lon="104.296822"><ele>142.0</ele><time>2011-04-27T05:36:01.0000000+00:00</time></trkpt><trkpt lat="22.133602" lon="104.296883"><ele>141.0</ele><time>2011-04-27T05:36:06.0000000+00:00</time></trkpt><trkpt lat="22.133657" lon="104.296928"><ele>141.1</ele><time>2011-04-27T05:36:11.0000000+00:00</time></trkpt><trkpt lat="22.133694" lon="104.296982"><ele>141.6</ele><time>2011-04-27T05:36:16.0000000+00:00</time></trkpt><trkpt lat="22.133749" lon="104.297028"><ele>141.3</ele><time>2011-04-27T05:36:21.0000000+00:00</time></trkpt><trkpt lat="22.133793" lon="104.297058"><ele>141.1</ele><time>2011-04-27T05:36:26.0000000+00:00</time></trkpt><trkpt lat="22.133827" lon="104.297112"><ele>140.5</ele><time>2011-04-27T05:36:31.0000000+00:00</time></trkpt><trkpt lat="22.133863" lon="104.297157"><ele>140.9</ele><time>2011-04-27T05:36:36.0000000+00:00</time></trkpt><trkpt lat="22.133911" lon="104.297195"><ele>139.4</ele><time>2011-04-27T05:36:41.0000000+00:00</time></trkpt><trkpt lat="22.133963" lon="104.297234"><ele>139.8</ele><time>2011-04-27T05:36:46.0000000+00:00</time></trkpt><trkpt lat="22.134007" lon="104.297295"><ele>139.1</ele><time>2011-04-27T05:36:51.0000000+00:00</time></trkpt><trkpt lat="22.13406" lon="104.29734"><ele>138.8</ele><time>2011-04-27T05:36:56.0000000+00:00</time></trkpt><trkpt lat="22.134108" lon="104.297394"><ele>139.1</ele><time>2011-04-27T05:37:01.0000000+00:00</time></trkpt><trkpt lat="22.134151" lon="104.29744"><ele>139.2</ele><time>2011-04-27T05:37:06.0000000+00:00</time></trkpt><trkpt lat="22.134184" lon="104.297493"><ele>138.6</ele><time>2011-04-27T05:37:11.0000000+00:00</time></trkpt><trkpt lat="22.134226" lon="104.297539"><ele>138.9</ele><time>2011-04-27T05:37:16.0000000+00:00</time></trkpt><trkpt lat="22.134272" lon="104.297607"><ele>140.3</ele><time>2011-04-27T05:37:21.0000000+00:00</time></trkpt><trkpt lat="22.134283" lon="104.297691"><ele>141.8</ele><time>2011-04-27T05:37:26.0000000+00:00</time></trkpt><trkpt lat="22.134277" lon="104.297775"><ele>143.4</ele><time>2011-04-27T05:37:31.0000000+00:00</time></trkpt><trkpt lat="22.134268" lon="104.297836"><ele>145.2</ele><time>2011-04-27T05:37:36.0000000+00:00</time></trkpt><trkpt lat="22.134245" lon="104.297913"><ele>146.4</ele><time>2011-04-27T05:37:41.0000000+00:00</time></trkpt><trkpt lat="22.134218" lon="104.297958"><ele>148.2</ele><time>2011-04-27T05:37:46.0000000+00:00</time></trkpt><trkpt lat="22.134199" lon="104.298004"><ele>149.8</ele><time>2011-04-27T05:37:51.0000000+00:00</time></trkpt><trkpt lat="22.134176" lon="104.298058"><ele>151.5</ele><time>2011-04-27T05:37:56.0000000+00:00</time></trkpt><trkpt lat="22.134193" lon="104.298157"><ele>152.8</ele><time>2011-04-27T05:38:01.0000000+00:00</time></trkpt><trkpt lat="22.134207" lon="104.298233"><ele>154.7</ele><time>2011-04-27T05:38:06.0000000+00:00</time></trkpt><trkpt lat="22.134214" lon="104.298294"><ele>157.0</ele><time>2011-04-27T05:38:11.0000000+00:00</time></trkpt><trkpt lat="22.13423" lon="104.298363"><ele>158.9</ele><time>2011-04-27T05:38:16.0000000+00:00</time></trkpt><trkpt lat="22.134245" lon="104.298416"><ele>160.9</ele><time>2011-04-27T05:38:21.0000000+00:00</time></trkpt><trkpt lat="22.134245" lon="104.29847"><ele>163.5</ele><time>2011-04-27T05:38:26.0000000+00:00</time></trkpt><trkpt lat="22.134243" lon="104.298531"><ele>165.1</ele><time>2011-04-27T05:38:31.0000000+00:00</time></trkpt><trkpt lat="22.134251" lon="104.298531"><ele>165.8</ele><time>2011-04-27T05:38:36.0000000+00:00</time></trkpt><trkpt lat="22.134249" lon="104.298538"><ele>166.8</ele><time>2011-04-27T05:38:41.0000000+00:00</time></trkpt><trkpt lat="22.134245" lon="104.298538"><ele>167.6</ele><time>2011-04-27T05:38:46.0000000+00:00</time></trkpt><trkpt lat="22.134243" lon="104.298538"><ele>168.3</ele><time>2011-04-27T05:38:51.0000000+00:00</time></trkpt><trkpt lat="22.134241" lon="104.298538"><ele>168.9</ele><time>2011-04-27T05:38:56.0000000+00:00</time></trkpt><trkpt lat="22.134233" lon="104.298538"><ele>169.6</ele><time>2011-04-27T05:39:01.0000000+00:00</time></trkpt><trkpt lat="22.134224" lon="104.298538"><ele>170.2</ele><time>2011-04-27T05:39:06.0000000+00:00</time></trkpt><trkpt lat="22.134212" lon="104.298546"><ele>170.8</ele><time>2011-04-27T05:39:11.0000000+00:00</time></trkpt><trkpt lat="22.134264" lon="104.298576"><ele>171.5</ele><time>2011-04-27T05:39:16.0000000+00:00</time></trkpt><trkpt lat="22.134293" lon="104.29863"><ele>171.0</ele><time>2011-04-27T05:39:21.0000000+00:00</time></trkpt><trkpt lat="22.134293" lon="104.298691"><ele>171.5</ele><time>2011-04-27T05:39:26.0000000+00:00</time></trkpt><trkpt lat="22.1343" lon="104.298744"><ele>172.0</ele><time>2011-04-27T05:39:31.0000000+00:00</time></trkpt><trkpt lat="22.134247" lon="104.298782"><ele>171.0</ele><time>2011-04-27T05:39:36.0000000+00:00</time></trkpt><trkpt lat="22.134235" lon="104.298843"><ele>171.8</ele><time>2011-04-27T05:39:41.0000000+00:00</time></trkpt><trkpt lat="22.13423" lon="104.298897"><ele>172.3</ele><time>2011-04-27T05:39:46.0000000+00:00</time></trkpt><trkpt lat="22.134232" lon="104.29895"><ele>173.1</ele><time>2011-04-27T05:39:51.0000000+00:00</time></trkpt><trkpt lat="22.134195" lon="104.299011"><ele>173.7</ele><time>2011-04-27T05:39:56.0000000+00:00</time></trkpt><trkpt lat="22.134167" lon="104.299088"><ele>174.6</ele><time>2011-04-27T05:40:01.0000000+00:00</time></trkpt><trkpt lat="22.134157" lon="104.29921"><ele>175.1</ele><time>2011-04-27T05:40:06.0000000+00:00</time></trkpt><trkpt lat="22.134129" lon="104.29924"><ele>176.1</ele><time>2011-04-27T05:40:11.0000000+00:00</time></trkpt><trkpt lat="22.134108" lon="104.299286"><ele>177.7</ele><time>2011-04-27T05:40:16.0000000+00:00</time></trkpt><trkpt lat="22.134079" lon="104.299332"><ele>179.5</ele><time>2011-04-27T05:40:21.0000000+00:00</time></trkpt><trkpt lat="22.134026" lon="104.29937"><ele>181.5</ele><time>2011-04-27T05:40:26.0000000+00:00</time></trkpt><trkpt lat="22.133999" lon="104.299431"><ele>183.3</ele><time>2011-04-27T05:40:31.0000000+00:00</time></trkpt><trkpt lat="22.133961" lon="104.299492"><ele>185.1</ele><time>2011-04-27T05:40:36.0000000+00:00</time></trkpt><trkpt lat="22.133896" lon="104.299561"><ele>186.4</ele><time>2011-04-27T05:40:41.0000000+00:00</time></trkpt><trkpt lat="22.133869" lon="104.299637"><ele>188.1</ele><time>2011-04-27T05:40:46.0000000+00:00</time></trkpt><trkpt lat="22.13393" lon="104.299721"><ele>188.7</ele><time>2011-04-27T05:40:51.0000000+00:00</time></trkpt><trkpt lat="22.133972" lon="104.299812"><ele>189.4</ele><time>2011-04-27T05:40:56.0000000+00:00</time></trkpt><trkpt lat="22.134008" lon="104.299889"><ele>190.6</ele><time>2011-04-27T05:41:01.0000000+00:00</time></trkpt><trkpt lat="22.134052" lon="104.299934"><ele>191.8</ele><time>2011-04-27T05:41:06.0000000+00:00</time></trkpt><trkpt lat="22.134142" lon="104.300026"><ele>191.8</ele><time>2011-04-27T05:41:11.0000000+00:00</time></trkpt><trkpt lat="22.134222" lon="104.300087"><ele>191.0</ele><time>2011-04-27T05:41:16.0000000+00:00</time></trkpt><trkpt lat="22.13431" lon="104.30014"><ele>191.6</ele><time>2011-04-27T05:41:21.0000000+00:00</time></trkpt><trkpt lat="22.134392" lon="104.300186"><ele>192.4</ele><time>2011-04-27T05:41:26.0000000+00:00</time></trkpt><trkpt lat="22.13447" lon="104.300217"><ele>193.2</ele><time>2011-04-27T05:41:31.0000000+00:00</time></trkpt><trkpt lat="22.134556" lon="104.300262"><ele>194.0</ele><time>2011-04-27T05:41:36.0000000+00:00</time></trkpt><trkpt lat="22.134628" lon="104.300308"><ele>194.7</ele><time>2011-04-27T05:41:41.0000000+00:00</time></trkpt><trkpt lat="22.13471" lon="104.300346"><ele>195.4</ele><time>2011-04-27T05:41:46.0000000+00:00</time></trkpt><trkpt lat="22.134741" lon="104.300377"><ele>196.2</ele><time>2011-04-27T05:41:51.0000000+00:00</time></trkpt><trkpt lat="22.134747" lon="104.300392"><ele>196.2</ele><time>2011-04-27T05:41:56.0000000+00:00</time></trkpt><trkpt lat="22.134748" lon="104.300392"><ele>196.7</ele><time>2011-04-27T05:42:01.0000000+00:00</time></trkpt><trkpt lat="22.13475" lon="104.300392"><ele>197.2</ele><time>2011-04-27T05:42:06.0000000+00:00</time></trkpt><trkpt lat="22.134754" lon="104.300392"><ele>197.7</ele><time>2011-04-27T05:42:11.0000000+00:00</time></trkpt><trkpt lat="22.134756" lon="104.3004"><ele>198.2</ele><time>2011-04-27T05:42:16.0000000+00:00</time></trkpt><trkpt lat="22.134758" lon="104.300392"><ele>198.7</ele><time>2011-04-27T05:42:21.0000000+00:00</time></trkpt><trkpt lat="22.134762" lon="104.300392"><ele>199.3</ele><time>2011-04-27T05:42:26.0000000+00:00</time></trkpt><trkpt lat="22.134764" lon="104.300392"><ele>199.8</ele><time>2011-04-27T05:42:31.0000000+00:00</time></trkpt><trkpt lat="22.134768" lon="104.300392"><ele>200.3</ele><time>2011-04-27T05:42:36.0000000+00:00</time></trkpt><trkpt lat="22.134769" lon="104.300385"><ele>200.8</ele><time>2011-04-27T05:42:41.0000000+00:00</time></trkpt><trkpt lat="22.134771" lon="104.300385"><ele>201.3</ele><time>2011-04-27T05:42:46.0000000+00:00</time></trkpt><trkpt lat="22.134773" lon="104.300385"><ele>201.8</ele><time>2011-04-27T05:42:51.0000000+00:00</time></trkpt><trkpt lat="22.134777" lon="104.300385"><ele>202.3</ele><time>2011-04-27T05:42:56.0000000+00:00</time></trkpt><trkpt lat="22.134779" lon="104.300385"><ele>202.8</ele><time>2011-04-27T05:43:01.0000000+00:00</time></trkpt><trkpt lat="22.134781" lon="104.300385"><ele>203.3</ele><time>2011-04-27T05:43:06.0000000+00:00</time></trkpt><trkpt lat="22.134783" lon="104.300385"><ele>203.8</ele><time>2011-04-27T05:43:11.0000000+00:00</time></trkpt><trkpt lat="22.134787" lon="104.300385"><ele>204.3</ele><time>2011-04-27T05:43:16.0000000+00:00</time></trkpt><trkpt lat="22.13485" lon="104.300385"><ele>202.9</ele><time>2011-04-27T05:43:21.0000000+00:00</time></trkpt><trkpt lat="22.134928" lon="104.300377"><ele>200.5</ele><time>2011-04-27T05:43:26.0000000+00:00</time></trkpt><trkpt lat="22.135008" lon="104.300354"><ele>200.1</ele><time>2011-04-27T05:43:31.0000000+00:00</time></trkpt><trkpt lat="22.13508" lon="104.300323"><ele>199.5</ele><time>2011-04-27T05:43:36.0000000+00:00</time></trkpt><trkpt lat="22.135162" lon="104.300285"><ele>198.6</ele><time>2011-04-27T05:43:41.0000000+00:00</time></trkpt><trkpt lat="22.135241" lon="104.30027"><ele>198.3</ele><time>2011-04-27T05:43:46.0000000+00:00</time></trkpt><trkpt lat="22.135302" lon="104.300217"><ele>198.4</ele><time>2011-04-27T05:43:51.0000000+00:00</time></trkpt><trkpt lat="22.135317" lon="104.300209"><ele>199.0</ele><time>2011-04-27T05:43:56.0000000+00:00</time></trkpt><trkpt lat="22.135366" lon="104.300247"><ele>198.5</ele><time>2011-04-27T05:44:01.0000000+00:00</time></trkpt><trkpt lat="22.135416" lon="104.30027"><ele>196.7</ele><time>2011-04-27T05:44:06.0000000+00:00</time></trkpt><trkpt lat="22.135454" lon="104.300316"><ele>195.5</ele><time>2011-04-27T05:44:11.0000000+00:00</time></trkpt><trkpt lat="22.135506" lon="104.300339"><ele>194.1</ele><time>2011-04-27T05:44:16.0000000+00:00</time></trkpt><trkpt lat="22.135542" lon="104.300392"><ele>193.3</ele><time>2011-04-27T05:44:21.0000000+00:00</time></trkpt><trkpt lat="22.135595" lon="104.300438"><ele>192.5</ele><time>2011-04-27T05:44:26.0000000+00:00</time></trkpt><trkpt lat="22.135641" lon="104.300507"><ele>192.3</ele><time>2011-04-27T05:44:31.0000000+00:00</time></trkpt><trkpt lat="22.135704" lon="104.300552"><ele>192.1</ele><time>2011-04-27T05:44:36.0000000+00:00</time></trkpt><trkpt lat="22.135754" lon="104.300591"><ele>191.9</ele><time>2011-04-27T05:44:41.0000000+00:00</time></trkpt><trkpt lat="22.135777" lon="104.300636"><ele>192.3</ele><time>2011-04-27T05:44:46.0000000+00:00</time></trkpt><trkpt lat="22.135843" lon="104.300667"><ele>191.9</ele><time>2011-04-27T05:44:51.0000000+00:00</time></trkpt><trkpt lat="22.135889" lon="104.300728"><ele>192.8</ele><time>2011-04-27T05:44:56.0000000+00:00</time></trkpt><trkpt lat="22.135973" lon="104.300751"><ele>191.8</ele><time>2011-04-27T05:45:01.0000000+00:00</time></trkpt><trkpt lat="22.136091" lon="104.300735"><ele>193.7</ele><time>2011-04-27T05:45:06.0000000+00:00</time></trkpt><trkpt lat="22.136209" lon="104.30072"><ele>194.3</ele><time>2011-04-27T05:45:11.0000000+00:00</time></trkpt><trkpt lat="22.136316" lon="104.300713"><ele>194.6</ele><time>2011-04-27T05:45:16.0000000+00:00</time></trkpt><trkpt lat="22.136402" lon="104.300728"><ele>194.5</ele><time>2011-04-27T05:45:21.0000000+00:00</time></trkpt><trkpt lat="22.136471" lon="104.300774"><ele>193.8</ele><time>2011-04-27T05:45:26.0000000+00:00</time></trkpt><trkpt lat="22.136517" lon="104.300842"><ele>193.2</ele><time>2011-04-27T05:45:31.0000000+00:00</time></trkpt><trkpt lat="22.136559" lon="104.300911"><ele>193.1</ele><time>2011-04-27T05:45:36.0000000+00:00</time></trkpt><trkpt lat="22.136595" lon="104.300957"><ele>193.2</ele><time>2011-04-27T05:45:41.0000000+00:00</time></trkpt><trkpt lat="22.136642" lon="104.30101"><ele>192.8</ele><time>2011-04-27T05:45:46.0000000+00:00</time></trkpt><trkpt lat="22.136677" lon="104.301064"><ele>193.2</ele><time>2011-04-27T05:45:51.0000000+00:00</time></trkpt><trkpt lat="22.136738" lon="104.301109"><ele>193.2</ele><time>2011-04-27T05:45:56.0000000+00:00</time></trkpt><trkpt lat="22.136818" lon="104.301147"><ele>192.8</ele><time>2011-04-27T05:46:01.0000000+00:00</time></trkpt><trkpt lat="22.136898" lon="104.301147"><ele>192.6</ele><time>2011-04-27T05:46:06.0000000+00:00</time></trkpt><trkpt lat="22.136963" lon="104.301186"><ele>192.0</ele><time>2011-04-27T05:46:11.0000000+00:00</time></trkpt><trkpt lat="22.137026" lon="104.301224"><ele>191.3</ele><time>2011-04-27T05:46:16.0000000+00:00</time></trkpt><trkpt lat="22.137089" lon="104.301262"><ele>190.9</ele><time>2011-04-27T05:46:21.0000000+00:00</time></trkpt><trkpt lat="22.137159" lon="104.3013"><ele>190.8</ele><time>2011-04-27T05:46:26.0000000+00:00</time></trkpt><trkpt lat="22.137236" lon="104.301346"><ele>191.1</ele><time>2011-04-27T05:46:31.0000000+00:00</time></trkpt><trkpt lat="22.137302" lon="104.301399"><ele>192.2</ele><time>2011-04-27T05:46:36.0000000+00:00</time></trkpt><trkpt lat="22.137377" lon="104.301399"><ele>192.2</ele><time>2011-04-27T05:46:41.0000000+00:00</time></trkpt><trkpt lat="22.137451" lon="104.301384"><ele>193.5</ele><time>2011-04-27T05:46:46.0000000+00:00</time></trkpt><trkpt lat="22.137514" lon="104.301361"><ele>194.4</ele><time>2011-04-27T05:46:51.0000000+00:00</time></trkpt><trkpt lat="22.137606" lon="104.301331"><ele>194.6</ele><time>2011-04-27T05:46:56.0000000+00:00</time></trkpt><trkpt lat="22.137634" lon="104.301323"><ele>195.9</ele><time>2011-04-27T05:47:01.0000000+00:00</time></trkpt><trkpt lat="22.137751" lon="104.301285"><ele>196.9</ele><time>2011-04-27T05:47:06.0000000+00:00</time></trkpt><trkpt lat="22.137821" lon="104.301254"><ele>197.3</ele><time>2011-04-27T05:47:11.0000000+00:00</time></trkpt><trkpt lat="22.137892" lon="104.30127"><ele>198.5</ele><time>2011-04-27T05:47:16.0000000+00:00</time></trkpt><trkpt lat="22.137934" lon="104.301285"><ele>197.9</ele><time>2011-04-27T05:47:21.0000000+00:00</time></trkpt><trkpt lat="22.137974" lon="104.301323"><ele>196.9</ele><time>2011-04-27T05:47:26.0000000+00:00</time></trkpt><trkpt lat="22.138014" lon="104.301353"><ele>198.0</ele><time>2011-04-27T05:47:31.0000000+00:00</time></trkpt><trkpt lat="22.138042" lon="104.301414"><ele>198.1</ele><time>2011-04-27T05:47:36.0000000+00:00</time></trkpt><trkpt lat="22.138105" lon="104.301453"><ele>198.6</ele><time>2011-04-27T05:47:41.0000000+00:00</time></trkpt><trkpt lat="22.138153" lon="104.301483"><ele>199.1</ele><time>2011-04-27T05:47:46.0000000+00:00</time></trkpt><trkpt lat="22.138208" lon="104.301506"><ele>199.1</ele><time>2011-04-27T05:47:51.0000000+00:00</time></trkpt><trkpt lat="22.138239" lon="104.301559"><ele>199.3</ele><time>2011-04-27T05:47:56.0000000+00:00</time></trkpt><trkpt lat="22.138271" lon="104.301575"><ele>199.7</ele><time>2011-04-27T05:48:01.0000000+00:00</time></trkpt><trkpt lat="22.138309" lon="104.301598"><ele>200.3</ele><time>2011-04-27T05:48:06.0000000+00:00</time></trkpt><trkpt lat="22.138327" lon="104.301643"><ele>200.8</ele><time>2011-04-27T05:48:11.0000000+00:00</time></trkpt><trkpt lat="22.13833" lon="104.301651"><ele>201.8</ele><time>2011-04-27T05:48:16.0000000+00:00</time></trkpt><trkpt lat="22.138336" lon="104.301659"><ele>202.3</ele><time>2011-04-27T05:48:21.0000000+00:00</time></trkpt><trkpt lat="22.138336" lon="104.301659"><ele>202.8</ele><time>2011-04-27T05:48:26.0000000+00:00</time></trkpt><trkpt lat="22.138338" lon="104.301659"><ele>203.1</ele><time>2011-04-27T05:48:31.0000000+00:00</time></trkpt><trkpt lat="22.138338" lon="104.301659"><ele>203.2</ele><time>2011-04-27T05:48:36.0000000+00:00</time></trkpt><trkpt lat="22.138338" lon="104.301659"><ele>203.2</ele><time>2011-04-27T05:48:41.0000000+00:00</time></trkpt><trkpt lat="22.138346" lon="104.301674"><ele>203.3</ele><time>2011-04-27T05:48:46.0000000+00:00</time></trkpt><trkpt lat="22.138393" lon="104.301735"><ele>204.1</ele><time>2011-04-27T05:48:51.0000000+00:00</time></trkpt><trkpt lat="22.138418" lon="104.301819"><ele>205.6</ele><time>2011-04-27T05:48:56.0000000+00:00</time></trkpt><trkpt lat="22.138422" lon="104.30188"><ele>205.8</ele><time>2011-04-27T05:49:01.0000000+00:00</time></trkpt><trkpt lat="22.13842" lon="104.301971"><ele>207.0</ele><time>2011-04-27T05:49:06.0000000+00:00</time></trkpt><trkpt lat="22.13839" lon="104.302025"><ele>207.8</ele><time>2011-04-27T05:49:11.0000000+00:00</time></trkpt><trkpt lat="22.138363" lon="104.302055"><ele>208.1</ele><time>2011-04-27T05:49:16.0000000+00:00</time></trkpt><trkpt lat="22.138355" lon="104.302071"><ele>208.4</ele><time>2011-04-27T05:49:21.0000000+00:00</time></trkpt><trkpt lat="22.138357" lon="104.302078"><ele>208.3</ele><time>2011-04-27T05:49:26.0000000+00:00</time></trkpt><trkpt lat="22.138357" lon="104.302078"><ele>208.3</ele><time>2011-04-27T05:49:31.0000000+00:00</time></trkpt><trkpt lat="22.138361" lon="104.302078"><ele>208.3</ele><time>2011-04-27T05:49:36.0000000+00:00</time></trkpt><trkpt lat="22.138361" lon="104.302078"><ele>208.3</ele><time>2011-04-27T05:49:41.0000000+00:00</time></trkpt><trkpt lat="22.138361" lon="104.302078"><ele>208.3</ele><time>2011-04-27T05:49:46.0000000+00:00</time></trkpt><trkpt lat="22.138357" lon="104.302078"><ele>208.4</ele><time>2011-04-27T05:49:51.0000000+00:00</time></trkpt><trkpt lat="22.13835" lon="104.302086"><ele>208.3</ele><time>2011-04-27T05:49:56.0000000+00:00</time></trkpt><trkpt lat="22.138315" lon="104.302101"><ele>208.2</ele><time>2011-04-27T05:50:01.0000000+00:00</time></trkpt><trkpt lat="22.13826" lon="104.30217"><ele>208.7</ele><time>2011-04-27T05:50:06.0000000+00:00</time></trkpt><trkpt lat="22.138218" lon="104.302231"><ele>209.2</ele><time>2011-04-27T05:50:11.0000000+00:00</time></trkpt><trkpt lat="22.138186" lon="104.302292"><ele>209.8</ele><time>2011-04-27T05:50:16.0000000+00:00</time></trkpt><trkpt lat="22.138166" lon="104.30233"><ele>211.4</ele><time>2011-04-27T05:50:21.0000000+00:00</time></trkpt><trkpt lat="22.13818" lon="104.302414"><ele>211.7</ele><time>2011-04-27T05:50:26.0000000+00:00</time></trkpt><trkpt lat="22.138189" lon="104.30246"><ele>212.8</ele><time>2011-04-27T05:50:31.0000000+00:00</time></trkpt><trkpt lat="22.138222" lon="104.302498"><ele>213.5</ele><time>2011-04-27T05:50:36.0000000+00:00</time></trkpt><trkpt lat="22.138281" lon="104.302536"><ele>214.1</ele><time>2011-04-27T05:50:41.0000000+00:00</time></trkpt><trkpt lat="22.138325" lon="104.302597"><ele>214.9</ele><time>2011-04-27T05:50:46.0000000+00:00</time></trkpt><trkpt lat="22.138372" lon="104.302628"><ele>215.7</ele><time>2011-04-27T05:50:51.0000000+00:00</time></trkpt><trkpt lat="22.138426" lon="104.302681"><ele>216.1</ele><time>2011-04-27T05:50:56.0000000+00:00</time></trkpt><trkpt lat="22.138483" lon="104.302742"><ele>217.3</ele><time>2011-04-27T05:51:01.0000000+00:00</time></trkpt><trkpt lat="22.138523" lon="104.302788"><ele>217.1</ele><time>2011-04-27T05:51:06.0000000+00:00</time></trkpt><trkpt lat="22.138554" lon="104.302834"><ele>216.9</ele><time>2011-04-27T05:51:11.0000000+00:00</time></trkpt><trkpt lat="22.13858" lon="104.302887"><ele>217.3</ele><time>2011-04-27T05:51:16.0000000+00:00</time></trkpt><trkpt lat="22.138622" lon="104.30294"><ele>216.0</ele><time>2011-04-27T05:51:21.0000000+00:00</time></trkpt><trkpt lat="22.138668" lon="104.303001"><ele>215.2</ele><time>2011-04-27T05:51:26.0000000+00:00</time></trkpt><trkpt lat="22.138702" lon="104.30307"><ele>215.8</ele><time>2011-04-27T05:51:31.0000000+00:00</time></trkpt><trkpt lat="22.138727" lon="104.303123"><ele>217.3</ele><time>2011-04-27T05:51:36.0000000+00:00</time></trkpt><trkpt lat="22.138775" lon="104.303177"><ele>217.2</ele><time>2011-04-27T05:51:41.0000000+00:00</time></trkpt><trkpt lat="22.13883" lon="104.303223"><ele>217.9</ele><time>2011-04-27T05:51:46.0000000+00:00</time></trkpt><trkpt lat="22.138876" lon="104.303253"><ele>219.0</ele><time>2011-04-27T05:51:51.0000000+00:00</time></trkpt><trkpt lat="22.138922" lon="104.303268"><ele>220.3</ele><time>2011-04-27T05:51:56.0000000+00:00</time></trkpt><trkpt lat="22.138975" lon="104.303284"><ele>221.7</ele><time>2011-04-27T05:52:01.0000000+00:00</time></trkpt><trkpt lat="22.139042" lon="104.303307"><ele>222.7</ele><time>2011-04-27T05:52:06.0000000+00:00</time></trkpt><trkpt lat="22.139105" lon="104.303322"><ele>224.1</ele><time>2011-04-27T05:52:11.0000000+00:00</time></trkpt><trkpt lat="22.139162" lon="104.303337"><ele>225.6</ele><time>2011-04-27T05:52:16.0000000+00:00</time></trkpt><trkpt lat="22.139219" lon="104.303352"><ele>226.5</ele><time>2011-04-27T05:52:21.0000000+00:00</time></trkpt><trkpt lat="22.139299" lon="104.303375"><ele>225.5</ele><time>2011-04-27T05:52:26.0000000+00:00</time></trkpt><trkpt lat="22.139357" lon="104.303398"><ele>224.8</ele><time>2011-04-27T05:52:31.0000000+00:00</time></trkpt><trkpt lat="22.139414" lon="104.303421"><ele>224.0</ele><time>2011-04-27T05:52:36.0000000+00:00</time></trkpt><trkpt lat="22.139462" lon="104.303452"><ele>224.5</ele><time>2011-04-27T05:52:41.0000000+00:00</time></trkpt><trkpt lat="22.139517" lon="104.303467"><ele>224.3</ele><time>2011-04-27T05:52:46.0000000+00:00</time></trkpt><trkpt lat="22.13958" lon="104.30349"><ele>225.2</ele><time>2011-04-27T05:52:51.0000000+00:00</time></trkpt><trkpt lat="22.139631" lon="104.30352"><ele>225.5</ele><time>2011-04-27T05:52:56.0000000+00:00</time></trkpt><trkpt lat="22.139713" lon="104.303543"><ele>227.0</ele><time>2011-04-27T05:53:01.0000000+00:00</time></trkpt><trkpt lat="22.139771" lon="104.303574"><ele>228.1</ele><time>2011-04-27T05:53:06.0000000+00:00</time></trkpt><trkpt lat="22.139835" lon="104.303604"><ele>228.3</ele><time>2011-04-27T05:53:11.0000000+00:00</time></trkpt><trkpt lat="22.139889" lon="104.30365"><ele>229.1</ele><time>2011-04-27T05:53:16.0000000+00:00</time></trkpt><trkpt lat="22.13995" lon="104.303696"><ele>229.9</ele><time>2011-04-27T05:53:21.0000000+00:00</time></trkpt><trkpt lat="22.139996" lon="104.303757"><ele>230.8</ele><time>2011-04-27T05:53:26.0000000+00:00</time></trkpt><trkpt lat="22.140041" lon="104.30381"><ele>232.3</ele><time>2011-04-27T05:53:31.0000000+00:00</time></trkpt><trkpt lat="22.140087" lon="104.303856"><ele>233.9</ele><time>2011-04-27T05:53:36.0000000+00:00</time></trkpt><trkpt lat="22.140127" lon="104.303932"><ele>235.8</ele><time>2011-04-27T05:53:41.0000000+00:00</time></trkpt><trkpt lat="22.14015" lon="104.304001"><ele>237.2</ele><time>2011-04-27T05:53:46.0000000+00:00</time></trkpt><trkpt lat="22.140154" lon="104.30407"><ele>239.0</ele><time>2011-04-27T05:53:51.0000000+00:00</time></trkpt><trkpt lat="22.140135" lon="104.304115"><ele>240.7</ele><time>2011-04-27T05:53:56.0000000+00:00</time></trkpt><trkpt lat="22.140114" lon="104.304169"><ele>242.0</ele><time>2011-04-27T05:54:01.0000000+00:00</time></trkpt><trkpt lat="22.140102" lon="104.304192"><ele>243.3</ele><time>2011-04-27T05:54:06.0000000+00:00</time></trkpt><trkpt lat="22.140093" lon="104.304192"><ele>244.3</ele><time>2011-04-27T05:54:11.0000000+00:00</time></trkpt><trkpt lat="22.140083" lon="104.304192"><ele>245.1</ele><time>2011-04-27T05:54:16.0000000+00:00</time></trkpt><trkpt lat="22.140072" lon="104.304192"><ele>245.8</ele><time>2011-04-27T05:54:21.0000000+00:00</time></trkpt><trkpt lat="22.140062" lon="104.304199"><ele>246.5</ele><time>2011-04-27T05:54:26.0000000+00:00</time></trkpt><trkpt lat="22.140055" lon="104.304199"><ele>247.1</ele><time>2011-04-27T05:54:31.0000000+00:00</time></trkpt><trkpt lat="22.140051" lon="104.304199"><ele>247.6</ele><time>2011-04-27T05:54:36.0000000+00:00</time></trkpt><trkpt lat="22.140051" lon="104.304199"><ele>248.2</ele><time>2011-04-27T05:54:41.0000000+00:00</time></trkpt><trkpt lat="22.140051" lon="104.304199"><ele>248.7</ele><time>2011-04-27T05:54:46.0000000+00:00</time></trkpt><trkpt lat="22.140053" lon="104.304199"><ele>249.3</ele><time>2011-04-27T05:54:51.0000000+00:00</time></trkpt><trkpt lat="22.140053" lon="104.304199"><ele>249.9</ele><time>2011-04-27T05:54:56.0000000+00:00</time></trkpt><trkpt lat="22.140053" lon="104.304199"><ele>250.5</ele><time>2011-04-27T05:55:01.0000000+00:00</time></trkpt><trkpt lat="22.140055" lon="104.304199"><ele>251.1</ele><time>2011-04-27T05:55:06.0000000+00:00</time></trkpt><trkpt lat="22.140055" lon="104.304199"><ele>251.7</ele><time>2011-04-27T05:55:11.0000000+00:00</time></trkpt><trkpt lat="22.140055" lon="104.304199"><ele>252.3</ele><time>2011-04-27T05:55:16.0000000+00:00</time></trkpt><trkpt lat="22.140055" lon="104.304199"><ele>252.9</ele><time>2011-04-27T05:55:21.0000000+00:00</time></trkpt><trkpt lat="22.140057" lon="104.304199"><ele>253.5</ele><time>2011-04-27T05:55:26.0000000+00:00</time></trkpt><trkpt lat="22.140057" lon="104.304199"><ele>254.1</ele><time>2011-04-27T05:55:31.0000000+00:00</time></trkpt><trkpt lat="22.140057" lon="104.304199"><ele>254.7</ele><time>2011-04-27T05:55:36.0000000+00:00</time></trkpt><trkpt lat="22.140057" lon="104.304199"><ele>255.2</ele><time>2011-04-27T05:55:41.0000000+00:00</time></trkpt><trkpt lat="22.140057" lon="104.304199"><ele>255.8</ele><time>2011-04-27T05:55:46.0000000+00:00</time></trkpt><trkpt lat="22.140057" lon="104.304199"><ele>256.3</ele><time>2011-04-27T05:55:51.0000000+00:00</time></trkpt><trkpt lat="22.140059" lon="104.304207"><ele>256.9</ele><time>2011-04-27T05:55:56.0000000+00:00</time></trkpt><trkpt lat="22.140059" lon="104.304207"><ele>257.5</ele><time>2011-04-27T05:56:01.0000000+00:00</time></trkpt><trkpt lat="22.140059" lon="104.304207"><ele>258.1</ele><time>2011-04-27T05:56:06.0000000+00:00</time></trkpt><trkpt lat="22.14006" lon="104.304207"><ele>258.6</ele><time>2011-04-27T05:56:11.0000000+00:00</time></trkpt><trkpt lat="22.14006" lon="104.304207"><ele>259.2</ele><time>2011-04-27T05:56:16.0000000+00:00</time></trkpt><trkpt lat="22.14006" lon="104.304207"><ele>259.8</ele><time>2011-04-27T05:56:21.0000000+00:00</time></trkpt><trkpt lat="22.14006" lon="104.304207"><ele>260.4</ele><time>2011-04-27T05:56:26.0000000+00:00</time></trkpt><trkpt lat="22.140062" lon="104.304207"><ele>260.9</ele><time>2011-04-27T05:56:31.0000000+00:00</time></trkpt><trkpt lat="22.140062" lon="104.304207"><ele>261.5</ele><time>2011-04-27T05:56:36.0000000+00:00</time></trkpt><trkpt lat="22.140062" lon="104.304207"><ele>262.0</ele><time>2011-04-27T05:56:41.0000000+00:00</time></trkpt><trkpt lat="22.140062" lon="104.304207"><ele>262.4</ele><time>2011-04-27T05:56:46.0000000+00:00</time></trkpt><trkpt lat="22.140064" lon="104.304207"><ele>262.8</ele><time>2011-04-27T05:56:51.0000000+00:00</time></trkpt><trkpt lat="22.140064" lon="104.304207"><ele>263.2</ele><time>2011-04-27T05:56:56.0000000+00:00</time></trkpt><trkpt lat="22.140064" lon="104.304207"><ele>263.5</ele><time>2011-04-27T05:57:01.0000000+00:00</time></trkpt><trkpt lat="22.140066" lon="104.304199"><ele>263.9</ele><time>2011-04-27T05:57:06.0000000+00:00</time></trkpt><trkpt lat="22.140066" lon="104.304199"><ele>264.2</ele><time>2011-04-27T05:57:11.0000000+00:00</time></trkpt><trkpt lat="22.140064" lon="104.304207"><ele>264.5</ele><time>2011-04-27T05:57:16.0000000+00:00</time></trkpt><trkpt lat="22.14006" lon="104.304207"><ele>264.8</ele><time>2011-04-27T05:57:21.0000000+00:00</time></trkpt><trkpt lat="22.140057" lon="104.304214"><ele>265.1</ele><time>2011-04-27T05:57:26.0000000+00:00</time></trkpt><trkpt lat="22.140051" lon="104.304222"><ele>265.3</ele><time>2011-04-27T05:57:31.0000000+00:00</time></trkpt><trkpt lat="22.140049" lon="104.304222"><ele>265.6</ele><time>2011-04-27T05:57:36.0000000+00:00</time></trkpt><trkpt lat="22.140047" lon="104.304214"><ele>265.8</ele><time>2011-04-27T05:57:41.0000000+00:00</time></trkpt><trkpt lat="22.140045" lon="104.304214"><ele>266.0</ele><time>2011-04-27T05:57:46.0000000+00:00</time></trkpt><trkpt lat="22.140045" lon="104.304214"><ele>266.1</ele><time>2011-04-27T05:57:51.0000000+00:00</time></trkpt><trkpt lat="22.140045" lon="104.304214"><ele>266.1</ele><time>2011-04-27T05:57:56.0000000+00:00</time></trkpt><trkpt lat="22.140045" lon="104.304214"><ele>266.1</ele><time>2011-04-27T05:58:01.0000000+00:00</time></trkpt><trkpt lat="22.140047" lon="104.304214"><ele>266.1</ele><time>2011-04-27T05:58:06.0000000+00:00</time></trkpt><trkpt lat="22.140047" lon="104.304214"><ele>266.1</ele><time>2011-04-27T05:58:11.0000000+00:00</time></trkpt><trkpt lat="22.140047" lon="104.304214"><ele>266.1</ele><time>2011-04-27T05:58:16.0000000+00:00</time></trkpt><trkpt lat="22.140049" lon="104.304214"><ele>266.1</ele><time>2011-04-27T05:58:21.0000000+00:00</time></trkpt><trkpt lat="22.140049" lon="104.304214"><ele>266.1</ele><time>2011-04-27T05:58:26.0000000+00:00</time></trkpt><trkpt lat="22.140049" lon="104.304214"><ele>266.1</ele><time>2011-04-27T05:58:31.0000000+00:00</time></trkpt><trkpt lat="22.140049" lon="104.304214"><ele>266.1</ele><time>2011-04-27T05:58:36.0000000+00:00</time></trkpt><trkpt lat="22.140049" lon="104.304214"><ele>266.1</ele><time>2011-04-27T05:58:41.0000000+00:00</time></trkpt><trkpt lat="22.140049" lon="104.304214"><ele>266.1</ele><time>2011-04-27T05:58:46.0000000+00:00</time></trkpt><trkpt lat="22.140049" lon="104.304214"><ele>266.1</ele><time>2011-04-27T05:58:51.0000000+00:00</time></trkpt><trkpt lat="22.140049" lon="104.304214"><ele>266.1</ele><time>2011-04-27T05:58:56.0000000+00:00</time></trkpt><trkpt lat="22.140049" lon="104.304214"><ele>266.1</ele><time>2011-04-27T05:59:01.0000000+00:00</time></trkpt><trkpt lat="22.140049" lon="104.304214"><ele>266.1</ele><time>2011-04-27T05:59:06.0000000+00:00</time></trkpt><trkpt lat="22.140049" lon="104.304214"><ele>266.0</ele><time>2011-04-27T05:59:11.0000000+00:00</time></trkpt><trkpt lat="22.140049" lon="104.304214"><ele>266.0</ele><time>2011-04-27T05:59:16.0000000+00:00</time></trkpt><trkpt lat="22.140051" lon="104.304214"><ele>266.0</ele><time>2011-04-27T05:59:21.0000000+00:00</time></trkpt><trkpt lat="22.140051" lon="104.304214"><ele>266.0</ele><time>2011-04-27T05:59:26.0000000+00:00</time></trkpt><trkpt lat="22.140051" lon="104.304214"><ele>266.0</ele><time>2011-04-27T05:59:31.0000000+00:00</time></trkpt><trkpt lat="22.140051" lon="104.304214"><ele>265.9</ele><time>2011-04-27T05:59:36.0000000+00:00</time></trkpt><trkpt lat="22.140051" lon="104.304214"><ele>265.9</ele><time>2011-04-27T05:59:41.0000000+00:00</time></trkpt><trkpt lat="22.140051" lon="104.304214"><ele>265.9</ele><time>2011-04-27T05:59:46.0000000+00:00</time></trkpt><trkpt lat="22.140051" lon="104.304214"><ele>265.9</ele><time>2011-04-27T05:59:51.0000000+00:00</time></trkpt><trkpt lat="22.140051" lon="104.304214"><ele>265.9</ele><time>2011-04-27T05:59:56.0000000+00:00</time></trkpt><trkpt lat="22.140051" lon="104.304214"><ele>265.9</ele><time>2011-04-27T06:00:01.0000000+00:00</time></trkpt><trkpt lat="22.140051" lon="104.304214"><ele>265.9</ele><time>2011-04-27T06:00:06.0000000+00:00</time></trkpt><trkpt lat="22.140051" lon="104.304214"><ele>265.8</ele><time>2011-04-27T06:00:11.0000000+00:00</time></trkpt><trkpt lat="22.140051" lon="104.304214"><ele>265.8</ele><time>2011-04-27T06:00:16.0000000+00:00</time></trkpt><trkpt lat="22.140051" lon="104.304214"><ele>265.8</ele><time>2011-04-27T06:00:21.0000000+00:00</time></trkpt><trkpt lat="22.140051" lon="104.304214"><ele>265.7</ele><time>2011-04-27T06:00:26.0000000+00:00</time></trkpt><trkpt lat="22.140051" lon="104.304214"><ele>265.7</ele><time>2011-04-27T06:00:31.0000000+00:00</time></trkpt><trkpt lat="22.140051" lon="104.304214"><ele>265.7</ele><time>2011-04-27T06:00:36.0000000+00:00</time></trkpt><trkpt lat="22.140051" lon="104.304214"><ele>265.6</ele><time>2011-04-27T06:00:41.0000000+00:00</time></trkpt><trkpt lat="22.140051" lon="104.304214"><ele>265.6</ele><time>2011-04-27T06:00:46.0000000+00:00</time></trkpt><trkpt lat="22.140051" lon="104.304214"><ele>265.5</ele><time>2011-04-27T06:00:51.0000000+00:00</time></trkpt><trkpt lat="22.140051" lon="104.304214"><ele>265.5</ele><time>2011-04-27T06:00:56.0000000+00:00</time></trkpt><trkpt lat="22.140051" lon="104.304214"><ele>265.4</ele><time>2011-04-27T06:01:01.0000000+00:00</time></trkpt><trkpt lat="22.140051" lon="104.304214"><ele>265.3</ele><time>2011-04-27T06:01:06.0000000+00:00</time></trkpt><trkpt lat="22.140049" lon="104.304214"><ele>265.2</ele><time>2011-04-27T06:01:11.0000000+00:00</time></trkpt><trkpt lat="22.140049" lon="104.304214"><ele>265.0</ele><time>2011-04-27T06:01:16.0000000+00:00</time></trkpt><trkpt lat="22.140049" lon="104.304214"><ele>264.7</ele><time>2011-04-27T06:01:21.0000000+00:00</time></trkpt><trkpt lat="22.140051" lon="104.304214"><ele>264.4</ele><time>2011-04-27T06:01:26.0000000+00:00</time></trkpt><trkpt lat="22.140051" lon="104.304214"><ele>264.1</ele><time>2011-04-27T06:01:31.0000000+00:00</time></trkpt><trkpt lat="22.140051" lon="104.304214"><ele>264.1</ele><time>2011-04-27T06:01:36.0000000+00:00</time></trkpt><trkpt lat="22.140051" lon="104.304214"><ele>264.1</ele><time>2011-04-27T06:01:41.0000000+00:00</time></trkpt><trkpt lat="22.140051" lon="104.304214"><ele>264.3</ele><time>2011-04-27T06:01:46.0000000+00:00</time></trkpt><trkpt lat="22.140051" lon="104.304214"><ele>264.6</ele><time>2011-04-27T06:01:51.0000000+00:00</time></trkpt><trkpt lat="22.140051" lon="104.304214"><ele>264.9</ele><time>2011-04-27T06:01:56.0000000+00:00</time></trkpt><trkpt lat="22.140047" lon="104.304214"><ele>265.2</ele><time>2011-04-27T06:02:01.0000000+00:00</time></trkpt><trkpt lat="22.140047" lon="104.304214"><ele>265.4</ele><time>2011-04-27T06:02:06.0000000+00:00</time></trkpt><trkpt lat="22.140047" lon="104.304214"><ele>265.5</ele><time>2011-04-27T06:02:11.0000000+00:00</time></trkpt><trkpt lat="22.140045" lon="104.304214"><ele>265.6</ele><time>2011-04-27T06:02:16.0000000+00:00</time></trkpt><trkpt lat="22.140041" lon="104.304214"><ele>265.5</ele><time>2011-04-27T06:02:21.0000000+00:00</time></trkpt><trkpt lat="22.140038" lon="104.304214"><ele>265.4</ele><time>2011-04-27T06:02:26.0000000+00:00</time></trkpt><trkpt lat="22.140034" lon="104.304214"><ele>265.3</ele><time>2011-04-27T06:02:31.0000000+00:00</time></trkpt><trkpt lat="22.140032" lon="104.304214"><ele>265.2</ele><time>2011-04-27T06:02:36.0000000+00:00</time></trkpt><trkpt lat="22.140028" lon="104.304214"><ele>265.2</ele><time>2011-04-27T06:02:41.0000000+00:00</time></trkpt><trkpt lat="22.140024" lon="104.304214"><ele>265.0</ele><time>2011-04-27T06:02:46.0000000+00:00</time></trkpt><trkpt lat="22.140022" lon="104.304214"><ele>264.8</ele><time>2011-04-27T06:02:51.0000000+00:00</time></trkpt><trkpt lat="22.14002" lon="104.304214"><ele>264.5</ele><time>2011-04-27T06:02:56.0000000+00:00</time></trkpt><trkpt lat="22.140022" lon="104.304214"><ele>264.3</ele><time>2011-04-27T06:03:01.0000000+00:00</time></trkpt><trkpt lat="22.140022" lon="104.304214"><ele>264.3</ele><time>2011-04-27T06:03:06.0000000+00:00</time></trkpt><trkpt lat="22.140024" lon="104.304214"><ele>264.2</ele><time>2011-04-27T06:03:11.0000000+00:00</time></trkpt><trkpt lat="22.140022" lon="104.304214"><ele>264.3</ele><time>2011-04-27T06:03:16.0000000+00:00</time></trkpt><trkpt lat="22.140022" lon="104.304214"><ele>264.2</ele><time>2011-04-27T06:03:21.0000000+00:00</time></trkpt><trkpt lat="22.140022" lon="104.304214"><ele>264.1</ele><time>2011-04-27T06:03:26.0000000+00:00</time></trkpt><trkpt lat="22.140022" lon="104.304214"><ele>264.1</ele><time>2011-04-27T06:03:31.0000000+00:00</time></trkpt><trkpt lat="22.140022" lon="104.304214"><ele>264.1</ele><time>2011-04-27T06:03:36.0000000+00:00</time></trkpt><trkpt lat="22.140022" lon="104.304214"><ele>264.1</ele><time>2011-04-27T06:03:41.0000000+00:00</time></trkpt><trkpt lat="22.140022" lon="104.304214"><ele>264.0</ele><time>2011-04-27T06:03:46.0000000+00:00</time></trkpt><trkpt lat="22.140022" lon="104.304214"><ele>263.9</ele><time>2011-04-27T06:03:51.0000000+00:00</time></trkpt><trkpt lat="22.14002" lon="104.304214"><ele>263.7</ele><time>2011-04-27T06:03:56.0000000+00:00</time></trkpt><trkpt lat="22.140024" lon="104.304214"><ele>263.2</ele><time>2011-04-27T06:04:01.0000000+00:00</time></trkpt><trkpt lat="22.140032" lon="104.304214"><ele>262.4</ele><time>2011-04-27T06:04:06.0000000+00:00</time></trkpt><trkpt lat="22.140034" lon="104.304214"><ele>261.5</ele><time>2011-04-27T06:04:11.0000000+00:00</time></trkpt><trkpt lat="22.140034" lon="104.304214"><ele>260.7</ele><time>2011-04-27T06:04:16.0000000+00:00</time></trkpt><trkpt lat="22.140036" lon="104.304214"><ele>259.9</ele><time>2011-04-27T06:04:21.0000000+00:00</time></trkpt><trkpt lat="22.140038" lon="104.304214"><ele>259.2</ele><time>2011-04-27T06:04:26.0000000+00:00</time></trkpt><trkpt lat="22.140041" lon="104.304214"><ele>258.6</ele><time>2011-04-27T06:04:31.0000000+00:00</time></trkpt><trkpt lat="22.140047" lon="104.304207"><ele>258.0</ele><time>2011-04-27T06:04:36.0000000+00:00</time></trkpt><trkpt lat="22.140045" lon="104.304207"><ele>257.7</ele><time>2011-04-27T06:04:41.0000000+00:00</time></trkpt><trkpt lat="22.140045" lon="104.304207"><ele>257.6</ele><time>2011-04-27T06:04:46.0000000+00:00</time></trkpt><trkpt lat="22.140045" lon="104.304207"><ele>257.3</ele><time>2011-04-27T06:04:51.0000000+00:00</time></trkpt><trkpt lat="22.140047" lon="104.304207"><ele>257.1</ele><time>2011-04-27T06:04:56.0000000+00:00</time></trkpt><trkpt lat="22.140049" lon="104.304207"><ele>256.8</ele><time>2011-04-27T06:05:01.0000000+00:00</time></trkpt><trkpt lat="22.140053" lon="104.304207"><ele>256.6</ele><time>2011-04-27T06:05:06.0000000+00:00</time></trkpt><trkpt lat="22.140057" lon="104.304207"><ele>256.4</ele><time>2011-04-27T06:05:11.0000000+00:00</time></trkpt><trkpt lat="22.140062" lon="104.304207"><ele>256.3</ele><time>2011-04-27T06:05:16.0000000+00:00</time></trkpt><trkpt lat="22.140068" lon="104.304207"><ele>256.1</ele><time>2011-04-27T06:05:21.0000000+00:00</time></trkpt><trkpt lat="22.140072" lon="104.304207"><ele>255.8</ele><time>2011-04-27T06:05:26.0000000+00:00</time></trkpt><trkpt lat="22.140074" lon="104.304207"><ele>255.2</ele><time>2011-04-27T06:05:31.0000000+00:00</time></trkpt><trkpt lat="22.140072" lon="104.304207"><ele>254.6</ele><time>2011-04-27T06:05:36.0000000+00:00</time></trkpt><trkpt lat="22.140066" lon="104.304207"><ele>253.9</ele><time>2011-04-27T06:05:41.0000000+00:00</time></trkpt><trkpt lat="22.14006" lon="104.304207"><ele>253.1</ele><time>2011-04-27T06:05:46.0000000+00:00</time></trkpt><trkpt lat="22.140055" lon="104.304207"><ele>252.3</ele><time>2011-04-27T06:05:51.0000000+00:00</time></trkpt><trkpt lat="22.140049" lon="104.304207"><ele>251.5</ele><time>2011-04-27T06:05:56.0000000+00:00</time></trkpt><trkpt lat="22.140043" lon="104.304207"><ele>251.0</ele><time>2011-04-27T06:06:01.0000000+00:00</time></trkpt><trkpt lat="22.140038" lon="104.304207"><ele>250.4</ele><time>2011-04-27T06:06:06.0000000+00:00</time></trkpt><trkpt lat="22.140034" lon="104.304207"><ele>249.9</ele><time>2011-04-27T06:06:11.0000000+00:00</time></trkpt><trkpt lat="22.140028" lon="104.304207"><ele>249.5</ele><time>2011-04-27T06:06:16.0000000+00:00</time></trkpt><trkpt lat="22.140024" lon="104.304207"><ele>249.1</ele><time>2011-04-27T06:06:21.0000000+00:00</time></trkpt><trkpt lat="22.140026" lon="104.304207"><ele>248.6</ele><time>2011-04-27T06:06:26.0000000+00:00</time></trkpt><trkpt lat="22.140032" lon="104.304207"><ele>248.2</ele><time>2011-04-27T06:06:31.0000000+00:00</time></trkpt><trkpt lat="22.140039" lon="104.304207"><ele>247.8</ele><time>2011-04-27T06:06:36.0000000+00:00</time></trkpt><trkpt lat="22.140047" lon="104.304199"><ele>247.4</ele><time>2011-04-27T06:06:41.0000000+00:00</time></trkpt><trkpt lat="22.140057" lon="104.304199"><ele>247.0</ele><time>2011-04-27T06:06:46.0000000+00:00</time></trkpt><trkpt lat="22.140131" lon="104.304192"><ele>247.8</ele><time>2011-04-27T06:06:51.0000000+00:00</time></trkpt><trkpt lat="22.140123" lon="104.304192"><ele>248.4</ele><time>2011-04-27T06:06:56.0000000+00:00</time></trkpt><trkpt lat="22.140123" lon="104.304184"><ele>248.2</ele><time>2011-04-27T06:07:01.0000000+00:00</time></trkpt><trkpt lat="22.140133" lon="104.304184"><ele>247.9</ele><time>2011-04-27T06:07:06.0000000+00:00</time></trkpt><trkpt lat="22.140139" lon="104.304184"><ele>247.4</ele><time>2011-04-27T06:07:11.0000000+00:00</time></trkpt><trkpt lat="22.140139" lon="104.304184"><ele>247.0</ele><time>2011-04-27T06:07:16.0000000+00:00</time></trkpt><trkpt lat="22.140131" lon="104.304184"><ele>246.6</ele><time>2011-04-27T06:07:21.0000000+00:00</time></trkpt><trkpt lat="22.140121" lon="104.304184"><ele>246.3</ele><time>2011-04-27T06:07:26.0000000+00:00</time></trkpt><trkpt lat="22.140114" lon="104.304184"><ele>245.9</ele><time>2011-04-27T06:07:31.0000000+00:00</time></trkpt><trkpt lat="22.140114" lon="104.304184"><ele>245.5</ele><time>2011-04-27T06:07:36.0000000+00:00</time></trkpt><trkpt lat="22.140114" lon="104.304184"><ele>245.1</ele><time>2011-04-27T06:07:41.0000000+00:00</time></trkpt><trkpt lat="22.140116" lon="104.304184"><ele>244.8</ele><time>2011-04-27T06:07:46.0000000+00:00</time></trkpt><trkpt lat="22.140118" lon="104.304184"><ele>244.4</ele><time>2011-04-27T06:07:51.0000000+00:00</time></trkpt><trkpt lat="22.140121" lon="104.304184"><ele>244.0</ele><time>2011-04-27T06:07:56.0000000+00:00</time></trkpt><trkpt lat="22.140125" lon="104.304184"><ele>243.6</ele><time>2011-04-27T06:08:01.0000000+00:00</time></trkpt><trkpt lat="22.140129" lon="104.304184"><ele>243.3</ele><time>2011-04-27T06:08:06.0000000+00:00</time></trkpt><trkpt lat="22.140131" lon="104.304184"><ele>242.9</ele><time>2011-04-27T06:08:11.0000000+00:00</time></trkpt><trkpt lat="22.140135" lon="104.304184"><ele>242.5</ele><time>2011-04-27T06:08:16.0000000+00:00</time></trkpt><trkpt lat="22.140141" lon="104.304176"><ele>242.1</ele><time>2011-04-27T06:08:21.0000000+00:00</time></trkpt><trkpt lat="22.140146" lon="104.304176"><ele>241.7</ele><time>2011-04-27T06:08:26.0000000+00:00</time></trkpt><trkpt lat="22.14015" lon="104.304176"><ele>241.3</ele><time>2011-04-27T06:08:31.0000000+00:00</time></trkpt><trkpt lat="22.140154" lon="104.304176"><ele>240.9</ele><time>2011-04-27T06:08:36.0000000+00:00</time></trkpt><trkpt lat="22.14016" lon="104.304176"><ele>240.5</ele><time>2011-04-27T06:08:41.0000000+00:00</time></trkpt><trkpt lat="22.140165" lon="104.304176"><ele>240.1</ele><time>2011-04-27T06:08:46.0000000+00:00</time></trkpt><trkpt lat="22.140169" lon="104.304176"><ele>239.7</ele><time>2011-04-27T06:08:51.0000000+00:00</time></trkpt><trkpt lat="22.140165" lon="104.304176"><ele>239.3</ele><time>2011-04-27T06:08:56.0000000+00:00</time></trkpt><trkpt lat="22.140162" lon="104.304176"><ele>238.9</ele><time>2011-04-27T06:09:01.0000000+00:00</time></trkpt><trkpt lat="22.140158" lon="104.304176"><ele>238.5</ele><time>2011-04-27T06:09:06.0000000+00:00</time></trkpt><trkpt lat="22.140156" lon="104.304176"><ele>238.1</ele><time>2011-04-27T06:09:11.0000000+00:00</time></trkpt><trkpt lat="22.140152" lon="104.304176"><ele>237.8</ele><time>2011-04-27T06:09:16.0000000+00:00</time></trkpt><trkpt lat="22.140142" lon="104.304176"><ele>237.4</ele><time>2011-04-27T06:09:21.0000000+00:00</time></trkpt><trkpt lat="22.140112" lon="104.304176"><ele>236.8</ele><time>2011-04-27T06:09:26.0000000+00:00</time></trkpt><trkpt lat="22.140091" lon="104.304176"><ele>236.2</ele><time>2011-04-27T06:09:31.0000000+00:00</time></trkpt><trkpt lat="22.140095" lon="104.304184"><ele>235.8</ele><time>2011-04-27T06:09:36.0000000+00:00</time></trkpt><trkpt lat="22.140095" lon="104.304184"><ele>235.4</ele><time>2011-04-27T06:09:41.0000000+00:00</time></trkpt><trkpt lat="22.140095" lon="104.304184"><ele>235.0</ele><time>2011-04-27T06:09:46.0000000+00:00</time></trkpt><trkpt lat="22.140095" lon="104.304184"><ele>234.6</ele><time>2011-04-27T06:09:51.0000000+00:00</time></trkpt><trkpt lat="22.140095" lon="104.304184"><ele>234.3</ele><time>2011-04-27T06:09:56.0000000+00:00</time></trkpt><trkpt lat="22.140097" lon="104.304184"><ele>234.0</ele><time>2011-04-27T06:10:01.0000000+00:00</time></trkpt><trkpt lat="22.140104" lon="104.304176"><ele>233.6</ele><time>2011-04-27T06:10:06.0000000+00:00</time></trkpt><trkpt lat="22.140104" lon="104.304176"><ele>233.4</ele><time>2011-04-27T06:10:11.0000000+00:00</time></trkpt><trkpt lat="22.140104" lon="104.304176"><ele>233.1</ele><time>2011-04-27T06:10:16.0000000+00:00</time></trkpt><trkpt lat="22.140104" lon="104.304176"><ele>232.8</ele><time>2011-04-27T06:10:21.0000000+00:00</time></trkpt><trkpt lat="22.140104" lon="104.304176"><ele>232.5</ele><time>2011-04-27T06:10:26.0000000+00:00</time></trkpt><trkpt lat="22.140104" lon="104.304176"><ele>232.3</ele><time>2011-04-27T06:10:31.0000000+00:00</time></trkpt><trkpt lat="22.140104" lon="104.304176"><ele>232.1</ele><time>2011-04-27T06:10:36.0000000+00:00</time></trkpt><trkpt lat="22.140104" lon="104.304176"><ele>231.9</ele><time>2011-04-27T06:10:41.0000000+00:00</time></trkpt><trkpt lat="22.140108" lon="104.304176"><ele>231.7</ele><time>2011-04-27T06:10:46.0000000+00:00</time></trkpt><trkpt lat="22.140108" lon="104.304176"><ele>231.5</ele><time>2011-04-27T06:10:51.0000000+00:00</time></trkpt><trkpt lat="22.14011" lon="104.304176"><ele>231.3</ele><time>2011-04-27T06:10:56.0000000+00:00</time></trkpt><trkpt lat="22.140112" lon="104.304176"><ele>231.1</ele><time>2011-04-27T06:11:01.0000000+00:00</time></trkpt><trkpt lat="22.140112" lon="104.304176"><ele>231.0</ele><time>2011-04-27T06:11:06.0000000+00:00</time></trkpt><trkpt lat="22.140114" lon="104.304176"><ele>230.9</ele><time>2011-04-27T06:11:11.0000000+00:00</time></trkpt><trkpt lat="22.140116" lon="104.304176"><ele>230.7</ele><time>2011-04-27T06:11:16.0000000+00:00</time></trkpt><trkpt lat="22.140116" lon="104.304176"><ele>230.6</ele><time>2011-04-27T06:11:21.0000000+00:00</time></trkpt><trkpt lat="22.140118" lon="104.304176"><ele>230.5</ele><time>2011-04-27T06:11:26.0000000+00:00</time></trkpt><trkpt lat="22.140116" lon="104.304176"><ele>230.4</ele><time>2011-04-27T06:11:31.0000000+00:00</time></trkpt><trkpt lat="22.140118" lon="104.304176"><ele>230.2</ele><time>2011-04-27T06:11:36.0000000+00:00</time></trkpt><trkpt lat="22.140118" lon="104.304176"><ele>230.1</ele><time>2011-04-27T06:11:41.0000000+00:00</time></trkpt><trkpt lat="22.140118" lon="104.304176"><ele>230.0</ele><time>2011-04-27T06:11:46.0000000+00:00</time></trkpt><trkpt lat="22.140116" lon="104.304176"><ele>229.8</ele><time>2011-04-27T06:11:51.0000000+00:00</time></trkpt><trkpt lat="22.140118" lon="104.304176"><ele>229.7</ele><time>2011-04-27T06:11:56.0000000+00:00</time></trkpt><trkpt lat="22.140118" lon="104.304176"><ele>229.6</ele><time>2011-04-27T06:12:01.0000000+00:00</time></trkpt><trkpt lat="22.14012" lon="104.304176"><ele>229.5</ele><time>2011-04-27T06:12:06.0000000+00:00</time></trkpt><trkpt lat="22.14012" lon="104.304176"><ele>229.4</ele><time>2011-04-27T06:12:11.0000000+00:00</time></trkpt><trkpt lat="22.14012" lon="104.304176"><ele>229.3</ele><time>2011-04-27T06:12:16.0000000+00:00</time></trkpt><trkpt lat="22.140121" lon="104.304176"><ele>229.2</ele><time>2011-04-27T06:12:21.0000000+00:00</time></trkpt><trkpt lat="22.140121" lon="104.304176"><ele>229.1</ele><time>2011-04-27T06:12:26.0000000+00:00</time></trkpt><trkpt lat="22.140121" lon="104.304176"><ele>229.1</ele><time>2011-04-27T06:12:31.0000000+00:00</time></trkpt><trkpt lat="22.140121" lon="104.304176"><ele>229.1</ele><time>2011-04-27T06:12:36.0000000+00:00</time></trkpt><trkpt lat="22.140121" lon="104.304176"><ele>229.1</ele><time>2011-04-27T06:12:41.0000000+00:00</time></trkpt><trkpt lat="22.140121" lon="104.304176"><ele>229.2</ele><time>2011-04-27T06:12:46.0000000+00:00</time></trkpt><trkpt lat="22.140121" lon="104.304176"><ele>229.2</ele><time>2011-04-27T06:12:51.0000000+00:00</time></trkpt><trkpt lat="22.140121" lon="104.304176"><ele>229.2</ele><time>2011-04-27T06:12:56.0000000+00:00</time></trkpt><trkpt lat="22.14012" lon="104.304176"><ele>229.3</ele><time>2011-04-27T06:13:01.0000000+00:00</time></trkpt><trkpt lat="22.14012" lon="104.304176"><ele>229.3</ele><time>2011-04-27T06:13:06.0000000+00:00</time></trkpt><trkpt lat="22.14012" lon="104.304176"><ele>229.3</ele><time>2011-04-27T06:13:11.0000000+00:00</time></trkpt><trkpt lat="22.14012" lon="104.304176"><ele>229.4</ele><time>2011-04-27T06:13:16.0000000+00:00</time></trkpt><trkpt lat="22.14012" lon="104.304176"><ele>229.4</ele><time>2011-04-27T06:13:21.0000000+00:00</time></trkpt><trkpt lat="22.14012" lon="104.304176"><ele>229.4</ele><time>2011-04-27T06:13:26.0000000+00:00</time></trkpt><trkpt lat="22.14012" lon="104.304176"><ele>229.4</ele><time>2011-04-27T06:13:31.0000000+00:00</time></trkpt><trkpt lat="22.140121" lon="104.304176"><ele>229.5</ele><time>2011-04-27T06:13:36.0000000+00:00</time></trkpt><trkpt lat="22.140121" lon="104.304176"><ele>229.5</ele><time>2011-04-27T06:13:41.0000000+00:00</time></trkpt><trkpt lat="22.140121" lon="104.304176"><ele>229.6</ele><time>2011-04-27T06:13:46.0000000+00:00</time></trkpt><trkpt lat="22.140121" lon="104.304176"><ele>229.7</ele><time>2011-04-27T06:13:51.0000000+00:00</time></trkpt><trkpt lat="22.140123" lon="104.304176"><ele>229.8</ele><time>2011-04-27T06:13:56.0000000+00:00</time></trkpt><trkpt lat="22.140123" lon="104.304176"><ele>230.0</ele><time>2011-04-27T06:14:01.0000000+00:00</time></trkpt><trkpt lat="22.140123" lon="104.304176"><ele>230.0</ele><time>2011-04-27T06:14:06.0000000+00:00</time></trkpt><trkpt lat="22.140123" lon="104.304176"><ele>230.1</ele><time>2011-04-27T06:14:11.0000000+00:00</time></trkpt><trkpt lat="22.140123" lon="104.304176"><ele>230.1</ele><time>2011-04-27T06:14:16.0000000+00:00</time></trkpt><trkpt lat="22.140123" lon="104.304176"><ele>230.1</ele><time>2011-04-27T06:14:21.0000000+00:00</time></trkpt><trkpt lat="22.140123" lon="104.304176"><ele>230.1</ele><time>2011-04-27T06:14:26.0000000+00:00</time></trkpt><trkpt lat="22.140123" lon="104.304176"><ele>230.1</ele><time>2011-04-27T06:14:31.0000000+00:00</time></trkpt><trkpt lat="22.140123" lon="104.304176"><ele>230.1</ele><time>2011-04-27T06:14:36.0000000+00:00</time></trkpt><trkpt lat="22.140123" lon="104.304176"><ele>230.1</ele><time>2011-04-27T06:14:41.0000000+00:00</time></trkpt><trkpt lat="22.140123" lon="104.304176"><ele>230.1</ele><time>2011-04-27T06:14:46.0000000+00:00</time></trkpt><trkpt lat="22.140123" lon="104.304176"><ele>230.1</ele><time>2011-04-27T06:14:51.0000000+00:00</time></trkpt><trkpt lat="22.140123" lon="104.304176"><ele>230.1</ele><time>2011-04-27T06:14:56.0000000+00:00</time></trkpt><trkpt lat="22.140123" lon="104.304176"><ele>230.1</ele><time>2011-04-27T06:15:01.0000000+00:00</time></trkpt><trkpt lat="22.140123" lon="104.304176"><ele>230.1</ele><time>2011-04-27T06:15:06.0000000+00:00</time></trkpt><trkpt lat="22.140123" lon="104.304176"><ele>230.1</ele><time>2011-04-27T06:15:11.0000000+00:00</time></trkpt><trkpt lat="22.140123" lon="104.304176"><ele>230.1</ele><time>2011-04-27T06:15:16.0000000+00:00</time></trkpt><trkpt lat="22.140123" lon="104.304176"><ele>230.1</ele><time>2011-04-27T06:15:21.0000000+00:00</time></trkpt><trkpt lat="22.140123" lon="104.304176"><ele>230.1</ele><time>2011-04-27T06:15:26.0000000+00:00</time></trkpt><trkpt lat="22.140123" lon="104.304176"><ele>230.1</ele><time>2011-04-27T06:15:31.0000000+00:00</time></trkpt><trkpt lat="22.140123" lon="104.304176"><ele>230.0</ele><time>2011-04-27T06:15:36.0000000+00:00</time></trkpt><trkpt lat="22.140123" lon="104.304176"><ele>230.1</ele><time>2011-04-27T06:15:41.0000000+00:00</time></trkpt><trkpt lat="22.140123" lon="104.304176"><ele>230.1</ele><time>2011-04-27T06:15:46.0000000+00:00</time></trkpt><trkpt lat="22.140123" lon="104.304176"><ele>230.1</ele><time>2011-04-27T06:15:51.0000000+00:00</time></trkpt><trkpt lat="22.140123" lon="104.304176"><ele>230.1</ele><time>2011-04-27T06:15:56.0000000+00:00</time></trkpt><trkpt lat="22.140123" lon="104.304176"><ele>230.1</ele><time>2011-04-27T06:16:01.0000000+00:00</time></trkpt><trkpt lat="22.140125" lon="104.304176"><ele>230.1</ele><time>2011-04-27T06:16:06.0000000+00:00</time></trkpt><trkpt lat="22.140125" lon="104.304176"><ele>230.1</ele><time>2011-04-27T06:16:11.0000000+00:00</time></trkpt><trkpt lat="22.140125" lon="104.304176"><ele>230.1</ele><time>2011-04-27T06:16:16.0000000+00:00</time></trkpt><trkpt lat="22.140125" lon="104.304176"><ele>230.1</ele><time>2011-04-27T06:16:21.0000000+00:00</time></trkpt><trkpt lat="22.140125" lon="104.304176"><ele>230.1</ele><time>2011-04-27T06:16:26.0000000+00:00</time></trkpt><trkpt lat="22.140125" lon="104.304176"><ele>230.1</ele><time>2011-04-27T06:16:31.0000000+00:00</time></trkpt><trkpt lat="22.140125" lon="104.304176"><ele>230.1</ele><time>2011-04-27T06:16:36.0000000+00:00</time></trkpt><trkpt lat="22.140125" lon="104.304176"><ele>230.1</ele><time>2011-04-27T06:16:41.0000000+00:00</time></trkpt><trkpt lat="22.140125" lon="104.304176"><ele>230.1</ele><time>2011-04-27T06:16:46.0000000+00:00</time></trkpt><trkpt lat="22.140125" lon="104.304176"><ele>230.1</ele><time>2011-04-27T06:16:51.0000000+00:00</time></trkpt><trkpt lat="22.140125" lon="104.304176"><ele>230.1</ele><time>2011-04-27T06:16:56.0000000+00:00</time></trkpt><trkpt lat="22.140125" lon="104.304176"><ele>230.1</ele><time>2011-04-27T06:17:01.0000000+00:00</time></trkpt><trkpt lat="22.140125" lon="104.304176"><ele>230.1</ele><time>2011-04-27T06:17:06.0000000+00:00</time></trkpt><trkpt lat="22.140125" lon="104.304176"><ele>230.1</ele><time>2011-04-27T06:17:11.0000000+00:00</time></trkpt><trkpt lat="22.140125" lon="104.304176"><ele>230.1</ele><time>2011-04-27T06:17:16.0000000+00:00</time></trkpt><trkpt lat="22.140125" lon="104.304176"><ele>230.1</ele><time>2011-04-27T06:17:21.0000000+00:00</time></trkpt><trkpt lat="22.140125" lon="104.304176"><ele>230.1</ele><time>2011-04-27T06:17:26.0000000+00:00</time></trkpt><trkpt lat="22.140125" lon="104.304176"><ele>230.0</ele><time>2011-04-27T06:17:31.0000000+00:00</time></trkpt><trkpt lat="22.140125" lon="104.304176"><ele>230.0</ele><time>2011-04-27T06:17:36.0000000+00:00</time></trkpt><trkpt lat="22.140125" lon="104.304176"><ele>230.0</ele><time>2011-04-27T06:17:41.0000000+00:00</time></trkpt><trkpt lat="22.140125" lon="104.304176"><ele>230.0</ele><time>2011-04-27T06:17:46.0000000+00:00</time></trkpt><trkpt lat="22.140125" lon="104.304176"><ele>230.0</ele><time>2011-04-27T06:17:51.0000000+00:00</time></trkpt><trkpt lat="22.140125" lon="104.304176"><ele>230.0</ele><time>2011-04-27T06:17:56.0000000+00:00</time></trkpt><trkpt lat="22.140125" lon="104.304176"><ele>230.0</ele><time>2011-04-27T06:18:01.0000000+00:00</time></trkpt><trkpt lat="22.140125" lon="104.304176"><ele>230.0</ele><time>2011-04-27T06:18:06.0000000+00:00</time></trkpt><trkpt lat="22.140125" lon="104.304176"><ele>230.0</ele><time>2011-04-27T06:18:11.0000000+00:00</time></trkpt><trkpt lat="22.140125" lon="104.304176"><ele>229.9</ele><time>2011-04-27T06:18:16.0000000+00:00</time></trkpt><trkpt lat="22.140127" lon="104.304176"><ele>229.9</ele><time>2011-04-27T06:18:21.0000000+00:00</time></trkpt><trkpt lat="22.140127" lon="104.304176"><ele>229.9</ele><time>2011-04-27T06:18:26.0000000+00:00</time></trkpt><trkpt lat="22.140127" lon="104.304176"><ele>229.8</ele><time>2011-04-27T06:18:31.0000000+00:00</time></trkpt><trkpt lat="22.140127" lon="104.304176"><ele>229.7</ele><time>2011-04-27T06:18:36.0000000+00:00</time></trkpt><trkpt lat="22.140127" lon="104.304176"><ele>229.6</ele><time>2011-04-27T06:18:41.0000000+00:00</time></trkpt><trkpt lat="22.140127" lon="104.304176"><ele>229.5</ele><time>2011-04-27T06:18:46.0000000+00:00</time></trkpt><trkpt lat="22.140127" lon="104.304176"><ele>229.5</ele><time>2011-04-27T06:18:51.0000000+00:00</time></trkpt><trkpt lat="22.140127" lon="104.304176"><ele>229.4</ele><time>2011-04-27T06:18:56.0000000+00:00</time></trkpt><trkpt lat="22.140127" lon="104.304176"><ele>229.4</ele><time>2011-04-27T06:19:01.0000000+00:00</time></trkpt><trkpt lat="22.140127" lon="104.304176"><ele>229.5</ele><time>2011-04-27T06:19:06.0000000+00:00</time></trkpt><trkpt lat="22.140127" lon="104.304176"><ele>229.5</ele><time>2011-04-27T06:19:11.0000000+00:00</time></trkpt><trkpt lat="22.140127" lon="104.304176"><ele>229.5</ele><time>2011-04-27T06:19:16.0000000+00:00</time></trkpt><trkpt lat="22.140127" lon="104.304176"><ele>229.5</ele><time>2011-04-27T06:19:21.0000000+00:00</time></trkpt><trkpt lat="22.140127" lon="104.304176"><ele>229.5</ele><time>2011-04-27T06:19:26.0000000+00:00</time></trkpt><trkpt lat="22.140125" lon="104.304176"><ele>229.5</ele><time>2011-04-27T06:19:31.0000000+00:00</time></trkpt><trkpt lat="22.140123" lon="104.304176"><ele>229.5</ele><time>2011-04-27T06:19:36.0000000+00:00</time></trkpt><trkpt lat="22.140123" lon="104.304176"><ele>229.5</ele><time>2011-04-27T06:19:41.0000000+00:00</time></trkpt><trkpt lat="22.140125" lon="104.304176"><ele>229.5</ele><time>2011-04-27T06:19:46.0000000+00:00</time></trkpt><trkpt lat="22.140131" lon="104.304176"><ele>229.6</ele><time>2011-04-27T06:19:51.0000000+00:00</time></trkpt><trkpt lat="22.140131" lon="104.304176"><ele>229.7</ele><time>2011-04-27T06:19:56.0000000+00:00</time></trkpt><trkpt lat="22.140129" lon="104.304176"><ele>229.7</ele><time>2011-04-27T06:20:01.0000000+00:00</time></trkpt><trkpt lat="22.140125" lon="104.304176"><ele>229.7</ele><time>2011-04-27T06:20:06.0000000+00:00</time></trkpt><trkpt lat="22.140125" lon="104.304176"><ele>229.7</ele><time>2011-04-27T06:20:11.0000000+00:00</time></trkpt><trkpt lat="22.140125" lon="104.304176"><ele>229.7</ele><time>2011-04-27T06:20:16.0000000+00:00</time></trkpt><trkpt lat="22.140125" lon="104.304176"><ele>229.7</ele><time>2011-04-27T06:20:21.0000000+00:00</time></trkpt><trkpt lat="22.140125" lon="104.304176"><ele>229.7</ele><time>2011-04-27T06:20:26.0000000+00:00</time></trkpt><trkpt lat="22.140125" lon="104.304176"><ele>229.7</ele><time>2011-04-27T06:20:31.0000000+00:00</time></trkpt><trkpt lat="22.140125" lon="104.304176"><ele>229.6</ele><time>2011-04-27T06:20:36.0000000+00:00</time></trkpt><trkpt lat="22.140125" lon="104.304176"><ele>229.6</ele><time>2011-04-27T06:20:41.0000000+00:00</time></trkpt><trkpt lat="22.140125" lon="104.304176"><ele>229.6</ele><time>2011-04-27T06:20:46.0000000+00:00</time></trkpt><trkpt lat="22.140125" lon="104.304176"><ele>229.6</ele><time>2011-04-27T06:20:51.0000000+00:00</time></trkpt><trkpt lat="22.140125" lon="104.304176"><ele>229.5</ele><time>2011-04-27T06:20:56.0000000+00:00</time></trkpt><trkpt lat="22.140127" lon="104.304176"><ele>229.4</ele><time>2011-04-27T06:21:01.0000000+00:00</time></trkpt><trkpt lat="22.140127" lon="104.304176"><ele>229.4</ele><time>2011-04-27T06:21:06.0000000+00:00</time></trkpt><trkpt lat="22.140127" lon="104.304176"><ele>229.4</ele><time>2011-04-27T06:21:11.0000000+00:00</time></trkpt><trkpt lat="22.140127" lon="104.304176"><ele>229.3</ele><time>2011-04-27T06:21:16.0000000+00:00</time></trkpt><trkpt lat="22.140127" lon="104.304176"><ele>229.3</ele><time>2011-04-27T06:21:21.0000000+00:00</time></trkpt><trkpt lat="22.140127" lon="104.304176"><ele>229.4</ele><time>2011-04-27T06:21:26.0000000+00:00</time></trkpt><trkpt lat="22.140127" lon="104.304176"><ele>229.3</ele><time>2011-04-27T06:21:31.0000000+00:00</time></trkpt><trkpt lat="22.140127" lon="104.304184"><ele>229.4</ele><time>2011-04-27T06:21:36.0000000+00:00</time></trkpt><trkpt lat="22.140127" lon="104.304184"><ele>229.3</ele><time>2011-04-27T06:21:41.0000000+00:00</time></trkpt><trkpt lat="22.140127" lon="104.304184"><ele>229.3</ele><time>2011-04-27T06:21:46.0000000+00:00</time></trkpt><trkpt lat="22.140129" lon="104.304184"><ele>229.3</ele><time>2011-04-27T06:21:51.0000000+00:00</time></trkpt><trkpt lat="22.140129" lon="104.304184"><ele>229.3</ele><time>2011-04-27T06:21:56.0000000+00:00</time></trkpt><trkpt lat="22.140129" lon="104.304184"><ele>229.2</ele><time>2011-04-27T06:22:01.0000000+00:00</time></trkpt><trkpt lat="22.140129" lon="104.304176"><ele>229.2</ele><time>2011-04-27T06:22:06.0000000+00:00</time></trkpt><trkpt lat="22.140129" lon="104.304176"><ele>229.1</ele><time>2011-04-27T06:22:11.0000000+00:00</time></trkpt><trkpt lat="22.140129" lon="104.304176"><ele>229.1</ele><time>2011-04-27T06:22:16.0000000+00:00</time></trkpt><trkpt lat="22.140129" lon="104.304176"><ele>229.0</ele><time>2011-04-27T06:22:21.0000000+00:00</time></trkpt><trkpt lat="22.140131" lon="104.304176"><ele>229.0</ele><time>2011-04-27T06:22:26.0000000+00:00</time></trkpt><trkpt lat="22.140131" lon="104.304176"><ele>228.8</ele><time>2011-04-27T06:22:31.0000000+00:00</time></trkpt><trkpt lat="22.140131" lon="104.304176"><ele>228.8</ele><time>2011-04-27T06:22:36.0000000+00:00</time></trkpt><trkpt lat="22.140131" lon="104.304176"><ele>228.8</ele><time>2011-04-27T06:22:41.0000000+00:00</time></trkpt><trkpt lat="22.140131" lon="104.304176"><ele>228.8</ele><time>2011-04-27T06:22:46.0000000+00:00</time></trkpt><trkpt lat="22.140131" lon="104.304176"><ele>228.9</ele><time>2011-04-27T06:22:51.0000000+00:00</time></trkpt><trkpt lat="22.140131" lon="104.304176"><ele>229.0</ele><time>2011-04-27T06:22:56.0000000+00:00</time></trkpt><trkpt lat="22.140133" lon="104.304176"><ele>229.0</ele><time>2011-04-27T06:23:01.0000000+00:00</time></trkpt><trkpt lat="22.140133" lon="104.304176"><ele>229.1</ele><time>2011-04-27T06:23:06.0000000+00:00</time></trkpt><trkpt lat="22.140133" lon="104.304176"><ele>229.1</ele><time>2011-04-27T06:23:11.0000000+00:00</time></trkpt><trkpt lat="22.140133" lon="104.304176"><ele>229.1</ele><time>2011-04-27T06:23:16.0000000+00:00</time></trkpt><trkpt lat="22.140133" lon="104.304176"><ele>229.2</ele><time>2011-04-27T06:23:21.0000000+00:00</time></trkpt><trkpt lat="22.140133" lon="104.304176"><ele>229.2</ele><time>2011-04-27T06:23:26.0000000+00:00</time></trkpt><trkpt lat="22.140133" lon="104.304176"><ele>229.2</ele><time>2011-04-27T06:23:31.0000000+00:00</time></trkpt><trkpt lat="22.140133" lon="104.304176"><ele>229.3</ele><time>2011-04-27T06:23:36.0000000+00:00</time></trkpt><trkpt lat="22.140135" lon="104.304176"><ele>229.3</ele><time>2011-04-27T06:23:41.0000000+00:00</time></trkpt><trkpt lat="22.140135" lon="104.304176"><ele>229.4</ele><time>2011-04-27T06:23:46.0000000+00:00</time></trkpt><trkpt lat="22.140135" lon="104.304176"><ele>229.5</ele><time>2011-04-27T06:23:51.0000000+00:00</time></trkpt><trkpt lat="22.140135" lon="104.304176"><ele>229.6</ele><time>2011-04-27T06:23:56.0000000+00:00</time></trkpt><trkpt lat="22.140135" lon="104.304176"><ele>229.6</ele><time>2011-04-27T06:24:01.0000000+00:00</time></trkpt><trkpt lat="22.140137" lon="104.304184"><ele>229.7</ele><time>2011-04-27T06:24:06.0000000+00:00</time></trkpt><trkpt lat="22.140137" lon="104.304184"><ele>229.8</ele><time>2011-04-27T06:24:11.0000000+00:00</time></trkpt><trkpt lat="22.140137" lon="104.304184"><ele>229.8</ele><time>2011-04-27T06:24:16.0000000+00:00</time></trkpt><trkpt lat="22.140137" lon="104.304184"><ele>229.9</ele><time>2011-04-27T06:24:21.0000000+00:00</time></trkpt><trkpt lat="22.140135" lon="104.304192"><ele>230.0</ele><time>2011-04-27T06:24:26.0000000+00:00</time></trkpt><trkpt lat="22.140135" lon="104.304199"><ele>230.0</ele><time>2011-04-27T06:24:31.0000000+00:00</time></trkpt><trkpt lat="22.140131" lon="104.304192"><ele>230.1</ele><time>2011-04-27T06:24:36.0000000+00:00</time></trkpt><trkpt lat="22.140131" lon="104.304192"><ele>230.2</ele><time>2011-04-27T06:24:41.0000000+00:00</time></trkpt><trkpt lat="22.140131" lon="104.304192"><ele>230.3</ele><time>2011-04-27T06:24:46.0000000+00:00</time></trkpt><trkpt lat="22.140129" lon="104.304192"><ele>230.4</ele><time>2011-04-27T06:24:51.0000000+00:00</time></trkpt><trkpt lat="22.140123" lon="104.304199"><ele>230.6</ele><time>2011-04-27T06:24:56.0000000+00:00</time></trkpt><trkpt lat="22.140118" lon="104.304222"><ele>231.0</ele><time>2011-04-27T06:25:01.0000000+00:00</time></trkpt><trkpt lat="22.140091" lon="104.304276"><ele>231.3</ele><time>2011-04-27T06:25:06.0000000+00:00</time></trkpt><trkpt lat="22.140055" lon="104.304352"><ele>231.5</ele><time>2011-04-27T06:25:11.0000000+00:00</time></trkpt><trkpt lat="22.139997" lon="104.304497"><ele>232.2</ele><time>2011-04-27T06:25:16.0000000+00:00</time></trkpt><trkpt lat="22.139956" lon="104.304619"><ele>232.6</ele><time>2011-04-27T06:25:21.0000000+00:00</time></trkpt><trkpt lat="22.139894" lon="104.30468"><ele>232.5</ele><time>2011-04-27T06:25:26.0000000+00:00</time></trkpt><trkpt lat="22.13983" lon="104.304771"><ele>233.1</ele><time>2011-04-27T06:25:31.0000000+00:00</time></trkpt><trkpt lat="22.139786" lon="104.304825"><ele>233.7</ele><time>2011-04-27T06:25:36.0000000+00:00</time></trkpt><trkpt lat="22.139748" lon="104.304855"><ele>235.2</ele><time>2011-04-27T06:25:41.0000000+00:00</time></trkpt><trkpt lat="22.139713" lon="104.304901"><ele>236.5</ele><time>2011-04-27T06:25:46.0000000+00:00</time></trkpt><trkpt lat="22.13965" lon="104.304939"><ele>238.5</ele><time>2011-04-27T06:25:51.0000000+00:00</time></trkpt><trkpt lat="22.139582" lon="104.304955"><ele>241.0</ele><time>2011-04-27T06:25:56.0000000+00:00</time></trkpt><trkpt lat="22.139507" lon="104.30497"><ele>242.9</ele><time>2011-04-27T06:26:01.0000000+00:00</time></trkpt><trkpt lat="22.139442" lon="104.304993"><ele>245.1</ele><time>2011-04-27T06:26:06.0000000+00:00</time></trkpt><trkpt lat="22.139378" lon="104.305046"><ele>246.8</ele><time>2011-04-27T06:26:11.0000000+00:00</time></trkpt><trkpt lat="22.139322" lon="104.305115"><ele>248.8</ele><time>2011-04-27T06:26:16.0000000+00:00</time></trkpt><trkpt lat="22.139294" lon="104.305206"><ele>251.4</ele><time>2011-04-27T06:26:21.0000000+00:00</time></trkpt><trkpt lat="22.139292" lon="104.305305"><ele>253.2</ele><time>2011-04-27T06:26:26.0000000+00:00</time></trkpt><trkpt lat="22.139311" lon="104.305397"><ele>255.4</ele><time>2011-04-27T06:26:31.0000000+00:00</time></trkpt><trkpt lat="22.13933" lon="104.305458"><ele>257.5</ele><time>2011-04-27T06:26:36.0000000+00:00</time></trkpt><trkpt lat="22.139347" lon="104.305519"><ele>259.9</ele><time>2011-04-27T06:26:41.0000000+00:00</time></trkpt><trkpt lat="22.139372" lon="104.305595"><ele>262.7</ele><time>2011-04-27T06:26:46.0000000+00:00</time></trkpt><trkpt lat="22.139381" lon="104.305672"><ele>264.7</ele><time>2011-04-27T06:26:51.0000000+00:00</time></trkpt><trkpt lat="22.139395" lon="104.30574"><ele>266.6</ele><time>2011-04-27T06:26:56.0000000+00:00</time></trkpt><trkpt lat="22.139389" lon="104.305817"><ele>268.8</ele><time>2011-04-27T06:27:01.0000000+00:00</time></trkpt><trkpt lat="22.139414" lon="104.305878"><ele>270.9</ele><time>2011-04-27T06:27:06.0000000+00:00</time></trkpt><trkpt lat="22.13941" lon="104.305939"><ele>273.5</ele><time>2011-04-27T06:27:11.0000000+00:00</time></trkpt><trkpt lat="22.139404" lon="104.306023"><ele>276.1</ele><time>2011-04-27T06:27:16.0000000+00:00</time></trkpt><trkpt lat="22.139399" lon="104.306099"><ele>278.3</ele><time>2011-04-27T06:27:21.0000000+00:00</time></trkpt><trkpt lat="22.139395" lon="104.30616"><ele>280.3</ele><time>2011-04-27T06:27:26.0000000+00:00</time></trkpt><trkpt lat="22.139393" lon="104.306236"><ele>282.1</ele><time>2011-04-27T06:27:31.0000000+00:00</time></trkpt><trkpt lat="22.139397" lon="104.306297"><ele>283.6</ele><time>2011-04-27T06:27:36.0000000+00:00</time></trkpt><trkpt lat="22.139395" lon="104.306351"><ele>285.3</ele><time>2011-04-27T06:27:41.0000000+00:00</time></trkpt><trkpt lat="22.139393" lon="104.306404"><ele>286.2</ele><time>2011-04-27T06:27:46.0000000+00:00</time></trkpt><trkpt lat="22.139368" lon="104.306465"><ele>287.4</ele><time>2011-04-27T06:27:51.0000000+00:00</time></trkpt><trkpt lat="22.139355" lon="104.306534"><ele>288.1</ele><time>2011-04-27T06:27:56.0000000+00:00</time></trkpt><trkpt lat="22.139334" lon="104.30661"><ele>289.4</ele><time>2011-04-27T06:28:01.0000000+00:00</time></trkpt><trkpt lat="22.139305" lon="104.306679"><ele>290.9</ele><time>2011-04-27T06:28:06.0000000+00:00</time></trkpt><trkpt lat="22.139292" lon="104.306778"><ele>292.5</ele><time>2011-04-27T06:28:11.0000000+00:00</time></trkpt><trkpt lat="22.139282" lon="104.306854"><ele>294.1</ele><time>2011-04-27T06:28:16.0000000+00:00</time></trkpt><trkpt lat="22.139296" lon="104.306923"><ele>295.3</ele><time>2011-04-27T06:28:21.0000000+00:00</time></trkpt><trkpt lat="22.139307" lon="104.306999"><ele>296.5</ele><time>2011-04-27T06:28:26.0000000+00:00</time></trkpt><trkpt lat="22.139326" lon="104.307076"><ele>296.8</ele><time>2011-04-27T06:28:31.0000000+00:00</time></trkpt><trkpt lat="22.139341" lon="104.307144"><ele>296.6</ele><time>2011-04-27T06:28:36.0000000+00:00</time></trkpt><trkpt lat="22.139376" lon="104.307182"><ele>297.2</ele><time>2011-04-27T06:28:41.0000000+00:00</time></trkpt><trkpt lat="22.139441" lon="104.307236"><ele>297.1</ele><time>2011-04-27T06:28:46.0000000+00:00</time></trkpt><trkpt lat="22.13949" lon="104.307259"><ele>298.2</ele><time>2011-04-27T06:28:51.0000000+00:00</time></trkpt><trkpt lat="22.139559" lon="104.307297"><ele>299.6</ele><time>2011-04-27T06:28:56.0000000+00:00</time></trkpt><trkpt lat="22.139616" lon="104.307327"><ele>301.1</ele><time>2011-04-27T06:29:01.0000000+00:00</time></trkpt><trkpt lat="22.139698" lon="104.307358"><ele>303.1</ele><time>2011-04-27T06:29:06.0000000+00:00</time></trkpt><trkpt lat="22.139753" lon="104.307404"><ele>304.3</ele><time>2011-04-27T06:29:11.0000000+00:00</time></trkpt><trkpt lat="22.139812" lon="104.307434"><ele>304.5</ele><time>2011-04-27T06:29:16.0000000+00:00</time></trkpt><trkpt lat="22.13987" lon="104.307487"><ele>305.9</ele><time>2011-04-27T06:29:21.0000000+00:00</time></trkpt><trkpt lat="22.139935" lon="104.307518"><ele>306.8</ele><time>2011-04-27T06:29:26.0000000+00:00</time></trkpt><trkpt lat="22.139988" lon="104.307541"><ele>308.2</ele><time>2011-04-27T06:29:31.0000000+00:00</time></trkpt><trkpt lat="22.140049" lon="104.307579"><ele>309.1</ele><time>2011-04-27T06:29:36.0000000+00:00</time></trkpt><trkpt lat="22.140112" lon="104.307617"><ele>310.3</ele><time>2011-04-27T06:29:41.0000000+00:00</time></trkpt><trkpt lat="22.140181" lon="104.307663"><ele>312.1</ele><time>2011-04-27T06:29:46.0000000+00:00</time></trkpt><trkpt lat="22.140224" lon="104.307724"><ele>314.5</ele><time>2011-04-27T06:29:51.0000000+00:00</time></trkpt><trkpt lat="22.14027" lon="104.3078"><ele>316.2</ele><time>2011-04-27T06:29:56.0000000+00:00</time></trkpt><trkpt lat="22.140284" lon="104.307861"><ele>317.3</ele><time>2011-04-27T06:30:01.0000000+00:00</time></trkpt><trkpt lat="22.140291" lon="104.307907"><ele>317.9</ele><time>2011-04-27T06:30:06.0000000+00:00</time></trkpt><trkpt lat="22.14027" lon="104.307991"><ele>319.1</ele><time>2011-04-27T06:30:11.0000000+00:00</time></trkpt><trkpt lat="22.140253" lon="104.30806"><ele>320.1</ele><time>2011-04-27T06:30:16.0000000+00:00</time></trkpt><trkpt lat="22.140234" lon="104.308128"><ele>321.2</ele><time>2011-04-27T06:30:21.0000000+00:00</time></trkpt><trkpt lat="22.140194" lon="104.308205"><ele>322.3</ele><time>2011-04-27T06:30:26.0000000+00:00</time></trkpt><trkpt lat="22.140179" lon="104.308296"><ele>323.7</ele><time>2011-04-27T06:30:31.0000000+00:00</time></trkpt><trkpt lat="22.140167" lon="104.308365"><ele>324.6</ele><time>2011-04-27T06:30:36.0000000+00:00</time></trkpt><trkpt lat="22.140144" lon="104.308434"><ele>325.6</ele><time>2011-04-27T06:30:41.0000000+00:00</time></trkpt><trkpt lat="22.140135" lon="104.308487"><ele>326.1</ele><time>2011-04-27T06:30:46.0000000+00:00</time></trkpt><trkpt lat="22.140123" lon="104.308563"><ele>327.2</ele><time>2011-04-27T06:30:51.0000000+00:00</time></trkpt><trkpt lat="22.140116" lon="104.308647"><ele>328.1</ele><time>2011-04-27T06:30:56.0000000+00:00</time></trkpt><trkpt lat="22.140095" lon="104.308708"><ele>328.9</ele><time>2011-04-27T06:31:01.0000000+00:00</time></trkpt><trkpt lat="22.140079" lon="104.308777"><ele>329.4</ele><time>2011-04-27T06:31:06.0000000+00:00</time></trkpt><trkpt lat="22.140068" lon="104.308861"><ele>329.7</ele><time>2011-04-27T06:31:11.0000000+00:00</time></trkpt><trkpt lat="22.140055" lon="104.308952"><ele>330.0</ele><time>2011-04-27T06:31:16.0000000+00:00</time></trkpt><trkpt lat="22.14003" lon="104.309044"><ele>329.8</ele><time>2011-04-27T06:31:21.0000000+00:00</time></trkpt><trkpt lat="22.140022" lon="104.30912"><ele>329.8</ele><time>2011-04-27T06:31:26.0000000+00:00</time></trkpt><trkpt lat="22.140011" lon="104.309204"><ele>330.2</ele><time>2011-04-27T06:31:31.0000000+00:00</time></trkpt><trkpt lat="22.13999" lon="104.30928"><ele>330.6</ele><time>2011-04-27T06:31:36.0000000+00:00</time></trkpt><trkpt lat="22.13998" lon="104.309372"><ele>330.3</ele><time>2011-04-27T06:31:41.0000000+00:00</time></trkpt><trkpt lat="22.139975" lon="104.309456"><ele>330.6</ele><time>2011-04-27T06:31:46.0000000+00:00</time></trkpt><trkpt lat="22.139978" lon="104.309532"><ele>329.2</ele><time>2011-04-27T06:31:51.0000000+00:00</time></trkpt><trkpt lat="22.140007" lon="104.309616"><ele>329.7</ele><time>2011-04-27T06:31:56.0000000+00:00</time></trkpt><trkpt lat="22.140068" lon="104.309677"><ele>330.0</ele><time>2011-04-27T06:32:01.0000000+00:00</time></trkpt><trkpt lat="22.140123" lon="104.309708"><ele>331.3</ele><time>2011-04-27T06:32:06.0000000+00:00</time></trkpt><trkpt lat="22.140194" lon="104.309715"><ele>332.0</ele><time>2011-04-27T06:32:11.0000000+00:00</time></trkpt><trkpt lat="22.140251" lon="104.309753"><ele>332.4</ele><time>2011-04-27T06:32:16.0000000+00:00</time></trkpt><trkpt lat="22.140314" lon="104.309807"><ele>333.2</ele><time>2011-04-27T06:32:21.0000000+00:00</time></trkpt><trkpt lat="22.140373" lon="104.309853"><ele>333.6</ele><time>2011-04-27T06:32:26.0000000+00:00</time></trkpt><trkpt lat="22.14043" lon="104.309875"><ele>334.1</ele><time>2011-04-27T06:32:31.0000000+00:00</time></trkpt><trkpt lat="22.140486" lon="104.309891"><ele>335.1</ele><time>2011-04-27T06:32:36.0000000+00:00</time></trkpt><trkpt lat="22.140547" lon="104.309929"><ele>336.9</ele><time>2011-04-27T06:32:41.0000000+00:00</time></trkpt><trkpt lat="22.140615" lon="104.309975"><ele>337.7</ele><time>2011-04-27T06:32:46.0000000+00:00</time></trkpt><trkpt lat="22.140688" lon="104.310028"><ele>338.9</ele><time>2011-04-27T06:32:51.0000000+00:00</time></trkpt><trkpt lat="22.140764" lon="104.310089"><ele>340.7</ele><time>2011-04-27T06:32:56.0000000+00:00</time></trkpt><trkpt lat="22.1408" lon="104.310143"><ele>342.0</ele><time>2011-04-27T06:33:01.0000000+00:00</time></trkpt><trkpt lat="22.140793" lon="104.310226"><ele>343.3</ele><time>2011-04-27T06:33:06.0000000+00:00</time></trkpt><trkpt lat="22.140749" lon="104.310318"><ele>344.4</ele><time>2011-04-27T06:33:11.0000000+00:00</time></trkpt><trkpt lat="22.140686" lon="104.310379"><ele>345.6</ele><time>2011-04-27T06:33:16.0000000+00:00</time></trkpt><trkpt lat="22.140602" lon="104.310455"><ele>346.9</ele><time>2011-04-27T06:33:21.0000000+00:00</time></trkpt><trkpt lat="22.140543" lon="104.310509"><ele>348.1</ele><time>2011-04-27T06:33:26.0000000+00:00</time></trkpt><trkpt lat="22.140484" lon="104.31057"><ele>349.2</ele><time>2011-04-27T06:33:31.0000000+00:00</time></trkpt><trkpt lat="22.140434" lon="104.310623"><ele>350.1</ele><time>2011-04-27T06:33:36.0000000+00:00</time></trkpt><trkpt lat="22.140373" lon="104.310669"><ele>350.9</ele><time>2011-04-27T06:33:41.0000000+00:00</time></trkpt><trkpt lat="22.140316" lon="104.310738"><ele>352.1</ele><time>2011-04-27T06:33:46.0000000+00:00</time></trkpt><trkpt lat="22.140249" lon="104.310776"><ele>352.7</ele><time>2011-04-27T06:33:51.0000000+00:00</time></trkpt><trkpt lat="22.140181" lon="104.310829"><ele>354.1</ele><time>2011-04-27T06:33:56.0000000+00:00</time></trkpt><trkpt lat="22.140114" lon="104.310867"><ele>355.1</ele><time>2011-04-27T06:34:01.0000000+00:00</time></trkpt><trkpt lat="22.140036" lon="104.31089"><ele>355.9</ele><time>2011-04-27T06:34:06.0000000+00:00</time></trkpt><trkpt lat="22.139984" lon="104.310921"><ele>357.2</ele><time>2011-04-27T06:34:11.0000000+00:00</time></trkpt><trkpt lat="22.139925" lon="104.310974"><ele>358.5</ele><time>2011-04-27T06:34:16.0000000+00:00</time></trkpt><trkpt lat="22.139854" lon="104.311035"><ele>359.8</ele><time>2011-04-27T06:34:21.0000000+00:00</time></trkpt><trkpt lat="22.139793" lon="104.311111"><ele>361.0</ele><time>2011-04-27T06:34:26.0000000+00:00</time></trkpt><trkpt lat="22.139744" lon="104.311188"><ele>361.9</ele><time>2011-04-27T06:34:31.0000000+00:00</time></trkpt><trkpt lat="22.139696" lon="104.311249"><ele>362.8</ele><time>2011-04-27T06:34:36.0000000+00:00</time></trkpt><trkpt lat="22.139645" lon="104.311317"><ele>364.0</ele><time>2011-04-27T06:34:41.0000000+00:00</time></trkpt><trkpt lat="22.139605" lon="104.311371"><ele>365.2</ele><time>2011-04-27T06:34:46.0000000+00:00</time></trkpt><trkpt lat="22.139572" lon="104.311401"><ele>366.2</ele><time>2011-04-27T06:34:51.0000000+00:00</time></trkpt><trkpt lat="22.139589" lon="104.311401"><ele>366.3</ele><time>2011-04-27T06:34:56.0000000+00:00</time></trkpt><trkpt lat="22.139593" lon="104.311401"><ele>366.5</ele><time>2011-04-27T06:35:01.0000000+00:00</time></trkpt><trkpt lat="22.139593" lon="104.311394"><ele>366.7</ele><time>2011-04-27T06:35:06.0000000+00:00</time></trkpt><trkpt lat="22.139589" lon="104.311394"><ele>366.7</ele><time>2011-04-27T06:35:11.0000000+00:00</time></trkpt><trkpt lat="22.139587" lon="104.311394"><ele>366.8</ele><time>2011-04-27T06:35:16.0000000+00:00</time></trkpt><trkpt lat="22.139584" lon="104.311394"><ele>366.8</ele><time>2011-04-27T06:35:21.0000000+00:00</time></trkpt><trkpt lat="22.139582" lon="104.311401"><ele>366.8</ele><time>2011-04-27T06:35:26.0000000+00:00</time></trkpt><trkpt lat="22.139582" lon="104.311409"><ele>366.8</ele><time>2011-04-27T06:35:31.0000000+00:00</time></trkpt><trkpt lat="22.139584" lon="104.311417"><ele>366.8</ele><time>2011-04-27T06:35:36.0000000+00:00</time></trkpt><trkpt lat="22.139582" lon="104.311417"><ele>366.8</ele><time>2011-04-27T06:35:41.0000000+00:00</time></trkpt><trkpt lat="22.139572" lon="104.311226"><ele>366.4</ele><time>2011-04-27T06:35:46.0000000+00:00</time></trkpt><trkpt lat="22.139553" lon="104.311195"><ele>366.6</ele><time>2011-04-27T06:35:51.0000000+00:00</time></trkpt><trkpt lat="22.139559" lon="104.311195"><ele>366.4</ele><time>2011-04-27T06:35:56.0000000+00:00</time></trkpt><trkpt lat="22.139549" lon="104.311188"><ele>366.3</ele><time>2011-04-27T06:36:01.0000000+00:00</time></trkpt><trkpt lat="22.139547" lon="104.311188"><ele>366.4</ele><time>2011-04-27T06:36:06.0000000+00:00</time></trkpt><trkpt lat="22.139566" lon="104.311218"><ele>365.9</ele><time>2011-04-27T06:36:11.0000000+00:00</time></trkpt><trkpt lat="22.139557" lon="104.311287"><ele>366.1</ele><time>2011-04-27T06:36:16.0000000+00:00</time></trkpt><trkpt lat="22.139559" lon="104.311363"><ele>361.7</ele><time>2011-04-27T06:36:21.0000000+00:00</time></trkpt><trkpt lat="22.139576" lon="104.311386"><ele>362.2</ele><time>2011-04-27T06:36:26.0000000+00:00</time></trkpt><trkpt lat="22.139578" lon="104.311409"><ele>362.2</ele><time>2011-04-27T06:36:31.0000000+00:00</time></trkpt><trkpt lat="22.139566" lon="104.311462"><ele>362.3</ele><time>2011-04-27T06:36:36.0000000+00:00</time></trkpt><trkpt lat="22.139538" lon="104.311516"><ele>361.8</ele><time>2011-04-27T06:36:41.0000000+00:00</time></trkpt><trkpt lat="22.13949" lon="104.311638"><ele>361.7</ele><time>2011-04-27T06:36:46.0000000+00:00</time></trkpt><trkpt lat="22.139446" lon="104.311722"><ele>361.4</ele><time>2011-04-27T06:36:51.0000000+00:00</time></trkpt><trkpt lat="22.1394" lon="104.311783"><ele>361.2</ele><time>2011-04-27T06:36:56.0000000+00:00</time></trkpt><trkpt lat="22.13936" lon="104.311836"><ele>360.7</ele><time>2011-04-27T06:37:01.0000000+00:00</time></trkpt><trkpt lat="22.139315" lon="104.311897"><ele>360.2</ele><time>2011-04-27T06:37:06.0000000+00:00</time></trkpt><trkpt lat="22.13928" lon="104.311981"><ele>359.8</ele><time>2011-04-27T06:37:11.0000000+00:00</time></trkpt><trkpt lat="22.139235" lon="104.31205"><ele>359.7</ele><time>2011-04-27T06:37:16.0000000+00:00</time></trkpt><trkpt lat="22.139175" lon="104.312119"><ele>359.8</ele><time>2011-04-27T06:37:21.0000000+00:00</time></trkpt><trkpt lat="22.139132" lon="104.312172"><ele>359.9</ele><time>2011-04-27T06:37:26.0000000+00:00</time></trkpt><trkpt lat="22.139071" lon="104.312218"><ele>359.9</ele><time>2011-04-27T06:37:31.0000000+00:00</time></trkpt><trkpt lat="22.139038" lon="104.312294"><ele>359.5</ele><time>2011-04-27T06:37:36.0000000+00:00</time></trkpt><trkpt lat="22.139019" lon="104.312347"><ele>359.0</ele><time>2011-04-27T06:37:41.0000000+00:00</time></trkpt><trkpt lat="22.138943" lon="104.312393"><ele>359.9</ele><time>2011-04-27T06:37:46.0000000+00:00</time></trkpt><trkpt lat="22.138905" lon="104.312469"><ele>359.2</ele><time>2011-04-27T06:37:51.0000000+00:00</time></trkpt><trkpt lat="22.138853" lon="104.312515"><ele>358.1</ele><time>2011-04-27T06:37:56.0000000+00:00</time></trkpt><trkpt lat="22.138824" lon="104.312569"><ele>358.3</ele><time>2011-04-27T06:38:01.0000000+00:00</time></trkpt><trkpt lat="22.138779" lon="104.312622"><ele>358.4</ele><time>2011-04-27T06:38:06.0000000+00:00</time></trkpt><trkpt lat="22.138721" lon="104.312706"><ele>359.3</ele><time>2011-04-27T06:38:11.0000000+00:00</time></trkpt><trkpt lat="22.13868" lon="104.312798"><ele>359.2</ele><time>2011-04-27T06:38:16.0000000+00:00</time></trkpt><trkpt lat="22.138662" lon="104.312866"><ele>357.3</ele><time>2011-04-27T06:38:21.0000000+00:00</time></trkpt><trkpt lat="22.13866" lon="104.312943"><ele>357.1</ele><time>2011-04-27T06:38:26.0000000+00:00</time></trkpt><trkpt lat="22.138664" lon="104.313011"><ele>356.9</ele><time>2011-04-27T06:38:31.0000000+00:00</time></trkpt><trkpt lat="22.138674" lon="104.313087"><ele>357.1</ele><time>2011-04-27T06:38:36.0000000+00:00</time></trkpt><trkpt lat="22.138699" lon="104.313148"><ele>357.7</ele><time>2011-04-27T06:38:41.0000000+00:00</time></trkpt><trkpt lat="22.138731" lon="104.313217"><ele>358.5</ele><time>2011-04-27T06:38:46.0000000+00:00</time></trkpt><trkpt lat="22.138742" lon="104.313271"><ele>362.0</ele><time>2011-04-27T06:38:51.0000000+00:00</time></trkpt><trkpt lat="22.13876" lon="104.313385"><ele>362.3</ele><time>2011-04-27T06:38:56.0000000+00:00</time></trkpt><trkpt lat="22.1388" lon="104.313431"><ele>362.6</ele><time>2011-04-27T06:39:01.0000000+00:00</time></trkpt><trkpt lat="22.138815" lon="104.313522"><ele>362.5</ele><time>2011-04-27T06:39:06.0000000+00:00</time></trkpt><trkpt lat="22.138838" lon="104.313599"><ele>362.9</ele><time>2011-04-27T06:39:11.0000000+00:00</time></trkpt><trkpt lat="22.138851" lon="104.313675"><ele>362.8</ele><time>2011-04-27T06:39:16.0000000+00:00</time></trkpt><trkpt lat="22.138842" lon="104.313766"><ele>362.8</ele><time>2011-04-27T06:39:21.0000000+00:00</time></trkpt><trkpt lat="22.138842" lon="104.313873"><ele>361.4</ele><time>2011-04-27T06:39:26.0000000+00:00</time></trkpt><trkpt lat="22.138857" lon="104.31395"><ele>361.4</ele><time>2011-04-27T06:39:31.0000000+00:00</time></trkpt><trkpt lat="22.138872" lon="104.314034"><ele>362.3</ele><time>2011-04-27T06:39:36.0000000+00:00</time></trkpt><trkpt lat="22.138865" lon="104.314125"><ele>362.6</ele><time>2011-04-27T06:39:41.0000000+00:00</time></trkpt><trkpt lat="22.138868" lon="104.314209"><ele>362.8</ele><time>2011-04-27T06:39:46.0000000+00:00</time></trkpt><trkpt lat="22.138859" lon="104.314301"><ele>362.8</ele><time>2011-04-27T06:39:51.0000000+00:00</time></trkpt><trkpt lat="22.138842" lon="104.314369"><ele>363.0</ele><time>2011-04-27T06:39:56.0000000+00:00</time></trkpt><trkpt lat="22.138777" lon="104.314461"><ele>363.4</ele><time>2011-04-27T06:40:01.0000000+00:00</time></trkpt><trkpt lat="22.138706" lon="104.314552"><ele>363.6</ele><time>2011-04-27T06:40:06.0000000+00:00</time></trkpt><trkpt lat="22.138643" lon="104.314621"><ele>364.1</ele><time>2011-04-27T06:40:11.0000000+00:00</time></trkpt><trkpt lat="22.138584" lon="104.314697"><ele>364.6</ele><time>2011-04-27T06:40:16.0000000+00:00</time></trkpt><trkpt lat="22.138546" lon="104.314751"><ele>365.5</ele><time>2011-04-27T06:40:21.0000000+00:00</time></trkpt><trkpt lat="22.138515" lon="104.314819"><ele>365.5</ele><time>2011-04-27T06:40:26.0000000+00:00</time></trkpt><trkpt lat="22.138527" lon="104.31488"><ele>363.1</ele><time>2011-04-27T06:40:31.0000000+00:00</time></trkpt><trkpt lat="22.138527" lon="104.314972"><ele>360.6</ele><time>2011-04-27T06:40:36.0000000+00:00</time></trkpt><trkpt lat="22.138533" lon="104.315056"><ele>359.6</ele><time>2011-04-27T06:40:41.0000000+00:00</time></trkpt><trkpt lat="22.138561" lon="104.31514"><ele>359.5</ele><time>2011-04-27T06:40:46.0000000+00:00</time></trkpt><trkpt lat="22.138575" lon="104.315231"><ele>358.8</ele><time>2011-04-27T06:40:51.0000000+00:00</time></trkpt><trkpt lat="22.138582" lon="104.315315"><ele>358.8</ele><time>2011-04-27T06:40:56.0000000+00:00</time></trkpt><trkpt lat="22.138563" lon="104.315399"><ele>358.1</ele><time>2011-04-27T06:41:01.0000000+00:00</time></trkpt><trkpt lat="22.138538" lon="104.315475"><ele>357.6</ele><time>2011-04-27T06:41:06.0000000+00:00</time></trkpt><trkpt lat="22.138477" lon="104.315536"><ele>356.7</ele><time>2011-04-27T06:41:11.0000000+00:00</time></trkpt><trkpt lat="22.138407" lon="104.315529"><ele>356.2</ele><time>2011-04-27T06:41:16.0000000+00:00</time></trkpt><trkpt lat="22.13834" lon="104.315514"><ele>356.0</ele><time>2011-04-27T06:41:21.0000000+00:00</time></trkpt><trkpt lat="22.138247" lon="104.315506"><ele>356.0</ele><time>2011-04-27T06:41:26.0000000+00:00</time></trkpt><trkpt lat="22.138184" lon="104.315514"><ele>356.0</ele><time>2011-04-27T06:41:31.0000000+00:00</time></trkpt><trkpt lat="22.138092" lon="104.315514"><ele>355.8</ele><time>2011-04-27T06:41:36.0000000+00:00</time></trkpt><trkpt lat="22.138002" lon="104.315559"><ele>355.2</ele><time>2011-04-27T06:41:41.0000000+00:00</time></trkpt><trkpt lat="22.137934" lon="104.315582"><ele>354.3</ele><time>2011-04-27T06:41:46.0000000+00:00</time></trkpt><trkpt lat="22.137848" lon="104.315674"><ele>353.4</ele><time>2011-04-27T06:41:51.0000000+00:00</time></trkpt><trkpt lat="22.137794" lon="104.31575"><ele>353.0</ele><time>2011-04-27T06:41:56.0000000+00:00</time></trkpt><trkpt lat="22.137751" lon="104.315811"><ele>352.5</ele><time>2011-04-27T06:42:01.0000000+00:00</time></trkpt><trkpt lat="22.137728" lon="104.315865"><ele>352.8</ele><time>2011-04-27T06:42:06.0000000+00:00</time></trkpt><trkpt lat="22.13773" lon="104.315941"><ele>352.7</ele><time>2011-04-27T06:42:11.0000000+00:00</time></trkpt><trkpt lat="22.137758" lon="104.31601"><ele>352.6</ele><time>2011-04-27T06:42:16.0000000+00:00</time></trkpt><trkpt lat="22.13781" lon="104.316086"><ele>352.3</ele><time>2011-04-27T06:42:21.0000000+00:00</time></trkpt><trkpt lat="22.137877" lon="104.316177"><ele>352.0</ele><time>2011-04-27T06:42:26.0000000+00:00</time></trkpt><trkpt lat="22.137928" lon="104.316231"><ele>352.0</ele><time>2011-04-27T06:42:31.0000000+00:00</time></trkpt><trkpt lat="22.137959" lon="104.316284"><ele>352.1</ele><time>2011-04-27T06:42:36.0000000+00:00</time></trkpt><trkpt lat="22.137981" lon="104.316376"><ele>352.8</ele><time>2011-04-27T06:42:41.0000000+00:00</time></trkpt><trkpt lat="22.137989" lon="104.316498"><ele>353.2</ele><time>2011-04-27T06:42:46.0000000+00:00</time></trkpt><trkpt lat="22.137957" lon="104.316597"><ele>354.1</ele><time>2011-04-27T06:42:51.0000000+00:00</time></trkpt><trkpt lat="22.137909" lon="104.316666"><ele>355.0</ele><time>2011-04-27T06:42:56.0000000+00:00</time></trkpt><trkpt lat="22.137844" lon="104.316711"><ele>356.6</ele><time>2011-04-27T06:43:01.0000000+00:00</time></trkpt><trkpt lat="22.137777" lon="104.31675"><ele>357.1</ele><time>2011-04-27T06:43:06.0000000+00:00</time></trkpt><trkpt lat="22.137695" lon="104.316788"><ele>361.1</ele><time>2011-04-27T06:43:11.0000000+00:00</time></trkpt><trkpt lat="22.13763" lon="104.316833"><ele>364.7</ele><time>2011-04-27T06:43:16.0000000+00:00</time></trkpt><trkpt lat="22.137589" lon="104.316933"><ele>368.3</ele><time>2011-04-27T06:43:21.0000000+00:00</time></trkpt><trkpt lat="22.137583" lon="104.317024"><ele>370.0</ele><time>2011-04-27T06:43:26.0000000+00:00</time></trkpt><trkpt lat="22.137608" lon="104.317101"><ele>370.4</ele><time>2011-04-27T06:43:31.0000000+00:00</time></trkpt><trkpt lat="22.137623" lon="104.317169"><ele>370.6</ele><time>2011-04-27T06:43:36.0000000+00:00</time></trkpt><trkpt lat="22.137655" lon="104.317238"><ele>371.0</ele><time>2011-04-27T06:43:41.0000000+00:00</time></trkpt><trkpt lat="22.137684" lon="104.317329"><ele>371.2</ele><time>2011-04-27T06:43:46.0000000+00:00</time></trkpt><trkpt lat="22.137712" lon="104.317436"><ele>371.5</ele><time>2011-04-27T06:43:51.0000000+00:00</time></trkpt><trkpt lat="22.137728" lon="104.317551"><ele>371.4</ele><time>2011-04-27T06:43:56.0000000+00:00</time></trkpt><trkpt lat="22.137728" lon="104.317635"><ele>372.1</ele><time>2011-04-27T06:44:01.0000000+00:00</time></trkpt><trkpt lat="22.137711" lon="104.317719"><ele>372.9</ele><time>2011-04-27T06:44:06.0000000+00:00</time></trkpt><trkpt lat="22.13769" lon="104.317795"><ele>373.6</ele><time>2011-04-27T06:44:11.0000000+00:00</time></trkpt><trkpt lat="22.137684" lon="104.317871"><ele>374.1</ele><time>2011-04-27T06:44:16.0000000+00:00</time></trkpt><trkpt lat="22.137638" lon="104.317947"><ele>374.3</ele><time>2011-04-27T06:44:21.0000000+00:00</time></trkpt><trkpt lat="22.13759" lon="104.318008"><ele>375.0</ele><time>2011-04-27T06:44:26.0000000+00:00</time></trkpt><trkpt lat="22.137527" lon="104.318054"><ele>376.0</ele><time>2011-04-27T06:44:31.0000000+00:00</time></trkpt><trkpt lat="22.137444" lon="104.318085"><ele>376.3</ele><time>2011-04-27T06:44:36.0000000+00:00</time></trkpt><trkpt lat="22.137428" lon="104.318085"><ele>378.6</ele><time>2011-04-27T06:44:41.0000000+00:00</time></trkpt><trkpt lat="22.137421" lon="104.318077"><ele>379.0</ele><time>2011-04-27T06:44:46.0000000+00:00</time></trkpt><trkpt lat="22.137423" lon="104.318077"><ele>379.2</ele><time>2011-04-27T06:44:51.0000000+00:00</time></trkpt><trkpt lat="22.137424" lon="104.318077"><ele>379.4</ele><time>2011-04-27T06:44:56.0000000+00:00</time></trkpt><trkpt lat="22.137424" lon="104.318077"><ele>379.6</ele><time>2011-04-27T06:45:01.0000000+00:00</time></trkpt><trkpt lat="22.137424" lon="104.318092"><ele>379.8</ele><time>2011-04-27T06:45:06.0000000+00:00</time></trkpt><trkpt lat="22.137379" lon="104.3181"><ele>379.5</ele><time>2011-04-27T06:45:11.0000000+00:00</time></trkpt><trkpt lat="22.137306" lon="104.318123"><ele>379.7</ele><time>2011-04-27T06:45:16.0000000+00:00</time></trkpt><trkpt lat="22.137253" lon="104.318146"><ele>379.7</ele><time>2011-04-27T06:45:21.0000000+00:00</time></trkpt><trkpt lat="22.137184" lon="104.318169"><ele>379.8</ele><time>2011-04-27T06:45:26.0000000+00:00</time></trkpt><trkpt lat="22.137114" lon="104.318214"><ele>379.9</ele><time>2011-04-27T06:45:31.0000000+00:00</time></trkpt><trkpt lat="22.137043" lon="104.318275"><ele>379.8</ele><time>2011-04-27T06:45:36.0000000+00:00</time></trkpt><trkpt lat="22.136982" lon="104.318321"><ele>379.4</ele><time>2011-04-27T06:45:41.0000000+00:00</time></trkpt><trkpt lat="22.136915" lon="104.318405"><ele>380.3</ele><time>2011-04-27T06:45:46.0000000+00:00</time></trkpt><trkpt lat="22.136866" lon="104.318535"><ele>383.4</ele><time>2011-04-27T06:45:51.0000000+00:00</time></trkpt><trkpt lat="22.136822" lon="104.318611"><ele>385.4</ele><time>2011-04-27T06:45:56.0000000+00:00</time></trkpt><trkpt lat="22.136787" lon="104.31868"><ele>386.7</ele><time>2011-04-27T06:46:01.0000000+00:00</time></trkpt><trkpt lat="22.13674" lon="104.318748"><ele>387.8</ele><time>2011-04-27T06:46:06.0000000+00:00</time></trkpt><trkpt lat="22.136723" lon="104.318832"><ele>388.5</ele><time>2011-04-27T06:46:11.0000000+00:00</time></trkpt><trkpt lat="22.136679" lon="104.318893"><ele>388.7</ele><time>2011-04-27T06:46:16.0000000+00:00</time></trkpt><trkpt lat="22.136675" lon="104.318893"><ele>388.6</ele><time>2011-04-27T06:46:21.0000000+00:00</time></trkpt><trkpt lat="22.136679" lon="104.318901"><ele>388.2</ele><time>2011-04-27T06:46:26.0000000+00:00</time></trkpt><trkpt lat="22.136679" lon="104.318901"><ele>387.8</ele><time>2011-04-27T06:46:31.0000000+00:00</time></trkpt><trkpt lat="22.136679" lon="104.318901"><ele>387.4</ele><time>2011-04-27T06:46:36.0000000+00:00</time></trkpt><trkpt lat="22.136684" lon="104.318901"><ele>387.1</ele><time>2011-04-27T06:46:41.0000000+00:00</time></trkpt><trkpt lat="22.136688" lon="104.318909"><ele>386.7</ele><time>2011-04-27T06:46:46.0000000+00:00</time></trkpt><trkpt lat="22.136692" lon="104.318916"><ele>386.3</ele><time>2011-04-27T06:46:51.0000000+00:00</time></trkpt><trkpt lat="22.136694" lon="104.318916"><ele>385.9</ele><time>2011-04-27T06:46:56.0000000+00:00</time></trkpt><trkpt lat="22.136694" lon="104.318924"><ele>385.6</ele><time>2011-04-27T06:47:01.0000000+00:00</time></trkpt><trkpt lat="22.136692" lon="104.318932"><ele>385.3</ele><time>2011-04-27T06:47:06.0000000+00:00</time></trkpt><trkpt lat="22.136688" lon="104.318932"><ele>384.9</ele><time>2011-04-27T06:47:11.0000000+00:00</time></trkpt><trkpt lat="22.136686" lon="104.318939"><ele>384.5</ele><time>2011-04-27T06:47:16.0000000+00:00</time></trkpt><trkpt lat="22.136686" lon="104.318939"><ele>384.2</ele><time>2011-04-27T06:47:21.0000000+00:00</time></trkpt><trkpt lat="22.136684" lon="104.318947"><ele>383.9</ele><time>2011-04-27T06:47:26.0000000+00:00</time></trkpt><trkpt lat="22.136684" lon="104.318962"><ele>383.6</ele><time>2011-04-27T06:47:31.0000000+00:00</time></trkpt><trkpt lat="22.136688" lon="104.31897"><ele>383.4</ele><time>2011-04-27T06:47:36.0000000+00:00</time></trkpt><trkpt lat="22.136692" lon="104.318977"><ele>383.2</ele><time>2011-04-27T06:47:41.0000000+00:00</time></trkpt><trkpt lat="22.136696" lon="104.318993"><ele>383.0</ele><time>2011-04-27T06:47:46.0000000+00:00</time></trkpt><trkpt lat="22.136698" lon="104.319"><ele>382.9</ele><time>2011-04-27T06:47:51.0000000+00:00</time></trkpt><trkpt lat="22.1367" lon="104.319"><ele>382.8</ele><time>2011-04-27T06:47:56.0000000+00:00</time></trkpt><trkpt lat="22.1367" lon="104.319"><ele>382.7</ele><time>2011-04-27T06:48:01.0000000+00:00</time></trkpt><trkpt lat="22.136698" lon="104.319"><ele>382.7</ele><time>2011-04-27T06:48:06.0000000+00:00</time></trkpt><trkpt lat="22.136698" lon="104.319"><ele>382.7</ele><time>2011-04-27T06:48:11.0000000+00:00</time></trkpt><trkpt lat="22.136698" lon="104.319"><ele>382.8</ele><time>2011-04-27T06:48:16.0000000+00:00</time></trkpt><trkpt lat="22.136698" lon="104.319"><ele>382.8</ele><time>2011-04-27T06:48:21.0000000+00:00</time></trkpt><trkpt lat="22.136698" lon="104.319"><ele>382.8</ele><time>2011-04-27T06:48:26.0000000+00:00</time></trkpt><trkpt lat="22.136698" lon="104.319"><ele>382.9</ele><time>2011-04-27T06:48:31.0000000+00:00</time></trkpt><trkpt lat="22.136698" lon="104.319"><ele>382.9</ele><time>2011-04-27T06:48:36.0000000+00:00</time></trkpt><trkpt lat="22.136698" lon="104.319"><ele>382.9</ele><time>2011-04-27T06:48:41.0000000+00:00</time></trkpt><trkpt lat="22.136698" lon="104.319"><ele>382.9</ele><time>2011-04-27T06:48:46.0000000+00:00</time></trkpt><trkpt lat="22.136698" lon="104.319"><ele>382.9</ele><time>2011-04-27T06:48:51.0000000+00:00</time></trkpt><trkpt lat="22.136698" lon="104.319"><ele>383.0</ele><time>2011-04-27T06:48:56.0000000+00:00</time></trkpt><trkpt lat="22.1367" lon="104.319008"><ele>383.0</ele><time>2011-04-27T06:49:01.0000000+00:00</time></trkpt><trkpt lat="22.136684" lon="104.319016"><ele>383.5</ele><time>2011-04-27T06:49:06.0000000+00:00</time></trkpt><trkpt lat="22.136654" lon="104.319054"><ele>385.7</ele><time>2011-04-27T06:49:11.0000000+00:00</time></trkpt><trkpt lat="22.136614" lon="104.319099"><ele>387.3</ele><time>2011-04-27T06:49:16.0000000+00:00</time></trkpt><trkpt lat="22.136555" lon="104.319138"><ele>388.9</ele><time>2011-04-27T06:49:21.0000000+00:00</time></trkpt><trkpt lat="22.136486" lon="104.319176"><ele>390.2</ele><time>2011-04-27T06:49:26.0000000+00:00</time></trkpt><trkpt lat="22.136435" lon="104.319199"><ele>391.5</ele><time>2011-04-27T06:49:31.0000000+00:00</time></trkpt><trkpt lat="22.136383" lon="104.319237"><ele>392.5</ele><time>2011-04-27T06:49:36.0000000+00:00</time></trkpt><trkpt lat="22.136301" lon="104.319252"><ele>393.6</ele><time>2011-04-27T06:49:41.0000000+00:00</time></trkpt><trkpt lat="22.136246" lon="104.31929"><ele>395.3</ele><time>2011-04-27T06:49:46.0000000+00:00</time></trkpt><trkpt lat="22.136194" lon="104.319336"><ele>397.1</ele><time>2011-04-27T06:49:51.0000000+00:00</time></trkpt><trkpt lat="22.13616" lon="104.319397"><ele>398.5</ele><time>2011-04-27T06:49:56.0000000+00:00</time></trkpt><trkpt lat="22.136148" lon="104.319481"><ele>400.0</ele><time>2011-04-27T06:50:01.0000000+00:00</time></trkpt><trkpt lat="22.136181" lon="104.319565"><ele>401.5</ele><time>2011-04-27T06:50:06.0000000+00:00</time></trkpt><trkpt lat="22.136215" lon="104.319626"><ele>404.0</ele><time>2011-04-27T06:50:11.0000000+00:00</time></trkpt><trkpt lat="22.13624" lon="104.319687"><ele>406.6</ele><time>2011-04-27T06:50:16.0000000+00:00</time></trkpt><trkpt lat="22.136269" lon="104.319733"><ele>409.9</ele><time>2011-04-27T06:50:21.0000000+00:00</time></trkpt><trkpt lat="22.136297" lon="104.319824"><ele>412.6</ele><time>2011-04-27T06:50:26.0000000+00:00</time></trkpt><trkpt lat="22.136339" lon="104.319908"><ele>416.1</ele><time>2011-04-27T06:50:31.0000000+00:00</time></trkpt><trkpt lat="22.13637" lon="104.319954"><ele>420.0</ele><time>2011-04-27T06:50:36.0000000+00:00</time></trkpt><trkpt lat="22.136444" lon="104.320023"><ele>425.3</ele><time>2011-04-27T06:50:41.0000000+00:00</time></trkpt><trkpt lat="22.136469" lon="104.320053"><ele>430.0</ele><time>2011-04-27T06:50:46.0000000+00:00</time></trkpt><trkpt lat="22.136532" lon="104.32003"><ele>430.5</ele><time>2011-04-27T06:50:51.0000000+00:00</time></trkpt><trkpt lat="22.136545" lon="104.320007"><ele>431.2</ele><time>2011-04-27T06:50:56.0000000+00:00</time></trkpt><trkpt lat="22.136532" lon="104.320015"><ele>432.0</ele><time>2011-04-27T06:51:01.0000000+00:00</time></trkpt><trkpt lat="22.136509" lon="104.319992"><ele>431.4</ele><time>2011-04-27T06:51:06.0000000+00:00</time></trkpt><trkpt lat="22.13649" lon="104.32"><ele>431.3</ele><time>2011-04-27T06:51:11.0000000+00:00</time></trkpt><trkpt lat="22.136492" lon="104.32"><ele>431.7</ele><time>2011-04-27T06:51:16.0000000+00:00</time></trkpt><trkpt lat="22.136492" lon="104.319992"><ele>431.8</ele><time>2011-04-27T06:51:21.0000000+00:00</time></trkpt><trkpt lat="22.13649" lon="104.32"><ele>431.9</ele><time>2011-04-27T06:51:26.0000000+00:00</time></trkpt><trkpt lat="22.13649" lon="104.32"><ele>431.9</ele><time>2011-04-27T06:51:31.0000000+00:00</time></trkpt><trkpt lat="22.136492" lon="104.320007"><ele>431.9</ele><time>2011-04-27T06:51:36.0000000+00:00</time></trkpt><trkpt lat="22.13649" lon="104.320015"><ele>431.9</ele><time>2011-04-27T06:51:41.0000000+00:00</time></trkpt><trkpt lat="22.13649" lon="104.32003"><ele>431.9</ele><time>2011-04-27T06:51:46.0000000+00:00</time></trkpt><trkpt lat="22.136492" lon="104.32003"><ele>431.9</ele><time>2011-04-27T06:51:51.0000000+00:00</time></trkpt><trkpt lat="22.136492" lon="104.320038"><ele>431.9</ele><time>2011-04-27T06:51:56.0000000+00:00</time></trkpt><trkpt lat="22.136492" lon="104.320038"><ele>431.8</ele><time>2011-04-27T06:52:01.0000000+00:00</time></trkpt><trkpt lat="22.136494" lon="104.320038"><ele>431.8</ele><time>2011-04-27T06:52:06.0000000+00:00</time></trkpt><trkpt lat="22.136494" lon="104.32003"><ele>431.8</ele><time>2011-04-27T06:52:11.0000000+00:00</time></trkpt><trkpt lat="22.136497" lon="104.32003"><ele>431.8</ele><time>2011-04-27T06:52:16.0000000+00:00</time></trkpt><trkpt lat="22.136501" lon="104.320023"><ele>431.8</ele><time>2011-04-27T06:52:21.0000000+00:00</time></trkpt><trkpt lat="22.136505" lon="104.320015"><ele>431.8</ele><time>2011-04-27T06:52:26.0000000+00:00</time></trkpt><trkpt lat="22.136507" lon="104.320015"><ele>431.8</ele><time>2011-04-27T06:52:31.0000000+00:00</time></trkpt><trkpt lat="22.136509" lon="104.320007"><ele>431.7</ele><time>2011-04-27T06:52:36.0000000+00:00</time></trkpt><trkpt lat="22.136509" lon="104.32"><ele>431.8</ele><time>2011-04-27T06:52:41.0000000+00:00</time></trkpt><trkpt lat="22.136513" lon="104.319992"><ele>431.8</ele><time>2011-04-27T06:52:46.0000000+00:00</time></trkpt><trkpt lat="22.136515" lon="104.319992"><ele>431.8</ele><time>2011-04-27T06:52:51.0000000+00:00</time></trkpt><trkpt lat="22.136515" lon="104.319977"><ele>431.8</ele><time>2011-04-27T06:52:56.0000000+00:00</time></trkpt><trkpt lat="22.136517" lon="104.319969"><ele>431.8</ele><time>2011-04-27T06:53:01.0000000+00:00</time></trkpt><trkpt lat="22.136518" lon="104.319969"><ele>431.8</ele><time>2011-04-27T06:53:06.0000000+00:00</time></trkpt><trkpt lat="22.136518" lon="104.319962"><ele>431.8</ele><time>2011-04-27T06:53:11.0000000+00:00</time></trkpt><trkpt lat="22.13652" lon="104.319962"><ele>431.8</ele><time>2011-04-27T06:53:16.0000000+00:00</time></trkpt><trkpt lat="22.136522" lon="104.319962"><ele>431.8</ele><time>2011-04-27T06:53:21.0000000+00:00</time></trkpt><trkpt lat="22.136522" lon="104.319962"><ele>431.8</ele><time>2011-04-27T06:53:26.0000000+00:00</time></trkpt><trkpt lat="22.136522" lon="104.319962"><ele>431.8</ele><time>2011-04-27T06:53:31.0000000+00:00</time></trkpt><trkpt lat="22.136524" lon="104.319962"><ele>431.8</ele><time>2011-04-27T06:53:36.0000000+00:00</time></trkpt><trkpt lat="22.136524" lon="104.319954"><ele>431.8</ele><time>2011-04-27T06:53:41.0000000+00:00</time></trkpt><trkpt lat="22.136524" lon="104.319962"><ele>431.8</ele><time>2011-04-27T06:53:46.0000000+00:00</time></trkpt><trkpt lat="22.136528" lon="104.319969"><ele>431.8</ele><time>2011-04-27T06:53:51.0000000+00:00</time></trkpt><trkpt lat="22.136526" lon="104.319977"><ele>431.8</ele><time>2011-04-27T06:53:56.0000000+00:00</time></trkpt><trkpt lat="22.136524" lon="104.319984"><ele>431.8</ele><time>2011-04-27T06:54:01.0000000+00:00</time></trkpt><trkpt lat="22.136524" lon="104.319984"><ele>431.8</ele><time>2011-04-27T06:54:06.0000000+00:00</time></trkpt><trkpt lat="22.136526" lon="104.319984"><ele>431.8</ele><time>2011-04-27T06:54:11.0000000+00:00</time></trkpt><trkpt lat="22.136526" lon="104.319984"><ele>431.8</ele><time>2011-04-27T06:54:16.0000000+00:00</time></trkpt><trkpt lat="22.136526" lon="104.319984"><ele>431.8</ele><time>2011-04-27T06:54:21.0000000+00:00</time></trkpt><trkpt lat="22.136524" lon="104.319992"><ele>431.8</ele><time>2011-04-27T06:54:26.0000000+00:00</time></trkpt><trkpt lat="22.136524" lon="104.320015"><ele>431.9</ele><time>2011-04-27T06:54:31.0000000+00:00</time></trkpt><trkpt lat="22.136515" lon="104.320045"><ele>431.5</ele><time>2011-04-27T06:54:36.0000000+00:00</time></trkpt><trkpt lat="22.136517" lon="104.320053"><ele>431.5</ele><time>2011-04-27T06:54:41.0000000+00:00</time></trkpt><trkpt lat="22.136517" lon="104.320053"><ele>431.5</ele><time>2011-04-27T06:54:46.0000000+00:00</time></trkpt><trkpt lat="22.136518" lon="104.320061"><ele>431.5</ele><time>2011-04-27T06:54:51.0000000+00:00</time></trkpt><trkpt lat="22.13652" lon="104.320068"><ele>431.5</ele><time>2011-04-27T06:54:56.0000000+00:00</time></trkpt><trkpt lat="22.13652" lon="104.320068"><ele>431.5</ele><time>2011-04-27T06:55:01.0000000+00:00</time></trkpt><trkpt lat="22.136518" lon="104.320068"><ele>431.5</ele><time>2011-04-27T06:55:06.0000000+00:00</time></trkpt><trkpt lat="22.13652" lon="104.320061"><ele>431.5</ele><time>2011-04-27T06:55:11.0000000+00:00</time></trkpt><trkpt lat="22.136522" lon="104.320068"><ele>431.5</ele><time>2011-04-27T06:55:16.0000000+00:00</time></trkpt><trkpt lat="22.136522" lon="104.320068"><ele>431.5</ele><time>2011-04-27T06:55:21.0000000+00:00</time></trkpt><trkpt lat="22.136522" lon="104.320068"><ele>431.5</ele><time>2011-04-27T06:55:26.0000000+00:00</time></trkpt><trkpt lat="22.136522" lon="104.320061"><ele>431.5</ele><time>2011-04-27T06:55:31.0000000+00:00</time></trkpt><trkpt lat="22.13652" lon="104.320053"><ele>431.5</ele><time>2011-04-27T06:55:36.0000000+00:00</time></trkpt><trkpt lat="22.13652" lon="104.320053"><ele>431.5</ele><time>2011-04-27T06:55:41.0000000+00:00</time></trkpt><trkpt lat="22.13652" lon="104.320045"><ele>431.5</ele><time>2011-04-27T06:55:46.0000000+00:00</time></trkpt><trkpt lat="22.13652" lon="104.320038"><ele>431.5</ele><time>2011-04-27T06:55:51.0000000+00:00</time></trkpt><trkpt lat="22.136518" lon="104.320038"><ele>431.5</ele><time>2011-04-27T06:55:56.0000000+00:00</time></trkpt><trkpt lat="22.136518" lon="104.32003"><ele>431.5</ele><time>2011-04-27T06:56:01.0000000+00:00</time></trkpt><trkpt lat="22.136517" lon="104.32003"><ele>431.5</ele><time>2011-04-27T06:56:06.0000000+00:00</time></trkpt><trkpt lat="22.136517" lon="104.320023"><ele>431.5</ele><time>2011-04-27T06:56:11.0000000+00:00</time></trkpt><trkpt lat="22.136517" lon="104.320023"><ele>431.5</ele><time>2011-04-27T06:56:16.0000000+00:00</time></trkpt><trkpt lat="22.136517" lon="104.320023"><ele>431.5</ele><time>2011-04-27T06:56:21.0000000+00:00</time></trkpt><trkpt lat="22.136517" lon="104.320023"><ele>431.5</ele><time>2011-04-27T06:56:26.0000000+00:00</time></trkpt><trkpt lat="22.136517" lon="104.320023"><ele>431.5</ele><time>2011-04-27T06:56:31.0000000+00:00</time></trkpt><trkpt lat="22.136517" lon="104.320023"><ele>431.5</ele><time>2011-04-27T06:56:36.0000000+00:00</time></trkpt><trkpt lat="22.136517" lon="104.320023"><ele>431.5</ele><time>2011-04-27T06:56:41.0000000+00:00</time></trkpt><trkpt lat="22.136517" lon="104.320023"><ele>431.5</ele><time>2011-04-27T06:56:46.0000000+00:00</time></trkpt><trkpt lat="22.136517" lon="104.320023"><ele>431.5</ele><time>2011-04-27T06:56:51.0000000+00:00</time></trkpt><trkpt lat="22.136518" lon="104.32003"><ele>431.4</ele><time>2011-04-27T06:56:56.0000000+00:00</time></trkpt><trkpt lat="22.136518" lon="104.320038"><ele>431.4</ele><time>2011-04-27T06:57:01.0000000+00:00</time></trkpt><trkpt lat="22.136518" lon="104.32003"><ele>431.4</ele><time>2011-04-27T06:57:06.0000000+00:00</time></trkpt><trkpt lat="22.136518" lon="104.32003"><ele>431.3</ele><time>2011-04-27T06:57:11.0000000+00:00</time></trkpt><trkpt lat="22.136518" lon="104.320038"><ele>431.3</ele><time>2011-04-27T06:57:16.0000000+00:00</time></trkpt><trkpt lat="22.13652" lon="104.320038"><ele>431.3</ele><time>2011-04-27T06:57:21.0000000+00:00</time></trkpt><trkpt lat="22.13652" lon="104.320038"><ele>431.3</ele><time>2011-04-27T06:57:26.0000000+00:00</time></trkpt><trkpt lat="22.13652" lon="104.320045"><ele>431.3</ele><time>2011-04-27T06:57:31.0000000+00:00</time></trkpt><trkpt lat="22.136522" lon="104.320053"><ele>431.2</ele><time>2011-04-27T06:57:36.0000000+00:00</time></trkpt><trkpt lat="22.136522" lon="104.320053"><ele>431.2</ele><time>2011-04-27T06:57:41.0000000+00:00</time></trkpt><trkpt lat="22.13652" lon="104.320053"><ele>431.3</ele><time>2011-04-27T06:57:46.0000000+00:00</time></trkpt><trkpt lat="22.13652" lon="104.320045"><ele>431.3</ele><time>2011-04-27T06:57:51.0000000+00:00</time></trkpt><trkpt lat="22.136518" lon="104.320038"><ele>431.4</ele><time>2011-04-27T06:57:56.0000000+00:00</time></trkpt><trkpt lat="22.136518" lon="104.320038"><ele>431.4</ele><time>2011-04-27T06:58:01.0000000+00:00</time></trkpt><trkpt lat="22.136518" lon="104.320038"><ele>431.4</ele><time>2011-04-27T06:58:06.0000000+00:00</time></trkpt><trkpt lat="22.136518" lon="104.320038"><ele>431.4</ele><time>2011-04-27T06:58:11.0000000+00:00</time></trkpt><trkpt lat="22.13652" lon="104.320038"><ele>431.4</ele><time>2011-04-27T06:58:16.0000000+00:00</time></trkpt><trkpt lat="22.136518" lon="104.32003"><ele>431.4</ele><time>2011-04-27T06:58:21.0000000+00:00</time></trkpt><trkpt lat="22.136517" lon="104.32003"><ele>431.5</ele><time>2011-04-27T06:58:26.0000000+00:00</time></trkpt><trkpt lat="22.136517" lon="104.320023"><ele>431.5</ele><time>2011-04-27T06:58:31.0000000+00:00</time></trkpt><trkpt lat="22.136517" lon="104.320023"><ele>431.4</ele><time>2011-04-27T06:58:36.0000000+00:00</time></trkpt><trkpt lat="22.136517" lon="104.32003"><ele>431.4</ele><time>2011-04-27T06:58:41.0000000+00:00</time></trkpt><trkpt lat="22.136517" lon="104.320023"><ele>431.4</ele><time>2011-04-27T06:58:46.0000000+00:00</time></trkpt><trkpt lat="22.136517" lon="104.32003"><ele>431.4</ele><time>2011-04-27T06:58:51.0000000+00:00</time></trkpt><trkpt lat="22.136518" lon="104.32003"><ele>431.4</ele><time>2011-04-27T06:58:56.0000000+00:00</time></trkpt><trkpt lat="22.136518" lon="104.320038"><ele>431.4</ele><time>2011-04-27T06:59:01.0000000+00:00</time></trkpt><trkpt lat="22.136517" lon="104.320045"><ele>431.3</ele><time>2011-04-27T06:59:06.0000000+00:00</time></trkpt><trkpt lat="22.136517" lon="104.320045"><ele>431.3</ele><time>2011-04-27T06:59:11.0000000+00:00</time></trkpt><trkpt lat="22.136517" lon="104.320053"><ele>431.3</ele><time>2011-04-27T06:59:16.0000000+00:00</time></trkpt><trkpt lat="22.136518" lon="104.320053"><ele>431.3</ele><time>2011-04-27T06:59:21.0000000+00:00</time></trkpt><trkpt lat="22.136517" lon="104.320045"><ele>431.3</ele><time>2011-04-27T06:59:26.0000000+00:00</time></trkpt><trkpt lat="22.136515" lon="104.32003"><ele>431.3</ele><time>2011-04-27T06:59:31.0000000+00:00</time></trkpt><trkpt lat="22.136515" lon="104.32003"><ele>431.3</ele><time>2011-04-27T06:59:36.0000000+00:00</time></trkpt><trkpt lat="22.136515" lon="104.32003"><ele>431.3</ele><time>2011-04-27T06:59:41.0000000+00:00</time></trkpt><trkpt lat="22.136513" lon="104.320023"><ele>431.3</ele><time>2011-04-27T06:59:46.0000000+00:00</time></trkpt><trkpt lat="22.136513" lon="104.320023"><ele>431.3</ele><time>2011-04-27T06:59:51.0000000+00:00</time></trkpt><trkpt lat="22.136515" lon="104.32003"><ele>431.3</ele><time>2011-04-27T06:59:56.0000000+00:00</time></trkpt><trkpt lat="22.136513" lon="104.320023"><ele>431.3</ele><time>2011-04-27T07:00:01.0000000+00:00</time></trkpt><trkpt lat="22.136513" lon="104.320023"><ele>431.3</ele><time>2011-04-27T07:00:06.0000000+00:00</time></trkpt><trkpt lat="22.136513" lon="104.320023"><ele>431.3</ele><time>2011-04-27T07:00:11.0000000+00:00</time></trkpt><trkpt lat="22.136513" lon="104.320023"><ele>431.4</ele><time>2011-04-27T07:00:16.0000000+00:00</time></trkpt><trkpt lat="22.136513" lon="104.320023"><ele>431.4</ele><time>2011-04-27T07:00:21.0000000+00:00</time></trkpt><trkpt lat="22.136513" lon="104.320023"><ele>431.4</ele><time>2011-04-27T07:00:26.0000000+00:00</time></trkpt><trkpt lat="22.136515" lon="104.32003"><ele>431.4</ele><time>2011-04-27T07:00:31.0000000+00:00</time></trkpt><trkpt lat="22.136513" lon="104.32003"><ele>431.4</ele><time>2011-04-27T07:00:36.0000000+00:00</time></trkpt><trkpt lat="22.136513" lon="104.32003"><ele>431.4</ele><time>2011-04-27T07:00:41.0000000+00:00</time></trkpt><trkpt lat="22.136515" lon="104.320038"><ele>431.4</ele><time>2011-04-27T07:00:46.0000000+00:00</time></trkpt><trkpt lat="22.136517" lon="104.320045"><ele>431.4</ele><time>2011-04-27T07:00:51.0000000+00:00</time></trkpt><trkpt lat="22.136517" lon="104.320045"><ele>431.4</ele><time>2011-04-27T07:00:56.0000000+00:00</time></trkpt><trkpt lat="22.136517" lon="104.320045"><ele>431.4</ele><time>2011-04-27T07:01:01.0000000+00:00</time></trkpt><trkpt lat="22.136517" lon="104.320053"><ele>431.4</ele><time>2011-04-27T07:01:06.0000000+00:00</time></trkpt><trkpt lat="22.136518" lon="104.320061"><ele>431.4</ele><time>2011-04-27T07:01:11.0000000+00:00</time></trkpt><trkpt lat="22.136518" lon="104.320061"><ele>431.4</ele><time>2011-04-27T07:01:16.0000000+00:00</time></trkpt><trkpt lat="22.13652" lon="104.320068"><ele>431.4</ele><time>2011-04-27T07:01:21.0000000+00:00</time></trkpt><trkpt lat="22.13652" lon="104.320076"><ele>431.4</ele><time>2011-04-27T07:01:26.0000000+00:00</time></trkpt><trkpt lat="22.13652" lon="104.320068"><ele>431.4</ele><time>2011-04-27T07:01:31.0000000+00:00</time></trkpt><trkpt lat="22.136518" lon="104.320061"><ele>431.4</ele><time>2011-04-27T07:01:36.0000000+00:00</time></trkpt><trkpt lat="22.136518" lon="104.320061"><ele>431.4</ele><time>2011-04-27T07:01:41.0000000+00:00</time></trkpt><trkpt lat="22.13652" lon="104.320068"><ele>431.4</ele><time>2011-04-27T07:01:46.0000000+00:00</time></trkpt><trkpt lat="22.13652" lon="104.320068"><ele>431.4</ele><time>2011-04-27T07:01:51.0000000+00:00</time></trkpt><trkpt lat="22.136518" lon="104.320061"><ele>431.5</ele><time>2011-04-27T07:01:56.0000000+00:00</time></trkpt><trkpt lat="22.136517" lon="104.320053"><ele>431.5</ele><time>2011-04-27T07:02:01.0000000+00:00</time></trkpt><trkpt lat="22.136517" lon="104.320045"><ele>431.6</ele><time>2011-04-27T07:02:06.0000000+00:00</time></trkpt><trkpt lat="22.136517" lon="104.320045"><ele>431.6</ele><time>2011-04-27T07:02:11.0000000+00:00</time></trkpt><trkpt lat="22.136517" lon="104.320045"><ele>431.6</ele><time>2011-04-27T07:02:16.0000000+00:00</time></trkpt><trkpt lat="22.136515" lon="104.320045"><ele>431.6</ele><time>2011-04-27T07:02:21.0000000+00:00</time></trkpt><trkpt lat="22.136515" lon="104.320045"><ele>431.6</ele><time>2011-04-27T07:02:26.0000000+00:00</time></trkpt><trkpt lat="22.136515" lon="104.320045"><ele>431.6</ele><time>2011-04-27T07:02:31.0000000+00:00</time></trkpt><trkpt lat="22.136515" lon="104.320038"><ele>431.6</ele><time>2011-04-27T07:02:36.0000000+00:00</time></trkpt><trkpt lat="22.136515" lon="104.320038"><ele>431.6</ele><time>2011-04-27T07:02:41.0000000+00:00</time></trkpt><trkpt lat="22.136515" lon="104.320038"><ele>431.6</ele><time>2011-04-27T07:02:46.0000000+00:00</time></trkpt><trkpt lat="22.136515" lon="104.320045"><ele>431.6</ele><time>2011-04-27T07:02:51.0000000+00:00</time></trkpt><trkpt lat="22.136515" lon="104.320038"><ele>431.6</ele><time>2011-04-27T07:02:56.0000000+00:00</time></trkpt><trkpt lat="22.136515" lon="104.320038"><ele>431.6</ele><time>2011-04-27T07:03:01.0000000+00:00</time></trkpt><trkpt lat="22.136515" lon="104.320038"><ele>431.6</ele><time>2011-04-27T07:03:06.0000000+00:00</time></trkpt><trkpt lat="22.136515" lon="104.320045"><ele>431.5</ele><time>2011-04-27T07:03:11.0000000+00:00</time></trkpt><trkpt lat="22.136515" lon="104.320045"><ele>431.5</ele><time>2011-04-27T07:03:16.0000000+00:00</time></trkpt><trkpt lat="22.136515" lon="104.320038"><ele>431.5</ele><time>2011-04-27T07:03:21.0000000+00:00</time></trkpt><trkpt lat="22.136511" lon="104.320023"><ele>431.6</ele><time>2011-04-27T07:03:26.0000000+00:00</time></trkpt><trkpt lat="22.136507" lon="104.320015"><ele>432.0</ele><time>2011-04-27T07:03:31.0000000+00:00</time></trkpt><trkpt lat="22.136507" lon="104.320015"><ele>432.1</ele><time>2011-04-27T07:03:36.0000000+00:00</time></trkpt><trkpt lat="22.136507" lon="104.320023"><ele>432.1</ele><time>2011-04-27T07:03:41.0000000+00:00</time></trkpt><trkpt lat="22.136507" lon="104.320015"><ele>432.1</ele><time>2011-04-27T07:03:46.0000000+00:00</time></trkpt><trkpt lat="22.136507" lon="104.320015"><ele>432.1</ele><time>2011-04-27T07:03:51.0000000+00:00</time></trkpt><trkpt lat="22.136507" lon="104.320015"><ele>432.1</ele><time>2011-04-27T07:03:56.0000000+00:00</time></trkpt><trkpt lat="22.136507" lon="104.320023"><ele>432.1</ele><time>2011-04-27T07:04:01.0000000+00:00</time></trkpt><trkpt lat="22.136507" lon="104.320023"><ele>432.1</ele><time>2011-04-27T07:04:06.0000000+00:00</time></trkpt><trkpt lat="22.136509" lon="104.320023"><ele>432.1</ele><time>2011-04-27T07:04:11.0000000+00:00</time></trkpt><trkpt lat="22.136507" lon="104.320023"><ele>432.1</ele><time>2011-04-27T07:04:16.0000000+00:00</time></trkpt><trkpt lat="22.136507" lon="104.320023"><ele>432.1</ele><time>2011-04-27T07:04:21.0000000+00:00</time></trkpt><trkpt lat="22.136509" lon="104.320023"><ele>432.1</ele><time>2011-04-27T07:04:26.0000000+00:00</time></trkpt><trkpt lat="22.136509" lon="104.32003"><ele>432.1</ele><time>2011-04-27T07:04:31.0000000+00:00</time></trkpt><trkpt lat="22.136509" lon="104.32003"><ele>432.1</ele><time>2011-04-27T07:04:36.0000000+00:00</time></trkpt><trkpt lat="22.136509" lon="104.32003"><ele>432.1</ele><time>2011-04-27T07:04:41.0000000+00:00</time></trkpt><trkpt lat="22.136509" lon="104.32003"><ele>432.1</ele><time>2011-04-27T07:04:46.0000000+00:00</time></trkpt><trkpt lat="22.136509" lon="104.32003"><ele>432.1</ele><time>2011-04-27T07:04:51.0000000+00:00</time></trkpt><trkpt lat="22.136509" lon="104.32003"><ele>432.1</ele><time>2011-04-27T07:04:56.0000000+00:00</time></trkpt><trkpt lat="22.136509" lon="104.32003"><ele>432.1</ele><time>2011-04-27T07:05:01.0000000+00:00</time></trkpt><trkpt lat="22.136509" lon="104.320023"><ele>432.1</ele><time>2011-04-27T07:05:06.0000000+00:00</time></trkpt><trkpt lat="22.136509" lon="104.320023"><ele>432.1</ele><time>2011-04-27T07:05:11.0000000+00:00</time></trkpt><trkpt lat="22.136509" lon="104.32003"><ele>432.1</ele><time>2011-04-27T07:05:16.0000000+00:00</time></trkpt><trkpt lat="22.136509" lon="104.32003"><ele>432.1</ele><time>2011-04-27T07:05:21.0000000+00:00</time></trkpt><trkpt lat="22.136509" lon="104.320038"><ele>432.1</ele><time>2011-04-27T07:05:26.0000000+00:00</time></trkpt><trkpt lat="22.136511" lon="104.320038"><ele>432.1</ele><time>2011-04-27T07:05:31.0000000+00:00</time></trkpt><trkpt lat="22.136511" lon="104.320038"><ele>432.1</ele><time>2011-04-27T07:05:36.0000000+00:00</time></trkpt><trkpt lat="22.136509" lon="104.32003"><ele>432.1</ele><time>2011-04-27T07:05:41.0000000+00:00</time></trkpt><trkpt lat="22.136509" lon="104.32003"><ele>432.1</ele><time>2011-04-27T07:05:46.0000000+00:00</time></trkpt><trkpt lat="22.136507" lon="104.32003"><ele>432.1</ele><time>2011-04-27T07:05:51.0000000+00:00</time></trkpt><trkpt lat="22.136507" lon="104.32003"><ele>432.0</ele><time>2011-04-27T07:05:56.0000000+00:00</time></trkpt><trkpt lat="22.136507" lon="104.32003"><ele>432.0</ele><time>2011-04-27T07:06:01.0000000+00:00</time></trkpt><trkpt lat="22.136507" lon="104.32003"><ele>432.0</ele><time>2011-04-27T07:06:06.0000000+00:00</time></trkpt><trkpt lat="22.136507" lon="104.32003"><ele>432.0</ele><time>2011-04-27T07:06:11.0000000+00:00</time></trkpt><trkpt lat="22.136507" lon="104.32003"><ele>432.0</ele><time>2011-04-27T07:06:16.0000000+00:00</time></trkpt><trkpt lat="22.136509" lon="104.32003"><ele>432.1</ele><time>2011-04-27T07:06:21.0000000+00:00</time></trkpt><trkpt lat="22.136509" lon="104.32003"><ele>432.1</ele><time>2011-04-27T07:06:26.0000000+00:00</time></trkpt><trkpt lat="22.136507" lon="104.320023"><ele>432.1</ele><time>2011-04-27T07:06:31.0000000+00:00</time></trkpt><trkpt lat="22.136507" lon="104.320023"><ele>432.1</ele><time>2011-04-27T07:06:36.0000000+00:00</time></trkpt><trkpt lat="22.136507" lon="104.320023"><ele>432.1</ele><time>2011-04-27T07:06:41.0000000+00:00</time></trkpt><trkpt lat="22.136507" lon="104.320023"><ele>432.1</ele><time>2011-04-27T07:06:46.0000000+00:00</time></trkpt><trkpt lat="22.136509" lon="104.32003"><ele>432.0</ele><time>2011-04-27T07:06:51.0000000+00:00</time></trkpt><trkpt lat="22.136507" lon="104.320023"><ele>432.0</ele><time>2011-04-27T07:06:56.0000000+00:00</time></trkpt><trkpt lat="22.136507" lon="104.320023"><ele>432.0</ele><time>2011-04-27T07:07:01.0000000+00:00</time></trkpt><trkpt lat="22.136505" lon="104.320023"><ele>432.0</ele><time>2011-04-27T07:07:06.0000000+00:00</time></trkpt><trkpt lat="22.136503" lon="104.320023"><ele>432.0</ele><time>2011-04-27T07:07:11.0000000+00:00</time></trkpt><trkpt lat="22.136499" lon="104.32003"><ele>431.9</ele><time>2011-04-27T07:07:16.0000000+00:00</time></trkpt><trkpt lat="22.136497" lon="104.32003"><ele>431.9</ele><time>2011-04-27T07:07:21.0000000+00:00</time></trkpt><trkpt lat="22.136496" lon="104.32003"><ele>431.8</ele><time>2011-04-27T07:07:26.0000000+00:00</time></trkpt><trkpt lat="22.136497" lon="104.32003"><ele>431.8</ele><time>2011-04-27T07:07:31.0000000+00:00</time></trkpt><trkpt lat="22.136496" lon="104.32003"><ele>431.8</ele><time>2011-04-27T07:07:36.0000000+00:00</time></trkpt><trkpt lat="22.136496" lon="104.320038"><ele>431.7</ele><time>2011-04-27T07:07:41.0000000+00:00</time></trkpt><trkpt lat="22.136496" lon="104.320038"><ele>431.7</ele><time>2011-04-27T07:07:46.0000000+00:00</time></trkpt><trkpt lat="22.136496" lon="104.320038"><ele>431.7</ele><time>2011-04-27T07:07:51.0000000+00:00</time></trkpt><trkpt lat="22.136496" lon="104.320038"><ele>431.7</ele><time>2011-04-27T07:07:56.0000000+00:00</time></trkpt><trkpt lat="22.136496" lon="104.320038"><ele>431.6</ele><time>2011-04-27T07:08:01.0000000+00:00</time></trkpt><trkpt lat="22.136496" lon="104.320038"><ele>431.6</ele><time>2011-04-27T07:08:06.0000000+00:00</time></trkpt><trkpt lat="22.136496" lon="104.320038"><ele>431.6</ele><time>2011-04-27T07:08:11.0000000+00:00</time></trkpt><trkpt lat="22.136494" lon="104.32003"><ele>431.6</ele><time>2011-04-27T07:08:16.0000000+00:00</time></trkpt><trkpt lat="22.136494" lon="104.32003"><ele>431.6</ele><time>2011-04-27T07:08:21.0000000+00:00</time></trkpt><trkpt lat="22.136494" lon="104.32003"><ele>431.6</ele><time>2011-04-27T07:08:26.0000000+00:00</time></trkpt><trkpt lat="22.13649" lon="104.32003"><ele>431.6</ele><time>2011-04-27T07:08:31.0000000+00:00</time></trkpt><trkpt lat="22.136486" lon="104.32003"><ele>431.6</ele><time>2011-04-27T07:08:36.0000000+00:00</time></trkpt><trkpt lat="22.136484" lon="104.32003"><ele>431.6</ele><time>2011-04-27T07:08:41.0000000+00:00</time></trkpt><trkpt lat="22.13648" lon="104.32003"><ele>431.5</ele><time>2011-04-27T07:08:46.0000000+00:00</time></trkpt><trkpt lat="22.136482" lon="104.32003"><ele>431.4</ele><time>2011-04-27T07:08:51.0000000+00:00</time></trkpt><trkpt lat="22.136484" lon="104.32003"><ele>431.4</ele><time>2011-04-27T07:08:56.0000000+00:00</time></trkpt><trkpt lat="22.136484" lon="104.32003"><ele>431.4</ele><time>2011-04-27T07:09:01.0000000+00:00</time></trkpt><trkpt lat="22.13648" lon="104.32003"><ele>431.4</ele><time>2011-04-27T07:09:06.0000000+00:00</time></trkpt><trkpt lat="22.136478" lon="104.320023"><ele>431.3</ele><time>2011-04-27T07:09:11.0000000+00:00</time></trkpt><trkpt lat="22.13648" lon="104.320023"><ele>431.3</ele><time>2011-04-27T07:09:16.0000000+00:00</time></trkpt><trkpt lat="22.13648" lon="104.32003"><ele>431.3</ele><time>2011-04-27T07:09:21.0000000+00:00</time></trkpt><trkpt lat="22.13648" lon="104.32003"><ele>431.3</ele><time>2011-04-27T07:09:26.0000000+00:00</time></trkpt><trkpt lat="22.136478" lon="104.32003"><ele>431.3</ele><time>2011-04-27T07:09:31.0000000+00:00</time></trkpt><trkpt lat="22.136478" lon="104.320023"><ele>431.3</ele><time>2011-04-27T07:09:36.0000000+00:00</time></trkpt><trkpt lat="22.136478" lon="104.320023"><ele>431.3</ele><time>2011-04-27T07:09:41.0000000+00:00</time></trkpt><trkpt lat="22.136482" lon="104.320023"><ele>431.3</ele><time>2011-04-27T07:09:46.0000000+00:00</time></trkpt><trkpt lat="22.136478" lon="104.320023"><ele>431.2</ele><time>2011-04-27T07:09:51.0000000+00:00</time></trkpt><trkpt lat="22.136475" lon="104.320023"><ele>431.2</ele><time>2011-04-27T07:09:56.0000000+00:00</time></trkpt><trkpt lat="22.136473" lon="104.320015"><ele>431.2</ele><time>2011-04-27T07:10:01.0000000+00:00</time></trkpt><trkpt lat="22.136473" lon="104.320015"><ele>431.2</ele><time>2011-04-27T07:10:06.0000000+00:00</time></trkpt><trkpt lat="22.136478" lon="104.320007"><ele>431.2</ele><time>2011-04-27T07:10:11.0000000+00:00</time></trkpt><trkpt lat="22.13648" lon="104.320007"><ele>431.2</ele><time>2011-04-27T07:10:16.0000000+00:00</time></trkpt><trkpt lat="22.136482" lon="104.320007"><ele>431.2</ele><time>2011-04-27T07:10:21.0000000+00:00</time></trkpt><trkpt lat="22.136482" lon="104.32"><ele>431.2</ele><time>2011-04-27T07:10:26.0000000+00:00</time></trkpt><trkpt lat="22.136484" lon="104.320007"><ele>431.2</ele><time>2011-04-27T07:10:31.0000000+00:00</time></trkpt><trkpt lat="22.136484" lon="104.320007"><ele>431.1</ele><time>2011-04-27T07:10:36.0000000+00:00</time></trkpt><trkpt lat="22.136486" lon="104.320015"><ele>431.1</ele><time>2011-04-27T07:10:41.0000000+00:00</time></trkpt><trkpt lat="22.136492" lon="104.320015"><ele>431.1</ele><time>2011-04-27T07:10:46.0000000+00:00</time></trkpt><trkpt lat="22.136492" lon="104.320015"><ele>431.1</ele><time>2011-04-27T07:10:51.0000000+00:00</time></trkpt><trkpt lat="22.136494" lon="104.320015"><ele>431.1</ele><time>2011-04-27T07:10:56.0000000+00:00</time></trkpt><trkpt lat="22.136496" lon="104.320023"><ele>431.1</ele><time>2011-04-27T07:11:01.0000000+00:00</time></trkpt><trkpt lat="22.136496" lon="104.320023"><ele>431.1</ele><time>2011-04-27T07:11:06.0000000+00:00</time></trkpt><trkpt lat="22.136496" lon="104.320023"><ele>431.1</ele><time>2011-04-27T07:11:11.0000000+00:00</time></trkpt><trkpt lat="22.136494" lon="104.32003"><ele>431.0</ele><time>2011-04-27T07:11:16.0000000+00:00</time></trkpt><trkpt lat="22.136494" lon="104.320038"><ele>431.0</ele><time>2011-04-27T07:11:21.0000000+00:00</time></trkpt><trkpt lat="22.136492" lon="104.320038"><ele>431.0</ele><time>2011-04-27T07:11:26.0000000+00:00</time></trkpt><trkpt lat="22.136492" lon="104.320045"><ele>431.0</ele><time>2011-04-27T07:11:31.0000000+00:00</time></trkpt><trkpt lat="22.136494" lon="104.320045"><ele>431.0</ele><time>2011-04-27T07:11:36.0000000+00:00</time></trkpt><trkpt lat="22.136496" lon="104.320045"><ele>430.9</ele><time>2011-04-27T07:11:41.0000000+00:00</time></trkpt><trkpt lat="22.136494" lon="104.320045"><ele>430.9</ele><time>2011-04-27T07:11:46.0000000+00:00</time></trkpt><trkpt lat="22.136492" lon="104.320053"><ele>430.9</ele><time>2011-04-27T07:11:51.0000000+00:00</time></trkpt><trkpt lat="22.13649" lon="104.320038"><ele>430.7</ele><time>2011-04-27T07:11:56.0000000+00:00</time></trkpt><trkpt lat="22.136494" lon="104.320045"><ele>430.7</ele><time>2011-04-27T07:12:01.0000000+00:00</time></trkpt><trkpt lat="22.136496" lon="104.320038"><ele>430.7</ele><time>2011-04-27T07:12:06.0000000+00:00</time></trkpt><trkpt lat="22.136496" lon="104.320038"><ele>430.7</ele><time>2011-04-27T07:12:11.0000000+00:00</time></trkpt><trkpt lat="22.136492" lon="104.320045"><ele>430.7</ele><time>2011-04-27T07:12:16.0000000+00:00</time></trkpt><trkpt lat="22.13649" lon="104.320038"><ele>430.7</ele><time>2011-04-27T07:12:21.0000000+00:00</time></trkpt><trkpt lat="22.136488" lon="104.320045"><ele>430.6</ele><time>2011-04-27T07:12:26.0000000+00:00</time></trkpt><trkpt lat="22.136486" lon="104.320045"><ele>430.6</ele><time>2011-04-27T07:12:31.0000000+00:00</time></trkpt><trkpt lat="22.136484" lon="104.320045"><ele>430.6</ele><time>2011-04-27T07:12:36.0000000+00:00</time></trkpt><trkpt lat="22.136486" lon="104.320038"><ele>430.6</ele><time>2011-04-27T07:12:41.0000000+00:00</time></trkpt><trkpt lat="22.136486" lon="104.320038"><ele>430.6</ele><time>2011-04-27T07:12:46.0000000+00:00</time></trkpt><trkpt lat="22.13649" lon="104.32003"><ele>430.7</ele><time>2011-04-27T07:12:51.0000000+00:00</time></trkpt><trkpt lat="22.136494" lon="104.32003"><ele>430.7</ele><time>2011-04-27T07:12:56.0000000+00:00</time></trkpt><trkpt lat="22.136499" lon="104.32003"><ele>430.7</ele><time>2011-04-27T07:13:01.0000000+00:00</time></trkpt><trkpt lat="22.136507" lon="104.32003"><ele>430.8</ele><time>2011-04-27T07:13:06.0000000+00:00</time></trkpt><trkpt lat="22.136515" lon="104.32003"><ele>430.8</ele><time>2011-04-27T07:13:11.0000000+00:00</time></trkpt><trkpt lat="22.136517" lon="104.320023"><ele>430.8</ele><time>2011-04-27T07:13:16.0000000+00:00</time></trkpt><trkpt lat="22.136517" lon="104.320023"><ele>430.8</ele><time>2011-04-27T07:13:21.0000000+00:00</time></trkpt><trkpt lat="22.136517" lon="104.320023"><ele>430.8</ele><time>2011-04-27T07:13:26.0000000+00:00</time></trkpt><trkpt lat="22.136517" lon="104.320015"><ele>430.8</ele><time>2011-04-27T07:13:31.0000000+00:00</time></trkpt><trkpt lat="22.136517" lon="104.320015"><ele>430.8</ele><time>2011-04-27T07:13:36.0000000+00:00</time></trkpt><trkpt lat="22.136517" lon="104.320007"><ele>430.8</ele><time>2011-04-27T07:13:41.0000000+00:00</time></trkpt><trkpt lat="22.136518" lon="104.320007"><ele>430.9</ele><time>2011-04-27T07:13:46.0000000+00:00</time></trkpt><trkpt lat="22.136518" lon="104.320007"><ele>430.9</ele><time>2011-04-27T07:13:51.0000000+00:00</time></trkpt><trkpt lat="22.13652" lon="104.32"><ele>430.9</ele><time>2011-04-27T07:13:56.0000000+00:00</time></trkpt><trkpt lat="22.136522" lon="104.32"><ele>430.9</ele><time>2011-04-27T07:14:01.0000000+00:00</time></trkpt><trkpt lat="22.136522" lon="104.32"><ele>430.9</ele><time>2011-04-27T07:14:06.0000000+00:00</time></trkpt><trkpt lat="22.13652" lon="104.32"><ele>430.9</ele><time>2011-04-27T07:14:11.0000000+00:00</time></trkpt><trkpt lat="22.136524" lon="104.319992"><ele>430.9</ele><time>2011-04-27T07:14:16.0000000+00:00</time></trkpt><trkpt lat="22.136522" lon="104.32"><ele>430.9</ele><time>2011-04-27T07:14:21.0000000+00:00</time></trkpt><trkpt lat="22.13652" lon="104.32"><ele>430.9</ele><time>2011-04-27T07:14:26.0000000+00:00</time></trkpt><trkpt lat="22.13652" lon="104.32"><ele>430.9</ele><time>2011-04-27T07:14:31.0000000+00:00</time></trkpt><trkpt lat="22.136524" lon="104.32"><ele>430.9</ele><time>2011-04-27T07:14:36.0000000+00:00</time></trkpt><trkpt lat="22.136528" lon="104.320007"><ele>430.9</ele><time>2011-04-27T07:14:41.0000000+00:00</time></trkpt><trkpt lat="22.136528" lon="104.320007"><ele>430.9</ele><time>2011-04-27T07:14:46.0000000+00:00</time></trkpt><trkpt lat="22.136526" lon="104.320007"><ele>430.8</ele><time>2011-04-27T07:14:51.0000000+00:00</time></trkpt><trkpt lat="22.136528" lon="104.320015"><ele>430.8</ele><time>2011-04-27T07:14:56.0000000+00:00</time></trkpt><trkpt lat="22.136528" lon="104.320023"><ele>430.4</ele><time>2011-04-27T07:15:01.0000000+00:00</time></trkpt><trkpt lat="22.136534" lon="104.320023"><ele>430.3</ele><time>2011-04-27T07:15:06.0000000+00:00</time></trkpt><trkpt lat="22.136543" lon="104.320053"><ele>430.1</ele><time>2011-04-27T07:15:11.0000000+00:00</time></trkpt><trkpt lat="22.136551" lon="104.320053"><ele>429.4</ele><time>2011-04-27T07:15:16.0000000+00:00</time></trkpt><trkpt lat="22.136547" lon="104.320061"><ele>429.4</ele><time>2011-04-27T07:15:21.0000000+00:00</time></trkpt><trkpt lat="22.136543" lon="104.320068"><ele>429.3</ele><time>2011-04-27T07:15:26.0000000+00:00</time></trkpt><trkpt lat="22.136538" lon="104.320061"><ele>429.3</ele><time>2011-04-27T07:15:31.0000000+00:00</time></trkpt><trkpt lat="22.136543" lon="104.320053"><ele>429.3</ele><time>2011-04-27T07:15:36.0000000+00:00</time></trkpt><trkpt lat="22.136547" lon="104.320053"><ele>429.3</ele><time>2011-04-27T07:15:41.0000000+00:00</time></trkpt><trkpt lat="22.136549" lon="104.320045"><ele>429.3</ele><time>2011-04-27T07:15:46.0000000+00:00</time></trkpt><trkpt lat="22.136555" lon="104.320045"><ele>429.3</ele><time>2011-04-27T07:15:51.0000000+00:00</time></trkpt><trkpt lat="22.136555" lon="104.320045"><ele>429.3</ele><time>2011-04-27T07:15:56.0000000+00:00</time></trkpt><trkpt lat="22.136557" lon="104.320045"><ele>429.3</ele><time>2011-04-27T07:16:01.0000000+00:00</time></trkpt><trkpt lat="22.136555" lon="104.320053"><ele>429.3</ele><time>2011-04-27T07:16:06.0000000+00:00</time></trkpt><trkpt lat="22.136555" lon="104.320053"><ele>429.3</ele><time>2011-04-27T07:16:11.0000000+00:00</time></trkpt><trkpt lat="22.136551" lon="104.320053"><ele>429.3</ele><time>2011-04-27T07:16:16.0000000+00:00</time></trkpt><trkpt lat="22.136547" lon="104.320045"><ele>429.2</ele><time>2011-04-27T07:16:21.0000000+00:00</time></trkpt><trkpt lat="22.136545" lon="104.320045"><ele>429.2</ele><time>2011-04-27T07:16:26.0000000+00:00</time></trkpt><trkpt lat="22.136547" lon="104.320045"><ele>429.2</ele><time>2011-04-27T07:16:31.0000000+00:00</time></trkpt><trkpt lat="22.136549" lon="104.320038"><ele>429.2</ele><time>2011-04-27T07:16:36.0000000+00:00</time></trkpt><trkpt lat="22.136547" lon="104.32003"><ele>429.2</ele><time>2011-04-27T07:16:41.0000000+00:00</time></trkpt><trkpt lat="22.136551" lon="104.320023"><ele>429.2</ele><time>2011-04-27T07:16:46.0000000+00:00</time></trkpt><trkpt lat="22.136557" lon="104.320015"><ele>429.2</ele><time>2011-04-27T07:16:51.0000000+00:00</time></trkpt><trkpt lat="22.136559" lon="104.320015"><ele>429.2</ele><time>2011-04-27T07:16:56.0000000+00:00</time></trkpt><trkpt lat="22.136559" lon="104.320007"><ele>429.2</ele><time>2011-04-27T07:17:01.0000000+00:00</time></trkpt><trkpt lat="22.136559" lon="104.32"><ele>429.2</ele><time>2011-04-27T07:17:06.0000000+00:00</time></trkpt><trkpt lat="22.136564" lon="104.32"><ele>429.2</ele><time>2011-04-27T07:17:11.0000000+00:00</time></trkpt><trkpt lat="22.136564" lon="104.320007"><ele>429.2</ele><time>2011-04-27T07:17:16.0000000+00:00</time></trkpt><trkpt lat="22.136564" lon="104.320007"><ele>429.1</ele><time>2011-04-27T07:17:21.0000000+00:00</time></trkpt><trkpt lat="22.136564" lon="104.320007"><ele>429.1</ele><time>2011-04-27T07:17:26.0000000+00:00</time></trkpt><trkpt lat="22.13656" lon="104.320007"><ele>429.1</ele><time>2011-04-27T07:17:31.0000000+00:00</time></trkpt><trkpt lat="22.136559" lon="104.320007"><ele>429.1</ele><time>2011-04-27T07:17:36.0000000+00:00</time></trkpt><trkpt lat="22.136557" lon="104.320007"><ele>429.1</ele><time>2011-04-27T07:17:41.0000000+00:00</time></trkpt><trkpt lat="22.136557" lon="104.320007"><ele>429.0</ele><time>2011-04-27T07:17:46.0000000+00:00</time></trkpt><trkpt lat="22.136559" lon="104.320007"><ele>429.0</ele><time>2011-04-27T07:17:51.0000000+00:00</time></trkpt><trkpt lat="22.136555" lon="104.320007"><ele>429.0</ele><time>2011-04-27T07:17:56.0000000+00:00</time></trkpt><trkpt lat="22.136547" lon="104.320007"><ele>428.9</ele><time>2011-04-27T07:18:01.0000000+00:00</time></trkpt><trkpt lat="22.136549" lon="104.32"><ele>428.9</ele><time>2011-04-27T07:18:06.0000000+00:00</time></trkpt><trkpt lat="22.136551" lon="104.32"><ele>428.8</ele><time>2011-04-27T07:18:11.0000000+00:00</time></trkpt><trkpt lat="22.136551" lon="104.320007"><ele>428.7</ele><time>2011-04-27T07:18:16.0000000+00:00</time></trkpt><trkpt lat="22.136553" lon="104.320023"><ele>428.5</ele><time>2011-04-27T07:18:21.0000000+00:00</time></trkpt><trkpt lat="22.136557" lon="104.320015"><ele>428.6</ele><time>2011-04-27T07:18:26.0000000+00:00</time></trkpt><trkpt lat="22.136559" lon="104.320015"><ele>428.6</ele><time>2011-04-27T07:18:31.0000000+00:00</time></trkpt><trkpt lat="22.13656" lon="104.320015"><ele>428.6</ele><time>2011-04-27T07:18:36.0000000+00:00</time></trkpt><trkpt lat="22.136564" lon="104.320015"><ele>428.6</ele><time>2011-04-27T07:18:41.0000000+00:00</time></trkpt><trkpt lat="22.136568" lon="104.320007"><ele>428.6</ele><time>2011-04-27T07:18:46.0000000+00:00</time></trkpt><trkpt lat="22.136572" lon="104.320007"><ele>428.5</ele><time>2011-04-27T07:18:51.0000000+00:00</time></trkpt><trkpt lat="22.13657" lon="104.32"><ele>428.5</ele><time>2011-04-27T07:18:56.0000000+00:00</time></trkpt><trkpt lat="22.136568" lon="104.32"><ele>428.4</ele><time>2011-04-27T07:19:01.0000000+00:00</time></trkpt><trkpt lat="22.136562" lon="104.319992"><ele>428.3</ele><time>2011-04-27T07:19:06.0000000+00:00</time></trkpt><trkpt lat="22.136559" lon="104.319992"><ele>428.3</ele><time>2011-04-27T07:19:11.0000000+00:00</time></trkpt><trkpt lat="22.136557" lon="104.319992"><ele>428.2</ele><time>2011-04-27T07:19:16.0000000+00:00</time></trkpt><trkpt lat="22.136555" lon="104.319984"><ele>428.2</ele><time>2011-04-27T07:19:21.0000000+00:00</time></trkpt><trkpt lat="22.136553" lon="104.319984"><ele>428.1</ele><time>2011-04-27T07:19:26.0000000+00:00</time></trkpt><trkpt lat="22.136553" lon="104.319977"><ele>428.1</ele><time>2011-04-27T07:19:31.0000000+00:00</time></trkpt><trkpt lat="22.136553" lon="104.319984"><ele>428.0</ele><time>2011-04-27T07:19:36.0000000+00:00</time></trkpt><trkpt lat="22.136553" lon="104.319984"><ele>428.0</ele><time>2011-04-27T07:19:41.0000000+00:00</time></trkpt><trkpt lat="22.136555" lon="104.319984"><ele>427.9</ele><time>2011-04-27T07:19:46.0000000+00:00</time></trkpt><trkpt lat="22.136553" lon="104.319984"><ele>427.8</ele><time>2011-04-27T07:19:51.0000000+00:00</time></trkpt><trkpt lat="22.136553" lon="104.319984"><ele>427.7</ele><time>2011-04-27T07:19:56.0000000+00:00</time></trkpt><trkpt lat="22.136553" lon="104.319984"><ele>427.6</ele><time>2011-04-27T07:20:01.0000000+00:00</time></trkpt><trkpt lat="22.136553" lon="104.319984"><ele>427.6</ele><time>2011-04-27T07:20:06.0000000+00:00</time></trkpt><trkpt lat="22.136553" lon="104.319984"><ele>427.6</ele><time>2011-04-27T07:20:11.0000000+00:00</time></trkpt><trkpt lat="22.136557" lon="104.319977"><ele>427.6</ele><time>2011-04-27T07:20:16.0000000+00:00</time></trkpt><trkpt lat="22.13656" lon="104.319977"><ele>426.8</ele><time>2011-04-27T07:20:21.0000000+00:00</time></trkpt><trkpt lat="22.13656" lon="104.319977"><ele>426.9</ele><time>2011-04-27T07:20:26.0000000+00:00</time></trkpt><trkpt lat="22.13656" lon="104.319969"><ele>426.9</ele><time>2011-04-27T07:20:31.0000000+00:00</time></trkpt><trkpt lat="22.136564" lon="104.319969"><ele>426.6</ele><time>2011-04-27T07:20:36.0000000+00:00</time></trkpt><trkpt lat="22.136566" lon="104.319969"><ele>426.5</ele><time>2011-04-27T07:20:41.0000000+00:00</time></trkpt><trkpt lat="22.136562" lon="104.319977"><ele>426.5</ele><time>2011-04-27T07:20:46.0000000+00:00</time></trkpt><trkpt lat="22.136557" lon="104.319984"><ele>426.5</ele><time>2011-04-27T07:20:51.0000000+00:00</time></trkpt><trkpt lat="22.136551" lon="104.319992"><ele>426.5</ele><time>2011-04-27T07:20:56.0000000+00:00</time></trkpt><trkpt lat="22.136549" lon="104.319992"><ele>426.4</ele><time>2011-04-27T07:21:01.0000000+00:00</time></trkpt><trkpt lat="22.136583" lon="104.319992"><ele>426.7</ele><time>2011-04-27T07:21:06.0000000+00:00</time></trkpt><trkpt lat="22.136665" lon="104.320015"><ele>426.6</ele><time>2011-04-27T07:21:11.0000000+00:00</time></trkpt><trkpt lat="22.136776" lon="104.320023"><ele>426.3</ele><time>2011-04-27T07:21:16.0000000+00:00</time></trkpt><trkpt lat="22.136932" lon="104.32003"><ele>424.8</ele><time>2011-04-27T07:21:21.0000000+00:00</time></trkpt><trkpt lat="22.13703" lon="104.320091"><ele>423.5</ele><time>2011-04-27T07:21:26.0000000+00:00</time></trkpt><trkpt lat="22.137005" lon="104.320137"><ele>420.7</ele><time>2011-04-27T07:21:31.0000000+00:00</time></trkpt><trkpt lat="22.137049" lon="104.320206"><ele>419.1</ele><time>2011-04-27T07:21:36.0000000+00:00</time></trkpt><trkpt lat="22.137032" lon="104.320465"><ele>415.1</ele><time>2011-04-27T07:21:41.0000000+00:00</time></trkpt><trkpt lat="22.137007" lon="104.320808"><ele>410.2</ele><time>2011-04-27T07:21:46.0000000+00:00</time></trkpt><trkpt lat="22.137236" lon="104.321053"><ele>406.4</ele><time>2011-04-27T07:21:51.0000000+00:00</time></trkpt><trkpt lat="22.137526" lon="104.321236"><ele>403.5</ele><time>2011-04-27T07:21:56.0000000+00:00</time></trkpt><trkpt lat="22.137564" lon="104.321526"><ele>399.4</ele><time>2011-04-27T07:22:01.0000000+00:00</time></trkpt><trkpt lat="22.137474" lon="104.321831"><ele>393.8</ele><time>2011-04-27T07:22:06.0000000+00:00</time></trkpt><trkpt lat="22.137339" lon="104.322083"><ele>390.5</ele><time>2011-04-27T07:22:11.0000000+00:00</time></trkpt><trkpt lat="22.137217" lon="104.322357"><ele>387.8</ele><time>2011-04-27T07:22:16.0000000+00:00</time></trkpt><trkpt lat="22.137281" lon="104.322586"><ele>383.3</ele><time>2011-04-27T07:22:21.0000000+00:00</time></trkpt><trkpt lat="22.137512" lon="104.322655"><ele>382.0</ele><time>2011-04-27T07:22:26.0000000+00:00</time></trkpt><trkpt lat="22.137804" lon="104.322449"><ele>377.5</ele><time>2011-04-27T07:22:31.0000000+00:00</time></trkpt><trkpt lat="22.138218" lon="104.322151"><ele>374.2</ele><time>2011-04-27T07:22:36.0000000+00:00</time></trkpt><trkpt lat="22.138588" lon="104.321983"><ele>371.6</ele><time>2011-04-27T07:22:41.0000000+00:00</time></trkpt><trkpt lat="22.138842" lon="104.321831"><ele>368.6</ele><time>2011-04-27T07:22:46.0000000+00:00</time></trkpt><trkpt lat="22.138983" lon="104.321739"><ele>365.7</ele><time>2011-04-27T07:22:51.0000000+00:00</time></trkpt><trkpt lat="22.139122" lon="104.321655"><ele>362.3</ele><time>2011-04-27T07:22:56.0000000+00:00</time></trkpt><trkpt lat="22.13928" lon="104.321648"><ele>359.8</ele><time>2011-04-27T07:23:01.0000000+00:00</time></trkpt><trkpt lat="22.139523" lon="104.32177"><ele>357.2</ele><time>2011-04-27T07:23:06.0000000+00:00</time></trkpt><trkpt lat="22.139835" lon="104.321999"><ele>354.5</ele><time>2011-04-27T07:23:11.0000000+00:00</time></trkpt><trkpt lat="22.140171" lon="104.322113"><ele>351.3</ele><time>2011-04-27T07:23:16.0000000+00:00</time></trkpt><trkpt lat="22.140507" lon="104.322105"><ele>348.4</ele><time>2011-04-27T07:23:21.0000000+00:00</time></trkpt><trkpt lat="22.140657" lon="104.321953"><ele>346.0</ele><time>2011-04-27T07:23:26.0000000+00:00</time></trkpt><trkpt lat="22.14068" lon="104.321655"><ele>343.6</ele><time>2011-04-27T07:23:31.0000000+00:00</time></trkpt><trkpt lat="22.140692" lon="104.321373"><ele>341.3</ele><time>2011-04-27T07:23:36.0000000+00:00</time></trkpt><trkpt lat="22.140728" lon="104.321198"><ele>337.2</ele><time>2011-04-27T07:23:41.0000000+00:00</time></trkpt><trkpt lat="22.140881" lon="104.321167"><ele>335.7</ele><time>2011-04-27T07:23:46.0000000+00:00</time></trkpt><trkpt lat="22.141031" lon="104.321251"><ele>333.2</ele><time>2011-04-27T07:23:51.0000000+00:00</time></trkpt><trkpt lat="22.141205" lon="104.321442"><ele>331.6</ele><time>2011-04-27T07:23:56.0000000+00:00</time></trkpt><trkpt lat="22.141287" lon="104.321686"><ele>329.5</ele><time>2011-04-27T07:24:01.0000000+00:00</time></trkpt><trkpt lat="22.141317" lon="104.3218"><ele>327.7</ele><time>2011-04-27T07:24:06.0000000+00:00</time></trkpt><trkpt lat="22.141348" lon="104.321838"><ele>326.8</ele><time>2011-04-27T07:24:11.0000000+00:00</time></trkpt><trkpt lat="22.141466" lon="104.321907"><ele>326.9</ele><time>2011-04-27T07:24:16.0000000+00:00</time></trkpt><trkpt lat="22.141674" lon="104.321983"><ele>324.5</ele><time>2011-04-27T07:24:21.0000000+00:00</time></trkpt><trkpt lat="22.141819" lon="104.322075"><ele>325.8</ele><time>2011-04-27T07:24:26.0000000+00:00</time></trkpt><trkpt lat="22.141912" lon="104.322159"><ele>325.2</ele><time>2011-04-27T07:24:31.0000000+00:00</time></trkpt><trkpt lat="22.141983" lon="104.322212"><ele>326.0</ele><time>2011-04-27T07:24:36.0000000+00:00</time></trkpt><trkpt lat="22.142042" lon="104.322273"><ele>326.6</ele><time>2011-04-27T07:24:41.0000000+00:00</time></trkpt><trkpt lat="22.142097" lon="104.322311"><ele>326.7</ele><time>2011-04-27T07:24:46.0000000+00:00</time></trkpt><trkpt lat="22.14216" lon="104.322365"><ele>326.3</ele><time>2011-04-27T07:24:51.0000000+00:00</time></trkpt><trkpt lat="22.142239" lon="104.322433"><ele>324.9</ele><time>2011-04-27T07:24:56.0000000+00:00</time></trkpt><trkpt lat="22.142345" lon="104.322571"><ele>322.6</ele><time>2011-04-27T07:25:01.0000000+00:00</time></trkpt><trkpt lat="22.142466" lon="104.322716"><ele>322.2</ele><time>2011-04-27T07:25:06.0000000+00:00</time></trkpt><trkpt lat="22.142563" lon="104.32296"><ele>322.4</ele><time>2011-04-27T07:25:11.0000000+00:00</time></trkpt><trkpt lat="22.142693" lon="104.323242"><ele>320.4</ele><time>2011-04-27T07:25:16.0000000+00:00</time></trkpt><trkpt lat="22.143024" lon="104.32338"><ele>319.9</ele><time>2011-04-27T07:25:21.0000000+00:00</time></trkpt><trkpt lat="22.143322" lon="104.32338"><ele>317.8</ele><time>2011-04-27T07:25:26.0000000+00:00</time></trkpt><trkpt lat="22.143459" lon="104.323456"><ele>318.3</ele><time>2011-04-27T07:25:31.0000000+00:00</time></trkpt><trkpt lat="22.143524" lon="104.323608"><ele>314.8</ele><time>2011-04-27T07:25:36.0000000+00:00</time></trkpt><trkpt lat="22.143501" lon="104.323792"><ele>315.6</ele><time>2011-04-27T07:25:41.0000000+00:00</time></trkpt><trkpt lat="22.143442" lon="104.323959"><ele>315.1</ele><time>2011-04-27T07:25:46.0000000+00:00</time></trkpt><trkpt lat="22.143412" lon="104.32412"><ele>314.0</ele><time>2011-04-27T07:25:51.0000000+00:00</time></trkpt><trkpt lat="22.143469" lon="104.324387"><ele>313.8</ele><time>2011-04-27T07:25:56.0000000+00:00</time></trkpt><trkpt lat="22.143547" lon="104.324715"><ele>313.0</ele><time>2011-04-27T07:26:01.0000000+00:00</time></trkpt><trkpt lat="22.143675" lon="104.32502"><ele>311.4</ele><time>2011-04-27T07:26:06.0000000+00:00</time></trkpt><trkpt lat="22.14385" lon="104.325256"><ele>308.8</ele><time>2011-04-27T07:26:11.0000000+00:00</time></trkpt><trkpt lat="22.143944" lon="104.325546"><ele>306.8</ele><time>2011-04-27T07:26:16.0000000+00:00</time></trkpt><trkpt lat="22.143959" lon="104.32589"><ele>304.9</ele><time>2011-04-27T07:26:21.0000000+00:00</time></trkpt><trkpt lat="22.1441" lon="104.326035"><ele>302.0</ele><time>2011-04-27T07:26:26.0000000+00:00</time></trkpt><trkpt lat="22.144224" lon="104.326088"><ele>300.1</ele><time>2011-04-27T07:26:31.0000000+00:00</time></trkpt><trkpt lat="22.14439" lon="104.326172"><ele>298.1</ele><time>2011-04-27T07:26:36.0000000+00:00</time></trkpt><trkpt lat="22.14456" lon="104.32634"><ele>295.2</ele><time>2011-04-27T07:26:41.0000000+00:00</time></trkpt><trkpt lat="22.14451" lon="104.326706"><ele>291.7</ele><time>2011-04-27T07:26:46.0000000+00:00</time></trkpt><trkpt lat="22.144302" lon="104.327133"><ele>288.5</ele><time>2011-04-27T07:26:51.0000000+00:00</time></trkpt><trkpt lat="22.144154" lon="104.32756"><ele>285.5</ele><time>2011-04-27T07:26:56.0000000+00:00</time></trkpt><trkpt lat="22.144258" lon="104.327934"><ele>283.2</ele><time>2011-04-27T07:27:01.0000000+00:00</time></trkpt><trkpt lat="22.14426" lon="104.328171"><ele>279.9</ele><time>2011-04-27T07:27:06.0000000+00:00</time></trkpt><trkpt lat="22.144104" lon="104.328377"><ele>278.9</ele><time>2011-04-27T07:27:11.0000000+00:00</time></trkpt><trkpt lat="22.144039" lon="104.328659"><ele>276.8</ele><time>2011-04-27T07:27:16.0000000+00:00</time></trkpt><trkpt lat="22.144045" lon="104.328926"><ele>275.2</ele><time>2011-04-27T07:27:21.0000000+00:00</time></trkpt><trkpt lat="22.144089" lon="104.329239"><ele>274.8</ele><time>2011-04-27T07:27:26.0000000+00:00</time></trkpt><trkpt lat="22.144018" lon="104.329384"><ele>272.4</ele><time>2011-04-27T07:27:31.0000000+00:00</time></trkpt><trkpt lat="22.14377" lon="104.329453"><ele>267.1</ele><time>2011-04-27T07:27:36.0000000+00:00</time></trkpt><trkpt lat="22.143549" lon="104.329575"><ele>263.0</ele><time>2011-04-27T07:27:41.0000000+00:00</time></trkpt><trkpt lat="22.143543" lon="104.329819"><ele>261.3</ele><time>2011-04-27T07:27:46.0000000+00:00</time></trkpt><trkpt lat="22.143585" lon="104.330086"><ele>260.5</ele><time>2011-04-27T07:27:51.0000000+00:00</time></trkpt><trkpt lat="22.143557" lon="104.330246"><ele>259.7</ele><time>2011-04-27T07:27:56.0000000+00:00</time></trkpt><trkpt lat="22.143414" lon="104.33036"><ele>258.5</ele><time>2011-04-27T07:28:01.0000000+00:00</time></trkpt><trkpt lat="22.143206" lon="104.330498"><ele>255.8</ele><time>2011-04-27T07:28:06.0000000+00:00</time></trkpt><trkpt lat="22.142998" lon="104.330559"><ele>251.4</ele><time>2011-04-27T07:28:11.0000000+00:00</time></trkpt><trkpt lat="22.142784" lon="104.330521"><ele>249.7</ele><time>2011-04-27T07:28:16.0000000+00:00</time></trkpt><trkpt lat="22.142681" lon="104.330467"><ele>246.8</ele><time>2011-04-27T07:28:21.0000000+00:00</time></trkpt><trkpt lat="22.142675" lon="104.330467"><ele>245.3</ele><time>2011-04-27T07:28:26.0000000+00:00</time></trkpt><trkpt lat="22.14267" lon="104.33046"><ele>245.1</ele><time>2011-04-27T07:28:31.0000000+00:00</time></trkpt><trkpt lat="22.14267" lon="104.33046"><ele>245.0</ele><time>2011-04-27T07:28:36.0000000+00:00</time></trkpt><trkpt lat="22.142666" lon="104.330452"><ele>244.9</ele><time>2011-04-27T07:28:41.0000000+00:00</time></trkpt><trkpt lat="22.142656" lon="104.330452"><ele>244.9</ele><time>2011-04-27T07:28:46.0000000+00:00</time></trkpt><trkpt lat="22.142645" lon="104.330444"><ele>244.9</ele><time>2011-04-27T07:28:51.0000000+00:00</time></trkpt><trkpt lat="22.142637" lon="104.330444"><ele>244.9</ele><time>2011-04-27T07:28:56.0000000+00:00</time></trkpt><trkpt lat="22.14263" lon="104.330444"><ele>244.9</ele><time>2011-04-27T07:29:01.0000000+00:00</time></trkpt><trkpt lat="22.14263" lon="104.330444"><ele>244.9</ele><time>2011-04-27T07:29:06.0000000+00:00</time></trkpt><trkpt lat="22.142626" lon="104.330444"><ele>244.8</ele><time>2011-04-27T07:29:11.0000000+00:00</time></trkpt><trkpt lat="22.142622" lon="104.330437"><ele>244.9</ele><time>2011-04-27T07:29:16.0000000+00:00</time></trkpt><trkpt lat="22.142616" lon="104.330437"><ele>244.9</ele><time>2011-04-27T07:29:21.0000000+00:00</time></trkpt><trkpt lat="22.142607" lon="104.330437"><ele>244.8</ele><time>2011-04-27T07:29:26.0000000+00:00</time></trkpt><trkpt lat="22.142603" lon="104.330437"><ele>244.7</ele><time>2011-04-27T07:29:31.0000000+00:00</time></trkpt><trkpt lat="22.142603" lon="104.330437"><ele>244.6</ele><time>2011-04-27T07:29:36.0000000+00:00</time></trkpt><trkpt lat="22.142595" lon="104.330437"><ele>244.6</ele><time>2011-04-27T07:29:41.0000000+00:00</time></trkpt><trkpt lat="22.142588" lon="104.330444"><ele>244.5</ele><time>2011-04-27T07:29:46.0000000+00:00</time></trkpt><trkpt lat="22.142586" lon="104.330444"><ele>244.5</ele><time>2011-04-27T07:29:51.0000000+00:00</time></trkpt><trkpt lat="22.142586" lon="104.330444"><ele>244.5</ele><time>2011-04-27T07:29:56.0000000+00:00</time></trkpt><trkpt lat="22.142582" lon="104.330444"><ele>244.5</ele><time>2011-04-27T07:30:01.0000000+00:00</time></trkpt><trkpt lat="22.1425" lon="104.330467"><ele>244.7</ele><time>2011-04-27T07:30:06.0000000+00:00</time></trkpt><trkpt lat="22.142284" lon="104.330544"><ele>243.3</ele><time>2011-04-27T07:30:11.0000000+00:00</time></trkpt><trkpt lat="22.141937" lon="104.330681"><ele>240.2</ele><time>2011-04-27T07:30:16.0000000+00:00</time></trkpt><trkpt lat="22.141573" lon="104.330902"><ele>237.5</ele><time>2011-04-27T07:30:21.0000000+00:00</time></trkpt><trkpt lat="22.141403" lon="104.331184"><ele>233.3</ele><time>2011-04-27T07:30:26.0000000+00:00</time></trkpt><trkpt lat="22.141558" lon="104.331459"><ele>231.0</ele><time>2011-04-27T07:30:31.0000000+00:00</time></trkpt><trkpt lat="22.141907" lon="104.331421"><ele>229.2</ele><time>2011-04-27T07:30:36.0000000+00:00</time></trkpt><trkpt lat="22.142303" lon="104.331375"><ele>230.1</ele><time>2011-04-27T07:30:41.0000000+00:00</time></trkpt><trkpt lat="22.1427" lon="104.331581"><ele>231.7</ele><time>2011-04-27T07:30:46.0000000+00:00</time></trkpt><trkpt lat="22.142973" lon="104.331841"><ele>233.4</ele><time>2011-04-27T07:30:51.0000000+00:00</time></trkpt><trkpt lat="22.143312" lon="104.331757"><ele>229.2</ele><time>2011-04-27T07:30:56.0000000+00:00</time></trkpt><trkpt lat="22.143633" lon="104.331612"><ele>227.8</ele><time>2011-04-27T07:31:01.0000000+00:00</time></trkpt><trkpt lat="22.143839" lon="104.331848"><ele>227.7</ele><time>2011-04-27T07:31:06.0000000+00:00</time></trkpt><trkpt lat="22.144083" lon="104.332161"><ele>226.2</ele><time>2011-04-27T07:31:11.0000000+00:00</time></trkpt><trkpt lat="22.144432" lon="104.332291"><ele>223.0</ele><time>2011-04-27T07:31:16.0000000+00:00</time></trkpt><trkpt lat="22.144646" lon="104.332123"><ele>221.7</ele><time>2011-04-27T07:31:21.0000000+00:00</time></trkpt><trkpt lat="22.144804" lon="104.33197"><ele>220.9</ele><time>2011-04-27T07:31:26.0000000+00:00</time></trkpt><trkpt lat="22.144848" lon="104.331932"><ele>218.6</ele><time>2011-04-27T07:31:31.0000000+00:00</time></trkpt><trkpt lat="22.144852" lon="104.331917"><ele>218.3</ele><time>2011-04-27T07:31:36.0000000+00:00</time></trkpt><trkpt lat="22.144846" lon="104.331902"><ele>218.3</ele><time>2011-04-27T07:31:41.0000000+00:00</time></trkpt><trkpt lat="22.144842" lon="104.331879"><ele>218.2</ele><time>2011-04-27T07:31:46.0000000+00:00</time></trkpt><trkpt lat="22.144838" lon="104.331871"><ele>218.1</ele><time>2011-04-27T07:31:51.0000000+00:00</time></trkpt><trkpt lat="22.144964" lon="104.331848"><ele>218.6</ele><time>2011-04-27T07:31:56.0000000+00:00</time></trkpt><trkpt lat="22.145203" lon="104.332031"><ele>216.8</ele><time>2011-04-27T07:32:01.0000000+00:00</time></trkpt><trkpt lat="22.145477" lon="104.332085"><ele>213.2</ele><time>2011-04-27T07:32:06.0000000+00:00</time></trkpt><trkpt lat="22.145628" lon="104.332024"><ele>210.8</ele><time>2011-04-27T07:32:11.0000000+00:00</time></trkpt><trkpt lat="22.145626" lon="104.332016"><ele>208.7</ele><time>2011-04-27T07:32:16.0000000+00:00</time></trkpt><trkpt lat="22.14563" lon="104.332024"><ele>208.2</ele><time>2011-04-27T07:32:21.0000000+00:00</time></trkpt><trkpt lat="22.14563" lon="104.332024"><ele>208.1</ele><time>2011-04-27T07:32:26.0000000+00:00</time></trkpt><trkpt lat="22.145699" lon="104.332008"><ele>206.5</ele><time>2011-04-27T07:32:31.0000000+00:00</time></trkpt><trkpt lat="22.145929" lon="104.332008"><ele>204.0</ele><time>2011-04-27T07:32:36.0000000+00:00</time></trkpt><trkpt lat="22.146217" lon="104.332054"><ele>202.3</ele><time>2011-04-27T07:32:41.0000000+00:00</time></trkpt><trkpt lat="22.146505" lon="104.332169"><ele>196.9</ele><time>2011-04-27T07:32:46.0000000+00:00</time></trkpt><trkpt lat="22.146687" lon="104.332474"><ele>191.7</ele><time>2011-04-27T07:32:51.0000000+00:00</time></trkpt><trkpt lat="22.146824" lon="104.33284"><ele>188.7</ele><time>2011-04-27T07:32:56.0000000+00:00</time></trkpt><trkpt lat="22.146954" lon="104.333008"><ele>186.5</ele><time>2011-04-27T07:33:01.0000000+00:00</time></trkpt><trkpt lat="22.147047" lon="104.333038"><ele>185.1</ele><time>2011-04-27T07:33:06.0000000+00:00</time></trkpt><trkpt lat="22.147139" lon="104.333092"><ele>183.6</ele><time>2011-04-27T07:33:11.0000000+00:00</time></trkpt><trkpt lat="22.147181" lon="104.333099"><ele>186.6</ele><time>2011-04-27T07:33:16.0000000+00:00</time></trkpt><trkpt lat="22.147184" lon="104.333099"><ele>187.1</ele><time>2011-04-27T07:33:21.0000000+00:00</time></trkpt><trkpt lat="22.147184" lon="104.333099"><ele>187.3</ele><time>2011-04-27T07:33:26.0000000+00:00</time></trkpt><trkpt lat="22.147186" lon="104.333099"><ele>187.4</ele><time>2011-04-27T07:33:31.0000000+00:00</time></trkpt><trkpt lat="22.14719" lon="104.333099"><ele>187.6</ele><time>2011-04-27T07:33:36.0000000+00:00</time></trkpt><trkpt lat="22.147188" lon="104.333099"><ele>187.7</ele><time>2011-04-27T07:33:41.0000000+00:00</time></trkpt><trkpt lat="22.147188" lon="104.333099"><ele>187.7</ele><time>2011-04-27T07:33:46.0000000+00:00</time></trkpt><trkpt lat="22.14719" lon="104.333099"><ele>187.7</ele><time>2011-04-27T07:33:51.0000000+00:00</time></trkpt><trkpt lat="22.14719" lon="104.333107"><ele>187.7</ele><time>2011-04-27T07:33:56.0000000+00:00</time></trkpt><trkpt lat="22.147192" lon="104.333115"><ele>187.7</ele><time>2011-04-27T07:34:01.0000000+00:00</time></trkpt><trkpt lat="22.147192" lon="104.333115"><ele>187.7</ele><time>2011-04-27T07:34:06.0000000+00:00</time></trkpt><trkpt lat="22.147194" lon="104.333115"><ele>187.8</ele><time>2011-04-27T07:34:11.0000000+00:00</time></trkpt><trkpt lat="22.147196" lon="104.333115"><ele>187.8</ele><time>2011-04-27T07:34:16.0000000+00:00</time></trkpt><trkpt lat="22.147196" lon="104.333107"><ele>187.8</ele><time>2011-04-27T07:34:21.0000000+00:00</time></trkpt><trkpt lat="22.147202" lon="104.333099"><ele>187.8</ele><time>2011-04-27T07:34:26.0000000+00:00</time></trkpt><trkpt lat="22.147203" lon="104.333099"><ele>187.8</ele><time>2011-04-27T07:34:31.0000000+00:00</time></trkpt><trkpt lat="22.147202" lon="104.333115"><ele>187.8</ele><time>2011-04-27T07:34:36.0000000+00:00</time></trkpt><trkpt lat="22.147205" lon="104.333115"><ele>187.9</ele><time>2011-04-27T07:34:41.0000000+00:00</time></trkpt><trkpt lat="22.147203" lon="104.333122"><ele>188.1</ele><time>2011-04-27T07:34:46.0000000+00:00</time></trkpt><trkpt lat="22.147194" lon="104.33313"><ele>188.2</ele><time>2011-04-27T07:34:51.0000000+00:00</time></trkpt><trkpt lat="22.14719" lon="104.333122"><ele>188.2</ele><time>2011-04-27T07:34:56.0000000+00:00</time></trkpt><trkpt lat="22.147186" lon="104.333122"><ele>188.2</ele><time>2011-04-27T07:35:01.0000000+00:00</time></trkpt><trkpt lat="22.147181" lon="104.33313"><ele>188.1</ele><time>2011-04-27T07:35:06.0000000+00:00</time></trkpt><trkpt lat="22.147175" lon="104.333138"><ele>188.1</ele><time>2011-04-27T07:35:11.0000000+00:00</time></trkpt><trkpt lat="22.147171" lon="104.333138"><ele>188.0</ele><time>2011-04-27T07:35:16.0000000+00:00</time></trkpt><trkpt lat="22.147165" lon="104.333145"><ele>188.0</ele><time>2011-04-27T07:35:21.0000000+00:00</time></trkpt><trkpt lat="22.147163" lon="104.333153"><ele>188.0</ele><time>2011-04-27T07:35:26.0000000+00:00</time></trkpt><trkpt lat="22.147163" lon="104.33316"><ele>188.0</ele><time>2011-04-27T07:35:31.0000000+00:00</time></trkpt><trkpt lat="22.147163" lon="104.33316"><ele>188.0</ele><time>2011-04-27T07:35:36.0000000+00:00</time></trkpt><trkpt lat="22.147163" lon="104.33316"><ele>187.9</ele><time>2011-04-27T07:35:41.0000000+00:00</time></trkpt><trkpt lat="22.14716" lon="104.333168"><ele>187.9</ele><time>2011-04-27T07:35:46.0000000+00:00</time></trkpt><trkpt lat="22.147158" lon="104.333168"><ele>187.9</ele><time>2011-04-27T07:35:51.0000000+00:00</time></trkpt><trkpt lat="22.147158" lon="104.333176"><ele>187.8</ele><time>2011-04-27T07:35:56.0000000+00:00</time></trkpt><trkpt lat="22.147171" lon="104.333191"><ele>187.6</ele><time>2011-04-27T07:36:01.0000000+00:00</time></trkpt><trkpt lat="22.147203" lon="104.333229"><ele>186.7</ele><time>2011-04-27T07:36:06.0000000+00:00</time></trkpt><trkpt lat="22.147261" lon="104.33329"><ele>185.1</ele><time>2011-04-27T07:36:11.0000000+00:00</time></trkpt><trkpt lat="22.14739" lon="104.333382"><ele>184.7</ele><time>2011-04-27T07:36:16.0000000+00:00</time></trkpt><trkpt lat="22.147596" lon="104.333443"><ele>184.6</ele><time>2011-04-27T07:36:21.0000000+00:00</time></trkpt><trkpt lat="22.14784" lon="104.333458"><ele>183.2</ele><time>2011-04-27T07:36:26.0000000+00:00</time></trkpt><trkpt lat="22.148077" lon="104.333527"><ele>180.3</ele><time>2011-04-27T07:36:31.0000000+00:00</time></trkpt><trkpt lat="22.148228" lon="104.333786"><ele>175.7</ele><time>2011-04-27T07:36:36.0000000+00:00</time></trkpt><trkpt lat="22.148376" lon="104.334091"><ele>171.9</ele><time>2011-04-27T07:36:41.0000000+00:00</time></trkpt><trkpt lat="22.148447" lon="104.334419"><ele>165.8</ele><time>2011-04-27T07:36:46.0000000+00:00</time></trkpt><trkpt lat="22.1485" lon="104.33474"><ele>163.0</ele><time>2011-04-27T07:36:51.0000000+00:00</time></trkpt><trkpt lat="22.148548" lon="104.335052"><ele>162.4</ele><time>2011-04-27T07:36:56.0000000+00:00</time></trkpt><trkpt lat="22.148525" lon="104.335358"><ele>160.3</ele><time>2011-04-27T07:37:01.0000000+00:00</time></trkpt><trkpt lat="22.148531" lon="104.335686"><ele>157.6</ele><time>2011-04-27T07:37:06.0000000+00:00</time></trkpt><trkpt lat="22.148561" lon="104.336029"><ele>155.2</ele><time>2011-04-27T07:37:11.0000000+00:00</time></trkpt><trkpt lat="22.148647" lon="104.33638"><ele>151.3</ele><time>2011-04-27T07:37:16.0000000+00:00</time></trkpt><trkpt lat="22.148853" lon="104.336754"><ele>151.0</ele><time>2011-04-27T07:37:21.0000000+00:00</time></trkpt><trkpt lat="22.148968" lon="104.337044"><ele>150.7</ele><time>2011-04-27T07:37:26.0000000+00:00</time></trkpt><trkpt lat="22.149012" lon="104.337303"><ele>150.5</ele><time>2011-04-27T07:37:31.0000000+00:00</time></trkpt><trkpt lat="22.149033" lon="104.337532"><ele>149.8</ele><time>2011-04-27T07:37:36.0000000+00:00</time></trkpt><trkpt lat="22.149124" lon="104.33773"><ele>147.8</ele><time>2011-04-27T07:37:41.0000000+00:00</time></trkpt><trkpt lat="22.149273" lon="104.337898"><ele>148.3</ele><time>2011-04-27T07:37:46.0000000+00:00</time></trkpt><trkpt lat="22.149387" lon="104.338158"><ele>146.9</ele><time>2011-04-27T07:37:51.0000000+00:00</time></trkpt><trkpt lat="22.149456" lon="104.338509"><ele>141.4</ele><time>2011-04-27T07:37:56.0000000+00:00</time></trkpt><trkpt lat="22.149475" lon="104.338814"><ele>138.6</ele><time>2011-04-27T07:38:01.0000000+00:00</time></trkpt><trkpt lat="22.149475" lon="104.339066"><ele>135.5</ele><time>2011-04-27T07:38:06.0000000+00:00</time></trkpt><trkpt lat="22.149412" lon="104.339386"><ele>133.2</ele><time>2011-04-27T07:38:11.0000000+00:00</time></trkpt><trkpt lat="22.149506" lon="104.339783"><ele>126.9</ele><time>2011-04-27T07:38:16.0000000+00:00</time></trkpt><trkpt lat="22.149689" lon="104.340195"><ele>121.4</ele><time>2011-04-27T07:38:21.0000000+00:00</time></trkpt><trkpt lat="22.150068" lon="104.340324"><ele>118.5</ele><time>2011-04-27T07:38:26.0000000+00:00</time></trkpt><trkpt lat="22.150343" lon="104.340508"><ele>112.4</ele><time>2011-04-27T07:38:31.0000000+00:00</time></trkpt><trkpt lat="22.150267" lon="104.340858"><ele>110.0</ele><time>2011-04-27T07:38:36.0000000+00:00</time></trkpt><trkpt lat="22.150137" lon="104.341095"><ele>109.4</ele><time>2011-04-27T07:38:41.0000000+00:00</time></trkpt><trkpt lat="22.150072" lon="104.341331"><ele>106.5</ele><time>2011-04-27T07:38:46.0000000+00:00</time></trkpt><trkpt lat="22.150072" lon="104.341438"><ele>105.9</ele><time>2011-04-27T07:38:51.0000000+00:00</time></trkpt><trkpt lat="22.150057" lon="104.341492"><ele>106.0</ele><time>2011-04-27T07:38:56.0000000+00:00</time></trkpt><trkpt lat="22.150051" lon="104.341484"><ele>105.3</ele><time>2011-04-27T07:39:01.0000000+00:00</time></trkpt><trkpt lat="22.150051" lon="104.341484"><ele>105.2</ele><time>2011-04-27T07:39:06.0000000+00:00</time></trkpt><trkpt lat="22.150053" lon="104.341484"><ele>105.2</ele><time>2011-04-27T07:39:11.0000000+00:00</time></trkpt><trkpt lat="22.150055" lon="104.341492"><ele>105.2</ele><time>2011-04-27T07:39:16.0000000+00:00</time></trkpt><trkpt lat="22.150057" lon="104.341492"><ele>105.3</ele><time>2011-04-27T07:39:21.0000000+00:00</time></trkpt><trkpt lat="22.150053" lon="104.341492"><ele>105.3</ele><time>2011-04-27T07:39:26.0000000+00:00</time></trkpt><trkpt lat="22.150049" lon="104.341499"><ele>105.3</ele><time>2011-04-27T07:39:31.0000000+00:00</time></trkpt><trkpt lat="22.150045" lon="104.341499"><ele>105.3</ele><time>2011-04-27T07:39:36.0000000+00:00</time></trkpt><trkpt lat="22.15004" lon="104.341492"><ele>105.3</ele><time>2011-04-27T07:39:41.0000000+00:00</time></trkpt><trkpt lat="22.150042" lon="104.341492"><ele>105.3</ele><time>2011-04-27T07:39:46.0000000+00:00</time></trkpt><trkpt lat="22.15003" lon="104.341499"><ele>105.1</ele><time>2011-04-27T07:39:51.0000000+00:00</time></trkpt><trkpt lat="22.150049" lon="104.34166"><ele>104.1</ele><time>2011-04-27T07:39:56.0000000+00:00</time></trkpt><trkpt lat="22.150156" lon="104.341835"><ele>104.9</ele><time>2011-04-27T07:40:01.0000000+00:00</time></trkpt><trkpt lat="22.150267" lon="104.341995"><ele>103.4</ele><time>2011-04-27T07:40:06.0000000+00:00</time></trkpt><trkpt lat="22.150373" lon="104.342125"><ele>101.1</ele><time>2011-04-27T07:40:11.0000000+00:00</time></trkpt><trkpt lat="22.150488" lon="104.342239"><ele>101.6</ele><time>2011-04-27T07:40:16.0000000+00:00</time></trkpt><trkpt lat="22.150618" lon="104.342339"><ele>99.3</ele><time>2011-04-27T07:40:21.0000000+00:00</time></trkpt><trkpt lat="22.150743" lon="104.342438"><ele>99.0</ele><time>2011-04-27T07:40:26.0000000+00:00</time></trkpt><trkpt lat="22.15077" lon="104.342636"><ele>96.7</ele><time>2011-04-27T07:40:31.0000000+00:00</time></trkpt><trkpt lat="22.150785" lon="104.342865"><ele>94.6</ele><time>2011-04-27T07:40:36.0000000+00:00</time></trkpt><trkpt lat="22.150831" lon="104.343086"><ele>91.5</ele><time>2011-04-27T07:40:41.0000000+00:00</time></trkpt><trkpt lat="22.150919" lon="104.343292"><ele>92.5</ele><time>2011-04-27T07:40:46.0000000+00:00</time></trkpt><trkpt lat="22.151033" lon="104.343491"><ele>91.8</ele><time>2011-04-27T07:40:51.0000000+00:00</time></trkpt><trkpt lat="22.151154" lon="104.343727"><ele>90.2</ele><time>2011-04-27T07:40:56.0000000+00:00</time></trkpt><trkpt lat="22.15126" lon="104.343994"><ele>89.4</ele><time>2011-04-27T07:41:01.0000000+00:00</time></trkpt><trkpt lat="22.151329" lon="104.344154"><ele>90.2</ele><time>2011-04-27T07:41:06.0000000+00:00</time></trkpt><trkpt lat="22.151382" lon="104.344238"><ele>88.7</ele><time>2011-04-27T07:41:11.0000000+00:00</time></trkpt><trkpt lat="22.151423" lon="104.344292"><ele>89.6</ele><time>2011-04-27T07:41:16.0000000+00:00</time></trkpt><trkpt lat="22.151442" lon="104.344292"><ele>88.5</ele><time>2011-04-27T07:41:21.0000000+00:00</time></trkpt><trkpt lat="22.15144" lon="104.344292"><ele>88.4</ele><time>2011-04-27T07:41:26.0000000+00:00</time></trkpt><trkpt lat="22.151442" lon="104.344292"><ele>88.4</ele><time>2011-04-27T07:41:31.0000000+00:00</time></trkpt><trkpt lat="22.151442" lon="104.344292"><ele>88.4</ele><time>2011-04-27T07:41:36.0000000+00:00</time></trkpt><trkpt lat="22.151442" lon="104.344292"><ele>88.4</ele><time>2011-04-27T07:41:41.0000000+00:00</time></trkpt><trkpt lat="22.151442" lon="104.344292"><ele>88.3</ele><time>2011-04-27T07:41:46.0000000+00:00</time></trkpt><trkpt lat="22.151442" lon="104.344292"><ele>88.3</ele><time>2011-04-27T07:41:51.0000000+00:00</time></trkpt><trkpt lat="22.151442" lon="104.344292"><ele>88.2</ele><time>2011-04-27T07:41:56.0000000+00:00</time></trkpt><trkpt lat="22.15144" lon="104.344292"><ele>88.2</ele><time>2011-04-27T07:42:01.0000000+00:00</time></trkpt><trkpt lat="22.15144" lon="104.344292"><ele>88.2</ele><time>2011-04-27T07:42:06.0000000+00:00</time></trkpt><trkpt lat="22.15144" lon="104.344292"><ele>88.2</ele><time>2011-04-27T07:42:11.0000000+00:00</time></trkpt><trkpt lat="22.15144" lon="104.344292"><ele>88.3</ele><time>2011-04-27T07:42:16.0000000+00:00</time></trkpt><trkpt lat="22.15144" lon="104.344292"><ele>88.3</ele><time>2011-04-27T07:42:21.0000000+00:00</time></trkpt><trkpt lat="22.15144" lon="104.344292"><ele>88.3</ele><time>2011-04-27T07:42:26.0000000+00:00</time></trkpt><trkpt lat="22.15144" lon="104.344292"><ele>88.3</ele><time>2011-04-27T07:42:31.0000000+00:00</time></trkpt><trkpt lat="22.15144" lon="104.344292"><ele>88.3</ele><time>2011-04-27T07:42:36.0000000+00:00</time></trkpt><trkpt lat="22.15144" lon="104.344292"><ele>88.3</ele><time>2011-04-27T07:42:41.0000000+00:00</time></trkpt><trkpt lat="22.151438" lon="104.344307"><ele>88.3</ele><time>2011-04-27T07:42:46.0000000+00:00</time></trkpt><trkpt lat="22.151449" lon="104.344406"><ele>87.8</ele><time>2011-04-27T07:42:51.0000000+00:00</time></trkpt><trkpt lat="22.151484" lon="104.344513"><ele>88.4</ele><time>2011-04-27T07:42:56.0000000+00:00</time></trkpt><trkpt lat="22.151524" lon="104.344635"><ele>89.6</ele><time>2011-04-27T07:43:01.0000000+00:00</time></trkpt><trkpt lat="22.151569" lon="104.344742"><ele>89.9</ele><time>2011-04-27T07:43:06.0000000+00:00</time></trkpt><trkpt lat="22.151608" lon="104.344856"><ele>89.9</ele><time>2011-04-27T07:43:11.0000000+00:00</time></trkpt><trkpt lat="22.151642" lon="104.344948"><ele>90.2</ele><time>2011-04-27T07:43:16.0000000+00:00</time></trkpt><trkpt lat="22.151676" lon="104.345016"><ele>91.0</ele><time>2011-04-27T07:43:21.0000000+00:00</time></trkpt><trkpt lat="22.151682" lon="104.345039"><ele>91.5</ele><time>2011-04-27T07:43:26.0000000+00:00</time></trkpt><trkpt lat="22.151684" lon="104.345039"><ele>91.5</ele><time>2011-04-27T07:43:31.0000000+00:00</time></trkpt><trkpt lat="22.151682" lon="104.345047"><ele>91.6</ele><time>2011-04-27T07:43:36.0000000+00:00</time></trkpt><trkpt lat="22.151684" lon="104.345047"><ele>91.6</ele><time>2011-04-27T07:43:41.0000000+00:00</time></trkpt><trkpt lat="22.151682" lon="104.345047"><ele>91.6</ele><time>2011-04-27T07:43:46.0000000+00:00</time></trkpt><trkpt lat="22.151684" lon="104.345047"><ele>91.6</ele><time>2011-04-27T07:43:51.0000000+00:00</time></trkpt><trkpt lat="22.151688" lon="104.345047"><ele>91.6</ele><time>2011-04-27T07:43:56.0000000+00:00</time></trkpt><trkpt lat="22.15169" lon="104.345047"><ele>91.6</ele><time>2011-04-27T07:44:01.0000000+00:00</time></trkpt><trkpt lat="22.151693" lon="104.345047"><ele>91.6</ele><time>2011-04-27T07:44:06.0000000+00:00</time></trkpt><trkpt lat="22.151695" lon="104.345047"><ele>91.6</ele><time>2011-04-27T07:44:11.0000000+00:00</time></trkpt><trkpt lat="22.151695" lon="104.345047"><ele>91.5</ele><time>2011-04-27T07:44:16.0000000+00:00</time></trkpt><trkpt lat="22.151695" lon="104.345078"><ele>91.8</ele><time>2011-04-27T07:44:21.0000000+00:00</time></trkpt><trkpt lat="22.151724" lon="104.345177"><ele>92.0</ele><time>2011-04-27T07:44:26.0000000+00:00</time></trkpt><trkpt lat="22.151785" lon="104.345314"><ele>92.4</ele><time>2011-04-27T07:44:31.0000000+00:00</time></trkpt><trkpt lat="22.151846" lon="104.345428"><ele>92.5</ele><time>2011-04-27T07:44:36.0000000+00:00</time></trkpt><trkpt lat="22.151894" lon="104.345558"><ele>92.9</ele><time>2011-04-27T07:44:41.0000000+00:00</time></trkpt><trkpt lat="22.151943" lon="104.345673"><ele>93.3</ele><time>2011-04-27T07:44:46.0000000+00:00</time></trkpt><trkpt lat="22.152029" lon="104.345802"><ele>92.0</ele><time>2011-04-27T07:44:51.0000000+00:00</time></trkpt><trkpt lat="22.152149" lon="104.345909"><ele>91.1</ele><time>2011-04-27T07:44:56.0000000+00:00</time></trkpt><trkpt lat="22.152281" lon="104.34597"><ele>88.4</ele><time>2011-04-27T07:45:01.0000000+00:00</time></trkpt><trkpt lat="22.152365" lon="104.345993"><ele>88.0</ele><time>2011-04-27T07:45:06.0000000+00:00</time></trkpt><trkpt lat="22.152493" lon="104.346016"><ele>86.3</ele><time>2011-04-27T07:45:11.0000000+00:00</time></trkpt><trkpt lat="22.152678" lon="104.346046"><ele>85.6</ele><time>2011-04-27T07:45:16.0000000+00:00</time></trkpt><trkpt lat="22.152855" lon="104.346069"><ele>84.3</ele><time>2011-04-27T07:45:21.0000000+00:00</time></trkpt><trkpt lat="22.152988" lon="104.346069"><ele>81.6</ele><time>2011-04-27T07:45:26.0000000+00:00</time></trkpt><trkpt lat="22.153101" lon="104.346077"><ele>82.3</ele><time>2011-04-27T07:45:31.0000000+00:00</time></trkpt><trkpt lat="22.153198" lon="104.346069"><ele>83.7</ele><time>2011-04-27T07:45:36.0000000+00:00</time></trkpt><trkpt lat="22.153286" lon="104.346077"><ele>79.1</ele><time>2011-04-27T07:45:41.0000000+00:00</time></trkpt><trkpt lat="22.153358" lon="104.346069"><ele>73.3</ele><time>2011-04-27T07:45:46.0000000+00:00</time></trkpt><trkpt lat="22.153418" lon="104.346077"><ele>72.6</ele><time>2011-04-27T07:45:51.0000000+00:00</time></trkpt><trkpt lat="22.153484" lon="104.346077"><ele>74.0</ele><time>2011-04-27T07:45:56.0000000+00:00</time></trkpt><trkpt lat="22.153557" lon="104.3461"><ele>74.6</ele><time>2011-04-27T07:46:01.0000000+00:00</time></trkpt><trkpt lat="22.153625" lon="104.346169"><ele>77.3</ele><time>2011-04-27T07:46:06.0000000+00:00</time></trkpt><trkpt lat="22.153715" lon="104.346184"><ele>77.5</ele><time>2011-04-27T07:46:11.0000000+00:00</time></trkpt><trkpt lat="22.153835" lon="104.346161"><ele>75.9</ele><time>2011-04-27T07:46:16.0000000+00:00</time></trkpt><trkpt lat="22.153919" lon="104.346207"><ele>79.3</ele><time>2011-04-27T07:46:21.0000000+00:00</time></trkpt><trkpt lat="22.154013" lon="104.34623"><ele>79.7</ele><time>2011-04-27T07:46:26.0000000+00:00</time></trkpt><trkpt lat="22.154114" lon="104.34626"><ele>80.9</ele><time>2011-04-27T07:46:31.0000000+00:00</time></trkpt><trkpt lat="22.154203" lon="104.346283"><ele>82.9</ele><time>2011-04-27T07:46:36.0000000+00:00</time></trkpt><trkpt lat="22.154312" lon="104.346313"><ele>85.4</ele><time>2011-04-27T07:46:41.0000000+00:00</time></trkpt><trkpt lat="22.154398" lon="104.346329"><ele>85.9</ele><time>2011-04-27T07:46:46.0000000+00:00</time></trkpt><trkpt lat="22.154476" lon="104.346367"><ele>85.6</ele><time>2011-04-27T07:46:51.0000000+00:00</time></trkpt><trkpt lat="22.154547" lon="104.346375"><ele>87.1</ele><time>2011-04-27T07:46:56.0000000+00:00</time></trkpt><trkpt lat="22.154623" lon="104.346405"><ele>89.8</ele><time>2011-04-27T07:47:01.0000000+00:00</time></trkpt><trkpt lat="22.154697" lon="104.346413"><ele>91.5</ele><time>2011-04-27T07:47:06.0000000+00:00</time></trkpt><trkpt lat="22.154764" lon="104.34642"><ele>93.1</ele><time>2011-04-27T07:47:11.0000000+00:00</time></trkpt><trkpt lat="22.154831" lon="104.346413"><ele>95.7</ele><time>2011-04-27T07:47:16.0000000+00:00</time></trkpt><trkpt lat="22.154915" lon="104.346428"><ele>98.6</ele><time>2011-04-27T07:47:21.0000000+00:00</time></trkpt><trkpt lat="22.155033" lon="104.346428"><ele>102.1</ele><time>2011-04-27T07:47:26.0000000+00:00</time></trkpt><trkpt lat="22.155073" lon="104.346413"><ele>101.4</ele><time>2011-04-27T07:47:31.0000000+00:00</time></trkpt><trkpt lat="22.155148" lon="104.34642"><ele>101.4</ele><time>2011-04-27T07:47:36.0000000+00:00</time></trkpt><trkpt lat="22.155252" lon="104.346458"><ele>102.1</ele><time>2011-04-27T07:47:41.0000000+00:00</time></trkpt><trkpt lat="22.155312" lon="104.346466"><ele>100.4</ele><time>2011-04-27T07:47:46.0000000+00:00</time></trkpt><trkpt lat="22.155369" lon="104.346458"><ele>102.5</ele><time>2011-04-27T07:47:51.0000000+00:00</time></trkpt><trkpt lat="22.155441" lon="104.346481"><ele>101.7</ele><time>2011-04-27T07:47:56.0000000+00:00</time></trkpt><trkpt lat="22.155521" lon="104.346519"><ele>100.4</ele><time>2011-04-27T07:48:01.0000000+00:00</time></trkpt><trkpt lat="22.155577" lon="104.346497"><ele>99.8</ele><time>2011-04-27T07:48:06.0000000+00:00</time></trkpt><trkpt lat="22.155643" lon="104.346504"><ele>98.6</ele><time>2011-04-27T07:48:11.0000000+00:00</time></trkpt><trkpt lat="22.155695" lon="104.346504"><ele>98.2</ele><time>2011-04-27T07:48:16.0000000+00:00</time></trkpt><trkpt lat="22.155764" lon="104.346497"><ele>99.6</ele><time>2011-04-27T07:48:21.0000000+00:00</time></trkpt><trkpt lat="22.15583" lon="104.346443"><ele>101.6</ele><time>2011-04-27T07:48:26.0000000+00:00</time></trkpt><trkpt lat="22.155909" lon="104.346443"><ele>101.8</ele><time>2011-04-27T07:48:31.0000000+00:00</time></trkpt><trkpt lat="22.155972" lon="104.346451"><ele>102.3</ele><time>2011-04-27T07:48:36.0000000+00:00</time></trkpt><trkpt lat="22.155983" lon="104.346436"><ele>100.5</ele><time>2011-04-27T07:48:41.0000000+00:00</time></trkpt><trkpt lat="22.155981" lon="104.346443"><ele>100.3</ele><time>2011-04-27T07:48:46.0000000+00:00</time></trkpt><trkpt lat="22.155979" lon="104.346451"><ele>100.2</ele><time>2011-04-27T07:48:51.0000000+00:00</time></trkpt><trkpt lat="22.155981" lon="104.346443"><ele>100.0</ele><time>2011-04-27T07:48:56.0000000+00:00</time></trkpt><trkpt lat="22.155977" lon="104.346436"><ele>99.9</ele><time>2011-04-27T07:49:01.0000000+00:00</time></trkpt><trkpt lat="22.155981" lon="104.346428"><ele>99.1</ele><time>2011-04-27T07:49:06.0000000+00:00</time></trkpt><trkpt lat="22.155977" lon="104.34642"><ele>99.2</ele><time>2011-04-27T07:49:11.0000000+00:00</time></trkpt><trkpt lat="22.155968" lon="104.346405"><ele>99.2</ele><time>2011-04-27T07:49:16.0000000+00:00</time></trkpt><trkpt lat="22.155962" lon="104.346382"><ele>99.7</ele><time>2011-04-27T07:49:21.0000000+00:00</time></trkpt><trkpt lat="22.15596" lon="104.346375"><ele>99.8</ele><time>2011-04-27T07:49:26.0000000+00:00</time></trkpt><trkpt lat="22.155962" lon="104.346359"><ele>99.9</ele><time>2011-04-27T07:49:31.0000000+00:00</time></trkpt><trkpt lat="22.155994" lon="104.34642"><ele>100.5</ele><time>2011-04-27T07:49:36.0000000+00:00</time></trkpt><trkpt lat="22.15601" lon="104.346428"><ele>100.4</ele><time>2011-04-27T07:49:41.0000000+00:00</time></trkpt><trkpt lat="22.156015" lon="104.346436"><ele>100.5</ele><time>2011-04-27T07:49:46.0000000+00:00</time></trkpt><trkpt lat="22.156021" lon="104.346436"><ele>100.7</ele><time>2011-04-27T07:49:51.0000000+00:00</time></trkpt><trkpt lat="22.156027" lon="104.346443"><ele>100.9</ele><time>2011-04-27T07:49:56.0000000+00:00</time></trkpt><trkpt lat="22.156033" lon="104.346443"><ele>101.0</ele><time>2011-04-27T07:50:01.0000000+00:00</time></trkpt><trkpt lat="22.156036" lon="104.346451"><ele>101.1</ele><time>2011-04-27T07:50:06.0000000+00:00</time></trkpt><trkpt lat="22.15604" lon="104.346458"><ele>101.2</ele><time>2011-04-27T07:50:11.0000000+00:00</time></trkpt><trkpt lat="22.156046" lon="104.346458"><ele>101.3</ele><time>2011-04-27T07:50:16.0000000+00:00</time></trkpt><trkpt lat="22.156048" lon="104.346458"><ele>101.4</ele><time>2011-04-27T07:50:21.0000000+00:00</time></trkpt><trkpt lat="22.156048" lon="104.346466"><ele>101.5</ele><time>2011-04-27T07:50:26.0000000+00:00</time></trkpt><trkpt lat="22.156048" lon="104.346466"><ele>101.6</ele><time>2011-04-27T07:50:31.0000000+00:00</time></trkpt><trkpt lat="22.15605" lon="104.346458"><ele>101.7</ele><time>2011-04-27T07:50:36.0000000+00:00</time></trkpt><trkpt lat="22.156054" lon="104.346443"><ele>100.6</ele><time>2011-04-27T07:50:41.0000000+00:00</time></trkpt><trkpt lat="22.156057" lon="104.346436"><ele>99.1</ele><time>2011-04-27T07:50:46.0000000+00:00</time></trkpt><trkpt lat="22.156065" lon="104.34642"><ele>99.0</ele><time>2011-04-27T07:50:51.0000000+00:00</time></trkpt><trkpt lat="22.156084" lon="104.346397"><ele>97.0</ele><time>2011-04-27T07:50:56.0000000+00:00</time></trkpt><trkpt lat="22.156088" lon="104.346375"><ele>95.8</ele><time>2011-04-27T07:51:01.0000000+00:00</time></trkpt><trkpt lat="22.156101" lon="104.346375"><ele>94.5</ele><time>2011-04-27T07:51:06.0000000+00:00</time></trkpt><trkpt lat="22.156103" lon="104.346367"><ele>94.4</ele><time>2011-04-27T07:51:11.0000000+00:00</time></trkpt><trkpt lat="22.156107" lon="104.346359"><ele>94.2</ele><time>2011-04-27T07:51:16.0000000+00:00</time></trkpt><trkpt lat="22.156155" lon="104.346344"><ele>90.3</ele><time>2011-04-27T07:51:21.0000000+00:00</time></trkpt><trkpt lat="22.15625" lon="104.34626"><ele>87.9</ele><time>2011-04-27T07:51:26.0000000+00:00</time></trkpt><trkpt lat="22.156307" lon="104.346222"><ele>84.9</ele><time>2011-04-27T07:51:31.0000000+00:00</time></trkpt><trkpt lat="22.156378" lon="104.346176"><ele>84.3</ele><time>2011-04-27T07:51:36.0000000+00:00</time></trkpt><trkpt lat="22.156481" lon="104.346039"><ele>81.4</ele><time>2011-04-27T07:51:41.0000000+00:00</time></trkpt><trkpt lat="22.156651" lon="104.345879"><ele>76.4</ele><time>2011-04-27T07:51:46.0000000+00:00</time></trkpt><trkpt lat="22.156881" lon="104.345695"><ele>70.1</ele><time>2011-04-27T07:51:51.0000000+00:00</time></trkpt><trkpt lat="22.157156" lon="104.345497"><ele>67.8</ele><time>2011-04-27T07:51:56.0000000+00:00</time></trkpt><trkpt lat="22.157457" lon="104.345253"><ele>65.8</ele><time>2011-04-27T07:52:01.0000000+00:00</time></trkpt><trkpt lat="22.157747" lon="104.344963"><ele>67.6</ele><time>2011-04-27T07:52:06.0000000+00:00</time></trkpt><trkpt lat="22.15799" lon="104.344849"><ele>67.9</ele><time>2011-04-27T07:52:11.0000000+00:00</time></trkpt><trkpt lat="22.158152" lon="104.344795"><ele>69.9</ele><time>2011-04-27T07:52:16.0000000+00:00</time></trkpt><trkpt lat="22.158278" lon="104.344765"><ele>72.9</ele><time>2011-04-27T07:52:21.0000000+00:00</time></trkpt><trkpt lat="22.158386" lon="104.344635"><ele>77.1</ele><time>2011-04-27T07:52:26.0000000+00:00</time></trkpt><trkpt lat="22.158461" lon="104.344604"><ele>78.3</ele><time>2011-04-27T07:52:31.0000000+00:00</time></trkpt><trkpt lat="22.15855" lon="104.344604"><ele>81.2</ele><time>2011-04-27T07:52:36.0000000+00:00</time></trkpt><trkpt lat="22.158649" lon="104.344597"><ele>82.7</ele><time>2011-04-27T07:52:41.0000000+00:00</time></trkpt><trkpt lat="22.158785" lon="104.344574"><ele>86.9</ele><time>2011-04-27T07:52:46.0000000+00:00</time></trkpt><trkpt lat="22.15889" lon="104.344582"><ele>92.3</ele><time>2011-04-27T07:52:51.0000000+00:00</time></trkpt><trkpt lat="22.159008" lon="104.344574"><ele>91.4</ele><time>2011-04-27T07:52:56.0000000+00:00</time></trkpt><trkpt lat="22.159138" lon="104.344604"><ele>99.7</ele><time>2011-04-27T07:53:01.0000000+00:00</time></trkpt><trkpt lat="22.159258" lon="104.344627"><ele>99.1</ele><time>2011-04-27T07:53:06.0000000+00:00</time></trkpt><trkpt lat="22.159338" lon="104.34462"><ele>93.7</ele><time>2011-04-27T07:53:11.0000000+00:00</time></trkpt><trkpt lat="22.159399" lon="104.344643"><ele>90.2</ele><time>2011-04-27T07:53:16.0000000+00:00</time></trkpt><trkpt lat="22.159548" lon="104.344688"><ele>87.5</ele><time>2011-04-27T07:53:21.0000000+00:00</time></trkpt><trkpt lat="22.159718" lon="104.344818"><ele>84.7</ele><time>2011-04-27T07:53:26.0000000+00:00</time></trkpt><trkpt lat="22.159914" lon="104.344963"><ele>79.7</ele><time>2011-04-27T07:53:31.0000000+00:00</time></trkpt><trkpt lat="22.160158" lon="104.345169"><ele>76.1</ele><time>2011-04-27T07:53:36.0000000+00:00</time></trkpt><trkpt lat="22.160439" lon="104.345367"><ele>73.4</ele><time>2011-04-27T07:53:41.0000000+00:00</time></trkpt><trkpt lat="22.160728" lon="104.34552"><ele>70.6</ele><time>2011-04-27T07:53:46.0000000+00:00</time></trkpt><trkpt lat="22.161003" lon="104.345703"><ele>67.3</ele><time>2011-04-27T07:53:51.0000000+00:00</time></trkpt><trkpt lat="22.161161" lon="104.345909"><ele>65.8</ele><time>2011-04-27T07:53:56.0000000+00:00</time></trkpt><trkpt lat="22.161255" lon="104.346107"><ele>66.3</ele><time>2011-04-27T07:54:01.0000000+00:00</time></trkpt><trkpt lat="22.161297" lon="104.346291"><ele>67.4</ele><time>2011-04-27T07:54:06.0000000+00:00</time></trkpt><trkpt lat="22.161371" lon="104.346497"><ele>65.4</ele><time>2011-04-27T07:54:11.0000000+00:00</time></trkpt><trkpt lat="22.161438" lon="104.34668"><ele>61.8</ele><time>2011-04-27T07:54:16.0000000+00:00</time></trkpt><trkpt lat="22.161499" lon="104.346909"><ele>63.9</ele><time>2011-04-27T07:54:21.0000000+00:00</time></trkpt><trkpt lat="22.161562" lon="104.347145"><ele>66.2</ele><time>2011-04-27T07:54:26.0000000+00:00</time></trkpt><trkpt lat="22.161648" lon="104.347382"><ele>63.5</ele><time>2011-04-27T07:54:31.0000000+00:00</time></trkpt><trkpt lat="22.161736" lon="104.347588"><ele>65.3</ele><time>2011-04-27T07:54:36.0000000+00:00</time></trkpt><trkpt lat="22.161833" lon="104.347816"><ele>69.1</ele><time>2011-04-27T07:54:41.0000000+00:00</time></trkpt><trkpt lat="22.161922" lon="104.347992"><ele>71.0</ele><time>2011-04-27T07:54:46.0000000+00:00</time></trkpt><trkpt lat="22.162018" lon="104.34819"><ele>73.5</ele><time>2011-04-27T07:54:51.0000000+00:00</time></trkpt><trkpt lat="22.162123" lon="104.348473"><ele>71.5</ele><time>2011-04-27T07:54:56.0000000+00:00</time></trkpt><trkpt lat="22.162275" lon="104.348831"><ele>71.6</ele><time>2011-04-27T07:55:01.0000000+00:00</time></trkpt><trkpt lat="22.162457" lon="104.349098"><ele>66.4</ele><time>2011-04-27T07:55:06.0000000+00:00</time></trkpt><trkpt lat="22.162598" lon="104.349266"><ele>62.9</ele><time>2011-04-27T07:55:11.0000000+00:00</time></trkpt><trkpt lat="22.162727" lon="104.349472"><ele>63.7</ele><time>2011-04-27T07:55:16.0000000+00:00</time></trkpt><trkpt lat="22.162855" lon="104.349693"><ele>64.7</ele><time>2011-04-27T07:55:21.0000000+00:00</time></trkpt><trkpt lat="22.162994" lon="104.349915"><ele>64.3</ele><time>2011-04-27T07:55:26.0000000+00:00</time></trkpt><trkpt lat="22.163145" lon="104.350121"><ele>63.5</ele><time>2011-04-27T07:55:31.0000000+00:00</time></trkpt><trkpt lat="22.1633" lon="104.350349"><ele>63.7</ele><time>2011-04-27T07:55:36.0000000+00:00</time></trkpt><trkpt lat="22.163469" lon="104.350548"><ele>66.5</ele><time>2011-04-27T07:55:41.0000000+00:00</time></trkpt><trkpt lat="22.163631" lon="104.3507"><ele>68.3</ele><time>2011-04-27T07:55:46.0000000+00:00</time></trkpt><trkpt lat="22.163799" lon="104.350876"><ele>73.5</ele><time>2011-04-27T07:55:51.0000000+00:00</time></trkpt><trkpt lat="22.163969" lon="104.351051"><ele>73.1</ele><time>2011-04-27T07:55:56.0000000+00:00</time></trkpt><trkpt lat="22.164152" lon="104.351219"><ele>72.9</ele><time>2011-04-27T07:56:01.0000000+00:00</time></trkpt><trkpt lat="22.164312" lon="104.351395"><ele>72.7</ele><time>2011-04-27T07:56:06.0000000+00:00</time></trkpt><trkpt lat="22.16449" lon="104.351578"><ele>72.8</ele><time>2011-04-27T07:56:11.0000000+00:00</time></trkpt><trkpt lat="22.164679" lon="104.351746"><ele>73.3</ele><time>2011-04-27T07:56:16.0000000+00:00</time></trkpt><trkpt lat="22.164831" lon="104.351891"><ele>78.0</ele><time>2011-04-27T07:56:21.0000000+00:00</time></trkpt><trkpt lat="22.164946" lon="104.352058"><ele>79.1</ele><time>2011-04-27T07:56:26.0000000+00:00</time></trkpt><trkpt lat="22.165071" lon="104.352234"><ele>78.1</ele><time>2011-04-27T07:56:31.0000000+00:00</time></trkpt><trkpt lat="22.165184" lon="104.35244"><ele>77.6</ele><time>2011-04-27T07:56:36.0000000+00:00</time></trkpt><trkpt lat="22.1653" lon="104.352669"><ele>74.0</ele><time>2011-04-27T07:56:41.0000000+00:00</time></trkpt><trkpt lat="22.165451" lon="104.352844"><ele>72.2</ele><time>2011-04-27T07:56:46.0000000+00:00</time></trkpt><trkpt lat="22.165583" lon="104.35302"><ele>68.1</ele><time>2011-04-27T07:56:51.0000000+00:00</time></trkpt><trkpt lat="22.165724" lon="104.35318"><ele>64.4</ele><time>2011-04-27T07:56:56.0000000+00:00</time></trkpt><trkpt lat="22.165892" lon="104.353386"><ele>62.3</ele><time>2011-04-27T07:57:01.0000000+00:00</time></trkpt><trkpt lat="22.166031" lon="104.353615"><ele>63.9</ele><time>2011-04-27T07:57:06.0000000+00:00</time></trkpt><trkpt lat="22.166166" lon="104.353813"><ele>66.9</ele><time>2011-04-27T07:57:11.0000000+00:00</time></trkpt><trkpt lat="22.166302" lon="104.353905"><ele>69.7</ele><time>2011-04-27T07:57:16.0000000+00:00</time></trkpt><trkpt lat="22.166468" lon="104.354004"><ele>70.4</ele><time>2011-04-27T07:57:21.0000000+00:00</time></trkpt><trkpt lat="22.166639" lon="104.354118"><ele>72.1</ele><time>2011-04-27T07:57:26.0000000+00:00</time></trkpt><trkpt lat="22.166765" lon="104.354202"><ele>73.7</ele><time>2011-04-27T07:57:31.0000000+00:00</time></trkpt><trkpt lat="22.166901" lon="104.354317"><ele>75.4</ele><time>2011-04-27T07:57:36.0000000+00:00</time></trkpt><trkpt lat="22.167032" lon="104.354416"><ele>77.2</ele><time>2011-04-27T07:57:41.0000000+00:00</time></trkpt><trkpt lat="22.167154" lon="104.35453"><ele>73.0</ele><time>2011-04-27T07:57:46.0000000+00:00</time></trkpt><trkpt lat="22.167278" lon="104.354622"><ele>73.9</ele><time>2011-04-27T07:57:51.0000000+00:00</time></trkpt><trkpt lat="22.167356" lon="104.354698"><ele>73.0</ele><time>2011-04-27T07:57:56.0000000+00:00</time></trkpt><trkpt lat="22.167463" lon="104.354767"><ele>69.9</ele><time>2011-04-27T07:58:01.0000000+00:00</time></trkpt><trkpt lat="22.167562" lon="104.354866"><ele>70.8</ele><time>2011-04-27T07:58:06.0000000+00:00</time></trkpt><trkpt lat="22.167675" lon="104.35495"><ele>69.7</ele><time>2011-04-27T07:58:11.0000000+00:00</time></trkpt><trkpt lat="22.16778" lon="104.355042"><ele>71.9</ele><time>2011-04-27T07:58:16.0000000+00:00</time></trkpt><trkpt lat="22.167894" lon="104.355133"><ele>73.7</ele><time>2011-04-27T07:58:21.0000000+00:00</time></trkpt><trkpt lat="22.167969" lon="104.355232"><ele>74.9</ele><time>2011-04-27T07:58:26.0000000+00:00</time></trkpt><trkpt lat="22.168005" lon="104.355278"><ele>75.9</ele><time>2011-04-27T07:58:31.0000000+00:00</time></trkpt><trkpt lat="22.16798" lon="104.355316"><ele>74.9</ele><time>2011-04-27T07:58:36.0000000+00:00</time></trkpt><trkpt lat="22.167971" lon="104.355331"><ele>73.9</ele><time>2011-04-27T07:58:41.0000000+00:00</time></trkpt><trkpt lat="22.167965" lon="104.355339"><ele>72.9</ele><time>2011-04-27T07:58:46.0000000+00:00</time></trkpt><trkpt lat="22.167955" lon="104.355339"><ele>72.0</ele><time>2011-04-27T07:58:51.0000000+00:00</time></trkpt><trkpt lat="22.167948" lon="104.355347"><ele>71.0</ele><time>2011-04-27T07:58:56.0000000+00:00</time></trkpt><trkpt lat="22.167946" lon="104.355347"><ele>70.2</ele><time>2011-04-27T07:59:01.0000000+00:00</time></trkpt><trkpt lat="22.167946" lon="104.355347"><ele>69.2</ele><time>2011-04-27T07:59:06.0000000+00:00</time></trkpt><trkpt lat="22.167948" lon="104.355347"><ele>68.3</ele><time>2011-04-27T07:59:11.0000000+00:00</time></trkpt><trkpt lat="22.167952" lon="104.355347"><ele>67.4</ele><time>2011-04-27T07:59:16.0000000+00:00</time></trkpt><trkpt lat="22.167952" lon="104.355347"><ele>66.5</ele><time>2011-04-27T07:59:21.0000000+00:00</time></trkpt><trkpt lat="22.167952" lon="104.355347"><ele>65.8</ele><time>2011-04-27T07:59:26.0000000+00:00</time></trkpt><trkpt lat="22.167946" lon="104.35537"><ele>65.3</ele><time>2011-04-27T07:59:31.0000000+00:00</time></trkpt><trkpt lat="22.167929" lon="104.355431"><ele>65.4</ele><time>2011-04-27T07:59:36.0000000+00:00</time></trkpt><trkpt lat="22.167873" lon="104.355446"><ele>65.8</ele><time>2011-04-27T07:59:41.0000000+00:00</time></trkpt><trkpt lat="22.167868" lon="104.355469"><ele>66.3</ele><time>2011-04-27T07:59:46.0000000+00:00</time></trkpt><trkpt lat="22.167864" lon="104.355469"><ele>66.3</ele><time>2011-04-27T07:59:51.0000000+00:00</time></trkpt><trkpt lat="22.167858" lon="104.355476"><ele>66.3</ele><time>2011-04-27T07:59:56.0000000+00:00</time></trkpt><trkpt lat="22.167856" lon="104.355476"><ele>66.4</ele><time>2011-04-27T08:00:01.0000000+00:00</time></trkpt><trkpt lat="22.167856" lon="104.355476"><ele>66.4</ele><time>2011-04-27T08:00:06.0000000+00:00</time></trkpt><trkpt lat="22.167854" lon="104.355476"><ele>66.3</ele><time>2011-04-27T08:00:11.0000000+00:00</time></trkpt><trkpt lat="22.167845" lon="104.355522"><ele>64.9</ele><time>2011-04-27T08:00:16.0000000+00:00</time></trkpt><trkpt lat="22.167858" lon="104.355499"><ele>65.3</ele><time>2011-04-27T08:00:21.0000000+00:00</time></trkpt><trkpt lat="22.167866" lon="104.355484"><ele>65.4</ele><time>2011-04-27T08:00:26.0000000+00:00</time></trkpt><trkpt lat="22.167858" lon="104.355484"><ele>65.6</ele><time>2011-04-27T08:00:31.0000000+00:00</time></trkpt><trkpt lat="22.167854" lon="104.355484"><ele>65.6</ele><time>2011-04-27T08:00:36.0000000+00:00</time></trkpt><trkpt lat="22.167852" lon="104.355484"><ele>65.6</ele><time>2011-04-27T08:00:41.0000000+00:00</time></trkpt><trkpt lat="22.167854" lon="104.355484"><ele>65.6</ele><time>2011-04-27T08:00:46.0000000+00:00</time></trkpt><trkpt lat="22.167856" lon="104.355484"><ele>65.6</ele><time>2011-04-27T08:00:51.0000000+00:00</time></trkpt><trkpt lat="22.167858" lon="104.355484"><ele>65.6</ele><time>2011-04-27T08:00:56.0000000+00:00</time></trkpt><trkpt lat="22.167858" lon="104.355484"><ele>65.6</ele><time>2011-04-27T08:01:01.0000000+00:00</time></trkpt><trkpt lat="22.167858" lon="104.355484"><ele>65.6</ele><time>2011-04-27T08:01:06.0000000+00:00</time></trkpt><trkpt lat="22.167858" lon="104.355484"><ele>65.6</ele><time>2011-04-27T08:01:11.0000000+00:00</time></trkpt><trkpt lat="22.16786" lon="104.355484"><ele>65.6</ele><time>2011-04-27T08:01:16.0000000+00:00</time></trkpt><trkpt lat="22.16786" lon="104.355484"><ele>65.6</ele><time>2011-04-27T08:01:21.0000000+00:00</time></trkpt><trkpt lat="22.16786" lon="104.355484"><ele>65.6</ele><time>2011-04-27T08:01:26.0000000+00:00</time></trkpt><trkpt lat="22.16786" lon="104.355484"><ele>65.6</ele><time>2011-04-27T08:01:31.0000000+00:00</time></trkpt><trkpt lat="22.16786" lon="104.355484"><ele>65.6</ele><time>2011-04-27T08:01:36.0000000+00:00</time></trkpt><trkpt lat="22.16786" lon="104.355484"><ele>65.6</ele><time>2011-04-27T08:01:41.0000000+00:00</time></trkpt><trkpt lat="22.16786" lon="104.355484"><ele>65.6</ele><time>2011-04-27T08:01:46.0000000+00:00</time></trkpt><trkpt lat="22.16786" lon="104.355484"><ele>65.6</ele><time>2011-04-27T08:01:51.0000000+00:00</time></trkpt><trkpt lat="22.167862" lon="104.355484"><ele>65.6</ele><time>2011-04-27T08:01:56.0000000+00:00</time></trkpt><trkpt lat="22.167862" lon="104.355484"><ele>65.6</ele><time>2011-04-27T08:02:01.0000000+00:00</time></trkpt><trkpt lat="22.167862" lon="104.355484"><ele>65.7</ele><time>2011-04-27T08:02:06.0000000+00:00</time></trkpt><trkpt lat="22.167862" lon="104.355484"><ele>65.7</ele><time>2011-04-27T08:02:11.0000000+00:00</time></trkpt><trkpt lat="22.167862" lon="104.355484"><ele>65.7</ele><time>2011-04-27T08:02:16.0000000+00:00</time></trkpt><trkpt lat="22.167864" lon="104.355484"><ele>65.7</ele><time>2011-04-27T08:02:21.0000000+00:00</time></trkpt><trkpt lat="22.167864" lon="104.355484"><ele>65.8</ele><time>2011-04-27T08:02:26.0000000+00:00</time></trkpt><trkpt lat="22.167864" lon="104.355484"><ele>65.8</ele><time>2011-04-27T08:02:31.0000000+00:00</time></trkpt><trkpt lat="22.167864" lon="104.355484"><ele>65.8</ele><time>2011-04-27T08:02:36.0000000+00:00</time></trkpt><trkpt lat="22.167864" lon="104.355484"><ele>65.8</ele><time>2011-04-27T08:02:41.0000000+00:00</time></trkpt><trkpt lat="22.167866" lon="104.355484"><ele>65.8</ele><time>2011-04-27T08:02:46.0000000+00:00</time></trkpt><trkpt lat="22.167866" lon="104.355484"><ele>65.9</ele><time>2011-04-27T08:02:51.0000000+00:00</time></trkpt><trkpt lat="22.167866" lon="104.355484"><ele>65.9</ele><time>2011-04-27T08:02:56.0000000+00:00</time></trkpt><trkpt lat="22.167866" lon="104.355484"><ele>65.9</ele><time>2011-04-27T08:03:01.0000000+00:00</time></trkpt><trkpt lat="22.167866" lon="104.355484"><ele>65.9</ele><time>2011-04-27T08:03:06.0000000+00:00</time></trkpt><trkpt lat="22.167866" lon="104.355484"><ele>65.9</ele><time>2011-04-27T08:03:11.0000000+00:00</time></trkpt><trkpt lat="22.167866" lon="104.355484"><ele>65.9</ele><time>2011-04-27T08:03:16.0000000+00:00</time></trkpt><trkpt lat="22.167868" lon="104.355484"><ele>65.9</ele><time>2011-04-27T08:03:21.0000000+00:00</time></trkpt><trkpt lat="22.167868" lon="104.355484"><ele>65.9</ele><time>2011-04-27T08:03:26.0000000+00:00</time></trkpt><trkpt lat="22.167868" lon="104.355484"><ele>65.8</ele><time>2011-04-27T08:03:31.0000000+00:00</time></trkpt><trkpt lat="22.167868" lon="104.355484"><ele>65.8</ele><time>2011-04-27T08:03:36.0000000+00:00</time></trkpt><trkpt lat="22.167868" lon="104.355484"><ele>65.8</ele><time>2011-04-27T08:03:41.0000000+00:00</time></trkpt><trkpt lat="22.167868" lon="104.355484"><ele>65.8</ele><time>2011-04-27T08:03:46.0000000+00:00</time></trkpt><trkpt lat="22.167868" lon="104.355484"><ele>65.8</ele><time>2011-04-27T08:03:51.0000000+00:00</time></trkpt><trkpt lat="22.167868" lon="104.355484"><ele>65.8</ele><time>2011-04-27T08:03:56.0000000+00:00</time></trkpt><trkpt lat="22.167868" lon="104.355484"><ele>65.8</ele><time>2011-04-27T08:04:01.0000000+00:00</time></trkpt><trkpt lat="22.167868" lon="104.355484"><ele>65.9</ele><time>2011-04-27T08:04:06.0000000+00:00</time></trkpt><trkpt lat="22.16787" lon="104.355484"><ele>65.9</ele><time>2011-04-27T08:04:11.0000000+00:00</time></trkpt><trkpt lat="22.16787" lon="104.355484"><ele>65.9</ele><time>2011-04-27T08:04:16.0000000+00:00</time></trkpt><trkpt lat="22.16787" lon="104.355484"><ele>66.0</ele><time>2011-04-27T08:04:21.0000000+00:00</time></trkpt><trkpt lat="22.16787" lon="104.355484"><ele>66.0</ele><time>2011-04-27T08:04:26.0000000+00:00</time></trkpt><trkpt lat="22.16787" lon="104.355484"><ele>66.0</ele><time>2011-04-27T08:04:31.0000000+00:00</time></trkpt><trkpt lat="22.16787" lon="104.355484"><ele>66.0</ele><time>2011-04-27T08:04:36.0000000+00:00</time></trkpt><trkpt lat="22.16787" lon="104.355484"><ele>66.0</ele><time>2011-04-27T08:04:41.0000000+00:00</time></trkpt><trkpt lat="22.16787" lon="104.355484"><ele>66.1</ele><time>2011-04-27T08:04:46.0000000+00:00</time></trkpt><trkpt lat="22.16787" lon="104.355484"><ele>66.1</ele><time>2011-04-27T08:04:51.0000000+00:00</time></trkpt><trkpt lat="22.16787" lon="104.355484"><ele>66.2</ele><time>2011-04-27T08:04:56.0000000+00:00</time></trkpt><trkpt lat="22.16787" lon="104.355484"><ele>66.2</ele><time>2011-04-27T08:05:01.0000000+00:00</time></trkpt><trkpt lat="22.16787" lon="104.355484"><ele>66.3</ele><time>2011-04-27T08:05:06.0000000+00:00</time></trkpt><trkpt lat="22.16787" lon="104.355484"><ele>66.3</ele><time>2011-04-27T08:05:11.0000000+00:00</time></trkpt><trkpt lat="22.167871" lon="104.355484"><ele>66.3</ele><time>2011-04-27T08:05:16.0000000+00:00</time></trkpt><trkpt lat="22.167871" lon="104.355484"><ele>66.3</ele><time>2011-04-27T08:05:21.0000000+00:00</time></trkpt><trkpt lat="22.167871" lon="104.355484"><ele>66.4</ele><time>2011-04-27T08:05:26.0000000+00:00</time></trkpt><trkpt lat="22.167871" lon="104.355484"><ele>66.4</ele><time>2011-04-27T08:05:31.0000000+00:00</time></trkpt><trkpt lat="22.167871" lon="104.355484"><ele>66.4</ele><time>2011-04-27T08:05:36.0000000+00:00</time></trkpt><trkpt lat="22.167871" lon="104.355484"><ele>66.5</ele><time>2011-04-27T08:05:41.0000000+00:00</time></trkpt><trkpt lat="22.167871" lon="104.355484"><ele>66.5</ele><time>2011-04-27T08:05:46.0000000+00:00</time></trkpt><trkpt lat="22.167871" lon="104.355484"><ele>66.6</ele><time>2011-04-27T08:05:51.0000000+00:00</time></trkpt><trkpt lat="22.167871" lon="104.355484"><ele>66.7</ele><time>2011-04-27T08:05:56.0000000+00:00</time></trkpt><trkpt lat="22.167871" lon="104.355484"><ele>66.8</ele><time>2011-04-27T08:06:01.0000000+00:00</time></trkpt><trkpt lat="22.167871" lon="104.355484"><ele>66.8</ele><time>2011-04-27T08:06:06.0000000+00:00</time></trkpt><trkpt lat="22.167871" lon="104.355476"><ele>66.9</ele><time>2011-04-27T08:06:11.0000000+00:00</time></trkpt><trkpt lat="22.167871" lon="104.355484"><ele>66.9</ele><time>2011-04-27T08:06:16.0000000+00:00</time></trkpt><trkpt lat="22.167871" lon="104.355476"><ele>66.9</ele><time>2011-04-27T08:06:21.0000000+00:00</time></trkpt><trkpt lat="22.167871" lon="104.355476"><ele>66.9</ele><time>2011-04-27T08:06:26.0000000+00:00</time></trkpt><trkpt lat="22.167871" lon="104.355476"><ele>67.0</ele><time>2011-04-27T08:06:31.0000000+00:00</time></trkpt><trkpt lat="22.167871" lon="104.355476"><ele>67.0</ele><time>2011-04-27T08:06:36.0000000+00:00</time></trkpt><trkpt lat="22.167873" lon="104.355476"><ele>67.0</ele><time>2011-04-27T08:06:41.0000000+00:00</time></trkpt><trkpt lat="22.167873" lon="104.355476"><ele>67.0</ele><time>2011-04-27T08:06:46.0000000+00:00</time></trkpt><trkpt lat="22.167873" lon="104.355476"><ele>67.1</ele><time>2011-04-27T08:06:51.0000000+00:00</time></trkpt><trkpt lat="22.167873" lon="104.355476"><ele>67.1</ele><time>2011-04-27T08:06:56.0000000+00:00</time></trkpt><trkpt lat="22.167873" lon="104.355476"><ele>67.1</ele><time>2011-04-27T08:07:01.0000000+00:00</time></trkpt><trkpt lat="22.167873" lon="104.355476"><ele>67.1</ele><time>2011-04-27T08:07:06.0000000+00:00</time></trkpt><trkpt lat="22.167875" lon="104.355476"><ele>67.2</ele><time>2011-04-27T08:07:11.0000000+00:00</time></trkpt><trkpt lat="22.167875" lon="104.355476"><ele>67.2</ele><time>2011-04-27T08:07:16.0000000+00:00</time></trkpt><trkpt lat="22.167875" lon="104.355476"><ele>67.2</ele><time>2011-04-27T08:07:21.0000000+00:00</time></trkpt><trkpt lat="22.167875" lon="104.355476"><ele>67.2</ele><time>2011-04-27T08:07:26.0000000+00:00</time></trkpt><trkpt lat="22.167875" lon="104.355476"><ele>67.2</ele><time>2011-04-27T08:07:31.0000000+00:00</time></trkpt><trkpt lat="22.167877" lon="104.355476"><ele>67.3</ele><time>2011-04-27T08:07:36.0000000+00:00</time></trkpt><trkpt lat="22.167877" lon="104.355476"><ele>67.3</ele><time>2011-04-27T08:07:41.0000000+00:00</time></trkpt><trkpt lat="22.167877" lon="104.355476"><ele>67.4</ele><time>2011-04-27T08:07:46.0000000+00:00</time></trkpt><trkpt lat="22.167879" lon="104.355476"><ele>67.4</ele><time>2011-04-27T08:07:51.0000000+00:00</time></trkpt><trkpt lat="22.167879" lon="104.355476"><ele>67.4</ele><time>2011-04-27T08:07:56.0000000+00:00</time></trkpt><trkpt lat="22.167879" lon="104.355476"><ele>67.4</ele><time>2011-04-27T08:08:01.0000000+00:00</time></trkpt><trkpt lat="22.167879" lon="104.355476"><ele>67.4</ele><time>2011-04-27T08:08:06.0000000+00:00</time></trkpt><trkpt lat="22.167879" lon="104.355476"><ele>67.4</ele><time>2011-04-27T08:08:11.0000000+00:00</time></trkpt><trkpt lat="22.167881" lon="104.355476"><ele>67.4</ele><time>2011-04-27T08:08:16.0000000+00:00</time></trkpt><trkpt lat="22.167881" lon="104.355476"><ele>67.4</ele><time>2011-04-27T08:08:21.0000000+00:00</time></trkpt><trkpt lat="22.167881" lon="104.355476"><ele>67.4</ele><time>2011-04-27T08:08:26.0000000+00:00</time></trkpt><trkpt lat="22.167881" lon="104.355476"><ele>67.5</ele><time>2011-04-27T08:08:31.0000000+00:00</time></trkpt><trkpt lat="22.167883" lon="104.355476"><ele>67.5</ele><time>2011-04-27T08:08:36.0000000+00:00</time></trkpt><trkpt lat="22.167883" lon="104.355476"><ele>67.5</ele><time>2011-04-27T08:08:41.0000000+00:00</time></trkpt><trkpt lat="22.167883" lon="104.355476"><ele>67.5</ele><time>2011-04-27T08:08:46.0000000+00:00</time></trkpt><trkpt lat="22.167883" lon="104.355476"><ele>67.5</ele><time>2011-04-27T08:08:51.0000000+00:00</time></trkpt><trkpt lat="22.167883" lon="104.355476"><ele>67.5</ele><time>2011-04-27T08:08:56.0000000+00:00</time></trkpt><trkpt lat="22.167883" lon="104.355476"><ele>67.6</ele><time>2011-04-27T08:09:01.0000000+00:00</time></trkpt><trkpt lat="22.167885" lon="104.355476"><ele>67.6</ele><time>2011-04-27T08:09:06.0000000+00:00</time></trkpt><trkpt lat="22.167885" lon="104.355476"><ele>67.7</ele><time>2011-04-27T08:09:11.0000000+00:00</time></trkpt><trkpt lat="22.167885" lon="104.355476"><ele>67.7</ele><time>2011-04-27T08:09:16.0000000+00:00</time></trkpt><trkpt lat="22.167885" lon="104.355476"><ele>67.7</ele><time>2011-04-27T08:09:21.0000000+00:00</time></trkpt><trkpt lat="22.167885" lon="104.355476"><ele>67.7</ele><time>2011-04-27T08:09:26.0000000+00:00</time></trkpt><trkpt lat="22.167885" lon="104.355476"><ele>67.7</ele><time>2011-04-27T08:09:31.0000000+00:00</time></trkpt><trkpt lat="22.167887" lon="104.355476"><ele>67.7</ele><time>2011-04-27T08:09:36.0000000+00:00</time></trkpt><trkpt lat="22.167887" lon="104.355476"><ele>67.7</ele><time>2011-04-27T08:09:41.0000000+00:00</time></trkpt><trkpt lat="22.167887" lon="104.355476"><ele>67.7</ele><time>2011-04-27T08:09:46.0000000+00:00</time></trkpt><trkpt lat="22.167889" lon="104.355476"><ele>67.7</ele><time>2011-04-27T08:09:51.0000000+00:00</time></trkpt><trkpt lat="22.167889" lon="104.355484"><ele>67.8</ele><time>2011-04-27T08:09:56.0000000+00:00</time></trkpt><trkpt lat="22.167889" lon="104.355484"><ele>67.8</ele><time>2011-04-27T08:10:01.0000000+00:00</time></trkpt><trkpt lat="22.167891" lon="104.355484"><ele>67.8</ele><time>2011-04-27T08:10:06.0000000+00:00</time></trkpt><trkpt lat="22.167891" lon="104.355484"><ele>67.8</ele><time>2011-04-27T08:10:11.0000000+00:00</time></trkpt><trkpt lat="22.167891" lon="104.355484"><ele>67.8</ele><time>2011-04-27T08:10:16.0000000+00:00</time></trkpt><trkpt lat="22.167891" lon="104.355484"><ele>67.9</ele><time>2011-04-27T08:10:21.0000000+00:00</time></trkpt><trkpt lat="22.167891" lon="104.355484"><ele>67.9</ele><time>2011-04-27T08:10:26.0000000+00:00</time></trkpt><trkpt lat="22.167892" lon="104.355484"><ele>68.0</ele><time>2011-04-27T08:10:31.0000000+00:00</time></trkpt><trkpt lat="22.167892" lon="104.355484"><ele>68.0</ele><time>2011-04-27T08:10:36.0000000+00:00</time></trkpt><trkpt lat="22.167892" lon="104.355484"><ele>68.0</ele><time>2011-04-27T08:10:41.0000000+00:00</time></trkpt><trkpt lat="22.167894" lon="104.355484"><ele>68.0</ele><time>2011-04-27T08:10:46.0000000+00:00</time></trkpt><trkpt lat="22.167894" lon="104.355484"><ele>68.1</ele><time>2011-04-27T08:10:51.0000000+00:00</time></trkpt><trkpt lat="22.167894" lon="104.355484"><ele>68.1</ele><time>2011-04-27T08:10:56.0000000+00:00</time></trkpt><trkpt lat="22.167896" lon="104.355484"><ele>68.1</ele><time>2011-04-27T08:11:01.0000000+00:00</time></trkpt><trkpt lat="22.167894" lon="104.355484"><ele>68.1</ele><time>2011-04-27T08:11:06.0000000+00:00</time></trkpt><trkpt lat="22.167898" lon="104.355476"><ele>67.9</ele><time>2011-04-27T08:11:11.0000000+00:00</time></trkpt><trkpt lat="22.167902" lon="104.355469"><ele>67.6</ele><time>2011-04-27T08:11:16.0000000+00:00</time></trkpt><trkpt lat="22.167913" lon="104.355453"><ele>67.3</ele><time>2011-04-27T08:11:21.0000000+00:00</time></trkpt><trkpt lat="22.167946" lon="104.35537"><ele>67.4</ele><time>2011-04-27T08:11:26.0000000+00:00</time></trkpt><trkpt lat="22.167923" lon="104.355232"><ele>66.9</ele><time>2011-04-27T08:11:31.0000000+00:00</time></trkpt><trkpt lat="22.167847" lon="104.355095"><ele>69.1</ele><time>2011-04-27T08:11:36.0000000+00:00</time></trkpt><trkpt lat="22.167784" lon="104.355026"><ele>70.1</ele><time>2011-04-27T08:11:41.0000000+00:00</time></trkpt><trkpt lat="22.167744" lon="104.354973"><ele>72.8</ele><time>2011-04-27T08:11:46.0000000+00:00</time></trkpt><trkpt lat="22.167665" lon="104.354897"><ele>74.4</ele><time>2011-04-27T08:11:51.0000000+00:00</time></trkpt><trkpt lat="22.167574" lon="104.35482"><ele>74.7</ele><time>2011-04-27T08:11:56.0000000+00:00</time></trkpt><trkpt lat="22.167473" lon="104.354713"><ele>75.4</ele><time>2011-04-27T08:12:01.0000000+00:00</time></trkpt><trkpt lat="22.16737" lon="104.35463"><ele>76.3</ele><time>2011-04-27T08:12:06.0000000+00:00</time></trkpt><trkpt lat="22.16729" lon="104.354523"><ele>75.7</ele><time>2011-04-27T08:12:11.0000000+00:00</time></trkpt><trkpt lat="22.167248" lon="104.354469"><ele>75.3</ele><time>2011-04-27T08:12:16.0000000+00:00</time></trkpt><trkpt lat="22.167246" lon="104.354408"><ele>76.0</ele><time>2011-04-27T08:12:21.0000000+00:00</time></trkpt><trkpt lat="22.167229" lon="104.354393"><ele>76.5</ele><time>2011-04-27T08:12:26.0000000+00:00</time></trkpt><trkpt lat="22.16717" lon="104.354378"><ele>76.3</ele><time>2011-04-27T08:12:31.0000000+00:00</time></trkpt><trkpt lat="22.167137" lon="104.354385"><ele>76.2</ele><time>2011-04-27T08:12:36.0000000+00:00</time></trkpt><trkpt lat="22.16711" lon="104.354385"><ele>76.5</ele><time>2011-04-27T08:12:41.0000000+00:00</time></trkpt><trkpt lat="22.167105" lon="104.35437"><ele>76.9</ele><time>2011-04-27T08:12:46.0000000+00:00</time></trkpt><trkpt lat="22.167105" lon="104.354378"><ele>77.2</ele><time>2011-04-27T08:12:51.0000000+00:00</time></trkpt><trkpt lat="22.167107" lon="104.354378"><ele>77.3</ele><time>2011-04-27T08:12:56.0000000+00:00</time></trkpt><trkpt lat="22.167107" lon="104.354378"><ele>77.4</ele><time>2011-04-27T08:13:01.0000000+00:00</time></trkpt><trkpt lat="22.167105" lon="104.354378"><ele>77.4</ele><time>2011-04-27T08:13:06.0000000+00:00</time></trkpt><trkpt lat="22.167105" lon="104.354378"><ele>77.4</ele><time>2011-04-27T08:13:11.0000000+00:00</time></trkpt><trkpt lat="22.167107" lon="104.354378"><ele>77.4</ele><time>2011-04-27T08:13:16.0000000+00:00</time></trkpt><trkpt lat="22.167107" lon="104.354378"><ele>77.4</ele><time>2011-04-27T08:13:21.0000000+00:00</time></trkpt><trkpt lat="22.167107" lon="104.354378"><ele>77.4</ele><time>2011-04-27T08:13:26.0000000+00:00</time></trkpt><trkpt lat="22.167107" lon="104.354378"><ele>77.4</ele><time>2011-04-27T08:13:31.0000000+00:00</time></trkpt><trkpt lat="22.167107" lon="104.354378"><ele>77.4</ele><time>2011-04-27T08:13:36.0000000+00:00</time></trkpt><trkpt lat="22.167107" lon="104.354378"><ele>77.4</ele><time>2011-04-27T08:13:41.0000000+00:00</time></trkpt><trkpt lat="22.167105" lon="104.354378"><ele>77.4</ele><time>2011-04-27T08:13:46.0000000+00:00</time></trkpt><trkpt lat="22.167105" lon="104.354378"><ele>77.4</ele><time>2011-04-27T08:13:51.0000000+00:00</time></trkpt><trkpt lat="22.167105" lon="104.354378"><ele>77.4</ele><time>2011-04-27T08:13:56.0000000+00:00</time></trkpt><trkpt lat="22.167107" lon="104.354385"><ele>77.4</ele><time>2011-04-27T08:14:01.0000000+00:00</time></trkpt><trkpt lat="22.167107" lon="104.354385"><ele>77.4</ele><time>2011-04-27T08:14:06.0000000+00:00</time></trkpt><trkpt lat="22.167107" lon="104.354378"><ele>77.4</ele><time>2011-04-27T08:14:11.0000000+00:00</time></trkpt><trkpt lat="22.167107" lon="104.354385"><ele>77.3</ele><time>2011-04-27T08:14:16.0000000+00:00</time></trkpt><trkpt lat="22.167107" lon="104.354385"><ele>77.3</ele><time>2011-04-27T08:14:21.0000000+00:00</time></trkpt><trkpt lat="22.167107" lon="104.354385"><ele>77.3</ele><time>2011-04-27T08:14:26.0000000+00:00</time></trkpt><trkpt lat="22.167107" lon="104.354385"><ele>77.3</ele><time>2011-04-27T08:14:31.0000000+00:00</time></trkpt><trkpt lat="22.167107" lon="104.354385"><ele>77.2</ele><time>2011-04-27T08:14:36.0000000+00:00</time></trkpt><trkpt lat="22.167107" lon="104.354385"><ele>77.2</ele><time>2011-04-27T08:14:41.0000000+00:00</time></trkpt><trkpt lat="22.167107" lon="104.354385"><ele>77.2</ele><time>2011-04-27T08:14:46.0000000+00:00</time></trkpt><trkpt lat="22.167107" lon="104.354385"><ele>77.1</ele><time>2011-04-27T08:14:51.0000000+00:00</time></trkpt><trkpt lat="22.167107" lon="104.354385"><ele>77.1</ele><time>2011-04-27T08:14:56.0000000+00:00</time></trkpt><trkpt lat="22.167107" lon="104.354385"><ele>77.1</ele><time>2011-04-27T08:15:01.0000000+00:00</time></trkpt><trkpt lat="22.167107" lon="104.354385"><ele>77.0</ele><time>2011-04-27T08:15:06.0000000+00:00</time></trkpt><trkpt lat="22.167107" lon="104.354385"><ele>77.0</ele><time>2011-04-27T08:15:11.0000000+00:00</time></trkpt><trkpt lat="22.167107" lon="104.354385"><ele>77.0</ele><time>2011-04-27T08:15:16.0000000+00:00</time></trkpt><trkpt lat="22.167107" lon="104.354385"><ele>76.9</ele><time>2011-04-27T08:15:21.0000000+00:00</time></trkpt><trkpt lat="22.167107" lon="104.354385"><ele>76.9</ele><time>2011-04-27T08:15:26.0000000+00:00</time></trkpt><trkpt lat="22.167107" lon="104.354385"><ele>76.9</ele><time>2011-04-27T08:15:31.0000000+00:00</time></trkpt><trkpt lat="22.167107" lon="104.354385"><ele>76.9</ele><time>2011-04-27T08:15:36.0000000+00:00</time></trkpt><trkpt lat="22.167107" lon="104.354385"><ele>76.9</ele><time>2011-04-27T08:15:41.0000000+00:00</time></trkpt><trkpt lat="22.167107" lon="104.354385"><ele>76.8</ele><time>2011-04-27T08:15:46.0000000+00:00</time></trkpt><trkpt lat="22.167107" lon="104.354385"><ele>76.8</ele><time>2011-04-27T08:15:51.0000000+00:00</time></trkpt><trkpt lat="22.167107" lon="104.354385"><ele>76.8</ele><time>2011-04-27T08:15:56.0000000+00:00</time></trkpt><trkpt lat="22.167107" lon="104.354385"><ele>76.8</ele><time>2011-04-27T08:16:01.0000000+00:00</time></trkpt><trkpt lat="22.167107" lon="104.354385"><ele>76.8</ele><time>2011-04-27T08:16:06.0000000+00:00</time></trkpt><trkpt lat="22.167107" lon="104.354385"><ele>76.8</ele><time>2011-04-27T08:16:11.0000000+00:00</time></trkpt><trkpt lat="22.167107" lon="104.354385"><ele>76.8</ele><time>2011-04-27T08:16:16.0000000+00:00</time></trkpt><trkpt lat="22.167107" lon="104.354385"><ele>76.8</ele><time>2011-04-27T08:16:21.0000000+00:00</time></trkpt><trkpt lat="22.167107" lon="104.354385"><ele>76.8</ele><time>2011-04-27T08:16:26.0000000+00:00</time></trkpt><trkpt lat="22.167107" lon="104.354385"><ele>76.7</ele><time>2011-04-27T08:16:31.0000000+00:00</time></trkpt><trkpt lat="22.167107" lon="104.354385"><ele>76.7</ele><time>2011-04-27T08:16:36.0000000+00:00</time></trkpt><trkpt lat="22.167107" lon="104.354385"><ele>76.7</ele><time>2011-04-27T08:16:41.0000000+00:00</time></trkpt><trkpt lat="22.167107" lon="104.354385"><ele>76.7</ele><time>2011-04-27T08:16:46.0000000+00:00</time></trkpt><trkpt lat="22.167109" lon="104.354385"><ele>76.7</ele><time>2011-04-27T08:16:51.0000000+00:00</time></trkpt><trkpt lat="22.167109" lon="104.354385"><ele>76.7</ele><time>2011-04-27T08:16:56.0000000+00:00</time></trkpt><trkpt lat="22.167109" lon="104.354385"><ele>76.7</ele><time>2011-04-27T08:17:01.0000000+00:00</time></trkpt><trkpt lat="22.167109" lon="104.354385"><ele>76.8</ele><time>2011-04-27T08:17:06.0000000+00:00</time></trkpt><trkpt lat="22.167109" lon="104.354385"><ele>76.8</ele><time>2011-04-27T08:17:11.0000000+00:00</time></trkpt><trkpt lat="22.167109" lon="104.354385"><ele>76.7</ele><time>2011-04-27T08:17:16.0000000+00:00</time></trkpt><trkpt lat="22.167109" lon="104.354385"><ele>76.7</ele><time>2011-04-27T08:17:21.0000000+00:00</time></trkpt><trkpt lat="22.167109" lon="104.354385"><ele>76.8</ele><time>2011-04-27T08:17:26.0000000+00:00</time></trkpt><trkpt lat="22.167109" lon="104.354385"><ele>76.8</ele><time>2011-04-27T08:17:31.0000000+00:00</time></trkpt><trkpt lat="22.167109" lon="104.354385"><ele>76.8</ele><time>2011-04-27T08:17:36.0000000+00:00</time></trkpt><trkpt lat="22.16711" lon="104.354385"><ele>76.8</ele><time>2011-04-27T08:17:41.0000000+00:00</time></trkpt><trkpt lat="22.167109" lon="104.354385"><ele>76.8</ele><time>2011-04-27T08:17:46.0000000+00:00</time></trkpt><trkpt lat="22.167109" lon="104.354385"><ele>76.8</ele><time>2011-04-27T08:17:51.0000000+00:00</time></trkpt><trkpt lat="22.16711" lon="104.354385"><ele>76.8</ele><time>2011-04-27T08:17:56.0000000+00:00</time></trkpt><trkpt lat="22.16711" lon="104.354385"><ele>76.8</ele><time>2011-04-27T08:18:01.0000000+00:00</time></trkpt><trkpt lat="22.16711" lon="104.354385"><ele>76.7</ele><time>2011-04-27T08:18:06.0000000+00:00</time></trkpt><trkpt lat="22.16711" lon="104.354385"><ele>76.7</ele><time>2011-04-27T08:18:11.0000000+00:00</time></trkpt><trkpt lat="22.16711" lon="104.354385"><ele>76.7</ele><time>2011-04-27T08:18:16.0000000+00:00</time></trkpt><trkpt lat="22.16711" lon="104.354385"><ele>76.7</ele><time>2011-04-27T08:18:21.0000000+00:00</time></trkpt><trkpt lat="22.16711" lon="104.354385"><ele>76.7</ele><time>2011-04-27T08:18:26.0000000+00:00</time></trkpt><trkpt lat="22.16711" lon="104.354378"><ele>76.7</ele><time>2011-04-27T08:18:31.0000000+00:00</time></trkpt><trkpt lat="22.16711" lon="104.354378"><ele>76.7</ele><time>2011-04-27T08:18:36.0000000+00:00</time></trkpt><trkpt lat="22.167112" lon="104.354378"><ele>76.6</ele><time>2011-04-27T08:18:41.0000000+00:00</time></trkpt><trkpt lat="22.167112" lon="104.354378"><ele>76.6</ele><time>2011-04-27T08:18:46.0000000+00:00</time></trkpt><trkpt lat="22.167112" lon="104.354378"><ele>76.6</ele><time>2011-04-27T08:18:51.0000000+00:00</time></trkpt><trkpt lat="22.167112" lon="104.354378"><ele>76.5</ele><time>2011-04-27T08:18:56.0000000+00:00</time></trkpt><trkpt lat="22.167112" lon="104.354378"><ele>76.5</ele><time>2011-04-27T08:19:01.0000000+00:00</time></trkpt><trkpt lat="22.167112" lon="104.354378"><ele>76.5</ele><time>2011-04-27T08:19:06.0000000+00:00</time></trkpt><trkpt lat="22.167112" lon="104.354378"><ele>76.4</ele><time>2011-04-27T08:19:11.0000000+00:00</time></trkpt><trkpt lat="22.167112" lon="104.354378"><ele>76.4</ele><time>2011-04-27T08:19:16.0000000+00:00</time></trkpt><trkpt lat="22.167112" lon="104.354378"><ele>76.4</ele><time>2011-04-27T08:19:21.0000000+00:00</time></trkpt><trkpt lat="22.167112" lon="104.354378"><ele>76.3</ele><time>2011-04-27T08:19:26.0000000+00:00</time></trkpt><trkpt lat="22.167112" lon="104.354378"><ele>76.3</ele><time>2011-04-27T08:19:31.0000000+00:00</time></trkpt><trkpt lat="22.167112" lon="104.354378"><ele>76.3</ele><time>2011-04-27T08:19:36.0000000+00:00</time></trkpt><trkpt lat="22.167112" lon="104.354378"><ele>76.4</ele><time>2011-04-27T08:19:41.0000000+00:00</time></trkpt><trkpt lat="22.167112" lon="104.354378"><ele>76.4</ele><time>2011-04-27T08:19:46.0000000+00:00</time></trkpt><trkpt lat="22.167112" lon="104.354378"><ele>76.4</ele><time>2011-04-27T08:19:51.0000000+00:00</time></trkpt><trkpt lat="22.167112" lon="104.354378"><ele>76.4</ele><time>2011-04-27T08:19:56.0000000+00:00</time></trkpt><trkpt lat="22.167112" lon="104.354378"><ele>76.4</ele><time>2011-04-27T08:20:01.0000000+00:00</time></trkpt><trkpt lat="22.167112" lon="104.354378"><ele>76.4</ele><time>2011-04-27T08:20:06.0000000+00:00</time></trkpt><trkpt lat="22.167112" lon="104.354378"><ele>76.4</ele><time>2011-04-27T08:20:11.0000000+00:00</time></trkpt><trkpt lat="22.167112" lon="104.354385"><ele>76.4</ele><time>2011-04-27T08:20:16.0000000+00:00</time></trkpt><trkpt lat="22.167112" lon="104.354385"><ele>76.4</ele><time>2011-04-27T08:20:21.0000000+00:00</time></trkpt><trkpt lat="22.167112" lon="104.354385"><ele>76.4</ele><time>2011-04-27T08:20:26.0000000+00:00</time></trkpt><trkpt lat="22.167112" lon="104.354385"><ele>76.4</ele><time>2011-04-27T08:20:31.0000000+00:00</time></trkpt><trkpt lat="22.167112" lon="104.354385"><ele>76.4</ele><time>2011-04-27T08:20:36.0000000+00:00</time></trkpt><trkpt lat="22.167112" lon="104.354385"><ele>76.4</ele><time>2011-04-27T08:20:41.0000000+00:00</time></trkpt><trkpt lat="22.167112" lon="104.354385"><ele>76.5</ele><time>2011-04-27T08:20:46.0000000+00:00</time></trkpt><trkpt lat="22.167112" lon="104.354385"><ele>76.5</ele><time>2011-04-27T08:20:51.0000000+00:00</time></trkpt><trkpt lat="22.167112" lon="104.354385"><ele>76.5</ele><time>2011-04-27T08:20:56.0000000+00:00</time></trkpt><trkpt lat="22.167112" lon="104.354385"><ele>76.5</ele><time>2011-04-27T08:21:01.0000000+00:00</time></trkpt><trkpt lat="22.167112" lon="104.354385"><ele>76.5</ele><time>2011-04-27T08:21:06.0000000+00:00</time></trkpt><trkpt lat="22.167112" lon="104.354385"><ele>76.5</ele><time>2011-04-27T08:21:11.0000000+00:00</time></trkpt><trkpt lat="22.167112" lon="104.354385"><ele>76.5</ele><time>2011-04-27T08:21:16.0000000+00:00</time></trkpt><trkpt lat="22.167112" lon="104.354385"><ele>76.5</ele><time>2011-04-27T08:21:21.0000000+00:00</time></trkpt><trkpt lat="22.167112" lon="104.354385"><ele>76.5</ele><time>2011-04-27T08:21:26.0000000+00:00</time></trkpt><trkpt lat="22.167112" lon="104.354385"><ele>76.6</ele><time>2011-04-27T08:21:31.0000000+00:00</time></trkpt><trkpt lat="22.167112" lon="104.354378"><ele>76.6</ele><time>2011-04-27T08:21:36.0000000+00:00</time></trkpt><trkpt lat="22.167112" lon="104.354378"><ele>76.6</ele><time>2011-04-27T08:21:41.0000000+00:00</time></trkpt><trkpt lat="22.167112" lon="104.354378"><ele>76.6</ele><time>2011-04-27T08:21:46.0000000+00:00</time></trkpt><trkpt lat="22.167112" lon="104.354378"><ele>76.7</ele><time>2011-04-27T08:21:51.0000000+00:00</time></trkpt><trkpt lat="22.167112" lon="104.354378"><ele>76.7</ele><time>2011-04-27T08:21:56.0000000+00:00</time></trkpt><trkpt lat="22.167112" lon="104.354378"><ele>76.7</ele><time>2011-04-27T08:22:01.0000000+00:00</time></trkpt><trkpt lat="22.167112" lon="104.354385"><ele>76.7</ele><time>2011-04-27T08:22:06.0000000+00:00</time></trkpt><trkpt lat="22.167112" lon="104.354385"><ele>76.7</ele><time>2011-04-27T08:22:11.0000000+00:00</time></trkpt><trkpt lat="22.167112" lon="104.354385"><ele>76.7</ele><time>2011-04-27T08:22:16.0000000+00:00</time></trkpt><trkpt lat="22.167112" lon="104.354385"><ele>76.8</ele><time>2011-04-27T08:22:21.0000000+00:00</time></trkpt><trkpt lat="22.167112" lon="104.354385"><ele>76.8</ele><time>2011-04-27T08:22:26.0000000+00:00</time></trkpt><trkpt lat="22.167112" lon="104.354385"><ele>76.9</ele><time>2011-04-27T08:22:31.0000000+00:00</time></trkpt><trkpt lat="22.167112" lon="104.354385"><ele>76.9</ele><time>2011-04-27T08:22:36.0000000+00:00</time></trkpt><trkpt lat="22.167112" lon="104.354385"><ele>76.9</ele><time>2011-04-27T08:22:41.0000000+00:00</time></trkpt><trkpt lat="22.167112" lon="104.354385"><ele>77.0</ele><time>2011-04-27T08:22:46.0000000+00:00</time></trkpt><trkpt lat="22.167112" lon="104.354385"><ele>77.0</ele><time>2011-04-27T08:22:51.0000000+00:00</time></trkpt><trkpt lat="22.167112" lon="104.354385"><ele>77.0</ele><time>2011-04-27T08:22:56.0000000+00:00</time></trkpt><trkpt lat="22.167112" lon="104.354385"><ele>77.1</ele><time>2011-04-27T08:23:01.0000000+00:00</time></trkpt><trkpt lat="22.167112" lon="104.354385"><ele>77.1</ele><time>2011-04-27T08:23:06.0000000+00:00</time></trkpt><trkpt lat="22.167112" lon="104.354385"><ele>77.1</ele><time>2011-04-27T08:23:11.0000000+00:00</time></trkpt><trkpt lat="22.167112" lon="104.354385"><ele>77.1</ele><time>2011-04-27T08:23:16.0000000+00:00</time></trkpt><trkpt lat="22.167112" lon="104.354385"><ele>77.2</ele><time>2011-04-27T08:23:21.0000000+00:00</time></trkpt><trkpt lat="22.167112" lon="104.354385"><ele>77.2</ele><time>2011-04-27T08:23:26.0000000+00:00</time></trkpt><trkpt lat="22.167112" lon="104.354385"><ele>77.2</ele><time>2011-04-27T08:23:31.0000000+00:00</time></trkpt><trkpt lat="22.167114" lon="104.354385"><ele>77.1</ele><time>2011-04-27T08:23:36.0000000+00:00</time></trkpt><trkpt lat="22.167112" lon="104.354385"><ele>77.1</ele><time>2011-04-27T08:23:41.0000000+00:00</time></trkpt><trkpt lat="22.167112" lon="104.354385"><ele>77.1</ele><time>2011-04-27T08:23:46.0000000+00:00</time></trkpt><trkpt lat="22.167114" lon="104.354385"><ele>77.1</ele><time>2011-04-27T08:23:51.0000000+00:00</time></trkpt><trkpt lat="22.167114" lon="104.354385"><ele>77.1</ele><time>2011-04-27T08:23:56.0000000+00:00</time></trkpt><trkpt lat="22.167114" lon="104.354385"><ele>77.1</ele><time>2011-04-27T08:24:01.0000000+00:00</time></trkpt><trkpt lat="22.167114" lon="104.354385"><ele>77.1</ele><time>2011-04-27T08:24:06.0000000+00:00</time></trkpt><trkpt lat="22.167114" lon="104.354385"><ele>77.0</ele><time>2011-04-27T08:24:11.0000000+00:00</time></trkpt><trkpt lat="22.167114" lon="104.354385"><ele>77.0</ele><time>2011-04-27T08:24:16.0000000+00:00</time></trkpt><trkpt lat="22.167114" lon="104.354385"><ele>77.0</ele><time>2011-04-27T08:24:21.0000000+00:00</time></trkpt><trkpt lat="22.167114" lon="104.354385"><ele>77.0</ele><time>2011-04-27T08:24:26.0000000+00:00</time></trkpt><trkpt lat="22.167114" lon="104.354385"><ele>76.9</ele><time>2011-04-27T08:24:31.0000000+00:00</time></trkpt><trkpt lat="22.167114" lon="104.354385"><ele>76.9</ele><time>2011-04-27T08:24:36.0000000+00:00</time></trkpt><trkpt lat="22.167114" lon="104.354385"><ele>76.9</ele><time>2011-04-27T08:24:41.0000000+00:00</time></trkpt><trkpt lat="22.167114" lon="104.354385"><ele>76.9</ele><time>2011-04-27T08:24:46.0000000+00:00</time></trkpt><trkpt lat="22.167114" lon="104.354385"><ele>76.9</ele><time>2011-04-27T08:24:51.0000000+00:00</time></trkpt><trkpt lat="22.167114" lon="104.354385"><ele>76.9</ele><time>2011-04-27T08:24:56.0000000+00:00</time></trkpt><trkpt lat="22.167112" lon="104.354385"><ele>76.9</ele><time>2011-04-27T08:25:01.0000000+00:00</time></trkpt><trkpt lat="22.167112" lon="104.354385"><ele>77.0</ele><time>2011-04-27T08:25:06.0000000+00:00</time></trkpt><trkpt lat="22.167112" lon="104.354385"><ele>77.0</ele><time>2011-04-27T08:25:11.0000000+00:00</time></trkpt><trkpt lat="22.167112" lon="104.354385"><ele>77.1</ele><time>2011-04-27T08:25:16.0000000+00:00</time></trkpt><trkpt lat="22.167107" lon="104.354385"><ele>77.3</ele><time>2011-04-27T08:25:21.0000000+00:00</time></trkpt><trkpt lat="22.167099" lon="104.354393"><ele>77.5</ele><time>2011-04-27T08:25:26.0000000+00:00</time></trkpt><trkpt lat="22.167093" lon="104.354393"><ele>77.8</ele><time>2011-04-27T08:25:31.0000000+00:00</time></trkpt><trkpt lat="22.167093" lon="104.354393"><ele>78.1</ele><time>2011-04-27T08:25:36.0000000+00:00</time></trkpt><trkpt lat="22.167091" lon="104.354393"><ele>78.4</ele><time>2011-04-27T08:25:41.0000000+00:00</time></trkpt><trkpt lat="22.167089" lon="104.354393"><ele>78.5</ele><time>2011-04-27T08:25:46.0000000+00:00</time></trkpt><trkpt lat="22.167089" lon="104.354393"><ele>78.5</ele><time>2011-04-27T08:25:51.0000000+00:00</time></trkpt><trkpt lat="22.167089" lon="104.354393"><ele>78.5</ele><time>2011-04-27T08:25:56.0000000+00:00</time></trkpt><trkpt lat="22.167089" lon="104.354393"><ele>78.5</ele><time>2011-04-27T08:26:01.0000000+00:00</time></trkpt><trkpt lat="22.167089" lon="104.354393"><ele>78.5</ele><time>2011-04-27T08:26:06.0000000+00:00</time></trkpt><trkpt lat="22.167089" lon="104.354393"><ele>78.5</ele><time>2011-04-27T08:26:11.0000000+00:00</time></trkpt><trkpt lat="22.167089" lon="104.354393"><ele>78.5</ele><time>2011-04-27T08:26:16.0000000+00:00</time></trkpt><trkpt lat="22.167089" lon="104.354393"><ele>78.5</ele><time>2011-04-27T08:26:21.0000000+00:00</time></trkpt><trkpt lat="22.167089" lon="104.354393"><ele>78.5</ele><time>2011-04-27T08:26:26.0000000+00:00</time></trkpt><trkpt lat="22.167089" lon="104.354393"><ele>78.5</ele><time>2011-04-27T08:26:31.0000000+00:00</time></trkpt><trkpt lat="22.167089" lon="104.354393"><ele>78.5</ele><time>2011-04-27T08:26:36.0000000+00:00</time></trkpt><trkpt lat="22.167089" lon="104.354401"><ele>78.6</ele><time>2011-04-27T08:26:41.0000000+00:00</time></trkpt><trkpt lat="22.167089" lon="104.354401"><ele>78.6</ele><time>2011-04-27T08:26:46.0000000+00:00</time></trkpt><trkpt lat="22.167089" lon="104.354401"><ele>78.6</ele><time>2011-04-27T08:26:51.0000000+00:00</time></trkpt><trkpt lat="22.167089" lon="104.354401"><ele>78.6</ele><time>2011-04-27T08:26:56.0000000+00:00</time></trkpt><trkpt lat="22.167089" lon="104.354401"><ele>78.7</ele><time>2011-04-27T08:27:01.0000000+00:00</time></trkpt><trkpt lat="22.167089" lon="104.354401"><ele>78.7</ele><time>2011-04-27T08:27:06.0000000+00:00</time></trkpt><trkpt lat="22.167089" lon="104.354401"><ele>78.8</ele><time>2011-04-27T08:27:11.0000000+00:00</time></trkpt><trkpt lat="22.167089" lon="104.354401"><ele>78.8</ele><time>2011-04-27T08:27:16.0000000+00:00</time></trkpt><trkpt lat="22.167089" lon="104.354401"><ele>78.8</ele><time>2011-04-27T08:27:21.0000000+00:00</time></trkpt><trkpt lat="22.167089" lon="104.354401"><ele>78.8</ele><time>2011-04-27T08:27:26.0000000+00:00</time></trkpt><trkpt lat="22.167089" lon="104.354401"><ele>78.8</ele><time>2011-04-27T08:27:31.0000000+00:00</time></trkpt><trkpt lat="22.167089" lon="104.354401"><ele>78.8</ele><time>2011-04-27T08:27:36.0000000+00:00</time></trkpt><trkpt lat="22.167089" lon="104.354401"><ele>78.8</ele><time>2011-04-27T08:27:41.0000000+00:00</time></trkpt><trkpt lat="22.167089" lon="104.354401"><ele>78.9</ele><time>2011-04-27T08:27:46.0000000+00:00</time></trkpt><trkpt lat="22.167089" lon="104.354401"><ele>78.9</ele><time>2011-04-27T08:27:51.0000000+00:00</time></trkpt><trkpt lat="22.167089" lon="104.354401"><ele>78.9</ele><time>2011-04-27T08:27:56.0000000+00:00</time></trkpt><trkpt lat="22.167088" lon="104.354401"><ele>78.8</ele><time>2011-04-27T08:28:01.0000000+00:00</time></trkpt><trkpt lat="22.167088" lon="104.354401"><ele>78.9</ele><time>2011-04-27T08:28:06.0000000+00:00</time></trkpt><trkpt lat="22.167088" lon="104.354401"><ele>78.8</ele><time>2011-04-27T08:28:11.0000000+00:00</time></trkpt><trkpt lat="22.167088" lon="104.354401"><ele>78.8</ele><time>2011-04-27T08:28:16.0000000+00:00</time></trkpt><trkpt lat="22.167088" lon="104.354401"><ele>78.8</ele><time>2011-04-27T08:28:21.0000000+00:00</time></trkpt><trkpt lat="22.167088" lon="104.354401"><ele>78.8</ele><time>2011-04-27T08:28:26.0000000+00:00</time></trkpt><trkpt lat="22.167088" lon="104.354401"><ele>78.8</ele><time>2011-04-27T08:28:31.0000000+00:00</time></trkpt><trkpt lat="22.167088" lon="104.354401"><ele>78.8</ele><time>2011-04-27T08:28:36.0000000+00:00</time></trkpt><trkpt lat="22.167088" lon="104.354401"><ele>78.8</ele><time>2011-04-27T08:28:41.0000000+00:00</time></trkpt><trkpt lat="22.167088" lon="104.354401"><ele>78.9</ele><time>2011-04-27T08:28:46.0000000+00:00</time></trkpt><trkpt lat="22.167088" lon="104.354401"><ele>78.9</ele><time>2011-04-27T08:28:51.0000000+00:00</time></trkpt><trkpt lat="22.167088" lon="104.354401"><ele>78.9</ele><time>2011-04-27T08:28:56.0000000+00:00</time></trkpt><trkpt lat="22.167088" lon="104.354401"><ele>78.9</ele><time>2011-04-27T08:29:01.0000000+00:00</time></trkpt><trkpt lat="22.167088" lon="104.354401"><ele>78.9</ele><time>2011-04-27T08:29:06.0000000+00:00</time></trkpt><trkpt lat="22.167088" lon="104.354401"><ele>78.9</ele><time>2011-04-27T08:29:11.0000000+00:00</time></trkpt><trkpt lat="22.167086" lon="104.354401"><ele>78.9</ele><time>2011-04-27T08:29:16.0000000+00:00</time></trkpt><trkpt lat="22.167086" lon="104.354401"><ele>78.8</ele><time>2011-04-27T08:29:21.0000000+00:00</time></trkpt><trkpt lat="22.167086" lon="104.354401"><ele>78.8</ele><time>2011-04-27T08:29:26.0000000+00:00</time></trkpt><trkpt lat="22.167086" lon="104.354401"><ele>78.8</ele><time>2011-04-27T08:29:31.0000000+00:00</time></trkpt><trkpt lat="22.167086" lon="104.354401"><ele>78.9</ele><time>2011-04-27T08:29:36.0000000+00:00</time></trkpt><trkpt lat="22.167086" lon="104.354401"><ele>78.9</ele><time>2011-04-27T08:29:41.0000000+00:00</time></trkpt><trkpt lat="22.167086" lon="104.354401"><ele>78.9</ele><time>2011-04-27T08:29:46.0000000+00:00</time></trkpt><trkpt lat="22.167086" lon="104.354401"><ele>78.9</ele><time>2011-04-27T08:29:51.0000000+00:00</time></trkpt><trkpt lat="22.167086" lon="104.354401"><ele>78.9</ele><time>2011-04-27T08:29:56.0000000+00:00</time></trkpt><trkpt lat="22.167084" lon="104.354401"><ele>78.9</ele><time>2011-04-27T08:30:01.0000000+00:00</time></trkpt><trkpt lat="22.167084" lon="104.354401"><ele>78.9</ele><time>2011-04-27T08:30:06.0000000+00:00</time></trkpt><trkpt lat="22.167084" lon="104.354401"><ele>78.9</ele><time>2011-04-27T08:30:11.0000000+00:00</time></trkpt><trkpt lat="22.167084" lon="104.354401"><ele>78.9</ele><time>2011-04-27T08:30:16.0000000+00:00</time></trkpt><trkpt lat="22.167086" lon="104.354401"><ele>78.9</ele><time>2011-04-27T08:30:21.0000000+00:00</time></trkpt><trkpt lat="22.167086" lon="104.354401"><ele>78.9</ele><time>2011-04-27T08:30:26.0000000+00:00</time></trkpt><trkpt lat="22.167086" lon="104.354401"><ele>78.8</ele><time>2011-04-27T08:30:31.0000000+00:00</time></trkpt><trkpt lat="22.167086" lon="104.354401"><ele>78.8</ele><time>2011-04-27T08:30:36.0000000+00:00</time></trkpt><trkpt lat="22.167086" lon="104.354401"><ele>78.8</ele><time>2011-04-27T08:30:41.0000000+00:00</time></trkpt><trkpt lat="22.167086" lon="104.354401"><ele>78.8</ele><time>2011-04-27T08:30:46.0000000+00:00</time></trkpt><trkpt lat="22.167086" lon="104.354401"><ele>78.8</ele><time>2011-04-27T08:30:51.0000000+00:00</time></trkpt><trkpt lat="22.167086" lon="104.354401"><ele>78.9</ele><time>2011-04-27T08:30:56.0000000+00:00</time></trkpt><trkpt lat="22.167086" lon="104.354401"><ele>78.9</ele><time>2011-04-27T08:31:01.0000000+00:00</time></trkpt><trkpt lat="22.167086" lon="104.354401"><ele>79.0</ele><time>2011-04-27T08:31:06.0000000+00:00</time></trkpt><trkpt lat="22.167086" lon="104.354401"><ele>79.0</ele><time>2011-04-27T08:31:11.0000000+00:00</time></trkpt><trkpt lat="22.167086" lon="104.354401"><ele>79.1</ele><time>2011-04-27T08:31:16.0000000+00:00</time></trkpt><trkpt lat="22.167086" lon="104.354401"><ele>79.1</ele><time>2011-04-27T08:31:21.0000000+00:00</time></trkpt><trkpt lat="22.167086" lon="104.354401"><ele>79.1</ele><time>2011-04-27T08:31:26.0000000+00:00</time></trkpt><trkpt lat="22.167086" lon="104.354401"><ele>79.1</ele><time>2011-04-27T08:31:31.0000000+00:00</time></trkpt><trkpt lat="22.167086" lon="104.354401"><ele>79.1</ele><time>2011-04-27T08:31:36.0000000+00:00</time></trkpt><trkpt lat="22.167086" lon="104.354401"><ele>79.2</ele><time>2011-04-27T08:31:41.0000000+00:00</time></trkpt><trkpt lat="22.167088" lon="104.354401"><ele>79.2</ele><time>2011-04-27T08:31:46.0000000+00:00</time></trkpt><trkpt lat="22.167088" lon="104.354401"><ele>79.2</ele><time>2011-04-27T08:31:51.0000000+00:00</time></trkpt><trkpt lat="22.167088" lon="104.354401"><ele>79.2</ele><time>2011-04-27T08:31:56.0000000+00:00</time></trkpt><trkpt lat="22.167088" lon="104.354401"><ele>79.2</ele><time>2011-04-27T08:32:01.0000000+00:00</time></trkpt><trkpt lat="22.167088" lon="104.354401"><ele>79.2</ele><time>2011-04-27T08:32:06.0000000+00:00</time></trkpt><trkpt lat="22.167089" lon="104.354401"><ele>79.2</ele><time>2011-04-27T08:32:11.0000000+00:00</time></trkpt><trkpt lat="22.167089" lon="104.354401"><ele>79.2</ele><time>2011-04-27T08:32:16.0000000+00:00</time></trkpt><trkpt lat="22.167089" lon="104.354401"><ele>79.2</ele><time>2011-04-27T08:32:21.0000000+00:00</time></trkpt><trkpt lat="22.167089" lon="104.354401"><ele>79.2</ele><time>2011-04-27T08:32:26.0000000+00:00</time></trkpt><trkpt lat="22.167089" lon="104.354401"><ele>79.3</ele><time>2011-04-27T08:32:31.0000000+00:00</time></trkpt><trkpt lat="22.167089" lon="104.354401"><ele>79.3</ele><time>2011-04-27T08:32:36.0000000+00:00</time></trkpt><trkpt lat="22.167089" lon="104.354401"><ele>79.3</ele><time>2011-04-27T08:32:41.0000000+00:00</time></trkpt><trkpt lat="22.167089" lon="104.354401"><ele>79.4</ele><time>2011-04-27T08:32:46.0000000+00:00</time></trkpt><trkpt lat="22.167091" lon="104.354401"><ele>79.4</ele><time>2011-04-27T08:32:51.0000000+00:00</time></trkpt><trkpt lat="22.167091" lon="104.354401"><ele>79.5</ele><time>2011-04-27T08:32:56.0000000+00:00</time></trkpt><trkpt lat="22.167093" lon="104.354401"><ele>79.5</ele><time>2011-04-27T08:33:01.0000000+00:00</time></trkpt><trkpt lat="22.167095" lon="104.354401"><ele>79.6</ele><time>2011-04-27T08:33:06.0000000+00:00</time></trkpt><trkpt lat="22.167097" lon="104.354401"><ele>79.6</ele><time>2011-04-27T08:33:11.0000000+00:00</time></trkpt><trkpt lat="22.167095" lon="104.354401"><ele>79.7</ele><time>2011-04-27T08:33:16.0000000+00:00</time></trkpt><trkpt lat="22.167091" lon="104.354401"><ele>79.7</ele><time>2011-04-27T08:33:21.0000000+00:00</time></trkpt><trkpt lat="22.167086" lon="104.354408"><ele>79.8</ele><time>2011-04-27T08:33:26.0000000+00:00</time></trkpt><trkpt lat="22.167078" lon="104.354416"><ele>79.8</ele><time>2011-04-27T08:33:31.0000000+00:00</time></trkpt><trkpt lat="22.167068" lon="104.354424"><ele>79.9</ele><time>2011-04-27T08:33:36.0000000+00:00</time></trkpt><trkpt lat="22.167046" lon="104.354454"><ele>79.6</ele><time>2011-04-27T08:33:41.0000000+00:00</time></trkpt><trkpt lat="22.167023" lon="104.354477"><ele>79.7</ele><time>2011-04-27T08:33:46.0000000+00:00</time></trkpt><trkpt lat="22.167007" lon="104.354492"><ele>80.1</ele><time>2011-04-27T08:33:51.0000000+00:00</time></trkpt><trkpt lat="22.167004" lon="104.3545"><ele>80.2</ele><time>2011-04-27T08:33:56.0000000+00:00</time></trkpt><trkpt lat="22.166994" lon="104.354507"><ele>80.3</ele><time>2011-04-27T08:34:01.0000000+00:00</time></trkpt><trkpt lat="22.166988" lon="104.354507"><ele>80.4</ele><time>2011-04-27T08:34:06.0000000+00:00</time></trkpt><trkpt lat="22.166988" lon="104.354515"><ele>80.5</ele><time>2011-04-27T08:34:11.0000000+00:00</time></trkpt><trkpt lat="22.166988" lon="104.354515"><ele>80.5</ele><time>2011-04-27T08:34:16.0000000+00:00</time></trkpt><trkpt lat="22.166988" lon="104.354515"><ele>80.6</ele><time>2011-04-27T08:34:21.0000000+00:00</time></trkpt><trkpt lat="22.166988" lon="104.354515"><ele>80.7</ele><time>2011-04-27T08:34:26.0000000+00:00</time></trkpt><trkpt lat="22.166988" lon="104.354515"><ele>80.8</ele><time>2011-04-27T08:34:31.0000000+00:00</time></trkpt><trkpt lat="22.166988" lon="104.354515"><ele>80.9</ele><time>2011-04-27T08:34:36.0000000+00:00</time></trkpt><trkpt lat="22.166988" lon="104.354515"><ele>81.0</ele><time>2011-04-27T08:34:41.0000000+00:00</time></trkpt><trkpt lat="22.16699" lon="104.354515"><ele>81.1</ele><time>2011-04-27T08:34:46.0000000+00:00</time></trkpt><trkpt lat="22.166994" lon="104.354515"><ele>81.2</ele><time>2011-04-27T08:34:51.0000000+00:00</time></trkpt><trkpt lat="22.166994" lon="104.354515"><ele>81.3</ele><time>2011-04-27T08:34:56.0000000+00:00</time></trkpt><trkpt lat="22.166994" lon="104.354515"><ele>81.4</ele><time>2011-04-27T08:35:01.0000000+00:00</time></trkpt><trkpt lat="22.166996" lon="104.354515"><ele>81.5</ele><time>2011-04-27T08:35:06.0000000+00:00</time></trkpt><trkpt lat="22.166996" lon="104.354515"><ele>81.6</ele><time>2011-04-27T08:35:11.0000000+00:00</time></trkpt><trkpt lat="22.166994" lon="104.354515"><ele>81.7</ele><time>2011-04-27T08:35:16.0000000+00:00</time></trkpt><trkpt lat="22.166994" lon="104.354515"><ele>81.8</ele><time>2011-04-27T08:35:21.0000000+00:00</time></trkpt><trkpt lat="22.166998" lon="104.354515"><ele>81.8</ele><time>2011-04-27T08:35:26.0000000+00:00</time></trkpt><trkpt lat="22.167048" lon="104.354485"><ele>81.6</ele><time>2011-04-27T08:35:31.0000000+00:00</time></trkpt><trkpt lat="22.167124" lon="104.354431"><ele>81.0</ele><time>2011-04-27T08:35:36.0000000+00:00</time></trkpt><trkpt lat="22.16715" lon="104.354408"><ele>80.2</ele><time>2011-04-27T08:35:41.0000000+00:00</time></trkpt><trkpt lat="22.16715" lon="104.354408"><ele>80.2</ele><time>2011-04-27T08:35:46.0000000+00:00</time></trkpt><trkpt lat="22.16715" lon="104.354408"><ele>80.2</ele><time>2011-04-27T08:35:51.0000000+00:00</time></trkpt><trkpt lat="22.16715" lon="104.354408"><ele>80.2</ele><time>2011-04-27T08:35:56.0000000+00:00</time></trkpt><trkpt lat="22.16715" lon="104.354408"><ele>80.2</ele><time>2011-04-27T08:36:01.0000000+00:00</time></trkpt><trkpt lat="22.167152" lon="104.354408"><ele>80.2</ele><time>2011-04-27T08:36:06.0000000+00:00</time></trkpt><trkpt lat="22.167152" lon="104.354408"><ele>80.2</ele><time>2011-04-27T08:36:11.0000000+00:00</time></trkpt><trkpt lat="22.167152" lon="104.354408"><ele>80.2</ele><time>2011-04-27T08:36:16.0000000+00:00</time></trkpt><trkpt lat="22.167152" lon="104.354408"><ele>80.2</ele><time>2011-04-27T08:36:21.0000000+00:00</time></trkpt><trkpt lat="22.167152" lon="104.354408"><ele>80.1</ele><time>2011-04-27T08:36:26.0000000+00:00</time></trkpt><trkpt lat="22.167154" lon="104.354408"><ele>80.0</ele><time>2011-04-27T08:36:31.0000000+00:00</time></trkpt><trkpt lat="22.167154" lon="104.354408"><ele>80.0</ele><time>2011-04-27T08:36:36.0000000+00:00</time></trkpt><trkpt lat="22.167154" lon="104.354408"><ele>80.0</ele><time>2011-04-27T08:36:41.0000000+00:00</time></trkpt><trkpt lat="22.167154" lon="104.354408"><ele>80.0</ele><time>2011-04-27T08:36:46.0000000+00:00</time></trkpt><trkpt lat="22.167156" lon="104.354408"><ele>80.0</ele><time>2011-04-27T08:36:51.0000000+00:00</time></trkpt><trkpt lat="22.167156" lon="104.354408"><ele>80.0</ele><time>2011-04-27T08:36:56.0000000+00:00</time></trkpt><trkpt lat="22.167156" lon="104.354408"><ele>80.0</ele><time>2011-04-27T08:37:01.0000000+00:00</time></trkpt><trkpt lat="22.167156" lon="104.354408"><ele>80.0</ele><time>2011-04-27T08:37:06.0000000+00:00</time></trkpt><trkpt lat="22.167156" lon="104.354408"><ele>80.0</ele><time>2011-04-27T08:37:11.0000000+00:00</time></trkpt><trkpt lat="22.167156" lon="104.354408"><ele>80.0</ele><time>2011-04-27T08:37:16.0000000+00:00</time></trkpt><trkpt lat="22.167156" lon="104.354408"><ele>80.0</ele><time>2011-04-27T08:37:21.0000000+00:00</time></trkpt><trkpt lat="22.167156" lon="104.354408"><ele>80.0</ele><time>2011-04-27T08:37:26.0000000+00:00</time></trkpt><trkpt lat="22.167158" lon="104.354408"><ele>80.0</ele><time>2011-04-27T08:37:31.0000000+00:00</time></trkpt><trkpt lat="22.167158" lon="104.354408"><ele>80.1</ele><time>2011-04-27T08:37:36.0000000+00:00</time></trkpt><trkpt lat="22.167158" lon="104.354408"><ele>80.1</ele><time>2011-04-27T08:37:41.0000000+00:00</time></trkpt><trkpt lat="22.167158" lon="104.354408"><ele>80.1</ele><time>2011-04-27T08:37:46.0000000+00:00</time></trkpt><trkpt lat="22.167158" lon="104.354408"><ele>80.1</ele><time>2011-04-27T08:37:51.0000000+00:00</time></trkpt><trkpt lat="22.167158" lon="104.354408"><ele>80.1</ele><time>2011-04-27T08:37:56.0000000+00:00</time></trkpt><trkpt lat="22.167158" lon="104.354408"><ele>80.2</ele><time>2011-04-27T08:38:01.0000000+00:00</time></trkpt><trkpt lat="22.167158" lon="104.354408"><ele>80.2</ele><time>2011-04-27T08:38:06.0000000+00:00</time></trkpt><trkpt lat="22.167158" lon="104.354408"><ele>80.2</ele><time>2011-04-27T08:38:11.0000000+00:00</time></trkpt><trkpt lat="22.16716" lon="104.354408"><ele>80.3</ele><time>2011-04-27T08:38:16.0000000+00:00</time></trkpt><trkpt lat="22.16716" lon="104.354408"><ele>80.3</ele><time>2011-04-27T08:38:21.0000000+00:00</time></trkpt><trkpt lat="22.16716" lon="104.354408"><ele>80.3</ele><time>2011-04-27T08:38:26.0000000+00:00</time></trkpt><trkpt lat="22.16716" lon="104.354408"><ele>80.3</ele><time>2011-04-27T08:38:31.0000000+00:00</time></trkpt><trkpt lat="22.16716" lon="104.354408"><ele>80.3</ele><time>2011-04-27T08:38:36.0000000+00:00</time></trkpt><trkpt lat="22.16716" lon="104.354408"><ele>80.3</ele><time>2011-04-27T08:38:41.0000000+00:00</time></trkpt><trkpt lat="22.16716" lon="104.354408"><ele>80.3</ele><time>2011-04-27T08:38:46.0000000+00:00</time></trkpt><trkpt lat="22.167162" lon="104.354408"><ele>80.3</ele><time>2011-04-27T08:38:51.0000000+00:00</time></trkpt><trkpt lat="22.167162" lon="104.354408"><ele>80.4</ele><time>2011-04-27T08:38:56.0000000+00:00</time></trkpt><trkpt lat="22.167162" lon="104.354408"><ele>80.4</ele><time>2011-04-27T08:39:01.0000000+00:00</time></trkpt><trkpt lat="22.167162" lon="104.354408"><ele>80.5</ele><time>2011-04-27T08:39:06.0000000+00:00</time></trkpt><trkpt lat="22.167162" lon="104.354408"><ele>80.5</ele><time>2011-04-27T08:39:11.0000000+00:00</time></trkpt><trkpt lat="22.167162" lon="104.354408"><ele>80.5</ele><time>2011-04-27T08:39:16.0000000+00:00</time></trkpt><trkpt lat="22.167162" lon="104.354408"><ele>80.5</ele><time>2011-04-27T08:39:21.0000000+00:00</time></trkpt><trkpt lat="22.167162" lon="104.354408"><ele>80.5</ele><time>2011-04-27T08:39:26.0000000+00:00</time></trkpt><trkpt lat="22.167162" lon="104.354408"><ele>80.5</ele><time>2011-04-27T08:39:31.0000000+00:00</time></trkpt><trkpt lat="22.167162" lon="104.354408"><ele>80.5</ele><time>2011-04-27T08:39:36.0000000+00:00</time></trkpt><trkpt lat="22.167164" lon="104.354408"><ele>80.5</ele><time>2011-04-27T08:39:41.0000000+00:00</time></trkpt><trkpt lat="22.167164" lon="104.354408"><ele>80.6</ele><time>2011-04-27T08:39:46.0000000+00:00</time></trkpt><trkpt lat="22.167164" lon="104.354408"><ele>80.6</ele><time>2011-04-27T08:39:51.0000000+00:00</time></trkpt><trkpt lat="22.167164" lon="104.354408"><ele>80.6</ele><time>2011-04-27T08:39:56.0000000+00:00</time></trkpt><trkpt lat="22.167164" lon="104.354416"><ele>80.6</ele><time>2011-04-27T08:40:01.0000000+00:00</time></trkpt><trkpt lat="22.167164" lon="104.354416"><ele>80.6</ele><time>2011-04-27T08:40:06.0000000+00:00</time></trkpt><trkpt lat="22.167164" lon="104.354416"><ele>80.6</ele><time>2011-04-27T08:40:11.0000000+00:00</time></trkpt><trkpt lat="22.167164" lon="104.354416"><ele>80.6</ele><time>2011-04-27T08:40:16.0000000+00:00</time></trkpt><trkpt lat="22.167164" lon="104.354416"><ele>80.6</ele><time>2011-04-27T08:40:21.0000000+00:00</time></trkpt><trkpt lat="22.167164" lon="104.354416"><ele>80.6</ele><time>2011-04-27T08:40:26.0000000+00:00</time></trkpt><trkpt lat="22.167164" lon="104.354416"><ele>80.6</ele><time>2011-04-27T08:40:31.0000000+00:00</time></trkpt><trkpt lat="22.167164" lon="104.354416"><ele>80.7</ele><time>2011-04-27T08:40:36.0000000+00:00</time></trkpt><trkpt lat="22.167164" lon="104.354416"><ele>80.7</ele><time>2011-04-27T08:40:41.0000000+00:00</time></trkpt><trkpt lat="22.167166" lon="104.354416"><ele>80.7</ele><time>2011-04-27T08:40:46.0000000+00:00</time></trkpt><trkpt lat="22.167166" lon="104.354416"><ele>80.7</ele><time>2011-04-27T08:40:51.0000000+00:00</time></trkpt><trkpt lat="22.167166" lon="104.354416"><ele>80.7</ele><time>2011-04-27T08:40:56.0000000+00:00</time></trkpt><trkpt lat="22.167166" lon="104.354416"><ele>80.7</ele><time>2011-04-27T08:41:01.0000000+00:00</time></trkpt><trkpt lat="22.167166" lon="104.354416"><ele>80.7</ele><time>2011-04-27T08:41:06.0000000+00:00</time></trkpt><trkpt lat="22.167166" lon="104.354416"><ele>80.7</ele><time>2011-04-27T08:41:11.0000000+00:00</time></trkpt><trkpt lat="22.167166" lon="104.354416"><ele>80.7</ele><time>2011-04-27T08:41:16.0000000+00:00</time></trkpt><trkpt lat="22.167168" lon="104.354416"><ele>80.8</ele><time>2011-04-27T08:41:21.0000000+00:00</time></trkpt><trkpt lat="22.167168" lon="104.354416"><ele>80.8</ele><time>2011-04-27T08:41:26.0000000+00:00</time></trkpt><trkpt lat="22.167168" lon="104.354416"><ele>80.8</ele><time>2011-04-27T08:41:31.0000000+00:00</time></trkpt><trkpt lat="22.167168" lon="104.354416"><ele>80.8</ele><time>2011-04-27T08:41:36.0000000+00:00</time></trkpt><trkpt lat="22.16717" lon="104.354408"><ele>80.8</ele><time>2011-04-27T08:41:41.0000000+00:00</time></trkpt><trkpt lat="22.16717" lon="104.354408"><ele>80.8</ele><time>2011-04-27T08:41:46.0000000+00:00</time></trkpt><trkpt lat="22.16717" lon="104.354408"><ele>80.9</ele><time>2011-04-27T08:41:51.0000000+00:00</time></trkpt><trkpt lat="22.16717" lon="104.354408"><ele>80.9</ele><time>2011-04-27T08:41:56.0000000+00:00</time></trkpt><trkpt lat="22.167171" lon="104.354408"><ele>80.9</ele><time>2011-04-27T08:42:01.0000000+00:00</time></trkpt><trkpt lat="22.167171" lon="104.354408"><ele>80.9</ele><time>2011-04-27T08:42:06.0000000+00:00</time></trkpt><trkpt lat="22.167171" lon="104.354408"><ele>80.9</ele><time>2011-04-27T08:42:11.0000000+00:00</time></trkpt><trkpt lat="22.167171" lon="104.354408"><ele>80.9</ele><time>2011-04-27T08:42:16.0000000+00:00</time></trkpt><trkpt lat="22.167173" lon="104.354408"><ele>80.8</ele><time>2011-04-27T08:42:21.0000000+00:00</time></trkpt><trkpt lat="22.167173" lon="104.354408"><ele>80.8</ele><time>2011-04-27T08:42:26.0000000+00:00</time></trkpt><trkpt lat="22.167175" lon="104.354408"><ele>80.8</ele><time>2011-04-27T08:42:31.0000000+00:00</time></trkpt><trkpt lat="22.167175" lon="104.354408"><ele>80.8</ele><time>2011-04-27T08:42:36.0000000+00:00</time></trkpt><trkpt lat="22.167175" lon="104.354408"><ele>80.8</ele><time>2011-04-27T08:42:41.0000000+00:00</time></trkpt><trkpt lat="22.167175" lon="104.354408"><ele>80.8</ele><time>2011-04-27T08:42:46.0000000+00:00</time></trkpt><trkpt lat="22.167175" lon="104.354408"><ele>80.8</ele><time>2011-04-27T08:42:51.0000000+00:00</time></trkpt><trkpt lat="22.167175" lon="104.354408"><ele>80.8</ele><time>2011-04-27T08:42:56.0000000+00:00</time></trkpt><trkpt lat="22.167175" lon="104.354408"><ele>80.9</ele><time>2011-04-27T08:43:01.0000000+00:00</time></trkpt><trkpt lat="22.167177" lon="104.354408"><ele>80.9</ele><time>2011-04-27T08:43:06.0000000+00:00</time></trkpt><trkpt lat="22.167177" lon="104.354408"><ele>80.9</ele><time>2011-04-27T08:43:11.0000000+00:00</time></trkpt><trkpt lat="22.167177" lon="104.354408"><ele>80.9</ele><time>2011-04-27T08:43:16.0000000+00:00</time></trkpt><trkpt lat="22.167179" lon="104.354408"><ele>80.9</ele><time>2011-04-27T08:43:21.0000000+00:00</time></trkpt><trkpt lat="22.167179" lon="104.354408"><ele>80.9</ele><time>2011-04-27T08:43:26.0000000+00:00</time></trkpt><trkpt lat="22.167179" lon="104.354408"><ele>81.0</ele><time>2011-04-27T08:43:31.0000000+00:00</time></trkpt><trkpt lat="22.167179" lon="104.354408"><ele>81.1</ele><time>2011-04-27T08:43:36.0000000+00:00</time></trkpt><trkpt lat="22.167181" lon="104.354408"><ele>81.1</ele><time>2011-04-27T08:43:41.0000000+00:00</time></trkpt><trkpt lat="22.167181" lon="104.354408"><ele>81.2</ele><time>2011-04-27T08:43:46.0000000+00:00</time></trkpt><trkpt lat="22.167181" lon="104.354408"><ele>81.3</ele><time>2011-04-27T08:43:51.0000000+00:00</time></trkpt><trkpt lat="22.167181" lon="104.354408"><ele>81.4</ele><time>2011-04-27T08:43:56.0000000+00:00</time></trkpt><trkpt lat="22.167183" lon="104.354408"><ele>81.6</ele><time>2011-04-27T08:44:01.0000000+00:00</time></trkpt><trkpt lat="22.167183" lon="104.354408"><ele>81.7</ele><time>2011-04-27T08:44:06.0000000+00:00</time></trkpt><trkpt lat="22.167185" lon="104.354408"><ele>81.8</ele><time>2011-04-27T08:44:11.0000000+00:00</time></trkpt><trkpt lat="22.167185" lon="104.354408"><ele>82.0</ele><time>2011-04-27T08:44:16.0000000+00:00</time></trkpt><trkpt lat="22.167185" lon="104.354408"><ele>82.1</ele><time>2011-04-27T08:44:21.0000000+00:00</time></trkpt><trkpt lat="22.167187" lon="104.354408"><ele>82.2</ele><time>2011-04-27T08:44:26.0000000+00:00</time></trkpt><trkpt lat="22.167187" lon="104.354408"><ele>82.4</ele><time>2011-04-27T08:44:31.0000000+00:00</time></trkpt><trkpt lat="22.167189" lon="104.354416"><ele>82.5</ele><time>2011-04-27T08:44:36.0000000+00:00</time></trkpt><trkpt lat="22.167189" lon="104.354416"><ele>82.6</ele><time>2011-04-27T08:44:41.0000000+00:00</time></trkpt><trkpt lat="22.167189" lon="104.354416"><ele>82.8</ele><time>2011-04-27T08:44:46.0000000+00:00</time></trkpt><trkpt lat="22.167191" lon="104.354416"><ele>82.9</ele><time>2011-04-27T08:44:51.0000000+00:00</time></trkpt><trkpt lat="22.167191" lon="104.354416"><ele>83.0</ele><time>2011-04-27T08:44:56.0000000+00:00</time></trkpt><trkpt lat="22.167191" lon="104.354416"><ele>83.1</ele><time>2011-04-27T08:45:01.0000000+00:00</time></trkpt><trkpt lat="22.167191" lon="104.354416"><ele>83.2</ele><time>2011-04-27T08:45:06.0000000+00:00</time></trkpt><trkpt lat="22.167192" lon="104.354416"><ele>83.2</ele><time>2011-04-27T08:45:11.0000000+00:00</time></trkpt><trkpt lat="22.167192" lon="104.354416"><ele>83.3</ele><time>2011-04-27T08:45:16.0000000+00:00</time></trkpt><trkpt lat="22.167194" lon="104.354416"><ele>83.3</ele><time>2011-04-27T08:45:21.0000000+00:00</time></trkpt><trkpt lat="22.167194" lon="104.354416"><ele>83.4</ele><time>2011-04-27T08:45:26.0000000+00:00</time></trkpt><trkpt lat="22.167194" lon="104.354416"><ele>83.5</ele><time>2011-04-27T08:45:31.0000000+00:00</time></trkpt><trkpt lat="22.167194" lon="104.354416"><ele>83.5</ele><time>2011-04-27T08:45:36.0000000+00:00</time></trkpt><trkpt lat="22.167194" lon="104.354416"><ele>83.6</ele><time>2011-04-27T08:45:41.0000000+00:00</time></trkpt><trkpt lat="22.167194" lon="104.354416"><ele>83.7</ele><time>2011-04-27T08:45:46.0000000+00:00</time></trkpt><trkpt lat="22.167194" lon="104.354424"><ele>83.8</ele><time>2011-04-27T08:45:51.0000000+00:00</time></trkpt><trkpt lat="22.167192" lon="104.354424"><ele>83.9</ele><time>2011-04-27T08:45:56.0000000+00:00</time></trkpt><trkpt lat="22.167192" lon="104.354424"><ele>84.0</ele><time>2011-04-27T08:46:01.0000000+00:00</time></trkpt><trkpt lat="22.167194" lon="104.354424"><ele>84.0</ele><time>2011-04-27T08:46:06.0000000+00:00</time></trkpt><trkpt lat="22.167194" lon="104.354424"><ele>84.1</ele><time>2011-04-27T08:46:11.0000000+00:00</time></trkpt><trkpt lat="22.167194" lon="104.354424"><ele>84.2</ele><time>2011-04-27T08:46:16.0000000+00:00</time></trkpt><trkpt lat="22.167194" lon="104.354424"><ele>84.3</ele><time>2011-04-27T08:46:21.0000000+00:00</time></trkpt><trkpt lat="22.167194" lon="104.354424"><ele>84.4</ele><time>2011-04-27T08:46:26.0000000+00:00</time></trkpt><trkpt lat="22.167196" lon="104.354424"><ele>84.5</ele><time>2011-04-27T08:46:31.0000000+00:00</time></trkpt><trkpt lat="22.167196" lon="104.354424"><ele>84.6</ele><time>2011-04-27T08:46:36.0000000+00:00</time></trkpt><trkpt lat="22.167196" lon="104.354431"><ele>84.7</ele><time>2011-04-27T08:46:41.0000000+00:00</time></trkpt><trkpt lat="22.167196" lon="104.354431"><ele>84.9</ele><time>2011-04-27T08:46:46.0000000+00:00</time></trkpt><trkpt lat="22.167196" lon="104.354431"><ele>85.0</ele><time>2011-04-27T08:46:51.0000000+00:00</time></trkpt><trkpt lat="22.167196" lon="104.354431"><ele>85.1</ele><time>2011-04-27T08:46:56.0000000+00:00</time></trkpt><trkpt lat="22.167196" lon="104.354431"><ele>85.1</ele><time>2011-04-27T08:47:01.0000000+00:00</time></trkpt><trkpt lat="22.167196" lon="104.354431"><ele>85.1</ele><time>2011-04-27T08:47:06.0000000+00:00</time></trkpt><trkpt lat="22.167196" lon="104.354431"><ele>85.2</ele><time>2011-04-27T08:47:11.0000000+00:00</time></trkpt><trkpt lat="22.167198" lon="104.354431"><ele>85.2</ele><time>2011-04-27T08:47:16.0000000+00:00</time></trkpt><trkpt lat="22.167198" lon="104.354431"><ele>85.1</ele><time>2011-04-27T08:47:21.0000000+00:00</time></trkpt><trkpt lat="22.167198" lon="104.354431"><ele>85.1</ele><time>2011-04-27T08:47:26.0000000+00:00</time></trkpt><trkpt lat="22.167198" lon="104.354431"><ele>85.1</ele><time>2011-04-27T08:47:31.0000000+00:00</time></trkpt><trkpt lat="22.167198" lon="104.354431"><ele>85.2</ele><time>2011-04-27T08:47:36.0000000+00:00</time></trkpt><trkpt lat="22.167198" lon="104.354431"><ele>85.2</ele><time>2011-04-27T08:47:41.0000000+00:00</time></trkpt><trkpt lat="22.167196" lon="104.354431"><ele>85.2</ele><time>2011-04-27T08:47:46.0000000+00:00</time></trkpt><trkpt lat="22.167196" lon="104.354431"><ele>85.2</ele><time>2011-04-27T08:47:51.0000000+00:00</time></trkpt><trkpt lat="22.167198" lon="104.354431"><ele>85.3</ele><time>2011-04-27T08:47:56.0000000+00:00</time></trkpt><trkpt lat="22.167198" lon="104.354431"><ele>85.3</ele><time>2011-04-27T08:48:01.0000000+00:00</time></trkpt><trkpt lat="22.167198" lon="104.354431"><ele>85.3</ele><time>2011-04-27T08:48:06.0000000+00:00</time></trkpt><trkpt lat="22.167196" lon="104.354439"><ele>85.4</ele><time>2011-04-27T08:48:11.0000000+00:00</time></trkpt><trkpt lat="22.167198" lon="104.354439"><ele>85.4</ele><time>2011-04-27T08:48:16.0000000+00:00</time></trkpt><trkpt lat="22.167196" lon="104.354439"><ele>85.4</ele><time>2011-04-27T08:48:21.0000000+00:00</time></trkpt><trkpt lat="22.167196" lon="104.354439"><ele>85.4</ele><time>2011-04-27T08:48:26.0000000+00:00</time></trkpt><trkpt lat="22.167196" lon="104.354439"><ele>85.4</ele><time>2011-04-27T08:48:31.0000000+00:00</time></trkpt><trkpt lat="22.167196" lon="104.354439"><ele>85.3</ele><time>2011-04-27T08:48:36.0000000+00:00</time></trkpt><trkpt lat="22.167194" lon="104.354439"><ele>85.3</ele><time>2011-04-27T08:48:41.0000000+00:00</time></trkpt><trkpt lat="22.167194" lon="104.354439"><ele>85.3</ele><time>2011-04-27T08:48:46.0000000+00:00</time></trkpt><trkpt lat="22.167194" lon="104.354439"><ele>85.4</ele><time>2011-04-27T08:48:51.0000000+00:00</time></trkpt><trkpt lat="22.167194" lon="104.354439"><ele>85.5</ele><time>2011-04-27T08:48:56.0000000+00:00</time></trkpt><trkpt lat="22.167194" lon="104.354439"><ele>85.5</ele><time>2011-04-27T08:49:01.0000000+00:00</time></trkpt><trkpt lat="22.167194" lon="104.354439"><ele>85.5</ele><time>2011-04-27T08:49:06.0000000+00:00</time></trkpt><trkpt lat="22.167196" lon="104.354439"><ele>85.5</ele><time>2011-04-27T08:49:11.0000000+00:00</time></trkpt><trkpt lat="22.167194" lon="104.354439"><ele>85.5</ele><time>2011-04-27T08:49:16.0000000+00:00</time></trkpt><trkpt lat="22.167196" lon="104.354439"><ele>85.5</ele><time>2011-04-27T08:49:21.0000000+00:00</time></trkpt><trkpt lat="22.167196" lon="104.354439"><ele>85.5</ele><time>2011-04-27T08:49:26.0000000+00:00</time></trkpt><trkpt lat="22.167196" lon="104.354439"><ele>85.5</ele><time>2011-04-27T08:49:31.0000000+00:00</time></trkpt><trkpt lat="22.167196" lon="104.354439"><ele>85.5</ele><time>2011-04-27T08:49:36.0000000+00:00</time></trkpt><trkpt lat="22.167196" lon="104.354439"><ele>85.5</ele><time>2011-04-27T08:49:41.0000000+00:00</time></trkpt><trkpt lat="22.167196" lon="104.354439"><ele>85.5</ele><time>2011-04-27T08:49:46.0000000+00:00</time></trkpt><trkpt lat="22.167196" lon="104.354439"><ele>85.5</ele><time>2011-04-27T08:49:51.0000000+00:00</time></trkpt><trkpt lat="22.167196" lon="104.354439"><ele>85.5</ele><time>2011-04-27T08:49:56.0000000+00:00</time></trkpt><trkpt lat="22.167196" lon="104.354439"><ele>85.5</ele><time>2011-04-27T08:50:01.0000000+00:00</time></trkpt><trkpt lat="22.167196" lon="104.354439"><ele>85.5</ele><time>2011-04-27T08:50:06.0000000+00:00</time></trkpt><trkpt lat="22.167196" lon="104.354439"><ele>85.5</ele><time>2011-04-27T08:50:11.0000000+00:00</time></trkpt><trkpt lat="22.167196" lon="104.354439"><ele>85.5</ele><time>2011-04-27T08:50:16.0000000+00:00</time></trkpt><trkpt lat="22.167196" lon="104.354439"><ele>85.4</ele><time>2011-04-27T08:50:21.0000000+00:00</time></trkpt><trkpt lat="22.167196" lon="104.354439"><ele>85.4</ele><time>2011-04-27T08:50:26.0000000+00:00</time></trkpt><trkpt lat="22.167196" lon="104.354439"><ele>85.4</ele><time>2011-04-27T08:50:31.0000000+00:00</time></trkpt><trkpt lat="22.167194" lon="104.354439"><ele>85.4</ele><time>2011-04-27T08:50:36.0000000+00:00</time></trkpt><trkpt lat="22.167194" lon="104.354439"><ele>85.4</ele><time>2011-04-27T08:50:41.0000000+00:00</time></trkpt><trkpt lat="22.167194" lon="104.354439"><ele>85.4</ele><time>2011-04-27T08:50:46.0000000+00:00</time></trkpt><trkpt lat="22.167194" lon="104.354439"><ele>85.3</ele><time>2011-04-27T08:50:51.0000000+00:00</time></trkpt><trkpt lat="22.167194" lon="104.354439"><ele>85.3</ele><time>2011-04-27T08:50:56.0000000+00:00</time></trkpt><trkpt lat="22.167194" lon="104.354439"><ele>85.3</ele><time>2011-04-27T08:51:01.0000000+00:00</time></trkpt><trkpt lat="22.167194" lon="104.354439"><ele>85.2</ele><time>2011-04-27T08:51:06.0000000+00:00</time></trkpt><trkpt lat="22.167196" lon="104.354439"><ele>85.2</ele><time>2011-04-27T08:51:11.0000000+00:00</time></trkpt><trkpt lat="22.167196" lon="104.354439"><ele>85.2</ele><time>2011-04-27T08:51:16.0000000+00:00</time></trkpt><trkpt lat="22.167196" lon="104.354439"><ele>85.2</ele><time>2011-04-27T08:51:21.0000000+00:00</time></trkpt><trkpt lat="22.167196" lon="104.354439"><ele>85.1</ele><time>2011-04-27T08:51:26.0000000+00:00</time></trkpt><trkpt lat="22.167196" lon="104.354439"><ele>85.1</ele><time>2011-04-27T08:51:31.0000000+00:00</time></trkpt><trkpt lat="22.167196" lon="104.354439"><ele>85.1</ele><time>2011-04-27T08:51:36.0000000+00:00</time></trkpt><trkpt lat="22.167196" lon="104.354439"><ele>85.1</ele><time>2011-04-27T08:51:41.0000000+00:00</time></trkpt><trkpt lat="22.167196" lon="104.354439"><ele>85.1</ele><time>2011-04-27T08:51:46.0000000+00:00</time></trkpt><trkpt lat="22.167196" lon="104.354439"><ele>85.1</ele><time>2011-04-27T08:51:51.0000000+00:00</time></trkpt><trkpt lat="22.167196" lon="104.354439"><ele>85.0</ele><time>2011-04-27T08:51:56.0000000+00:00</time></trkpt><trkpt lat="22.167196" lon="104.354439"><ele>85.0</ele><time>2011-04-27T08:52:01.0000000+00:00</time></trkpt><trkpt lat="22.167196" lon="104.354439"><ele>85.0</ele><time>2011-04-27T08:52:06.0000000+00:00</time></trkpt><trkpt lat="22.167196" lon="104.354439"><ele>85.0</ele><time>2011-04-27T08:52:11.0000000+00:00</time></trkpt><trkpt lat="22.167196" lon="104.354439"><ele>85.0</ele><time>2011-04-27T08:52:16.0000000+00:00</time></trkpt><trkpt lat="22.167194" lon="104.354439"><ele>84.9</ele><time>2011-04-27T08:52:21.0000000+00:00</time></trkpt><trkpt lat="22.167196" lon="104.354431"><ele>84.8</ele><time>2011-04-27T08:52:26.0000000+00:00</time></trkpt><trkpt lat="22.167198" lon="104.354431"><ele>84.6</ele><time>2011-04-27T08:52:31.0000000+00:00</time></trkpt><trkpt lat="22.167192" lon="104.354431"><ele>84.5</ele><time>2011-04-27T08:52:36.0000000+00:00</time></trkpt><trkpt lat="22.167185" lon="104.354431"><ele>84.6</ele><time>2011-04-27T08:52:41.0000000+00:00</time></trkpt><trkpt lat="22.167187" lon="104.354431"><ele>84.6</ele><time>2011-04-27T08:52:46.0000000+00:00</time></trkpt><trkpt lat="22.167192" lon="104.354431"><ele>84.5</ele><time>2011-04-27T08:52:51.0000000+00:00</time></trkpt><trkpt lat="22.167198" lon="104.354431"><ele>84.4</ele><time>2011-04-27T08:52:56.0000000+00:00</time></trkpt><trkpt lat="22.1672" lon="104.354424"><ele>84.3</ele><time>2011-04-27T08:53:01.0000000+00:00</time></trkpt><trkpt lat="22.167179" lon="104.354477"><ele>83.7</ele><time>2011-04-27T08:53:06.0000000+00:00</time></trkpt><trkpt lat="22.167295" lon="104.354553"><ele>81.7</ele><time>2011-04-27T08:53:11.0000000+00:00</time></trkpt><trkpt lat="22.167347" lon="104.354599"><ele>81.5</ele><time>2011-04-27T08:53:16.0000000+00:00</time></trkpt><trkpt lat="22.167349" lon="104.354591"><ele>81.2</ele><time>2011-04-27T08:53:21.0000000+00:00</time></trkpt><trkpt lat="22.167423" lon="104.354614"><ele>81.3</ele><time>2011-04-27T08:53:26.0000000+00:00</time></trkpt><trkpt lat="22.167486" lon="104.354668"><ele>81.3</ele><time>2011-04-27T08:53:31.0000000+00:00</time></trkpt><trkpt lat="22.167583" lon="104.354744"><ele>81.3</ele><time>2011-04-27T08:53:36.0000000+00:00</time></trkpt><trkpt lat="22.167658" lon="104.35482"><ele>81.0</ele><time>2011-04-27T08:53:41.0000000+00:00</time></trkpt><trkpt lat="22.16777" lon="104.354996"><ele>77.6</ele><time>2011-04-27T08:53:46.0000000+00:00</time></trkpt><trkpt lat="22.167906" lon="104.355118"><ele>76.7</ele><time>2011-04-27T08:53:51.0000000+00:00</time></trkpt><trkpt lat="22.168024" lon="104.355232"><ele>75.2</ele><time>2011-04-27T08:53:56.0000000+00:00</time></trkpt><trkpt lat="22.168034" lon="104.355362"><ele>73.2</ele><time>2011-04-27T08:54:01.0000000+00:00</time></trkpt><trkpt lat="22.167978" lon="104.355438"><ele>70.1</ele><time>2011-04-27T08:54:06.0000000+00:00</time></trkpt><trkpt lat="22.167952" lon="104.355438"><ele>69.0</ele><time>2011-04-27T08:54:11.0000000+00:00</time></trkpt><trkpt lat="22.167942" lon="104.355438"><ele>68.5</ele><time>2011-04-27T08:54:16.0000000+00:00</time></trkpt><trkpt lat="22.167933" lon="104.355438"><ele>68.2</ele><time>2011-04-27T08:54:21.0000000+00:00</time></trkpt><trkpt lat="22.167921" lon="104.355438"><ele>68.0</ele><time>2011-04-27T08:54:26.0000000+00:00</time></trkpt><trkpt lat="22.167917" lon="104.355438"><ele>67.9</ele><time>2011-04-27T08:54:31.0000000+00:00</time></trkpt><trkpt lat="22.167921" lon="104.355438"><ele>67.8</ele><time>2011-04-27T08:54:36.0000000+00:00</time></trkpt><trkpt lat="22.167925" lon="104.355431"><ele>67.8</ele><time>2011-04-27T08:54:41.0000000+00:00</time></trkpt><trkpt lat="22.167925" lon="104.355431"><ele>67.8</ele><time>2011-04-27T08:54:46.0000000+00:00</time></trkpt><trkpt lat="22.167923" lon="104.355438"><ele>67.8</ele><time>2011-04-27T08:54:51.0000000+00:00</time></trkpt><trkpt lat="22.167921" lon="104.355446"><ele>67.8</ele><time>2011-04-27T08:54:56.0000000+00:00</time></trkpt><trkpt lat="22.167925" lon="104.355446"><ele>67.8</ele><time>2011-04-27T08:55:01.0000000+00:00</time></trkpt><trkpt lat="22.167925" lon="104.355438"><ele>67.8</ele><time>2011-04-27T08:55:06.0000000+00:00</time></trkpt><trkpt lat="22.167921" lon="104.355446"><ele>67.8</ele><time>2011-04-27T08:55:11.0000000+00:00</time></trkpt><trkpt lat="22.167925" lon="104.355453"><ele>67.8</ele><time>2011-04-27T08:55:16.0000000+00:00</time></trkpt><trkpt lat="22.167957" lon="104.355461"><ele>67.8</ele><time>2011-04-27T08:55:21.0000000+00:00</time></trkpt><trkpt lat="22.168144" lon="104.355438"><ele>68.2</ele><time>2011-04-27T08:55:26.0000000+00:00</time></trkpt><trkpt lat="22.16831" lon="104.355545"><ele>69.7</ele><time>2011-04-27T08:55:31.0000000+00:00</time></trkpt><trkpt lat="22.168459" lon="104.355614"><ele>69.5</ele><time>2011-04-27T08:55:36.0000000+00:00</time></trkpt><trkpt lat="22.168648" lon="104.355682"><ele>68.7</ele><time>2011-04-27T08:55:41.0000000+00:00</time></trkpt><trkpt lat="22.168747" lon="104.355721"><ele>70.0</ele><time>2011-04-27T08:55:46.0000000+00:00</time></trkpt><trkpt lat="22.168814" lon="104.355751"><ele>69.8</ele><time>2011-04-27T08:55:51.0000000+00:00</time></trkpt><trkpt lat="22.168812" lon="104.355743"><ele>68.0</ele><time>2011-04-27T08:55:56.0000000+00:00</time></trkpt><trkpt lat="22.16881" lon="104.355743"><ele>68.0</ele><time>2011-04-27T08:56:01.0000000+00:00</time></trkpt><trkpt lat="22.168808" lon="104.355743"><ele>68.0</ele><time>2011-04-27T08:56:06.0000000+00:00</time></trkpt><trkpt lat="22.168808" lon="104.355743"><ele>68.1</ele><time>2011-04-27T08:56:11.0000000+00:00</time></trkpt><trkpt lat="22.168806" lon="104.355743"><ele>67.9</ele><time>2011-04-27T08:56:16.0000000+00:00</time></trkpt><trkpt lat="22.168808" lon="104.355751"><ele>68.1</ele><time>2011-04-27T08:56:21.0000000+00:00</time></trkpt><trkpt lat="22.168814" lon="104.355751"><ele>68.0</ele><time>2011-04-27T08:56:26.0000000+00:00</time></trkpt><trkpt lat="22.168802" lon="104.355751"><ele>67.6</ele><time>2011-04-27T08:56:31.0000000+00:00</time></trkpt><trkpt lat="22.168804" lon="104.355751"><ele>67.0</ele><time>2011-04-27T08:56:36.0000000+00:00</time></trkpt><trkpt lat="22.168806" lon="104.355743"><ele>66.0</ele><time>2011-04-27T08:56:41.0000000+00:00</time></trkpt><trkpt lat="22.168806" lon="104.355743"><ele>65.7</ele><time>2011-04-27T08:56:46.0000000+00:00</time></trkpt><trkpt lat="22.168802" lon="104.355743"><ele>65.2</ele><time>2011-04-27T08:56:51.0000000+00:00</time></trkpt><trkpt lat="22.168802" lon="104.355743"><ele>65.4</ele><time>2011-04-27T08:56:56.0000000+00:00</time></trkpt><trkpt lat="22.168802" lon="104.355743"><ele>65.4</ele><time>2011-04-27T08:57:01.0000000+00:00</time></trkpt><trkpt lat="22.168802" lon="104.355743"><ele>65.4</ele><time>2011-04-27T08:57:06.0000000+00:00</time></trkpt><trkpt lat="22.168844" lon="104.355736"><ele>65.3</ele><time>2011-04-27T08:57:11.0000000+00:00</time></trkpt><trkpt lat="22.168972" lon="104.355743"><ele>66.7</ele><time>2011-04-27T08:57:16.0000000+00:00</time></trkpt><trkpt lat="22.169102" lon="104.355743"><ele>68.1</ele><time>2011-04-27T08:57:21.0000000+00:00</time></trkpt><trkpt lat="22.169231" lon="104.355736"><ele>69.8</ele><time>2011-04-27T08:57:26.0000000+00:00</time></trkpt><trkpt lat="22.169365" lon="104.35569"><ele>69.3</ele><time>2011-04-27T08:57:31.0000000+00:00</time></trkpt><trkpt lat="22.169487" lon="104.355644"><ele>68.8</ele><time>2011-04-27T08:57:36.0000000+00:00</time></trkpt><trkpt lat="22.169584" lon="104.355576"><ele>67.3</ele><time>2011-04-27T08:57:41.0000000+00:00</time></trkpt><trkpt lat="22.16968" lon="104.355515"><ele>66.2</ele><time>2011-04-27T08:57:46.0000000+00:00</time></trkpt><trkpt lat="22.169786" lon="104.355469"><ele>67.0</ele><time>2011-04-27T08:57:51.0000000+00:00</time></trkpt><trkpt lat="22.169888" lon="104.355392"><ele>66.6</ele><time>2011-04-27T08:57:56.0000000+00:00</time></trkpt><trkpt lat="22.169971" lon="104.355331"><ele>66.3</ele><time>2011-04-27T08:58:01.0000000+00:00</time></trkpt><trkpt lat="22.170071" lon="104.355263"><ele>66.5</ele><time>2011-04-27T08:58:06.0000000+00:00</time></trkpt><trkpt lat="22.170151" lon="104.355232"><ele>66.2</ele><time>2011-04-27T08:58:11.0000000+00:00</time></trkpt><trkpt lat="22.170158" lon="104.355247"><ele>66.2</ele><time>2011-04-27T08:58:16.0000000+00:00</time></trkpt><trkpt lat="22.170158" lon="104.355247"><ele>66.1</ele><time>2011-04-27T08:58:21.0000000+00:00</time></trkpt><trkpt lat="22.170181" lon="104.355225"><ele>65.6</ele><time>2011-04-27T08:58:26.0000000+00:00</time></trkpt><trkpt lat="22.17024" lon="104.355171"><ele>65.1</ele><time>2011-04-27T08:58:31.0000000+00:00</time></trkpt><trkpt lat="22.170288" lon="104.355171"><ele>65.6</ele><time>2011-04-27T08:58:36.0000000+00:00</time></trkpt><trkpt lat="22.17028" lon="104.355164"><ele>65.4</ele><time>2011-04-27T08:58:41.0000000+00:00</time></trkpt><trkpt lat="22.17028" lon="104.355164"><ele>65.4</ele><time>2011-04-27T08:58:46.0000000+00:00</time></trkpt><trkpt lat="22.17028" lon="104.355164"><ele>65.4</ele><time>2011-04-27T08:58:51.0000000+00:00</time></trkpt><trkpt lat="22.17028" lon="104.355164"><ele>65.4</ele><time>2011-04-27T08:58:56.0000000+00:00</time></trkpt><trkpt lat="22.17028" lon="104.355164"><ele>65.4</ele><time>2011-04-27T08:59:01.0000000+00:00</time></trkpt><trkpt lat="22.17028" lon="104.355164"><ele>65.4</ele><time>2011-04-27T08:59:06.0000000+00:00</time></trkpt><trkpt lat="22.17028" lon="104.355164"><ele>65.4</ele><time>2011-04-27T08:59:11.0000000+00:00</time></trkpt><trkpt lat="22.17028" lon="104.355164"><ele>65.4</ele><time>2011-04-27T08:59:16.0000000+00:00</time></trkpt><trkpt lat="22.17028" lon="104.355164"><ele>65.4</ele><time>2011-04-27T08:59:21.0000000+00:00</time></trkpt><trkpt lat="22.17028" lon="104.355164"><ele>65.4</ele><time>2011-04-27T08:59:26.0000000+00:00</time></trkpt><trkpt lat="22.17028" lon="104.355164"><ele>65.4</ele><time>2011-04-27T08:59:31.0000000+00:00</time></trkpt><trkpt lat="22.17028" lon="104.355164"><ele>65.4</ele><time>2011-04-27T08:59:36.0000000+00:00</time></trkpt><trkpt lat="22.17028" lon="104.355164"><ele>65.4</ele><time>2011-04-27T08:59:41.0000000+00:00</time></trkpt><trkpt lat="22.17028" lon="104.355164"><ele>65.4</ele><time>2011-04-27T08:59:46.0000000+00:00</time></trkpt><trkpt lat="22.170294" lon="104.355148"><ele>65.4</ele><time>2011-04-27T08:59:51.0000000+00:00</time></trkpt><trkpt lat="22.170393" lon="104.355072"><ele>65.1</ele><time>2011-04-27T08:59:56.0000000+00:00</time></trkpt><trkpt lat="22.170536" lon="104.354996"><ele>64.7</ele><time>2011-04-27T09:00:01.0000000+00:00</time></trkpt><trkpt lat="22.170637" lon="104.354935"><ele>64.1</ele><time>2011-04-27T09:00:06.0000000+00:00</time></trkpt><trkpt lat="22.170732" lon="104.354881"><ele>63.4</ele><time>2011-04-27T09:00:11.0000000+00:00</time></trkpt><trkpt lat="22.170811" lon="104.354843"><ele>62.8</ele><time>2011-04-27T09:00:16.0000000+00:00</time></trkpt><trkpt lat="22.170893" lon="104.354813"><ele>63.4</ele><time>2011-04-27T09:00:21.0000000+00:00</time></trkpt><trkpt lat="22.170954" lon="104.354774"><ele>63.6</ele><time>2011-04-27T09:00:26.0000000+00:00</time></trkpt><trkpt lat="22.170956" lon="104.354774"><ele>64.0</ele><time>2011-04-27T09:00:31.0000000+00:00</time></trkpt><trkpt lat="22.170958" lon="104.354774"><ele>63.9</ele><time>2011-04-27T09:00:36.0000000+00:00</time></trkpt><trkpt lat="22.170958" lon="104.354774"><ele>64.0</ele><time>2011-04-27T09:00:41.0000000+00:00</time></trkpt><trkpt lat="22.170958" lon="104.354767"><ele>64.0</ele><time>2011-04-27T09:00:46.0000000+00:00</time></trkpt><trkpt lat="22.170958" lon="104.354767"><ele>64.0</ele><time>2011-04-27T09:00:51.0000000+00:00</time></trkpt><trkpt lat="22.170958" lon="104.354767"><ele>64.0</ele><time>2011-04-27T09:00:56.0000000+00:00</time></trkpt><trkpt lat="22.170958" lon="104.354767"><ele>64.1</ele><time>2011-04-27T09:01:01.0000000+00:00</time></trkpt><trkpt lat="22.170958" lon="104.354767"><ele>64.1</ele><time>2011-04-27T09:01:06.0000000+00:00</time></trkpt><trkpt lat="22.170958" lon="104.354767"><ele>64.1</ele><time>2011-04-27T09:01:11.0000000+00:00</time></trkpt><trkpt lat="22.170958" lon="104.354767"><ele>64.1</ele><time>2011-04-27T09:01:16.0000000+00:00</time></trkpt><trkpt lat="22.170956" lon="104.354767"><ele>64.1</ele><time>2011-04-27T09:01:21.0000000+00:00</time></trkpt><trkpt lat="22.170956" lon="104.354767"><ele>64.1</ele><time>2011-04-27T09:01:26.0000000+00:00</time></trkpt><trkpt lat="22.170956" lon="104.354767"><ele>64.1</ele><time>2011-04-27T09:01:31.0000000+00:00</time></trkpt><trkpt lat="22.170956" lon="104.354767"><ele>64.1</ele><time>2011-04-27T09:01:36.0000000+00:00</time></trkpt><trkpt lat="22.170956" lon="104.354767"><ele>64.1</ele><time>2011-04-27T09:01:41.0000000+00:00</time></trkpt><trkpt lat="22.170956" lon="104.354767"><ele>64.1</ele><time>2011-04-27T09:01:46.0000000+00:00</time></trkpt><trkpt lat="22.170992" lon="104.354729"><ele>64.2</ele><time>2011-04-27T09:01:51.0000000+00:00</time></trkpt><trkpt lat="22.171083" lon="104.354652"><ele>64.3</ele><time>2011-04-27T09:01:56.0000000+00:00</time></trkpt><trkpt lat="22.17124" lon="104.354591"><ele>64.5</ele><time>2011-04-27T09:02:01.0000000+00:00</time></trkpt><trkpt lat="22.171413" lon="104.354485"><ele>64.2</ele><time>2011-04-27T09:02:06.0000000+00:00</time></trkpt><trkpt lat="22.171598" lon="104.354378"><ele>63.5</ele><time>2011-04-27T09:02:11.0000000+00:00</time></trkpt><trkpt lat="22.171694" lon="104.354317"><ele>65.3</ele><time>2011-04-27T09:02:16.0000000+00:00</time></trkpt><trkpt lat="22.171814" lon="104.354271"><ele>65.7</ele><time>2011-04-27T09:02:21.0000000+00:00</time></trkpt><trkpt lat="22.171919" lon="104.354195"><ele>66.0</ele><time>2011-04-27T09:02:26.0000000+00:00</time></trkpt><trkpt lat="22.171986" lon="104.354118"><ele>65.5</ele><time>2011-04-27T09:02:31.0000000+00:00</time></trkpt><trkpt lat="22.172064" lon="104.35405"><ele>64.8</ele><time>2011-04-27T09:02:36.0000000+00:00</time></trkpt><trkpt lat="22.172174" lon="104.353989"><ele>65.1</ele><time>2011-04-27T09:02:41.0000000+00:00</time></trkpt><trkpt lat="22.172314" lon="104.353935"><ele>67.2</ele><time>2011-04-27T09:02:46.0000000+00:00</time></trkpt><trkpt lat="22.172415" lon="104.353905"><ele>68.2</ele><time>2011-04-27T09:02:51.0000000+00:00</time></trkpt><trkpt lat="22.17251" lon="104.353874"><ele>68.0</ele><time>2011-04-27T09:02:56.0000000+00:00</time></trkpt><trkpt lat="22.172598" lon="104.353882"><ele>67.5</ele><time>2011-04-27T09:03:01.0000000+00:00</time></trkpt><trkpt lat="22.172691" lon="104.353882"><ele>65.8</ele><time>2011-04-27T09:03:06.0000000+00:00</time></trkpt><trkpt lat="22.172756" lon="104.353882"><ele>66.5</ele><time>2011-04-27T09:03:11.0000000+00:00</time></trkpt><trkpt lat="22.172754" lon="104.353889"><ele>67.1</ele><time>2011-04-27T09:03:16.0000000+00:00</time></trkpt><trkpt lat="22.172756" lon="104.353889"><ele>67.2</ele><time>2011-04-27T09:03:21.0000000+00:00</time></trkpt><trkpt lat="22.172752" lon="104.353889"><ele>67.1</ele><time>2011-04-27T09:03:26.0000000+00:00</time></trkpt><trkpt lat="22.172752" lon="104.353889"><ele>67.0</ele><time>2011-04-27T09:03:31.0000000+00:00</time></trkpt><trkpt lat="22.172752" lon="104.353889"><ele>67.1</ele><time>2011-04-27T09:03:36.0000000+00:00</time></trkpt><trkpt lat="22.17275" lon="104.353889"><ele>67.1</ele><time>2011-04-27T09:03:41.0000000+00:00</time></trkpt><trkpt lat="22.17275" lon="104.353897"><ele>67.1</ele><time>2011-04-27T09:03:46.0000000+00:00</time></trkpt><trkpt lat="22.17275" lon="104.353897"><ele>67.1</ele><time>2011-04-27T09:03:51.0000000+00:00</time></trkpt><trkpt lat="22.17275" lon="104.353897"><ele>67.1</ele><time>2011-04-27T09:03:56.0000000+00:00</time></trkpt><trkpt lat="22.17275" lon="104.353897"><ele>67.1</ele><time>2011-04-27T09:04:01.0000000+00:00</time></trkpt><trkpt lat="22.172749" lon="104.353897"><ele>67.1</ele><time>2011-04-27T09:04:06.0000000+00:00</time></trkpt><trkpt lat="22.172749" lon="104.353897"><ele>67.1</ele><time>2011-04-27T09:04:11.0000000+00:00</time></trkpt><trkpt lat="22.172749" lon="104.353897"><ele>67.1</ele><time>2011-04-27T09:04:16.0000000+00:00</time></trkpt><trkpt lat="22.172749" lon="104.353897"><ele>67.1</ele><time>2011-04-27T09:04:21.0000000+00:00</time></trkpt><trkpt lat="22.172749" lon="104.353897"><ele>67.1</ele><time>2011-04-27T09:04:26.0000000+00:00</time></trkpt><trkpt lat="22.172749" lon="104.353897"><ele>67.1</ele><time>2011-04-27T09:04:31.0000000+00:00</time></trkpt><trkpt lat="22.172749" lon="104.353897"><ele>67.1</ele><time>2011-04-27T09:04:36.0000000+00:00</time></trkpt><trkpt lat="22.172749" lon="104.353897"><ele>67.1</ele><time>2011-04-27T09:04:41.0000000+00:00</time></trkpt><trkpt lat="22.172749" lon="104.353897"><ele>67.1</ele><time>2011-04-27T09:04:46.0000000+00:00</time></trkpt><trkpt lat="22.172747" lon="104.353897"><ele>67.1</ele><time>2011-04-27T09:04:51.0000000+00:00</time></trkpt><trkpt lat="22.172747" lon="104.353897"><ele>67.1</ele><time>2011-04-27T09:04:56.0000000+00:00</time></trkpt><trkpt lat="22.172747" lon="104.353897"><ele>67.1</ele><time>2011-04-27T09:05:01.0000000+00:00</time></trkpt><trkpt lat="22.172762" lon="104.353897"><ele>67.1</ele><time>2011-04-27T09:05:06.0000000+00:00</time></trkpt><trkpt lat="22.17288" lon="104.353912"><ele>66.7</ele><time>2011-04-27T09:05:11.0000000+00:00</time></trkpt><trkpt lat="22.173019" lon="104.353905"><ele>66.7</ele><time>2011-04-27T09:05:16.0000000+00:00</time></trkpt><trkpt lat="22.173195" lon="104.35392"><ele>66.8</ele><time>2011-04-27T09:05:21.0000000+00:00</time></trkpt><trkpt lat="22.173401" lon="104.353943"><ele>68.0</ele><time>2011-04-27T09:05:26.0000000+00:00</time></trkpt><trkpt lat="22.17362" lon="104.353958"><ele>69.5</ele><time>2011-04-27T09:05:31.0000000+00:00</time></trkpt><trkpt lat="22.173866" lon="104.353996"><ele>70.7</ele><time>2011-04-27T09:05:36.0000000+00:00</time></trkpt><trkpt lat="22.174091" lon="104.354027"><ele>70.9</ele><time>2011-04-27T09:05:41.0000000+00:00</time></trkpt><trkpt lat="22.174269" lon="104.354065"><ele>71.3</ele><time>2011-04-27T09:05:46.0000000+00:00</time></trkpt><trkpt lat="22.174454" lon="104.354118"><ele>70.1</ele><time>2011-04-27T09:05:51.0000000+00:00</time></trkpt><trkpt lat="22.174616" lon="104.354141"><ele>71.5</ele><time>2011-04-27T09:05:56.0000000+00:00</time></trkpt><trkpt lat="22.174788" lon="104.354164"><ele>70.4</ele><time>2011-04-27T09:06:01.0000000+00:00</time></trkpt><trkpt lat="22.174982" lon="104.354164"><ele>67.5</ele><time>2011-04-27T09:06:06.0000000+00:00</time></trkpt><trkpt lat="22.175188" lon="104.354164"><ele>67.4</ele><time>2011-04-27T09:06:11.0000000+00:00</time></trkpt><trkpt lat="22.175413" lon="104.354164"><ele>69.0</ele><time>2011-04-27T09:06:16.0000000+00:00</time></trkpt><trkpt lat="22.175648" lon="104.354187"><ele>68.7</ele><time>2011-04-27T09:06:21.0000000+00:00</time></trkpt><trkpt lat="22.175846" lon="104.354225"><ele>74.0</ele><time>2011-04-27T09:06:26.0000000+00:00</time></trkpt><trkpt lat="22.176062" lon="104.354233"><ele>72.5</ele><time>2011-04-27T09:06:31.0000000+00:00</time></trkpt><trkpt lat="22.176252" lon="104.354233"><ele>72.7</ele><time>2011-04-27T09:06:36.0000000+00:00</time></trkpt><trkpt lat="22.176477" lon="104.354195"><ele>70.6</ele><time>2011-04-27T09:06:41.0000000+00:00</time></trkpt><trkpt lat="22.176708" lon="104.354103"><ele>68.5</ele><time>2011-04-27T09:06:46.0000000+00:00</time></trkpt><trkpt lat="22.176853" lon="104.354027"><ele>65.7</ele><time>2011-04-27T09:06:51.0000000+00:00</time></trkpt><trkpt lat="22.176983" lon="104.353973"><ele>65.0</ele><time>2011-04-27T09:06:56.0000000+00:00</time></trkpt><trkpt lat="22.177094" lon="104.353928"><ele>65.6</ele><time>2011-04-27T09:07:01.0000000+00:00</time></trkpt><trkpt lat="22.177212" lon="104.353882"><ele>67.1</ele><time>2011-04-27T09:07:06.0000000+00:00</time></trkpt><trkpt lat="22.177341" lon="104.353836"><ele>67.3</ele><time>2011-04-27T09:07:11.0000000+00:00</time></trkpt><trkpt lat="22.177481" lon="104.353806"><ele>67.7</ele><time>2011-04-27T09:07:16.0000000+00:00</time></trkpt><trkpt lat="22.177605" lon="104.35376"><ele>66.8</ele><time>2011-04-27T09:07:21.0000000+00:00</time></trkpt><trkpt lat="22.177759" lon="104.353722"><ele>67.7</ele><time>2011-04-27T09:07:26.0000000+00:00</time></trkpt><trkpt lat="22.177895" lon="104.353699"><ele>66.0</ele><time>2011-04-27T09:07:31.0000000+00:00</time></trkpt><trkpt lat="22.178026" lon="104.353668"><ele>68.2</ele><time>2011-04-27T09:07:36.0000000+00:00</time></trkpt><trkpt lat="22.178154" lon="104.353638"><ele>67.9</ele><time>2011-04-27T09:07:41.0000000+00:00</time></trkpt><trkpt lat="22.178242" lon="104.3536"><ele>69.5</ele><time>2011-04-27T09:07:46.0000000+00:00</time></trkpt><trkpt lat="22.178307" lon="104.353584"><ele>68.6</ele><time>2011-04-27T09:07:51.0000000+00:00</time></trkpt><trkpt lat="22.178373" lon="104.353554"><ele>68.9</ele><time>2011-04-27T09:07:56.0000000+00:00</time></trkpt><trkpt lat="22.17841" lon="104.353561"><ele>70.0</ele><time>2011-04-27T09:08:01.0000000+00:00</time></trkpt><trkpt lat="22.178436" lon="104.353577"><ele>70.2</ele><time>2011-04-27T09:08:06.0000000+00:00</time></trkpt><trkpt lat="22.178434" lon="104.353577"><ele>70.3</ele><time>2011-04-27T09:08:11.0000000+00:00</time></trkpt><trkpt lat="22.178434" lon="104.353577"><ele>70.3</ele><time>2011-04-27T09:08:16.0000000+00:00</time></trkpt><trkpt lat="22.178436" lon="104.353577"><ele>70.3</ele><time>2011-04-27T09:08:21.0000000+00:00</time></trkpt><trkpt lat="22.178436" lon="104.353577"><ele>70.3</ele><time>2011-04-27T09:08:26.0000000+00:00</time></trkpt><trkpt lat="22.178434" lon="104.353569"><ele>70.3</ele><time>2011-04-27T09:08:31.0000000+00:00</time></trkpt><trkpt lat="22.178436" lon="104.353577"><ele>70.3</ele><time>2011-04-27T09:08:36.0000000+00:00</time></trkpt><trkpt lat="22.178438" lon="104.353577"><ele>70.2</ele><time>2011-04-27T09:08:41.0000000+00:00</time></trkpt><trkpt lat="22.178436" lon="104.353569"><ele>70.2</ele><time>2011-04-27T09:08:46.0000000+00:00</time></trkpt><trkpt lat="22.178434" lon="104.353569"><ele>70.1</ele><time>2011-04-27T09:08:51.0000000+00:00</time></trkpt><trkpt lat="22.178434" lon="104.353569"><ele>70.1</ele><time>2011-04-27T09:08:56.0000000+00:00</time></trkpt><trkpt lat="22.178432" lon="104.353561"><ele>70.1</ele><time>2011-04-27T09:09:01.0000000+00:00</time></trkpt><trkpt lat="22.178429" lon="104.353569"><ele>70.1</ele><time>2011-04-27T09:09:06.0000000+00:00</time></trkpt><trkpt lat="22.178429" lon="104.353561"><ele>70.0</ele><time>2011-04-27T09:09:11.0000000+00:00</time></trkpt><trkpt lat="22.178425" lon="104.353554"><ele>70.0</ele><time>2011-04-27T09:09:16.0000000+00:00</time></trkpt><trkpt lat="22.178431" lon="104.353554"><ele>69.9</ele><time>2011-04-27T09:09:21.0000000+00:00</time></trkpt><trkpt lat="22.178436" lon="104.353554"><ele>69.8</ele><time>2011-04-27T09:09:26.0000000+00:00</time></trkpt><trkpt lat="22.178436" lon="104.353554"><ele>69.8</ele><time>2011-04-27T09:09:31.0000000+00:00</time></trkpt><trkpt lat="22.17844" lon="104.353561"><ele>69.8</ele><time>2011-04-27T09:09:36.0000000+00:00</time></trkpt><trkpt lat="22.17844" lon="104.353561"><ele>69.6</ele><time>2011-04-27T09:09:41.0000000+00:00</time></trkpt><trkpt lat="22.178442" lon="104.353561"><ele>69.6</ele><time>2011-04-27T09:09:46.0000000+00:00</time></trkpt><trkpt lat="22.178446" lon="104.353561"><ele>69.5</ele><time>2011-04-27T09:09:51.0000000+00:00</time></trkpt><trkpt lat="22.17853" lon="104.353546"><ele>70.7</ele><time>2011-04-27T09:09:56.0000000+00:00</time></trkpt><trkpt lat="22.178612" lon="104.353539"><ele>72.4</ele><time>2011-04-27T09:10:01.0000000+00:00</time></trkpt><trkpt lat="22.178722" lon="104.353554"><ele>73.0</ele><time>2011-04-27T09:10:06.0000000+00:00</time></trkpt><trkpt lat="22.178797" lon="104.353569"><ele>73.3</ele><time>2011-04-27T09:10:11.0000000+00:00</time></trkpt><trkpt lat="22.178904" lon="104.353584"><ele>72.5</ele><time>2011-04-27T09:10:16.0000000+00:00</time></trkpt><trkpt lat="22.178967" lon="104.353622"><ele>73.0</ele><time>2011-04-27T09:10:21.0000000+00:00</time></trkpt><trkpt lat="22.179049" lon="104.353661"><ele>72.3</ele><time>2011-04-27T09:10:26.0000000+00:00</time></trkpt><trkpt lat="22.179136" lon="104.353683"><ele>72.9</ele><time>2011-04-27T09:10:31.0000000+00:00</time></trkpt><trkpt lat="22.179222" lon="104.353729"><ele>74.7</ele><time>2011-04-27T09:10:36.0000000+00:00</time></trkpt><trkpt lat="22.179323" lon="104.353783"><ele>74.2</ele><time>2011-04-27T09:10:41.0000000+00:00</time></trkpt><trkpt lat="22.179407" lon="104.353798"><ele>73.2</ele><time>2011-04-27T09:10:46.0000000+00:00</time></trkpt><trkpt lat="22.179468" lon="104.35379"><ele>72.8</ele><time>2011-04-27T09:10:51.0000000+00:00</time></trkpt><trkpt lat="22.179478" lon="104.35379"><ele>72.0</ele><time>2011-04-27T09:10:56.0000000+00:00</time></trkpt><trkpt lat="22.179478" lon="104.35379"><ele>72.0</ele><time>2011-04-27T09:11:01.0000000+00:00</time></trkpt><trkpt lat="22.179522" lon="104.353783"><ele>71.6</ele><time>2011-04-27T09:11:06.0000000+00:00</time></trkpt><trkpt lat="22.179577" lon="104.353821"><ele>71.6</ele><time>2011-04-27T09:11:11.0000000+00:00</time></trkpt><trkpt lat="22.179655" lon="104.353844"><ele>71.4</ele><time>2011-04-27T09:11:16.0000000+00:00</time></trkpt><trkpt lat="22.17975" lon="104.353905"><ele>71.4</ele><time>2011-04-27T09:11:21.0000000+00:00</time></trkpt><trkpt lat="22.179878" lon="104.353951"><ele>71.1</ele><time>2011-04-27T09:11:26.0000000+00:00</time></trkpt><trkpt lat="22.180019" lon="104.354012"><ele>71.3</ele><time>2011-04-27T09:11:31.0000000+00:00</time></trkpt><trkpt lat="22.180174" lon="104.354103"><ele>72.0</ele><time>2011-04-27T09:11:36.0000000+00:00</time></trkpt><trkpt lat="22.180307" lon="104.354187"><ele>72.7</ele><time>2011-04-27T09:11:41.0000000+00:00</time></trkpt><trkpt lat="22.18046" lon="104.354294"><ele>73.1</ele><time>2011-04-27T09:11:46.0000000+00:00</time></trkpt><trkpt lat="22.18058" lon="104.354385"><ele>73.8</ele><time>2011-04-27T09:11:51.0000000+00:00</time></trkpt><trkpt lat="22.180698" lon="104.354469"><ele>73.4</ele><time>2011-04-27T09:11:56.0000000+00:00</time></trkpt><trkpt lat="22.180822" lon="104.354584"><ele>72.7</ele><time>2011-04-27T09:12:01.0000000+00:00</time></trkpt><trkpt lat="22.180958" lon="104.354729"><ele>71.7</ele><time>2011-04-27T09:12:06.0000000+00:00</time></trkpt><trkpt lat="22.181082" lon="104.354858"><ele>72.0</ele><time>2011-04-27T09:12:11.0000000+00:00</time></trkpt><trkpt lat="22.181213" lon="104.355019"><ele>71.7</ele><time>2011-04-27T09:12:16.0000000+00:00</time></trkpt><trkpt lat="22.181339" lon="104.355141"><ele>71.3</ele><time>2011-04-27T09:12:21.0000000+00:00</time></trkpt><trkpt lat="22.181465" lon="104.355278"><ele>70.1</ele><time>2011-04-27T09:12:26.0000000+00:00</time></trkpt><trkpt lat="22.18158" lon="104.355408"><ele>69.1</ele><time>2011-04-27T09:12:31.0000000+00:00</time></trkpt><trkpt lat="22.181719" lon="104.355507"><ele>68.7</ele><time>2011-04-27T09:12:36.0000000+00:00</time></trkpt><trkpt lat="22.181879" lon="104.355614"><ele>68.3</ele><time>2011-04-27T09:12:41.0000000+00:00</time></trkpt><trkpt lat="22.182045" lon="104.355721"><ele>68.1</ele><time>2011-04-27T09:12:46.0000000+00:00</time></trkpt><trkpt lat="22.182188" lon="104.355804"><ele>67.8</ele><time>2011-04-27T09:12:51.0000000+00:00</time></trkpt><trkpt lat="22.18232" lon="104.355919"><ele>67.6</ele><time>2011-04-27T09:12:56.0000000+00:00</time></trkpt><trkpt lat="22.182409" lon="104.356056"><ele>67.4</ele><time>2011-04-27T09:13:01.0000000+00:00</time></trkpt><trkpt lat="22.182484" lon="104.356163"><ele>67.6</ele><time>2011-04-27T09:13:06.0000000+00:00</time></trkpt><trkpt lat="22.182566" lon="104.356308"><ele>67.8</ele><time>2011-04-27T09:13:11.0000000+00:00</time></trkpt><trkpt lat="22.182674" lon="104.356453"><ele>68.2</ele><time>2011-04-27T09:13:16.0000000+00:00</time></trkpt><trkpt lat="22.182751" lon="104.35659"><ele>68.7</ele><time>2011-04-27T09:13:21.0000000+00:00</time></trkpt><trkpt lat="22.182806" lon="104.35672"><ele>69.8</ele><time>2011-04-27T09:13:26.0000000+00:00</time></trkpt><trkpt lat="22.182848" lon="104.356888"><ele>70.5</ele><time>2011-04-27T09:13:31.0000000+00:00</time></trkpt><trkpt lat="22.182875" lon="104.357033"><ele>71.0</ele><time>2011-04-27T09:13:36.0000000+00:00</time></trkpt><trkpt lat="22.182934" lon="104.357185"><ele>71.2</ele><time>2011-04-27T09:13:41.0000000+00:00</time></trkpt><trkpt lat="22.182966" lon="104.357292"><ele>71.8</ele><time>2011-04-27T09:13:46.0000000+00:00</time></trkpt><trkpt lat="22.183004" lon="104.357346"><ele>72.7</ele><time>2011-04-27T09:13:51.0000000+00:00</time></trkpt><trkpt lat="22.182987" lon="104.357437"><ele>74.0</ele><time>2011-04-27T09:13:56.0000000+00:00</time></trkpt><trkpt lat="22.182983" lon="104.357582"><ele>75.4</ele><time>2011-04-27T09:14:01.0000000+00:00</time></trkpt><trkpt lat="22.182938" lon="104.357727"><ele>77.2</ele><time>2011-04-27T09:14:06.0000000+00:00</time></trkpt><trkpt lat="22.182934" lon="104.357849"><ele>78.8</ele><time>2011-04-27T09:14:11.0000000+00:00</time></trkpt><trkpt lat="22.182932" lon="104.357979"><ele>80.2</ele><time>2011-04-27T09:14:16.0000000+00:00</time></trkpt><trkpt lat="22.182936" lon="104.35807"><ele>81.2</ele><time>2011-04-27T09:14:21.0000000+00:00</time></trkpt><trkpt lat="22.182993" lon="104.358292"><ele>83.0</ele><time>2011-04-27T09:14:26.0000000+00:00</time></trkpt><trkpt lat="22.183107" lon="104.358467"><ele>84.7</ele><time>2011-04-27T09:14:31.0000000+00:00</time></trkpt><trkpt lat="22.183182" lon="104.358604"><ele>86.0</ele><time>2011-04-27T09:14:36.0000000+00:00</time></trkpt><trkpt lat="22.183249" lon="104.358711"><ele>86.5</ele><time>2011-04-27T09:14:41.0000000+00:00</time></trkpt><trkpt lat="22.183392" lon="104.35891"><ele>87.8</ele><time>2011-04-27T09:14:46.0000000+00:00</time></trkpt><trkpt lat="22.183493" lon="104.359055"><ele>88.8</ele><time>2011-04-27T09:14:51.0000000+00:00</time></trkpt><trkpt lat="22.183588" lon="104.359207"><ele>90.2</ele><time>2011-04-27T09:14:56.0000000+00:00</time></trkpt><trkpt lat="22.183619" lon="104.359344"><ele>91.4</ele><time>2011-04-27T09:15:01.0000000+00:00</time></trkpt><trkpt lat="22.183603" lon="104.359573"><ele>91.9</ele><time>2011-04-27T09:15:06.0000000+00:00</time></trkpt><trkpt lat="22.183559" lon="104.359802"><ele>94.2</ele><time>2011-04-27T09:15:11.0000000+00:00</time></trkpt><trkpt lat="22.183466" lon="104.359962"><ele>96.2</ele><time>2011-04-27T09:15:16.0000000+00:00</time></trkpt><trkpt lat="22.183342" lon="104.360168"><ele>99.4</ele><time>2011-04-27T09:15:21.0000000+00:00</time></trkpt><trkpt lat="22.183235" lon="104.360405"><ele>102.4</ele><time>2011-04-27T09:15:26.0000000+00:00</time></trkpt><trkpt lat="22.183117" lon="104.360603"><ele>104.2</ele><time>2011-04-27T09:15:31.0000000+00:00</time></trkpt><trkpt lat="22.182978" lon="104.360771"><ele>102.2</ele><time>2011-04-27T09:15:36.0000000+00:00</time></trkpt><trkpt lat="22.182884" lon="104.360886"><ele>100.2</ele><time>2011-04-27T09:15:41.0000000+00:00</time></trkpt><trkpt lat="22.182819" lon="104.360962"><ele>96.0</ele><time>2011-04-27T09:15:46.0000000+00:00</time></trkpt><trkpt lat="22.182745" lon="104.361069"><ele>92.6</ele><time>2011-04-27T09:15:51.0000000+00:00</time></trkpt><trkpt lat="22.18269" lon="104.361137"><ele>87.9</ele><time>2011-04-27T09:15:56.0000000+00:00</time></trkpt><trkpt lat="22.182724" lon="104.361229"><ele>87.9</ele><time>2011-04-27T09:16:01.0000000+00:00</time></trkpt><trkpt lat="22.182688" lon="104.361366"><ele>85.0</ele><time>2011-04-27T09:16:06.0000000+00:00</time></trkpt><trkpt lat="22.182743" lon="104.361526"><ele>83.1</ele><time>2011-04-27T09:16:11.0000000+00:00</time></trkpt><trkpt lat="22.182817" lon="104.361679"><ele>81.5</ele><time>2011-04-27T09:16:16.0000000+00:00</time></trkpt><trkpt lat="22.182863" lon="104.361801"><ele>79.5</ele><time>2011-04-27T09:16:21.0000000+00:00</time></trkpt><trkpt lat="22.182922" lon="104.361938"><ele>78.6</ele><time>2011-04-27T09:16:26.0000000+00:00</time></trkpt><trkpt lat="22.182997" lon="104.362061"><ele>77.7</ele><time>2011-04-27T09:16:31.0000000+00:00</time></trkpt><trkpt lat="22.183084" lon="104.362206"><ele>77.1</ele><time>2011-04-27T09:16:36.0000000+00:00</time></trkpt><trkpt lat="22.183155" lon="104.362358"><ele>76.8</ele><time>2011-04-27T09:16:41.0000000+00:00</time></trkpt><trkpt lat="22.183201" lon="104.362518"><ele>76.6</ele><time>2011-04-27T09:16:46.0000000+00:00</time></trkpt><trkpt lat="22.183275" lon="104.362602"><ele>76.1</ele><time>2011-04-27T09:16:51.0000000+00:00</time></trkpt><trkpt lat="22.183365" lon="104.362679"><ele>75.8</ele><time>2011-04-27T09:16:56.0000000+00:00</time></trkpt><trkpt lat="22.183392" lon="104.362831"><ele>76.4</ele><time>2011-04-27T09:17:01.0000000+00:00</time></trkpt><trkpt lat="22.183357" lon="104.363014"><ele>77.3</ele><time>2011-04-27T09:17:06.0000000+00:00</time></trkpt><trkpt lat="22.183374" lon="104.363136"><ele>77.3</ele><time>2011-04-27T09:17:11.0000000+00:00</time></trkpt><trkpt lat="22.183371" lon="104.363258"><ele>77.4</ele><time>2011-04-27T09:17:16.0000000+00:00</time></trkpt><trkpt lat="22.183432" lon="104.363426"><ele>77.1</ele><time>2011-04-27T09:17:21.0000000+00:00</time></trkpt><trkpt lat="22.183537" lon="104.363541"><ele>77.7</ele><time>2011-04-27T09:17:26.0000000+00:00</time></trkpt><trkpt lat="22.18364" lon="104.363632"><ele>77.7</ele><time>2011-04-27T09:17:31.0000000+00:00</time></trkpt><trkpt lat="22.183725" lon="104.363716"><ele>77.6</ele><time>2011-04-27T09:17:36.0000000+00:00</time></trkpt><trkpt lat="22.183851" lon="104.363831"><ele>77.1</ele><time>2011-04-27T09:17:41.0000000+00:00</time></trkpt><trkpt lat="22.183935" lon="104.363876"><ele>77.2</ele><time>2011-04-27T09:17:46.0000000+00:00</time></trkpt><trkpt lat="22.184076" lon="104.363907"><ele>77.9</ele><time>2011-04-27T09:17:51.0000000+00:00</time></trkpt><trkpt lat="22.184189" lon="104.363976"><ele>78.9</ele><time>2011-04-27T09:17:56.0000000+00:00</time></trkpt><trkpt lat="22.184185" lon="104.364098"><ele>77.6</ele><time>2011-04-27T09:18:01.0000000+00:00</time></trkpt><trkpt lat="22.184206" lon="104.36425"><ele>79.3</ele><time>2011-04-27T09:18:06.0000000+00:00</time></trkpt><trkpt lat="22.184179" lon="104.36441"><ele>80.1</ele><time>2011-04-27T09:18:11.0000000+00:00</time></trkpt><trkpt lat="22.184122" lon="104.364555"><ele>80.2</ele><time>2011-04-27T09:18:16.0000000+00:00</time></trkpt><trkpt lat="22.184067" lon="104.3647"><ele>81.0</ele><time>2011-04-27T09:18:21.0000000+00:00</time></trkpt><trkpt lat="22.184008" lon="104.364845"><ele>82.2</ele><time>2011-04-27T09:18:26.0000000+00:00</time></trkpt><trkpt lat="22.183945" lon="104.364967"><ele>82.4</ele><time>2011-04-27T09:18:31.0000000+00:00</time></trkpt><trkpt lat="22.183886" lon="104.365112"><ele>80.0</ele><time>2011-04-27T09:18:36.0000000+00:00</time></trkpt><trkpt lat="22.183796" lon="104.365219"><ele>80.1</ele><time>2011-04-27T09:18:41.0000000+00:00</time></trkpt><trkpt lat="22.183699" lon="104.365326"><ele>83.8</ele><time>2011-04-27T09:18:46.0000000+00:00</time></trkpt><trkpt lat="22.183588" lon="104.365417"><ele>79.6</ele><time>2011-04-27T09:18:51.0000000+00:00</time></trkpt><trkpt lat="22.183481" lon="104.365517"><ele>74.3</ele><time>2011-04-27T09:18:56.0000000+00:00</time></trkpt><trkpt lat="22.18339" lon="104.365608"><ele>74.8</ele><time>2011-04-27T09:19:01.0000000+00:00</time></trkpt><trkpt lat="22.183289" lon="104.365692"><ele>76.7</ele><time>2011-04-27T09:19:06.0000000+00:00</time></trkpt><trkpt lat="22.183191" lon="104.365784"><ele>82.0</ele><time>2011-04-27T09:19:11.0000000+00:00</time></trkpt><trkpt lat="22.183088" lon="104.365883"><ele>87.1</ele><time>2011-04-27T09:19:16.0000000+00:00</time></trkpt><trkpt lat="22.183014" lon="104.366005"><ele>88.7</ele><time>2011-04-27T09:19:21.0000000+00:00</time></trkpt><trkpt lat="22.182941" lon="104.366158"><ele>90.8</ele><time>2011-04-27T09:19:26.0000000+00:00</time></trkpt><trkpt lat="22.182899" lon="104.366318"><ele>90.9</ele><time>2011-04-27T09:19:31.0000000+00:00</time></trkpt><trkpt lat="22.182898" lon="104.366493"><ele>91.8</ele><time>2011-04-27T09:19:36.0000000+00:00</time></trkpt><trkpt lat="22.182899" lon="104.366646"><ele>92.7</ele><time>2011-04-27T09:19:41.0000000+00:00</time></trkpt><trkpt lat="22.182896" lon="104.366745"><ele>90.7</ele><time>2011-04-27T09:19:46.0000000+00:00</time></trkpt><trkpt lat="22.182907" lon="104.36689"><ele>89.5</ele><time>2011-04-27T09:19:51.0000000+00:00</time></trkpt><trkpt lat="22.182911" lon="104.367058"><ele>91.2</ele><time>2011-04-27T09:19:56.0000000+00:00</time></trkpt><trkpt lat="22.18292" lon="104.367249"><ele>91.2</ele><time>2011-04-27T09:20:01.0000000+00:00</time></trkpt><trkpt lat="22.182949" lon="104.367393"><ele>90.7</ele><time>2011-04-27T09:20:06.0000000+00:00</time></trkpt><trkpt lat="22.182959" lon="104.367561"><ele>92.5</ele><time>2011-04-27T09:20:11.0000000+00:00</time></trkpt><trkpt lat="22.182961" lon="104.367722"><ele>92.3</ele><time>2011-04-27T09:20:16.0000000+00:00</time></trkpt><trkpt lat="22.182968" lon="104.367844"><ele>90.3</ele><time>2011-04-27T09:20:21.0000000+00:00</time></trkpt><trkpt lat="22.182976" lon="104.36795"><ele>91.8</ele><time>2011-04-27T09:20:26.0000000+00:00</time></trkpt><trkpt lat="22.182976" lon="104.368065"><ele>89.3</ele><time>2011-04-27T09:20:31.0000000+00:00</time></trkpt><trkpt lat="22.183025" lon="104.368172"><ele>88.5</ele><time>2011-04-27T09:20:36.0000000+00:00</time></trkpt><trkpt lat="22.183113" lon="104.36824"><ele>88.1</ele><time>2011-04-27T09:20:41.0000000+00:00</time></trkpt><trkpt lat="22.183201" lon="104.368279"><ele>87.7</ele><time>2011-04-27T09:20:46.0000000+00:00</time></trkpt><trkpt lat="22.1833" lon="104.368294"><ele>87.1</ele><time>2011-04-27T09:20:51.0000000+00:00</time></trkpt><trkpt lat="22.183395" lon="104.368317"><ele>86.4</ele><time>2011-04-27T09:20:56.0000000+00:00</time></trkpt><trkpt lat="22.183487" lon="104.368355"><ele>87.3</ele><time>2011-04-27T09:21:01.0000000+00:00</time></trkpt><trkpt lat="22.183571" lon="104.368378"><ele>85.6</ele><time>2011-04-27T09:21:06.0000000+00:00</time></trkpt><trkpt lat="22.183649" lon="104.368378"><ele>84.8</ele><time>2011-04-27T09:21:11.0000000+00:00</time></trkpt><trkpt lat="22.183714" lon="104.368362"><ele>84.4</ele><time>2011-04-27T09:21:16.0000000+00:00</time></trkpt><trkpt lat="22.183788" lon="104.368393"><ele>84.3</ele><time>2011-04-27T09:21:21.0000000+00:00</time></trkpt><trkpt lat="22.183846" lon="104.368423"><ele>85.6</ele><time>2011-04-27T09:21:26.0000000+00:00</time></trkpt><trkpt lat="22.183905" lon="104.368454"><ele>86.8</ele><time>2011-04-27T09:21:31.0000000+00:00</time></trkpt><trkpt lat="22.183912" lon="104.368469"><ele>86.2</ele><time>2011-04-27T09:21:36.0000000+00:00</time></trkpt><trkpt lat="22.183912" lon="104.368462"><ele>86.4</ele><time>2011-04-27T09:21:41.0000000+00:00</time></trkpt><trkpt lat="22.18391" lon="104.368462"><ele>86.6</ele><time>2011-04-27T09:21:46.0000000+00:00</time></trkpt><trkpt lat="22.183908" lon="104.368462"><ele>86.6</ele><time>2011-04-27T09:21:51.0000000+00:00</time></trkpt><trkpt lat="22.183908" lon="104.368462"><ele>86.5</ele><time>2011-04-27T09:21:56.0000000+00:00</time></trkpt><trkpt lat="22.183908" lon="104.368462"><ele>86.4</ele><time>2011-04-27T09:22:01.0000000+00:00</time></trkpt><trkpt lat="22.183908" lon="104.368469"><ele>86.4</ele><time>2011-04-27T09:22:06.0000000+00:00</time></trkpt><trkpt lat="22.18391" lon="104.368469"><ele>86.2</ele><time>2011-04-27T09:22:11.0000000+00:00</time></trkpt><trkpt lat="22.18391" lon="104.368469"><ele>86.3</ele><time>2011-04-27T09:22:16.0000000+00:00</time></trkpt><trkpt lat="22.18391" lon="104.368469"><ele>86.3</ele><time>2011-04-27T09:22:21.0000000+00:00</time></trkpt><trkpt lat="22.183912" lon="104.368469"><ele>86.3</ele><time>2011-04-27T09:22:26.0000000+00:00</time></trkpt><trkpt lat="22.183912" lon="104.368469"><ele>86.4</ele><time>2011-04-27T09:22:31.0000000+00:00</time></trkpt><trkpt lat="22.183912" lon="104.368469"><ele>86.4</ele><time>2011-04-27T09:22:36.0000000+00:00</time></trkpt><trkpt lat="22.183912" lon="104.368469"><ele>86.4</ele><time>2011-04-27T09:22:41.0000000+00:00</time></trkpt><trkpt lat="22.183912" lon="104.368469"><ele>86.5</ele><time>2011-04-27T09:22:46.0000000+00:00</time></trkpt><trkpt lat="22.183912" lon="104.368469"><ele>86.5</ele><time>2011-04-27T09:22:51.0000000+00:00</time></trkpt><trkpt lat="22.183914" lon="104.368469"><ele>86.5</ele><time>2011-04-27T09:22:56.0000000+00:00</time></trkpt><trkpt lat="22.183914" lon="104.368469"><ele>86.5</ele><time>2011-04-27T09:23:01.0000000+00:00</time></trkpt><trkpt lat="22.183914" lon="104.368469"><ele>86.5</ele><time>2011-04-27T09:23:06.0000000+00:00</time></trkpt><trkpt lat="22.183914" lon="104.368469"><ele>86.5</ele><time>2011-04-27T09:23:11.0000000+00:00</time></trkpt><trkpt lat="22.183914" lon="104.368469"><ele>86.5</ele><time>2011-04-27T09:23:16.0000000+00:00</time></trkpt><trkpt lat="22.183914" lon="104.368469"><ele>86.6</ele><time>2011-04-27T09:23:21.0000000+00:00</time></trkpt><trkpt lat="22.183914" lon="104.368469"><ele>86.6</ele><time>2011-04-27T09:23:26.0000000+00:00</time></trkpt><trkpt lat="22.183914" lon="104.368469"><ele>86.6</ele><time>2011-04-27T09:23:31.0000000+00:00</time></trkpt><trkpt lat="22.183914" lon="104.368469"><ele>86.6</ele><time>2011-04-27T09:23:36.0000000+00:00</time></trkpt><trkpt lat="22.183914" lon="104.368469"><ele>86.6</ele><time>2011-04-27T09:23:41.0000000+00:00</time></trkpt><trkpt lat="22.183914" lon="104.368469"><ele>86.6</ele><time>2011-04-27T09:23:46.0000000+00:00</time></trkpt><trkpt lat="22.183916" lon="104.368469"><ele>86.6</ele><time>2011-04-27T09:23:51.0000000+00:00</time></trkpt><trkpt lat="22.183916" lon="104.368469"><ele>86.6</ele><time>2011-04-27T09:23:56.0000000+00:00</time></trkpt><trkpt lat="22.184027" lon="104.368469"><ele>88.1</ele><time>2011-04-27T09:24:01.0000000+00:00</time></trkpt><trkpt lat="22.184155" lon="104.368492"><ele>89.3</ele><time>2011-04-27T09:24:06.0000000+00:00</time></trkpt><trkpt lat="22.184277" lon="104.368523"><ele>91.3</ele><time>2011-04-27T09:24:11.0000000+00:00</time></trkpt><trkpt lat="22.184395" lon="104.368561"><ele>91.6</ele><time>2011-04-27T09:24:16.0000000+00:00</time></trkpt><trkpt lat="22.1845" lon="104.368607"><ele>91.3</ele><time>2011-04-27T09:24:21.0000000+00:00</time></trkpt><trkpt lat="22.184605" lon="104.36866"><ele>91.6</ele><time>2011-04-27T09:24:26.0000000+00:00</time></trkpt><trkpt lat="22.184681" lon="104.368752"><ele>93.0</ele><time>2011-04-27T09:24:31.0000000+00:00</time></trkpt><trkpt lat="22.184753" lon="104.368805"><ele>92.7</ele><time>2011-04-27T09:24:36.0000000+00:00</time></trkpt><trkpt lat="22.184832" lon="104.368866"><ele>93.7</ele><time>2011-04-27T09:24:41.0000000+00:00</time></trkpt><trkpt lat="22.184916" lon="104.368958"><ele>94.3</ele><time>2011-04-27T09:24:46.0000000+00:00</time></trkpt><trkpt lat="22.185011" lon="104.369057"><ele>96.7</ele><time>2011-04-27T09:24:51.0000000+00:00</time></trkpt><trkpt lat="22.185101" lon="104.369141"><ele>98.3</ele><time>2011-04-27T09:24:56.0000000+00:00</time></trkpt><trkpt lat="22.185181" lon="104.369217"><ele>102.4</ele><time>2011-04-27T09:25:01.0000000+00:00</time></trkpt><trkpt lat="22.185249" lon="104.369286"><ele>105.0</ele><time>2011-04-27T09:25:06.0000000+00:00</time></trkpt><trkpt lat="22.18532" lon="104.369392"><ele>105.8</ele><time>2011-04-27T09:25:11.0000000+00:00</time></trkpt><trkpt lat="22.185419" lon="104.369484"><ele>104.3</ele><time>2011-04-27T09:25:16.0000000+00:00</time></trkpt><trkpt lat="22.185511" lon="104.36956"><ele>103.6</ele><time>2011-04-27T09:25:21.0000000+00:00</time></trkpt><trkpt lat="22.185583" lon="104.369644"><ele>105.1</ele><time>2011-04-27T09:25:26.0000000+00:00</time></trkpt><trkpt lat="22.185635" lon="104.369698"><ele>104.3</ele><time>2011-04-27T09:25:31.0000000+00:00</time></trkpt><trkpt lat="22.185694" lon="104.369759"><ele>106.3</ele><time>2011-04-27T09:25:36.0000000+00:00</time></trkpt><trkpt lat="22.185749" lon="104.369804"><ele>104.7</ele><time>2011-04-27T09:25:41.0000000+00:00</time></trkpt><trkpt lat="22.185823" lon="104.369896"><ele>104.3</ele><time>2011-04-27T09:25:46.0000000+00:00</time></trkpt><trkpt lat="22.185884" lon="104.36998"><ele>103.5</ele><time>2011-04-27T09:25:51.0000000+00:00</time></trkpt><trkpt lat="22.185923" lon="104.370094"><ele>103.8</ele><time>2011-04-27T09:25:56.0000000+00:00</time></trkpt><trkpt lat="22.185915" lon="104.370209"><ele>104.0</ele><time>2011-04-27T09:26:01.0000000+00:00</time></trkpt><trkpt lat="22.185883" lon="104.370331"><ele>103.4</ele><time>2011-04-27T09:26:06.0000000+00:00</time></trkpt><trkpt lat="22.185852" lon="104.370461"><ele>103.3</ele><time>2011-04-27T09:26:11.0000000+00:00</time></trkpt><trkpt lat="22.185829" lon="104.370575"><ele>104.7</ele><time>2011-04-27T09:26:16.0000000+00:00</time></trkpt><trkpt lat="22.185801" lon="104.370689"><ele>105.6</ele><time>2011-04-27T09:26:21.0000000+00:00</time></trkpt><trkpt lat="22.185787" lon="104.370796"><ele>106.9</ele><time>2011-04-27T09:26:26.0000000+00:00</time></trkpt><trkpt lat="22.185774" lon="104.370872"><ele>108.4</ele><time>2011-04-27T09:26:31.0000000+00:00</time></trkpt><trkpt lat="22.185816" lon="104.371002"><ele>108.6</ele><time>2011-04-27T09:26:36.0000000+00:00</time></trkpt><trkpt lat="22.185871" lon="104.371117"><ele>111.2</ele><time>2011-04-27T09:26:41.0000000+00:00</time></trkpt><trkpt lat="22.185921" lon="104.371223"><ele>114.1</ele><time>2011-04-27T09:26:46.0000000+00:00</time></trkpt><trkpt lat="22.18597" lon="104.37133"><ele>111.8</ele><time>2011-04-27T09:26:51.0000000+00:00</time></trkpt><trkpt lat="22.186016" lon="104.371414"><ele>111.5</ele><time>2011-04-27T09:26:56.0000000+00:00</time></trkpt><trkpt lat="22.186045" lon="104.371498"><ele>112.9</ele><time>2011-04-27T09:27:01.0000000+00:00</time></trkpt><trkpt lat="22.186081" lon="104.371574"><ele>112.2</ele><time>2011-04-27T09:27:06.0000000+00:00</time></trkpt><trkpt lat="22.18611" lon="104.371643"><ele>114.3</ele><time>2011-04-27T09:27:11.0000000+00:00</time></trkpt><trkpt lat="22.186125" lon="104.371719"><ele>116.4</ele><time>2011-04-27T09:27:16.0000000+00:00</time></trkpt><trkpt lat="22.186163" lon="104.371773"><ele>117.2</ele><time>2011-04-27T09:27:21.0000000+00:00</time></trkpt><trkpt lat="22.186193" lon="104.371849"><ele>117.6</ele><time>2011-04-27T09:27:26.0000000+00:00</time></trkpt><trkpt lat="22.186222" lon="104.371895"><ele>118.1</ele><time>2011-04-27T09:27:31.0000000+00:00</time></trkpt><trkpt lat="22.186262" lon="104.371956"><ele>118.2</ele><time>2011-04-27T09:27:36.0000000+00:00</time></trkpt><trkpt lat="22.186283" lon="104.372032"><ele>119.2</ele><time>2011-04-27T09:27:41.0000000+00:00</time></trkpt><trkpt lat="22.186319" lon="104.372093"><ele>120.2</ele><time>2011-04-27T09:27:46.0000000+00:00</time></trkpt><trkpt lat="22.186361" lon="104.372162"><ele>121.1</ele><time>2011-04-27T09:27:51.0000000+00:00</time></trkpt><trkpt lat="22.186426" lon="104.372269"><ele>122.0</ele><time>2011-04-27T09:27:56.0000000+00:00</time></trkpt><trkpt lat="22.186485" lon="104.372375"><ele>121.4</ele><time>2011-04-27T09:28:01.0000000+00:00</time></trkpt><trkpt lat="22.186552" lon="104.372505"><ele>120.7</ele><time>2011-04-27T09:28:06.0000000+00:00</time></trkpt><trkpt lat="22.186544" lon="104.372681"><ele>120.6</ele><time>2011-04-27T09:28:11.0000000+00:00</time></trkpt><trkpt lat="22.186497" lon="104.372887"><ele>116.6</ele><time>2011-04-27T09:28:16.0000000+00:00</time></trkpt><trkpt lat="22.186449" lon="104.373077"><ele>117.3</ele><time>2011-04-27T09:28:21.0000000+00:00</time></trkpt><trkpt lat="22.186481" lon="104.373207"><ele>116.6</ele><time>2011-04-27T09:28:26.0000000+00:00</time></trkpt><trkpt lat="22.186543" lon="104.373291"><ele>117.5</ele><time>2011-04-27T09:28:31.0000000+00:00</time></trkpt><trkpt lat="22.18663" lon="104.37336"><ele>118.0</ele><time>2011-04-27T09:28:36.0000000+00:00</time></trkpt><trkpt lat="22.186726" lon="104.373367"><ele>119.5</ele><time>2011-04-27T09:28:41.0000000+00:00</time></trkpt><trkpt lat="22.186829" lon="104.373398"><ele>121.5</ele><time>2011-04-27T09:28:46.0000000+00:00</time></trkpt><trkpt lat="22.186928" lon="104.373459"><ele>123.0</ele><time>2011-04-27T09:28:51.0000000+00:00</time></trkpt><trkpt lat="22.187004" lon="104.373535"><ele>123.9</ele><time>2011-04-27T09:28:56.0000000+00:00</time></trkpt><trkpt lat="22.187067" lon="104.373627"><ele>125.7</ele><time>2011-04-27T09:29:01.0000000+00:00</time></trkpt><trkpt lat="22.18713" lon="104.373718"><ele>126.7</ele><time>2011-04-27T09:29:06.0000000+00:00</time></trkpt><trkpt lat="22.187243" lon="104.373802"><ele>129.0</ele><time>2011-04-27T09:29:11.0000000+00:00</time></trkpt><trkpt lat="22.187325" lon="104.373894"><ele>128.4</ele><time>2011-04-27T09:29:16.0000000+00:00</time></trkpt><trkpt lat="22.187387" lon="104.373978"><ele>124.3</ele><time>2011-04-27T09:29:21.0000000+00:00</time></trkpt><trkpt lat="22.187489" lon="104.374001"><ele>123.9</ele><time>2011-04-27T09:29:26.0000000+00:00</time></trkpt><trkpt lat="22.187607" lon="104.373993"><ele>124.2</ele><time>2011-04-27T09:29:31.0000000+00:00</time></trkpt><trkpt lat="22.187727" lon="104.374008"><ele>124.3</ele><time>2011-04-27T09:29:36.0000000+00:00</time></trkpt><trkpt lat="22.187851" lon="104.374023"><ele>124.1</ele><time>2011-04-27T09:29:41.0000000+00:00</time></trkpt><trkpt lat="22.188019" lon="104.374039"><ele>121.9</ele><time>2011-04-27T09:29:46.0000000+00:00</time></trkpt><trkpt lat="22.188215" lon="104.374138"><ele>119.2</ele><time>2011-04-27T09:29:51.0000000+00:00</time></trkpt><trkpt lat="22.188387" lon="104.374344"><ele>119.1</ele><time>2011-04-27T09:29:56.0000000+00:00</time></trkpt><trkpt lat="22.188599" lon="104.374557"><ele>117.4</ele><time>2011-04-27T09:30:01.0000000+00:00</time></trkpt><trkpt lat="22.188789" lon="104.374718"><ele>120.7</ele><time>2011-04-27T09:30:06.0000000+00:00</time></trkpt><trkpt lat="22.188944" lon="104.37487"><ele>120.7</ele><time>2011-04-27T09:30:11.0000000+00:00</time></trkpt><trkpt lat="22.189064" lon="104.375015"><ele>120.5</ele><time>2011-04-27T09:30:16.0000000+00:00</time></trkpt><trkpt lat="22.189194" lon="104.375137"><ele>121.5</ele><time>2011-04-27T09:30:21.0000000+00:00</time></trkpt><trkpt lat="22.189312" lon="104.375229"><ele>120.8</ele><time>2011-04-27T09:30:26.0000000+00:00</time></trkpt><trkpt lat="22.189384" lon="104.375275"><ele>121.9</ele><time>2011-04-27T09:30:31.0000000+00:00</time></trkpt><trkpt lat="22.189409" lon="104.375282"><ele>121.8</ele><time>2011-04-27T09:30:36.0000000+00:00</time></trkpt><trkpt lat="22.189405" lon="104.375282"><ele>121.8</ele><time>2011-04-27T09:30:41.0000000+00:00</time></trkpt><trkpt lat="22.189411" lon="104.375282"><ele>121.8</ele><time>2011-04-27T09:30:46.0000000+00:00</time></trkpt><trkpt lat="22.189417" lon="104.375282"><ele>121.7</ele><time>2011-04-27T09:30:51.0000000+00:00</time></trkpt><trkpt lat="22.189421" lon="104.375282"><ele>121.7</ele><time>2011-04-27T09:30:56.0000000+00:00</time></trkpt><trkpt lat="22.189425" lon="104.375282"><ele>121.7</ele><time>2011-04-27T09:31:01.0000000+00:00</time></trkpt><trkpt lat="22.189428" lon="104.375282"><ele>121.6</ele><time>2011-04-27T09:31:06.0000000+00:00</time></trkpt><trkpt lat="22.189438" lon="104.375282"><ele>121.7</ele><time>2011-04-27T09:31:11.0000000+00:00</time></trkpt><trkpt lat="22.189503" lon="104.375328"><ele>122.3</ele><time>2011-04-27T09:31:16.0000000+00:00</time></trkpt><trkpt lat="22.189589" lon="104.375458"><ele>123.3</ele><time>2011-04-27T09:31:21.0000000+00:00</time></trkpt><trkpt lat="22.189627" lon="104.375626"><ele>123.7</ele><time>2011-04-27T09:31:26.0000000+00:00</time></trkpt><trkpt lat="22.189684" lon="104.375748"><ele>124.1</ele><time>2011-04-27T09:31:31.0000000+00:00</time></trkpt><trkpt lat="22.189793" lon="104.375801"><ele>123.7</ele><time>2011-04-27T09:31:36.0000000+00:00</time></trkpt><trkpt lat="22.189877" lon="104.375946"><ele>126.0</ele><time>2011-04-27T09:31:41.0000000+00:00</time></trkpt><trkpt lat="22.190073" lon="104.376137"><ele>127.3</ele><time>2011-04-27T09:31:46.0000000+00:00</time></trkpt><trkpt lat="22.19034" lon="104.376343"><ele>124.4</ele><time>2011-04-27T09:31:51.0000000+00:00</time></trkpt><trkpt lat="22.190561" lon="104.376633"><ele>120.9</ele><time>2011-04-27T09:31:56.0000000+00:00</time></trkpt><trkpt lat="22.190626" lon="104.376984"><ele>117.2</ele><time>2011-04-27T09:32:01.0000000+00:00</time></trkpt><trkpt lat="22.190376" lon="104.37738"><ele>108.9</ele><time>2011-04-27T09:32:06.0000000+00:00</time></trkpt><trkpt lat="22.190239" lon="104.377708"><ele>105.1</ele><time>2011-04-27T09:32:11.0000000+00:00</time></trkpt><trkpt lat="22.190174" lon="104.37793"><ele>99.0</ele><time>2011-04-27T09:32:16.0000000+00:00</time></trkpt><trkpt lat="22.190165" lon="104.378021"><ele>96.8</ele><time>2011-04-27T09:32:21.0000000+00:00</time></trkpt><trkpt lat="22.190193" lon="104.378151"><ele>100.1</ele><time>2011-04-27T09:32:26.0000000+00:00</time></trkpt><trkpt lat="22.190248" lon="104.378288"><ele>99.4</ele><time>2011-04-27T09:32:31.0000000+00:00</time></trkpt><trkpt lat="22.190315" lon="104.378471"><ele>99.8</ele><time>2011-04-27T09:32:36.0000000+00:00</time></trkpt><trkpt lat="22.19042" lon="104.378616"><ele>100.3</ele><time>2011-04-27T09:32:41.0000000+00:00</time></trkpt><trkpt lat="22.190577" lon="104.378731"><ele>100.0</ele><time>2011-04-27T09:32:46.0000000+00:00</time></trkpt><trkpt lat="22.190737" lon="104.378815"><ele>99.0</ele><time>2011-04-27T09:32:51.0000000+00:00</time></trkpt><trkpt lat="22.190876" lon="104.378906"><ele>100.8</ele><time>2011-04-27T09:32:56.0000000+00:00</time></trkpt><trkpt lat="22.191042" lon="104.378983"><ele>103.5</ele><time>2011-04-27T09:33:01.0000000+00:00</time></trkpt><trkpt lat="22.191217" lon="104.379074"><ele>103.2</ele><time>2011-04-27T09:33:06.0000000+00:00</time></trkpt><trkpt lat="22.191374" lon="104.37915"><ele>103.6</ele><time>2011-04-27T09:33:11.0000000+00:00</time></trkpt><trkpt lat="22.191513" lon="104.379234"><ele>105.6</ele><time>2011-04-27T09:33:16.0000000+00:00</time></trkpt><trkpt lat="22.191633" lon="104.379295"><ele>106.8</ele><time>2011-04-27T09:33:21.0000000+00:00</time></trkpt><trkpt lat="22.191761" lon="104.379372"><ele>109.0</ele><time>2011-04-27T09:33:26.0000000+00:00</time></trkpt><trkpt lat="22.191895" lon="104.379463"><ele>109.9</ele><time>2011-04-27T09:33:31.0000000+00:00</time></trkpt><trkpt lat="22.192024" lon="104.379562"><ele>111.4</ele><time>2011-04-27T09:33:36.0000000+00:00</time></trkpt><trkpt lat="22.192158" lon="104.379677"><ele>110.6</ele><time>2011-04-27T09:33:41.0000000+00:00</time></trkpt><trkpt lat="22.192265" lon="104.379807"><ele>110.9</ele><time>2011-04-27T09:33:46.0000000+00:00</time></trkpt><trkpt lat="22.192368" lon="104.379921"><ele>112.1</ele><time>2011-04-27T09:33:51.0000000+00:00</time></trkpt><trkpt lat="22.192505" lon="104.380043"><ele>112.7</ele><time>2011-04-27T09:33:56.0000000+00:00</time></trkpt><trkpt lat="22.19265" lon="104.380157"><ele>114.6</ele><time>2011-04-27T09:34:01.0000000+00:00</time></trkpt><trkpt lat="22.192795" lon="104.380249"><ele>116.7</ele><time>2011-04-27T09:34:06.0000000+00:00</time></trkpt><trkpt lat="22.192936" lon="104.380325"><ele>119.6</ele><time>2011-04-27T09:34:11.0000000+00:00</time></trkpt><trkpt lat="22.193048" lon="104.380402"><ele>119.4</ele><time>2011-04-27T09:34:16.0000000+00:00</time></trkpt><trkpt lat="22.193169" lon="104.380501"><ele>117.7</ele><time>2011-04-27T09:34:21.0000000+00:00</time></trkpt><trkpt lat="22.193264" lon="104.380615"><ele>118.4</ele><time>2011-04-27T09:34:26.0000000+00:00</time></trkpt><trkpt lat="22.193367" lon="104.38073"><ele>116.6</ele><time>2011-04-27T09:34:31.0000000+00:00</time></trkpt><trkpt lat="22.193438" lon="104.380844"><ele>116.8</ele><time>2011-04-27T09:34:36.0000000+00:00</time></trkpt><trkpt lat="22.193481" lon="104.380981"><ele>118.8</ele><time>2011-04-27T09:34:41.0000000+00:00</time></trkpt><trkpt lat="22.193512" lon="104.381104"><ele>121.2</ele><time>2011-04-27T09:34:46.0000000+00:00</time></trkpt><trkpt lat="22.193521" lon="104.381241"><ele>121.5</ele><time>2011-04-27T09:34:51.0000000+00:00</time></trkpt><trkpt lat="22.193527" lon="104.381371"><ele>122.4</ele><time>2011-04-27T09:34:56.0000000+00:00</time></trkpt><trkpt lat="22.193525" lon="104.381516"><ele>124.2</ele><time>2011-04-27T09:35:01.0000000+00:00</time></trkpt><trkpt lat="22.193502" lon="104.381683"><ele>124.8</ele><time>2011-04-27T09:35:06.0000000+00:00</time></trkpt><trkpt lat="22.193441" lon="104.38176"><ele>125.2</ele><time>2011-04-27T09:35:11.0000000+00:00</time></trkpt><trkpt lat="22.193396" lon="104.381805"><ele>123.2</ele><time>2011-04-27T09:35:16.0000000+00:00</time></trkpt><trkpt lat="22.193323" lon="104.381813"><ele>122.8</ele><time>2011-04-27T09:35:21.0000000+00:00</time></trkpt><trkpt lat="22.193289" lon="104.381798"><ele>121.7</ele><time>2011-04-27T09:35:26.0000000+00:00</time></trkpt><trkpt lat="22.193287" lon="104.38179"><ele>121.2</ele><time>2011-04-27T09:35:31.0000000+00:00</time></trkpt><trkpt lat="22.193285" lon="104.38179"><ele>121.1</ele><time>2011-04-27T09:35:36.0000000+00:00</time></trkpt><trkpt lat="22.193285" lon="104.38179"><ele>121.0</ele><time>2011-04-27T09:35:41.0000000+00:00</time></trkpt><trkpt lat="22.193281" lon="104.38179"><ele>121.0</ele><time>2011-04-27T09:35:46.0000000+00:00</time></trkpt><trkpt lat="22.193281" lon="104.38179"><ele>121.0</ele><time>2011-04-27T09:35:51.0000000+00:00</time></trkpt><trkpt lat="22.193283" lon="104.38179"><ele>121.0</ele><time>2011-04-27T09:35:56.0000000+00:00</time></trkpt><trkpt lat="22.193287" lon="104.38179"><ele>121.0</ele><time>2011-04-27T09:36:01.0000000+00:00</time></trkpt><trkpt lat="22.193287" lon="104.38179"><ele>121.0</ele><time>2011-04-27T09:36:06.0000000+00:00</time></trkpt><trkpt lat="22.193285" lon="104.38179"><ele>121.0</ele><time>2011-04-27T09:36:11.0000000+00:00</time></trkpt><trkpt lat="22.193277" lon="104.381783"><ele>120.9</ele><time>2011-04-27T09:36:16.0000000+00:00</time></trkpt><trkpt lat="22.19323" lon="104.381783"><ele>120.5</ele><time>2011-04-27T09:36:21.0000000+00:00</time></trkpt><trkpt lat="22.193041" lon="104.381836"><ele>119.5</ele><time>2011-04-27T09:36:26.0000000+00:00</time></trkpt><trkpt lat="22.192881" lon="104.382019"><ele>118.2</ele><time>2011-04-27T09:36:31.0000000+00:00</time></trkpt><trkpt lat="22.192923" lon="104.382355"><ele>117.6</ele><time>2011-04-27T09:36:36.0000000+00:00</time></trkpt><trkpt lat="22.193029" lon="104.382675"><ele>116.8</ele><time>2011-04-27T09:36:41.0000000+00:00</time></trkpt><trkpt lat="22.193249" lon="104.382797"><ele>114.9</ele><time>2011-04-27T09:36:46.0000000+00:00</time></trkpt><trkpt lat="22.193453" lon="104.382751"><ele>114.2</ele><time>2011-04-27T09:36:51.0000000+00:00</time></trkpt><trkpt lat="22.193567" lon="104.382759"><ele>116.3</ele><time>2011-04-27T09:36:56.0000000+00:00</time></trkpt><trkpt lat="22.193703" lon="104.382797"><ele>116.9</ele><time>2011-04-27T09:37:01.0000000+00:00</time></trkpt><trkpt lat="22.193855" lon="104.382843"><ele>118.0</ele><time>2011-04-27T09:37:06.0000000+00:00</time></trkpt><trkpt lat="22.19396" lon="104.382874"><ele>120.4</ele><time>2011-04-27T09:37:11.0000000+00:00</time></trkpt><trkpt lat="22.194031" lon="104.382896"><ele>121.5</ele><time>2011-04-27T09:37:16.0000000+00:00</time></trkpt><trkpt lat="22.194132" lon="104.382927"><ele>122.2</ele><time>2011-04-27T09:37:21.0000000+00:00</time></trkpt><trkpt lat="22.194235" lon="104.382973"><ele>120.5</ele><time>2011-04-27T09:37:26.0000000+00:00</time></trkpt><trkpt lat="22.194342" lon="104.383003"><ele>121.5</ele><time>2011-04-27T09:37:31.0000000+00:00</time></trkpt><trkpt lat="22.194454" lon="104.383064"><ele>121.6</ele><time>2011-04-27T09:37:36.0000000+00:00</time></trkpt><trkpt lat="22.194578" lon="104.383148"><ele>120.7</ele><time>2011-04-27T09:37:41.0000000+00:00</time></trkpt><trkpt lat="22.194681" lon="104.383186"><ele>121.4</ele><time>2011-04-27T09:37:46.0000000+00:00</time></trkpt><trkpt lat="22.194807" lon="104.383263"><ele>121.2</ele><time>2011-04-27T09:37:51.0000000+00:00</time></trkpt><trkpt lat="22.194933" lon="104.383339"><ele>120.2</ele><time>2011-04-27T09:37:56.0000000+00:00</time></trkpt><trkpt lat="22.195036" lon="104.383438"><ele>120.2</ele><time>2011-04-27T09:38:01.0000000+00:00</time></trkpt><trkpt lat="22.195103" lon="104.383598"><ele>119.7</ele><time>2011-04-27T09:38:06.0000000+00:00</time></trkpt><trkpt lat="22.195185" lon="104.38382"><ele>119.3</ele><time>2011-04-27T09:38:11.0000000+00:00</time></trkpt><trkpt lat="22.195395" lon="104.384056"><ele>117.7</ele><time>2011-04-27T09:38:16.0000000+00:00</time></trkpt><trkpt lat="22.195614" lon="104.384018"><ele>118.0</ele><time>2011-04-27T09:38:21.0000000+00:00</time></trkpt><trkpt lat="22.19577" lon="104.383957"><ele>119.7</ele><time>2011-04-27T09:38:26.0000000+00:00</time></trkpt><trkpt lat="22.195906" lon="104.383926"><ele>119.2</ele><time>2011-04-27T09:38:31.0000000+00:00</time></trkpt><trkpt lat="22.196032" lon="104.383926"><ele>119.9</ele><time>2011-04-27T09:38:36.0000000+00:00</time></trkpt><trkpt lat="22.196169" lon="104.383942"><ele>118.6</ele><time>2011-04-27T09:38:41.0000000+00:00</time></trkpt><trkpt lat="22.196327" lon="104.383972"><ele>119.3</ele><time>2011-04-27T09:38:46.0000000+00:00</time></trkpt><trkpt lat="22.196466" lon="104.384026"><ele>119.7</ele><time>2011-04-27T09:38:51.0000000+00:00</time></trkpt><trkpt lat="22.196602" lon="104.384094"><ele>122.4</ele><time>2011-04-27T09:38:56.0000000+00:00</time></trkpt><trkpt lat="22.196671" lon="104.384155"><ele>123.3</ele><time>2011-04-27T09:39:01.0000000+00:00</time></trkpt><trkpt lat="22.19672" lon="104.384224"><ele>123.3</ele><time>2011-04-27T09:39:06.0000000+00:00</time></trkpt><trkpt lat="22.196735" lon="104.384277"><ele>123.3</ele><time>2011-04-27T09:39:11.0000000+00:00</time></trkpt><trkpt lat="22.196733" lon="104.384384"><ele>123.5</ele><time>2011-04-27T09:39:16.0000000+00:00</time></trkpt><trkpt lat="22.196772" lon="104.384529"><ele>123.2</ele><time>2011-04-27T09:39:21.0000000+00:00</time></trkpt><trkpt lat="22.196819" lon="104.384666"><ele>123.0</ele><time>2011-04-27T09:39:26.0000000+00:00</time></trkpt><trkpt lat="22.196844" lon="104.384773"><ele>122.8</ele><time>2011-04-27T09:39:31.0000000+00:00</time></trkpt><trkpt lat="22.196838" lon="104.38488"><ele>122.9</ele><time>2011-04-27T09:39:36.0000000+00:00</time></trkpt><trkpt lat="22.19684" lon="104.384995"><ele>122.6</ele><time>2011-04-27T09:39:41.0000000+00:00</time></trkpt><trkpt lat="22.19684" lon="104.385124"><ele>122.4</ele><time>2011-04-27T09:39:46.0000000+00:00</time></trkpt><trkpt lat="22.196836" lon="104.385269"><ele>122.2</ele><time>2011-04-27T09:39:51.0000000+00:00</time></trkpt><trkpt lat="22.196913" lon="104.385414"><ele>123.7</ele><time>2011-04-27T09:39:56.0000000+00:00</time></trkpt><trkpt lat="22.196999" lon="104.385498"><ele>124.6</ele><time>2011-04-27T09:40:01.0000000+00:00</time></trkpt><trkpt lat="22.197134" lon="104.385582"><ele>125.2</ele><time>2011-04-27T09:40:06.0000000+00:00</time></trkpt><trkpt lat="22.197268" lon="104.385635"><ele>125.4</ele><time>2011-04-27T09:40:11.0000000+00:00</time></trkpt><trkpt lat="22.197365" lon="104.385643"><ele>125.7</ele><time>2011-04-27T09:40:16.0000000+00:00</time></trkpt><trkpt lat="22.197491" lon="104.385658"><ele>125.9</ele><time>2011-04-27T09:40:21.0000000+00:00</time></trkpt><trkpt lat="22.197605" lon="104.385666"><ele>124.3</ele><time>2011-04-27T09:40:26.0000000+00:00</time></trkpt><trkpt lat="22.197701" lon="104.385651"><ele>124.2</ele><time>2011-04-27T09:40:31.0000000+00:00</time></trkpt><trkpt lat="22.197784" lon="104.385689"><ele>125.2</ele><time>2011-04-27T09:40:36.0000000+00:00</time></trkpt><trkpt lat="22.197882" lon="104.385674"><ele>125.6</ele><time>2011-04-27T09:40:41.0000000+00:00</time></trkpt><trkpt lat="22.198025" lon="104.385681"><ele>125.8</ele><time>2011-04-27T09:40:46.0000000+00:00</time></trkpt><trkpt lat="22.198166" lon="104.385735"><ele>126.5</ele><time>2011-04-27T09:40:51.0000000+00:00</time></trkpt><trkpt lat="22.198294" lon="104.385818"><ele>127.6</ele><time>2011-04-27T09:40:56.0000000+00:00</time></trkpt><trkpt lat="22.198391" lon="104.385902"><ele>127.8</ele><time>2011-04-27T09:41:01.0000000+00:00</time></trkpt><trkpt lat="22.198477" lon="104.385963"><ele>127.5</ele><time>2011-04-27T09:41:06.0000000+00:00</time></trkpt><trkpt lat="22.198591" lon="104.385979"><ele>127.1</ele><time>2011-04-27T09:41:11.0000000+00:00</time></trkpt><trkpt lat="22.198748" lon="104.385902"><ele>129.0</ele><time>2011-04-27T09:41:16.0000000+00:00</time></trkpt><trkpt lat="22.198893" lon="104.385834"><ele>130.5</ele><time>2011-04-27T09:41:21.0000000+00:00</time></trkpt><trkpt lat="22.199039" lon="104.385773"><ele>131.5</ele><time>2011-04-27T09:41:26.0000000+00:00</time></trkpt><trkpt lat="22.1992" lon="104.385727"><ele>132.4</ele><time>2011-04-27T09:41:31.0000000+00:00</time></trkpt><trkpt lat="22.199314" lon="104.385735"><ele>133.3</ele><time>2011-04-27T09:41:36.0000000+00:00</time></trkpt><trkpt lat="22.199417" lon="104.385773"><ele>136.0</ele><time>2011-04-27T09:41:41.0000000+00:00</time></trkpt><trkpt lat="22.199537" lon="104.385788"><ele>143.8</ele><time>2011-04-27T09:41:46.0000000+00:00</time></trkpt><trkpt lat="22.199606" lon="104.385796"><ele>145.7</ele><time>2011-04-27T09:41:51.0000000+00:00</time></trkpt><trkpt lat="22.199614" lon="104.385796"><ele>146.3</ele><time>2011-04-27T09:41:56.0000000+00:00</time></trkpt><trkpt lat="22.199629" lon="104.385803"><ele>145.9</ele><time>2011-04-27T09:42:01.0000000+00:00</time></trkpt><trkpt lat="22.199646" lon="104.385803"><ele>143.0</ele><time>2011-04-27T09:42:06.0000000+00:00</time></trkpt><trkpt lat="22.199644" lon="104.385811"><ele>142.0</ele><time>2011-04-27T09:42:11.0000000+00:00</time></trkpt><trkpt lat="22.199644" lon="104.385811"><ele>142.0</ele><time>2011-04-27T09:42:16.0000000+00:00</time></trkpt><trkpt lat="22.199646" lon="104.385818"><ele>142.0</ele><time>2011-04-27T09:42:21.0000000+00:00</time></trkpt><trkpt lat="22.199673" lon="104.385857"><ele>142.5</ele><time>2011-04-27T09:42:26.0000000+00:00</time></trkpt><trkpt lat="22.199713" lon="104.385979"><ele>143.5</ele><time>2011-04-27T09:42:31.0000000+00:00</time></trkpt><trkpt lat="22.199648" lon="104.386108"><ele>144.7</ele><time>2011-04-27T09:42:36.0000000+00:00</time></trkpt><trkpt lat="22.199545" lon="104.3862"><ele>145.8</ele><time>2011-04-27T09:42:41.0000000+00:00</time></trkpt><trkpt lat="22.199436" lon="104.386261"><ele>147.0</ele><time>2011-04-27T09:42:46.0000000+00:00</time></trkpt><trkpt lat="22.199341" lon="104.38636"><ele>148.1</ele><time>2011-04-27T09:42:51.0000000+00:00</time></trkpt><trkpt lat="22.199299" lon="104.386482"><ele>148.5</ele><time>2011-04-27T09:42:56.0000000+00:00</time></trkpt><trkpt lat="22.199272" lon="104.386604"><ele>149.1</ele><time>2011-04-27T09:43:01.0000000+00:00</time></trkpt><trkpt lat="22.199236" lon="104.386742"><ele>149.8</ele><time>2011-04-27T09:43:06.0000000+00:00</time></trkpt><trkpt lat="22.199194" lon="104.386879"><ele>150.5</ele><time>2011-04-27T09:43:11.0000000+00:00</time></trkpt><trkpt lat="22.199171" lon="104.386986"><ele>151.6</ele><time>2011-04-27T09:43:16.0000000+00:00</time></trkpt><trkpt lat="22.199127" lon="104.387115"><ele>152.6</ele><time>2011-04-27T09:43:21.0000000+00:00</time></trkpt><trkpt lat="22.199135" lon="104.387215"><ele>154.1</ele><time>2011-04-27T09:43:26.0000000+00:00</time></trkpt><trkpt lat="22.199205" lon="104.387337"><ele>154.6</ele><time>2011-04-27T09:43:31.0000000+00:00</time></trkpt><trkpt lat="22.199272" lon="104.387466"><ele>155.6</ele><time>2011-04-27T09:43:36.0000000+00:00</time></trkpt><trkpt lat="22.199343" lon="104.387558"><ele>156.2</ele><time>2011-04-27T09:43:41.0000000+00:00</time></trkpt><trkpt lat="22.199427" lon="104.387611"><ele>157.2</ele><time>2011-04-27T09:43:46.0000000+00:00</time></trkpt><trkpt lat="22.199499" lon="104.387642"><ele>158.5</ele><time>2011-04-27T09:43:51.0000000+00:00</time></trkpt><trkpt lat="22.199562" lon="104.38768"><ele>159.2</ele><time>2011-04-27T09:43:56.0000000+00:00</time></trkpt><trkpt lat="22.199648" lon="104.387665"><ele>156.1</ele><time>2011-04-27T09:44:01.0000000+00:00</time></trkpt><trkpt lat="22.199755" lon="104.38765"><ele>153.5</ele><time>2011-04-27T09:44:06.0000000+00:00</time></trkpt><trkpt lat="22.199863" lon="104.387665"><ele>151.2</ele><time>2011-04-27T09:44:11.0000000+00:00</time></trkpt><trkpt lat="22.199986" lon="104.387718"><ele>148.9</ele><time>2011-04-27T09:44:16.0000000+00:00</time></trkpt><trkpt lat="22.200069" lon="104.38781"><ele>146.9</ele><time>2011-04-27T09:44:21.0000000+00:00</time></trkpt><trkpt lat="22.200153" lon="104.387917"><ele>145.3</ele><time>2011-04-27T09:44:26.0000000+00:00</time></trkpt><trkpt lat="22.200211" lon="104.388069"><ele>143.6</ele><time>2011-04-27T09:44:31.0000000+00:00</time></trkpt><trkpt lat="22.200205" lon="104.388252"><ele>141.9</ele><time>2011-04-27T09:44:36.0000000+00:00</time></trkpt><trkpt lat="22.200155" lon="104.388443"><ele>141.0</ele><time>2011-04-27T09:44:41.0000000+00:00</time></trkpt><trkpt lat="22.200098" lon="104.388596"><ele>140.3</ele><time>2011-04-27T09:44:46.0000000+00:00</time></trkpt><trkpt lat="22.200087" lon="104.388718"><ele>139.1</ele><time>2011-04-27T09:44:51.0000000+00:00</time></trkpt><trkpt lat="22.200151" lon="104.388847"><ele>137.7</ele><time>2011-04-27T09:44:56.0000000+00:00</time></trkpt><trkpt lat="22.200251" lon="104.388924"><ele>137.6</ele><time>2011-04-27T09:45:01.0000000+00:00</time></trkpt><trkpt lat="22.200356" lon="104.388947"><ele>137.2</ele><time>2011-04-27T09:45:06.0000000+00:00</time></trkpt><trkpt lat="22.20047" lon="104.388985"><ele>137.3</ele><time>2011-04-27T09:45:11.0000000+00:00</time></trkpt><trkpt lat="22.200562" lon="104.389046"><ele>137.9</ele><time>2011-04-27T09:45:16.0000000+00:00</time></trkpt><trkpt lat="22.200615" lon="104.389145"><ele>138.9</ele><time>2011-04-27T09:45:21.0000000+00:00</time></trkpt><trkpt lat="22.200626" lon="104.389244"><ele>140.6</ele><time>2011-04-27T09:45:26.0000000+00:00</time></trkpt><trkpt lat="22.20063" lon="104.389313"><ele>141.6</ele><time>2011-04-27T09:45:31.0000000+00:00</time></trkpt><trkpt lat="22.200611" lon="104.389427"><ele>142.6</ele><time>2011-04-27T09:45:36.0000000+00:00</time></trkpt><trkpt lat="22.200623" lon="104.389511"><ele>142.6</ele><time>2011-04-27T09:45:41.0000000+00:00</time></trkpt><trkpt lat="22.2006" lon="104.389618"><ele>143.4</ele><time>2011-04-27T09:45:46.0000000+00:00</time></trkpt><trkpt lat="22.200605" lon="104.389717"><ele>145.6</ele><time>2011-04-27T09:45:51.0000000+00:00</time></trkpt><trkpt lat="22.200636" lon="104.389839"><ele>149.1</ele><time>2011-04-27T09:45:56.0000000+00:00</time></trkpt><trkpt lat="22.200657" lon="104.389915"><ele>150.1</ele><time>2011-04-27T09:46:01.0000000+00:00</time></trkpt><trkpt lat="22.200674" lon="104.390007"><ele>152.9</ele><time>2011-04-27T09:46:06.0000000+00:00</time></trkpt><trkpt lat="22.200665" lon="104.390091"><ele>157.0</ele><time>2011-04-27T09:46:11.0000000+00:00</time></trkpt><trkpt lat="22.200617" lon="104.39019"><ele>158.2</ele><time>2011-04-27T09:46:16.0000000+00:00</time></trkpt><trkpt lat="22.200556" lon="104.390259"><ele>161.3</ele><time>2011-04-27T09:46:21.0000000+00:00</time></trkpt><trkpt lat="22.200497" lon="104.39032"><ele>161.3</ele><time>2011-04-27T09:46:26.0000000+00:00</time></trkpt><trkpt lat="22.20042" lon="104.390358"><ele>161.9</ele><time>2011-04-27T09:46:31.0000000+00:00</time></trkpt><trkpt lat="22.200352" lon="104.390411"><ele>162.1</ele><time>2011-04-27T09:46:36.0000000+00:00</time></trkpt><trkpt lat="22.200302" lon="104.39045"><ele>162.6</ele><time>2011-04-27T09:46:41.0000000+00:00</time></trkpt><trkpt lat="22.200228" lon="104.39048"><ele>163.1</ele><time>2011-04-27T09:46:46.0000000+00:00</time></trkpt><trkpt lat="22.200142" lon="104.390518"><ele>164.1</ele><time>2011-04-27T09:46:51.0000000+00:00</time></trkpt><trkpt lat="22.200045" lon="104.390518"><ele>165.4</ele><time>2011-04-27T09:46:56.0000000+00:00</time></trkpt><trkpt lat="22.199942" lon="104.390533"><ele>166.7</ele><time>2011-04-27T09:47:01.0000000+00:00</time></trkpt><trkpt lat="22.199858" lon="104.390587"><ele>167.8</ele><time>2011-04-27T09:47:06.0000000+00:00</time></trkpt><trkpt lat="22.199793" lon="104.39061"><ele>168.5</ele><time>2011-04-27T09:47:11.0000000+00:00</time></trkpt><trkpt lat="22.199707" lon="104.390648"><ele>169.4</ele><time>2011-04-27T09:47:16.0000000+00:00</time></trkpt><trkpt lat="22.199625" lon="104.390709"><ele>169.8</ele><time>2011-04-27T09:47:21.0000000+00:00</time></trkpt><trkpt lat="22.199547" lon="104.390793"><ele>171.2</ele><time>2011-04-27T09:47:26.0000000+00:00</time></trkpt><trkpt lat="22.199465" lon="104.390839"><ele>172.1</ele><time>2011-04-27T09:47:31.0000000+00:00</time></trkpt><trkpt lat="22.199381" lon="104.3909"><ele>173.7</ele><time>2011-04-27T09:47:36.0000000+00:00</time></trkpt><trkpt lat="22.199308" lon="104.390984"><ele>174.5</ele><time>2011-04-27T09:47:41.0000000+00:00</time></trkpt><trkpt lat="22.199223" lon="104.391014"><ele>174.9</ele><time>2011-04-27T09:47:46.0000000+00:00</time></trkpt><trkpt lat="22.199152" lon="104.39106"><ele>175.8</ele><time>2011-04-27T09:47:51.0000000+00:00</time></trkpt><trkpt lat="22.199064" lon="104.391098"><ele>175.8</ele><time>2011-04-27T09:47:56.0000000+00:00</time></trkpt><trkpt lat="22.198999" lon="104.391159"><ele>177.3</ele><time>2011-04-27T09:48:01.0000000+00:00</time></trkpt><trkpt lat="22.198919" lon="104.391167"><ele>179.6</ele><time>2011-04-27T09:48:06.0000000+00:00</time></trkpt><trkpt lat="22.198828" lon="104.39119"><ele>179.7</ele><time>2011-04-27T09:48:11.0000000+00:00</time></trkpt><trkpt lat="22.198738" lon="104.39122"><ele>180.1</ele><time>2011-04-27T09:48:16.0000000+00:00</time></trkpt><trkpt lat="22.198652" lon="104.391235"><ele>179.5</ele><time>2011-04-27T09:48:21.0000000+00:00</time></trkpt><trkpt lat="22.198563" lon="104.391258"><ele>179.9</ele><time>2011-04-27T09:48:26.0000000+00:00</time></trkpt><trkpt lat="22.198484" lon="104.391273"><ele>180.6</ele><time>2011-04-27T09:48:31.0000000+00:00</time></trkpt><trkpt lat="22.198421" lon="104.391312"><ele>180.9</ele><time>2011-04-27T09:48:36.0000000+00:00</time></trkpt><trkpt lat="22.198347" lon="104.391365"><ele>181.3</ele><time>2011-04-27T09:48:41.0000000+00:00</time></trkpt><trkpt lat="22.198256" lon="104.391411"><ele>182.3</ele><time>2011-04-27T09:48:46.0000000+00:00</time></trkpt><trkpt lat="22.198154" lon="104.391434"><ele>183.5</ele><time>2011-04-27T09:48:51.0000000+00:00</time></trkpt><trkpt lat="22.198067" lon="104.391495"><ele>185.0</ele><time>2011-04-27T09:48:56.0000000+00:00</time></trkpt><trkpt lat="22.198021" lon="104.391563"><ele>186.3</ele><time>2011-04-27T09:49:01.0000000+00:00</time></trkpt><trkpt lat="22.198006" lon="104.391586"><ele>186.1</ele><time>2011-04-27T09:49:06.0000000+00:00</time></trkpt><trkpt lat="22.198006" lon="104.391579"><ele>185.9</ele><time>2011-04-27T09:49:11.0000000+00:00</time></trkpt><trkpt lat="22.198006" lon="104.391579"><ele>186.0</ele><time>2011-04-27T09:49:16.0000000+00:00</time></trkpt><trkpt lat="22.198006" lon="104.391579"><ele>186.1</ele><time>2011-04-27T09:49:21.0000000+00:00</time></trkpt><trkpt lat="22.198004" lon="104.391579"><ele>186.1</ele><time>2011-04-27T09:49:26.0000000+00:00</time></trkpt><trkpt lat="22.198002" lon="104.391579"><ele>186.1</ele><time>2011-04-27T09:49:31.0000000+00:00</time></trkpt><trkpt lat="22.198" lon="104.391579"><ele>186.1</ele><time>2011-04-27T09:49:36.0000000+00:00</time></trkpt><trkpt lat="22.197998" lon="104.391609"><ele>186.4</ele><time>2011-04-27T09:49:41.0000000+00:00</time></trkpt><trkpt lat="22.198004" lon="104.391632"><ele>186.7</ele><time>2011-04-27T09:49:46.0000000+00:00</time></trkpt><trkpt lat="22.198015" lon="104.391647"><ele>186.7</ele><time>2011-04-27T09:49:51.0000000+00:00</time></trkpt><trkpt lat="22.198017" lon="104.39164"><ele>186.7</ele><time>2011-04-27T09:49:56.0000000+00:00</time></trkpt><trkpt lat="22.198019" lon="104.39164"><ele>186.7</ele><time>2011-04-27T09:50:01.0000000+00:00</time></trkpt><trkpt lat="22.198019" lon="104.391609"><ele>186.8</ele><time>2011-04-27T09:50:06.0000000+00:00</time></trkpt><trkpt lat="22.198036" lon="104.391594"><ele>187.0</ele><time>2011-04-27T09:50:11.0000000+00:00</time></trkpt><trkpt lat="22.198048" lon="104.391586"><ele>186.9</ele><time>2011-04-27T09:50:16.0000000+00:00</time></trkpt><trkpt lat="22.198048" lon="104.391571"><ele>186.7</ele><time>2011-04-27T09:50:21.0000000+00:00</time></trkpt><trkpt lat="22.198051" lon="104.391571"><ele>186.7</ele><time>2011-04-27T09:50:26.0000000+00:00</time></trkpt><trkpt lat="22.198051" lon="104.391571"><ele>186.6</ele><time>2011-04-27T09:50:31.0000000+00:00</time></trkpt><trkpt lat="22.198051" lon="104.391571"><ele>186.6</ele><time>2011-04-27T09:50:36.0000000+00:00</time></trkpt><trkpt lat="22.19805" lon="104.391571"><ele>186.6</ele><time>2011-04-27T09:50:41.0000000+00:00</time></trkpt><trkpt lat="22.198048" lon="104.391571"><ele>186.6</ele><time>2011-04-27T09:50:46.0000000+00:00</time></trkpt><trkpt lat="22.198048" lon="104.391563"><ele>186.6</ele><time>2011-04-27T09:50:51.0000000+00:00</time></trkpt><trkpt lat="22.198046" lon="104.391563"><ele>186.6</ele><time>2011-04-27T09:50:56.0000000+00:00</time></trkpt><trkpt lat="22.198046" lon="104.391563"><ele>186.7</ele><time>2011-04-27T09:51:01.0000000+00:00</time></trkpt><trkpt lat="22.198046" lon="104.391556"><ele>186.8</ele><time>2011-04-27T09:51:06.0000000+00:00</time></trkpt><trkpt lat="22.198044" lon="104.391563"><ele>186.9</ele><time>2011-04-27T09:51:11.0000000+00:00</time></trkpt><trkpt lat="22.198044" lon="104.391563"><ele>186.8</ele><time>2011-04-27T09:51:16.0000000+00:00</time></trkpt><trkpt lat="22.198044" lon="104.391563"><ele>186.8</ele><time>2011-04-27T09:51:21.0000000+00:00</time></trkpt><trkpt lat="22.198044" lon="104.391563"><ele>186.7</ele><time>2011-04-27T09:51:26.0000000+00:00</time></trkpt><trkpt lat="22.198044" lon="104.391563"><ele>186.6</ele><time>2011-04-27T09:51:31.0000000+00:00</time></trkpt><trkpt lat="22.198044" lon="104.391563"><ele>186.5</ele><time>2011-04-27T09:51:36.0000000+00:00</time></trkpt><trkpt lat="22.198044" lon="104.391563"><ele>186.5</ele><time>2011-04-27T09:51:41.0000000+00:00</time></trkpt><trkpt lat="22.198044" lon="104.391563"><ele>186.6</ele><time>2011-04-27T09:51:46.0000000+00:00</time></trkpt><trkpt lat="22.198044" lon="104.391563"><ele>186.5</ele><time>2011-04-27T09:51:51.0000000+00:00</time></trkpt><trkpt lat="22.198044" lon="104.391563"><ele>186.5</ele><time>2011-04-27T09:51:56.0000000+00:00</time></trkpt><trkpt lat="22.198044" lon="104.391563"><ele>186.5</ele><time>2011-04-27T09:52:01.0000000+00:00</time></trkpt><trkpt lat="22.198044" lon="104.391563"><ele>186.4</ele><time>2011-04-27T09:52:06.0000000+00:00</time></trkpt><trkpt lat="22.198044" lon="104.391563"><ele>186.4</ele><time>2011-04-27T09:52:11.0000000+00:00</time></trkpt><trkpt lat="22.198044" lon="104.391563"><ele>186.5</ele><time>2011-04-27T09:52:16.0000000+00:00</time></trkpt><trkpt lat="22.198042" lon="104.391563"><ele>186.5</ele><time>2011-04-27T09:52:21.0000000+00:00</time></trkpt><trkpt lat="22.198042" lon="104.391563"><ele>186.5</ele><time>2011-04-27T09:52:26.0000000+00:00</time></trkpt><trkpt lat="22.198042" lon="104.391563"><ele>186.5</ele><time>2011-04-27T09:52:31.0000000+00:00</time></trkpt><trkpt lat="22.198042" lon="104.391563"><ele>186.4</ele><time>2011-04-27T09:52:36.0000000+00:00</time></trkpt><trkpt lat="22.19804" lon="104.391563"><ele>186.3</ele><time>2011-04-27T09:52:41.0000000+00:00</time></trkpt><trkpt lat="22.19804" lon="104.391563"><ele>186.2</ele><time>2011-04-27T09:52:46.0000000+00:00</time></trkpt><trkpt lat="22.19804" lon="104.391563"><ele>186.3</ele><time>2011-04-27T09:52:51.0000000+00:00</time></trkpt><trkpt lat="22.19804" lon="104.391563"><ele>186.2</ele><time>2011-04-27T09:52:56.0000000+00:00</time></trkpt><trkpt lat="22.19804" lon="104.391563"><ele>186.1</ele><time>2011-04-27T09:53:01.0000000+00:00</time></trkpt><trkpt lat="22.19804" lon="104.391563"><ele>186.2</ele><time>2011-04-27T09:53:06.0000000+00:00</time></trkpt><trkpt lat="22.198042" lon="104.391563"><ele>186.3</ele><time>2011-04-27T09:53:11.0000000+00:00</time></trkpt><trkpt lat="22.198044" lon="104.391563"><ele>186.3</ele><time>2011-04-27T09:53:16.0000000+00:00</time></trkpt><trkpt lat="22.198044" lon="104.391563"><ele>186.4</ele><time>2011-04-27T09:53:21.0000000+00:00</time></trkpt><trkpt lat="22.198044" lon="104.391563"><ele>186.5</ele><time>2011-04-27T09:53:26.0000000+00:00</time></trkpt><trkpt lat="22.198046" lon="104.391563"><ele>186.5</ele><time>2011-04-27T09:53:31.0000000+00:00</time></trkpt><trkpt lat="22.198046" lon="104.391563"><ele>186.5</ele><time>2011-04-27T09:53:36.0000000+00:00</time></trkpt><trkpt lat="22.198044" lon="104.391563"><ele>186.5</ele><time>2011-04-27T09:53:41.0000000+00:00</time></trkpt><trkpt lat="22.198044" lon="104.391563"><ele>186.4</ele><time>2011-04-27T09:53:46.0000000+00:00</time></trkpt><trkpt lat="22.198046" lon="104.391563"><ele>186.4</ele><time>2011-04-27T09:53:51.0000000+00:00</time></trkpt><trkpt lat="22.198048" lon="104.391563"><ele>186.6</ele><time>2011-04-27T09:53:56.0000000+00:00</time></trkpt><trkpt lat="22.19805" lon="104.391563"><ele>186.7</ele><time>2011-04-27T09:54:01.0000000+00:00</time></trkpt><trkpt lat="22.198051" lon="104.391563"><ele>186.8</ele><time>2011-04-27T09:54:06.0000000+00:00</time></trkpt><trkpt lat="22.19805" lon="104.391563"><ele>186.7</ele><time>2011-04-27T09:54:11.0000000+00:00</time></trkpt><trkpt lat="22.19805" lon="104.391563"><ele>186.6</ele><time>2011-04-27T09:54:16.0000000+00:00</time></trkpt><trkpt lat="22.19805" lon="104.391563"><ele>186.6</ele><time>2011-04-27T09:54:21.0000000+00:00</time></trkpt><trkpt lat="22.19805" lon="104.391563"><ele>186.5</ele><time>2011-04-27T09:54:26.0000000+00:00</time></trkpt><trkpt lat="22.198048" lon="104.391563"><ele>186.5</ele><time>2011-04-27T09:54:31.0000000+00:00</time></trkpt><trkpt lat="22.19805" lon="104.391563"><ele>186.6</ele><time>2011-04-27T09:54:36.0000000+00:00</time></trkpt><trkpt lat="22.198067" lon="104.391602"><ele>186.6</ele><time>2011-04-27T09:54:41.0000000+00:00</time></trkpt><trkpt lat="22.198122" lon="104.39167"><ele>186.4</ele><time>2011-04-27T09:54:46.0000000+00:00</time></trkpt><trkpt lat="22.198215" lon="104.391747"><ele>187.2</ele><time>2011-04-27T09:54:51.0000000+00:00</time></trkpt><trkpt lat="22.198292" lon="104.391747"><ele>187.5</ele><time>2011-04-27T09:54:56.0000000+00:00</time></trkpt><trkpt lat="22.198345" lon="104.391747"><ele>188.9</ele><time>2011-04-27T09:55:01.0000000+00:00</time></trkpt><trkpt lat="22.198414" lon="104.391754"><ele>190.1</ele><time>2011-04-27T09:55:06.0000000+00:00</time></trkpt><trkpt lat="22.198454" lon="104.391731"><ele>191.1</ele><time>2011-04-27T09:55:11.0000000+00:00</time></trkpt><trkpt lat="22.198498" lon="104.391739"><ele>192.4</ele><time>2011-04-27T09:55:16.0000000+00:00</time></trkpt><trkpt lat="22.198559" lon="104.391724"><ele>193.7</ele><time>2011-04-27T09:55:21.0000000+00:00</time></trkpt><trkpt lat="22.198629" lon="104.391716"><ele>195.4</ele><time>2011-04-27T09:55:26.0000000+00:00</time></trkpt><trkpt lat="22.198708" lon="104.391739"><ele>196.1</ele><time>2011-04-27T09:55:31.0000000+00:00</time></trkpt><trkpt lat="22.198784" lon="104.391762"><ele>197.5</ele><time>2011-04-27T09:55:36.0000000+00:00</time></trkpt><trkpt lat="22.198851" lon="104.391739"><ele>199.4</ele><time>2011-04-27T09:55:41.0000000+00:00</time></trkpt><trkpt lat="22.198944" lon="104.391731"><ele>199.8</ele><time>2011-04-27T09:55:46.0000000+00:00</time></trkpt><trkpt lat="22.199026" lon="104.391731"><ele>199.1</ele><time>2011-04-27T09:55:51.0000000+00:00</time></trkpt><trkpt lat="22.199102" lon="104.391747"><ele>197.7</ele><time>2011-04-27T09:55:56.0000000+00:00</time></trkpt><trkpt lat="22.199184" lon="104.391754"><ele>198.6</ele><time>2011-04-27T09:56:01.0000000+00:00</time></trkpt><trkpt lat="22.199268" lon="104.391747"><ele>198.8</ele><time>2011-04-27T09:56:06.0000000+00:00</time></trkpt><trkpt lat="22.199348" lon="104.391739"><ele>198.5</ele><time>2011-04-27T09:56:11.0000000+00:00</time></trkpt><trkpt lat="22.199434" lon="104.391716"><ele>198.7</ele><time>2011-04-27T09:56:16.0000000+00:00</time></trkpt><trkpt lat="22.199511" lon="104.39167"><ele>199.9</ele><time>2011-04-27T09:56:21.0000000+00:00</time></trkpt><trkpt lat="22.199594" lon="104.39164"><ele>200.6</ele><time>2011-04-27T09:56:26.0000000+00:00</time></trkpt><trkpt lat="22.199677" lon="104.391609"><ele>201.7</ele><time>2011-04-27T09:56:31.0000000+00:00</time></trkpt><trkpt lat="22.199753" lon="104.391594"><ele>201.8</ele><time>2011-04-27T09:56:36.0000000+00:00</time></trkpt><trkpt lat="22.199821" lon="104.391586"><ele>202.3</ele><time>2011-04-27T09:56:41.0000000+00:00</time></trkpt><trkpt lat="22.199875" lon="104.391655"><ele>204.6</ele><time>2011-04-27T09:56:46.0000000+00:00</time></trkpt><trkpt lat="22.199924" lon="104.391731"><ele>204.1</ele><time>2011-04-27T09:56:51.0000000+00:00</time></trkpt><trkpt lat="22.19994" lon="104.391815"><ele>203.8</ele><time>2011-04-27T09:56:56.0000000+00:00</time></trkpt><trkpt lat="22.199923" lon="104.391876"><ele>205.0</ele><time>2011-04-27T09:57:01.0000000+00:00</time></trkpt><trkpt lat="22.19989" lon="104.391968"><ele>204.9</ele><time>2011-04-27T09:57:06.0000000+00:00</time></trkpt><trkpt lat="22.199865" lon="104.392067"><ele>203.8</ele><time>2011-04-27T09:57:11.0000000+00:00</time></trkpt><trkpt lat="22.199827" lon="104.392151"><ele>204.6</ele><time>2011-04-27T09:57:16.0000000+00:00</time></trkpt><trkpt lat="22.199787" lon="104.392235"><ele>203.1</ele><time>2011-04-27T09:57:21.0000000+00:00</time></trkpt><trkpt lat="22.199768" lon="104.392334"><ele>203.4</ele><time>2011-04-27T09:57:26.0000000+00:00</time></trkpt><trkpt lat="22.199755" lon="104.392418"><ele>203.6</ele><time>2011-04-27T09:57:31.0000000+00:00</time></trkpt><trkpt lat="22.199724" lon="104.392502"><ele>204.3</ele><time>2011-04-27T09:57:36.0000000+00:00</time></trkpt><trkpt lat="22.199728" lon="104.392609"><ele>205.0</ele><time>2011-04-27T09:57:41.0000000+00:00</time></trkpt><trkpt lat="22.199797" lon="104.392708"><ele>206.8</ele><time>2011-04-27T09:57:46.0000000+00:00</time></trkpt><trkpt lat="22.199873" lon="104.392754"><ele>206.0</ele><time>2011-04-27T09:57:51.0000000+00:00</time></trkpt><trkpt lat="22.19993" lon="104.392769"><ele>206.2</ele><time>2011-04-27T09:57:56.0000000+00:00</time></trkpt><trkpt lat="22.200018" lon="104.392784"><ele>206.4</ele><time>2011-04-27T09:58:01.0000000+00:00</time></trkpt><trkpt lat="22.200106" lon="104.392769"><ele>207.9</ele><time>2011-04-27T09:58:06.0000000+00:00</time></trkpt><trkpt lat="22.20018" lon="104.392769"><ele>207.9</ele><time>2011-04-27T09:58:11.0000000+00:00</time></trkpt><trkpt lat="22.200222" lon="104.392784"><ele>207.3</ele><time>2011-04-27T09:58:16.0000000+00:00</time></trkpt><trkpt lat="22.200228" lon="104.392792"><ele>206.5</ele><time>2011-04-27T09:58:21.0000000+00:00</time></trkpt><trkpt lat="22.200228" lon="104.392792"><ele>206.4</ele><time>2011-04-27T09:58:26.0000000+00:00</time></trkpt><trkpt lat="22.200228" lon="104.392792"><ele>206.3</ele><time>2011-04-27T09:58:31.0000000+00:00</time></trkpt><trkpt lat="22.200228" lon="104.392792"><ele>206.3</ele><time>2011-04-27T09:58:36.0000000+00:00</time></trkpt><trkpt lat="22.200228" lon="104.392792"><ele>206.3</ele><time>2011-04-27T09:58:41.0000000+00:00</time></trkpt><trkpt lat="22.200228" lon="104.392792"><ele>206.3</ele><time>2011-04-27T09:58:46.0000000+00:00</time></trkpt><trkpt lat="22.200228" lon="104.392792"><ele>206.3</ele><time>2011-04-27T09:58:51.0000000+00:00</time></trkpt><trkpt lat="22.200228" lon="104.392792"><ele>206.3</ele><time>2011-04-27T09:58:56.0000000+00:00</time></trkpt><trkpt lat="22.200228" lon="104.392792"><ele>206.3</ele><time>2011-04-27T09:59:01.0000000+00:00</time></trkpt><trkpt lat="22.200228" lon="104.392792"><ele>206.3</ele><time>2011-04-27T09:59:06.0000000+00:00</time></trkpt><trkpt lat="22.200228" lon="104.392792"><ele>206.3</ele><time>2011-04-27T09:59:11.0000000+00:00</time></trkpt><trkpt lat="22.200228" lon="104.392792"><ele>206.2</ele><time>2011-04-27T09:59:16.0000000+00:00</time></trkpt><trkpt lat="22.200228" lon="104.392792"><ele>206.2</ele><time>2011-04-27T09:59:21.0000000+00:00</time></trkpt><trkpt lat="22.20023" lon="104.392799"><ele>206.2</ele><time>2011-04-27T09:59:26.0000000+00:00</time></trkpt><trkpt lat="22.200241" lon="104.392807"><ele>206.2</ele><time>2011-04-27T09:59:31.0000000+00:00</time></trkpt><trkpt lat="22.200315" lon="104.392868"><ele>206.2</ele><time>2011-04-27T09:59:36.0000000+00:00</time></trkpt><trkpt lat="22.200399" lon="104.392937"><ele>206.4</ele><time>2011-04-27T09:59:41.0000000+00:00</time></trkpt><trkpt lat="22.200474" lon="104.392998"><ele>206.9</ele><time>2011-04-27T09:59:46.0000000+00:00</time></trkpt><trkpt lat="22.200552" lon="104.393051"><ele>207.6</ele><time>2011-04-27T09:59:51.0000000+00:00</time></trkpt><trkpt lat="22.200649" lon="104.393105"><ele>208.2</ele><time>2011-04-27T09:59:56.0000000+00:00</time></trkpt><trkpt lat="22.20072" lon="104.393143"><ele>208.0</ele><time>2011-04-27T10:00:01.0000000+00:00</time></trkpt><trkpt lat="22.200773" lon="104.393211"><ele>207.7</ele><time>2011-04-27T10:00:06.0000000+00:00</time></trkpt><trkpt lat="22.200861" lon="104.393257"><ele>207.2</ele><time>2011-04-27T10:00:11.0000000+00:00</time></trkpt><trkpt lat="22.200943" lon="104.393295"><ele>207.4</ele><time>2011-04-27T10:00:16.0000000+00:00</time></trkpt><trkpt lat="22.201025" lon="104.393364"><ele>207.2</ele><time>2011-04-27T10:00:21.0000000+00:00</time></trkpt><trkpt lat="22.201099" lon="104.393433"><ele>206.9</ele><time>2011-04-27T10:00:26.0000000+00:00</time></trkpt><trkpt lat="22.201174" lon="104.393509"><ele>206.9</ele><time>2011-04-27T10:00:31.0000000+00:00</time></trkpt><trkpt lat="22.201242" lon="104.393578"><ele>206.9</ele><time>2011-04-27T10:00:36.0000000+00:00</time></trkpt><trkpt lat="22.201334" lon="104.393684"><ele>206.3</ele><time>2011-04-27T10:00:41.0000000+00:00</time></trkpt><trkpt lat="22.201391" lon="104.393753"><ele>206.6</ele><time>2011-04-27T10:00:46.0000000+00:00</time></trkpt><trkpt lat="22.201429" lon="104.393829"><ele>207.8</ele><time>2011-04-27T10:00:51.0000000+00:00</time></trkpt><trkpt lat="22.20149" lon="104.393913"><ele>209.7</ele><time>2011-04-27T10:00:56.0000000+00:00</time></trkpt><trkpt lat="22.201578" lon="104.394043"><ele>210.5</ele><time>2011-04-27T10:01:01.0000000+00:00</time></trkpt><trkpt lat="22.20167" lon="104.394142"><ele>212.2</ele><time>2011-04-27T10:01:06.0000000+00:00</time></trkpt><trkpt lat="22.201752" lon="104.394234"><ele>213.3</ele><time>2011-04-27T10:01:11.0000000+00:00</time></trkpt><trkpt lat="22.201811" lon="104.394318"><ele>214.7</ele><time>2011-04-27T10:01:16.0000000+00:00</time></trkpt><trkpt lat="22.201841" lon="104.394409"><ele>216.0</ele><time>2011-04-27T10:01:21.0000000+00:00</time></trkpt><trkpt lat="22.20188" lon="104.394493"><ele>216.6</ele><time>2011-04-27T10:01:26.0000000+00:00</time></trkpt><trkpt lat="22.201918" lon="104.394554"><ele>217.7</ele><time>2011-04-27T10:01:31.0000000+00:00</time></trkpt><trkpt lat="22.201979" lon="104.394592"><ele>218.8</ele><time>2011-04-27T10:01:36.0000000+00:00</time></trkpt><trkpt lat="22.202068" lon="104.394691"><ele>222.4</ele><time>2011-04-27T10:01:41.0000000+00:00</time></trkpt><trkpt lat="22.202133" lon="104.394722"><ele>223.1</ele><time>2011-04-27T10:01:46.0000000+00:00</time></trkpt><trkpt lat="22.202194" lon="104.394753"><ele>223.2</ele><time>2011-04-27T10:01:51.0000000+00:00</time></trkpt><trkpt lat="22.202255" lon="104.394783"><ele>223.4</ele><time>2011-04-27T10:01:56.0000000+00:00</time></trkpt><trkpt lat="22.202307" lon="104.394821"><ele>225.4</ele><time>2011-04-27T10:02:01.0000000+00:00</time></trkpt><trkpt lat="22.202358" lon="104.394852"><ele>226.6</ele><time>2011-04-27T10:02:06.0000000+00:00</time></trkpt><trkpt lat="22.202393" lon="104.394882"><ele>226.8</ele><time>2011-04-27T10:02:11.0000000+00:00</time></trkpt><trkpt lat="22.20244" lon="104.394936"><ele>227.9</ele><time>2011-04-27T10:02:16.0000000+00:00</time></trkpt><trkpt lat="22.202469" lon="104.394997"><ele>227.9</ele><time>2011-04-27T10:02:21.0000000+00:00</time></trkpt><trkpt lat="22.20249" lon="104.395073"><ele>227.6</ele><time>2011-04-27T10:02:26.0000000+00:00</time></trkpt><trkpt lat="22.202509" lon="104.395126"><ele>227.5</ele><time>2011-04-27T10:02:31.0000000+00:00</time></trkpt><trkpt lat="22.202522" lon="104.395172"><ele>228.0</ele><time>2011-04-27T10:02:36.0000000+00:00</time></trkpt><trkpt lat="22.202541" lon="104.395241"><ele>227.3</ele><time>2011-04-27T10:02:41.0000000+00:00</time></trkpt><trkpt lat="22.202555" lon="104.395287"><ele>228.1</ele><time>2011-04-27T10:02:46.0000000+00:00</time></trkpt><trkpt lat="22.20256" lon="104.395332"><ele>229.1</ele><time>2011-04-27T10:02:51.0000000+00:00</time></trkpt><trkpt lat="22.202566" lon="104.395386"><ele>230.8</ele><time>2011-04-27T10:02:56.0000000+00:00</time></trkpt><trkpt lat="22.20262" lon="104.395462"><ele>231.4</ele><time>2011-04-27T10:03:01.0000000+00:00</time></trkpt><trkpt lat="22.202688" lon="104.395546"><ele>232.4</ele><time>2011-04-27T10:03:06.0000000+00:00</time></trkpt><trkpt lat="22.202738" lon="104.395622"><ele>232.5</ele><time>2011-04-27T10:03:11.0000000+00:00</time></trkpt><trkpt lat="22.202799" lon="104.395691"><ele>234.1</ele><time>2011-04-27T10:03:16.0000000+00:00</time></trkpt><trkpt lat="22.202854" lon="104.395767"><ele>235.7</ele><time>2011-04-27T10:03:21.0000000+00:00</time></trkpt><trkpt lat="22.202911" lon="104.395836"><ele>236.6</ele><time>2011-04-27T10:03:26.0000000+00:00</time></trkpt><trkpt lat="22.202946" lon="104.39592"><ele>237.9</ele><time>2011-04-27T10:03:31.0000000+00:00</time></trkpt><trkpt lat="22.20302" lon="104.396004"><ele>239.8</ele><time>2011-04-27T10:03:36.0000000+00:00</time></trkpt><trkpt lat="22.203081" lon="104.39608"><ele>242.0</ele><time>2011-04-27T10:03:41.0000000+00:00</time></trkpt><trkpt lat="22.203119" lon="104.396164"><ele>243.7</ele><time>2011-04-27T10:03:46.0000000+00:00</time></trkpt><trkpt lat="22.203157" lon="104.39624"><ele>244.6</ele><time>2011-04-27T10:03:51.0000000+00:00</time></trkpt><trkpt lat="22.203173" lon="104.396324"><ele>246.4</ele><time>2011-04-27T10:03:56.0000000+00:00</time></trkpt><trkpt lat="22.203192" lon="104.396439"><ele>247.6</ele><time>2011-04-27T10:04:01.0000000+00:00</time></trkpt><trkpt lat="22.203222" lon="104.396523"><ele>247.3</ele><time>2011-04-27T10:04:06.0000000+00:00</time></trkpt><trkpt lat="22.203226" lon="104.396599"><ele>248.8</ele><time>2011-04-27T10:04:11.0000000+00:00</time></trkpt><trkpt lat="22.20323" lon="104.396698"><ele>249.4</ele><time>2011-04-27T10:04:16.0000000+00:00</time></trkpt><trkpt lat="22.203238" lon="104.39679"><ele>249.6</ele><time>2011-04-27T10:04:21.0000000+00:00</time></trkpt><trkpt lat="22.203245" lon="104.396889"><ele>250.5</ele><time>2011-04-27T10:04:26.0000000+00:00</time></trkpt><trkpt lat="22.203249" lon="104.39698"><ele>250.6</ele><time>2011-04-27T10:04:31.0000000+00:00</time></trkpt><trkpt lat="22.203255" lon="104.397087"><ele>251.8</ele><time>2011-04-27T10:04:36.0000000+00:00</time></trkpt><trkpt lat="22.203291" lon="104.397171"><ele>253.3</ele><time>2011-04-27T10:04:41.0000000+00:00</time></trkpt><trkpt lat="22.203362" lon="104.397255"><ele>254.2</ele><time>2011-04-27T10:04:46.0000000+00:00</time></trkpt><trkpt lat="22.203415" lon="104.397324"><ele>255.2</ele><time>2011-04-27T10:04:51.0000000+00:00</time></trkpt><trkpt lat="22.203484" lon="104.397377"><ele>255.4</ele><time>2011-04-27T10:04:56.0000000+00:00</time></trkpt><trkpt lat="22.203543" lon="104.397446"><ele>256.7</ele><time>2011-04-27T10:05:01.0000000+00:00</time></trkpt><trkpt lat="22.203609" lon="104.397514"><ele>257.9</ele><time>2011-04-27T10:05:06.0000000+00:00</time></trkpt><trkpt lat="22.203678" lon="104.397591"><ele>258.4</ele><time>2011-04-27T10:05:11.0000000+00:00</time></trkpt><trkpt lat="22.203735" lon="104.397636"><ele>259.2</ele><time>2011-04-27T10:05:16.0000000+00:00</time></trkpt><trkpt lat="22.203781" lon="104.39769"><ele>260.5</ele><time>2011-04-27T10:05:21.0000000+00:00</time></trkpt><trkpt lat="22.203838" lon="104.397774"><ele>261.8</ele><time>2011-04-27T10:05:26.0000000+00:00</time></trkpt><trkpt lat="22.203861" lon="104.397858"><ele>263.4</ele><time>2011-04-27T10:05:31.0000000+00:00</time></trkpt><trkpt lat="22.203901" lon="104.397942"><ele>264.1</ele><time>2011-04-27T10:05:36.0000000+00:00</time></trkpt><trkpt lat="22.203949" lon="104.398026"><ele>265.2</ele><time>2011-04-27T10:05:41.0000000+00:00</time></trkpt><trkpt lat="22.203987" lon="104.398102"><ele>265.0</ele><time>2011-04-27T10:05:46.0000000+00:00</time></trkpt><trkpt lat="22.204023" lon="104.398178"><ele>265.8</ele><time>2011-04-27T10:05:51.0000000+00:00</time></trkpt><trkpt lat="22.204041" lon="104.398262"><ele>266.4</ele><time>2011-04-27T10:05:56.0000000+00:00</time></trkpt><trkpt lat="22.204063" lon="104.398323"><ele>266.5</ele><time>2011-04-27T10:06:01.0000000+00:00</time></trkpt><trkpt lat="22.204134" lon="104.398392"><ele>267.4</ele><time>2011-04-27T10:06:06.0000000+00:00</time></trkpt><trkpt lat="22.204121" lon="104.398499"><ele>267.9</ele><time>2011-04-27T10:06:11.0000000+00:00</time></trkpt><trkpt lat="22.204124" lon="104.398575"><ele>267.8</ele><time>2011-04-27T10:06:16.0000000+00:00</time></trkpt><trkpt lat="22.20413" lon="104.398682"><ele>267.9</ele><time>2011-04-27T10:06:21.0000000+00:00</time></trkpt><trkpt lat="22.204138" lon="104.398781"><ele>268.7</ele><time>2011-04-27T10:06:26.0000000+00:00</time></trkpt><trkpt lat="22.204174" lon="104.398834"><ele>269.0</ele><time>2011-04-27T10:06:31.0000000+00:00</time></trkpt><trkpt lat="22.204264" lon="104.398903"><ele>270.6</ele><time>2011-04-27T10:06:36.0000000+00:00</time></trkpt><trkpt lat="22.204344" lon="104.398994"><ele>273.6</ele><time>2011-04-27T10:06:41.0000000+00:00</time></trkpt><trkpt lat="22.204409" lon="104.399033"><ele>274.3</ele><time>2011-04-27T10:06:46.0000000+00:00</time></trkpt><trkpt lat="22.204458" lon="104.399071"><ele>275.1</ele><time>2011-04-27T10:06:51.0000000+00:00</time></trkpt><trkpt lat="22.204519" lon="104.399101"><ele>275.1</ele><time>2011-04-27T10:06:56.0000000+00:00</time></trkpt><trkpt lat="22.204584" lon="104.399117"><ele>275.4</ele><time>2011-04-27T10:07:01.0000000+00:00</time></trkpt><trkpt lat="22.204649" lon="104.399162"><ele>275.6</ele><time>2011-04-27T10:07:06.0000000+00:00</time></trkpt><trkpt lat="22.20476" lon="104.3992"><ele>279.6</ele><time>2011-04-27T10:07:11.0000000+00:00</time></trkpt><trkpt lat="22.204796" lon="104.399277"><ele>282.4</ele><time>2011-04-27T10:07:16.0000000+00:00</time></trkpt><trkpt lat="22.204813" lon="104.399368"><ele>283.2</ele><time>2011-04-27T10:07:21.0000000+00:00</time></trkpt><trkpt lat="22.204809" lon="104.399452"><ele>282.3</ele><time>2011-04-27T10:07:26.0000000+00:00</time></trkpt><trkpt lat="22.204805" lon="104.399536"><ele>283.6</ele><time>2011-04-27T10:07:31.0000000+00:00</time></trkpt><trkpt lat="22.204798" lon="104.399635"><ele>284.9</ele><time>2011-04-27T10:07:36.0000000+00:00</time></trkpt><trkpt lat="22.204802" lon="104.399734"><ele>283.7</ele><time>2011-04-27T10:07:41.0000000+00:00</time></trkpt><trkpt lat="22.204817" lon="104.399811"><ele>283.6</ele><time>2011-04-27T10:07:46.0000000+00:00</time></trkpt><trkpt lat="22.204836" lon="104.399902"><ele>283.6</ele><time>2011-04-27T10:07:51.0000000+00:00</time></trkpt><trkpt lat="22.204866" lon="104.399971"><ele>283.9</ele><time>2011-04-27T10:07:56.0000000+00:00</time></trkpt><trkpt lat="22.204872" lon="104.400063"><ele>285.1</ele><time>2011-04-27T10:08:01.0000000+00:00</time></trkpt><trkpt lat="22.204878" lon="104.400162"><ele>283.1</ele><time>2011-04-27T10:08:06.0000000+00:00</time></trkpt><trkpt lat="22.204887" lon="104.400253"><ele>280.7</ele><time>2011-04-27T10:08:11.0000000+00:00</time></trkpt><trkpt lat="22.204889" lon="104.400345"><ele>280.3</ele><time>2011-04-27T10:08:16.0000000+00:00</time></trkpt><trkpt lat="22.204876" lon="104.400452"><ele>280.2</ele><time>2011-04-27T10:08:21.0000000+00:00</time></trkpt><trkpt lat="22.204859" lon="104.400558"><ele>279.7</ele><time>2011-04-27T10:08:26.0000000+00:00</time></trkpt><trkpt lat="22.204851" lon="104.400658"><ele>279.6</ele><time>2011-04-27T10:08:31.0000000+00:00</time></trkpt><trkpt lat="22.204868" lon="104.400719"><ele>278.2</ele><time>2011-04-27T10:08:36.0000000+00:00</time></trkpt><trkpt lat="22.204855" lon="104.400734"><ele>277.3</ele><time>2011-04-27T10:08:41.0000000+00:00</time></trkpt><trkpt lat="22.204853" lon="104.400734"><ele>277.2</ele><time>2011-04-27T10:08:46.0000000+00:00</time></trkpt><trkpt lat="22.204855" lon="104.400734"><ele>277.2</ele><time>2011-04-27T10:08:51.0000000+00:00</time></trkpt><trkpt lat="22.204855" lon="104.400734"><ele>277.2</ele><time>2011-04-27T10:08:56.0000000+00:00</time></trkpt><trkpt lat="22.204855" lon="104.400742"><ele>277.2</ele><time>2011-04-27T10:09:01.0000000+00:00</time></trkpt><trkpt lat="22.204857" lon="104.400742"><ele>277.1</ele><time>2011-04-27T10:09:06.0000000+00:00</time></trkpt><trkpt lat="22.204857" lon="104.400742"><ele>277.1</ele><time>2011-04-27T10:09:11.0000000+00:00</time></trkpt><trkpt lat="22.204857" lon="104.400742"><ele>277.1</ele><time>2011-04-27T10:09:16.0000000+00:00</time></trkpt><trkpt lat="22.204857" lon="104.400742"><ele>277.1</ele><time>2011-04-27T10:09:21.0000000+00:00</time></trkpt><trkpt lat="22.204857" lon="104.400742"><ele>277.0</ele><time>2011-04-27T10:09:26.0000000+00:00</time></trkpt><trkpt lat="22.204857" lon="104.400742"><ele>277.0</ele><time>2011-04-27T10:09:31.0000000+00:00</time></trkpt><trkpt lat="22.204857" lon="104.400742"><ele>277.1</ele><time>2011-04-27T10:09:36.0000000+00:00</time></trkpt><trkpt lat="22.204857" lon="104.400742"><ele>277.1</ele><time>2011-04-27T10:09:41.0000000+00:00</time></trkpt><trkpt lat="22.204857" lon="104.400742"><ele>277.1</ele><time>2011-04-27T10:09:46.0000000+00:00</time></trkpt><trkpt lat="22.204857" lon="104.400742"><ele>277.1</ele><time>2011-04-27T10:09:51.0000000+00:00</time></trkpt><trkpt lat="22.204857" lon="104.400742"><ele>277.2</ele><time>2011-04-27T10:09:56.0000000+00:00</time></trkpt><trkpt lat="22.204859" lon="104.400742"><ele>277.2</ele><time>2011-04-27T10:10:01.0000000+00:00</time></trkpt><trkpt lat="22.204859" lon="104.400742"><ele>277.2</ele><time>2011-04-27T10:10:06.0000000+00:00</time></trkpt><trkpt lat="22.204859" lon="104.400742"><ele>277.2</ele><time>2011-04-27T10:10:11.0000000+00:00</time></trkpt><trkpt lat="22.204859" lon="104.400742"><ele>277.3</ele><time>2011-04-27T10:10:16.0000000+00:00</time></trkpt><trkpt lat="22.204859" lon="104.400742"><ele>277.3</ele><time>2011-04-27T10:10:21.0000000+00:00</time></trkpt><trkpt lat="22.204859" lon="104.400742"><ele>277.3</ele><time>2011-04-27T10:10:26.0000000+00:00</time></trkpt><trkpt lat="22.204859" lon="104.400742"><ele>277.3</ele><time>2011-04-27T10:10:31.0000000+00:00</time></trkpt><trkpt lat="22.204859" lon="104.400742"><ele>277.3</ele><time>2011-04-27T10:10:36.0000000+00:00</time></trkpt><trkpt lat="22.204859" lon="104.400742"><ele>277.3</ele><time>2011-04-27T10:10:41.0000000+00:00</time></trkpt><trkpt lat="22.204859" lon="104.400742"><ele>277.3</ele><time>2011-04-27T10:10:46.0000000+00:00</time></trkpt><trkpt lat="22.204859" lon="104.400742"><ele>277.3</ele><time>2011-04-27T10:10:51.0000000+00:00</time></trkpt><trkpt lat="22.204859" lon="104.400742"><ele>277.3</ele><time>2011-04-27T10:10:56.0000000+00:00</time></trkpt><trkpt lat="22.204859" lon="104.400742"><ele>277.3</ele><time>2011-04-27T10:11:01.0000000+00:00</time></trkpt><trkpt lat="22.204859" lon="104.400742"><ele>277.4</ele><time>2011-04-27T10:11:06.0000000+00:00</time></trkpt><trkpt lat="22.204859" lon="104.400742"><ele>277.4</ele><time>2011-04-27T10:11:11.0000000+00:00</time></trkpt><trkpt lat="22.204859" lon="104.400742"><ele>277.5</ele><time>2011-04-27T10:11:16.0000000+00:00</time></trkpt><trkpt lat="22.204859" lon="104.400742"><ele>277.5</ele><time>2011-04-27T10:11:21.0000000+00:00</time></trkpt><trkpt lat="22.204859" lon="104.400742"><ele>277.5</ele><time>2011-04-27T10:11:26.0000000+00:00</time></trkpt><trkpt lat="22.204859" lon="104.400742"><ele>277.5</ele><time>2011-04-27T10:11:31.0000000+00:00</time></trkpt><trkpt lat="22.204859" lon="104.400742"><ele>277.5</ele><time>2011-04-27T10:11:36.0000000+00:00</time></trkpt><trkpt lat="22.204859" lon="104.400742"><ele>277.5</ele><time>2011-04-27T10:11:41.0000000+00:00</time></trkpt><trkpt lat="22.204859" lon="104.400742"><ele>277.6</ele><time>2011-04-27T10:11:46.0000000+00:00</time></trkpt><trkpt lat="22.204859" lon="104.400742"><ele>277.6</ele><time>2011-04-27T10:11:51.0000000+00:00</time></trkpt><trkpt lat="22.204861" lon="104.400742"><ele>277.6</ele><time>2011-04-27T10:11:56.0000000+00:00</time></trkpt><trkpt lat="22.204859" lon="104.400742"><ele>277.8</ele><time>2011-04-27T10:12:01.0000000+00:00</time></trkpt><trkpt lat="22.204859" lon="104.400742"><ele>277.8</ele><time>2011-04-27T10:12:06.0000000+00:00</time></trkpt><trkpt lat="22.204859" lon="104.400742"><ele>277.8</ele><time>2011-04-27T10:12:11.0000000+00:00</time></trkpt><trkpt lat="22.204859" lon="104.400742"><ele>277.9</ele><time>2011-04-27T10:12:16.0000000+00:00</time></trkpt><trkpt lat="22.204859" lon="104.400742"><ele>277.9</ele><time>2011-04-27T10:12:21.0000000+00:00</time></trkpt><trkpt lat="22.204859" lon="104.400742"><ele>277.9</ele><time>2011-04-27T10:12:26.0000000+00:00</time></trkpt><trkpt lat="22.204859" lon="104.400742"><ele>277.9</ele><time>2011-04-27T10:12:31.0000000+00:00</time></trkpt><trkpt lat="22.204859" lon="104.400742"><ele>277.9</ele><time>2011-04-27T10:12:36.0000000+00:00</time></trkpt><trkpt lat="22.204859" lon="104.400742"><ele>277.9</ele><time>2011-04-27T10:12:41.0000000+00:00</time></trkpt><trkpt lat="22.204859" lon="104.400742"><ele>277.8</ele><time>2011-04-27T10:12:46.0000000+00:00</time></trkpt><trkpt lat="22.204859" lon="104.400742"><ele>277.8</ele><time>2011-04-27T10:12:51.0000000+00:00</time></trkpt><trkpt lat="22.204859" lon="104.400742"><ele>277.8</ele><time>2011-04-27T10:12:56.0000000+00:00</time></trkpt><trkpt lat="22.204859" lon="104.400742"><ele>277.7</ele><time>2011-04-27T10:13:01.0000000+00:00</time></trkpt><trkpt lat="22.204859" lon="104.400742"><ele>277.7</ele><time>2011-04-27T10:13:06.0000000+00:00</time></trkpt><trkpt lat="22.204859" lon="104.400742"><ele>277.7</ele><time>2011-04-27T10:13:11.0000000+00:00</time></trkpt><trkpt lat="22.204859" lon="104.400742"><ele>277.7</ele><time>2011-04-27T10:13:16.0000000+00:00</time></trkpt><trkpt lat="22.204859" lon="104.400742"><ele>277.7</ele><time>2011-04-27T10:13:21.0000000+00:00</time></trkpt><trkpt lat="22.204859" lon="104.400742"><ele>277.6</ele><time>2011-04-27T10:13:26.0000000+00:00</time></trkpt><trkpt lat="22.204859" lon="104.400742"><ele>277.6</ele><time>2011-04-27T10:13:31.0000000+00:00</time></trkpt><trkpt lat="22.204859" lon="104.400742"><ele>277.6</ele><time>2011-04-27T10:13:36.0000000+00:00</time></trkpt><trkpt lat="22.204859" lon="104.400742"><ele>277.6</ele><time>2011-04-27T10:13:41.0000000+00:00</time></trkpt><trkpt lat="22.204859" lon="104.400742"><ele>277.5</ele><time>2011-04-27T10:13:46.0000000+00:00</time></trkpt><trkpt lat="22.204859" lon="104.400742"><ele>277.5</ele><time>2011-04-27T10:13:51.0000000+00:00</time></trkpt><trkpt lat="22.204859" lon="104.400742"><ele>277.5</ele><time>2011-04-27T10:13:56.0000000+00:00</time></trkpt><trkpt lat="22.204859" lon="104.400742"><ele>277.5</ele><time>2011-04-27T10:14:01.0000000+00:00</time></trkpt><trkpt lat="22.204859" lon="104.400742"><ele>277.5</ele><time>2011-04-27T10:14:06.0000000+00:00</time></trkpt><trkpt lat="22.204859" lon="104.400742"><ele>277.5</ele><time>2011-04-27T10:14:11.0000000+00:00</time></trkpt><trkpt lat="22.204859" lon="104.400742"><ele>277.5</ele><time>2011-04-27T10:14:16.0000000+00:00</time></trkpt><trkpt lat="22.204861" lon="104.400742"><ele>277.5</ele><time>2011-04-27T10:14:21.0000000+00:00</time></trkpt><trkpt lat="22.204863" lon="104.400742"><ele>277.4</ele><time>2011-04-27T10:14:26.0000000+00:00</time></trkpt><trkpt lat="22.204863" lon="104.400742"><ele>277.4</ele><time>2011-04-27T10:14:31.0000000+00:00</time></trkpt><trkpt lat="22.204861" lon="104.400749"><ele>277.3</ele><time>2011-04-27T10:14:36.0000000+00:00</time></trkpt><trkpt lat="22.204861" lon="104.400749"><ele>277.3</ele><time>2011-04-27T10:14:41.0000000+00:00</time></trkpt><trkpt lat="22.204861" lon="104.400749"><ele>277.4</ele><time>2011-04-27T10:14:46.0000000+00:00</time></trkpt><trkpt lat="22.204861" lon="104.400749"><ele>277.4</ele><time>2011-04-27T10:14:51.0000000+00:00</time></trkpt><trkpt lat="22.204861" lon="104.400749"><ele>277.4</ele><time>2011-04-27T10:14:56.0000000+00:00</time></trkpt><trkpt lat="22.204861" lon="104.400749"><ele>277.4</ele><time>2011-04-27T10:15:01.0000000+00:00</time></trkpt><trkpt lat="22.204861" lon="104.400749"><ele>277.5</ele><time>2011-04-27T10:15:06.0000000+00:00</time></trkpt><trkpt lat="22.204861" lon="104.400749"><ele>277.5</ele><time>2011-04-27T10:15:11.0000000+00:00</time></trkpt><trkpt lat="22.204861" lon="104.400749"><ele>277.5</ele><time>2011-04-27T10:15:16.0000000+00:00</time></trkpt><trkpt lat="22.204861" lon="104.400749"><ele>277.5</ele><time>2011-04-27T10:15:21.0000000+00:00</time></trkpt><trkpt lat="22.204861" lon="104.400749"><ele>277.5</ele><time>2011-04-27T10:15:26.0000000+00:00</time></trkpt><trkpt lat="22.204859" lon="104.400749"><ele>277.5</ele><time>2011-04-27T10:15:31.0000000+00:00</time></trkpt><trkpt lat="22.204859" lon="104.400749"><ele>277.5</ele><time>2011-04-27T10:15:36.0000000+00:00</time></trkpt><trkpt lat="22.204859" lon="104.400749"><ele>277.5</ele><time>2011-04-27T10:15:41.0000000+00:00</time></trkpt><trkpt lat="22.204857" lon="104.400749"><ele>277.6</ele><time>2011-04-27T10:15:46.0000000+00:00</time></trkpt><trkpt lat="22.204857" lon="104.400742"><ele>277.6</ele><time>2011-04-27T10:15:51.0000000+00:00</time></trkpt><trkpt lat="22.204857" lon="104.400742"><ele>277.6</ele><time>2011-04-27T10:15:56.0000000+00:00</time></trkpt><trkpt lat="22.204857" lon="104.400742"><ele>277.7</ele><time>2011-04-27T10:16:01.0000000+00:00</time></trkpt><trkpt lat="22.204857" lon="104.400742"><ele>277.7</ele><time>2011-04-27T10:16:06.0000000+00:00</time></trkpt><trkpt lat="22.204865" lon="104.400764"><ele>277.9</ele><time>2011-04-27T10:16:11.0000000+00:00</time></trkpt><trkpt lat="22.204878" lon="104.400803"><ele>278.3</ele><time>2011-04-27T10:16:16.0000000+00:00</time></trkpt><trkpt lat="22.204882" lon="104.400818"><ele>278.6</ele><time>2011-04-27T10:16:21.0000000+00:00</time></trkpt><trkpt lat="22.204882" lon="104.400818"><ele>278.7</ele><time>2011-04-27T10:16:26.0000000+00:00</time></trkpt><trkpt lat="22.204884" lon="104.400818"><ele>278.7</ele><time>2011-04-27T10:16:31.0000000+00:00</time></trkpt><trkpt lat="22.204885" lon="104.400818"><ele>278.8</ele><time>2011-04-27T10:16:36.0000000+00:00</time></trkpt><trkpt lat="22.204885" lon="104.400818"><ele>278.8</ele><time>2011-04-27T10:16:41.0000000+00:00</time></trkpt><trkpt lat="22.204884" lon="104.400818"><ele>278.8</ele><time>2011-04-27T10:16:46.0000000+00:00</time></trkpt><trkpt lat="22.204885" lon="104.400818"><ele>278.8</ele><time>2011-04-27T10:16:51.0000000+00:00</time></trkpt><trkpt lat="22.204885" lon="104.400818"><ele>278.7</ele><time>2011-04-27T10:16:56.0000000+00:00</time></trkpt><trkpt lat="22.204885" lon="104.400818"><ele>278.7</ele><time>2011-04-27T10:17:01.0000000+00:00</time></trkpt><trkpt lat="22.204885" lon="104.400818"><ele>278.7</ele><time>2011-04-27T10:17:06.0000000+00:00</time></trkpt><trkpt lat="22.204885" lon="104.400818"><ele>278.7</ele><time>2011-04-27T10:17:11.0000000+00:00</time></trkpt><trkpt lat="22.204884" lon="104.400818"><ele>278.7</ele><time>2011-04-27T10:17:16.0000000+00:00</time></trkpt><trkpt lat="22.204884" lon="104.400818"><ele>278.6</ele><time>2011-04-27T10:17:21.0000000+00:00</time></trkpt><trkpt lat="22.204884" lon="104.400818"><ele>278.6</ele><time>2011-04-27T10:17:26.0000000+00:00</time></trkpt><trkpt lat="22.204884" lon="104.400818"><ele>278.6</ele><time>2011-04-27T10:17:31.0000000+00:00</time></trkpt><trkpt lat="22.204882" lon="104.400818"><ele>278.6</ele><time>2011-04-27T10:17:36.0000000+00:00</time></trkpt><trkpt lat="22.204882" lon="104.400818"><ele>278.6</ele><time>2011-04-27T10:17:41.0000000+00:00</time></trkpt><trkpt lat="22.204884" lon="104.400818"><ele>278.7</ele><time>2011-04-27T10:17:46.0000000+00:00</time></trkpt><trkpt lat="22.204885" lon="104.400818"><ele>278.7</ele><time>2011-04-27T10:17:51.0000000+00:00</time></trkpt><trkpt lat="22.204885" lon="104.400818"><ele>278.7</ele><time>2011-04-27T10:17:56.0000000+00:00</time></trkpt><trkpt lat="22.204885" lon="104.400818"><ele>278.7</ele><time>2011-04-27T10:18:01.0000000+00:00</time></trkpt><trkpt lat="22.204884" lon="104.400818"><ele>278.7</ele><time>2011-04-27T10:18:06.0000000+00:00</time></trkpt><trkpt lat="22.204882" lon="104.400818"><ele>278.7</ele><time>2011-04-27T10:18:11.0000000+00:00</time></trkpt><trkpt lat="22.204884" lon="104.400818"><ele>278.7</ele><time>2011-04-27T10:18:16.0000000+00:00</time></trkpt><trkpt lat="22.204884" lon="104.400818"><ele>278.7</ele><time>2011-04-27T10:18:21.0000000+00:00</time></trkpt><trkpt lat="22.204884" lon="104.400818"><ele>278.7</ele><time>2011-04-27T10:18:26.0000000+00:00</time></trkpt><trkpt lat="22.204884" lon="104.400818"><ele>278.6</ele><time>2011-04-27T10:18:31.0000000+00:00</time></trkpt><trkpt lat="22.204884" lon="104.400818"><ele>278.6</ele><time>2011-04-27T10:18:36.0000000+00:00</time></trkpt><trkpt lat="22.204884" lon="104.400818"><ele>278.6</ele><time>2011-04-27T10:18:41.0000000+00:00</time></trkpt><trkpt lat="22.204885" lon="104.400818"><ele>278.6</ele><time>2011-04-27T10:18:46.0000000+00:00</time></trkpt><trkpt lat="22.204885" lon="104.400826"><ele>278.6</ele><time>2011-04-27T10:18:51.0000000+00:00</time></trkpt><trkpt lat="22.204884" lon="104.400818"><ele>278.6</ele><time>2011-04-27T10:18:56.0000000+00:00</time></trkpt><trkpt lat="22.204882" lon="104.400826"><ele>278.6</ele><time>2011-04-27T10:19:01.0000000+00:00</time></trkpt><trkpt lat="22.204882" lon="104.400826"><ele>278.5</ele><time>2011-04-27T10:19:06.0000000+00:00</time></trkpt><trkpt lat="22.204878" lon="104.400826"><ele>278.5</ele><time>2011-04-27T10:19:11.0000000+00:00</time></trkpt><trkpt lat="22.204874" lon="104.400818"><ele>278.5</ele><time>2011-04-27T10:19:16.0000000+00:00</time></trkpt><trkpt lat="22.204868" lon="104.400818"><ele>278.5</ele><time>2011-04-27T10:19:21.0000000+00:00</time></trkpt><trkpt lat="22.20487" lon="104.400818"><ele>278.4</ele><time>2011-04-27T10:19:26.0000000+00:00</time></trkpt><trkpt lat="22.204868" lon="104.400818"><ele>278.4</ele><time>2011-04-27T10:19:31.0000000+00:00</time></trkpt><trkpt lat="22.204868" lon="104.400818"><ele>278.4</ele><time>2011-04-27T10:19:36.0000000+00:00</time></trkpt><trkpt lat="22.204868" lon="104.400818"><ele>278.4</ele><time>2011-04-27T10:19:41.0000000+00:00</time></trkpt><trkpt lat="22.204868" lon="104.400818"><ele>278.3</ele><time>2011-04-27T10:19:46.0000000+00:00</time></trkpt><trkpt lat="22.204868" lon="104.400818"><ele>278.3</ele><time>2011-04-27T10:19:51.0000000+00:00</time></trkpt><trkpt lat="22.20487" lon="104.400818"><ele>278.3</ele><time>2011-04-27T10:19:56.0000000+00:00</time></trkpt><trkpt lat="22.20487" lon="104.400818"><ele>278.3</ele><time>2011-04-27T10:20:01.0000000+00:00</time></trkpt><trkpt lat="22.20487" lon="104.400818"><ele>278.3</ele><time>2011-04-27T10:20:06.0000000+00:00</time></trkpt><trkpt lat="22.204868" lon="104.400818"><ele>278.3</ele><time>2011-04-27T10:20:11.0000000+00:00</time></trkpt><trkpt lat="22.20487" lon="104.400818"><ele>278.3</ele><time>2011-04-27T10:20:16.0000000+00:00</time></trkpt><trkpt lat="22.204868" lon="104.400818"><ele>278.3</ele><time>2011-04-27T10:20:21.0000000+00:00</time></trkpt><trkpt lat="22.204866" lon="104.400818"><ele>278.3</ele><time>2011-04-27T10:20:26.0000000+00:00</time></trkpt><trkpt lat="22.204865" lon="104.400818"><ele>278.3</ele><time>2011-04-27T10:20:31.0000000+00:00</time></trkpt><trkpt lat="22.204863" lon="104.400818"><ele>278.2</ele><time>2011-04-27T10:20:36.0000000+00:00</time></trkpt><trkpt lat="22.204861" lon="104.400818"><ele>278.3</ele><time>2011-04-27T10:20:41.0000000+00:00</time></trkpt><trkpt lat="22.204861" lon="104.400818"><ele>278.3</ele><time>2011-04-27T10:20:46.0000000+00:00</time></trkpt><trkpt lat="22.204865" lon="104.400818"><ele>278.3</ele><time>2011-04-27T10:20:51.0000000+00:00</time></trkpt><trkpt lat="22.204876" lon="104.400818"><ele>278.2</ele><time>2011-04-27T10:20:56.0000000+00:00</time></trkpt><trkpt lat="22.204914" lon="104.400841"><ele>277.5</ele><time>2011-04-27T10:21:01.0000000+00:00</time></trkpt><trkpt lat="22.204924" lon="104.400833"><ele>278.5</ele><time>2011-04-27T10:21:06.0000000+00:00</time></trkpt><trkpt lat="22.204931" lon="104.400826"><ele>278.9</ele><time>2011-04-27T10:21:11.0000000+00:00</time></trkpt><trkpt lat="22.204941" lon="104.400833"><ele>279.0</ele><time>2011-04-27T10:21:16.0000000+00:00</time></trkpt><trkpt lat="22.205019" lon="104.400887"><ele>279.4</ele><time>2011-04-27T10:21:21.0000000+00:00</time></trkpt><trkpt lat="22.205099" lon="104.400978"><ele>279.9</ele><time>2011-04-27T10:21:26.0000000+00:00</time></trkpt><trkpt lat="22.205221" lon="104.401085"><ele>280.6</ele><time>2011-04-27T10:21:31.0000000+00:00</time></trkpt><trkpt lat="22.20533" lon="104.401184"><ele>282.0</ele><time>2011-04-27T10:21:36.0000000+00:00</time></trkpt><trkpt lat="22.20545" lon="104.401253"><ele>284.3</ele><time>2011-04-27T10:21:41.0000000+00:00</time></trkpt><trkpt lat="22.205564" lon="104.401321"><ele>286.0</ele><time>2011-04-27T10:21:46.0000000+00:00</time></trkpt><trkpt lat="22.205616" lon="104.401451"><ele>284.1</ele><time>2011-04-27T10:21:51.0000000+00:00</time></trkpt><trkpt lat="22.205622" lon="104.40155"><ele>286.0</ele><time>2011-04-27T10:21:56.0000000+00:00</time></trkpt><trkpt lat="22.205568" lon="104.401634"><ele>288.8</ele><time>2011-04-27T10:22:01.0000000+00:00</time></trkpt><trkpt lat="22.2055" lon="104.401718"><ele>289.4</ele><time>2011-04-27T10:22:06.0000000+00:00</time></trkpt><trkpt lat="22.205444" lon="104.401855"><ele>288.6</ele><time>2011-04-27T10:22:11.0000000+00:00</time></trkpt><trkpt lat="22.205437" lon="104.402016"><ele>289.8</ele><time>2011-04-27T10:22:16.0000000+00:00</time></trkpt><trkpt lat="22.205446" lon="104.402168"><ele>290.2</ele><time>2011-04-27T10:22:21.0000000+00:00</time></trkpt><trkpt lat="22.205378" lon="104.402306"><ele>291.0</ele><time>2011-04-27T10:22:26.0000000+00:00</time></trkpt><trkpt lat="22.205267" lon="104.402412"><ele>293.4</ele><time>2011-04-27T10:22:31.0000000+00:00</time></trkpt><trkpt lat="22.205116" lon="104.40255"><ele>294.4</ele><time>2011-04-27T10:22:36.0000000+00:00</time></trkpt><trkpt lat="22.204983" lon="104.40271"><ele>291.3</ele><time>2011-04-27T10:22:41.0000000+00:00</time></trkpt><trkpt lat="22.204884" lon="104.402885"><ele>288.7</ele><time>2011-04-27T10:22:46.0000000+00:00</time></trkpt><trkpt lat="22.204859" lon="104.403076"><ele>290.0</ele><time>2011-04-27T10:22:51.0000000+00:00</time></trkpt><trkpt lat="22.204851" lon="104.403267"><ele>288.3</ele><time>2011-04-27T10:22:56.0000000+00:00</time></trkpt><trkpt lat="22.204838" lon="104.403473"><ele>286.3</ele><time>2011-04-27T10:23:01.0000000+00:00</time></trkpt><trkpt lat="22.204807" lon="104.403709"><ele>282.9</ele><time>2011-04-27T10:23:06.0000000+00:00</time></trkpt><trkpt lat="22.204821" lon="104.403938"><ele>283.7</ele><time>2011-04-27T10:23:11.0000000+00:00</time></trkpt><trkpt lat="22.204971" lon="104.404015"><ele>282.4</ele><time>2011-04-27T10:23:16.0000000+00:00</time></trkpt><trkpt lat="22.205103" lon="104.403976"><ele>283.3</ele><time>2011-04-27T10:23:21.0000000+00:00</time></trkpt><trkpt lat="22.205221" lon="104.403923"><ele>286.6</ele><time>2011-04-27T10:23:26.0000000+00:00</time></trkpt><trkpt lat="22.205301" lon="104.403908"><ele>288.3</ele><time>2011-04-27T10:23:31.0000000+00:00</time></trkpt><trkpt lat="22.205402" lon="104.4039"><ele>287.7</ele><time>2011-04-27T10:23:36.0000000+00:00</time></trkpt><trkpt lat="22.205479" lon="104.403931"><ele>287.6</ele><time>2011-04-27T10:23:41.0000000+00:00</time></trkpt><trkpt lat="22.205561" lon="104.403969"><ele>288.8</ele><time>2011-04-27T10:23:46.0000000+00:00</time></trkpt><trkpt lat="22.205618" lon="104.403999"><ele>288.9</ele><time>2011-04-27T10:23:51.0000000+00:00</time></trkpt><trkpt lat="22.205692" lon="104.40406"><ele>288.9</ele><time>2011-04-27T10:23:56.0000000+00:00</time></trkpt><trkpt lat="22.205736" lon="104.404129"><ele>288.9</ele><time>2011-04-27T10:24:01.0000000+00:00</time></trkpt><trkpt lat="22.205791" lon="104.404228"><ele>290.1</ele><time>2011-04-27T10:24:06.0000000+00:00</time></trkpt><trkpt lat="22.205826" lon="104.404335"><ele>290.6</ele><time>2011-04-27T10:24:11.0000000+00:00</time></trkpt><trkpt lat="22.205843" lon="104.404472"><ele>292.2</ele><time>2011-04-27T10:24:16.0000000+00:00</time></trkpt><trkpt lat="22.205832" lon="104.404594"><ele>293.5</ele><time>2011-04-27T10:24:21.0000000+00:00</time></trkpt><trkpt lat="22.205822" lon="104.404716"><ele>292.7</ele><time>2011-04-27T10:24:26.0000000+00:00</time></trkpt><trkpt lat="22.205809" lon="104.404846"><ele>292.2</ele><time>2011-04-27T10:24:31.0000000+00:00</time></trkpt><trkpt lat="22.205805" lon="104.404976"><ele>294.0</ele><time>2011-04-27T10:24:36.0000000+00:00</time></trkpt><trkpt lat="22.205824" lon="104.405098"><ele>295.9</ele><time>2011-04-27T10:24:41.0000000+00:00</time></trkpt><trkpt lat="22.205906" lon="104.405167"><ele>296.6</ele><time>2011-04-27T10:24:46.0000000+00:00</time></trkpt><trkpt lat="22.205996" lon="104.405212"><ele>297.0</ele><time>2011-04-27T10:24:51.0000000+00:00</time></trkpt><trkpt lat="22.206047" lon="104.405251"><ele>297.3</ele><time>2011-04-27T10:24:56.0000000+00:00</time></trkpt><trkpt lat="22.20612" lon="104.405304"><ele>297.3</ele><time>2011-04-27T10:25:01.0000000+00:00</time></trkpt><trkpt lat="22.206188" lon="104.405373"><ele>298.0</ele><time>2011-04-27T10:25:06.0000000+00:00</time></trkpt><trkpt lat="22.206228" lon="104.405457"><ele>299.3</ele><time>2011-04-27T10:25:11.0000000+00:00</time></trkpt><trkpt lat="22.206242" lon="104.405556"><ele>300.0</ele><time>2011-04-27T10:25:16.0000000+00:00</time></trkpt><trkpt lat="22.20624" lon="104.405632"><ele>299.5</ele><time>2011-04-27T10:25:21.0000000+00:00</time></trkpt><trkpt lat="22.206249" lon="104.405724"><ele>299.7</ele><time>2011-04-27T10:25:26.0000000+00:00</time></trkpt><trkpt lat="22.206259" lon="104.40583"><ele>299.1</ele><time>2011-04-27T10:25:31.0000000+00:00</time></trkpt><trkpt lat="22.206255" lon="104.405899"><ele>298.4</ele><time>2011-04-27T10:25:36.0000000+00:00</time></trkpt><trkpt lat="22.206261" lon="104.405968"><ele>298.6</ele><time>2011-04-27T10:25:41.0000000+00:00</time></trkpt><trkpt lat="22.206278" lon="104.406036"><ele>299.3</ele><time>2011-04-27T10:25:46.0000000+00:00</time></trkpt><trkpt lat="22.206274" lon="104.406097"><ele>300.1</ele><time>2011-04-27T10:25:51.0000000+00:00</time></trkpt><trkpt lat="22.206301" lon="104.406151"><ele>300.8</ele><time>2011-04-27T10:25:56.0000000+00:00</time></trkpt><trkpt lat="22.206335" lon="104.406212"><ele>302.9</ele><time>2011-04-27T10:26:01.0000000+00:00</time></trkpt><trkpt lat="22.206385" lon="104.406242"><ele>303.1</ele><time>2011-04-27T10:26:06.0000000+00:00</time></trkpt><trkpt lat="22.206434" lon="104.406265"><ele>303.0</ele><time>2011-04-27T10:26:11.0000000+00:00</time></trkpt><trkpt lat="22.206497" lon="104.406288"><ele>304.5</ele><time>2011-04-27T10:26:16.0000000+00:00</time></trkpt><trkpt lat="22.206554" lon="104.406288"><ele>303.5</ele><time>2011-04-27T10:26:21.0000000+00:00</time></trkpt><trkpt lat="22.206619" lon="104.406319"><ele>303.9</ele><time>2011-04-27T10:26:26.0000000+00:00</time></trkpt><trkpt lat="22.206703" lon="104.406326"><ele>305.4</ele><time>2011-04-27T10:26:31.0000000+00:00</time></trkpt><trkpt lat="22.206789" lon="104.406349"><ele>307.0</ele><time>2011-04-27T10:26:36.0000000+00:00</time></trkpt><trkpt lat="22.206879" lon="104.406342"><ele>308.1</ele><time>2011-04-27T10:26:41.0000000+00:00</time></trkpt><trkpt lat="22.20697" lon="104.406349"><ele>306.4</ele><time>2011-04-27T10:26:46.0000000+00:00</time></trkpt><trkpt lat="22.20706" lon="104.406395"><ele>306.0</ele><time>2011-04-27T10:26:51.0000000+00:00</time></trkpt><trkpt lat="22.207157" lon="104.406433"><ele>304.2</ele><time>2011-04-27T10:26:56.0000000+00:00</time></trkpt><trkpt lat="22.207239" lon="104.406448"><ele>303.8</ele><time>2011-04-27T10:27:01.0000000+00:00</time></trkpt><trkpt lat="22.207338" lon="104.406448"><ele>305.3</ele><time>2011-04-27T10:27:06.0000000+00:00</time></trkpt><trkpt lat="22.20742" lon="104.406464"><ele>302.7</ele><time>2011-04-27T10:27:11.0000000+00:00</time></trkpt><trkpt lat="22.207499" lon="104.406494"><ele>306.0</ele><time>2011-04-27T10:27:16.0000000+00:00</time></trkpt><trkpt lat="22.207579" lon="104.406509"><ele>311.2</ele><time>2011-04-27T10:27:21.0000000+00:00</time></trkpt><trkpt lat="22.207636" lon="104.406548"><ele>316.1</ele><time>2011-04-27T10:27:26.0000000+00:00</time></trkpt><trkpt lat="22.207678" lon="104.406631"><ele>317.9</ele><time>2011-04-27T10:27:31.0000000+00:00</time></trkpt><trkpt lat="22.207708" lon="104.406708"><ele>321.1</ele><time>2011-04-27T10:27:36.0000000+00:00</time></trkpt><trkpt lat="22.207747" lon="104.406776"><ele>322.7</ele><time>2011-04-27T10:27:41.0000000+00:00</time></trkpt><trkpt lat="22.207787" lon="104.406883"><ele>324.5</ele><time>2011-04-27T10:27:46.0000000+00:00</time></trkpt><trkpt lat="22.207817" lon="104.406952"><ele>325.9</ele><time>2011-04-27T10:27:51.0000000+00:00</time></trkpt><trkpt lat="22.207878" lon="104.407043"><ele>325.5</ele><time>2011-04-27T10:27:56.0000000+00:00</time></trkpt><trkpt lat="22.207918" lon="104.40712"><ele>325.8</ele><time>2011-04-27T10:28:01.0000000+00:00</time></trkpt><trkpt lat="22.207973" lon="104.407196"><ele>325.2</ele><time>2011-04-27T10:28:06.0000000+00:00</time></trkpt><trkpt lat="22.208008" lon="104.40728"><ele>325.3</ele><time>2011-04-27T10:28:11.0000000+00:00</time></trkpt><trkpt lat="22.208023" lon="104.407379"><ele>325.5</ele><time>2011-04-27T10:28:16.0000000+00:00</time></trkpt><trkpt lat="22.208019" lon="104.407486"><ele>326.7</ele><time>2011-04-27T10:28:21.0000000+00:00</time></trkpt><trkpt lat="22.208025" lon="104.407608"><ele>327.8</ele><time>2011-04-27T10:28:26.0000000+00:00</time></trkpt><trkpt lat="22.208027" lon="104.407707"><ele>328.6</ele><time>2011-04-27T10:28:31.0000000+00:00</time></trkpt><trkpt lat="22.208027" lon="104.407784"><ele>329.1</ele><time>2011-04-27T10:28:36.0000000+00:00</time></trkpt><trkpt lat="22.208033" lon="104.407852"><ele>331.3</ele><time>2011-04-27T10:28:41.0000000+00:00</time></trkpt><trkpt lat="22.208071" lon="104.407921"><ele>332.9</ele><time>2011-04-27T10:28:46.0000000+00:00</time></trkpt><trkpt lat="22.208099" lon="104.407997"><ele>333.4</ele><time>2011-04-27T10:28:51.0000000+00:00</time></trkpt><trkpt lat="22.208124" lon="104.408073"><ele>334.3</ele><time>2011-04-27T10:28:56.0000000+00:00</time></trkpt><trkpt lat="22.20816" lon="104.408142"><ele>335.0</ele><time>2011-04-27T10:29:01.0000000+00:00</time></trkpt><trkpt lat="22.208204" lon="104.408226"><ele>334.5</ele><time>2011-04-27T10:29:06.0000000+00:00</time></trkpt><trkpt lat="22.208256" lon="104.408287"><ele>336.2</ele><time>2011-04-27T10:29:11.0000000+00:00</time></trkpt><trkpt lat="22.208305" lon="104.408356"><ele>337.6</ele><time>2011-04-27T10:29:16.0000000+00:00</time></trkpt><trkpt lat="22.208361" lon="104.40844"><ele>340.4</ele><time>2011-04-27T10:29:21.0000000+00:00</time></trkpt><trkpt lat="22.208382" lon="104.408501"><ele>342.4</ele><time>2011-04-27T10:29:26.0000000+00:00</time></trkpt><trkpt lat="22.208405" lon="104.408546"><ele>343.8</ele><time>2011-04-27T10:29:31.0000000+00:00</time></trkpt><trkpt lat="22.208448" lon="104.408615"><ele>345.3</ele><time>2011-04-27T10:29:36.0000000+00:00</time></trkpt><trkpt lat="22.208473" lon="104.408684"><ele>348.7</ele><time>2011-04-27T10:29:41.0000000+00:00</time></trkpt><trkpt lat="22.208506" lon="104.40876"><ele>350.3</ele><time>2011-04-27T10:29:46.0000000+00:00</time></trkpt><trkpt lat="22.208506" lon="104.408768"><ele>349.9</ele><time>2011-04-27T10:29:51.0000000+00:00</time></trkpt><trkpt lat="22.208506" lon="104.408775"><ele>349.5</ele><time>2011-04-27T10:29:56.0000000+00:00</time></trkpt><trkpt lat="22.208521" lon="104.408791"><ele>348.8</ele><time>2011-04-27T10:30:01.0000000+00:00</time></trkpt><trkpt lat="22.208513" lon="104.408821"><ele>347.5</ele><time>2011-04-27T10:30:06.0000000+00:00</time></trkpt><trkpt lat="22.208515" lon="104.408852"><ele>347.4</ele><time>2011-04-27T10:30:11.0000000+00:00</time></trkpt><trkpt lat="22.208513" lon="104.40892"><ele>347.2</ele><time>2011-04-27T10:30:16.0000000+00:00</time></trkpt><trkpt lat="22.208492" lon="104.408989"><ele>347.3</ele><time>2011-04-27T10:30:21.0000000+00:00</time></trkpt><trkpt lat="22.208469" lon="104.409058"><ele>348.1</ele><time>2011-04-27T10:30:26.0000000+00:00</time></trkpt><trkpt lat="22.208448" lon="104.409142"><ele>348.6</ele><time>2011-04-27T10:30:31.0000000+00:00</time></trkpt><trkpt lat="22.208418" lon="104.409218"><ele>349.4</ele><time>2011-04-27T10:30:36.0000000+00:00</time></trkpt><trkpt lat="22.208399" lon="104.409302"><ele>350.1</ele><time>2011-04-27T10:30:41.0000000+00:00</time></trkpt><trkpt lat="22.208384" lon="104.409378"><ele>351.3</ele><time>2011-04-27T10:30:46.0000000+00:00</time></trkpt><trkpt lat="22.208363" lon="104.409462"><ele>352.3</ele><time>2011-04-27T10:30:51.0000000+00:00</time></trkpt><trkpt lat="22.208351" lon="104.409546"><ele>352.6</ele><time>2011-04-27T10:30:56.0000000+00:00</time></trkpt><trkpt lat="22.208338" lon="104.409599"><ele>353.4</ele><time>2011-04-27T10:31:01.0000000+00:00</time></trkpt><trkpt lat="22.208324" lon="104.409706"><ele>353.9</ele><time>2011-04-27T10:31:06.0000000+00:00</time></trkpt><trkpt lat="22.208332" lon="104.409782"><ele>354.7</ele><time>2011-04-27T10:31:11.0000000+00:00</time></trkpt><trkpt lat="22.208319" lon="104.409836"><ele>355.4</ele><time>2011-04-27T10:31:16.0000000+00:00</time></trkpt><trkpt lat="22.208277" lon="104.409897"><ele>356.3</ele><time>2011-04-27T10:31:21.0000000+00:00</time></trkpt><trkpt lat="22.208227" lon="104.40995"><ele>356.7</ele><time>2011-04-27T10:31:26.0000000+00:00</time></trkpt><trkpt lat="22.208166" lon="104.410019"><ele>358.4</ele><time>2011-04-27T10:31:31.0000000+00:00</time></trkpt><trkpt lat="22.208097" lon="104.410065"><ele>359.4</ele><time>2011-04-27T10:31:36.0000000+00:00</time></trkpt><trkpt lat="22.208023" lon="104.410118"><ele>360.7</ele><time>2011-04-27T10:31:41.0000000+00:00</time></trkpt><trkpt lat="22.207966" lon="104.410194"><ele>362.3</ele><time>2011-04-27T10:31:46.0000000+00:00</time></trkpt><trkpt lat="22.207922" lon="104.410255"><ele>365.2</ele><time>2011-04-27T10:31:51.0000000+00:00</time></trkpt><trkpt lat="22.207893" lon="104.410301"><ele>368.5</ele><time>2011-04-27T10:31:56.0000000+00:00</time></trkpt><trkpt lat="22.207895" lon="104.410378"><ele>371.1</ele><time>2011-04-27T10:32:01.0000000+00:00</time></trkpt><trkpt lat="22.207874" lon="104.410439"><ele>373.2</ele><time>2011-04-27T10:32:06.0000000+00:00</time></trkpt><trkpt lat="22.207844" lon="104.410522"><ele>375.1</ele><time>2011-04-27T10:32:11.0000000+00:00</time></trkpt><trkpt lat="22.207838" lon="104.410637"><ele>377.1</ele><time>2011-04-27T10:32:16.0000000+00:00</time></trkpt><trkpt lat="22.207832" lon="104.410721"><ele>378.3</ele><time>2011-04-27T10:32:21.0000000+00:00</time></trkpt><trkpt lat="22.207823" lon="104.410797"><ele>380.2</ele><time>2011-04-27T10:32:26.0000000+00:00</time></trkpt><trkpt lat="22.207817" lon="104.410904"><ele>383.7</ele><time>2011-04-27T10:32:31.0000000+00:00</time></trkpt><trkpt lat="22.207804" lon="104.410973"><ele>385.7</ele><time>2011-04-27T10:32:36.0000000+00:00</time></trkpt><trkpt lat="22.207796" lon="104.411049"><ele>387.8</ele><time>2011-04-27T10:32:41.0000000+00:00</time></trkpt><trkpt lat="22.207787" lon="104.411095"><ele>389.4</ele><time>2011-04-27T10:32:46.0000000+00:00</time></trkpt><trkpt lat="22.207827" lon="104.411118"><ele>391.3</ele><time>2011-04-27T10:32:51.0000000+00:00</time></trkpt><trkpt lat="22.207811" lon="104.41111"><ele>391.4</ele><time>2011-04-27T10:32:56.0000000+00:00</time></trkpt><trkpt lat="22.207809" lon="104.41111"><ele>391.5</ele><time>2011-04-27T10:33:01.0000000+00:00</time></trkpt><trkpt lat="22.207809" lon="104.41111"><ele>391.4</ele><time>2011-04-27T10:33:06.0000000+00:00</time></trkpt><trkpt lat="22.207808" lon="104.41111"><ele>391.2</ele><time>2011-04-27T10:33:11.0000000+00:00</time></trkpt><trkpt lat="22.207808" lon="104.41111"><ele>391.2</ele><time>2011-04-27T10:33:16.0000000+00:00</time></trkpt><trkpt lat="22.207808" lon="104.41111"><ele>391.2</ele><time>2011-04-27T10:33:21.0000000+00:00</time></trkpt><trkpt lat="22.207808" lon="104.41111"><ele>391.2</ele><time>2011-04-27T10:33:26.0000000+00:00</time></trkpt><trkpt lat="22.207806" lon="104.41111"><ele>391.2</ele><time>2011-04-27T10:33:31.0000000+00:00</time></trkpt><trkpt lat="22.207806" lon="104.41111"><ele>391.2</ele><time>2011-04-27T10:33:36.0000000+00:00</time></trkpt><trkpt lat="22.207806" lon="104.41111"><ele>391.2</ele><time>2011-04-27T10:33:41.0000000+00:00</time></trkpt><trkpt lat="22.207804" lon="104.41111"><ele>391.2</ele><time>2011-04-27T10:33:46.0000000+00:00</time></trkpt><trkpt lat="22.207804" lon="104.41111"><ele>391.2</ele><time>2011-04-27T10:33:51.0000000+00:00</time></trkpt><trkpt lat="22.207804" lon="104.41111"><ele>391.1</ele><time>2011-04-27T10:33:56.0000000+00:00</time></trkpt><trkpt lat="22.207804" lon="104.41111"><ele>391.1</ele><time>2011-04-27T10:34:01.0000000+00:00</time></trkpt><trkpt lat="22.207804" lon="104.41111"><ele>391.1</ele><time>2011-04-27T10:34:06.0000000+00:00</time></trkpt><trkpt lat="22.207808" lon="104.411118"><ele>391.1</ele><time>2011-04-27T10:34:11.0000000+00:00</time></trkpt><trkpt lat="22.207888" lon="104.411133"><ele>390.1</ele><time>2011-04-27T10:34:16.0000000+00:00</time></trkpt><trkpt lat="22.207962" lon="104.411133"><ele>388.9</ele><time>2011-04-27T10:34:21.0000000+00:00</time></trkpt><trkpt lat="22.208038" lon="104.411087"><ele>387.4</ele><time>2011-04-27T10:34:26.0000000+00:00</time></trkpt><trkpt lat="22.208103" lon="104.411041"><ele>385.8</ele><time>2011-04-27T10:34:31.0000000+00:00</time></trkpt><trkpt lat="22.20816" lon="104.410995"><ele>384.1</ele><time>2011-04-27T10:34:36.0000000+00:00</time></trkpt><trkpt lat="22.20822" lon="104.41095"><ele>382.8</ele><time>2011-04-27T10:34:41.0000000+00:00</time></trkpt><trkpt lat="22.208279" lon="104.410927"><ele>381.8</ele><time>2011-04-27T10:34:46.0000000+00:00</time></trkpt><trkpt lat="22.208334" lon="104.410889"><ele>380.1</ele><time>2011-04-27T10:34:51.0000000+00:00</time></trkpt><trkpt lat="22.208401" lon="104.410851"><ele>379.4</ele><time>2011-04-27T10:34:56.0000000+00:00</time></trkpt><trkpt lat="22.208467" lon="104.41082"><ele>377.9</ele><time>2011-04-27T10:35:01.0000000+00:00</time></trkpt><trkpt lat="22.208538" lon="104.410797"><ele>377.1</ele><time>2011-04-27T10:35:06.0000000+00:00</time></trkpt><trkpt lat="22.208607" lon="104.410782"><ele>376.4</ele><time>2011-04-27T10:35:11.0000000+00:00</time></trkpt><trkpt lat="22.20867" lon="104.410744"><ele>373.6</ele><time>2011-04-27T10:35:16.0000000+00:00</time></trkpt><trkpt lat="22.208736" lon="104.410721"><ele>373.4</ele><time>2011-04-27T10:35:21.0000000+00:00</time></trkpt><trkpt lat="22.208801" lon="104.410683"><ele>373.1</ele><time>2011-04-27T10:35:26.0000000+00:00</time></trkpt><trkpt lat="22.208874" lon="104.41066"><ele>372.7</ele><time>2011-04-27T10:35:31.0000000+00:00</time></trkpt><trkpt lat="22.208952" lon="104.410614"><ele>372.3</ele><time>2011-04-27T10:35:36.0000000+00:00</time></trkpt><trkpt lat="22.209045" lon="104.410591"><ele>372.1</ele><time>2011-04-27T10:35:41.0000000+00:00</time></trkpt><trkpt lat="22.20912" lon="104.410568"><ele>372.8</ele><time>2011-04-27T10:35:46.0000000+00:00</time></trkpt><trkpt lat="22.209179" lon="104.410545"><ele>379.0</ele><time>2011-04-27T10:35:51.0000000+00:00</time></trkpt><trkpt lat="22.209244" lon="104.410576"><ele>381.5</ele><time>2011-04-27T10:35:56.0000000+00:00</time></trkpt><trkpt lat="22.209293" lon="104.410622"><ele>385.5</ele><time>2011-04-27T10:36:01.0000000+00:00</time></trkpt><trkpt lat="22.20936" lon="104.410667"><ele>386.9</ele><time>2011-04-27T10:36:06.0000000+00:00</time></trkpt><trkpt lat="22.209414" lon="104.410713"><ele>388.6</ele><time>2011-04-27T10:36:11.0000000+00:00</time></trkpt><trkpt lat="22.209427" lon="104.410728"><ele>389.2</ele><time>2011-04-27T10:36:16.0000000+00:00</time></trkpt><trkpt lat="22.209427" lon="104.410728"><ele>389.4</ele><time>2011-04-27T10:36:21.0000000+00:00</time></trkpt><trkpt lat="22.209448" lon="104.410713"><ele>390.3</ele><time>2011-04-27T10:36:26.0000000+00:00</time></trkpt><trkpt lat="22.209528" lon="104.410736"><ele>392.1</ele><time>2011-04-27T10:36:31.0000000+00:00</time></trkpt><trkpt lat="22.209631" lon="104.410759"><ele>394.7</ele><time>2011-04-27T10:36:36.0000000+00:00</time></trkpt><trkpt lat="22.209711" lon="104.410789"><ele>399.2</ele><time>2011-04-27T10:36:41.0000000+00:00</time></trkpt><trkpt lat="22.209782" lon="104.410828"><ele>400.8</ele><time>2011-04-27T10:36:46.0000000+00:00</time></trkpt><trkpt lat="22.209848" lon="104.410904"><ele>402.5</ele><time>2011-04-27T10:36:51.0000000+00:00</time></trkpt><trkpt lat="22.209908" lon="104.410973"><ele>403.8</ele><time>2011-04-27T10:36:56.0000000+00:00</time></trkpt><trkpt lat="22.20997" lon="104.411049"><ele>403.2</ele><time>2011-04-27T10:37:01.0000000+00:00</time></trkpt><trkpt lat="22.209991" lon="104.41114"><ele>401.0</ele><time>2011-04-27T10:37:06.0000000+00:00</time></trkpt><trkpt lat="22.209974" lon="104.411232"><ele>399.8</ele><time>2011-04-27T10:37:11.0000000+00:00</time></trkpt><trkpt lat="22.209927" lon="104.411324"><ele>401.6</ele><time>2011-04-27T10:37:16.0000000+00:00</time></trkpt><trkpt lat="22.209875" lon="104.411392"><ele>401.5</ele><time>2011-04-27T10:37:21.0000000+00:00</time></trkpt><trkpt lat="22.209827" lon="104.411491"><ele>401.8</ele><time>2011-04-27T10:37:26.0000000+00:00</time></trkpt><trkpt lat="22.209787" lon="104.411575"><ele>401.8</ele><time>2011-04-27T10:37:31.0000000+00:00</time></trkpt><trkpt lat="22.209745" lon="104.411659"><ele>401.7</ele><time>2011-04-27T10:37:36.0000000+00:00</time></trkpt><trkpt lat="22.209713" lon="104.411736"><ele>401.8</ele><time>2011-04-27T10:37:41.0000000+00:00</time></trkpt><trkpt lat="22.209694" lon="104.411819"><ele>402.7</ele><time>2011-04-27T10:37:46.0000000+00:00</time></trkpt><trkpt lat="22.209696" lon="104.411919"><ele>403.1</ele><time>2011-04-27T10:37:51.0000000+00:00</time></trkpt><trkpt lat="22.209751" lon="104.411995"><ele>404.0</ele><time>2011-04-27T10:37:56.0000000+00:00</time></trkpt><trkpt lat="22.209835" lon="104.412018"><ele>404.4</ele><time>2011-04-27T10:38:01.0000000+00:00</time></trkpt><trkpt lat="22.209909" lon="104.412041"><ele>405.1</ele><time>2011-04-27T10:38:06.0000000+00:00</time></trkpt><trkpt lat="22.209982" lon="104.412079"><ele>406.3</ele><time>2011-04-27T10:38:11.0000000+00:00</time></trkpt><trkpt lat="22.210045" lon="104.41214"><ele>407.1</ele><time>2011-04-27T10:38:16.0000000+00:00</time></trkpt><trkpt lat="22.210073" lon="104.412224"><ele>407.7</ele><time>2011-04-27T10:38:21.0000000+00:00</time></trkpt><trkpt lat="22.210087" lon="104.412308"><ele>409.2</ele><time>2011-04-27T10:38:26.0000000+00:00</time></trkpt><trkpt lat="22.210075" lon="104.412399"><ele>409.7</ele><time>2011-04-27T10:38:31.0000000+00:00</time></trkpt><trkpt lat="22.210052" lon="104.412491"><ele>410.4</ele><time>2011-04-27T10:38:36.0000000+00:00</time></trkpt><trkpt lat="22.209993" lon="104.412514"><ele>411.1</ele><time>2011-04-27T10:38:41.0000000+00:00</time></trkpt><trkpt lat="22.209919" lon="104.412567"><ele>412.8</ele><time>2011-04-27T10:38:46.0000000+00:00</time></trkpt><trkpt lat="22.209885" lon="104.412575"><ele>412.8</ele><time>2011-04-27T10:38:51.0000000+00:00</time></trkpt><trkpt lat="22.209791" lon="104.412621"><ele>414.1</ele><time>2011-04-27T10:38:56.0000000+00:00</time></trkpt><trkpt lat="22.209711" lon="104.412682"><ele>415.7</ele><time>2011-04-27T10:39:01.0000000+00:00</time></trkpt><trkpt lat="22.2097" lon="104.412704"><ele>416.0</ele><time>2011-04-27T10:39:06.0000000+00:00</time></trkpt><trkpt lat="22.2097" lon="104.412697"><ele>416.0</ele><time>2011-04-27T10:39:11.0000000+00:00</time></trkpt><trkpt lat="22.2097" lon="104.412697"><ele>416.0</ele><time>2011-04-27T10:39:16.0000000+00:00</time></trkpt><trkpt lat="22.209698" lon="104.412704"><ele>416.0</ele><time>2011-04-27T10:39:21.0000000+00:00</time></trkpt><trkpt lat="22.209698" lon="104.412704"><ele>416.0</ele><time>2011-04-27T10:39:26.0000000+00:00</time></trkpt><trkpt lat="22.209698" lon="104.412704"><ele>415.9</ele><time>2011-04-27T10:39:31.0000000+00:00</time></trkpt><trkpt lat="22.209698" lon="104.412704"><ele>415.9</ele><time>2011-04-27T10:39:36.0000000+00:00</time></trkpt><trkpt lat="22.209698" lon="104.412704"><ele>415.9</ele><time>2011-04-27T10:39:41.0000000+00:00</time></trkpt><trkpt lat="22.209698" lon="104.412704"><ele>415.9</ele><time>2011-04-27T10:39:46.0000000+00:00</time></trkpt><trkpt lat="22.209698" lon="104.412704"><ele>415.9</ele><time>2011-04-27T10:39:51.0000000+00:00</time></trkpt><trkpt lat="22.209696" lon="104.412704"><ele>415.8</ele><time>2011-04-27T10:39:56.0000000+00:00</time></trkpt><trkpt lat="22.209698" lon="104.412704"><ele>415.8</ele><time>2011-04-27T10:40:01.0000000+00:00</time></trkpt><trkpt lat="22.209694" lon="104.412704"><ele>415.8</ele><time>2011-04-27T10:40:06.0000000+00:00</time></trkpt><trkpt lat="22.209675" lon="104.412811"><ele>416.6</ele><time>2011-04-27T10:40:11.0000000+00:00</time></trkpt><trkpt lat="22.209719" lon="104.412872"><ele>417.2</ele><time>2011-04-27T10:40:16.0000000+00:00</time></trkpt><trkpt lat="22.209795" lon="104.412918"><ele>417.4</ele><time>2011-04-27T10:40:21.0000000+00:00</time></trkpt><trkpt lat="22.209858" lon="104.412971"><ele>417.9</ele><time>2011-04-27T10:40:26.0000000+00:00</time></trkpt><trkpt lat="22.209929" lon="104.413025"><ele>418.6</ele><time>2011-04-27T10:40:31.0000000+00:00</time></trkpt><trkpt lat="22.209991" lon="104.413086"><ele>419.4</ele><time>2011-04-27T10:40:36.0000000+00:00</time></trkpt><trkpt lat="22.210066" lon="104.413155"><ele>420.5</ele><time>2011-04-27T10:40:41.0000000+00:00</time></trkpt><trkpt lat="22.21011" lon="104.413223"><ele>422.1</ele><time>2011-04-27T10:40:46.0000000+00:00</time></trkpt><trkpt lat="22.210148" lon="104.413292"><ele>423.7</ele><time>2011-04-27T10:40:51.0000000+00:00</time></trkpt><trkpt lat="22.210178" lon="104.413353"><ele>424.9</ele><time>2011-04-27T10:40:56.0000000+00:00</time></trkpt><trkpt lat="22.210199" lon="104.413422"><ele>427.8</ele><time>2011-04-27T10:41:01.0000000+00:00</time></trkpt><trkpt lat="22.210211" lon="104.413498"><ele>429.6</ele><time>2011-04-27T10:41:06.0000000+00:00</time></trkpt><trkpt lat="22.210222" lon="104.413574"><ele>430.5</ele><time>2011-04-27T10:41:11.0000000+00:00</time></trkpt><trkpt lat="22.210218" lon="104.413658"><ele>430.5</ele><time>2011-04-27T10:41:16.0000000+00:00</time></trkpt><trkpt lat="22.21019" lon="104.413719"><ele>431.1</ele><time>2011-04-27T10:41:21.0000000+00:00</time></trkpt><trkpt lat="22.210169" lon="104.413803"><ele>432.5</ele><time>2011-04-27T10:41:26.0000000+00:00</time></trkpt><trkpt lat="22.210152" lon="104.413887"><ele>432.9</ele><time>2011-04-27T10:41:31.0000000+00:00</time></trkpt><trkpt lat="22.210161" lon="104.413971"><ele>433.9</ele><time>2011-04-27T10:41:36.0000000+00:00</time></trkpt><trkpt lat="22.210236" lon="104.414009"><ele>435.6</ele><time>2011-04-27T10:41:41.0000000+00:00</time></trkpt><trkpt lat="22.210316" lon="104.414017"><ele>438.3</ele><time>2011-04-27T10:41:46.0000000+00:00</time></trkpt><trkpt lat="22.210405" lon="104.414017"><ele>440.7</ele><time>2011-04-27T10:41:51.0000000+00:00</time></trkpt><trkpt lat="22.210501" lon="104.413986"><ele>441.3</ele><time>2011-04-27T10:41:56.0000000+00:00</time></trkpt><trkpt lat="22.210594" lon="104.413963"><ele>441.5</ele><time>2011-04-27T10:42:01.0000000+00:00</time></trkpt><trkpt lat="22.210661" lon="104.413948"><ele>443.7</ele><time>2011-04-27T10:42:06.0000000+00:00</time></trkpt><trkpt lat="22.21073" lon="104.413895"><ele>445.3</ele><time>2011-04-27T10:42:11.0000000+00:00</time></trkpt><trkpt lat="22.210789" lon="104.413872"><ele>446.5</ele><time>2011-04-27T10:42:16.0000000+00:00</time></trkpt><trkpt lat="22.210871" lon="104.413818"><ele>447.2</ele><time>2011-04-27T10:42:21.0000000+00:00</time></trkpt><trkpt lat="22.210945" lon="104.413773"><ele>447.8</ele><time>2011-04-27T10:42:26.0000000+00:00</time></trkpt><trkpt lat="22.211023" lon="104.413734"><ele>448.9</ele><time>2011-04-27T10:42:31.0000000+00:00</time></trkpt><trkpt lat="22.211035" lon="104.413689"><ele>448.8</ele><time>2011-04-27T10:42:36.0000000+00:00</time></trkpt><trkpt lat="22.211042" lon="104.413681"><ele>448.6</ele><time>2011-04-27T10:42:41.0000000+00:00</time></trkpt><trkpt lat="22.211042" lon="104.413681"><ele>448.4</ele><time>2011-04-27T10:42:46.0000000+00:00</time></trkpt><trkpt lat="22.211048" lon="104.413681"><ele>448.3</ele><time>2011-04-27T10:42:51.0000000+00:00</time></trkpt><trkpt lat="22.211102" lon="104.413696"><ele>448.2</ele><time>2011-04-27T10:42:56.0000000+00:00</time></trkpt><trkpt lat="22.211185" lon="104.413704"><ele>448.4</ele><time>2011-04-27T10:43:01.0000000+00:00</time></trkpt><trkpt lat="22.211269" lon="104.413727"><ele>448.9</ele><time>2011-04-27T10:43:06.0000000+00:00</time></trkpt><trkpt lat="22.211313" lon="104.413795"><ele>448.1</ele><time>2011-04-27T10:43:11.0000000+00:00</time></trkpt><trkpt lat="22.211355" lon="104.413849"><ele>447.8</ele><time>2011-04-27T10:43:16.0000000+00:00</time></trkpt><trkpt lat="22.21138" lon="104.413933"><ele>448.4</ele><time>2011-04-27T10:43:21.0000000+00:00</time></trkpt><trkpt lat="22.211403" lon="104.414032"><ele>448.5</ele><time>2011-04-27T10:43:26.0000000+00:00</time></trkpt><trkpt lat="22.211433" lon="104.414108"><ele>448.9</ele><time>2011-04-27T10:43:31.0000000+00:00</time></trkpt><trkpt lat="22.211466" lon="104.414185"><ele>449.7</ele><time>2011-04-27T10:43:36.0000000+00:00</time></trkpt><trkpt lat="22.211489" lon="104.414268"><ele>450.2</ele><time>2011-04-27T10:43:41.0000000+00:00</time></trkpt><trkpt lat="22.21154" lon="104.414352"><ele>451.4</ele><time>2011-04-27T10:43:46.0000000+00:00</time></trkpt><trkpt lat="22.211597" lon="104.414436"><ele>452.0</ele><time>2011-04-27T10:43:51.0000000+00:00</time></trkpt><trkpt lat="22.211647" lon="104.414513"><ele>452.7</ele><time>2011-04-27T10:43:56.0000000+00:00</time></trkpt><trkpt lat="22.211718" lon="104.414581"><ele>453.1</ele><time>2011-04-27T10:44:01.0000000+00:00</time></trkpt><trkpt lat="22.211798" lon="104.414627"><ele>453.7</ele><time>2011-04-27T10:44:06.0000000+00:00</time></trkpt><trkpt lat="22.211878" lon="104.414665"><ele>454.5</ele><time>2011-04-27T10:44:11.0000000+00:00</time></trkpt><trkpt lat="22.211966" lon="104.414711"><ele>455.3</ele><time>2011-04-27T10:44:16.0000000+00:00</time></trkpt><trkpt lat="22.212048" lon="104.414764"><ele>456.4</ele><time>2011-04-27T10:44:21.0000000+00:00</time></trkpt><trkpt lat="22.212135" lon="104.414856"><ele>457.6</ele><time>2011-04-27T10:44:26.0000000+00:00</time></trkpt><trkpt lat="22.212206" lon="104.414932"><ele>458.7</ele><time>2011-04-27T10:44:31.0000000+00:00</time></trkpt><trkpt lat="22.212273" lon="104.415039"><ele>459.8</ele><time>2011-04-27T10:44:36.0000000+00:00</time></trkpt><trkpt lat="22.212315" lon="104.415123"><ele>461.0</ele><time>2011-04-27T10:44:41.0000000+00:00</time></trkpt><trkpt lat="22.212347" lon="104.415184"><ele>461.7</ele><time>2011-04-27T10:44:46.0000000+00:00</time></trkpt><trkpt lat="22.212353" lon="104.415176"><ele>462.5</ele><time>2011-04-27T10:44:51.0000000+00:00</time></trkpt><trkpt lat="22.212368" lon="104.415253"><ele>463.3</ele><time>2011-04-27T10:44:56.0000000+00:00</time></trkpt><trkpt lat="22.212381" lon="104.415344"><ele>463.8</ele><time>2011-04-27T10:45:01.0000000+00:00</time></trkpt><trkpt lat="22.212378" lon="104.415474"><ele>463.0</ele><time>2011-04-27T10:45:06.0000000+00:00</time></trkpt><trkpt lat="22.212383" lon="104.415543"><ele>463.0</ele><time>2011-04-27T10:45:11.0000000+00:00</time></trkpt><trkpt lat="22.212383" lon="104.41555"><ele>461.3</ele><time>2011-04-27T10:45:16.0000000+00:00</time></trkpt><trkpt lat="22.212379" lon="104.41555"><ele>460.9</ele><time>2011-04-27T10:45:21.0000000+00:00</time></trkpt><trkpt lat="22.212376" lon="104.415543"><ele>461.0</ele><time>2011-04-27T10:45:26.0000000+00:00</time></trkpt><trkpt lat="22.212374" lon="104.415535"><ele>461.6</ele><time>2011-04-27T10:45:31.0000000+00:00</time></trkpt><trkpt lat="22.212374" lon="104.415535"><ele>461.6</ele><time>2011-04-27T10:45:36.0000000+00:00</time></trkpt><trkpt lat="22.212376" lon="104.415535"><ele>461.6</ele><time>2011-04-27T10:45:41.0000000+00:00</time></trkpt><trkpt lat="22.212376" lon="104.415535"><ele>461.6</ele><time>2011-04-27T10:45:46.0000000+00:00</time></trkpt><trkpt lat="22.212372" lon="104.415535"><ele>461.7</ele><time>2011-04-27T10:45:51.0000000+00:00</time></trkpt><trkpt lat="22.212372" lon="104.415535"><ele>461.6</ele><time>2011-04-27T10:45:56.0000000+00:00</time></trkpt><trkpt lat="22.212372" lon="104.415535"><ele>461.5</ele><time>2011-04-27T10:46:01.0000000+00:00</time></trkpt><trkpt lat="22.212372" lon="104.415535"><ele>461.5</ele><time>2011-04-27T10:46:06.0000000+00:00</time></trkpt><trkpt lat="22.212372" lon="104.415535"><ele>461.5</ele><time>2011-04-27T10:46:11.0000000+00:00</time></trkpt><trkpt lat="22.212372" lon="104.415535"><ele>461.5</ele><time>2011-04-27T10:46:16.0000000+00:00</time></trkpt><trkpt lat="22.212374" lon="104.415535"><ele>461.5</ele><time>2011-04-27T10:46:21.0000000+00:00</time></trkpt><trkpt lat="22.212374" lon="104.415535"><ele>461.5</ele><time>2011-04-27T10:46:26.0000000+00:00</time></trkpt><trkpt lat="22.212374" lon="104.415535"><ele>461.5</ele><time>2011-04-27T10:46:31.0000000+00:00</time></trkpt><trkpt lat="22.212374" lon="104.415535"><ele>461.5</ele><time>2011-04-27T10:46:36.0000000+00:00</time></trkpt><trkpt lat="22.212374" lon="104.415535"><ele>461.5</ele><time>2011-04-27T10:46:41.0000000+00:00</time></trkpt><trkpt lat="22.212374" lon="104.415535"><ele>461.5</ele><time>2011-04-27T10:46:46.0000000+00:00</time></trkpt><trkpt lat="22.212374" lon="104.415535"><ele>461.5</ele><time>2011-04-27T10:46:51.0000000+00:00</time></trkpt><trkpt lat="22.212374" lon="104.415535"><ele>461.5</ele><time>2011-04-27T10:46:56.0000000+00:00</time></trkpt><trkpt lat="22.212374" lon="104.415535"><ele>461.5</ele><time>2011-04-27T10:47:01.0000000+00:00</time></trkpt><trkpt lat="22.212374" lon="104.415535"><ele>461.5</ele><time>2011-04-27T10:47:06.0000000+00:00</time></trkpt><trkpt lat="22.212374" lon="104.415535"><ele>461.5</ele><time>2011-04-27T10:47:11.0000000+00:00</time></trkpt><trkpt lat="22.212374" lon="104.415543"><ele>461.5</ele><time>2011-04-27T10:47:16.0000000+00:00</time></trkpt><trkpt lat="22.212374" lon="104.415535"><ele>461.5</ele><time>2011-04-27T10:47:21.0000000+00:00</time></trkpt><trkpt lat="22.212374" lon="104.415535"><ele>461.5</ele><time>2011-04-27T10:47:26.0000000+00:00</time></trkpt><trkpt lat="22.212374" lon="104.415535"><ele>461.5</ele><time>2011-04-27T10:47:31.0000000+00:00</time></trkpt><trkpt lat="22.212374" lon="104.415535"><ele>461.5</ele><time>2011-04-27T10:47:36.0000000+00:00</time></trkpt><trkpt lat="22.212374" lon="104.415535"><ele>461.5</ele><time>2011-04-27T10:47:41.0000000+00:00</time></trkpt><trkpt lat="22.212376" lon="104.415535"><ele>461.5</ele><time>2011-04-27T10:47:46.0000000+00:00</time></trkpt><trkpt lat="22.212376" lon="104.415535"><ele>461.5</ele><time>2011-04-27T10:47:51.0000000+00:00</time></trkpt><trkpt lat="22.212376" lon="104.415535"><ele>461.5</ele><time>2011-04-27T10:47:56.0000000+00:00</time></trkpt><trkpt lat="22.212376" lon="104.415535"><ele>461.5</ele><time>2011-04-27T10:48:01.0000000+00:00</time></trkpt><trkpt lat="22.212376" lon="104.415535"><ele>461.5</ele><time>2011-04-27T10:48:06.0000000+00:00</time></trkpt><trkpt lat="22.212376" lon="104.415535"><ele>461.5</ele><time>2011-04-27T10:48:11.0000000+00:00</time></trkpt><trkpt lat="22.212376" lon="104.415535"><ele>461.5</ele><time>2011-04-27T10:48:16.0000000+00:00</time></trkpt><trkpt lat="22.212376" lon="104.415535"><ele>461.5</ele><time>2011-04-27T10:48:21.0000000+00:00</time></trkpt><trkpt lat="22.212376" lon="104.415535"><ele>461.5</ele><time>2011-04-27T10:48:26.0000000+00:00</time></trkpt><trkpt lat="22.212376" lon="104.415535"><ele>461.5</ele><time>2011-04-27T10:48:31.0000000+00:00</time></trkpt><trkpt lat="22.212376" lon="104.415535"><ele>461.5</ele><time>2011-04-27T10:48:36.0000000+00:00</time></trkpt><trkpt lat="22.212376" lon="104.415535"><ele>461.5</ele><time>2011-04-27T10:48:41.0000000+00:00</time></trkpt><trkpt lat="22.212376" lon="104.415535"><ele>461.5</ele><time>2011-04-27T10:48:46.0000000+00:00</time></trkpt><trkpt lat="22.212378" lon="104.415535"><ele>461.5</ele><time>2011-04-27T10:48:51.0000000+00:00</time></trkpt><trkpt lat="22.212378" lon="104.415535"><ele>461.5</ele><time>2011-04-27T10:48:56.0000000+00:00</time></trkpt><trkpt lat="22.212378" lon="104.415535"><ele>461.5</ele><time>2011-04-27T10:49:01.0000000+00:00</time></trkpt><trkpt lat="22.212378" lon="104.415535"><ele>461.6</ele><time>2011-04-27T10:49:06.0000000+00:00</time></trkpt><trkpt lat="22.212378" lon="104.415535"><ele>461.6</ele><time>2011-04-27T10:49:11.0000000+00:00</time></trkpt><trkpt lat="22.212378" lon="104.415535"><ele>461.6</ele><time>2011-04-27T10:49:16.0000000+00:00</time></trkpt><trkpt lat="22.212379" lon="104.415535"><ele>461.5</ele><time>2011-04-27T10:49:21.0000000+00:00</time></trkpt><trkpt lat="22.212379" lon="104.415535"><ele>461.5</ele><time>2011-04-27T10:49:26.0000000+00:00</time></trkpt><trkpt lat="22.212378" lon="104.415535"><ele>461.5</ele><time>2011-04-27T10:49:31.0000000+00:00</time></trkpt><trkpt lat="22.212378" lon="104.415535"><ele>461.5</ele><time>2011-04-27T10:49:36.0000000+00:00</time></trkpt><trkpt lat="22.212378" lon="104.415535"><ele>461.5</ele><time>2011-04-27T10:49:41.0000000+00:00</time></trkpt><trkpt lat="22.212378" lon="104.415535"><ele>461.5</ele><time>2011-04-27T10:49:46.0000000+00:00</time></trkpt><trkpt lat="22.212378" lon="104.415535"><ele>461.5</ele><time>2011-04-27T10:49:51.0000000+00:00</time></trkpt><trkpt lat="22.212378" lon="104.415535"><ele>461.5</ele><time>2011-04-27T10:49:56.0000000+00:00</time></trkpt><trkpt lat="22.212378" lon="104.415535"><ele>461.6</ele><time>2011-04-27T10:50:01.0000000+00:00</time></trkpt><trkpt lat="22.212378" lon="104.415535"><ele>461.6</ele><time>2011-04-27T10:50:06.0000000+00:00</time></trkpt><trkpt lat="22.212378" lon="104.415535"><ele>461.6</ele><time>2011-04-27T10:50:11.0000000+00:00</time></trkpt><trkpt lat="22.212376" lon="104.415535"><ele>461.6</ele><time>2011-04-27T10:50:16.0000000+00:00</time></trkpt><trkpt lat="22.212376" lon="104.415535"><ele>461.6</ele><time>2011-04-27T10:50:21.0000000+00:00</time></trkpt><trkpt lat="22.212376" lon="104.415535"><ele>461.7</ele><time>2011-04-27T10:50:26.0000000+00:00</time></trkpt><trkpt lat="22.212376" lon="104.415535"><ele>461.7</ele><time>2011-04-27T10:50:31.0000000+00:00</time></trkpt><trkpt lat="22.212393" lon="104.415535"><ele>462.0</ele><time>2011-04-27T10:50:36.0000000+00:00</time></trkpt><trkpt lat="22.2124" lon="104.415527"><ele>461.8</ele><time>2011-04-27T10:50:41.0000000+00:00</time></trkpt><trkpt lat="22.212423" lon="104.415497"><ele>461.1</ele><time>2011-04-27T10:50:46.0000000+00:00</time></trkpt><trkpt lat="22.212414" lon="104.415428"><ele>461.1</ele><time>2011-04-27T10:50:51.0000000+00:00</time></trkpt><trkpt lat="22.212397" lon="104.415352"><ele>461.3</ele><time>2011-04-27T10:50:56.0000000+00:00</time></trkpt><trkpt lat="22.212389" lon="104.415291"><ele>461.9</ele><time>2011-04-27T10:51:01.0000000+00:00</time></trkpt><trkpt lat="22.212383" lon="104.415237"><ele>462.1</ele><time>2011-04-27T10:51:06.0000000+00:00</time></trkpt><trkpt lat="22.212414" lon="104.415207"><ele>462.1</ele><time>2011-04-27T10:51:11.0000000+00:00</time></trkpt><trkpt lat="22.212433" lon="104.41523"><ele>463.4</ele><time>2011-04-27T10:51:16.0000000+00:00</time></trkpt><trkpt lat="22.212448" lon="104.41526"><ele>463.8</ele><time>2011-04-27T10:51:21.0000000+00:00</time></trkpt><trkpt lat="22.212439" lon="104.415268"><ele>464.5</ele><time>2011-04-27T10:51:26.0000000+00:00</time></trkpt><trkpt lat="22.212437" lon="104.415268"><ele>464.6</ele><time>2011-04-27T10:51:31.0000000+00:00</time></trkpt><trkpt lat="22.212435" lon="104.415268"><ele>464.7</ele><time>2011-04-27T10:51:36.0000000+00:00</time></trkpt><trkpt lat="22.212435" lon="104.41526"><ele>464.7</ele><time>2011-04-27T10:51:41.0000000+00:00</time></trkpt><trkpt lat="22.212435" lon="104.41526"><ele>464.7</ele><time>2011-04-27T10:51:46.0000000+00:00</time></trkpt><trkpt lat="22.212435" lon="104.41526"><ele>464.7</ele><time>2011-04-27T10:51:51.0000000+00:00</time></trkpt><trkpt lat="22.212435" lon="104.41526"><ele>464.7</ele><time>2011-04-27T10:51:56.0000000+00:00</time></trkpt><trkpt lat="22.212435" lon="104.41526"><ele>464.7</ele><time>2011-04-27T10:52:01.0000000+00:00</time></trkpt><trkpt lat="22.212435" lon="104.41526"><ele>464.7</ele><time>2011-04-27T10:52:06.0000000+00:00</time></trkpt><trkpt lat="22.212435" lon="104.41526"><ele>464.7</ele><time>2011-04-27T10:52:11.0000000+00:00</time></trkpt><trkpt lat="22.212435" lon="104.41526"><ele>464.7</ele><time>2011-04-27T10:52:16.0000000+00:00</time></trkpt><trkpt lat="22.212433" lon="104.41526"><ele>464.7</ele><time>2011-04-27T10:52:21.0000000+00:00</time></trkpt><trkpt lat="22.212433" lon="104.415268"><ele>464.7</ele><time>2011-04-27T10:52:26.0000000+00:00</time></trkpt><trkpt lat="22.212429" lon="104.415268"><ele>464.7</ele><time>2011-04-27T10:52:31.0000000+00:00</time></trkpt><trkpt lat="22.212425" lon="104.415268"><ele>464.7</ele><time>2011-04-27T10:52:36.0000000+00:00</time></trkpt><trkpt lat="22.212421" lon="104.415268"><ele>464.6</ele><time>2011-04-27T10:52:41.0000000+00:00</time></trkpt><trkpt lat="22.21242" lon="104.415268"><ele>464.4</ele><time>2011-04-27T10:52:46.0000000+00:00</time></trkpt><trkpt lat="22.21242" lon="104.415276"><ele>464.3</ele><time>2011-04-27T10:52:51.0000000+00:00</time></trkpt><trkpt lat="22.21242" lon="104.415268"><ele>464.3</ele><time>2011-04-27T10:52:56.0000000+00:00</time></trkpt><trkpt lat="22.21242" lon="104.415268"><ele>464.3</ele><time>2011-04-27T10:53:01.0000000+00:00</time></trkpt><trkpt lat="22.21242" lon="104.415268"><ele>464.3</ele><time>2011-04-27T10:53:06.0000000+00:00</time></trkpt><trkpt lat="22.21242" lon="104.415268"><ele>464.3</ele><time>2011-04-27T10:53:11.0000000+00:00</time></trkpt><trkpt lat="22.21242" lon="104.415268"><ele>464.3</ele><time>2011-04-27T10:53:16.0000000+00:00</time></trkpt><trkpt lat="22.21242" lon="104.415268"><ele>464.3</ele><time>2011-04-27T10:53:21.0000000+00:00</time></trkpt><trkpt lat="22.21242" lon="104.415268"><ele>464.3</ele><time>2011-04-27T10:53:26.0000000+00:00</time></trkpt><trkpt lat="22.21242" lon="104.415268"><ele>464.3</ele><time>2011-04-27T10:53:31.0000000+00:00</time></trkpt><trkpt lat="22.21242" lon="104.415276"><ele>464.2</ele><time>2011-04-27T10:53:36.0000000+00:00</time></trkpt><trkpt lat="22.21242" lon="104.415276"><ele>464.2</ele><time>2011-04-27T10:53:41.0000000+00:00</time></trkpt><trkpt lat="22.21242" lon="104.415276"><ele>464.2</ele><time>2011-04-27T10:53:46.0000000+00:00</time></trkpt><trkpt lat="22.21242" lon="104.415276"><ele>464.2</ele><time>2011-04-27T10:53:51.0000000+00:00</time></trkpt><trkpt lat="22.21242" lon="104.415276"><ele>464.2</ele><time>2011-04-27T10:53:56.0000000+00:00</time></trkpt><trkpt lat="22.21242" lon="104.415276"><ele>464.1</ele><time>2011-04-27T10:54:01.0000000+00:00</time></trkpt><trkpt lat="22.21242" lon="104.415276"><ele>464.1</ele><time>2011-04-27T10:54:06.0000000+00:00</time></trkpt><trkpt lat="22.21242" lon="104.415276"><ele>464.1</ele><time>2011-04-27T10:54:11.0000000+00:00</time></trkpt><trkpt lat="22.21242" lon="104.415276"><ele>464.0</ele><time>2011-04-27T10:54:16.0000000+00:00</time></trkpt><trkpt lat="22.212418" lon="104.415276"><ele>464.0</ele><time>2011-04-27T10:54:21.0000000+00:00</time></trkpt><trkpt lat="22.212418" lon="104.415276"><ele>464.0</ele><time>2011-04-27T10:54:26.0000000+00:00</time></trkpt><trkpt lat="22.212416" lon="104.415276"><ele>464.0</ele><time>2011-04-27T10:54:31.0000000+00:00</time></trkpt><trkpt lat="22.212416" lon="104.415276"><ele>464.0</ele><time>2011-04-27T10:54:36.0000000+00:00</time></trkpt><trkpt lat="22.212416" lon="104.415276"><ele>464.0</ele><time>2011-04-27T10:54:41.0000000+00:00</time></trkpt><trkpt lat="22.212416" lon="104.415276"><ele>464.0</ele><time>2011-04-27T10:54:46.0000000+00:00</time></trkpt><trkpt lat="22.212416" lon="104.415276"><ele>464.1</ele><time>2011-04-27T10:54:51.0000000+00:00</time></trkpt><trkpt lat="22.212416" lon="104.415276"><ele>464.1</ele><time>2011-04-27T10:54:56.0000000+00:00</time></trkpt><trkpt lat="22.212416" lon="104.415276"><ele>464.0</ele><time>2011-04-27T10:55:01.0000000+00:00</time></trkpt><trkpt lat="22.212416" lon="104.415276"><ele>464.0</ele><time>2011-04-27T10:55:06.0000000+00:00</time></trkpt><trkpt lat="22.212416" lon="104.415276"><ele>464.1</ele><time>2011-04-27T10:55:11.0000000+00:00</time></trkpt><trkpt lat="22.212416" lon="104.415276"><ele>464.1</ele><time>2011-04-27T10:55:16.0000000+00:00</time></trkpt><trkpt lat="22.212416" lon="104.415276"><ele>464.1</ele><time>2011-04-27T10:55:21.0000000+00:00</time></trkpt><trkpt lat="22.212416" lon="104.415276"><ele>464.1</ele><time>2011-04-27T10:55:26.0000000+00:00</time></trkpt><trkpt lat="22.212416" lon="104.415276"><ele>464.1</ele><time>2011-04-27T10:55:31.0000000+00:00</time></trkpt><trkpt lat="22.212416" lon="104.415276"><ele>464.1</ele><time>2011-04-27T10:55:36.0000000+00:00</time></trkpt><trkpt lat="22.212416" lon="104.415276"><ele>464.1</ele><time>2011-04-27T10:55:41.0000000+00:00</time></trkpt><trkpt lat="22.212416" lon="104.415276"><ele>464.1</ele><time>2011-04-27T10:55:46.0000000+00:00</time></trkpt><trkpt lat="22.212416" lon="104.415276"><ele>464.1</ele><time>2011-04-27T10:55:51.0000000+00:00</time></trkpt><trkpt lat="22.212416" lon="104.415276"><ele>464.1</ele><time>2011-04-27T10:55:56.0000000+00:00</time></trkpt><trkpt lat="22.212416" lon="104.415276"><ele>464.2</ele><time>2011-04-27T10:56:01.0000000+00:00</time></trkpt><trkpt lat="22.212416" lon="104.415276"><ele>464.2</ele><time>2011-04-27T10:56:06.0000000+00:00</time></trkpt><trkpt lat="22.212416" lon="104.415276"><ele>464.2</ele><time>2011-04-27T10:56:11.0000000+00:00</time></trkpt><trkpt lat="22.212416" lon="104.415276"><ele>464.2</ele><time>2011-04-27T10:56:16.0000000+00:00</time></trkpt><trkpt lat="22.212416" lon="104.415276"><ele>464.2</ele><time>2011-04-27T10:56:21.0000000+00:00</time></trkpt><trkpt lat="22.212416" lon="104.415276"><ele>464.2</ele><time>2011-04-27T10:56:26.0000000+00:00</time></trkpt><trkpt lat="22.212416" lon="104.415276"><ele>464.2</ele><time>2011-04-27T10:56:31.0000000+00:00</time></trkpt><trkpt lat="22.212416" lon="104.415276"><ele>464.2</ele><time>2011-04-27T10:56:36.0000000+00:00</time></trkpt><trkpt lat="22.212416" lon="104.415276"><ele>464.2</ele><time>2011-04-27T10:56:41.0000000+00:00</time></trkpt><trkpt lat="22.212416" lon="104.415268"><ele>464.2</ele><time>2011-04-27T10:56:46.0000000+00:00</time></trkpt><trkpt lat="22.212416" lon="104.415268"><ele>464.3</ele><time>2011-04-27T10:56:51.0000000+00:00</time></trkpt><trkpt lat="22.212416" lon="104.415268"><ele>464.3</ele><time>2011-04-27T10:56:56.0000000+00:00</time></trkpt><trkpt lat="22.212416" lon="104.415268"><ele>464.3</ele><time>2011-04-27T10:57:01.0000000+00:00</time></trkpt><trkpt lat="22.212416" lon="104.415268"><ele>464.4</ele><time>2011-04-27T10:57:06.0000000+00:00</time></trkpt><trkpt lat="22.212416" lon="104.415268"><ele>464.4</ele><time>2011-04-27T10:57:11.0000000+00:00</time></trkpt><trkpt lat="22.212416" lon="104.415268"><ele>464.4</ele><time>2011-04-27T10:57:16.0000000+00:00</time></trkpt><trkpt lat="22.212416" lon="104.415268"><ele>464.4</ele><time>2011-04-27T10:57:21.0000000+00:00</time></trkpt><trkpt lat="22.212416" lon="104.415268"><ele>464.4</ele><time>2011-04-27T10:57:26.0000000+00:00</time></trkpt><trkpt lat="22.212416" lon="104.415268"><ele>464.4</ele><time>2011-04-27T10:57:31.0000000+00:00</time></trkpt><trkpt lat="22.212416" lon="104.415268"><ele>464.4</ele><time>2011-04-27T10:57:36.0000000+00:00</time></trkpt><trkpt lat="22.212416" lon="104.415268"><ele>464.4</ele><time>2011-04-27T10:57:41.0000000+00:00</time></trkpt><trkpt lat="22.212416" lon="104.415268"><ele>464.4</ele><time>2011-04-27T10:57:46.0000000+00:00</time></trkpt><trkpt lat="22.212416" lon="104.415268"><ele>464.4</ele><time>2011-04-27T10:57:51.0000000+00:00</time></trkpt><trkpt lat="22.212416" lon="104.415268"><ele>464.5</ele><time>2011-04-27T10:57:56.0000000+00:00</time></trkpt><trkpt lat="22.212416" lon="104.415268"><ele>464.5</ele><time>2011-04-27T10:58:01.0000000+00:00</time></trkpt><trkpt lat="22.212414" lon="104.415268"><ele>464.5</ele><time>2011-04-27T10:58:06.0000000+00:00</time></trkpt><trkpt lat="22.212416" lon="104.415268"><ele>464.5</ele><time>2011-04-27T10:58:11.0000000+00:00</time></trkpt><trkpt lat="22.212416" lon="104.415268"><ele>464.5</ele><time>2011-04-27T10:58:16.0000000+00:00</time></trkpt><trkpt lat="22.212416" lon="104.415268"><ele>464.5</ele><time>2011-04-27T10:58:21.0000000+00:00</time></trkpt><trkpt lat="22.212416" lon="104.415268"><ele>464.5</ele><time>2011-04-27T10:58:26.0000000+00:00</time></trkpt><trkpt lat="22.212414" lon="104.415268"><ele>464.5</ele><time>2011-04-27T10:58:31.0000000+00:00</time></trkpt><trkpt lat="22.212414" lon="104.415268"><ele>464.5</ele><time>2011-04-27T10:58:36.0000000+00:00</time></trkpt><trkpt lat="22.212414" lon="104.415268"><ele>464.5</ele><time>2011-04-27T10:58:41.0000000+00:00</time></trkpt><trkpt lat="22.212414" lon="104.415268"><ele>464.5</ele><time>2011-04-27T10:58:46.0000000+00:00</time></trkpt><trkpt lat="22.212414" lon="104.415268"><ele>464.5</ele><time>2011-04-27T10:58:51.0000000+00:00</time></trkpt><trkpt lat="22.212416" lon="104.415268"><ele>464.5</ele><time>2011-04-27T10:58:56.0000000+00:00</time></trkpt><trkpt lat="22.212416" lon="104.415268"><ele>464.5</ele><time>2011-04-27T10:59:01.0000000+00:00</time></trkpt><trkpt lat="22.212416" lon="104.415268"><ele>464.4</ele><time>2011-04-27T10:59:06.0000000+00:00</time></trkpt><trkpt lat="22.212416" lon="104.415268"><ele>464.4</ele><time>2011-04-27T10:59:11.0000000+00:00</time></trkpt><trkpt lat="22.212416" lon="104.415268"><ele>464.4</ele><time>2011-04-27T10:59:16.0000000+00:00</time></trkpt><trkpt lat="22.212416" lon="104.415268"><ele>464.4</ele><time>2011-04-27T10:59:21.0000000+00:00</time></trkpt><trkpt lat="22.212416" lon="104.415268"><ele>464.4</ele><time>2011-04-27T10:59:26.0000000+00:00</time></trkpt><trkpt lat="22.212414" lon="104.415268"><ele>464.4</ele><time>2011-04-27T10:59:31.0000000+00:00</time></trkpt><trkpt lat="22.212414" lon="104.415268"><ele>464.4</ele><time>2011-04-27T10:59:36.0000000+00:00</time></trkpt><trkpt lat="22.212414" lon="104.415268"><ele>464.4</ele><time>2011-04-27T10:59:41.0000000+00:00</time></trkpt><trkpt lat="22.212414" lon="104.415268"><ele>464.4</ele><time>2011-04-27T10:59:46.0000000+00:00</time></trkpt><trkpt lat="22.212414" lon="104.415268"><ele>464.5</ele><time>2011-04-27T10:59:51.0000000+00:00</time></trkpt><trkpt lat="22.212414" lon="104.415268"><ele>464.5</ele><time>2011-04-27T10:59:56.0000000+00:00</time></trkpt><trkpt lat="22.212414" lon="104.415268"><ele>464.5</ele><time>2011-04-27T11:00:01.0000000+00:00</time></trkpt><trkpt lat="22.212414" lon="104.415268"><ele>464.5</ele><time>2011-04-27T11:00:06.0000000+00:00</time></trkpt><trkpt lat="22.212414" lon="104.415268"><ele>464.5</ele><time>2011-04-27T11:00:11.0000000+00:00</time></trkpt><trkpt lat="22.212414" lon="104.415268"><ele>464.5</ele><time>2011-04-27T11:00:16.0000000+00:00</time></trkpt><trkpt lat="22.212414" lon="104.415268"><ele>464.5</ele><time>2011-04-27T11:00:21.0000000+00:00</time></trkpt><trkpt lat="22.212414" lon="104.415268"><ele>464.5</ele><time>2011-04-27T11:00:26.0000000+00:00</time></trkpt><trkpt lat="22.212414" lon="104.415268"><ele>464.5</ele><time>2011-04-27T11:00:31.0000000+00:00</time></trkpt><trkpt lat="22.212414" lon="104.415268"><ele>464.4</ele><time>2011-04-27T11:00:36.0000000+00:00</time></trkpt><trkpt lat="22.212414" lon="104.415268"><ele>464.4</ele><time>2011-04-27T11:00:41.0000000+00:00</time></trkpt><trkpt lat="22.212414" lon="104.415268"><ele>464.4</ele><time>2011-04-27T11:00:46.0000000+00:00</time></trkpt><trkpt lat="22.212414" lon="104.415268"><ele>464.4</ele><time>2011-04-27T11:00:51.0000000+00:00</time></trkpt><trkpt lat="22.212414" lon="104.415268"><ele>464.4</ele><time>2011-04-27T11:00:56.0000000+00:00</time></trkpt><trkpt lat="22.212414" lon="104.415268"><ele>464.4</ele><time>2011-04-27T11:01:01.0000000+00:00</time></trkpt><trkpt lat="22.212414" lon="104.415268"><ele>464.4</ele><time>2011-04-27T11:01:06.0000000+00:00</time></trkpt><trkpt lat="22.212414" lon="104.415268"><ele>464.4</ele><time>2011-04-27T11:01:11.0000000+00:00</time></trkpt><trkpt lat="22.212414" lon="104.415268"><ele>464.4</ele><time>2011-04-27T11:01:16.0000000+00:00</time></trkpt><trkpt lat="22.212414" lon="104.415268"><ele>464.4</ele><time>2011-04-27T11:01:21.0000000+00:00</time></trkpt><trkpt lat="22.212414" lon="104.415268"><ele>464.4</ele><time>2011-04-27T11:01:26.0000000+00:00</time></trkpt><trkpt lat="22.212412" lon="104.415268"><ele>464.5</ele><time>2011-04-27T11:01:31.0000000+00:00</time></trkpt><trkpt lat="22.212412" lon="104.415268"><ele>464.5</ele><time>2011-04-27T11:01:36.0000000+00:00</time></trkpt><trkpt lat="22.212412" lon="104.415268"><ele>464.6</ele><time>2011-04-27T11:01:41.0000000+00:00</time></trkpt><trkpt lat="22.212412" lon="104.415268"><ele>464.6</ele><time>2011-04-27T11:01:46.0000000+00:00</time></trkpt><trkpt lat="22.212412" lon="104.415268"><ele>464.6</ele><time>2011-04-27T11:01:51.0000000+00:00</time></trkpt><trkpt lat="22.212412" lon="104.415268"><ele>464.7</ele><time>2011-04-27T11:01:56.0000000+00:00</time></trkpt><trkpt lat="22.212412" lon="104.415268"><ele>464.7</ele><time>2011-04-27T11:02:01.0000000+00:00</time></trkpt><trkpt lat="22.212412" lon="104.415268"><ele>464.7</ele><time>2011-04-27T11:02:06.0000000+00:00</time></trkpt><trkpt lat="22.212412" lon="104.415268"><ele>464.7</ele><time>2011-04-27T11:02:11.0000000+00:00</time></trkpt><trkpt lat="22.212412" lon="104.415268"><ele>464.7</ele><time>2011-04-27T11:02:16.0000000+00:00</time></trkpt><trkpt lat="22.212412" lon="104.415268"><ele>464.7</ele><time>2011-04-27T11:02:21.0000000+00:00</time></trkpt><trkpt lat="22.212412" lon="104.415268"><ele>464.7</ele><time>2011-04-27T11:02:26.0000000+00:00</time></trkpt><trkpt lat="22.212412" lon="104.415268"><ele>464.6</ele><time>2011-04-27T11:02:31.0000000+00:00</time></trkpt><trkpt lat="22.212414" lon="104.415268"><ele>464.5</ele><time>2011-04-27T11:02:36.0000000+00:00</time></trkpt><trkpt lat="22.212414" lon="104.415268"><ele>464.4</ele><time>2011-04-27T11:02:41.0000000+00:00</time></trkpt><trkpt lat="22.212416" lon="104.415268"><ele>464.3</ele><time>2011-04-27T11:02:46.0000000+00:00</time></trkpt><trkpt lat="22.212416" lon="104.415268"><ele>464.3</ele><time>2011-04-27T11:02:51.0000000+00:00</time></trkpt><trkpt lat="22.212414" lon="104.415268"><ele>464.3</ele><time>2011-04-27T11:02:56.0000000+00:00</time></trkpt><trkpt lat="22.212414" lon="104.415268"><ele>464.2</ele><time>2011-04-27T11:03:01.0000000+00:00</time></trkpt><trkpt lat="22.212414" lon="104.415268"><ele>464.2</ele><time>2011-04-27T11:03:06.0000000+00:00</time></trkpt><trkpt lat="22.212414" lon="104.415268"><ele>464.1</ele><time>2011-04-27T11:03:11.0000000+00:00</time></trkpt><trkpt lat="22.212414" lon="104.415268"><ele>464.1</ele><time>2011-04-27T11:03:16.0000000+00:00</time></trkpt><trkpt lat="22.212414" lon="104.415268"><ele>464.1</ele><time>2011-04-27T11:03:21.0000000+00:00</time></trkpt><trkpt lat="22.212414" lon="104.415268"><ele>464.0</ele><time>2011-04-27T11:03:26.0000000+00:00</time></trkpt><trkpt lat="22.212414" lon="104.41526"><ele>464.0</ele><time>2011-04-27T11:03:31.0000000+00:00</time></trkpt><trkpt lat="22.212414" lon="104.41526"><ele>464.0</ele><time>2011-04-27T11:03:36.0000000+00:00</time></trkpt><trkpt lat="22.212412" lon="104.41526"><ele>464.0</ele><time>2011-04-27T11:03:41.0000000+00:00</time></trkpt><trkpt lat="22.212412" lon="104.41526"><ele>464.0</ele><time>2011-04-27T11:03:46.0000000+00:00</time></trkpt><trkpt lat="22.212412" lon="104.41526"><ele>464.0</ele><time>2011-04-27T11:03:51.0000000+00:00</time></trkpt><trkpt lat="22.212412" lon="104.41526"><ele>464.0</ele><time>2011-04-27T11:03:56.0000000+00:00</time></trkpt><trkpt lat="22.212412" lon="104.41526"><ele>464.0</ele><time>2011-04-27T11:04:01.0000000+00:00</time></trkpt><trkpt lat="22.212414" lon="104.41526"><ele>463.9</ele><time>2011-04-27T11:04:06.0000000+00:00</time></trkpt><trkpt lat="22.212414" lon="104.41526"><ele>463.9</ele><time>2011-04-27T11:04:11.0000000+00:00</time></trkpt><trkpt lat="22.212414" lon="104.41526"><ele>463.9</ele><time>2011-04-27T11:04:16.0000000+00:00</time></trkpt><trkpt lat="22.212414" lon="104.41526"><ele>463.9</ele><time>2011-04-27T11:04:21.0000000+00:00</time></trkpt><trkpt lat="22.212414" lon="104.41526"><ele>463.9</ele><time>2011-04-27T11:04:26.0000000+00:00</time></trkpt><trkpt lat="22.212414" lon="104.41526"><ele>463.8</ele><time>2011-04-27T11:04:31.0000000+00:00</time></trkpt><trkpt lat="22.212414" lon="104.41526"><ele>463.8</ele><time>2011-04-27T11:04:36.0000000+00:00</time></trkpt><trkpt lat="22.212414" lon="104.41526"><ele>463.8</ele><time>2011-04-27T11:04:41.0000000+00:00</time></trkpt><trkpt lat="22.212414" lon="104.41526"><ele>463.8</ele><time>2011-04-27T11:04:46.0000000+00:00</time></trkpt><trkpt lat="22.212414" lon="104.41526"><ele>463.8</ele><time>2011-04-27T11:04:51.0000000+00:00</time></trkpt><trkpt lat="22.212414" lon="104.41526"><ele>463.8</ele><time>2011-04-27T11:04:56.0000000+00:00</time></trkpt><trkpt lat="22.212416" lon="104.41526"><ele>463.8</ele><time>2011-04-27T11:05:01.0000000+00:00</time></trkpt><trkpt lat="22.212416" lon="104.41526"><ele>463.8</ele><time>2011-04-27T11:05:06.0000000+00:00</time></trkpt><trkpt lat="22.212416" lon="104.41526"><ele>463.8</ele><time>2011-04-27T11:05:11.0000000+00:00</time></trkpt><trkpt lat="22.212416" lon="104.41526"><ele>463.8</ele><time>2011-04-27T11:05:16.0000000+00:00</time></trkpt><trkpt lat="22.212416" lon="104.41526"><ele>463.7</ele><time>2011-04-27T11:05:21.0000000+00:00</time></trkpt><trkpt lat="22.212418" lon="104.41526"><ele>463.7</ele><time>2011-04-27T11:05:26.0000000+00:00</time></trkpt><trkpt lat="22.212418" lon="104.41526"><ele>463.7</ele><time>2011-04-27T11:05:31.0000000+00:00</time></trkpt><trkpt lat="22.212418" lon="104.41526"><ele>463.6</ele><time>2011-04-27T11:05:36.0000000+00:00</time></trkpt><trkpt lat="22.212418" lon="104.41526"><ele>463.5</ele><time>2011-04-27T11:05:41.0000000+00:00</time></trkpt><trkpt lat="22.212418" lon="104.41526"><ele>463.5</ele><time>2011-04-27T11:05:46.0000000+00:00</time></trkpt><trkpt lat="22.212418" lon="104.41526"><ele>463.4</ele><time>2011-04-27T11:05:51.0000000+00:00</time></trkpt><trkpt lat="22.212418" lon="104.41526"><ele>463.4</ele><time>2011-04-27T11:05:56.0000000+00:00</time></trkpt><trkpt lat="22.212418" lon="104.41526"><ele>463.4</ele><time>2011-04-27T11:06:01.0000000+00:00</time></trkpt><trkpt lat="22.212418" lon="104.41526"><ele>463.4</ele><time>2011-04-27T11:06:06.0000000+00:00</time></trkpt><trkpt lat="22.212418" lon="104.41526"><ele>463.3</ele><time>2011-04-27T11:06:11.0000000+00:00</time></trkpt><trkpt lat="22.212418" lon="104.41526"><ele>463.3</ele><time>2011-04-27T11:06:16.0000000+00:00</time></trkpt><trkpt lat="22.212418" lon="104.41526"><ele>463.4</ele><time>2011-04-27T11:06:21.0000000+00:00</time></trkpt><trkpt lat="22.212418" lon="104.41526"><ele>463.4</ele><time>2011-04-27T11:06:26.0000000+00:00</time></trkpt><trkpt lat="22.212418" lon="104.41526"><ele>463.5</ele><time>2011-04-27T11:06:31.0000000+00:00</time></trkpt><trkpt lat="22.212418" lon="104.41526"><ele>463.5</ele><time>2011-04-27T11:06:36.0000000+00:00</time></trkpt><trkpt lat="22.212418" lon="104.41526"><ele>463.6</ele><time>2011-04-27T11:06:41.0000000+00:00</time></trkpt><trkpt lat="22.212418" lon="104.41526"><ele>463.6</ele><time>2011-04-27T11:06:46.0000000+00:00</time></trkpt><trkpt lat="22.212418" lon="104.41526"><ele>463.7</ele><time>2011-04-27T11:06:51.0000000+00:00</time></trkpt><trkpt lat="22.212418" lon="104.41526"><ele>463.6</ele><time>2011-04-27T11:06:56.0000000+00:00</time></trkpt><trkpt lat="22.212416" lon="104.41526"><ele>463.6</ele><time>2011-04-27T11:07:01.0000000+00:00</time></trkpt><trkpt lat="22.212416" lon="104.41526"><ele>463.7</ele><time>2011-04-27T11:07:06.0000000+00:00</time></trkpt><trkpt lat="22.212414" lon="104.41526"><ele>463.7</ele><time>2011-04-27T11:07:11.0000000+00:00</time></trkpt><trkpt lat="22.212414" lon="104.41526"><ele>463.8</ele><time>2011-04-27T11:07:16.0000000+00:00</time></trkpt><trkpt lat="22.212414" lon="104.41526"><ele>463.8</ele><time>2011-04-27T11:07:21.0000000+00:00</time></trkpt><trkpt lat="22.212414" lon="104.41526"><ele>463.9</ele><time>2011-04-27T11:07:26.0000000+00:00</time></trkpt><trkpt lat="22.212414" lon="104.41526"><ele>463.9</ele><time>2011-04-27T11:07:31.0000000+00:00</time></trkpt><trkpt lat="22.212414" lon="104.415253"><ele>463.9</ele><time>2011-04-27T11:07:36.0000000+00:00</time></trkpt><trkpt lat="22.212412" lon="104.415253"><ele>463.9</ele><time>2011-04-27T11:07:41.0000000+00:00</time></trkpt><trkpt lat="22.212412" lon="104.415253"><ele>463.9</ele><time>2011-04-27T11:07:46.0000000+00:00</time></trkpt><trkpt lat="22.212412" lon="104.415253"><ele>463.9</ele><time>2011-04-27T11:07:51.0000000+00:00</time></trkpt><trkpt lat="22.212412" lon="104.415253"><ele>463.9</ele><time>2011-04-27T11:07:56.0000000+00:00</time></trkpt><trkpt lat="22.21241" lon="104.415253"><ele>464.0</ele><time>2011-04-27T11:08:01.0000000+00:00</time></trkpt><trkpt lat="22.21241" lon="104.415253"><ele>464.0</ele><time>2011-04-27T11:08:06.0000000+00:00</time></trkpt><trkpt lat="22.21241" lon="104.415253"><ele>464.1</ele><time>2011-04-27T11:08:11.0000000+00:00</time></trkpt><trkpt lat="22.21241" lon="104.415253"><ele>464.1</ele><time>2011-04-27T11:08:16.0000000+00:00</time></trkpt><trkpt lat="22.212408" lon="104.415253"><ele>464.2</ele><time>2011-04-27T11:08:21.0000000+00:00</time></trkpt><trkpt lat="22.212408" lon="104.415253"><ele>464.2</ele><time>2011-04-27T11:08:26.0000000+00:00</time></trkpt><trkpt lat="22.212408" lon="104.415253"><ele>464.3</ele><time>2011-04-27T11:08:31.0000000+00:00</time></trkpt><trkpt lat="22.212408" lon="104.415253"><ele>464.3</ele><time>2011-04-27T11:08:36.0000000+00:00</time></trkpt><trkpt lat="22.212408" lon="104.415253"><ele>464.4</ele><time>2011-04-27T11:08:41.0000000+00:00</time></trkpt><trkpt lat="22.212406" lon="104.415253"><ele>464.4</ele><time>2011-04-27T11:08:46.0000000+00:00</time></trkpt><trkpt lat="22.212406" lon="104.415253"><ele>464.4</ele><time>2011-04-27T11:08:51.0000000+00:00</time></trkpt><trkpt lat="22.212406" lon="104.415253"><ele>464.4</ele><time>2011-04-27T11:08:56.0000000+00:00</time></trkpt><trkpt lat="22.212406" lon="104.415253"><ele>464.4</ele><time>2011-04-27T11:09:01.0000000+00:00</time></trkpt><trkpt lat="22.212406" lon="104.415253"><ele>464.5</ele><time>2011-04-27T11:09:06.0000000+00:00</time></trkpt><trkpt lat="22.212406" lon="104.415253"><ele>464.5</ele><time>2011-04-27T11:09:11.0000000+00:00</time></trkpt><trkpt lat="22.212406" lon="104.415253"><ele>464.6</ele><time>2011-04-27T11:09:16.0000000+00:00</time></trkpt><trkpt lat="22.212406" lon="104.415253"><ele>464.6</ele><time>2011-04-27T11:09:21.0000000+00:00</time></trkpt><trkpt lat="22.212406" lon="104.415245"><ele>464.6</ele><time>2011-04-27T11:09:26.0000000+00:00</time></trkpt><trkpt lat="22.212406" lon="104.415253"><ele>464.6</ele><time>2011-04-27T11:09:31.0000000+00:00</time></trkpt><trkpt lat="22.212406" lon="104.415253"><ele>464.7</ele><time>2011-04-27T11:09:36.0000000+00:00</time></trkpt><trkpt lat="22.212406" lon="104.415253"><ele>464.7</ele><time>2011-04-27T11:09:41.0000000+00:00</time></trkpt><trkpt lat="22.212406" lon="104.415253"><ele>464.7</ele><time>2011-04-27T11:09:46.0000000+00:00</time></trkpt><trkpt lat="22.212406" lon="104.415253"><ele>464.7</ele><time>2011-04-27T11:09:51.0000000+00:00</time></trkpt><trkpt lat="22.212404" lon="104.415253"><ele>464.7</ele><time>2011-04-27T11:09:56.0000000+00:00</time></trkpt><trkpt lat="22.212404" lon="104.415253"><ele>464.7</ele><time>2011-04-27T11:10:01.0000000+00:00</time></trkpt><trkpt lat="22.212404" lon="104.415253"><ele>464.7</ele><time>2011-04-27T11:10:06.0000000+00:00</time></trkpt><trkpt lat="22.212404" lon="104.415253"><ele>464.7</ele><time>2011-04-27T11:10:11.0000000+00:00</time></trkpt><trkpt lat="22.212404" lon="104.415253"><ele>464.8</ele><time>2011-04-27T11:10:16.0000000+00:00</time></trkpt><trkpt lat="22.212404" lon="104.415253"><ele>464.8</ele><time>2011-04-27T11:10:21.0000000+00:00</time></trkpt><trkpt lat="22.212404" lon="104.415253"><ele>464.8</ele><time>2011-04-27T11:10:26.0000000+00:00</time></trkpt><trkpt lat="22.212404" lon="104.415253"><ele>464.8</ele><time>2011-04-27T11:10:31.0000000+00:00</time></trkpt><trkpt lat="22.212402" lon="104.415253"><ele>464.8</ele><time>2011-04-27T11:10:36.0000000+00:00</time></trkpt><trkpt lat="22.212402" lon="104.415253"><ele>464.8</ele><time>2011-04-27T11:10:41.0000000+00:00</time></trkpt><trkpt lat="22.212402" lon="104.415253"><ele>464.8</ele><time>2011-04-27T11:10:46.0000000+00:00</time></trkpt><trkpt lat="22.2124" lon="104.415253"><ele>464.7</ele><time>2011-04-27T11:10:51.0000000+00:00</time></trkpt><trkpt lat="22.2124" lon="104.415253"><ele>464.7</ele><time>2011-04-27T11:10:56.0000000+00:00</time></trkpt><trkpt lat="22.2124" lon="104.415253"><ele>464.7</ele><time>2011-04-27T11:11:01.0000000+00:00</time></trkpt><trkpt lat="22.212399" lon="104.415253"><ele>464.7</ele><time>2011-04-27T11:11:06.0000000+00:00</time></trkpt><trkpt lat="22.212399" lon="104.415253"><ele>464.7</ele><time>2011-04-27T11:11:11.0000000+00:00</time></trkpt><trkpt lat="22.212399" lon="104.415253"><ele>464.7</ele><time>2011-04-27T11:11:16.0000000+00:00</time></trkpt><trkpt lat="22.212399" lon="104.415253"><ele>464.6</ele><time>2011-04-27T11:11:21.0000000+00:00</time></trkpt><trkpt lat="22.212399" lon="104.415253"><ele>464.5</ele><time>2011-04-27T11:11:26.0000000+00:00</time></trkpt><trkpt lat="22.212399" lon="104.415253"><ele>464.5</ele><time>2011-04-27T11:11:31.0000000+00:00</time></trkpt><trkpt lat="22.212399" lon="104.415253"><ele>464.5</ele><time>2011-04-27T11:11:36.0000000+00:00</time></trkpt><trkpt lat="22.212399" lon="104.415253"><ele>464.5</ele><time>2011-04-27T11:11:41.0000000+00:00</time></trkpt><trkpt lat="22.212399" lon="104.415253"><ele>464.5</ele><time>2011-04-27T11:11:46.0000000+00:00</time></trkpt><trkpt lat="22.212397" lon="104.415253"><ele>464.5</ele><time>2011-04-27T11:11:51.0000000+00:00</time></trkpt><trkpt lat="22.212397" lon="104.415253"><ele>464.6</ele><time>2011-04-27T11:11:56.0000000+00:00</time></trkpt><trkpt lat="22.212397" lon="104.415253"><ele>464.6</ele><time>2011-04-27T11:12:01.0000000+00:00</time></trkpt><trkpt lat="22.212397" lon="104.415253"><ele>464.6</ele><time>2011-04-27T11:12:06.0000000+00:00</time></trkpt><trkpt lat="22.212397" lon="104.415253"><ele>464.6</ele><time>2011-04-27T11:12:11.0000000+00:00</time></trkpt><trkpt lat="22.212395" lon="104.415253"><ele>464.5</ele><time>2011-04-27T11:12:16.0000000+00:00</time></trkpt><trkpt lat="22.212395" lon="104.415253"><ele>464.5</ele><time>2011-04-27T11:12:21.0000000+00:00</time></trkpt><trkpt lat="22.212395" lon="104.415253"><ele>464.5</ele><time>2011-04-27T11:12:26.0000000+00:00</time></trkpt><trkpt lat="22.212395" lon="104.41526"><ele>464.5</ele><time>2011-04-27T11:12:31.0000000+00:00</time></trkpt><trkpt lat="22.212393" lon="104.41526"><ele>464.5</ele><time>2011-04-27T11:12:36.0000000+00:00</time></trkpt><trkpt lat="22.212393" lon="104.41526"><ele>464.5</ele><time>2011-04-27T11:12:41.0000000+00:00</time></trkpt><trkpt lat="22.212393" lon="104.41526"><ele>464.5</ele><time>2011-04-27T11:12:46.0000000+00:00</time></trkpt><trkpt lat="22.212393" lon="104.41526"><ele>464.5</ele><time>2011-04-27T11:12:51.0000000+00:00</time></trkpt><trkpt lat="22.212393" lon="104.41526"><ele>464.5</ele><time>2011-04-27T11:12:56.0000000+00:00</time></trkpt><trkpt lat="22.212393" lon="104.41526"><ele>464.5</ele><time>2011-04-27T11:13:01.0000000+00:00</time></trkpt><trkpt lat="22.212393" lon="104.41526"><ele>464.5</ele><time>2011-04-27T11:13:06.0000000+00:00</time></trkpt><trkpt lat="22.212393" lon="104.41526"><ele>464.5</ele><time>2011-04-27T11:13:11.0000000+00:00</time></trkpt><trkpt lat="22.212393" lon="104.41526"><ele>464.5</ele><time>2011-04-27T11:13:16.0000000+00:00</time></trkpt><trkpt lat="22.212393" lon="104.41526"><ele>464.5</ele><time>2011-04-27T11:13:21.0000000+00:00</time></trkpt><trkpt lat="22.212393" lon="104.41526"><ele>464.4</ele><time>2011-04-27T11:13:26.0000000+00:00</time></trkpt><trkpt lat="22.212393" lon="104.41526"><ele>464.4</ele><time>2011-04-27T11:13:31.0000000+00:00</time></trkpt><trkpt lat="22.212393" lon="104.41526"><ele>464.4</ele><time>2011-04-27T11:13:36.0000000+00:00</time></trkpt><trkpt lat="22.212393" lon="104.41526"><ele>464.4</ele><time>2011-04-27T11:13:41.0000000+00:00</time></trkpt><trkpt lat="22.212391" lon="104.41526"><ele>464.3</ele><time>2011-04-27T11:13:46.0000000+00:00</time></trkpt><trkpt lat="22.212391" lon="104.41526"><ele>464.3</ele><time>2011-04-27T11:13:51.0000000+00:00</time></trkpt><trkpt lat="22.212391" lon="104.41526"><ele>464.3</ele><time>2011-04-27T11:13:56.0000000+00:00</time></trkpt><trkpt lat="22.212391" lon="104.41526"><ele>464.2</ele><time>2011-04-27T11:14:01.0000000+00:00</time></trkpt><trkpt lat="22.212389" lon="104.41526"><ele>464.2</ele><time>2011-04-27T11:14:06.0000000+00:00</time></trkpt><trkpt lat="22.212389" lon="104.41526"><ele>464.1</ele><time>2011-04-27T11:14:11.0000000+00:00</time></trkpt><trkpt lat="22.212389" lon="104.41526"><ele>464.1</ele><time>2011-04-27T11:14:16.0000000+00:00</time></trkpt><trkpt lat="22.212387" lon="104.41526"><ele>464.1</ele><time>2011-04-27T11:14:21.0000000+00:00</time></trkpt><trkpt lat="22.212387" lon="104.41526"><ele>464.1</ele><time>2011-04-27T11:14:26.0000000+00:00</time></trkpt><trkpt lat="22.212387" lon="104.41526"><ele>464.1</ele><time>2011-04-27T11:14:31.0000000+00:00</time></trkpt><trkpt lat="22.212387" lon="104.41526"><ele>464.1</ele><time>2011-04-27T11:14:36.0000000+00:00</time></trkpt><trkpt lat="22.212385" lon="104.41526"><ele>464.1</ele><time>2011-04-27T11:14:41.0000000+00:00</time></trkpt><trkpt lat="22.212385" lon="104.41526"><ele>464.1</ele><time>2011-04-27T11:14:46.0000000+00:00</time></trkpt><trkpt lat="22.212385" lon="104.41526"><ele>464.1</ele><time>2011-04-27T11:14:51.0000000+00:00</time></trkpt><trkpt lat="22.212383" lon="104.415268"><ele>464.1</ele><time>2011-04-27T11:14:56.0000000+00:00</time></trkpt><trkpt lat="22.212383" lon="104.415268"><ele>464.1</ele><time>2011-04-27T11:15:01.0000000+00:00</time></trkpt><trkpt lat="22.212383" lon="104.415268"><ele>464.2</ele><time>2011-04-27T11:15:06.0000000+00:00</time></trkpt><trkpt lat="22.212383" lon="104.415268"><ele>464.2</ele><time>2011-04-27T11:15:11.0000000+00:00</time></trkpt><trkpt lat="22.212383" lon="104.415268"><ele>464.2</ele><time>2011-04-27T11:15:16.0000000+00:00</time></trkpt><trkpt lat="22.212381" lon="104.415268"><ele>464.2</ele><time>2011-04-27T11:15:21.0000000+00:00</time></trkpt><trkpt lat="22.212381" lon="104.415268"><ele>464.2</ele><time>2011-04-27T11:15:26.0000000+00:00</time></trkpt><trkpt lat="22.212381" lon="104.415268"><ele>464.2</ele><time>2011-04-27T11:15:31.0000000+00:00</time></trkpt><trkpt lat="22.212381" lon="104.415268"><ele>464.1</ele><time>2011-04-27T11:15:36.0000000+00:00</time></trkpt><trkpt lat="22.212381" lon="104.415268"><ele>464.1</ele><time>2011-04-27T11:15:41.0000000+00:00</time></trkpt><trkpt lat="22.212381" lon="104.415268"><ele>464.1</ele><time>2011-04-27T11:15:46.0000000+00:00</time></trkpt><trkpt lat="22.212381" lon="104.415268"><ele>464.1</ele><time>2011-04-27T11:15:51.0000000+00:00</time></trkpt><trkpt lat="22.212381" lon="104.415268"><ele>464.0</ele><time>2011-04-27T11:15:56.0000000+00:00</time></trkpt><trkpt lat="22.212381" lon="104.415268"><ele>464.0</ele><time>2011-04-27T11:16:01.0000000+00:00</time></trkpt><trkpt lat="22.212381" lon="104.415268"><ele>463.9</ele><time>2011-04-27T11:16:06.0000000+00:00</time></trkpt><trkpt lat="22.212381" lon="104.415268"><ele>463.9</ele><time>2011-04-27T11:16:11.0000000+00:00</time></trkpt><trkpt lat="22.212381" lon="104.415268"><ele>463.9</ele><time>2011-04-27T11:16:16.0000000+00:00</time></trkpt><trkpt lat="22.212381" lon="104.415268"><ele>463.8</ele><time>2011-04-27T11:16:21.0000000+00:00</time></trkpt><trkpt lat="22.212379" lon="104.415268"><ele>463.8</ele><time>2011-04-27T11:16:26.0000000+00:00</time></trkpt><trkpt lat="22.212379" lon="104.415268"><ele>463.8</ele><time>2011-04-27T11:16:31.0000000+00:00</time></trkpt><trkpt lat="22.212379" lon="104.415268"><ele>463.8</ele><time>2011-04-27T11:16:36.0000000+00:00</time></trkpt><trkpt lat="22.212378" lon="104.415268"><ele>463.7</ele><time>2011-04-27T11:16:41.0000000+00:00</time></trkpt><trkpt lat="22.212378" lon="104.415268"><ele>463.6</ele><time>2011-04-27T11:16:46.0000000+00:00</time></trkpt><trkpt lat="22.212376" lon="104.415268"><ele>463.5</ele><time>2011-04-27T11:16:51.0000000+00:00</time></trkpt><trkpt lat="22.212376" lon="104.415268"><ele>463.5</ele><time>2011-04-27T11:16:56.0000000+00:00</time></trkpt><trkpt lat="22.212376" lon="104.415268"><ele>463.5</ele><time>2011-04-27T11:17:01.0000000+00:00</time></trkpt><trkpt lat="22.212374" lon="104.415268"><ele>463.5</ele><time>2011-04-27T11:17:06.0000000+00:00</time></trkpt><trkpt lat="22.212374" lon="104.415268"><ele>463.4</ele><time>2011-04-27T11:17:11.0000000+00:00</time></trkpt><trkpt lat="22.212372" lon="104.415276"><ele>463.4</ele><time>2011-04-27T11:17:16.0000000+00:00</time></trkpt><trkpt lat="22.212372" lon="104.415276"><ele>463.3</ele><time>2011-04-27T11:17:21.0000000+00:00</time></trkpt><trkpt lat="22.212372" lon="104.415276"><ele>463.3</ele><time>2011-04-27T11:17:26.0000000+00:00</time></trkpt><trkpt lat="22.212372" lon="104.415276"><ele>463.2</ele><time>2011-04-27T11:17:31.0000000+00:00</time></trkpt><trkpt lat="22.212372" lon="104.415276"><ele>463.2</ele><time>2011-04-27T11:17:36.0000000+00:00</time></trkpt><trkpt lat="22.21237" lon="104.415276"><ele>463.2</ele><time>2011-04-27T11:17:41.0000000+00:00</time></trkpt><trkpt lat="22.21237" lon="104.415276"><ele>463.2</ele><time>2011-04-27T11:17:46.0000000+00:00</time></trkpt><trkpt lat="22.21237" lon="104.415276"><ele>463.2</ele><time>2011-04-27T11:17:51.0000000+00:00</time></trkpt><trkpt lat="22.21237" lon="104.415276"><ele>463.2</ele><time>2011-04-27T11:17:56.0000000+00:00</time></trkpt><trkpt lat="22.21237" lon="104.415276"><ele>463.2</ele><time>2011-04-27T11:18:01.0000000+00:00</time></trkpt><trkpt lat="22.21237" lon="104.415276"><ele>463.2</ele><time>2011-04-27T11:18:06.0000000+00:00</time></trkpt><trkpt lat="22.21237" lon="104.415276"><ele>463.2</ele><time>2011-04-27T11:18:11.0000000+00:00</time></trkpt><trkpt lat="22.212368" lon="104.415276"><ele>463.2</ele><time>2011-04-27T11:18:16.0000000+00:00</time></trkpt><trkpt lat="22.212368" lon="104.415276"><ele>463.2</ele><time>2011-04-27T11:18:21.0000000+00:00</time></trkpt><trkpt lat="22.212368" lon="104.415276"><ele>463.2</ele><time>2011-04-27T11:18:26.0000000+00:00</time></trkpt><trkpt lat="22.212368" lon="104.415276"><ele>463.1</ele><time>2011-04-27T11:18:31.0000000+00:00</time></trkpt><trkpt lat="22.212368" lon="104.415276"><ele>463.0</ele><time>2011-04-27T11:18:36.0000000+00:00</time></trkpt><trkpt lat="22.212368" lon="104.415276"><ele>463.0</ele><time>2011-04-27T11:18:41.0000000+00:00</time></trkpt><trkpt lat="22.212368" lon="104.415276"><ele>463.0</ele><time>2011-04-27T11:18:46.0000000+00:00</time></trkpt><trkpt lat="22.212366" lon="104.415276"><ele>463.0</ele><time>2011-04-27T11:18:51.0000000+00:00</time></trkpt><trkpt lat="22.212366" lon="104.415276"><ele>462.9</ele><time>2011-04-27T11:18:56.0000000+00:00</time></trkpt><trkpt lat="22.212366" lon="104.415276"><ele>463.0</ele><time>2011-04-27T11:19:01.0000000+00:00</time></trkpt><trkpt lat="22.212366" lon="104.415276"><ele>463.0</ele><time>2011-04-27T11:19:06.0000000+00:00</time></trkpt><trkpt lat="22.212366" lon="104.415283"><ele>463.0</ele><time>2011-04-27T11:19:11.0000000+00:00</time></trkpt><trkpt lat="22.212366" lon="104.415283"><ele>463.0</ele><time>2011-04-27T11:19:16.0000000+00:00</time></trkpt><trkpt lat="22.212366" lon="104.415283"><ele>463.0</ele><time>2011-04-27T11:19:21.0000000+00:00</time></trkpt><trkpt lat="22.212366" lon="104.415283"><ele>463.1</ele><time>2011-04-27T11:19:26.0000000+00:00</time></trkpt><trkpt lat="22.212366" lon="104.415283"><ele>463.0</ele><time>2011-04-27T11:19:31.0000000+00:00</time></trkpt><trkpt lat="22.212366" lon="104.415283"><ele>463.0</ele><time>2011-04-27T11:19:36.0000000+00:00</time></trkpt><trkpt lat="22.212366" lon="104.415283"><ele>463.0</ele><time>2011-04-27T11:19:41.0000000+00:00</time></trkpt><trkpt lat="22.212364" lon="104.415283"><ele>463.0</ele><time>2011-04-27T11:19:46.0000000+00:00</time></trkpt><trkpt lat="22.212364" lon="104.415283"><ele>463.0</ele><time>2011-04-27T11:19:51.0000000+00:00</time></trkpt><trkpt lat="22.212364" lon="104.415283"><ele>463.0</ele><time>2011-04-27T11:19:56.0000000+00:00</time></trkpt><trkpt lat="22.212364" lon="104.415283"><ele>463.0</ele><time>2011-04-27T11:20:01.0000000+00:00</time></trkpt><trkpt lat="22.212364" lon="104.415283"><ele>463.1</ele><time>2011-04-27T11:20:06.0000000+00:00</time></trkpt><trkpt lat="22.212364" lon="104.415283"><ele>463.0</ele><time>2011-04-27T11:20:11.0000000+00:00</time></trkpt><trkpt lat="22.212364" lon="104.415283"><ele>463.0</ele><time>2011-04-27T11:20:16.0000000+00:00</time></trkpt><trkpt lat="22.212364" lon="104.415283"><ele>463.0</ele><time>2011-04-27T11:20:21.0000000+00:00</time></trkpt><trkpt lat="22.212366" lon="104.415283"><ele>463.0</ele><time>2011-04-27T11:20:26.0000000+00:00</time></trkpt><trkpt lat="22.212364" lon="104.41526"><ele>462.4</ele><time>2011-04-27T11:20:31.0000000+00:00</time></trkpt><trkpt lat="22.212376" lon="104.415237"><ele>460.7</ele><time>2011-04-27T11:20:36.0000000+00:00</time></trkpt><trkpt lat="22.212372" lon="104.41523"><ele>460.6</ele><time>2011-04-27T11:20:41.0000000+00:00</time></trkpt><trkpt lat="22.212343" lon="104.41523"><ele>460.4</ele><time>2011-04-27T11:20:46.0000000+00:00</time></trkpt><trkpt lat="22.212337" lon="104.415283"><ele>460.2</ele><time>2011-04-27T11:20:51.0000000+00:00</time></trkpt><trkpt lat="22.212358" lon="104.415359"><ele>459.0</ele><time>2011-04-27T11:20:56.0000000+00:00</time></trkpt><trkpt lat="22.212383" lon="104.415474"><ele>459.3</ele><time>2011-04-27T11:21:01.0000000+00:00</time></trkpt><trkpt lat="22.212416" lon="104.415642"><ele>459.3</ele><time>2011-04-27T11:21:06.0000000+00:00</time></trkpt><trkpt lat="22.212461" lon="104.415802"><ele>458.1</ele><time>2011-04-27T11:21:11.0000000+00:00</time></trkpt><trkpt lat="22.212635" lon="104.415909"><ele>456.9</ele><time>2011-04-27T11:21:16.0000000+00:00</time></trkpt><trkpt lat="22.212786" lon="104.416061"><ele>454.7</ele><time>2011-04-27T11:21:21.0000000+00:00</time></trkpt><trkpt lat="22.212795" lon="104.416283"><ele>453.6</ele><time>2011-04-27T11:21:26.0000000+00:00</time></trkpt><trkpt lat="22.212687" lon="104.41655"><ele>451.4</ele><time>2011-04-27T11:21:31.0000000+00:00</time></trkpt><trkpt lat="22.212658" lon="104.416801"><ele>451.7</ele><time>2011-04-27T11:21:36.0000000+00:00</time></trkpt><trkpt lat="22.212725" lon="104.417023"><ele>451.2</ele><time>2011-04-27T11:21:41.0000000+00:00</time></trkpt><trkpt lat="22.212881" lon="104.417175"><ele>450.2</ele><time>2011-04-27T11:21:46.0000000+00:00</time></trkpt><trkpt lat="22.212975" lon="104.417336"><ele>450.1</ele><time>2011-04-27T11:21:51.0000000+00:00</time></trkpt><trkpt lat="22.212957" lon="104.417564"><ele>449.4</ele><time>2011-04-27T11:21:56.0000000+00:00</time></trkpt><trkpt lat="22.212931" lon="104.41787"><ele>447.4</ele><time>2011-04-27T11:22:01.0000000+00:00</time></trkpt><trkpt lat="22.212961" lon="104.41819"><ele>445.2</ele><time>2011-04-27T11:22:06.0000000+00:00</time></trkpt><trkpt lat="22.212996" lon="104.418449"><ele>443.7</ele><time>2011-04-27T11:22:11.0000000+00:00</time></trkpt><trkpt lat="22.213137" lon="104.418663"><ele>440.9</ele><time>2011-04-27T11:22:16.0000000+00:00</time></trkpt><trkpt lat="22.21339" lon="104.418755"><ele>438.2</ele><time>2011-04-27T11:22:21.0000000+00:00</time></trkpt><trkpt lat="22.213593" lon="104.418785"><ele>435.8</ele><time>2011-04-27T11:22:26.0000000+00:00</time></trkpt><trkpt lat="22.213812" lon="104.418861"><ele>433.1</ele><time>2011-04-27T11:22:31.0000000+00:00</time></trkpt><trkpt lat="22.214052" lon="104.419044"><ele>431.2</ele><time>2011-04-27T11:22:36.0000000+00:00</time></trkpt><trkpt lat="22.214306" lon="104.419258"><ele>428.2</ele><time>2011-04-27T11:22:41.0000000+00:00</time></trkpt><trkpt lat="22.214542" lon="104.419472"><ele>424.8</ele><time>2011-04-27T11:22:46.0000000+00:00</time></trkpt><trkpt lat="22.214693" lon="104.419678"><ele>421.4</ele><time>2011-04-27T11:22:51.0000000+00:00</time></trkpt><trkpt lat="22.214687" lon="104.419914"><ele>419.5</ele><time>2011-04-27T11:22:56.0000000+00:00</time></trkpt><trkpt lat="22.21459" lon="104.420174"><ele>418.7</ele><time>2011-04-27T11:23:01.0000000+00:00</time></trkpt><trkpt lat="22.21442" lon="104.420372"><ele>416.1</ele><time>2011-04-27T11:23:06.0000000+00:00</time></trkpt><trkpt lat="22.214235" lon="104.42054"><ele>415.5</ele><time>2011-04-27T11:23:11.0000000+00:00</time></trkpt><trkpt lat="22.214087" lon="104.420753"><ele>414.6</ele><time>2011-04-27T11:23:16.0000000+00:00</time></trkpt><trkpt lat="22.214024" lon="104.421059"><ele>412.5</ele><time>2011-04-27T11:23:21.0000000+00:00</time></trkpt><trkpt lat="22.214031" lon="104.421333"><ele>409.1</ele><time>2011-04-27T11:23:26.0000000+00:00</time></trkpt><trkpt lat="22.213907" lon="104.421585"><ele>406.2</ele><time>2011-04-27T11:23:31.0000000+00:00</time></trkpt><trkpt lat="22.213776" lon="104.421806"><ele>403.4</ele><time>2011-04-27T11:23:36.0000000+00:00</time></trkpt><trkpt lat="22.213655" lon="104.42205"><ele>399.9</ele><time>2011-04-27T11:23:41.0000000+00:00</time></trkpt><trkpt lat="22.213575" lon="104.422249"><ele>397.7</ele><time>2011-04-27T11:23:46.0000000+00:00</time></trkpt><trkpt lat="22.213551" lon="104.422432"><ele>396.9</ele><time>2011-04-27T11:23:51.0000000+00:00</time></trkpt><trkpt lat="22.213655" lon="104.422585"><ele>393.7</ele><time>2011-04-27T11:23:56.0000000+00:00</time></trkpt><trkpt lat="22.213846" lon="104.422607"><ele>391.0</ele><time>2011-04-27T11:24:01.0000000+00:00</time></trkpt><trkpt lat="22.214018" lon="104.42263"><ele>388.6</ele><time>2011-04-27T11:24:06.0000000+00:00</time></trkpt><trkpt lat="22.21422" lon="104.422684"><ele>385.3</ele><time>2011-04-27T11:24:11.0000000+00:00</time></trkpt><trkpt lat="22.21446" lon="104.422768"><ele>381.7</ele><time>2011-04-27T11:24:16.0000000+00:00</time></trkpt><trkpt lat="22.214649" lon="104.422829"><ele>378.5</ele><time>2011-04-27T11:24:21.0000000+00:00</time></trkpt><trkpt lat="22.214834" lon="104.422882"><ele>376.3</ele><time>2011-04-27T11:24:26.0000000+00:00</time></trkpt><trkpt lat="22.214987" lon="104.422951"><ele>376.1</ele><time>2011-04-27T11:24:31.0000000+00:00</time></trkpt><trkpt lat="22.21513" lon="104.422997"><ele>377.1</ele><time>2011-04-27T11:24:36.0000000+00:00</time></trkpt><trkpt lat="22.215286" lon="104.422997"><ele>377.4</ele><time>2011-04-27T11:24:41.0000000+00:00</time></trkpt><trkpt lat="22.215385" lon="104.423012"><ele>379.9</ele><time>2011-04-27T11:24:46.0000000+00:00</time></trkpt><trkpt lat="22.215479" lon="104.423012"><ele>383.1</ele><time>2011-04-27T11:24:51.0000000+00:00</time></trkpt><trkpt lat="22.215574" lon="104.423035"><ele>386.2</ele><time>2011-04-27T11:24:56.0000000+00:00</time></trkpt><trkpt lat="22.215652" lon="104.423027"><ele>388.5</ele><time>2011-04-27T11:25:01.0000000+00:00</time></trkpt><trkpt lat="22.215731" lon="104.423019"><ele>389.9</ele><time>2011-04-27T11:25:06.0000000+00:00</time></trkpt><trkpt lat="22.215788" lon="104.423035"><ele>392.4</ele><time>2011-04-27T11:25:11.0000000+00:00</time></trkpt><trkpt lat="22.21586" lon="104.423058"><ele>394.6</ele><time>2011-04-27T11:25:16.0000000+00:00</time></trkpt><trkpt lat="22.215935" lon="104.423088"><ele>396.9</ele><time>2011-04-27T11:25:21.0000000+00:00</time></trkpt><trkpt lat="22.216015" lon="104.423187"><ele>399.0</ele><time>2011-04-27T11:25:26.0000000+00:00</time></trkpt><trkpt lat="22.216051" lon="104.423286"><ele>400.2</ele><time>2011-04-27T11:25:31.0000000+00:00</time></trkpt><trkpt lat="22.216038" lon="104.423416"><ele>402.1</ele><time>2011-04-27T11:25:36.0000000+00:00</time></trkpt><trkpt lat="22.216009" lon="104.423523"><ele>403.7</ele><time>2011-04-27T11:25:41.0000000+00:00</time></trkpt><trkpt lat="22.21594" lon="104.423653"><ele>404.3</ele><time>2011-04-27T11:25:46.0000000+00:00</time></trkpt><trkpt lat="22.215855" lon="104.423859"><ele>402.3</ele><time>2011-04-27T11:25:51.0000000+00:00</time></trkpt><trkpt lat="22.215788" lon="104.423996"><ele>402.8</ele><time>2011-04-27T11:25:56.0000000+00:00</time></trkpt><trkpt lat="22.215763" lon="104.424072"><ele>404.3</ele><time>2011-04-27T11:26:01.0000000+00:00</time></trkpt><trkpt lat="22.215769" lon="104.424088"><ele>405.5</ele><time>2011-04-27T11:26:06.0000000+00:00</time></trkpt><trkpt lat="22.215775" lon="104.42408"><ele>406.4</ele><time>2011-04-27T11:26:11.0000000+00:00</time></trkpt><trkpt lat="22.215776" lon="104.424088"><ele>406.8</ele><time>2011-04-27T11:26:16.0000000+00:00</time></trkpt><trkpt lat="22.215775" lon="104.424088"><ele>406.9</ele><time>2011-04-27T11:26:21.0000000+00:00</time></trkpt><trkpt lat="22.215771" lon="104.424095"><ele>407.0</ele><time>2011-04-27T11:26:26.0000000+00:00</time></trkpt><trkpt lat="22.215784" lon="104.424141"><ele>406.2</ele><time>2011-04-27T11:26:31.0000000+00:00</time></trkpt><trkpt lat="22.215763" lon="104.424232"><ele>405.7</ele><time>2011-04-27T11:26:36.0000000+00:00</time></trkpt><trkpt lat="22.215759" lon="104.424332"><ele>407.2</ele><time>2011-04-27T11:26:41.0000000+00:00</time></trkpt><trkpt lat="22.21574" lon="104.424438"><ele>407.4</ele><time>2011-04-27T11:26:46.0000000+00:00</time></trkpt><trkpt lat="22.215687" lon="104.424553"><ele>407.3</ele><time>2011-04-27T11:26:51.0000000+00:00</time></trkpt><trkpt lat="22.215576" lon="104.42466"><ele>406.2</ele><time>2011-04-27T11:26:56.0000000+00:00</time></trkpt><trkpt lat="22.215458" lon="104.424759"><ele>405.8</ele><time>2011-04-27T11:27:01.0000000+00:00</time></trkpt><trkpt lat="22.215338" lon="104.424858"><ele>404.8</ele><time>2011-04-27T11:27:06.0000000+00:00</time></trkpt><trkpt lat="22.215231" lon="104.424988"><ele>403.5</ele><time>2011-04-27T11:27:11.0000000+00:00</time></trkpt><trkpt lat="22.21516" lon="104.42514"><ele>402.1</ele><time>2011-04-27T11:27:16.0000000+00:00</time></trkpt><trkpt lat="22.215113" lon="104.425262"><ele>400.3</ele><time>2011-04-27T11:27:21.0000000+00:00</time></trkpt><trkpt lat="22.215052" lon="104.425377"><ele>400.6</ele><time>2011-04-27T11:27:26.0000000+00:00</time></trkpt><trkpt lat="22.21496" lon="104.425499"><ele>400.7</ele><time>2011-04-27T11:27:31.0000000+00:00</time></trkpt><trkpt lat="22.214855" lon="104.425606"><ele>399.7</ele><time>2011-04-27T11:27:36.0000000+00:00</time></trkpt><trkpt lat="22.214767" lon="104.425705"><ele>398.6</ele><time>2011-04-27T11:27:41.0000000+00:00</time></trkpt><trkpt lat="22.214678" lon="104.425812"><ele>399.1</ele><time>2011-04-27T11:27:46.0000000+00:00</time></trkpt><trkpt lat="22.214611" lon="104.425957"><ele>399.4</ele><time>2011-04-27T11:27:51.0000000+00:00</time></trkpt><trkpt lat="22.214563" lon="104.426125"><ele>399.2</ele><time>2011-04-27T11:27:56.0000000+00:00</time></trkpt><trkpt lat="22.214514" lon="104.4263"><ele>398.8</ele><time>2011-04-27T11:28:01.0000000+00:00</time></trkpt><trkpt lat="22.214418" lon="104.426491"><ele>398.3</ele><time>2011-04-27T11:28:06.0000000+00:00</time></trkpt><trkpt lat="22.214285" lon="104.426704"><ele>396.4</ele><time>2011-04-27T11:28:11.0000000+00:00</time></trkpt><trkpt lat="22.214207" lon="104.426979"><ele>395.7</ele><time>2011-04-27T11:28:16.0000000+00:00</time></trkpt><trkpt lat="22.214308" lon="104.427231"><ele>394.3</ele><time>2011-04-27T11:28:21.0000000+00:00</time></trkpt><trkpt lat="22.214561" lon="104.427269"><ele>393.1</ele><time>2011-04-27T11:28:26.0000000+00:00</time></trkpt><trkpt lat="22.214825" lon="104.427162"><ele>387.7</ele><time>2011-04-27T11:28:31.0000000+00:00</time></trkpt><trkpt lat="22.214985" lon="104.426956"><ele>385.0</ele><time>2011-04-27T11:28:36.0000000+00:00</time></trkpt><trkpt lat="22.215246" lon="104.426804"><ele>383.1</ele><time>2011-04-27T11:28:41.0000000+00:00</time></trkpt><trkpt lat="22.21553" lon="104.426788"><ele>382.9</ele><time>2011-04-27T11:28:46.0000000+00:00</time></trkpt><trkpt lat="22.215698" lon="104.426956"><ele>382.6</ele><time>2011-04-27T11:28:51.0000000+00:00</time></trkpt><trkpt lat="22.215685" lon="104.427208"><ele>381.6</ele><time>2011-04-27T11:28:56.0000000+00:00</time></trkpt><trkpt lat="22.215622" lon="104.427582"><ele>378.8</ele><time>2011-04-27T11:29:01.0000000+00:00</time></trkpt><trkpt lat="22.215555" lon="104.427925"><ele>375.8</ele><time>2011-04-27T11:29:06.0000000+00:00</time></trkpt><trkpt lat="22.215578" lon="104.428253"><ele>372.2</ele><time>2011-04-27T11:29:11.0000000+00:00</time></trkpt><trkpt lat="22.215611" lon="104.428574"><ele>373.2</ele><time>2011-04-27T11:29:16.0000000+00:00</time></trkpt><trkpt lat="22.215616" lon="104.428833"><ele>370.0</ele><time>2011-04-27T11:29:21.0000000+00:00</time></trkpt><trkpt lat="22.215565" lon="104.429047"><ele>368.9</ele><time>2011-04-27T11:29:26.0000000+00:00</time></trkpt><trkpt lat="22.215425" lon="104.429321"><ele>370.1</ele><time>2011-04-27T11:29:31.0000000+00:00</time></trkpt><trkpt lat="22.215254" lon="104.429596"><ele>371.5</ele><time>2011-04-27T11:29:36.0000000+00:00</time></trkpt><trkpt lat="22.215084" lon="104.429832"><ele>370.1</ele><time>2011-04-27T11:29:41.0000000+00:00</time></trkpt><trkpt lat="22.214899" lon="104.430069"><ele>369.3</ele><time>2011-04-27T11:29:46.0000000+00:00</time></trkpt><trkpt lat="22.214836" lon="104.430367"><ele>367.5</ele><time>2011-04-27T11:29:51.0000000+00:00</time></trkpt><trkpt lat="22.214987" lon="104.430656"><ele>363.9</ele><time>2011-04-27T11:29:56.0000000+00:00</time></trkpt><trkpt lat="22.215258" lon="104.430817"><ele>360.6</ele><time>2011-04-27T11:30:01.0000000+00:00</time></trkpt><trkpt lat="22.215534" lon="104.430954"><ele>357.8</ele><time>2011-04-27T11:30:06.0000000+00:00</time></trkpt><trkpt lat="22.215862" lon="104.43103"><ele>353.5</ele><time>2011-04-27T11:30:11.0000000+00:00</time></trkpt><trkpt lat="22.216154" lon="104.431084"><ele>349.9</ele><time>2011-04-27T11:30:16.0000000+00:00</time></trkpt><trkpt lat="22.216423" lon="104.43103"><ele>345.7</ele><time>2011-04-27T11:30:21.0000000+00:00</time></trkpt><trkpt lat="22.216673" lon="104.430908"><ele>342.8</ele><time>2011-04-27T11:30:26.0000000+00:00</time></trkpt><trkpt lat="22.216869" lon="104.430817"><ele>339.7</ele><time>2011-04-27T11:30:31.0000000+00:00</time></trkpt><trkpt lat="22.216999" lon="104.430878"><ele>337.3</ele><time>2011-04-27T11:30:36.0000000+00:00</time></trkpt><trkpt lat="22.217154" lon="104.431061"><ele>334.8</ele><time>2011-04-27T11:30:41.0000000+00:00</time></trkpt><trkpt lat="22.217329" lon="104.431221"><ele>331.4</ele><time>2011-04-27T11:30:46.0000000+00:00</time></trkpt><trkpt lat="22.217505" lon="104.431313"><ele>328.8</ele><time>2011-04-27T11:30:51.0000000+00:00</time></trkpt><trkpt lat="22.217567" lon="104.431465"><ele>326.8</ele><time>2011-04-27T11:30:56.0000000+00:00</time></trkpt><trkpt lat="22.217518" lon="104.431618"><ele>326.6</ele><time>2011-04-27T11:31:01.0000000+00:00</time></trkpt><trkpt lat="22.217445" lon="104.431763"><ele>324.8</ele><time>2011-04-27T11:31:06.0000000+00:00</time></trkpt><trkpt lat="22.217365" lon="104.431938"><ele>323.6</ele><time>2011-04-27T11:31:11.0000000+00:00</time></trkpt><trkpt lat="22.217354" lon="104.432121"><ele>322.3</ele><time>2011-04-27T11:31:16.0000000+00:00</time></trkpt><trkpt lat="22.217365" lon="104.432266"><ele>320.3</ele><time>2011-04-27T11:31:21.0000000+00:00</time></trkpt><trkpt lat="22.217377" lon="104.432343"><ele>319.5</ele><time>2011-04-27T11:31:26.0000000+00:00</time></trkpt><trkpt lat="22.217375" lon="104.43235"><ele>319.9</ele><time>2011-04-27T11:31:31.0000000+00:00</time></trkpt><trkpt lat="22.217369" lon="104.432358"><ele>319.9</ele><time>2011-04-27T11:31:36.0000000+00:00</time></trkpt><trkpt lat="22.217367" lon="104.432365"><ele>319.9</ele><time>2011-04-27T11:31:41.0000000+00:00</time></trkpt><trkpt lat="22.217369" lon="104.432365"><ele>319.9</ele><time>2011-04-27T11:31:46.0000000+00:00</time></trkpt><trkpt lat="22.217373" lon="104.432358"><ele>319.9</ele><time>2011-04-27T11:31:51.0000000+00:00</time></trkpt><trkpt lat="22.217379" lon="104.43235"><ele>319.8</ele><time>2011-04-27T11:31:56.0000000+00:00</time></trkpt><trkpt lat="22.217398" lon="104.432381"><ele>319.8</ele><time>2011-04-27T11:32:01.0000000+00:00</time></trkpt><trkpt lat="22.217424" lon="104.432396"><ele>319.8</ele><time>2011-04-27T11:32:06.0000000+00:00</time></trkpt><trkpt lat="22.217527" lon="104.432442"><ele>319.1</ele><time>2011-04-27T11:32:11.0000000+00:00</time></trkpt><trkpt lat="22.217649" lon="104.432487"><ele>318.3</ele><time>2011-04-27T11:32:16.0000000+00:00</time></trkpt><trkpt lat="22.217821" lon="104.432564"><ele>316.4</ele><time>2011-04-27T11:32:21.0000000+00:00</time></trkpt><trkpt lat="22.217972" lon="104.432701"><ele>313.2</ele><time>2011-04-27T11:32:26.0000000+00:00</time></trkpt><trkpt lat="22.218048" lon="104.432816"><ele>312.1</ele><time>2011-04-27T11:32:31.0000000+00:00</time></trkpt></trkseg><trkseg><trkpt lat="22.235939" lon="104.475876"><ele>71.6</ele><time>2011-04-28T01:59:24.0000000+00:00</time></trkpt><trkpt lat="22.235989" lon="104.476051"><ele>80.2</ele><time>2011-04-28T01:59:29.0000000+00:00</time></trkpt><trkpt lat="22.235987" lon="104.47612"><ele>80.3</ele><time>2011-04-28T01:59:34.0000000+00:00</time></trkpt><trkpt lat="22.235994" lon="104.476273"><ele>80.8</ele><time>2011-04-28T01:59:39.0000000+00:00</time></trkpt><trkpt lat="22.235991" lon="104.476288"><ele>80.2</ele><time>2011-04-28T01:59:44.0000000+00:00</time></trkpt><trkpt lat="22.236023" lon="104.476204"><ele>82.5</ele><time>2011-04-28T01:59:49.0000000+00:00</time></trkpt><trkpt lat="22.236029" lon="104.476158"><ele>82.5</ele><time>2011-04-28T01:59:54.0000000+00:00</time></trkpt><trkpt lat="22.236031" lon="104.476143"><ele>82.1</ele><time>2011-04-28T01:59:59.0000000+00:00</time></trkpt><trkpt lat="22.236031" lon="104.476143"><ele>82.1</ele><time>2011-04-28T02:00:04.0000000+00:00</time></trkpt><trkpt lat="22.236012" lon="104.476105"><ele>80.1</ele><time>2011-04-28T02:00:09.0000000+00:00</time></trkpt><trkpt lat="22.235964" lon="104.476044"><ele>78.1</ele><time>2011-04-28T02:00:14.0000000+00:00</time></trkpt><trkpt lat="22.235891" lon="104.475975"><ele>76.7</ele><time>2011-04-28T02:00:19.0000000+00:00</time></trkpt><trkpt lat="22.235786" lon="104.475853"><ele>75.4</ele><time>2011-04-28T02:00:24.0000000+00:00</time></trkpt><trkpt lat="22.235703" lon="104.475739"><ele>74.5</ele><time>2011-04-28T02:00:29.0000000+00:00</time></trkpt><trkpt lat="22.235659" lon="104.4757"><ele>75.5</ele><time>2011-04-28T02:00:34.0000000+00:00</time></trkpt><trkpt lat="22.235552" lon="104.475731"><ele>75.6</ele><time>2011-04-28T02:00:39.0000000+00:00</time></trkpt><trkpt lat="22.235483" lon="104.47583"><ele>76.0</ele><time>2011-04-28T02:00:44.0000000+00:00</time></trkpt><trkpt lat="22.235409" lon="104.47596"><ele>76.9</ele><time>2011-04-28T02:00:49.0000000+00:00</time></trkpt><trkpt lat="22.235332" lon="104.476067"><ele>78.1</ele><time>2011-04-28T02:00:54.0000000+00:00</time></trkpt><trkpt lat="22.235275" lon="104.476181"><ele>79.4</ele><time>2011-04-28T02:00:59.0000000+00:00</time></trkpt><trkpt lat="22.235229" lon="104.47628"><ele>80.7</ele><time>2011-04-28T02:01:04.0000000+00:00</time></trkpt><trkpt lat="22.235186" lon="104.476357"><ele>81.8</ele><time>2011-04-28T02:01:09.0000000+00:00</time></trkpt><trkpt lat="22.235151" lon="104.476425"><ele>83.0</ele><time>2011-04-28T02:01:14.0000000+00:00</time></trkpt><trkpt lat="22.235107" lon="104.476486"><ele>84.3</ele><time>2011-04-28T02:01:19.0000000+00:00</time></trkpt><trkpt lat="22.235104" lon="104.476532"><ele>85.0</ele><time>2011-04-28T02:01:24.0000000+00:00</time></trkpt><trkpt lat="22.235075" lon="104.476578"><ele>85.2</ele><time>2011-04-28T02:01:29.0000000+00:00</time></trkpt><trkpt lat="22.23505" lon="104.476616"><ele>85.4</ele><time>2011-04-28T02:01:34.0000000+00:00</time></trkpt><trkpt lat="22.235033" lon="104.476646"><ele>85.2</ele><time>2011-04-28T02:01:39.0000000+00:00</time></trkpt><trkpt lat="22.235008" lon="104.476654"><ele>85.0</ele><time>2011-04-28T02:01:44.0000000+00:00</time></trkpt><trkpt lat="22.235001" lon="104.476669"><ele>84.9</ele><time>2011-04-28T02:01:49.0000000+00:00</time></trkpt><trkpt lat="22.234995" lon="104.4767"><ele>84.9</ele><time>2011-04-28T02:01:54.0000000+00:00</time></trkpt><trkpt lat="22.235004" lon="104.476761"><ele>84.8</ele><time>2011-04-28T02:01:59.0000000+00:00</time></trkpt><trkpt lat="22.235035" lon="104.476791"><ele>85.2</ele><time>2011-04-28T02:02:04.0000000+00:00</time></trkpt><trkpt lat="22.235043" lon="104.476784"><ele>85.7</ele><time>2011-04-28T02:02:09.0000000+00:00</time></trkpt><trkpt lat="22.235041" lon="104.476784"><ele>85.7</ele><time>2011-04-28T02:02:14.0000000+00:00</time></trkpt><trkpt lat="22.235044" lon="104.476784"><ele>85.7</ele><time>2011-04-28T02:02:19.0000000+00:00</time></trkpt><trkpt lat="22.23505" lon="104.476784"><ele>85.8</ele><time>2011-04-28T02:02:24.0000000+00:00</time></trkpt><trkpt lat="22.23505" lon="104.476776"><ele>85.9</ele><time>2011-04-28T02:02:29.0000000+00:00</time></trkpt><trkpt lat="22.235048" lon="104.476776"><ele>85.9</ele><time>2011-04-28T02:02:34.0000000+00:00</time></trkpt><trkpt lat="22.235052" lon="104.476776"><ele>86.0</ele><time>2011-04-28T02:02:39.0000000+00:00</time></trkpt><trkpt lat="22.23505" lon="104.476776"><ele>86.0</ele><time>2011-04-28T02:02:44.0000000+00:00</time></trkpt><trkpt lat="22.23505" lon="104.476776"><ele>86.1</ele><time>2011-04-28T02:02:49.0000000+00:00</time></trkpt><trkpt lat="22.23505" lon="104.476791"><ele>86.5</ele><time>2011-04-28T02:02:54.0000000+00:00</time></trkpt><trkpt lat="22.235048" lon="104.476799"><ele>86.7</ele><time>2011-04-28T02:02:59.0000000+00:00</time></trkpt><trkpt lat="22.235048" lon="104.476822"><ele>87.2</ele><time>2011-04-28T02:03:04.0000000+00:00</time></trkpt><trkpt lat="22.235044" lon="104.476837"><ele>87.6</ele><time>2011-04-28T02:03:09.0000000+00:00</time></trkpt><trkpt lat="22.235046" lon="104.476845"><ele>87.7</ele><time>2011-04-28T02:03:14.0000000+00:00</time></trkpt><trkpt lat="22.235048" lon="104.476845"><ele>87.7</ele><time>2011-04-28T02:03:19.0000000+00:00</time></trkpt><trkpt lat="22.235046" lon="104.476837"><ele>87.7</ele><time>2011-04-28T02:03:24.0000000+00:00</time></trkpt><trkpt lat="22.235052" lon="104.476845"><ele>87.7</ele><time>2011-04-28T02:03:29.0000000+00:00</time></trkpt><trkpt lat="22.235069" lon="104.476852"><ele>88.0</ele><time>2011-04-28T02:03:34.0000000+00:00</time></trkpt><trkpt lat="22.235075" lon="104.476852"><ele>88.0</ele><time>2011-04-28T02:03:39.0000000+00:00</time></trkpt><trkpt lat="22.235077" lon="104.476852"><ele>88.0</ele><time>2011-04-28T02:03:44.0000000+00:00</time></trkpt><trkpt lat="22.235083" lon="104.476852"><ele>88.0</ele><time>2011-04-28T02:03:49.0000000+00:00</time></trkpt><trkpt lat="22.235081" lon="104.476852"><ele>88.0</ele><time>2011-04-28T02:03:54.0000000+00:00</time></trkpt><trkpt lat="22.235081" lon="104.476852"><ele>88.1</ele><time>2011-04-28T02:03:59.0000000+00:00</time></trkpt><trkpt lat="22.235052" lon="104.476913"><ele>88.6</ele><time>2011-04-28T02:04:04.0000000+00:00</time></trkpt><trkpt lat="22.234947" lon="104.476952"><ele>88.1</ele><time>2011-04-28T02:04:09.0000000+00:00</time></trkpt><trkpt lat="22.234875" lon="104.476959"><ele>88.7</ele><time>2011-04-28T02:04:14.0000000+00:00</time></trkpt><trkpt lat="22.234838" lon="104.476997"><ele>88.4</ele><time>2011-04-28T02:04:19.0000000+00:00</time></trkpt><trkpt lat="22.234785" lon="104.476959"><ele>87.8</ele><time>2011-04-28T02:04:24.0000000+00:00</time></trkpt><trkpt lat="22.23473" lon="104.476952"><ele>86.8</ele><time>2011-04-28T02:04:29.0000000+00:00</time></trkpt><trkpt lat="22.234684" lon="104.476967"><ele>86.1</ele><time>2011-04-28T02:04:34.0000000+00:00</time></trkpt><trkpt lat="22.234673" lon="104.476974"><ele>85.4</ele><time>2011-04-28T02:04:39.0000000+00:00</time></trkpt><trkpt lat="22.234671" lon="104.47699"><ele>85.4</ele><time>2011-04-28T02:04:44.0000000+00:00</time></trkpt><trkpt lat="22.234669" lon="104.476997"><ele>85.3</ele><time>2011-04-28T02:04:49.0000000+00:00</time></trkpt><trkpt lat="22.234667" lon="104.47699"><ele>85.2</ele><time>2011-04-28T02:04:54.0000000+00:00</time></trkpt><trkpt lat="22.234697" lon="104.476952"><ele>84.5</ele><time>2011-04-28T02:04:59.0000000+00:00</time></trkpt><trkpt lat="22.234699" lon="104.476936"><ele>84.6</ele><time>2011-04-28T02:05:04.0000000+00:00</time></trkpt><trkpt lat="22.234682" lon="104.476967"><ele>84.6</ele><time>2011-04-28T02:05:09.0000000+00:00</time></trkpt><trkpt lat="22.234684" lon="104.476974"><ele>84.5</ele><time>2011-04-28T02:05:14.0000000+00:00</time></trkpt><trkpt lat="22.234671" lon="104.47699"><ele>84.3</ele><time>2011-04-28T02:05:19.0000000+00:00</time></trkpt><trkpt lat="22.23464" lon="104.476997"><ele>83.6</ele><time>2011-04-28T02:05:24.0000000+00:00</time></trkpt><trkpt lat="22.234629" lon="104.476997"><ele>83.0</ele><time>2011-04-28T02:05:29.0000000+00:00</time></trkpt><trkpt lat="22.234644" lon="104.476997"><ele>82.2</ele><time>2011-04-28T02:05:34.0000000+00:00</time></trkpt><trkpt lat="22.234652" lon="104.477005"><ele>81.9</ele><time>2011-04-28T02:05:39.0000000+00:00</time></trkpt><trkpt lat="22.234632" lon="104.476967"><ele>81.6</ele><time>2011-04-28T02:05:44.0000000+00:00</time></trkpt><trkpt lat="22.234617" lon="104.476944"><ele>81.4</ele><time>2011-04-28T02:05:49.0000000+00:00</time></trkpt><trkpt lat="22.234636" lon="104.476959"><ele>80.8</ele><time>2011-04-28T02:05:54.0000000+00:00</time></trkpt><trkpt lat="22.234625" lon="104.47699"><ele>79.3</ele><time>2011-04-28T02:05:59.0000000+00:00</time></trkpt><trkpt lat="22.234638" lon="104.477043"><ele>77.7</ele><time>2011-04-28T02:06:04.0000000+00:00</time></trkpt><trkpt lat="22.234653" lon="104.477081"><ele>77.2</ele><time>2011-04-28T02:06:09.0000000+00:00</time></trkpt><trkpt lat="22.234663" lon="104.477119"><ele>77.3</ele><time>2011-04-28T02:06:14.0000000+00:00</time></trkpt><trkpt lat="22.234657" lon="104.477135"><ele>77.4</ele><time>2011-04-28T02:06:19.0000000+00:00</time></trkpt><trkpt lat="22.234655" lon="104.477135"><ele>77.7</ele><time>2011-04-28T02:06:24.0000000+00:00</time></trkpt><trkpt lat="22.234638" lon="104.477135"><ele>78.0</ele><time>2011-04-28T02:06:29.0000000+00:00</time></trkpt><trkpt lat="22.234629" lon="104.477119"><ele>77.9</ele><time>2011-04-28T02:06:34.0000000+00:00</time></trkpt><trkpt lat="22.234629" lon="104.477112"><ele>77.9</ele><time>2011-04-28T02:06:39.0000000+00:00</time></trkpt><trkpt lat="22.234631" lon="104.477112"><ele>77.8</ele><time>2011-04-28T02:06:44.0000000+00:00</time></trkpt><trkpt lat="22.234627" lon="104.477112"><ele>77.8</ele><time>2011-04-28T02:06:49.0000000+00:00</time></trkpt><trkpt lat="22.234619" lon="104.477081"><ele>77.3</ele><time>2011-04-28T02:06:54.0000000+00:00</time></trkpt><trkpt lat="22.234615" lon="104.477074"><ele>77.3</ele><time>2011-04-28T02:06:59.0000000+00:00</time></trkpt><trkpt lat="22.234612" lon="104.477074"><ele>77.3</ele><time>2011-04-28T02:07:04.0000000+00:00</time></trkpt><trkpt lat="22.234606" lon="104.477074"><ele>77.3</ele><time>2011-04-28T02:07:09.0000000+00:00</time></trkpt><trkpt lat="22.2346" lon="104.477066"><ele>77.3</ele><time>2011-04-28T02:07:14.0000000+00:00</time></trkpt><trkpt lat="22.234545" lon="104.477043"><ele>80.4</ele><time>2011-04-28T02:07:19.0000000+00:00</time></trkpt><trkpt lat="22.234528" lon="104.47702"><ele>80.5</ele><time>2011-04-28T02:07:24.0000000+00:00</time></trkpt><trkpt lat="22.234522" lon="104.476936"><ele>81.6</ele><time>2011-04-28T02:07:29.0000000+00:00</time></trkpt><trkpt lat="22.234489" lon="104.476891"><ele>82.0</ele><time>2011-04-28T02:07:34.0000000+00:00</time></trkpt><trkpt lat="22.234383" lon="104.476799"><ele>81.8</ele><time>2011-04-28T02:07:39.0000000+00:00</time></trkpt><trkpt lat="22.23423" lon="104.476723"><ele>81.2</ele><time>2011-04-28T02:07:44.0000000+00:00</time></trkpt><trkpt lat="22.234068" lon="104.476624"><ele>80.9</ele><time>2011-04-28T02:07:49.0000000+00:00</time></trkpt><trkpt lat="22.233948" lon="104.47654"><ele>80.5</ele><time>2011-04-28T02:07:54.0000000+00:00</time></trkpt><trkpt lat="22.23381" lon="104.476456"><ele>79.4</ele><time>2011-04-28T02:07:59.0000000+00:00</time></trkpt><trkpt lat="22.233654" lon="104.476402"><ele>78.6</ele><time>2011-04-28T02:08:04.0000000+00:00</time></trkpt><trkpt lat="22.233511" lon="104.476364"><ele>79.4</ele><time>2011-04-28T02:08:09.0000000+00:00</time></trkpt><trkpt lat="22.233376" lon="104.476303"><ele>78.7</ele><time>2011-04-28T02:08:14.0000000+00:00</time></trkpt><trkpt lat="22.233215" lon="104.476311"><ele>77.3</ele><time>2011-04-28T02:08:19.0000000+00:00</time></trkpt><trkpt lat="22.233053" lon="104.476303"><ele>76.6</ele><time>2011-04-28T02:08:24.0000000+00:00</time></trkpt><trkpt lat="22.232895" lon="104.476303"><ele>75.2</ele><time>2011-04-28T02:08:29.0000000+00:00</time></trkpt><trkpt lat="22.232693" lon="104.476311"><ele>73.2</ele><time>2011-04-28T02:08:34.0000000+00:00</time></trkpt><trkpt lat="22.232531" lon="104.476379"><ele>71.7</ele><time>2011-04-28T02:08:39.0000000+00:00</time></trkpt><trkpt lat="22.232422" lon="104.476448"><ele>71.3</ele><time>2011-04-28T02:08:44.0000000+00:00</time></trkpt><trkpt lat="22.232306" lon="104.476585"><ele>71.9</ele><time>2011-04-28T02:08:49.0000000+00:00</time></trkpt><trkpt lat="22.232164" lon="104.476753"><ele>73.2</ele><time>2011-04-28T02:08:54.0000000+00:00</time></trkpt><trkpt lat="22.232012" lon="104.476959"><ele>74.2</ele><time>2011-04-28T02:08:59.0000000+00:00</time></trkpt><trkpt lat="22.231836" lon="104.477226"><ele>84.1</ele><time>2011-04-28T02:09:04.0000000+00:00</time></trkpt><trkpt lat="22.231722" lon="104.477409"><ele>89.7</ele><time>2011-04-28T02:09:09.0000000+00:00</time></trkpt><trkpt lat="22.231571" lon="104.477585"><ele>95.7</ele><time>2011-04-28T02:09:14.0000000+00:00</time></trkpt><trkpt lat="22.231441" lon="104.477737"><ele>98.4</ele><time>2011-04-28T02:09:19.0000000+00:00</time></trkpt><trkpt lat="22.231266" lon="104.47789"><ele>100.2</ele><time>2011-04-28T02:09:24.0000000+00:00</time></trkpt><trkpt lat="22.231062" lon="104.478043"><ele>101.8</ele><time>2011-04-28T02:09:29.0000000+00:00</time></trkpt><trkpt lat="22.230822" lon="104.478249"><ele>104.7</ele><time>2011-04-28T02:09:34.0000000+00:00</time></trkpt><trkpt lat="22.230568" lon="104.47847"><ele>107.0</ele><time>2011-04-28T02:09:39.0000000+00:00</time></trkpt><trkpt lat="22.230337" lon="104.478661"><ele>108.8</ele><time>2011-04-28T02:09:44.0000000+00:00</time></trkpt><trkpt lat="22.23012" lon="104.478851"><ele>110.0</ele><time>2011-04-28T02:09:49.0000000+00:00</time></trkpt><trkpt lat="22.229843" lon="104.479004"><ele>111.8</ele><time>2011-04-28T02:09:54.0000000+00:00</time></trkpt><trkpt lat="22.22954" lon="104.479202"><ele>107.3</ele><time>2011-04-28T02:09:59.0000000+00:00</time></trkpt><trkpt lat="22.229338" lon="104.47934"><ele>105.5</ele><time>2011-04-28T02:10:04.0000000+00:00</time></trkpt><trkpt lat="22.229179" lon="104.479485"><ele>104.0</ele><time>2011-04-28T02:10:09.0000000+00:00</time></trkpt><trkpt lat="22.229053" lon="104.479683"><ele>103.4</ele><time>2011-04-28T02:10:14.0000000+00:00</time></trkpt><trkpt lat="22.228903" lon="104.479881"><ele>102.5</ele><time>2011-04-28T02:10:19.0000000+00:00</time></trkpt><trkpt lat="22.228785" lon="104.480034"><ele>104.1</ele><time>2011-04-28T02:10:24.0000000+00:00</time></trkpt><trkpt lat="22.228693" lon="104.480209"><ele>106.0</ele><time>2011-04-28T02:10:29.0000000+00:00</time></trkpt><trkpt lat="22.228552" lon="104.480438"><ele>107.0</ele><time>2011-04-28T02:10:34.0000000+00:00</time></trkpt><trkpt lat="22.228298" lon="104.480675"><ele>107.4</ele><time>2011-04-28T02:10:39.0000000+00:00</time></trkpt><trkpt lat="22.22801" lon="104.48098"><ele>105.6</ele><time>2011-04-28T02:10:44.0000000+00:00</time></trkpt><trkpt lat="22.227867" lon="104.481133"><ele>105.2</ele><time>2011-04-28T02:10:49.0000000+00:00</time></trkpt><trkpt lat="22.227699" lon="104.48127"><ele>103.2</ele><time>2011-04-28T02:10:54.0000000+00:00</time></trkpt><trkpt lat="22.227579" lon="104.4814"><ele>102.7</ele><time>2011-04-28T02:10:59.0000000+00:00</time></trkpt><trkpt lat="22.227451" lon="104.48159"><ele>102.0</ele><time>2011-04-28T02:11:04.0000000+00:00</time></trkpt><trkpt lat="22.227329" lon="104.481766"><ele>102.0</ele><time>2011-04-28T02:11:09.0000000+00:00</time></trkpt><trkpt lat="22.22723" lon="104.481926"><ele>102.4</ele><time>2011-04-28T02:11:14.0000000+00:00</time></trkpt><trkpt lat="22.227118" lon="104.482201"><ele>105.2</ele><time>2011-04-28T02:11:19.0000000+00:00</time></trkpt><trkpt lat="22.227055" lon="104.482422"><ele>107.1</ele><time>2011-04-28T02:11:24.0000000+00:00</time></trkpt><trkpt lat="22.226973" lon="104.482605"><ele>110.2</ele><time>2011-04-28T02:11:29.0000000+00:00</time></trkpt><trkpt lat="22.226942" lon="104.482826"><ele>114.9</ele><time>2011-04-28T02:11:34.0000000+00:00</time></trkpt><trkpt lat="22.226917" lon="104.483063"><ele>117.7</ele><time>2011-04-28T02:11:39.0000000+00:00</time></trkpt><trkpt lat="22.226833" lon="104.4832"><ele>119.8</ele><time>2011-04-28T02:11:44.0000000+00:00</time></trkpt><trkpt lat="22.226757" lon="104.483406"><ele>122.5</ele><time>2011-04-28T02:11:49.0000000+00:00</time></trkpt><trkpt lat="22.226625" lon="104.483551"><ele>125.1</ele><time>2011-04-28T02:11:54.0000000+00:00</time></trkpt><trkpt lat="22.226458" lon="104.483665"><ele>127.2</ele><time>2011-04-28T02:11:59.0000000+00:00</time></trkpt><trkpt lat="22.226303" lon="104.483795"><ele>128.7</ele><time>2011-04-28T02:12:04.0000000+00:00</time></trkpt><trkpt lat="22.226204" lon="104.483917"><ele>130.9</ele><time>2011-04-28T02:12:09.0000000+00:00</time></trkpt><trkpt lat="22.226095" lon="104.48407"><ele>133.0</ele><time>2011-04-28T02:12:14.0000000+00:00</time></trkpt><trkpt lat="22.225941" lon="104.484276"><ele>136.2</ele><time>2011-04-28T02:12:19.0000000+00:00</time></trkpt><trkpt lat="22.225763" lon="104.48452"><ele>139.9</ele><time>2011-04-28T02:12:24.0000000+00:00</time></trkpt><trkpt lat="22.225576" lon="104.484764"><ele>143.6</ele><time>2011-04-28T02:12:29.0000000+00:00</time></trkpt><trkpt lat="22.225359" lon="104.485001"><ele>147.2</ele><time>2011-04-28T02:12:34.0000000+00:00</time></trkpt><trkpt lat="22.225096" lon="104.485199"><ele>147.7</ele><time>2011-04-28T02:12:39.0000000+00:00</time></trkpt><trkpt lat="22.224709" lon="104.485352"><ele>149.3</ele><time>2011-04-28T02:12:44.0000000+00:00</time></trkpt><trkpt lat="22.224398" lon="104.485428"><ele>151.8</ele><time>2011-04-28T02:12:49.0000000+00:00</time></trkpt><trkpt lat="22.224178" lon="104.485489"><ele>153.9</ele><time>2011-04-28T02:12:54.0000000+00:00</time></trkpt><trkpt lat="22.223995" lon="104.48558"><ele>154.5</ele><time>2011-04-28T02:12:59.0000000+00:00</time></trkpt><trkpt lat="22.223661" lon="104.48558"><ele>151.7</ele><time>2011-04-28T02:13:04.0000000+00:00</time></trkpt><trkpt lat="22.223446" lon="104.485695"><ele>152.2</ele><time>2011-04-28T02:13:09.0000000+00:00</time></trkpt><trkpt lat="22.223253" lon="104.485855"><ele>151.9</ele><time>2011-04-28T02:13:14.0000000+00:00</time></trkpt><trkpt lat="22.223045" lon="104.486"><ele>151.4</ele><time>2011-04-28T02:13:19.0000000+00:00</time></trkpt><trkpt lat="22.222799" lon="104.486176"><ele>150.1</ele><time>2011-04-28T02:13:24.0000000+00:00</time></trkpt><trkpt lat="22.222589" lon="104.486275"><ele>147.2</ele><time>2011-04-28T02:13:29.0000000+00:00</time></trkpt><trkpt lat="22.22237" lon="104.486305"><ele>144.3</ele><time>2011-04-28T02:13:34.0000000+00:00</time></trkpt><trkpt lat="22.22216" lon="104.486282"><ele>138.5</ele><time>2011-04-28T02:13:39.0000000+00:00</time></trkpt><trkpt lat="22.221983" lon="104.48629"><ele>133.8</ele><time>2011-04-28T02:13:44.0000000+00:00</time></trkpt><trkpt lat="22.221809" lon="104.486328"><ele>128.7</ele><time>2011-04-28T02:13:49.0000000+00:00</time></trkpt><trkpt lat="22.221628" lon="104.486397"><ele>124.1</ele><time>2011-04-28T02:13:54.0000000+00:00</time></trkpt><trkpt lat="22.221462" lon="104.486443"><ele>120.9</ele><time>2011-04-28T02:13:59.0000000+00:00</time></trkpt><trkpt lat="22.221342" lon="104.486465"><ele>118.4</ele><time>2011-04-28T02:14:04.0000000+00:00</time></trkpt><trkpt lat="22.221212" lon="104.486526"><ele>114.7</ele><time>2011-04-28T02:14:09.0000000+00:00</time></trkpt><trkpt lat="22.221024" lon="104.486641"><ele>111.3</ele><time>2011-04-28T02:14:14.0000000+00:00</time></trkpt><trkpt lat="22.22085" lon="104.486732"><ele>108.8</ele><time>2011-04-28T02:14:19.0000000+00:00</time></trkpt><trkpt lat="22.220676" lon="104.486908"><ele>106.7</ele><time>2011-04-28T02:14:24.0000000+00:00</time></trkpt><trkpt lat="22.220514" lon="104.487251"><ele>104.1</ele><time>2011-04-28T02:14:29.0000000+00:00</time></trkpt><trkpt lat="22.220461" lon="104.487511"><ele>100.0</ele><time>2011-04-28T02:14:34.0000000+00:00</time></trkpt><trkpt lat="22.220436" lon="104.487724"><ele>98.3</ele><time>2011-04-28T02:14:39.0000000+00:00</time></trkpt><trkpt lat="22.22043" lon="104.487885"><ele>98.1</ele><time>2011-04-28T02:14:44.0000000+00:00</time></trkpt><trkpt lat="22.220406" lon="104.48806"><ele>97.5</ele><time>2011-04-28T02:14:49.0000000+00:00</time></trkpt><trkpt lat="22.220345" lon="104.488205"><ele>97.4</ele><time>2011-04-28T02:14:54.0000000+00:00</time></trkpt><trkpt lat="22.220242" lon="104.488373"><ele>97.1</ele><time>2011-04-28T02:14:59.0000000+00:00</time></trkpt><trkpt lat="22.220158" lon="104.488571"><ele>96.9</ele><time>2011-04-28T02:15:04.0000000+00:00</time></trkpt><trkpt lat="22.220057" lon="104.488762"><ele>96.7</ele><time>2011-04-28T02:15:09.0000000+00:00</time></trkpt><trkpt lat="22.219936" lon="104.48896"><ele>96.7</ele><time>2011-04-28T02:15:14.0000000+00:00</time></trkpt><trkpt lat="22.21981" lon="104.489075"><ele>96.8</ele><time>2011-04-28T02:15:19.0000000+00:00</time></trkpt><trkpt lat="22.219666" lon="104.489174"><ele>96.8</ele><time>2011-04-28T02:15:24.0000000+00:00</time></trkpt><trkpt lat="22.21953" lon="104.489265"><ele>97.1</ele><time>2011-04-28T02:15:29.0000000+00:00</time></trkpt><trkpt lat="22.219414" lon="104.489342"><ele>97.7</ele><time>2011-04-28T02:15:34.0000000+00:00</time></trkpt><trkpt lat="22.219282" lon="104.489433"><ele>98.1</ele><time>2011-04-28T02:15:39.0000000+00:00</time></trkpt><trkpt lat="22.219114" lon="104.489517"><ele>98.1</ele><time>2011-04-28T02:15:44.0000000+00:00</time></trkpt><trkpt lat="22.218985" lon="104.489609"><ele>98.2</ele><time>2011-04-28T02:15:49.0000000+00:00</time></trkpt><trkpt lat="22.218887" lon="104.489754"><ele>98.5</ele><time>2011-04-28T02:15:54.0000000+00:00</time></trkpt><trkpt lat="22.218803" lon="104.489952"><ele>98.6</ele><time>2011-04-28T02:15:59.0000000+00:00</time></trkpt><trkpt lat="22.218733" lon="104.490143"><ele>98.7</ele><time>2011-04-28T02:16:04.0000000+00:00</time></trkpt><trkpt lat="22.218733" lon="104.490295"><ele>98.9</ele><time>2011-04-28T02:16:09.0000000+00:00</time></trkpt><trkpt lat="22.218781" lon="104.490494"><ele>100.2</ele><time>2011-04-28T02:16:14.0000000+00:00</time></trkpt><trkpt lat="22.218842" lon="104.490677"><ele>100.4</ele><time>2011-04-28T02:16:19.0000000+00:00</time></trkpt><trkpt lat="22.218912" lon="104.490837"><ele>101.0</ele><time>2011-04-28T02:16:24.0000000+00:00</time></trkpt><trkpt lat="22.218985" lon="104.490974"><ele>102.1</ele><time>2011-04-28T02:16:29.0000000+00:00</time></trkpt><trkpt lat="22.219065" lon="104.491104"><ele>103.0</ele><time>2011-04-28T02:16:34.0000000+00:00</time></trkpt><trkpt lat="22.219145" lon="104.491226"><ele>103.4</ele><time>2011-04-28T02:16:39.0000000+00:00</time></trkpt><trkpt lat="22.219225" lon="104.491333"><ele>104.9</ele><time>2011-04-28T02:16:44.0000000+00:00</time></trkpt><trkpt lat="22.219284" lon="104.49147"><ele>105.5</ele><time>2011-04-28T02:16:49.0000000+00:00</time></trkpt><trkpt lat="22.219326" lon="104.491608"><ele>105.4</ele><time>2011-04-28T02:16:54.0000000+00:00</time></trkpt><trkpt lat="22.21932" lon="104.491737"><ele>106.3</ele><time>2011-04-28T02:16:59.0000000+00:00</time></trkpt><trkpt lat="22.219326" lon="104.491859"><ele>107.1</ele><time>2011-04-28T02:17:04.0000000+00:00</time></trkpt><trkpt lat="22.219313" lon="104.491966"><ele>108.2</ele><time>2011-04-28T02:17:09.0000000+00:00</time></trkpt><trkpt lat="22.219296" lon="104.49205"><ele>109.3</ele><time>2011-04-28T02:17:14.0000000+00:00</time></trkpt><trkpt lat="22.21933" lon="104.492264"><ele>112.5</ele><time>2011-04-28T02:17:19.0000000+00:00</time></trkpt><trkpt lat="22.219362" lon="104.492401"><ele>112.9</ele><time>2011-04-28T02:17:24.0000000+00:00</time></trkpt><trkpt lat="22.219402" lon="104.492554"><ele>113.3</ele><time>2011-04-28T02:17:29.0000000+00:00</time></trkpt><trkpt lat="22.219427" lon="104.492691"><ele>112.9</ele><time>2011-04-28T02:17:34.0000000+00:00</time></trkpt><trkpt lat="22.219446" lon="104.492828"><ele>112.8</ele><time>2011-04-28T02:17:39.0000000+00:00</time></trkpt><trkpt lat="22.219448" lon="104.493004"><ele>112.8</ele><time>2011-04-28T02:17:44.0000000+00:00</time></trkpt><trkpt lat="22.219446" lon="104.493179"><ele>112.7</ele><time>2011-04-28T02:17:49.0000000+00:00</time></trkpt><trkpt lat="22.219458" lon="104.493332"><ele>118.1</ele><time>2011-04-28T02:17:54.0000000+00:00</time></trkpt><trkpt lat="22.219509" lon="104.493462"><ele>119.7</ele><time>2011-04-28T02:17:59.0000000+00:00</time></trkpt><trkpt lat="22.219545" lon="104.493622"><ele>121.7</ele><time>2011-04-28T02:18:04.0000000+00:00</time></trkpt><trkpt lat="22.21957" lon="104.493813"><ele>123.4</ele><time>2011-04-28T02:18:09.0000000+00:00</time></trkpt><trkpt lat="22.219574" lon="104.494034"><ele>124.4</ele><time>2011-04-28T02:18:14.0000000+00:00</time></trkpt><trkpt lat="22.219582" lon="104.49424"><ele>125.2</ele><time>2011-04-28T02:18:19.0000000+00:00</time></trkpt><trkpt lat="22.219597" lon="104.4944"><ele>126.5</ele><time>2011-04-28T02:18:24.0000000+00:00</time></trkpt><trkpt lat="22.219587" lon="104.49456"><ele>128.2</ele><time>2011-04-28T02:18:29.0000000+00:00</time></trkpt><trkpt lat="22.219551" lon="104.494713"><ele>129.9</ele><time>2011-04-28T02:18:34.0000000+00:00</time></trkpt><trkpt lat="22.219505" lon="104.494919"><ele>131.7</ele><time>2011-04-28T02:18:39.0000000+00:00</time></trkpt><trkpt lat="22.219444" lon="104.495132"><ele>133.8</ele><time>2011-04-28T02:18:44.0000000+00:00</time></trkpt><trkpt lat="22.219368" lon="104.495346"><ele>135.9</ele><time>2011-04-28T02:18:49.0000000+00:00</time></trkpt><trkpt lat="22.219261" lon="104.495529"><ele>137.9</ele><time>2011-04-28T02:18:54.0000000+00:00</time></trkpt><trkpt lat="22.219141" lon="104.495705"><ele>138.8</ele><time>2011-04-28T02:18:59.0000000+00:00</time></trkpt><trkpt lat="22.219049" lon="104.495872"><ele>139.9</ele><time>2011-04-28T02:19:04.0000000+00:00</time></trkpt><trkpt lat="22.219036" lon="104.495972"><ele>137.9</ele><time>2011-04-28T02:19:09.0000000+00:00</time></trkpt><trkpt lat="22.218966" lon="104.49614"><ele>133.2</ele><time>2011-04-28T02:19:14.0000000+00:00</time></trkpt><trkpt lat="22.218906" lon="104.496254"><ele>133.4</ele><time>2011-04-28T02:19:19.0000000+00:00</time></trkpt><trkpt lat="22.21883" lon="104.496391"><ele>133.3</ele><time>2011-04-28T02:19:24.0000000+00:00</time></trkpt><trkpt lat="22.21875" lon="104.496544"><ele>132.8</ele><time>2011-04-28T02:19:29.0000000+00:00</time></trkpt><trkpt lat="22.218651" lon="104.496758"><ele>131.8</ele><time>2011-04-28T02:19:34.0000000+00:00</time></trkpt><trkpt lat="22.218479" lon="104.497047"><ele>130.1</ele><time>2011-04-28T02:19:39.0000000+00:00</time></trkpt><trkpt lat="22.218306" lon="104.497269"><ele>125.9</ele><time>2011-04-28T02:19:44.0000000+00:00</time></trkpt><trkpt lat="22.218115" lon="104.497482"><ele>122.4</ele><time>2011-04-28T02:19:49.0000000+00:00</time></trkpt><trkpt lat="22.217823" lon="104.497734"><ele>117.5</ele><time>2011-04-28T02:19:54.0000000+00:00</time></trkpt><trkpt lat="22.217525" lon="104.497826"><ele>112.9</ele><time>2011-04-28T02:19:59.0000000+00:00</time></trkpt><trkpt lat="22.217339" lon="104.497879"><ele>111.3</ele><time>2011-04-28T02:20:04.0000000+00:00</time></trkpt><trkpt lat="22.217197" lon="104.497971"><ele>110.6</ele><time>2011-04-28T02:20:09.0000000+00:00</time></trkpt><trkpt lat="22.217094" lon="104.498093"><ele>109.8</ele><time>2011-04-28T02:20:14.0000000+00:00</time></trkpt><trkpt lat="22.217009" lon="104.498245"><ele>109.2</ele><time>2011-04-28T02:20:19.0000000+00:00</time></trkpt><trkpt lat="22.216892" lon="104.498383"><ele>108.6</ele><time>2011-04-28T02:20:24.0000000+00:00</time></trkpt><trkpt lat="22.216782" lon="104.498474"><ele>107.8</ele><time>2011-04-28T02:20:29.0000000+00:00</time></trkpt><trkpt lat="22.216707" lon="104.498535"><ele>107.0</ele><time>2011-04-28T02:20:34.0000000+00:00</time></trkpt><trkpt lat="22.216646" lon="104.498573"><ele>106.5</ele><time>2011-04-28T02:20:39.0000000+00:00</time></trkpt><trkpt lat="22.216637" lon="104.498581"><ele>106.4</ele><time>2011-04-28T02:20:44.0000000+00:00</time></trkpt><trkpt lat="22.216633" lon="104.498581"><ele>106.3</ele><time>2011-04-28T02:20:49.0000000+00:00</time></trkpt><trkpt lat="22.216631" lon="104.498581"><ele>106.3</ele><time>2011-04-28T02:20:54.0000000+00:00</time></trkpt><trkpt lat="22.216627" lon="104.498596"><ele>105.8</ele><time>2011-04-28T02:20:59.0000000+00:00</time></trkpt><trkpt lat="22.216621" lon="104.498596"><ele>105.8</ele><time>2011-04-28T02:21:04.0000000+00:00</time></trkpt><trkpt lat="22.216621" lon="104.498596"><ele>105.8</ele><time>2011-04-28T02:21:09.0000000+00:00</time></trkpt><trkpt lat="22.216572" lon="104.49865"><ele>105.6</ele><time>2011-04-28T02:21:14.0000000+00:00</time></trkpt><trkpt lat="22.216433" lon="104.498749"><ele>105.2</ele><time>2011-04-28T02:21:19.0000000+00:00</time></trkpt><trkpt lat="22.216259" lon="104.498825"><ele>104.8</ele><time>2011-04-28T02:21:24.0000000+00:00</time></trkpt><trkpt lat="22.216057" lon="104.498917"><ele>102.2</ele><time>2011-04-28T02:21:29.0000000+00:00</time></trkpt><trkpt lat="22.215832" lon="104.499054"><ele>101.8</ele><time>2011-04-28T02:21:34.0000000+00:00</time></trkpt><trkpt lat="22.215565" lon="104.499237"><ele>100.3</ele><time>2011-04-28T02:21:39.0000000+00:00</time></trkpt><trkpt lat="22.215267" lon="104.49939"><ele>99.4</ele><time>2011-04-28T02:21:44.0000000+00:00</time></trkpt><trkpt lat="22.21504" lon="104.499527"><ele>98.7</ele><time>2011-04-28T02:21:49.0000000+00:00</time></trkpt><trkpt lat="22.214851" lon="104.499672"><ele>97.8</ele><time>2011-04-28T02:21:54.0000000+00:00</time></trkpt><trkpt lat="22.214697" lon="104.499802"><ele>96.9</ele><time>2011-04-28T02:21:59.0000000+00:00</time></trkpt><trkpt lat="22.214581" lon="104.499939"><ele>96.5</ele><time>2011-04-28T02:22:04.0000000+00:00</time></trkpt><trkpt lat="22.214462" lon="104.500084"><ele>96.6</ele><time>2011-04-28T02:22:09.0000000+00:00</time></trkpt><trkpt lat="22.214342" lon="104.500267"><ele>96.5</ele><time>2011-04-28T02:22:14.0000000+00:00</time></trkpt><trkpt lat="22.214235" lon="104.50045"><ele>94.5</ele><time>2011-04-28T02:22:19.0000000+00:00</time></trkpt><trkpt lat="22.214092" lon="104.500633"><ele>94.2</ele><time>2011-04-28T02:22:24.0000000+00:00</time></trkpt><trkpt lat="22.213923" lon="104.500748"><ele>94.1</ele><time>2011-04-28T02:22:29.0000000+00:00</time></trkpt><trkpt lat="22.21372" lon="104.500847"><ele>96.0</ele><time>2011-04-28T02:22:34.0000000+00:00</time></trkpt><trkpt lat="22.213545" lon="104.500977"><ele>96.7</ele><time>2011-04-28T02:22:39.0000000+00:00</time></trkpt><trkpt lat="22.213369" lon="104.501198"><ele>98.0</ele><time>2011-04-28T02:22:44.0000000+00:00</time></trkpt><trkpt lat="22.213135" lon="104.501373"><ele>96.9</ele><time>2011-04-28T02:22:49.0000000+00:00</time></trkpt><trkpt lat="22.212883" lon="104.501549"><ele>95.5</ele><time>2011-04-28T02:22:54.0000000+00:00</time></trkpt><trkpt lat="22.212654" lon="104.501717"><ele>94.7</ele><time>2011-04-28T02:22:59.0000000+00:00</time></trkpt><trkpt lat="22.212397" lon="104.501884"><ele>92.6</ele><time>2011-04-28T02:23:04.0000000+00:00</time></trkpt><trkpt lat="22.212219" lon="104.502129"><ele>91.5</ele><time>2011-04-28T02:23:09.0000000+00:00</time></trkpt><trkpt lat="22.212063" lon="104.502365"><ele>91.1</ele><time>2011-04-28T02:23:14.0000000+00:00</time></trkpt><trkpt lat="22.211918" lon="104.502594"><ele>90.3</ele><time>2011-04-28T02:23:19.0000000+00:00</time></trkpt><trkpt lat="22.211765" lon="104.502754"><ele>90.5</ele><time>2011-04-28T02:23:24.0000000+00:00</time></trkpt><trkpt lat="22.211588" lon="104.502876"><ele>91.0</ele><time>2011-04-28T02:23:29.0000000+00:00</time></trkpt><trkpt lat="22.211403" lon="104.503036"><ele>94.6</ele><time>2011-04-28T02:23:34.0000000+00:00</time></trkpt><trkpt lat="22.21121" lon="104.503128"><ele>95.3</ele><time>2011-04-28T02:23:39.0000000+00:00</time></trkpt><trkpt lat="22.211008" lon="104.503242"><ele>96.2</ele><time>2011-04-28T02:23:44.0000000+00:00</time></trkpt><trkpt lat="22.210865" lon="104.503426"><ele>98.5</ele><time>2011-04-28T02:23:49.0000000+00:00</time></trkpt><trkpt lat="22.210728" lon="104.503662"><ele>99.9</ele><time>2011-04-28T02:23:54.0000000+00:00</time></trkpt><trkpt lat="22.210606" lon="104.50386"><ele>102.0</ele><time>2011-04-28T02:23:59.0000000+00:00</time></trkpt><trkpt lat="22.210512" lon="104.504021"><ele>104.3</ele><time>2011-04-28T02:24:04.0000000+00:00</time></trkpt><trkpt lat="22.210434" lon="104.504158"><ele>106.4</ele><time>2011-04-28T02:24:09.0000000+00:00</time></trkpt><trkpt lat="22.210388" lon="104.50428"><ele>109.1</ele><time>2011-04-28T02:24:14.0000000+00:00</time></trkpt><trkpt lat="22.210384" lon="104.504425"><ele>112.3</ele><time>2011-04-28T02:24:19.0000000+00:00</time></trkpt><trkpt lat="22.210388" lon="104.504601"><ele>115.1</ele><time>2011-04-28T02:24:24.0000000+00:00</time></trkpt><trkpt lat="22.210365" lon="104.504776"><ele>116.8</ele><time>2011-04-28T02:24:29.0000000+00:00</time></trkpt><trkpt lat="22.210352" lon="104.504883"><ele>118.4</ele><time>2011-04-28T02:24:34.0000000+00:00</time></trkpt><trkpt lat="22.210358" lon="104.50499"><ele>120.3</ele><time>2011-04-28T02:24:39.0000000+00:00</time></trkpt><trkpt lat="22.210363" lon="104.505096"><ele>122.0</ele><time>2011-04-28T02:24:44.0000000+00:00</time></trkpt><trkpt lat="22.210356" lon="104.505257"><ele>123.8</ele><time>2011-04-28T02:24:49.0000000+00:00</time></trkpt><trkpt lat="22.210367" lon="104.505409"><ele>124.9</ele><time>2011-04-28T02:24:54.0000000+00:00</time></trkpt><trkpt lat="22.21034" lon="104.505577"><ele>125.8</ele><time>2011-04-28T02:24:59.0000000+00:00</time></trkpt><trkpt lat="22.21027" lon="104.505753"><ele>126.7</ele><time>2011-04-28T02:25:04.0000000+00:00</time></trkpt><trkpt lat="22.21018" lon="104.505898"><ele>127.2</ele><time>2011-04-28T02:25:09.0000000+00:00</time></trkpt><trkpt lat="22.210085" lon="104.506035"><ele>127.4</ele><time>2011-04-28T02:25:14.0000000+00:00</time></trkpt><trkpt lat="22.210045" lon="104.506241"><ele>127.7</ele><time>2011-04-28T02:25:19.0000000+00:00</time></trkpt><trkpt lat="22.210064" lon="104.506462"><ele>126.3</ele><time>2011-04-28T02:25:24.0000000+00:00</time></trkpt><trkpt lat="22.210114" lon="104.506691"><ele>125.8</ele><time>2011-04-28T02:25:29.0000000+00:00</time></trkpt><trkpt lat="22.210262" lon="104.506821"><ele>123.5</ele><time>2011-04-28T02:25:34.0000000+00:00</time></trkpt><trkpt lat="22.210451" lon="104.506935"><ele>122.6</ele><time>2011-04-28T02:25:39.0000000+00:00</time></trkpt><trkpt lat="22.210617" lon="104.507088"><ele>122.1</ele><time>2011-04-28T02:25:44.0000000+00:00</time></trkpt><trkpt lat="22.21068" lon="104.507416"><ele>121.0</ele><time>2011-04-28T02:25:49.0000000+00:00</time></trkpt><trkpt lat="22.210724" lon="104.507797"><ele>120.1</ele><time>2011-04-28T02:25:54.0000000+00:00</time></trkpt><trkpt lat="22.2108" lon="104.508194"><ele>119.1</ele><time>2011-04-28T02:25:59.0000000+00:00</time></trkpt><trkpt lat="22.210789" lon="104.508698"><ele>117.6</ele><time>2011-04-28T02:26:04.0000000+00:00</time></trkpt><trkpt lat="22.210793" lon="104.509148"><ele>116.3</ele><time>2011-04-28T02:26:09.0000000+00:00</time></trkpt><trkpt lat="22.210793" lon="104.509674"><ele>110.9</ele><time>2011-04-28T02:26:14.0000000+00:00</time></trkpt><trkpt lat="22.210749" lon="104.510155"><ele>102.2</ele><time>2011-04-28T02:26:19.0000000+00:00</time></trkpt><trkpt lat="22.210659" lon="104.510536"><ele>100.6</ele><time>2011-04-28T02:26:24.0000000+00:00</time></trkpt><trkpt lat="22.210594" lon="104.510857"><ele>99.5</ele><time>2011-04-28T02:26:29.0000000+00:00</time></trkpt><trkpt lat="22.210503" lon="104.511093"><ele>99.0</ele><time>2011-04-28T02:26:34.0000000+00:00</time></trkpt><trkpt lat="22.210365" lon="104.511322"><ele>98.6</ele><time>2011-04-28T02:26:39.0000000+00:00</time></trkpt><trkpt lat="22.210258" lon="104.511543"><ele>98.6</ele><time>2011-04-28T02:26:44.0000000+00:00</time></trkpt><trkpt lat="22.210226" lon="104.511757"><ele>98.5</ele><time>2011-04-28T02:26:49.0000000+00:00</time></trkpt><trkpt lat="22.210148" lon="104.511993"><ele>99.1</ele><time>2011-04-28T02:26:54.0000000+00:00</time></trkpt><trkpt lat="22.210251" lon="104.512192"><ele>99.6</ele><time>2011-04-28T02:26:59.0000000+00:00</time></trkpt><trkpt lat="22.210438" lon="104.512383"><ele>100.1</ele><time>2011-04-28T02:27:04.0000000+00:00</time></trkpt><trkpt lat="22.210632" lon="104.512589"><ele>100.7</ele><time>2011-04-28T02:27:09.0000000+00:00</time></trkpt><trkpt lat="22.210844" lon="104.512794"><ele>101.9</ele><time>2011-04-28T02:27:14.0000000+00:00</time></trkpt><trkpt lat="22.211088" lon="104.512856"><ele>102.6</ele><time>2011-04-28T02:27:19.0000000+00:00</time></trkpt><trkpt lat="22.211338" lon="104.512825"><ele>102.9</ele><time>2011-04-28T02:27:24.0000000+00:00</time></trkpt><trkpt lat="22.211582" lon="104.512749"><ele>103.2</ele><time>2011-04-28T02:27:29.0000000+00:00</time></trkpt><trkpt lat="22.211815" lon="104.512619"><ele>103.3</ele><time>2011-04-28T02:27:34.0000000+00:00</time></trkpt><trkpt lat="22.212082" lon="104.512459"><ele>103.8</ele><time>2011-04-28T02:27:39.0000000+00:00</time></trkpt><trkpt lat="22.212347" lon="104.512291"><ele>104.4</ele><time>2011-04-28T02:27:44.0000000+00:00</time></trkpt><trkpt lat="22.212524" lon="104.512238"><ele>105.2</ele><time>2011-04-28T02:27:49.0000000+00:00</time></trkpt><trkpt lat="22.212652" lon="104.512314"><ele>105.0</ele><time>2011-04-28T02:27:54.0000000+00:00</time></trkpt><trkpt lat="22.212761" lon="104.512436"><ele>103.7</ele><time>2011-04-28T02:27:59.0000000+00:00</time></trkpt><trkpt lat="22.212793" lon="104.51252"><ele>103.2</ele><time>2011-04-28T02:28:04.0000000+00:00</time></trkpt><trkpt lat="22.212814" lon="104.512627"><ele>103.5</ele><time>2011-04-28T02:28:09.0000000+00:00</time></trkpt><trkpt lat="22.212843" lon="104.512764"><ele>102.8</ele><time>2011-04-28T02:28:14.0000000+00:00</time></trkpt><trkpt lat="22.212854" lon="104.512886"><ele>102.8</ele><time>2011-04-28T02:28:19.0000000+00:00</time></trkpt><trkpt lat="22.212818" lon="104.512962"><ele>103.4</ele><time>2011-04-28T02:28:24.0000000+00:00</time></trkpt><trkpt lat="22.212809" lon="104.513077"><ele>103.3</ele><time>2011-04-28T02:28:29.0000000+00:00</time></trkpt><trkpt lat="22.212795" lon="104.513191"><ele>103.0</ele><time>2011-04-28T02:28:34.0000000+00:00</time></trkpt><trkpt lat="22.212755" lon="104.513298"><ele>102.9</ele><time>2011-04-28T02:28:39.0000000+00:00</time></trkpt><trkpt lat="22.212765" lon="104.51339"><ele>102.9</ele><time>2011-04-28T02:28:44.0000000+00:00</time></trkpt><trkpt lat="22.212749" lon="104.513466"><ele>102.8</ele><time>2011-04-28T02:28:49.0000000+00:00</time></trkpt><trkpt lat="22.212784" lon="104.513603"><ele>102.8</ele><time>2011-04-28T02:28:54.0000000+00:00</time></trkpt><trkpt lat="22.212826" lon="104.513748"><ele>102.6</ele><time>2011-04-28T02:28:59.0000000+00:00</time></trkpt><trkpt lat="22.212835" lon="104.513863"><ele>103.0</ele><time>2011-04-28T02:29:04.0000000+00:00</time></trkpt><trkpt lat="22.212862" lon="104.513992"><ele>103.5</ele><time>2011-04-28T02:29:09.0000000+00:00</time></trkpt><trkpt lat="22.2129" lon="104.514084"><ele>103.4</ele><time>2011-04-28T02:29:14.0000000+00:00</time></trkpt><trkpt lat="22.212879" lon="104.51413"><ele>104.1</ele><time>2011-04-28T02:29:19.0000000+00:00</time></trkpt><trkpt lat="22.212839" lon="104.514214"><ele>104.6</ele><time>2011-04-28T02:29:24.0000000+00:00</time></trkpt><trkpt lat="22.212854" lon="104.514282"><ele>105.6</ele><time>2011-04-28T02:29:29.0000000+00:00</time></trkpt><trkpt lat="22.212831" lon="104.51429"><ele>105.9</ele><time>2011-04-28T02:29:34.0000000+00:00</time></trkpt><trkpt lat="22.21283" lon="104.51429"><ele>106.0</ele><time>2011-04-28T02:29:39.0000000+00:00</time></trkpt><trkpt lat="22.212837" lon="104.51429"><ele>106.0</ele><time>2011-04-28T02:29:44.0000000+00:00</time></trkpt><trkpt lat="22.212841" lon="104.514336"><ele>106.0</ele><time>2011-04-28T02:29:49.0000000+00:00</time></trkpt><trkpt lat="22.212824" lon="104.51445"><ele>105.4</ele><time>2011-04-28T02:29:54.0000000+00:00</time></trkpt><trkpt lat="22.212866" lon="104.514633"><ele>103.9</ele><time>2011-04-28T02:29:59.0000000+00:00</time></trkpt><trkpt lat="22.212872" lon="104.514793"><ele>103.1</ele><time>2011-04-28T02:30:04.0000000+00:00</time></trkpt><trkpt lat="22.212906" lon="104.515045"><ele>102.9</ele><time>2011-04-28T02:30:09.0000000+00:00</time></trkpt><trkpt lat="22.212961" lon="104.515297"><ele>102.1</ele><time>2011-04-28T02:30:14.0000000+00:00</time></trkpt><trkpt lat="22.213074" lon="104.515663"><ele>99.5</ele><time>2011-04-28T02:30:19.0000000+00:00</time></trkpt><trkpt lat="22.213041" lon="104.516068"><ele>94.9</ele><time>2011-04-28T02:30:24.0000000+00:00</time></trkpt><trkpt lat="22.213039" lon="104.516472"><ele>92.5</ele><time>2011-04-28T02:30:29.0000000+00:00</time></trkpt><trkpt lat="22.212971" lon="104.516815"><ele>90.5</ele><time>2011-04-28T02:30:34.0000000+00:00</time></trkpt><trkpt lat="22.212849" lon="104.517105"><ele>88.8</ele><time>2011-04-28T02:30:39.0000000+00:00</time></trkpt><trkpt lat="22.212667" lon="104.517372"><ele>87.2</ele><time>2011-04-28T02:30:44.0000000+00:00</time></trkpt><trkpt lat="22.212555" lon="104.517593"><ele>86.3</ele><time>2011-04-28T02:30:49.0000000+00:00</time></trkpt><trkpt lat="22.212473" lon="104.51786"><ele>85.4</ele><time>2011-04-28T02:30:54.0000000+00:00</time></trkpt><trkpt lat="22.212349" lon="104.518166"><ele>81.8</ele><time>2011-04-28T02:30:59.0000000+00:00</time></trkpt><trkpt lat="22.212271" lon="104.518425"><ele>80.2</ele><time>2011-04-28T02:31:04.0000000+00:00</time></trkpt><trkpt lat="22.212202" lon="104.518585"><ele>81.0</ele><time>2011-04-28T02:31:09.0000000+00:00</time></trkpt><trkpt lat="22.212118" lon="104.518753"><ele>80.1</ele><time>2011-04-28T02:31:14.0000000+00:00</time></trkpt><trkpt lat="22.212097" lon="104.518898"><ele>79.1</ele><time>2011-04-28T02:31:19.0000000+00:00</time></trkpt><trkpt lat="22.212069" lon="104.519073"><ele>78.2</ele><time>2011-04-28T02:31:24.0000000+00:00</time></trkpt><trkpt lat="22.212061" lon="104.519234"><ele>77.6</ele><time>2011-04-28T02:31:29.0000000+00:00</time></trkpt><trkpt lat="22.21207" lon="104.519341"><ele>77.4</ele><time>2011-04-28T02:31:34.0000000+00:00</time></trkpt><trkpt lat="22.212086" lon="104.519409"><ele>77.8</ele><time>2011-04-28T02:31:39.0000000+00:00</time></trkpt><trkpt lat="22.212065" lon="104.519424"><ele>78.4</ele><time>2011-04-28T02:31:44.0000000+00:00</time></trkpt><trkpt lat="22.212059" lon="104.519432"><ele>78.3</ele><time>2011-04-28T02:31:49.0000000+00:00</time></trkpt><trkpt lat="22.212057" lon="104.519432"><ele>78.3</ele><time>2011-04-28T02:31:54.0000000+00:00</time></trkpt><trkpt lat="22.212057" lon="104.519432"><ele>78.2</ele><time>2011-04-28T02:31:59.0000000+00:00</time></trkpt><trkpt lat="22.212059" lon="104.519432"><ele>78.2</ele><time>2011-04-28T02:32:04.0000000+00:00</time></trkpt><trkpt lat="22.212059" lon="104.519432"><ele>78.3</ele><time>2011-04-28T02:32:09.0000000+00:00</time></trkpt><trkpt lat="22.212051" lon="104.51944"><ele>78.5</ele><time>2011-04-28T02:32:14.0000000+00:00</time></trkpt><trkpt lat="22.212044" lon="104.519455"><ele>78.6</ele><time>2011-04-28T02:32:19.0000000+00:00</time></trkpt><trkpt lat="22.212046" lon="104.519463"><ele>78.7</ele><time>2011-04-28T02:32:24.0000000+00:00</time></trkpt><trkpt lat="22.212044" lon="104.519463"><ele>78.7</ele><time>2011-04-28T02:32:29.0000000+00:00</time></trkpt><trkpt lat="22.212036" lon="104.51947"><ele>78.7</ele><time>2011-04-28T02:32:34.0000000+00:00</time></trkpt><trkpt lat="22.212032" lon="104.51947"><ele>78.7</ele><time>2011-04-28T02:32:39.0000000+00:00</time></trkpt><trkpt lat="22.212032" lon="104.51947"><ele>78.6</ele><time>2011-04-28T02:32:44.0000000+00:00</time></trkpt><trkpt lat="22.212044" lon="104.51947"><ele>78.6</ele><time>2011-04-28T02:32:49.0000000+00:00</time></trkpt><trkpt lat="22.212044" lon="104.51947"><ele>78.6</ele><time>2011-04-28T02:32:54.0000000+00:00</time></trkpt><trkpt lat="22.21204" lon="104.51947"><ele>78.6</ele><time>2011-04-28T02:32:59.0000000+00:00</time></trkpt><trkpt lat="22.21204" lon="104.519463"><ele>78.6</ele><time>2011-04-28T02:33:04.0000000+00:00</time></trkpt><trkpt lat="22.212046" lon="104.519463"><ele>78.6</ele><time>2011-04-28T02:33:09.0000000+00:00</time></trkpt><trkpt lat="22.212055" lon="104.519463"><ele>78.6</ele><time>2011-04-28T02:33:14.0000000+00:00</time></trkpt><trkpt lat="22.212063" lon="104.519463"><ele>78.6</ele><time>2011-04-28T02:33:19.0000000+00:00</time></trkpt><trkpt lat="22.212067" lon="104.51947"><ele>78.5</ele><time>2011-04-28T02:33:24.0000000+00:00</time></trkpt><trkpt lat="22.212061" lon="104.51947"><ele>78.5</ele><time>2011-04-28T02:33:29.0000000+00:00</time></trkpt><trkpt lat="22.212051" lon="104.519463"><ele>78.5</ele><time>2011-04-28T02:33:34.0000000+00:00</time></trkpt><trkpt lat="22.212042" lon="104.519463"><ele>78.5</ele><time>2011-04-28T02:33:39.0000000+00:00</time></trkpt><trkpt lat="22.212032" lon="104.519463"><ele>78.5</ele><time>2011-04-28T02:33:44.0000000+00:00</time></trkpt><trkpt lat="22.212025" lon="104.519455"><ele>78.5</ele><time>2011-04-28T02:33:49.0000000+00:00</time></trkpt><trkpt lat="22.212013" lon="104.519463"><ele>78.5</ele><time>2011-04-28T02:33:54.0000000+00:00</time></trkpt><trkpt lat="22.212008" lon="104.519455"><ele>78.5</ele><time>2011-04-28T02:33:59.0000000+00:00</time></trkpt><trkpt lat="22.212" lon="104.519447"><ele>78.5</ele><time>2011-04-28T02:34:04.0000000+00:00</time></trkpt><trkpt lat="22.211998" lon="104.51944"><ele>78.5</ele><time>2011-04-28T02:34:09.0000000+00:00</time></trkpt><trkpt lat="22.212002" lon="104.51944"><ele>78.5</ele><time>2011-04-28T02:34:14.0000000+00:00</time></trkpt><trkpt lat="22.212004" lon="104.519432"><ele>78.5</ele><time>2011-04-28T02:34:19.0000000+00:00</time></trkpt><trkpt lat="22.212006" lon="104.519417"><ele>78.5</ele><time>2011-04-28T02:34:24.0000000+00:00</time></trkpt><trkpt lat="22.212009" lon="104.519409"><ele>78.5</ele><time>2011-04-28T02:34:29.0000000+00:00</time></trkpt><trkpt lat="22.212008" lon="104.519402"><ele>78.5</ele><time>2011-04-28T02:34:34.0000000+00:00</time></trkpt><trkpt lat="22.212008" lon="104.519402"><ele>78.5</ele><time>2011-04-28T02:34:39.0000000+00:00</time></trkpt><trkpt lat="22.212004" lon="104.519386"><ele>78.6</ele><time>2011-04-28T02:34:44.0000000+00:00</time></trkpt><trkpt lat="22.211996" lon="104.519363"><ele>78.7</ele><time>2011-04-28T02:34:49.0000000+00:00</time></trkpt><trkpt lat="22.211994" lon="104.519348"><ele>78.7</ele><time>2011-04-28T02:34:54.0000000+00:00</time></trkpt><trkpt lat="22.211996" lon="104.519333"><ele>78.9</ele><time>2011-04-28T02:34:59.0000000+00:00</time></trkpt><trkpt lat="22.212006" lon="104.519325"><ele>79.0</ele><time>2011-04-28T02:35:04.0000000+00:00</time></trkpt><trkpt lat="22.212021" lon="104.519325"><ele>79.2</ele><time>2011-04-28T02:35:09.0000000+00:00</time></trkpt><trkpt lat="22.212036" lon="104.519341"><ele>79.4</ele><time>2011-04-28T02:35:14.0000000+00:00</time></trkpt><trkpt lat="22.212034" lon="104.519569"><ele>77.1</ele><time>2011-04-28T02:35:19.0000000+00:00</time></trkpt><trkpt lat="22.212051" lon="104.519798"><ele>73.5</ele><time>2011-04-28T02:35:24.0000000+00:00</time></trkpt><trkpt lat="22.212049" lon="104.520027"><ele>71.1</ele><time>2011-04-28T02:35:29.0000000+00:00</time></trkpt><trkpt lat="22.211979" lon="104.520332"><ele>70.0</ele><time>2011-04-28T02:35:34.0000000+00:00</time></trkpt><trkpt lat="22.211878" lon="104.520683"><ele>70.2</ele><time>2011-04-28T02:35:39.0000000+00:00</time></trkpt><trkpt lat="22.21179" lon="104.520988"><ele>69.6</ele><time>2011-04-28T02:35:44.0000000+00:00</time></trkpt><trkpt lat="22.211735" lon="104.521271"><ele>67.5</ele><time>2011-04-28T02:35:49.0000000+00:00</time></trkpt><trkpt lat="22.211653" lon="104.521492"><ele>70.8</ele><time>2011-04-28T02:35:54.0000000+00:00</time></trkpt><trkpt lat="22.211597" lon="104.521675"><ele>72.3</ele><time>2011-04-28T02:35:59.0000000+00:00</time></trkpt><trkpt lat="22.211527" lon="104.521896"><ele>75.2</ele><time>2011-04-28T02:36:04.0000000+00:00</time></trkpt><trkpt lat="22.211445" lon="104.52211"><ele>73.1</ele><time>2011-04-28T02:36:09.0000000+00:00</time></trkpt><trkpt lat="22.211369" lon="104.522301"><ele>71.0</ele><time>2011-04-28T02:36:14.0000000+00:00</time></trkpt><trkpt lat="22.211246" lon="104.522507"><ele>71.3</ele><time>2011-04-28T02:36:19.0000000+00:00</time></trkpt><trkpt lat="22.211143" lon="104.522728"><ele>70.1</ele><time>2011-04-28T02:36:24.0000000+00:00</time></trkpt><trkpt lat="22.211054" lon="104.522957"><ele>70.8</ele><time>2011-04-28T02:36:29.0000000+00:00</time></trkpt><trkpt lat="22.210958" lon="104.523232"><ele>75.3</ele><time>2011-04-28T02:36:34.0000000+00:00</time></trkpt><trkpt lat="22.210857" lon="104.523529"><ele>81.1</ele><time>2011-04-28T02:36:39.0000000+00:00</time></trkpt><trkpt lat="22.21077" lon="104.523911"><ele>88.1</ele><time>2011-04-28T02:36:44.0000000+00:00</time></trkpt><trkpt lat="22.210625" lon="104.5242"><ele>90.4</ele><time>2011-04-28T02:36:49.0000000+00:00</time></trkpt><trkpt lat="22.210451" lon="104.524437"><ele>92.0</ele><time>2011-04-28T02:36:54.0000000+00:00</time></trkpt><trkpt lat="22.210318" lon="104.52462"><ele>91.8</ele><time>2011-04-28T02:36:59.0000000+00:00</time></trkpt><trkpt lat="22.210148" lon="104.524788"><ele>91.2</ele><time>2011-04-28T02:37:04.0000000+00:00</time></trkpt><trkpt lat="22.20997" lon="104.52491"><ele>89.4</ele><time>2011-04-28T02:37:09.0000000+00:00</time></trkpt><trkpt lat="22.209866" lon="104.524986"><ele>89.7</ele><time>2011-04-28T02:37:14.0000000+00:00</time></trkpt><trkpt lat="22.209808" lon="104.525032"><ele>87.7</ele><time>2011-04-28T02:37:19.0000000+00:00</time></trkpt><trkpt lat="22.209799" lon="104.52504"><ele>87.2</ele><time>2011-04-28T02:37:24.0000000+00:00</time></trkpt><trkpt lat="22.209799" lon="104.52504"><ele>87.1</ele><time>2011-04-28T02:37:29.0000000+00:00</time></trkpt><trkpt lat="22.209829" lon="104.52507"><ele>85.8</ele><time>2011-04-28T02:37:34.0000000+00:00</time></trkpt><trkpt lat="22.209846" lon="104.525116"><ele>84.4</ele><time>2011-04-28T02:37:39.0000000+00:00</time></trkpt><trkpt lat="22.209846" lon="104.525108"><ele>85.0</ele><time>2011-04-28T02:37:44.0000000+00:00</time></trkpt><trkpt lat="22.209848" lon="104.525108"><ele>84.7</ele><time>2011-04-28T02:37:49.0000000+00:00</time></trkpt><trkpt lat="22.209845" lon="104.525116"><ele>84.5</ele><time>2011-04-28T02:37:54.0000000+00:00</time></trkpt><trkpt lat="22.209866" lon="104.525124"><ele>84.2</ele><time>2011-04-28T02:37:59.0000000+00:00</time></trkpt><trkpt lat="22.209875" lon="104.525124"><ele>83.8</ele><time>2011-04-28T02:38:04.0000000+00:00</time></trkpt><trkpt lat="22.209875" lon="104.525124"><ele>83.8</ele><time>2011-04-28T02:38:09.0000000+00:00</time></trkpt><trkpt lat="22.209877" lon="104.525124"><ele>83.8</ele><time>2011-04-28T02:38:14.0000000+00:00</time></trkpt><trkpt lat="22.209877" lon="104.525124"><ele>83.8</ele><time>2011-04-28T02:38:19.0000000+00:00</time></trkpt><trkpt lat="22.209877" lon="104.525124"><ele>83.8</ele><time>2011-04-28T02:38:24.0000000+00:00</time></trkpt><trkpt lat="22.209877" lon="104.525124"><ele>83.8</ele><time>2011-04-28T02:38:29.0000000+00:00</time></trkpt><trkpt lat="22.209877" lon="104.525124"><ele>83.8</ele><time>2011-04-28T02:38:34.0000000+00:00</time></trkpt><trkpt lat="22.209877" lon="104.525124"><ele>83.8</ele><time>2011-04-28T02:38:39.0000000+00:00</time></trkpt><trkpt lat="22.209877" lon="104.525124"><ele>83.8</ele><time>2011-04-28T02:38:44.0000000+00:00</time></trkpt><trkpt lat="22.209877" lon="104.525124"><ele>83.8</ele><time>2011-04-28T02:38:49.0000000+00:00</time></trkpt><trkpt lat="22.209877" lon="104.525124"><ele>83.7</ele><time>2011-04-28T02:38:54.0000000+00:00</time></trkpt><trkpt lat="22.209877" lon="104.525124"><ele>83.7</ele><time>2011-04-28T02:38:59.0000000+00:00</time></trkpt><trkpt lat="22.209877" lon="104.525124"><ele>83.7</ele><time>2011-04-28T02:39:04.0000000+00:00</time></trkpt><trkpt lat="22.209877" lon="104.525124"><ele>83.7</ele><time>2011-04-28T02:39:09.0000000+00:00</time></trkpt><trkpt lat="22.209877" lon="104.525124"><ele>83.7</ele><time>2011-04-28T02:39:14.0000000+00:00</time></trkpt><trkpt lat="22.209877" lon="104.525124"><ele>83.7</ele><time>2011-04-28T02:39:19.0000000+00:00</time></trkpt><trkpt lat="22.209877" lon="104.525124"><ele>83.7</ele><time>2011-04-28T02:39:24.0000000+00:00</time></trkpt><trkpt lat="22.209877" lon="104.525124"><ele>83.7</ele><time>2011-04-28T02:39:29.0000000+00:00</time></trkpt><trkpt lat="22.209877" lon="104.525124"><ele>83.7</ele><time>2011-04-28T02:39:34.0000000+00:00</time></trkpt><trkpt lat="22.209877" lon="104.525124"><ele>83.7</ele><time>2011-04-28T02:39:39.0000000+00:00</time></trkpt><trkpt lat="22.209877" lon="104.525124"><ele>83.7</ele><time>2011-04-28T02:39:44.0000000+00:00</time></trkpt><trkpt lat="22.209877" lon="104.525124"><ele>83.6</ele><time>2011-04-28T02:39:49.0000000+00:00</time></trkpt><trkpt lat="22.209877" lon="104.525124"><ele>83.6</ele><time>2011-04-28T02:39:54.0000000+00:00</time></trkpt><trkpt lat="22.209877" lon="104.525124"><ele>83.6</ele><time>2011-04-28T02:39:59.0000000+00:00</time></trkpt><trkpt lat="22.209877" lon="104.525124"><ele>83.6</ele><time>2011-04-28T02:40:04.0000000+00:00</time></trkpt><trkpt lat="22.209877" lon="104.525124"><ele>83.6</ele><time>2011-04-28T02:40:09.0000000+00:00</time></trkpt><trkpt lat="22.209877" lon="104.525124"><ele>83.6</ele><time>2011-04-28T02:40:14.0000000+00:00</time></trkpt><trkpt lat="22.209877" lon="104.525124"><ele>83.6</ele><time>2011-04-28T02:40:19.0000000+00:00</time></trkpt><trkpt lat="22.209877" lon="104.525124"><ele>83.6</ele><time>2011-04-28T02:40:24.0000000+00:00</time></trkpt><trkpt lat="22.209877" lon="104.525131"><ele>83.6</ele><time>2011-04-28T02:40:29.0000000+00:00</time></trkpt><trkpt lat="22.209879" lon="104.525131"><ele>83.6</ele><time>2011-04-28T02:40:34.0000000+00:00</time></trkpt><trkpt lat="22.209879" lon="104.525131"><ele>83.6</ele><time>2011-04-28T02:40:39.0000000+00:00</time></trkpt><trkpt lat="22.209879" lon="104.525131"><ele>83.6</ele><time>2011-04-28T02:40:44.0000000+00:00</time></trkpt><trkpt lat="22.209866" lon="104.525124"><ele>83.4</ele><time>2011-04-28T02:40:49.0000000+00:00</time></trkpt><trkpt lat="22.209824" lon="104.525146"><ele>83.2</ele><time>2011-04-28T02:40:54.0000000+00:00</time></trkpt><trkpt lat="22.209799" lon="104.525169"><ele>82.9</ele><time>2011-04-28T02:40:59.0000000+00:00</time></trkpt><trkpt lat="22.209785" lon="104.525169"><ele>82.7</ele><time>2011-04-28T02:41:04.0000000+00:00</time></trkpt><trkpt lat="22.209764" lon="104.525162"><ele>82.8</ele><time>2011-04-28T02:41:09.0000000+00:00</time></trkpt><trkpt lat="22.20974" lon="104.525154"><ele>83.2</ele><time>2011-04-28T02:41:14.0000000+00:00</time></trkpt><trkpt lat="22.209719" lon="104.525131"><ele>83.5</ele><time>2011-04-28T02:41:19.0000000+00:00</time></trkpt><trkpt lat="22.209694" lon="104.525116"><ele>83.8</ele><time>2011-04-28T02:41:24.0000000+00:00</time></trkpt><trkpt lat="22.209681" lon="104.525101"><ele>84.0</ele><time>2011-04-28T02:41:29.0000000+00:00</time></trkpt><trkpt lat="22.209673" lon="104.525093"><ele>84.1</ele><time>2011-04-28T02:41:34.0000000+00:00</time></trkpt><trkpt lat="22.209669" lon="104.525085"><ele>84.3</ele><time>2011-04-28T02:41:39.0000000+00:00</time></trkpt><trkpt lat="22.209671" lon="104.525078"><ele>84.4</ele><time>2011-04-28T02:41:44.0000000+00:00</time></trkpt><trkpt lat="22.209677" lon="104.525085"><ele>84.5</ele><time>2011-04-28T02:41:49.0000000+00:00</time></trkpt><trkpt lat="22.209681" lon="104.525085"><ele>84.6</ele><time>2011-04-28T02:41:54.0000000+00:00</time></trkpt><trkpt lat="22.209684" lon="104.525093"><ele>84.6</ele><time>2011-04-28T02:41:59.0000000+00:00</time></trkpt><trkpt lat="22.209684" lon="104.525093"><ele>84.6</ele><time>2011-04-28T02:42:04.0000000+00:00</time></trkpt><trkpt lat="22.209686" lon="104.525093"><ele>84.6</ele><time>2011-04-28T02:42:09.0000000+00:00</time></trkpt><trkpt lat="22.209688" lon="104.525093"><ele>84.5</ele><time>2011-04-28T02:42:14.0000000+00:00</time></trkpt><trkpt lat="22.209688" lon="104.525093"><ele>84.5</ele><time>2011-04-28T02:42:19.0000000+00:00</time></trkpt><trkpt lat="22.209688" lon="104.525093"><ele>84.5</ele><time>2011-04-28T02:42:24.0000000+00:00</time></trkpt><trkpt lat="22.209688" lon="104.525093"><ele>84.5</ele><time>2011-04-28T02:42:29.0000000+00:00</time></trkpt><trkpt lat="22.209688" lon="104.525093"><ele>84.5</ele><time>2011-04-28T02:42:34.0000000+00:00</time></trkpt><trkpt lat="22.209629" lon="104.525116"><ele>83.8</ele><time>2011-04-28T02:42:39.0000000+00:00</time></trkpt><trkpt lat="22.209538" lon="104.525169"><ele>81.5</ele><time>2011-04-28T02:42:44.0000000+00:00</time></trkpt><trkpt lat="22.209455" lon="104.525246"><ele>78.9</ele><time>2011-04-28T02:42:49.0000000+00:00</time></trkpt><trkpt lat="22.209393" lon="104.525284"><ele>76.5</ele><time>2011-04-28T02:42:54.0000000+00:00</time></trkpt><trkpt lat="22.209312" lon="104.525345"><ele>74.7</ele><time>2011-04-28T02:42:59.0000000+00:00</time></trkpt><trkpt lat="22.209221" lon="104.525406"><ele>73.2</ele><time>2011-04-28T02:43:04.0000000+00:00</time></trkpt><trkpt lat="22.209089" lon="104.52549"><ele>71.3</ele><time>2011-04-28T02:43:09.0000000+00:00</time></trkpt><trkpt lat="22.208904" lon="104.525589"><ele>70.2</ele><time>2011-04-28T02:43:14.0000000+00:00</time></trkpt><trkpt lat="22.208652" lon="104.525772"><ele>69.8</ele><time>2011-04-28T02:43:19.0000000+00:00</time></trkpt><trkpt lat="22.208408" lon="104.526024"><ele>69.1</ele><time>2011-04-28T02:43:24.0000000+00:00</time></trkpt><trkpt lat="22.208136" lon="104.526283"><ele>68.6</ele><time>2011-04-28T02:43:29.0000000+00:00</time></trkpt><trkpt lat="22.207884" lon="104.526482"><ele>68.9</ele><time>2011-04-28T02:43:34.0000000+00:00</time></trkpt><trkpt lat="22.207659" lon="104.526627"><ele>70.5</ele><time>2011-04-28T02:43:39.0000000+00:00</time></trkpt><trkpt lat="22.207502" lon="104.526855"><ele>70.7</ele><time>2011-04-28T02:43:44.0000000+00:00</time></trkpt><trkpt lat="22.207382" lon="104.527084"><ele>70.8</ele><time>2011-04-28T02:43:49.0000000+00:00</time></trkpt><trkpt lat="22.207273" lon="104.527306"><ele>71.2</ele><time>2011-04-28T02:43:54.0000000+00:00</time></trkpt><trkpt lat="22.207121" lon="104.527443"><ele>71.1</ele><time>2011-04-28T02:43:59.0000000+00:00</time></trkpt><trkpt lat="22.206974" lon="104.52755"><ele>71.2</ele><time>2011-04-28T02:44:04.0000000+00:00</time></trkpt><trkpt lat="22.206827" lon="104.527763"><ele>71.7</ele><time>2011-04-28T02:44:09.0000000+00:00</time></trkpt><trkpt lat="22.206709" lon="104.52803"><ele>72.4</ele><time>2011-04-28T02:44:14.0000000+00:00</time></trkpt><trkpt lat="22.206577" lon="104.528267"><ele>73.1</ele><time>2011-04-28T02:44:19.0000000+00:00</time></trkpt><trkpt lat="22.206476" lon="104.528503"><ele>73.5</ele><time>2011-04-28T02:44:24.0000000+00:00</time></trkpt><trkpt lat="22.206266" lon="104.528755"><ele>73.6</ele><time>2011-04-28T02:44:29.0000000+00:00</time></trkpt><trkpt lat="22.206066" lon="104.529007"><ele>74.3</ele><time>2011-04-28T02:44:34.0000000+00:00</time></trkpt><trkpt lat="22.20586" lon="104.529274"><ele>75.7</ele><time>2011-04-28T02:44:39.0000000+00:00</time></trkpt><trkpt lat="22.205692" lon="104.529549"><ele>76.8</ele><time>2011-04-28T02:44:44.0000000+00:00</time></trkpt><trkpt lat="22.205553" lon="104.529846"><ele>78.0</ele><time>2011-04-28T02:44:49.0000000+00:00</time></trkpt><trkpt lat="22.205429" lon="104.530136"><ele>79.5</ele><time>2011-04-28T02:44:54.0000000+00:00</time></trkpt><trkpt lat="22.205309" lon="104.530365"><ele>80.8</ele><time>2011-04-28T02:44:59.0000000+00:00</time></trkpt><trkpt lat="22.2052" lon="104.530533"><ele>82.3</ele><time>2011-04-28T02:45:04.0000000+00:00</time></trkpt><trkpt lat="22.205118" lon="104.530678"><ele>83.9</ele><time>2011-04-28T02:45:09.0000000+00:00</time></trkpt><trkpt lat="22.205078" lon="104.530838"><ele>85.2</ele><time>2011-04-28T02:45:14.0000000+00:00</time></trkpt><trkpt lat="22.20507" lon="104.530983"><ele>86.4</ele><time>2011-04-28T02:45:19.0000000+00:00</time></trkpt><trkpt lat="22.205063" lon="104.530975"><ele>87.4</ele><time>2011-04-28T02:45:24.0000000+00:00</time></trkpt><trkpt lat="22.205063" lon="104.53096"><ele>87.8</ele><time>2011-04-28T02:45:29.0000000+00:00</time></trkpt><trkpt lat="22.205061" lon="104.530952"><ele>88.0</ele><time>2011-04-28T02:45:34.0000000+00:00</time></trkpt><trkpt lat="22.205048" lon="104.530952"><ele>88.1</ele><time>2011-04-28T02:45:39.0000000+00:00</time></trkpt><trkpt lat="22.205038" lon="104.530952"><ele>88.2</ele><time>2011-04-28T02:45:44.0000000+00:00</time></trkpt><trkpt lat="22.20504" lon="104.530952"><ele>88.3</ele><time>2011-04-28T02:45:49.0000000+00:00</time></trkpt><trkpt lat="22.205044" lon="104.53096"><ele>88.5</ele><time>2011-04-28T02:45:54.0000000+00:00</time></trkpt><trkpt lat="22.205034" lon="104.531036"><ele>88.5</ele><time>2011-04-28T02:45:59.0000000+00:00</time></trkpt><trkpt lat="22.204994" lon="104.531174"><ele>89.5</ele><time>2011-04-28T02:46:04.0000000+00:00</time></trkpt><trkpt lat="22.204967" lon="104.531326"><ele>89.9</ele><time>2011-04-28T02:46:09.0000000+00:00</time></trkpt><trkpt lat="22.204876" lon="104.531464"><ele>90.1</ele><time>2011-04-28T02:46:14.0000000+00:00</time></trkpt><trkpt lat="22.204817" lon="104.531593"><ele>89.2</ele><time>2011-04-28T02:46:19.0000000+00:00</time></trkpt><trkpt lat="22.204744" lon="104.531708"><ele>89.0</ele><time>2011-04-28T02:46:24.0000000+00:00</time></trkpt><trkpt lat="22.204655" lon="104.53183"><ele>89.0</ele><time>2011-04-28T02:46:29.0000000+00:00</time></trkpt><trkpt lat="22.204592" lon="104.531929"><ele>90.1</ele><time>2011-04-28T02:46:34.0000000+00:00</time></trkpt><trkpt lat="22.204544" lon="104.532043"><ele>89.2</ele><time>2011-04-28T02:46:39.0000000+00:00</time></trkpt><trkpt lat="22.204439" lon="104.532104"><ele>88.7</ele><time>2011-04-28T02:46:44.0000000+00:00</time></trkpt><trkpt lat="22.20435" lon="104.532219"><ele>87.6</ele><time>2011-04-28T02:46:49.0000000+00:00</time></trkpt><trkpt lat="22.204184" lon="104.532288"><ele>84.7</ele><time>2011-04-28T02:46:54.0000000+00:00</time></trkpt><trkpt lat="22.203987" lon="104.53231"><ele>83.1</ele><time>2011-04-28T02:46:59.0000000+00:00</time></trkpt><trkpt lat="22.203745" lon="104.532318"><ele>84.0</ele><time>2011-04-28T02:47:04.0000000+00:00</time></trkpt><trkpt lat="22.203568" lon="104.532425"><ele>82.6</ele><time>2011-04-28T02:47:09.0000000+00:00</time></trkpt><trkpt lat="22.203468" lon="104.532631"><ele>81.4</ele><time>2011-04-28T02:47:14.0000000+00:00</time></trkpt><trkpt lat="22.2034" lon="104.532837"><ele>76.0</ele><time>2011-04-28T02:47:19.0000000+00:00</time></trkpt><trkpt lat="22.203411" lon="104.533058"><ele>70.3</ele><time>2011-04-28T02:47:24.0000000+00:00</time></trkpt><trkpt lat="22.203451" lon="104.533218"><ele>70.2</ele><time>2011-04-28T02:47:29.0000000+00:00</time></trkpt><trkpt lat="22.203558" lon="104.533401"><ele>72.5</ele><time>2011-04-28T02:47:34.0000000+00:00</time></trkpt><trkpt lat="22.203671" lon="104.5336"><ele>76.0</ele><time>2011-04-28T02:47:39.0000000+00:00</time></trkpt><trkpt lat="22.20372" lon="104.533783"><ele>79.7</ele><time>2011-04-28T02:47:44.0000000+00:00</time></trkpt><trkpt lat="22.203735" lon="104.533989"><ele>86.3</ele><time>2011-04-28T02:47:49.0000000+00:00</time></trkpt><trkpt lat="22.203741" lon="104.534073"><ele>88.2</ele><time>2011-04-28T02:47:54.0000000+00:00</time></trkpt><trkpt lat="22.203733" lon="104.534088"><ele>90.9</ele><time>2011-04-28T02:47:59.0000000+00:00</time></trkpt><trkpt lat="22.20373" lon="104.534081"><ele>91.5</ele><time>2011-04-28T02:48:04.0000000+00:00</time></trkpt><trkpt lat="22.203726" lon="104.534081"><ele>91.7</ele><time>2011-04-28T02:48:09.0000000+00:00</time></trkpt><trkpt lat="22.203712" lon="104.534088"><ele>91.9</ele><time>2011-04-28T02:48:14.0000000+00:00</time></trkpt><trkpt lat="22.203703" lon="104.534088"><ele>92.0</ele><time>2011-04-28T02:48:19.0000000+00:00</time></trkpt><trkpt lat="22.203695" lon="104.534088"><ele>92.0</ele><time>2011-04-28T02:48:24.0000000+00:00</time></trkpt><trkpt lat="22.203691" lon="104.534088"><ele>92.1</ele><time>2011-04-28T02:48:29.0000000+00:00</time></trkpt><trkpt lat="22.203688" lon="104.534103"><ele>92.1</ele><time>2011-04-28T02:48:34.0000000+00:00</time></trkpt><trkpt lat="22.203697" lon="104.53421"><ele>92.0</ele><time>2011-04-28T02:48:39.0000000+00:00</time></trkpt><trkpt lat="22.203659" lon="104.534416"><ele>92.6</ele><time>2011-04-28T02:48:44.0000000+00:00</time></trkpt><trkpt lat="22.203539" lon="104.53463"><ele>91.4</ele><time>2011-04-28T02:48:49.0000000+00:00</time></trkpt><trkpt lat="22.203388" lon="104.534943"><ele>89.4</ele><time>2011-04-28T02:48:54.0000000+00:00</time></trkpt><trkpt lat="22.203285" lon="104.53521"><ele>88.6</ele><time>2011-04-28T02:48:59.0000000+00:00</time></trkpt><trkpt lat="22.20319" lon="104.535439"><ele>85.2</ele><time>2011-04-28T02:49:04.0000000+00:00</time></trkpt><trkpt lat="22.203089" lon="104.535675"><ele>83.2</ele><time>2011-04-28T02:49:09.0000000+00:00</time></trkpt><trkpt lat="22.202906" lon="104.535934"><ele>81.9</ele><time>2011-04-28T02:49:14.0000000+00:00</time></trkpt><trkpt lat="22.202751" lon="104.536209"><ele>81.8</ele><time>2011-04-28T02:49:19.0000000+00:00</time></trkpt><trkpt lat="22.202667" lon="104.536446"><ele>82.3</ele><time>2011-04-28T02:49:24.0000000+00:00</time></trkpt><trkpt lat="22.20256" lon="104.536629"><ele>83.5</ele><time>2011-04-28T02:49:29.0000000+00:00</time></trkpt><trkpt lat="22.202436" lon="104.536758"><ele>83.9</ele><time>2011-04-28T02:49:34.0000000+00:00</time></trkpt><trkpt lat="22.202322" lon="104.536942"><ele>84.5</ele><time>2011-04-28T02:49:39.0000000+00:00</time></trkpt><trkpt lat="22.202164" lon="104.537125"><ele>85.8</ele><time>2011-04-28T02:49:44.0000000+00:00</time></trkpt><trkpt lat="22.202017" lon="104.537323"><ele>85.4</ele><time>2011-04-28T02:49:49.0000000+00:00</time></trkpt><trkpt lat="22.20186" lon="104.537506"><ele>85.5</ele><time>2011-04-28T02:49:54.0000000+00:00</time></trkpt><trkpt lat="22.201694" lon="104.537735"><ele>85.3</ele><time>2011-04-28T02:49:59.0000000+00:00</time></trkpt><trkpt lat="22.201456" lon="104.537964"><ele>84.8</ele><time>2011-04-28T02:50:04.0000000+00:00</time></trkpt><trkpt lat="22.201229" lon="104.538223"><ele>84.8</ele><time>2011-04-28T02:50:09.0000000+00:00</time></trkpt><trkpt lat="22.201139" lon="104.538528"><ele>84.3</ele><time>2011-04-28T02:50:14.0000000+00:00</time></trkpt><trkpt lat="22.201077" lon="104.538857"><ele>84.0</ele><time>2011-04-28T02:50:19.0000000+00:00</time></trkpt><trkpt lat="22.200974" lon="104.539124"><ele>83.5</ele><time>2011-04-28T02:50:24.0000000+00:00</time></trkpt><trkpt lat="22.200848" lon="104.539375"><ele>83.2</ele><time>2011-04-28T02:50:29.0000000+00:00</time></trkpt><trkpt lat="22.200764" lon="104.539619"><ele>86.5</ele><time>2011-04-28T02:50:34.0000000+00:00</time></trkpt><trkpt lat="22.200697" lon="104.539848"><ele>87.0</ele><time>2011-04-28T02:50:39.0000000+00:00</time></trkpt><trkpt lat="22.200617" lon="104.540039"><ele>87.2</ele><time>2011-04-28T02:50:44.0000000+00:00</time></trkpt><trkpt lat="22.200497" lon="104.54023"><ele>86.6</ele><time>2011-04-28T02:50:49.0000000+00:00</time></trkpt><trkpt lat="22.20035" lon="104.540428"><ele>86.1</ele><time>2011-04-28T02:50:54.0000000+00:00</time></trkpt><trkpt lat="22.20022" lon="104.540733"><ele>83.8</ele><time>2011-04-28T02:50:59.0000000+00:00</time></trkpt><trkpt lat="22.200178" lon="104.541054"><ele>82.7</ele><time>2011-04-28T02:51:04.0000000+00:00</time></trkpt><trkpt lat="22.200211" lon="104.541397"><ele>81.1</ele><time>2011-04-28T02:51:09.0000000+00:00</time></trkpt><trkpt lat="22.200211" lon="104.541702"><ele>78.5</ele><time>2011-04-28T02:51:14.0000000+00:00</time></trkpt><trkpt lat="22.200205" lon="104.541985"><ele>80.4</ele><time>2011-04-28T02:51:19.0000000+00:00</time></trkpt><trkpt lat="22.200161" lon="104.542252"><ele>80.6</ele><time>2011-04-28T02:51:24.0000000+00:00</time></trkpt><trkpt lat="22.200184" lon="104.542534"><ele>83.1</ele><time>2011-04-28T02:51:29.0000000+00:00</time></trkpt><trkpt lat="22.200163" lon="104.542809"><ele>84.9</ele><time>2011-04-28T02:51:34.0000000+00:00</time></trkpt><trkpt lat="22.200029" lon="104.54303"><ele>84.2</ele><time>2011-04-28T02:51:39.0000000+00:00</time></trkpt><trkpt lat="22.199837" lon="104.543144"><ele>80.0</ele><time>2011-04-28T02:51:44.0000000+00:00</time></trkpt><trkpt lat="22.199644" lon="104.543167"><ele>77.9</ele><time>2011-04-28T02:51:49.0000000+00:00</time></trkpt><trkpt lat="22.199463" lon="104.543182"><ele>79.5</ele><time>2011-04-28T02:51:54.0000000+00:00</time></trkpt><trkpt lat="22.19935" lon="104.543274"><ele>82.9</ele><time>2011-04-28T02:51:59.0000000+00:00</time></trkpt><trkpt lat="22.199205" lon="104.543465"><ele>84.4</ele><time>2011-04-28T02:52:04.0000000+00:00</time></trkpt><trkpt lat="22.199093" lon="104.543724"><ele>78.0</ele><time>2011-04-28T02:52:09.0000000+00:00</time></trkpt><trkpt lat="22.19906" lon="104.543915"><ele>76.8</ele><time>2011-04-28T02:52:14.0000000+00:00</time></trkpt><trkpt lat="22.199154" lon="104.544044"><ele>77.9</ele><time>2011-04-28T02:52:19.0000000+00:00</time></trkpt><trkpt lat="22.199329" lon="104.544174"><ele>77.2</ele><time>2011-04-28T02:52:24.0000000+00:00</time></trkpt><trkpt lat="22.199482" lon="104.544266"><ele>77.7</ele><time>2011-04-28T02:52:29.0000000+00:00</time></trkpt><trkpt lat="22.199532" lon="104.544464"><ele>77.8</ele><time>2011-04-28T02:52:34.0000000+00:00</time></trkpt><trkpt lat="22.199467" lon="104.544655"><ele>78.5</ele><time>2011-04-28T02:52:39.0000000+00:00</time></trkpt><trkpt lat="22.199423" lon="104.54483"><ele>79.3</ele><time>2011-04-28T02:52:44.0000000+00:00</time></trkpt><trkpt lat="22.1994" lon="104.545044"><ele>79.8</ele><time>2011-04-28T02:52:49.0000000+00:00</time></trkpt><trkpt lat="22.199442" lon="104.545288"><ele>80.1</ele><time>2011-04-28T02:52:54.0000000+00:00</time></trkpt><trkpt lat="22.199497" lon="104.545517"><ele>80.7</ele><time>2011-04-28T02:52:59.0000000+00:00</time></trkpt><trkpt lat="22.199486" lon="104.545753"><ele>81.5</ele><time>2011-04-28T02:53:04.0000000+00:00</time></trkpt><trkpt lat="22.199417" lon="104.545959"><ele>82.0</ele><time>2011-04-28T02:53:09.0000000+00:00</time></trkpt><trkpt lat="22.199457" lon="104.546181"><ele>82.4</ele><time>2011-04-28T02:53:14.0000000+00:00</time></trkpt><trkpt lat="22.19944" lon="104.546455"><ele>82.8</ele><time>2011-04-28T02:53:19.0000000+00:00</time></trkpt><trkpt lat="22.19944" lon="104.5467"><ele>83.4</ele><time>2011-04-28T02:53:24.0000000+00:00</time></trkpt><trkpt lat="22.199467" lon="104.546951"><ele>84.7</ele><time>2011-04-28T02:53:29.0000000+00:00</time></trkpt><trkpt lat="22.199572" lon="104.547173"><ele>85.5</ele><time>2011-04-28T02:53:34.0000000+00:00</time></trkpt><trkpt lat="22.199615" lon="104.547462"><ele>85.8</ele><time>2011-04-28T02:53:39.0000000+00:00</time></trkpt><trkpt lat="22.199625" lon="104.547752"><ele>85.3</ele><time>2011-04-28T02:53:44.0000000+00:00</time></trkpt><trkpt lat="22.199663" lon="104.547997"><ele>84.4</ele><time>2011-04-28T02:53:49.0000000+00:00</time></trkpt><trkpt lat="22.19968" lon="104.548187"><ele>84.2</ele><time>2011-04-28T02:53:54.0000000+00:00</time></trkpt><trkpt lat="22.199722" lon="104.548317"><ele>83.9</ele><time>2011-04-28T02:53:59.0000000+00:00</time></trkpt><trkpt lat="22.199726" lon="104.548492"><ele>83.6</ele><time>2011-04-28T02:54:04.0000000+00:00</time></trkpt><trkpt lat="22.19973" lon="104.548668"><ele>83.4</ele><time>2011-04-28T02:54:09.0000000+00:00</time></trkpt><trkpt lat="22.199749" lon="104.548828"><ele>83.6</ele><time>2011-04-28T02:54:14.0000000+00:00</time></trkpt><trkpt lat="22.199781" lon="104.548996"><ele>83.0</ele><time>2011-04-28T02:54:19.0000000+00:00</time></trkpt><trkpt lat="22.199814" lon="104.549164"><ele>82.9</ele><time>2011-04-28T02:54:24.0000000+00:00</time></trkpt><trkpt lat="22.199894" lon="104.549324"><ele>82.4</ele><time>2011-04-28T02:54:29.0000000+00:00</time></trkpt><trkpt lat="22.200125" lon="104.549492"><ele>82.2</ele><time>2011-04-28T02:54:34.0000000+00:00</time></trkpt><trkpt lat="22.200287" lon="104.549782"><ele>82.4</ele><time>2011-04-28T02:54:39.0000000+00:00</time></trkpt><trkpt lat="22.200445" lon="104.550133"><ele>82.6</ele><time>2011-04-28T02:54:44.0000000+00:00</time></trkpt><trkpt lat="22.200407" lon="104.55043"><ele>82.7</ele><time>2011-04-28T02:54:49.0000000+00:00</time></trkpt><trkpt lat="22.200308" lon="104.550697"><ele>83.5</ele><time>2011-04-28T02:54:54.0000000+00:00</time></trkpt><trkpt lat="22.200201" lon="104.550934"><ele>83.9</ele><time>2011-04-28T02:54:59.0000000+00:00</time></trkpt><trkpt lat="22.200172" lon="104.551186"><ele>85.4</ele><time>2011-04-28T02:55:04.0000000+00:00</time></trkpt><trkpt lat="22.200127" lon="104.551437"><ele>85.2</ele><time>2011-04-28T02:55:09.0000000+00:00</time></trkpt><trkpt lat="22.200054" lon="104.551712"><ele>86.4</ele><time>2011-04-28T02:55:14.0000000+00:00</time></trkpt><trkpt lat="22.199883" lon="104.551971"><ele>86.3</ele><time>2011-04-28T02:55:19.0000000+00:00</time></trkpt><trkpt lat="22.199673" lon="104.55217"><ele>86.5</ele><time>2011-04-28T02:55:24.0000000+00:00</time></trkpt><trkpt lat="22.19948" lon="104.552322"><ele>87.2</ele><time>2011-04-28T02:55:29.0000000+00:00</time></trkpt><trkpt lat="22.199345" lon="104.55249"><ele>87.2</ele><time>2011-04-28T02:55:34.0000000+00:00</time></trkpt><trkpt lat="22.199282" lon="104.552689"><ele>87.7</ele><time>2011-04-28T02:55:39.0000000+00:00</time></trkpt><trkpt lat="22.199177" lon="104.55291"><ele>88.6</ele><time>2011-04-28T02:55:44.0000000+00:00</time></trkpt><trkpt lat="22.199062" lon="104.553078"><ele>89.4</ele><time>2011-04-28T02:55:49.0000000+00:00</time></trkpt><trkpt lat="22.198839" lon="104.553207"><ele>90.2</ele><time>2011-04-28T02:55:54.0000000+00:00</time></trkpt><trkpt lat="22.198656" lon="104.553329"><ele>90.6</ele><time>2011-04-28T02:55:59.0000000+00:00</time></trkpt><trkpt lat="22.198511" lon="104.553581"><ele>90.9</ele><time>2011-04-28T02:56:04.0000000+00:00</time></trkpt><trkpt lat="22.198406" lon="104.55378"><ele>91.3</ele><time>2011-04-28T02:56:09.0000000+00:00</time></trkpt><trkpt lat="22.19828" lon="104.55397"><ele>91.9</ele><time>2011-04-28T02:56:14.0000000+00:00</time></trkpt><trkpt lat="22.198206" lon="104.554146"><ele>93.0</ele><time>2011-04-28T02:56:19.0000000+00:00</time></trkpt><trkpt lat="22.198069" lon="104.554405"><ele>91.7</ele><time>2011-04-28T02:56:24.0000000+00:00</time></trkpt><trkpt lat="22.197935" lon="104.554649"><ele>91.6</ele><time>2011-04-28T02:56:29.0000000+00:00</time></trkpt><trkpt lat="22.197855" lon="104.554817"><ele>91.8</ele><time>2011-04-28T02:56:34.0000000+00:00</time></trkpt><trkpt lat="22.197731" lon="104.555031"><ele>92.2</ele><time>2011-04-28T02:56:39.0000000+00:00</time></trkpt><trkpt lat="22.197552" lon="104.555214"><ele>92.9</ele><time>2011-04-28T02:56:44.0000000+00:00</time></trkpt><trkpt lat="22.197495" lon="104.555412"><ele>93.5</ele><time>2011-04-28T02:56:49.0000000+00:00</time></trkpt><trkpt lat="22.197519" lon="104.555634"><ele>94.2</ele><time>2011-04-28T02:56:54.0000000+00:00</time></trkpt><trkpt lat="22.197496" lon="104.555794"><ele>95.0</ele><time>2011-04-28T02:56:59.0000000+00:00</time></trkpt><trkpt lat="22.197498" lon="104.555931"><ele>96.2</ele><time>2011-04-28T02:57:04.0000000+00:00</time></trkpt><trkpt lat="22.197487" lon="104.556061"><ele>97.0</ele><time>2011-04-28T02:57:09.0000000+00:00</time></trkpt><trkpt lat="22.197454" lon="104.556175"><ele>97.6</ele><time>2011-04-28T02:57:14.0000000+00:00</time></trkpt><trkpt lat="22.197393" lon="104.556305"><ele>98.3</ele><time>2011-04-28T02:57:19.0000000+00:00</time></trkpt><trkpt lat="22.197332" lon="104.556412"><ele>98.5</ele><time>2011-04-28T02:57:24.0000000+00:00</time></trkpt><trkpt lat="22.197252" lon="104.556549"><ele>98.7</ele><time>2011-04-28T02:57:29.0000000+00:00</time></trkpt><trkpt lat="22.197071" lon="104.556778"><ele>99.0</ele><time>2011-04-28T02:57:34.0000000+00:00</time></trkpt><trkpt lat="22.196917" lon="104.557037"><ele>99.5</ele><time>2011-04-28T02:57:39.0000000+00:00</time></trkpt><trkpt lat="22.196867" lon="104.557373"><ele>100.3</ele><time>2011-04-28T02:57:44.0000000+00:00</time></trkpt><trkpt lat="22.196812" lon="104.557671"><ele>100.2</ele><time>2011-04-28T02:57:49.0000000+00:00</time></trkpt><trkpt lat="22.196722" lon="104.557945"><ele>99.7</ele><time>2011-04-28T02:57:54.0000000+00:00</time></trkpt><trkpt lat="22.196692" lon="104.558174"><ele>99.4</ele><time>2011-04-28T02:57:59.0000000+00:00</time></trkpt><trkpt lat="22.196661" lon="104.558449"><ele>98.2</ele><time>2011-04-28T02:58:04.0000000+00:00</time></trkpt><trkpt lat="22.196573" lon="104.558685"><ele>98.5</ele><time>2011-04-28T02:58:09.0000000+00:00</time></trkpt><trkpt lat="22.196274" lon="104.559029"><ele>90.1</ele><time>2011-04-28T02:58:14.0000000+00:00</time></trkpt><trkpt lat="22.196146" lon="104.559242"><ele>85.6</ele><time>2011-04-28T02:58:19.0000000+00:00</time></trkpt><trkpt lat="22.196035" lon="104.559418"><ele>82.7</ele><time>2011-04-28T02:58:24.0000000+00:00</time></trkpt><trkpt lat="22.195889" lon="104.559601"><ele>82.3</ele><time>2011-04-28T02:58:29.0000000+00:00</time></trkpt><trkpt lat="22.195747" lon="104.559792"><ele>82.3</ele><time>2011-04-28T02:58:34.0000000+00:00</time></trkpt><trkpt lat="22.195662" lon="104.560013"><ele>81.9</ele><time>2011-04-28T02:58:39.0000000+00:00</time></trkpt><trkpt lat="22.19566" lon="104.560234"><ele>81.7</ele><time>2011-04-28T02:58:44.0000000+00:00</time></trkpt><trkpt lat="22.195681" lon="104.56044"><ele>81.3</ele><time>2011-04-28T02:58:49.0000000+00:00</time></trkpt><trkpt lat="22.19569" lon="104.560631"><ele>80.7</ele><time>2011-04-28T02:58:54.0000000+00:00</time></trkpt><trkpt lat="22.195728" lon="104.560844"><ele>80.5</ele><time>2011-04-28T02:58:59.0000000+00:00</time></trkpt><trkpt lat="22.195724" lon="104.561012"><ele>81.0</ele><time>2011-04-28T02:59:04.0000000+00:00</time></trkpt><trkpt lat="22.195717" lon="104.561249"><ele>83.7</ele><time>2011-04-28T02:59:09.0000000+00:00</time></trkpt><trkpt lat="22.195652" lon="104.561348"><ele>84.4</ele><time>2011-04-28T02:59:14.0000000+00:00</time></trkpt><trkpt lat="22.195593" lon="104.561409"><ele>85.7</ele><time>2011-04-28T02:59:19.0000000+00:00</time></trkpt><trkpt lat="22.195532" lon="104.561478"><ele>87.3</ele><time>2011-04-28T02:59:24.0000000+00:00</time></trkpt><trkpt lat="22.19545" lon="104.561539"><ele>88.6</ele><time>2011-04-28T02:59:29.0000000+00:00</time></trkpt><trkpt lat="22.195385" lon="104.561615"><ele>90.3</ele><time>2011-04-28T02:59:34.0000000+00:00</time></trkpt><trkpt lat="22.195347" lon="104.561661"><ele>92.4</ele><time>2011-04-28T02:59:39.0000000+00:00</time></trkpt><trkpt lat="22.195311" lon="104.561729"><ele>94.0</ele><time>2011-04-28T02:59:44.0000000+00:00</time></trkpt><trkpt lat="22.195278" lon="104.56179"><ele>95.1</ele><time>2011-04-28T02:59:49.0000000+00:00</time></trkpt><trkpt lat="22.195246" lon="104.561852"><ele>96.3</ele><time>2011-04-28T02:59:54.0000000+00:00</time></trkpt><trkpt lat="22.195198" lon="104.561897"><ele>97.7</ele><time>2011-04-28T02:59:59.0000000+00:00</time></trkpt><trkpt lat="22.195156" lon="104.561943"><ele>98.5</ele><time>2011-04-28T03:00:04.0000000+00:00</time></trkpt><trkpt lat="22.195223" lon="104.561966"><ele>98.8</ele><time>2011-04-28T03:00:09.0000000+00:00</time></trkpt><trkpt lat="22.195288" lon="104.561913"><ele>96.2</ele><time>2011-04-28T03:00:14.0000000+00:00</time></trkpt><trkpt lat="22.195301" lon="104.561905"><ele>95.8</ele><time>2011-04-28T03:00:19.0000000+00:00</time></trkpt><trkpt lat="22.195301" lon="104.561905"><ele>96.0</ele><time>2011-04-28T03:00:24.0000000+00:00</time></trkpt><trkpt lat="22.195301" lon="104.561905"><ele>96.1</ele><time>2011-04-28T03:00:29.0000000+00:00</time></trkpt><trkpt lat="22.195299" lon="104.561905"><ele>96.2</ele><time>2011-04-28T03:00:34.0000000+00:00</time></trkpt><trkpt lat="22.19528" lon="104.561897"><ele>96.0</ele><time>2011-04-28T03:00:39.0000000+00:00</time></trkpt><trkpt lat="22.195234" lon="104.561989"><ele>95.9</ele><time>2011-04-28T03:00:44.0000000+00:00</time></trkpt><trkpt lat="22.19516" lon="104.562065"><ele>96.1</ele><time>2011-04-28T03:00:49.0000000+00:00</time></trkpt><trkpt lat="22.19508" lon="104.562141"><ele>96.5</ele><time>2011-04-28T03:00:54.0000000+00:00</time></trkpt><trkpt lat="22.194996" lon="104.562241"><ele>97.0</ele><time>2011-04-28T03:00:59.0000000+00:00</time></trkpt><trkpt lat="22.194937" lon="104.562347"><ele>97.4</ele><time>2011-04-28T03:01:04.0000000+00:00</time></trkpt><trkpt lat="22.194841" lon="104.562454"><ele>98.1</ele><time>2011-04-28T03:01:09.0000000+00:00</time></trkpt><trkpt lat="22.194756" lon="104.562569"><ele>99.3</ele><time>2011-04-28T03:01:14.0000000+00:00</time></trkpt><trkpt lat="22.194689" lon="104.562706"><ele>100.8</ele><time>2011-04-28T03:01:19.0000000+00:00</time></trkpt><trkpt lat="22.194624" lon="104.562828"><ele>101.8</ele><time>2011-04-28T03:01:24.0000000+00:00</time></trkpt><trkpt lat="22.19454" lon="104.56292"><ele>102.9</ele><time>2011-04-28T03:01:29.0000000+00:00</time></trkpt><trkpt lat="22.194475" lon="104.563042"><ele>104.0</ele><time>2011-04-28T03:01:34.0000000+00:00</time></trkpt><trkpt lat="22.194395" lon="104.563148"><ele>105.3</ele><time>2011-04-28T03:01:39.0000000+00:00</time></trkpt><trkpt lat="22.194319" lon="104.563217"><ele>106.9</ele><time>2011-04-28T03:01:44.0000000+00:00</time></trkpt><trkpt lat="22.194275" lon="104.563316"><ele>107.7</ele><time>2011-04-28T03:01:49.0000000+00:00</time></trkpt><trkpt lat="22.194216" lon="104.563469"><ele>108.2</ele><time>2011-04-28T03:01:54.0000000+00:00</time></trkpt><trkpt lat="22.194151" lon="104.563576"><ele>109.4</ele><time>2011-04-28T03:01:59.0000000+00:00</time></trkpt><trkpt lat="22.194075" lon="104.563736"><ele>109.8</ele><time>2011-04-28T03:02:04.0000000+00:00</time></trkpt><trkpt lat="22.19396" lon="104.564018"><ele>109.5</ele><time>2011-04-28T03:02:09.0000000+00:00</time></trkpt><trkpt lat="22.193783" lon="104.564247"><ele>105.3</ele><time>2011-04-28T03:02:14.0000000+00:00</time></trkpt><trkpt lat="22.193615" lon="104.564499"><ele>101.7</ele><time>2011-04-28T03:02:19.0000000+00:00</time></trkpt><trkpt lat="22.193367" lon="104.564789"><ele>98.7</ele><time>2011-04-28T03:02:24.0000000+00:00</time></trkpt><trkpt lat="22.193192" lon="104.565079"><ele>94.5</ele><time>2011-04-28T03:02:29.0000000+00:00</time></trkpt><trkpt lat="22.193018" lon="104.565269"><ele>92.2</ele><time>2011-04-28T03:02:34.0000000+00:00</time></trkpt><trkpt lat="22.192781" lon="104.565315"><ele>90.2</ele><time>2011-04-28T03:02:39.0000000+00:00</time></trkpt><trkpt lat="22.192465" lon="104.565254"><ele>88.6</ele><time>2011-04-28T03:02:44.0000000+00:00</time></trkpt><trkpt lat="22.192165" lon="104.565155"><ele>87.6</ele><time>2011-04-28T03:02:49.0000000+00:00</time></trkpt><trkpt lat="22.191944" lon="104.56514"><ele>87.5</ele><time>2011-04-28T03:02:54.0000000+00:00</time></trkpt><trkpt lat="22.191717" lon="104.5653"><ele>86.3</ele><time>2011-04-28T03:02:59.0000000+00:00</time></trkpt><trkpt lat="22.19158" lon="104.565704"><ele>85.9</ele><time>2011-04-28T03:03:04.0000000+00:00</time></trkpt><trkpt lat="22.191425" lon="104.566132"><ele>85.1</ele><time>2011-04-28T03:03:09.0000000+00:00</time></trkpt><trkpt lat="22.191277" lon="104.566399"><ele>84.4</ele><time>2011-04-28T03:03:14.0000000+00:00</time></trkpt><trkpt lat="22.191105" lon="104.566559"><ele>84.1</ele><time>2011-04-28T03:03:19.0000000+00:00</time></trkpt><trkpt lat="22.190893" lon="104.566719"><ele>83.9</ele><time>2011-04-28T03:03:24.0000000+00:00</time></trkpt><trkpt lat="22.190649" lon="104.566864"><ele>83.9</ele><time>2011-04-28T03:03:29.0000000+00:00</time></trkpt><trkpt lat="22.190376" lon="104.566978"><ele>83.9</ele><time>2011-04-28T03:03:34.0000000+00:00</time></trkpt><trkpt lat="22.19025" lon="104.567139"><ele>84.5</ele><time>2011-04-28T03:03:39.0000000+00:00</time></trkpt><trkpt lat="22.190142" lon="104.567337"><ele>85.4</ele><time>2011-04-28T03:03:44.0000000+00:00</time></trkpt><trkpt lat="22.190042" lon="104.567581"><ele>85.4</ele><time>2011-04-28T03:03:49.0000000+00:00</time></trkpt><trkpt lat="22.18988" lon="104.567795"><ele>85.5</ele><time>2011-04-28T03:03:54.0000000+00:00</time></trkpt><trkpt lat="22.189762" lon="104.567986"><ele>86.0</ele><time>2011-04-28T03:03:59.0000000+00:00</time></trkpt><trkpt lat="22.189653" lon="104.568192"><ele>85.0</ele><time>2011-04-28T03:04:04.0000000+00:00</time></trkpt><trkpt lat="22.189596" lon="104.568268"><ele>83.6</ele><time>2011-04-28T03:04:09.0000000+00:00</time></trkpt><trkpt lat="22.189606" lon="104.568275"><ele>83.3</ele><time>2011-04-28T03:04:14.0000000+00:00</time></trkpt><trkpt lat="22.189604" lon="104.568275"><ele>83.2</ele><time>2011-04-28T03:04:19.0000000+00:00</time></trkpt><trkpt lat="22.189602" lon="104.568298"><ele>83.1</ele><time>2011-04-28T03:04:24.0000000+00:00</time></trkpt><trkpt lat="22.189594" lon="104.568298"><ele>83.1</ele><time>2011-04-28T03:04:29.0000000+00:00</time></trkpt><trkpt lat="22.189589" lon="104.568306"><ele>83.0</ele><time>2011-04-28T03:04:34.0000000+00:00</time></trkpt><trkpt lat="22.189581" lon="104.568306"><ele>83.0</ele><time>2011-04-28T03:04:39.0000000+00:00</time></trkpt><trkpt lat="22.189568" lon="104.568314"><ele>83.0</ele><time>2011-04-28T03:04:44.0000000+00:00</time></trkpt><trkpt lat="22.189554" lon="104.568405"><ele>83.4</ele><time>2011-04-28T03:04:49.0000000+00:00</time></trkpt><trkpt lat="22.189539" lon="104.568558"><ele>83.7</ele><time>2011-04-28T03:04:54.0000000+00:00</time></trkpt><trkpt lat="22.189514" lon="104.568756"><ele>82.7</ele><time>2011-04-28T03:04:59.0000000+00:00</time></trkpt><trkpt lat="22.189486" lon="104.568962"><ele>82.2</ele><time>2011-04-28T03:05:04.0000000+00:00</time></trkpt><trkpt lat="22.189423" lon="104.569176"><ele>81.2</ele><time>2011-04-28T03:05:09.0000000+00:00</time></trkpt><trkpt lat="22.189402" lon="104.569359"><ele>79.6</ele><time>2011-04-28T03:05:14.0000000+00:00</time></trkpt><trkpt lat="22.189297" lon="104.56955"><ele>80.8</ele><time>2011-04-28T03:05:19.0000000+00:00</time></trkpt><trkpt lat="22.189203" lon="104.569801"><ele>81.3</ele><time>2011-04-28T03:05:24.0000000+00:00</time></trkpt><trkpt lat="22.189102" lon="104.570007"><ele>80.9</ele><time>2011-04-28T03:05:29.0000000+00:00</time></trkpt><trkpt lat="22.188976" lon="104.57019"><ele>79.6</ele><time>2011-04-28T03:05:34.0000000+00:00</time></trkpt><trkpt lat="22.188868" lon="104.570358"><ele>77.9</ele><time>2011-04-28T03:05:39.0000000+00:00</time></trkpt><trkpt lat="22.188705" lon="104.570564"><ele>74.6</ele><time>2011-04-28T03:05:44.0000000+00:00</time></trkpt><trkpt lat="22.188572" lon="104.57074"><ele>72.6</ele><time>2011-04-28T03:05:49.0000000+00:00</time></trkpt><trkpt lat="22.188478" lon="104.570946"><ele>71.1</ele><time>2011-04-28T03:05:54.0000000+00:00</time></trkpt><trkpt lat="22.188387" lon="104.571114"><ele>69.4</ele><time>2011-04-28T03:05:59.0000000+00:00</time></trkpt><trkpt lat="22.188309" lon="104.571297"><ele>67.0</ele><time>2011-04-28T03:06:04.0000000+00:00</time></trkpt><trkpt lat="22.188229" lon="104.571419"><ele>65.9</ele><time>2011-04-28T03:06:09.0000000+00:00</time></trkpt><trkpt lat="22.18811" lon="104.571602"><ele>65.4</ele><time>2011-04-28T03:06:14.0000000+00:00</time></trkpt><trkpt lat="22.187981" lon="104.57177"><ele>64.9</ele><time>2011-04-28T03:06:19.0000000+00:00</time></trkpt><trkpt lat="22.187824" lon="104.571892"><ele>64.8</ele><time>2011-04-28T03:06:24.0000000+00:00</time></trkpt><trkpt lat="22.187641" lon="104.572029"><ele>65.5</ele><time>2011-04-28T03:06:29.0000000+00:00</time></trkpt><trkpt lat="22.187454" lon="104.572174"><ele>65.3</ele><time>2011-04-28T03:06:34.0000000+00:00</time></trkpt><trkpt lat="22.18726" lon="104.572334"><ele>64.8</ele><time>2011-04-28T03:06:39.0000000+00:00</time></trkpt><trkpt lat="22.187086" lon="104.572533"><ele>62.9</ele><time>2011-04-28T03:06:44.0000000+00:00</time></trkpt><trkpt lat="22.187002" lon="104.572716"><ele>63.0</ele><time>2011-04-28T03:06:49.0000000+00:00</time></trkpt><trkpt lat="22.186941" lon="104.572861"><ele>62.5</ele><time>2011-04-28T03:06:54.0000000+00:00</time></trkpt><trkpt lat="22.186861" lon="104.57299"><ele>61.9</ele><time>2011-04-28T03:06:59.0000000+00:00</time></trkpt><trkpt lat="22.186781" lon="104.573128"><ele>60.7</ele><time>2011-04-28T03:07:04.0000000+00:00</time></trkpt><trkpt lat="22.186672" lon="104.573257"><ele>59.4</ele><time>2011-04-28T03:07:09.0000000+00:00</time></trkpt><trkpt lat="22.186567" lon="104.573349"><ele>59.4</ele><time>2011-04-28T03:07:14.0000000+00:00</time></trkpt><trkpt lat="22.186451" lon="104.573448"><ele>59.7</ele><time>2011-04-28T03:07:19.0000000+00:00</time></trkpt><trkpt lat="22.186325" lon="104.573555"><ele>61.7</ele><time>2011-04-28T03:07:24.0000000+00:00</time></trkpt><trkpt lat="22.186193" lon="104.573639"><ele>62.4</ele><time>2011-04-28T03:07:29.0000000+00:00</time></trkpt><trkpt lat="22.186085" lon="104.57373"><ele>64.8</ele><time>2011-04-28T03:07:34.0000000+00:00</time></trkpt><trkpt lat="22.186014" lon="104.573807"><ele>65.7</ele><time>2011-04-28T03:07:39.0000000+00:00</time></trkpt><trkpt lat="22.185925" lon="104.573898"><ele>65.9</ele><time>2011-04-28T03:07:44.0000000+00:00</time></trkpt><trkpt lat="22.185844" lon="104.574013"><ele>66.7</ele><time>2011-04-28T03:07:49.0000000+00:00</time></trkpt><trkpt lat="22.18572" lon="104.574112"><ele>68.7</ele><time>2011-04-28T03:07:54.0000000+00:00</time></trkpt><trkpt lat="22.185583" lon="104.574203"><ele>70.2</ele><time>2011-04-28T03:07:59.0000000+00:00</time></trkpt><trkpt lat="22.185427" lon="104.574303"><ele>72.2</ele><time>2011-04-28T03:08:04.0000000+00:00</time></trkpt><trkpt lat="22.185263" lon="104.574402"><ele>74.1</ele><time>2011-04-28T03:08:09.0000000+00:00</time></trkpt><trkpt lat="22.185114" lon="104.574516"><ele>76.2</ele><time>2011-04-28T03:08:14.0000000+00:00</time></trkpt><trkpt lat="22.185001" lon="104.574669"><ele>76.9</ele><time>2011-04-28T03:08:19.0000000+00:00</time></trkpt><trkpt lat="22.184855" lon="104.57489"><ele>76.6</ele><time>2011-04-28T03:08:24.0000000+00:00</time></trkpt><trkpt lat="22.184727" lon="104.575134"><ele>77.7</ele><time>2011-04-28T03:08:29.0000000+00:00</time></trkpt><trkpt lat="22.184605" lon="104.575378"><ele>78.3</ele><time>2011-04-28T03:08:34.0000000+00:00</time></trkpt><trkpt lat="22.184471" lon="104.575615"><ele>79.2</ele><time>2011-04-28T03:08:39.0000000+00:00</time></trkpt><trkpt lat="22.184347" lon="104.575851"><ele>80.0</ele><time>2011-04-28T03:08:44.0000000+00:00</time></trkpt><trkpt lat="22.184229" lon="104.576019"><ele>80.6</ele><time>2011-04-28T03:08:49.0000000+00:00</time></trkpt><trkpt lat="22.184103" lon="104.576164"><ele>81.2</ele><time>2011-04-28T03:08:54.0000000+00:00</time></trkpt><trkpt lat="22.183929" lon="104.576309"><ele>82.3</ele><time>2011-04-28T03:08:59.0000000+00:00</time></trkpt><trkpt lat="22.183861" lon="104.576431"><ele>83.2</ele><time>2011-04-28T03:09:04.0000000+00:00</time></trkpt><trkpt lat="22.183828" lon="104.576584"><ele>85.7</ele><time>2011-04-28T03:09:09.0000000+00:00</time></trkpt><trkpt lat="22.183758" lon="104.576736"><ele>88.8</ele><time>2011-04-28T03:09:14.0000000+00:00</time></trkpt><trkpt lat="22.183594" lon="104.577019"><ele>93.2</ele><time>2011-04-28T03:09:19.0000000+00:00</time></trkpt><trkpt lat="22.183393" lon="104.577324"><ele>94.3</ele><time>2011-04-28T03:09:24.0000000+00:00</time></trkpt><trkpt lat="22.183214" lon="104.577599"><ele>96.4</ele><time>2011-04-28T03:09:29.0000000+00:00</time></trkpt><trkpt lat="22.183046" lon="104.57782"><ele>99.3</ele><time>2011-04-28T03:09:34.0000000+00:00</time></trkpt><trkpt lat="22.182859" lon="104.578018"><ele>103.7</ele><time>2011-04-28T03:09:39.0000000+00:00</time></trkpt><trkpt lat="22.182758" lon="104.578163"><ele>106.1</ele><time>2011-04-28T03:09:44.0000000+00:00</time></trkpt><trkpt lat="22.182709" lon="104.578224"><ele>106.9</ele><time>2011-04-28T03:09:49.0000000+00:00</time></trkpt><trkpt lat="22.182697" lon="104.578232"><ele>106.1</ele><time>2011-04-28T03:09:54.0000000+00:00</time></trkpt><trkpt lat="22.182688" lon="104.578232"><ele>106.1</ele><time>2011-04-28T03:09:59.0000000+00:00</time></trkpt><trkpt lat="22.182673" lon="104.578232"><ele>106.1</ele><time>2011-04-28T03:10:04.0000000+00:00</time></trkpt><trkpt lat="22.182659" lon="104.578239"><ele>106.1</ele><time>2011-04-28T03:10:09.0000000+00:00</time></trkpt><trkpt lat="22.182524" lon="104.578377"><ele>104.7</ele><time>2011-04-28T03:10:14.0000000+00:00</time></trkpt><trkpt lat="22.18236" lon="104.578583"><ele>102.8</ele><time>2011-04-28T03:10:19.0000000+00:00</time></trkpt><trkpt lat="22.182159" lon="104.578819"><ele>98.7</ele><time>2011-04-28T03:10:24.0000000+00:00</time></trkpt><trkpt lat="22.181938" lon="104.579124"><ele>95.3</ele><time>2011-04-28T03:10:29.0000000+00:00</time></trkpt><trkpt lat="22.181768" lon="104.579475"><ele>92.6</ele><time>2011-04-28T03:10:34.0000000+00:00</time></trkpt><trkpt lat="22.181629" lon="104.579903"><ele>89.3</ele><time>2011-04-28T03:10:39.0000000+00:00</time></trkpt><trkpt lat="22.181496" lon="104.580299"><ele>86.4</ele><time>2011-04-28T03:10:44.0000000+00:00</time></trkpt><trkpt lat="22.181347" lon="104.580582"><ele>84.0</ele><time>2011-04-28T03:10:49.0000000+00:00</time></trkpt><trkpt lat="22.181086" lon="104.580658"><ele>81.1</ele><time>2011-04-28T03:10:54.0000000+00:00</time></trkpt><trkpt lat="22.180845" lon="104.580666"><ele>78.6</ele><time>2011-04-28T03:10:59.0000000+00:00</time></trkpt><trkpt lat="22.18063" lon="104.580711"><ele>77.5</ele><time>2011-04-28T03:11:04.0000000+00:00</time></trkpt><trkpt lat="22.180496" lon="104.580956"><ele>75.9</ele><time>2011-04-28T03:11:09.0000000+00:00</time></trkpt><trkpt lat="22.180414" lon="104.581261"><ele>74.2</ele><time>2011-04-28T03:11:14.0000000+00:00</time></trkpt><trkpt lat="22.180367" lon="104.581566"><ele>73.3</ele><time>2011-04-28T03:11:19.0000000+00:00</time></trkpt><trkpt lat="22.180296" lon="104.581772"><ele>72.9</ele><time>2011-04-28T03:11:24.0000000+00:00</time></trkpt><trkpt lat="22.180183" lon="104.581848"><ele>74.8</ele><time>2011-04-28T03:11:29.0000000+00:00</time></trkpt><trkpt lat="22.180092" lon="104.581932"><ele>75.4</ele><time>2011-04-28T03:11:34.0000000+00:00</time></trkpt><trkpt lat="22.179892" lon="104.582047"><ele>75.7</ele><time>2011-04-28T03:11:39.0000000+00:00</time></trkpt><trkpt lat="22.179695" lon="104.582169"><ele>75.9</ele><time>2011-04-28T03:11:44.0000000+00:00</time></trkpt><trkpt lat="22.179518" lon="104.582298"><ele>75.6</ele><time>2011-04-28T03:11:49.0000000+00:00</time></trkpt><trkpt lat="22.179361" lon="104.582481"><ele>75.5</ele><time>2011-04-28T03:11:54.0000000+00:00</time></trkpt><trkpt lat="22.179173" lon="104.58271"><ele>74.7</ele><time>2011-04-28T03:11:59.0000000+00:00</time></trkpt><trkpt lat="22.178925" lon="104.582932"><ele>74.3</ele><time>2011-04-28T03:12:04.0000000+00:00</time></trkpt><trkpt lat="22.178663" lon="104.583191"><ele>74.0</ele><time>2011-04-28T03:12:09.0000000+00:00</time></trkpt><trkpt lat="22.178467" lon="104.583458"><ele>73.5</ele><time>2011-04-28T03:12:14.0000000+00:00</time></trkpt><trkpt lat="22.178303" lon="104.583633"><ele>73.2</ele><time>2011-04-28T03:12:19.0000000+00:00</time></trkpt><trkpt lat="22.178093" lon="104.58374"><ele>72.2</ele><time>2011-04-28T03:12:24.0000000+00:00</time></trkpt><trkpt lat="22.177946" lon="104.58371"><ele>71.8</ele><time>2011-04-28T03:12:29.0000000+00:00</time></trkpt><trkpt lat="22.177799" lon="104.583595"><ele>71.9</ele><time>2011-04-28T03:12:34.0000000+00:00</time></trkpt><trkpt lat="22.177624" lon="104.583542"><ele>71.6</ele><time>2011-04-28T03:12:39.0000000+00:00</time></trkpt><trkpt lat="22.177513" lon="104.583565"><ele>71.6</ele><time>2011-04-28T03:12:44.0000000+00:00</time></trkpt><trkpt lat="22.177511" lon="104.583588"><ele>73.3</ele><time>2011-04-28T03:12:49.0000000+00:00</time></trkpt><trkpt lat="22.177502" lon="104.583595"><ele>74.3</ele><time>2011-04-28T03:12:54.0000000+00:00</time></trkpt><trkpt lat="22.177502" lon="104.583595"><ele>74.5</ele><time>2011-04-28T03:12:59.0000000+00:00</time></trkpt><trkpt lat="22.177502" lon="104.583595"><ele>74.4</ele><time>2011-04-28T03:13:04.0000000+00:00</time></trkpt><trkpt lat="22.1775" lon="104.583595"><ele>74.4</ele><time>2011-04-28T03:13:09.0000000+00:00</time></trkpt><trkpt lat="22.177498" lon="104.583595"><ele>74.5</ele><time>2011-04-28T03:13:14.0000000+00:00</time></trkpt><trkpt lat="22.177498" lon="104.583595"><ele>74.5</ele><time>2011-04-28T03:13:19.0000000+00:00</time></trkpt><trkpt lat="22.177498" lon="104.583595"><ele>74.6</ele><time>2011-04-28T03:13:24.0000000+00:00</time></trkpt><trkpt lat="22.177496" lon="104.583595"><ele>74.6</ele><time>2011-04-28T03:13:29.0000000+00:00</time></trkpt><trkpt lat="22.177498" lon="104.583595"><ele>74.7</ele><time>2011-04-28T03:13:34.0000000+00:00</time></trkpt><trkpt lat="22.177498" lon="104.583595"><ele>74.7</ele><time>2011-04-28T03:13:39.0000000+00:00</time></trkpt><trkpt lat="22.177504" lon="104.583588"><ele>74.8</ele><time>2011-04-28T03:13:44.0000000+00:00</time></trkpt><trkpt lat="22.177511" lon="104.583588"><ele>74.9</ele><time>2011-04-28T03:13:49.0000000+00:00</time></trkpt><trkpt lat="22.177513" lon="104.583588"><ele>74.9</ele><time>2011-04-28T03:13:54.0000000+00:00</time></trkpt><trkpt lat="22.177507" lon="104.583588"><ele>74.9</ele><time>2011-04-28T03:13:59.0000000+00:00</time></trkpt><trkpt lat="22.177504" lon="104.583595"><ele>74.9</ele><time>2011-04-28T03:14:04.0000000+00:00</time></trkpt><trkpt lat="22.177498" lon="104.583595"><ele>74.9</ele><time>2011-04-28T03:14:09.0000000+00:00</time></trkpt><trkpt lat="22.17749" lon="104.583603"><ele>74.9</ele><time>2011-04-28T03:14:14.0000000+00:00</time></trkpt><trkpt lat="22.177481" lon="104.583611"><ele>74.8</ele><time>2011-04-28T03:14:19.0000000+00:00</time></trkpt><trkpt lat="22.177473" lon="104.583611"><ele>74.8</ele><time>2011-04-28T03:14:24.0000000+00:00</time></trkpt><trkpt lat="22.177458" lon="104.583618"><ele>74.7</ele><time>2011-04-28T03:14:29.0000000+00:00</time></trkpt><trkpt lat="22.177444" lon="104.583618"><ele>74.6</ele><time>2011-04-28T03:14:34.0000000+00:00</time></trkpt><trkpt lat="22.177431" lon="104.583626"><ele>74.5</ele><time>2011-04-28T03:14:39.0000000+00:00</time></trkpt><trkpt lat="22.177395" lon="104.583679"><ele>74.5</ele><time>2011-04-28T03:14:44.0000000+00:00</time></trkpt><trkpt lat="22.177305" lon="104.583809"><ele>75.0</ele><time>2011-04-28T03:14:49.0000000+00:00</time></trkpt><trkpt lat="22.177263" lon="104.583931"><ele>75.5</ele><time>2011-04-28T03:14:54.0000000+00:00</time></trkpt><trkpt lat="22.17733" lon="104.584129"><ele>75.4</ele><time>2011-04-28T03:14:59.0000000+00:00</time></trkpt><trkpt lat="22.177334" lon="104.584267"><ele>74.5</ele><time>2011-04-28T03:15:04.0000000+00:00</time></trkpt><trkpt lat="22.177313" lon="104.584389"><ele>73.6</ele><time>2011-04-28T03:15:09.0000000+00:00</time></trkpt><trkpt lat="22.177282" lon="104.584511"><ele>72.9</ele><time>2011-04-28T03:15:14.0000000+00:00</time></trkpt><trkpt lat="22.177238" lon="104.584595"><ele>73.7</ele><time>2011-04-28T03:15:19.0000000+00:00</time></trkpt><trkpt lat="22.1772" lon="104.584679"><ele>74.5</ele><time>2011-04-28T03:15:24.0000000+00:00</time></trkpt><trkpt lat="22.177143" lon="104.584755"><ele>74.9</ele><time>2011-04-28T03:15:29.0000000+00:00</time></trkpt><trkpt lat="22.177053" lon="104.584846"><ele>74.9</ele><time>2011-04-28T03:15:34.0000000+00:00</time></trkpt><trkpt lat="22.176987" lon="104.58493"><ele>75.0</ele><time>2011-04-28T03:15:39.0000000+00:00</time></trkpt><trkpt lat="22.176937" lon="104.585022"><ele>76.0</ele><time>2011-04-28T03:15:44.0000000+00:00</time></trkpt><trkpt lat="22.176893" lon="104.585098"><ele>76.2</ele><time>2011-04-28T03:15:49.0000000+00:00</time></trkpt><trkpt lat="22.17684" lon="104.58519"><ele>76.7</ele><time>2011-04-28T03:15:54.0000000+00:00</time></trkpt><trkpt lat="22.176735" lon="104.585297"><ele>74.5</ele><time>2011-04-28T03:15:59.0000000+00:00</time></trkpt><trkpt lat="22.176641" lon="104.585373"><ele>73.6</ele><time>2011-04-28T03:16:04.0000000+00:00</time></trkpt><trkpt lat="22.176731" lon="104.585571"><ele>73.6</ele><time>2011-04-28T03:16:09.0000000+00:00</time></trkpt><trkpt lat="22.176884" lon="104.585899"><ele>72.4</ele><time>2011-04-28T03:16:14.0000000+00:00</time></trkpt><trkpt lat="22.17695" lon="104.586273"><ele>72.3</ele><time>2011-04-28T03:16:19.0000000+00:00</time></trkpt><trkpt lat="22.176952" lon="104.58667"><ele>71.5</ele><time>2011-04-28T03:16:24.0000000+00:00</time></trkpt><trkpt lat="22.176868" lon="104.587036"><ele>69.6</ele><time>2011-04-28T03:16:29.0000000+00:00</time></trkpt><trkpt lat="22.176748" lon="104.587288"><ele>70.5</ele><time>2011-04-28T03:16:34.0000000+00:00</time></trkpt><trkpt lat="22.176613" lon="104.587463"><ele>69.2</ele><time>2011-04-28T03:16:39.0000000+00:00</time></trkpt><trkpt lat="22.17646" lon="104.587631"><ele>69.2</ele><time>2011-04-28T03:16:44.0000000+00:00</time></trkpt><trkpt lat="22.176311" lon="104.587837"><ele>68.7</ele><time>2011-04-28T03:16:49.0000000+00:00</time></trkpt><trkpt lat="22.176195" lon="104.588058"><ele>68.4</ele><time>2011-04-28T03:16:54.0000000+00:00</time></trkpt><trkpt lat="22.176098" lon="104.588249"><ele>67.8</ele><time>2011-04-28T03:16:59.0000000+00:00</time></trkpt><trkpt lat="22.176016" lon="104.588455"><ele>66.0</ele><time>2011-04-28T03:17:04.0000000+00:00</time></trkpt><trkpt lat="22.175905" lon="104.588638"><ele>69.3</ele><time>2011-04-28T03:17:09.0000000+00:00</time></trkpt><trkpt lat="22.175798" lon="104.58876"><ele>70.5</ele><time>2011-04-28T03:17:14.0000000+00:00</time></trkpt><trkpt lat="22.175695" lon="104.588882"><ele>70.9</ele><time>2011-04-28T03:17:19.0000000+00:00</time></trkpt><trkpt lat="22.17564" lon="104.589058"><ele>70.0</ele><time>2011-04-28T03:17:24.0000000+00:00</time></trkpt><trkpt lat="22.175657" lon="104.589272"><ele>70.3</ele><time>2011-04-28T03:17:29.0000000+00:00</time></trkpt><trkpt lat="22.17568" lon="104.589485"><ele>71.3</ele><time>2011-04-28T03:17:34.0000000+00:00</time></trkpt><trkpt lat="22.175632" lon="104.589668"><ele>72.6</ele><time>2011-04-28T03:17:39.0000000+00:00</time></trkpt><trkpt lat="22.175556" lon="104.589783"><ele>73.4</ele><time>2011-04-28T03:17:44.0000000+00:00</time></trkpt><trkpt lat="22.17543" lon="104.589874"><ele>75.1</ele><time>2011-04-28T03:17:49.0000000+00:00</time></trkpt><trkpt lat="22.175222" lon="104.589874"><ele>76.4</ele><time>2011-04-28T03:17:54.0000000+00:00</time></trkpt><trkpt lat="22.175072" lon="104.589874"><ele>78.1</ele><time>2011-04-28T03:17:59.0000000+00:00</time></trkpt><trkpt lat="22.174944" lon="104.590019"><ele>77.5</ele><time>2011-04-28T03:18:04.0000000+00:00</time></trkpt><trkpt lat="22.174868" lon="104.590187"><ele>77.0</ele><time>2011-04-28T03:18:09.0000000+00:00</time></trkpt><trkpt lat="22.174822" lon="104.59034"><ele>77.1</ele><time>2011-04-28T03:18:14.0000000+00:00</time></trkpt><trkpt lat="22.174732" lon="104.590492"><ele>77.4</ele><time>2011-04-28T03:18:19.0000000+00:00</time></trkpt><trkpt lat="22.174627" lon="104.590569"><ele>77.9</ele><time>2011-04-28T03:18:24.0000000+00:00</time></trkpt><trkpt lat="22.174576" lon="104.590599"><ele>78.5</ele><time>2011-04-28T03:18:29.0000000+00:00</time></trkpt><trkpt lat="22.174473" lon="104.590652"><ele>78.9</ele><time>2011-04-28T03:18:34.0000000+00:00</time></trkpt><trkpt lat="22.174398" lon="104.590683"><ele>79.1</ele><time>2011-04-28T03:18:39.0000000+00:00</time></trkpt><trkpt lat="22.174309" lon="104.590744"><ele>79.8</ele><time>2011-04-28T03:18:44.0000000+00:00</time></trkpt><trkpt lat="22.174202" lon="104.590805"><ele>80.1</ele><time>2011-04-28T03:18:49.0000000+00:00</time></trkpt><trkpt lat="22.174114" lon="104.590889"><ele>80.7</ele><time>2011-04-28T03:18:54.0000000+00:00</time></trkpt><trkpt lat="22.174025" lon="104.590958"><ele>81.3</ele><time>2011-04-28T03:18:59.0000000+00:00</time></trkpt><trkpt lat="22.173958" lon="104.590996"><ele>82.1</ele><time>2011-04-28T03:19:04.0000000+00:00</time></trkpt><trkpt lat="22.173891" lon="104.591042"><ele>82.9</ele><time>2011-04-28T03:19:09.0000000+00:00</time></trkpt><trkpt lat="22.173796" lon="104.591103"><ele>84.1</ele><time>2011-04-28T03:19:14.0000000+00:00</time></trkpt><trkpt lat="22.173698" lon="104.591171"><ele>84.8</ele><time>2011-04-28T03:19:19.0000000+00:00</time></trkpt><trkpt lat="22.173592" lon="104.591309"><ele>84.5</ele><time>2011-04-28T03:19:24.0000000+00:00</time></trkpt><trkpt lat="22.173492" lon="104.591469"><ele>83.9</ele><time>2011-04-28T03:19:29.0000000+00:00</time></trkpt><trkpt lat="22.173391" lon="104.591637"><ele>83.8</ele><time>2011-04-28T03:19:34.0000000+00:00</time></trkpt><trkpt lat="22.17333" lon="104.591858"><ele>83.4</ele><time>2011-04-28T03:19:39.0000000+00:00</time></trkpt><trkpt lat="22.173265" lon="104.59211"><ele>81.6</ele><time>2011-04-28T03:19:44.0000000+00:00</time></trkpt><trkpt lat="22.173132" lon="104.592346"><ele>81.0</ele><time>2011-04-28T03:19:49.0000000+00:00</time></trkpt><trkpt lat="22.172974" lon="104.592552"><ele>80.3</ele><time>2011-04-28T03:19:54.0000000+00:00</time></trkpt><trkpt lat="22.172815" lon="104.592758"><ele>80.2</ele><time>2011-04-28T03:19:59.0000000+00:00</time></trkpt><trkpt lat="22.172632" lon="104.592934"><ele>79.9</ele><time>2011-04-28T03:20:04.0000000+00:00</time></trkpt><trkpt lat="22.172436" lon="104.59304"><ele>80.8</ele><time>2011-04-28T03:20:09.0000000+00:00</time></trkpt><trkpt lat="22.172262" lon="104.593163"><ele>81.8</ele><time>2011-04-28T03:20:14.0000000+00:00</time></trkpt><trkpt lat="22.172155" lon="104.593307"><ele>82.5</ele><time>2011-04-28T03:20:19.0000000+00:00</time></trkpt><trkpt lat="22.17206" lon="104.59343"><ele>82.6</ele><time>2011-04-28T03:20:24.0000000+00:00</time></trkpt><trkpt lat="22.171991" lon="104.593529"><ele>83.5</ele><time>2011-04-28T03:20:29.0000000+00:00</time></trkpt><trkpt lat="22.171911" lon="104.593651"><ele>83.6</ele><time>2011-04-28T03:20:34.0000000+00:00</time></trkpt><trkpt lat="22.171865" lon="104.593803"><ele>81.1</ele><time>2011-04-28T03:20:39.0000000+00:00</time></trkpt><trkpt lat="22.171791" lon="104.594017"><ele>80.2</ele><time>2011-04-28T03:20:44.0000000+00:00</time></trkpt><trkpt lat="22.171659" lon="104.594246"><ele>79.1</ele><time>2011-04-28T03:20:49.0000000+00:00</time></trkpt><trkpt lat="22.17148" lon="104.594498"><ele>77.2</ele><time>2011-04-28T03:20:54.0000000+00:00</time></trkpt><trkpt lat="22.171303" lon="104.594765"><ele>78.8</ele><time>2011-04-28T03:20:59.0000000+00:00</time></trkpt><trkpt lat="22.171158" lon="104.595032"><ele>78.5</ele><time>2011-04-28T03:21:04.0000000+00:00</time></trkpt><trkpt lat="22.171041" lon="104.595245"><ele>78.6</ele><time>2011-04-28T03:21:09.0000000+00:00</time></trkpt><trkpt lat="22.170918" lon="104.595413"><ele>80.5</ele><time>2011-04-28T03:21:14.0000000+00:00</time></trkpt><trkpt lat="22.170828" lon="104.595573"><ele>81.1</ele><time>2011-04-28T03:21:19.0000000+00:00</time></trkpt><trkpt lat="22.170824" lon="104.595718"><ele>81.7</ele><time>2011-04-28T03:21:24.0000000+00:00</time></trkpt><trkpt lat="22.170845" lon="104.595863"><ele>82.2</ele><time>2011-04-28T03:21:29.0000000+00:00</time></trkpt><trkpt lat="22.17086" lon="104.596001"><ele>82.9</ele><time>2011-04-28T03:21:34.0000000+00:00</time></trkpt><trkpt lat="22.17087" lon="104.5961"><ele>83.9</ele><time>2011-04-28T03:21:39.0000000+00:00</time></trkpt><trkpt lat="22.170876" lon="104.596115"><ele>84.4</ele><time>2011-04-28T03:21:44.0000000+00:00</time></trkpt><trkpt lat="22.170877" lon="104.596115"><ele>84.4</ele><time>2011-04-28T03:21:49.0000000+00:00</time></trkpt><trkpt lat="22.170879" lon="104.596123"><ele>84.5</ele><time>2011-04-28T03:21:54.0000000+00:00</time></trkpt><trkpt lat="22.170879" lon="104.596123"><ele>84.5</ele><time>2011-04-28T03:21:59.0000000+00:00</time></trkpt><trkpt lat="22.170877" lon="104.596123"><ele>84.5</ele><time>2011-04-28T03:22:04.0000000+00:00</time></trkpt><trkpt lat="22.170877" lon="104.596123"><ele>84.5</ele><time>2011-04-28T03:22:09.0000000+00:00</time></trkpt><trkpt lat="22.170876" lon="104.596123"><ele>84.5</ele><time>2011-04-28T03:22:14.0000000+00:00</time></trkpt><trkpt lat="22.170876" lon="104.596123"><ele>84.5</ele><time>2011-04-28T03:22:19.0000000+00:00</time></trkpt><trkpt lat="22.170876" lon="104.59613"><ele>84.5</ele><time>2011-04-28T03:22:24.0000000+00:00</time></trkpt><trkpt lat="22.170876" lon="104.59613"><ele>84.6</ele><time>2011-04-28T03:22:29.0000000+00:00</time></trkpt><trkpt lat="22.170876" lon="104.596123"><ele>84.6</ele><time>2011-04-28T03:22:34.0000000+00:00</time></trkpt><trkpt lat="22.170876" lon="104.596123"><ele>84.6</ele><time>2011-04-28T03:22:39.0000000+00:00</time></trkpt><trkpt lat="22.170876" lon="104.596123"><ele>84.6</ele><time>2011-04-28T03:22:44.0000000+00:00</time></trkpt><trkpt lat="22.170876" lon="104.596123"><ele>84.6</ele><time>2011-04-28T03:22:49.0000000+00:00</time></trkpt><trkpt lat="22.170876" lon="104.596123"><ele>84.6</ele><time>2011-04-28T03:22:54.0000000+00:00</time></trkpt><trkpt lat="22.170876" lon="104.596123"><ele>84.6</ele><time>2011-04-28T03:22:59.0000000+00:00</time></trkpt><trkpt lat="22.170876" lon="104.596123"><ele>84.6</ele><time>2011-04-28T03:23:04.0000000+00:00</time></trkpt><trkpt lat="22.170876" lon="104.596123"><ele>84.6</ele><time>2011-04-28T03:23:09.0000000+00:00</time></trkpt><trkpt lat="22.170876" lon="104.596123"><ele>84.6</ele><time>2011-04-28T03:23:14.0000000+00:00</time></trkpt><trkpt lat="22.170876" lon="104.596123"><ele>84.6</ele><time>2011-04-28T03:23:19.0000000+00:00</time></trkpt><trkpt lat="22.170876" lon="104.596123"><ele>84.6</ele><time>2011-04-28T03:23:24.0000000+00:00</time></trkpt><trkpt lat="22.170876" lon="104.59613"><ele>84.6</ele><time>2011-04-28T03:23:29.0000000+00:00</time></trkpt><trkpt lat="22.170876" lon="104.59613"><ele>84.7</ele><time>2011-04-28T03:23:34.0000000+00:00</time></trkpt><trkpt lat="22.170876" lon="104.59613"><ele>84.8</ele><time>2011-04-28T03:23:39.0000000+00:00</time></trkpt><trkpt lat="22.170874" lon="104.59613"><ele>84.9</ele><time>2011-04-28T03:23:44.0000000+00:00</time></trkpt><trkpt lat="22.170874" lon="104.59613"><ele>85.0</ele><time>2011-04-28T03:23:49.0000000+00:00</time></trkpt><trkpt lat="22.170874" lon="104.59613"><ele>85.0</ele><time>2011-04-28T03:23:54.0000000+00:00</time></trkpt><trkpt lat="22.170874" lon="104.59613"><ele>85.0</ele><time>2011-04-28T03:23:59.0000000+00:00</time></trkpt><trkpt lat="22.170876" lon="104.59613"><ele>85.0</ele><time>2011-04-28T03:24:04.0000000+00:00</time></trkpt><trkpt lat="22.170876" lon="104.59613"><ele>85.0</ele><time>2011-04-28T03:24:09.0000000+00:00</time></trkpt><trkpt lat="22.170876" lon="104.59613"><ele>85.0</ele><time>2011-04-28T03:24:14.0000000+00:00</time></trkpt><trkpt lat="22.170874" lon="104.59613"><ele>85.1</ele><time>2011-04-28T03:24:19.0000000+00:00</time></trkpt><trkpt lat="22.170874" lon="104.59613"><ele>85.0</ele><time>2011-04-28T03:24:24.0000000+00:00</time></trkpt><trkpt lat="22.170874" lon="104.59613"><ele>85.1</ele><time>2011-04-28T03:24:29.0000000+00:00</time></trkpt><trkpt lat="22.170874" lon="104.59613"><ele>85.1</ele><time>2011-04-28T03:24:34.0000000+00:00</time></trkpt><trkpt lat="22.170874" lon="104.59613"><ele>85.1</ele><time>2011-04-28T03:24:39.0000000+00:00</time></trkpt><trkpt lat="22.170874" lon="104.59613"><ele>85.2</ele><time>2011-04-28T03:24:44.0000000+00:00</time></trkpt><trkpt lat="22.170874" lon="104.59613"><ele>85.1</ele><time>2011-04-28T03:24:49.0000000+00:00</time></trkpt><trkpt lat="22.170874" lon="104.59613"><ele>85.2</ele><time>2011-04-28T03:24:54.0000000+00:00</time></trkpt><trkpt lat="22.170874" lon="104.59613"><ele>85.2</ele><time>2011-04-28T03:24:59.0000000+00:00</time></trkpt><trkpt lat="22.170874" lon="104.59613"><ele>85.2</ele><time>2011-04-28T03:25:04.0000000+00:00</time></trkpt><trkpt lat="22.170874" lon="104.59613"><ele>85.2</ele><time>2011-04-28T03:25:09.0000000+00:00</time></trkpt><trkpt lat="22.170874" lon="104.59613"><ele>85.2</ele><time>2011-04-28T03:25:14.0000000+00:00</time></trkpt><trkpt lat="22.170874" lon="104.59613"><ele>85.2</ele><time>2011-04-28T03:25:19.0000000+00:00</time></trkpt><trkpt lat="22.170874" lon="104.59613"><ele>85.2</ele><time>2011-04-28T03:25:24.0000000+00:00</time></trkpt><trkpt lat="22.170874" lon="104.59613"><ele>85.2</ele><time>2011-04-28T03:25:29.0000000+00:00</time></trkpt><trkpt lat="22.170874" lon="104.596138"><ele>85.3</ele><time>2011-04-28T03:25:34.0000000+00:00</time></trkpt><trkpt lat="22.170874" lon="104.596138"><ele>85.3</ele><time>2011-04-28T03:25:39.0000000+00:00</time></trkpt><trkpt lat="22.170872" lon="104.596146"><ele>85.3</ele><time>2011-04-28T03:25:44.0000000+00:00</time></trkpt><trkpt lat="22.17087" lon="104.596161"><ele>85.4</ele><time>2011-04-28T03:25:49.0000000+00:00</time></trkpt><trkpt lat="22.170868" lon="104.596176"><ele>85.4</ele><time>2011-04-28T03:25:54.0000000+00:00</time></trkpt><trkpt lat="22.170866" lon="104.596176"><ele>85.5</ele><time>2011-04-28T03:25:59.0000000+00:00</time></trkpt><trkpt lat="22.170864" lon="104.596184"><ele>85.6</ele><time>2011-04-28T03:26:04.0000000+00:00</time></trkpt><trkpt lat="22.170866" lon="104.596184"><ele>85.6</ele><time>2011-04-28T03:26:09.0000000+00:00</time></trkpt><trkpt lat="22.170866" lon="104.596184"><ele>85.6</ele><time>2011-04-28T03:26:14.0000000+00:00</time></trkpt><trkpt lat="22.170864" lon="104.596184"><ele>85.6</ele><time>2011-04-28T03:26:19.0000000+00:00</time></trkpt><trkpt lat="22.170864" lon="104.596176"><ele>85.2</ele><time>2011-04-28T03:26:24.0000000+00:00</time></trkpt><trkpt lat="22.170862" lon="104.596169"><ele>84.9</ele><time>2011-04-28T03:26:29.0000000+00:00</time></trkpt><trkpt lat="22.170862" lon="104.596169"><ele>84.6</ele><time>2011-04-28T03:26:34.0000000+00:00</time></trkpt><trkpt lat="22.170858" lon="104.596191"><ele>84.0</ele><time>2011-04-28T03:26:39.0000000+00:00</time></trkpt><trkpt lat="22.170868" lon="104.596176"><ele>84.3</ele><time>2011-04-28T03:26:44.0000000+00:00</time></trkpt><trkpt lat="22.17087" lon="104.596222"><ele>84.2</ele><time>2011-04-28T03:26:49.0000000+00:00</time></trkpt><trkpt lat="22.170866" lon="104.596291"><ele>84.1</ele><time>2011-04-28T03:26:54.0000000+00:00</time></trkpt><trkpt lat="22.170866" lon="104.596275"><ele>84.6</ele><time>2011-04-28T03:26:59.0000000+00:00</time></trkpt><trkpt lat="22.17086" lon="104.596237"><ele>85.0</ele><time>2011-04-28T03:27:04.0000000+00:00</time></trkpt><trkpt lat="22.17086" lon="104.596237"><ele>85.4</ele><time>2011-04-28T03:27:09.0000000+00:00</time></trkpt><trkpt lat="22.17086" lon="104.596245"><ele>85.7</ele><time>2011-04-28T03:27:14.0000000+00:00</time></trkpt><trkpt lat="22.170858" lon="104.596245"><ele>85.7</ele><time>2011-04-28T03:27:19.0000000+00:00</time></trkpt><trkpt lat="22.170847" lon="104.596252"><ele>86.8</ele><time>2011-04-28T03:27:24.0000000+00:00</time></trkpt><trkpt lat="22.170847" lon="104.596252"><ele>86.6</ele><time>2011-04-28T03:27:29.0000000+00:00</time></trkpt><trkpt lat="22.170849" lon="104.596252"><ele>86.4</ele><time>2011-04-28T03:27:34.0000000+00:00</time></trkpt><trkpt lat="22.170849" lon="104.596252"><ele>86.3</ele><time>2011-04-28T03:27:39.0000000+00:00</time></trkpt><trkpt lat="22.170849" lon="104.596252"><ele>86.3</ele><time>2011-04-28T03:27:44.0000000+00:00</time></trkpt><trkpt lat="22.170849" lon="104.596252"><ele>86.3</ele><time>2011-04-28T03:27:49.0000000+00:00</time></trkpt><trkpt lat="22.170851" lon="104.596252"><ele>86.3</ele><time>2011-04-28T03:27:54.0000000+00:00</time></trkpt><trkpt lat="22.170851" lon="104.596252"><ele>86.3</ele><time>2011-04-28T03:27:59.0000000+00:00</time></trkpt><trkpt lat="22.170851" lon="104.596245"><ele>86.3</ele><time>2011-04-28T03:28:04.0000000+00:00</time></trkpt><trkpt lat="22.170853" lon="104.596245"><ele>86.4</ele><time>2011-04-28T03:28:09.0000000+00:00</time></trkpt><trkpt lat="22.170853" lon="104.596245"><ele>86.4</ele><time>2011-04-28T03:28:14.0000000+00:00</time></trkpt><trkpt lat="22.170853" lon="104.596245"><ele>86.4</ele><time>2011-04-28T03:28:19.0000000+00:00</time></trkpt><trkpt lat="22.170853" lon="104.596245"><ele>86.4</ele><time>2011-04-28T03:28:24.0000000+00:00</time></trkpt><trkpt lat="22.170855" lon="104.596245"><ele>86.4</ele><time>2011-04-28T03:28:29.0000000+00:00</time></trkpt><trkpt lat="22.170855" lon="104.596245"><ele>86.4</ele><time>2011-04-28T03:28:34.0000000+00:00</time></trkpt><trkpt lat="22.170855" lon="104.596245"><ele>86.4</ele><time>2011-04-28T03:28:39.0000000+00:00</time></trkpt><trkpt lat="22.170855" lon="104.596245"><ele>86.4</ele><time>2011-04-28T03:28:44.0000000+00:00</time></trkpt><trkpt lat="22.170855" lon="104.596245"><ele>86.5</ele><time>2011-04-28T03:28:49.0000000+00:00</time></trkpt><trkpt lat="22.170856" lon="104.596245"><ele>86.5</ele><time>2011-04-28T03:28:54.0000000+00:00</time></trkpt><trkpt lat="22.170856" lon="104.596245"><ele>86.5</ele><time>2011-04-28T03:28:59.0000000+00:00</time></trkpt><trkpt lat="22.170856" lon="104.596252"><ele>86.5</ele><time>2011-04-28T03:29:04.0000000+00:00</time></trkpt><trkpt lat="22.170856" lon="104.596252"><ele>86.5</ele><time>2011-04-28T03:29:09.0000000+00:00</time></trkpt><trkpt lat="22.170856" lon="104.596252"><ele>86.6</ele><time>2011-04-28T03:29:14.0000000+00:00</time></trkpt><trkpt lat="22.170856" lon="104.596252"><ele>86.6</ele><time>2011-04-28T03:29:19.0000000+00:00</time></trkpt><trkpt lat="22.170856" lon="104.596252"><ele>86.6</ele><time>2011-04-28T03:29:24.0000000+00:00</time></trkpt><trkpt lat="22.170858" lon="104.596252"><ele>86.6</ele><time>2011-04-28T03:29:29.0000000+00:00</time></trkpt><trkpt lat="22.170858" lon="104.596252"><ele>86.7</ele><time>2011-04-28T03:29:34.0000000+00:00</time></trkpt><trkpt lat="22.17086" lon="104.596252"><ele>86.8</ele><time>2011-04-28T03:29:39.0000000+00:00</time></trkpt><trkpt lat="22.17086" lon="104.596252"><ele>86.8</ele><time>2011-04-28T03:29:44.0000000+00:00</time></trkpt><trkpt lat="22.17086" lon="104.596252"><ele>86.8</ele><time>2011-04-28T03:29:49.0000000+00:00</time></trkpt><trkpt lat="22.17086" lon="104.596252"><ele>86.8</ele><time>2011-04-28T03:29:54.0000000+00:00</time></trkpt><trkpt lat="22.17086" lon="104.596252"><ele>86.8</ele><time>2011-04-28T03:29:59.0000000+00:00</time></trkpt><trkpt lat="22.17086" lon="104.596252"><ele>86.8</ele><time>2011-04-28T03:30:04.0000000+00:00</time></trkpt><trkpt lat="22.170862" lon="104.596252"><ele>86.9</ele><time>2011-04-28T03:30:09.0000000+00:00</time></trkpt><trkpt lat="22.170862" lon="104.596252"><ele>86.9</ele><time>2011-04-28T03:30:14.0000000+00:00</time></trkpt><trkpt lat="22.170862" lon="104.596252"><ele>86.9</ele><time>2011-04-28T03:30:19.0000000+00:00</time></trkpt><trkpt lat="22.170862" lon="104.596252"><ele>87.0</ele><time>2011-04-28T03:30:24.0000000+00:00</time></trkpt><trkpt lat="22.170862" lon="104.596252"><ele>87.0</ele><time>2011-04-28T03:30:29.0000000+00:00</time></trkpt><trkpt lat="22.170862" lon="104.596252"><ele>86.9</ele><time>2011-04-28T03:30:34.0000000+00:00</time></trkpt><trkpt lat="22.170862" lon="104.596252"><ele>86.9</ele><time>2011-04-28T03:30:39.0000000+00:00</time></trkpt><trkpt lat="22.170868" lon="104.596329"><ele>86.8</ele><time>2011-04-28T03:30:44.0000000+00:00</time></trkpt><trkpt lat="22.170858" lon="104.596474"><ele>86.3</ele><time>2011-04-28T03:30:49.0000000+00:00</time></trkpt><trkpt lat="22.170816" lon="104.596703"><ele>85.1</ele><time>2011-04-28T03:30:54.0000000+00:00</time></trkpt><trkpt lat="22.170677" lon="104.596924"><ele>84.1</ele><time>2011-04-28T03:30:59.0000000+00:00</time></trkpt><trkpt lat="22.170427" lon="104.596977"><ele>83.2</ele><time>2011-04-28T03:31:04.0000000+00:00</time></trkpt><trkpt lat="22.170191" lon="104.596954"><ele>82.3</ele><time>2011-04-28T03:31:09.0000000+00:00</time></trkpt><trkpt lat="22.169977" lon="104.597015"><ele>81.0</ele><time>2011-04-28T03:31:14.0000000+00:00</time></trkpt><trkpt lat="22.169821" lon="104.597153"><ele>79.4</ele><time>2011-04-28T03:31:19.0000000+00:00</time></trkpt><trkpt lat="22.169796" lon="104.59729"><ele>79.5</ele><time>2011-04-28T03:31:24.0000000+00:00</time></trkpt><trkpt lat="22.169868" lon="104.597443"><ele>80.1</ele><time>2011-04-28T03:31:29.0000000+00:00</time></trkpt><trkpt lat="22.169947" lon="104.59758"><ele>80.0</ele><time>2011-04-28T03:31:34.0000000+00:00</time></trkpt><trkpt lat="22.169893" lon="104.597725"><ele>79.8</ele><time>2011-04-28T03:31:39.0000000+00:00</time></trkpt><trkpt lat="22.1698" lon="104.59803"><ele>80.0</ele><time>2011-04-28T03:31:44.0000000+00:00</time></trkpt><trkpt lat="22.169695" lon="104.598259"><ele>80.3</ele><time>2011-04-28T03:31:49.0000000+00:00</time></trkpt><trkpt lat="22.169584" lon="104.598488"><ele>80.4</ele><time>2011-04-28T03:31:54.0000000+00:00</time></trkpt><trkpt lat="22.169479" lon="104.598701"><ele>80.6</ele><time>2011-04-28T03:31:59.0000000+00:00</time></trkpt><trkpt lat="22.169365" lon="104.598923"><ele>80.7</ele><time>2011-04-28T03:32:04.0000000+00:00</time></trkpt><trkpt lat="22.169266" lon="104.599129"><ele>80.7</ele><time>2011-04-28T03:32:09.0000000+00:00</time></trkpt><trkpt lat="22.169147" lon="104.599342"><ele>80.6</ele><time>2011-04-28T03:32:14.0000000+00:00</time></trkpt><trkpt lat="22.168997" lon="104.599518"><ele>81.1</ele><time>2011-04-28T03:32:19.0000000+00:00</time></trkpt><trkpt lat="22.168856" lon="104.59967"><ele>81.3</ele><time>2011-04-28T03:32:24.0000000+00:00</time></trkpt><trkpt lat="22.168707" lon="104.599785"><ele>80.9</ele><time>2011-04-28T03:32:29.0000000+00:00</time></trkpt><trkpt lat="22.168621" lon="104.599823"><ele>80.9</ele><time>2011-04-28T03:32:34.0000000+00:00</time></trkpt><trkpt lat="22.168562" lon="104.599838"><ele>80.9</ele><time>2011-04-28T03:32:39.0000000+00:00</time></trkpt><trkpt lat="22.168549" lon="104.599831"><ele>80.5</ele><time>2011-04-28T03:32:44.0000000+00:00</time></trkpt><trkpt lat="22.168547" lon="104.599831"><ele>80.4</ele><time>2011-04-28T03:32:49.0000000+00:00</time></trkpt><trkpt lat="22.168547" lon="104.599831"><ele>80.4</ele><time>2011-04-28T03:32:54.0000000+00:00</time></trkpt><trkpt lat="22.168484" lon="104.599808"><ele>80.6</ele><time>2011-04-28T03:32:59.0000000+00:00</time></trkpt><trkpt lat="22.16831" lon="104.599785"><ele>80.6</ele><time>2011-04-28T03:33:04.0000000+00:00</time></trkpt><trkpt lat="22.168169" lon="104.599846"><ele>80.5</ele><time>2011-04-28T03:33:09.0000000+00:00</time></trkpt><trkpt lat="22.167925" lon="104.599983"><ele>79.3</ele><time>2011-04-28T03:33:14.0000000+00:00</time></trkpt><trkpt lat="22.167713" lon="104.600159"><ele>79.5</ele><time>2011-04-28T03:33:19.0000000+00:00</time></trkpt><trkpt lat="22.167467" lon="104.600273"><ele>79.3</ele><time>2011-04-28T03:33:24.0000000+00:00</time></trkpt><trkpt lat="22.167212" lon="104.60038"><ele>79.9</ele><time>2011-04-28T03:33:29.0000000+00:00</time></trkpt><trkpt lat="22.166927" lon="104.600502"><ele>80.4</ele><time>2011-04-28T03:33:34.0000000+00:00</time></trkpt><trkpt lat="22.166685" lon="104.600624"><ele>81.2</ele><time>2011-04-28T03:33:39.0000000+00:00</time></trkpt><trkpt lat="22.166494" lon="104.600708"><ele>82.0</ele><time>2011-04-28T03:33:44.0000000+00:00</time></trkpt><trkpt lat="22.166332" lon="104.600777"><ele>82.9</ele><time>2011-04-28T03:33:49.0000000+00:00</time></trkpt><trkpt lat="22.16614" lon="104.600853"><ele>83.6</ele><time>2011-04-28T03:33:54.0000000+00:00</time></trkpt><trkpt lat="22.165974" lon="104.600891"><ele>85.0</ele><time>2011-04-28T03:33:59.0000000+00:00</time></trkpt><trkpt lat="22.165777" lon="104.600937"><ele>85.4</ele><time>2011-04-28T03:34:04.0000000+00:00</time></trkpt><trkpt lat="22.165623" lon="104.600983"><ele>85.5</ele><time>2011-04-28T03:34:09.0000000+00:00</time></trkpt><trkpt lat="22.165503" lon="104.601013"><ele>85.9</ele><time>2011-04-28T03:34:14.0000000+00:00</time></trkpt><trkpt lat="22.165392" lon="104.601051"><ele>86.6</ele><time>2011-04-28T03:34:19.0000000+00:00</time></trkpt><trkpt lat="22.165253" lon="104.601128"><ele>87.8</ele><time>2011-04-28T03:34:24.0000000+00:00</time></trkpt><trkpt lat="22.16515" lon="104.601219"><ele>89.4</ele><time>2011-04-28T03:34:29.0000000+00:00</time></trkpt><trkpt lat="22.16507" lon="104.601349"><ele>90.8</ele><time>2011-04-28T03:34:34.0000000+00:00</time></trkpt><trkpt lat="22.165026" lon="104.601471"><ele>92.3</ele><time>2011-04-28T03:34:39.0000000+00:00</time></trkpt><trkpt lat="22.164951" lon="104.601585"><ele>92.9</ele><time>2011-04-28T03:34:44.0000000+00:00</time></trkpt><trkpt lat="22.164877" lon="104.601715"><ele>93.4</ele><time>2011-04-28T03:34:49.0000000+00:00</time></trkpt><trkpt lat="22.164791" lon="104.60183"><ele>93.0</ele><time>2011-04-28T03:34:54.0000000+00:00</time></trkpt><trkpt lat="22.164724" lon="104.601959"><ele>94.3</ele><time>2011-04-28T03:34:59.0000000+00:00</time></trkpt><trkpt lat="22.164682" lon="104.602081"><ele>95.8</ele><time>2011-04-28T03:35:04.0000000+00:00</time></trkpt><trkpt lat="22.1647" lon="104.602203"><ele>97.2</ele><time>2011-04-28T03:35:09.0000000+00:00</time></trkpt><trkpt lat="22.164736" lon="104.602325"><ele>98.7</ele><time>2011-04-28T03:35:14.0000000+00:00</time></trkpt><trkpt lat="22.164789" lon="104.602455"><ele>100.2</ele><time>2011-04-28T03:35:19.0000000+00:00</time></trkpt><trkpt lat="22.164843" lon="104.60257"><ele>101.5</ele><time>2011-04-28T03:35:24.0000000+00:00</time></trkpt><trkpt lat="22.164881" lon="104.602684"><ele>102.7</ele><time>2011-04-28T03:35:29.0000000+00:00</time></trkpt><trkpt lat="22.164923" lon="104.602783"><ele>103.8</ele><time>2011-04-28T03:35:34.0000000+00:00</time></trkpt><trkpt lat="22.164982" lon="104.602905"><ele>105.1</ele><time>2011-04-28T03:35:39.0000000+00:00</time></trkpt><trkpt lat="22.165068" lon="104.603149"><ele>105.6</ele><time>2011-04-28T03:35:44.0000000+00:00</time></trkpt><trkpt lat="22.165205" lon="104.603485"><ele>105.0</ele><time>2011-04-28T03:35:49.0000000+00:00</time></trkpt><trkpt lat="22.165289" lon="104.603806"><ele>104.8</ele><time>2011-04-28T03:35:54.0000000+00:00</time></trkpt><trkpt lat="22.165218" lon="104.604073"><ele>104.2</ele><time>2011-04-28T03:35:59.0000000+00:00</time></trkpt><trkpt lat="22.165098" lon="104.604317"><ele>104.1</ele><time>2011-04-28T03:36:04.0000000+00:00</time></trkpt><trkpt lat="22.164923" lon="104.604538"><ele>104.7</ele><time>2011-04-28T03:36:09.0000000+00:00</time></trkpt><trkpt lat="22.164762" lon="104.604675"><ele>105.3</ele><time>2011-04-28T03:36:14.0000000+00:00</time></trkpt><trkpt lat="22.16457" lon="104.604805"><ele>105.8</ele><time>2011-04-28T03:36:19.0000000+00:00</time></trkpt><trkpt lat="22.16444" lon="104.60498"><ele>105.4</ele><time>2011-04-28T03:36:24.0000000+00:00</time></trkpt><trkpt lat="22.164373" lon="104.605186"><ele>105.8</ele><time>2011-04-28T03:36:29.0000000+00:00</time></trkpt><trkpt lat="22.16428" lon="104.605377"><ele>105.5</ele><time>2011-04-28T03:36:34.0000000+00:00</time></trkpt><trkpt lat="22.164165" lon="104.605568"><ele>106.1</ele><time>2011-04-28T03:36:39.0000000+00:00</time></trkpt><trkpt lat="22.164057" lon="104.605667"><ele>106.4</ele><time>2011-04-28T03:36:44.0000000+00:00</time></trkpt><trkpt lat="22.1639" lon="104.60569"><ele>107.0</ele><time>2011-04-28T03:36:49.0000000+00:00</time></trkpt><trkpt lat="22.163748" lon="104.605644"><ele>107.9</ele><time>2011-04-28T03:36:54.0000000+00:00</time></trkpt><trkpt lat="22.163551" lon="104.605576"><ele>108.2</ele><time>2011-04-28T03:36:59.0000000+00:00</time></trkpt><trkpt lat="22.163342" lon="104.605537"><ele>107.9</ele><time>2011-04-28T03:37:04.0000000+00:00</time></trkpt><trkpt lat="22.163136" lon="104.605492"><ele>108.3</ele><time>2011-04-28T03:37:09.0000000+00:00</time></trkpt><trkpt lat="22.162939" lon="104.605484"><ele>108.0</ele><time>2011-04-28T03:37:14.0000000+00:00</time></trkpt><trkpt lat="22.162746" lon="104.605515"><ele>108.1</ele><time>2011-04-28T03:37:19.0000000+00:00</time></trkpt><trkpt lat="22.162516" lon="104.605621"><ele>107.3</ele><time>2011-04-28T03:37:24.0000000+00:00</time></trkpt><trkpt lat="22.162313" lon="104.605728"><ele>106.8</ele><time>2011-04-28T03:37:29.0000000+00:00</time></trkpt><trkpt lat="22.162088" lon="104.605812"><ele>106.5</ele><time>2011-04-28T03:37:34.0000000+00:00</time></trkpt><trkpt lat="22.161842" lon="104.605896"><ele>106.9</ele><time>2011-04-28T03:37:39.0000000+00:00</time></trkpt><trkpt lat="22.16161" lon="104.606094"><ele>106.4</ele><time>2011-04-28T03:37:44.0000000+00:00</time></trkpt><trkpt lat="22.161343" lon="104.606247"><ele>106.7</ele><time>2011-04-28T03:37:49.0000000+00:00</time></trkpt><trkpt lat="22.16111" lon="104.606369"><ele>107.6</ele><time>2011-04-28T03:37:54.0000000+00:00</time></trkpt><trkpt lat="22.160934" lon="104.606506"><ele>108.0</ele><time>2011-04-28T03:37:59.0000000+00:00</time></trkpt><trkpt lat="22.160791" lon="104.60659"><ele>108.3</ele><time>2011-04-28T03:38:04.0000000+00:00</time></trkpt><trkpt lat="22.160639" lon="104.606628"><ele>109.2</ele><time>2011-04-28T03:38:09.0000000+00:00</time></trkpt><trkpt lat="22.16049" lon="104.606682"><ele>110.5</ele><time>2011-04-28T03:38:14.0000000+00:00</time></trkpt><trkpt lat="22.160398" lon="104.606758"><ele>113.4</ele><time>2011-04-28T03:38:19.0000000+00:00</time></trkpt><trkpt lat="22.160345" lon="104.606834"><ele>115.4</ele><time>2011-04-28T03:38:24.0000000+00:00</time></trkpt><trkpt lat="22.160299" lon="104.606888"><ele>114.7</ele><time>2011-04-28T03:38:29.0000000+00:00</time></trkpt><trkpt lat="22.160255" lon="104.606979"><ele>114.8</ele><time>2011-04-28T03:38:34.0000000+00:00</time></trkpt><trkpt lat="22.160236" lon="104.607048"><ele>116.0</ele><time>2011-04-28T03:38:39.0000000+00:00</time></trkpt><trkpt lat="22.160213" lon="104.607094"><ele>117.2</ele><time>2011-04-28T03:38:44.0000000+00:00</time></trkpt><trkpt lat="22.160196" lon="104.607193"><ele>116.7</ele><time>2011-04-28T03:38:49.0000000+00:00</time></trkpt><trkpt lat="22.160198" lon="104.6073"><ele>115.5</ele><time>2011-04-28T03:38:54.0000000+00:00</time></trkpt><trkpt lat="22.160215" lon="104.607399"><ele>114.7</ele><time>2011-04-28T03:38:59.0000000+00:00</time></trkpt><trkpt lat="22.16025" lon="104.607521"><ele>114.2</ele><time>2011-04-28T03:39:04.0000000+00:00</time></trkpt><trkpt lat="22.160275" lon="104.60762"><ele>114.1</ele><time>2011-04-28T03:39:09.0000000+00:00</time></trkpt><trkpt lat="22.160257" lon="104.607719"><ele>114.0</ele><time>2011-04-28T03:39:14.0000000+00:00</time></trkpt><trkpt lat="22.160185" lon="104.607796"><ele>114.1</ele><time>2011-04-28T03:39:19.0000000+00:00</time></trkpt><trkpt lat="22.160076" lon="104.607864"><ele>114.5</ele><time>2011-04-28T03:39:24.0000000+00:00</time></trkpt><trkpt lat="22.159996" lon="104.607918"><ele>114.7</ele><time>2011-04-28T03:39:29.0000000+00:00</time></trkpt><trkpt lat="22.15991" lon="104.607933"><ele>114.7</ele><time>2011-04-28T03:39:34.0000000+00:00</time></trkpt><trkpt lat="22.159821" lon="104.607948"><ele>114.8</ele><time>2011-04-28T03:39:39.0000000+00:00</time></trkpt><trkpt lat="22.159702" lon="104.607986"><ele>114.6</ele><time>2011-04-28T03:39:44.0000000+00:00</time></trkpt><trkpt lat="22.159615" lon="104.608002"><ele>115.3</ele><time>2011-04-28T03:39:49.0000000+00:00</time></trkpt><trkpt lat="22.159531" lon="104.60804"><ele>115.8</ele><time>2011-04-28T03:39:54.0000000+00:00</time></trkpt><trkpt lat="22.159439" lon="104.608101"><ele>116.7</ele><time>2011-04-28T03:39:59.0000000+00:00</time></trkpt><trkpt lat="22.159349" lon="104.60817"><ele>117.4</ele><time>2011-04-28T03:40:04.0000000+00:00</time></trkpt><trkpt lat="22.159246" lon="104.608238"><ele>118.3</ele><time>2011-04-28T03:40:09.0000000+00:00</time></trkpt><trkpt lat="22.159128" lon="104.608292"><ele>118.7</ele><time>2011-04-28T03:40:14.0000000+00:00</time></trkpt><trkpt lat="22.159042" lon="104.608353"><ele>119.0</ele><time>2011-04-28T03:40:19.0000000+00:00</time></trkpt><trkpt lat="22.158945" lon="104.608414"><ele>121.3</ele><time>2011-04-28T03:40:24.0000000+00:00</time></trkpt><trkpt lat="22.158852" lon="104.608482"><ele>121.9</ele><time>2011-04-28T03:40:29.0000000+00:00</time></trkpt><trkpt lat="22.158777" lon="104.608528"><ele>122.9</ele><time>2011-04-28T03:40:34.0000000+00:00</time></trkpt><trkpt lat="22.158705" lon="104.608582"><ele>124.7</ele><time>2011-04-28T03:40:39.0000000+00:00</time></trkpt><trkpt lat="22.158611" lon="104.60865"><ele>125.9</ele><time>2011-04-28T03:40:44.0000000+00:00</time></trkpt><trkpt lat="22.158522" lon="104.608719"><ele>128.0</ele><time>2011-04-28T03:40:49.0000000+00:00</time></trkpt><trkpt lat="22.158422" lon="104.608795"><ele>131.2</ele><time>2011-04-28T03:40:54.0000000+00:00</time></trkpt><trkpt lat="22.158339" lon="104.608879"><ele>133.3</ele><time>2011-04-28T03:40:59.0000000+00:00</time></trkpt><trkpt lat="22.158289" lon="104.608971"><ele>134.5</ele><time>2011-04-28T03:41:04.0000000+00:00</time></trkpt><trkpt lat="22.158281" lon="104.609077"><ele>136.4</ele><time>2011-04-28T03:41:09.0000000+00:00</time></trkpt><trkpt lat="22.158243" lon="104.609261"><ele>132.0</ele><time>2011-04-28T03:41:14.0000000+00:00</time></trkpt><trkpt lat="22.158241" lon="104.609375"><ele>127.7</ele><time>2011-04-28T03:41:19.0000000+00:00</time></trkpt><trkpt lat="22.158215" lon="104.609543"><ele>125.4</ele><time>2011-04-28T03:41:24.0000000+00:00</time></trkpt><trkpt lat="22.158123" lon="104.609642"><ele>124.9</ele><time>2011-04-28T03:41:29.0000000+00:00</time></trkpt><trkpt lat="22.158028" lon="104.609741"><ele>124.8</ele><time>2011-04-28T03:41:34.0000000+00:00</time></trkpt><trkpt lat="22.157927" lon="104.609787"><ele>124.4</ele><time>2011-04-28T03:41:39.0000000+00:00</time></trkpt><trkpt lat="22.157827" lon="104.609833"><ele>124.1</ele><time>2011-04-28T03:41:44.0000000+00:00</time></trkpt><trkpt lat="22.157734" lon="104.609886"><ele>124.2</ele><time>2011-04-28T03:41:49.0000000+00:00</time></trkpt><trkpt lat="22.157639" lon="104.609962"><ele>124.4</ele><time>2011-04-28T03:41:54.0000000+00:00</time></trkpt><trkpt lat="22.157551" lon="104.610054"><ele>124.5</ele><time>2011-04-28T03:41:59.0000000+00:00</time></trkpt><trkpt lat="22.15749" lon="104.610161"><ele>124.7</ele><time>2011-04-28T03:42:04.0000000+00:00</time></trkpt><trkpt lat="22.157413" lon="104.610252"><ele>123.7</ele><time>2011-04-28T03:42:09.0000000+00:00</time></trkpt><trkpt lat="22.157339" lon="104.610336"><ele>123.3</ele><time>2011-04-28T03:42:14.0000000+00:00</time></trkpt><trkpt lat="22.15728" lon="104.610458"><ele>124.1</ele><time>2011-04-28T03:42:19.0000000+00:00</time></trkpt><trkpt lat="22.157234" lon="104.610497"><ele>126.3</ele><time>2011-04-28T03:42:24.0000000+00:00</time></trkpt><trkpt lat="22.157234" lon="104.610489"><ele>126.3</ele><time>2011-04-28T03:42:29.0000000+00:00</time></trkpt><trkpt lat="22.157232" lon="104.610489"><ele>126.5</ele><time>2011-04-28T03:42:34.0000000+00:00</time></trkpt><trkpt lat="22.157228" lon="104.610481"><ele>126.6</ele><time>2011-04-28T03:42:39.0000000+00:00</time></trkpt><trkpt lat="22.157223" lon="104.610489"><ele>126.6</ele><time>2011-04-28T03:42:44.0000000+00:00</time></trkpt><trkpt lat="22.157227" lon="104.610489"><ele>126.6</ele><time>2011-04-28T03:42:49.0000000+00:00</time></trkpt><trkpt lat="22.157234" lon="104.610489"><ele>126.6</ele><time>2011-04-28T03:42:54.0000000+00:00</time></trkpt><trkpt lat="22.157244" lon="104.610489"><ele>126.6</ele><time>2011-04-28T03:42:59.0000000+00:00</time></trkpt><trkpt lat="22.157255" lon="104.610489"><ele>126.5</ele><time>2011-04-28T03:43:04.0000000+00:00</time></trkpt><trkpt lat="22.157259" lon="104.610481"><ele>126.5</ele><time>2011-04-28T03:43:09.0000000+00:00</time></trkpt><trkpt lat="22.157257" lon="104.610481"><ele>126.5</ele><time>2011-04-28T03:43:14.0000000+00:00</time></trkpt><trkpt lat="22.157259" lon="104.610481"><ele>126.5</ele><time>2011-04-28T03:43:19.0000000+00:00</time></trkpt><trkpt lat="22.157269" lon="104.610481"><ele>126.5</ele><time>2011-04-28T03:43:24.0000000+00:00</time></trkpt><trkpt lat="22.15728" lon="104.610474"><ele>126.5</ele><time>2011-04-28T03:43:29.0000000+00:00</time></trkpt><trkpt lat="22.15729" lon="104.610474"><ele>126.5</ele><time>2011-04-28T03:43:34.0000000+00:00</time></trkpt><trkpt lat="22.157299" lon="104.610466"><ele>126.6</ele><time>2011-04-28T03:43:39.0000000+00:00</time></trkpt><trkpt lat="22.157297" lon="104.610458"><ele>126.6</ele><time>2011-04-28T03:43:44.0000000+00:00</time></trkpt><trkpt lat="22.157291" lon="104.610458"><ele>126.6</ele><time>2011-04-28T03:43:49.0000000+00:00</time></trkpt><trkpt lat="22.157286" lon="104.610458"><ele>126.6</ele><time>2011-04-28T03:43:54.0000000+00:00</time></trkpt><trkpt lat="22.157288" lon="104.610466"><ele>126.5</ele><time>2011-04-28T03:43:59.0000000+00:00</time></trkpt><trkpt lat="22.15729" lon="104.610466"><ele>126.5</ele><time>2011-04-28T03:44:04.0000000+00:00</time></trkpt><trkpt lat="22.15729" lon="104.610458"><ele>126.5</ele><time>2011-04-28T03:44:09.0000000+00:00</time></trkpt><trkpt lat="22.157288" lon="104.610466"><ele>126.4</ele><time>2011-04-28T03:44:14.0000000+00:00</time></trkpt><trkpt lat="22.157286" lon="104.610466"><ele>126.3</ele><time>2011-04-28T03:44:19.0000000+00:00</time></trkpt><trkpt lat="22.157284" lon="104.610466"><ele>126.3</ele><time>2011-04-28T03:44:24.0000000+00:00</time></trkpt><trkpt lat="22.157284" lon="104.610466"><ele>126.3</ele><time>2011-04-28T03:44:29.0000000+00:00</time></trkpt><trkpt lat="22.157282" lon="104.610466"><ele>126.3</ele><time>2011-04-28T03:44:34.0000000+00:00</time></trkpt><trkpt lat="22.157284" lon="104.610466"><ele>126.2</ele><time>2011-04-28T03:44:39.0000000+00:00</time></trkpt><trkpt lat="22.15729" lon="104.610466"><ele>126.2</ele><time>2011-04-28T03:44:44.0000000+00:00</time></trkpt><trkpt lat="22.157299" lon="104.610458"><ele>126.2</ele><time>2011-04-28T03:44:49.0000000+00:00</time></trkpt><trkpt lat="22.157309" lon="104.610451"><ele>126.2</ele><time>2011-04-28T03:44:54.0000000+00:00</time></trkpt><trkpt lat="22.157318" lon="104.610451"><ele>126.2</ele><time>2011-04-28T03:44:59.0000000+00:00</time></trkpt><trkpt lat="22.15733" lon="104.610443"><ele>126.2</ele><time>2011-04-28T03:45:04.0000000+00:00</time></trkpt><trkpt lat="22.157331" lon="104.610443"><ele>126.1</ele><time>2011-04-28T03:45:09.0000000+00:00</time></trkpt><trkpt lat="22.15733" lon="104.610443"><ele>126.0</ele><time>2011-04-28T03:45:14.0000000+00:00</time></trkpt><trkpt lat="22.157328" lon="104.610443"><ele>125.8</ele><time>2011-04-28T03:45:19.0000000+00:00</time></trkpt><trkpt lat="22.157326" lon="104.610451"><ele>125.5</ele><time>2011-04-28T03:45:24.0000000+00:00</time></trkpt><trkpt lat="22.157326" lon="104.610451"><ele>125.0</ele><time>2011-04-28T03:45:29.0000000+00:00</time></trkpt><trkpt lat="22.157326" lon="104.610451"><ele>124.6</ele><time>2011-04-28T03:45:34.0000000+00:00</time></trkpt><trkpt lat="22.157326" lon="104.610458"><ele>124.1</ele><time>2011-04-28T03:45:39.0000000+00:00</time></trkpt><trkpt lat="22.157326" lon="104.610458"><ele>123.6</ele><time>2011-04-28T03:45:44.0000000+00:00</time></trkpt><trkpt lat="22.157326" lon="104.610458"><ele>123.3</ele><time>2011-04-28T03:45:49.0000000+00:00</time></trkpt><trkpt lat="22.157328" lon="104.610466"><ele>122.9</ele><time>2011-04-28T03:45:54.0000000+00:00</time></trkpt><trkpt lat="22.15733" lon="104.610466"><ele>122.4</ele><time>2011-04-28T03:45:59.0000000+00:00</time></trkpt><trkpt lat="22.157326" lon="104.610466"><ele>121.8</ele><time>2011-04-28T03:46:04.0000000+00:00</time></trkpt><trkpt lat="22.15732" lon="104.610466"><ele>121.2</ele><time>2011-04-28T03:46:09.0000000+00:00</time></trkpt><trkpt lat="22.157316" lon="104.610474"><ele>120.4</ele><time>2011-04-28T03:46:14.0000000+00:00</time></trkpt><trkpt lat="22.157314" lon="104.610474"><ele>119.6</ele><time>2011-04-28T03:46:19.0000000+00:00</time></trkpt><trkpt lat="22.15731" lon="104.610474"><ele>118.7</ele><time>2011-04-28T03:46:24.0000000+00:00</time></trkpt><trkpt lat="22.157303" lon="104.610474"><ele>117.9</ele><time>2011-04-28T03:46:29.0000000+00:00</time></trkpt><trkpt lat="22.157295" lon="104.610466"><ele>117.0</ele><time>2011-04-28T03:46:34.0000000+00:00</time></trkpt><trkpt lat="22.157288" lon="104.610466"><ele>116.1</ele><time>2011-04-28T03:46:39.0000000+00:00</time></trkpt><trkpt lat="22.157278" lon="104.610458"><ele>115.3</ele><time>2011-04-28T03:46:44.0000000+00:00</time></trkpt><trkpt lat="22.157269" lon="104.610451"><ele>114.5</ele><time>2011-04-28T03:46:49.0000000+00:00</time></trkpt><trkpt lat="22.157175" lon="104.610413"><ele>113.9</ele><time>2011-04-28T03:46:54.0000000+00:00</time></trkpt><trkpt lat="22.157164" lon="104.610413"><ele>112.9</ele><time>2011-04-28T03:46:59.0000000+00:00</time></trkpt><trkpt lat="22.157213" lon="104.610466"><ele>112.6</ele><time>2011-04-28T03:47:04.0000000+00:00</time></trkpt><trkpt lat="22.157219" lon="104.610466"><ele>112.0</ele><time>2011-04-28T03:47:09.0000000+00:00</time></trkpt><trkpt lat="22.157223" lon="104.610466"><ele>111.5</ele><time>2011-04-28T03:47:14.0000000+00:00</time></trkpt><trkpt lat="22.157227" lon="104.610466"><ele>111.1</ele><time>2011-04-28T03:47:19.0000000+00:00</time></trkpt><trkpt lat="22.157232" lon="104.610466"><ele>110.6</ele><time>2011-04-28T03:47:24.0000000+00:00</time></trkpt><trkpt lat="22.157236" lon="104.610474"><ele>110.2</ele><time>2011-04-28T03:47:29.0000000+00:00</time></trkpt><trkpt lat="22.157242" lon="104.610474"><ele>109.9</ele><time>2011-04-28T03:47:34.0000000+00:00</time></trkpt><trkpt lat="22.157248" lon="104.610481"><ele>109.5</ele><time>2011-04-28T03:47:39.0000000+00:00</time></trkpt><trkpt lat="22.157253" lon="104.610481"><ele>109.1</ele><time>2011-04-28T03:47:44.0000000+00:00</time></trkpt><trkpt lat="22.157253" lon="104.610481"><ele>108.7</ele><time>2011-04-28T03:47:49.0000000+00:00</time></trkpt><trkpt lat="22.157257" lon="104.610481"><ele>108.3</ele><time>2011-04-28T03:47:54.0000000+00:00</time></trkpt><trkpt lat="22.157261" lon="104.610481"><ele>107.9</ele><time>2011-04-28T03:47:59.0000000+00:00</time></trkpt><trkpt lat="22.157263" lon="104.610481"><ele>107.5</ele><time>2011-04-28T03:48:04.0000000+00:00</time></trkpt><trkpt lat="22.157267" lon="104.610474"><ele>107.2</ele><time>2011-04-28T03:48:09.0000000+00:00</time></trkpt><trkpt lat="22.15727" lon="104.610466"><ele>106.8</ele><time>2011-04-28T03:48:14.0000000+00:00</time></trkpt><trkpt lat="22.157274" lon="104.610458"><ele>106.3</ele><time>2011-04-28T03:48:19.0000000+00:00</time></trkpt><trkpt lat="22.157272" lon="104.610451"><ele>105.9</ele><time>2011-04-28T03:48:24.0000000+00:00</time></trkpt><trkpt lat="22.157267" lon="104.610451"><ele>105.5</ele><time>2011-04-28T03:48:29.0000000+00:00</time></trkpt><trkpt lat="22.157259" lon="104.610443"><ele>105.3</ele><time>2011-04-28T03:48:34.0000000+00:00</time></trkpt><trkpt lat="22.157251" lon="104.610435"><ele>105.2</ele><time>2011-04-28T03:48:39.0000000+00:00</time></trkpt><trkpt lat="22.157244" lon="104.610428"><ele>105.4</ele><time>2011-04-28T03:48:44.0000000+00:00</time></trkpt><trkpt lat="22.15724" lon="104.61042"><ele>105.7</ele><time>2011-04-28T03:48:49.0000000+00:00</time></trkpt><trkpt lat="22.157234" lon="104.610413"><ele>105.9</ele><time>2011-04-28T03:48:54.0000000+00:00</time></trkpt><trkpt lat="22.15723" lon="104.610405"><ele>106.0</ele><time>2011-04-28T03:48:59.0000000+00:00</time></trkpt><trkpt lat="22.15719" lon="104.610359"><ele>105.4</ele><time>2011-04-28T03:49:04.0000000+00:00</time></trkpt><trkpt lat="22.157104" lon="104.610336"><ele>104.6</ele><time>2011-04-28T03:49:09.0000000+00:00</time></trkpt><trkpt lat="22.157043" lon="104.610352"><ele>105.0</ele><time>2011-04-28T03:49:14.0000000+00:00</time></trkpt><trkpt lat="22.156929" lon="104.610405"><ele>105.2</ele><time>2011-04-28T03:49:19.0000000+00:00</time></trkpt><trkpt lat="22.156809" lon="104.610497"><ele>106.7</ele><time>2011-04-28T03:49:24.0000000+00:00</time></trkpt><trkpt lat="22.156677" lon="104.610588"><ele>112.9</ele><time>2011-04-28T03:49:29.0000000+00:00</time></trkpt><trkpt lat="22.156555" lon="104.610703"><ele>117.1</ele><time>2011-04-28T03:49:34.0000000+00:00</time></trkpt><trkpt lat="22.156479" lon="104.610786"><ele>119.7</ele><time>2011-04-28T03:49:39.0000000+00:00</time></trkpt><trkpt lat="22.15637" lon="104.610901"><ele>119.6</ele><time>2011-04-28T03:49:44.0000000+00:00</time></trkpt><trkpt lat="22.156231" lon="104.611015"><ele>120.7</ele><time>2011-04-28T03:49:49.0000000+00:00</time></trkpt><trkpt lat="22.156122" lon="104.611053"><ele>121.5</ele><time>2011-04-28T03:49:54.0000000+00:00</time></trkpt><trkpt lat="22.155998" lon="104.611099"><ele>123.4</ele><time>2011-04-28T03:49:59.0000000+00:00</time></trkpt><trkpt lat="22.155899" lon="104.611237"><ele>122.7</ele><time>2011-04-28T03:50:04.0000000+00:00</time></trkpt><trkpt lat="22.155827" lon="104.611328"><ele>123.7</ele><time>2011-04-28T03:50:09.0000000+00:00</time></trkpt><trkpt lat="22.155716" lon="104.611473"><ele>124.2</ele><time>2011-04-28T03:50:14.0000000+00:00</time></trkpt><trkpt lat="22.15564" lon="104.611557"><ele>125.2</ele><time>2011-04-28T03:50:19.0000000+00:00</time></trkpt><trkpt lat="22.155586" lon="104.611603"><ele>126.1</ele><time>2011-04-28T03:50:24.0000000+00:00</time></trkpt><trkpt lat="22.15554" lon="104.611694"><ele>126.5</ele><time>2011-04-28T03:50:29.0000000+00:00</time></trkpt><trkpt lat="22.155516" lon="104.611786"><ele>127.8</ele><time>2011-04-28T03:50:34.0000000+00:00</time></trkpt><trkpt lat="22.155516" lon="104.611877"><ele>128.9</ele><time>2011-04-28T03:50:39.0000000+00:00</time></trkpt><trkpt lat="22.155537" lon="104.611984"><ele>129.9</ele><time>2011-04-28T03:50:44.0000000+00:00</time></trkpt><trkpt lat="22.155558" lon="104.612091"><ele>131.3</ele><time>2011-04-28T03:50:49.0000000+00:00</time></trkpt><trkpt lat="22.155544" lon="104.612175"><ele>131.4</ele><time>2011-04-28T03:50:54.0000000+00:00</time></trkpt><trkpt lat="22.155499" lon="104.612244"><ele>131.0</ele><time>2011-04-28T03:50:59.0000000+00:00</time></trkpt><trkpt lat="22.155441" lon="104.612297"><ele>131.6</ele><time>2011-04-28T03:51:04.0000000+00:00</time></trkpt><trkpt lat="22.155367" lon="104.612373"><ele>134.1</ele><time>2011-04-28T03:51:09.0000000+00:00</time></trkpt><trkpt lat="22.155306" lon="104.612434"><ele>135.9</ele><time>2011-04-28T03:51:14.0000000+00:00</time></trkpt><trkpt lat="22.155251" lon="104.612488"><ele>135.2</ele><time>2011-04-28T03:51:19.0000000+00:00</time></trkpt><trkpt lat="22.155182" lon="104.612534"><ele>134.8</ele><time>2011-04-28T03:51:24.0000000+00:00</time></trkpt><trkpt lat="22.155111" lon="104.612572"><ele>134.8</ele><time>2011-04-28T03:51:29.0000000+00:00</time></trkpt><trkpt lat="22.155048" lon="104.612602"><ele>134.9</ele><time>2011-04-28T03:51:34.0000000+00:00</time></trkpt><trkpt lat="22.154984" lon="104.61264"><ele>134.8</ele><time>2011-04-28T03:51:39.0000000+00:00</time></trkpt><trkpt lat="22.154902" lon="104.612663"><ele>135.2</ele><time>2011-04-28T03:51:44.0000000+00:00</time></trkpt><trkpt lat="22.154823" lon="104.612679"><ele>135.4</ele><time>2011-04-28T03:51:49.0000000+00:00</time></trkpt><trkpt lat="22.154743" lon="104.612701"><ele>135.4</ele><time>2011-04-28T03:51:54.0000000+00:00</time></trkpt><trkpt lat="22.154671" lon="104.612732"><ele>135.3</ele><time>2011-04-28T03:51:59.0000000+00:00</time></trkpt><trkpt lat="22.154606" lon="104.612755"><ele>135.6</ele><time>2011-04-28T03:52:04.0000000+00:00</time></trkpt><trkpt lat="22.154543" lon="104.612785"><ele>136.1</ele><time>2011-04-28T03:52:09.0000000+00:00</time></trkpt><trkpt lat="22.154453" lon="104.612846"><ele>137.0</ele><time>2011-04-28T03:52:14.0000000+00:00</time></trkpt><trkpt lat="22.154339" lon="104.61293"><ele>141.6</ele><time>2011-04-28T03:52:19.0000000+00:00</time></trkpt><trkpt lat="22.154297" lon="104.613014"><ele>141.7</ele><time>2011-04-28T03:52:24.0000000+00:00</time></trkpt><trkpt lat="22.154243" lon="104.613075"><ele>142.2</ele><time>2011-04-28T03:52:29.0000000+00:00</time></trkpt><trkpt lat="22.154169" lon="104.613152"><ele>142.0</ele><time>2011-04-28T03:52:34.0000000+00:00</time></trkpt><trkpt lat="22.154099" lon="104.613213"><ele>142.0</ele><time>2011-04-28T03:52:39.0000000+00:00</time></trkpt><trkpt lat="22.154051" lon="104.613274"><ele>142.2</ele><time>2011-04-28T03:52:44.0000000+00:00</time></trkpt><trkpt lat="22.154016" lon="104.613342"><ele>144.0</ele><time>2011-04-28T03:52:49.0000000+00:00</time></trkpt><trkpt lat="22.153963" lon="104.613403"><ele>144.3</ele><time>2011-04-28T03:52:54.0000000+00:00</time></trkpt><trkpt lat="22.153894" lon="104.613441"><ele>144.9</ele><time>2011-04-28T03:52:59.0000000+00:00</time></trkpt><trkpt lat="22.153812" lon="104.613449"><ele>144.9</ele><time>2011-04-28T03:53:04.0000000+00:00</time></trkpt><trkpt lat="22.153759" lon="104.613441"><ele>145.1</ele><time>2011-04-28T03:53:09.0000000+00:00</time></trkpt><trkpt lat="22.153679" lon="104.613449"><ele>145.3</ele><time>2011-04-28T03:53:14.0000000+00:00</time></trkpt><trkpt lat="22.153563" lon="104.613449"><ele>145.2</ele><time>2011-04-28T03:53:19.0000000+00:00</time></trkpt><trkpt lat="22.153509" lon="104.613464"><ele>144.9</ele><time>2011-04-28T03:53:24.0000000+00:00</time></trkpt><trkpt lat="22.153446" lon="104.61348"><ele>144.4</ele><time>2011-04-28T03:53:29.0000000+00:00</time></trkpt><trkpt lat="22.153416" lon="104.61348"><ele>144.8</ele><time>2011-04-28T03:53:34.0000000+00:00</time></trkpt><trkpt lat="22.153393" lon="104.613472"><ele>144.9</ele><time>2011-04-28T03:53:39.0000000+00:00</time></trkpt><trkpt lat="22.153391" lon="104.613472"><ele>144.9</ele><time>2011-04-28T03:53:44.0000000+00:00</time></trkpt><trkpt lat="22.153389" lon="104.613472"><ele>145.0</ele><time>2011-04-28T03:53:49.0000000+00:00</time></trkpt><trkpt lat="22.153389" lon="104.61348"><ele>145.1</ele><time>2011-04-28T03:53:54.0000000+00:00</time></trkpt><trkpt lat="22.153391" lon="104.613487"><ele>145.1</ele><time>2011-04-28T03:53:59.0000000+00:00</time></trkpt><trkpt lat="22.153385" lon="104.61351"><ele>145.4</ele><time>2011-04-28T03:54:04.0000000+00:00</time></trkpt><trkpt lat="22.153376" lon="104.613518"><ele>145.4</ele><time>2011-04-28T03:54:09.0000000+00:00</time></trkpt><trkpt lat="22.153374" lon="104.613518"><ele>145.5</ele><time>2011-04-28T03:54:14.0000000+00:00</time></trkpt><trkpt lat="22.153376" lon="104.613518"><ele>145.5</ele><time>2011-04-28T03:54:19.0000000+00:00</time></trkpt><trkpt lat="22.153374" lon="104.613518"><ele>145.5</ele><time>2011-04-28T03:54:24.0000000+00:00</time></trkpt><trkpt lat="22.153374" lon="104.613518"><ele>145.6</ele><time>2011-04-28T03:54:29.0000000+00:00</time></trkpt><trkpt lat="22.153374" lon="104.613518"><ele>145.6</ele><time>2011-04-28T03:54:34.0000000+00:00</time></trkpt><trkpt lat="22.153374" lon="104.613518"><ele>145.7</ele><time>2011-04-28T03:54:39.0000000+00:00</time></trkpt><trkpt lat="22.153374" lon="104.613518"><ele>145.9</ele><time>2011-04-28T03:54:44.0000000+00:00</time></trkpt><trkpt lat="22.153374" lon="104.613525"><ele>146.0</ele><time>2011-04-28T03:54:49.0000000+00:00</time></trkpt><trkpt lat="22.153372" lon="104.613525"><ele>146.2</ele><time>2011-04-28T03:54:54.0000000+00:00</time></trkpt><trkpt lat="22.153372" lon="104.613525"><ele>146.3</ele><time>2011-04-28T03:54:59.0000000+00:00</time></trkpt><trkpt lat="22.153372" lon="104.613525"><ele>146.3</ele><time>2011-04-28T03:55:04.0000000+00:00</time></trkpt><trkpt lat="22.153372" lon="104.613525"><ele>146.3</ele><time>2011-04-28T03:55:09.0000000+00:00</time></trkpt><trkpt lat="22.153372" lon="104.613525"><ele>146.3</ele><time>2011-04-28T03:55:14.0000000+00:00</time></trkpt><trkpt lat="22.153372" lon="104.613525"><ele>146.3</ele><time>2011-04-28T03:55:19.0000000+00:00</time></trkpt><trkpt lat="22.153372" lon="104.613525"><ele>146.3</ele><time>2011-04-28T03:55:24.0000000+00:00</time></trkpt><trkpt lat="22.153372" lon="104.613525"><ele>146.2</ele><time>2011-04-28T03:55:29.0000000+00:00</time></trkpt><trkpt lat="22.153372" lon="104.613525"><ele>146.2</ele><time>2011-04-28T03:55:34.0000000+00:00</time></trkpt><trkpt lat="22.153372" lon="104.613525"><ele>146.1</ele><time>2011-04-28T03:55:39.0000000+00:00</time></trkpt><trkpt lat="22.153372" lon="104.613525"><ele>146.1</ele><time>2011-04-28T03:55:44.0000000+00:00</time></trkpt><trkpt lat="22.153372" lon="104.613525"><ele>146.1</ele><time>2011-04-28T03:55:49.0000000+00:00</time></trkpt><trkpt lat="22.153372" lon="104.613525"><ele>146.3</ele><time>2011-04-28T03:55:54.0000000+00:00</time></trkpt><trkpt lat="22.153372" lon="104.613525"><ele>146.3</ele><time>2011-04-28T03:55:59.0000000+00:00</time></trkpt><trkpt lat="22.153372" lon="104.613525"><ele>146.3</ele><time>2011-04-28T03:56:04.0000000+00:00</time></trkpt><trkpt lat="22.153372" lon="104.613525"><ele>146.3</ele><time>2011-04-28T03:56:09.0000000+00:00</time></trkpt><trkpt lat="22.153372" lon="104.613525"><ele>146.4</ele><time>2011-04-28T03:56:14.0000000+00:00</time></trkpt><trkpt lat="22.153372" lon="104.613525"><ele>146.4</ele><time>2011-04-28T03:56:19.0000000+00:00</time></trkpt><trkpt lat="22.153372" lon="104.613525"><ele>146.4</ele><time>2011-04-28T03:56:24.0000000+00:00</time></trkpt><trkpt lat="22.153372" lon="104.613525"><ele>146.4</ele><time>2011-04-28T03:56:29.0000000+00:00</time></trkpt><trkpt lat="22.15337" lon="104.613525"><ele>146.4</ele><time>2011-04-28T03:56:34.0000000+00:00</time></trkpt><trkpt lat="22.15337" lon="104.613533"><ele>146.4</ele><time>2011-04-28T03:56:39.0000000+00:00</time></trkpt><trkpt lat="22.153366" lon="104.613541"><ele>146.4</ele><time>2011-04-28T03:56:44.0000000+00:00</time></trkpt><trkpt lat="22.153366" lon="104.613541"><ele>146.5</ele><time>2011-04-28T03:56:49.0000000+00:00</time></trkpt><trkpt lat="22.153364" lon="104.613548"><ele>146.5</ele><time>2011-04-28T03:56:54.0000000+00:00</time></trkpt><trkpt lat="22.153278" lon="104.613663"><ele>144.9</ele><time>2011-04-28T03:56:59.0000000+00:00</time></trkpt><trkpt lat="22.153164" lon="104.61393"><ele>142.7</ele><time>2011-04-28T03:57:04.0000000+00:00</time></trkpt><trkpt lat="22.153078" lon="104.614288"><ele>138.9</ele><time>2011-04-28T03:57:09.0000000+00:00</time></trkpt><trkpt lat="22.152975" lon="104.614632"><ele>136.6</ele><time>2011-04-28T03:57:14.0000000+00:00</time></trkpt><trkpt lat="22.152643" lon="104.614929"><ele>139.2</ele><time>2011-04-28T03:57:19.0000000+00:00</time></trkpt><trkpt lat="22.152294" lon="104.615135"><ele>138.9</ele><time>2011-04-28T03:57:24.0000000+00:00</time></trkpt><trkpt lat="22.151991" lon="104.615311"><ele>138.8</ele><time>2011-04-28T03:57:29.0000000+00:00</time></trkpt><trkpt lat="22.151773" lon="104.615364"><ele>137.5</ele><time>2011-04-28T03:57:34.0000000+00:00</time></trkpt><trkpt lat="22.151506" lon="104.615433"><ele>134.9</ele><time>2011-04-28T03:57:39.0000000+00:00</time></trkpt><trkpt lat="22.151247" lon="104.615616"><ele>134.2</ele><time>2011-04-28T03:57:44.0000000+00:00</time></trkpt><trkpt lat="22.151133" lon="104.615898"><ele>130.5</ele><time>2011-04-28T03:57:49.0000000+00:00</time></trkpt><trkpt lat="22.151009" lon="104.616203"><ele>129.6</ele><time>2011-04-28T03:57:54.0000000+00:00</time></trkpt><trkpt lat="22.150702" lon="104.616501"><ele>127.7</ele><time>2011-04-28T03:57:59.0000000+00:00</time></trkpt><trkpt lat="22.15044" lon="104.616737"><ele>127.0</ele><time>2011-04-28T03:58:04.0000000+00:00</time></trkpt><trkpt lat="22.150335" lon="104.617088"><ele>125.8</ele><time>2011-04-28T03:58:09.0000000+00:00</time></trkpt><trkpt lat="22.150402" lon="104.6175"><ele>124.0</ele><time>2011-04-28T03:58:14.0000000+00:00</time></trkpt><trkpt lat="22.150457" lon="104.617935"><ele>122.9</ele><time>2011-04-28T03:58:19.0000000+00:00</time></trkpt><trkpt lat="22.150442" lon="104.61837"><ele>122.3</ele><time>2011-04-28T03:58:24.0000000+00:00</time></trkpt><trkpt lat="22.150341" lon="104.618782"><ele>121.4</ele><time>2011-04-28T03:58:29.0000000+00:00</time></trkpt><trkpt lat="22.15019" lon="104.619171"><ele>120.8</ele><time>2011-04-28T03:58:34.0000000+00:00</time></trkpt><trkpt lat="22.149965" lon="104.619522"><ele>118.4</ele><time>2011-04-28T03:58:39.0000000+00:00</time></trkpt><trkpt lat="22.149673" lon="104.619797"><ele>117.0</ele><time>2011-04-28T03:58:44.0000000+00:00</time></trkpt><trkpt lat="22.149422" lon="104.62011"><ele>115.4</ele><time>2011-04-28T03:58:49.0000000+00:00</time></trkpt><trkpt lat="22.149233" lon="104.620476"><ele>114.4</ele><time>2011-04-28T03:58:54.0000000+00:00</time></trkpt><trkpt lat="22.149105" lon="104.620865"><ele>112.8</ele><time>2011-04-28T03:58:59.0000000+00:00</time></trkpt><trkpt lat="22.148911" lon="104.621208"><ele>111.7</ele><time>2011-04-28T03:59:04.0000000+00:00</time></trkpt><trkpt lat="22.148705" lon="104.621552"><ele>110.2</ele><time>2011-04-28T03:59:09.0000000+00:00</time></trkpt><trkpt lat="22.148489" lon="104.621864"><ele>108.5</ele><time>2011-04-28T03:59:14.0000000+00:00</time></trkpt><trkpt lat="22.148314" lon="104.622108"><ele>107.6</ele><time>2011-04-28T03:59:19.0000000+00:00</time></trkpt><trkpt lat="22.148092" lon="104.622314"><ele>109.4</ele><time>2011-04-28T03:59:24.0000000+00:00</time></trkpt><trkpt lat="22.147915" lon="104.622437"><ele>109.8</ele><time>2011-04-28T03:59:29.0000000+00:00</time></trkpt><trkpt lat="22.147745" lon="104.622528"><ele>108.4</ele><time>2011-04-28T03:59:34.0000000+00:00</time></trkpt><trkpt lat="22.147577" lon="104.622643"><ele>107.6</ele><time>2011-04-28T03:59:39.0000000+00:00</time></trkpt><trkpt lat="22.147392" lon="104.622742"><ele>106.0</ele><time>2011-04-28T03:59:44.0000000+00:00</time></trkpt><trkpt lat="22.147221" lon="104.622894"><ele>103.9</ele><time>2011-04-28T03:59:49.0000000+00:00</time></trkpt><trkpt lat="22.147142" lon="104.623093"><ele>102.3</ele><time>2011-04-28T03:59:54.0000000+00:00</time></trkpt><trkpt lat="22.147057" lon="104.623367"><ele>100.4</ele><time>2011-04-28T03:59:59.0000000+00:00</time></trkpt><trkpt lat="22.146788" lon="104.623596"><ele>102.2</ele><time>2011-04-28T04:00:04.0000000+00:00</time></trkpt><trkpt lat="22.146538" lon="104.623802"><ele>99.8</ele><time>2011-04-28T04:00:09.0000000+00:00</time></trkpt><trkpt lat="22.146418" lon="104.624138"><ele>99.2</ele><time>2011-04-28T04:00:14.0000000+00:00</time></trkpt><trkpt lat="22.14621" lon="104.624435"><ele>98.1</ele><time>2011-04-28T04:00:19.0000000+00:00</time></trkpt><trkpt lat="22.14599" lon="104.62468"><ele>98.3</ele><time>2011-04-28T04:00:24.0000000+00:00</time></trkpt><trkpt lat="22.145826" lon="104.624901"><ele>98.2</ele><time>2011-04-28T04:00:29.0000000+00:00</time></trkpt><trkpt lat="22.145653" lon="104.625061"><ele>98.9</ele><time>2011-04-28T04:00:34.0000000+00:00</time></trkpt><trkpt lat="22.145521" lon="104.625175"><ele>98.7</ele><time>2011-04-28T04:00:39.0000000+00:00</time></trkpt><trkpt lat="22.145361" lon="104.625298"><ele>98.0</ele><time>2011-04-28T04:00:44.0000000+00:00</time></trkpt><trkpt lat="22.145159" lon="104.625412"><ele>97.4</ele><time>2011-04-28T04:00:49.0000000+00:00</time></trkpt><trkpt lat="22.144917" lon="104.625534"><ele>96.5</ele><time>2011-04-28T04:00:54.0000000+00:00</time></trkpt><trkpt lat="22.144678" lon="104.625725"><ele>96.1</ele><time>2011-04-28T04:00:59.0000000+00:00</time></trkpt><trkpt lat="22.144449" lon="104.625977"><ele>95.2</ele><time>2011-04-28T04:01:04.0000000+00:00</time></trkpt><trkpt lat="22.144243" lon="104.626221"><ele>94.4</ele><time>2011-04-28T04:01:09.0000000+00:00</time></trkpt><trkpt lat="22.144096" lon="104.626465"><ele>93.4</ele><time>2011-04-28T04:01:14.0000000+00:00</time></trkpt><trkpt lat="22.144081" lon="104.626747"><ele>93.1</ele><time>2011-04-28T04:01:19.0000000+00:00</time></trkpt><trkpt lat="22.14399" lon="104.627007"><ele>92.6</ele><time>2011-04-28T04:01:24.0000000+00:00</time></trkpt><trkpt lat="22.143801" lon="104.62719"><ele>93.1</ele><time>2011-04-28T04:01:29.0000000+00:00</time></trkpt><trkpt lat="22.143606" lon="104.62738"><ele>94.3</ele><time>2011-04-28T04:01:34.0000000+00:00</time></trkpt><trkpt lat="22.143404" lon="104.627541"><ele>93.5</ele><time>2011-04-28T04:01:39.0000000+00:00</time></trkpt><trkpt lat="22.1432" lon="104.62767"><ele>94.1</ele><time>2011-04-28T04:01:44.0000000+00:00</time></trkpt><trkpt lat="22.142996" lon="104.627777"><ele>94.0</ele><time>2011-04-28T04:01:49.0000000+00:00</time></trkpt><trkpt lat="22.142832" lon="104.62796"><ele>93.6</ele><time>2011-04-28T04:01:54.0000000+00:00</time></trkpt><trkpt lat="22.142679" lon="104.628159"><ele>92.1</ele><time>2011-04-28T04:01:59.0000000+00:00</time></trkpt><trkpt lat="22.142508" lon="104.628296"><ele>91.9</ele><time>2011-04-28T04:02:04.0000000+00:00</time></trkpt><trkpt lat="22.142319" lon="104.628418"><ele>92.4</ele><time>2011-04-28T04:02:09.0000000+00:00</time></trkpt><trkpt lat="22.142178" lon="104.628456"><ele>92.5</ele><time>2011-04-28T04:02:14.0000000+00:00</time></trkpt><trkpt lat="22.141968" lon="104.628487"><ele>93.4</ele><time>2011-04-28T04:02:19.0000000+00:00</time></trkpt><trkpt lat="22.141747" lon="104.628586"><ele>93.9</ele><time>2011-04-28T04:02:24.0000000+00:00</time></trkpt><trkpt lat="22.141655" lon="104.628777"><ele>94.3</ele><time>2011-04-28T04:02:29.0000000+00:00</time></trkpt><trkpt lat="22.141653" lon="104.628975"><ele>93.9</ele><time>2011-04-28T04:02:34.0000000+00:00</time></trkpt><trkpt lat="22.141708" lon="104.62912"><ele>93.2</ele><time>2011-04-28T04:02:39.0000000+00:00</time></trkpt><trkpt lat="22.141737" lon="104.62928"><ele>92.2</ele><time>2011-04-28T04:02:44.0000000+00:00</time></trkpt><trkpt lat="22.141697" lon="104.62957"><ele>91.7</ele><time>2011-04-28T04:02:49.0000000+00:00</time></trkpt><trkpt lat="22.141655" lon="104.629822"><ele>90.5</ele><time>2011-04-28T04:02:54.0000000+00:00</time></trkpt><trkpt lat="22.141638" lon="104.630035"><ele>88.8</ele><time>2011-04-28T04:02:59.0000000+00:00</time></trkpt><trkpt lat="22.141504" lon="104.630272"><ele>87.0</ele><time>2011-04-28T04:03:04.0000000+00:00</time></trkpt><trkpt lat="22.141361" lon="104.630547"><ele>86.1</ele><time>2011-04-28T04:03:09.0000000+00:00</time></trkpt><trkpt lat="22.14119" lon="104.630775"><ele>85.6</ele><time>2011-04-28T04:03:14.0000000+00:00</time></trkpt><trkpt lat="22.140997" lon="104.630981"><ele>86.4</ele><time>2011-04-28T04:03:19.0000000+00:00</time></trkpt><trkpt lat="22.140827" lon="104.631096"><ele>86.8</ele><time>2011-04-28T04:03:24.0000000+00:00</time></trkpt><trkpt lat="22.140654" lon="104.631187"><ele>87.4</ele><time>2011-04-28T04:03:29.0000000+00:00</time></trkpt><trkpt lat="22.140482" lon="104.631271"><ele>87.7</ele><time>2011-04-28T04:03:34.0000000+00:00</time></trkpt><trkpt lat="22.140306" lon="104.631355"><ele>87.9</ele><time>2011-04-28T04:03:39.0000000+00:00</time></trkpt><trkpt lat="22.140121" lon="104.631454"><ele>87.9</ele><time>2011-04-28T04:03:44.0000000+00:00</time></trkpt><trkpt lat="22.139919" lon="104.631592"><ele>88.2</ele><time>2011-04-28T04:03:49.0000000+00:00</time></trkpt><trkpt lat="22.139727" lon="104.631668"><ele>89.0</ele><time>2011-04-28T04:03:54.0000000+00:00</time></trkpt><trkpt lat="22.139563" lon="104.631813"><ele>88.7</ele><time>2011-04-28T04:03:59.0000000+00:00</time></trkpt><trkpt lat="22.139435" lon="104.631966"><ele>86.5</ele><time>2011-04-28T04:04:04.0000000+00:00</time></trkpt><trkpt lat="22.139297" lon="104.632133"><ele>85.9</ele><time>2011-04-28T04:04:09.0000000+00:00</time></trkpt><trkpt lat="22.139114" lon="104.63224"><ele>86.1</ele><time>2011-04-28T04:04:14.0000000+00:00</time></trkpt><trkpt lat="22.13896" lon="104.632378"><ele>87.9</ele><time>2011-04-28T04:04:19.0000000+00:00</time></trkpt><trkpt lat="22.138809" lon="104.632469"><ele>86.1</ele><time>2011-04-28T04:04:24.0000000+00:00</time></trkpt><trkpt lat="22.138653" lon="104.632561"><ele>86.1</ele><time>2011-04-28T04:04:29.0000000+00:00</time></trkpt><trkpt lat="22.138544" lon="104.632683"><ele>85.9</ele><time>2011-04-28T04:04:34.0000000+00:00</time></trkpt><trkpt lat="22.138496" lon="104.63282"><ele>86.4</ele><time>2011-04-28T04:04:39.0000000+00:00</time></trkpt><trkpt lat="22.138479" lon="104.632843"><ele>86.4</ele><time>2011-04-28T04:04:44.0000000+00:00</time></trkpt><trkpt lat="22.138483" lon="104.632851"><ele>86.6</ele><time>2011-04-28T04:04:49.0000000+00:00</time></trkpt><trkpt lat="22.138483" lon="104.632851"><ele>86.6</ele><time>2011-04-28T04:04:54.0000000+00:00</time></trkpt><trkpt lat="22.138487" lon="104.632851"><ele>86.7</ele><time>2011-04-28T04:04:59.0000000+00:00</time></trkpt><trkpt lat="22.138489" lon="104.632858"><ele>86.7</ele><time>2011-04-28T04:05:04.0000000+00:00</time></trkpt><trkpt lat="22.138489" lon="104.632858"><ele>86.7</ele><time>2011-04-28T04:05:09.0000000+00:00</time></trkpt><trkpt lat="22.138485" lon="104.632851"><ele>86.7</ele><time>2011-04-28T04:05:14.0000000+00:00</time></trkpt><trkpt lat="22.138487" lon="104.632858"><ele>86.7</ele><time>2011-04-28T04:05:19.0000000+00:00</time></trkpt><trkpt lat="22.138489" lon="104.632866"><ele>86.7</ele><time>2011-04-28T04:05:24.0000000+00:00</time></trkpt><trkpt lat="22.138494" lon="104.632874"><ele>86.7</ele><time>2011-04-28T04:05:29.0000000+00:00</time></trkpt><trkpt lat="22.138494" lon="104.632881"><ele>86.8</ele><time>2011-04-28T04:05:34.0000000+00:00</time></trkpt><trkpt lat="22.138487" lon="104.632874"><ele>86.8</ele><time>2011-04-28T04:05:39.0000000+00:00</time></trkpt><trkpt lat="22.138487" lon="104.632874"><ele>86.8</ele><time>2011-04-28T04:05:44.0000000+00:00</time></trkpt><trkpt lat="22.138487" lon="104.632874"><ele>86.7</ele><time>2011-04-28T04:05:49.0000000+00:00</time></trkpt><trkpt lat="22.138491" lon="104.632866"><ele>86.7</ele><time>2011-04-28T04:05:54.0000000+00:00</time></trkpt><trkpt lat="22.138493" lon="104.632866"><ele>86.7</ele><time>2011-04-28T04:05:59.0000000+00:00</time></trkpt><trkpt lat="22.138494" lon="104.632874"><ele>86.7</ele><time>2011-04-28T04:06:04.0000000+00:00</time></trkpt><trkpt lat="22.138498" lon="104.632874"><ele>86.7</ele><time>2011-04-28T04:06:09.0000000+00:00</time></trkpt><trkpt lat="22.138494" lon="104.632866"><ele>86.8</ele><time>2011-04-28T04:06:14.0000000+00:00</time></trkpt><trkpt lat="22.138493" lon="104.632866"><ele>86.8</ele><time>2011-04-28T04:06:19.0000000+00:00</time></trkpt><trkpt lat="22.138494" lon="104.632866"><ele>86.8</ele><time>2011-04-28T04:06:24.0000000+00:00</time></trkpt><trkpt lat="22.138498" lon="104.632866"><ele>86.9</ele><time>2011-04-28T04:06:29.0000000+00:00</time></trkpt><trkpt lat="22.138498" lon="104.632866"><ele>86.9</ele><time>2011-04-28T04:06:34.0000000+00:00</time></trkpt><trkpt lat="22.138502" lon="104.632866"><ele>86.9</ele><time>2011-04-28T04:06:39.0000000+00:00</time></trkpt><trkpt lat="22.138504" lon="104.632858"><ele>86.9</ele><time>2011-04-28T04:06:44.0000000+00:00</time></trkpt><trkpt lat="22.138504" lon="104.632866"><ele>86.9</ele><time>2011-04-28T04:06:49.0000000+00:00</time></trkpt><trkpt lat="22.138504" lon="104.632866"><ele>86.8</ele><time>2011-04-28T04:06:54.0000000+00:00</time></trkpt><trkpt lat="22.138506" lon="104.632866"><ele>86.8</ele><time>2011-04-28T04:06:59.0000000+00:00</time></trkpt><trkpt lat="22.138504" lon="104.632874"><ele>86.7</ele><time>2011-04-28T04:07:04.0000000+00:00</time></trkpt><trkpt lat="22.138502" lon="104.632874"><ele>86.6</ele><time>2011-04-28T04:07:09.0000000+00:00</time></trkpt><trkpt lat="22.1385" lon="104.632874"><ele>86.4</ele><time>2011-04-28T04:07:14.0000000+00:00</time></trkpt><trkpt lat="22.138498" lon="104.632874"><ele>86.3</ele><time>2011-04-28T04:07:19.0000000+00:00</time></trkpt><trkpt lat="22.138475" lon="104.632965"><ele>85.8</ele><time>2011-04-28T04:07:24.0000000+00:00</time></trkpt><trkpt lat="22.138403" lon="104.633163"><ele>85.5</ele><time>2011-04-28T04:07:29.0000000+00:00</time></trkpt><trkpt lat="22.138235" lon="104.633339"><ele>85.5</ele><time>2011-04-28T04:07:34.0000000+00:00</time></trkpt><trkpt lat="22.137999" lon="104.63356"><ele>87.3</ele><time>2011-04-28T04:07:39.0000000+00:00</time></trkpt><trkpt lat="22.137772" lon="104.633736"><ele>86.8</ele><time>2011-04-28T04:07:44.0000000+00:00</time></trkpt><trkpt lat="22.13765" lon="104.633865"><ele>88.7</ele><time>2011-04-28T04:07:49.0000000+00:00</time></trkpt><trkpt lat="22.137585" lon="104.634026"><ele>89.8</ele><time>2011-04-28T04:07:54.0000000+00:00</time></trkpt><trkpt lat="22.137459" lon="104.634201"><ele>89.5</ele><time>2011-04-28T04:07:59.0000000+00:00</time></trkpt><trkpt lat="22.137354" lon="104.634354"><ele>89.5</ele><time>2011-04-28T04:08:04.0000000+00:00</time></trkpt><trkpt lat="22.137228" lon="104.634506"><ele>89.9</ele><time>2011-04-28T04:08:09.0000000+00:00</time></trkpt><trkpt lat="22.137121" lon="104.634811"><ele>90.8</ele><time>2011-04-28T04:08:14.0000000+00:00</time></trkpt><trkpt lat="22.136957" lon="104.635124"><ele>91.8</ele><time>2011-04-28T04:08:19.0000000+00:00</time></trkpt><trkpt lat="22.136621" lon="104.635376"><ele>92.5</ele><time>2011-04-28T04:08:24.0000000+00:00</time></trkpt><trkpt lat="22.136322" lon="104.635628"><ele>91.9</ele><time>2011-04-28T04:08:29.0000000+00:00</time></trkpt><trkpt lat="22.136068" lon="104.635811"><ele>92.5</ele><time>2011-04-28T04:08:34.0000000+00:00</time></trkpt><trkpt lat="22.135832" lon="104.636017"><ele>94.9</ele><time>2011-04-28T04:08:39.0000000+00:00</time></trkpt><trkpt lat="22.135595" lon="104.636139"><ele>95.7</ele><time>2011-04-28T04:08:44.0000000+00:00</time></trkpt><trkpt lat="22.135391" lon="104.636337"><ele>95.2</ele><time>2011-04-28T04:08:49.0000000+00:00</time></trkpt><trkpt lat="22.135172" lon="104.636559"><ele>95.5</ele><time>2011-04-28T04:08:54.0000000+00:00</time></trkpt><trkpt lat="22.134966" lon="104.636765"><ele>95.9</ele><time>2011-04-28T04:08:59.0000000+00:00</time></trkpt><trkpt lat="22.134806" lon="104.636971"><ele>96.3</ele><time>2011-04-28T04:09:04.0000000+00:00</time></trkpt><trkpt lat="22.134684" lon="104.637215"><ele>95.6</ele><time>2011-04-28T04:09:09.0000000+00:00</time></trkpt><trkpt lat="22.134666" lon="104.637489"><ele>95.2</ele><time>2011-04-28T04:09:14.0000000+00:00</time></trkpt><trkpt lat="22.134661" lon="104.637726"><ele>94.2</ele><time>2011-04-28T04:09:19.0000000+00:00</time></trkpt><trkpt lat="22.134558" lon="104.637932"><ele>93.3</ele><time>2011-04-28T04:09:24.0000000+00:00</time></trkpt><trkpt lat="22.134336" lon="104.638016"><ele>90.5</ele><time>2011-04-28T04:09:29.0000000+00:00</time></trkpt><trkpt lat="22.134102" lon="104.638161"><ele>90.6</ele><time>2011-04-28T04:09:34.0000000+00:00</time></trkpt><trkpt lat="22.133919" lon="104.638374"><ele>90.8</ele><time>2011-04-28T04:09:39.0000000+00:00</time></trkpt><trkpt lat="22.133713" lon="104.638504"><ele>90.6</ele><time>2011-04-28T04:09:44.0000000+00:00</time></trkpt><trkpt lat="22.13352" lon="104.638634"><ele>90.5</ele><time>2011-04-28T04:09:49.0000000+00:00</time></trkpt><trkpt lat="22.133387" lon="104.638863"><ele>87.9</ele><time>2011-04-28T04:09:54.0000000+00:00</time></trkpt><trkpt lat="22.133333" lon="104.639099"><ele>84.8</ele><time>2011-04-28T04:09:59.0000000+00:00</time></trkpt><trkpt lat="22.133282" lon="104.639297"><ele>83.0</ele><time>2011-04-28T04:10:04.0000000+00:00</time></trkpt><trkpt lat="22.133192" lon="104.639458"><ele>84.0</ele><time>2011-04-28T04:10:09.0000000+00:00</time></trkpt><trkpt lat="22.133099" lon="104.63958"><ele>84.1</ele><time>2011-04-28T04:10:14.0000000+00:00</time></trkpt><trkpt lat="22.132984" lon="104.639671"><ele>83.4</ele><time>2011-04-28T04:10:19.0000000+00:00</time></trkpt><trkpt lat="22.132875" lon="104.63974"><ele>82.9</ele><time>2011-04-28T04:10:24.0000000+00:00</time></trkpt><trkpt lat="22.132725" lon="104.639809"><ele>81.5</ele><time>2011-04-28T04:10:29.0000000+00:00</time></trkpt><trkpt lat="22.132549" lon="104.639877"><ele>81.5</ele><time>2011-04-28T04:10:34.0000000+00:00</time></trkpt><trkpt lat="22.132311" lon="104.640015"><ele>78.7</ele><time>2011-04-28T04:10:39.0000000+00:00</time></trkpt><trkpt lat="22.132128" lon="104.640221"><ele>78.3</ele><time>2011-04-28T04:10:44.0000000+00:00</time></trkpt><trkpt lat="22.132011" lon="104.640396"><ele>79.3</ele><time>2011-04-28T04:10:49.0000000+00:00</time></trkpt><trkpt lat="22.131895" lon="104.640549"><ele>80.3</ele><time>2011-04-28T04:10:54.0000000+00:00</time></trkpt><trkpt lat="22.131784" lon="104.640686"><ele>80.9</ele><time>2011-04-28T04:10:59.0000000+00:00</time></trkpt><trkpt lat="22.131641" lon="104.640854"><ele>83.2</ele><time>2011-04-28T04:11:04.0000000+00:00</time></trkpt><trkpt lat="22.131525" lon="104.640968"><ele>85.8</ele><time>2011-04-28T04:11:09.0000000+00:00</time></trkpt><trkpt lat="22.131449" lon="104.641167"><ele>86.8</ele><time>2011-04-28T04:11:14.0000000+00:00</time></trkpt><trkpt lat="22.131372" lon="104.641357"><ele>89.0</ele><time>2011-04-28T04:11:19.0000000+00:00</time></trkpt><trkpt lat="22.131285" lon="104.641609"><ele>89.4</ele><time>2011-04-28T04:11:24.0000000+00:00</time></trkpt><trkpt lat="22.131235" lon="104.641884"><ele>89.5</ele><time>2011-04-28T04:11:29.0000000+00:00</time></trkpt><trkpt lat="22.131235" lon="104.64222"><ele>86.6</ele><time>2011-04-28T04:11:34.0000000+00:00</time></trkpt><trkpt lat="22.131313" lon="104.642479"><ele>84.0</ele><time>2011-04-28T04:11:39.0000000+00:00</time></trkpt><trkpt lat="22.131393" lon="104.642708"><ele>82.8</ele><time>2011-04-28T04:11:44.0000000+00:00</time></trkpt><trkpt lat="22.1315" lon="104.642914"><ele>81.5</ele><time>2011-04-28T04:11:49.0000000+00:00</time></trkpt><trkpt lat="22.131609" lon="104.643097"><ele>80.0</ele><time>2011-04-28T04:11:54.0000000+00:00</time></trkpt><trkpt lat="22.131746" lon="104.643288"><ele>78.8</ele><time>2011-04-28T04:11:59.0000000+00:00</time></trkpt><trkpt lat="22.131857" lon="104.643478"><ele>77.5</ele><time>2011-04-28T04:12:04.0000000+00:00</time></trkpt><trkpt lat="22.131916" lon="104.643646"><ele>75.2</ele><time>2011-04-28T04:12:09.0000000+00:00</time></trkpt><trkpt lat="22.131956" lon="104.643875"><ele>75.8</ele><time>2011-04-28T04:12:14.0000000+00:00</time></trkpt><trkpt lat="22.131952" lon="104.644073"><ele>75.3</ele><time>2011-04-28T04:12:19.0000000+00:00</time></trkpt><trkpt lat="22.131861" lon="104.644234"><ele>75.4</ele><time>2011-04-28T04:12:24.0000000+00:00</time></trkpt><trkpt lat="22.131666" lon="104.644371"><ele>75.7</ele><time>2011-04-28T04:12:29.0000000+00:00</time></trkpt><trkpt lat="22.131447" lon="104.644524"><ele>75.5</ele><time>2011-04-28T04:12:34.0000000+00:00</time></trkpt><trkpt lat="22.131248" lon="104.644638"><ele>75.7</ele><time>2011-04-28T04:12:39.0000000+00:00</time></trkpt><trkpt lat="22.131109" lon="104.644638"><ele>76.3</ele><time>2011-04-28T04:12:44.0000000+00:00</time></trkpt><trkpt lat="22.130981" lon="104.644661"><ele>76.9</ele><time>2011-04-28T04:12:49.0000000+00:00</time></trkpt><trkpt lat="22.130823" lon="104.644707"><ele>77.4</ele><time>2011-04-28T04:12:54.0000000+00:00</time></trkpt><trkpt lat="22.130676" lon="104.644745"><ele>78.0</ele><time>2011-04-28T04:12:59.0000000+00:00</time></trkpt><trkpt lat="22.130644" lon="104.644783"><ele>77.9</ele><time>2011-04-28T04:13:04.0000000+00:00</time></trkpt><trkpt lat="22.130644" lon="104.644783"><ele>78.0</ele><time>2011-04-28T04:13:09.0000000+00:00</time></trkpt><trkpt lat="22.130644" lon="104.644783"><ele>78.0</ele><time>2011-04-28T04:13:14.0000000+00:00</time></trkpt><trkpt lat="22.130644" lon="104.644791"><ele>78.0</ele><time>2011-04-28T04:13:19.0000000+00:00</time></trkpt><trkpt lat="22.130644" lon="104.644791"><ele>78.0</ele><time>2011-04-28T04:13:24.0000000+00:00</time></trkpt><trkpt lat="22.130642" lon="104.644791"><ele>78.0</ele><time>2011-04-28T04:13:29.0000000+00:00</time></trkpt><trkpt lat="22.13064" lon="104.644791"><ele>78.1</ele><time>2011-04-28T04:13:34.0000000+00:00</time></trkpt><trkpt lat="22.130644" lon="104.644791"><ele>78.1</ele><time>2011-04-28T04:13:39.0000000+00:00</time></trkpt><trkpt lat="22.130651" lon="104.644791"><ele>78.1</ele><time>2011-04-28T04:13:44.0000000+00:00</time></trkpt><trkpt lat="22.130642" lon="104.644791"><ele>78.2</ele><time>2011-04-28T04:13:49.0000000+00:00</time></trkpt><trkpt lat="22.130615" lon="104.644791"><ele>78.2</ele><time>2011-04-28T04:13:54.0000000+00:00</time></trkpt><trkpt lat="22.130512" lon="104.644814"><ele>77.9</ele><time>2011-04-28T04:13:59.0000000+00:00</time></trkpt><trkpt lat="22.130423" lon="104.644829"><ele>77.5</ele><time>2011-04-28T04:14:04.0000000+00:00</time></trkpt><trkpt lat="22.130302" lon="104.644852"><ele>77.3</ele><time>2011-04-28T04:14:09.0000000+00:00</time></trkpt><trkpt lat="22.130119" lon="104.644913"><ele>75.8</ele><time>2011-04-28T04:14:14.0000000+00:00</time></trkpt><trkpt lat="22.12991" lon="104.644951"><ele>74.5</ele><time>2011-04-28T04:14:19.0000000+00:00</time></trkpt><trkpt lat="22.129625" lon="104.644981"><ele>70.9</ele><time>2011-04-28T04:14:24.0000000+00:00</time></trkpt><trkpt lat="22.129299" lon="104.644958"><ele>67.8</ele><time>2011-04-28T04:14:29.0000000+00:00</time></trkpt><trkpt lat="22.129066" lon="104.645042"><ele>65.5</ele><time>2011-04-28T04:14:34.0000000+00:00</time></trkpt><trkpt lat="22.128872" lon="104.645126"><ele>63.9</ele><time>2011-04-28T04:14:39.0000000+00:00</time></trkpt><trkpt lat="22.128712" lon="104.645149"><ele>62.2</ele><time>2011-04-28T04:14:44.0000000+00:00</time></trkpt><trkpt lat="22.128559" lon="104.645172"><ele>59.6</ele><time>2011-04-28T04:14:49.0000000+00:00</time></trkpt><trkpt lat="22.128387" lon="104.645157"><ele>57.2</ele><time>2011-04-28T04:14:54.0000000+00:00</time></trkpt><trkpt lat="22.12822" lon="104.645172"><ele>56.1</ele><time>2011-04-28T04:14:59.0000000+00:00</time></trkpt><trkpt lat="22.127987" lon="104.645248"><ele>61.4</ele><time>2011-04-28T04:15:04.0000000+00:00</time></trkpt><trkpt lat="22.127821" lon="104.645424"><ele>64.4</ele><time>2011-04-28T04:15:09.0000000+00:00</time></trkpt><trkpt lat="22.127695" lon="104.645683"><ele>67.8</ele><time>2011-04-28T04:15:14.0000000+00:00</time></trkpt><trkpt lat="22.127514" lon="104.645851"><ele>71.9</ele><time>2011-04-28T04:15:19.0000000+00:00</time></trkpt><trkpt lat="22.127342" lon="104.645981"><ele>76.4</ele><time>2011-04-28T04:15:24.0000000+00:00</time></trkpt><trkpt lat="22.127174" lon="104.646187"><ele>80.1</ele><time>2011-04-28T04:15:29.0000000+00:00</time></trkpt><trkpt lat="22.126942" lon="104.646362"><ele>84.7</ele><time>2011-04-28T04:15:34.0000000+00:00</time></trkpt><trkpt lat="22.126724" lon="104.646446"><ele>86.9</ele><time>2011-04-28T04:15:39.0000000+00:00</time></trkpt><trkpt lat="22.126513" lon="104.646484"><ele>87.8</ele><time>2011-04-28T04:15:44.0000000+00:00</time></trkpt><trkpt lat="22.126381" lon="104.64653"><ele>90.6</ele><time>2011-04-28T04:15:49.0000000+00:00</time></trkpt><trkpt lat="22.126257" lon="104.646599"><ele>93.5</ele><time>2011-04-28T04:15:54.0000000+00:00</time></trkpt><trkpt lat="22.126162" lon="104.646637"><ele>94.0</ele><time>2011-04-28T04:15:59.0000000+00:00</time></trkpt><trkpt lat="22.126087" lon="104.646698"><ele>94.2</ele><time>2011-04-28T04:16:04.0000000+00:00</time></trkpt><trkpt lat="22.126022" lon="104.646729"><ele>92.8</ele><time>2011-04-28T04:16:09.0000000+00:00</time></trkpt><trkpt lat="22.126003" lon="104.646736"><ele>91.4</ele><time>2011-04-28T04:16:14.0000000+00:00</time></trkpt><trkpt lat="22.126001" lon="104.646736"><ele>91.8</ele><time>2011-04-28T04:16:19.0000000+00:00</time></trkpt><trkpt lat="22.126005" lon="104.646736"><ele>91.9</ele><time>2011-04-28T04:16:24.0000000+00:00</time></trkpt><trkpt lat="22.126005" lon="104.646736"><ele>91.8</ele><time>2011-04-28T04:16:29.0000000+00:00</time></trkpt><trkpt lat="22.126005" lon="104.646736"><ele>91.7</ele><time>2011-04-28T04:16:34.0000000+00:00</time></trkpt><trkpt lat="22.126005" lon="104.646736"><ele>91.7</ele><time>2011-04-28T04:16:39.0000000+00:00</time></trkpt><trkpt lat="22.126005" lon="104.646736"><ele>91.6</ele><time>2011-04-28T04:16:44.0000000+00:00</time></trkpt><trkpt lat="22.126005" lon="104.646736"><ele>91.6</ele><time>2011-04-28T04:16:49.0000000+00:00</time></trkpt><trkpt lat="22.126005" lon="104.646736"><ele>91.5</ele><time>2011-04-28T04:16:54.0000000+00:00</time></trkpt><trkpt lat="22.126005" lon="104.646736"><ele>91.5</ele><time>2011-04-28T04:16:59.0000000+00:00</time></trkpt><trkpt lat="22.126005" lon="104.646736"><ele>91.4</ele><time>2011-04-28T04:17:04.0000000+00:00</time></trkpt><trkpt lat="22.126005" lon="104.646736"><ele>91.4</ele><time>2011-04-28T04:17:09.0000000+00:00</time></trkpt><trkpt lat="22.126005" lon="104.646736"><ele>91.4</ele><time>2011-04-28T04:17:14.0000000+00:00</time></trkpt><trkpt lat="22.126007" lon="104.646736"><ele>91.3</ele><time>2011-04-28T04:17:19.0000000+00:00</time></trkpt><trkpt lat="22.126007" lon="104.646736"><ele>91.3</ele><time>2011-04-28T04:17:24.0000000+00:00</time></trkpt><trkpt lat="22.126007" lon="104.646736"><ele>91.2</ele><time>2011-04-28T04:17:29.0000000+00:00</time></trkpt><trkpt lat="22.126007" lon="104.646736"><ele>91.1</ele><time>2011-04-28T04:17:34.0000000+00:00</time></trkpt><trkpt lat="22.126007" lon="104.646736"><ele>91.0</ele><time>2011-04-28T04:17:39.0000000+00:00</time></trkpt><trkpt lat="22.126007" lon="104.646736"><ele>91.0</ele><time>2011-04-28T04:17:44.0000000+00:00</time></trkpt><trkpt lat="22.126009" lon="104.646736"><ele>90.9</ele><time>2011-04-28T04:17:49.0000000+00:00</time></trkpt><trkpt lat="22.126009" lon="104.646736"><ele>90.9</ele><time>2011-04-28T04:17:54.0000000+00:00</time></trkpt><trkpt lat="22.126009" lon="104.646736"><ele>90.9</ele><time>2011-04-28T04:17:59.0000000+00:00</time></trkpt><trkpt lat="22.126009" lon="104.646736"><ele>90.9</ele><time>2011-04-28T04:18:04.0000000+00:00</time></trkpt><trkpt lat="22.126007" lon="104.646736"><ele>90.8</ele><time>2011-04-28T04:18:09.0000000+00:00</time></trkpt><trkpt lat="22.126007" lon="104.646736"><ele>90.8</ele><time>2011-04-28T04:18:14.0000000+00:00</time></trkpt><trkpt lat="22.126007" lon="104.646736"><ele>90.7</ele><time>2011-04-28T04:18:19.0000000+00:00</time></trkpt><trkpt lat="22.126007" lon="104.646736"><ele>90.7</ele><time>2011-04-28T04:18:24.0000000+00:00</time></trkpt><trkpt lat="22.126007" lon="104.646736"><ele>90.6</ele><time>2011-04-28T04:18:29.0000000+00:00</time></trkpt><trkpt lat="22.126007" lon="104.646736"><ele>90.6</ele><time>2011-04-28T04:18:34.0000000+00:00</time></trkpt><trkpt lat="22.126007" lon="104.646736"><ele>90.5</ele><time>2011-04-28T04:18:39.0000000+00:00</time></trkpt><trkpt lat="22.126007" lon="104.646736"><ele>90.4</ele><time>2011-04-28T04:18:44.0000000+00:00</time></trkpt><trkpt lat="22.126009" lon="104.646736"><ele>90.4</ele><time>2011-04-28T04:18:49.0000000+00:00</time></trkpt><trkpt lat="22.126013" lon="104.646736"><ele>89.3</ele><time>2011-04-28T04:18:54.0000000+00:00</time></trkpt><trkpt lat="22.126015" lon="104.646736"><ele>87.3</ele><time>2011-04-28T04:18:59.0000000+00:00</time></trkpt><trkpt lat="22.126017" lon="104.646736"><ele>85.3</ele><time>2011-04-28T04:19:04.0000000+00:00</time></trkpt><trkpt lat="22.126017" lon="104.646729"><ele>84.3</ele><time>2011-04-28T04:19:09.0000000+00:00</time></trkpt><trkpt lat="22.126017" lon="104.646713"><ele>82.8</ele><time>2011-04-28T04:19:14.0000000+00:00</time></trkpt><trkpt lat="22.12602" lon="104.646683"><ele>81.2</ele><time>2011-04-28T04:19:19.0000000+00:00</time></trkpt><trkpt lat="22.12602" lon="104.646667"><ele>80.8</ele><time>2011-04-28T04:19:24.0000000+00:00</time></trkpt><trkpt lat="22.126028" lon="104.646675"><ele>80.8</ele><time>2011-04-28T04:19:29.0000000+00:00</time></trkpt><trkpt lat="22.126024" lon="104.646675"><ele>79.4</ele><time>2011-04-28T04:19:34.0000000+00:00</time></trkpt><trkpt lat="22.126024" lon="104.646675"><ele>79.4</ele><time>2011-04-28T04:19:39.0000000+00:00</time></trkpt><trkpt lat="22.126024" lon="104.646675"><ele>79.4</ele><time>2011-04-28T04:19:44.0000000+00:00</time></trkpt><trkpt lat="22.126024" lon="104.646675"><ele>79.4</ele><time>2011-04-28T04:19:49.0000000+00:00</time></trkpt><trkpt lat="22.126022" lon="104.646675"><ele>79.4</ele><time>2011-04-28T04:19:54.0000000+00:00</time></trkpt><trkpt lat="22.126022" lon="104.646675"><ele>79.3</ele><time>2011-04-28T04:19:59.0000000+00:00</time></trkpt><trkpt lat="22.126024" lon="104.646675"><ele>79.3</ele><time>2011-04-28T04:20:04.0000000+00:00</time></trkpt><trkpt lat="22.126022" lon="104.646675"><ele>79.3</ele><time>2011-04-28T04:20:09.0000000+00:00</time></trkpt><trkpt lat="22.126022" lon="104.646675"><ele>79.3</ele><time>2011-04-28T04:20:14.0000000+00:00</time></trkpt><trkpt lat="22.126022" lon="104.646675"><ele>79.3</ele><time>2011-04-28T04:20:19.0000000+00:00</time></trkpt><trkpt lat="22.126022" lon="104.646675"><ele>79.2</ele><time>2011-04-28T04:20:24.0000000+00:00</time></trkpt><trkpt lat="22.126022" lon="104.646675"><ele>79.2</ele><time>2011-04-28T04:20:29.0000000+00:00</time></trkpt><trkpt lat="22.126022" lon="104.646675"><ele>79.2</ele><time>2011-04-28T04:20:34.0000000+00:00</time></trkpt><trkpt lat="22.126022" lon="104.646675"><ele>79.1</ele><time>2011-04-28T04:20:39.0000000+00:00</time></trkpt><trkpt lat="22.126022" lon="104.646675"><ele>79.1</ele><time>2011-04-28T04:20:44.0000000+00:00</time></trkpt><trkpt lat="22.126022" lon="104.646675"><ele>79.1</ele><time>2011-04-28T04:20:49.0000000+00:00</time></trkpt><trkpt lat="22.126022" lon="104.646675"><ele>79.1</ele><time>2011-04-28T04:20:54.0000000+00:00</time></trkpt><trkpt lat="22.126022" lon="104.646675"><ele>79.1</ele><time>2011-04-28T04:20:59.0000000+00:00</time></trkpt><trkpt lat="22.126022" lon="104.646675"><ele>79.1</ele><time>2011-04-28T04:21:04.0000000+00:00</time></trkpt><trkpt lat="22.126022" lon="104.646675"><ele>79.1</ele><time>2011-04-28T04:21:09.0000000+00:00</time></trkpt><trkpt lat="22.126022" lon="104.646675"><ele>79.1</ele><time>2011-04-28T04:21:14.0000000+00:00</time></trkpt><trkpt lat="22.126022" lon="104.646683"><ele>79.1</ele><time>2011-04-28T04:21:19.0000000+00:00</time></trkpt><trkpt lat="22.126022" lon="104.646683"><ele>79.1</ele><time>2011-04-28T04:21:24.0000000+00:00</time></trkpt><trkpt lat="22.126022" lon="104.646683"><ele>79.1</ele><time>2011-04-28T04:21:29.0000000+00:00</time></trkpt><trkpt lat="22.126022" lon="104.646683"><ele>79.1</ele><time>2011-04-28T04:21:34.0000000+00:00</time></trkpt><trkpt lat="22.126022" lon="104.646683"><ele>79.0</ele><time>2011-04-28T04:21:39.0000000+00:00</time></trkpt><trkpt lat="22.126022" lon="104.646683"><ele>79.0</ele><time>2011-04-28T04:21:44.0000000+00:00</time></trkpt><trkpt lat="22.126022" lon="104.646683"><ele>79.0</ele><time>2011-04-28T04:21:49.0000000+00:00</time></trkpt><trkpt lat="22.126022" lon="104.646683"><ele>79.0</ele><time>2011-04-28T04:21:54.0000000+00:00</time></trkpt><trkpt lat="22.126022" lon="104.646683"><ele>79.0</ele><time>2011-04-28T04:21:59.0000000+00:00</time></trkpt><trkpt lat="22.126022" lon="104.646683"><ele>79.0</ele><time>2011-04-28T04:22:04.0000000+00:00</time></trkpt><trkpt lat="22.126022" lon="104.646683"><ele>79.0</ele><time>2011-04-28T04:22:09.0000000+00:00</time></trkpt><trkpt lat="22.126022" lon="104.646683"><ele>79.0</ele><time>2011-04-28T04:22:14.0000000+00:00</time></trkpt><trkpt lat="22.126022" lon="104.646683"><ele>79.0</ele><time>2011-04-28T04:22:19.0000000+00:00</time></trkpt><trkpt lat="22.126022" lon="104.646683"><ele>79.0</ele><time>2011-04-28T04:22:24.0000000+00:00</time></trkpt><trkpt lat="22.126022" lon="104.646683"><ele>79.0</ele><time>2011-04-28T04:22:29.0000000+00:00</time></trkpt><trkpt lat="22.126022" lon="104.646683"><ele>79.0</ele><time>2011-04-28T04:22:34.0000000+00:00</time></trkpt><trkpt lat="22.126022" lon="104.646683"><ele>79.0</ele><time>2011-04-28T04:22:39.0000000+00:00</time></trkpt><trkpt lat="22.126022" lon="104.646683"><ele>79.0</ele><time>2011-04-28T04:22:44.0000000+00:00</time></trkpt><trkpt lat="22.126022" lon="104.646683"><ele>79.0</ele><time>2011-04-28T04:22:49.0000000+00:00</time></trkpt><trkpt lat="22.126022" lon="104.646683"><ele>79.0</ele><time>2011-04-28T04:22:54.0000000+00:00</time></trkpt><trkpt lat="22.126022" lon="104.646683"><ele>79.0</ele><time>2011-04-28T04:22:59.0000000+00:00</time></trkpt><trkpt lat="22.126022" lon="104.646683"><ele>79.0</ele><time>2011-04-28T04:23:04.0000000+00:00</time></trkpt><trkpt lat="22.126022" lon="104.646683"><ele>79.0</ele><time>2011-04-28T04:23:09.0000000+00:00</time></trkpt><trkpt lat="22.126022" lon="104.646683"><ele>79.0</ele><time>2011-04-28T04:23:14.0000000+00:00</time></trkpt><trkpt lat="22.126022" lon="104.646683"><ele>79.0</ele><time>2011-04-28T04:23:19.0000000+00:00</time></trkpt><trkpt lat="22.126022" lon="104.64669"><ele>79.0</ele><time>2011-04-28T04:23:24.0000000+00:00</time></trkpt><trkpt lat="22.126022" lon="104.64669"><ele>79.0</ele><time>2011-04-28T04:23:29.0000000+00:00</time></trkpt><trkpt lat="22.126022" lon="104.64669"><ele>79.0</ele><time>2011-04-28T04:23:34.0000000+00:00</time></trkpt><trkpt lat="22.126022" lon="104.64669"><ele>79.0</ele><time>2011-04-28T04:23:39.0000000+00:00</time></trkpt><trkpt lat="22.126022" lon="104.64669"><ele>79.0</ele><time>2011-04-28T04:23:44.0000000+00:00</time></trkpt><trkpt lat="22.126022" lon="104.64669"><ele>79.0</ele><time>2011-04-28T04:23:49.0000000+00:00</time></trkpt><trkpt lat="22.126022" lon="104.64669"><ele>79.0</ele><time>2011-04-28T04:23:54.0000000+00:00</time></trkpt><trkpt lat="22.126022" lon="104.64669"><ele>79.0</ele><time>2011-04-28T04:23:59.0000000+00:00</time></trkpt><trkpt lat="22.126022" lon="104.64669"><ele>79.0</ele><time>2011-04-28T04:24:04.0000000+00:00</time></trkpt><trkpt lat="22.12602" lon="104.64669"><ele>79.0</ele><time>2011-04-28T04:24:09.0000000+00:00</time></trkpt><trkpt lat="22.12602" lon="104.64669"><ele>79.1</ele><time>2011-04-28T04:24:14.0000000+00:00</time></trkpt><trkpt lat="22.12602" lon="104.64669"><ele>79.1</ele><time>2011-04-28T04:24:19.0000000+00:00</time></trkpt><trkpt lat="22.12602" lon="104.64669"><ele>79.1</ele><time>2011-04-28T04:24:24.0000000+00:00</time></trkpt><trkpt lat="22.12602" lon="104.64669"><ele>79.1</ele><time>2011-04-28T04:24:29.0000000+00:00</time></trkpt><trkpt lat="22.12602" lon="104.64669"><ele>79.1</ele><time>2011-04-28T04:24:34.0000000+00:00</time></trkpt><trkpt lat="22.12602" lon="104.64669"><ele>79.0</ele><time>2011-04-28T04:24:39.0000000+00:00</time></trkpt><trkpt lat="22.12602" lon="104.64669"><ele>79.0</ele><time>2011-04-28T04:24:44.0000000+00:00</time></trkpt><trkpt lat="22.12602" lon="104.64669"><ele>79.1</ele><time>2011-04-28T04:24:49.0000000+00:00</time></trkpt><trkpt lat="22.12602" lon="104.64669"><ele>79.1</ele><time>2011-04-28T04:24:54.0000000+00:00</time></trkpt><trkpt lat="22.12602" lon="104.64669"><ele>79.1</ele><time>2011-04-28T04:24:59.0000000+00:00</time></trkpt><trkpt lat="22.12602" lon="104.64669"><ele>79.1</ele><time>2011-04-28T04:25:04.0000000+00:00</time></trkpt><trkpt lat="22.12602" lon="104.64669"><ele>79.1</ele><time>2011-04-28T04:25:09.0000000+00:00</time></trkpt><trkpt lat="22.125919" lon="104.646736"><ele>79.0</ele><time>2011-04-28T04:25:14.0000000+00:00</time></trkpt><trkpt lat="22.125708" lon="104.64682"><ele>79.8</ele><time>2011-04-28T04:25:19.0000000+00:00</time></trkpt><trkpt lat="22.125444" lon="104.646935"><ele>80.2</ele><time>2011-04-28T04:25:24.0000000+00:00</time></trkpt><trkpt lat="22.125214" lon="104.647087"><ele>81.7</ele><time>2011-04-28T04:25:29.0000000+00:00</time></trkpt><trkpt lat="22.125008" lon="104.64727"><ele>85.3</ele><time>2011-04-28T04:25:34.0000000+00:00</time></trkpt><trkpt lat="22.124842" lon="104.647476"><ele>90.7</ele><time>2011-04-28T04:25:39.0000000+00:00</time></trkpt><trkpt lat="22.124716" lon="104.647606"><ele>93.3</ele><time>2011-04-28T04:25:44.0000000+00:00</time></trkpt><trkpt lat="22.12459" lon="104.647736"><ele>98.0</ele><time>2011-04-28T04:25:49.0000000+00:00</time></trkpt><trkpt lat="22.124481" lon="104.647827"><ele>99.8</ele><time>2011-04-28T04:25:54.0000000+00:00</time></trkpt><trkpt lat="22.124376" lon="104.647926"><ele>101.9</ele><time>2011-04-28T04:25:59.0000000+00:00</time></trkpt><trkpt lat="22.124315" lon="104.64801"><ele>103.6</ele><time>2011-04-28T04:26:04.0000000+00:00</time></trkpt><trkpt lat="22.124208" lon="104.64817"><ele>106.3</ele><time>2011-04-28T04:26:09.0000000+00:00</time></trkpt><trkpt lat="22.124119" lon="104.648338"><ele>107.0</ele><time>2011-04-28T04:26:14.0000000+00:00</time></trkpt><trkpt lat="22.123985" lon="104.648483"><ele>108.2</ele><time>2011-04-28T04:26:19.0000000+00:00</time></trkpt><trkpt lat="22.123829" lon="104.648628"><ele>109.0</ele><time>2011-04-28T04:26:24.0000000+00:00</time></trkpt><trkpt lat="22.123634" lon="104.648758"><ele>107.8</ele><time>2011-04-28T04:26:29.0000000+00:00</time></trkpt><trkpt lat="22.123486" lon="104.648903"><ele>108.8</ele><time>2011-04-28T04:26:34.0000000+00:00</time></trkpt><trkpt lat="22.123339" lon="104.649124"><ele>110.3</ele><time>2011-04-28T04:26:39.0000000+00:00</time></trkpt><trkpt lat="22.123196" lon="104.649261"><ele>108.1</ele><time>2011-04-28T04:26:44.0000000+00:00</time></trkpt><trkpt lat="22.123049" lon="104.649384"><ele>103.5</ele><time>2011-04-28T04:26:49.0000000+00:00</time></trkpt><trkpt lat="22.122904" lon="104.649506"><ele>102.8</ele><time>2011-04-28T04:26:54.0000000+00:00</time></trkpt><trkpt lat="22.122786" lon="104.649597"><ele>100.5</ele><time>2011-04-28T04:26:59.0000000+00:00</time></trkpt><trkpt lat="22.122681" lon="104.649796"><ele>102.5</ele><time>2011-04-28T04:27:04.0000000+00:00</time></trkpt><trkpt lat="22.122517" lon="104.650108"><ele>99.3</ele><time>2011-04-28T04:27:09.0000000+00:00</time></trkpt><trkpt lat="22.122322" lon="104.650383"><ele>96.8</ele><time>2011-04-28T04:27:14.0000000+00:00</time></trkpt><trkpt lat="22.122137" lon="104.650589"><ele>93.1</ele><time>2011-04-28T04:27:19.0000000+00:00</time></trkpt><trkpt lat="22.121925" lon="104.650772"><ele>90.8</ele><time>2011-04-28T04:27:24.0000000+00:00</time></trkpt><trkpt lat="22.121729" lon="104.650871"><ele>89.1</ele><time>2011-04-28T04:27:29.0000000+00:00</time></trkpt><trkpt lat="22.121542" lon="104.650978"><ele>84.5</ele><time>2011-04-28T04:27:34.0000000+00:00</time></trkpt><trkpt lat="22.121346" lon="104.651161"><ele>83.6</ele><time>2011-04-28T04:27:39.0000000+00:00</time></trkpt><trkpt lat="22.121124" lon="104.65139"><ele>82.2</ele><time>2011-04-28T04:27:44.0000000+00:00</time></trkpt><trkpt lat="22.120934" lon="104.651611"><ele>82.3</ele><time>2011-04-28T04:27:49.0000000+00:00</time></trkpt><trkpt lat="22.120754" lon="104.651787"><ele>79.4</ele><time>2011-04-28T04:27:54.0000000+00:00</time></trkpt><trkpt lat="22.120569" lon="104.651947"><ele>78.0</ele><time>2011-04-28T04:27:59.0000000+00:00</time></trkpt><trkpt lat="22.12039" lon="104.6521"><ele>77.8</ele><time>2011-04-28T04:28:04.0000000+00:00</time></trkpt><trkpt lat="22.120171" lon="104.652252"><ele>80.5</ele><time>2011-04-28T04:28:09.0000000+00:00</time></trkpt><trkpt lat="22.119955" lon="104.652306"><ele>79.1</ele><time>2011-04-28T04:28:14.0000000+00:00</time></trkpt><trkpt lat="22.119743" lon="104.652351"><ele>79.8</ele><time>2011-04-28T04:28:19.0000000+00:00</time></trkpt><trkpt lat="22.119541" lon="104.652397"><ele>81.8</ele><time>2011-04-28T04:28:24.0000000+00:00</time></trkpt><trkpt lat="22.119324" lon="104.652458"><ele>84.3</ele><time>2011-04-28T04:28:29.0000000+00:00</time></trkpt><trkpt lat="22.119223" lon="104.652664"><ele>85.1</ele><time>2011-04-28T04:28:34.0000000+00:00</time></trkpt><trkpt lat="22.119263" lon="104.652885"><ele>84.8</ele><time>2011-04-28T04:28:39.0000000+00:00</time></trkpt><trkpt lat="22.119307" lon="104.65313"><ele>83.7</ele><time>2011-04-28T04:28:44.0000000+00:00</time></trkpt><trkpt lat="22.119339" lon="104.653397"><ele>84.2</ele><time>2011-04-28T04:28:49.0000000+00:00</time></trkpt><trkpt lat="22.119278" lon="104.653671"><ele>83.4</ele><time>2011-04-28T04:28:54.0000000+00:00</time></trkpt><trkpt lat="22.119133" lon="104.653885"><ele>84.0</ele><time>2011-04-28T04:28:59.0000000+00:00</time></trkpt><trkpt lat="22.119043" lon="104.653984"><ele>84.8</ele><time>2011-04-28T04:29:04.0000000+00:00</time></trkpt><trkpt lat="22.118986" lon="104.654083"><ele>85.0</ele><time>2011-04-28T04:29:09.0000000+00:00</time></trkpt><trkpt lat="22.118893" lon="104.654213"><ele>87.9</ele><time>2011-04-28T04:29:14.0000000+00:00</time></trkpt><trkpt lat="22.118792" lon="104.654343"><ele>89.3</ele><time>2011-04-28T04:29:19.0000000+00:00</time></trkpt><trkpt lat="22.118658" lon="104.654526"><ele>91.8</ele><time>2011-04-28T04:29:24.0000000+00:00</time></trkpt><trkpt lat="22.118515" lon="104.654663"><ele>93.1</ele><time>2011-04-28T04:29:29.0000000+00:00</time></trkpt><trkpt lat="22.118364" lon="104.654816"><ele>96.5</ele><time>2011-04-28T04:29:34.0000000+00:00</time></trkpt><trkpt lat="22.118233" lon="104.654915"><ele>98.8</ele><time>2011-04-28T04:29:39.0000000+00:00</time></trkpt><trkpt lat="22.118105" lon="104.655029"><ele>100.4</ele><time>2011-04-28T04:29:44.0000000+00:00</time></trkpt><trkpt lat="22.117945" lon="104.655151"><ele>102.1</ele><time>2011-04-28T04:29:49.0000000+00:00</time></trkpt><trkpt lat="22.117769" lon="104.655304"><ele>102.7</ele><time>2011-04-28T04:29:54.0000000+00:00</time></trkpt><trkpt lat="22.117598" lon="104.655464"><ele>101.4</ele><time>2011-04-28T04:29:59.0000000+00:00</time></trkpt><trkpt lat="22.117426" lon="104.655632"><ele>100.6</ele><time>2011-04-28T04:30:04.0000000+00:00</time></trkpt><trkpt lat="22.117306" lon="104.655777"><ele>100.2</ele><time>2011-04-28T04:30:09.0000000+00:00</time></trkpt><trkpt lat="22.11721" lon="104.65593"><ele>99.3</ele><time>2011-04-28T04:30:14.0000000+00:00</time></trkpt><trkpt lat="22.117144" lon="104.656143"><ele>98.7</ele><time>2011-04-28T04:30:19.0000000+00:00</time></trkpt><trkpt lat="22.117062" lon="104.656357"><ele>98.2</ele><time>2011-04-28T04:30:24.0000000+00:00</time></trkpt><trkpt lat="22.116982" lon="104.656563"><ele>97.5</ele><time>2011-04-28T04:30:29.0000000+00:00</time></trkpt><trkpt lat="22.11689" lon="104.656754"><ele>95.5</ele><time>2011-04-28T04:30:34.0000000+00:00</time></trkpt><trkpt lat="22.1168" lon="104.656944"><ele>95.5</ele><time>2011-04-28T04:30:39.0000000+00:00</time></trkpt><trkpt lat="22.116701" lon="104.657104"><ele>95.2</ele><time>2011-04-28T04:30:44.0000000+00:00</time></trkpt><trkpt lat="22.116571" lon="104.657272"><ele>94.5</ele><time>2011-04-28T04:30:49.0000000+00:00</time></trkpt><trkpt lat="22.116423" lon="104.657425"><ele>94.3</ele><time>2011-04-28T04:30:54.0000000+00:00</time></trkpt><trkpt lat="22.116276" lon="104.657562"><ele>93.4</ele><time>2011-04-28T04:30:59.0000000+00:00</time></trkpt><trkpt lat="22.1161" lon="104.657707"><ele>94.5</ele><time>2011-04-28T04:31:04.0000000+00:00</time></trkpt><trkpt lat="22.115952" lon="104.657852"><ele>94.7</ele><time>2011-04-28T04:31:09.0000000+00:00</time></trkpt><trkpt lat="22.115782" lon="104.657974"><ele>93.7</ele><time>2011-04-28T04:31:14.0000000+00:00</time></trkpt><trkpt lat="22.115623" lon="104.658035"><ele>92.9</ele><time>2011-04-28T04:31:19.0000000+00:00</time></trkpt><trkpt lat="22.115501" lon="104.658089"><ele>92.6</ele><time>2011-04-28T04:31:24.0000000+00:00</time></trkpt><trkpt lat="22.115391" lon="104.658195"><ele>93.0</ele><time>2011-04-28T04:31:29.0000000+00:00</time></trkpt><trkpt lat="22.115309" lon="104.658371"><ele>93.0</ele><time>2011-04-28T04:31:34.0000000+00:00</time></trkpt><trkpt lat="22.115292" lon="104.658524"><ele>92.5</ele><time>2011-04-28T04:31:39.0000000+00:00</time></trkpt><trkpt lat="22.115301" lon="104.658676"><ele>91.1</ele><time>2011-04-28T04:31:44.0000000+00:00</time></trkpt><trkpt lat="22.115351" lon="104.658875"><ele>88.0</ele><time>2011-04-28T04:31:49.0000000+00:00</time></trkpt><trkpt lat="22.115396" lon="104.659035"><ele>88.0</ele><time>2011-04-28T04:31:54.0000000+00:00</time></trkpt><trkpt lat="22.11545" lon="104.659195"><ele>87.8</ele><time>2011-04-28T04:31:59.0000000+00:00</time></trkpt><trkpt lat="22.115488" lon="104.659332"><ele>87.7</ele><time>2011-04-28T04:32:04.0000000+00:00</time></trkpt><trkpt lat="22.115507" lon="104.65947"><ele>88.2</ele><time>2011-04-28T04:32:09.0000000+00:00</time></trkpt><trkpt lat="22.11549" lon="104.659592"><ele>89.6</ele><time>2011-04-28T04:32:14.0000000+00:00</time></trkpt><trkpt lat="22.11545" lon="104.659706"><ele>91.2</ele><time>2011-04-28T04:32:19.0000000+00:00</time></trkpt><trkpt lat="22.115425" lon="104.659813"><ele>92.6</ele><time>2011-04-28T04:32:24.0000000+00:00</time></trkpt><trkpt lat="22.115396" lon="104.659927"><ele>94.5</ele><time>2011-04-28T04:32:29.0000000+00:00</time></trkpt><trkpt lat="22.115297" lon="104.660034"><ele>95.5</ele><time>2011-04-28T04:32:34.0000000+00:00</time></trkpt><trkpt lat="22.115126" lon="104.660072"><ele>95.9</ele><time>2011-04-28T04:32:39.0000000+00:00</time></trkpt><trkpt lat="22.114933" lon="104.660133"><ele>97.2</ele><time>2011-04-28T04:32:44.0000000+00:00</time></trkpt><trkpt lat="22.114702" lon="104.660278"><ele>99.6</ele><time>2011-04-28T04:32:49.0000000+00:00</time></trkpt><trkpt lat="22.114477" lon="104.660484"><ele>101.5</ele><time>2011-04-28T04:32:54.0000000+00:00</time></trkpt><trkpt lat="22.11421" lon="104.660675"><ele>103.1</ele><time>2011-04-28T04:32:59.0000000+00:00</time></trkpt><trkpt lat="22.113951" lon="104.660843"><ele>104.0</ele><time>2011-04-28T04:33:04.0000000+00:00</time></trkpt><trkpt lat="22.113693" lon="104.66095"><ele>106.9</ele><time>2011-04-28T04:33:09.0000000+00:00</time></trkpt><trkpt lat="22.113518" lon="104.66114"><ele>107.0</ele><time>2011-04-28T04:33:14.0000000+00:00</time></trkpt><trkpt lat="22.113329" lon="104.661308"><ele>106.1</ele><time>2011-04-28T04:33:19.0000000+00:00</time></trkpt><trkpt lat="22.11315" lon="104.661469"><ele>105.4</ele><time>2011-04-28T04:33:24.0000000+00:00</time></trkpt><trkpt lat="22.112991" lon="104.661682"><ele>105.8</ele><time>2011-04-28T04:33:29.0000000+00:00</time></trkpt><trkpt lat="22.112812" lon="104.661903"><ele>105.1</ele><time>2011-04-28T04:33:34.0000000+00:00</time></trkpt><trkpt lat="22.112541" lon="104.661972"><ele>104.6</ele><time>2011-04-28T04:33:39.0000000+00:00</time></trkpt><trkpt lat="22.112309" lon="104.661972"><ele>105.0</ele><time>2011-04-28T04:33:44.0000000+00:00</time></trkpt><trkpt lat="22.112099" lon="104.66198"><ele>105.6</ele><time>2011-04-28T04:33:49.0000000+00:00</time></trkpt><trkpt lat="22.111855" lon="104.661949"><ele>105.4</ele><time>2011-04-28T04:33:54.0000000+00:00</time></trkpt><trkpt lat="22.111635" lon="104.661972"><ele>105.6</ele><time>2011-04-28T04:33:59.0000000+00:00</time></trkpt><trkpt lat="22.111469" lon="104.662064"><ele>106.0</ele><time>2011-04-28T04:34:04.0000000+00:00</time></trkpt><trkpt lat="22.111334" lon="104.662193"><ele>106.9</ele><time>2011-04-28T04:34:09.0000000+00:00</time></trkpt><trkpt lat="22.111189" lon="104.662323"><ele>107.5</ele><time>2011-04-28T04:34:14.0000000+00:00</time></trkpt><trkpt lat="22.111032" lon="104.662476"><ele>108.0</ele><time>2011-04-28T04:34:19.0000000+00:00</time></trkpt><trkpt lat="22.110889" lon="104.662613"><ele>108.0</ele><time>2011-04-28T04:34:24.0000000+00:00</time></trkpt><trkpt lat="22.11076" lon="104.662727"><ele>108.0</ele><time>2011-04-28T04:34:29.0000000+00:00</time></trkpt><trkpt lat="22.11062" lon="104.662834"><ele>108.0</ele><time>2011-04-28T04:34:34.0000000+00:00</time></trkpt><trkpt lat="22.110497" lon="104.662949"><ele>107.9</ele><time>2011-04-28T04:34:39.0000000+00:00</time></trkpt><trkpt lat="22.110355" lon="104.663048"><ele>104.4</ele><time>2011-04-28T04:34:44.0000000+00:00</time></trkpt><trkpt lat="22.110237" lon="104.663155"><ele>103.8</ele><time>2011-04-28T04:34:49.0000000+00:00</time></trkpt><trkpt lat="22.110147" lon="104.663322"><ele>101.7</ele><time>2011-04-28T04:34:54.0000000+00:00</time></trkpt><trkpt lat="22.110071" lon="104.66349"><ele>101.2</ele><time>2011-04-28T04:34:59.0000000+00:00</time></trkpt><trkpt lat="22.109989" lon="104.663658"><ele>99.6</ele><time>2011-04-28T04:35:04.0000000+00:00</time></trkpt><trkpt lat="22.109901" lon="104.663834"><ele>96.8</ele><time>2011-04-28T04:35:09.0000000+00:00</time></trkpt><trkpt lat="22.109812" lon="104.663994"><ele>96.5</ele><time>2011-04-28T04:35:14.0000000+00:00</time></trkpt><trkpt lat="22.109722" lon="104.664169"><ele>96.2</ele><time>2011-04-28T04:35:19.0000000+00:00</time></trkpt><trkpt lat="22.10965" lon="104.664337"><ele>96.0</ele><time>2011-04-28T04:35:24.0000000+00:00</time></trkpt><trkpt lat="22.109583" lon="104.664497"><ele>95.6</ele><time>2011-04-28T04:35:29.0000000+00:00</time></trkpt><trkpt lat="22.109545" lon="104.664688"><ele>95.3</ele><time>2011-04-28T04:35:34.0000000+00:00</time></trkpt><trkpt lat="22.109522" lon="104.664894"><ele>93.0</ele><time>2011-04-28T04:35:39.0000000+00:00</time></trkpt><trkpt lat="22.109476" lon="104.665077"><ele>92.9</ele><time>2011-04-28T04:35:44.0000000+00:00</time></trkpt><trkpt lat="22.109428" lon="104.665237"><ele>92.8</ele><time>2011-04-28T04:35:49.0000000+00:00</time></trkpt><trkpt lat="22.10939" lon="104.665382"><ele>94.8</ele><time>2011-04-28T04:35:54.0000000+00:00</time></trkpt><trkpt lat="22.109352" lon="104.66555"><ele>95.3</ele><time>2011-04-28T04:35:59.0000000+00:00</time></trkpt><trkpt lat="22.109301" lon="104.66571"><ele>96.7</ele><time>2011-04-28T04:36:04.0000000+00:00</time></trkpt><trkpt lat="22.109226" lon="104.665871"><ele>99.5</ele><time>2011-04-28T04:36:09.0000000+00:00</time></trkpt><trkpt lat="22.109171" lon="104.666008"><ele>100.3</ele><time>2011-04-28T04:36:14.0000000+00:00</time></trkpt><trkpt lat="22.10907" lon="104.666176"><ele>99.6</ele><time>2011-04-28T04:36:19.0000000+00:00</time></trkpt><trkpt lat="22.108912" lon="104.666374"><ele>100.2</ele><time>2011-04-28T04:36:24.0000000+00:00</time></trkpt><trkpt lat="22.10873" lon="104.66658"><ele>101.0</ele><time>2011-04-28T04:36:29.0000000+00:00</time></trkpt><trkpt lat="22.108568" lon="104.666809"><ele>101.1</ele><time>2011-04-28T04:36:34.0000000+00:00</time></trkpt><trkpt lat="22.108381" lon="104.667046"><ele>100.6</ele><time>2011-04-28T04:36:39.0000000+00:00</time></trkpt><trkpt lat="22.108215" lon="104.667244"><ele>101.1</ele><time>2011-04-28T04:36:44.0000000+00:00</time></trkpt><trkpt lat="22.108089" lon="104.667366"><ele>101.0</ele><time>2011-04-28T04:36:49.0000000+00:00</time></trkpt><trkpt lat="22.107933" lon="104.667503"><ele>101.9</ele><time>2011-04-28T04:36:54.0000000+00:00</time></trkpt><trkpt lat="22.107803" lon="104.667633"><ele>102.2</ele><time>2011-04-28T04:36:59.0000000+00:00</time></trkpt><trkpt lat="22.10767" lon="104.667862"><ele>102.9</ele><time>2011-04-28T04:37:04.0000000+00:00</time></trkpt><trkpt lat="22.107611" lon="104.668167"><ele>103.7</ele><time>2011-04-28T04:37:09.0000000+00:00</time></trkpt><trkpt lat="22.107666" lon="104.668594"><ele>100.4</ele><time>2011-04-28T04:37:14.0000000+00:00</time></trkpt><trkpt lat="22.107422" lon="104.6689"><ele>100.5</ele><time>2011-04-28T04:37:19.0000000+00:00</time></trkpt><trkpt lat="22.10717" lon="104.669174"><ele>100.2</ele><time>2011-04-28T04:37:24.0000000+00:00</time></trkpt><trkpt lat="22.106905" lon="104.669441"><ele>101.1</ele><time>2011-04-28T04:37:29.0000000+00:00</time></trkpt><trkpt lat="22.106617" lon="104.669647"><ele>103.0</ele><time>2011-04-28T04:37:34.0000000+00:00</time></trkpt><trkpt lat="22.106312" lon="104.669846"><ele>107.1</ele><time>2011-04-28T04:37:39.0000000+00:00</time></trkpt><trkpt lat="22.106045" lon="104.670029"><ele>111.4</ele><time>2011-04-28T04:37:44.0000000+00:00</time></trkpt><trkpt lat="22.105801" lon="104.670166"><ele>115.0</ele><time>2011-04-28T04:37:49.0000000+00:00</time></trkpt><trkpt lat="22.105536" lon="104.670357"><ele>118.4</ele><time>2011-04-28T04:37:54.0000000+00:00</time></trkpt><trkpt lat="22.105291" lon="104.670692"><ele>120.6</ele><time>2011-04-28T04:37:59.0000000+00:00</time></trkpt><trkpt lat="22.105068" lon="104.670998"><ele>123.5</ele><time>2011-04-28T04:38:04.0000000+00:00</time></trkpt><trkpt lat="22.104866" lon="104.671165"><ele>125.7</ele><time>2011-04-28T04:38:09.0000000+00:00</time></trkpt><trkpt lat="22.104675" lon="104.671349"><ele>127.4</ele><time>2011-04-28T04:38:14.0000000+00:00</time></trkpt><trkpt lat="22.104584" lon="104.671661"><ele>127.3</ele><time>2011-04-28T04:38:19.0000000+00:00</time></trkpt><trkpt lat="22.104425" lon="104.671936"><ele>125.2</ele><time>2011-04-28T04:38:24.0000000+00:00</time></trkpt><trkpt lat="22.104218" lon="104.672165"><ele>122.6</ele><time>2011-04-28T04:38:29.0000000+00:00</time></trkpt><trkpt lat="22.104055" lon="104.672386"><ele>124.0</ele><time>2011-04-28T04:38:34.0000000+00:00</time></trkpt><trkpt lat="22.103846" lon="104.672607"><ele>121.2</ele><time>2011-04-28T04:38:39.0000000+00:00</time></trkpt><trkpt lat="22.103565" lon="104.672836"><ele>121.8</ele><time>2011-04-28T04:38:44.0000000+00:00</time></trkpt><trkpt lat="22.103325" lon="104.673103"><ele>122.6</ele><time>2011-04-28T04:38:49.0000000+00:00</time></trkpt><trkpt lat="22.103092" lon="104.673378"><ele>122.8</ele><time>2011-04-28T04:38:54.0000000+00:00</time></trkpt><trkpt lat="22.1028" lon="104.673615"><ele>122.3</ele><time>2011-04-28T04:38:59.0000000+00:00</time></trkpt><trkpt lat="22.102499" lon="104.673828"><ele>123.6</ele><time>2011-04-28T04:39:04.0000000+00:00</time></trkpt><trkpt lat="22.102226" lon="104.674026"><ele>122.5</ele><time>2011-04-28T04:39:09.0000000+00:00</time></trkpt><trkpt lat="22.101965" lon="104.674255"><ele>123.0</ele><time>2011-04-28T04:39:14.0000000+00:00</time></trkpt><trkpt lat="22.10178" lon="104.674576"><ele>119.6</ele><time>2011-04-28T04:39:19.0000000+00:00</time></trkpt><trkpt lat="22.101564" lon="104.674713"><ele>120.6</ele><time>2011-04-28T04:39:24.0000000+00:00</time></trkpt><trkpt lat="22.101337" lon="104.674797"><ele>121.3</ele><time>2011-04-28T04:39:29.0000000+00:00</time></trkpt><trkpt lat="22.101084" lon="104.674881"><ele>120.4</ele><time>2011-04-28T04:39:34.0000000+00:00</time></trkpt><trkpt lat="22.10084" lon="104.675011"><ele>115.1</ele><time>2011-04-28T04:39:39.0000000+00:00</time></trkpt><trkpt lat="22.100592" lon="104.675133"><ele>111.1</ele><time>2011-04-28T04:39:44.0000000+00:00</time></trkpt><trkpt lat="22.10034" lon="104.675209"><ele>109.3</ele><time>2011-04-28T04:39:49.0000000+00:00</time></trkpt><trkpt lat="22.100044" lon="104.675301"><ele>107.6</ele><time>2011-04-28T04:39:54.0000000+00:00</time></trkpt><trkpt lat="22.099728" lon="104.675423"><ele>106.6</ele><time>2011-04-28T04:39:59.0000000+00:00</time></trkpt><trkpt lat="22.099487" lon="104.675682"><ele>105.5</ele><time>2011-04-28T04:40:04.0000000+00:00</time></trkpt><trkpt lat="22.099342" lon="104.676033"><ele>99.1</ele><time>2011-04-28T04:40:09.0000000+00:00</time></trkpt><trkpt lat="22.09927" lon="104.676262"><ele>94.6</ele><time>2011-04-28T04:40:14.0000000+00:00</time></trkpt><trkpt lat="22.099154" lon="104.676392"><ele>88.5</ele><time>2011-04-28T04:40:19.0000000+00:00</time></trkpt><trkpt lat="22.098995" lon="104.676529"><ele>88.1</ele><time>2011-04-28T04:40:24.0000000+00:00</time></trkpt><trkpt lat="22.098827" lon="104.676636"><ele>88.4</ele><time>2011-04-28T04:40:29.0000000+00:00</time></trkpt><trkpt lat="22.098625" lon="104.676682"><ele>88.1</ele><time>2011-04-28T04:40:34.0000000+00:00</time></trkpt><trkpt lat="22.098421" lon="104.676704"><ele>88.2</ele><time>2011-04-28T04:40:39.0000000+00:00</time></trkpt><trkpt lat="22.098257" lon="104.676697"><ele>87.3</ele><time>2011-04-28T04:40:44.0000000+00:00</time></trkpt><trkpt lat="22.098206" lon="104.676674"><ele>88.2</ele><time>2011-04-28T04:40:49.0000000+00:00</time></trkpt><trkpt lat="22.098209" lon="104.676674"><ele>88.4</ele><time>2011-04-28T04:40:54.0000000+00:00</time></trkpt><trkpt lat="22.098211" lon="104.676674"><ele>88.5</ele><time>2011-04-28T04:40:59.0000000+00:00</time></trkpt><trkpt lat="22.098211" lon="104.676674"><ele>88.6</ele><time>2011-04-28T04:41:04.0000000+00:00</time></trkpt><trkpt lat="22.098213" lon="104.676682"><ele>88.6</ele><time>2011-04-28T04:41:09.0000000+00:00</time></trkpt><trkpt lat="22.098213" lon="104.676682"><ele>88.6</ele><time>2011-04-28T04:41:14.0000000+00:00</time></trkpt><trkpt lat="22.098217" lon="104.676689"><ele>88.6</ele><time>2011-04-28T04:41:19.0000000+00:00</time></trkpt><trkpt lat="22.098219" lon="104.676689"><ele>88.7</ele><time>2011-04-28T04:41:24.0000000+00:00</time></trkpt><trkpt lat="22.098223" lon="104.676689"><ele>88.8</ele><time>2011-04-28T04:41:29.0000000+00:00</time></trkpt><trkpt lat="22.098221" lon="104.676697"><ele>88.9</ele><time>2011-04-28T04:41:34.0000000+00:00</time></trkpt><trkpt lat="22.098219" lon="104.676697"><ele>89.1</ele><time>2011-04-28T04:41:39.0000000+00:00</time></trkpt><trkpt lat="22.098219" lon="104.676697"><ele>89.2</ele><time>2011-04-28T04:41:44.0000000+00:00</time></trkpt><trkpt lat="22.098215" lon="104.676689"><ele>89.3</ele><time>2011-04-28T04:41:49.0000000+00:00</time></trkpt><trkpt lat="22.098211" lon="104.676689"><ele>89.4</ele><time>2011-04-28T04:41:54.0000000+00:00</time></trkpt><trkpt lat="22.098209" lon="104.676682"><ele>89.4</ele><time>2011-04-28T04:41:59.0000000+00:00</time></trkpt><trkpt lat="22.098207" lon="104.676674"><ele>89.4</ele><time>2011-04-28T04:42:04.0000000+00:00</time></trkpt><trkpt lat="22.098206" lon="104.676674"><ele>89.4</ele><time>2011-04-28T04:42:09.0000000+00:00</time></trkpt><trkpt lat="22.098206" lon="104.676674"><ele>89.3</ele><time>2011-04-28T04:42:14.0000000+00:00</time></trkpt><trkpt lat="22.098204" lon="104.676674"><ele>89.2</ele><time>2011-04-28T04:42:19.0000000+00:00</time></trkpt><trkpt lat="22.098204" lon="104.676674"><ele>89.2</ele><time>2011-04-28T04:42:24.0000000+00:00</time></trkpt><trkpt lat="22.0982" lon="104.676674"><ele>89.3</ele><time>2011-04-28T04:42:29.0000000+00:00</time></trkpt><trkpt lat="22.098118" lon="104.676689"><ele>89.1</ele><time>2011-04-28T04:42:34.0000000+00:00</time></trkpt><trkpt lat="22.097967" lon="104.676781"><ele>88.2</ele><time>2011-04-28T04:42:39.0000000+00:00</time></trkpt><trkpt lat="22.097836" lon="104.676941"><ele>88.2</ele><time>2011-04-28T04:42:44.0000000+00:00</time></trkpt><trkpt lat="22.097677" lon="104.6772"><ele>88.5</ele><time>2011-04-28T04:42:49.0000000+00:00</time></trkpt><trkpt lat="22.097513" lon="104.677383"><ele>88.5</ele><time>2011-04-28T04:42:54.0000000+00:00</time></trkpt><trkpt lat="22.097326" lon="104.677498"><ele>88.7</ele><time>2011-04-28T04:42:59.0000000+00:00</time></trkpt><trkpt lat="22.097176" lon="104.677574"><ele>88.9</ele><time>2011-04-28T04:43:04.0000000+00:00</time></trkpt><trkpt lat="22.09704" lon="104.677658"><ele>88.9</ele><time>2011-04-28T04:43:09.0000000+00:00</time></trkpt><trkpt lat="22.096916" lon="104.677719"><ele>89.2</ele><time>2011-04-28T04:43:14.0000000+00:00</time></trkpt><trkpt lat="22.096746" lon="104.677803"><ele>89.9</ele><time>2011-04-28T04:43:19.0000000+00:00</time></trkpt><trkpt lat="22.096548" lon="104.677879"><ele>90.0</ele><time>2011-04-28T04:43:24.0000000+00:00</time></trkpt><trkpt lat="22.096294" lon="104.67794"><ele>89.9</ele><time>2011-04-28T04:43:29.0000000+00:00</time></trkpt><trkpt lat="22.096115" lon="104.677963"><ele>88.7</ele><time>2011-04-28T04:43:34.0000000+00:00</time></trkpt><trkpt lat="22.096092" lon="104.677956"><ele>88.5</ele><time>2011-04-28T04:43:39.0000000+00:00</time></trkpt><trkpt lat="22.09609" lon="104.677963"><ele>88.6</ele><time>2011-04-28T04:43:44.0000000+00:00</time></trkpt><trkpt lat="22.096088" lon="104.677963"><ele>88.6</ele><time>2011-04-28T04:43:49.0000000+00:00</time></trkpt><trkpt lat="22.096085" lon="104.677963"><ele>88.6</ele><time>2011-04-28T04:43:54.0000000+00:00</time></trkpt><trkpt lat="22.096079" lon="104.677956"><ele>88.5</ele><time>2011-04-28T04:43:59.0000000+00:00</time></trkpt><trkpt lat="22.096075" lon="104.677956"><ele>88.5</ele><time>2011-04-28T04:44:04.0000000+00:00</time></trkpt><trkpt lat="22.096073" lon="104.677956"><ele>88.5</ele><time>2011-04-28T04:44:09.0000000+00:00</time></trkpt><trkpt lat="22.096071" lon="104.677956"><ele>88.4</ele><time>2011-04-28T04:44:14.0000000+00:00</time></trkpt><trkpt lat="22.096067" lon="104.677956"><ele>88.4</ele><time>2011-04-28T04:44:19.0000000+00:00</time></trkpt><trkpt lat="22.096066" lon="104.677956"><ele>88.4</ele><time>2011-04-28T04:44:24.0000000+00:00</time></trkpt><trkpt lat="22.096064" lon="104.677956"><ele>88.4</ele><time>2011-04-28T04:44:29.0000000+00:00</time></trkpt><trkpt lat="22.096066" lon="104.677956"><ele>88.4</ele><time>2011-04-28T04:44:34.0000000+00:00</time></trkpt><trkpt lat="22.096067" lon="104.677956"><ele>88.3</ele><time>2011-04-28T04:44:39.0000000+00:00</time></trkpt><trkpt lat="22.096069" lon="104.677963"><ele>88.3</ele><time>2011-04-28T04:44:44.0000000+00:00</time></trkpt><trkpt lat="22.096071" lon="104.677971"><ele>88.3</ele><time>2011-04-28T04:44:49.0000000+00:00</time></trkpt><trkpt lat="22.096088" lon="104.677994"><ele>87.8</ele><time>2011-04-28T04:44:54.0000000+00:00</time></trkpt><trkpt lat="22.096098" lon="104.678009"><ele>87.1</ele><time>2011-04-28T04:44:59.0000000+00:00</time></trkpt><trkpt lat="22.096052" lon="104.677979"><ele>85.1</ele><time>2011-04-28T04:45:04.0000000+00:00</time></trkpt><trkpt lat="22.095892" lon="104.678055"><ele>83.4</ele><time>2011-04-28T04:45:09.0000000+00:00</time></trkpt><trkpt lat="22.095695" lon="104.678238"><ele>80.6</ele><time>2011-04-28T04:45:14.0000000+00:00</time></trkpt><trkpt lat="22.09544" lon="104.67849"><ele>77.2</ele><time>2011-04-28T04:45:19.0000000+00:00</time></trkpt><trkpt lat="22.095173" lon="104.678802"><ele>75.6</ele><time>2011-04-28T04:45:24.0000000+00:00</time></trkpt><trkpt lat="22.094872" lon="104.679092"><ele>73.6</ele><time>2011-04-28T04:45:29.0000000+00:00</time></trkpt><trkpt lat="22.094467" lon="104.679077"><ele>70.1</ele><time>2011-04-28T04:45:34.0000000+00:00</time></trkpt><trkpt lat="22.094294" lon="104.678848"><ele>70.4</ele><time>2011-04-28T04:45:39.0000000+00:00</time></trkpt><trkpt lat="22.094252" lon="104.67868"><ele>72.0</ele><time>2011-04-28T04:45:44.0000000+00:00</time></trkpt><trkpt lat="22.094202" lon="104.678497"><ele>73.7</ele><time>2011-04-28T04:45:49.0000000+00:00</time></trkpt><trkpt lat="22.094128" lon="104.678337"><ele>74.7</ele><time>2011-04-28T04:45:54.0000000+00:00</time></trkpt><trkpt lat="22.094061" lon="104.678131"><ele>77.9</ele><time>2011-04-28T04:45:59.0000000+00:00</time></trkpt><trkpt lat="22.094034" lon="104.677925"><ele>78.6</ele><time>2011-04-28T04:46:04.0000000+00:00</time></trkpt><trkpt lat="22.094063" lon="104.67775"><ele>79.1</ele><time>2011-04-28T04:46:09.0000000+00:00</time></trkpt><trkpt lat="22.094088" lon="104.677589"><ele>79.9</ele><time>2011-04-28T04:46:14.0000000+00:00</time></trkpt><trkpt lat="22.094128" lon="104.677429"><ele>80.4</ele><time>2011-04-28T04:46:19.0000000+00:00</time></trkpt><trkpt lat="22.094128" lon="104.677246"><ele>80.7</ele><time>2011-04-28T04:46:24.0000000+00:00</time></trkpt><trkpt lat="22.094105" lon="104.677063"><ele>81.3</ele><time>2011-04-28T04:46:29.0000000+00:00</time></trkpt><trkpt lat="22.094053" lon="104.676872"><ele>81.4</ele><time>2011-04-28T04:46:34.0000000+00:00</time></trkpt><trkpt lat="22.093996" lon="104.676704"><ele>82.3</ele><time>2011-04-28T04:46:39.0000000+00:00</time></trkpt><trkpt lat="22.093903" lon="104.676567"><ele>83.0</ele><time>2011-04-28T04:46:44.0000000+00:00</time></trkpt><trkpt lat="22.093754" lon="104.676407"><ele>83.6</ele><time>2011-04-28T04:46:49.0000000+00:00</time></trkpt><trkpt lat="22.093594" lon="104.676308"><ele>82.5</ele><time>2011-04-28T04:46:54.0000000+00:00</time></trkpt><trkpt lat="22.093466" lon="104.676163"><ele>82.2</ele><time>2011-04-28T04:46:59.0000000+00:00</time></trkpt><trkpt lat="22.093399" lon="104.675987"><ele>80.9</ele><time>2011-04-28T04:47:04.0000000+00:00</time></trkpt><trkpt lat="22.093307" lon="104.675873"><ele>79.7</ele><time>2011-04-28T04:47:09.0000000+00:00</time></trkpt><trkpt lat="22.09322" lon="104.675797"><ele>78.2</ele><time>2011-04-28T04:47:14.0000000+00:00</time></trkpt><trkpt lat="22.093084" lon="104.675644"><ele>77.5</ele><time>2011-04-28T04:47:19.0000000+00:00</time></trkpt><trkpt lat="22.093166" lon="104.675354"><ele>76.0</ele><time>2011-04-28T04:47:24.0000000+00:00</time></trkpt><trkpt lat="22.093376" lon="104.675095"><ele>74.6</ele><time>2011-04-28T04:47:29.0000000+00:00</time></trkpt><trkpt lat="22.09362" lon="104.674927"><ele>73.2</ele><time>2011-04-28T04:47:34.0000000+00:00</time></trkpt><trkpt lat="22.093832" lon="104.674782"><ele>72.7</ele><time>2011-04-28T04:47:39.0000000+00:00</time></trkpt><trkpt lat="22.093954" lon="104.674599"><ele>73.4</ele><time>2011-04-28T04:47:44.0000000+00:00</time></trkpt><trkpt lat="22.093908" lon="104.674355"><ele>73.5</ele><time>2011-04-28T04:47:49.0000000+00:00</time></trkpt><trkpt lat="22.093674" lon="104.674171"><ele>69.2</ele><time>2011-04-28T04:47:54.0000000+00:00</time></trkpt><trkpt lat="22.09337" lon="104.674026"><ele>67.5</ele><time>2011-04-28T04:47:59.0000000+00:00</time></trkpt><trkpt lat="22.093079" lon="104.67382"><ele>65.0</ele><time>2011-04-28T04:48:04.0000000+00:00</time></trkpt><trkpt lat="22.092781" lon="104.673691"><ele>63.3</ele><time>2011-04-28T04:48:09.0000000+00:00</time></trkpt><trkpt lat="22.092569" lon="104.673615"><ele>63.4</ele><time>2011-04-28T04:48:14.0000000+00:00</time></trkpt><trkpt lat="22.092426" lon="104.673553"><ele>63.0</ele><time>2011-04-28T04:48:19.0000000+00:00</time></trkpt><trkpt lat="22.092281" lon="104.673531"><ele>61.4</ele><time>2011-04-28T04:48:24.0000000+00:00</time></trkpt><trkpt lat="22.09215" lon="104.673492"><ele>57.7</ele><time>2011-04-28T04:48:29.0000000+00:00</time></trkpt><trkpt lat="22.092033" lon="104.673492"><ele>56.6</ele><time>2011-04-28T04:48:34.0000000+00:00</time></trkpt><trkpt lat="22.091915" lon="104.673492"><ele>55.8</ele><time>2011-04-28T04:48:39.0000000+00:00</time></trkpt><trkpt lat="22.091829" lon="104.67347"><ele>55.0</ele><time>2011-04-28T04:48:44.0000000+00:00</time></trkpt><trkpt lat="22.091747" lon="104.673409"><ele>56.1</ele><time>2011-04-28T04:48:49.0000000+00:00</time></trkpt><trkpt lat="22.091684" lon="104.673355"><ele>58.0</ele><time>2011-04-28T04:48:54.0000000+00:00</time></trkpt><trkpt lat="22.091646" lon="104.673256"><ele>58.9</ele><time>2011-04-28T04:48:59.0000000+00:00</time></trkpt><trkpt lat="22.091644" lon="104.673149"><ele>59.5</ele><time>2011-04-28T04:49:04.0000000+00:00</time></trkpt><trkpt lat="22.091639" lon="104.673065"><ele>62.3</ele><time>2011-04-28T04:49:09.0000000+00:00</time></trkpt><trkpt lat="22.091625" lon="104.672958"><ele>64.4</ele><time>2011-04-28T04:49:14.0000000+00:00</time></trkpt><trkpt lat="22.091627" lon="104.67289"><ele>64.4</ele><time>2011-04-28T04:49:19.0000000+00:00</time></trkpt><trkpt lat="22.091629" lon="104.672882"><ele>64.1</ele><time>2011-04-28T04:49:24.0000000+00:00</time></trkpt><trkpt lat="22.091619" lon="104.67289"><ele>66.6</ele><time>2011-04-28T04:49:29.0000000+00:00</time></trkpt><trkpt lat="22.091616" lon="104.672897"><ele>68.6</ele><time>2011-04-28T04:49:34.0000000+00:00</time></trkpt><trkpt lat="22.091614" lon="104.672897"><ele>70.3</ele><time>2011-04-28T04:49:39.0000000+00:00</time></trkpt><trkpt lat="22.091621" lon="104.672897"><ele>71.6</ele><time>2011-04-28T04:49:44.0000000+00:00</time></trkpt><trkpt lat="22.091621" lon="104.672897"><ele>72.5</ele><time>2011-04-28T04:49:49.0000000+00:00</time></trkpt><trkpt lat="22.091614" lon="104.672897"><ele>72.8</ele><time>2011-04-28T04:49:54.0000000+00:00</time></trkpt><trkpt lat="22.091619" lon="104.672897"><ele>74.6</ele><time>2011-04-28T04:49:59.0000000+00:00</time></trkpt><trkpt lat="22.091623" lon="104.672897"><ele>76.3</ele><time>2011-04-28T04:50:04.0000000+00:00</time></trkpt><trkpt lat="22.091629" lon="104.672905"><ele>78.8</ele><time>2011-04-28T04:50:09.0000000+00:00</time></trkpt><trkpt lat="22.091633" lon="104.672905"><ele>80.8</ele><time>2011-04-28T04:50:14.0000000+00:00</time></trkpt><trkpt lat="22.091635" lon="104.672897"><ele>79.1</ele><time>2011-04-28T04:50:19.0000000+00:00</time></trkpt><trkpt lat="22.09164" lon="104.67289"><ele>77.3</ele><time>2011-04-28T04:50:24.0000000+00:00</time></trkpt><trkpt lat="22.091639" lon="104.672882"><ele>74.5</ele><time>2011-04-28T04:50:29.0000000+00:00</time></trkpt><trkpt lat="22.091642" lon="104.672867"><ele>72.5</ele><time>2011-04-28T04:50:34.0000000+00:00</time></trkpt><trkpt lat="22.09164" lon="104.672852"><ele>70.6</ele><time>2011-04-28T04:50:39.0000000+00:00</time></trkpt><trkpt lat="22.091639" lon="104.672852"><ele>70.0</ele><time>2011-04-28T04:50:44.0000000+00:00</time></trkpt><trkpt lat="22.091637" lon="104.672852"><ele>70.7</ele><time>2011-04-28T04:50:49.0000000+00:00</time></trkpt><trkpt lat="22.091635" lon="104.672859"><ele>71.3</ele><time>2011-04-28T04:50:54.0000000+00:00</time></trkpt><trkpt lat="22.091629" lon="104.672859"><ele>71.3</ele><time>2011-04-28T04:50:59.0000000+00:00</time></trkpt><trkpt lat="22.091627" lon="104.672867"><ele>71.7</ele><time>2011-04-28T04:51:04.0000000+00:00</time></trkpt><trkpt lat="22.091627" lon="104.672867"><ele>71.7</ele><time>2011-04-28T04:51:09.0000000+00:00</time></trkpt><trkpt lat="22.091627" lon="104.672867"><ele>71.7</ele><time>2011-04-28T04:51:14.0000000+00:00</time></trkpt><trkpt lat="22.091627" lon="104.672867"><ele>71.8</ele><time>2011-04-28T04:51:19.0000000+00:00</time></trkpt><trkpt lat="22.091627" lon="104.672867"><ele>71.8</ele><time>2011-04-28T04:51:24.0000000+00:00</time></trkpt><trkpt lat="22.091629" lon="104.672867"><ele>71.8</ele><time>2011-04-28T04:51:29.0000000+00:00</time></trkpt><trkpt lat="22.091629" lon="104.672867"><ele>71.8</ele><time>2011-04-28T04:51:34.0000000+00:00</time></trkpt><trkpt lat="22.091629" lon="104.672867"><ele>71.8</ele><time>2011-04-28T04:51:39.0000000+00:00</time></trkpt><trkpt lat="22.091629" lon="104.672867"><ele>71.8</ele><time>2011-04-28T04:51:44.0000000+00:00</time></trkpt><trkpt lat="22.091629" lon="104.672867"><ele>71.8</ele><time>2011-04-28T04:51:49.0000000+00:00</time></trkpt><trkpt lat="22.091635" lon="104.672867"><ele>72.0</ele><time>2011-04-28T04:51:54.0000000+00:00</time></trkpt><trkpt lat="22.09165" lon="104.672859"><ele>71.8</ele><time>2011-04-28T04:51:59.0000000+00:00</time></trkpt><trkpt lat="22.091656" lon="104.672859"><ele>71.2</ele><time>2011-04-28T04:52:04.0000000+00:00</time></trkpt><trkpt lat="22.091661" lon="104.672859"><ele>71.0</ele><time>2011-04-28T04:52:09.0000000+00:00</time></trkpt><trkpt lat="22.091663" lon="104.672867"><ele>70.8</ele><time>2011-04-28T04:52:14.0000000+00:00</time></trkpt><trkpt lat="22.091667" lon="104.672859"><ele>70.3</ele><time>2011-04-28T04:52:19.0000000+00:00</time></trkpt><trkpt lat="22.091669" lon="104.672859"><ele>69.6</ele><time>2011-04-28T04:52:24.0000000+00:00</time></trkpt><trkpt lat="22.091665" lon="104.672852"><ele>69.1</ele><time>2011-04-28T04:52:29.0000000+00:00</time></trkpt><trkpt lat="22.091654" lon="104.672844"><ele>68.4</ele><time>2011-04-28T04:52:34.0000000+00:00</time></trkpt><trkpt lat="22.091644" lon="104.672844"><ele>67.6</ele><time>2011-04-28T04:52:39.0000000+00:00</time></trkpt><trkpt lat="22.091635" lon="104.672836"><ele>66.8</ele><time>2011-04-28T04:52:44.0000000+00:00</time></trkpt><trkpt lat="22.091635" lon="104.672836"><ele>66.8</ele><time>2011-04-28T04:52:49.0000000+00:00</time></trkpt><trkpt lat="22.091635" lon="104.672836"><ele>66.8</ele><time>2011-04-28T04:52:54.0000000+00:00</time></trkpt><trkpt lat="22.091635" lon="104.672836"><ele>66.8</ele><time>2011-04-28T04:52:59.0000000+00:00</time></trkpt><trkpt lat="22.091635" lon="104.672836"><ele>66.7</ele><time>2011-04-28T04:53:04.0000000+00:00</time></trkpt><trkpt lat="22.091635" lon="104.672836"><ele>66.7</ele><time>2011-04-28T04:53:09.0000000+00:00</time></trkpt><trkpt lat="22.091637" lon="104.672844"><ele>66.7</ele><time>2011-04-28T04:53:14.0000000+00:00</time></trkpt><trkpt lat="22.091635" lon="104.672844"><ele>66.7</ele><time>2011-04-28T04:53:19.0000000+00:00</time></trkpt><trkpt lat="22.091635" lon="104.672844"><ele>66.7</ele><time>2011-04-28T04:53:24.0000000+00:00</time></trkpt><trkpt lat="22.091635" lon="104.672844"><ele>66.8</ele><time>2011-04-28T04:53:29.0000000+00:00</time></trkpt><trkpt lat="22.091637" lon="104.672844"><ele>66.7</ele><time>2011-04-28T04:53:34.0000000+00:00</time></trkpt><trkpt lat="22.091635" lon="104.672844"><ele>66.7</ele><time>2011-04-28T04:53:39.0000000+00:00</time></trkpt><trkpt lat="22.091635" lon="104.672844"><ele>66.7</ele><time>2011-04-28T04:53:44.0000000+00:00</time></trkpt><trkpt lat="22.091635" lon="104.672844"><ele>66.8</ele><time>2011-04-28T04:53:49.0000000+00:00</time></trkpt><trkpt lat="22.091635" lon="104.672844"><ele>66.8</ele><time>2011-04-28T04:53:54.0000000+00:00</time></trkpt><trkpt lat="22.091635" lon="104.672844"><ele>66.8</ele><time>2011-04-28T04:53:59.0000000+00:00</time></trkpt><trkpt lat="22.091635" lon="104.672844"><ele>66.8</ele><time>2011-04-28T04:54:04.0000000+00:00</time></trkpt><trkpt lat="22.091635" lon="104.672844"><ele>66.7</ele><time>2011-04-28T04:54:09.0000000+00:00</time></trkpt><trkpt lat="22.091635" lon="104.672844"><ele>66.7</ele><time>2011-04-28T04:54:14.0000000+00:00</time></trkpt><trkpt lat="22.091633" lon="104.672844"><ele>66.8</ele><time>2011-04-28T04:54:19.0000000+00:00</time></trkpt><trkpt lat="22.091633" lon="104.672844"><ele>66.8</ele><time>2011-04-28T04:54:24.0000000+00:00</time></trkpt><trkpt lat="22.091633" lon="104.672844"><ele>66.7</ele><time>2011-04-28T04:54:29.0000000+00:00</time></trkpt><trkpt lat="22.091633" lon="104.672844"><ele>66.7</ele><time>2011-04-28T04:54:34.0000000+00:00</time></trkpt><trkpt lat="22.091633" lon="104.672844"><ele>66.6</ele><time>2011-04-28T04:54:39.0000000+00:00</time></trkpt><trkpt lat="22.091633" lon="104.672844"><ele>66.6</ele><time>2011-04-28T04:54:44.0000000+00:00</time></trkpt><trkpt lat="22.091633" lon="104.672844"><ele>66.5</ele><time>2011-04-28T04:54:49.0000000+00:00</time></trkpt><trkpt lat="22.091612" lon="104.672791"><ele>65.4</ele><time>2011-04-28T04:54:54.0000000+00:00</time></trkpt><trkpt lat="22.091532" lon="104.67263"><ele>64.7</ele><time>2011-04-28T04:54:59.0000000+00:00</time></trkpt><trkpt lat="22.091438" lon="104.672493"><ele>64.2</ele><time>2011-04-28T04:55:04.0000000+00:00</time></trkpt><trkpt lat="22.091347" lon="104.672371"><ele>64.0</ele><time>2011-04-28T04:55:09.0000000+00:00</time></trkpt><trkpt lat="22.091234" lon="104.672234"><ele>65.4</ele><time>2011-04-28T04:55:14.0000000+00:00</time></trkpt><trkpt lat="22.091173" lon="104.672119"><ele>66.0</ele><time>2011-04-28T04:55:19.0000000+00:00</time></trkpt><trkpt lat="22.091129" lon="104.671982"><ele>66.9</ele><time>2011-04-28T04:55:24.0000000+00:00</time></trkpt><trkpt lat="22.091084" lon="104.671829"><ele>66.7</ele><time>2011-04-28T04:55:29.0000000+00:00</time></trkpt><trkpt lat="22.09103" lon="104.671646"><ele>69.6</ele><time>2011-04-28T04:55:34.0000000+00:00</time></trkpt><trkpt lat="22.090975" lon="104.671486"><ele>71.5</ele><time>2011-04-28T04:55:39.0000000+00:00</time></trkpt><trkpt lat="22.090914" lon="104.671303"><ele>72.4</ele><time>2011-04-28T04:55:44.0000000+00:00</time></trkpt><trkpt lat="22.090837" lon="104.671082"><ele>73.3</ele><time>2011-04-28T04:55:49.0000000+00:00</time></trkpt><trkpt lat="22.090815" lon="104.670853"><ele>73.6</ele><time>2011-04-28T04:55:54.0000000+00:00</time></trkpt><trkpt lat="22.090776" lon="104.670639"><ele>73.5</ele><time>2011-04-28T04:55:59.0000000+00:00</time></trkpt><trkpt lat="22.090784" lon="104.670494"><ele>74.9</ele><time>2011-04-28T04:56:04.0000000+00:00</time></trkpt><trkpt lat="22.090786" lon="104.670303"><ele>75.7</ele><time>2011-04-28T04:56:09.0000000+00:00</time></trkpt><trkpt lat="22.090767" lon="104.670143"><ele>76.2</ele><time>2011-04-28T04:56:14.0000000+00:00</time></trkpt><trkpt lat="22.090645" lon="104.66996"><ele>76.7</ele><time>2011-04-28T04:56:19.0000000+00:00</time></trkpt><trkpt lat="22.090542" lon="104.669807"><ele>77.5</ele><time>2011-04-28T04:56:24.0000000+00:00</time></trkpt><trkpt lat="22.090418" lon="104.669701"><ele>78.4</ele><time>2011-04-28T04:56:29.0000000+00:00</time></trkpt><trkpt lat="22.090382" lon="104.669655"><ele>78.4</ele><time>2011-04-28T04:56:34.0000000+00:00</time></trkpt><trkpt lat="22.090384" lon="104.669655"><ele>78.6</ele><time>2011-04-28T04:56:39.0000000+00:00</time></trkpt><trkpt lat="22.090382" lon="104.669655"><ele>78.6</ele><time>2011-04-28T04:56:44.0000000+00:00</time></trkpt><trkpt lat="22.090382" lon="104.669655"><ele>78.6</ele><time>2011-04-28T04:56:49.0000000+00:00</time></trkpt><trkpt lat="22.09038" lon="104.669655"><ele>78.6</ele><time>2011-04-28T04:56:54.0000000+00:00</time></trkpt><trkpt lat="22.090374" lon="104.669662"><ele>78.6</ele><time>2011-04-28T04:56:59.0000000+00:00</time></trkpt><trkpt lat="22.090359" lon="104.669655"><ele>78.7</ele><time>2011-04-28T04:57:04.0000000+00:00</time></trkpt><trkpt lat="22.090258" lon="104.669609"><ele>78.6</ele><time>2011-04-28T04:57:09.0000000+00:00</time></trkpt><trkpt lat="22.090118" lon="104.669624"><ele>78.2</ele><time>2011-04-28T04:57:14.0000000+00:00</time></trkpt><trkpt lat="22.089956" lon="104.66967"><ele>78.6</ele><time>2011-04-28T04:57:19.0000000+00:00</time></trkpt><trkpt lat="22.089796" lon="104.669716"><ele>78.9</ele><time>2011-04-28T04:57:24.0000000+00:00</time></trkpt><trkpt lat="22.089642" lon="104.669807"><ele>79.1</ele><time>2011-04-28T04:57:29.0000000+00:00</time></trkpt><trkpt lat="22.0895" lon="104.669914"><ele>78.7</ele><time>2011-04-28T04:57:34.0000000+00:00</time></trkpt><trkpt lat="22.089371" lon="104.670074"><ele>78.5</ele><time>2011-04-28T04:57:39.0000000+00:00</time></trkpt><trkpt lat="22.089333" lon="104.670364"><ele>76.8</ele><time>2011-04-28T04:57:44.0000000+00:00</time></trkpt><trkpt lat="22.089287" lon="104.670715"><ele>74.5</ele><time>2011-04-28T04:57:49.0000000+00:00</time></trkpt><trkpt lat="22.088915" lon="104.670822"><ele>73.3</ele><time>2011-04-28T04:57:54.0000000+00:00</time></trkpt><trkpt lat="22.088472" lon="104.670975"><ele>71.1</ele><time>2011-04-28T04:57:59.0000000+00:00</time></trkpt><trkpt lat="22.088055" lon="104.671257"><ele>68.4</ele><time>2011-04-28T04:58:04.0000000+00:00</time></trkpt><trkpt lat="22.0877" lon="104.671265"><ele>67.3</ele><time>2011-04-28T04:58:09.0000000+00:00</time></trkpt><trkpt lat="22.087484" lon="104.67115"><ele>66.5</ele><time>2011-04-28T04:58:14.0000000+00:00</time></trkpt><trkpt lat="22.087318" lon="104.671059"><ele>65.8</ele><time>2011-04-28T04:58:19.0000000+00:00</time></trkpt><trkpt lat="22.0872" lon="104.670921"><ele>64.2</ele><time>2011-04-28T04:58:24.0000000+00:00</time></trkpt><trkpt lat="22.087086" lon="104.670815"><ele>63.8</ele><time>2011-04-28T04:58:29.0000000+00:00</time></trkpt><trkpt lat="22.08696" lon="104.670769"><ele>66.5</ele><time>2011-04-28T04:58:34.0000000+00:00</time></trkpt><trkpt lat="22.086859" lon="104.670685"><ele>68.4</ele><time>2011-04-28T04:58:39.0000000+00:00</time></trkpt><trkpt lat="22.086794" lon="104.67057"><ele>70.8</ele><time>2011-04-28T04:58:44.0000000+00:00</time></trkpt><trkpt lat="22.086725" lon="104.670471"><ele>71.5</ele><time>2011-04-28T04:58:49.0000000+00:00</time></trkpt><trkpt lat="22.086607" lon="104.67041"><ele>72.6</ele><time>2011-04-28T04:58:54.0000000+00:00</time></trkpt><trkpt lat="22.086515" lon="104.670311"><ele>72.8</ele><time>2011-04-28T04:58:59.0000000+00:00</time></trkpt><trkpt lat="22.086372" lon="104.670227"><ele>73.9</ele><time>2011-04-28T04:59:04.0000000+00:00</time></trkpt><trkpt lat="22.086283" lon="104.670212"><ele>74.3</ele><time>2011-04-28T04:59:09.0000000+00:00</time></trkpt><trkpt lat="22.086143" lon="104.670181"><ele>75.5</ele><time>2011-04-28T04:59:14.0000000+00:00</time></trkpt><trkpt lat="22.086031" lon="104.670128"><ele>77.1</ele><time>2011-04-28T04:59:19.0000000+00:00</time></trkpt><trkpt lat="22.085941" lon="104.670006"><ele>76.3</ele><time>2011-04-28T04:59:24.0000000+00:00</time></trkpt><trkpt lat="22.085857" lon="104.669853"><ele>76.6</ele><time>2011-04-28T04:59:29.0000000+00:00</time></trkpt><trkpt lat="22.085686" lon="104.669739"><ele>74.0</ele><time>2011-04-28T04:59:34.0000000+00:00</time></trkpt><trkpt lat="22.085514" lon="104.669617"><ele>71.6</ele><time>2011-04-28T04:59:39.0000000+00:00</time></trkpt><trkpt lat="22.085291" lon="104.669617"><ele>64.8</ele><time>2011-04-28T04:59:44.0000000+00:00</time></trkpt><trkpt lat="22.085003" lon="104.669792"><ele>60.7</ele><time>2011-04-28T04:59:49.0000000+00:00</time></trkpt><trkpt lat="22.084656" lon="104.670128"><ele>57.4</ele><time>2011-04-28T04:59:54.0000000+00:00</time></trkpt><trkpt lat="22.084305" lon="104.670525"><ele>54.2</ele><time>2011-04-28T04:59:59.0000000+00:00</time></trkpt><trkpt lat="22.08396" lon="104.670784"><ele>50.6</ele><time>2011-04-28T05:00:04.0000000+00:00</time></trkpt><trkpt lat="22.083679" lon="104.670601"><ele>49.2</ele><time>2011-04-28T05:00:09.0000000+00:00</time></trkpt><trkpt lat="22.083385" lon="104.670502"><ele>49.7</ele><time>2011-04-28T05:00:14.0000000+00:00</time></trkpt><trkpt lat="22.083143" lon="104.670616"><ele>49.9</ele><time>2011-04-28T05:00:19.0000000+00:00</time></trkpt><trkpt lat="22.082958" lon="104.670708"><ele>49.6</ele><time>2011-04-28T05:00:24.0000000+00:00</time></trkpt><trkpt lat="22.082808" lon="104.670723"><ele>49.1</ele><time>2011-04-28T05:00:29.0000000+00:00</time></trkpt><trkpt lat="22.082706" lon="104.67057"><ele>55.8</ele><time>2011-04-28T05:00:34.0000000+00:00</time></trkpt><trkpt lat="22.082676" lon="104.670372"><ele>57.4</ele><time>2011-04-28T05:00:39.0000000+00:00</time></trkpt><trkpt lat="22.082649" lon="104.670158"><ele>59.7</ele><time>2011-04-28T05:00:44.0000000+00:00</time></trkpt><trkpt lat="22.082642" lon="104.669975"><ele>60.4</ele><time>2011-04-28T05:00:49.0000000+00:00</time></trkpt><trkpt lat="22.082623" lon="104.669823"><ele>60.7</ele><time>2011-04-28T05:00:54.0000000+00:00</time></trkpt><trkpt lat="22.082602" lon="104.669662"><ele>60.7</ele><time>2011-04-28T05:00:59.0000000+00:00</time></trkpt><trkpt lat="22.082539" lon="104.669441"><ele>61.2</ele><time>2011-04-28T05:01:04.0000000+00:00</time></trkpt><trkpt lat="22.082424" lon="104.669266"><ele>62.0</ele><time>2011-04-28T05:01:09.0000000+00:00</time></trkpt><trkpt lat="22.082289" lon="104.669067"><ele>63.9</ele><time>2011-04-28T05:01:14.0000000+00:00</time></trkpt><trkpt lat="22.082193" lon="104.668915"><ele>64.6</ele><time>2011-04-28T05:01:19.0000000+00:00</time></trkpt><trkpt lat="22.082052" lon="104.668724"><ele>65.0</ele><time>2011-04-28T05:01:24.0000000+00:00</time></trkpt><trkpt lat="22.081942" lon="104.668571"><ele>66.2</ele><time>2011-04-28T05:01:29.0000000+00:00</time></trkpt><trkpt lat="22.081911" lon="104.668388"><ele>66.7</ele><time>2011-04-28T05:01:34.0000000+00:00</time></trkpt><trkpt lat="22.081877" lon="104.668266"><ele>68.2</ele><time>2011-04-28T05:01:39.0000000+00:00</time></trkpt><trkpt lat="22.081839" lon="104.668076"><ele>69.6</ele><time>2011-04-28T05:01:44.0000000+00:00</time></trkpt><trkpt lat="22.081709" lon="104.667862"><ele>70.3</ele><time>2011-04-28T05:01:49.0000000+00:00</time></trkpt><trkpt lat="22.081516" lon="104.667725"><ele>70.6</ele><time>2011-04-28T05:01:54.0000000+00:00</time></trkpt><trkpt lat="22.081285" lon="104.667709"><ele>71.3</ele><time>2011-04-28T05:01:59.0000000+00:00</time></trkpt><trkpt lat="22.081018" lon="104.66774"><ele>72.5</ele><time>2011-04-28T05:02:04.0000000+00:00</time></trkpt><trkpt lat="22.080795" lon="104.667862"><ele>75.0</ele><time>2011-04-28T05:02:09.0000000+00:00</time></trkpt><trkpt lat="22.080673" lon="104.668106"><ele>76.2</ele><time>2011-04-28T05:02:14.0000000+00:00</time></trkpt><trkpt lat="22.080544" lon="104.668457"><ele>76.8</ele><time>2011-04-28T05:02:19.0000000+00:00</time></trkpt><trkpt lat="22.080349" lon="104.668892"><ele>78.0</ele><time>2011-04-28T05:02:24.0000000+00:00</time></trkpt><trkpt lat="22.080141" lon="104.669312"><ele>78.2</ele><time>2011-04-28T05:02:29.0000000+00:00</time></trkpt><trkpt lat="22.079945" lon="104.66967"><ele>81.3</ele><time>2011-04-28T05:02:34.0000000+00:00</time></trkpt><trkpt lat="22.079803" lon="104.66996"><ele>83.7</ele><time>2011-04-28T05:02:39.0000000+00:00</time></trkpt><trkpt lat="22.079727" lon="104.670158"><ele>85.3</ele><time>2011-04-28T05:02:44.0000000+00:00</time></trkpt><trkpt lat="22.079681" lon="104.67028"><ele>86.8</ele><time>2011-04-28T05:02:49.0000000+00:00</time></trkpt><trkpt lat="22.079615" lon="104.670395"><ele>89.3</ele><time>2011-04-28T05:02:54.0000000+00:00</time></trkpt><trkpt lat="22.07955" lon="104.670525"><ele>91.3</ele><time>2011-04-28T05:02:59.0000000+00:00</time></trkpt><trkpt lat="22.079498" lon="104.67067"><ele>93.2</ele><time>2011-04-28T05:03:04.0000000+00:00</time></trkpt><trkpt lat="22.079445" lon="104.670799"><ele>94.6</ele><time>2011-04-28T05:03:09.0000000+00:00</time></trkpt><trkpt lat="22.079407" lon="104.670944"><ele>93.2</ele><time>2011-04-28T05:03:14.0000000+00:00</time></trkpt><trkpt lat="22.07934" lon="104.671066"><ele>91.6</ele><time>2011-04-28T05:03:19.0000000+00:00</time></trkpt><trkpt lat="22.079266" lon="104.671181"><ele>91.9</ele><time>2011-04-28T05:03:24.0000000+00:00</time></trkpt><trkpt lat="22.079168" lon="104.67131"><ele>91.9</ele><time>2011-04-28T05:03:29.0000000+00:00</time></trkpt><trkpt lat="22.079062" lon="104.671425"><ele>92.0</ele><time>2011-04-28T05:03:34.0000000+00:00</time></trkpt><trkpt lat="22.078981" lon="104.671516"><ele>92.3</ele><time>2011-04-28T05:03:39.0000000+00:00</time></trkpt><trkpt lat="22.078844" lon="104.671608"><ele>92.6</ele><time>2011-04-28T05:03:44.0000000+00:00</time></trkpt><trkpt lat="22.078739" lon="104.671631"><ele>93.0</ele><time>2011-04-28T05:03:49.0000000+00:00</time></trkpt><trkpt lat="22.078674" lon="104.671623"><ele>92.6</ele><time>2011-04-28T05:03:54.0000000+00:00</time></trkpt><trkpt lat="22.078667" lon="104.671608"><ele>92.6</ele><time>2011-04-28T05:03:59.0000000+00:00</time></trkpt><trkpt lat="22.078669" lon="104.671608"><ele>92.7</ele><time>2011-04-28T05:04:04.0000000+00:00</time></trkpt><trkpt lat="22.078667" lon="104.671608"><ele>92.7</ele><time>2011-04-28T05:04:09.0000000+00:00</time></trkpt><trkpt lat="22.078663" lon="104.671608"><ele>92.7</ele><time>2011-04-28T05:04:14.0000000+00:00</time></trkpt><trkpt lat="22.078663" lon="104.671608"><ele>92.7</ele><time>2011-04-28T05:04:19.0000000+00:00</time></trkpt><trkpt lat="22.078663" lon="104.671608"><ele>92.6</ele><time>2011-04-28T05:04:24.0000000+00:00</time></trkpt><trkpt lat="22.078663" lon="104.671608"><ele>92.6</ele><time>2011-04-28T05:04:29.0000000+00:00</time></trkpt><trkpt lat="22.078663" lon="104.671608"><ele>92.6</ele><time>2011-04-28T05:04:34.0000000+00:00</time></trkpt><trkpt lat="22.078667" lon="104.671608"><ele>92.7</ele><time>2011-04-28T05:04:39.0000000+00:00</time></trkpt><trkpt lat="22.078669" lon="104.671608"><ele>92.7</ele><time>2011-04-28T05:04:44.0000000+00:00</time></trkpt><trkpt lat="22.078669" lon="104.671608"><ele>92.7</ele><time>2011-04-28T05:04:49.0000000+00:00</time></trkpt><trkpt lat="22.078669" lon="104.671608"><ele>92.8</ele><time>2011-04-28T05:04:54.0000000+00:00</time></trkpt><trkpt lat="22.078671" lon="104.671608"><ele>92.8</ele><time>2011-04-28T05:04:59.0000000+00:00</time></trkpt><trkpt lat="22.078667" lon="104.671608"><ele>92.8</ele><time>2011-04-28T05:05:04.0000000+00:00</time></trkpt><trkpt lat="22.078665" lon="104.671608"><ele>92.8</ele><time>2011-04-28T05:05:09.0000000+00:00</time></trkpt><trkpt lat="22.078665" lon="104.6716"><ele>92.8</ele><time>2011-04-28T05:05:14.0000000+00:00</time></trkpt><trkpt lat="22.078667" lon="104.6716"><ele>92.8</ele><time>2011-04-28T05:05:19.0000000+00:00</time></trkpt><trkpt lat="22.078663" lon="104.6716"><ele>92.7</ele><time>2011-04-28T05:05:24.0000000+00:00</time></trkpt><trkpt lat="22.078661" lon="104.6716"><ele>92.7</ele><time>2011-04-28T05:05:29.0000000+00:00</time></trkpt><trkpt lat="22.078659" lon="104.671593"><ele>92.7</ele><time>2011-04-28T05:05:34.0000000+00:00</time></trkpt><trkpt lat="22.078659" lon="104.6716"><ele>92.8</ele><time>2011-04-28T05:05:39.0000000+00:00</time></trkpt><trkpt lat="22.078651" lon="104.671593"><ele>93.1</ele><time>2011-04-28T05:05:44.0000000+00:00</time></trkpt><trkpt lat="22.078646" lon="104.671593"><ele>93.3</ele><time>2011-04-28T05:05:49.0000000+00:00</time></trkpt><trkpt lat="22.078644" lon="104.671593"><ele>93.6</ele><time>2011-04-28T05:05:54.0000000+00:00</time></trkpt><trkpt lat="22.07864" lon="104.671577"><ele>93.9</ele><time>2011-04-28T05:05:59.0000000+00:00</time></trkpt><trkpt lat="22.078638" lon="104.671593"><ele>94.0</ele><time>2011-04-28T05:06:04.0000000+00:00</time></trkpt><trkpt lat="22.078648" lon="104.671593"><ele>94.5</ele><time>2011-04-28T05:06:09.0000000+00:00</time></trkpt><trkpt lat="22.078655" lon="104.6716"><ele>95.0</ele><time>2011-04-28T05:06:14.0000000+00:00</time></trkpt><trkpt lat="22.078651" lon="104.671593"><ele>95.4</ele><time>2011-04-28T05:06:19.0000000+00:00</time></trkpt><trkpt lat="22.078653" lon="104.671593"><ele>95.4</ele><time>2011-04-28T05:06:24.0000000+00:00</time></trkpt><trkpt lat="22.078655" lon="104.671593"><ele>95.5</ele><time>2011-04-28T05:06:29.0000000+00:00</time></trkpt><trkpt lat="22.078655" lon="104.671593"><ele>95.5</ele><time>2011-04-28T05:06:34.0000000+00:00</time></trkpt><trkpt lat="22.078655" lon="104.671593"><ele>95.6</ele><time>2011-04-28T05:06:39.0000000+00:00</time></trkpt><trkpt lat="22.078653" lon="104.671593"><ele>95.6</ele><time>2011-04-28T05:06:44.0000000+00:00</time></trkpt><trkpt lat="22.078653" lon="104.671593"><ele>95.6</ele><time>2011-04-28T05:06:49.0000000+00:00</time></trkpt><trkpt lat="22.078653" lon="104.671593"><ele>95.6</ele><time>2011-04-28T05:06:54.0000000+00:00</time></trkpt><trkpt lat="22.078653" lon="104.671593"><ele>95.7</ele><time>2011-04-28T05:06:59.0000000+00:00</time></trkpt><trkpt lat="22.078653" lon="104.671593"><ele>95.7</ele><time>2011-04-28T05:07:04.0000000+00:00</time></trkpt><trkpt lat="22.078653" lon="104.671593"><ele>95.7</ele><time>2011-04-28T05:07:09.0000000+00:00</time></trkpt><trkpt lat="22.078653" lon="104.671593"><ele>95.7</ele><time>2011-04-28T05:07:14.0000000+00:00</time></trkpt><trkpt lat="22.078653" lon="104.671593"><ele>95.7</ele><time>2011-04-28T05:07:19.0000000+00:00</time></trkpt><trkpt lat="22.078653" lon="104.671593"><ele>95.7</ele><time>2011-04-28T05:07:24.0000000+00:00</time></trkpt><trkpt lat="22.078653" lon="104.671593"><ele>95.7</ele><time>2011-04-28T05:07:29.0000000+00:00</time></trkpt><trkpt lat="22.078653" lon="104.671593"><ele>95.7</ele><time>2011-04-28T05:07:34.0000000+00:00</time></trkpt><trkpt lat="22.078653" lon="104.671593"><ele>95.7</ele><time>2011-04-28T05:07:39.0000000+00:00</time></trkpt><trkpt lat="22.078653" lon="104.671593"><ele>95.7</ele><time>2011-04-28T05:07:44.0000000+00:00</time></trkpt><trkpt lat="22.078653" lon="104.671593"><ele>95.7</ele><time>2011-04-28T05:07:49.0000000+00:00</time></trkpt><trkpt lat="22.078642" lon="104.6716"><ele>95.5</ele><time>2011-04-28T05:07:54.0000000+00:00</time></trkpt><trkpt lat="22.078493" lon="104.6716"><ele>93.7</ele><time>2011-04-28T05:07:59.0000000+00:00</time></trkpt><trkpt lat="22.078268" lon="104.671593"><ele>92.1</ele><time>2011-04-28T05:08:04.0000000+00:00</time></trkpt><trkpt lat="22.07802" lon="104.671669"><ele>88.6</ele><time>2011-04-28T05:08:09.0000000+00:00</time></trkpt><trkpt lat="22.077789" lon="104.671883"><ele>85.2</ele><time>2011-04-28T05:08:14.0000000+00:00</time></trkpt><trkpt lat="22.077574" lon="104.672096"><ele>82.8</ele><time>2011-04-28T05:08:19.0000000+00:00</time></trkpt><trkpt lat="22.077257" lon="104.672157"><ele>80.3</ele><time>2011-04-28T05:08:24.0000000+00:00</time></trkpt><trkpt lat="22.077028" lon="104.672195"><ele>78.0</ele><time>2011-04-28T05:08:29.0000000+00:00</time></trkpt><trkpt lat="22.076931" lon="104.672279"><ele>77.6</ele><time>2011-04-28T05:08:34.0000000+00:00</time></trkpt><trkpt lat="22.07687" lon="104.672386"><ele>76.8</ele><time>2011-04-28T05:08:39.0000000+00:00</time></trkpt><trkpt lat="22.076792" lon="104.672501"><ele>76.9</ele><time>2011-04-28T05:08:44.0000000+00:00</time></trkpt><trkpt lat="22.076725" lon="104.672592"><ele>76.6</ele><time>2011-04-28T05:08:49.0000000+00:00</time></trkpt><trkpt lat="22.076647" lon="104.672707"><ele>74.8</ele><time>2011-04-28T05:08:54.0000000+00:00</time></trkpt><trkpt lat="22.076584" lon="104.672813"><ele>73.6</ele><time>2011-04-28T05:08:59.0000000+00:00</time></trkpt><trkpt lat="22.076508" lon="104.67292"><ele>72.3</ele><time>2011-04-28T05:09:04.0000000+00:00</time></trkpt><trkpt lat="22.07641" lon="104.673035"><ele>73.0</ele><time>2011-04-28T05:09:09.0000000+00:00</time></trkpt><trkpt lat="22.076326" lon="104.673103"><ele>69.7</ele><time>2011-04-28T05:09:14.0000000+00:00</time></trkpt><trkpt lat="22.07626" lon="104.673164"><ele>66.1</ele><time>2011-04-28T05:09:19.0000000+00:00</time></trkpt><trkpt lat="22.076187" lon="104.673203"><ele>65.2</ele><time>2011-04-28T05:09:24.0000000+00:00</time></trkpt><trkpt lat="22.076115" lon="104.673233"><ele>65.6</ele><time>2011-04-28T05:09:29.0000000+00:00</time></trkpt><trkpt lat="22.076054" lon="104.673264"><ele>65.1</ele><time>2011-04-28T05:09:34.0000000+00:00</time></trkpt><trkpt lat="22.075972" lon="104.673271"><ele>64.6</ele><time>2011-04-28T05:09:39.0000000+00:00</time></trkpt><trkpt lat="22.07588" lon="104.673279"><ele>64.0</ele><time>2011-04-28T05:09:44.0000000+00:00</time></trkpt><trkpt lat="22.075794" lon="104.673302"><ele>62.8</ele><time>2011-04-28T05:09:49.0000000+00:00</time></trkpt><trkpt lat="22.07571" lon="104.673294"><ele>63.1</ele><time>2011-04-28T05:09:54.0000000+00:00</time></trkpt><trkpt lat="22.075634" lon="104.673256"><ele>62.5</ele><time>2011-04-28T05:09:59.0000000+00:00</time></trkpt><trkpt lat="22.075539" lon="104.673203"><ele>62.3</ele><time>2011-04-28T05:10:04.0000000+00:00</time></trkpt><trkpt lat="22.075438" lon="104.67318"><ele>62.0</ele><time>2011-04-28T05:10:09.0000000+00:00</time></trkpt><trkpt lat="22.075302" lon="104.673141"><ele>65.6</ele><time>2011-04-28T05:10:14.0000000+00:00</time></trkpt><trkpt lat="22.075207" lon="104.673103"><ele>65.3</ele><time>2011-04-28T05:10:19.0000000+00:00</time></trkpt><trkpt lat="22.075134" lon="104.673065"><ele>64.1</ele><time>2011-04-28T05:10:24.0000000+00:00</time></trkpt><trkpt lat="22.075054" lon="104.673027"><ele>63.6</ele><time>2011-04-28T05:10:29.0000000+00:00</time></trkpt><trkpt lat="22.074976" lon="104.673012"><ele>63.5</ele><time>2011-04-28T05:10:34.0000000+00:00</time></trkpt><trkpt lat="22.074903" lon="104.672981"><ele>64.2</ele><time>2011-04-28T05:10:39.0000000+00:00</time></trkpt><trkpt lat="22.074827" lon="104.672958"><ele>63.9</ele><time>2011-04-28T05:10:44.0000000+00:00</time></trkpt><trkpt lat="22.074724" lon="104.672951"><ele>63.9</ele><time>2011-04-28T05:10:49.0000000+00:00</time></trkpt><trkpt lat="22.074615" lon="104.672913"><ele>64.6</ele><time>2011-04-28T05:10:54.0000000+00:00</time></trkpt><trkpt lat="22.074511" lon="104.672859"><ele>64.9</ele><time>2011-04-28T05:10:59.0000000+00:00</time></trkpt><trkpt lat="22.074425" lon="104.672829"><ele>64.3</ele><time>2011-04-28T05:11:04.0000000+00:00</time></trkpt><trkpt lat="22.074343" lon="104.672806"><ele>65.3</ele><time>2011-04-28T05:11:09.0000000+00:00</time></trkpt><trkpt lat="22.074263" lon="104.672783"><ele>64.6</ele><time>2011-04-28T05:11:14.0000000+00:00</time></trkpt><trkpt lat="22.074162" lon="104.672768"><ele>63.1</ele><time>2011-04-28T05:11:19.0000000+00:00</time></trkpt><trkpt lat="22.07407" lon="104.672768"><ele>62.8</ele><time>2011-04-28T05:11:24.0000000+00:00</time></trkpt><trkpt lat="22.073971" lon="104.672729"><ele>62.9</ele><time>2011-04-28T05:11:29.0000000+00:00</time></trkpt><trkpt lat="22.07391" lon="104.672699"><ele>62.5</ele><time>2011-04-28T05:11:34.0000000+00:00</time></trkpt><trkpt lat="22.073822" lon="104.672653"><ele>61.0</ele><time>2011-04-28T05:11:39.0000000+00:00</time></trkpt><trkpt lat="22.073734" lon="104.672607"><ele>61.2</ele><time>2011-04-28T05:11:44.0000000+00:00</time></trkpt><trkpt lat="22.073631" lon="104.672577"><ele>59.9</ele><time>2011-04-28T05:11:49.0000000+00:00</time></trkpt><trkpt lat="22.073507" lon="104.672577"><ele>61.4</ele><time>2011-04-28T05:11:54.0000000+00:00</time></trkpt><trkpt lat="22.073381" lon="104.672562"><ele>61.2</ele><time>2011-04-28T05:11:59.0000000+00:00</time></trkpt><trkpt lat="22.073263" lon="104.672546"><ele>61.7</ele><time>2011-04-28T05:12:04.0000000+00:00</time></trkpt><trkpt lat="22.073149" lon="104.672546"><ele>62.6</ele><time>2011-04-28T05:12:09.0000000+00:00</time></trkpt><trkpt lat="22.073057" lon="104.672569"><ele>65.4</ele><time>2011-04-28T05:12:14.0000000+00:00</time></trkpt><trkpt lat="22.072926" lon="104.672585"><ele>66.6</ele><time>2011-04-28T05:12:19.0000000+00:00</time></trkpt><trkpt lat="22.072752" lon="104.672653"><ele>63.7</ele><time>2011-04-28T05:12:24.0000000+00:00</time></trkpt><trkpt lat="22.072578" lon="104.672729"><ele>63.3</ele><time>2011-04-28T05:12:29.0000000+00:00</time></trkpt><trkpt lat="22.072411" lon="104.672783"><ele>63.8</ele><time>2011-04-28T05:12:34.0000000+00:00</time></trkpt><trkpt lat="22.072233" lon="104.672821"><ele>62.0</ele><time>2011-04-28T05:12:39.0000000+00:00</time></trkpt><trkpt lat="22.072001" lon="104.672836"><ele>62.3</ele><time>2011-04-28T05:12:44.0000000+00:00</time></trkpt><trkpt lat="22.07184" lon="104.672859"><ele>62.9</ele><time>2011-04-28T05:12:49.0000000+00:00</time></trkpt><trkpt lat="22.071711" lon="104.672852"><ele>63.6</ele><time>2011-04-28T05:12:54.0000000+00:00</time></trkpt><trkpt lat="22.071659" lon="104.672867"><ele>64.3</ele><time>2011-04-28T05:12:59.0000000+00:00</time></trkpt><trkpt lat="22.071705" lon="104.672997"><ele>65.2</ele><time>2011-04-28T05:13:04.0000000+00:00</time></trkpt><trkpt lat="22.071739" lon="104.672997"><ele>62.6</ele><time>2011-04-28T05:13:09.0000000+00:00</time></trkpt><trkpt lat="22.071741" lon="104.672997"><ele>62.6</ele><time>2011-04-28T05:13:14.0000000+00:00</time></trkpt><trkpt lat="22.07173" lon="104.673012"><ele>64.2</ele><time>2011-04-28T05:13:19.0000000+00:00</time></trkpt><trkpt lat="22.07173" lon="104.673027"><ele>63.8</ele><time>2011-04-28T05:13:24.0000000+00:00</time></trkpt><trkpt lat="22.071749" lon="104.673035"><ele>64.3</ele><time>2011-04-28T05:13:29.0000000+00:00</time></trkpt><trkpt lat="22.071739" lon="104.67305"><ele>65.6</ele><time>2011-04-28T05:13:34.0000000+00:00</time></trkpt><trkpt lat="22.071739" lon="104.67305"><ele>65.7</ele><time>2011-04-28T05:13:39.0000000+00:00</time></trkpt><trkpt lat="22.071733" lon="104.67305"><ele>65.8</ele><time>2011-04-28T05:13:44.0000000+00:00</time></trkpt><trkpt lat="22.071724" lon="104.67305"><ele>66.3</ele><time>2011-04-28T05:13:49.0000000+00:00</time></trkpt><trkpt lat="22.071705" lon="104.673035"><ele>66.9</ele><time>2011-04-28T05:13:54.0000000+00:00</time></trkpt><trkpt lat="22.071672" lon="104.673004"><ele>67.6</ele><time>2011-04-28T05:13:59.0000000+00:00</time></trkpt><trkpt lat="22.07163" lon="104.672966"><ele>67.9</ele><time>2011-04-28T05:14:04.0000000+00:00</time></trkpt><trkpt lat="22.071609" lon="104.672935"><ele>67.9</ele><time>2011-04-28T05:14:09.0000000+00:00</time></trkpt><trkpt lat="22.071602" lon="104.672928"><ele>67.8</ele><time>2011-04-28T05:14:14.0000000+00:00</time></trkpt><trkpt lat="22.071602" lon="104.672928"><ele>67.8</ele><time>2011-04-28T05:14:19.0000000+00:00</time></trkpt><trkpt lat="22.071598" lon="104.67292"><ele>67.9</ele><time>2011-04-28T05:14:24.0000000+00:00</time></trkpt><trkpt lat="22.071598" lon="104.672928"><ele>67.9</ele><time>2011-04-28T05:14:29.0000000+00:00</time></trkpt><trkpt lat="22.071598" lon="104.672928"><ele>67.9</ele><time>2011-04-28T05:14:34.0000000+00:00</time></trkpt><trkpt lat="22.071608" lon="104.672935"><ele>67.9</ele><time>2011-04-28T05:14:39.0000000+00:00</time></trkpt><trkpt lat="22.071617" lon="104.672958"><ele>68.2</ele><time>2011-04-28T05:14:44.0000000+00:00</time></trkpt><trkpt lat="22.071613" lon="104.672958"><ele>68.5</ele><time>2011-04-28T05:14:49.0000000+00:00</time></trkpt><trkpt lat="22.071615" lon="104.672966"><ele>68.6</ele><time>2011-04-28T05:14:54.0000000+00:00</time></trkpt><trkpt lat="22.071619" lon="104.672974"><ele>68.6</ele><time>2011-04-28T05:14:59.0000000+00:00</time></trkpt><trkpt lat="22.071634" lon="104.672997"><ele>68.8</ele><time>2011-04-28T05:15:04.0000000+00:00</time></trkpt><trkpt lat="22.071644" lon="104.673035"><ele>69.1</ele><time>2011-04-28T05:15:09.0000000+00:00</time></trkpt><trkpt lat="22.071659" lon="104.673073"><ele>69.4</ele><time>2011-04-28T05:15:14.0000000+00:00</time></trkpt><trkpt lat="22.071684" lon="104.673111"><ele>69.6</ele><time>2011-04-28T05:15:19.0000000+00:00</time></trkpt><trkpt lat="22.071701" lon="104.673134"><ele>69.9</ele><time>2011-04-28T05:15:24.0000000+00:00</time></trkpt><trkpt lat="22.071718" lon="104.673149"><ele>70.0</ele><time>2011-04-28T05:15:29.0000000+00:00</time></trkpt><trkpt lat="22.071716" lon="104.673126"><ele>70.1</ele><time>2011-04-28T05:15:34.0000000+00:00</time></trkpt><trkpt lat="22.07172" lon="104.673126"><ele>70.1</ele><time>2011-04-28T05:15:39.0000000+00:00</time></trkpt><trkpt lat="22.071716" lon="104.673126"><ele>70.1</ele><time>2011-04-28T05:15:44.0000000+00:00</time></trkpt><trkpt lat="22.071712" lon="104.673119"><ele>70.2</ele><time>2011-04-28T05:15:49.0000000+00:00</time></trkpt><trkpt lat="22.071709" lon="104.673111"><ele>70.2</ele><time>2011-04-28T05:15:54.0000000+00:00</time></trkpt><trkpt lat="22.071703" lon="104.673103"><ele>70.3</ele><time>2011-04-28T05:15:59.0000000+00:00</time></trkpt><trkpt lat="22.071697" lon="104.673103"><ele>70.3</ele><time>2011-04-28T05:16:04.0000000+00:00</time></trkpt><trkpt lat="22.071693" lon="104.673096"><ele>70.3</ele><time>2011-04-28T05:16:09.0000000+00:00</time></trkpt><trkpt lat="22.071692" lon="104.673096"><ele>70.4</ele><time>2011-04-28T05:16:14.0000000+00:00</time></trkpt><trkpt lat="22.07169" lon="104.673088"><ele>70.4</ele><time>2011-04-28T05:16:19.0000000+00:00</time></trkpt><trkpt lat="22.071686" lon="104.673088"><ele>70.4</ele><time>2011-04-28T05:16:24.0000000+00:00</time></trkpt><trkpt lat="22.071682" lon="104.67308"><ele>70.5</ele><time>2011-04-28T05:16:29.0000000+00:00</time></trkpt><trkpt lat="22.071682" lon="104.67308"><ele>70.5</ele><time>2011-04-28T05:16:34.0000000+00:00</time></trkpt><trkpt lat="22.07168" lon="104.673073"><ele>70.6</ele><time>2011-04-28T05:16:39.0000000+00:00</time></trkpt><trkpt lat="22.07168" lon="104.673073"><ele>70.6</ele><time>2011-04-28T05:16:44.0000000+00:00</time></trkpt><trkpt lat="22.07168" lon="104.673073"><ele>70.7</ele><time>2011-04-28T05:16:49.0000000+00:00</time></trkpt><trkpt lat="22.071682" lon="104.673065"><ele>70.8</ele><time>2011-04-28T05:16:54.0000000+00:00</time></trkpt><trkpt lat="22.071682" lon="104.673065"><ele>70.8</ele><time>2011-04-28T05:16:59.0000000+00:00</time></trkpt><trkpt lat="22.071684" lon="104.673065"><ele>70.9</ele><time>2011-04-28T05:17:04.0000000+00:00</time></trkpt><trkpt lat="22.071682" lon="104.673058"><ele>71.1</ele><time>2011-04-28T05:17:09.0000000+00:00</time></trkpt><trkpt lat="22.071682" lon="104.673058"><ele>71.2</ele><time>2011-04-28T05:17:14.0000000+00:00</time></trkpt><trkpt lat="22.071682" lon="104.673058"><ele>71.3</ele><time>2011-04-28T05:17:19.0000000+00:00</time></trkpt><trkpt lat="22.071667" lon="104.67305"><ele>71.6</ele><time>2011-04-28T05:17:24.0000000+00:00</time></trkpt><trkpt lat="22.071583" lon="104.673027"><ele>74.8</ele><time>2011-04-28T05:17:29.0000000+00:00</time></trkpt><trkpt lat="22.071495" lon="104.67305"><ele>76.1</ele><time>2011-04-28T05:17:34.0000000+00:00</time></trkpt><trkpt lat="22.071356" lon="104.67308"><ele>76.3</ele><time>2011-04-28T05:17:39.0000000+00:00</time></trkpt><trkpt lat="22.071152" lon="104.673058"><ele>75.2</ele><time>2011-04-28T05:17:44.0000000+00:00</time></trkpt><trkpt lat="22.070963" lon="104.672981"><ele>71.2</ele><time>2011-04-28T05:17:49.0000000+00:00</time></trkpt><trkpt lat="22.07082" lon="104.67289"><ele>69.6</ele><time>2011-04-28T05:17:54.0000000+00:00</time></trkpt><trkpt lat="22.070587" lon="104.672874"><ele>68.0</ele><time>2011-04-28T05:17:59.0000000+00:00</time></trkpt><trkpt lat="22.070364" lon="104.672867"><ele>64.9</ele><time>2011-04-28T05:18:04.0000000+00:00</time></trkpt><trkpt lat="22.070156" lon="104.672859"><ele>61.4</ele><time>2011-04-28T05:18:09.0000000+00:00</time></trkpt><trkpt lat="22.069965" lon="104.672813"><ele>61.4</ele><time>2011-04-28T05:18:14.0000000+00:00</time></trkpt><trkpt lat="22.069799" lon="104.672714"><ele>61.0</ele><time>2011-04-28T05:18:19.0000000+00:00</time></trkpt><trkpt lat="22.069668" lon="104.672577"><ele>59.2</ele><time>2011-04-28T05:18:24.0000000+00:00</time></trkpt><trkpt lat="22.069548" lon="104.672409"><ele>58.5</ele><time>2011-04-28T05:18:29.0000000+00:00</time></trkpt><trkpt lat="22.069389" lon="104.672318"><ele>57.6</ele><time>2011-04-28T05:18:34.0000000+00:00</time></trkpt><trkpt lat="22.069128" lon="104.672348"><ele>63.5</ele><time>2011-04-28T05:18:39.0000000+00:00</time></trkpt><trkpt lat="22.068928" lon="104.672508"><ele>65.3</ele><time>2011-04-28T05:18:44.0000000+00:00</time></trkpt><trkpt lat="22.068716" lon="104.672577"><ele>64.6</ele><time>2011-04-28T05:18:49.0000000+00:00</time></trkpt><trkpt lat="22.068527" lon="104.672592"><ele>63.0</ele><time>2011-04-28T05:18:54.0000000+00:00</time></trkpt><trkpt lat="22.068369" lon="104.672607"><ele>62.8</ele><time>2011-04-28T05:18:59.0000000+00:00</time></trkpt><trkpt lat="22.06823" lon="104.672592"><ele>63.0</ele><time>2011-04-28T05:19:04.0000000+00:00</time></trkpt><trkpt lat="22.068102" lon="104.672554"><ele>67.8</ele><time>2011-04-28T05:19:09.0000000+00:00</time></trkpt><trkpt lat="22.067953" lon="104.672493"><ele>71.5</ele><time>2011-04-28T05:19:14.0000000+00:00</time></trkpt><trkpt lat="22.067797" lon="104.672447"><ele>73.5</ele><time>2011-04-28T05:19:19.0000000+00:00</time></trkpt><trkpt lat="22.067669" lon="104.672409"><ele>76.4</ele><time>2011-04-28T05:19:24.0000000+00:00</time></trkpt><trkpt lat="22.067537" lon="104.672371"><ele>78.7</ele><time>2011-04-28T05:19:29.0000000+00:00</time></trkpt><trkpt lat="22.0674" lon="104.672333"><ele>81.6</ele><time>2011-04-28T05:19:34.0000000+00:00</time></trkpt><trkpt lat="22.067299" lon="104.672325"><ele>83.9</ele><time>2011-04-28T05:19:39.0000000+00:00</time></trkpt><trkpt lat="22.06724" lon="104.672287"><ele>86.9</ele><time>2011-04-28T05:19:44.0000000+00:00</time></trkpt><trkpt lat="22.067225" lon="104.672272"><ele>87.5</ele><time>2011-04-28T05:19:49.0000000+00:00</time></trkpt><trkpt lat="22.067219" lon="104.672264"><ele>87.9</ele><time>2011-04-28T05:19:54.0000000+00:00</time></trkpt><trkpt lat="22.067215" lon="104.672256"><ele>88.0</ele><time>2011-04-28T05:19:59.0000000+00:00</time></trkpt><trkpt lat="22.067221" lon="104.672264"><ele>87.7</ele><time>2011-04-28T05:20:04.0000000+00:00</time></trkpt><trkpt lat="22.067211" lon="104.672272"><ele>88.7</ele><time>2011-04-28T05:20:09.0000000+00:00</time></trkpt><trkpt lat="22.067219" lon="104.672256"><ele>88.0</ele><time>2011-04-28T05:20:14.0000000+00:00</time></trkpt><trkpt lat="22.067228" lon="104.672256"><ele>87.6</ele><time>2011-04-28T05:20:19.0000000+00:00</time></trkpt><trkpt lat="22.067236" lon="104.672256"><ele>87.1</ele><time>2011-04-28T05:20:24.0000000+00:00</time></trkpt><trkpt lat="22.067226" lon="104.672264"><ele>87.2</ele><time>2011-04-28T05:20:29.0000000+00:00</time></trkpt><trkpt lat="22.067215" lon="104.672302"><ele>89.9</ele><time>2011-04-28T05:20:34.0000000+00:00</time></trkpt><trkpt lat="22.067194" lon="104.672302"><ele>89.7</ele><time>2011-04-28T05:20:39.0000000+00:00</time></trkpt><trkpt lat="22.067196" lon="104.672279"><ele>88.8</ele><time>2011-04-28T05:20:44.0000000+00:00</time></trkpt><trkpt lat="22.067196" lon="104.672249"><ele>87.5</ele><time>2011-04-28T05:20:49.0000000+00:00</time></trkpt><trkpt lat="22.067202" lon="104.672195"><ele>86.4</ele><time>2011-04-28T05:20:54.0000000+00:00</time></trkpt><trkpt lat="22.067192" lon="104.672142"><ele>86.2</ele><time>2011-04-28T05:20:59.0000000+00:00</time></trkpt><trkpt lat="22.067165" lon="104.672096"><ele>86.8</ele><time>2011-04-28T05:21:04.0000000+00:00</time></trkpt><trkpt lat="22.067188" lon="104.672127"><ele>89.1</ele><time>2011-04-28T05:21:09.0000000+00:00</time></trkpt><trkpt lat="22.067156" lon="104.672119"><ele>89.4</ele><time>2011-04-28T05:21:14.0000000+00:00</time></trkpt><trkpt lat="22.067152" lon="104.672134"><ele>89.5</ele><time>2011-04-28T05:21:19.0000000+00:00</time></trkpt><trkpt lat="22.06715" lon="104.672127"><ele>89.2</ele><time>2011-04-28T05:21:24.0000000+00:00</time></trkpt><trkpt lat="22.067152" lon="104.672119"><ele>89.6</ele><time>2011-04-28T05:21:29.0000000+00:00</time></trkpt><trkpt lat="22.067148" lon="104.672119"><ele>89.8</ele><time>2011-04-28T05:21:34.0000000+00:00</time></trkpt><trkpt lat="22.067142" lon="104.672119"><ele>89.8</ele><time>2011-04-28T05:21:39.0000000+00:00</time></trkpt><trkpt lat="22.067133" lon="104.672127"><ele>89.8</ele><time>2011-04-28T05:21:44.0000000+00:00</time></trkpt><trkpt lat="22.067123" lon="104.672127"><ele>89.9</ele><time>2011-04-28T05:21:49.0000000+00:00</time></trkpt><trkpt lat="22.06712" lon="104.672134"><ele>89.9</ele><time>2011-04-28T05:21:54.0000000+00:00</time></trkpt><trkpt lat="22.067122" lon="104.672134"><ele>89.9</ele><time>2011-04-28T05:21:59.0000000+00:00</time></trkpt><trkpt lat="22.067122" lon="104.672134"><ele>90.0</ele><time>2011-04-28T05:22:04.0000000+00:00</time></trkpt><trkpt lat="22.067125" lon="104.672142"><ele>90.0</ele><time>2011-04-28T05:22:09.0000000+00:00</time></trkpt><trkpt lat="22.067131" lon="104.672211"><ele>89.7</ele><time>2011-04-28T05:22:14.0000000+00:00</time></trkpt><trkpt lat="22.067141" lon="104.672256"><ele>89.7</ele><time>2011-04-28T05:22:19.0000000+00:00</time></trkpt><trkpt lat="22.067137" lon="104.672287"><ele>89.8</ele><time>2011-04-28T05:22:24.0000000+00:00</time></trkpt><trkpt lat="22.067129" lon="104.672302"><ele>89.4</ele><time>2011-04-28T05:22:29.0000000+00:00</time></trkpt><trkpt lat="22.067129" lon="104.672302"><ele>88.9</ele><time>2011-04-28T05:22:34.0000000+00:00</time></trkpt><trkpt lat="22.067112" lon="104.672264"><ele>88.4</ele><time>2011-04-28T05:22:39.0000000+00:00</time></trkpt><trkpt lat="22.067118" lon="104.672195"><ele>88.0</ele><time>2011-04-28T05:22:44.0000000+00:00</time></trkpt><trkpt lat="22.06712" lon="104.672188"><ele>86.3</ele><time>2011-04-28T05:22:49.0000000+00:00</time></trkpt><trkpt lat="22.067051" lon="104.672112"><ele>83.6</ele><time>2011-04-28T05:22:54.0000000+00:00</time></trkpt><trkpt lat="22.066957" lon="104.67189"><ele>79.6</ele><time>2011-04-28T05:22:59.0000000+00:00</time></trkpt><trkpt lat="22.066978" lon="104.671562"><ele>76.5</ele><time>2011-04-28T05:23:04.0000000+00:00</time></trkpt><trkpt lat="22.066925" lon="104.671204"><ele>74.7</ele><time>2011-04-28T05:23:09.0000000+00:00</time></trkpt><trkpt lat="22.066574" lon="104.671082"><ele>75.1</ele><time>2011-04-28T05:23:14.0000000+00:00</time></trkpt><trkpt lat="22.066254" lon="104.671043"><ele>75.5</ele><time>2011-04-28T05:23:19.0000000+00:00</time></trkpt><trkpt lat="22.065987" lon="104.671036"><ele>77.1</ele><time>2011-04-28T05:23:24.0000000+00:00</time></trkpt><trkpt lat="22.06576" lon="104.671036"><ele>77.0</ele><time>2011-04-28T05:23:29.0000000+00:00</time></trkpt><trkpt lat="22.065544" lon="104.671097"><ele>80.6</ele><time>2011-04-28T05:23:34.0000000+00:00</time></trkpt><trkpt lat="22.065327" lon="104.671181"><ele>80.8</ele><time>2011-04-28T05:23:39.0000000+00:00</time></trkpt><trkpt lat="22.065182" lon="104.671242"><ele>82.0</ele><time>2011-04-28T05:23:44.0000000+00:00</time></trkpt><trkpt lat="22.065008" lon="104.671349"><ele>83.9</ele><time>2011-04-28T05:23:49.0000000+00:00</time></trkpt><trkpt lat="22.064838" lon="104.671448"><ele>85.1</ele><time>2011-04-28T05:23:54.0000000+00:00</time></trkpt><trkpt lat="22.064663" lon="104.671562"><ele>84.4</ele><time>2011-04-28T05:23:59.0000000+00:00</time></trkpt><trkpt lat="22.064455" lon="104.671654"><ele>83.4</ele><time>2011-04-28T05:24:04.0000000+00:00</time></trkpt><trkpt lat="22.064274" lon="104.671692"><ele>81.0</ele><time>2011-04-28T05:24:09.0000000+00:00</time></trkpt><trkpt lat="22.064102" lon="104.671692"><ele>81.3</ele><time>2011-04-28T05:24:14.0000000+00:00</time></trkpt><trkpt lat="22.063951" lon="104.671631"><ele>79.8</ele><time>2011-04-28T05:24:19.0000000+00:00</time></trkpt><trkpt lat="22.06378" lon="104.671486"><ele>75.9</ele><time>2011-04-28T05:24:24.0000000+00:00</time></trkpt><trkpt lat="22.06365" lon="104.67128"><ele>72.6</ele><time>2011-04-28T05:24:29.0000000+00:00</time></trkpt><trkpt lat="22.063553" lon="104.671066"><ele>70.5</ele><time>2011-04-28T05:24:34.0000000+00:00</time></trkpt><trkpt lat="22.063456" lon="104.670868"><ele>68.9</ele><time>2011-04-28T05:24:39.0000000+00:00</time></trkpt><trkpt lat="22.063353" lon="104.670609"><ele>68.6</ele><time>2011-04-28T05:24:44.0000000+00:00</time></trkpt><trkpt lat="22.063267" lon="104.670357"><ele>67.7</ele><time>2011-04-28T05:24:49.0000000+00:00</time></trkpt><trkpt lat="22.063238" lon="104.67012"><ele>66.9</ele><time>2011-04-28T05:24:54.0000000+00:00</time></trkpt><trkpt lat="22.06321" lon="104.669907"><ele>67.1</ele><time>2011-04-28T05:24:59.0000000+00:00</time></trkpt><trkpt lat="22.063219" lon="104.669685"><ele>67.3</ele><time>2011-04-28T05:25:04.0000000+00:00</time></trkpt><trkpt lat="22.063131" lon="104.669571"><ele>67.1</ele><time>2011-04-28T05:25:09.0000000+00:00</time></trkpt><trkpt lat="22.062853" lon="104.669434"><ele>67.3</ele><time>2011-04-28T05:25:14.0000000+00:00</time></trkpt><trkpt lat="22.062578" lon="104.669357"><ele>67.7</ele><time>2011-04-28T05:25:19.0000000+00:00</time></trkpt><trkpt lat="22.062334" lon="104.669319"><ele>69.3</ele><time>2011-04-28T05:25:24.0000000+00:00</time></trkpt><trkpt lat="22.062174" lon="104.669281"><ele>70.1</ele><time>2011-04-28T05:25:29.0000000+00:00</time></trkpt><trkpt lat="22.062119" lon="104.669243"><ele>70.4</ele><time>2011-04-28T05:25:34.0000000+00:00</time></trkpt><trkpt lat="22.062048" lon="104.66922"><ele>70.7</ele><time>2011-04-28T05:25:39.0000000+00:00</time></trkpt><trkpt lat="22.061958" lon="104.669128"><ele>71.6</ele><time>2011-04-28T05:25:44.0000000+00:00</time></trkpt><trkpt lat="22.061855" lon="104.669014"><ele>72.4</ele><time>2011-04-28T05:25:49.0000000+00:00</time></trkpt><trkpt lat="22.061768" lon="104.668861"><ele>72.7</ele><time>2011-04-28T05:25:54.0000000+00:00</time></trkpt><trkpt lat="22.061676" lon="104.668724"><ele>73.4</ele><time>2011-04-28T05:25:59.0000000+00:00</time></trkpt><trkpt lat="22.061584" lon="104.668556"><ele>74.3</ele><time>2011-04-28T05:26:04.0000000+00:00</time></trkpt><trkpt lat="22.061459" lon="104.668419"><ele>73.7</ele><time>2011-04-28T05:26:09.0000000+00:00</time></trkpt><trkpt lat="22.06127" lon="104.668304"><ele>72.8</ele><time>2011-04-28T05:26:14.0000000+00:00</time></trkpt><trkpt lat="22.061123" lon="104.66819"><ele>73.4</ele><time>2011-04-28T05:26:19.0000000+00:00</time></trkpt><trkpt lat="22.061026" lon="104.668045"><ele>75.1</ele><time>2011-04-28T05:26:24.0000000+00:00</time></trkpt><trkpt lat="22.060898" lon="104.667931"><ele>76.8</ele><time>2011-04-28T05:26:29.0000000+00:00</time></trkpt><trkpt lat="22.060675" lon="104.667816"><ele>80.3</ele><time>2011-04-28T05:26:34.0000000+00:00</time></trkpt><trkpt lat="22.060417" lon="104.667717"><ele>81.9</ele><time>2011-04-28T05:26:39.0000000+00:00</time></trkpt><trkpt lat="22.060211" lon="104.667664"><ele>82.2</ele><time>2011-04-28T05:26:44.0000000+00:00</time></trkpt><trkpt lat="22.059982" lon="104.667664"><ele>81.2</ele><time>2011-04-28T05:26:49.0000000+00:00</time></trkpt><trkpt lat="22.059694" lon="104.667786"><ele>80.1</ele><time>2011-04-28T05:26:54.0000000+00:00</time></trkpt><trkpt lat="22.059368" lon="104.667786"><ele>80.3</ele><time>2011-04-28T05:26:59.0000000+00:00</time></trkpt><trkpt lat="22.059093" lon="104.667747"><ele>82.3</ele><time>2011-04-28T05:27:04.0000000+00:00</time></trkpt><trkpt lat="22.058846" lon="104.667725"><ele>83.8</ele><time>2011-04-28T05:27:09.0000000+00:00</time></trkpt><trkpt lat="22.058615" lon="104.667702"><ele>86.4</ele><time>2011-04-28T05:27:14.0000000+00:00</time></trkpt><trkpt lat="22.058445" lon="104.667656"><ele>89.2</ele><time>2011-04-28T05:27:19.0000000+00:00</time></trkpt><trkpt lat="22.058327" lon="104.667595"><ele>89.5</ele><time>2011-04-28T05:27:24.0000000+00:00</time></trkpt><trkpt lat="22.058237" lon="104.667503"><ele>90.1</ele><time>2011-04-28T05:27:29.0000000+00:00</time></trkpt><trkpt lat="22.058163" lon="104.667389"><ele>90.5</ele><time>2011-04-28T05:27:34.0000000+00:00</time></trkpt><trkpt lat="22.058067" lon="104.667274"><ele>90.5</ele><time>2011-04-28T05:27:39.0000000+00:00</time></trkpt><trkpt lat="22.057949" lon="104.667175"><ele>90.2</ele><time>2011-04-28T05:27:44.0000000+00:00</time></trkpt><trkpt lat="22.057827" lon="104.66713"><ele>91.4</ele><time>2011-04-28T05:27:49.0000000+00:00</time></trkpt><trkpt lat="22.057695" lon="104.667145"><ele>92.0</ele><time>2011-04-28T05:27:54.0000000+00:00</time></trkpt><trkpt lat="22.057594" lon="104.667221"><ele>92.7</ele><time>2011-04-28T05:27:59.0000000+00:00</time></trkpt><trkpt lat="22.057449" lon="104.667328"><ele>92.3</ele><time>2011-04-28T05:28:04.0000000+00:00</time></trkpt><trkpt lat="22.057331" lon="104.66745"><ele>92.6</ele><time>2011-04-28T05:28:09.0000000+00:00</time></trkpt><trkpt lat="22.057234" lon="104.667572"><ele>93.2</ele><time>2011-04-28T05:28:14.0000000+00:00</time></trkpt><trkpt lat="22.057159" lon="104.667694"><ele>93.9</ele><time>2011-04-28T05:28:19.0000000+00:00</time></trkpt><trkpt lat="22.057072" lon="104.667847"><ele>94.5</ele><time>2011-04-28T05:28:24.0000000+00:00</time></trkpt><trkpt lat="22.056913" lon="104.668053"><ele>94.3</ele><time>2011-04-28T05:28:29.0000000+00:00</time></trkpt><trkpt lat="22.056686" lon="104.668221"><ele>94.4</ele><time>2011-04-28T05:28:34.0000000+00:00</time></trkpt><trkpt lat="22.056421" lon="104.668365"><ele>94.7</ele><time>2011-04-28T05:28:39.0000000+00:00</time></trkpt><trkpt lat="22.056135" lon="104.668449"><ele>95.7</ele><time>2011-04-28T05:28:44.0000000+00:00</time></trkpt><trkpt lat="22.05583" lon="104.668358"><ele>97.8</ele><time>2011-04-28T05:28:49.0000000+00:00</time></trkpt><trkpt lat="22.05562" lon="104.668243"><ele>99.7</ele><time>2011-04-28T05:28:54.0000000+00:00</time></trkpt><trkpt lat="22.05545" lon="104.668098"><ele>101.5</ele><time>2011-04-28T05:28:59.0000000+00:00</time></trkpt><trkpt lat="22.05533" lon="104.667953"><ele>102.6</ele><time>2011-04-28T05:29:04.0000000+00:00</time></trkpt><trkpt lat="22.055229" lon="104.667801"><ele>105.8</ele><time>2011-04-28T05:29:09.0000000+00:00</time></trkpt><trkpt lat="22.055088" lon="104.667656"><ele>106.9</ele><time>2011-04-28T05:29:14.0000000+00:00</time></trkpt><trkpt lat="22.054968" lon="104.667542"><ele>106.7</ele><time>2011-04-28T05:29:19.0000000+00:00</time></trkpt><trkpt lat="22.054827" lon="104.667419"><ele>107.3</ele><time>2011-04-28T05:29:24.0000000+00:00</time></trkpt><trkpt lat="22.054644" lon="104.667274"><ele>109.1</ele><time>2011-04-28T05:29:29.0000000+00:00</time></trkpt><trkpt lat="22.05455" lon="104.667206"><ele>109.6</ele><time>2011-04-28T05:29:34.0000000+00:00</time></trkpt><trkpt lat="22.054525" lon="104.667183"><ele>111.4</ele><time>2011-04-28T05:29:39.0000000+00:00</time></trkpt><trkpt lat="22.05452" lon="104.667183"><ele>112.4</ele><time>2011-04-28T05:29:44.0000000+00:00</time></trkpt><trkpt lat="22.054522" lon="104.667183"><ele>112.6</ele><time>2011-04-28T05:29:49.0000000+00:00</time></trkpt><trkpt lat="22.054523" lon="104.667183"><ele>112.7</ele><time>2011-04-28T05:29:54.0000000+00:00</time></trkpt><trkpt lat="22.054523" lon="104.667183"><ele>112.8</ele><time>2011-04-28T05:29:59.0000000+00:00</time></trkpt><trkpt lat="22.054525" lon="104.667175"><ele>112.8</ele><time>2011-04-28T05:30:04.0000000+00:00</time></trkpt><trkpt lat="22.054523" lon="104.667183"><ele>112.7</ele><time>2011-04-28T05:30:09.0000000+00:00</time></trkpt><trkpt lat="22.054522" lon="104.667183"><ele>112.7</ele><time>2011-04-28T05:30:14.0000000+00:00</time></trkpt><trkpt lat="22.05452" lon="104.667183"><ele>112.7</ele><time>2011-04-28T05:30:19.0000000+00:00</time></trkpt><trkpt lat="22.05452" lon="104.667183"><ele>112.6</ele><time>2011-04-28T05:30:24.0000000+00:00</time></trkpt><trkpt lat="22.05452" lon="104.667183"><ele>112.6</ele><time>2011-04-28T05:30:29.0000000+00:00</time></trkpt><trkpt lat="22.054522" lon="104.667183"><ele>112.5</ele><time>2011-04-28T05:30:34.0000000+00:00</time></trkpt><trkpt lat="22.05452" lon="104.667183"><ele>112.5</ele><time>2011-04-28T05:30:39.0000000+00:00</time></trkpt><trkpt lat="22.05452" lon="104.667183"><ele>112.5</ele><time>2011-04-28T05:30:44.0000000+00:00</time></trkpt><trkpt lat="22.05452" lon="104.667183"><ele>112.5</ele><time>2011-04-28T05:30:49.0000000+00:00</time></trkpt><trkpt lat="22.054518" lon="104.667183"><ele>112.5</ele><time>2011-04-28T05:30:54.0000000+00:00</time></trkpt><trkpt lat="22.054464" lon="104.667152"><ele>112.3</ele><time>2011-04-28T05:30:59.0000000+00:00</time></trkpt><trkpt lat="22.054316" lon="104.667145"><ele>111.6</ele><time>2011-04-28T05:31:04.0000000+00:00</time></trkpt><trkpt lat="22.054182" lon="104.667114"><ele>110.8</ele><time>2011-04-28T05:31:09.0000000+00:00</time></trkpt><trkpt lat="22.054007" lon="104.667053"><ele>110.4</ele><time>2011-04-28T05:31:14.0000000+00:00</time></trkpt><trkpt lat="22.053762" lon="104.666985"><ele>110.1</ele><time>2011-04-28T05:31:19.0000000+00:00</time></trkpt><trkpt lat="22.053627" lon="104.666855"><ele>110.9</ele><time>2011-04-28T05:31:24.0000000+00:00</time></trkpt><trkpt lat="22.053478" lon="104.666695"><ele>113.3</ele><time>2011-04-28T05:31:29.0000000+00:00</time></trkpt><trkpt lat="22.053316" lon="104.666641"><ele>112.5</ele><time>2011-04-28T05:31:34.0000000+00:00</time></trkpt><trkpt lat="22.053137" lon="104.666641"><ele>112.4</ele><time>2011-04-28T05:31:39.0000000+00:00</time></trkpt><trkpt lat="22.052938" lon="104.666641"><ele>112.0</ele><time>2011-04-28T05:31:44.0000000+00:00</time></trkpt><trkpt lat="22.052706" lon="104.666634"><ele>112.4</ele><time>2011-04-28T05:31:49.0000000+00:00</time></trkpt><trkpt lat="22.052496" lon="104.666634"><ele>112.7</ele><time>2011-04-28T05:31:54.0000000+00:00</time></trkpt><trkpt lat="22.052288" lon="104.666664"><ele>113.3</ele><time>2011-04-28T05:31:59.0000000+00:00</time></trkpt><trkpt lat="22.05204" lon="104.666725"><ele>113.2</ele><time>2011-04-28T05:32:04.0000000+00:00</time></trkpt><trkpt lat="22.051895" lon="104.666763"><ele>114.2</ele><time>2011-04-28T05:32:09.0000000+00:00</time></trkpt><trkpt lat="22.051722" lon="104.666801"><ele>115.7</ele><time>2011-04-28T05:32:14.0000000+00:00</time></trkpt><trkpt lat="22.05162" lon="104.666832"><ele>117.2</ele><time>2011-04-28T05:32:19.0000000+00:00</time></trkpt><trkpt lat="22.051491" lon="104.666885"><ele>118.3</ele><time>2011-04-28T05:32:24.0000000+00:00</time></trkpt><trkpt lat="22.051394" lon="104.666916"><ele>119.3</ele><time>2011-04-28T05:32:29.0000000+00:00</time></trkpt><trkpt lat="22.051306" lon="104.666954"><ele>120.2</ele><time>2011-04-28T05:32:34.0000000+00:00</time></trkpt><trkpt lat="22.051193" lon="104.666992"><ele>120.1</ele><time>2011-04-28T05:32:39.0000000+00:00</time></trkpt><trkpt lat="22.05101" lon="104.667053"><ele>118.7</ele><time>2011-04-28T05:32:44.0000000+00:00</time></trkpt><trkpt lat="22.050924" lon="104.667076"><ele>118.2</ele><time>2011-04-28T05:32:49.0000000+00:00</time></trkpt><trkpt lat="22.050859" lon="104.667091"><ele>118.8</ele><time>2011-04-28T05:32:54.0000000+00:00</time></trkpt><trkpt lat="22.05081" lon="104.667137"><ele>119.5</ele><time>2011-04-28T05:32:59.0000000+00:00</time></trkpt><trkpt lat="22.05077" lon="104.667213"><ele>119.8</ele><time>2011-04-28T05:33:04.0000000+00:00</time></trkpt><trkpt lat="22.050678" lon="104.667336"><ele>119.6</ele><time>2011-04-28T05:33:09.0000000+00:00</time></trkpt><trkpt lat="22.05057" lon="104.667473"><ele>119.5</ele><time>2011-04-28T05:33:14.0000000+00:00</time></trkpt><trkpt lat="22.050499" lon="104.66758"><ele>119.7</ele><time>2011-04-28T05:33:19.0000000+00:00</time></trkpt><trkpt lat="22.050413" lon="104.667694"><ele>120.2</ele><time>2011-04-28T05:33:24.0000000+00:00</time></trkpt><trkpt lat="22.050371" lon="104.667824"><ele>120.3</ele><time>2011-04-28T05:33:29.0000000+00:00</time></trkpt><trkpt lat="22.05035" lon="104.667923"><ele>119.9</ele><time>2011-04-28T05:33:34.0000000+00:00</time></trkpt><trkpt lat="22.050329" lon="104.667976"><ele>120.1</ele><time>2011-04-28T05:33:39.0000000+00:00</time></trkpt><trkpt lat="22.05032" lon="104.66803"><ele>120.4</ele><time>2011-04-28T05:33:44.0000000+00:00</time></trkpt><trkpt lat="22.050312" lon="104.66803"><ele>120.8</ele><time>2011-04-28T05:33:49.0000000+00:00</time></trkpt><trkpt lat="22.050308" lon="104.66803"><ele>120.9</ele><time>2011-04-28T05:33:54.0000000+00:00</time></trkpt><trkpt lat="22.050312" lon="104.66803"><ele>120.9</ele><time>2011-04-28T05:33:59.0000000+00:00</time></trkpt><trkpt lat="22.050308" lon="104.66803"><ele>120.8</ele><time>2011-04-28T05:34:04.0000000+00:00</time></trkpt><trkpt lat="22.050314" lon="104.66803"><ele>120.7</ele><time>2011-04-28T05:34:09.0000000+00:00</time></trkpt><trkpt lat="22.050323" lon="104.66803"><ele>120.7</ele><time>2011-04-28T05:34:14.0000000+00:00</time></trkpt><trkpt lat="22.050329" lon="104.66803"><ele>120.6</ele><time>2011-04-28T05:34:19.0000000+00:00</time></trkpt><trkpt lat="22.050339" lon="104.668007"><ele>120.5</ele><time>2011-04-28T05:34:24.0000000+00:00</time></trkpt><trkpt lat="22.050346" lon="104.667992"><ele>120.5</ele><time>2011-04-28T05:34:29.0000000+00:00</time></trkpt><trkpt lat="22.050354" lon="104.667999"><ele>120.5</ele><time>2011-04-28T05:34:34.0000000+00:00</time></trkpt><trkpt lat="22.050352" lon="104.667999"><ele>120.5</ele><time>2011-04-28T05:34:39.0000000+00:00</time></trkpt><trkpt lat="22.050354" lon="104.668015"><ele>120.5</ele><time>2011-04-28T05:34:44.0000000+00:00</time></trkpt><trkpt lat="22.050358" lon="104.66803"><ele>120.5</ele><time>2011-04-28T05:34:49.0000000+00:00</time></trkpt><trkpt lat="22.050362" lon="104.668045"><ele>120.5</ele><time>2011-04-28T05:34:54.0000000+00:00</time></trkpt><trkpt lat="22.050365" lon="104.668053"><ele>120.5</ele><time>2011-04-28T05:34:59.0000000+00:00</time></trkpt><trkpt lat="22.050375" lon="104.668076"><ele>120.5</ele><time>2011-04-28T05:35:04.0000000+00:00</time></trkpt><trkpt lat="22.050383" lon="104.668091"><ele>120.5</ele><time>2011-04-28T05:35:09.0000000+00:00</time></trkpt><trkpt lat="22.05039" lon="104.668098"><ele>120.5</ele><time>2011-04-28T05:35:14.0000000+00:00</time></trkpt><trkpt lat="22.050402" lon="104.668106"><ele>120.5</ele><time>2011-04-28T05:35:19.0000000+00:00</time></trkpt><trkpt lat="22.050409" lon="104.668121"><ele>120.5</ele><time>2011-04-28T05:35:24.0000000+00:00</time></trkpt><trkpt lat="22.050406" lon="104.668121"><ele>120.5</ele><time>2011-04-28T05:35:29.0000000+00:00</time></trkpt><trkpt lat="22.050402" lon="104.668121"><ele>120.5</ele><time>2011-04-28T05:35:34.0000000+00:00</time></trkpt><trkpt lat="22.050406" lon="104.668121"><ele>120.5</ele><time>2011-04-28T05:35:39.0000000+00:00</time></trkpt><trkpt lat="22.050409" lon="104.668121"><ele>120.5</ele><time>2011-04-28T05:35:44.0000000+00:00</time></trkpt><trkpt lat="22.050425" lon="104.668129"><ele>120.5</ele><time>2011-04-28T05:35:49.0000000+00:00</time></trkpt><trkpt lat="22.050434" lon="104.668137"><ele>120.5</ele><time>2011-04-28T05:35:54.0000000+00:00</time></trkpt><trkpt lat="22.050453" lon="104.668137"><ele>120.5</ele><time>2011-04-28T05:35:59.0000000+00:00</time></trkpt><trkpt lat="22.050463" lon="104.668152"><ele>120.5</ele><time>2011-04-28T05:36:04.0000000+00:00</time></trkpt><trkpt lat="22.05047" lon="104.668159"><ele>120.5</ele><time>2011-04-28T05:36:09.0000000+00:00</time></trkpt><trkpt lat="22.050467" lon="104.668167"><ele>120.5</ele><time>2011-04-28T05:36:14.0000000+00:00</time></trkpt><trkpt lat="22.050459" lon="104.668167"><ele>120.5</ele><time>2011-04-28T05:36:19.0000000+00:00</time></trkpt><trkpt lat="22.050465" lon="104.668175"><ele>120.5</ele><time>2011-04-28T05:36:24.0000000+00:00</time></trkpt><trkpt lat="22.050499" lon="104.668213"><ele>120.6</ele><time>2011-04-28T05:36:29.0000000+00:00</time></trkpt><trkpt lat="22.050526" lon="104.668266"><ele>120.8</ele><time>2011-04-28T05:36:34.0000000+00:00</time></trkpt><trkpt lat="22.050528" lon="104.668282"><ele>121.2</ele><time>2011-04-28T05:36:39.0000000+00:00</time></trkpt><trkpt lat="22.050528" lon="104.668282"><ele>121.4</ele><time>2011-04-28T05:36:44.0000000+00:00</time></trkpt><trkpt lat="22.050526" lon="104.668289"><ele>121.5</ele><time>2011-04-28T05:36:49.0000000+00:00</time></trkpt><trkpt lat="22.050528" lon="104.668289"><ele>121.5</ele><time>2011-04-28T05:36:54.0000000+00:00</time></trkpt><trkpt lat="22.050524" lon="104.668297"><ele>121.2</ele><time>2011-04-28T05:36:59.0000000+00:00</time></trkpt><trkpt lat="22.050497" lon="104.668282"><ele>120.8</ele><time>2011-04-28T05:37:04.0000000+00:00</time></trkpt><trkpt lat="22.050465" lon="104.668236"><ele>119.8</ele><time>2011-04-28T05:37:09.0000000+00:00</time></trkpt><trkpt lat="22.050453" lon="104.668205"><ele>119.6</ele><time>2011-04-28T05:37:14.0000000+00:00</time></trkpt><trkpt lat="22.050451" lon="104.668198"><ele>119.6</ele><time>2011-04-28T05:37:19.0000000+00:00</time></trkpt><trkpt lat="22.050449" lon="104.66819"><ele>119.6</ele><time>2011-04-28T05:37:24.0000000+00:00</time></trkpt><trkpt lat="22.050451" lon="104.66819"><ele>119.6</ele><time>2011-04-28T05:37:29.0000000+00:00</time></trkpt><trkpt lat="22.050459" lon="104.66819"><ele>119.5</ele><time>2011-04-28T05:37:34.0000000+00:00</time></trkpt><trkpt lat="22.050467" lon="104.66819"><ele>119.5</ele><time>2011-04-28T05:37:39.0000000+00:00</time></trkpt><trkpt lat="22.050467" lon="104.66819"><ele>119.5</ele><time>2011-04-28T05:37:44.0000000+00:00</time></trkpt><trkpt lat="22.050468" lon="104.66819"><ele>119.4</ele><time>2011-04-28T05:37:49.0000000+00:00</time></trkpt><trkpt lat="22.050459" lon="104.668213"><ele>119.2</ele><time>2011-04-28T05:37:54.0000000+00:00</time></trkpt><trkpt lat="22.050453" lon="104.668228"><ele>118.7</ele><time>2011-04-28T05:37:59.0000000+00:00</time></trkpt><trkpt lat="22.050457" lon="104.668236"><ele>118.7</ele><time>2011-04-28T05:38:04.0000000+00:00</time></trkpt><trkpt lat="22.050472" lon="104.668251"><ele>117.6</ele><time>2011-04-28T05:38:09.0000000+00:00</time></trkpt><trkpt lat="22.050486" lon="104.668259"><ele>117.5</ele><time>2011-04-28T05:38:14.0000000+00:00</time></trkpt><trkpt lat="22.050499" lon="104.668259"><ele>117.2</ele><time>2011-04-28T05:38:19.0000000+00:00</time></trkpt><trkpt lat="22.050501" lon="104.668259"><ele>117.2</ele><time>2011-04-28T05:38:24.0000000+00:00</time></trkpt><trkpt lat="22.050505" lon="104.668259"><ele>117.2</ele><time>2011-04-28T05:38:29.0000000+00:00</time></trkpt><trkpt lat="22.050512" lon="104.668259"><ele>117.3</ele><time>2011-04-28T05:38:34.0000000+00:00</time></trkpt><trkpt lat="22.05052" lon="104.668259"><ele>117.3</ele><time>2011-04-28T05:38:39.0000000+00:00</time></trkpt><trkpt lat="22.050524" lon="104.668259"><ele>117.3</ele><time>2011-04-28T05:38:44.0000000+00:00</time></trkpt><trkpt lat="22.050526" lon="104.668259"><ele>117.3</ele><time>2011-04-28T05:38:49.0000000+00:00</time></trkpt><trkpt lat="22.050524" lon="104.668259"><ele>117.4</ele><time>2011-04-28T05:38:54.0000000+00:00</time></trkpt><trkpt lat="22.05052" lon="104.668243"><ele>117.9</ele><time>2011-04-28T05:38:59.0000000+00:00</time></trkpt><trkpt lat="22.050512" lon="104.668243"><ele>118.6</ele><time>2011-04-28T05:39:04.0000000+00:00</time></trkpt><trkpt lat="22.050503" lon="104.668236"><ele>119.1</ele><time>2011-04-28T05:39:09.0000000+00:00</time></trkpt><trkpt lat="22.050499" lon="104.668236"><ele>119.8</ele><time>2011-04-28T05:39:14.0000000+00:00</time></trkpt><trkpt lat="22.050508" lon="104.668221"><ele>119.8</ele><time>2011-04-28T05:39:19.0000000+00:00</time></trkpt><trkpt lat="22.050508" lon="104.668198"><ele>119.2</ele><time>2011-04-28T05:39:24.0000000+00:00</time></trkpt><trkpt lat="22.050524" lon="104.668228"><ele>119.1</ele><time>2011-04-28T05:39:29.0000000+00:00</time></trkpt><trkpt lat="22.050522" lon="104.668236"><ele>119.1</ele><time>2011-04-28T05:39:34.0000000+00:00</time></trkpt><trkpt lat="22.050512" lon="104.668228"><ele>119.3</ele><time>2011-04-28T05:39:39.0000000+00:00</time></trkpt><trkpt lat="22.050508" lon="104.668228"><ele>119.4</ele><time>2011-04-28T05:39:44.0000000+00:00</time></trkpt><trkpt lat="22.050508" lon="104.668228"><ele>119.4</ele><time>2011-04-28T05:39:49.0000000+00:00</time></trkpt><trkpt lat="22.050508" lon="104.668228"><ele>119.4</ele><time>2011-04-28T05:39:54.0000000+00:00</time></trkpt><trkpt lat="22.050508" lon="104.668228"><ele>119.5</ele><time>2011-04-28T05:39:59.0000000+00:00</time></trkpt><trkpt lat="22.050508" lon="104.668228"><ele>119.5</ele><time>2011-04-28T05:40:04.0000000+00:00</time></trkpt><trkpt lat="22.050507" lon="104.668228"><ele>119.4</ele><time>2011-04-28T05:40:09.0000000+00:00</time></trkpt><trkpt lat="22.050508" lon="104.668221"><ele>119.4</ele><time>2011-04-28T05:40:14.0000000+00:00</time></trkpt><trkpt lat="22.050508" lon="104.668221"><ele>119.5</ele><time>2011-04-28T05:40:19.0000000+00:00</time></trkpt><trkpt lat="22.05051" lon="104.668221"><ele>119.5</ele><time>2011-04-28T05:40:24.0000000+00:00</time></trkpt><trkpt lat="22.050508" lon="104.668221"><ele>119.5</ele><time>2011-04-28T05:40:29.0000000+00:00</time></trkpt><trkpt lat="22.050508" lon="104.668221"><ele>119.5</ele><time>2011-04-28T05:40:34.0000000+00:00</time></trkpt><trkpt lat="22.050508" lon="104.668221"><ele>119.5</ele><time>2011-04-28T05:40:39.0000000+00:00</time></trkpt><trkpt lat="22.050508" lon="104.668221"><ele>119.4</ele><time>2011-04-28T05:40:44.0000000+00:00</time></trkpt><trkpt lat="22.050508" lon="104.668221"><ele>119.4</ele><time>2011-04-28T05:40:49.0000000+00:00</time></trkpt><trkpt lat="22.05051" lon="104.668221"><ele>119.4</ele><time>2011-04-28T05:40:54.0000000+00:00</time></trkpt><trkpt lat="22.050512" lon="104.668221"><ele>119.5</ele><time>2011-04-28T05:40:59.0000000+00:00</time></trkpt><trkpt lat="22.05052" lon="104.668213"><ele>119.8</ele><time>2011-04-28T05:41:04.0000000+00:00</time></trkpt><trkpt lat="22.050529" lon="104.668213"><ele>120.1</ele><time>2011-04-28T05:41:09.0000000+00:00</time></trkpt><trkpt lat="22.050541" lon="104.668213"><ele>120.5</ele><time>2011-04-28T05:41:14.0000000+00:00</time></trkpt><trkpt lat="22.05055" lon="104.668213"><ele>120.8</ele><time>2011-04-28T05:41:19.0000000+00:00</time></trkpt><trkpt lat="22.050562" lon="104.668205"><ele>121.1</ele><time>2011-04-28T05:41:24.0000000+00:00</time></trkpt><trkpt lat="22.05057" lon="104.668205"><ele>121.3</ele><time>2011-04-28T05:41:29.0000000+00:00</time></trkpt><trkpt lat="22.050571" lon="104.668205"><ele>121.4</ele><time>2011-04-28T05:41:34.0000000+00:00</time></trkpt><trkpt lat="22.05057" lon="104.668198"><ele>121.5</ele><time>2011-04-28T05:41:39.0000000+00:00</time></trkpt><trkpt lat="22.05056" lon="104.66819"><ele>121.6</ele><time>2011-04-28T05:41:44.0000000+00:00</time></trkpt><trkpt lat="22.05055" lon="104.66819"><ele>121.7</ele><time>2011-04-28T05:41:49.0000000+00:00</time></trkpt><trkpt lat="22.050545" lon="104.66819"><ele>121.9</ele><time>2011-04-28T05:41:54.0000000+00:00</time></trkpt><trkpt lat="22.050552" lon="104.66819"><ele>122.1</ele><time>2011-04-28T05:41:59.0000000+00:00</time></trkpt><trkpt lat="22.050562" lon="104.66819"><ele>122.2</ele><time>2011-04-28T05:42:04.0000000+00:00</time></trkpt><trkpt lat="22.05057" lon="104.668182"><ele>122.3</ele><time>2011-04-28T05:42:09.0000000+00:00</time></trkpt><trkpt lat="22.050571" lon="104.668182"><ele>122.4</ele><time>2011-04-28T05:42:14.0000000+00:00</time></trkpt><trkpt lat="22.050571" lon="104.668182"><ele>122.5</ele><time>2011-04-28T05:42:19.0000000+00:00</time></trkpt><trkpt lat="22.05057" lon="104.668182"><ele>122.5</ele><time>2011-04-28T05:42:24.0000000+00:00</time></trkpt><trkpt lat="22.050566" lon="104.668182"><ele>122.6</ele><time>2011-04-28T05:42:29.0000000+00:00</time></trkpt><trkpt lat="22.05056" lon="104.668182"><ele>122.7</ele><time>2011-04-28T05:42:34.0000000+00:00</time></trkpt><trkpt lat="22.05055" lon="104.668182"><ele>122.8</ele><time>2011-04-28T05:42:39.0000000+00:00</time></trkpt><trkpt lat="22.050543" lon="104.66819"><ele>122.8</ele><time>2011-04-28T05:42:44.0000000+00:00</time></trkpt><trkpt lat="22.050537" lon="104.66819"><ele>122.6</ele><time>2011-04-28T05:42:49.0000000+00:00</time></trkpt><trkpt lat="22.050533" lon="104.66819"><ele>122.4</ele><time>2011-04-28T05:42:54.0000000+00:00</time></trkpt><trkpt lat="22.050524" lon="104.66819"><ele>122.0</ele><time>2011-04-28T05:42:59.0000000+00:00</time></trkpt><trkpt lat="22.050503" lon="104.668198"><ele>121.3</ele><time>2011-04-28T05:43:04.0000000+00:00</time></trkpt><trkpt lat="22.050486" lon="104.668198"><ele>120.2</ele><time>2011-04-28T05:43:09.0000000+00:00</time></trkpt><trkpt lat="22.050478" lon="104.668205"><ele>119.7</ele><time>2011-04-28T05:43:14.0000000+00:00</time></trkpt><trkpt lat="22.050476" lon="104.668205"><ele>119.0</ele><time>2011-04-28T05:43:19.0000000+00:00</time></trkpt><trkpt lat="22.050472" lon="104.668205"><ele>118.2</ele><time>2011-04-28T05:43:24.0000000+00:00</time></trkpt><trkpt lat="22.050472" lon="104.668205"><ele>117.4</ele><time>2011-04-28T05:43:29.0000000+00:00</time></trkpt><trkpt lat="22.05047" lon="104.668205"><ele>116.6</ele><time>2011-04-28T05:43:34.0000000+00:00</time></trkpt><trkpt lat="22.05047" lon="104.668205"><ele>115.8</ele><time>2011-04-28T05:43:39.0000000+00:00</time></trkpt><trkpt lat="22.05047" lon="104.668205"><ele>115.0</ele><time>2011-04-28T05:43:44.0000000+00:00</time></trkpt><trkpt lat="22.050468" lon="104.668205"><ele>114.1</ele><time>2011-04-28T05:43:49.0000000+00:00</time></trkpt><trkpt lat="22.050467" lon="104.668198"><ele>113.1</ele><time>2011-04-28T05:43:54.0000000+00:00</time></trkpt><trkpt lat="22.050465" lon="104.668198"><ele>112.1</ele><time>2011-04-28T05:43:59.0000000+00:00</time></trkpt><trkpt lat="22.050461" lon="104.668198"><ele>110.9</ele><time>2011-04-28T05:44:04.0000000+00:00</time></trkpt><trkpt lat="22.050455" lon="104.668198"><ele>109.7</ele><time>2011-04-28T05:44:09.0000000+00:00</time></trkpt><trkpt lat="22.050449" lon="104.668198"><ele>108.2</ele><time>2011-04-28T05:44:14.0000000+00:00</time></trkpt><trkpt lat="22.050446" lon="104.668198"><ele>106.4</ele><time>2011-04-28T05:44:19.0000000+00:00</time></trkpt><trkpt lat="22.050442" lon="104.668198"><ele>104.4</ele><time>2011-04-28T05:44:24.0000000+00:00</time></trkpt><trkpt lat="22.05044" lon="104.66819"><ele>102.2</ele><time>2011-04-28T05:44:29.0000000+00:00</time></trkpt><trkpt lat="22.050442" lon="104.66819"><ele>100.1</ele><time>2011-04-28T05:44:34.0000000+00:00</time></trkpt><trkpt lat="22.050446" lon="104.66819"><ele>98.0</ele><time>2011-04-28T05:44:39.0000000+00:00</time></trkpt><trkpt lat="22.050446" lon="104.668182"><ele>96.0</ele><time>2011-04-28T05:44:44.0000000+00:00</time></trkpt><trkpt lat="22.050449" lon="104.668182"><ele>93.9</ele><time>2011-04-28T05:44:49.0000000+00:00</time></trkpt><trkpt lat="22.050457" lon="104.668182"><ele>91.7</ele><time>2011-04-28T05:44:54.0000000+00:00</time></trkpt><trkpt lat="22.050465" lon="104.668182"><ele>89.5</ele><time>2011-04-28T05:44:59.0000000+00:00</time></trkpt><trkpt lat="22.050468" lon="104.668175"><ele>87.4</ele><time>2011-04-28T05:45:04.0000000+00:00</time></trkpt><trkpt lat="22.050467" lon="104.668175"><ele>85.3</ele><time>2011-04-28T05:45:09.0000000+00:00</time></trkpt><trkpt lat="22.050461" lon="104.668175"><ele>83.4</ele><time>2011-04-28T05:45:14.0000000+00:00</time></trkpt><trkpt lat="22.050453" lon="104.668175"><ele>81.6</ele><time>2011-04-28T05:45:19.0000000+00:00</time></trkpt><trkpt lat="22.050446" lon="104.668175"><ele>79.9</ele><time>2011-04-28T05:45:24.0000000+00:00</time></trkpt><trkpt lat="22.05044" lon="104.668175"><ele>78.2</ele><time>2011-04-28T05:45:29.0000000+00:00</time></trkpt><trkpt lat="22.050434" lon="104.668167"><ele>76.7</ele><time>2011-04-28T05:45:34.0000000+00:00</time></trkpt><trkpt lat="22.050438" lon="104.668167"><ele>75.3</ele><time>2011-04-28T05:45:39.0000000+00:00</time></trkpt><trkpt lat="22.050446" lon="104.668167"><ele>74.0</ele><time>2011-04-28T05:45:44.0000000+00:00</time></trkpt><trkpt lat="22.050453" lon="104.668167"><ele>72.8</ele><time>2011-04-28T05:45:49.0000000+00:00</time></trkpt><trkpt lat="22.050461" lon="104.668167"><ele>71.7</ele><time>2011-04-28T05:45:54.0000000+00:00</time></trkpt><trkpt lat="22.050465" lon="104.668167"><ele>70.6</ele><time>2011-04-28T05:45:59.0000000+00:00</time></trkpt><trkpt lat="22.05047" lon="104.668159"><ele>69.5</ele><time>2011-04-28T05:46:04.0000000+00:00</time></trkpt><trkpt lat="22.05048" lon="104.668159"><ele>68.4</ele><time>2011-04-28T05:46:09.0000000+00:00</time></trkpt><trkpt lat="22.050488" lon="104.668159"><ele>67.5</ele><time>2011-04-28T05:46:14.0000000+00:00</time></trkpt><trkpt lat="22.050495" lon="104.668159"><ele>66.5</ele><time>2011-04-28T05:46:19.0000000+00:00</time></trkpt><trkpt lat="22.050503" lon="104.668152"><ele>65.8</ele><time>2011-04-28T05:46:24.0000000+00:00</time></trkpt><trkpt lat="22.05051" lon="104.668152"><ele>65.2</ele><time>2011-04-28T05:46:29.0000000+00:00</time></trkpt><trkpt lat="22.050514" lon="104.668152"><ele>64.7</ele><time>2011-04-28T05:46:34.0000000+00:00</time></trkpt><trkpt lat="22.050516" lon="104.668152"><ele>64.4</ele><time>2011-04-28T05:46:39.0000000+00:00</time></trkpt><trkpt lat="22.05052" lon="104.668144"><ele>64.3</ele><time>2011-04-28T05:46:44.0000000+00:00</time></trkpt><trkpt lat="22.050524" lon="104.668144"><ele>64.6</ele><time>2011-04-28T05:46:49.0000000+00:00</time></trkpt><trkpt lat="22.050526" lon="104.668144"><ele>64.9</ele><time>2011-04-28T05:46:54.0000000+00:00</time></trkpt><trkpt lat="22.050528" lon="104.668144"><ele>65.5</ele><time>2011-04-28T05:46:59.0000000+00:00</time></trkpt><trkpt lat="22.050529" lon="104.668144"><ele>66.1</ele><time>2011-04-28T05:47:04.0000000+00:00</time></trkpt><trkpt lat="22.050533" lon="104.668152"><ele>66.8</ele><time>2011-04-28T05:47:09.0000000+00:00</time></trkpt><trkpt lat="22.050535" lon="104.668152"><ele>67.4</ele><time>2011-04-28T05:47:14.0000000+00:00</time></trkpt><trkpt lat="22.050535" lon="104.668152"><ele>68.1</ele><time>2011-04-28T05:47:19.0000000+00:00</time></trkpt><trkpt lat="22.050537" lon="104.668152"><ele>68.8</ele><time>2011-04-28T05:47:24.0000000+00:00</time></trkpt><trkpt lat="22.050541" lon="104.668152"><ele>69.5</ele><time>2011-04-28T05:47:29.0000000+00:00</time></trkpt><trkpt lat="22.050547" lon="104.668144"><ele>70.3</ele><time>2011-04-28T05:47:34.0000000+00:00</time></trkpt><trkpt lat="22.050554" lon="104.668144"><ele>71.0</ele><time>2011-04-28T05:47:39.0000000+00:00</time></trkpt><trkpt lat="22.050562" lon="104.668144"><ele>71.7</ele><time>2011-04-28T05:47:44.0000000+00:00</time></trkpt><trkpt lat="22.050566" lon="104.668137"><ele>72.5</ele><time>2011-04-28T05:47:49.0000000+00:00</time></trkpt><trkpt lat="22.050568" lon="104.668137"><ele>73.2</ele><time>2011-04-28T05:47:54.0000000+00:00</time></trkpt><trkpt lat="22.050571" lon="104.668137"><ele>74.0</ele><time>2011-04-28T05:47:59.0000000+00:00</time></trkpt><trkpt lat="22.050573" lon="104.668137"><ele>74.8</ele><time>2011-04-28T05:48:04.0000000+00:00</time></trkpt><trkpt lat="22.050573" lon="104.668137"><ele>75.7</ele><time>2011-04-28T05:48:09.0000000+00:00</time></trkpt><trkpt lat="22.050571" lon="104.668129"><ele>76.5</ele><time>2011-04-28T05:48:14.0000000+00:00</time></trkpt><trkpt lat="22.050568" lon="104.668129"><ele>77.3</ele><time>2011-04-28T05:48:19.0000000+00:00</time></trkpt><trkpt lat="22.05056" lon="104.668129"><ele>78.2</ele><time>2011-04-28T05:48:24.0000000+00:00</time></trkpt><trkpt lat="22.050552" lon="104.668129"><ele>79.0</ele><time>2011-04-28T05:48:29.0000000+00:00</time></trkpt><trkpt lat="22.050545" lon="104.668129"><ele>79.8</ele><time>2011-04-28T05:48:34.0000000+00:00</time></trkpt><trkpt lat="22.050535" lon="104.668129"><ele>80.7</ele><time>2011-04-28T05:48:39.0000000+00:00</time></trkpt><trkpt lat="22.050524" lon="104.668129"><ele>81.6</ele><time>2011-04-28T05:48:44.0000000+00:00</time></trkpt><trkpt lat="22.050514" lon="104.668129"><ele>82.3</ele><time>2011-04-28T05:48:49.0000000+00:00</time></trkpt><trkpt lat="22.050508" lon="104.668129"><ele>83.0</ele><time>2011-04-28T05:48:54.0000000+00:00</time></trkpt><trkpt lat="22.05051" lon="104.668129"><ele>83.7</ele><time>2011-04-28T05:48:59.0000000+00:00</time></trkpt><trkpt lat="22.050508" lon="104.668129"><ele>84.4</ele><time>2011-04-28T05:49:04.0000000+00:00</time></trkpt><trkpt lat="22.050505" lon="104.668121"><ele>85.1</ele><time>2011-04-28T05:49:09.0000000+00:00</time></trkpt><trkpt lat="22.050503" lon="104.668121"><ele>85.8</ele><time>2011-04-28T05:49:14.0000000+00:00</time></trkpt><trkpt lat="22.050503" lon="104.668121"><ele>86.6</ele><time>2011-04-28T05:49:19.0000000+00:00</time></trkpt><trkpt lat="22.050507" lon="104.668121"><ele>87.3</ele><time>2011-04-28T05:49:24.0000000+00:00</time></trkpt><trkpt lat="22.05051" lon="104.668121"><ele>88.0</ele><time>2011-04-28T05:49:29.0000000+00:00</time></trkpt><trkpt lat="22.05051" lon="104.668121"><ele>88.6</ele><time>2011-04-28T05:49:34.0000000+00:00</time></trkpt><trkpt lat="22.050507" lon="104.668121"><ele>89.0</ele><time>2011-04-28T05:49:39.0000000+00:00</time></trkpt><trkpt lat="22.050501" lon="104.668114"><ele>89.5</ele><time>2011-04-28T05:49:44.0000000+00:00</time></trkpt><trkpt lat="22.050495" lon="104.668114"><ele>90.0</ele><time>2011-04-28T05:49:49.0000000+00:00</time></trkpt><trkpt lat="22.050491" lon="104.668114"><ele>90.5</ele><time>2011-04-28T05:49:54.0000000+00:00</time></trkpt><trkpt lat="22.050488" lon="104.668106"><ele>91.0</ele><time>2011-04-28T05:49:59.0000000+00:00</time></trkpt><trkpt lat="22.050486" lon="104.668098"><ele>91.5</ele><time>2011-04-28T05:50:04.0000000+00:00</time></trkpt><trkpt lat="22.050486" lon="104.668098"><ele>91.9</ele><time>2011-04-28T05:50:09.0000000+00:00</time></trkpt><trkpt lat="22.050482" lon="104.668091"><ele>92.4</ele><time>2011-04-28T05:50:14.0000000+00:00</time></trkpt><trkpt lat="22.05048" lon="104.668083"><ele>92.8</ele><time>2011-04-28T05:50:19.0000000+00:00</time></trkpt><trkpt lat="22.05048" lon="104.668076"><ele>93.3</ele><time>2011-04-28T05:50:24.0000000+00:00</time></trkpt><trkpt lat="22.05048" lon="104.668068"><ele>93.8</ele><time>2011-04-28T05:50:29.0000000+00:00</time></trkpt><trkpt lat="22.05048" lon="104.66806"><ele>94.2</ele><time>2011-04-28T05:50:34.0000000+00:00</time></trkpt><trkpt lat="22.050484" lon="104.66806"><ele>94.7</ele><time>2011-04-28T05:50:39.0000000+00:00</time></trkpt><trkpt lat="22.050489" lon="104.668053"><ele>95.1</ele><time>2011-04-28T05:50:44.0000000+00:00</time></trkpt><trkpt lat="22.050495" lon="104.668053"><ele>95.6</ele><time>2011-04-28T05:50:49.0000000+00:00</time></trkpt><trkpt lat="22.050499" lon="104.668053"><ele>96.0</ele><time>2011-04-28T05:50:54.0000000+00:00</time></trkpt><trkpt lat="22.050497" lon="104.668053"><ele>96.5</ele><time>2011-04-28T05:50:59.0000000+00:00</time></trkpt><trkpt lat="22.050495" lon="104.668045"><ele>96.9</ele><time>2011-04-28T05:51:04.0000000+00:00</time></trkpt><trkpt lat="22.050493" lon="104.668045"><ele>97.4</ele><time>2011-04-28T05:51:09.0000000+00:00</time></trkpt><trkpt lat="22.050493" lon="104.668045"><ele>97.8</ele><time>2011-04-28T05:51:14.0000000+00:00</time></trkpt><trkpt lat="22.050491" lon="104.668045"><ele>98.2</ele><time>2011-04-28T05:51:19.0000000+00:00</time></trkpt><trkpt lat="22.050491" lon="104.668037"><ele>98.7</ele><time>2011-04-28T05:51:24.0000000+00:00</time></trkpt><trkpt lat="22.050491" lon="104.668037"><ele>99.1</ele><time>2011-04-28T05:51:29.0000000+00:00</time></trkpt><trkpt lat="22.050493" lon="104.668037"><ele>99.6</ele><time>2011-04-28T05:51:34.0000000+00:00</time></trkpt><trkpt lat="22.050495" lon="104.66803"><ele>100.0</ele><time>2011-04-28T05:51:39.0000000+00:00</time></trkpt><trkpt lat="22.050495" lon="104.66803"><ele>100.4</ele><time>2011-04-28T05:51:44.0000000+00:00</time></trkpt><trkpt lat="22.050495" lon="104.66803"><ele>100.8</ele><time>2011-04-28T05:51:49.0000000+00:00</time></trkpt><trkpt lat="22.050495" lon="104.66803"><ele>101.2</ele><time>2011-04-28T05:51:54.0000000+00:00</time></trkpt><trkpt lat="22.050495" lon="104.66803"><ele>101.5</ele><time>2011-04-28T05:51:59.0000000+00:00</time></trkpt><trkpt lat="22.050493" lon="104.66803"><ele>101.8</ele><time>2011-04-28T05:52:04.0000000+00:00</time></trkpt><trkpt lat="22.050489" lon="104.668022"><ele>102.1</ele><time>2011-04-28T05:52:09.0000000+00:00</time></trkpt><trkpt lat="22.050486" lon="104.668022"><ele>102.3</ele><time>2011-04-28T05:52:14.0000000+00:00</time></trkpt><trkpt lat="22.050482" lon="104.668015"><ele>102.4</ele><time>2011-04-28T05:52:19.0000000+00:00</time></trkpt><trkpt lat="22.050478" lon="104.668015"><ele>102.4</ele><time>2011-04-28T05:52:24.0000000+00:00</time></trkpt><trkpt lat="22.050474" lon="104.668015"><ele>102.4</ele><time>2011-04-28T05:52:29.0000000+00:00</time></trkpt><trkpt lat="22.050474" lon="104.668015"><ele>102.2</ele><time>2011-04-28T05:52:34.0000000+00:00</time></trkpt><trkpt lat="22.050472" lon="104.668015"><ele>102.1</ele><time>2011-04-28T05:52:39.0000000+00:00</time></trkpt><trkpt lat="22.05047" lon="104.668007"><ele>102.0</ele><time>2011-04-28T05:52:44.0000000+00:00</time></trkpt><trkpt lat="22.050468" lon="104.668007"><ele>101.9</ele><time>2011-04-28T05:52:49.0000000+00:00</time></trkpt><trkpt lat="22.050468" lon="104.668007"><ele>101.8</ele><time>2011-04-28T05:52:54.0000000+00:00</time></trkpt><trkpt lat="22.050467" lon="104.668007"><ele>101.7</ele><time>2011-04-28T05:52:59.0000000+00:00</time></trkpt><trkpt lat="22.050467" lon="104.668015"><ele>101.6</ele><time>2011-04-28T05:53:04.0000000+00:00</time></trkpt><trkpt lat="22.050467" lon="104.668015"><ele>101.2</ele><time>2011-04-28T05:53:09.0000000+00:00</time></trkpt><trkpt lat="22.050468" lon="104.668015"><ele>100.8</ele><time>2011-04-28T05:53:14.0000000+00:00</time></trkpt><trkpt lat="22.050472" lon="104.668022"><ele>100.4</ele><time>2011-04-28T05:53:19.0000000+00:00</time></trkpt><trkpt lat="22.050476" lon="104.668022"><ele>100.1</ele><time>2011-04-28T05:53:24.0000000+00:00</time></trkpt><trkpt lat="22.050486" lon="104.668045"><ele>99.7</ele><time>2011-04-28T05:53:29.0000000+00:00</time></trkpt><trkpt lat="22.050486" lon="104.668076"><ele>98.8</ele><time>2011-04-28T05:53:34.0000000+00:00</time></trkpt><trkpt lat="22.050488" lon="104.668083"><ele>98.4</ele><time>2011-04-28T05:53:39.0000000+00:00</time></trkpt><trkpt lat="22.050493" lon="104.668083"><ele>98.1</ele><time>2011-04-28T05:53:44.0000000+00:00</time></trkpt><trkpt lat="22.050495" lon="104.668091"><ele>97.8</ele><time>2011-04-28T05:53:49.0000000+00:00</time></trkpt><trkpt lat="22.050499" lon="104.668091"><ele>97.5</ele><time>2011-04-28T05:53:54.0000000+00:00</time></trkpt><trkpt lat="22.050503" lon="104.668098"><ele>97.3</ele><time>2011-04-28T05:53:59.0000000+00:00</time></trkpt><trkpt lat="22.050505" lon="104.668098"><ele>97.1</ele><time>2011-04-28T05:54:04.0000000+00:00</time></trkpt><trkpt lat="22.050507" lon="104.668106"><ele>96.8</ele><time>2011-04-28T05:54:09.0000000+00:00</time></trkpt><trkpt lat="22.050508" lon="104.668106"><ele>96.6</ele><time>2011-04-28T05:54:14.0000000+00:00</time></trkpt><trkpt lat="22.050514" lon="104.668114"><ele>96.4</ele><time>2011-04-28T05:54:19.0000000+00:00</time></trkpt><trkpt lat="22.05052" lon="104.668121"><ele>96.2</ele><time>2011-04-28T05:54:24.0000000+00:00</time></trkpt><trkpt lat="22.050552" lon="104.668175"><ele>97.1</ele><time>2011-04-28T05:54:29.0000000+00:00</time></trkpt><trkpt lat="22.050558" lon="104.668213"><ele>98.1</ele><time>2011-04-28T05:54:34.0000000+00:00</time></trkpt><trkpt lat="22.050566" lon="104.668243"><ele>99.8</ele><time>2011-04-28T05:54:39.0000000+00:00</time></trkpt><trkpt lat="22.050571" lon="104.668259"><ele>101.0</ele><time>2011-04-28T05:54:44.0000000+00:00</time></trkpt><trkpt lat="22.050573" lon="104.668266"><ele>101.0</ele><time>2011-04-28T05:54:49.0000000+00:00</time></trkpt><trkpt lat="22.050579" lon="104.668274"><ele>100.8</ele><time>2011-04-28T05:54:54.0000000+00:00</time></trkpt><trkpt lat="22.050585" lon="104.668282"><ele>100.7</ele><time>2011-04-28T05:54:59.0000000+00:00</time></trkpt><trkpt lat="22.050611" lon="104.66832"><ele>102.0</ele><time>2011-04-28T05:55:04.0000000+00:00</time></trkpt><trkpt lat="22.050631" lon="104.668343"><ele>104.4</ele><time>2011-04-28T05:55:09.0000000+00:00</time></trkpt><trkpt lat="22.050648" lon="104.668335"><ele>106.1</ele><time>2011-04-28T05:55:14.0000000+00:00</time></trkpt><trkpt lat="22.050665" lon="104.668343"><ele>108.1</ele><time>2011-04-28T05:55:19.0000000+00:00</time></trkpt><trkpt lat="22.050671" lon="104.66835"><ele>108.3</ele><time>2011-04-28T05:55:24.0000000+00:00</time></trkpt><trkpt lat="22.050674" lon="104.66835"><ele>108.4</ele><time>2011-04-28T05:55:29.0000000+00:00</time></trkpt><trkpt lat="22.050678" lon="104.668358"><ele>108.6</ele><time>2011-04-28T05:55:34.0000000+00:00</time></trkpt><trkpt lat="22.050682" lon="104.668358"><ele>108.8</ele><time>2011-04-28T05:55:39.0000000+00:00</time></trkpt><trkpt lat="22.050686" lon="104.668365"><ele>109.0</ele><time>2011-04-28T05:55:44.0000000+00:00</time></trkpt><trkpt lat="22.050688" lon="104.668365"><ele>109.3</ele><time>2011-04-28T05:55:49.0000000+00:00</time></trkpt><trkpt lat="22.05069" lon="104.668373"><ele>109.5</ele><time>2011-04-28T05:55:54.0000000+00:00</time></trkpt><trkpt lat="22.050692" lon="104.668373"><ele>109.8</ele><time>2011-04-28T05:55:59.0000000+00:00</time></trkpt><trkpt lat="22.050697" lon="104.668381"><ele>110.1</ele><time>2011-04-28T05:56:04.0000000+00:00</time></trkpt><trkpt lat="22.050697" lon="104.668381"><ele>110.5</ele><time>2011-04-28T05:56:09.0000000+00:00</time></trkpt><trkpt lat="22.050695" lon="104.668373"><ele>111.0</ele><time>2011-04-28T05:56:14.0000000+00:00</time></trkpt><trkpt lat="22.05069" lon="104.668365"><ele>111.4</ele><time>2011-04-28T05:56:19.0000000+00:00</time></trkpt><trkpt lat="22.050684" lon="104.668365"><ele>111.9</ele><time>2011-04-28T05:56:24.0000000+00:00</time></trkpt><trkpt lat="22.05068" lon="104.668358"><ele>112.4</ele><time>2011-04-28T05:56:29.0000000+00:00</time></trkpt><trkpt lat="22.050682" lon="104.668358"><ele>113.0</ele><time>2011-04-28T05:56:34.0000000+00:00</time></trkpt><trkpt lat="22.050688" lon="104.668365"><ele>113.7</ele><time>2011-04-28T05:56:39.0000000+00:00</time></trkpt><trkpt lat="22.05069" lon="104.668365"><ele>114.4</ele><time>2011-04-28T05:56:44.0000000+00:00</time></trkpt><trkpt lat="22.05069" lon="104.668365"><ele>115.0</ele><time>2011-04-28T05:56:49.0000000+00:00</time></trkpt><trkpt lat="22.050684" lon="104.668358"><ele>115.7</ele><time>2011-04-28T05:56:54.0000000+00:00</time></trkpt><trkpt lat="22.050678" lon="104.66835"><ele>116.5</ele><time>2011-04-28T05:56:59.0000000+00:00</time></trkpt><trkpt lat="22.050674" lon="104.668343"><ele>117.2</ele><time>2011-04-28T05:57:04.0000000+00:00</time></trkpt><trkpt lat="22.050674" lon="104.668343"><ele>118.1</ele><time>2011-04-28T05:57:09.0000000+00:00</time></trkpt><trkpt lat="22.050673" lon="104.668343"><ele>119.0</ele><time>2011-04-28T05:57:14.0000000+00:00</time></trkpt><trkpt lat="22.050674" lon="104.668343"><ele>120.0</ele><time>2011-04-28T05:57:19.0000000+00:00</time></trkpt><trkpt lat="22.05068" lon="104.668343"><ele>121.1</ele><time>2011-04-28T05:57:24.0000000+00:00</time></trkpt><trkpt lat="22.050682" lon="104.66835"><ele>122.2</ele><time>2011-04-28T05:57:29.0000000+00:00</time></trkpt><trkpt lat="22.050686" lon="104.668358"><ele>123.5</ele><time>2011-04-28T05:57:34.0000000+00:00</time></trkpt><trkpt lat="22.050692" lon="104.668358"><ele>125.1</ele><time>2011-04-28T05:57:39.0000000+00:00</time></trkpt><trkpt lat="22.050695" lon="104.668365"><ele>126.6</ele><time>2011-04-28T05:57:44.0000000+00:00</time></trkpt><trkpt lat="22.050697" lon="104.668365"><ele>128.0</ele><time>2011-04-28T05:57:49.0000000+00:00</time></trkpt><trkpt lat="22.050697" lon="104.668365"><ele>129.0</ele><time>2011-04-28T05:57:54.0000000+00:00</time></trkpt><trkpt lat="22.050697" lon="104.668365"><ele>129.8</ele><time>2011-04-28T05:57:59.0000000+00:00</time></trkpt><trkpt lat="22.050695" lon="104.668358"><ele>130.5</ele><time>2011-04-28T05:58:04.0000000+00:00</time></trkpt><trkpt lat="22.050692" lon="104.66835"><ele>131.3</ele><time>2011-04-28T05:58:09.0000000+00:00</time></trkpt><trkpt lat="22.050692" lon="104.668343"><ele>132.0</ele><time>2011-04-28T05:58:14.0000000+00:00</time></trkpt><trkpt lat="22.050692" lon="104.668343"><ele>132.7</ele><time>2011-04-28T05:58:19.0000000+00:00</time></trkpt><trkpt lat="22.050692" lon="104.668343"><ele>133.4</ele><time>2011-04-28T05:58:24.0000000+00:00</time></trkpt><trkpt lat="22.05069" lon="104.668343"><ele>134.1</ele><time>2011-04-28T05:58:29.0000000+00:00</time></trkpt><trkpt lat="22.050692" lon="104.668343"><ele>134.7</ele><time>2011-04-28T05:58:34.0000000+00:00</time></trkpt><trkpt lat="22.05069" lon="104.668343"><ele>135.2</ele><time>2011-04-28T05:58:39.0000000+00:00</time></trkpt><trkpt lat="22.05069" lon="104.668335"><ele>135.7</ele><time>2011-04-28T05:58:44.0000000+00:00</time></trkpt><trkpt lat="22.05069" lon="104.668335"><ele>136.1</ele><time>2011-04-28T05:58:49.0000000+00:00</time></trkpt><trkpt lat="22.05069" lon="104.668327"><ele>136.5</ele><time>2011-04-28T05:58:54.0000000+00:00</time></trkpt><trkpt lat="22.050688" lon="104.668327"><ele>137.0</ele><time>2011-04-28T05:58:59.0000000+00:00</time></trkpt><trkpt lat="22.050686" lon="104.668327"><ele>137.4</ele><time>2011-04-28T05:59:04.0000000+00:00</time></trkpt><trkpt lat="22.050684" lon="104.66832"><ele>137.7</ele><time>2011-04-28T05:59:09.0000000+00:00</time></trkpt><trkpt lat="22.05068" lon="104.66832"><ele>138.0</ele><time>2011-04-28T05:59:14.0000000+00:00</time></trkpt><trkpt lat="22.050678" lon="104.668312"><ele>138.3</ele><time>2011-04-28T05:59:19.0000000+00:00</time></trkpt><trkpt lat="22.050674" lon="104.668312"><ele>138.6</ele><time>2011-04-28T05:59:24.0000000+00:00</time></trkpt><trkpt lat="22.050673" lon="104.668312"><ele>138.9</ele><time>2011-04-28T05:59:29.0000000+00:00</time></trkpt><trkpt lat="22.050669" lon="104.668297"><ele>138.9</ele><time>2011-04-28T05:59:34.0000000+00:00</time></trkpt><trkpt lat="22.050665" lon="104.668289"><ele>138.8</ele><time>2011-04-28T05:59:39.0000000+00:00</time></trkpt><trkpt lat="22.050661" lon="104.668282"><ele>138.8</ele><time>2011-04-28T05:59:44.0000000+00:00</time></trkpt><trkpt lat="22.050657" lon="104.668266"><ele>138.8</ele><time>2011-04-28T05:59:49.0000000+00:00</time></trkpt><trkpt lat="22.050655" lon="104.668259"><ele>138.7</ele><time>2011-04-28T05:59:54.0000000+00:00</time></trkpt><trkpt lat="22.050653" lon="104.668251"><ele>138.6</ele><time>2011-04-28T05:59:59.0000000+00:00</time></trkpt><trkpt lat="22.050652" lon="104.668251"><ele>138.6</ele><time>2011-04-28T06:00:04.0000000+00:00</time></trkpt><trkpt lat="22.05065" lon="104.668243"><ele>138.5</ele><time>2011-04-28T06:00:09.0000000+00:00</time></trkpt><trkpt lat="22.050646" lon="104.668243"><ele>138.3</ele><time>2011-04-28T06:00:14.0000000+00:00</time></trkpt><trkpt lat="22.05064" lon="104.668236"><ele>138.1</ele><time>2011-04-28T06:00:19.0000000+00:00</time></trkpt><trkpt lat="22.050634" lon="104.668236"><ele>138.0</ele><time>2011-04-28T06:00:24.0000000+00:00</time></trkpt><trkpt lat="22.050629" lon="104.668221"><ele>137.9</ele><time>2011-04-28T06:00:29.0000000+00:00</time></trkpt><trkpt lat="22.050625" lon="104.668213"><ele>137.7</ele><time>2011-04-28T06:00:34.0000000+00:00</time></trkpt><trkpt lat="22.050625" lon="104.668205"><ele>137.4</ele><time>2011-04-28T06:00:39.0000000+00:00</time></trkpt><trkpt lat="22.050627" lon="104.668205"><ele>137.0</ele><time>2011-04-28T06:00:44.0000000+00:00</time></trkpt><trkpt lat="22.050625" lon="104.668198"><ele>136.6</ele><time>2011-04-28T06:00:49.0000000+00:00</time></trkpt><trkpt lat="22.050623" lon="104.66819"><ele>136.2</ele><time>2011-04-28T06:00:54.0000000+00:00</time></trkpt><trkpt lat="22.050623" lon="104.66819"><ele>135.7</ele><time>2011-04-28T06:00:59.0000000+00:00</time></trkpt><trkpt lat="22.050619" lon="104.66819"><ele>134.8</ele><time>2011-04-28T06:01:04.0000000+00:00</time></trkpt><trkpt lat="22.050617" lon="104.668182"><ele>133.6</ele><time>2011-04-28T06:01:09.0000000+00:00</time></trkpt><trkpt lat="22.050613" lon="104.668182"><ele>132.3</ele><time>2011-04-28T06:01:14.0000000+00:00</time></trkpt><trkpt lat="22.05061" lon="104.668175"><ele>130.8</ele><time>2011-04-28T06:01:19.0000000+00:00</time></trkpt><trkpt lat="22.050608" lon="104.668175"><ele>129.3</ele><time>2011-04-28T06:01:24.0000000+00:00</time></trkpt><trkpt lat="22.050606" lon="104.668167"><ele>127.6</ele><time>2011-04-28T06:01:29.0000000+00:00</time></trkpt><trkpt lat="22.050606" lon="104.668167"><ele>125.8</ele><time>2011-04-28T06:01:34.0000000+00:00</time></trkpt><trkpt lat="22.050602" lon="104.668159"><ele>123.9</ele><time>2011-04-28T06:01:39.0000000+00:00</time></trkpt><trkpt lat="22.050598" lon="104.668159"><ele>122.2</ele><time>2011-04-28T06:01:44.0000000+00:00</time></trkpt><trkpt lat="22.050592" lon="104.668159"><ele>120.5</ele><time>2011-04-28T06:01:49.0000000+00:00</time></trkpt><trkpt lat="22.050589" lon="104.668159"><ele>118.9</ele><time>2011-04-28T06:01:54.0000000+00:00</time></trkpt><trkpt lat="22.050589" lon="104.668152"><ele>117.7</ele><time>2011-04-28T06:01:59.0000000+00:00</time></trkpt><trkpt lat="22.050587" lon="104.668152"><ele>116.6</ele><time>2011-04-28T06:02:04.0000000+00:00</time></trkpt><trkpt lat="22.050587" lon="104.668152"><ele>115.5</ele><time>2011-04-28T06:02:09.0000000+00:00</time></trkpt><trkpt lat="22.050585" lon="104.668152"><ele>114.7</ele><time>2011-04-28T06:02:14.0000000+00:00</time></trkpt><trkpt lat="22.050583" lon="104.668152"><ele>113.7</ele><time>2011-04-28T06:02:19.0000000+00:00</time></trkpt><trkpt lat="22.050579" lon="104.668144"><ele>112.5</ele><time>2011-04-28T06:02:24.0000000+00:00</time></trkpt><trkpt lat="22.050575" lon="104.668144"><ele>111.1</ele><time>2011-04-28T06:02:29.0000000+00:00</time></trkpt><trkpt lat="22.050575" lon="104.668144"><ele>109.8</ele><time>2011-04-28T06:02:34.0000000+00:00</time></trkpt><trkpt lat="22.050575" lon="104.668144"><ele>108.6</ele><time>2011-04-28T06:02:39.0000000+00:00</time></trkpt><trkpt lat="22.050575" lon="104.668144"><ele>107.2</ele><time>2011-04-28T06:02:44.0000000+00:00</time></trkpt><trkpt lat="22.050571" lon="104.668137"><ele>105.6</ele><time>2011-04-28T06:02:49.0000000+00:00</time></trkpt><trkpt lat="22.050568" lon="104.668129"><ele>104.1</ele><time>2011-04-28T06:02:54.0000000+00:00</time></trkpt><trkpt lat="22.050566" lon="104.668129"><ele>102.7</ele><time>2011-04-28T06:02:59.0000000+00:00</time></trkpt><trkpt lat="22.050562" lon="104.668121"><ele>101.4</ele><time>2011-04-28T06:03:04.0000000+00:00</time></trkpt><trkpt lat="22.05056" lon="104.668114"><ele>100.3</ele><time>2011-04-28T06:03:09.0000000+00:00</time></trkpt><trkpt lat="22.05056" lon="104.668098"><ele>99.2</ele><time>2011-04-28T06:03:14.0000000+00:00</time></trkpt><trkpt lat="22.050562" lon="104.668091"><ele>98.2</ele><time>2011-04-28T06:03:19.0000000+00:00</time></trkpt><trkpt lat="22.050564" lon="104.668083"><ele>97.1</ele><time>2011-04-28T06:03:24.0000000+00:00</time></trkpt><trkpt lat="22.05057" lon="104.668068"><ele>96.2</ele><time>2011-04-28T06:03:29.0000000+00:00</time></trkpt><trkpt lat="22.050575" lon="104.668068"><ele>95.3</ele><time>2011-04-28T06:03:34.0000000+00:00</time></trkpt><trkpt lat="22.050583" lon="104.668076"><ele>94.7</ele><time>2011-04-28T06:03:39.0000000+00:00</time></trkpt><trkpt lat="22.050589" lon="104.668083"><ele>94.1</ele><time>2011-04-28T06:03:44.0000000+00:00</time></trkpt><trkpt lat="22.050591" lon="104.668091"><ele>93.4</ele><time>2011-04-28T06:03:49.0000000+00:00</time></trkpt><trkpt lat="22.050587" lon="104.668098"><ele>92.8</ele><time>2011-04-28T06:03:54.0000000+00:00</time></trkpt><trkpt lat="22.050581" lon="104.668098"><ele>92.1</ele><time>2011-04-28T06:03:59.0000000+00:00</time></trkpt><trkpt lat="22.050579" lon="104.668098"><ele>91.8</ele><time>2011-04-28T06:04:04.0000000+00:00</time></trkpt><trkpt lat="22.050579" lon="104.668098"><ele>91.7</ele><time>2011-04-28T06:04:09.0000000+00:00</time></trkpt><trkpt lat="22.050579" lon="104.668098"><ele>91.7</ele><time>2011-04-28T06:04:14.0000000+00:00</time></trkpt><trkpt lat="22.050579" lon="104.668098"><ele>91.7</ele><time>2011-04-28T06:04:19.0000000+00:00</time></trkpt><trkpt lat="22.050579" lon="104.668098"><ele>91.7</ele><time>2011-04-28T06:04:24.0000000+00:00</time></trkpt><trkpt lat="22.050577" lon="104.668098"><ele>91.7</ele><time>2011-04-28T06:04:29.0000000+00:00</time></trkpt><trkpt lat="22.050575" lon="104.668091"><ele>91.7</ele><time>2011-04-28T06:04:34.0000000+00:00</time></trkpt><trkpt lat="22.050571" lon="104.668083"><ele>91.8</ele><time>2011-04-28T06:04:39.0000000+00:00</time></trkpt><trkpt lat="22.050566" lon="104.668068"><ele>91.8</ele><time>2011-04-28T06:04:44.0000000+00:00</time></trkpt><trkpt lat="22.050558" lon="104.66806"><ele>91.9</ele><time>2011-04-28T06:04:49.0000000+00:00</time></trkpt><trkpt lat="22.050549" lon="104.66806"><ele>92.0</ele><time>2011-04-28T06:04:54.0000000+00:00</time></trkpt><trkpt lat="22.050541" lon="104.66806"><ele>92.0</ele><time>2011-04-28T06:04:59.0000000+00:00</time></trkpt><trkpt lat="22.050535" lon="104.66806"><ele>92.0</ele><time>2011-04-28T06:05:04.0000000+00:00</time></trkpt><trkpt lat="22.050531" lon="104.66806"><ele>92.0</ele><time>2011-04-28T06:05:09.0000000+00:00</time></trkpt><trkpt lat="22.050528" lon="104.668053"><ele>92.0</ele><time>2011-04-28T06:05:14.0000000+00:00</time></trkpt><trkpt lat="22.050524" lon="104.668045"><ele>92.0</ele><time>2011-04-28T06:05:19.0000000+00:00</time></trkpt><trkpt lat="22.05052" lon="104.668045"><ele>92.0</ele><time>2011-04-28T06:05:24.0000000+00:00</time></trkpt><trkpt lat="22.05052" lon="104.668045"><ele>92.2</ele><time>2011-04-28T06:05:29.0000000+00:00</time></trkpt><trkpt lat="22.05052" lon="104.668045"><ele>92.4</ele><time>2011-04-28T06:05:34.0000000+00:00</time></trkpt><trkpt lat="22.050522" lon="104.668045"><ele>92.7</ele><time>2011-04-28T06:05:39.0000000+00:00</time></trkpt><trkpt lat="22.050522" lon="104.668037"><ele>92.9</ele><time>2011-04-28T06:05:44.0000000+00:00</time></trkpt><trkpt lat="22.050522" lon="104.668037"><ele>93.2</ele><time>2011-04-28T06:05:49.0000000+00:00</time></trkpt><trkpt lat="22.050524" lon="104.668045"><ele>93.5</ele><time>2011-04-28T06:05:54.0000000+00:00</time></trkpt><trkpt lat="22.050526" lon="104.668045"><ele>93.7</ele><time>2011-04-28T06:05:59.0000000+00:00</time></trkpt><trkpt lat="22.050526" lon="104.668045"><ele>93.8</ele><time>2011-04-28T06:06:04.0000000+00:00</time></trkpt><trkpt lat="22.050528" lon="104.668037"><ele>93.6</ele><time>2011-04-28T06:06:09.0000000+00:00</time></trkpt><trkpt lat="22.050526" lon="104.668037"><ele>93.0</ele><time>2011-04-28T06:06:14.0000000+00:00</time></trkpt><trkpt lat="22.050524" lon="104.668037"><ele>92.3</ele><time>2011-04-28T06:06:19.0000000+00:00</time></trkpt><trkpt lat="22.050522" lon="104.668037"><ele>91.5</ele><time>2011-04-28T06:06:24.0000000+00:00</time></trkpt><trkpt lat="22.05052" lon="104.66803"><ele>90.7</ele><time>2011-04-28T06:06:29.0000000+00:00</time></trkpt><trkpt lat="22.050522" lon="104.66803"><ele>90.0</ele><time>2011-04-28T06:06:34.0000000+00:00</time></trkpt><trkpt lat="22.050526" lon="104.66803"><ele>89.2</ele><time>2011-04-28T06:06:39.0000000+00:00</time></trkpt><trkpt lat="22.050528" lon="104.66803"><ele>88.4</ele><time>2011-04-28T06:06:44.0000000+00:00</time></trkpt><trkpt lat="22.050529" lon="104.66803"><ele>87.6</ele><time>2011-04-28T06:06:49.0000000+00:00</time></trkpt><trkpt lat="22.050531" lon="104.66803"><ele>86.8</ele><time>2011-04-28T06:06:54.0000000+00:00</time></trkpt><trkpt lat="22.050533" lon="104.668037"><ele>86.0</ele><time>2011-04-28T06:06:59.0000000+00:00</time></trkpt><trkpt lat="22.050533" lon="104.668037"><ele>85.2</ele><time>2011-04-28T06:07:04.0000000+00:00</time></trkpt><trkpt lat="22.050531" lon="104.66803"><ele>84.3</ele><time>2011-04-28T06:07:09.0000000+00:00</time></trkpt><trkpt lat="22.050533" lon="104.66803"><ele>83.5</ele><time>2011-04-28T06:07:14.0000000+00:00</time></trkpt><trkpt lat="22.050535" lon="104.66803"><ele>82.8</ele><time>2011-04-28T06:07:19.0000000+00:00</time></trkpt><trkpt lat="22.050535" lon="104.66803"><ele>82.2</ele><time>2011-04-28T06:07:24.0000000+00:00</time></trkpt><trkpt lat="22.050535" lon="104.66803"><ele>81.6</ele><time>2011-04-28T06:07:29.0000000+00:00</time></trkpt><trkpt lat="22.050535" lon="104.66803"><ele>81.1</ele><time>2011-04-28T06:07:34.0000000+00:00</time></trkpt><trkpt lat="22.050535" lon="104.66803"><ele>80.7</ele><time>2011-04-28T06:07:39.0000000+00:00</time></trkpt><trkpt lat="22.050533" lon="104.668022"><ele>80.2</ele><time>2011-04-28T06:07:44.0000000+00:00</time></trkpt><trkpt lat="22.050535" lon="104.668015"><ele>79.8</ele><time>2011-04-28T06:07:49.0000000+00:00</time></trkpt><trkpt lat="22.050539" lon="104.668007"><ele>79.3</ele><time>2011-04-28T06:07:54.0000000+00:00</time></trkpt><trkpt lat="22.050543" lon="104.667992"><ele>78.7</ele><time>2011-04-28T06:07:59.0000000+00:00</time></trkpt><trkpt lat="22.050545" lon="104.667984"><ele>78.1</ele><time>2011-04-28T06:08:04.0000000+00:00</time></trkpt><trkpt lat="22.050543" lon="104.667976"><ele>77.4</ele><time>2011-04-28T06:08:09.0000000+00:00</time></trkpt><trkpt lat="22.050539" lon="104.667969"><ele>76.6</ele><time>2011-04-28T06:08:14.0000000+00:00</time></trkpt><trkpt lat="22.050537" lon="104.667969"><ele>75.7</ele><time>2011-04-28T06:08:19.0000000+00:00</time></trkpt><trkpt lat="22.050535" lon="104.667969"><ele>74.8</ele><time>2011-04-28T06:08:24.0000000+00:00</time></trkpt><trkpt lat="22.050535" lon="104.667969"><ele>73.8</ele><time>2011-04-28T06:08:29.0000000+00:00</time></trkpt><trkpt lat="22.050535" lon="104.667969"><ele>72.9</ele><time>2011-04-28T06:08:34.0000000+00:00</time></trkpt><trkpt lat="22.050533" lon="104.667969"><ele>71.8</ele><time>2011-04-28T06:08:39.0000000+00:00</time></trkpt><trkpt lat="22.050531" lon="104.667961"><ele>70.8</ele><time>2011-04-28T06:08:44.0000000+00:00</time></trkpt><trkpt lat="22.050531" lon="104.667961"><ele>69.8</ele><time>2011-04-28T06:08:49.0000000+00:00</time></trkpt><trkpt lat="22.050537" lon="104.667961"><ele>68.7</ele><time>2011-04-28T06:08:54.0000000+00:00</time></trkpt><trkpt lat="22.050541" lon="104.667953"><ele>67.9</ele><time>2011-04-28T06:08:59.0000000+00:00</time></trkpt><trkpt lat="22.050547" lon="104.667953"><ele>67.4</ele><time>2011-04-28T06:09:04.0000000+00:00</time></trkpt><trkpt lat="22.050554" lon="104.667953"><ele>67.1</ele><time>2011-04-28T06:09:09.0000000+00:00</time></trkpt><trkpt lat="22.05056" lon="104.667953"><ele>66.8</ele><time>2011-04-28T06:09:14.0000000+00:00</time></trkpt><trkpt lat="22.05056" lon="104.667953"><ele>66.7</ele><time>2011-04-28T06:09:19.0000000+00:00</time></trkpt><trkpt lat="22.05056" lon="104.667953"><ele>66.5</ele><time>2011-04-28T06:09:24.0000000+00:00</time></trkpt><trkpt lat="22.050562" lon="104.667953"><ele>66.4</ele><time>2011-04-28T06:09:29.0000000+00:00</time></trkpt><trkpt lat="22.05056" lon="104.667953"><ele>66.3</ele><time>2011-04-28T06:09:34.0000000+00:00</time></trkpt><trkpt lat="22.05056" lon="104.667946"><ele>66.2</ele><time>2011-04-28T06:09:39.0000000+00:00</time></trkpt><trkpt lat="22.05056" lon="104.667946"><ele>66.4</ele><time>2011-04-28T06:09:44.0000000+00:00</time></trkpt><trkpt lat="22.05056" lon="104.667953"><ele>66.8</ele><time>2011-04-28T06:09:49.0000000+00:00</time></trkpt><trkpt lat="22.05056" lon="104.667953"><ele>67.3</ele><time>2011-04-28T06:09:54.0000000+00:00</time></trkpt><trkpt lat="22.05056" lon="104.667953"><ele>67.9</ele><time>2011-04-28T06:09:59.0000000+00:00</time></trkpt><trkpt lat="22.050558" lon="104.667953"><ele>68.6</ele><time>2011-04-28T06:10:04.0000000+00:00</time></trkpt><trkpt lat="22.050556" lon="104.667961"><ele>69.3</ele><time>2011-04-28T06:10:09.0000000+00:00</time></trkpt><trkpt lat="22.050556" lon="104.667961"><ele>70.0</ele><time>2011-04-28T06:10:14.0000000+00:00</time></trkpt><trkpt lat="22.050556" lon="104.667953"><ele>70.5</ele><time>2011-04-28T06:10:19.0000000+00:00</time></trkpt><trkpt lat="22.050554" lon="104.667953"><ele>71.0</ele><time>2011-04-28T06:10:24.0000000+00:00</time></trkpt><trkpt lat="22.05055" lon="104.667946"><ele>71.3</ele><time>2011-04-28T06:10:29.0000000+00:00</time></trkpt><trkpt lat="22.050547" lon="104.667938"><ele>71.7</ele><time>2011-04-28T06:10:34.0000000+00:00</time></trkpt><trkpt lat="22.050539" lon="104.667938"><ele>72.0</ele><time>2011-04-28T06:10:39.0000000+00:00</time></trkpt><trkpt lat="22.050529" lon="104.667931"><ele>72.4</ele><time>2011-04-28T06:10:44.0000000+00:00</time></trkpt><trkpt lat="22.050499" lon="104.667923"><ele>72.4</ele><time>2011-04-28T06:10:49.0000000+00:00</time></trkpt><trkpt lat="22.050497" lon="104.667923"><ele>72.8</ele><time>2011-04-28T06:10:54.0000000+00:00</time></trkpt><trkpt lat="22.050495" lon="104.667931"><ele>73.0</ele><time>2011-04-28T06:10:59.0000000+00:00</time></trkpt><trkpt lat="22.050491" lon="104.667938"><ele>73.2</ele><time>2011-04-28T06:11:04.0000000+00:00</time></trkpt><trkpt lat="22.050488" lon="104.667938"><ele>73.3</ele><time>2011-04-28T06:11:09.0000000+00:00</time></trkpt><trkpt lat="22.050484" lon="104.667946"><ele>73.5</ele><time>2011-04-28T06:11:14.0000000+00:00</time></trkpt><trkpt lat="22.050478" lon="104.667953"><ele>73.6</ele><time>2011-04-28T06:11:19.0000000+00:00</time></trkpt><trkpt lat="22.050476" lon="104.667953"><ele>73.6</ele><time>2011-04-28T06:11:24.0000000+00:00</time></trkpt><trkpt lat="22.050476" lon="104.667953"><ele>73.6</ele><time>2011-04-28T06:11:29.0000000+00:00</time></trkpt><trkpt lat="22.050476" lon="104.667953"><ele>73.7</ele><time>2011-04-28T06:11:34.0000000+00:00</time></trkpt><trkpt lat="22.050478" lon="104.667953"><ele>73.8</ele><time>2011-04-28T06:11:39.0000000+00:00</time></trkpt><trkpt lat="22.050478" lon="104.667953"><ele>73.8</ele><time>2011-04-28T06:11:44.0000000+00:00</time></trkpt><trkpt lat="22.050478" lon="104.667953"><ele>73.8</ele><time>2011-04-28T06:11:49.0000000+00:00</time></trkpt><trkpt lat="22.050476" lon="104.667953"><ele>73.9</ele><time>2011-04-28T06:11:54.0000000+00:00</time></trkpt><trkpt lat="22.050476" lon="104.667946"><ele>74.0</ele><time>2011-04-28T06:11:59.0000000+00:00</time></trkpt><trkpt lat="22.050474" lon="104.667953"><ele>74.0</ele><time>2011-04-28T06:12:04.0000000+00:00</time></trkpt><trkpt lat="22.05047" lon="104.667961"><ele>74.0</ele><time>2011-04-28T06:12:09.0000000+00:00</time></trkpt><trkpt lat="22.050467" lon="104.667969"><ele>74.3</ele><time>2011-04-28T06:12:14.0000000+00:00</time></trkpt><trkpt lat="22.050463" lon="104.667969"><ele>74.7</ele><time>2011-04-28T06:12:19.0000000+00:00</time></trkpt><trkpt lat="22.050459" lon="104.667969"><ele>75.2</ele><time>2011-04-28T06:12:24.0000000+00:00</time></trkpt><trkpt lat="22.050459" lon="104.667969"><ele>75.7</ele><time>2011-04-28T06:12:29.0000000+00:00</time></trkpt><trkpt lat="22.050459" lon="104.667969"><ele>76.1</ele><time>2011-04-28T06:12:34.0000000+00:00</time></trkpt><trkpt lat="22.050461" lon="104.667969"><ele>76.5</ele><time>2011-04-28T06:12:39.0000000+00:00</time></trkpt><trkpt lat="22.050461" lon="104.667969"><ele>76.4</ele><time>2011-04-28T06:12:44.0000000+00:00</time></trkpt><trkpt lat="22.050461" lon="104.667961"><ele>76.4</ele><time>2011-04-28T06:12:49.0000000+00:00</time></trkpt><trkpt lat="22.050465" lon="104.667961"><ele>76.3</ele><time>2011-04-28T06:12:54.0000000+00:00</time></trkpt><trkpt lat="22.050468" lon="104.667953"><ele>76.4</ele><time>2011-04-28T06:12:59.0000000+00:00</time></trkpt><trkpt lat="22.050474" lon="104.667953"><ele>76.8</ele><time>2011-04-28T06:13:04.0000000+00:00</time></trkpt><trkpt lat="22.05048" lon="104.667946"><ele>77.5</ele><time>2011-04-28T06:13:09.0000000+00:00</time></trkpt><trkpt lat="22.050484" lon="104.667946"><ele>78.3</ele><time>2011-04-28T06:13:14.0000000+00:00</time></trkpt><trkpt lat="22.050489" lon="104.667953"><ele>79.1</ele><time>2011-04-28T06:13:19.0000000+00:00</time></trkpt><trkpt lat="22.050495" lon="104.667953"><ele>79.7</ele><time>2011-04-28T06:13:24.0000000+00:00</time></trkpt><trkpt lat="22.050501" lon="104.667953"><ele>80.3</ele><time>2011-04-28T06:13:29.0000000+00:00</time></trkpt><trkpt lat="22.050503" lon="104.667946"><ele>81.0</ele><time>2011-04-28T06:13:34.0000000+00:00</time></trkpt><trkpt lat="22.050505" lon="104.667946"><ele>81.6</ele><time>2011-04-28T06:13:39.0000000+00:00</time></trkpt><trkpt lat="22.05051" lon="104.667938"><ele>81.9</ele><time>2011-04-28T06:13:44.0000000+00:00</time></trkpt><trkpt lat="22.050518" lon="104.667923"><ele>82.2</ele><time>2011-04-28T06:13:49.0000000+00:00</time></trkpt><trkpt lat="22.050522" lon="104.667915"><ele>82.3</ele><time>2011-04-28T06:13:54.0000000+00:00</time></trkpt><trkpt lat="22.050524" lon="104.667915"><ele>82.3</ele><time>2011-04-28T06:13:59.0000000+00:00</time></trkpt><trkpt lat="22.050526" lon="104.667908"><ele>82.2</ele><time>2011-04-28T06:14:04.0000000+00:00</time></trkpt><trkpt lat="22.050528" lon="104.667908"><ele>82.1</ele><time>2011-04-28T06:14:09.0000000+00:00</time></trkpt><trkpt lat="22.050529" lon="104.6679"><ele>82.0</ele><time>2011-04-28T06:14:14.0000000+00:00</time></trkpt><trkpt lat="22.050531" lon="104.667892"><ele>81.8</ele><time>2011-04-28T06:14:19.0000000+00:00</time></trkpt><trkpt lat="22.050535" lon="104.667892"><ele>81.7</ele><time>2011-04-28T06:14:24.0000000+00:00</time></trkpt><trkpt lat="22.050535" lon="104.667885"><ele>81.7</ele><time>2011-04-28T06:14:29.0000000+00:00</time></trkpt><trkpt lat="22.050535" lon="104.667885"><ele>81.6</ele><time>2011-04-28T06:14:34.0000000+00:00</time></trkpt><trkpt lat="22.050535" lon="104.667885"><ele>81.7</ele><time>2011-04-28T06:14:39.0000000+00:00</time></trkpt><trkpt lat="22.050537" lon="104.667885"><ele>81.9</ele><time>2011-04-28T06:14:44.0000000+00:00</time></trkpt><trkpt lat="22.050535" lon="104.667885"><ele>82.1</ele><time>2011-04-28T06:14:49.0000000+00:00</time></trkpt><trkpt lat="22.050529" lon="104.667892"><ele>82.5</ele><time>2011-04-28T06:14:54.0000000+00:00</time></trkpt><trkpt lat="22.05052" lon="104.6679"><ele>82.8</ele><time>2011-04-28T06:14:59.0000000+00:00</time></trkpt><trkpt lat="22.050503" lon="104.667915"><ele>82.7</ele><time>2011-04-28T06:15:04.0000000+00:00</time></trkpt><trkpt lat="22.050491" lon="104.667923"><ele>82.9</ele><time>2011-04-28T06:15:09.0000000+00:00</time></trkpt><trkpt lat="22.050482" lon="104.667931"><ele>83.2</ele><time>2011-04-28T06:15:14.0000000+00:00</time></trkpt><trkpt lat="22.050472" lon="104.667931"><ele>83.5</ele><time>2011-04-28T06:15:19.0000000+00:00</time></trkpt><trkpt lat="22.05047" lon="104.667931"><ele>83.8</ele><time>2011-04-28T06:15:24.0000000+00:00</time></trkpt><trkpt lat="22.05047" lon="104.667931"><ele>84.1</ele><time>2011-04-28T06:15:29.0000000+00:00</time></trkpt><trkpt lat="22.05047" lon="104.667931"><ele>84.3</ele><time>2011-04-28T06:15:34.0000000+00:00</time></trkpt><trkpt lat="22.050467" lon="104.667931"><ele>84.5</ele><time>2011-04-28T06:15:39.0000000+00:00</time></trkpt><trkpt lat="22.050461" lon="104.667938"><ele>84.7</ele><time>2011-04-28T06:15:44.0000000+00:00</time></trkpt><trkpt lat="22.050444" lon="104.667953"><ele>84.8</ele><time>2011-04-28T06:15:49.0000000+00:00</time></trkpt><trkpt lat="22.050404" lon="104.667961"><ele>85.2</ele><time>2011-04-28T06:15:54.0000000+00:00</time></trkpt><trkpt lat="22.050388" lon="104.667953"><ele>85.6</ele><time>2011-04-28T06:15:59.0000000+00:00</time></trkpt><trkpt lat="22.050388" lon="104.667953"><ele>85.7</ele><time>2011-04-28T06:16:04.0000000+00:00</time></trkpt><trkpt lat="22.05039" lon="104.667953"><ele>85.9</ele><time>2011-04-28T06:16:09.0000000+00:00</time></trkpt><trkpt lat="22.05039" lon="104.667953"><ele>86.1</ele><time>2011-04-28T06:16:14.0000000+00:00</time></trkpt><trkpt lat="22.050392" lon="104.667953"><ele>86.4</ele><time>2011-04-28T06:16:19.0000000+00:00</time></trkpt><trkpt lat="22.050394" lon="104.667953"><ele>86.7</ele><time>2011-04-28T06:16:24.0000000+00:00</time></trkpt><trkpt lat="22.050396" lon="104.667946"><ele>87.0</ele><time>2011-04-28T06:16:29.0000000+00:00</time></trkpt><trkpt lat="22.050396" lon="104.667946"><ele>87.3</ele><time>2011-04-28T06:16:34.0000000+00:00</time></trkpt><trkpt lat="22.050394" lon="104.667953"><ele>87.9</ele><time>2011-04-28T06:16:39.0000000+00:00</time></trkpt><trkpt lat="22.050386" lon="104.667953"><ele>88.5</ele><time>2011-04-28T06:16:44.0000000+00:00</time></trkpt><trkpt lat="22.050379" lon="104.667961"><ele>89.4</ele><time>2011-04-28T06:16:49.0000000+00:00</time></trkpt><trkpt lat="22.050375" lon="104.667969"><ele>90.2</ele><time>2011-04-28T06:16:54.0000000+00:00</time></trkpt><trkpt lat="22.050377" lon="104.667969"><ele>91.2</ele><time>2011-04-28T06:16:59.0000000+00:00</time></trkpt><trkpt lat="22.050379" lon="104.667969"><ele>92.4</ele><time>2011-04-28T06:17:04.0000000+00:00</time></trkpt><trkpt lat="22.050385" lon="104.667969"><ele>93.6</ele><time>2011-04-28T06:17:09.0000000+00:00</time></trkpt><trkpt lat="22.050388" lon="104.667961"><ele>94.8</ele><time>2011-04-28T06:17:14.0000000+00:00</time></trkpt><trkpt lat="22.05039" lon="104.667961"><ele>96.1</ele><time>2011-04-28T06:17:19.0000000+00:00</time></trkpt><trkpt lat="22.050394" lon="104.667961"><ele>97.3</ele><time>2011-04-28T06:17:24.0000000+00:00</time></trkpt><trkpt lat="22.050394" lon="104.667961"><ele>98.5</ele><time>2011-04-28T06:17:29.0000000+00:00</time></trkpt><trkpt lat="22.050392" lon="104.667961"><ele>99.7</ele><time>2011-04-28T06:17:34.0000000+00:00</time></trkpt><trkpt lat="22.05039" lon="104.667961"><ele>100.9</ele><time>2011-04-28T06:17:39.0000000+00:00</time></trkpt><trkpt lat="22.05039" lon="104.667961"><ele>102.0</ele><time>2011-04-28T06:17:44.0000000+00:00</time></trkpt><trkpt lat="22.050392" lon="104.667961"><ele>103.0</ele><time>2011-04-28T06:17:49.0000000+00:00</time></trkpt><trkpt lat="22.05039" lon="104.667961"><ele>103.9</ele><time>2011-04-28T06:17:54.0000000+00:00</time></trkpt><trkpt lat="22.05039" lon="104.667961"><ele>104.7</ele><time>2011-04-28T06:17:59.0000000+00:00</time></trkpt><trkpt lat="22.050388" lon="104.667961"><ele>105.6</ele><time>2011-04-28T06:18:04.0000000+00:00</time></trkpt><trkpt lat="22.050388" lon="104.667969"><ele>106.7</ele><time>2011-04-28T06:18:09.0000000+00:00</time></trkpt><trkpt lat="22.050386" lon="104.667969"><ele>108.0</ele><time>2011-04-28T06:18:14.0000000+00:00</time></trkpt><trkpt lat="22.050386" lon="104.667969"><ele>109.3</ele><time>2011-04-28T06:18:19.0000000+00:00</time></trkpt><trkpt lat="22.050386" lon="104.667969"><ele>110.7</ele><time>2011-04-28T06:18:24.0000000+00:00</time></trkpt><trkpt lat="22.050386" lon="104.667961"><ele>112.0</ele><time>2011-04-28T06:18:29.0000000+00:00</time></trkpt><trkpt lat="22.050386" lon="104.667961"><ele>113.2</ele><time>2011-04-28T06:18:34.0000000+00:00</time></trkpt><trkpt lat="22.05039" lon="104.667961"><ele>114.5</ele><time>2011-04-28T06:18:39.0000000+00:00</time></trkpt><trkpt lat="22.050398" lon="104.667961"><ele>115.6</ele><time>2011-04-28T06:18:44.0000000+00:00</time></trkpt><trkpt lat="22.050407" lon="104.667961"><ele>116.8</ele><time>2011-04-28T06:18:49.0000000+00:00</time></trkpt><trkpt lat="22.050419" lon="104.667961"><ele>117.9</ele><time>2011-04-28T06:18:54.0000000+00:00</time></trkpt><trkpt lat="22.050432" lon="104.667961"><ele>119.0</ele><time>2011-04-28T06:18:59.0000000+00:00</time></trkpt><trkpt lat="22.050459" lon="104.667953"><ele>119.8</ele><time>2011-04-28T06:19:04.0000000+00:00</time></trkpt><trkpt lat="22.050467" lon="104.667953"><ele>120.5</ele><time>2011-04-28T06:19:09.0000000+00:00</time></trkpt><trkpt lat="22.050472" lon="104.667946"><ele>121.4</ele><time>2011-04-28T06:19:14.0000000+00:00</time></trkpt><trkpt lat="22.050474" lon="104.667946"><ele>122.2</ele><time>2011-04-28T06:19:19.0000000+00:00</time></trkpt><trkpt lat="22.050474" lon="104.667946"><ele>122.9</ele><time>2011-04-28T06:19:24.0000000+00:00</time></trkpt><trkpt lat="22.050472" lon="104.667946"><ele>123.4</ele><time>2011-04-28T06:19:29.0000000+00:00</time></trkpt><trkpt lat="22.050472" lon="104.667946"><ele>123.9</ele><time>2011-04-28T06:19:34.0000000+00:00</time></trkpt><trkpt lat="22.050474" lon="104.667953"><ele>123.9</ele><time>2011-04-28T06:19:39.0000000+00:00</time></trkpt><trkpt lat="22.050472" lon="104.667953"><ele>123.8</ele><time>2011-04-28T06:19:44.0000000+00:00</time></trkpt><trkpt lat="22.050472" lon="104.667953"><ele>123.7</ele><time>2011-04-28T06:19:49.0000000+00:00</time></trkpt><trkpt lat="22.050472" lon="104.667946"><ele>123.7</ele><time>2011-04-28T06:19:54.0000000+00:00</time></trkpt><trkpt lat="22.050472" lon="104.667946"><ele>123.6</ele><time>2011-04-28T06:19:59.0000000+00:00</time></trkpt><trkpt lat="22.050472" lon="104.667946"><ele>123.6</ele><time>2011-04-28T06:20:04.0000000+00:00</time></trkpt><trkpt lat="22.050472" lon="104.667946"><ele>123.5</ele><time>2011-04-28T06:20:09.0000000+00:00</time></trkpt><trkpt lat="22.050472" lon="104.667946"><ele>123.5</ele><time>2011-04-28T06:20:14.0000000+00:00</time></trkpt><trkpt lat="22.050472" lon="104.667946"><ele>123.4</ele><time>2011-04-28T06:20:19.0000000+00:00</time></trkpt><trkpt lat="22.050472" lon="104.667946"><ele>123.4</ele><time>2011-04-28T06:20:24.0000000+00:00</time></trkpt><trkpt lat="22.050472" lon="104.667946"><ele>123.4</ele><time>2011-04-28T06:20:29.0000000+00:00</time></trkpt><trkpt lat="22.050472" lon="104.667946"><ele>123.4</ele><time>2011-04-28T06:20:34.0000000+00:00</time></trkpt><trkpt lat="22.050472" lon="104.667946"><ele>123.3</ele><time>2011-04-28T06:20:39.0000000+00:00</time></trkpt><trkpt lat="22.050472" lon="104.667946"><ele>123.3</ele><time>2011-04-28T06:20:44.0000000+00:00</time></trkpt><trkpt lat="22.050472" lon="104.667946"><ele>123.2</ele><time>2011-04-28T06:20:49.0000000+00:00</time></trkpt><trkpt lat="22.050472" lon="104.667946"><ele>123.2</ele><time>2011-04-28T06:20:54.0000000+00:00</time></trkpt><trkpt lat="22.050472" lon="104.667953"><ele>123.2</ele><time>2011-04-28T06:20:59.0000000+00:00</time></trkpt><trkpt lat="22.050472" lon="104.667953"><ele>123.2</ele><time>2011-04-28T06:21:04.0000000+00:00</time></trkpt><trkpt lat="22.050472" lon="104.667953"><ele>123.1</ele><time>2011-04-28T06:21:09.0000000+00:00</time></trkpt><trkpt lat="22.05047" lon="104.667953"><ele>123.0</ele><time>2011-04-28T06:21:14.0000000+00:00</time></trkpt><trkpt lat="22.05047" lon="104.667953"><ele>123.0</ele><time>2011-04-28T06:21:19.0000000+00:00</time></trkpt><trkpt lat="22.050468" lon="104.667953"><ele>123.0</ele><time>2011-04-28T06:21:24.0000000+00:00</time></trkpt><trkpt lat="22.050468" lon="104.667953"><ele>122.9</ele><time>2011-04-28T06:21:29.0000000+00:00</time></trkpt><trkpt lat="22.050468" lon="104.667953"><ele>122.8</ele><time>2011-04-28T06:21:34.0000000+00:00</time></trkpt><trkpt lat="22.050468" lon="104.667953"><ele>122.7</ele><time>2011-04-28T06:21:39.0000000+00:00</time></trkpt><trkpt lat="22.050468" lon="104.667953"><ele>122.7</ele><time>2011-04-28T06:21:44.0000000+00:00</time></trkpt><trkpt lat="22.050467" lon="104.667953"><ele>122.7</ele><time>2011-04-28T06:21:49.0000000+00:00</time></trkpt><trkpt lat="22.050467" lon="104.667953"><ele>122.7</ele><time>2011-04-28T06:21:54.0000000+00:00</time></trkpt><trkpt lat="22.050467" lon="104.667953"><ele>122.7</ele><time>2011-04-28T06:21:59.0000000+00:00</time></trkpt><trkpt lat="22.050467" lon="104.667953"><ele>122.7</ele><time>2011-04-28T06:22:04.0000000+00:00</time></trkpt><trkpt lat="22.050467" lon="104.667953"><ele>122.6</ele><time>2011-04-28T06:22:09.0000000+00:00</time></trkpt><trkpt lat="22.050465" lon="104.667953"><ele>122.6</ele><time>2011-04-28T06:22:14.0000000+00:00</time></trkpt><trkpt lat="22.050465" lon="104.667953"><ele>122.6</ele><time>2011-04-28T06:22:19.0000000+00:00</time></trkpt><trkpt lat="22.050465" lon="104.667953"><ele>122.6</ele><time>2011-04-28T06:22:24.0000000+00:00</time></trkpt><trkpt lat="22.050463" lon="104.667953"><ele>122.6</ele><time>2011-04-28T06:22:29.0000000+00:00</time></trkpt><trkpt lat="22.050463" lon="104.667953"><ele>122.6</ele><time>2011-04-28T06:22:34.0000000+00:00</time></trkpt><trkpt lat="22.050463" lon="104.667953"><ele>122.6</ele><time>2011-04-28T06:22:39.0000000+00:00</time></trkpt><trkpt lat="22.050463" lon="104.667953"><ele>122.6</ele><time>2011-04-28T06:22:44.0000000+00:00</time></trkpt><trkpt lat="22.050463" lon="104.667953"><ele>122.5</ele><time>2011-04-28T06:22:49.0000000+00:00</time></trkpt><trkpt lat="22.050463" lon="104.667953"><ele>122.5</ele><time>2011-04-28T06:22:54.0000000+00:00</time></trkpt><trkpt lat="22.050461" lon="104.667953"><ele>122.5</ele><time>2011-04-28T06:22:59.0000000+00:00</time></trkpt><trkpt lat="22.050459" lon="104.667953"><ele>122.4</ele><time>2011-04-28T06:23:04.0000000+00:00</time></trkpt><trkpt lat="22.050459" lon="104.667953"><ele>122.4</ele><time>2011-04-28T06:23:09.0000000+00:00</time></trkpt><trkpt lat="22.050457" lon="104.667953"><ele>122.4</ele><time>2011-04-28T06:23:14.0000000+00:00</time></trkpt><trkpt lat="22.050457" lon="104.667953"><ele>122.4</ele><time>2011-04-28T06:23:19.0000000+00:00</time></trkpt><trkpt lat="22.050455" lon="104.667953"><ele>122.3</ele><time>2011-04-28T06:23:24.0000000+00:00</time></trkpt><trkpt lat="22.050455" lon="104.667953"><ele>122.4</ele><time>2011-04-28T06:23:29.0000000+00:00</time></trkpt><trkpt lat="22.050455" lon="104.667953"><ele>122.3</ele><time>2011-04-28T06:23:34.0000000+00:00</time></trkpt><trkpt lat="22.050453" lon="104.667953"><ele>122.3</ele><time>2011-04-28T06:23:39.0000000+00:00</time></trkpt><trkpt lat="22.050453" lon="104.667953"><ele>122.2</ele><time>2011-04-28T06:23:44.0000000+00:00</time></trkpt><trkpt lat="22.050453" lon="104.667953"><ele>122.2</ele><time>2011-04-28T06:23:49.0000000+00:00</time></trkpt><trkpt lat="22.050451" lon="104.667953"><ele>122.2</ele><time>2011-04-28T06:23:54.0000000+00:00</time></trkpt><trkpt lat="22.050451" lon="104.667953"><ele>122.2</ele><time>2011-04-28T06:23:59.0000000+00:00</time></trkpt><trkpt lat="22.050451" lon="104.667953"><ele>122.1</ele><time>2011-04-28T06:24:04.0000000+00:00</time></trkpt><trkpt lat="22.050453" lon="104.667946"><ele>122.1</ele><time>2011-04-28T06:24:09.0000000+00:00</time></trkpt><trkpt lat="22.050453" lon="104.667946"><ele>122.1</ele><time>2011-04-28T06:24:14.0000000+00:00</time></trkpt><trkpt lat="22.050453" lon="104.667946"><ele>122.1</ele><time>2011-04-28T06:24:19.0000000+00:00</time></trkpt><trkpt lat="22.050453" lon="104.667946"><ele>122.1</ele><time>2011-04-28T06:24:24.0000000+00:00</time></trkpt><trkpt lat="22.050451" lon="104.667946"><ele>122.0</ele><time>2011-04-28T06:24:29.0000000+00:00</time></trkpt><trkpt lat="22.050451" lon="104.667946"><ele>122.0</ele><time>2011-04-28T06:24:34.0000000+00:00</time></trkpt><trkpt lat="22.050449" lon="104.667946"><ele>121.9</ele><time>2011-04-28T06:24:39.0000000+00:00</time></trkpt><trkpt lat="22.050449" lon="104.667946"><ele>121.9</ele><time>2011-04-28T06:24:44.0000000+00:00</time></trkpt><trkpt lat="22.050447" lon="104.667946"><ele>121.9</ele><time>2011-04-28T06:24:49.0000000+00:00</time></trkpt><trkpt lat="22.050447" lon="104.667946"><ele>121.9</ele><time>2011-04-28T06:24:54.0000000+00:00</time></trkpt><trkpt lat="22.050446" lon="104.667946"><ele>121.8</ele><time>2011-04-28T06:24:59.0000000+00:00</time></trkpt><trkpt lat="22.050446" lon="104.667946"><ele>121.8</ele><time>2011-04-28T06:25:04.0000000+00:00</time></trkpt><trkpt lat="22.050446" lon="104.667946"><ele>121.7</ele><time>2011-04-28T06:25:09.0000000+00:00</time></trkpt><trkpt lat="22.050444" lon="104.667946"><ele>121.6</ele><time>2011-04-28T06:25:14.0000000+00:00</time></trkpt><trkpt lat="22.050444" lon="104.667946"><ele>121.6</ele><time>2011-04-28T06:25:19.0000000+00:00</time></trkpt><trkpt lat="22.050444" lon="104.667946"><ele>121.5</ele><time>2011-04-28T06:25:24.0000000+00:00</time></trkpt><trkpt lat="22.050442" lon="104.667946"><ele>121.6</ele><time>2011-04-28T06:25:29.0000000+00:00</time></trkpt><trkpt lat="22.050442" lon="104.667946"><ele>121.6</ele><time>2011-04-28T06:25:34.0000000+00:00</time></trkpt><trkpt lat="22.050442" lon="104.667946"><ele>121.6</ele><time>2011-04-28T06:25:39.0000000+00:00</time></trkpt><trkpt lat="22.050442" lon="104.667946"><ele>121.5</ele><time>2011-04-28T06:25:44.0000000+00:00</time></trkpt><trkpt lat="22.050442" lon="104.667946"><ele>121.5</ele><time>2011-04-28T06:25:49.0000000+00:00</time></trkpt><trkpt lat="22.050444" lon="104.667946"><ele>121.6</ele><time>2011-04-28T06:25:54.0000000+00:00</time></trkpt><trkpt lat="22.050444" lon="104.667946"><ele>121.5</ele><time>2011-04-28T06:25:59.0000000+00:00</time></trkpt><trkpt lat="22.050444" lon="104.667946"><ele>121.5</ele><time>2011-04-28T06:26:04.0000000+00:00</time></trkpt><trkpt lat="22.050444" lon="104.667953"><ele>121.4</ele><time>2011-04-28T06:26:09.0000000+00:00</time></trkpt><trkpt lat="22.050444" lon="104.667953"><ele>121.4</ele><time>2011-04-28T06:26:14.0000000+00:00</time></trkpt><trkpt lat="22.050444" lon="104.667953"><ele>121.4</ele><time>2011-04-28T06:26:19.0000000+00:00</time></trkpt><trkpt lat="22.050442" lon="104.667953"><ele>121.4</ele><time>2011-04-28T06:26:24.0000000+00:00</time></trkpt><trkpt lat="22.050442" lon="104.667953"><ele>121.3</ele><time>2011-04-28T06:26:29.0000000+00:00</time></trkpt><trkpt lat="22.050442" lon="104.667953"><ele>121.3</ele><time>2011-04-28T06:26:34.0000000+00:00</time></trkpt><trkpt lat="22.050442" lon="104.667953"><ele>121.3</ele><time>2011-04-28T06:26:39.0000000+00:00</time></trkpt><trkpt lat="22.050442" lon="104.667953"><ele>121.3</ele><time>2011-04-28T06:26:44.0000000+00:00</time></trkpt><trkpt lat="22.050442" lon="104.667953"><ele>121.3</ele><time>2011-04-28T06:26:49.0000000+00:00</time></trkpt><trkpt lat="22.050442" lon="104.667953"><ele>121.3</ele><time>2011-04-28T06:26:54.0000000+00:00</time></trkpt><trkpt lat="22.050442" lon="104.667953"><ele>121.3</ele><time>2011-04-28T06:26:59.0000000+00:00</time></trkpt><trkpt lat="22.050442" lon="104.667953"><ele>121.3</ele><time>2011-04-28T06:27:04.0000000+00:00</time></trkpt><trkpt lat="22.050442" lon="104.667953"><ele>121.3</ele><time>2011-04-28T06:27:09.0000000+00:00</time></trkpt><trkpt lat="22.050444" lon="104.667953"><ele>121.3</ele><time>2011-04-28T06:27:14.0000000+00:00</time></trkpt><trkpt lat="22.050444" lon="104.667953"><ele>121.3</ele><time>2011-04-28T06:27:19.0000000+00:00</time></trkpt><trkpt lat="22.050444" lon="104.667953"><ele>121.3</ele><time>2011-04-28T06:27:24.0000000+00:00</time></trkpt><trkpt lat="22.050444" lon="104.667953"><ele>121.3</ele><time>2011-04-28T06:27:29.0000000+00:00</time></trkpt><trkpt lat="22.050444" lon="104.667953"><ele>121.3</ele><time>2011-04-28T06:27:34.0000000+00:00</time></trkpt><trkpt lat="22.050444" lon="104.667953"><ele>121.3</ele><time>2011-04-28T06:27:39.0000000+00:00</time></trkpt><trkpt lat="22.050444" lon="104.667953"><ele>121.2</ele><time>2011-04-28T06:27:44.0000000+00:00</time></trkpt><trkpt lat="22.050444" lon="104.667953"><ele>121.2</ele><time>2011-04-28T06:27:49.0000000+00:00</time></trkpt><trkpt lat="22.050446" lon="104.667953"><ele>121.2</ele><time>2011-04-28T06:27:54.0000000+00:00</time></trkpt><trkpt lat="22.050444" lon="104.667953"><ele>121.2</ele><time>2011-04-28T06:27:59.0000000+00:00</time></trkpt><trkpt lat="22.050444" lon="104.667953"><ele>121.2</ele><time>2011-04-28T06:28:04.0000000+00:00</time></trkpt><trkpt lat="22.050444" lon="104.667953"><ele>121.2</ele><time>2011-04-28T06:28:09.0000000+00:00</time></trkpt><trkpt lat="22.050446" lon="104.667953"><ele>121.2</ele><time>2011-04-28T06:28:14.0000000+00:00</time></trkpt><trkpt lat="22.050446" lon="104.667961"><ele>121.1</ele><time>2011-04-28T06:28:19.0000000+00:00</time></trkpt><trkpt lat="22.050446" lon="104.667961"><ele>121.1</ele><time>2011-04-28T06:28:24.0000000+00:00</time></trkpt><trkpt lat="22.050446" lon="104.667961"><ele>121.1</ele><time>2011-04-28T06:28:29.0000000+00:00</time></trkpt><trkpt lat="22.050446" lon="104.667961"><ele>121.1</ele><time>2011-04-28T06:28:34.0000000+00:00</time></trkpt><trkpt lat="22.050442" lon="104.667961"><ele>121.1</ele><time>2011-04-28T06:28:39.0000000+00:00</time></trkpt><trkpt lat="22.050438" lon="104.667969"><ele>121.1</ele><time>2011-04-28T06:28:44.0000000+00:00</time></trkpt><trkpt lat="22.05043" lon="104.667976"><ele>121.0</ele><time>2011-04-28T06:28:49.0000000+00:00</time></trkpt><trkpt lat="22.050421" lon="104.667999"><ele>121.0</ele><time>2011-04-28T06:28:54.0000000+00:00</time></trkpt><trkpt lat="22.050409" lon="104.66803"><ele>121.0</ele><time>2011-04-28T06:28:59.0000000+00:00</time></trkpt><trkpt lat="22.050385" lon="104.668053"><ele>120.6</ele><time>2011-04-28T06:29:04.0000000+00:00</time></trkpt><trkpt lat="22.050367" lon="104.668083"><ele>120.3</ele><time>2011-04-28T06:29:09.0000000+00:00</time></trkpt><trkpt lat="22.050348" lon="104.668114"><ele>119.7</ele><time>2011-04-28T06:29:14.0000000+00:00</time></trkpt><trkpt lat="22.050323" lon="104.668106"><ele>119.9</ele><time>2011-04-28T06:29:19.0000000+00:00</time></trkpt><trkpt lat="22.050323" lon="104.668098"><ele>120.1</ele><time>2011-04-28T06:29:24.0000000+00:00</time></trkpt><trkpt lat="22.05032" lon="104.668098"><ele>120.0</ele><time>2011-04-28T06:29:29.0000000+00:00</time></trkpt><trkpt lat="22.050318" lon="104.668091"><ele>120.0</ele><time>2011-04-28T06:29:34.0000000+00:00</time></trkpt><trkpt lat="22.050316" lon="104.668091"><ele>120.0</ele><time>2011-04-28T06:29:39.0000000+00:00</time></trkpt><trkpt lat="22.050314" lon="104.668098"><ele>120.0</ele><time>2011-04-28T06:29:44.0000000+00:00</time></trkpt><trkpt lat="22.050314" lon="104.668098"><ele>120.0</ele><time>2011-04-28T06:29:49.0000000+00:00</time></trkpt><trkpt lat="22.050316" lon="104.668098"><ele>120.0</ele><time>2011-04-28T06:29:54.0000000+00:00</time></trkpt><trkpt lat="22.050316" lon="104.668098"><ele>120.0</ele><time>2011-04-28T06:29:59.0000000+00:00</time></trkpt><trkpt lat="22.05032" lon="104.668098"><ele>120.0</ele><time>2011-04-28T06:30:04.0000000+00:00</time></trkpt><trkpt lat="22.050331" lon="104.668098"><ele>119.9</ele><time>2011-04-28T06:30:09.0000000+00:00</time></trkpt><trkpt lat="22.050364" lon="104.668121"><ele>118.8</ele><time>2011-04-28T06:30:14.0000000+00:00</time></trkpt><trkpt lat="22.050407" lon="104.668129"><ele>117.4</ele><time>2011-04-28T06:30:19.0000000+00:00</time></trkpt><trkpt lat="22.050457" lon="104.668129"><ele>116.6</ele><time>2011-04-28T06:30:24.0000000+00:00</time></trkpt><trkpt lat="22.050489" lon="104.668121"><ele>117.6</ele><time>2011-04-28T06:30:29.0000000+00:00</time></trkpt><trkpt lat="22.050507" lon="104.668106"><ele>118.8</ele><time>2011-04-28T06:30:34.0000000+00:00</time></trkpt><trkpt lat="22.050499" lon="104.668091"><ele>120.5</ele><time>2011-04-28T06:30:39.0000000+00:00</time></trkpt><trkpt lat="22.050507" lon="104.668091"><ele>120.6</ele><time>2011-04-28T06:30:44.0000000+00:00</time></trkpt><trkpt lat="22.050512" lon="104.668091"><ele>120.6</ele><time>2011-04-28T06:30:49.0000000+00:00</time></trkpt><trkpt lat="22.050503" lon="104.668091"><ele>120.4</ele><time>2011-04-28T06:30:54.0000000+00:00</time></trkpt><trkpt lat="22.050491" lon="104.668091"><ele>120.3</ele><time>2011-04-28T06:30:59.0000000+00:00</time></trkpt><trkpt lat="22.050484" lon="104.668091"><ele>120.1</ele><time>2011-04-28T06:31:04.0000000+00:00</time></trkpt><trkpt lat="22.05048" lon="104.668091"><ele>119.6</ele><time>2011-04-28T06:31:09.0000000+00:00</time></trkpt><trkpt lat="22.050474" lon="104.668091"><ele>119.0</ele><time>2011-04-28T06:31:14.0000000+00:00</time></trkpt><trkpt lat="22.05047" lon="104.668091"><ele>118.4</ele><time>2011-04-28T06:31:19.0000000+00:00</time></trkpt><trkpt lat="22.050467" lon="104.668091"><ele>117.9</ele><time>2011-04-28T06:31:24.0000000+00:00</time></trkpt><trkpt lat="22.050463" lon="104.668091"><ele>117.4</ele><time>2011-04-28T06:31:29.0000000+00:00</time></trkpt><trkpt lat="22.050459" lon="104.668091"><ele>116.7</ele><time>2011-04-28T06:31:34.0000000+00:00</time></trkpt><trkpt lat="22.050455" lon="104.668091"><ele>115.5</ele><time>2011-04-28T06:31:39.0000000+00:00</time></trkpt><trkpt lat="22.050447" lon="104.668091"><ele>114.1</ele><time>2011-04-28T06:31:44.0000000+00:00</time></trkpt><trkpt lat="22.050438" lon="104.668091"><ele>112.6</ele><time>2011-04-28T06:31:49.0000000+00:00</time></trkpt><trkpt lat="22.050432" lon="104.668091"><ele>111.1</ele><time>2011-04-28T06:31:54.0000000+00:00</time></trkpt><trkpt lat="22.05043" lon="104.668091"><ele>109.7</ele><time>2011-04-28T06:31:59.0000000+00:00</time></trkpt><trkpt lat="22.05043" lon="104.668098"><ele>108.3</ele><time>2011-04-28T06:32:04.0000000+00:00</time></trkpt><trkpt lat="22.050432" lon="104.668098"><ele>107.0</ele><time>2011-04-28T06:32:09.0000000+00:00</time></trkpt><trkpt lat="22.050434" lon="104.668091"><ele>105.6</ele><time>2011-04-28T06:32:14.0000000+00:00</time></trkpt><trkpt lat="22.05043" lon="104.668091"><ele>104.1</ele><time>2011-04-28T06:32:19.0000000+00:00</time></trkpt><trkpt lat="22.050421" lon="104.668098"><ele>102.5</ele><time>2011-04-28T06:32:24.0000000+00:00</time></trkpt><trkpt lat="22.050411" lon="104.668098"><ele>101.0</ele><time>2011-04-28T06:32:29.0000000+00:00</time></trkpt><trkpt lat="22.050407" lon="104.668098"><ele>99.5</ele><time>2011-04-28T06:32:34.0000000+00:00</time></trkpt><trkpt lat="22.050406" lon="104.668106"><ele>98.2</ele><time>2011-04-28T06:32:39.0000000+00:00</time></trkpt><trkpt lat="22.0504" lon="104.668106"><ele>96.9</ele><time>2011-04-28T06:32:44.0000000+00:00</time></trkpt><trkpt lat="22.05039" lon="104.668114"><ele>95.8</ele><time>2011-04-28T06:32:49.0000000+00:00</time></trkpt><trkpt lat="22.050385" lon="104.668114"><ele>94.7</ele><time>2011-04-28T06:32:54.0000000+00:00</time></trkpt><trkpt lat="22.050385" lon="104.668114"><ele>93.9</ele><time>2011-04-28T06:32:59.0000000+00:00</time></trkpt><trkpt lat="22.050385" lon="104.668121"><ele>93.2</ele><time>2011-04-28T06:33:04.0000000+00:00</time></trkpt><trkpt lat="22.050383" lon="104.668121"><ele>92.4</ele><time>2011-04-28T06:33:09.0000000+00:00</time></trkpt><trkpt lat="22.050379" lon="104.668121"><ele>91.9</ele><time>2011-04-28T06:33:14.0000000+00:00</time></trkpt><trkpt lat="22.050379" lon="104.668121"><ele>91.6</ele><time>2011-04-28T06:33:19.0000000+00:00</time></trkpt><trkpt lat="22.050381" lon="104.668121"><ele>91.5</ele><time>2011-04-28T06:33:24.0000000+00:00</time></trkpt><trkpt lat="22.050381" lon="104.668121"><ele>91.5</ele><time>2011-04-28T06:33:29.0000000+00:00</time></trkpt><trkpt lat="22.050381" lon="104.668121"><ele>91.5</ele><time>2011-04-28T06:33:34.0000000+00:00</time></trkpt><trkpt lat="22.050381" lon="104.668121"><ele>91.5</ele><time>2011-04-28T06:33:39.0000000+00:00</time></trkpt><trkpt lat="22.050381" lon="104.668121"><ele>91.5</ele><time>2011-04-28T06:33:44.0000000+00:00</time></trkpt><trkpt lat="22.050381" lon="104.668121"><ele>91.5</ele><time>2011-04-28T06:33:49.0000000+00:00</time></trkpt><trkpt lat="22.050383" lon="104.668121"><ele>91.6</ele><time>2011-04-28T06:33:54.0000000+00:00</time></trkpt><trkpt lat="22.050383" lon="104.668121"><ele>91.6</ele><time>2011-04-28T06:33:59.0000000+00:00</time></trkpt><trkpt lat="22.050383" lon="104.668121"><ele>91.6</ele><time>2011-04-28T06:34:04.0000000+00:00</time></trkpt><trkpt lat="22.050383" lon="104.668121"><ele>91.6</ele><time>2011-04-28T06:34:09.0000000+00:00</time></trkpt><trkpt lat="22.050383" lon="104.668121"><ele>91.6</ele><time>2011-04-28T06:34:14.0000000+00:00</time></trkpt><trkpt lat="22.050383" lon="104.668121"><ele>91.6</ele><time>2011-04-28T06:34:19.0000000+00:00</time></trkpt><trkpt lat="22.050383" lon="104.668121"><ele>91.6</ele><time>2011-04-28T06:34:24.0000000+00:00</time></trkpt><trkpt lat="22.050383" lon="104.668121"><ele>91.7</ele><time>2011-04-28T06:34:29.0000000+00:00</time></trkpt><trkpt lat="22.050383" lon="104.668121"><ele>91.7</ele><time>2011-04-28T06:34:34.0000000+00:00</time></trkpt><trkpt lat="22.050383" lon="104.668121"><ele>91.7</ele><time>2011-04-28T06:34:39.0000000+00:00</time></trkpt><trkpt lat="22.050383" lon="104.668121"><ele>91.7</ele><time>2011-04-28T06:34:44.0000000+00:00</time></trkpt><trkpt lat="22.050385" lon="104.668121"><ele>91.8</ele><time>2011-04-28T06:34:49.0000000+00:00</time></trkpt><trkpt lat="22.050385" lon="104.668121"><ele>91.8</ele><time>2011-04-28T06:34:54.0000000+00:00</time></trkpt><trkpt lat="22.050385" lon="104.668121"><ele>91.8</ele><time>2011-04-28T06:34:59.0000000+00:00</time></trkpt><trkpt lat="22.050385" lon="104.668121"><ele>91.9</ele><time>2011-04-28T06:35:04.0000000+00:00</time></trkpt><trkpt lat="22.050385" lon="104.668121"><ele>91.9</ele><time>2011-04-28T06:35:09.0000000+00:00</time></trkpt><trkpt lat="22.050385" lon="104.668121"><ele>92.0</ele><time>2011-04-28T06:35:14.0000000+00:00</time></trkpt><trkpt lat="22.050385" lon="104.668121"><ele>92.0</ele><time>2011-04-28T06:35:19.0000000+00:00</time></trkpt><trkpt lat="22.050385" lon="104.668121"><ele>92.1</ele><time>2011-04-28T06:35:24.0000000+00:00</time></trkpt><trkpt lat="22.050385" lon="104.668121"><ele>92.1</ele><time>2011-04-28T06:35:29.0000000+00:00</time></trkpt><trkpt lat="22.050385" lon="104.668121"><ele>92.1</ele><time>2011-04-28T06:35:34.0000000+00:00</time></trkpt><trkpt lat="22.050385" lon="104.668121"><ele>92.1</ele><time>2011-04-28T06:35:39.0000000+00:00</time></trkpt><trkpt lat="22.050386" lon="104.668121"><ele>92.1</ele><time>2011-04-28T06:35:44.0000000+00:00</time></trkpt><trkpt lat="22.05039" lon="104.668121"><ele>92.1</ele><time>2011-04-28T06:35:49.0000000+00:00</time></trkpt><trkpt lat="22.050396" lon="104.668121"><ele>92.1</ele><time>2011-04-28T06:35:54.0000000+00:00</time></trkpt><trkpt lat="22.050406" lon="104.668121"><ele>92.2</ele><time>2011-04-28T06:35:59.0000000+00:00</time></trkpt><trkpt lat="22.05043" lon="104.668144"><ele>92.2</ele><time>2011-04-28T06:36:04.0000000+00:00</time></trkpt><trkpt lat="22.050455" lon="104.668167"><ele>92.0</ele><time>2011-04-28T06:36:09.0000000+00:00</time></trkpt><trkpt lat="22.050476" lon="104.668175"><ele>91.9</ele><time>2011-04-28T06:36:14.0000000+00:00</time></trkpt><trkpt lat="22.050482" lon="104.668167"><ele>91.9</ele><time>2011-04-28T06:36:19.0000000+00:00</time></trkpt><trkpt lat="22.050491" lon="104.668167"><ele>91.9</ele><time>2011-04-28T06:36:24.0000000+00:00</time></trkpt><trkpt lat="22.050497" lon="104.668175"><ele>91.9</ele><time>2011-04-28T06:36:29.0000000+00:00</time></trkpt><trkpt lat="22.050503" lon="104.668182"><ele>91.8</ele><time>2011-04-28T06:36:34.0000000+00:00</time></trkpt><trkpt lat="22.050507" lon="104.668182"><ele>91.8</ele><time>2011-04-28T06:36:39.0000000+00:00</time></trkpt><trkpt lat="22.050507" lon="104.668182"><ele>91.6</ele><time>2011-04-28T06:36:44.0000000+00:00</time></trkpt><trkpt lat="22.050508" lon="104.668175"><ele>91.4</ele><time>2011-04-28T06:36:49.0000000+00:00</time></trkpt><trkpt lat="22.050512" lon="104.668175"><ele>91.2</ele><time>2011-04-28T06:36:54.0000000+00:00</time></trkpt><trkpt lat="22.050518" lon="104.668182"><ele>90.9</ele><time>2011-04-28T06:36:59.0000000+00:00</time></trkpt><trkpt lat="22.050526" lon="104.66819"><ele>90.5</ele><time>2011-04-28T06:37:04.0000000+00:00</time></trkpt><trkpt lat="22.050531" lon="104.668198"><ele>90.1</ele><time>2011-04-28T06:37:09.0000000+00:00</time></trkpt><trkpt lat="22.050529" lon="104.668198"><ele>89.6</ele><time>2011-04-28T06:37:14.0000000+00:00</time></trkpt><trkpt lat="22.050528" lon="104.668205"><ele>89.0</ele><time>2011-04-28T06:37:19.0000000+00:00</time></trkpt><trkpt lat="22.050526" lon="104.668213"><ele>88.3</ele><time>2011-04-28T06:37:24.0000000+00:00</time></trkpt><trkpt lat="22.050524" lon="104.668205"><ele>87.5</ele><time>2011-04-28T06:37:29.0000000+00:00</time></trkpt><trkpt lat="22.050524" lon="104.668205"><ele>86.7</ele><time>2011-04-28T06:37:34.0000000+00:00</time></trkpt><trkpt lat="22.050524" lon="104.668198"><ele>85.8</ele><time>2011-04-28T06:37:39.0000000+00:00</time></trkpt><trkpt lat="22.050516" lon="104.66819"><ele>84.9</ele><time>2011-04-28T06:37:44.0000000+00:00</time></trkpt><trkpt lat="22.050457" lon="104.668144"><ele>83.8</ele><time>2011-04-28T06:37:49.0000000+00:00</time></trkpt><trkpt lat="22.050371" lon="104.668129"><ele>82.6</ele><time>2011-04-28T06:37:54.0000000+00:00</time></trkpt><trkpt lat="22.05036" lon="104.668129"><ele>80.8</ele><time>2011-04-28T06:37:59.0000000+00:00</time></trkpt><trkpt lat="22.050352" lon="104.668121"><ele>79.8</ele><time>2011-04-28T06:38:04.0000000+00:00</time></trkpt><trkpt lat="22.050344" lon="104.668114"><ele>78.7</ele><time>2011-04-28T06:38:09.0000000+00:00</time></trkpt><trkpt lat="22.050337" lon="104.668114"><ele>77.6</ele><time>2011-04-28T06:38:14.0000000+00:00</time></trkpt><trkpt lat="22.050335" lon="104.668114"><ele>76.6</ele><time>2011-04-28T06:38:19.0000000+00:00</time></trkpt><trkpt lat="22.050329" lon="104.668129"><ele>75.7</ele><time>2011-04-28T06:38:24.0000000+00:00</time></trkpt><trkpt lat="22.050249" lon="104.668266"><ele>75.7</ele><time>2011-04-28T06:38:29.0000000+00:00</time></trkpt><trkpt lat="22.050186" lon="104.668442"><ele>75.7</ele><time>2011-04-28T06:38:34.0000000+00:00</time></trkpt><trkpt lat="22.050112" lon="104.668594"><ele>75.4</ele><time>2011-04-28T06:38:39.0000000+00:00</time></trkpt><trkpt lat="22.049984" lon="104.668724"><ele>76.1</ele><time>2011-04-28T06:38:44.0000000+00:00</time></trkpt><trkpt lat="22.049843" lon="104.668777"><ele>80.3</ele><time>2011-04-28T06:38:49.0000000+00:00</time></trkpt><trkpt lat="22.049679" lon="104.668831"><ele>83.7</ele><time>2011-04-28T06:38:54.0000000+00:00</time></trkpt><trkpt lat="22.049538" lon="104.668869"><ele>86.1</ele><time>2011-04-28T06:38:59.0000000+00:00</time></trkpt><trkpt lat="22.049421" lon="104.668884"><ele>91.7</ele><time>2011-04-28T06:39:04.0000000+00:00</time></trkpt><trkpt lat="22.049292" lon="104.668922"><ele>94.1</ele><time>2011-04-28T06:39:09.0000000+00:00</time></trkpt><trkpt lat="22.049129" lon="104.668999"><ele>95.5</ele><time>2011-04-28T06:39:14.0000000+00:00</time></trkpt><trkpt lat="22.048979" lon="104.669098"><ele>96.5</ele><time>2011-04-28T06:39:19.0000000+00:00</time></trkpt><trkpt lat="22.048857" lon="104.66922"><ele>97.8</ele><time>2011-04-28T06:39:24.0000000+00:00</time></trkpt><trkpt lat="22.048738" lon="104.669357"><ele>99.4</ele><time>2011-04-28T06:39:29.0000000+00:00</time></trkpt><trkpt lat="22.048573" lon="104.669464"><ele>101.3</ele><time>2011-04-28T06:39:34.0000000+00:00</time></trkpt><trkpt lat="22.048409" lon="104.669518"><ele>102.7</ele><time>2011-04-28T06:39:39.0000000+00:00</time></trkpt><trkpt lat="22.048246" lon="104.669571"><ele>105.0</ele><time>2011-04-28T06:39:44.0000000+00:00</time></trkpt><trkpt lat="22.048088" lon="104.669601"><ele>106.6</ele><time>2011-04-28T06:39:49.0000000+00:00</time></trkpt><trkpt lat="22.047956" lon="104.669632"><ele>108.4</ele><time>2011-04-28T06:39:54.0000000+00:00</time></trkpt><trkpt lat="22.047829" lon="104.669693"><ele>109.2</ele><time>2011-04-28T06:39:59.0000000+00:00</time></trkpt><trkpt lat="22.047737" lon="104.669754"><ele>110.8</ele><time>2011-04-28T06:40:04.0000000+00:00</time></trkpt><trkpt lat="22.04768" lon="104.669838"><ele>114.3</ele><time>2011-04-28T06:40:09.0000000+00:00</time></trkpt><trkpt lat="22.047625" lon="104.669983"><ele>116.0</ele><time>2011-04-28T06:40:14.0000000+00:00</time></trkpt><trkpt lat="22.047615" lon="104.670181"><ele>117.4</ele><time>2011-04-28T06:40:19.0000000+00:00</time></trkpt><trkpt lat="22.047611" lon="104.67038"><ele>118.4</ele><time>2011-04-28T06:40:24.0000000+00:00</time></trkpt><trkpt lat="22.047489" lon="104.670456"><ele>119.8</ele><time>2011-04-28T06:40:29.0000000+00:00</time></trkpt><trkpt lat="22.047363" lon="104.670486"><ele>120.9</ele><time>2011-04-28T06:40:34.0000000+00:00</time></trkpt><trkpt lat="22.047211" lon="104.670517"><ele>121.4</ele><time>2011-04-28T06:40:39.0000000+00:00</time></trkpt><trkpt lat="22.047045" lon="104.670547"><ele>121.2</ele><time>2011-04-28T06:40:44.0000000+00:00</time></trkpt><trkpt lat="22.046885" lon="104.670647"><ele>118.8</ele><time>2011-04-28T06:40:49.0000000+00:00</time></trkpt><trkpt lat="22.046726" lon="104.670761"><ele>119.2</ele><time>2011-04-28T06:40:54.0000000+00:00</time></trkpt><trkpt lat="22.046618" lon="104.670883"><ele>119.6</ele><time>2011-04-28T06:40:59.0000000+00:00</time></trkpt><trkpt lat="22.046551" lon="104.671097"><ele>121.3</ele><time>2011-04-28T06:41:04.0000000+00:00</time></trkpt><trkpt lat="22.046534" lon="104.671349"><ele>120.2</ele><time>2011-04-28T06:41:09.0000000+00:00</time></trkpt><trkpt lat="22.046448" lon="104.671486"><ele>119.7</ele><time>2011-04-28T06:41:14.0000000+00:00</time></trkpt><trkpt lat="22.046312" lon="104.671585"><ele>120.0</ele><time>2011-04-28T06:41:19.0000000+00:00</time></trkpt><trkpt lat="22.046164" lon="104.671692"><ele>120.6</ele><time>2011-04-28T06:41:24.0000000+00:00</time></trkpt><trkpt lat="22.046036" lon="104.671822"><ele>120.8</ele><time>2011-04-28T06:41:29.0000000+00:00</time></trkpt><trkpt lat="22.045933" lon="104.672005"><ele>120.9</ele><time>2011-04-28T06:41:34.0000000+00:00</time></trkpt><trkpt lat="22.045763" lon="104.672203"><ele>120.9</ele><time>2011-04-28T06:41:39.0000000+00:00</time></trkpt><trkpt lat="22.045519" lon="104.672302"><ele>119.7</ele><time>2011-04-28T06:41:44.0000000+00:00</time></trkpt><trkpt lat="22.045303" lon="104.67231"><ele>120.9</ele><time>2011-04-28T06:41:49.0000000+00:00</time></trkpt><trkpt lat="22.045074" lon="104.672241"><ele>122.0</ele><time>2011-04-28T06:41:54.0000000+00:00</time></trkpt><trkpt lat="22.044819" lon="104.672173"><ele>125.1</ele><time>2011-04-28T06:41:59.0000000+00:00</time></trkpt><trkpt lat="22.044525" lon="104.67218"><ele>125.1</ele><time>2011-04-28T06:42:04.0000000+00:00</time></trkpt><trkpt lat="22.044294" lon="104.672302"><ele>125.6</ele><time>2011-04-28T06:42:09.0000000+00:00</time></trkpt><trkpt lat="22.044136" lon="104.67244"><ele>126.9</ele><time>2011-04-28T06:42:14.0000000+00:00</time></trkpt><trkpt lat="22.044014" lon="104.672569"><ele>128.5</ele><time>2011-04-28T06:42:19.0000000+00:00</time></trkpt><trkpt lat="22.0439" lon="104.672783"><ele>129.1</ele><time>2011-04-28T06:42:24.0000000+00:00</time></trkpt><trkpt lat="22.043846" lon="104.672974"><ele>129.6</ele><time>2011-04-28T06:42:29.0000000+00:00</time></trkpt><trkpt lat="22.043802" lon="104.67318"><ele>130.1</ele><time>2011-04-28T06:42:34.0000000+00:00</time></trkpt><trkpt lat="22.043732" lon="104.673401"><ele>130.7</ele><time>2011-04-28T06:42:39.0000000+00:00</time></trkpt><trkpt lat="22.043577" lon="104.673584"><ele>131.6</ele><time>2011-04-28T06:42:44.0000000+00:00</time></trkpt><trkpt lat="22.043404" lon="104.673721"><ele>131.6</ele><time>2011-04-28T06:42:49.0000000+00:00</time></trkpt><trkpt lat="22.043203" lon="104.67382"><ele>131.5</ele><time>2011-04-28T06:42:54.0000000+00:00</time></trkpt><trkpt lat="22.043007" lon="104.673958"><ele>131.0</ele><time>2011-04-28T06:42:59.0000000+00:00</time></trkpt><trkpt lat="22.042852" lon="104.67411"><ele>130.2</ele><time>2011-04-28T06:43:04.0000000+00:00</time></trkpt><trkpt lat="22.042788" lon="104.674339"><ele>129.5</ele><time>2011-04-28T06:43:09.0000000+00:00</time></trkpt><trkpt lat="22.04282" lon="104.674614"><ele>127.7</ele><time>2011-04-28T06:43:14.0000000+00:00</time></trkpt><trkpt lat="22.042877" lon="104.674866"><ele>127.7</ele><time>2011-04-28T06:43:19.0000000+00:00</time></trkpt><trkpt lat="22.042921" lon="104.675125"><ele>127.6</ele><time>2011-04-28T06:43:24.0000000+00:00</time></trkpt><trkpt lat="22.042934" lon="104.675377"><ele>126.0</ele><time>2011-04-28T06:43:29.0000000+00:00</time></trkpt><trkpt lat="22.042847" lon="104.675575"><ele>125.4</ele><time>2011-04-28T06:43:34.0000000+00:00</time></trkpt><trkpt lat="22.042648" lon="104.675674"><ele>125.1</ele><time>2011-04-28T06:43:39.0000000+00:00</time></trkpt><trkpt lat="22.04249" lon="104.675728"><ele>124.5</ele><time>2011-04-28T06:43:44.0000000+00:00</time></trkpt><trkpt lat="22.042311" lon="104.675842"><ele>125.2</ele><time>2011-04-28T06:43:49.0000000+00:00</time></trkpt><trkpt lat="22.042181" lon="104.675995"><ele>125.3</ele><time>2011-04-28T06:43:54.0000000+00:00</time></trkpt><trkpt lat="22.042078" lon="104.676155"><ele>124.9</ele><time>2011-04-28T06:43:59.0000000+00:00</time></trkpt><trkpt lat="22.041981" lon="104.676323"><ele>126.1</ele><time>2011-04-28T06:44:04.0000000+00:00</time></trkpt><trkpt lat="22.041838" lon="104.676521"><ele>125.9</ele><time>2011-04-28T06:44:09.0000000+00:00</time></trkpt><trkpt lat="22.041767" lon="104.676735"><ele>127.2</ele><time>2011-04-28T06:44:14.0000000+00:00</time></trkpt><trkpt lat="22.041765" lon="104.676987"><ele>128.2</ele><time>2011-04-28T06:44:19.0000000+00:00</time></trkpt><trkpt lat="22.041742" lon="104.67717"><ele>129.6</ele><time>2011-04-28T06:44:24.0000000+00:00</time></trkpt><trkpt lat="22.041651" lon="104.677361"><ele>130.4</ele><time>2011-04-28T06:44:29.0000000+00:00</time></trkpt><trkpt lat="22.041553" lon="104.677521"><ele>131.1</ele><time>2011-04-28T06:44:34.0000000+00:00</time></trkpt><trkpt lat="22.041412" lon="104.677643"><ele>131.5</ele><time>2011-04-28T06:44:39.0000000+00:00</time></trkpt><trkpt lat="22.041361" lon="104.677856"><ele>131.8</ele><time>2011-04-28T06:44:44.0000000+00:00</time></trkpt><trkpt lat="22.041418" lon="104.67804"><ele>132.4</ele><time>2011-04-28T06:44:49.0000000+00:00</time></trkpt><trkpt lat="22.041422" lon="104.678253"><ele>132.4</ele><time>2011-04-28T06:44:54.0000000+00:00</time></trkpt><trkpt lat="22.041317" lon="104.678452"><ele>134.0</ele><time>2011-04-28T06:44:59.0000000+00:00</time></trkpt><trkpt lat="22.041189" lon="104.678688"><ele>135.3</ele><time>2011-04-28T06:45:04.0000000+00:00</time></trkpt><trkpt lat="22.041086" lon="104.678925"><ele>135.8</ele><time>2011-04-28T06:45:09.0000000+00:00</time></trkpt><trkpt lat="22.041052" lon="104.679207"><ele>135.6</ele><time>2011-04-28T06:45:14.0000000+00:00</time></trkpt><trkpt lat="22.041035" lon="104.679443"><ele>135.3</ele><time>2011-04-28T06:45:19.0000000+00:00</time></trkpt><trkpt lat="22.041004" lon="104.679657"><ele>135.1</ele><time>2011-04-28T06:45:24.0000000+00:00</time></trkpt><trkpt lat="22.04096" lon="104.679848"><ele>135.5</ele><time>2011-04-28T06:45:29.0000000+00:00</time></trkpt><trkpt lat="22.04089" lon="104.680031"><ele>137.8</ele><time>2011-04-28T06:45:34.0000000+00:00</time></trkpt><trkpt lat="22.04077" lon="104.680191"><ele>139.9</ele><time>2011-04-28T06:45:39.0000000+00:00</time></trkpt><trkpt lat="22.040651" lon="104.680359"><ele>140.9</ele><time>2011-04-28T06:45:44.0000000+00:00</time></trkpt><trkpt lat="22.04044" lon="104.680527"><ele>143.0</ele><time>2011-04-28T06:45:49.0000000+00:00</time></trkpt><trkpt lat="22.040234" lon="104.680649"><ele>145.3</ele><time>2011-04-28T06:45:54.0000000+00:00</time></trkpt><trkpt lat="22.040134" lon="104.680824"><ele>147.6</ele><time>2011-04-28T06:45:59.0000000+00:00</time></trkpt><trkpt lat="22.040117" lon="104.680962"><ele>148.1</ele><time>2011-04-28T06:46:04.0000000+00:00</time></trkpt><trkpt lat="22.040056" lon="104.681168"><ele>148.0</ele><time>2011-04-28T06:46:09.0000000+00:00</time></trkpt><trkpt lat="22.039982" lon="104.681473"><ele>145.7</ele><time>2011-04-28T06:46:14.0000000+00:00</time></trkpt><trkpt lat="22.039902" lon="104.681801"><ele>144.0</ele><time>2011-04-28T06:46:19.0000000+00:00</time></trkpt><trkpt lat="22.039833" lon="104.682137"><ele>143.4</ele><time>2011-04-28T06:46:24.0000000+00:00</time></trkpt><trkpt lat="22.039688" lon="104.682434"><ele>142.8</ele><time>2011-04-28T06:46:29.0000000+00:00</time></trkpt><trkpt lat="22.03953" lon="104.682716"><ele>143.7</ele><time>2011-04-28T06:46:34.0000000+00:00</time></trkpt><trkpt lat="22.039333" lon="104.683052"><ele>142.7</ele><time>2011-04-28T06:46:39.0000000+00:00</time></trkpt><trkpt lat="22.039162" lon="104.683395"><ele>141.8</ele><time>2011-04-28T06:46:44.0000000+00:00</time></trkpt><trkpt lat="22.039021" lon="104.683769"><ele>139.1</ele><time>2011-04-28T06:46:49.0000000+00:00</time></trkpt><trkpt lat="22.03882" lon="104.684067"><ele>138.0</ele><time>2011-04-28T06:46:54.0000000+00:00</time></trkpt><trkpt lat="22.038565" lon="104.684303"><ele>137.4</ele><time>2011-04-28T06:46:59.0000000+00:00</time></trkpt><trkpt lat="22.038319" lon="104.684532"><ele>137.1</ele><time>2011-04-28T06:47:04.0000000+00:00</time></trkpt><trkpt lat="22.03813" lon="104.684837"><ele>135.5</ele><time>2011-04-28T06:47:09.0000000+00:00</time></trkpt><trkpt lat="22.03801" lon="104.685143"><ele>135.3</ele><time>2011-04-28T06:47:14.0000000+00:00</time></trkpt><trkpt lat="22.037985" lon="104.685493"><ele>134.2</ele><time>2011-04-28T06:47:19.0000000+00:00</time></trkpt><trkpt lat="22.037952" lon="104.685791"><ele>134.7</ele><time>2011-04-28T06:47:24.0000000+00:00</time></trkpt><trkpt lat="22.037798" lon="104.686028"><ele>135.0</ele><time>2011-04-28T06:47:29.0000000+00:00</time></trkpt><trkpt lat="22.03759" lon="104.686249"><ele>136.5</ele><time>2011-04-28T06:47:34.0000000+00:00</time></trkpt><trkpt lat="22.037373" lon="104.68644"><ele>137.4</ele><time>2011-04-28T06:47:39.0000000+00:00</time></trkpt><trkpt lat="22.037193" lon="104.68663"><ele>138.3</ele><time>2011-04-28T06:47:44.0000000+00:00</time></trkpt><trkpt lat="22.037163" lon="104.686897"><ele>138.5</ele><time>2011-04-28T06:47:49.0000000+00:00</time></trkpt><trkpt lat="22.037153" lon="104.687172"><ele>137.7</ele><time>2011-04-28T06:47:54.0000000+00:00</time></trkpt><trkpt lat="22.037004" lon="104.687431"><ele>137.4</ele><time>2011-04-28T06:47:59.0000000+00:00</time></trkpt><trkpt lat="22.036755" lon="104.687668"><ele>137.5</ele><time>2011-04-28T06:48:04.0000000+00:00</time></trkpt><trkpt lat="22.036467" lon="104.687935"><ele>137.8</ele><time>2011-04-28T06:48:09.0000000+00:00</time></trkpt><trkpt lat="22.03624" lon="104.688232"><ele>138.7</ele><time>2011-04-28T06:48:14.0000000+00:00</time></trkpt><trkpt lat="22.036184" lon="104.688576"><ele>140.3</ele><time>2011-04-28T06:48:19.0000000+00:00</time></trkpt><trkpt lat="22.036104" lon="104.688881"><ele>140.2</ele><time>2011-04-28T06:48:24.0000000+00:00</time></trkpt><trkpt lat="22.035866" lon="104.689026"><ele>142.2</ele><time>2011-04-28T06:48:29.0000000+00:00</time></trkpt><trkpt lat="22.035574" lon="104.689072"><ele>140.5</ele><time>2011-04-28T06:48:34.0000000+00:00</time></trkpt><trkpt lat="22.035276" lon="104.689125"><ele>138.1</ele><time>2011-04-28T06:48:39.0000000+00:00</time></trkpt><trkpt lat="22.034933" lon="104.689331"><ele>137.8</ele><time>2011-04-28T06:48:44.0000000+00:00</time></trkpt><trkpt lat="22.034634" lon="104.689606"><ele>137.1</ele><time>2011-04-28T06:48:49.0000000+00:00</time></trkpt><trkpt lat="22.034437" lon="104.689934"><ele>134.2</ele><time>2011-04-28T06:48:54.0000000+00:00</time></trkpt><trkpt lat="22.03447" lon="104.690392"><ele>129.4</ele><time>2011-04-28T06:48:59.0000000+00:00</time></trkpt><trkpt lat="22.034317" lon="104.690636"><ele>125.2</ele><time>2011-04-28T06:49:04.0000000+00:00</time></trkpt><trkpt lat="22.034019" lon="104.690697"><ele>120.5</ele><time>2011-04-28T06:49:09.0000000+00:00</time></trkpt><trkpt lat="22.033728" lon="104.690941"><ele>118.3</ele><time>2011-04-28T06:49:14.0000000+00:00</time></trkpt><trkpt lat="22.033436" lon="104.691208"><ele>116.8</ele><time>2011-04-28T06:49:19.0000000+00:00</time></trkpt><trkpt lat="22.033224" lon="104.691521"><ele>116.4</ele><time>2011-04-28T06:49:24.0000000+00:00</time></trkpt><trkpt lat="22.033062" lon="104.69194"><ele>116.7</ele><time>2011-04-28T06:49:29.0000000+00:00</time></trkpt><trkpt lat="22.032722" lon="104.692169"><ele>117.0</ele><time>2011-04-28T06:49:34.0000000+00:00</time></trkpt><trkpt lat="22.032351" lon="104.692352"><ele>117.3</ele><time>2011-04-28T06:49:39.0000000+00:00</time></trkpt><trkpt lat="22.032024" lon="104.692543"><ele>116.1</ele><time>2011-04-28T06:49:44.0000000+00:00</time></trkpt><trkpt lat="22.031984" lon="104.692848"><ele>115.2</ele><time>2011-04-28T06:49:49.0000000+00:00</time></trkpt><trkpt lat="22.032089" lon="104.693245"><ele>110.0</ele><time>2011-04-28T06:49:54.0000000+00:00</time></trkpt><trkpt lat="22.032179" lon="104.693604"><ele>107.3</ele><time>2011-04-28T06:49:59.0000000+00:00</time></trkpt><trkpt lat="22.032253" lon="104.693954"><ele>105.8</ele><time>2011-04-28T06:50:04.0000000+00:00</time></trkpt><trkpt lat="22.032272" lon="104.694374"><ele>105.5</ele><time>2011-04-28T06:50:09.0000000+00:00</time></trkpt><trkpt lat="22.032221" lon="104.694794"><ele>106.4</ele><time>2011-04-28T06:50:14.0000000+00:00</time></trkpt><trkpt lat="22.032108" lon="104.695091"><ele>106.9</ele><time>2011-04-28T06:50:19.0000000+00:00</time></trkpt><trkpt lat="22.031981" lon="104.695274"><ele>108.3</ele><time>2011-04-28T06:50:24.0000000+00:00</time></trkpt><trkpt lat="22.031925" lon="104.695351"><ele>109.2</ele><time>2011-04-28T06:50:29.0000000+00:00</time></trkpt><trkpt lat="22.031807" lon="104.695496"><ele>111.1</ele><time>2011-04-28T06:50:34.0000000+00:00</time></trkpt><trkpt lat="22.031536" lon="104.695633"><ele>112.2</ele><time>2011-04-28T06:50:39.0000000+00:00</time></trkpt><trkpt lat="22.031275" lon="104.6959"><ele>113.2</ele><time>2011-04-28T06:50:44.0000000+00:00</time></trkpt><trkpt lat="22.031052" lon="104.696327"><ele>113.6</ele><time>2011-04-28T06:50:49.0000000+00:00</time></trkpt><trkpt lat="22.030739" lon="104.696739"><ele>115.2</ele><time>2011-04-28T06:50:54.0000000+00:00</time></trkpt><trkpt lat="22.030529" lon="104.697258"><ele>114.5</ele><time>2011-04-28T06:50:59.0000000+00:00</time></trkpt><trkpt lat="22.030518" lon="104.697723"><ele>112.4</ele><time>2011-04-28T06:51:04.0000000+00:00</time></trkpt><trkpt lat="22.030476" lon="104.698166"><ele>111.5</ele><time>2011-04-28T06:51:09.0000000+00:00</time></trkpt><trkpt lat="22.030329" lon="104.698532"><ele>110.3</ele><time>2011-04-28T06:51:14.0000000+00:00</time></trkpt><trkpt lat="22.030121" lon="104.698708"><ele>107.2</ele><time>2011-04-28T06:51:19.0000000+00:00</time></trkpt><trkpt lat="22.030073" lon="104.699013"><ele>105.8</ele><time>2011-04-28T06:51:24.0000000+00:00</time></trkpt><trkpt lat="22.030273" lon="104.699272"><ele>103.5</ele><time>2011-04-28T06:51:29.0000000+00:00</time></trkpt><trkpt lat="22.030313" lon="104.699539"><ele>101.5</ele><time>2011-04-28T06:51:34.0000000+00:00</time></trkpt><trkpt lat="22.030029" lon="104.699791"><ele>99.4</ele><time>2011-04-28T06:51:39.0000000+00:00</time></trkpt><trkpt lat="22.029716" lon="104.70015"><ele>97.8</ele><time>2011-04-28T06:51:44.0000000+00:00</time></trkpt><trkpt lat="22.02948" lon="104.700493"><ele>95.9</ele><time>2011-04-28T06:51:49.0000000+00:00</time></trkpt><trkpt lat="22.029314" lon="104.700859"><ele>94.1</ele><time>2011-04-28T06:51:54.0000000+00:00</time></trkpt><trkpt lat="22.029108" lon="104.701256"><ele>92.1</ele><time>2011-04-28T06:51:59.0000000+00:00</time></trkpt><trkpt lat="22.028887" lon="104.701607"><ele>90.3</ele><time>2011-04-28T06:52:04.0000000+00:00</time></trkpt><trkpt lat="22.028791" lon="104.702209"><ele>87.0</ele><time>2011-04-28T06:52:09.0000000+00:00</time></trkpt><trkpt lat="22.028572" lon="104.702698"><ele>85.5</ele><time>2011-04-28T06:52:14.0000000+00:00</time></trkpt><trkpt lat="22.028191" lon="104.702988"><ele>84.1</ele><time>2011-04-28T06:52:19.0000000+00:00</time></trkpt><trkpt lat="22.027874" lon="104.703209"><ele>82.6</ele><time>2011-04-28T06:52:24.0000000+00:00</time></trkpt><trkpt lat="22.02758" lon="104.703308"><ele>80.9</ele><time>2011-04-28T06:52:29.0000000+00:00</time></trkpt><trkpt lat="22.027388" lon="104.703316"><ele>78.3</ele><time>2011-04-28T06:52:34.0000000+00:00</time></trkpt><trkpt lat="22.027189" lon="104.703239"><ele>76.0</ele><time>2011-04-28T06:52:39.0000000+00:00</time></trkpt><trkpt lat="22.027025" lon="104.703171"><ele>76.1</ele><time>2011-04-28T06:52:44.0000000+00:00</time></trkpt><trkpt lat="22.026875" lon="104.703079"><ele>75.2</ele><time>2011-04-28T06:52:49.0000000+00:00</time></trkpt><trkpt lat="22.026741" lon="104.703041"><ele>76.3</ele><time>2011-04-28T06:52:54.0000000+00:00</time></trkpt><trkpt lat="22.026613" lon="104.703011"><ele>76.8</ele><time>2011-04-28T06:52:59.0000000+00:00</time></trkpt><trkpt lat="22.026442" lon="104.702957"><ele>78.7</ele><time>2011-04-28T06:53:04.0000000+00:00</time></trkpt><trkpt lat="22.026299" lon="104.70298"><ele>78.5</ele><time>2011-04-28T06:53:09.0000000+00:00</time></trkpt><trkpt lat="22.026155" lon="104.703011"><ele>79.1</ele><time>2011-04-28T06:53:14.0000000+00:00</time></trkpt><trkpt lat="22.026024" lon="104.703033"><ele>79.4</ele><time>2011-04-28T06:53:19.0000000+00:00</time></trkpt><trkpt lat="22.025917" lon="104.703049"><ele>80.6</ele><time>2011-04-28T06:53:24.0000000+00:00</time></trkpt><trkpt lat="22.025818" lon="104.703072"><ele>81.3</ele><time>2011-04-28T06:53:29.0000000+00:00</time></trkpt><trkpt lat="22.025717" lon="104.703072"><ele>83.4</ele><time>2011-04-28T06:53:34.0000000+00:00</time></trkpt><trkpt lat="22.025539" lon="104.703041"><ele>82.2</ele><time>2011-04-28T06:53:39.0000000+00:00</time></trkpt><trkpt lat="22.025427" lon="104.703079"><ele>81.6</ele><time>2011-04-28T06:53:44.0000000+00:00</time></trkpt><trkpt lat="22.025303" lon="104.703117"><ele>81.2</ele><time>2011-04-28T06:53:49.0000000+00:00</time></trkpt><trkpt lat="22.025148" lon="104.703178"><ele>80.4</ele><time>2011-04-28T06:53:54.0000000+00:00</time></trkpt><trkpt lat="22.025042" lon="104.703308"><ele>80.8</ele><time>2011-04-28T06:53:59.0000000+00:00</time></trkpt><trkpt lat="22.024979" lon="104.703522"><ele>79.8</ele><time>2011-04-28T06:54:04.0000000+00:00</time></trkpt><trkpt lat="22.024893" lon="104.703743"><ele>79.9</ele><time>2011-04-28T06:54:09.0000000+00:00</time></trkpt><trkpt lat="22.024731" lon="104.703957"><ele>79.7</ele><time>2011-04-28T06:54:14.0000000+00:00</time></trkpt><trkpt lat="22.024559" lon="104.70414"><ele>79.9</ele><time>2011-04-28T06:54:19.0000000+00:00</time></trkpt><trkpt lat="22.024405" lon="104.704315"><ele>79.8</ele><time>2011-04-28T06:54:24.0000000+00:00</time></trkpt><trkpt lat="22.024267" lon="104.704491"><ele>79.3</ele><time>2011-04-28T06:54:29.0000000+00:00</time></trkpt><trkpt lat="22.024136" lon="104.704643"><ele>78.7</ele><time>2011-04-28T06:54:34.0000000+00:00</time></trkpt><trkpt lat="22.024036" lon="104.704803"><ele>77.9</ele><time>2011-04-28T06:54:39.0000000+00:00</time></trkpt><trkpt lat="22.023947" lon="104.704933"><ele>78.5</ele><time>2011-04-28T06:54:44.0000000+00:00</time></trkpt><trkpt lat="22.023849" lon="104.705063"><ele>77.9</ele><time>2011-04-28T06:54:49.0000000+00:00</time></trkpt><trkpt lat="22.023724" lon="104.705162"><ele>78.5</ele><time>2011-04-28T06:54:54.0000000+00:00</time></trkpt><trkpt lat="22.02363" lon="104.705223"><ele>78.0</ele><time>2011-04-28T06:54:59.0000000+00:00</time></trkpt><trkpt lat="22.023495" lon="104.705284"><ele>79.1</ele><time>2011-04-28T06:55:04.0000000+00:00</time></trkpt><trkpt lat="22.023323" lon="104.705345"><ele>79.4</ele><time>2011-04-28T06:55:09.0000000+00:00</time></trkpt><trkpt lat="22.02318" lon="104.705444"><ele>79.1</ele><time>2011-04-28T06:55:14.0000000+00:00</time></trkpt><trkpt lat="22.023104" lon="104.705627"><ele>75.2</ele><time>2011-04-28T06:55:19.0000000+00:00</time></trkpt><trkpt lat="22.023104" lon="104.705833"><ele>75.9</ele><time>2011-04-28T06:55:24.0000000+00:00</time></trkpt><trkpt lat="22.023115" lon="104.706039"><ele>76.4</ele><time>2011-04-28T06:55:29.0000000+00:00</time></trkpt><trkpt lat="22.023132" lon="104.706238"><ele>77.1</ele><time>2011-04-28T06:55:34.0000000+00:00</time></trkpt><trkpt lat="22.023132" lon="104.706436"><ele>77.7</ele><time>2011-04-28T06:55:39.0000000+00:00</time></trkpt><trkpt lat="22.02314" lon="104.706589"><ele>77.6</ele><time>2011-04-28T06:55:44.0000000+00:00</time></trkpt><trkpt lat="22.023132" lon="104.706734"><ele>77.5</ele><time>2011-04-28T06:55:49.0000000+00:00</time></trkpt><trkpt lat="22.022915" lon="104.706886"><ele>76.6</ele><time>2011-04-28T06:55:54.0000000+00:00</time></trkpt><trkpt lat="22.022638" lon="104.706871"><ele>76.8</ele><time>2011-04-28T06:55:59.0000000+00:00</time></trkpt><trkpt lat="22.022404" lon="104.706947"><ele>76.3</ele><time>2011-04-28T06:56:04.0000000+00:00</time></trkpt><trkpt lat="22.022255" lon="104.707222"><ele>75.3</ele><time>2011-04-28T06:56:09.0000000+00:00</time></trkpt><trkpt lat="22.022085" lon="104.707497"><ele>76.1</ele><time>2011-04-28T06:56:14.0000000+00:00</time></trkpt><trkpt lat="22.021906" lon="104.707726"><ele>76.4</ele><time>2011-04-28T06:56:19.0000000+00:00</time></trkpt><trkpt lat="22.021736" lon="104.707932"><ele>76.7</ele><time>2011-04-28T06:56:24.0000000+00:00</time></trkpt><trkpt lat="22.021605" lon="104.708107"><ele>76.8</ele><time>2011-04-28T06:56:29.0000000+00:00</time></trkpt><trkpt lat="22.02146" lon="104.708275"><ele>75.2</ele><time>2011-04-28T06:56:34.0000000+00:00</time></trkpt><trkpt lat="22.02132" lon="104.708435"><ele>74.0</ele><time>2011-04-28T06:56:39.0000000+00:00</time></trkpt><trkpt lat="22.021187" lon="104.708618"><ele>72.8</ele><time>2011-04-28T06:56:44.0000000+00:00</time></trkpt><trkpt lat="22.021023" lon="104.708778"><ele>71.1</ele><time>2011-04-28T06:56:49.0000000+00:00</time></trkpt><trkpt lat="22.020781" lon="104.708847"><ele>75.0</ele><time>2011-04-28T06:56:54.0000000+00:00</time></trkpt><trkpt lat="22.020573" lon="104.708847"><ele>76.8</ele><time>2011-04-28T06:56:59.0000000+00:00</time></trkpt><trkpt lat="22.020388" lon="104.708916"><ele>77.3</ele><time>2011-04-28T06:57:04.0000000+00:00</time></trkpt><trkpt lat="22.020239" lon="104.709068"><ele>76.3</ele><time>2011-04-28T06:57:09.0000000+00:00</time></trkpt><trkpt lat="22.020164" lon="104.709259"><ele>76.0</ele><time>2011-04-28T06:57:14.0000000+00:00</time></trkpt><trkpt lat="22.020185" lon="104.709503"><ele>76.5</ele><time>2011-04-28T06:57:19.0000000+00:00</time></trkpt><trkpt lat="22.020216" lon="104.709724"><ele>77.2</ele><time>2011-04-28T06:57:24.0000000+00:00</time></trkpt><trkpt lat="22.020178" lon="104.709961"><ele>77.1</ele><time>2011-04-28T06:57:29.0000000+00:00</time></trkpt><trkpt lat="22.020067" lon="104.710152"><ele>77.2</ele><time>2011-04-28T06:57:34.0000000+00:00</time></trkpt><trkpt lat="22.019955" lon="104.710373"><ele>75.5</ele><time>2011-04-28T06:57:39.0000000+00:00</time></trkpt><trkpt lat="22.019859" lon="104.710556"><ele>75.6</ele><time>2011-04-28T06:57:44.0000000+00:00</time></trkpt><trkpt lat="22.019785" lon="104.710693"><ele>75.1</ele><time>2011-04-28T06:57:49.0000000+00:00</time></trkpt><trkpt lat="22.019707" lon="104.710823"><ele>75.5</ele><time>2011-04-28T06:57:54.0000000+00:00</time></trkpt><trkpt lat="22.019615" lon="104.710907"><ele>77.2</ele><time>2011-04-28T06:57:59.0000000+00:00</time></trkpt><trkpt lat="22.019535" lon="104.710999"><ele>77.8</ele><time>2011-04-28T06:58:04.0000000+00:00</time></trkpt><trkpt lat="22.019436" lon="104.711082"><ele>78.5</ele><time>2011-04-28T06:58:09.0000000+00:00</time></trkpt><trkpt lat="22.019325" lon="104.711121"><ele>79.5</ele><time>2011-04-28T06:58:14.0000000+00:00</time></trkpt><trkpt lat="22.019222" lon="104.711136"><ele>80.5</ele><time>2011-04-28T06:58:19.0000000+00:00</time></trkpt><trkpt lat="22.019135" lon="104.711113"><ele>82.3</ele><time>2011-04-28T06:58:24.0000000+00:00</time></trkpt><trkpt lat="22.019028" lon="104.711121"><ele>84.0</ele><time>2011-04-28T06:58:29.0000000+00:00</time></trkpt><trkpt lat="22.018942" lon="104.711159"><ele>84.2</ele><time>2011-04-28T06:58:34.0000000+00:00</time></trkpt><trkpt lat="22.01886" lon="104.71122"><ele>84.5</ele><time>2011-04-28T06:58:39.0000000+00:00</time></trkpt><trkpt lat="22.018774" lon="104.711311"><ele>84.0</ele><time>2011-04-28T06:58:44.0000000+00:00</time></trkpt><trkpt lat="22.018698" lon="104.711403"><ele>83.6</ele><time>2011-04-28T06:58:49.0000000+00:00</time></trkpt><trkpt lat="22.018604" lon="104.711487"><ele>84.5</ele><time>2011-04-28T06:58:54.0000000+00:00</time></trkpt><trkpt lat="22.018507" lon="104.711517"><ele>84.9</ele><time>2011-04-28T06:58:59.0000000+00:00</time></trkpt><trkpt lat="22.018402" lon="104.711563"><ele>87.7</ele><time>2011-04-28T06:59:04.0000000+00:00</time></trkpt><trkpt lat="22.018291" lon="104.711578"><ele>87.2</ele><time>2011-04-28T06:59:09.0000000+00:00</time></trkpt><trkpt lat="22.018194" lon="104.711601"><ele>86.0</ele><time>2011-04-28T06:59:14.0000000+00:00</time></trkpt><trkpt lat="22.018095" lon="104.71167"><ele>85.5</ele><time>2011-04-28T06:59:19.0000000+00:00</time></trkpt><trkpt lat="22.017986" lon="104.711716"><ele>89.1</ele><time>2011-04-28T06:59:24.0000000+00:00</time></trkpt><trkpt lat="22.0179" lon="104.711769"><ele>91.2</ele><time>2011-04-28T06:59:29.0000000+00:00</time></trkpt><trkpt lat="22.017796" lon="104.711823"><ele>92.3</ele><time>2011-04-28T06:59:34.0000000+00:00</time></trkpt><trkpt lat="22.017693" lon="104.711853"><ele>91.4</ele><time>2011-04-28T06:59:39.0000000+00:00</time></trkpt><trkpt lat="22.017576" lon="104.711929"><ele>90.8</ele><time>2011-04-28T06:59:44.0000000+00:00</time></trkpt><trkpt lat="22.017475" lon="104.712006"><ele>91.6</ele><time>2011-04-28T06:59:49.0000000+00:00</time></trkpt><trkpt lat="22.017403" lon="104.712082"><ele>90.5</ele><time>2011-04-28T06:59:54.0000000+00:00</time></trkpt><trkpt lat="22.017342" lon="104.712151"><ele>91.6</ele><time>2011-04-28T06:59:59.0000000+00:00</time></trkpt><trkpt lat="22.017315" lon="104.712257"><ele>90.8</ele><time>2011-04-28T07:00:04.0000000+00:00</time></trkpt><trkpt lat="22.01733" lon="104.712364"><ele>90.6</ele><time>2011-04-28T07:00:09.0000000+00:00</time></trkpt><trkpt lat="22.017336" lon="104.712486"><ele>90.3</ele><time>2011-04-28T07:00:14.0000000+00:00</time></trkpt><trkpt lat="22.017342" lon="104.712616"><ele>90.5</ele><time>2011-04-28T07:00:19.0000000+00:00</time></trkpt><trkpt lat="22.017326" lon="104.712723"><ele>90.7</ele><time>2011-04-28T07:00:24.0000000+00:00</time></trkpt><trkpt lat="22.017284" lon="104.712845"><ele>91.3</ele><time>2011-04-28T07:00:29.0000000+00:00</time></trkpt><trkpt lat="22.017199" lon="104.712914"><ele>93.1</ele><time>2011-04-28T07:00:34.0000000+00:00</time></trkpt><trkpt lat="22.017094" lon="104.712944"><ele>94.5</ele><time>2011-04-28T07:00:39.0000000+00:00</time></trkpt><trkpt lat="22.016979" lon="104.712959"><ele>96.1</ele><time>2011-04-28T07:00:44.0000000+00:00</time></trkpt><trkpt lat="22.016912" lon="104.712967"><ele>100.0</ele><time>2011-04-28T07:00:49.0000000+00:00</time></trkpt><trkpt lat="22.016846" lon="104.71299"><ele>102.3</ele><time>2011-04-28T07:00:54.0000000+00:00</time></trkpt><trkpt lat="22.016783" lon="104.71302"><ele>104.6</ele><time>2011-04-28T07:00:59.0000000+00:00</time></trkpt><trkpt lat="22.016718" lon="104.713074"><ele>103.8</ele><time>2011-04-28T07:01:04.0000000+00:00</time></trkpt><trkpt lat="22.016661" lon="104.71312"><ele>104.4</ele><time>2011-04-28T07:01:09.0000000+00:00</time></trkpt><trkpt lat="22.016615" lon="104.713158"><ele>103.2</ele><time>2011-04-28T07:01:14.0000000+00:00</time></trkpt><trkpt lat="22.016552" lon="104.713188"><ele>103.7</ele><time>2011-04-28T07:01:19.0000000+00:00</time></trkpt><trkpt lat="22.016516" lon="104.713211"><ele>103.5</ele><time>2011-04-28T07:01:24.0000000+00:00</time></trkpt><trkpt lat="22.016514" lon="104.713211"><ele>103.0</ele><time>2011-04-28T07:01:29.0000000+00:00</time></trkpt><trkpt lat="22.016512" lon="104.713219"><ele>103.1</ele><time>2011-04-28T07:01:34.0000000+00:00</time></trkpt><trkpt lat="22.01651" lon="104.713219"><ele>103.1</ele><time>2011-04-28T07:01:39.0000000+00:00</time></trkpt><trkpt lat="22.01651" lon="104.713219"><ele>103.1</ele><time>2011-04-28T07:01:44.0000000+00:00</time></trkpt><trkpt lat="22.016508" lon="104.713219"><ele>103.0</ele><time>2011-04-28T07:01:49.0000000+00:00</time></trkpt><trkpt lat="22.016506" lon="104.713219"><ele>103.0</ele><time>2011-04-28T07:01:54.0000000+00:00</time></trkpt><trkpt lat="22.016497" lon="104.713219"><ele>103.0</ele><time>2011-04-28T07:01:59.0000000+00:00</time></trkpt><trkpt lat="22.016455" lon="104.713272"><ele>102.9</ele><time>2011-04-28T07:02:04.0000000+00:00</time></trkpt><trkpt lat="22.016363" lon="104.713341"><ele>102.2</ele><time>2011-04-28T07:02:09.0000000+00:00</time></trkpt><trkpt lat="22.016277" lon="104.713394"><ele>101.9</ele><time>2011-04-28T07:02:14.0000000+00:00</time></trkpt><trkpt lat="22.016193" lon="104.713463"><ele>102.8</ele><time>2011-04-28T07:02:19.0000000+00:00</time></trkpt><trkpt lat="22.016108" lon="104.713516"><ele>102.7</ele><time>2011-04-28T07:02:24.0000000+00:00</time></trkpt><trkpt lat="22.016012" lon="104.713554"><ele>103.3</ele><time>2011-04-28T07:02:29.0000000+00:00</time></trkpt><trkpt lat="22.015919" lon="104.713585"><ele>105.1</ele><time>2011-04-28T07:02:34.0000000+00:00</time></trkpt><trkpt lat="22.015823" lon="104.713615"><ele>106.2</ele><time>2011-04-28T07:02:39.0000000+00:00</time></trkpt><trkpt lat="22.015726" lon="104.713654"><ele>106.9</ele><time>2011-04-28T07:02:44.0000000+00:00</time></trkpt><trkpt lat="22.015635" lon="104.713707"><ele>108.5</ele><time>2011-04-28T07:02:49.0000000+00:00</time></trkpt><trkpt lat="22.015537" lon="104.71373"><ele>110.4</ele><time>2011-04-28T07:02:54.0000000+00:00</time></trkpt><trkpt lat="22.015438" lon="104.713776"><ele>111.5</ele><time>2011-04-28T07:02:59.0000000+00:00</time></trkpt><trkpt lat="22.015354" lon="104.713814"><ele>113.7</ele><time>2011-04-28T07:03:04.0000000+00:00</time></trkpt><trkpt lat="22.015282" lon="104.713867"><ele>115.3</ele><time>2011-04-28T07:03:09.0000000+00:00</time></trkpt><trkpt lat="22.015213" lon="104.713913"><ele>116.0</ele><time>2011-04-28T07:03:14.0000000+00:00</time></trkpt><trkpt lat="22.01519" lon="104.713928"><ele>114.4</ele><time>2011-04-28T07:03:19.0000000+00:00</time></trkpt><trkpt lat="22.01519" lon="104.713928"><ele>113.9</ele><time>2011-04-28T07:03:24.0000000+00:00</time></trkpt><trkpt lat="22.015192" lon="104.713928"><ele>113.8</ele><time>2011-04-28T07:03:29.0000000+00:00</time></trkpt><trkpt lat="22.015194" lon="104.713928"><ele>113.8</ele><time>2011-04-28T07:03:34.0000000+00:00</time></trkpt><trkpt lat="22.015194" lon="104.713928"><ele>113.8</ele><time>2011-04-28T07:03:39.0000000+00:00</time></trkpt><trkpt lat="22.015194" lon="104.713928"><ele>113.8</ele><time>2011-04-28T07:03:44.0000000+00:00</time></trkpt><trkpt lat="22.015194" lon="104.713928"><ele>113.8</ele><time>2011-04-28T07:03:49.0000000+00:00</time></trkpt><trkpt lat="22.015194" lon="104.713928"><ele>113.7</ele><time>2011-04-28T07:03:54.0000000+00:00</time></trkpt><trkpt lat="22.015194" lon="104.713928"><ele>113.7</ele><time>2011-04-28T07:03:59.0000000+00:00</time></trkpt><trkpt lat="22.015194" lon="104.713928"><ele>113.7</ele><time>2011-04-28T07:04:04.0000000+00:00</time></trkpt><trkpt lat="22.015194" lon="104.713928"><ele>113.7</ele><time>2011-04-28T07:04:09.0000000+00:00</time></trkpt><trkpt lat="22.015146" lon="104.714035"><ele>114.0</ele><time>2011-04-28T07:04:14.0000000+00:00</time></trkpt><trkpt lat="22.0151" lon="104.71418"><ele>113.9</ele><time>2011-04-28T07:04:19.0000000+00:00</time></trkpt><trkpt lat="22.015059" lon="104.714325"><ele>113.7</ele><time>2011-04-28T07:04:24.0000000+00:00</time></trkpt><trkpt lat="22.015038" lon="104.714485"><ele>112.9</ele><time>2011-04-28T07:04:29.0000000+00:00</time></trkpt><trkpt lat="22.01502" lon="104.71463"><ele>113.3</ele><time>2011-04-28T07:04:34.0000000+00:00</time></trkpt><trkpt lat="22.015001" lon="104.71476"><ele>113.6</ele><time>2011-04-28T07:04:39.0000000+00:00</time></trkpt><trkpt lat="22.014996" lon="104.714912"><ele>114.0</ele><time>2011-04-28T07:04:44.0000000+00:00</time></trkpt><trkpt lat="22.014977" lon="104.715042"><ele>115.5</ele><time>2011-04-28T07:04:49.0000000+00:00</time></trkpt><trkpt lat="22.014973" lon="104.715172"><ele>115.1</ele><time>2011-04-28T07:04:54.0000000+00:00</time></trkpt><trkpt lat="22.014952" lon="104.715302"><ele>114.7</ele><time>2011-04-28T07:04:59.0000000+00:00</time></trkpt><trkpt lat="22.014902" lon="104.715462"><ele>113.8</ele><time>2011-04-28T07:05:04.0000000+00:00</time></trkpt><trkpt lat="22.014765" lon="104.715591"><ele>114.8</ele><time>2011-04-28T07:05:09.0000000+00:00</time></trkpt><trkpt lat="22.01465" lon="104.715622"><ele>116.4</ele><time>2011-04-28T07:05:14.0000000+00:00</time></trkpt><trkpt lat="22.014576" lon="104.715584"><ele>118.1</ele><time>2011-04-28T07:05:19.0000000+00:00</time></trkpt><trkpt lat="22.014509" lon="104.715538"><ele>118.3</ele><time>2011-04-28T07:05:24.0000000+00:00</time></trkpt><trkpt lat="22.014414" lon="104.715485"><ele>123.3</ele><time>2011-04-28T07:05:29.0000000+00:00</time></trkpt><trkpt lat="22.014275" lon="104.715477"><ele>125.7</ele><time>2011-04-28T07:05:34.0000000+00:00</time></trkpt><trkpt lat="22.014185" lon="104.715584"><ele>126.0</ele><time>2011-04-28T07:05:39.0000000+00:00</time></trkpt><trkpt lat="22.01413" lon="104.715675"><ele>125.9</ele><time>2011-04-28T07:05:44.0000000+00:00</time></trkpt><trkpt lat="22.014086" lon="104.71579"><ele>125.6</ele><time>2011-04-28T07:05:49.0000000+00:00</time></trkpt><trkpt lat="22.014042" lon="104.715897"><ele>125.1</ele><time>2011-04-28T07:05:54.0000000+00:00</time></trkpt><trkpt lat="22.013996" lon="104.716011"><ele>124.9</ele><time>2011-04-28T07:05:59.0000000+00:00</time></trkpt><trkpt lat="22.013935" lon="104.71611"><ele>124.7</ele><time>2011-04-28T07:06:04.0000000+00:00</time></trkpt><trkpt lat="22.013845" lon="104.716217"><ele>124.7</ele><time>2011-04-28T07:06:09.0000000+00:00</time></trkpt><trkpt lat="22.013721" lon="104.716293"><ele>124.9</ele><time>2011-04-28T07:06:14.0000000+00:00</time></trkpt><trkpt lat="22.013594" lon="104.716347"><ele>125.0</ele><time>2011-04-28T07:06:19.0000000+00:00</time></trkpt><trkpt lat="22.013474" lon="104.716423"><ele>125.7</ele><time>2011-04-28T07:06:24.0000000+00:00</time></trkpt><trkpt lat="22.013395" lon="104.716484"><ele>127.8</ele><time>2011-04-28T07:06:29.0000000+00:00</time></trkpt><trkpt lat="22.013327" lon="104.716576"><ele>128.1</ele><time>2011-04-28T07:06:34.0000000+00:00</time></trkpt><trkpt lat="22.013248" lon="104.71669"><ele>129.7</ele><time>2011-04-28T07:06:39.0000000+00:00</time></trkpt><trkpt lat="22.013165" lon="104.716797"><ele>130.8</ele><time>2011-04-28T07:06:44.0000000+00:00</time></trkpt><trkpt lat="22.013065" lon="104.716911"><ele>132.8</ele><time>2011-04-28T07:06:49.0000000+00:00</time></trkpt><trkpt lat="22.012978" lon="104.717018"><ele>132.9</ele><time>2011-04-28T07:06:54.0000000+00:00</time></trkpt><trkpt lat="22.01288" lon="104.717087"><ele>133.4</ele><time>2011-04-28T07:06:59.0000000+00:00</time></trkpt><trkpt lat="22.012775" lon="104.717148"><ele>134.3</ele><time>2011-04-28T07:07:04.0000000+00:00</time></trkpt><trkpt lat="22.012669" lon="104.717194"><ele>135.5</ele><time>2011-04-28T07:07:09.0000000+00:00</time></trkpt><trkpt lat="22.012564" lon="104.717201"><ele>138.5</ele><time>2011-04-28T07:07:14.0000000+00:00</time></trkpt><trkpt lat="22.012451" lon="104.717194"><ele>141.5</ele><time>2011-04-28T07:07:19.0000000+00:00</time></trkpt><trkpt lat="22.012367" lon="104.717201"><ele>143.3</ele><time>2011-04-28T07:07:24.0000000+00:00</time></trkpt><trkpt lat="22.012266" lon="104.717194"><ele>146.5</ele><time>2011-04-28T07:07:29.0000000+00:00</time></trkpt><trkpt lat="22.012156" lon="104.717186"><ele>148.3</ele><time>2011-04-28T07:07:34.0000000+00:00</time></trkpt><trkpt lat="22.012026" lon="104.717171"><ele>151.3</ele><time>2011-04-28T07:07:39.0000000+00:00</time></trkpt><trkpt lat="22.011911" lon="104.71714"><ele>154.4</ele><time>2011-04-28T07:07:44.0000000+00:00</time></trkpt><trkpt lat="22.011776" lon="104.717102"><ele>156.0</ele><time>2011-04-28T07:07:49.0000000+00:00</time></trkpt><trkpt lat="22.011641" lon="104.717072"><ele>156.5</ele><time>2011-04-28T07:07:54.0000000+00:00</time></trkpt><trkpt lat="22.011522" lon="104.717041"><ele>157.8</ele><time>2011-04-28T07:07:59.0000000+00:00</time></trkpt><trkpt lat="22.011379" lon="104.717056"><ele>158.2</ele><time>2011-04-28T07:08:04.0000000+00:00</time></trkpt><trkpt lat="22.011269" lon="104.717133"><ele>157.1</ele><time>2011-04-28T07:08:09.0000000+00:00</time></trkpt><trkpt lat="22.011219" lon="104.717171"><ele>156.9</ele><time>2011-04-28T07:08:14.0000000+00:00</time></trkpt><trkpt lat="22.011204" lon="104.717163"><ele>157.2</ele><time>2011-04-28T07:08:19.0000000+00:00</time></trkpt><trkpt lat="22.011198" lon="104.717155"><ele>157.4</ele><time>2011-04-28T07:08:24.0000000+00:00</time></trkpt><trkpt lat="22.011198" lon="104.717148"><ele>157.4</ele><time>2011-04-28T07:08:29.0000000+00:00</time></trkpt><trkpt lat="22.0112" lon="104.71714"><ele>157.4</ele><time>2011-04-28T07:08:34.0000000+00:00</time></trkpt><trkpt lat="22.011196" lon="104.71714"><ele>157.3</ele><time>2011-04-28T07:08:39.0000000+00:00</time></trkpt><trkpt lat="22.01119" lon="104.717133"><ele>157.3</ele><time>2011-04-28T07:08:44.0000000+00:00</time></trkpt><trkpt lat="22.01119" lon="104.717125"><ele>157.3</ele><time>2011-04-28T07:08:49.0000000+00:00</time></trkpt><trkpt lat="22.011198" lon="104.717125"><ele>157.2</ele><time>2011-04-28T07:08:54.0000000+00:00</time></trkpt><trkpt lat="22.0112" lon="104.717133"><ele>157.2</ele><time>2011-04-28T07:08:59.0000000+00:00</time></trkpt><trkpt lat="22.011206" lon="104.717133"><ele>157.1</ele><time>2011-04-28T07:09:04.0000000+00:00</time></trkpt><trkpt lat="22.011219" lon="104.71714"><ele>157.1</ele><time>2011-04-28T07:09:09.0000000+00:00</time></trkpt><trkpt lat="22.011229" lon="104.717148"><ele>157.1</ele><time>2011-04-28T07:09:14.0000000+00:00</time></trkpt><trkpt lat="22.011238" lon="104.717148"><ele>157.1</ele><time>2011-04-28T07:09:19.0000000+00:00</time></trkpt><trkpt lat="22.01124" lon="104.71714"><ele>157.1</ele><time>2011-04-28T07:09:24.0000000+00:00</time></trkpt><trkpt lat="22.011236" lon="104.71714"><ele>157.2</ele><time>2011-04-28T07:09:29.0000000+00:00</time></trkpt><trkpt lat="22.011221" lon="104.71714"><ele>157.2</ele><time>2011-04-28T07:09:34.0000000+00:00</time></trkpt><trkpt lat="22.011221" lon="104.71714"><ele>157.2</ele><time>2011-04-28T07:09:39.0000000+00:00</time></trkpt><trkpt lat="22.011225" lon="104.71714"><ele>157.2</ele><time>2011-04-28T07:09:44.0000000+00:00</time></trkpt><trkpt lat="22.01123" lon="104.71714"><ele>157.3</ele><time>2011-04-28T07:09:49.0000000+00:00</time></trkpt><trkpt lat="22.011238" lon="104.71714"><ele>157.3</ele><time>2011-04-28T07:09:54.0000000+00:00</time></trkpt><trkpt lat="22.011251" lon="104.717148"><ele>157.3</ele><time>2011-04-28T07:09:59.0000000+00:00</time></trkpt><trkpt lat="22.011263" lon="104.717155"><ele>157.4</ele><time>2011-04-28T07:10:04.0000000+00:00</time></trkpt><trkpt lat="22.011271" lon="104.717163"><ele>157.5</ele><time>2011-04-28T07:10:09.0000000+00:00</time></trkpt><trkpt lat="22.011276" lon="104.717163"><ele>157.7</ele><time>2011-04-28T07:10:14.0000000+00:00</time></trkpt><trkpt lat="22.01128" lon="104.717171"><ele>157.8</ele><time>2011-04-28T07:10:19.0000000+00:00</time></trkpt><trkpt lat="22.011278" lon="104.717171"><ele>157.9</ele><time>2011-04-28T07:10:24.0000000+00:00</time></trkpt><trkpt lat="22.01128" lon="104.717178"><ele>158.0</ele><time>2011-04-28T07:10:29.0000000+00:00</time></trkpt><trkpt lat="22.01128" lon="104.717171"><ele>158.1</ele><time>2011-04-28T07:10:34.0000000+00:00</time></trkpt><trkpt lat="22.011278" lon="104.717171"><ele>158.2</ele><time>2011-04-28T07:10:39.0000000+00:00</time></trkpt><trkpt lat="22.011276" lon="104.717163"><ele>158.4</ele><time>2011-04-28T07:10:44.0000000+00:00</time></trkpt><trkpt lat="22.011272" lon="104.717163"><ele>158.6</ele><time>2011-04-28T07:10:49.0000000+00:00</time></trkpt><trkpt lat="22.011271" lon="104.717155"><ele>158.7</ele><time>2011-04-28T07:10:54.0000000+00:00</time></trkpt><trkpt lat="22.011272" lon="104.717155"><ele>158.8</ele><time>2011-04-28T07:10:59.0000000+00:00</time></trkpt><trkpt lat="22.011274" lon="104.717163"><ele>158.9</ele><time>2011-04-28T07:11:04.0000000+00:00</time></trkpt><trkpt lat="22.011276" lon="104.717163"><ele>158.9</ele><time>2011-04-28T07:11:09.0000000+00:00</time></trkpt><trkpt lat="22.011276" lon="104.717163"><ele>158.9</ele><time>2011-04-28T07:11:14.0000000+00:00</time></trkpt><trkpt lat="22.011276" lon="104.717163"><ele>159.0</ele><time>2011-04-28T07:11:19.0000000+00:00</time></trkpt><trkpt lat="22.011276" lon="104.717155"><ele>159.0</ele><time>2011-04-28T07:11:24.0000000+00:00</time></trkpt><trkpt lat="22.011276" lon="104.717155"><ele>159.0</ele><time>2011-04-28T07:11:29.0000000+00:00</time></trkpt><trkpt lat="22.011278" lon="104.717155"><ele>159.1</ele><time>2011-04-28T07:11:34.0000000+00:00</time></trkpt><trkpt lat="22.011278" lon="104.717155"><ele>159.1</ele><time>2011-04-28T07:11:39.0000000+00:00</time></trkpt><trkpt lat="22.01128" lon="104.717155"><ele>159.1</ele><time>2011-04-28T07:11:44.0000000+00:00</time></trkpt><trkpt lat="22.01128" lon="104.717155"><ele>159.2</ele><time>2011-04-28T07:11:49.0000000+00:00</time></trkpt><trkpt lat="22.01128" lon="104.717155"><ele>159.2</ele><time>2011-04-28T07:11:54.0000000+00:00</time></trkpt><trkpt lat="22.01128" lon="104.717155"><ele>159.2</ele><time>2011-04-28T07:11:59.0000000+00:00</time></trkpt><trkpt lat="22.01128" lon="104.717155"><ele>159.2</ele><time>2011-04-28T07:12:04.0000000+00:00</time></trkpt><trkpt lat="22.01128" lon="104.717155"><ele>159.2</ele><time>2011-04-28T07:12:09.0000000+00:00</time></trkpt><trkpt lat="22.01128" lon="104.717155"><ele>159.2</ele><time>2011-04-28T07:12:14.0000000+00:00</time></trkpt><trkpt lat="22.01128" lon="104.717155"><ele>159.2</ele><time>2011-04-28T07:12:19.0000000+00:00</time></trkpt><trkpt lat="22.01128" lon="104.717155"><ele>159.2</ele><time>2011-04-28T07:12:24.0000000+00:00</time></trkpt><trkpt lat="22.01128" lon="104.717155"><ele>159.2</ele><time>2011-04-28T07:12:29.0000000+00:00</time></trkpt><trkpt lat="22.01128" lon="104.717155"><ele>159.2</ele><time>2011-04-28T07:12:34.0000000+00:00</time></trkpt><trkpt lat="22.01128" lon="104.717155"><ele>159.2</ele><time>2011-04-28T07:12:39.0000000+00:00</time></trkpt><trkpt lat="22.01128" lon="104.717155"><ele>159.2</ele><time>2011-04-28T07:12:44.0000000+00:00</time></trkpt><trkpt lat="22.01128" lon="104.717155"><ele>159.2</ele><time>2011-04-28T07:12:49.0000000+00:00</time></trkpt><trkpt lat="22.01128" lon="104.717155"><ele>159.1</ele><time>2011-04-28T07:12:54.0000000+00:00</time></trkpt><trkpt lat="22.01128" lon="104.717155"><ele>159.1</ele><time>2011-04-28T07:12:59.0000000+00:00</time></trkpt><trkpt lat="22.01128" lon="104.717155"><ele>159.1</ele><time>2011-04-28T07:13:04.0000000+00:00</time></trkpt><trkpt lat="22.01128" lon="104.717155"><ele>159.1</ele><time>2011-04-28T07:13:09.0000000+00:00</time></trkpt><trkpt lat="22.01128" lon="104.717155"><ele>159.1</ele><time>2011-04-28T07:13:14.0000000+00:00</time></trkpt><trkpt lat="22.011278" lon="104.717155"><ele>159.1</ele><time>2011-04-28T07:13:19.0000000+00:00</time></trkpt><trkpt lat="22.011278" lon="104.717155"><ele>159.1</ele><time>2011-04-28T07:13:24.0000000+00:00</time></trkpt><trkpt lat="22.011278" lon="104.717155"><ele>159.1</ele><time>2011-04-28T07:13:29.0000000+00:00</time></trkpt><trkpt lat="22.011278" lon="104.717155"><ele>159.1</ele><time>2011-04-28T07:13:34.0000000+00:00</time></trkpt><trkpt lat="22.011278" lon="104.717155"><ele>159.0</ele><time>2011-04-28T07:13:39.0000000+00:00</time></trkpt><trkpt lat="22.011278" lon="104.717155"><ele>159.0</ele><time>2011-04-28T07:13:44.0000000+00:00</time></trkpt><trkpt lat="22.011276" lon="104.717155"><ele>159.0</ele><time>2011-04-28T07:13:49.0000000+00:00</time></trkpt><trkpt lat="22.011276" lon="104.717155"><ele>159.0</ele><time>2011-04-28T07:13:54.0000000+00:00</time></trkpt><trkpt lat="22.011276" lon="104.717155"><ele>158.9</ele><time>2011-04-28T07:13:59.0000000+00:00</time></trkpt><trkpt lat="22.011276" lon="104.717155"><ele>158.9</ele><time>2011-04-28T07:14:04.0000000+00:00</time></trkpt><trkpt lat="22.011276" lon="104.717155"><ele>158.9</ele><time>2011-04-28T07:14:09.0000000+00:00</time></trkpt><trkpt lat="22.011276" lon="104.717155"><ele>158.9</ele><time>2011-04-28T07:14:14.0000000+00:00</time></trkpt><trkpt lat="22.011276" lon="104.717155"><ele>159.0</ele><time>2011-04-28T07:14:19.0000000+00:00</time></trkpt><trkpt lat="22.011276" lon="104.717155"><ele>159.0</ele><time>2011-04-28T07:14:24.0000000+00:00</time></trkpt><trkpt lat="22.011276" lon="104.717155"><ele>159.0</ele><time>2011-04-28T07:14:29.0000000+00:00</time></trkpt><trkpt lat="22.011276" lon="104.717155"><ele>159.0</ele><time>2011-04-28T07:14:34.0000000+00:00</time></trkpt><trkpt lat="22.011276" lon="104.717155"><ele>158.9</ele><time>2011-04-28T07:14:39.0000000+00:00</time></trkpt><trkpt lat="22.011276" lon="104.717155"><ele>158.9</ele><time>2011-04-28T07:14:44.0000000+00:00</time></trkpt><trkpt lat="22.011276" lon="104.717155"><ele>158.9</ele><time>2011-04-28T07:14:49.0000000+00:00</time></trkpt><trkpt lat="22.011274" lon="104.717155"><ele>158.9</ele><time>2011-04-28T07:14:54.0000000+00:00</time></trkpt><trkpt lat="22.011274" lon="104.717155"><ele>158.9</ele><time>2011-04-28T07:14:59.0000000+00:00</time></trkpt><trkpt lat="22.011274" lon="104.717155"><ele>158.9</ele><time>2011-04-28T07:15:04.0000000+00:00</time></trkpt><trkpt lat="22.011274" lon="104.717155"><ele>158.9</ele><time>2011-04-28T07:15:09.0000000+00:00</time></trkpt><trkpt lat="22.011274" lon="104.717155"><ele>158.9</ele><time>2011-04-28T07:15:14.0000000+00:00</time></trkpt><trkpt lat="22.011274" lon="104.717155"><ele>158.9</ele><time>2011-04-28T07:15:19.0000000+00:00</time></trkpt><trkpt lat="22.011274" lon="104.717155"><ele>158.9</ele><time>2011-04-28T07:15:24.0000000+00:00</time></trkpt><trkpt lat="22.011274" lon="104.717155"><ele>158.9</ele><time>2011-04-28T07:15:29.0000000+00:00</time></trkpt><trkpt lat="22.011276" lon="104.717155"><ele>158.9</ele><time>2011-04-28T07:15:34.0000000+00:00</time></trkpt><trkpt lat="22.011276" lon="104.717155"><ele>158.9</ele><time>2011-04-28T07:15:39.0000000+00:00</time></trkpt><trkpt lat="22.011276" lon="104.717155"><ele>158.9</ele><time>2011-04-28T07:15:44.0000000+00:00</time></trkpt><trkpt lat="22.011276" lon="104.717155"><ele>158.9</ele><time>2011-04-28T07:15:49.0000000+00:00</time></trkpt><trkpt lat="22.011276" lon="104.717155"><ele>158.9</ele><time>2011-04-28T07:15:54.0000000+00:00</time></trkpt><trkpt lat="22.011276" lon="104.717155"><ele>158.9</ele><time>2011-04-28T07:15:59.0000000+00:00</time></trkpt><trkpt lat="22.011278" lon="104.717155"><ele>159.0</ele><time>2011-04-28T07:16:04.0000000+00:00</time></trkpt><trkpt lat="22.011278" lon="104.717155"><ele>159.0</ele><time>2011-04-28T07:16:09.0000000+00:00</time></trkpt><trkpt lat="22.011278" lon="104.717155"><ele>159.0</ele><time>2011-04-28T07:16:14.0000000+00:00</time></trkpt><trkpt lat="22.01128" lon="104.717155"><ele>159.0</ele><time>2011-04-28T07:16:19.0000000+00:00</time></trkpt><trkpt lat="22.01128" lon="104.717155"><ele>159.1</ele><time>2011-04-28T07:16:24.0000000+00:00</time></trkpt><trkpt lat="22.01128" lon="104.717155"><ele>159.1</ele><time>2011-04-28T07:16:29.0000000+00:00</time></trkpt><trkpt lat="22.01128" lon="104.717155"><ele>159.1</ele><time>2011-04-28T07:16:34.0000000+00:00</time></trkpt><trkpt lat="22.01128" lon="104.717155"><ele>159.1</ele><time>2011-04-28T07:16:39.0000000+00:00</time></trkpt><trkpt lat="22.01128" lon="104.717155"><ele>159.1</ele><time>2011-04-28T07:16:44.0000000+00:00</time></trkpt><trkpt lat="22.011282" lon="104.717155"><ele>159.1</ele><time>2011-04-28T07:16:49.0000000+00:00</time></trkpt><trkpt lat="22.011282" lon="104.717155"><ele>159.2</ele><time>2011-04-28T07:16:54.0000000+00:00</time></trkpt><trkpt lat="22.011282" lon="104.717155"><ele>159.2</ele><time>2011-04-28T07:16:59.0000000+00:00</time></trkpt><trkpt lat="22.011282" lon="104.717155"><ele>159.2</ele><time>2011-04-28T07:17:04.0000000+00:00</time></trkpt><trkpt lat="22.011284" lon="104.717155"><ele>159.2</ele><time>2011-04-28T07:17:09.0000000+00:00</time></trkpt><trkpt lat="22.011284" lon="104.717155"><ele>159.3</ele><time>2011-04-28T07:17:14.0000000+00:00</time></trkpt><trkpt lat="22.011284" lon="104.717155"><ele>159.3</ele><time>2011-04-28T07:17:19.0000000+00:00</time></trkpt><trkpt lat="22.011284" lon="104.717155"><ele>159.3</ele><time>2011-04-28T07:17:24.0000000+00:00</time></trkpt><trkpt lat="22.011284" lon="104.717155"><ele>159.3</ele><time>2011-04-28T07:17:29.0000000+00:00</time></trkpt><trkpt lat="22.011284" lon="104.717155"><ele>159.3</ele><time>2011-04-28T07:17:34.0000000+00:00</time></trkpt><trkpt lat="22.011284" lon="104.717155"><ele>159.3</ele><time>2011-04-28T07:17:39.0000000+00:00</time></trkpt><trkpt lat="22.011284" lon="104.717155"><ele>159.3</ele><time>2011-04-28T07:17:44.0000000+00:00</time></trkpt><trkpt lat="22.011286" lon="104.717155"><ele>159.3</ele><time>2011-04-28T07:17:49.0000000+00:00</time></trkpt><trkpt lat="22.011286" lon="104.717155"><ele>159.3</ele><time>2011-04-28T07:17:54.0000000+00:00</time></trkpt><trkpt lat="22.011286" lon="104.717155"><ele>159.3</ele><time>2011-04-28T07:17:59.0000000+00:00</time></trkpt><trkpt lat="22.011286" lon="104.717155"><ele>159.3</ele><time>2011-04-28T07:18:04.0000000+00:00</time></trkpt><trkpt lat="22.011286" lon="104.717155"><ele>159.3</ele><time>2011-04-28T07:18:09.0000000+00:00</time></trkpt><trkpt lat="22.011288" lon="104.717155"><ele>159.4</ele><time>2011-04-28T07:18:14.0000000+00:00</time></trkpt><trkpt lat="22.011288" lon="104.717155"><ele>159.4</ele><time>2011-04-28T07:18:19.0000000+00:00</time></trkpt><trkpt lat="22.01129" lon="104.717155"><ele>159.4</ele><time>2011-04-28T07:18:24.0000000+00:00</time></trkpt><trkpt lat="22.01129" lon="104.717155"><ele>159.5</ele><time>2011-04-28T07:18:29.0000000+00:00</time></trkpt><trkpt lat="22.01129" lon="104.717155"><ele>159.5</ele><time>2011-04-28T07:18:34.0000000+00:00</time></trkpt><trkpt lat="22.01129" lon="104.717155"><ele>159.5</ele><time>2011-04-28T07:18:39.0000000+00:00</time></trkpt><trkpt lat="22.01129" lon="104.717148"><ele>159.5</ele><time>2011-04-28T07:18:44.0000000+00:00</time></trkpt><trkpt lat="22.011288" lon="104.717148"><ele>159.5</ele><time>2011-04-28T07:18:49.0000000+00:00</time></trkpt><trkpt lat="22.011288" lon="104.717148"><ele>159.5</ele><time>2011-04-28T07:18:54.0000000+00:00</time></trkpt><trkpt lat="22.011288" lon="104.717148"><ele>159.4</ele><time>2011-04-28T07:18:59.0000000+00:00</time></trkpt><trkpt lat="22.011286" lon="104.717148"><ele>159.4</ele><time>2011-04-28T07:19:04.0000000+00:00</time></trkpt><trkpt lat="22.011282" lon="104.717148"><ele>159.3</ele><time>2011-04-28T07:19:09.0000000+00:00</time></trkpt><trkpt lat="22.011278" lon="104.717148"><ele>159.1</ele><time>2011-04-28T07:19:14.0000000+00:00</time></trkpt><trkpt lat="22.011271" lon="104.717148"><ele>158.9</ele><time>2011-04-28T07:19:19.0000000+00:00</time></trkpt><trkpt lat="22.011267" lon="104.717148"><ele>158.7</ele><time>2011-04-28T07:19:24.0000000+00:00</time></trkpt><trkpt lat="22.011265" lon="104.717148"><ele>158.6</ele><time>2011-04-28T07:19:29.0000000+00:00</time></trkpt><trkpt lat="22.011265" lon="104.717148"><ele>158.6</ele><time>2011-04-28T07:19:34.0000000+00:00</time></trkpt><trkpt lat="22.011265" lon="104.717148"><ele>158.6</ele><time>2011-04-28T07:19:39.0000000+00:00</time></trkpt><trkpt lat="22.011265" lon="104.717148"><ele>158.6</ele><time>2011-04-28T07:19:44.0000000+00:00</time></trkpt><trkpt lat="22.011265" lon="104.717148"><ele>158.6</ele><time>2011-04-28T07:19:49.0000000+00:00</time></trkpt><trkpt lat="22.011265" lon="104.717148"><ele>158.6</ele><time>2011-04-28T07:19:54.0000000+00:00</time></trkpt><trkpt lat="22.011265" lon="104.717148"><ele>158.6</ele><time>2011-04-28T07:19:59.0000000+00:00</time></trkpt><trkpt lat="22.011265" lon="104.717148"><ele>158.6</ele><time>2011-04-28T07:20:04.0000000+00:00</time></trkpt><trkpt lat="22.011265" lon="104.717148"><ele>158.6</ele><time>2011-04-28T07:20:09.0000000+00:00</time></trkpt><trkpt lat="22.011265" lon="104.717148"><ele>158.6</ele><time>2011-04-28T07:20:14.0000000+00:00</time></trkpt><trkpt lat="22.011265" lon="104.717148"><ele>158.5</ele><time>2011-04-28T07:20:19.0000000+00:00</time></trkpt><trkpt lat="22.011265" lon="104.717148"><ele>158.5</ele><time>2011-04-28T07:20:24.0000000+00:00</time></trkpt><trkpt lat="22.011215" lon="104.717232"><ele>157.1</ele><time>2011-04-28T07:20:29.0000000+00:00</time></trkpt><trkpt lat="22.011078" lon="104.717438"><ele>154.2</ele><time>2011-04-28T07:20:34.0000000+00:00</time></trkpt><trkpt lat="22.010931" lon="104.717674"><ele>151.3</ele><time>2011-04-28T07:20:39.0000000+00:00</time></trkpt><trkpt lat="22.010702" lon="104.717873"><ele>149.2</ele><time>2011-04-28T07:20:44.0000000+00:00</time></trkpt><trkpt lat="22.010515" lon="104.718132"><ele>145.5</ele><time>2011-04-28T07:20:49.0000000+00:00</time></trkpt><trkpt lat="22.010351" lon="104.718475"><ele>141.9</ele><time>2011-04-28T07:20:54.0000000+00:00</time></trkpt><trkpt lat="22.010286" lon="104.718811"><ele>137.7</ele><time>2011-04-28T07:20:59.0000000+00:00</time></trkpt><trkpt lat="22.010538" lon="104.719109"><ele>132.7</ele><time>2011-04-28T07:21:04.0000000+00:00</time></trkpt><trkpt lat="22.010859" lon="104.719315"><ele>130.5</ele><time>2011-04-28T07:21:09.0000000+00:00</time></trkpt><trkpt lat="22.010984" lon="104.719597"><ele>128.6</ele><time>2011-04-28T07:21:14.0000000+00:00</time></trkpt><trkpt lat="22.010794" lon="104.719841"><ele>123.0</ele><time>2011-04-28T07:21:19.0000000+00:00</time></trkpt><trkpt lat="22.010511" lon="104.71994"><ele>115.8</ele><time>2011-04-28T07:21:24.0000000+00:00</time></trkpt><trkpt lat="22.010208" lon="104.720062"><ele>111.1</ele><time>2011-04-28T07:21:29.0000000+00:00</time></trkpt><trkpt lat="22.009932" lon="104.720314"><ele>107.9</ele><time>2011-04-28T07:21:34.0000000+00:00</time></trkpt><trkpt lat="22.009722" lon="104.720512"><ele>106.5</ele><time>2011-04-28T07:21:39.0000000+00:00</time></trkpt><trkpt lat="22.009579" lon="104.720695"><ele>103.7</ele><time>2011-04-28T07:21:44.0000000+00:00</time></trkpt><trkpt lat="22.009439" lon="104.721046"><ele>100.2</ele><time>2011-04-28T07:21:49.0000000+00:00</time></trkpt><trkpt lat="22.009279" lon="104.721519"><ele>95.2</ele><time>2011-04-28T07:21:54.0000000+00:00</time></trkpt><trkpt lat="22.009003" lon="104.722061"><ele>91.1</ele><time>2011-04-28T07:21:59.0000000+00:00</time></trkpt><trkpt lat="22.008686" lon="104.72258"><ele>88.7</ele><time>2011-04-28T07:22:04.0000000+00:00</time></trkpt><trkpt lat="22.008413" lon="104.722916"><ele>89.4</ele><time>2011-04-28T07:22:09.0000000+00:00</time></trkpt><trkpt lat="22.008354" lon="104.723236"><ele>89.2</ele><time>2011-04-28T07:22:14.0000000+00:00</time></trkpt><trkpt lat="22.008522" lon="104.723694"><ele>88.0</ele><time>2011-04-28T07:22:19.0000000+00:00</time></trkpt><trkpt lat="22.008713" lon="104.724159"><ele>85.7</ele><time>2011-04-28T07:22:24.0000000+00:00</time></trkpt><trkpt lat="22.008801" lon="104.72464"><ele>83.8</ele><time>2011-04-28T07:22:29.0000000+00:00</time></trkpt><trkpt lat="22.00894" lon="104.725014"><ele>82.6</ele><time>2011-04-28T07:22:34.0000000+00:00</time></trkpt><trkpt lat="22.009026" lon="104.725288"><ele>80.1</ele><time>2011-04-28T07:22:39.0000000+00:00</time></trkpt><trkpt lat="22.008991" lon="104.725586"><ele>79.6</ele><time>2011-04-28T07:22:44.0000000+00:00</time></trkpt><trkpt lat="22.008905" lon="104.725906"><ele>77.0</ele><time>2011-04-28T07:22:49.0000000+00:00</time></trkpt><trkpt lat="22.008801" lon="104.726219"><ele>74.0</ele><time>2011-04-28T07:22:54.0000000+00:00</time></trkpt><trkpt lat="22.008711" lon="104.726509"><ele>73.2</ele><time>2011-04-28T07:22:59.0000000+00:00</time></trkpt><trkpt lat="22.008623" lon="104.726723"><ele>73.7</ele><time>2011-04-28T07:23:04.0000000+00:00</time></trkpt><trkpt lat="22.008484" lon="104.72702"><ele>73.2</ele><time>2011-04-28T07:23:09.0000000+00:00</time></trkpt><trkpt lat="22.008301" lon="104.727394"><ele>71.9</ele><time>2011-04-28T07:23:14.0000000+00:00</time></trkpt><trkpt lat="22.008129" lon="104.727737"><ele>71.3</ele><time>2011-04-28T07:23:19.0000000+00:00</time></trkpt><trkpt lat="22.007994" lon="104.728004"><ele>71.2</ele><time>2011-04-28T07:23:24.0000000+00:00</time></trkpt><trkpt lat="22.007868" lon="104.728249"><ele>72.0</ele><time>2011-04-28T07:23:29.0000000+00:00</time></trkpt><trkpt lat="22.007755" lon="104.728493"><ele>72.5</ele><time>2011-04-28T07:23:34.0000000+00:00</time></trkpt><trkpt lat="22.00765" lon="104.728729"><ele>73.6</ele><time>2011-04-28T07:23:39.0000000+00:00</time></trkpt><trkpt lat="22.00754" lon="104.728897"><ele>73.9</ele><time>2011-04-28T07:23:44.0000000+00:00</time></trkpt><trkpt lat="22.007406" lon="104.729057"><ele>74.9</ele><time>2011-04-28T07:23:49.0000000+00:00</time></trkpt><trkpt lat="22.007168" lon="104.729141"><ele>76.5</ele><time>2011-04-28T07:23:54.0000000+00:00</time></trkpt><trkpt lat="22.006907" lon="104.729141"><ele>78.4</ele><time>2011-04-28T07:23:59.0000000+00:00</time></trkpt><trkpt lat="22.006708" lon="104.729156"><ele>80.5</ele><time>2011-04-28T07:24:04.0000000+00:00</time></trkpt><trkpt lat="22.006536" lon="104.729225"><ele>80.9</ele><time>2011-04-28T07:24:09.0000000+00:00</time></trkpt><trkpt lat="22.006371" lon="104.729317"><ele>80.6</ele><time>2011-04-28T07:24:14.0000000+00:00</time></trkpt><trkpt lat="22.006165" lon="104.729469"><ele>81.0</ele><time>2011-04-28T07:24:19.0000000+00:00</time></trkpt><trkpt lat="22.005991" lon="104.729584"><ele>81.9</ele><time>2011-04-28T07:24:24.0000000+00:00</time></trkpt><trkpt lat="22.005812" lon="104.729675"><ele>81.6</ele><time>2011-04-28T07:24:29.0000000+00:00</time></trkpt><trkpt lat="22.005608" lon="104.729744"><ele>81.9</ele><time>2011-04-28T07:24:34.0000000+00:00</time></trkpt><trkpt lat="22.005415" lon="104.729752"><ele>84.0</ele><time>2011-04-28T07:24:39.0000000+00:00</time></trkpt><trkpt lat="22.00523" lon="104.729759"><ele>85.9</ele><time>2011-04-28T07:24:44.0000000+00:00</time></trkpt><trkpt lat="22.005035" lon="104.729736"><ele>88.4</ele><time>2011-04-28T07:24:49.0000000+00:00</time></trkpt><trkpt lat="22.004847" lon="104.729698"><ele>89.9</ele><time>2011-04-28T07:24:54.0000000+00:00</time></trkpt><trkpt lat="22.004639" lon="104.72966"><ele>91.1</ele><time>2011-04-28T07:24:59.0000000+00:00</time></trkpt><trkpt lat="22.004431" lon="104.729645"><ele>90.8</ele><time>2011-04-28T07:25:04.0000000+00:00</time></trkpt><trkpt lat="22.004253" lon="104.729721"><ele>85.7</ele><time>2011-04-28T07:25:09.0000000+00:00</time></trkpt><trkpt lat="22.004103" lon="104.729828"><ele>81.8</ele><time>2011-04-28T07:25:14.0000000+00:00</time></trkpt><trkpt lat="22.003963" lon="104.729973"><ele>77.3</ele><time>2011-04-28T07:25:19.0000000+00:00</time></trkpt><trkpt lat="22.003847" lon="104.730133"><ele>76.8</ele><time>2011-04-28T07:25:24.0000000+00:00</time></trkpt><trkpt lat="22.003752" lon="104.730339"><ele>74.8</ele><time>2011-04-28T07:25:29.0000000+00:00</time></trkpt><trkpt lat="22.003651" lon="104.73056"><ele>75.5</ele><time>2011-04-28T07:25:34.0000000+00:00</time></trkpt><trkpt lat="22.003496" lon="104.730736"><ele>78.7</ele><time>2011-04-28T07:25:39.0000000+00:00</time></trkpt><trkpt lat="22.003273" lon="104.730766"><ele>80.5</ele><time>2011-04-28T07:25:44.0000000+00:00</time></trkpt><trkpt lat="22.003084" lon="104.730782"><ele>81.9</ele><time>2011-04-28T07:25:49.0000000+00:00</time></trkpt><trkpt lat="22.002871" lon="104.730743"><ele>82.5</ele><time>2011-04-28T07:25:54.0000000+00:00</time></trkpt><trkpt lat="22.002655" lon="104.730721"><ele>83.6</ele><time>2011-04-28T07:25:59.0000000+00:00</time></trkpt><trkpt lat="22.002438" lon="104.730721"><ele>83.3</ele><time>2011-04-28T07:26:04.0000000+00:00</time></trkpt><trkpt lat="22.00222" lon="104.730812"><ele>80.3</ele><time>2011-04-28T07:26:09.0000000+00:00</time></trkpt><trkpt lat="22.001976" lon="104.730957"><ele>78.5</ele><time>2011-04-28T07:26:14.0000000+00:00</time></trkpt><trkpt lat="22.001747" lon="104.731064"><ele>77.5</ele><time>2011-04-28T07:26:19.0000000+00:00</time></trkpt><trkpt lat="22.001568" lon="104.731102"><ele>77.2</ele><time>2011-04-28T07:26:24.0000000+00:00</time></trkpt><trkpt lat="22.00141" lon="104.731155"><ele>76.4</ele><time>2011-04-28T07:26:29.0000000+00:00</time></trkpt><trkpt lat="22.001278" lon="104.731194"><ele>76.1</ele><time>2011-04-28T07:26:34.0000000+00:00</time></trkpt><trkpt lat="22.001133" lon="104.731239"><ele>77.3</ele><time>2011-04-28T07:26:39.0000000+00:00</time></trkpt><trkpt lat="22.000986" lon="104.731293"><ele>78.7</ele><time>2011-04-28T07:26:44.0000000+00:00</time></trkpt><trkpt lat="22.000845" lon="104.731369"><ele>79.4</ele><time>2011-04-28T07:26:49.0000000+00:00</time></trkpt><trkpt lat="22.000729" lon="104.7314"><ele>78.2</ele><time>2011-04-28T07:26:54.0000000+00:00</time></trkpt><trkpt lat="22.000591" lon="104.731407"><ele>77.0</ele><time>2011-04-28T07:26:59.0000000+00:00</time></trkpt><trkpt lat="22.000454" lon="104.73143"><ele>76.8</ele><time>2011-04-28T07:27:04.0000000+00:00</time></trkpt><trkpt lat="22.00028" lon="104.731468"><ele>76.5</ele><time>2011-04-28T07:27:09.0000000+00:00</time></trkpt><trkpt lat="22.000093" lon="104.73156"><ele>76.1</ele><time>2011-04-28T07:27:14.0000000+00:00</time></trkpt><trkpt lat="21.999947" lon="104.731758"><ele>76.3</ele><time>2011-04-28T07:27:19.0000000+00:00</time></trkpt><trkpt lat="21.999889" lon="104.731903"><ele>74.3</ele><time>2011-04-28T07:27:24.0000000+00:00</time></trkpt><trkpt lat="21.999861" lon="104.732033"><ele>74.4</ele><time>2011-04-28T07:27:29.0000000+00:00</time></trkpt><trkpt lat="21.999866" lon="104.732216"><ele>73.8</ele><time>2011-04-28T07:27:34.0000000+00:00</time></trkpt><trkpt lat="21.999825" lon="104.732445"><ele>74.0</ele><time>2011-04-28T07:27:39.0000000+00:00</time></trkpt><trkpt lat="21.999678" lon="104.732635"><ele>73.9</ele><time>2011-04-28T07:27:44.0000000+00:00</time></trkpt><trkpt lat="21.999407" lon="104.732803"><ele>74.1</ele><time>2011-04-28T07:27:49.0000000+00:00</time></trkpt><trkpt lat="21.999197" lon="104.732887"><ele>74.1</ele><time>2011-04-28T07:27:54.0000000+00:00</time></trkpt><trkpt lat="21.999033" lon="104.733017"><ele>74.1</ele><time>2011-04-28T07:27:59.0000000+00:00</time></trkpt><trkpt lat="21.998905" lon="104.733131"><ele>74.8</ele><time>2011-04-28T07:28:04.0000000+00:00</time></trkpt><trkpt lat="21.99876" lon="104.733269"><ele>74.4</ele><time>2011-04-28T07:28:09.0000000+00:00</time></trkpt><trkpt lat="21.998598" lon="104.733414"><ele>71.5</ele><time>2011-04-28T07:28:14.0000000+00:00</time></trkpt><trkpt lat="21.99843" lon="104.733574"><ele>73.2</ele><time>2011-04-28T07:28:19.0000000+00:00</time></trkpt><trkpt lat="21.99827" lon="104.733704"><ele>74.7</ele><time>2011-04-28T07:28:24.0000000+00:00</time></trkpt><trkpt lat="21.998085" lon="104.733826"><ele>75.0</ele><time>2011-04-28T07:28:29.0000000+00:00</time></trkpt><trkpt lat="21.997925" lon="104.73394"><ele>74.5</ele><time>2011-04-28T07:28:34.0000000+00:00</time></trkpt><trkpt lat="21.997778" lon="104.734032"><ele>74.4</ele><time>2011-04-28T07:28:39.0000000+00:00</time></trkpt><trkpt lat="21.997633" lon="104.734123"><ele>74.0</ele><time>2011-04-28T07:28:44.0000000+00:00</time></trkpt><trkpt lat="21.997526" lon="104.734192"><ele>75.4</ele><time>2011-04-28T07:28:49.0000000+00:00</time></trkpt><trkpt lat="21.997417" lon="104.734261"><ele>75.4</ele><time>2011-04-28T07:28:54.0000000+00:00</time></trkpt><trkpt lat="21.997295" lon="104.734344"><ele>75.1</ele><time>2011-04-28T07:28:59.0000000+00:00</time></trkpt><trkpt lat="21.997154" lon="104.734444"><ele>75.8</ele><time>2011-04-28T07:29:04.0000000+00:00</time></trkpt><trkpt lat="21.997023" lon="104.734566"><ele>76.5</ele><time>2011-04-28T07:29:09.0000000+00:00</time></trkpt><trkpt lat="21.996881" lon="104.73468"><ele>76.7</ele><time>2011-04-28T07:29:14.0000000+00:00</time></trkpt><trkpt lat="21.996737" lon="104.734802"><ele>76.6</ele><time>2011-04-28T07:29:19.0000000+00:00</time></trkpt><trkpt lat="21.996611" lon="104.734901"><ele>75.7</ele><time>2011-04-28T07:29:24.0000000+00:00</time></trkpt><trkpt lat="21.996511" lon="104.734978"><ele>74.8</ele><time>2011-04-28T07:29:29.0000000+00:00</time></trkpt><trkpt lat="21.996412" lon="104.735085"><ele>75.3</ele><time>2011-04-28T07:29:34.0000000+00:00</time></trkpt><trkpt lat="21.996342" lon="104.735176"><ele>76.5</ele><time>2011-04-28T07:29:39.0000000+00:00</time></trkpt><trkpt lat="21.996267" lon="104.73526"><ele>79.9</ele><time>2011-04-28T07:29:44.0000000+00:00</time></trkpt><trkpt lat="21.996143" lon="104.735359"><ele>82.8</ele><time>2011-04-28T07:29:49.0000000+00:00</time></trkpt><trkpt lat="21.996014" lon="104.735458"><ele>85.3</ele><time>2011-04-28T07:29:54.0000000+00:00</time></trkpt><trkpt lat="21.995886" lon="104.73555"><ele>87.7</ele><time>2011-04-28T07:29:59.0000000+00:00</time></trkpt><trkpt lat="21.995789" lon="104.735619"><ele>89.0</ele><time>2011-04-28T07:30:04.0000000+00:00</time></trkpt><trkpt lat="21.995687" lon="104.735641"><ele>90.3</ele><time>2011-04-28T07:30:09.0000000+00:00</time></trkpt><trkpt lat="21.995602" lon="104.735657"><ele>92.1</ele><time>2011-04-28T07:30:14.0000000+00:00</time></trkpt><trkpt lat="21.995516" lon="104.73568"><ele>93.3</ele><time>2011-04-28T07:30:19.0000000+00:00</time></trkpt><trkpt lat="21.995508" lon="104.73568"><ele>93.9</ele><time>2011-04-28T07:30:24.0000000+00:00</time></trkpt><trkpt lat="21.995508" lon="104.735687"><ele>94.5</ele><time>2011-04-28T07:30:29.0000000+00:00</time></trkpt><trkpt lat="21.995493" lon="104.735687"><ele>94.8</ele><time>2011-04-28T07:30:34.0000000+00:00</time></trkpt><trkpt lat="21.995443" lon="104.735687"><ele>95.1</ele><time>2011-04-28T07:30:39.0000000+00:00</time></trkpt><trkpt lat="21.99531" lon="104.735748"><ele>95.7</ele><time>2011-04-28T07:30:44.0000000+00:00</time></trkpt><trkpt lat="21.995232" lon="104.735802"><ele>95.3</ele><time>2011-04-28T07:30:49.0000000+00:00</time></trkpt><trkpt lat="21.995169" lon="104.735847"><ele>93.7</ele><time>2011-04-28T07:30:54.0000000+00:00</time></trkpt><trkpt lat="21.995089" lon="104.73587"><ele>93.2</ele><time>2011-04-28T07:30:59.0000000+00:00</time></trkpt><trkpt lat="21.995008" lon="104.735901"><ele>93.2</ele><time>2011-04-28T07:31:04.0000000+00:00</time></trkpt><trkpt lat="21.994938" lon="104.735931"><ele>93.1</ele><time>2011-04-28T07:31:09.0000000+00:00</time></trkpt><trkpt lat="21.994879" lon="104.735962"><ele>92.4</ele><time>2011-04-28T07:31:14.0000000+00:00</time></trkpt><trkpt lat="21.994804" lon="104.735985"><ele>91.5</ele><time>2011-04-28T07:31:19.0000000+00:00</time></trkpt><trkpt lat="21.994761" lon="104.736"><ele>91.5</ele><time>2011-04-28T07:31:24.0000000+00:00</time></trkpt><trkpt lat="21.994715" lon="104.736023"><ele>92.4</ele><time>2011-04-28T07:31:29.0000000+00:00</time></trkpt><trkpt lat="21.994659" lon="104.736023"><ele>93.0</ele><time>2011-04-28T07:31:34.0000000+00:00</time></trkpt><trkpt lat="21.994589" lon="104.736038"><ele>92.5</ele><time>2011-04-28T07:31:39.0000000+00:00</time></trkpt><trkpt lat="21.994549" lon="104.736076"><ele>93.4</ele><time>2011-04-28T07:31:44.0000000+00:00</time></trkpt><trkpt lat="21.994497" lon="104.736122"><ele>93.8</ele><time>2011-04-28T07:31:49.0000000+00:00</time></trkpt><trkpt lat="21.994442" lon="104.736153"><ele>93.8</ele><time>2011-04-28T07:31:54.0000000+00:00</time></trkpt><trkpt lat="21.99441" lon="104.73616"><ele>93.3</ele><time>2011-04-28T07:31:59.0000000+00:00</time></trkpt><trkpt lat="21.994368" lon="104.736176"><ele>94.1</ele><time>2011-04-28T07:32:04.0000000+00:00</time></trkpt><trkpt lat="21.994328" lon="104.736191"><ele>95.2</ele><time>2011-04-28T07:32:09.0000000+00:00</time></trkpt><trkpt lat="21.994263" lon="104.736221"><ele>96.4</ele><time>2011-04-28T07:32:14.0000000+00:00</time></trkpt><trkpt lat="21.994211" lon="104.736282"><ele>97.7</ele><time>2011-04-28T07:32:19.0000000+00:00</time></trkpt><trkpt lat="21.994154" lon="104.736336"><ele>98.8</ele><time>2011-04-28T07:32:24.0000000+00:00</time></trkpt><trkpt lat="21.994064" lon="104.73642"><ele>100.5</ele><time>2011-04-28T07:32:29.0000000+00:00</time></trkpt><trkpt lat="21.993999" lon="104.736473"><ele>100.3</ele><time>2011-04-28T07:32:34.0000000+00:00</time></trkpt><trkpt lat="21.993942" lon="104.736519"><ele>102.0</ele><time>2011-04-28T07:32:39.0000000+00:00</time></trkpt><trkpt lat="21.993889" lon="104.73658"><ele>103.3</ele><time>2011-04-28T07:32:44.0000000+00:00</time></trkpt><trkpt lat="21.993849" lon="104.736671"><ele>104.2</ele><time>2011-04-28T07:32:49.0000000+00:00</time></trkpt><trkpt lat="21.993813" lon="104.736816"><ele>104.2</ele><time>2011-04-28T07:32:54.0000000+00:00</time></trkpt><trkpt lat="21.99383" lon="104.73687"><ele>105.3</ele><time>2011-04-28T07:32:59.0000000+00:00</time></trkpt><trkpt lat="21.993864" lon="104.736954"><ele>106.9</ele><time>2011-04-28T07:33:04.0000000+00:00</time></trkpt><trkpt lat="21.993879" lon="104.737053"><ele>105.8</ele><time>2011-04-28T07:33:09.0000000+00:00</time></trkpt><trkpt lat="21.99387" lon="104.737068"><ele>105.1</ele><time>2011-04-28T07:33:14.0000000+00:00</time></trkpt><trkpt lat="21.993872" lon="104.737068"><ele>105.1</ele><time>2011-04-28T07:33:19.0000000+00:00</time></trkpt><trkpt lat="21.993876" lon="104.737053"><ele>105.3</ele><time>2011-04-28T07:33:24.0000000+00:00</time></trkpt><trkpt lat="21.993877" lon="104.737053"><ele>105.3</ele><time>2011-04-28T07:33:29.0000000+00:00</time></trkpt><trkpt lat="21.993877" lon="104.737061"><ele>105.3</ele><time>2011-04-28T07:33:34.0000000+00:00</time></trkpt><trkpt lat="21.993874" lon="104.737068"><ele>105.3</ele><time>2011-04-28T07:33:39.0000000+00:00</time></trkpt><trkpt lat="21.993874" lon="104.737068"><ele>105.3</ele><time>2011-04-28T07:33:44.0000000+00:00</time></trkpt><trkpt lat="21.993874" lon="104.737068"><ele>105.3</ele><time>2011-04-28T07:33:49.0000000+00:00</time></trkpt><trkpt lat="21.993877" lon="104.737068"><ele>105.7</ele><time>2011-04-28T07:33:54.0000000+00:00</time></trkpt><trkpt lat="21.993881" lon="104.737076"><ele>105.9</ele><time>2011-04-28T07:33:59.0000000+00:00</time></trkpt><trkpt lat="21.993881" lon="104.737083"><ele>105.9</ele><time>2011-04-28T07:34:04.0000000+00:00</time></trkpt><trkpt lat="21.993883" lon="104.737083"><ele>105.8</ele><time>2011-04-28T07:34:09.0000000+00:00</time></trkpt><trkpt lat="21.993879" lon="104.737083"><ele>105.7</ele><time>2011-04-28T07:34:14.0000000+00:00</time></trkpt><trkpt lat="21.993879" lon="104.737076"><ele>105.7</ele><time>2011-04-28T07:34:19.0000000+00:00</time></trkpt><trkpt lat="21.993876" lon="104.737076"><ele>105.9</ele><time>2011-04-28T07:34:24.0000000+00:00</time></trkpt><trkpt lat="21.993887" lon="104.737061"><ele>105.2</ele><time>2011-04-28T07:34:29.0000000+00:00</time></trkpt><trkpt lat="21.993883" lon="104.737061"><ele>105.2</ele><time>2011-04-28T07:34:34.0000000+00:00</time></trkpt><trkpt lat="21.993885" lon="104.737061"><ele>105.2</ele><time>2011-04-28T07:34:39.0000000+00:00</time></trkpt><trkpt lat="21.993885" lon="104.737061"><ele>105.2</ele><time>2011-04-28T07:34:44.0000000+00:00</time></trkpt><trkpt lat="21.993885" lon="104.737061"><ele>105.2</ele><time>2011-04-28T07:34:49.0000000+00:00</time></trkpt><trkpt lat="21.993885" lon="104.737061"><ele>105.2</ele><time>2011-04-28T07:34:54.0000000+00:00</time></trkpt><trkpt lat="21.993887" lon="104.737068"><ele>105.2</ele><time>2011-04-28T07:34:59.0000000+00:00</time></trkpt><trkpt lat="21.993898" lon="104.737106"><ele>105.2</ele><time>2011-04-28T07:35:04.0000000+00:00</time></trkpt><trkpt lat="21.993893" lon="104.737228"><ele>105.3</ele><time>2011-04-28T07:35:09.0000000+00:00</time></trkpt><trkpt lat="21.99382" lon="104.737396"><ele>105.6</ele><time>2011-04-28T07:35:14.0000000+00:00</time></trkpt><trkpt lat="21.993702" lon="104.737488"><ele>105.9</ele><time>2011-04-28T07:35:19.0000000+00:00</time></trkpt><trkpt lat="21.993547" lon="104.737564"><ele>106.5</ele><time>2011-04-28T07:35:24.0000000+00:00</time></trkpt><trkpt lat="21.993416" lon="104.737587"><ele>107.4</ele><time>2011-04-28T07:35:29.0000000+00:00</time></trkpt><trkpt lat="21.993307" lon="104.737595"><ele>108.4</ele><time>2011-04-28T07:35:34.0000000+00:00</time></trkpt><trkpt lat="21.993221" lon="104.737579"><ele>110.0</ele><time>2011-04-28T07:35:39.0000000+00:00</time></trkpt><trkpt lat="21.993145" lon="104.737564"><ele>110.8</ele><time>2011-04-28T07:35:44.0000000+00:00</time></trkpt><trkpt lat="21.993057" lon="104.737541"><ele>111.7</ele><time>2011-04-28T07:35:49.0000000+00:00</time></trkpt><trkpt lat="21.992987" lon="104.737534"><ele>112.9</ele><time>2011-04-28T07:35:54.0000000+00:00</time></trkpt><trkpt lat="21.992893" lon="104.737549"><ele>115.3</ele><time>2011-04-28T07:35:59.0000000+00:00</time></trkpt><trkpt lat="21.992828" lon="104.737564"><ele>116.2</ele><time>2011-04-28T07:36:04.0000000+00:00</time></trkpt><trkpt lat="21.9928" lon="104.737602"><ele>117.0</ele><time>2011-04-28T07:36:09.0000000+00:00</time></trkpt><trkpt lat="21.992779" lon="104.737633"><ele>117.8</ele><time>2011-04-28T07:36:14.0000000+00:00</time></trkpt><trkpt lat="21.992718" lon="104.737701"><ele>119.6</ele><time>2011-04-28T07:36:19.0000000+00:00</time></trkpt><trkpt lat="21.99268" lon="104.737755"><ele>120.7</ele><time>2011-04-28T07:36:24.0000000+00:00</time></trkpt><trkpt lat="21.992598" lon="104.737831"><ele>122.3</ele><time>2011-04-28T07:36:29.0000000+00:00</time></trkpt><trkpt lat="21.992537" lon="104.737915"><ele>123.2</ele><time>2011-04-28T07:36:34.0000000+00:00</time></trkpt><trkpt lat="21.992495" lon="104.737991"><ele>124.3</ele><time>2011-04-28T07:36:39.0000000+00:00</time></trkpt><trkpt lat="21.992393" lon="104.738068"><ele>127.8</ele><time>2011-04-28T07:36:44.0000000+00:00</time></trkpt><trkpt lat="21.992344" lon="104.738174"><ele>130.7</ele><time>2011-04-28T07:36:49.0000000+00:00</time></trkpt><trkpt lat="21.992304" lon="104.738289"><ele>133.1</ele><time>2011-04-28T07:36:54.0000000+00:00</time></trkpt><trkpt lat="21.992266" lon="104.738365"><ele>134.6</ele><time>2011-04-28T07:36:59.0000000+00:00</time></trkpt><trkpt lat="21.992214" lon="104.738457"><ele>136.1</ele><time>2011-04-28T07:37:04.0000000+00:00</time></trkpt><trkpt lat="21.992163" lon="104.738541"><ele>136.0</ele><time>2011-04-28T07:37:09.0000000+00:00</time></trkpt><trkpt lat="21.992096" lon="104.738609"><ele>135.3</ele><time>2011-04-28T07:37:14.0000000+00:00</time></trkpt><trkpt lat="21.992037" lon="104.738716"><ele>136.4</ele><time>2011-04-28T07:37:19.0000000+00:00</time></trkpt><trkpt lat="21.991995" lon="104.738823"><ele>136.0</ele><time>2011-04-28T07:37:24.0000000+00:00</time></trkpt><trkpt lat="21.991928" lon="104.738899"><ele>137.6</ele><time>2011-04-28T07:37:29.0000000+00:00</time></trkpt><trkpt lat="21.991848" lon="104.738991"><ele>136.4</ele><time>2011-04-28T07:37:34.0000000+00:00</time></trkpt><trkpt lat="21.991756" lon="104.739044"><ele>133.5</ele><time>2011-04-28T07:37:39.0000000+00:00</time></trkpt><trkpt lat="21.99165" lon="104.739113"><ele>132.7</ele><time>2011-04-28T07:37:44.0000000+00:00</time></trkpt><trkpt lat="21.991558" lon="104.739182"><ele>134.6</ele><time>2011-04-28T07:37:49.0000000+00:00</time></trkpt><trkpt lat="21.991472" lon="104.739235"><ele>135.5</ele><time>2011-04-28T07:37:54.0000000+00:00</time></trkpt><trkpt lat="21.991383" lon="104.739311"><ele>136.3</ele><time>2011-04-28T07:37:59.0000000+00:00</time></trkpt><trkpt lat="21.991289" lon="104.739372"><ele>136.7</ele><time>2011-04-28T07:38:04.0000000+00:00</time></trkpt><trkpt lat="21.991205" lon="104.739403"><ele>136.7</ele><time>2011-04-28T07:38:09.0000000+00:00</time></trkpt><trkpt lat="21.991186" lon="104.739403"><ele>136.9</ele><time>2011-04-28T07:38:14.0000000+00:00</time></trkpt><trkpt lat="21.991179" lon="104.739395"><ele>137.1</ele><time>2011-04-28T07:38:19.0000000+00:00</time></trkpt><trkpt lat="21.991188" lon="104.739403"><ele>137.0</ele><time>2011-04-28T07:38:24.0000000+00:00</time></trkpt><trkpt lat="21.991182" lon="104.739403"><ele>137.0</ele><time>2011-04-28T07:38:29.0000000+00:00</time></trkpt><trkpt lat="21.99118" lon="104.73941"><ele>137.0</ele><time>2011-04-28T07:38:34.0000000+00:00</time></trkpt><trkpt lat="21.99118" lon="104.739403"><ele>136.8</ele><time>2011-04-28T07:38:39.0000000+00:00</time></trkpt><trkpt lat="21.991184" lon="104.739403"><ele>136.8</ele><time>2011-04-28T07:38:44.0000000+00:00</time></trkpt><trkpt lat="21.991186" lon="104.739403"><ele>136.8</ele><time>2011-04-28T07:38:49.0000000+00:00</time></trkpt><trkpt lat="21.991186" lon="104.739403"><ele>136.9</ele><time>2011-04-28T07:38:54.0000000+00:00</time></trkpt><trkpt lat="21.991186" lon="104.739403"><ele>136.8</ele><time>2011-04-28T07:38:59.0000000+00:00</time></trkpt><trkpt lat="21.991186" lon="104.739403"><ele>136.8</ele><time>2011-04-28T07:39:04.0000000+00:00</time></trkpt><trkpt lat="21.991186" lon="104.739403"><ele>136.8</ele><time>2011-04-28T07:39:09.0000000+00:00</time></trkpt><trkpt lat="21.991186" lon="104.739403"><ele>136.8</ele><time>2011-04-28T07:39:14.0000000+00:00</time></trkpt><trkpt lat="21.991186" lon="104.739403"><ele>136.8</ele><time>2011-04-28T07:39:19.0000000+00:00</time></trkpt><trkpt lat="21.991186" lon="104.739403"><ele>136.8</ele><time>2011-04-28T07:39:24.0000000+00:00</time></trkpt><trkpt lat="21.991186" lon="104.739403"><ele>136.8</ele><time>2011-04-28T07:39:29.0000000+00:00</time></trkpt><trkpt lat="21.991186" lon="104.739403"><ele>136.8</ele><time>2011-04-28T07:39:34.0000000+00:00</time></trkpt><trkpt lat="21.991188" lon="104.739403"><ele>136.8</ele><time>2011-04-28T07:39:39.0000000+00:00</time></trkpt><trkpt lat="21.991188" lon="104.739403"><ele>136.8</ele><time>2011-04-28T07:39:44.0000000+00:00</time></trkpt><trkpt lat="21.991188" lon="104.739403"><ele>136.8</ele><time>2011-04-28T07:39:49.0000000+00:00</time></trkpt><trkpt lat="21.991188" lon="104.739403"><ele>136.8</ele><time>2011-04-28T07:39:54.0000000+00:00</time></trkpt><trkpt lat="21.991188" lon="104.739403"><ele>136.8</ele><time>2011-04-28T07:39:59.0000000+00:00</time></trkpt><trkpt lat="21.991188" lon="104.73941"><ele>136.7</ele><time>2011-04-28T07:40:04.0000000+00:00</time></trkpt><trkpt lat="21.991188" lon="104.73941"><ele>136.7</ele><time>2011-04-28T07:40:09.0000000+00:00</time></trkpt><trkpt lat="21.991188" lon="104.73941"><ele>136.7</ele><time>2011-04-28T07:40:14.0000000+00:00</time></trkpt><trkpt lat="21.991188" lon="104.73941"><ele>136.7</ele><time>2011-04-28T07:40:19.0000000+00:00</time></trkpt><trkpt lat="21.991188" lon="104.73941"><ele>136.6</ele><time>2011-04-28T07:40:24.0000000+00:00</time></trkpt><trkpt lat="21.991188" lon="104.73941"><ele>136.6</ele><time>2011-04-28T07:40:29.0000000+00:00</time></trkpt><trkpt lat="21.991188" lon="104.73941"><ele>136.6</ele><time>2011-04-28T07:40:34.0000000+00:00</time></trkpt><trkpt lat="21.991188" lon="104.73941"><ele>136.5</ele><time>2011-04-28T07:40:39.0000000+00:00</time></trkpt><trkpt lat="21.991188" lon="104.73941"><ele>136.5</ele><time>2011-04-28T07:40:44.0000000+00:00</time></trkpt><trkpt lat="21.991188" lon="104.73941"><ele>136.4</ele><time>2011-04-28T07:40:49.0000000+00:00</time></trkpt><trkpt lat="21.991188" lon="104.73941"><ele>136.4</ele><time>2011-04-28T07:40:54.0000000+00:00</time></trkpt><trkpt lat="21.991188" lon="104.73941"><ele>136.4</ele><time>2011-04-28T07:40:59.0000000+00:00</time></trkpt><trkpt lat="21.991188" lon="104.73941"><ele>136.4</ele><time>2011-04-28T07:41:04.0000000+00:00</time></trkpt><trkpt lat="21.991188" lon="104.73941"><ele>136.4</ele><time>2011-04-28T07:41:09.0000000+00:00</time></trkpt><trkpt lat="21.991188" lon="104.73941"><ele>136.4</ele><time>2011-04-28T07:41:14.0000000+00:00</time></trkpt><trkpt lat="21.991188" lon="104.73941"><ele>136.4</ele><time>2011-04-28T07:41:19.0000000+00:00</time></trkpt><trkpt lat="21.991188" lon="104.73941"><ele>136.4</ele><time>2011-04-28T07:41:24.0000000+00:00</time></trkpt><trkpt lat="21.991188" lon="104.73941"><ele>136.4</ele><time>2011-04-28T07:41:29.0000000+00:00</time></trkpt><trkpt lat="21.991188" lon="104.73941"><ele>136.4</ele><time>2011-04-28T07:41:34.0000000+00:00</time></trkpt><trkpt lat="21.991188" lon="104.73941"><ele>136.5</ele><time>2011-04-28T07:41:39.0000000+00:00</time></trkpt><trkpt lat="21.991188" lon="104.73941"><ele>136.5</ele><time>2011-04-28T07:41:44.0000000+00:00</time></trkpt><trkpt lat="21.99119" lon="104.73941"><ele>136.5</ele><time>2011-04-28T07:41:49.0000000+00:00</time></trkpt><trkpt lat="21.99119" lon="104.73941"><ele>136.5</ele><time>2011-04-28T07:41:54.0000000+00:00</time></trkpt><trkpt lat="21.99119" lon="104.73941"><ele>136.5</ele><time>2011-04-28T07:41:59.0000000+00:00</time></trkpt><trkpt lat="21.99119" lon="104.73941"><ele>136.5</ele><time>2011-04-28T07:42:04.0000000+00:00</time></trkpt><trkpt lat="21.99119" lon="104.73941"><ele>136.5</ele><time>2011-04-28T07:42:09.0000000+00:00</time></trkpt><trkpt lat="21.99119" lon="104.73941"><ele>136.5</ele><time>2011-04-28T07:42:14.0000000+00:00</time></trkpt><trkpt lat="21.99119" lon="104.73941"><ele>136.5</ele><time>2011-04-28T07:42:19.0000000+00:00</time></trkpt><trkpt lat="21.99119" lon="104.73941"><ele>136.5</ele><time>2011-04-28T07:42:24.0000000+00:00</time></trkpt><trkpt lat="21.99119" lon="104.73941"><ele>136.5</ele><time>2011-04-28T07:42:29.0000000+00:00</time></trkpt><trkpt lat="21.991192" lon="104.73941"><ele>136.5</ele><time>2011-04-28T07:42:34.0000000+00:00</time></trkpt><trkpt lat="21.991192" lon="104.73941"><ele>136.5</ele><time>2011-04-28T07:42:39.0000000+00:00</time></trkpt><trkpt lat="21.991192" lon="104.739403"><ele>136.5</ele><time>2011-04-28T07:42:44.0000000+00:00</time></trkpt><trkpt lat="21.991192" lon="104.739403"><ele>136.5</ele><time>2011-04-28T07:42:49.0000000+00:00</time></trkpt><trkpt lat="21.991192" lon="104.739403"><ele>136.5</ele><time>2011-04-28T07:42:54.0000000+00:00</time></trkpt><trkpt lat="21.991192" lon="104.739403"><ele>136.5</ele><time>2011-04-28T07:42:59.0000000+00:00</time></trkpt><trkpt lat="21.991192" lon="104.739403"><ele>136.5</ele><time>2011-04-28T07:43:04.0000000+00:00</time></trkpt><trkpt lat="21.991192" lon="104.739403"><ele>136.5</ele><time>2011-04-28T07:43:09.0000000+00:00</time></trkpt><trkpt lat="21.991192" lon="104.739403"><ele>136.5</ele><time>2011-04-28T07:43:14.0000000+00:00</time></trkpt><trkpt lat="21.991192" lon="104.739403"><ele>136.5</ele><time>2011-04-28T07:43:19.0000000+00:00</time></trkpt><trkpt lat="21.991192" lon="104.739395"><ele>136.5</ele><time>2011-04-28T07:43:24.0000000+00:00</time></trkpt><trkpt lat="21.991192" lon="104.739395"><ele>136.5</ele><time>2011-04-28T07:43:29.0000000+00:00</time></trkpt><trkpt lat="21.991192" lon="104.739395"><ele>136.5</ele><time>2011-04-28T07:43:34.0000000+00:00</time></trkpt><trkpt lat="21.991192" lon="104.739395"><ele>136.5</ele><time>2011-04-28T07:43:39.0000000+00:00</time></trkpt><trkpt lat="21.991192" lon="104.739395"><ele>136.5</ele><time>2011-04-28T07:43:44.0000000+00:00</time></trkpt><trkpt lat="21.991192" lon="104.739395"><ele>136.5</ele><time>2011-04-28T07:43:49.0000000+00:00</time></trkpt><trkpt lat="21.991192" lon="104.739395"><ele>136.5</ele><time>2011-04-28T07:43:54.0000000+00:00</time></trkpt><trkpt lat="21.991192" lon="104.739395"><ele>136.5</ele><time>2011-04-28T07:43:59.0000000+00:00</time></trkpt><trkpt lat="21.991192" lon="104.739388"><ele>136.5</ele><time>2011-04-28T07:44:04.0000000+00:00</time></trkpt><trkpt lat="21.991192" lon="104.739388"><ele>136.5</ele><time>2011-04-28T07:44:09.0000000+00:00</time></trkpt><trkpt lat="21.991192" lon="104.739388"><ele>136.5</ele><time>2011-04-28T07:44:14.0000000+00:00</time></trkpt><trkpt lat="21.991192" lon="104.739388"><ele>136.5</ele><time>2011-04-28T07:44:19.0000000+00:00</time></trkpt><trkpt lat="21.991192" lon="104.739388"><ele>136.5</ele><time>2011-04-28T07:44:24.0000000+00:00</time></trkpt><trkpt lat="21.991192" lon="104.739388"><ele>136.5</ele><time>2011-04-28T07:44:29.0000000+00:00</time></trkpt><trkpt lat="21.991192" lon="104.739388"><ele>136.5</ele><time>2011-04-28T07:44:34.0000000+00:00</time></trkpt><trkpt lat="21.991192" lon="104.739388"><ele>136.5</ele><time>2011-04-28T07:44:39.0000000+00:00</time></trkpt><trkpt lat="21.991192" lon="104.739388"><ele>136.5</ele><time>2011-04-28T07:44:44.0000000+00:00</time></trkpt><trkpt lat="21.991192" lon="104.739388"><ele>136.5</ele><time>2011-04-28T07:44:49.0000000+00:00</time></trkpt><trkpt lat="21.991192" lon="104.739388"><ele>136.5</ele><time>2011-04-28T07:44:54.0000000+00:00</time></trkpt><trkpt lat="21.991194" lon="104.739388"><ele>136.6</ele><time>2011-04-28T07:44:59.0000000+00:00</time></trkpt><trkpt lat="21.991194" lon="104.739388"><ele>136.6</ele><time>2011-04-28T07:45:04.0000000+00:00</time></trkpt><trkpt lat="21.991194" lon="104.73938"><ele>136.6</ele><time>2011-04-28T07:45:09.0000000+00:00</time></trkpt><trkpt lat="21.991194" lon="104.73938"><ele>136.6</ele><time>2011-04-28T07:45:14.0000000+00:00</time></trkpt><trkpt lat="21.991194" lon="104.73938"><ele>136.7</ele><time>2011-04-28T07:45:19.0000000+00:00</time></trkpt><trkpt lat="21.991198" lon="104.739372"><ele>136.9</ele><time>2011-04-28T07:45:24.0000000+00:00</time></trkpt><trkpt lat="21.991199" lon="104.739372"><ele>137.1</ele><time>2011-04-28T07:45:29.0000000+00:00</time></trkpt><trkpt lat="21.991203" lon="104.739365"><ele>137.4</ele><time>2011-04-28T07:45:34.0000000+00:00</time></trkpt><trkpt lat="21.991207" lon="104.739365"><ele>137.6</ele><time>2011-04-28T07:45:39.0000000+00:00</time></trkpt><trkpt lat="21.991209" lon="104.739357"><ele>137.8</ele><time>2011-04-28T07:45:44.0000000+00:00</time></trkpt><trkpt lat="21.991213" lon="104.739357"><ele>138.1</ele><time>2011-04-28T07:45:49.0000000+00:00</time></trkpt><trkpt lat="21.991219" lon="104.739349"><ele>138.3</ele><time>2011-04-28T07:45:54.0000000+00:00</time></trkpt><trkpt lat="21.991224" lon="104.739349"><ele>138.7</ele><time>2011-04-28T07:45:59.0000000+00:00</time></trkpt><trkpt lat="21.991234" lon="104.739349"><ele>139.1</ele><time>2011-04-28T07:46:04.0000000+00:00</time></trkpt><trkpt lat="21.991245" lon="104.739357"><ele>139.6</ele><time>2011-04-28T07:46:09.0000000+00:00</time></trkpt><trkpt lat="21.991255" lon="104.739349"><ele>140.2</ele><time>2011-04-28T07:46:14.0000000+00:00</time></trkpt><trkpt lat="21.991266" lon="104.739349"><ele>140.8</ele><time>2011-04-28T07:46:19.0000000+00:00</time></trkpt><trkpt lat="21.991278" lon="104.739342"><ele>141.4</ele><time>2011-04-28T07:46:24.0000000+00:00</time></trkpt><trkpt lat="21.991287" lon="104.739342"><ele>142.0</ele><time>2011-04-28T07:46:29.0000000+00:00</time></trkpt><trkpt lat="21.991295" lon="104.739334"><ele>142.5</ele><time>2011-04-28T07:46:34.0000000+00:00</time></trkpt><trkpt lat="21.991297" lon="104.739334"><ele>143.0</ele><time>2011-04-28T07:46:39.0000000+00:00</time></trkpt><trkpt lat="21.991293" lon="104.739334"><ele>143.4</ele><time>2011-04-28T07:46:44.0000000+00:00</time></trkpt><trkpt lat="21.991289" lon="104.739334"><ele>143.7</ele><time>2011-04-28T07:46:49.0000000+00:00</time></trkpt><trkpt lat="21.991285" lon="104.739334"><ele>143.9</ele><time>2011-04-28T07:46:54.0000000+00:00</time></trkpt><trkpt lat="21.991283" lon="104.739334"><ele>144.2</ele><time>2011-04-28T07:46:59.0000000+00:00</time></trkpt><trkpt lat="21.99128" lon="104.739334"><ele>144.5</ele><time>2011-04-28T07:47:04.0000000+00:00</time></trkpt><trkpt lat="21.991274" lon="104.739326"><ele>144.9</ele><time>2011-04-28T07:47:09.0000000+00:00</time></trkpt><trkpt lat="21.991266" lon="104.739311"><ele>145.4</ele><time>2011-04-28T07:47:14.0000000+00:00</time></trkpt><trkpt lat="21.991257" lon="104.739311"><ele>145.8</ele><time>2011-04-28T07:47:19.0000000+00:00</time></trkpt><trkpt lat="21.991232" lon="104.739296"><ele>145.8</ele><time>2011-04-28T07:47:24.0000000+00:00</time></trkpt><trkpt lat="21.99122" lon="104.739296"><ele>145.9</ele><time>2011-04-28T07:47:29.0000000+00:00</time></trkpt><trkpt lat="21.991209" lon="104.739288"><ele>146.0</ele><time>2011-04-28T07:47:34.0000000+00:00</time></trkpt><trkpt lat="21.99119" lon="104.739265"><ele>144.8</ele><time>2011-04-28T07:47:39.0000000+00:00</time></trkpt><trkpt lat="21.991159" lon="104.73925"><ele>143.0</ele><time>2011-04-28T07:47:44.0000000+00:00</time></trkpt><trkpt lat="21.991148" lon="104.739243"><ele>141.8</ele><time>2011-04-28T07:47:49.0000000+00:00</time></trkpt><trkpt lat="21.991148" lon="104.73925"><ele>140.7</ele><time>2011-04-28T07:47:54.0000000+00:00</time></trkpt><trkpt lat="21.991146" lon="104.73925"><ele>140.3</ele><time>2011-04-28T07:47:59.0000000+00:00</time></trkpt><trkpt lat="21.991152" lon="104.739258"><ele>139.7</ele><time>2011-04-28T07:48:04.0000000+00:00</time></trkpt><trkpt lat="21.991169" lon="104.739281"><ele>138.3</ele><time>2011-04-28T07:48:09.0000000+00:00</time></trkpt><trkpt lat="21.991192" lon="104.739296"><ele>136.1</ele><time>2011-04-28T07:48:14.0000000+00:00</time></trkpt><trkpt lat="21.991194" lon="104.739304"><ele>134.8</ele><time>2011-04-28T07:48:19.0000000+00:00</time></trkpt><trkpt lat="21.991196" lon="104.739311"><ele>133.2</ele><time>2011-04-28T07:48:24.0000000+00:00</time></trkpt><trkpt lat="21.991196" lon="104.739334"><ele>131.9</ele><time>2011-04-28T07:48:29.0000000+00:00</time></trkpt><trkpt lat="21.991188" lon="104.739326"><ele>130.7</ele><time>2011-04-28T07:48:34.0000000+00:00</time></trkpt><trkpt lat="21.991161" lon="104.739288"><ele>129.4</ele><time>2011-04-28T07:48:39.0000000+00:00</time></trkpt><trkpt lat="21.99115" lon="104.739288"><ele>128.0</ele><time>2011-04-28T07:48:44.0000000+00:00</time></trkpt><trkpt lat="21.991158" lon="104.739304"><ele>125.8</ele><time>2011-04-28T07:48:49.0000000+00:00</time></trkpt><trkpt lat="21.991192" lon="104.739326"><ele>123.6</ele><time>2011-04-28T07:48:54.0000000+00:00</time></trkpt><trkpt lat="21.991192" lon="104.739319"><ele>123.0</ele><time>2011-04-28T07:48:59.0000000+00:00</time></trkpt><trkpt lat="21.99118" lon="104.739304"><ele>122.1</ele><time>2011-04-28T07:49:04.0000000+00:00</time></trkpt><trkpt lat="21.991194" lon="104.739273"><ele>122.3</ele><time>2011-04-28T07:49:09.0000000+00:00</time></trkpt><trkpt lat="21.991188" lon="104.739243"><ele>122.3</ele><time>2011-04-28T07:49:14.0000000+00:00</time></trkpt><trkpt lat="21.991171" lon="104.739182"><ele>122.2</ele><time>2011-04-28T07:49:19.0000000+00:00</time></trkpt><trkpt lat="21.991152" lon="104.739136"><ele>122.0</ele><time>2011-04-28T07:49:24.0000000+00:00</time></trkpt><trkpt lat="21.991138" lon="104.739105"><ele>121.4</ele><time>2011-04-28T07:49:29.0000000+00:00</time></trkpt><trkpt lat="21.991127" lon="104.739067"><ele>121.9</ele><time>2011-04-28T07:49:34.0000000+00:00</time></trkpt><trkpt lat="21.991119" lon="104.739037"><ele>122.2</ele><time>2011-04-28T07:49:39.0000000+00:00</time></trkpt><trkpt lat="21.9911" lon="104.739014"><ele>122.7</ele><time>2011-04-28T07:49:44.0000000+00:00</time></trkpt><trkpt lat="21.991066" lon="104.739006"><ele>122.7</ele><time>2011-04-28T07:49:49.0000000+00:00</time></trkpt><trkpt lat="21.991045" lon="104.739021"><ele>122.6</ele><time>2011-04-28T07:49:54.0000000+00:00</time></trkpt><trkpt lat="21.991028" lon="104.739021"><ele>122.0</ele><time>2011-04-28T07:49:59.0000000+00:00</time></trkpt><trkpt lat="21.991007" lon="104.739044"><ele>122.6</ele><time>2011-04-28T07:50:04.0000000+00:00</time></trkpt><trkpt lat="21.990999" lon="104.739044"><ele>122.3</ele><time>2011-04-28T07:50:09.0000000+00:00</time></trkpt><trkpt lat="21.991005" lon="104.739052"><ele>122.2</ele><time>2011-04-28T07:50:14.0000000+00:00</time></trkpt><trkpt lat="21.991068" lon="104.739075"><ele>123.1</ele><time>2011-04-28T07:50:19.0000000+00:00</time></trkpt><trkpt lat="21.991095" lon="104.739082"><ele>123.8</ele><time>2011-04-28T07:50:24.0000000+00:00</time></trkpt><trkpt lat="21.991114" lon="104.739113"><ele>125.9</ele><time>2011-04-28T07:50:29.0000000+00:00</time></trkpt><trkpt lat="21.991129" lon="104.739189"><ele>126.8</ele><time>2011-04-28T07:50:34.0000000+00:00</time></trkpt><trkpt lat="21.991146" lon="104.739227"><ele>127.7</ele><time>2011-04-28T07:50:39.0000000+00:00</time></trkpt><trkpt lat="21.991119" lon="104.739281"><ele>127.8</ele><time>2011-04-28T07:50:44.0000000+00:00</time></trkpt><trkpt lat="21.990925" lon="104.739342"><ele>127.5</ele><time>2011-04-28T07:50:49.0000000+00:00</time></trkpt><trkpt lat="21.990686" lon="104.739441"><ele>123.9</ele><time>2011-04-28T07:50:54.0000000+00:00</time></trkpt><trkpt lat="21.990513" lon="104.739723"><ele>120.2</ele><time>2011-04-28T07:50:59.0000000+00:00</time></trkpt><trkpt lat="21.990391" lon="104.739998"><ele>112.7</ele><time>2011-04-28T07:51:04.0000000+00:00</time></trkpt><trkpt lat="21.990154" lon="104.740089"><ele>109.1</ele><time>2011-04-28T07:51:09.0000000+00:00</time></trkpt><trkpt lat="21.989832" lon="104.740005"><ele>103.9</ele><time>2011-04-28T07:51:14.0000000+00:00</time></trkpt><trkpt lat="21.9897" lon="104.73999"><ele>102.0</ele><time>2011-04-28T07:51:19.0000000+00:00</time></trkpt><trkpt lat="21.989697" lon="104.73999"><ele>104.7</ele><time>2011-04-28T07:51:24.0000000+00:00</time></trkpt><trkpt lat="21.989695" lon="104.73999"><ele>104.4</ele><time>2011-04-28T07:51:29.0000000+00:00</time></trkpt><trkpt lat="21.989695" lon="104.739983"><ele>104.2</ele><time>2011-04-28T07:51:34.0000000+00:00</time></trkpt><trkpt lat="21.989695" lon="104.739983"><ele>104.2</ele><time>2011-04-28T07:51:39.0000000+00:00</time></trkpt><trkpt lat="21.989637" lon="104.740021"><ele>104.4</ele><time>2011-04-28T07:51:44.0000000+00:00</time></trkpt><trkpt lat="21.989447" lon="104.740105"><ele>104.6</ele><time>2011-04-28T07:51:49.0000000+00:00</time></trkpt><trkpt lat="21.989208" lon="104.740196"><ele>103.6</ele><time>2011-04-28T07:51:54.0000000+00:00</time></trkpt><trkpt lat="21.988836" lon="104.740257"><ele>101.1</ele><time>2011-04-28T07:51:59.0000000+00:00</time></trkpt><trkpt lat="21.988512" lon="104.740326"><ele>101.8</ele><time>2011-04-28T07:52:04.0000000+00:00</time></trkpt><trkpt lat="21.988306" lon="104.740555"><ele>101.7</ele><time>2011-04-28T07:52:09.0000000+00:00</time></trkpt><trkpt lat="21.988129" lon="104.740807"><ele>101.1</ele><time>2011-04-28T07:52:14.0000000+00:00</time></trkpt><trkpt lat="21.987902" lon="104.741104"><ele>101.0</ele><time>2011-04-28T07:52:19.0000000+00:00</time></trkpt><trkpt lat="21.987677" lon="104.741379"><ele>100.5</ele><time>2011-04-28T07:52:24.0000000+00:00</time></trkpt><trkpt lat="21.987324" lon="104.741524"><ele>98.6</ele><time>2011-04-28T07:52:29.0000000+00:00</time></trkpt><trkpt lat="21.987129" lon="104.741768"><ele>96.2</ele><time>2011-04-28T07:52:34.0000000+00:00</time></trkpt><trkpt lat="21.987165" lon="104.742065"><ele>93.0</ele><time>2011-04-28T07:52:39.0000000+00:00</time></trkpt><trkpt lat="21.987091" lon="104.742355"><ele>90.6</ele><time>2011-04-28T07:52:44.0000000+00:00</time></trkpt><trkpt lat="21.986826" lon="104.742599"><ele>88.1</ele><time>2011-04-28T07:52:49.0000000+00:00</time></trkpt><trkpt lat="21.986441" lon="104.742737"><ele>85.2</ele><time>2011-04-28T07:52:54.0000000+00:00</time></trkpt><trkpt lat="21.986204" lon="104.743111"><ele>82.1</ele><time>2011-04-28T07:52:59.0000000+00:00</time></trkpt><trkpt lat="21.986006" lon="104.743454"><ele>79.6</ele><time>2011-04-28T07:53:04.0000000+00:00</time></trkpt><trkpt lat="21.985754" lon="104.743736"><ele>77.2</ele><time>2011-04-28T07:53:09.0000000+00:00</time></trkpt><trkpt lat="21.985489" lon="104.744003"><ele>75.2</ele><time>2011-04-28T07:53:14.0000000+00:00</time></trkpt><trkpt lat="21.985241" lon="104.744316"><ele>73.1</ele><time>2011-04-28T07:53:19.0000000+00:00</time></trkpt><trkpt lat="21.984968" lon="104.744568"><ele>71.2</ele><time>2011-04-28T07:53:24.0000000+00:00</time></trkpt><trkpt lat="21.984676" lon="104.744781"><ele>69.9</ele><time>2011-04-28T07:53:29.0000000+00:00</time></trkpt><trkpt lat="21.984406" lon="104.744949"><ele>68.2</ele><time>2011-04-28T07:53:34.0000000+00:00</time></trkpt><trkpt lat="21.984171" lon="104.745125"><ele>68.3</ele><time>2011-04-28T07:53:39.0000000+00:00</time></trkpt><trkpt lat="21.983938" lon="104.745277"><ele>68.3</ele><time>2011-04-28T07:53:44.0000000+00:00</time></trkpt><trkpt lat="21.983713" lon="104.745415"><ele>68.7</ele><time>2011-04-28T07:53:49.0000000+00:00</time></trkpt><trkpt lat="21.983484" lon="104.745583"><ele>68.9</ele><time>2011-04-28T07:53:54.0000000+00:00</time></trkpt><trkpt lat="21.983271" lon="104.745758"><ele>69.1</ele><time>2011-04-28T07:53:59.0000000+00:00</time></trkpt><trkpt lat="21.983002" lon="104.745972"><ele>68.0</ele><time>2011-04-28T07:54:04.0000000+00:00</time></trkpt><trkpt lat="21.982733" lon="104.746208"><ele>67.0</ele><time>2011-04-28T07:54:09.0000000+00:00</time></trkpt><trkpt lat="21.982565" lon="104.746452"><ele>67.4</ele><time>2011-04-28T07:54:14.0000000+00:00</time></trkpt><trkpt lat="21.982399" lon="104.746719"><ele>68.3</ele><time>2011-04-28T07:54:19.0000000+00:00</time></trkpt><trkpt lat="21.982244" lon="104.746918"><ele>68.8</ele><time>2011-04-28T07:54:24.0000000+00:00</time></trkpt><trkpt lat="21.982122" lon="104.747086"><ele>68.4</ele><time>2011-04-28T07:54:29.0000000+00:00</time></trkpt><trkpt lat="21.982002" lon="104.747223"><ele>67.9</ele><time>2011-04-28T07:54:34.0000000+00:00</time></trkpt><trkpt lat="21.98184" lon="104.747353"><ele>69.5</ele><time>2011-04-28T07:54:39.0000000+00:00</time></trkpt><trkpt lat="21.981686" lon="104.747467"><ele>70.6</ele><time>2011-04-28T07:54:44.0000000+00:00</time></trkpt><trkpt lat="21.981504" lon="104.747543"><ele>70.9</ele><time>2011-04-28T07:54:49.0000000+00:00</time></trkpt><trkpt lat="21.981306" lon="104.747581"><ele>69.8</ele><time>2011-04-28T07:54:54.0000000+00:00</time></trkpt><trkpt lat="21.981102" lon="104.747643"><ele>69.7</ele><time>2011-04-28T07:54:59.0000000+00:00</time></trkpt><trkpt lat="21.980921" lon="104.747726"><ele>69.0</ele><time>2011-04-28T07:55:04.0000000+00:00</time></trkpt><trkpt lat="21.980707" lon="104.747849"><ele>70.1</ele><time>2011-04-28T07:55:09.0000000+00:00</time></trkpt><trkpt lat="21.980444" lon="104.747917"><ele>67.8</ele><time>2011-04-28T07:55:14.0000000+00:00</time></trkpt><trkpt lat="21.980223" lon="104.747932"><ele>64.2</ele><time>2011-04-28T07:55:19.0000000+00:00</time></trkpt><trkpt lat="21.979988" lon="104.747948"><ele>61.8</ele><time>2011-04-28T07:55:24.0000000+00:00</time></trkpt><trkpt lat="21.979771" lon="104.747932"><ele>62.2</ele><time>2011-04-28T07:55:29.0000000+00:00</time></trkpt><trkpt lat="21.979576" lon="104.747833"><ele>65.5</ele><time>2011-04-28T07:55:34.0000000+00:00</time></trkpt><trkpt lat="21.979334" lon="104.747688"><ele>67.4</ele><time>2011-04-28T07:55:39.0000000+00:00</time></trkpt><trkpt lat="21.979031" lon="104.747711"><ele>68.8</ele><time>2011-04-28T07:55:44.0000000+00:00</time></trkpt><trkpt lat="21.978716" lon="104.747978"><ele>67.2</ele><time>2011-04-28T07:55:49.0000000+00:00</time></trkpt><trkpt lat="21.978449" lon="104.748268"><ele>67.0</ele><time>2011-04-28T07:55:54.0000000+00:00</time></trkpt><trkpt lat="21.97827" lon="104.748451"><ele>67.0</ele><time>2011-04-28T07:55:59.0000000+00:00</time></trkpt><trkpt lat="21.978176" lon="104.748543"><ele>68.2</ele><time>2011-04-28T07:56:04.0000000+00:00</time></trkpt><trkpt lat="21.978062" lon="104.74868"><ele>69.0</ele><time>2011-04-28T07:56:09.0000000+00:00</time></trkpt><trkpt lat="21.97794" lon="104.748856"><ele>69.7</ele><time>2011-04-28T07:56:14.0000000+00:00</time></trkpt><trkpt lat="21.977844" lon="104.749054"><ele>69.5</ele><time>2011-04-28T07:56:19.0000000+00:00</time></trkpt><trkpt lat="21.977785" lon="104.749283"><ele>69.4</ele><time>2011-04-28T07:56:24.0000000+00:00</time></trkpt><trkpt lat="21.977682" lon="104.749535"><ele>70.1</ele><time>2011-04-28T07:56:29.0000000+00:00</time></trkpt><trkpt lat="21.977501" lon="104.749748"><ele>69.4</ele><time>2011-04-28T07:56:34.0000000+00:00</time></trkpt><trkpt lat="21.977224" lon="104.749901"><ele>69.5</ele><time>2011-04-28T07:56:39.0000000+00:00</time></trkpt><trkpt lat="21.976931" lon="104.750076"><ele>69.4</ele><time>2011-04-28T07:56:44.0000000+00:00</time></trkpt><trkpt lat="21.976633" lon="104.750328"><ele>68.6</ele><time>2011-04-28T07:56:49.0000000+00:00</time></trkpt><trkpt lat="21.976294" lon="104.750648"><ele>68.5</ele><time>2011-04-28T07:56:54.0000000+00:00</time></trkpt><trkpt lat="21.975967" lon="104.750862"><ele>68.5</ele><time>2011-04-28T07:56:59.0000000+00:00</time></trkpt><trkpt lat="21.975653" lon="104.750809"><ele>66.8</ele><time>2011-04-28T07:57:04.0000000+00:00</time></trkpt><trkpt lat="21.975401" lon="104.750702"><ele>65.2</ele><time>2011-04-28T07:57:09.0000000+00:00</time></trkpt><trkpt lat="21.975214" lon="104.750549"><ele>65.7</ele><time>2011-04-28T07:57:14.0000000+00:00</time></trkpt><trkpt lat="21.975086" lon="104.75042"><ele>67.2</ele><time>2011-04-28T07:57:19.0000000+00:00</time></trkpt><trkpt lat="21.974974" lon="104.75029"><ele>68.0</ele><time>2011-04-28T07:57:24.0000000+00:00</time></trkpt><trkpt lat="21.974831" lon="104.750229"><ele>67.6</ele><time>2011-04-28T07:57:29.0000000+00:00</time></trkpt><trkpt lat="21.974684" lon="104.750244"><ele>67.8</ele><time>2011-04-28T07:57:34.0000000+00:00</time></trkpt><trkpt lat="21.974497" lon="104.750305"><ele>67.2</ele><time>2011-04-28T07:57:39.0000000+00:00</time></trkpt><trkpt lat="21.974281" lon="104.750473"><ele>64.6</ele><time>2011-04-28T07:57:44.0000000+00:00</time></trkpt><trkpt lat="21.974022" lon="104.75061"><ele>65.2</ele><time>2011-04-28T07:57:49.0000000+00:00</time></trkpt><trkpt lat="21.973825" lon="104.75071"><ele>66.5</ele><time>2011-04-28T07:57:54.0000000+00:00</time></trkpt><trkpt lat="21.973703" lon="104.750771"><ele>67.4</ele><time>2011-04-28T07:57:59.0000000+00:00</time></trkpt><trkpt lat="21.973593" lon="104.750809"><ele>68.5</ele><time>2011-04-28T07:58:04.0000000+00:00</time></trkpt><trkpt lat="21.973515" lon="104.750847"><ele>69.1</ele><time>2011-04-28T07:58:09.0000000+00:00</time></trkpt><trkpt lat="21.973448" lon="104.750893"><ele>69.0</ele><time>2011-04-28T07:58:14.0000000+00:00</time></trkpt><trkpt lat="21.973335" lon="104.750923"><ele>69.7</ele><time>2011-04-28T07:58:19.0000000+00:00</time></trkpt><trkpt lat="21.973219" lon="104.750969"><ele>71.7</ele><time>2011-04-28T07:58:24.0000000+00:00</time></trkpt><trkpt lat="21.973122" lon="104.751015"><ele>73.5</ele><time>2011-04-28T07:58:29.0000000+00:00</time></trkpt><trkpt lat="21.973" lon="104.751083"><ele>75.8</ele><time>2011-04-28T07:58:34.0000000+00:00</time></trkpt><trkpt lat="21.972891" lon="104.751137"><ele>77.5</ele><time>2011-04-28T07:58:39.0000000+00:00</time></trkpt><trkpt lat="21.972826" lon="104.751175"><ele>80.4</ele><time>2011-04-28T07:58:44.0000000+00:00</time></trkpt><trkpt lat="21.972771" lon="104.751198"><ele>80.2</ele><time>2011-04-28T07:58:49.0000000+00:00</time></trkpt><trkpt lat="21.972706" lon="104.751236"><ele>80.2</ele><time>2011-04-28T07:58:54.0000000+00:00</time></trkpt><trkpt lat="21.972652" lon="104.75132"><ele>80.1</ele><time>2011-04-28T07:58:59.0000000+00:00</time></trkpt><trkpt lat="21.97262" lon="104.75135"><ele>80.5</ele><time>2011-04-28T07:59:04.0000000+00:00</time></trkpt><trkpt lat="21.972616" lon="104.75135"><ele>81.0</ele><time>2011-04-28T07:59:09.0000000+00:00</time></trkpt><trkpt lat="21.972618" lon="104.75135"><ele>81.1</ele><time>2011-04-28T07:59:14.0000000+00:00</time></trkpt><trkpt lat="21.972616" lon="104.75135"><ele>81.1</ele><time>2011-04-28T07:59:19.0000000+00:00</time></trkpt><trkpt lat="21.972618" lon="104.751343"><ele>81.2</ele><time>2011-04-28T07:59:24.0000000+00:00</time></trkpt><trkpt lat="21.97262" lon="104.751343"><ele>81.2</ele><time>2011-04-28T07:59:29.0000000+00:00</time></trkpt><trkpt lat="21.972624" lon="104.75135"><ele>81.2</ele><time>2011-04-28T07:59:34.0000000+00:00</time></trkpt><trkpt lat="21.972624" lon="104.75135"><ele>81.2</ele><time>2011-04-28T07:59:39.0000000+00:00</time></trkpt><trkpt lat="21.972626" lon="104.75135"><ele>81.3</ele><time>2011-04-28T07:59:44.0000000+00:00</time></trkpt><trkpt lat="21.972626" lon="104.75135"><ele>81.3</ele><time>2011-04-28T07:59:49.0000000+00:00</time></trkpt><trkpt lat="21.972626" lon="104.751358"><ele>81.3</ele><time>2011-04-28T07:59:54.0000000+00:00</time></trkpt><trkpt lat="21.972626" lon="104.751358"><ele>81.3</ele><time>2011-04-28T07:59:59.0000000+00:00</time></trkpt><trkpt lat="21.972609" lon="104.751366"><ele>81.3</ele><time>2011-04-28T08:00:04.0000000+00:00</time></trkpt><trkpt lat="21.972506" lon="104.751457"><ele>81.1</ele><time>2011-04-28T08:00:09.0000000+00:00</time></trkpt><trkpt lat="21.972368" lon="104.751564"><ele>80.4</ele><time>2011-04-28T08:00:14.0000000+00:00</time></trkpt><trkpt lat="21.97221" lon="104.751701"><ele>81.2</ele><time>2011-04-28T08:00:19.0000000+00:00</time></trkpt><trkpt lat="21.971992" lon="104.751907"><ele>80.6</ele><time>2011-04-28T08:00:24.0000000+00:00</time></trkpt><trkpt lat="21.971743" lon="104.752159"><ele>76.5</ele><time>2011-04-28T08:00:29.0000000+00:00</time></trkpt><trkpt lat="21.971451" lon="104.752434"><ele>73.0</ele><time>2011-04-28T08:00:34.0000000+00:00</time></trkpt><trkpt lat="21.971138" lon="104.752716"><ele>72.9</ele><time>2011-04-28T08:00:39.0000000+00:00</time></trkpt><trkpt lat="21.970892" lon="104.752975"><ele>68.8</ele><time>2011-04-28T08:00:44.0000000+00:00</time></trkpt><trkpt lat="21.970842" lon="104.753326"><ele>63.5</ele><time>2011-04-28T08:00:49.0000000+00:00</time></trkpt><trkpt lat="21.970861" lon="104.753685"><ele>61.6</ele><time>2011-04-28T08:00:54.0000000+00:00</time></trkpt><trkpt lat="21.970888" lon="104.754021"><ele>60.1</ele><time>2011-04-28T08:00:59.0000000+00:00</time></trkpt><trkpt lat="21.970901" lon="104.754326"><ele>61.0</ele><time>2011-04-28T08:01:04.0000000+00:00</time></trkpt><trkpt lat="21.970915" lon="104.75457"><ele>62.4</ele><time>2011-04-28T08:01:09.0000000+00:00</time></trkpt><trkpt lat="21.970907" lon="104.754799"><ele>62.4</ele><time>2011-04-28T08:01:14.0000000+00:00</time></trkpt><trkpt lat="21.970858" lon="104.754951"><ele>62.6</ele><time>2011-04-28T08:01:19.0000000+00:00</time></trkpt><trkpt lat="21.970781" lon="104.755074"><ele>62.7</ele><time>2011-04-28T08:01:24.0000000+00:00</time></trkpt><trkpt lat="21.970617" lon="104.755211"><ele>61.9</ele><time>2011-04-28T08:01:29.0000000+00:00</time></trkpt><trkpt lat="21.970482" lon="104.755341"><ele>61.4</ele><time>2011-04-28T08:01:34.0000000+00:00</time></trkpt><trkpt lat="21.97036" lon="104.755463"><ele>61.3</ele><time>2011-04-28T08:01:39.0000000+00:00</time></trkpt><trkpt lat="21.970259" lon="104.755547"><ele>62.8</ele><time>2011-04-28T08:01:44.0000000+00:00</time></trkpt><trkpt lat="21.970119" lon="104.755653"><ele>64.1</ele><time>2011-04-28T08:01:49.0000000+00:00</time></trkpt><trkpt lat="21.96998" lon="104.755753"><ele>65.4</ele><time>2011-04-28T08:01:54.0000000+00:00</time></trkpt><trkpt lat="21.969847" lon="104.755836"><ele>65.4</ele><time>2011-04-28T08:01:59.0000000+00:00</time></trkpt><trkpt lat="21.969704" lon="104.755951"><ele>65.5</ele><time>2011-04-28T08:02:04.0000000+00:00</time></trkpt><trkpt lat="21.969538" lon="104.75605"><ele>66.6</ele><time>2011-04-28T08:02:09.0000000+00:00</time></trkpt><trkpt lat="21.969419" lon="104.756119"><ele>66.9</ele><time>2011-04-28T08:02:14.0000000+00:00</time></trkpt><trkpt lat="21.969236" lon="104.756279"><ele>67.5</ele><time>2011-04-28T08:02:19.0000000+00:00</time></trkpt><trkpt lat="21.969118" lon="104.756393"><ele>68.6</ele><time>2011-04-28T08:02:24.0000000+00:00</time></trkpt><trkpt lat="21.969" lon="104.7565"><ele>69.2</ele><time>2011-04-28T08:02:29.0000000+00:00</time></trkpt><trkpt lat="21.968895" lon="104.756668"><ele>69.6</ele><time>2011-04-28T08:02:34.0000000+00:00</time></trkpt><trkpt lat="21.968796" lon="104.756813"><ele>70.2</ele><time>2011-04-28T08:02:39.0000000+00:00</time></trkpt><trkpt lat="21.968708" lon="104.756966"><ele>70.9</ele><time>2011-04-28T08:02:44.0000000+00:00</time></trkpt><trkpt lat="21.968632" lon="104.757095"><ele>72.3</ele><time>2011-04-28T08:02:49.0000000+00:00</time></trkpt><trkpt lat="21.968563" lon="104.757164"><ele>73.7</ele><time>2011-04-28T08:02:54.0000000+00:00</time></trkpt><trkpt lat="21.968481" lon="104.757248"><ele>76.1</ele><time>2011-04-28T08:02:59.0000000+00:00</time></trkpt><trkpt lat="21.968405" lon="104.757401"><ele>76.8</ele><time>2011-04-28T08:03:04.0000000+00:00</time></trkpt><trkpt lat="21.968317" lon="104.75753"><ele>77.5</ele><time>2011-04-28T08:03:09.0000000+00:00</time></trkpt><trkpt lat="21.968264" lon="104.757652"><ele>76.9</ele><time>2011-04-28T08:03:14.0000000+00:00</time></trkpt><trkpt lat="21.968174" lon="104.757805"><ele>76.2</ele><time>2011-04-28T08:03:19.0000000+00:00</time></trkpt><trkpt lat="21.968088" lon="104.75795"><ele>75.3</ele><time>2011-04-28T08:03:24.0000000+00:00</time></trkpt><trkpt lat="21.96793" lon="104.758141"><ele>75.1</ele><time>2011-04-28T08:03:29.0000000+00:00</time></trkpt><trkpt lat="21.967831" lon="104.758263"><ele>74.1</ele><time>2011-04-28T08:03:34.0000000+00:00</time></trkpt><trkpt lat="21.967684" lon="104.758469"><ele>75.9</ele><time>2011-04-28T08:03:39.0000000+00:00</time></trkpt><trkpt lat="21.967522" lon="104.758629"><ele>76.5</ele><time>2011-04-28T08:03:44.0000000+00:00</time></trkpt><trkpt lat="21.96735" lon="104.758728"><ele>74.7</ele><time>2011-04-28T08:03:49.0000000+00:00</time></trkpt><trkpt lat="21.967192" lon="104.758789"><ele>71.8</ele><time>2011-04-28T08:03:54.0000000+00:00</time></trkpt><trkpt lat="21.967037" lon="104.75885"><ele>68.6</ele><time>2011-04-28T08:03:59.0000000+00:00</time></trkpt><trkpt lat="21.966921" lon="104.758919"><ele>66.9</ele><time>2011-04-28T08:04:04.0000000+00:00</time></trkpt><trkpt lat="21.966797" lon="104.758972"><ele>67.2</ele><time>2011-04-28T08:04:09.0000000+00:00</time></trkpt><trkpt lat="21.966637" lon="104.759018"><ele>66.9</ele><time>2011-04-28T08:04:14.0000000+00:00</time></trkpt><trkpt lat="21.966476" lon="104.759048"><ele>68.1</ele><time>2011-04-28T08:04:19.0000000+00:00</time></trkpt><trkpt lat="21.96632" lon="104.759048"><ele>66.3</ele><time>2011-04-28T08:04:24.0000000+00:00</time></trkpt><trkpt lat="21.966152" lon="104.759056"><ele>67.1</ele><time>2011-04-28T08:04:29.0000000+00:00</time></trkpt><trkpt lat="21.965982" lon="104.759109"><ele>66.8</ele><time>2011-04-28T08:04:34.0000000+00:00</time></trkpt><trkpt lat="21.965805" lon="104.759178"><ele>66.3</ele><time>2011-04-28T08:04:39.0000000+00:00</time></trkpt><trkpt lat="21.965639" lon="104.759209"><ele>64.2</ele><time>2011-04-28T08:04:44.0000000+00:00</time></trkpt><trkpt lat="21.965473" lon="104.75927"><ele>63.6</ele><time>2011-04-28T08:04:49.0000000+00:00</time></trkpt><trkpt lat="21.965292" lon="104.759377"><ele>63.2</ele><time>2011-04-28T08:04:54.0000000+00:00</time></trkpt><trkpt lat="21.965107" lon="104.759689"><ele>60.5</ele><time>2011-04-28T08:04:59.0000000+00:00</time></trkpt><trkpt lat="21.96505" lon="104.759987"><ele>60.8</ele><time>2011-04-28T08:05:04.0000000+00:00</time></trkpt><trkpt lat="21.964996" lon="104.760292"><ele>62.7</ele><time>2011-04-28T08:05:09.0000000+00:00</time></trkpt><trkpt lat="21.964901" lon="104.760498"><ele>65.8</ele><time>2011-04-28T08:05:14.0000000+00:00</time></trkpt><trkpt lat="21.964783" lon="104.760666"><ele>68.5</ele><time>2011-04-28T08:05:19.0000000+00:00</time></trkpt><trkpt lat="21.964632" lon="104.760811"><ele>68.0</ele><time>2011-04-28T08:05:24.0000000+00:00</time></trkpt><trkpt lat="21.964506" lon="104.760933"><ele>67.3</ele><time>2011-04-28T08:05:29.0000000+00:00</time></trkpt><trkpt lat="21.964403" lon="104.761017"><ele>67.5</ele><time>2011-04-28T08:05:34.0000000+00:00</time></trkpt><trkpt lat="21.964283" lon="104.761101"><ele>67.1</ele><time>2011-04-28T08:05:39.0000000+00:00</time></trkpt><trkpt lat="21.964104" lon="104.761215"><ele>68.4</ele><time>2011-04-28T08:05:44.0000000+00:00</time></trkpt><trkpt lat="21.963863" lon="104.76123"><ele>66.3</ele><time>2011-04-28T08:05:49.0000000+00:00</time></trkpt><trkpt lat="21.963615" lon="104.7612"><ele>64.1</ele><time>2011-04-28T08:05:54.0000000+00:00</time></trkpt><trkpt lat="21.963398" lon="104.761215"><ele>63.7</ele><time>2011-04-28T08:05:59.0000000+00:00</time></trkpt><trkpt lat="21.963144" lon="104.761292"><ele>62.3</ele><time>2011-04-28T08:06:04.0000000+00:00</time></trkpt><trkpt lat="21.962942" lon="104.761337"><ele>60.8</ele><time>2011-04-28T08:06:09.0000000+00:00</time></trkpt><trkpt lat="21.962719" lon="104.761375"><ele>59.0</ele><time>2011-04-28T08:06:14.0000000+00:00</time></trkpt><trkpt lat="21.962559" lon="104.761414"><ele>59.0</ele><time>2011-04-28T08:06:19.0000000+00:00</time></trkpt><trkpt lat="21.962317" lon="104.761543"><ele>60.5</ele><time>2011-04-28T08:06:24.0000000+00:00</time></trkpt><trkpt lat="21.962036" lon="104.761734"><ele>60.5</ele><time>2011-04-28T08:06:29.0000000+00:00</time></trkpt><trkpt lat="21.961788" lon="104.761917"><ele>59.0</ele><time>2011-04-28T08:06:34.0000000+00:00</time></trkpt><trkpt lat="21.961718" lon="104.762131"><ele>58.9</ele><time>2011-04-28T08:06:39.0000000+00:00</time></trkpt><trkpt lat="21.961624" lon="104.762321"><ele>59.6</ele><time>2011-04-28T08:06:44.0000000+00:00</time></trkpt><trkpt lat="21.961452" lon="104.762466"><ele>62.5</ele><time>2011-04-28T08:06:49.0000000+00:00</time></trkpt><trkpt lat="21.961267" lon="104.762474"><ele>65.4</ele><time>2011-04-28T08:06:54.0000000+00:00</time></trkpt><trkpt lat="21.961048" lon="104.762428"><ele>65.2</ele><time>2011-04-28T08:06:59.0000000+00:00</time></trkpt><trkpt lat="21.960838" lon="104.762444"><ele>66.0</ele><time>2011-04-28T08:07:04.0000000+00:00</time></trkpt><trkpt lat="21.960701" lon="104.762589"><ele>66.2</ele><time>2011-04-28T08:07:09.0000000+00:00</time></trkpt><trkpt lat="21.960632" lon="104.762779"><ele>67.1</ele><time>2011-04-28T08:07:14.0000000+00:00</time></trkpt><trkpt lat="21.960566" lon="104.762985"><ele>67.6</ele><time>2011-04-28T08:07:19.0000000+00:00</time></trkpt><trkpt lat="21.960526" lon="104.763176"><ele>67.9</ele><time>2011-04-28T08:07:24.0000000+00:00</time></trkpt><trkpt lat="21.960463" lon="104.763359"><ele>69.2</ele><time>2011-04-28T08:07:29.0000000+00:00</time></trkpt><trkpt lat="21.960394" lon="104.763573"><ele>70.9</ele><time>2011-04-28T08:07:34.0000000+00:00</time></trkpt><trkpt lat="21.96034" lon="104.763756"><ele>73.4</ele><time>2011-04-28T08:07:39.0000000+00:00</time></trkpt><trkpt lat="21.960228" lon="104.763924"><ele>74.7</ele><time>2011-04-28T08:07:44.0000000+00:00</time></trkpt><trkpt lat="21.960026" lon="104.764084"><ele>76.6</ele><time>2011-04-28T08:07:49.0000000+00:00</time></trkpt><trkpt lat="21.959805" lon="104.76416"><ele>76.6</ele><time>2011-04-28T08:07:54.0000000+00:00</time></trkpt><trkpt lat="21.959543" lon="104.764084"><ele>76.7</ele><time>2011-04-28T08:07:59.0000000+00:00</time></trkpt><trkpt lat="21.959248" lon="104.764061"><ele>76.6</ele><time>2011-04-28T08:08:04.0000000+00:00</time></trkpt><trkpt lat="21.959064" lon="104.764282"><ele>75.7</ele><time>2011-04-28T08:08:09.0000000+00:00</time></trkpt><trkpt lat="21.958937" lon="104.764511"><ele>74.7</ele><time>2011-04-28T08:08:14.0000000+00:00</time></trkpt><trkpt lat="21.958843" lon="104.764725"><ele>76.7</ele><time>2011-04-28T08:08:19.0000000+00:00</time></trkpt><trkpt lat="21.958733" lon="104.764915"><ele>79.4</ele><time>2011-04-28T08:08:24.0000000+00:00</time></trkpt><trkpt lat="21.958607" lon="104.76506"><ele>80.3</ele><time>2011-04-28T08:08:29.0000000+00:00</time></trkpt><trkpt lat="21.958445" lon="104.765221"><ele>80.8</ele><time>2011-04-28T08:08:34.0000000+00:00</time></trkpt><trkpt lat="21.958328" lon="104.765388"><ele>85.3</ele><time>2011-04-28T08:08:39.0000000+00:00</time></trkpt><trkpt lat="21.958311" lon="104.765625"><ele>88.2</ele><time>2011-04-28T08:08:44.0000000+00:00</time></trkpt><trkpt lat="21.958313" lon="104.765854"><ele>90.4</ele><time>2011-04-28T08:08:49.0000000+00:00</time></trkpt><trkpt lat="21.958328" lon="104.766075"><ele>91.9</ele><time>2011-04-28T08:08:54.0000000+00:00</time></trkpt><trkpt lat="21.958298" lon="104.766312"><ele>90.4</ele><time>2011-04-28T08:08:59.0000000+00:00</time></trkpt><trkpt lat="21.958208" lon="104.766525"><ele>89.0</ele><time>2011-04-28T08:09:04.0000000+00:00</time></trkpt><trkpt lat="21.958067" lon="104.766693"><ele>88.8</ele><time>2011-04-28T08:09:09.0000000+00:00</time></trkpt><trkpt lat="21.957911" lon="104.76683"><ele>88.1</ele><time>2011-04-28T08:09:14.0000000+00:00</time></trkpt><trkpt lat="21.95776" lon="104.766937"><ele>87.0</ele><time>2011-04-28T08:09:19.0000000+00:00</time></trkpt><trkpt lat="21.957598" lon="104.767021"><ele>86.6</ele><time>2011-04-28T08:09:24.0000000+00:00</time></trkpt><trkpt lat="21.957457" lon="104.767105"><ele>84.2</ele><time>2011-04-28T08:09:29.0000000+00:00</time></trkpt><trkpt lat="21.957348" lon="104.767159"><ele>83.0</ele><time>2011-04-28T08:09:34.0000000+00:00</time></trkpt><trkpt lat="21.957262" lon="104.767197"><ele>83.2</ele><time>2011-04-28T08:09:39.0000000+00:00</time></trkpt><trkpt lat="21.957167" lon="104.76725"><ele>83.6</ele><time>2011-04-28T08:09:44.0000000+00:00</time></trkpt><trkpt lat="21.957069" lon="104.767273"><ele>83.8</ele><time>2011-04-28T08:09:49.0000000+00:00</time></trkpt><trkpt lat="21.956961" lon="104.767326"><ele>84.2</ele><time>2011-04-28T08:09:54.0000000+00:00</time></trkpt><trkpt lat="21.956841" lon="104.76738"><ele>85.3</ele><time>2011-04-28T08:09:59.0000000+00:00</time></trkpt><trkpt lat="21.956757" lon="104.767426"><ele>86.6</ele><time>2011-04-28T08:10:04.0000000+00:00</time></trkpt><trkpt lat="21.956678" lon="104.767471"><ele>85.6</ele><time>2011-04-28T08:10:09.0000000+00:00</time></trkpt><trkpt lat="21.956631" lon="104.76754"><ele>85.7</ele><time>2011-04-28T08:10:14.0000000+00:00</time></trkpt><trkpt lat="21.956568" lon="104.767593"><ele>86.5</ele><time>2011-04-28T08:10:19.0000000+00:00</time></trkpt><trkpt lat="21.956499" lon="104.767632"><ele>86.2</ele><time>2011-04-28T08:10:24.0000000+00:00</time></trkpt><trkpt lat="21.956413" lon="104.76767"><ele>86.3</ele><time>2011-04-28T08:10:29.0000000+00:00</time></trkpt><trkpt lat="21.956333" lon="104.767723"><ele>86.1</ele><time>2011-04-28T08:10:34.0000000+00:00</time></trkpt><trkpt lat="21.956209" lon="104.767815"><ele>87.2</ele><time>2011-04-28T08:10:39.0000000+00:00</time></trkpt><trkpt lat="21.956093" lon="104.767883"><ele>88.8</ele><time>2011-04-28T08:10:44.0000000+00:00</time></trkpt><trkpt lat="21.95598" lon="104.767967"><ele>88.6</ele><time>2011-04-28T08:10:49.0000000+00:00</time></trkpt><trkpt lat="21.955864" lon="104.768021"><ele>89.3</ele><time>2011-04-28T08:10:54.0000000+00:00</time></trkpt><trkpt lat="21.955767" lon="104.768059"><ele>91.8</ele><time>2011-04-28T08:10:59.0000000+00:00</time></trkpt><trkpt lat="21.955643" lon="104.768112"><ele>93.0</ele><time>2011-04-28T08:11:04.0000000+00:00</time></trkpt><trkpt lat="21.955519" lon="104.76815"><ele>94.1</ele><time>2011-04-28T08:11:09.0000000+00:00</time></trkpt><trkpt lat="21.955397" lon="104.768173"><ele>94.8</ele><time>2011-04-28T08:11:14.0000000+00:00</time></trkpt><trkpt lat="21.955276" lon="104.768234"><ele>93.9</ele><time>2011-04-28T08:11:19.0000000+00:00</time></trkpt><trkpt lat="21.955231" lon="104.768272"><ele>94.8</ele><time>2011-04-28T08:11:24.0000000+00:00</time></trkpt><trkpt lat="21.955219" lon="104.768326"><ele>94.6</ele><time>2011-04-28T08:11:29.0000000+00:00</time></trkpt><trkpt lat="21.955198" lon="104.768433"><ele>93.9</ele><time>2011-04-28T08:11:34.0000000+00:00</time></trkpt><trkpt lat="21.955194" lon="104.768547"><ele>94.8</ele><time>2011-04-28T08:11:39.0000000+00:00</time></trkpt><trkpt lat="21.955208" lon="104.768669"><ele>95.2</ele><time>2011-04-28T08:11:44.0000000+00:00</time></trkpt><trkpt lat="21.955231" lon="104.768814"><ele>96.6</ele><time>2011-04-28T08:11:49.0000000+00:00</time></trkpt><trkpt lat="21.955212" lon="104.768944"><ele>96.5</ele><time>2011-04-28T08:11:54.0000000+00:00</time></trkpt><trkpt lat="21.955143" lon="104.769051"><ele>94.8</ele><time>2011-04-28T08:11:59.0000000+00:00</time></trkpt><trkpt lat="21.955051" lon="104.769127"><ele>93.7</ele><time>2011-04-28T08:12:04.0000000+00:00</time></trkpt><trkpt lat="21.95496" lon="104.769188"><ele>92.3</ele><time>2011-04-28T08:12:09.0000000+00:00</time></trkpt><trkpt lat="21.954823" lon="104.769257"><ele>92.4</ele><time>2011-04-28T08:12:14.0000000+00:00</time></trkpt><trkpt lat="21.954708" lon="104.76931"><ele>92.6</ele><time>2011-04-28T08:12:19.0000000+00:00</time></trkpt><trkpt lat="21.954615" lon="104.769379"><ele>92.9</ele><time>2011-04-28T08:12:24.0000000+00:00</time></trkpt><trkpt lat="21.954523" lon="104.769455"><ele>93.2</ele><time>2011-04-28T08:12:29.0000000+00:00</time></trkpt><trkpt lat="21.954376" lon="104.769531"><ele>93.6</ele><time>2011-04-28T08:12:34.0000000+00:00</time></trkpt><trkpt lat="21.954098" lon="104.769707"><ele>95.1</ele><time>2011-04-28T08:12:39.0000000+00:00</time></trkpt><trkpt lat="21.953739" lon="104.769928"><ele>94.5</ele><time>2011-04-28T08:12:44.0000000+00:00</time></trkpt><trkpt lat="21.953251" lon="104.770164"><ele>91.1</ele><time>2011-04-28T08:12:49.0000000+00:00</time></trkpt><trkpt lat="21.952827" lon="104.770287"><ele>89.9</ele><time>2011-04-28T08:12:54.0000000+00:00</time></trkpt><trkpt lat="21.952446" lon="104.770386"><ele>88.3</ele><time>2011-04-28T08:12:59.0000000+00:00</time></trkpt><trkpt lat="21.952122" lon="104.7705"><ele>86.9</ele><time>2011-04-28T08:13:04.0000000+00:00</time></trkpt><trkpt lat="21.951912" lon="104.770721"><ele>85.8</ele><time>2011-04-28T08:13:09.0000000+00:00</time></trkpt><trkpt lat="21.951822" lon="104.770935"><ele>85.1</ele><time>2011-04-28T08:13:14.0000000+00:00</time></trkpt><trkpt lat="21.951799" lon="104.771057"><ele>84.7</ele><time>2011-04-28T08:13:19.0000000+00:00</time></trkpt><trkpt lat="21.951712" lon="104.771309"><ele>83.4</ele><time>2011-04-28T08:13:24.0000000+00:00</time></trkpt><trkpt lat="21.951557" lon="104.771706"><ele>80.9</ele><time>2011-04-28T08:13:29.0000000+00:00</time></trkpt><trkpt lat="21.951235" lon="104.772133"><ele>78.7</ele><time>2011-04-28T08:13:34.0000000+00:00</time></trkpt><trkpt lat="21.950823" lon="104.772324"><ele>75.8</ele><time>2011-04-28T08:13:39.0000000+00:00</time></trkpt><trkpt lat="21.950583" lon="104.772499"><ele>74.7</ele><time>2011-04-28T08:13:44.0000000+00:00</time></trkpt><trkpt lat="21.950384" lon="104.772675"><ele>73.1</ele><time>2011-04-28T08:13:49.0000000+00:00</time></trkpt><trkpt lat="21.950167" lon="104.772812"><ele>71.2</ele><time>2011-04-28T08:13:54.0000000+00:00</time></trkpt><trkpt lat="21.949936" lon="104.772926"><ele>69.5</ele><time>2011-04-28T08:13:59.0000000+00:00</time></trkpt><trkpt lat="21.949669" lon="104.773048"><ele>67.8</ele><time>2011-04-28T08:14:04.0000000+00:00</time></trkpt><trkpt lat="21.949415" lon="104.773224"><ele>68.1</ele><time>2011-04-28T08:14:09.0000000+00:00</time></trkpt><trkpt lat="21.949198" lon="104.773445"><ele>66.7</ele><time>2011-04-28T08:14:14.0000000+00:00</time></trkpt><trkpt lat="21.948957" lon="104.773659"><ele>66.9</ele><time>2011-04-28T08:14:19.0000000+00:00</time></trkpt><trkpt lat="21.94875" lon="104.773865"><ele>66.6</ele><time>2011-04-28T08:14:24.0000000+00:00</time></trkpt><trkpt lat="21.948542" lon="104.774063"><ele>67.3</ele><time>2011-04-28T08:14:29.0000000+00:00</time></trkpt><trkpt lat="21.948339" lon="104.774277"><ele>67.3</ele><time>2011-04-28T08:14:34.0000000+00:00</time></trkpt><trkpt lat="21.948124" lon="104.774506"><ele>67.8</ele><time>2011-04-28T08:14:39.0000000+00:00</time></trkpt><trkpt lat="21.947937" lon="104.774712"><ele>67.4</ele><time>2011-04-28T08:14:44.0000000+00:00</time></trkpt><trkpt lat="21.947708" lon="104.774857"><ele>69.2</ele><time>2011-04-28T08:14:49.0000000+00:00</time></trkpt><trkpt lat="21.947498" lon="104.774918"><ele>69.3</ele><time>2011-04-28T08:14:54.0000000+00:00</time></trkpt><trkpt lat="21.947285" lon="104.774956"><ele>70.6</ele><time>2011-04-28T08:14:59.0000000+00:00</time></trkpt><trkpt lat="21.947105" lon="104.775017"><ele>70.7</ele><time>2011-04-28T08:15:04.0000000+00:00</time></trkpt><trkpt lat="21.946909" lon="104.775139"><ele>70.2</ele><time>2011-04-28T08:15:09.0000000+00:00</time></trkpt><trkpt lat="21.946722" lon="104.775284"><ele>69.3</ele><time>2011-04-28T08:15:14.0000000+00:00</time></trkpt><trkpt lat="21.94652" lon="104.775414"><ele>69.0</ele><time>2011-04-28T08:15:19.0000000+00:00</time></trkpt><trkpt lat="21.946335" lon="104.775551"><ele>69.3</ele><time>2011-04-28T08:15:24.0000000+00:00</time></trkpt><trkpt lat="21.94619" lon="104.775711"><ele>69.9</ele><time>2011-04-28T08:15:29.0000000+00:00</time></trkpt><trkpt lat="21.946157" lon="104.776039"><ele>68.1</ele><time>2011-04-28T08:15:34.0000000+00:00</time></trkpt><trkpt lat="21.946161" lon="104.776367"><ele>67.9</ele><time>2011-04-28T08:15:39.0000000+00:00</time></trkpt><trkpt lat="21.946163" lon="104.776672"><ele>67.4</ele><time>2011-04-28T08:15:44.0000000+00:00</time></trkpt><trkpt lat="21.946081" lon="104.776932"><ele>66.5</ele><time>2011-04-28T08:15:49.0000000+00:00</time></trkpt><trkpt lat="21.945896" lon="104.777061"><ele>65.8</ele><time>2011-04-28T08:15:54.0000000+00:00</time></trkpt><trkpt lat="21.94565" lon="104.777199"><ele>65.9</ele><time>2011-04-28T08:15:59.0000000+00:00</time></trkpt><trkpt lat="21.945473" lon="104.777344"><ele>65.5</ele><time>2011-04-28T08:16:04.0000000+00:00</time></trkpt><trkpt lat="21.945372" lon="104.777542"><ele>64.3</ele><time>2011-04-28T08:16:09.0000000+00:00</time></trkpt><trkpt lat="21.945372" lon="104.777809"><ele>63.8</ele><time>2011-04-28T08:16:14.0000000+00:00</time></trkpt><trkpt lat="21.945288" lon="104.778137"><ele>63.6</ele><time>2011-04-28T08:16:19.0000000+00:00</time></trkpt><trkpt lat="21.945133" lon="104.778381"><ele>64.2</ele><time>2011-04-28T08:16:24.0000000+00:00</time></trkpt><trkpt lat="21.945005" lon="104.778603"><ele>65.2</ele><time>2011-04-28T08:16:29.0000000+00:00</time></trkpt><trkpt lat="21.944862" lon="104.778702"><ele>66.6</ele><time>2011-04-28T08:16:34.0000000+00:00</time></trkpt><trkpt lat="21.944773" lon="104.778763"><ele>67.3</ele><time>2011-04-28T08:16:39.0000000+00:00</time></trkpt><trkpt lat="21.944654" lon="104.778809"><ele>67.6</ele><time>2011-04-28T08:16:44.0000000+00:00</time></trkpt><trkpt lat="21.944546" lon="104.77887"><ele>67.8</ele><time>2011-04-28T08:16:49.0000000+00:00</time></trkpt><trkpt lat="21.944462" lon="104.778908"><ele>68.2</ele><time>2011-04-28T08:16:54.0000000+00:00</time></trkpt><trkpt lat="21.944361" lon="104.778946"><ele>68.6</ele><time>2011-04-28T08:16:59.0000000+00:00</time></trkpt><trkpt lat="21.944281" lon="104.779007"><ele>69.3</ele><time>2011-04-28T08:17:04.0000000+00:00</time></trkpt><trkpt lat="21.944185" lon="104.779045"><ele>70.1</ele><time>2011-04-28T08:17:09.0000000+00:00</time></trkpt><trkpt lat="21.944067" lon="104.779106"><ele>70.9</ele><time>2011-04-28T08:17:14.0000000+00:00</time></trkpt><trkpt lat="21.943939" lon="104.779175"><ele>74.0</ele><time>2011-04-28T08:17:19.0000000+00:00</time></trkpt><trkpt lat="21.94383" lon="104.779198"><ele>74.6</ele><time>2011-04-28T08:17:24.0000000+00:00</time></trkpt><trkpt lat="21.943722" lon="104.779251"><ele>74.6</ele><time>2011-04-28T08:17:29.0000000+00:00</time></trkpt><trkpt lat="21.943636" lon="104.779297"><ele>74.9</ele><time>2011-04-28T08:17:34.0000000+00:00</time></trkpt><trkpt lat="21.943571" lon="104.779312"><ele>75.6</ele><time>2011-04-28T08:17:39.0000000+00:00</time></trkpt><trkpt lat="21.943548" lon="104.779343"><ele>76.2</ele><time>2011-04-28T08:17:44.0000000+00:00</time></trkpt><trkpt lat="21.943548" lon="104.779343"><ele>76.5</ele><time>2011-04-28T08:17:49.0000000+00:00</time></trkpt><trkpt lat="21.94355" lon="104.779343"><ele>76.6</ele><time>2011-04-28T08:17:54.0000000+00:00</time></trkpt><trkpt lat="21.94355" lon="104.77935"><ele>76.7</ele><time>2011-04-28T08:17:59.0000000+00:00</time></trkpt><trkpt lat="21.943552" lon="104.77935"><ele>76.7</ele><time>2011-04-28T08:18:04.0000000+00:00</time></trkpt><trkpt lat="21.943554" lon="104.77935"><ele>76.7</ele><time>2011-04-28T08:18:09.0000000+00:00</time></trkpt><trkpt lat="21.943554" lon="104.77935"><ele>76.7</ele><time>2011-04-28T08:18:14.0000000+00:00</time></trkpt><trkpt lat="21.943554" lon="104.77935"><ele>76.8</ele><time>2011-04-28T08:18:19.0000000+00:00</time></trkpt><trkpt lat="21.943554" lon="104.77935"><ele>76.8</ele><time>2011-04-28T08:18:24.0000000+00:00</time></trkpt><trkpt lat="21.943554" lon="104.77935"><ele>76.8</ele><time>2011-04-28T08:18:29.0000000+00:00</time></trkpt><trkpt lat="21.94355" lon="104.77935"><ele>76.6</ele><time>2011-04-28T08:18:34.0000000+00:00</time></trkpt><trkpt lat="21.943548" lon="104.779358"><ele>76.5</ele><time>2011-04-28T08:18:39.0000000+00:00</time></trkpt><trkpt lat="21.943548" lon="104.779358"><ele>76.2</ele><time>2011-04-28T08:18:44.0000000+00:00</time></trkpt><trkpt lat="21.943544" lon="104.779358"><ele>75.8</ele><time>2011-04-28T08:18:49.0000000+00:00</time></trkpt><trkpt lat="21.943542" lon="104.779358"><ele>76.7</ele><time>2011-04-28T08:18:54.0000000+00:00</time></trkpt><trkpt lat="21.943541" lon="104.779358"><ele>77.2</ele><time>2011-04-28T08:18:59.0000000+00:00</time></trkpt><trkpt lat="21.943535" lon="104.77935"><ele>77.3</ele><time>2011-04-28T08:19:04.0000000+00:00</time></trkpt><trkpt lat="21.943531" lon="104.77935"><ele>77.5</ele><time>2011-04-28T08:19:09.0000000+00:00</time></trkpt><trkpt lat="21.943533" lon="104.77935"><ele>78.6</ele><time>2011-04-28T08:19:14.0000000+00:00</time></trkpt><trkpt lat="21.943533" lon="104.77935"><ele>78.6</ele><time>2011-04-28T08:19:19.0000000+00:00</time></trkpt><trkpt lat="21.943533" lon="104.77935"><ele>78.6</ele><time>2011-04-28T08:19:24.0000000+00:00</time></trkpt><trkpt lat="21.943533" lon="104.77935"><ele>78.6</ele><time>2011-04-28T08:19:29.0000000+00:00</time></trkpt><trkpt lat="21.943533" lon="104.77935"><ele>78.7</ele><time>2011-04-28T08:19:34.0000000+00:00</time></trkpt><trkpt lat="21.943533" lon="104.77935"><ele>78.7</ele><time>2011-04-28T08:19:39.0000000+00:00</time></trkpt><trkpt lat="21.943533" lon="104.77935"><ele>78.7</ele><time>2011-04-28T08:19:44.0000000+00:00</time></trkpt><trkpt lat="21.943531" lon="104.77935"><ele>78.8</ele><time>2011-04-28T08:19:49.0000000+00:00</time></trkpt><trkpt lat="21.943531" lon="104.77935"><ele>78.8</ele><time>2011-04-28T08:19:54.0000000+00:00</time></trkpt><trkpt lat="21.943531" lon="104.77935"><ele>78.8</ele><time>2011-04-28T08:19:59.0000000+00:00</time></trkpt><trkpt lat="21.943531" lon="104.77935"><ele>78.8</ele><time>2011-04-28T08:20:04.0000000+00:00</time></trkpt><trkpt lat="21.943531" lon="104.77935"><ele>78.8</ele><time>2011-04-28T08:20:09.0000000+00:00</time></trkpt><trkpt lat="21.943531" lon="104.77935"><ele>78.8</ele><time>2011-04-28T08:20:14.0000000+00:00</time></trkpt><trkpt lat="21.943531" lon="104.77935"><ele>78.8</ele><time>2011-04-28T08:20:19.0000000+00:00</time></trkpt><trkpt lat="21.943531" lon="104.77935"><ele>78.8</ele><time>2011-04-28T08:20:24.0000000+00:00</time></trkpt><trkpt lat="21.943531" lon="104.77935"><ele>78.8</ele><time>2011-04-28T08:20:29.0000000+00:00</time></trkpt><trkpt lat="21.943531" lon="104.77935"><ele>78.9</ele><time>2011-04-28T08:20:34.0000000+00:00</time></trkpt><trkpt lat="21.943531" lon="104.77935"><ele>78.9</ele><time>2011-04-28T08:20:39.0000000+00:00</time></trkpt><trkpt lat="21.943531" lon="104.77935"><ele>78.9</ele><time>2011-04-28T08:20:44.0000000+00:00</time></trkpt><trkpt lat="21.943531" lon="104.77935"><ele>78.9</ele><time>2011-04-28T08:20:49.0000000+00:00</time></trkpt><trkpt lat="21.943531" lon="104.77935"><ele>78.9</ele><time>2011-04-28T08:20:54.0000000+00:00</time></trkpt><trkpt lat="21.943531" lon="104.77935"><ele>79.0</ele><time>2011-04-28T08:20:59.0000000+00:00</time></trkpt><trkpt lat="21.943531" lon="104.77935"><ele>79.0</ele><time>2011-04-28T08:21:04.0000000+00:00</time></trkpt><trkpt lat="21.943531" lon="104.77935"><ele>79.0</ele><time>2011-04-28T08:21:09.0000000+00:00</time></trkpt><trkpt lat="21.943531" lon="104.77935"><ele>79.0</ele><time>2011-04-28T08:21:14.0000000+00:00</time></trkpt><trkpt lat="21.943439" lon="104.779388"><ele>78.5</ele><time>2011-04-28T08:21:19.0000000+00:00</time></trkpt><trkpt lat="21.943287" lon="104.779427"><ele>80.2</ele><time>2011-04-28T08:21:24.0000000+00:00</time></trkpt><trkpt lat="21.943079" lon="104.77948"><ele>83.5</ele><time>2011-04-28T08:21:29.0000000+00:00</time></trkpt><trkpt lat="21.942831" lon="104.779633"><ele>85.2</ele><time>2011-04-28T08:21:34.0000000+00:00</time></trkpt><trkpt lat="21.942671" lon="104.779945"><ele>84.4</ele><time>2011-04-28T08:21:39.0000000+00:00</time></trkpt><trkpt lat="21.942497" lon="104.780197"><ele>86.1</ele><time>2011-04-28T08:21:44.0000000+00:00</time></trkpt><trkpt lat="21.942163" lon="104.780418"><ele>88.2</ele><time>2011-04-28T08:21:49.0000000+00:00</time></trkpt><trkpt lat="21.941885" lon="104.780716"><ele>84.5</ele><time>2011-04-28T08:21:54.0000000+00:00</time></trkpt><trkpt lat="21.941919" lon="104.781036"><ele>83.7</ele><time>2011-04-28T08:21:59.0000000+00:00</time></trkpt><trkpt lat="21.942057" lon="104.781425"><ele>81.9</ele><time>2011-04-28T08:22:04.0000000+00:00</time></trkpt><trkpt lat="21.942207" lon="104.781837"><ele>80.7</ele><time>2011-04-28T08:22:09.0000000+00:00</time></trkpt><trkpt lat="21.942389" lon="104.782204"><ele>79.1</ele><time>2011-04-28T08:22:14.0000000+00:00</time></trkpt><trkpt lat="21.942526" lon="104.782509"><ele>76.3</ele><time>2011-04-28T08:22:19.0000000+00:00</time></trkpt><trkpt lat="21.942503" lon="104.782814"><ele>73.1</ele><time>2011-04-28T08:22:24.0000000+00:00</time></trkpt><trkpt lat="21.942425" lon="104.783035"><ele>69.7</ele><time>2011-04-28T08:22:29.0000000+00:00</time></trkpt><trkpt lat="21.942411" lon="104.783264"><ele>66.5</ele><time>2011-04-28T08:22:34.0000000+00:00</time></trkpt><trkpt lat="21.9424" lon="104.783546"><ele>63.0</ele><time>2011-04-28T08:22:39.0000000+00:00</time></trkpt><trkpt lat="21.942307" lon="104.783806"><ele>59.8</ele><time>2011-04-28T08:22:44.0000000+00:00</time></trkpt><trkpt lat="21.94207" lon="104.784035"><ele>61.2</ele><time>2011-04-28T08:22:49.0000000+00:00</time></trkpt><trkpt lat="21.941814" lon="104.784218"><ele>62.7</ele><time>2011-04-28T08:22:54.0000000+00:00</time></trkpt><trkpt lat="21.94162" lon="104.784378"><ele>63.0</ele><time>2011-04-28T08:22:59.0000000+00:00</time></trkpt><trkpt lat="21.941433" lon="104.784554"><ele>63.6</ele><time>2011-04-28T08:23:04.0000000+00:00</time></trkpt><trkpt lat="21.941252" lon="104.784721"><ele>63.5</ele><time>2011-04-28T08:23:09.0000000+00:00</time></trkpt><trkpt lat="21.941074" lon="104.784851"><ele>63.9</ele><time>2011-04-28T08:23:14.0000000+00:00</time></trkpt><trkpt lat="21.940918" lon="104.784981"><ele>64.5</ele><time>2011-04-28T08:23:19.0000000+00:00</time></trkpt><trkpt lat="21.940773" lon="104.785103"><ele>66.0</ele><time>2011-04-28T08:23:24.0000000+00:00</time></trkpt><trkpt lat="21.940649" lon="104.785202"><ele>67.6</ele><time>2011-04-28T08:23:29.0000000+00:00</time></trkpt><trkpt lat="21.940557" lon="104.785294"><ele>69.3</ele><time>2011-04-28T08:23:34.0000000+00:00</time></trkpt><trkpt lat="21.940411" lon="104.785446"><ele>71.0</ele><time>2011-04-28T08:23:39.0000000+00:00</time></trkpt><trkpt lat="21.940243" lon="104.785599"><ele>71.7</ele><time>2011-04-28T08:23:44.0000000+00:00</time></trkpt><trkpt lat="21.940092" lon="104.785782"><ele>73.1</ele><time>2011-04-28T08:23:49.0000000+00:00</time></trkpt><trkpt lat="21.940044" lon="104.785843"><ele>72.7</ele><time>2011-04-28T08:23:54.0000000+00:00</time></trkpt><trkpt lat="21.940044" lon="104.785843"><ele>72.4</ele><time>2011-04-28T08:23:59.0000000+00:00</time></trkpt><trkpt lat="21.940042" lon="104.785843"><ele>72.4</ele><time>2011-04-28T08:24:04.0000000+00:00</time></trkpt><trkpt lat="21.940044" lon="104.785828"><ele>72.5</ele><time>2011-04-28T08:24:09.0000000+00:00</time></trkpt><trkpt lat="21.94006" lon="104.78582"><ele>72.4</ele><time>2011-04-28T08:24:14.0000000+00:00</time></trkpt><trkpt lat="21.940058" lon="104.785812"><ele>72.5</ele><time>2011-04-28T08:24:19.0000000+00:00</time></trkpt><trkpt lat="21.94006" lon="104.785812"><ele>72.5</ele><time>2011-04-28T08:24:24.0000000+00:00</time></trkpt><trkpt lat="21.94006" lon="104.785812"><ele>72.5</ele><time>2011-04-28T08:24:29.0000000+00:00</time></trkpt><trkpt lat="21.940048" lon="104.785805"><ele>72.7</ele><time>2011-04-28T08:24:34.0000000+00:00</time></trkpt><trkpt lat="21.940041" lon="104.785797"><ele>72.7</ele><time>2011-04-28T08:24:39.0000000+00:00</time></trkpt><trkpt lat="21.940029" lon="104.785797"><ele>72.7</ele><time>2011-04-28T08:24:44.0000000+00:00</time></trkpt><trkpt lat="21.940029" lon="104.785805"><ele>72.8</ele><time>2011-04-28T08:24:49.0000000+00:00</time></trkpt><trkpt lat="21.940029" lon="104.785805"><ele>72.8</ele><time>2011-04-28T08:24:54.0000000+00:00</time></trkpt><trkpt lat="21.940031" lon="104.785805"><ele>72.8</ele><time>2011-04-28T08:24:59.0000000+00:00</time></trkpt><trkpt lat="21.940031" lon="104.785805"><ele>72.8</ele><time>2011-04-28T08:25:04.0000000+00:00</time></trkpt><trkpt lat="21.940037" lon="104.785805"><ele>72.9</ele><time>2011-04-28T08:25:09.0000000+00:00</time></trkpt><trkpt lat="21.940031" lon="104.78582"><ele>72.9</ele><time>2011-04-28T08:25:14.0000000+00:00</time></trkpt><trkpt lat="21.94002" lon="104.785835"><ele>72.9</ele><time>2011-04-28T08:25:19.0000000+00:00</time></trkpt><trkpt lat="21.940022" lon="104.785843"><ele>72.8</ele><time>2011-04-28T08:25:24.0000000+00:00</time></trkpt><trkpt lat="21.940023" lon="104.785843"><ele>72.8</ele><time>2011-04-28T08:25:29.0000000+00:00</time></trkpt><trkpt lat="21.940022" lon="104.785843"><ele>72.9</ele><time>2011-04-28T08:25:34.0000000+00:00</time></trkpt><trkpt lat="21.940022" lon="104.785843"><ele>72.9</ele><time>2011-04-28T08:25:39.0000000+00:00</time></trkpt><trkpt lat="21.940022" lon="104.785843"><ele>73.0</ele><time>2011-04-28T08:25:44.0000000+00:00</time></trkpt><trkpt lat="21.94002" lon="104.785843"><ele>73.0</ele><time>2011-04-28T08:25:49.0000000+00:00</time></trkpt><trkpt lat="21.940022" lon="104.785843"><ele>72.9</ele><time>2011-04-28T08:25:54.0000000+00:00</time></trkpt><trkpt lat="21.940022" lon="104.785843"><ele>72.9</ele><time>2011-04-28T08:25:59.0000000+00:00</time></trkpt><trkpt lat="21.940022" lon="104.785843"><ele>72.9</ele><time>2011-04-28T08:26:04.0000000+00:00</time></trkpt><trkpt lat="21.940022" lon="104.785843"><ele>72.9</ele><time>2011-04-28T08:26:09.0000000+00:00</time></trkpt><trkpt lat="21.940022" lon="104.785843"><ele>72.9</ele><time>2011-04-28T08:26:14.0000000+00:00</time></trkpt><trkpt lat="21.940022" lon="104.785843"><ele>73.1</ele><time>2011-04-28T08:26:19.0000000+00:00</time></trkpt><trkpt lat="21.94002" lon="104.785843"><ele>73.1</ele><time>2011-04-28T08:26:24.0000000+00:00</time></trkpt><trkpt lat="21.94002" lon="104.785843"><ele>73.1</ele><time>2011-04-28T08:26:29.0000000+00:00</time></trkpt><trkpt lat="21.94002" lon="104.785851"><ele>73.2</ele><time>2011-04-28T08:26:34.0000000+00:00</time></trkpt><trkpt lat="21.940018" lon="104.785851"><ele>73.4</ele><time>2011-04-28T08:26:39.0000000+00:00</time></trkpt><trkpt lat="21.940018" lon="104.785851"><ele>73.5</ele><time>2011-04-28T08:26:44.0000000+00:00</time></trkpt><trkpt lat="21.940016" lon="104.785851"><ele>73.6</ele><time>2011-04-28T08:26:49.0000000+00:00</time></trkpt><trkpt lat="21.940016" lon="104.785851"><ele>73.7</ele><time>2011-04-28T08:26:54.0000000+00:00</time></trkpt><trkpt lat="21.940016" lon="104.785851"><ele>73.6</ele><time>2011-04-28T08:26:59.0000000+00:00</time></trkpt><trkpt lat="21.940016" lon="104.785851"><ele>73.5</ele><time>2011-04-28T08:27:04.0000000+00:00</time></trkpt><trkpt lat="21.940016" lon="104.785851"><ele>73.5</ele><time>2011-04-28T08:27:09.0000000+00:00</time></trkpt><trkpt lat="21.940016" lon="104.785851"><ele>73.5</ele><time>2011-04-28T08:27:14.0000000+00:00</time></trkpt><trkpt lat="21.940016" lon="104.785851"><ele>73.5</ele><time>2011-04-28T08:27:19.0000000+00:00</time></trkpt><trkpt lat="21.940016" lon="104.785851"><ele>73.5</ele><time>2011-04-28T08:27:24.0000000+00:00</time></trkpt><trkpt lat="21.940016" lon="104.785851"><ele>73.5</ele><time>2011-04-28T08:27:29.0000000+00:00</time></trkpt><trkpt lat="21.940016" lon="104.785851"><ele>73.4</ele><time>2011-04-28T08:27:34.0000000+00:00</time></trkpt><trkpt lat="21.940016" lon="104.785851"><ele>73.4</ele><time>2011-04-28T08:27:39.0000000+00:00</time></trkpt><trkpt lat="21.940016" lon="104.785851"><ele>73.3</ele><time>2011-04-28T08:27:44.0000000+00:00</time></trkpt><trkpt lat="21.940016" lon="104.785851"><ele>73.2</ele><time>2011-04-28T08:27:49.0000000+00:00</time></trkpt><trkpt lat="21.940016" lon="104.785858"><ele>73.1</ele><time>2011-04-28T08:27:54.0000000+00:00</time></trkpt><trkpt lat="21.940016" lon="104.785858"><ele>73.1</ele><time>2011-04-28T08:27:59.0000000+00:00</time></trkpt><trkpt lat="21.940016" lon="104.785858"><ele>73.1</ele><time>2011-04-28T08:28:04.0000000+00:00</time></trkpt><trkpt lat="21.940016" lon="104.785858"><ele>73.1</ele><time>2011-04-28T08:28:09.0000000+00:00</time></trkpt><trkpt lat="21.940016" lon="104.785858"><ele>73.1</ele><time>2011-04-28T08:28:14.0000000+00:00</time></trkpt><trkpt lat="21.940016" lon="104.785858"><ele>73.1</ele><time>2011-04-28T08:28:19.0000000+00:00</time></trkpt><trkpt lat="21.940016" lon="104.785858"><ele>73.1</ele><time>2011-04-28T08:28:24.0000000+00:00</time></trkpt><trkpt lat="21.940016" lon="104.785858"><ele>73.1</ele><time>2011-04-28T08:28:29.0000000+00:00</time></trkpt><trkpt lat="21.940014" lon="104.785858"><ele>73.1</ele><time>2011-04-28T08:28:34.0000000+00:00</time></trkpt><trkpt lat="21.940014" lon="104.785858"><ele>73.1</ele><time>2011-04-28T08:28:39.0000000+00:00</time></trkpt><trkpt lat="21.940014" lon="104.785858"><ele>73.1</ele><time>2011-04-28T08:28:44.0000000+00:00</time></trkpt><trkpt lat="21.940014" lon="104.785858"><ele>73.2</ele><time>2011-04-28T08:28:49.0000000+00:00</time></trkpt><trkpt lat="21.940014" lon="104.785858"><ele>73.2</ele><time>2011-04-28T08:28:54.0000000+00:00</time></trkpt><trkpt lat="21.940014" lon="104.785858"><ele>73.2</ele><time>2011-04-28T08:28:59.0000000+00:00</time></trkpt><trkpt lat="21.940014" lon="104.785858"><ele>73.2</ele><time>2011-04-28T08:29:04.0000000+00:00</time></trkpt><trkpt lat="21.940012" lon="104.785858"><ele>73.2</ele><time>2011-04-28T08:29:09.0000000+00:00</time></trkpt><trkpt lat="21.940012" lon="104.785858"><ele>73.2</ele><time>2011-04-28T08:29:14.0000000+00:00</time></trkpt><trkpt lat="21.940012" lon="104.785858"><ele>73.2</ele><time>2011-04-28T08:29:19.0000000+00:00</time></trkpt><trkpt lat="21.940012" lon="104.785858"><ele>73.2</ele><time>2011-04-28T08:29:24.0000000+00:00</time></trkpt><trkpt lat="21.940012" lon="104.785858"><ele>73.2</ele><time>2011-04-28T08:29:29.0000000+00:00</time></trkpt><trkpt lat="21.940012" lon="104.785858"><ele>73.2</ele><time>2011-04-28T08:29:34.0000000+00:00</time></trkpt><trkpt lat="21.940012" lon="104.785858"><ele>73.1</ele><time>2011-04-28T08:29:39.0000000+00:00</time></trkpt><trkpt lat="21.940012" lon="104.785858"><ele>73.1</ele><time>2011-04-28T08:29:44.0000000+00:00</time></trkpt><trkpt lat="21.940012" lon="104.785858"><ele>73.2</ele><time>2011-04-28T08:29:49.0000000+00:00</time></trkpt><trkpt lat="21.940012" lon="104.785858"><ele>73.1</ele><time>2011-04-28T08:29:54.0000000+00:00</time></trkpt><trkpt lat="21.940012" lon="104.785858"><ele>73.1</ele><time>2011-04-28T08:29:59.0000000+00:00</time></trkpt><trkpt lat="21.940012" lon="104.785858"><ele>73.1</ele><time>2011-04-28T08:30:04.0000000+00:00</time></trkpt><trkpt lat="21.940012" lon="104.785858"><ele>73.1</ele><time>2011-04-28T08:30:09.0000000+00:00</time></trkpt><trkpt lat="21.940012" lon="104.785858"><ele>73.1</ele><time>2011-04-28T08:30:14.0000000+00:00</time></trkpt><trkpt lat="21.940012" lon="104.785858"><ele>73.1</ele><time>2011-04-28T08:30:19.0000000+00:00</time></trkpt><trkpt lat="21.940012" lon="104.785858"><ele>73.1</ele><time>2011-04-28T08:30:24.0000000+00:00</time></trkpt><trkpt lat="21.940012" lon="104.785858"><ele>73.0</ele><time>2011-04-28T08:30:29.0000000+00:00</time></trkpt><trkpt lat="21.940012" lon="104.785858"><ele>73.0</ele><time>2011-04-28T08:30:34.0000000+00:00</time></trkpt><trkpt lat="21.940012" lon="104.785858"><ele>73.0</ele><time>2011-04-28T08:30:39.0000000+00:00</time></trkpt><trkpt lat="21.940008" lon="104.785866"><ele>73.1</ele><time>2011-04-28T08:30:44.0000000+00:00</time></trkpt><trkpt lat="21.940006" lon="104.785866"><ele>73.2</ele><time>2011-04-28T08:30:49.0000000+00:00</time></trkpt><trkpt lat="21.940004" lon="104.785866"><ele>73.3</ele><time>2011-04-28T08:30:54.0000000+00:00</time></trkpt><trkpt lat="21.940001" lon="104.785866"><ele>73.3</ele><time>2011-04-28T08:30:59.0000000+00:00</time></trkpt><trkpt lat="21.939997" lon="104.785866"><ele>73.3</ele><time>2011-04-28T08:31:04.0000000+00:00</time></trkpt><trkpt lat="21.939999" lon="104.785866"><ele>73.4</ele><time>2011-04-28T08:31:09.0000000+00:00</time></trkpt><trkpt lat="21.939995" lon="104.785858"><ele>73.4</ele><time>2011-04-28T08:31:14.0000000+00:00</time></trkpt><trkpt lat="21.939997" lon="104.785851"><ele>73.4</ele><time>2011-04-28T08:31:19.0000000+00:00</time></trkpt><trkpt lat="21.939997" lon="104.785851"><ele>73.4</ele><time>2011-04-28T08:31:24.0000000+00:00</time></trkpt><trkpt lat="21.939997" lon="104.785851"><ele>73.4</ele><time>2011-04-28T08:31:29.0000000+00:00</time></trkpt><trkpt lat="21.939995" lon="104.785858"><ele>73.4</ele><time>2011-04-28T08:31:34.0000000+00:00</time></trkpt><trkpt lat="21.939997" lon="104.785881"><ele>73.5</ele><time>2011-04-28T08:31:39.0000000+00:00</time></trkpt><trkpt lat="21.940004" lon="104.785896"><ele>73.9</ele><time>2011-04-28T08:31:44.0000000+00:00</time></trkpt><trkpt lat="21.94002" lon="104.785889"><ele>72.9</ele><time>2011-04-28T08:31:49.0000000+00:00</time></trkpt><trkpt lat="21.940033" lon="104.785904"><ele>71.9</ele><time>2011-04-28T08:31:54.0000000+00:00</time></trkpt><trkpt lat="21.940048" lon="104.785927"><ele>71.1</ele><time>2011-04-28T08:31:59.0000000+00:00</time></trkpt><trkpt lat="21.940052" lon="104.785927"><ele>70.2</ele><time>2011-04-28T08:32:04.0000000+00:00</time></trkpt><trkpt lat="21.940044" lon="104.785919"><ele>69.4</ele><time>2011-04-28T08:32:09.0000000+00:00</time></trkpt><trkpt lat="21.940035" lon="104.785896"><ele>68.7</ele><time>2011-04-28T08:32:14.0000000+00:00</time></trkpt><trkpt lat="21.940039" lon="104.785873"><ele>67.8</ele><time>2011-04-28T08:32:19.0000000+00:00</time></trkpt><trkpt lat="21.940041" lon="104.785866"><ele>67.6</ele><time>2011-04-28T08:32:24.0000000+00:00</time></trkpt><trkpt lat="21.940041" lon="104.785866"><ele>67.4</ele><time>2011-04-28T08:32:29.0000000+00:00</time></trkpt><trkpt lat="21.940041" lon="104.785866"><ele>67.2</ele><time>2011-04-28T08:32:34.0000000+00:00</time></trkpt><trkpt lat="21.940016" lon="104.785896"><ele>67.0</ele><time>2011-04-28T08:32:39.0000000+00:00</time></trkpt><trkpt lat="21.939903" lon="104.785965"><ele>66.5</ele><time>2011-04-28T08:32:44.0000000+00:00</time></trkpt><trkpt lat="21.939756" lon="104.786041"><ele>65.9</ele><time>2011-04-28T08:32:49.0000000+00:00</time></trkpt><trkpt lat="21.939596" lon="104.786102"><ele>66.8</ele><time>2011-04-28T08:32:54.0000000+00:00</time></trkpt><trkpt lat="21.939413" lon="104.786102"><ele>67.9</ele><time>2011-04-28T08:32:59.0000000+00:00</time></trkpt><trkpt lat="21.939188" lon="104.786072"><ele>67.8</ele><time>2011-04-28T08:33:04.0000000+00:00</time></trkpt><trkpt lat="21.938938" lon="104.786095"><ele>69.2</ele><time>2011-04-28T08:33:09.0000000+00:00</time></trkpt><trkpt lat="21.938717" lon="104.786118"><ele>71.0</ele><time>2011-04-28T08:33:14.0000000+00:00</time></trkpt><trkpt lat="21.938469" lon="104.786163"><ele>72.7</ele><time>2011-04-28T08:33:19.0000000+00:00</time></trkpt><trkpt lat="21.938263" lon="104.786209"><ele>75.4</ele><time>2011-04-28T08:33:24.0000000+00:00</time></trkpt><trkpt lat="21.938101" lon="104.786217"><ele>77.5</ele><time>2011-04-28T08:33:29.0000000+00:00</time></trkpt><trkpt lat="21.937933" lon="104.786201"><ele>75.9</ele><time>2011-04-28T08:33:34.0000000+00:00</time></trkpt><trkpt lat="21.937727" lon="104.786194"><ele>72.5</ele><time>2011-04-28T08:33:39.0000000+00:00</time></trkpt><trkpt lat="21.937567" lon="104.786163"><ele>71.5</ele><time>2011-04-28T08:33:44.0000000+00:00</time></trkpt><trkpt lat="21.937433" lon="104.786118"><ele>69.9</ele><time>2011-04-28T08:33:49.0000000+00:00</time></trkpt><trkpt lat="21.937283" lon="104.786057"><ele>71.5</ele><time>2011-04-28T08:33:54.0000000+00:00</time></trkpt><trkpt lat="21.937107" lon="104.786064"><ele>72.0</ele><time>2011-04-28T08:33:59.0000000+00:00</time></trkpt><trkpt lat="21.936892" lon="104.786057"><ele>73.9</ele><time>2011-04-28T08:34:04.0000000+00:00</time></trkpt><trkpt lat="21.936621" lon="104.786095"><ele>71.5</ele><time>2011-04-28T08:34:09.0000000+00:00</time></trkpt><trkpt lat="21.936356" lon="104.786194"><ele>70.2</ele><time>2011-04-28T08:34:14.0000000+00:00</time></trkpt><trkpt lat="21.936106" lon="104.786308"><ele>69.9</ele><time>2011-04-28T08:34:19.0000000+00:00</time></trkpt><trkpt lat="21.93593" lon="104.786461"><ele>67.6</ele><time>2011-04-28T08:34:24.0000000+00:00</time></trkpt><trkpt lat="21.935814" lon="104.786705"><ele>63.3</ele><time>2011-04-28T08:34:29.0000000+00:00</time></trkpt><trkpt lat="21.935722" lon="104.78698"><ele>59.1</ele><time>2011-04-28T08:34:34.0000000+00:00</time></trkpt><trkpt lat="21.935513" lon="104.787209"><ele>58.3</ele><time>2011-04-28T08:34:39.0000000+00:00</time></trkpt><trkpt lat="21.935266" lon="104.787338"><ele>59.9</ele><time>2011-04-28T08:34:44.0000000+00:00</time></trkpt><trkpt lat="21.93507" lon="104.787445"><ele>63.2</ele><time>2011-04-28T08:34:49.0000000+00:00</time></trkpt><trkpt lat="21.934874" lon="104.787529"><ele>64.8</ele><time>2011-04-28T08:34:54.0000000+00:00</time></trkpt><trkpt lat="21.934698" lon="104.787636"><ele>66.8</ele><time>2011-04-28T08:34:59.0000000+00:00</time></trkpt><trkpt lat="21.934523" lon="104.787735"><ele>64.4</ele><time>2011-04-28T08:35:04.0000000+00:00</time></trkpt><trkpt lat="21.934353" lon="104.78788"><ele>62.8</ele><time>2011-04-28T08:35:09.0000000+00:00</time></trkpt><trkpt lat="21.934162" lon="104.78804"><ele>63.0</ele><time>2011-04-28T08:35:14.0000000+00:00</time></trkpt><trkpt lat="21.933933" lon="104.7882"><ele>61.3</ele><time>2011-04-28T08:35:19.0000000+00:00</time></trkpt><trkpt lat="21.933691" lon="104.788368"><ele>61.4</ele><time>2011-04-28T08:35:24.0000000+00:00</time></trkpt><trkpt lat="21.933439" lon="104.788536"><ele>61.5</ele><time>2011-04-28T08:35:29.0000000+00:00</time></trkpt><trkpt lat="21.933163" lon="104.788727"><ele>63.1</ele><time>2011-04-28T08:35:34.0000000+00:00</time></trkpt><trkpt lat="21.932888" lon="104.788811"><ele>65.9</ele><time>2011-04-28T08:35:39.0000000+00:00</time></trkpt><trkpt lat="21.932673" lon="104.788994"><ele>69.4</ele><time>2011-04-28T08:35:44.0000000+00:00</time></trkpt><trkpt lat="21.932489" lon="104.78923"><ele>72.1</ele><time>2011-04-28T08:35:49.0000000+00:00</time></trkpt><trkpt lat="21.932333" lon="104.789505"><ele>71.4</ele><time>2011-04-28T08:35:54.0000000+00:00</time></trkpt><trkpt lat="21.932348" lon="104.789757"><ele>68.6</ele><time>2011-04-28T08:35:59.0000000+00:00</time></trkpt><trkpt lat="21.932291" lon="104.790016"><ele>68.3</ele><time>2011-04-28T08:36:04.0000000+00:00</time></trkpt><trkpt lat="21.932148" lon="104.790283"><ele>69.1</ele><time>2011-04-28T08:36:09.0000000+00:00</time></trkpt><trkpt lat="21.932009" lon="104.790459"><ele>69.6</ele><time>2011-04-28T08:36:14.0000000+00:00</time></trkpt><trkpt lat="21.931839" lon="104.790672"><ele>71.0</ele><time>2011-04-28T08:36:19.0000000+00:00</time></trkpt><trkpt lat="21.931753" lon="104.790802"><ele>71.7</ele><time>2011-04-28T08:36:24.0000000+00:00</time></trkpt><trkpt lat="21.931705" lon="104.790947"><ele>72.0</ele><time>2011-04-28T08:36:29.0000000+00:00</time></trkpt><trkpt lat="21.931665" lon="104.7911"><ele>71.5</ele><time>2011-04-28T08:36:34.0000000+00:00</time></trkpt><trkpt lat="21.931574" lon="104.791214"><ele>72.3</ele><time>2011-04-28T08:36:39.0000000+00:00</time></trkpt><trkpt lat="21.931433" lon="104.791336"><ele>71.0</ele><time>2011-04-28T08:36:44.0000000+00:00</time></trkpt><trkpt lat="21.931284" lon="104.79142"><ele>69.3</ele><time>2011-04-28T08:36:49.0000000+00:00</time></trkpt><trkpt lat="21.93116" lon="104.791573"><ele>68.1</ele><time>2011-04-28T08:36:54.0000000+00:00</time></trkpt><trkpt lat="21.931101" lon="104.791832"><ele>67.2</ele><time>2011-04-28T08:36:59.0000000+00:00</time></trkpt><trkpt lat="21.930984" lon="104.791992"><ele>66.4</ele><time>2011-04-28T08:37:04.0000000+00:00</time></trkpt><trkpt lat="21.930916" lon="104.792099"><ele>63.8</ele><time>2011-04-28T08:37:09.0000000+00:00</time></trkpt><trkpt lat="21.930832" lon="104.792175"><ele>67.1</ele><time>2011-04-28T08:37:14.0000000+00:00</time></trkpt><trkpt lat="21.930744" lon="104.792236"><ele>71.3</ele><time>2011-04-28T08:37:19.0000000+00:00</time></trkpt><trkpt lat="21.930693" lon="104.792297"><ele>72.1</ele><time>2011-04-28T08:37:24.0000000+00:00</time></trkpt><trkpt lat="21.930632" lon="104.792343"><ele>73.0</ele><time>2011-04-28T08:37:29.0000000+00:00</time></trkpt><trkpt lat="21.930555" lon="104.792419"><ele>72.2</ele><time>2011-04-28T08:37:34.0000000+00:00</time></trkpt><trkpt lat="21.930502" lon="104.79245"><ele>73.0</ele><time>2011-04-28T08:37:39.0000000+00:00</time></trkpt><trkpt lat="21.930428" lon="104.792503"><ele>74.4</ele><time>2011-04-28T08:37:44.0000000+00:00</time></trkpt><trkpt lat="21.930376" lon="104.792564"><ele>77.2</ele><time>2011-04-28T08:37:49.0000000+00:00</time></trkpt><trkpt lat="21.930347" lon="104.792625"><ele>79.1</ele><time>2011-04-28T08:37:54.0000000+00:00</time></trkpt><trkpt lat="21.930319" lon="104.792686"><ele>80.4</ele><time>2011-04-28T08:37:59.0000000+00:00</time></trkpt><trkpt lat="21.930279" lon="104.792717"><ele>81.4</ele><time>2011-04-28T08:38:04.0000000+00:00</time></trkpt><trkpt lat="21.930225" lon="104.792801"><ele>81.1</ele><time>2011-04-28T08:38:09.0000000+00:00</time></trkpt><trkpt lat="21.930182" lon="104.79287"><ele>81.3</ele><time>2011-04-28T08:38:14.0000000+00:00</time></trkpt><trkpt lat="21.930147" lon="104.792938"><ele>82.0</ele><time>2011-04-28T08:38:19.0000000+00:00</time></trkpt><trkpt lat="21.930113" lon="104.792999"><ele>82.2</ele><time>2011-04-28T08:38:24.0000000+00:00</time></trkpt><trkpt lat="21.930096" lon="104.79306"><ele>82.1</ele><time>2011-04-28T08:38:29.0000000+00:00</time></trkpt><trkpt lat="21.930058" lon="104.793121"><ele>83.1</ele><time>2011-04-28T08:38:34.0000000+00:00</time></trkpt><trkpt lat="21.930033" lon="104.793198"><ele>83.2</ele><time>2011-04-28T08:38:39.0000000+00:00</time></trkpt><trkpt lat="21.93001" lon="104.793259"><ele>83.7</ele><time>2011-04-28T08:38:44.0000000+00:00</time></trkpt><trkpt lat="21.929976" lon="104.793304"><ele>84.0</ele><time>2011-04-28T08:38:49.0000000+00:00</time></trkpt><trkpt lat="21.929943" lon="104.793365"><ele>84.2</ele><time>2011-04-28T08:38:54.0000000+00:00</time></trkpt><trkpt lat="21.929886" lon="104.793419"><ele>84.7</ele><time>2011-04-28T08:38:59.0000000+00:00</time></trkpt><trkpt lat="21.929825" lon="104.793518"><ele>84.2</ele><time>2011-04-28T08:39:04.0000000+00:00</time></trkpt><trkpt lat="21.92976" lon="104.793617"><ele>84.1</ele><time>2011-04-28T08:39:09.0000000+00:00</time></trkpt><trkpt lat="21.929682" lon="104.793709"><ele>84.5</ele><time>2011-04-28T08:39:14.0000000+00:00</time></trkpt><trkpt lat="21.929592" lon="104.793816"><ele>84.7</ele><time>2011-04-28T08:39:19.0000000+00:00</time></trkpt><trkpt lat="21.929501" lon="104.793915"><ele>83.4</ele><time>2011-04-28T08:39:24.0000000+00:00</time></trkpt><trkpt lat="21.929424" lon="104.794029"><ele>82.9</ele><time>2011-04-28T08:39:29.0000000+00:00</time></trkpt><trkpt lat="21.929335" lon="104.794136"><ele>84.0</ele><time>2011-04-28T08:39:34.0000000+00:00</time></trkpt><trkpt lat="21.929239" lon="104.794228"><ele>84.1</ele><time>2011-04-28T08:39:39.0000000+00:00</time></trkpt><trkpt lat="21.929129" lon="104.794319"><ele>83.5</ele><time>2011-04-28T08:39:44.0000000+00:00</time></trkpt><trkpt lat="21.929012" lon="104.794411"><ele>84.0</ele><time>2011-04-28T08:39:49.0000000+00:00</time></trkpt><trkpt lat="21.92889" lon="104.794472"><ele>82.9</ele><time>2011-04-28T08:39:54.0000000+00:00</time></trkpt><trkpt lat="21.928778" lon="104.794495"><ele>81.4</ele><time>2011-04-28T08:39:59.0000000+00:00</time></trkpt><trkpt lat="21.928673" lon="104.794525"><ele>82.2</ele><time>2011-04-28T08:40:04.0000000+00:00</time></trkpt><trkpt lat="21.928587" lon="104.794579"><ele>82.8</ele><time>2011-04-28T08:40:09.0000000+00:00</time></trkpt><trkpt lat="21.928486" lon="104.794632"><ele>84.7</ele><time>2011-04-28T08:40:14.0000000+00:00</time></trkpt><trkpt lat="21.928398" lon="104.794662"><ele>88.4</ele><time>2011-04-28T08:40:19.0000000+00:00</time></trkpt><trkpt lat="21.928297" lon="104.794724"><ele>89.1</ele><time>2011-04-28T08:40:24.0000000+00:00</time></trkpt><trkpt lat="21.928181" lon="104.794777"><ele>89.9</ele><time>2011-04-28T08:40:29.0000000+00:00</time></trkpt><trkpt lat="21.928102" lon="104.79483"><ele>87.4</ele><time>2011-04-28T08:40:34.0000000+00:00</time></trkpt><trkpt lat="21.928019" lon="104.794891"><ele>87.1</ele><time>2011-04-28T08:40:39.0000000+00:00</time></trkpt><trkpt lat="21.927921" lon="104.794914"><ele>88.0</ele><time>2011-04-28T08:40:44.0000000+00:00</time></trkpt><trkpt lat="21.927795" lon="104.794983"><ele>85.8</ele><time>2011-04-28T08:40:49.0000000+00:00</time></trkpt><trkpt lat="21.927612" lon="104.795036"><ele>83.7</ele><time>2011-04-28T08:40:54.0000000+00:00</time></trkpt><trkpt lat="21.927382" lon="104.795128"><ele>80.6</ele><time>2011-04-28T08:40:59.0000000+00:00</time></trkpt><trkpt lat="21.927126" lon="104.795166"><ele>79.9</ele><time>2011-04-28T08:41:04.0000000+00:00</time></trkpt><trkpt lat="21.926889" lon="104.79525"><ele>77.7</ele><time>2011-04-28T08:41:09.0000000+00:00</time></trkpt><trkpt lat="21.926647" lon="104.795494"><ele>73.3</ele><time>2011-04-28T08:41:14.0000000+00:00</time></trkpt><trkpt lat="21.926388" lon="104.795792"><ele>69.4</ele><time>2011-04-28T08:41:19.0000000+00:00</time></trkpt><trkpt lat="21.926254" lon="104.796104"><ele>65.7</ele><time>2011-04-28T08:41:24.0000000+00:00</time></trkpt><trkpt lat="21.926182" lon="104.796394"><ele>63.6</ele><time>2011-04-28T08:41:29.0000000+00:00</time></trkpt><trkpt lat="21.926054" lon="104.796631"><ele>65.4</ele><time>2011-04-28T08:41:34.0000000+00:00</time></trkpt><trkpt lat="21.925869" lon="104.796829"><ele>68.6</ele><time>2011-04-28T08:41:39.0000000+00:00</time></trkpt><trkpt lat="21.925703" lon="104.796898"><ele>71.1</ele><time>2011-04-28T08:41:44.0000000+00:00</time></trkpt><trkpt lat="21.925535" lon="104.796959"><ele>70.6</ele><time>2011-04-28T08:41:49.0000000+00:00</time></trkpt><trkpt lat="21.925386" lon="104.79705"><ele>71.8</ele><time>2011-04-28T08:41:54.0000000+00:00</time></trkpt><trkpt lat="21.925287" lon="104.797157"><ele>72.6</ele><time>2011-04-28T08:41:59.0000000+00:00</time></trkpt><trkpt lat="21.925186" lon="104.797295"><ele>73.9</ele><time>2011-04-28T08:42:04.0000000+00:00</time></trkpt><trkpt lat="21.925074" lon="104.797409"><ele>72.3</ele><time>2011-04-28T08:42:09.0000000+00:00</time></trkpt><trkpt lat="21.924946" lon="104.797546"><ele>71.5</ele><time>2011-04-28T08:42:14.0000000+00:00</time></trkpt><trkpt lat="21.92485" lon="104.797699"><ele>70.1</ele><time>2011-04-28T08:42:19.0000000+00:00</time></trkpt><trkpt lat="21.924795" lon="104.797852"><ele>69.0</ele><time>2011-04-28T08:42:24.0000000+00:00</time></trkpt><trkpt lat="21.924721" lon="104.797989"><ele>68.5</ele><time>2011-04-28T08:42:29.0000000+00:00</time></trkpt><trkpt lat="21.924568" lon="104.798149"><ele>69.9</ele><time>2011-04-28T08:42:34.0000000+00:00</time></trkpt><trkpt lat="21.924438" lon="104.798256"><ele>69.3</ele><time>2011-04-28T08:42:39.0000000+00:00</time></trkpt><trkpt lat="21.924372" lon="104.798309"><ele>68.7</ele><time>2011-04-28T08:42:44.0000000+00:00</time></trkpt><trkpt lat="21.924295" lon="104.79837"><ele>67.9</ele><time>2011-04-28T08:42:49.0000000+00:00</time></trkpt><trkpt lat="21.924257" lon="104.798462"><ele>68.6</ele><time>2011-04-28T08:42:54.0000000+00:00</time></trkpt><trkpt lat="21.924217" lon="104.798561"><ele>69.3</ele><time>2011-04-28T08:42:59.0000000+00:00</time></trkpt><trkpt lat="21.924183" lon="104.798676"><ele>68.9</ele><time>2011-04-28T08:43:04.0000000+00:00</time></trkpt><trkpt lat="21.924107" lon="104.798805"><ele>70.9</ele><time>2011-04-28T08:43:09.0000000+00:00</time></trkpt><trkpt lat="21.92404" lon="104.798912"><ele>71.1</ele><time>2011-04-28T08:43:14.0000000+00:00</time></trkpt><trkpt lat="21.923944" lon="104.799019"><ele>71.8</ele><time>2011-04-28T08:43:19.0000000+00:00</time></trkpt><trkpt lat="21.92383" lon="104.799133"><ele>73.3</ele><time>2011-04-28T08:43:24.0000000+00:00</time></trkpt><trkpt lat="21.923693" lon="104.799232"><ele>74.2</ele><time>2011-04-28T08:43:29.0000000+00:00</time></trkpt><trkpt lat="21.923668" lon="104.799263"><ele>74.6</ele><time>2011-04-28T08:43:34.0000000+00:00</time></trkpt><trkpt lat="21.923601" lon="104.799278"><ele>74.2</ele><time>2011-04-28T08:43:39.0000000+00:00</time></trkpt><trkpt lat="21.923431" lon="104.799355"><ele>72.6</ele><time>2011-04-28T08:43:44.0000000+00:00</time></trkpt><trkpt lat="21.923237" lon="104.79937"><ele>71.7</ele><time>2011-04-28T08:43:49.0000000+00:00</time></trkpt><trkpt lat="21.923027" lon="104.799377"><ele>72.2</ele><time>2011-04-28T08:43:54.0000000+00:00</time></trkpt><trkpt lat="21.922832" lon="104.799477"><ele>72.4</ele><time>2011-04-28T08:43:59.0000000+00:00</time></trkpt><trkpt lat="21.922729" lon="104.79966"><ele>73.7</ele><time>2011-04-28T08:44:04.0000000+00:00</time></trkpt><trkpt lat="21.92267" lon="104.799843"><ele>74.2</ele><time>2011-04-28T08:44:09.0000000+00:00</time></trkpt><trkpt lat="21.922634" lon="104.800079"><ele>72.3</ele><time>2011-04-28T08:44:14.0000000+00:00</time></trkpt><trkpt lat="21.922598" lon="104.800308"><ele>71.1</ele><time>2011-04-28T08:44:19.0000000+00:00</time></trkpt><trkpt lat="21.922527" lon="104.800529"><ele>70.6</ele><time>2011-04-28T08:44:24.0000000+00:00</time></trkpt><trkpt lat="21.922438" lon="104.80069"><ele>70.5</ele><time>2011-04-28T08:44:29.0000000+00:00</time></trkpt><trkpt lat="21.922365" lon="104.800835"><ele>68.9</ele><time>2011-04-28T08:44:34.0000000+00:00</time></trkpt><trkpt lat="21.922274" lon="104.80098"><ele>66.7</ele><time>2011-04-28T08:44:39.0000000+00:00</time></trkpt><trkpt lat="21.922188" lon="104.801193"><ele>65.3</ele><time>2011-04-28T08:44:44.0000000+00:00</time></trkpt><trkpt lat="21.922085" lon="104.801399"><ele>66.2</ele><time>2011-04-28T08:44:49.0000000+00:00</time></trkpt><trkpt lat="21.921947" lon="104.80159"><ele>68.5</ele><time>2011-04-28T08:44:54.0000000+00:00</time></trkpt><trkpt lat="21.921732" lon="104.801819"><ele>73.0</ele><time>2011-04-28T08:44:59.0000000+00:00</time></trkpt><trkpt lat="21.921612" lon="104.802025"><ele>73.6</ele><time>2011-04-28T08:45:04.0000000+00:00</time></trkpt><trkpt lat="21.921576" lon="104.802254"><ele>73.4</ele><time>2011-04-28T08:45:09.0000000+00:00</time></trkpt><trkpt lat="21.921465" lon="104.80246"><ele>72.2</ele><time>2011-04-28T08:45:14.0000000+00:00</time></trkpt><trkpt lat="21.921236" lon="104.802635"><ele>76.6</ele><time>2011-04-28T08:45:19.0000000+00:00</time></trkpt><trkpt lat="21.921026" lon="104.802757"><ele>75.8</ele><time>2011-04-28T08:45:24.0000000+00:00</time></trkpt><trkpt lat="21.920824" lon="104.802902"><ele>77.7</ele><time>2011-04-28T08:45:29.0000000+00:00</time></trkpt><trkpt lat="21.920658" lon="104.803062"><ele>79.5</ele><time>2011-04-28T08:45:34.0000000+00:00</time></trkpt><trkpt lat="21.920496" lon="104.803261"><ele>81.5</ele><time>2011-04-28T08:45:39.0000000+00:00</time></trkpt><trkpt lat="21.920347" lon="104.803444"><ele>84.0</ele><time>2011-04-28T08:45:44.0000000+00:00</time></trkpt><trkpt lat="21.920115" lon="104.803474"><ele>81.7</ele><time>2011-04-28T08:45:49.0000000+00:00</time></trkpt><trkpt lat="21.919889" lon="104.803436"><ele>82.0</ele><time>2011-04-28T08:45:54.0000000+00:00</time></trkpt><trkpt lat="21.91967" lon="104.803398"><ele>80.2</ele><time>2011-04-28T08:45:59.0000000+00:00</time></trkpt><trkpt lat="21.919455" lon="104.803459"><ele>77.6</ele><time>2011-04-28T08:46:04.0000000+00:00</time></trkpt><trkpt lat="21.91926" lon="104.803589"><ele>75.4</ele><time>2011-04-28T08:46:09.0000000+00:00</time></trkpt><trkpt lat="21.919119" lon="104.803749"><ele>75.9</ele><time>2011-04-28T08:46:14.0000000+00:00</time></trkpt><trkpt lat="21.918989" lon="104.803894"><ele>75.6</ele><time>2011-04-28T08:46:19.0000000+00:00</time></trkpt><trkpt lat="21.918945" lon="104.8041"><ele>74.7</ele><time>2011-04-28T08:46:24.0000000+00:00</time></trkpt><trkpt lat="21.918865" lon="104.804306"><ele>74.0</ele><time>2011-04-28T08:46:29.0000000+00:00</time></trkpt><trkpt lat="21.918739" lon="104.80452"><ele>74.2</ele><time>2011-04-28T08:46:34.0000000+00:00</time></trkpt><trkpt lat="21.918577" lon="104.804688"><ele>73.5</ele><time>2011-04-28T08:46:39.0000000+00:00</time></trkpt><trkpt lat="21.918383" lon="104.804863"><ele>73.3</ele><time>2011-04-28T08:46:44.0000000+00:00</time></trkpt><trkpt lat="21.918247" lon="104.805061"><ele>74.3</ele><time>2011-04-28T08:46:49.0000000+00:00</time></trkpt><trkpt lat="21.918131" lon="104.805244"><ele>75.4</ele><time>2011-04-28T08:46:54.0000000+00:00</time></trkpt><trkpt lat="21.91806" lon="104.805389"><ele>76.3</ele><time>2011-04-28T08:46:59.0000000+00:00</time></trkpt><trkpt lat="21.917988" lon="104.80555"><ele>78.8</ele><time>2011-04-28T08:47:04.0000000+00:00</time></trkpt><trkpt lat="21.917946" lon="104.805748"><ele>81.5</ele><time>2011-04-28T08:47:09.0000000+00:00</time></trkpt><trkpt lat="21.917915" lon="104.805969"><ele>82.2</ele><time>2011-04-28T08:47:14.0000000+00:00</time></trkpt><trkpt lat="21.917831" lon="104.806145"><ele>82.7</ele><time>2011-04-28T08:47:19.0000000+00:00</time></trkpt><trkpt lat="21.917736" lon="104.806305"><ele>82.5</ele><time>2011-04-28T08:47:24.0000000+00:00</time></trkpt><trkpt lat="21.917618" lon="104.80648"><ele>83.6</ele><time>2011-04-28T08:47:29.0000000+00:00</time></trkpt><trkpt lat="21.917459" lon="104.806679"><ele>84.7</ele><time>2011-04-28T08:47:34.0000000+00:00</time></trkpt><trkpt lat="21.917244" lon="104.806816"><ele>85.5</ele><time>2011-04-28T08:47:39.0000000+00:00</time></trkpt><trkpt lat="21.917015" lon="104.806953"><ele>82.0</ele><time>2011-04-28T08:47:44.0000000+00:00</time></trkpt><trkpt lat="21.916819" lon="104.807144"><ele>80.2</ele><time>2011-04-28T08:47:49.0000000+00:00</time></trkpt><trkpt lat="21.916719" lon="104.807343"><ele>79.8</ele><time>2011-04-28T08:47:54.0000000+00:00</time></trkpt><trkpt lat="21.916622" lon="104.807503"><ele>78.9</ele><time>2011-04-28T08:47:59.0000000+00:00</time></trkpt><trkpt lat="21.916563" lon="104.807655"><ele>79.1</ele><time>2011-04-28T08:48:04.0000000+00:00</time></trkpt><trkpt lat="21.916552" lon="104.807838"><ele>82.0</ele><time>2011-04-28T08:48:09.0000000+00:00</time></trkpt><trkpt lat="21.916513" lon="104.807968"><ele>82.5</ele><time>2011-04-28T08:48:14.0000000+00:00</time></trkpt><trkpt lat="21.916485" lon="104.80809"><ele>82.2</ele><time>2011-04-28T08:48:19.0000000+00:00</time></trkpt><trkpt lat="21.916464" lon="104.80822"><ele>80.2</ele><time>2011-04-28T08:48:24.0000000+00:00</time></trkpt><trkpt lat="21.916378" lon="104.808365"><ele>79.6</ele><time>2011-04-28T08:48:29.0000000+00:00</time></trkpt><trkpt lat="21.916258" lon="104.808441"><ele>80.0</ele><time>2011-04-28T08:48:34.0000000+00:00</time></trkpt><trkpt lat="21.916136" lon="104.80851"><ele>80.1</ele><time>2011-04-28T08:48:39.0000000+00:00</time></trkpt><trkpt lat="21.916012" lon="104.808556"><ele>78.6</ele><time>2011-04-28T08:48:44.0000000+00:00</time></trkpt><trkpt lat="21.915867" lon="104.808609"><ele>78.0</ele><time>2011-04-28T08:48:49.0000000+00:00</time></trkpt><trkpt lat="21.91572" lon="104.80867"><ele>77.4</ele><time>2011-04-28T08:48:54.0000000+00:00</time></trkpt><trkpt lat="21.915636" lon="104.808807"><ele>79.6</ele><time>2011-04-28T08:48:59.0000000+00:00</time></trkpt><trkpt lat="21.915632" lon="104.809006"><ele>81.1</ele><time>2011-04-28T08:49:04.0000000+00:00</time></trkpt><trkpt lat="21.915611" lon="104.809189"><ele>86.3</ele><time>2011-04-28T08:49:09.0000000+00:00</time></trkpt><trkpt lat="21.915588" lon="104.809341"><ele>87.6</ele><time>2011-04-28T08:49:14.0000000+00:00</time></trkpt><trkpt lat="21.915548" lon="104.809486"><ele>87.9</ele><time>2011-04-28T08:49:19.0000000+00:00</time></trkpt><trkpt lat="21.915442" lon="104.809624"><ele>90.0</ele><time>2011-04-28T08:49:24.0000000+00:00</time></trkpt><trkpt lat="21.915325" lon="104.809746"><ele>93.9</ele><time>2011-04-28T08:49:29.0000000+00:00</time></trkpt><trkpt lat="21.915192" lon="104.809784"><ele>94.2</ele><time>2011-04-28T08:49:34.0000000+00:00</time></trkpt><trkpt lat="21.915094" lon="104.809792"><ele>94.2</ele><time>2011-04-28T08:49:39.0000000+00:00</time></trkpt><trkpt lat="21.915031" lon="104.809776"><ele>95.1</ele><time>2011-04-28T08:49:44.0000000+00:00</time></trkpt><trkpt lat="21.914978" lon="104.809746"><ele>96.7</ele><time>2011-04-28T08:49:49.0000000+00:00</time></trkpt><trkpt lat="21.914909" lon="104.809723"><ele>97.8</ele><time>2011-04-28T08:49:54.0000000+00:00</time></trkpt><trkpt lat="21.914766" lon="104.809715"><ele>98.2</ele><time>2011-04-28T08:49:59.0000000+00:00</time></trkpt><trkpt lat="21.914587" lon="104.809715"><ele>98.3</ele><time>2011-04-28T08:50:04.0000000+00:00</time></trkpt><trkpt lat="21.914402" lon="104.809731"><ele>99.2</ele><time>2011-04-28T08:50:09.0000000+00:00</time></trkpt><trkpt lat="21.914217" lon="104.809746"><ele>101.3</ele><time>2011-04-28T08:50:14.0000000+00:00</time></trkpt><trkpt lat="21.914066" lon="104.809715"><ele>104.9</ele><time>2011-04-28T08:50:19.0000000+00:00</time></trkpt><trkpt lat="21.91394" lon="104.809624"><ele>107.0</ele><time>2011-04-28T08:50:24.0000000+00:00</time></trkpt><trkpt lat="21.913845" lon="104.809532"><ele>107.7</ele><time>2011-04-28T08:50:29.0000000+00:00</time></trkpt><trkpt lat="21.91367" lon="104.809509"><ele>105.7</ele><time>2011-04-28T08:50:34.0000000+00:00</time></trkpt><trkpt lat="21.91345" lon="104.809525"><ele>104.3</ele><time>2011-04-28T08:50:39.0000000+00:00</time></trkpt><trkpt lat="21.913378" lon="104.80954"><ele>103.4</ele><time>2011-04-28T08:50:44.0000000+00:00</time></trkpt><trkpt lat="21.913361" lon="104.809525"><ele>102.0</ele><time>2011-04-28T08:50:49.0000000+00:00</time></trkpt><trkpt lat="21.913311" lon="104.80954"><ele>101.3</ele><time>2011-04-28T08:50:54.0000000+00:00</time></trkpt><trkpt lat="21.913212" lon="104.809578"><ele>98.6</ele><time>2011-04-28T08:50:59.0000000+00:00</time></trkpt><trkpt lat="21.913101" lon="104.809639"><ele>97.6</ele><time>2011-04-28T08:51:04.0000000+00:00</time></trkpt><trkpt lat="21.912975" lon="104.809692"><ele>97.4</ele><time>2011-04-28T08:51:09.0000000+00:00</time></trkpt><trkpt lat="21.912849" lon="104.809738"><ele>97.7</ele><time>2011-04-28T08:51:14.0000000+00:00</time></trkpt><trkpt lat="21.912767" lon="104.809769"><ele>97.1</ele><time>2011-04-28T08:51:19.0000000+00:00</time></trkpt><trkpt lat="21.912712" lon="104.809784"><ele>96.5</ele><time>2011-04-28T08:51:24.0000000+00:00</time></trkpt><trkpt lat="21.912666" lon="104.809814"><ele>95.9</ele><time>2011-04-28T08:51:29.0000000+00:00</time></trkpt><trkpt lat="21.912613" lon="104.809845"><ele>94.8</ele><time>2011-04-28T08:51:34.0000000+00:00</time></trkpt><trkpt lat="21.912603" lon="104.80983"><ele>94.4</ele><time>2011-04-28T08:51:39.0000000+00:00</time></trkpt><trkpt lat="21.912601" lon="104.80983"><ele>94.3</ele><time>2011-04-28T08:51:44.0000000+00:00</time></trkpt><trkpt lat="21.912567" lon="104.809837"><ele>94.3</ele><time>2011-04-28T08:51:49.0000000+00:00</time></trkpt><trkpt lat="21.912401" lon="104.809906"><ele>94.1</ele><time>2011-04-28T08:51:54.0000000+00:00</time></trkpt><trkpt lat="21.91221" lon="104.809998"><ele>93.3</ele><time>2011-04-28T08:51:59.0000000+00:00</time></trkpt><trkpt lat="21.912024" lon="104.810143"><ele>92.5</ele><time>2011-04-28T08:52:04.0000000+00:00</time></trkpt><trkpt lat="21.911848" lon="104.810287"><ele>92.3</ele><time>2011-04-28T08:52:09.0000000+00:00</time></trkpt><trkpt lat="21.911703" lon="104.810432"><ele>92.2</ele><time>2011-04-28T08:52:14.0000000+00:00</time></trkpt><trkpt lat="21.911549" lon="104.810593"><ele>92.2</ele><time>2011-04-28T08:52:19.0000000+00:00</time></trkpt><trkpt lat="21.911373" lon="104.81076"><ele>91.6</ele><time>2011-04-28T08:52:24.0000000+00:00</time></trkpt><trkpt lat="21.911198" lon="104.810905"><ele>91.4</ele><time>2011-04-28T08:52:29.0000000+00:00</time></trkpt><trkpt lat="21.911045" lon="104.811073"><ele>91.2</ele><time>2011-04-28T08:52:34.0000000+00:00</time></trkpt><trkpt lat="21.9109" lon="104.811211"><ele>90.7</ele><time>2011-04-28T08:52:39.0000000+00:00</time></trkpt><trkpt lat="21.910769" lon="104.811317"><ele>89.6</ele><time>2011-04-28T08:52:44.0000000+00:00</time></trkpt><trkpt lat="21.910612" lon="104.811462"><ele>89.8</ele><time>2011-04-28T08:52:49.0000000+00:00</time></trkpt><trkpt lat="21.910444" lon="104.811615"><ele>89.8</ele><time>2011-04-28T08:52:54.0000000+00:00</time></trkpt><trkpt lat="21.910278" lon="104.811752"><ele>90.1</ele><time>2011-04-28T08:52:59.0000000+00:00</time></trkpt><trkpt lat="21.91016" lon="104.811874"><ele>89.4</ele><time>2011-04-28T08:53:04.0000000+00:00</time></trkpt><trkpt lat="21.910044" lon="104.811996"><ele>92.0</ele><time>2011-04-28T08:53:09.0000000+00:00</time></trkpt><trkpt lat="21.909937" lon="104.812126"><ele>92.1</ele><time>2011-04-28T08:53:14.0000000+00:00</time></trkpt><trkpt lat="21.909842" lon="104.812241"><ele>92.1</ele><time>2011-04-28T08:53:19.0000000+00:00</time></trkpt><trkpt lat="21.9097" lon="104.81237"><ele>92.3</ele><time>2011-04-28T08:53:24.0000000+00:00</time></trkpt><trkpt lat="21.909576" lon="104.8125"><ele>92.7</ele><time>2011-04-28T08:53:29.0000000+00:00</time></trkpt><trkpt lat="21.909466" lon="104.81266"><ele>93.1</ele><time>2011-04-28T08:53:34.0000000+00:00</time></trkpt><trkpt lat="21.90938" lon="104.812775"><ele>93.3</ele><time>2011-04-28T08:53:39.0000000+00:00</time></trkpt><trkpt lat="21.909302" lon="104.812889"><ele>93.5</ele><time>2011-04-28T08:53:44.0000000+00:00</time></trkpt><trkpt lat="21.909199" lon="104.812973"><ele>93.1</ele><time>2011-04-28T08:53:49.0000000+00:00</time></trkpt><trkpt lat="21.909109" lon="104.813026"><ele>91.6</ele><time>2011-04-28T08:53:54.0000000+00:00</time></trkpt><trkpt lat="21.908989" lon="104.81308"><ele>89.8</ele><time>2011-04-28T08:53:59.0000000+00:00</time></trkpt><trkpt lat="21.908854" lon="104.813179"><ele>87.7</ele><time>2011-04-28T08:54:04.0000000+00:00</time></trkpt><trkpt lat="21.908709" lon="104.813263"><ele>86.0</ele><time>2011-04-28T08:54:09.0000000+00:00</time></trkpt><trkpt lat="21.90859" lon="104.813354"><ele>86.4</ele><time>2011-04-28T08:54:14.0000000+00:00</time></trkpt><trkpt lat="21.908504" lon="104.813477"><ele>86.3</ele><time>2011-04-28T08:54:19.0000000+00:00</time></trkpt><trkpt lat="21.90843" lon="104.813629"><ele>85.8</ele><time>2011-04-28T08:54:24.0000000+00:00</time></trkpt><trkpt lat="21.908363" lon="104.813797"><ele>86.9</ele><time>2011-04-28T08:54:29.0000000+00:00</time></trkpt><trkpt lat="21.908289" lon="104.813957"><ele>85.7</ele><time>2011-04-28T08:54:34.0000000+00:00</time></trkpt><trkpt lat="21.908215" lon="104.814117"><ele>84.9</ele><time>2011-04-28T08:54:39.0000000+00:00</time></trkpt><trkpt lat="21.908144" lon="104.81427"><ele>85.0</ele><time>2011-04-28T08:54:44.0000000+00:00</time></trkpt><trkpt lat="21.90806" lon="104.814423"><ele>84.5</ele><time>2011-04-28T08:54:49.0000000+00:00</time></trkpt><trkpt lat="21.907936" lon="104.814568"><ele>82.5</ele><time>2011-04-28T08:54:54.0000000+00:00</time></trkpt><trkpt lat="21.907787" lon="104.814705"><ele>80.1</ele><time>2011-04-28T08:54:59.0000000+00:00</time></trkpt><trkpt lat="21.907608" lon="104.81485"><ele>79.0</ele><time>2011-04-28T08:55:04.0000000+00:00</time></trkpt><trkpt lat="21.907457" lon="104.81498"><ele>79.8</ele><time>2011-04-28T08:55:09.0000000+00:00</time></trkpt><trkpt lat="21.907335" lon="104.815102"><ele>81.3</ele><time>2011-04-28T08:55:14.0000000+00:00</time></trkpt><trkpt lat="21.907232" lon="104.815262"><ele>81.9</ele><time>2011-04-28T08:55:19.0000000+00:00</time></trkpt><trkpt lat="21.907171" lon="104.815422"><ele>80.8</ele><time>2011-04-28T08:55:24.0000000+00:00</time></trkpt><trkpt lat="21.907066" lon="104.815582"><ele>79.6</ele><time>2011-04-28T08:55:29.0000000+00:00</time></trkpt><trkpt lat="21.906958" lon="104.815796"><ele>78.0</ele><time>2011-04-28T08:55:34.0000000+00:00</time></trkpt><trkpt lat="21.90686" lon="104.815994"><ele>76.8</ele><time>2011-04-28T08:55:39.0000000+00:00</time></trkpt><trkpt lat="21.906748" lon="104.816231"><ele>75.6</ele><time>2011-04-28T08:55:44.0000000+00:00</time></trkpt><trkpt lat="21.906563" lon="104.816414"><ele>73.7</ele><time>2011-04-28T08:55:49.0000000+00:00</time></trkpt><trkpt lat="21.906384" lon="104.816628"><ele>71.5</ele><time>2011-04-28T08:55:54.0000000+00:00</time></trkpt><trkpt lat="21.906208" lon="104.816856"><ele>71.8</ele><time>2011-04-28T08:55:59.0000000+00:00</time></trkpt><trkpt lat="21.906034" lon="104.817055"><ele>71.7</ele><time>2011-04-28T08:56:04.0000000+00:00</time></trkpt><trkpt lat="21.905859" lon="104.817276"><ele>71.1</ele><time>2011-04-28T08:56:09.0000000+00:00</time></trkpt><trkpt lat="21.905725" lon="104.817413"><ele>68.0</ele><time>2011-04-28T08:56:14.0000000+00:00</time></trkpt><trkpt lat="21.905542" lon="104.817543"><ele>76.9</ele><time>2011-04-28T08:56:19.0000000+00:00</time></trkpt><trkpt lat="21.905411" lon="104.81765"><ele>81.5</ele><time>2011-04-28T08:56:24.0000000+00:00</time></trkpt><trkpt lat="21.905342" lon="104.817703"><ele>83.0</ele><time>2011-04-28T08:56:29.0000000+00:00</time></trkpt><trkpt lat="21.905231" lon="104.817749"><ele>84.4</ele><time>2011-04-28T08:56:34.0000000+00:00</time></trkpt><trkpt lat="21.905123" lon="104.817841"><ele>86.9</ele><time>2011-04-28T08:56:39.0000000+00:00</time></trkpt><trkpt lat="21.90502" lon="104.817917"><ele>88.1</ele><time>2011-04-28T08:56:44.0000000+00:00</time></trkpt><trkpt lat="21.904905" lon="104.818001"><ele>90.8</ele><time>2011-04-28T08:56:49.0000000+00:00</time></trkpt><trkpt lat="21.90476" lon="104.818069"><ele>92.2</ele><time>2011-04-28T08:56:54.0000000+00:00</time></trkpt><trkpt lat="21.904619" lon="104.818199"><ele>93.7</ele><time>2011-04-28T08:56:59.0000000+00:00</time></trkpt><trkpt lat="21.904509" lon="104.818306"><ele>95.1</ele><time>2011-04-28T08:57:04.0000000+00:00</time></trkpt><trkpt lat="21.904379" lon="104.81842"><ele>96.5</ele><time>2011-04-28T08:57:09.0000000+00:00</time></trkpt><trkpt lat="21.904228" lon="104.818527"><ele>97.2</ele><time>2011-04-28T08:57:14.0000000+00:00</time></trkpt><trkpt lat="21.904064" lon="104.818604"><ele>97.3</ele><time>2011-04-28T08:57:19.0000000+00:00</time></trkpt><trkpt lat="21.903889" lon="104.818649"><ele>96.9</ele><time>2011-04-28T08:57:24.0000000+00:00</time></trkpt><trkpt lat="21.903719" lon="104.818779"><ele>95.1</ele><time>2011-04-28T08:57:29.0000000+00:00</time></trkpt><trkpt lat="21.90357" lon="104.818939"><ele>93.4</ele><time>2011-04-28T08:57:34.0000000+00:00</time></trkpt><trkpt lat="21.903357" lon="104.819077"><ele>91.4</ele><time>2011-04-28T08:57:39.0000000+00:00</time></trkpt><trkpt lat="21.903164" lon="104.819221"><ele>90.9</ele><time>2011-04-28T08:57:44.0000000+00:00</time></trkpt><trkpt lat="21.903028" lon="104.819283"><ele>90.4</ele><time>2011-04-28T08:57:49.0000000+00:00</time></trkpt><trkpt lat="21.902908" lon="104.819298"><ele>89.6</ele><time>2011-04-28T08:57:54.0000000+00:00</time></trkpt><trkpt lat="21.902737" lon="104.819359"><ele>89.3</ele><time>2011-04-28T08:57:59.0000000+00:00</time></trkpt><trkpt lat="21.902567" lon="104.819435"><ele>88.1</ele><time>2011-04-28T08:58:04.0000000+00:00</time></trkpt><trkpt lat="21.902395" lon="104.819542"><ele>86.0</ele><time>2011-04-28T08:58:09.0000000+00:00</time></trkpt><trkpt lat="21.902218" lon="104.819687"><ele>84.4</ele><time>2011-04-28T08:58:14.0000000+00:00</time></trkpt><trkpt lat="21.90202" lon="104.819839"><ele>80.8</ele><time>2011-04-28T08:58:19.0000000+00:00</time></trkpt><trkpt lat="21.901758" lon="104.820068"><ele>77.8</ele><time>2011-04-28T08:58:24.0000000+00:00</time></trkpt><trkpt lat="21.90147" lon="104.820351"><ele>77.4</ele><time>2011-04-28T08:58:29.0000000+00:00</time></trkpt><trkpt lat="21.901196" lon="104.82061"><ele>76.4</ele><time>2011-04-28T08:58:34.0000000+00:00</time></trkpt><trkpt lat="21.900959" lon="104.820831"><ele>77.0</ele><time>2011-04-28T08:58:39.0000000+00:00</time></trkpt><trkpt lat="21.900766" lon="104.82103"><ele>75.2</ele><time>2011-04-28T08:58:44.0000000+00:00</time></trkpt><trkpt lat="21.900623" lon="104.82119"><ele>77.0</ele><time>2011-04-28T08:58:49.0000000+00:00</time></trkpt><trkpt lat="21.900515" lon="104.821289"><ele>82.4</ele><time>2011-04-28T08:58:54.0000000+00:00</time></trkpt><trkpt lat="21.900431" lon="104.821404"><ele>85.2</ele><time>2011-04-28T08:58:59.0000000+00:00</time></trkpt><trkpt lat="21.900339" lon="104.821495"><ele>86.6</ele><time>2011-04-28T08:59:04.0000000+00:00</time></trkpt><trkpt lat="21.900242" lon="104.821609"><ele>86.6</ele><time>2011-04-28T08:59:09.0000000+00:00</time></trkpt><trkpt lat="21.900143" lon="104.821716"><ele>87.0</ele><time>2011-04-28T08:59:14.0000000+00:00</time></trkpt><trkpt lat="21.900042" lon="104.821846"><ele>87.6</ele><time>2011-04-28T08:59:19.0000000+00:00</time></trkpt><trkpt lat="21.899929" lon="104.82196"><ele>87.8</ele><time>2011-04-28T08:59:24.0000000+00:00</time></trkpt><trkpt lat="21.899834" lon="104.822075"><ele>87.8</ele><time>2011-04-28T08:59:29.0000000+00:00</time></trkpt><trkpt lat="21.899712" lon="104.822212"><ele>87.8</ele><time>2011-04-28T08:59:34.0000000+00:00</time></trkpt><trkpt lat="21.899633" lon="104.822319"><ele>87.8</ele><time>2011-04-28T08:59:39.0000000+00:00</time></trkpt><trkpt lat="21.899607" lon="104.822388"><ele>87.9</ele><time>2011-04-28T08:59:44.0000000+00:00</time></trkpt><trkpt lat="21.899576" lon="104.822403"><ele>88.1</ele><time>2011-04-28T08:59:49.0000000+00:00</time></trkpt><trkpt lat="21.899555" lon="104.822388"><ele>87.9</ele><time>2011-04-28T08:59:54.0000000+00:00</time></trkpt><trkpt lat="21.899527" lon="104.822365"><ele>87.5</ele><time>2011-04-28T08:59:59.0000000+00:00</time></trkpt><trkpt lat="21.899506" lon="104.822388"><ele>87.8</ele><time>2011-04-28T09:00:04.0000000+00:00</time></trkpt><trkpt lat="21.899517" lon="104.822395"><ele>88.1</ele><time>2011-04-28T09:00:09.0000000+00:00</time></trkpt><trkpt lat="21.899506" lon="104.82238"><ele>88.4</ele><time>2011-04-28T09:00:14.0000000+00:00</time></trkpt><trkpt lat="21.899504" lon="104.822388"><ele>88.4</ele><time>2011-04-28T09:00:19.0000000+00:00</time></trkpt><trkpt lat="21.8995" lon="104.822388"><ele>89.4</ele><time>2011-04-28T09:00:24.0000000+00:00</time></trkpt><trkpt lat="21.899502" lon="104.822388"><ele>89.6</ele><time>2011-04-28T09:00:29.0000000+00:00</time></trkpt><trkpt lat="21.8995" lon="104.82238"><ele>89.1</ele><time>2011-04-28T09:00:34.0000000+00:00</time></trkpt><trkpt lat="21.8995" lon="104.82238"><ele>89.1</ele><time>2011-04-28T09:00:39.0000000+00:00</time></trkpt><trkpt lat="21.899502" lon="104.822372"><ele>88.7</ele><time>2011-04-28T09:00:44.0000000+00:00</time></trkpt><trkpt lat="21.899508" lon="104.822365"><ele>88.9</ele><time>2011-04-28T09:00:49.0000000+00:00</time></trkpt><trkpt lat="21.899509" lon="104.822372"><ele>89.5</ele><time>2011-04-28T09:00:54.0000000+00:00</time></trkpt><trkpt lat="21.899511" lon="104.822372"><ele>90.2</ele><time>2011-04-28T09:00:59.0000000+00:00</time></trkpt><trkpt lat="21.899511" lon="104.822372"><ele>89.9</ele><time>2011-04-28T09:01:04.0000000+00:00</time></trkpt><trkpt lat="21.899513" lon="104.822365"><ele>89.6</ele><time>2011-04-28T09:01:09.0000000+00:00</time></trkpt><trkpt lat="21.899513" lon="104.822365"><ele>89.6</ele><time>2011-04-28T09:01:14.0000000+00:00</time></trkpt><trkpt lat="21.899515" lon="104.822357"><ele>89.9</ele><time>2011-04-28T09:01:19.0000000+00:00</time></trkpt><trkpt lat="21.899519" lon="104.822365"><ele>89.7</ele><time>2011-04-28T09:01:24.0000000+00:00</time></trkpt><trkpt lat="21.899517" lon="104.822365"><ele>89.4</ele><time>2011-04-28T09:01:29.0000000+00:00</time></trkpt><trkpt lat="21.899513" lon="104.822365"><ele>89.2</ele><time>2011-04-28T09:01:34.0000000+00:00</time></trkpt><trkpt lat="21.899513" lon="104.822365"><ele>89.2</ele><time>2011-04-28T09:01:39.0000000+00:00</time></trkpt><trkpt lat="21.899515" lon="104.822365"><ele>89.2</ele><time>2011-04-28T09:01:44.0000000+00:00</time></trkpt><trkpt lat="21.899515" lon="104.822365"><ele>89.2</ele><time>2011-04-28T09:01:49.0000000+00:00</time></trkpt><trkpt lat="21.899515" lon="104.822365"><ele>89.2</ele><time>2011-04-28T09:01:54.0000000+00:00</time></trkpt><trkpt lat="21.899515" lon="104.822365"><ele>89.2</ele><time>2011-04-28T09:01:59.0000000+00:00</time></trkpt><trkpt lat="21.899515" lon="104.822365"><ele>89.2</ele><time>2011-04-28T09:02:04.0000000+00:00</time></trkpt><trkpt lat="21.899515" lon="104.822365"><ele>89.2</ele><time>2011-04-28T09:02:09.0000000+00:00</time></trkpt><trkpt lat="21.899515" lon="104.822365"><ele>89.2</ele><time>2011-04-28T09:02:14.0000000+00:00</time></trkpt><trkpt lat="21.899515" lon="104.822365"><ele>89.2</ele><time>2011-04-28T09:02:19.0000000+00:00</time></trkpt><trkpt lat="21.899515" lon="104.822365"><ele>89.2</ele><time>2011-04-28T09:02:24.0000000+00:00</time></trkpt><trkpt lat="21.899515" lon="104.822365"><ele>89.2</ele><time>2011-04-28T09:02:29.0000000+00:00</time></trkpt><trkpt lat="21.899515" lon="104.822365"><ele>89.2</ele><time>2011-04-28T09:02:34.0000000+00:00</time></trkpt><trkpt lat="21.899515" lon="104.822365"><ele>89.2</ele><time>2011-04-28T09:02:39.0000000+00:00</time></trkpt><trkpt lat="21.899515" lon="104.822365"><ele>89.2</ele><time>2011-04-28T09:02:44.0000000+00:00</time></trkpt><trkpt lat="21.899515" lon="104.822365"><ele>89.2</ele><time>2011-04-28T09:02:49.0000000+00:00</time></trkpt><trkpt lat="21.899515" lon="104.822365"><ele>89.2</ele><time>2011-04-28T09:02:54.0000000+00:00</time></trkpt><trkpt lat="21.899515" lon="104.822365"><ele>89.2</ele><time>2011-04-28T09:02:59.0000000+00:00</time></trkpt><trkpt lat="21.899515" lon="104.822365"><ele>89.2</ele><time>2011-04-28T09:03:04.0000000+00:00</time></trkpt><trkpt lat="21.899515" lon="104.822365"><ele>89.2</ele><time>2011-04-28T09:03:09.0000000+00:00</time></trkpt><trkpt lat="21.899515" lon="104.822365"><ele>89.2</ele><time>2011-04-28T09:03:14.0000000+00:00</time></trkpt><trkpt lat="21.899515" lon="104.822365"><ele>89.2</ele><time>2011-04-28T09:03:19.0000000+00:00</time></trkpt><trkpt lat="21.899515" lon="104.822365"><ele>89.3</ele><time>2011-04-28T09:03:24.0000000+00:00</time></trkpt><trkpt lat="21.899515" lon="104.822365"><ele>89.3</ele><time>2011-04-28T09:03:29.0000000+00:00</time></trkpt><trkpt lat="21.899515" lon="104.822365"><ele>89.3</ele><time>2011-04-28T09:03:34.0000000+00:00</time></trkpt><trkpt lat="21.899517" lon="104.822365"><ele>89.3</ele><time>2011-04-28T09:03:39.0000000+00:00</time></trkpt><trkpt lat="21.899517" lon="104.822365"><ele>89.3</ele><time>2011-04-28T09:03:44.0000000+00:00</time></trkpt><trkpt lat="21.899517" lon="104.822365"><ele>89.3</ele><time>2011-04-28T09:03:49.0000000+00:00</time></trkpt><trkpt lat="21.899517" lon="104.822365"><ele>89.3</ele><time>2011-04-28T09:03:54.0000000+00:00</time></trkpt><trkpt lat="21.899517" lon="104.822365"><ele>89.3</ele><time>2011-04-28T09:03:59.0000000+00:00</time></trkpt><trkpt lat="21.899517" lon="104.822365"><ele>89.3</ele><time>2011-04-28T09:04:04.0000000+00:00</time></trkpt><trkpt lat="21.899517" lon="104.822365"><ele>89.3</ele><time>2011-04-28T09:04:09.0000000+00:00</time></trkpt><trkpt lat="21.899517" lon="104.822365"><ele>89.4</ele><time>2011-04-28T09:04:14.0000000+00:00</time></trkpt><trkpt lat="21.899517" lon="104.822365"><ele>89.4</ele><time>2011-04-28T09:04:19.0000000+00:00</time></trkpt><trkpt lat="21.899517" lon="104.822365"><ele>89.4</ele><time>2011-04-28T09:04:24.0000000+00:00</time></trkpt><trkpt lat="21.899517" lon="104.822365"><ele>89.4</ele><time>2011-04-28T09:04:29.0000000+00:00</time></trkpt><trkpt lat="21.899517" lon="104.822365"><ele>89.4</ele><time>2011-04-28T09:04:34.0000000+00:00</time></trkpt><trkpt lat="21.899517" lon="104.822365"><ele>89.4</ele><time>2011-04-28T09:04:39.0000000+00:00</time></trkpt><trkpt lat="21.899517" lon="104.822365"><ele>89.4</ele><time>2011-04-28T09:04:44.0000000+00:00</time></trkpt><trkpt lat="21.899517" lon="104.822365"><ele>89.4</ele><time>2011-04-28T09:04:49.0000000+00:00</time></trkpt><trkpt lat="21.899517" lon="104.822365"><ele>89.4</ele><time>2011-04-28T09:04:54.0000000+00:00</time></trkpt><trkpt lat="21.899517" lon="104.822365"><ele>89.4</ele><time>2011-04-28T09:04:59.0000000+00:00</time></trkpt><trkpt lat="21.899517" lon="104.822365"><ele>89.4</ele><time>2011-04-28T09:05:04.0000000+00:00</time></trkpt><trkpt lat="21.899517" lon="104.822365"><ele>89.4</ele><time>2011-04-28T09:05:09.0000000+00:00</time></trkpt><trkpt lat="21.899517" lon="104.822365"><ele>89.4</ele><time>2011-04-28T09:05:14.0000000+00:00</time></trkpt><trkpt lat="21.899517" lon="104.822365"><ele>89.4</ele><time>2011-04-28T09:05:19.0000000+00:00</time></trkpt><trkpt lat="21.899517" lon="104.822365"><ele>89.4</ele><time>2011-04-28T09:05:24.0000000+00:00</time></trkpt><trkpt lat="21.899517" lon="104.822365"><ele>89.3</ele><time>2011-04-28T09:05:29.0000000+00:00</time></trkpt><trkpt lat="21.899517" lon="104.822365"><ele>89.3</ele><time>2011-04-28T09:05:34.0000000+00:00</time></trkpt><trkpt lat="21.899517" lon="104.822365"><ele>89.4</ele><time>2011-04-28T09:05:39.0000000+00:00</time></trkpt><trkpt lat="21.899517" lon="104.822365"><ele>89.3</ele><time>2011-04-28T09:05:44.0000000+00:00</time></trkpt><trkpt lat="21.899517" lon="104.822365"><ele>89.3</ele><time>2011-04-28T09:05:49.0000000+00:00</time></trkpt><trkpt lat="21.899517" lon="104.822365"><ele>89.3</ele><time>2011-04-28T09:05:54.0000000+00:00</time></trkpt><trkpt lat="21.899517" lon="104.822365"><ele>89.3</ele><time>2011-04-28T09:05:59.0000000+00:00</time></trkpt><trkpt lat="21.899517" lon="104.822365"><ele>89.3</ele><time>2011-04-28T09:06:04.0000000+00:00</time></trkpt><trkpt lat="21.899517" lon="104.822365"><ele>89.3</ele><time>2011-04-28T09:06:09.0000000+00:00</time></trkpt><trkpt lat="21.899515" lon="104.822365"><ele>89.3</ele><time>2011-04-28T09:06:14.0000000+00:00</time></trkpt><trkpt lat="21.899515" lon="104.822365"><ele>89.3</ele><time>2011-04-28T09:06:19.0000000+00:00</time></trkpt><trkpt lat="21.899515" lon="104.822365"><ele>89.2</ele><time>2011-04-28T09:06:24.0000000+00:00</time></trkpt><trkpt lat="21.899515" lon="104.822365"><ele>89.2</ele><time>2011-04-28T09:06:29.0000000+00:00</time></trkpt><trkpt lat="21.899515" lon="104.822365"><ele>89.2</ele><time>2011-04-28T09:06:34.0000000+00:00</time></trkpt><trkpt lat="21.899515" lon="104.822365"><ele>89.2</ele><time>2011-04-28T09:06:39.0000000+00:00</time></trkpt><trkpt lat="21.899515" lon="104.822365"><ele>89.2</ele><time>2011-04-28T09:06:44.0000000+00:00</time></trkpt><trkpt lat="21.899517" lon="104.822365"><ele>89.2</ele><time>2011-04-28T09:06:49.0000000+00:00</time></trkpt><trkpt lat="21.899517" lon="104.822365"><ele>89.2</ele><time>2011-04-28T09:06:54.0000000+00:00</time></trkpt><trkpt lat="21.899517" lon="104.822365"><ele>89.1</ele><time>2011-04-28T09:06:59.0000000+00:00</time></trkpt><trkpt lat="21.899517" lon="104.822365"><ele>89.1</ele><time>2011-04-28T09:07:04.0000000+00:00</time></trkpt><trkpt lat="21.899517" lon="104.822365"><ele>89.1</ele><time>2011-04-28T09:07:09.0000000+00:00</time></trkpt><trkpt lat="21.899517" lon="104.822365"><ele>89.1</ele><time>2011-04-28T09:07:14.0000000+00:00</time></trkpt><trkpt lat="21.899517" lon="104.822365"><ele>89.1</ele><time>2011-04-28T09:07:19.0000000+00:00</time></trkpt><trkpt lat="21.899517" lon="104.822365"><ele>89.1</ele><time>2011-04-28T09:07:24.0000000+00:00</time></trkpt><trkpt lat="21.899517" lon="104.822365"><ele>89.1</ele><time>2011-04-28T09:07:29.0000000+00:00</time></trkpt><trkpt lat="21.899517" lon="104.822365"><ele>89.1</ele><time>2011-04-28T09:07:34.0000000+00:00</time></trkpt><trkpt lat="21.899517" lon="104.822365"><ele>89.1</ele><time>2011-04-28T09:07:39.0000000+00:00</time></trkpt><trkpt lat="21.899517" lon="104.822365"><ele>89.0</ele><time>2011-04-28T09:07:44.0000000+00:00</time></trkpt><trkpt lat="21.899517" lon="104.822365"><ele>89.0</ele><time>2011-04-28T09:07:49.0000000+00:00</time></trkpt><trkpt lat="21.899515" lon="104.822365"><ele>89.0</ele><time>2011-04-28T09:07:54.0000000+00:00</time></trkpt><trkpt lat="21.899515" lon="104.822365"><ele>89.0</ele><time>2011-04-28T09:07:59.0000000+00:00</time></trkpt><trkpt lat="21.899515" lon="104.822365"><ele>89.0</ele><time>2011-04-28T09:08:04.0000000+00:00</time></trkpt><trkpt lat="21.899515" lon="104.822365"><ele>89.0</ele><time>2011-04-28T09:08:09.0000000+00:00</time></trkpt><trkpt lat="21.899515" lon="104.822365"><ele>89.0</ele><time>2011-04-28T09:08:14.0000000+00:00</time></trkpt><trkpt lat="21.899515" lon="104.822365"><ele>89.0</ele><time>2011-04-28T09:08:19.0000000+00:00</time></trkpt><trkpt lat="21.899515" lon="104.822365"><ele>89.0</ele><time>2011-04-28T09:08:24.0000000+00:00</time></trkpt><trkpt lat="21.899515" lon="104.822365"><ele>89.0</ele><time>2011-04-28T09:08:29.0000000+00:00</time></trkpt><trkpt lat="21.899515" lon="104.822365"><ele>89.0</ele><time>2011-04-28T09:08:34.0000000+00:00</time></trkpt><trkpt lat="21.899515" lon="104.822365"><ele>89.0</ele><time>2011-04-28T09:08:39.0000000+00:00</time></trkpt><trkpt lat="21.899515" lon="104.822365"><ele>88.9</ele><time>2011-04-28T09:08:44.0000000+00:00</time></trkpt><trkpt lat="21.899515" lon="104.822365"><ele>88.9</ele><time>2011-04-28T09:08:49.0000000+00:00</time></trkpt><trkpt lat="21.899515" lon="104.822365"><ele>88.9</ele><time>2011-04-28T09:08:54.0000000+00:00</time></trkpt><trkpt lat="21.899515" lon="104.822365"><ele>88.9</ele><time>2011-04-28T09:08:59.0000000+00:00</time></trkpt><trkpt lat="21.899515" lon="104.822365"><ele>88.9</ele><time>2011-04-28T09:09:04.0000000+00:00</time></trkpt><trkpt lat="21.899515" lon="104.822365"><ele>88.9</ele><time>2011-04-28T09:09:09.0000000+00:00</time></trkpt><trkpt lat="21.899515" lon="104.822365"><ele>88.9</ele><time>2011-04-28T09:09:14.0000000+00:00</time></trkpt><trkpt lat="21.899515" lon="104.822365"><ele>88.9</ele><time>2011-04-28T09:09:19.0000000+00:00</time></trkpt><trkpt lat="21.899515" lon="104.822365"><ele>88.9</ele><time>2011-04-28T09:09:24.0000000+00:00</time></trkpt><trkpt lat="21.899515" lon="104.822365"><ele>88.9</ele><time>2011-04-28T09:09:29.0000000+00:00</time></trkpt><trkpt lat="21.899515" lon="104.822365"><ele>88.9</ele><time>2011-04-28T09:09:34.0000000+00:00</time></trkpt><trkpt lat="21.899515" lon="104.822365"><ele>88.9</ele><time>2011-04-28T09:09:39.0000000+00:00</time></trkpt><trkpt lat="21.899515" lon="104.822365"><ele>88.8</ele><time>2011-04-28T09:09:44.0000000+00:00</time></trkpt><trkpt lat="21.899515" lon="104.822365"><ele>88.8</ele><time>2011-04-28T09:09:49.0000000+00:00</time></trkpt><trkpt lat="21.899515" lon="104.822365"><ele>88.8</ele><time>2011-04-28T09:09:54.0000000+00:00</time></trkpt><trkpt lat="21.899513" lon="104.822365"><ele>88.8</ele><time>2011-04-28T09:09:59.0000000+00:00</time></trkpt><trkpt lat="21.899513" lon="104.822365"><ele>88.8</ele><time>2011-04-28T09:10:04.0000000+00:00</time></trkpt><trkpt lat="21.899513" lon="104.822365"><ele>88.8</ele><time>2011-04-28T09:10:09.0000000+00:00</time></trkpt><trkpt lat="21.899513" lon="104.822365"><ele>88.8</ele><time>2011-04-28T09:10:14.0000000+00:00</time></trkpt><trkpt lat="21.899513" lon="104.822365"><ele>88.8</ele><time>2011-04-28T09:10:19.0000000+00:00</time></trkpt><trkpt lat="21.899511" lon="104.822365"><ele>88.8</ele><time>2011-04-28T09:10:24.0000000+00:00</time></trkpt><trkpt lat="21.899511" lon="104.822365"><ele>88.8</ele><time>2011-04-28T09:10:29.0000000+00:00</time></trkpt><trkpt lat="21.899511" lon="104.822365"><ele>88.8</ele><time>2011-04-28T09:10:34.0000000+00:00</time></trkpt><trkpt lat="21.899511" lon="104.822365"><ele>88.9</ele><time>2011-04-28T09:10:39.0000000+00:00</time></trkpt><trkpt lat="21.899511" lon="104.822365"><ele>88.9</ele><time>2011-04-28T09:10:44.0000000+00:00</time></trkpt><trkpt lat="21.899511" lon="104.822365"><ele>88.9</ele><time>2011-04-28T09:10:49.0000000+00:00</time></trkpt><trkpt lat="21.899511" lon="104.822365"><ele>88.9</ele><time>2011-04-28T09:10:54.0000000+00:00</time></trkpt><trkpt lat="21.899511" lon="104.822365"><ele>88.9</ele><time>2011-04-28T09:10:59.0000000+00:00</time></trkpt><trkpt lat="21.899511" lon="104.822365"><ele>88.8</ele><time>2011-04-28T09:11:04.0000000+00:00</time></trkpt><trkpt lat="21.899511" lon="104.822365"><ele>88.8</ele><time>2011-04-28T09:11:09.0000000+00:00</time></trkpt><trkpt lat="21.899511" lon="104.822365"><ele>88.9</ele><time>2011-04-28T09:11:14.0000000+00:00</time></trkpt><trkpt lat="21.899511" lon="104.822365"><ele>88.9</ele><time>2011-04-28T09:11:19.0000000+00:00</time></trkpt><trkpt lat="21.899511" lon="104.822365"><ele>88.9</ele><time>2011-04-28T09:11:24.0000000+00:00</time></trkpt><trkpt lat="21.899511" lon="104.822365"><ele>88.9</ele><time>2011-04-28T09:11:29.0000000+00:00</time></trkpt><trkpt lat="21.899511" lon="104.822365"><ele>88.9</ele><time>2011-04-28T09:11:34.0000000+00:00</time></trkpt><trkpt lat="21.899511" lon="104.822365"><ele>89.0</ele><time>2011-04-28T09:11:39.0000000+00:00</time></trkpt><trkpt lat="21.899511" lon="104.822365"><ele>89.0</ele><time>2011-04-28T09:11:44.0000000+00:00</time></trkpt><trkpt lat="21.899511" lon="104.822365"><ele>89.0</ele><time>2011-04-28T09:11:49.0000000+00:00</time></trkpt><trkpt lat="21.899511" lon="104.822365"><ele>89.0</ele><time>2011-04-28T09:11:54.0000000+00:00</time></trkpt><trkpt lat="21.899511" lon="104.822365"><ele>89.0</ele><time>2011-04-28T09:11:59.0000000+00:00</time></trkpt><trkpt lat="21.899511" lon="104.822365"><ele>89.0</ele><time>2011-04-28T09:12:04.0000000+00:00</time></trkpt><trkpt lat="21.899513" lon="104.822365"><ele>89.0</ele><time>2011-04-28T09:12:09.0000000+00:00</time></trkpt><trkpt lat="21.899515" lon="104.822365"><ele>89.0</ele><time>2011-04-28T09:12:14.0000000+00:00</time></trkpt><trkpt lat="21.899515" lon="104.822365"><ele>89.0</ele><time>2011-04-28T09:12:19.0000000+00:00</time></trkpt><trkpt lat="21.899515" lon="104.822365"><ele>89.0</ele><time>2011-04-28T09:12:24.0000000+00:00</time></trkpt><trkpt lat="21.899517" lon="104.822365"><ele>89.0</ele><time>2011-04-28T09:12:29.0000000+00:00</time></trkpt><trkpt lat="21.899515" lon="104.822365"><ele>89.0</ele><time>2011-04-28T09:12:34.0000000+00:00</time></trkpt><trkpt lat="21.899515" lon="104.822365"><ele>89.0</ele><time>2011-04-28T09:12:39.0000000+00:00</time></trkpt><trkpt lat="21.899515" lon="104.822365"><ele>89.0</ele><time>2011-04-28T09:12:44.0000000+00:00</time></trkpt><trkpt lat="21.899517" lon="104.822357"><ele>89.0</ele><time>2011-04-28T09:12:49.0000000+00:00</time></trkpt><trkpt lat="21.899521" lon="104.82235"><ele>89.0</ele><time>2011-04-28T09:12:54.0000000+00:00</time></trkpt><trkpt lat="21.899525" lon="104.822342"><ele>89.0</ele><time>2011-04-28T09:12:59.0000000+00:00</time></trkpt><trkpt lat="21.899529" lon="104.822334"><ele>89.0</ele><time>2011-04-28T09:13:04.0000000+00:00</time></trkpt><trkpt lat="21.899532" lon="104.822319"><ele>89.0</ele><time>2011-04-28T09:13:09.0000000+00:00</time></trkpt><trkpt lat="21.899536" lon="104.822311"><ele>89.0</ele><time>2011-04-28T09:13:14.0000000+00:00</time></trkpt><trkpt lat="21.89954" lon="104.822304"><ele>88.9</ele><time>2011-04-28T09:13:19.0000000+00:00</time></trkpt><trkpt lat="21.89954" lon="104.822304"><ele>88.9</ele><time>2011-04-28T09:13:24.0000000+00:00</time></trkpt><trkpt lat="21.899536" lon="104.822296"><ele>88.9</ele><time>2011-04-28T09:13:29.0000000+00:00</time></trkpt><trkpt lat="21.899529" lon="104.822289"><ele>88.8</ele><time>2011-04-28T09:13:34.0000000+00:00</time></trkpt><trkpt lat="21.899517" lon="104.822281"><ele>88.7</ele><time>2011-04-28T09:13:39.0000000+00:00</time></trkpt><trkpt lat="21.899509" lon="104.822273"><ele>88.5</ele><time>2011-04-28T09:13:44.0000000+00:00</time></trkpt><trkpt lat="21.899502" lon="104.822273"><ele>88.3</ele><time>2011-04-28T09:13:49.0000000+00:00</time></trkpt><trkpt lat="21.899498" lon="104.822273"><ele>88.0</ele><time>2011-04-28T09:13:54.0000000+00:00</time></trkpt><trkpt lat="21.899485" lon="104.822304"><ele>87.2</ele><time>2011-04-28T09:13:59.0000000+00:00</time></trkpt><trkpt lat="21.899485" lon="104.822311"><ele>87.2</ele><time>2011-04-28T09:14:04.0000000+00:00</time></trkpt><trkpt lat="21.899485" lon="104.822311"><ele>87.2</ele><time>2011-04-28T09:14:09.0000000+00:00</time></trkpt><trkpt lat="21.899485" lon="104.822311"><ele>87.3</ele><time>2011-04-28T09:14:14.0000000+00:00</time></trkpt><trkpt lat="21.899485" lon="104.822311"><ele>87.3</ele><time>2011-04-28T09:14:19.0000000+00:00</time></trkpt><trkpt lat="21.899485" lon="104.822319"><ele>87.3</ele><time>2011-04-28T09:14:24.0000000+00:00</time></trkpt><trkpt lat="21.899433" lon="104.822403"><ele>87.1</ele><time>2011-04-28T09:14:29.0000000+00:00</time></trkpt><trkpt lat="21.899288" lon="104.822556"><ele>86.3</ele><time>2011-04-28T09:14:34.0000000+00:00</time></trkpt><trkpt lat="21.8992" lon="104.822723"><ele>84.8</ele><time>2011-04-28T09:14:39.0000000+00:00</time></trkpt><trkpt lat="21.899054" lon="104.822922"><ele>83.4</ele><time>2011-04-28T09:14:44.0000000+00:00</time></trkpt><trkpt lat="21.898901" lon="104.823097"><ele>82.4</ele><time>2011-04-28T09:14:49.0000000+00:00</time></trkpt><trkpt lat="21.898745" lon="104.823303"><ele>83.5</ele><time>2011-04-28T09:14:54.0000000+00:00</time></trkpt><trkpt lat="21.898581" lon="104.823517"><ele>80.5</ele><time>2011-04-28T09:14:59.0000000+00:00</time></trkpt><trkpt lat="21.898384" lon="104.82373"><ele>82.7</ele><time>2011-04-28T09:15:04.0000000+00:00</time></trkpt><trkpt lat="21.898205" lon="104.824013"><ele>82.0</ele><time>2011-04-28T09:15:09.0000000+00:00</time></trkpt><trkpt lat="21.897995" lon="104.82431"><ele>81.0</ele><time>2011-04-28T09:15:14.0000000+00:00</time></trkpt><trkpt lat="21.897779" lon="104.824608"><ele>78.6</ele><time>2011-04-28T09:15:19.0000000+00:00</time></trkpt><trkpt lat="21.897554" lon="104.824829"><ele>77.6</ele><time>2011-04-28T09:15:24.0000000+00:00</time></trkpt><trkpt lat="21.897284" lon="104.824913"><ele>78.5</ele><time>2011-04-28T09:15:29.0000000+00:00</time></trkpt><trkpt lat="21.897013" lon="104.824936"><ele>78.1</ele><time>2011-04-28T09:15:34.0000000+00:00</time></trkpt><trkpt lat="21.896727" lon="104.824966"><ele>79.2</ele><time>2011-04-28T09:15:39.0000000+00:00</time></trkpt><trkpt lat="21.896494" lon="104.825104"><ele>81.0</ele><time>2011-04-28T09:15:44.0000000+00:00</time></trkpt><trkpt lat="21.896326" lon="104.82531"><ele>81.4</ele><time>2011-04-28T09:15:49.0000000+00:00</time></trkpt><trkpt lat="21.896156" lon="104.825569"><ele>80.8</ele><time>2011-04-28T09:15:54.0000000+00:00</time></trkpt><trkpt lat="21.89604" lon="104.825821"><ele>78.4</ele><time>2011-04-28T09:15:59.0000000+00:00</time></trkpt><trkpt lat="21.895914" lon="104.826118"><ele>77.8</ele><time>2011-04-28T09:16:04.0000000+00:00</time></trkpt><trkpt lat="21.895761" lon="104.826431"><ele>77.6</ele><time>2011-04-28T09:16:09.0000000+00:00</time></trkpt><trkpt lat="21.895678" lon="104.826714"><ele>75.7</ele><time>2011-04-28T09:16:14.0000000+00:00</time></trkpt><trkpt lat="21.895575" lon="104.827003"><ele>74.5</ele><time>2011-04-28T09:16:19.0000000+00:00</time></trkpt><trkpt lat="21.895391" lon="104.827286"><ele>72.2</ele><time>2011-04-28T09:16:24.0000000+00:00</time></trkpt><trkpt lat="21.89517" lon="104.827515"><ele>71.3</ele><time>2011-04-28T09:16:29.0000000+00:00</time></trkpt><trkpt lat="21.894943" lon="104.827744"><ele>69.8</ele><time>2011-04-28T09:16:34.0000000+00:00</time></trkpt><trkpt lat="21.894756" lon="104.827965"><ele>68.3</ele><time>2011-04-28T09:16:39.0000000+00:00</time></trkpt><trkpt lat="21.894571" lon="104.828178"><ele>66.5</ele><time>2011-04-28T09:16:44.0000000+00:00</time></trkpt><trkpt lat="21.894348" lon="104.828369"><ele>69.9</ele><time>2011-04-28T09:16:49.0000000+00:00</time></trkpt><trkpt lat="21.894114" lon="104.828506"><ele>72.1</ele><time>2011-04-28T09:16:54.0000000+00:00</time></trkpt><trkpt lat="21.893932" lon="104.828667"><ele>75.2</ele><time>2011-04-28T09:16:59.0000000+00:00</time></trkpt><trkpt lat="21.893772" lon="104.82888"><ele>77.6</ele><time>2011-04-28T09:17:04.0000000+00:00</time></trkpt><trkpt lat="21.893568" lon="104.829102"><ele>79.3</ele><time>2011-04-28T09:17:09.0000000+00:00</time></trkpt><trkpt lat="21.893318" lon="104.8293"><ele>80.3</ele><time>2011-04-28T09:17:14.0000000+00:00</time></trkpt><trkpt lat="21.893057" lon="104.829407"><ele>80.0</ele><time>2011-04-28T09:17:19.0000000+00:00</time></trkpt><trkpt lat="21.892782" lon="104.829468"><ele>79.4</ele><time>2011-04-28T09:17:24.0000000+00:00</time></trkpt><trkpt lat="21.892534" lon="104.82946"><ele>80.1</ele><time>2011-04-28T09:17:29.0000000+00:00</time></trkpt><trkpt lat="21.892309" lon="104.829445"><ele>81.0</ele><time>2011-04-28T09:17:34.0000000+00:00</time></trkpt><trkpt lat="21.89205" lon="104.829453"><ele>82.9</ele><time>2011-04-28T09:17:39.0000000+00:00</time></trkpt><trkpt lat="21.891775" lon="104.829536"><ele>82.1</ele><time>2011-04-28T09:17:44.0000000+00:00</time></trkpt><trkpt lat="21.891497" lon="104.829689"><ele>81.5</ele><time>2011-04-28T09:17:49.0000000+00:00</time></trkpt><trkpt lat="21.891232" lon="104.829849"><ele>80.8</ele><time>2011-04-28T09:17:54.0000000+00:00</time></trkpt><trkpt lat="21.890982" lon="104.830017"><ele>81.0</ele><time>2011-04-28T09:17:59.0000000+00:00</time></trkpt><trkpt lat="21.890728" lon="104.830177"><ele>80.1</ele><time>2011-04-28T09:18:04.0000000+00:00</time></trkpt><trkpt lat="21.890495" lon="104.83033"><ele>79.7</ele><time>2011-04-28T09:18:09.0000000+00:00</time></trkpt><trkpt lat="21.890291" lon="104.83046"><ele>78.7</ele><time>2011-04-28T09:18:14.0000000+00:00</time></trkpt><trkpt lat="21.890106" lon="104.830574"><ele>78.7</ele><time>2011-04-28T09:18:19.0000000+00:00</time></trkpt><trkpt lat="21.889948" lon="104.830673"><ele>78.9</ele><time>2011-04-28T09:18:24.0000000+00:00</time></trkpt><trkpt lat="21.889799" lon="104.83078"><ele>79.3</ele><time>2011-04-28T09:18:29.0000000+00:00</time></trkpt><trkpt lat="21.889688" lon="104.830948"><ele>80.2</ele><time>2011-04-28T09:18:34.0000000+00:00</time></trkpt><trkpt lat="21.889532" lon="104.831154"><ele>80.8</ele><time>2011-04-28T09:18:39.0000000+00:00</time></trkpt><trkpt lat="21.889328" lon="104.831345"><ele>82.0</ele><time>2011-04-28T09:18:44.0000000+00:00</time></trkpt><trkpt lat="21.889042" lon="104.831398"><ele>83.7</ele><time>2011-04-28T09:18:49.0000000+00:00</time></trkpt><trkpt lat="21.888796" lon="104.83136"><ele>84.1</ele><time>2011-04-28T09:18:54.0000000+00:00</time></trkpt><trkpt lat="21.888548" lon="104.831337"><ele>85.0</ele><time>2011-04-28T09:18:59.0000000+00:00</time></trkpt><trkpt lat="21.888245" lon="104.831551"><ele>81.4</ele><time>2011-04-28T09:19:04.0000000+00:00</time></trkpt><trkpt lat="21.887991" lon="104.831963"><ele>76.0</ele><time>2011-04-28T09:19:09.0000000+00:00</time></trkpt><trkpt lat="21.887665" lon="104.832291"><ele>76.5</ele><time>2011-04-28T09:19:14.0000000+00:00</time></trkpt><trkpt lat="21.887398" lon="104.832565"><ele>77.2</ele><time>2011-04-28T09:19:19.0000000+00:00</time></trkpt><trkpt lat="21.887188" lon="104.832787"><ele>75.3</ele><time>2011-04-28T09:19:24.0000000+00:00</time></trkpt><trkpt lat="21.886976" lon="104.833008"><ele>73.4</ele><time>2011-04-28T09:19:29.0000000+00:00</time></trkpt><trkpt lat="21.886745" lon="104.83326"><ele>73.6</ele><time>2011-04-28T09:19:34.0000000+00:00</time></trkpt><trkpt lat="21.886572" lon="104.833588"><ele>73.6</ele><time>2011-04-28T09:19:39.0000000+00:00</time></trkpt><trkpt lat="21.886509" lon="104.833954"><ele>73.6</ele><time>2011-04-28T09:19:44.0000000+00:00</time></trkpt><trkpt lat="21.88648" lon="104.834343"><ele>73.2</ele><time>2011-04-28T09:19:49.0000000+00:00</time></trkpt><trkpt lat="21.886471" lon="104.83474"><ele>72.3</ele><time>2011-04-28T09:19:54.0000000+00:00</time></trkpt><trkpt lat="21.88644" lon="104.835144"><ele>71.2</ele><time>2011-04-28T09:19:59.0000000+00:00</time></trkpt><trkpt lat="21.886301" lon="104.835571"><ele>70.8</ele><time>2011-04-28T09:20:04.0000000+00:00</time></trkpt><trkpt lat="21.886072" lon="104.835892"><ele>71.4</ele><time>2011-04-28T09:20:09.0000000+00:00</time></trkpt><trkpt lat="21.88588" lon="104.83622"><ele>73.1</ele><time>2011-04-28T09:20:14.0000000+00:00</time></trkpt><trkpt lat="21.885706" lon="104.836548"><ele>74.3</ele><time>2011-04-28T09:20:19.0000000+00:00</time></trkpt><trkpt lat="21.885551" lon="104.836845"><ele>75.7</ele><time>2011-04-28T09:20:24.0000000+00:00</time></trkpt><trkpt lat="21.885403" lon="104.837105"><ele>76.8</ele><time>2011-04-28T09:20:29.0000000+00:00</time></trkpt><trkpt lat="21.885286" lon="104.837349"><ele>77.3</ele><time>2011-04-28T09:20:34.0000000+00:00</time></trkpt><trkpt lat="21.885153" lon="104.837585"><ele>77.4</ele><time>2011-04-28T09:20:39.0000000+00:00</time></trkpt><trkpt lat="21.884985" lon="104.837868"><ele>77.6</ele><time>2011-04-28T09:20:44.0000000+00:00</time></trkpt><trkpt lat="21.88484" lon="104.838219"><ele>77.0</ele><time>2011-04-28T09:20:49.0000000+00:00</time></trkpt><trkpt lat="21.884605" lon="104.838501"><ele>76.3</ele><time>2011-04-28T09:20:54.0000000+00:00</time></trkpt><trkpt lat="21.884331" lon="104.838753"><ele>75.7</ele><time>2011-04-28T09:20:59.0000000+00:00</time></trkpt><trkpt lat="21.884048" lon="104.838913"><ele>76.0</ele><time>2011-04-28T09:21:04.0000000+00:00</time></trkpt><trkpt lat="21.883814" lon="104.838936"><ele>76.2</ele><time>2011-04-28T09:21:09.0000000+00:00</time></trkpt><trkpt lat="21.883606" lon="104.838898"><ele>76.7</ele><time>2011-04-28T09:21:14.0000000+00:00</time></trkpt><trkpt lat="21.883389" lon="104.838837"><ele>77.1</ele><time>2011-04-28T09:21:19.0000000+00:00</time></trkpt><trkpt lat="21.883165" lon="104.838844"><ele>79.6</ele><time>2011-04-28T09:21:24.0000000+00:00</time></trkpt><trkpt lat="21.882929" lon="104.838936"><ele>80.1</ele><time>2011-04-28T09:21:29.0000000+00:00</time></trkpt><trkpt lat="21.882677" lon="104.839043"><ele>82.1</ele><time>2011-04-28T09:21:34.0000000+00:00</time></trkpt><trkpt lat="21.882425" lon="104.839172"><ele>82.0</ele><time>2011-04-28T09:21:39.0000000+00:00</time></trkpt><trkpt lat="21.882198" lon="104.839363"><ele>82.0</ele><time>2011-04-28T09:21:44.0000000+00:00</time></trkpt><trkpt lat="21.882004" lon="104.8396"><ele>82.0</ele><time>2011-04-28T09:21:49.0000000+00:00</time></trkpt><trkpt lat="21.881809" lon="104.839844"><ele>81.6</ele><time>2011-04-28T09:21:54.0000000+00:00</time></trkpt><trkpt lat="21.881609" lon="104.840096"><ele>81.7</ele><time>2011-04-28T09:21:59.0000000+00:00</time></trkpt><trkpt lat="21.881435" lon="104.840355"><ele>80.5</ele><time>2011-04-28T09:22:04.0000000+00:00</time></trkpt><trkpt lat="21.88129" lon="104.840637"><ele>81.6</ele><time>2011-04-28T09:22:09.0000000+00:00</time></trkpt><trkpt lat="21.881187" lon="104.840935"><ele>80.7</ele><time>2011-04-28T09:22:14.0000000+00:00</time></trkpt><trkpt lat="21.881077" lon="104.841263"><ele>79.4</ele><time>2011-04-28T09:22:19.0000000+00:00</time></trkpt><trkpt lat="21.880907" lon="104.84153"><ele>77.7</ele><time>2011-04-28T09:22:24.0000000+00:00</time></trkpt><trkpt lat="21.880703" lon="104.841682"><ele>77.1</ele><time>2011-04-28T09:22:29.0000000+00:00</time></trkpt><trkpt lat="21.880527" lon="104.841743"><ele>77.9</ele><time>2011-04-28T09:22:34.0000000+00:00</time></trkpt><trkpt lat="21.880478" lon="104.841743"><ele>75.9</ele><time>2011-04-28T09:22:39.0000000+00:00</time></trkpt><trkpt lat="21.880476" lon="104.841743"><ele>76.1</ele><time>2011-04-28T09:22:44.0000000+00:00</time></trkpt><trkpt lat="21.880438" lon="104.841766"><ele>74.9</ele><time>2011-04-28T09:22:49.0000000+00:00</time></trkpt><trkpt lat="21.880375" lon="104.841797"><ele>75.1</ele><time>2011-04-28T09:22:54.0000000+00:00</time></trkpt><trkpt lat="21.880278" lon="104.841843"><ele>75.5</ele><time>2011-04-28T09:22:59.0000000+00:00</time></trkpt><trkpt lat="21.880119" lon="104.841888"><ele>77.1</ele><time>2011-04-28T09:23:04.0000000+00:00</time></trkpt><trkpt lat="21.879961" lon="104.841911"><ele>78.4</ele><time>2011-04-28T09:23:09.0000000+00:00</time></trkpt><trkpt lat="21.879795" lon="104.841988"><ele>79.9</ele><time>2011-04-28T09:23:14.0000000+00:00</time></trkpt><trkpt lat="21.879642" lon="104.842033"><ele>83.0</ele><time>2011-04-28T09:23:19.0000000+00:00</time></trkpt><trkpt lat="21.879549" lon="104.842064"><ele>85.8</ele><time>2011-04-28T09:23:24.0000000+00:00</time></trkpt><trkpt lat="21.879507" lon="104.842094"><ele>84.4</ele><time>2011-04-28T09:23:29.0000000+00:00</time></trkpt><trkpt lat="21.879505" lon="104.842087"><ele>84.8</ele><time>2011-04-28T09:23:34.0000000+00:00</time></trkpt><trkpt lat="21.879503" lon="104.842087"><ele>85.0</ele><time>2011-04-28T09:23:39.0000000+00:00</time></trkpt><trkpt lat="21.879499" lon="104.842087"><ele>85.0</ele><time>2011-04-28T09:23:44.0000000+00:00</time></trkpt><trkpt lat="21.879492" lon="104.842087"><ele>85.0</ele><time>2011-04-28T09:23:49.0000000+00:00</time></trkpt><trkpt lat="21.87949" lon="104.842087"><ele>85.0</ele><time>2011-04-28T09:23:54.0000000+00:00</time></trkpt><trkpt lat="21.87949" lon="104.842087"><ele>85.0</ele><time>2011-04-28T09:23:59.0000000+00:00</time></trkpt><trkpt lat="21.879488" lon="104.842079"><ele>85.0</ele><time>2011-04-28T09:24:04.0000000+00:00</time></trkpt><trkpt lat="21.879482" lon="104.842079"><ele>85.0</ele><time>2011-04-28T09:24:09.0000000+00:00</time></trkpt><trkpt lat="21.879473" lon="104.842087"><ele>84.9</ele><time>2011-04-28T09:24:14.0000000+00:00</time></trkpt><trkpt lat="21.879417" lon="104.842125"><ele>84.7</ele><time>2011-04-28T09:24:19.0000000+00:00</time></trkpt><trkpt lat="21.879322" lon="104.842163"><ele>84.2</ele><time>2011-04-28T09:24:24.0000000+00:00</time></trkpt><trkpt lat="21.879244" lon="104.842201"><ele>84.3</ele><time>2011-04-28T09:24:29.0000000+00:00</time></trkpt><trkpt lat="21.879114" lon="104.84227"><ele>85.6</ele><time>2011-04-28T09:24:34.0000000+00:00</time></trkpt><trkpt lat="21.878975" lon="104.842323"><ele>87.5</ele><time>2011-04-28T09:24:39.0000000+00:00</time></trkpt><trkpt lat="21.878826" lon="104.842384"><ele>89.0</ele><time>2011-04-28T09:24:44.0000000+00:00</time></trkpt><trkpt lat="21.878647" lon="104.842445"><ele>91.2</ele><time>2011-04-28T09:24:49.0000000+00:00</time></trkpt><trkpt lat="21.87849" lon="104.842499"><ele>92.8</ele><time>2011-04-28T09:24:54.0000000+00:00</time></trkpt><trkpt lat="21.878315" lon="104.842567"><ele>91.4</ele><time>2011-04-28T09:24:59.0000000+00:00</time></trkpt><trkpt lat="21.878124" lon="104.842644"><ele>92.2</ele><time>2011-04-28T09:25:04.0000000+00:00</time></trkpt><trkpt lat="21.877943" lon="104.842705"><ele>94.4</ele><time>2011-04-28T09:25:09.0000000+00:00</time></trkpt><trkpt lat="21.877764" lon="104.842773"><ele>96.5</ele><time>2011-04-28T09:25:14.0000000+00:00</time></trkpt><trkpt lat="21.877581" lon="104.84285"><ele>98.3</ele><time>2011-04-28T09:25:19.0000000+00:00</time></trkpt><trkpt lat="21.877405" lon="104.842918"><ele>98.7</ele><time>2011-04-28T09:25:24.0000000+00:00</time></trkpt><trkpt lat="21.877228" lon="104.842964"><ele>99.0</ele><time>2011-04-28T09:25:29.0000000+00:00</time></trkpt><trkpt lat="21.877052" lon="104.842957"><ele>100.9</ele><time>2011-04-28T09:25:34.0000000+00:00</time></trkpt><trkpt lat="21.876888" lon="104.842896"><ele>102.9</ele><time>2011-04-28T09:25:39.0000000+00:00</time></trkpt><trkpt lat="21.876707" lon="104.842804"><ele>104.7</ele><time>2011-04-28T09:25:44.0000000+00:00</time></trkpt><trkpt lat="21.876514" lon="104.842674"><ele>106.0</ele><time>2011-04-28T09:25:49.0000000+00:00</time></trkpt><trkpt lat="21.876314" lon="104.84256"><ele>106.8</ele><time>2011-04-28T09:25:54.0000000+00:00</time></trkpt><trkpt lat="21.876097" lon="104.842422"><ele>108.1</ele><time>2011-04-28T09:25:59.0000000+00:00</time></trkpt><trkpt lat="21.875851" lon="104.842255"><ele>109.8</ele><time>2011-04-28T09:26:04.0000000+00:00</time></trkpt><trkpt lat="21.875586" lon="104.842224"><ele>111.0</ele><time>2011-04-28T09:26:09.0000000+00:00</time></trkpt><trkpt lat="21.875341" lon="104.842278"><ele>112.3</ele><time>2011-04-28T09:26:14.0000000+00:00</time></trkpt><trkpt lat="21.875128" lon="104.842339"><ele>113.4</ele><time>2011-04-28T09:26:19.0000000+00:00</time></trkpt><trkpt lat="21.874882" lon="104.84243"><ele>115.0</ele><time>2011-04-28T09:26:24.0000000+00:00</time></trkpt><trkpt lat="21.874695" lon="104.842659"><ele>114.9</ele><time>2011-04-28T09:26:29.0000000+00:00</time></trkpt><trkpt lat="21.874451" lon="104.842819"><ele>114.3</ele><time>2011-04-28T09:26:34.0000000+00:00</time></trkpt><trkpt lat="21.874208" lon="104.842964"><ele>114.6</ele><time>2011-04-28T09:26:39.0000000+00:00</time></trkpt><trkpt lat="21.873934" lon="104.843124"><ele>114.3</ele><time>2011-04-28T09:26:44.0000000+00:00</time></trkpt><trkpt lat="21.873667" lon="104.84333"><ele>114.3</ele><time>2011-04-28T09:26:49.0000000+00:00</time></trkpt><trkpt lat="21.873413" lon="104.843544"><ele>113.8</ele><time>2011-04-28T09:26:54.0000000+00:00</time></trkpt><trkpt lat="21.873154" lon="104.843742"><ele>113.3</ele><time>2011-04-28T09:26:59.0000000+00:00</time></trkpt><trkpt lat="21.872885" lon="104.843979"><ele>111.7</ele><time>2011-04-28T09:27:04.0000000+00:00</time></trkpt><trkpt lat="21.872654" lon="104.844177"><ele>109.9</ele><time>2011-04-28T09:27:09.0000000+00:00</time></trkpt><trkpt lat="21.872398" lon="104.844353"><ele>108.5</ele><time>2011-04-28T09:27:14.0000000+00:00</time></trkpt><trkpt lat="21.872164" lon="104.844536"><ele>107.3</ele><time>2011-04-28T09:27:19.0000000+00:00</time></trkpt><trkpt lat="21.871922" lon="104.844734"><ele>106.6</ele><time>2011-04-28T09:27:24.0000000+00:00</time></trkpt><trkpt lat="21.871696" lon="104.844902"><ele>105.1</ele><time>2011-04-28T09:27:29.0000000+00:00</time></trkpt><trkpt lat="21.871502" lon="104.845062"><ele>103.0</ele><time>2011-04-28T09:27:34.0000000+00:00</time></trkpt><trkpt lat="21.871315" lon="104.845261"><ele>99.6</ele><time>2011-04-28T09:27:39.0000000+00:00</time></trkpt><trkpt lat="21.871101" lon="104.845467"><ele>95.2</ele><time>2011-04-28T09:27:44.0000000+00:00</time></trkpt><trkpt lat="21.870888" lon="104.845657"><ele>93.2</ele><time>2011-04-28T09:27:49.0000000+00:00</time></trkpt><trkpt lat="21.870693" lon="104.845825"><ele>89.6</ele><time>2011-04-28T09:27:54.0000000+00:00</time></trkpt><trkpt lat="21.870506" lon="104.845955"><ele>87.5</ele><time>2011-04-28T09:27:59.0000000+00:00</time></trkpt><trkpt lat="21.870291" lon="104.846024"><ele>86.4</ele><time>2011-04-28T09:28:04.0000000+00:00</time></trkpt><trkpt lat="21.870029" lon="104.846085"><ele>85.8</ele><time>2011-04-28T09:28:09.0000000+00:00</time></trkpt><trkpt lat="21.869787" lon="104.84613"><ele>86.3</ele><time>2011-04-28T09:28:14.0000000+00:00</time></trkpt><trkpt lat="21.869558" lon="104.846184"><ele>90.0</ele><time>2011-04-28T09:28:19.0000000+00:00</time></trkpt><trkpt lat="21.869322" lon="104.846237"><ele>91.8</ele><time>2011-04-28T09:28:24.0000000+00:00</time></trkpt><trkpt lat="21.869068" lon="104.846283"><ele>94.5</ele><time>2011-04-28T09:28:29.0000000+00:00</time></trkpt><trkpt lat="21.868757" lon="104.846382"><ele>96.5</ele><time>2011-04-28T09:28:34.0000000+00:00</time></trkpt><trkpt lat="21.868513" lon="104.846573"><ele>96.3</ele><time>2011-04-28T09:28:39.0000000+00:00</time></trkpt><trkpt lat="21.868322" lon="104.846855"><ele>93.1</ele><time>2011-04-28T09:28:44.0000000+00:00</time></trkpt><trkpt lat="21.868156" lon="104.847107"><ele>91.3</ele><time>2011-04-28T09:28:49.0000000+00:00</time></trkpt><trkpt lat="21.868004" lon="104.847313"><ele>90.0</ele><time>2011-04-28T09:28:54.0000000+00:00</time></trkpt><trkpt lat="21.867855" lon="104.847412"><ele>86.9</ele><time>2011-04-28T09:28:59.0000000+00:00</time></trkpt><trkpt lat="21.867727" lon="104.847435"><ele>85.7</ele><time>2011-04-28T09:29:04.0000000+00:00</time></trkpt><trkpt lat="21.867586" lon="104.847404"><ele>85.5</ele><time>2011-04-28T09:29:09.0000000+00:00</time></trkpt><trkpt lat="21.867483" lon="104.847404"><ele>85.1</ele><time>2011-04-28T09:29:14.0000000+00:00</time></trkpt><trkpt lat="21.867334" lon="104.84742"><ele>84.7</ele><time>2011-04-28T09:29:19.0000000+00:00</time></trkpt><trkpt lat="21.867193" lon="104.847488"><ele>84.3</ele><time>2011-04-28T09:29:24.0000000+00:00</time></trkpt><trkpt lat="21.867035" lon="104.84758"><ele>84.3</ele><time>2011-04-28T09:29:29.0000000+00:00</time></trkpt><trkpt lat="21.866877" lon="104.847694"><ele>84.0</ele><time>2011-04-28T09:29:34.0000000+00:00</time></trkpt><trkpt lat="21.866722" lon="104.847771"><ele>84.5</ele><time>2011-04-28T09:29:39.0000000+00:00</time></trkpt><trkpt lat="21.86656" lon="104.847862"><ele>82.7</ele><time>2011-04-28T09:29:44.0000000+00:00</time></trkpt><trkpt lat="21.866375" lon="104.847969"><ele>82.4</ele><time>2011-04-28T09:29:49.0000000+00:00</time></trkpt><trkpt lat="21.866152" lon="104.848061"><ele>83.0</ele><time>2011-04-28T09:29:54.0000000+00:00</time></trkpt><trkpt lat="21.865845" lon="104.848297"><ele>83.5</ele><time>2011-04-28T09:29:59.0000000+00:00</time></trkpt><trkpt lat="21.865637" lon="104.848557"><ele>82.3</ele><time>2011-04-28T09:30:04.0000000+00:00</time></trkpt><trkpt lat="21.865467" lon="104.848732"><ele>81.8</ele><time>2011-04-28T09:30:09.0000000+00:00</time></trkpt><trkpt lat="21.865345" lon="104.848877"><ele>80.2</ele><time>2011-04-28T09:30:14.0000000+00:00</time></trkpt><trkpt lat="21.865171" lon="104.84903"><ele>78.0</ele><time>2011-04-28T09:30:19.0000000+00:00</time></trkpt><trkpt lat="21.864985" lon="104.849152"><ele>75.3</ele><time>2011-04-28T09:30:24.0000000+00:00</time></trkpt><trkpt lat="21.864792" lon="104.849319"><ele>72.7</ele><time>2011-04-28T09:30:29.0000000+00:00</time></trkpt><trkpt lat="21.864616" lon="104.849472"><ele>70.8</ele><time>2011-04-28T09:30:34.0000000+00:00</time></trkpt><trkpt lat="21.864397" lon="104.84964"><ele>69.7</ele><time>2011-04-28T09:30:39.0000000+00:00</time></trkpt><trkpt lat="21.864155" lon="104.849785"><ele>73.5</ele><time>2011-04-28T09:30:44.0000000+00:00</time></trkpt><trkpt lat="21.86396" lon="104.849907"><ele>74.6</ele><time>2011-04-28T09:30:49.0000000+00:00</time></trkpt><trkpt lat="21.863779" lon="104.850006"><ele>73.5</ele><time>2011-04-28T09:30:54.0000000+00:00</time></trkpt><trkpt lat="21.863575" lon="104.850029"><ele>73.9</ele><time>2011-04-28T09:30:59.0000000+00:00</time></trkpt><trkpt lat="21.863417" lon="104.850075"><ele>74.0</ele><time>2011-04-28T09:31:04.0000000+00:00</time></trkpt><trkpt lat="21.863211" lon="104.850204"><ele>77.4</ele><time>2011-04-28T09:31:09.0000000+00:00</time></trkpt><trkpt lat="21.863037" lon="104.850288"><ele>78.6</ele><time>2011-04-28T09:31:14.0000000+00:00</time></trkpt><trkpt lat="21.862862" lon="104.850334"><ele>75.9</ele><time>2011-04-28T09:31:19.0000000+00:00</time></trkpt><trkpt lat="21.86273" lon="104.850334"><ele>76.6</ele><time>2011-04-28T09:31:24.0000000+00:00</time></trkpt><trkpt lat="21.862669" lon="104.850357"><ele>77.8</ele><time>2011-04-28T09:31:29.0000000+00:00</time></trkpt><trkpt lat="21.862658" lon="104.850365"><ele>78.6</ele><time>2011-04-28T09:31:34.0000000+00:00</time></trkpt><trkpt lat="21.862652" lon="104.850372"><ele>78.6</ele><time>2011-04-28T09:31:39.0000000+00:00</time></trkpt><trkpt lat="21.862648" lon="104.850372"><ele>78.7</ele><time>2011-04-28T09:31:44.0000000+00:00</time></trkpt><trkpt lat="21.862644" lon="104.850372"><ele>78.7</ele><time>2011-04-28T09:31:49.0000000+00:00</time></trkpt><trkpt lat="21.862631" lon="104.85038"><ele>78.6</ele><time>2011-04-28T09:31:54.0000000+00:00</time></trkpt><trkpt lat="21.862627" lon="104.850372"><ele>78.7</ele><time>2011-04-28T09:31:59.0000000+00:00</time></trkpt><trkpt lat="21.862627" lon="104.850372"><ele>78.6</ele><time>2011-04-28T09:32:04.0000000+00:00</time></trkpt><trkpt lat="21.862625" lon="104.850372"><ele>78.6</ele><time>2011-04-28T09:32:09.0000000+00:00</time></trkpt><trkpt lat="21.862625" lon="104.850372"><ele>78.6</ele><time>2011-04-28T09:32:14.0000000+00:00</time></trkpt><trkpt lat="21.862625" lon="104.850372"><ele>78.7</ele><time>2011-04-28T09:32:19.0000000+00:00</time></trkpt><trkpt lat="21.862627" lon="104.85038"><ele>78.7</ele><time>2011-04-28T09:32:24.0000000+00:00</time></trkpt><trkpt lat="21.862629" lon="104.85038"><ele>78.7</ele><time>2011-04-28T09:32:29.0000000+00:00</time></trkpt><trkpt lat="21.862629" lon="104.85038"><ele>78.7</ele><time>2011-04-28T09:32:34.0000000+00:00</time></trkpt><trkpt lat="21.862629" lon="104.850388"><ele>78.7</ele><time>2011-04-28T09:32:39.0000000+00:00</time></trkpt><trkpt lat="21.862627" lon="104.850388"><ele>78.7</ele><time>2011-04-28T09:32:44.0000000+00:00</time></trkpt><trkpt lat="21.862627" lon="104.850388"><ele>78.7</ele><time>2011-04-28T09:32:49.0000000+00:00</time></trkpt><trkpt lat="21.862627" lon="104.850388"><ele>78.7</ele><time>2011-04-28T09:32:54.0000000+00:00</time></trkpt><trkpt lat="21.862627" lon="104.850388"><ele>78.8</ele><time>2011-04-28T09:32:59.0000000+00:00</time></trkpt><trkpt lat="21.862627" lon="104.850388"><ele>78.8</ele><time>2011-04-28T09:33:04.0000000+00:00</time></trkpt><trkpt lat="21.862627" lon="104.850388"><ele>78.8</ele><time>2011-04-28T09:33:09.0000000+00:00</time></trkpt><trkpt lat="21.862612" lon="104.850395"><ele>78.8</ele><time>2011-04-28T09:33:14.0000000+00:00</time></trkpt><trkpt lat="21.862509" lon="104.850487"><ele>78.9</ele><time>2011-04-28T09:33:19.0000000+00:00</time></trkpt><trkpt lat="21.862423" lon="104.850685"><ele>78.2</ele><time>2011-04-28T09:33:24.0000000+00:00</time></trkpt><trkpt lat="21.862329" lon="104.850899"><ele>78.5</ele><time>2011-04-28T09:33:29.0000000+00:00</time></trkpt><trkpt lat="21.862133" lon="104.850945"><ele>79.0</ele><time>2011-04-28T09:33:34.0000000+00:00</time></trkpt><trkpt lat="21.861967" lon="104.850929"><ele>80.3</ele><time>2011-04-28T09:33:39.0000000+00:00</time></trkpt><trkpt lat="21.861797" lon="104.85099"><ele>82.2</ele><time>2011-04-28T09:33:44.0000000+00:00</time></trkpt><trkpt lat="21.861567" lon="104.851112"><ele>83.2</ele><time>2011-04-28T09:33:49.0000000+00:00</time></trkpt><trkpt lat="21.861282" lon="104.851257"><ele>84.3</ele><time>2011-04-28T09:33:54.0000000+00:00</time></trkpt><trkpt lat="21.860994" lon="104.851555"><ele>85.6</ele><time>2011-04-28T09:33:59.0000000+00:00</time></trkpt><trkpt lat="21.860771" lon="104.851906"><ele>86.7</ele><time>2011-04-28T09:34:04.0000000+00:00</time></trkpt><trkpt lat="21.86059" lon="104.852234"><ele>87.7</ele><time>2011-04-28T09:34:09.0000000+00:00</time></trkpt><trkpt lat="21.860416" lon="104.852501"><ele>88.6</ele><time>2011-04-28T09:34:14.0000000+00:00</time></trkpt><trkpt lat="21.860176" lon="104.852676"><ele>89.5</ele><time>2011-04-28T09:34:19.0000000+00:00</time></trkpt><trkpt lat="21.859909" lon="104.852783"><ele>91.0</ele><time>2011-04-28T09:34:24.0000000+00:00</time></trkpt><trkpt lat="21.859638" lon="104.852898"><ele>93.1</ele><time>2011-04-28T09:34:29.0000000+00:00</time></trkpt><trkpt lat="21.85936" lon="104.853104"><ele>94.4</ele><time>2011-04-28T09:34:34.0000000+00:00</time></trkpt><trkpt lat="21.859156" lon="104.853333"><ele>94.7</ele><time>2011-04-28T09:34:39.0000000+00:00</time></trkpt><trkpt lat="21.858973" lon="104.853554"><ele>94.6</ele><time>2011-04-28T09:34:44.0000000+00:00</time></trkpt><trkpt lat="21.85878" lon="104.85379"><ele>94.9</ele><time>2011-04-28T09:34:49.0000000+00:00</time></trkpt><trkpt lat="21.858591" lon="104.853996"><ele>96.3</ele><time>2011-04-28T09:34:54.0000000+00:00</time></trkpt><trkpt lat="21.858358" lon="104.854195"><ele>97.1</ele><time>2011-04-28T09:34:59.0000000+00:00</time></trkpt><trkpt lat="21.858103" lon="104.854408"><ele>96.1</ele><time>2011-04-28T09:35:04.0000000+00:00</time></trkpt><trkpt lat="21.857861" lon="104.854614"><ele>95.4</ele><time>2011-04-28T09:35:09.0000000+00:00</time></trkpt><trkpt lat="21.857641" lon="104.85482"><ele>94.8</ele><time>2011-04-28T09:35:14.0000000+00:00</time></trkpt><trkpt lat="21.857479" lon="104.854965"><ele>94.1</ele><time>2011-04-28T09:35:19.0000000+00:00</time></trkpt><trkpt lat="21.857347" lon="104.855141"><ele>93.8</ele><time>2011-04-28T09:35:24.0000000+00:00</time></trkpt><trkpt lat="21.857222" lon="104.8554"><ele>92.6</ele><time>2011-04-28T09:35:29.0000000+00:00</time></trkpt><trkpt lat="21.857117" lon="104.855644"><ele>91.3</ele><time>2011-04-28T09:35:34.0000000+00:00</time></trkpt><trkpt lat="21.857019" lon="104.855843"><ele>85.8</ele><time>2011-04-28T09:35:39.0000000+00:00</time></trkpt><trkpt lat="21.85693" lon="104.856056"><ele>84.3</ele><time>2011-04-28T09:35:44.0000000+00:00</time></trkpt><trkpt lat="21.856829" lon="104.85627"><ele>81.1</ele><time>2011-04-28T09:35:49.0000000+00:00</time></trkpt><trkpt lat="21.856745" lon="104.856491"><ele>79.7</ele><time>2011-04-28T09:35:54.0000000+00:00</time></trkpt><trkpt lat="21.856646" lon="104.856712"><ele>78.6</ele><time>2011-04-28T09:35:59.0000000+00:00</time></trkpt><trkpt lat="21.856466" lon="104.856911"><ele>78.1</ele><time>2011-04-28T09:36:04.0000000+00:00</time></trkpt><trkpt lat="21.85634" lon="104.857185"><ele>77.1</ele><time>2011-04-28T09:36:09.0000000+00:00</time></trkpt><trkpt lat="21.85623" lon="104.857445"><ele>76.2</ele><time>2011-04-28T09:36:14.0000000+00:00</time></trkpt><trkpt lat="21.856134" lon="104.857712"><ele>75.5</ele><time>2011-04-28T09:36:19.0000000+00:00</time></trkpt><trkpt lat="21.856035" lon="104.857964"><ele>75.2</ele><time>2011-04-28T09:36:24.0000000+00:00</time></trkpt><trkpt lat="21.855936" lon="104.858223"><ele>75.4</ele><time>2011-04-28T09:36:29.0000000+00:00</time></trkpt><trkpt lat="21.855791" lon="104.858498"><ele>75.5</ele><time>2011-04-28T09:36:34.0000000+00:00</time></trkpt><trkpt lat="21.855623" lon="104.858742"><ele>76.0</ele><time>2011-04-28T09:36:39.0000000+00:00</time></trkpt><trkpt lat="21.855429" lon="104.858986"><ele>77.1</ele><time>2011-04-28T09:36:44.0000000+00:00</time></trkpt><trkpt lat="21.855227" lon="104.859192"><ele>78.4</ele><time>2011-04-28T09:36:49.0000000+00:00</time></trkpt><trkpt lat="21.854969" lon="104.85939"><ele>79.5</ele><time>2011-04-28T09:36:54.0000000+00:00</time></trkpt><trkpt lat="21.854765" lon="104.85968"><ele>80.8</ele><time>2011-04-28T09:36:59.0000000+00:00</time></trkpt><trkpt lat="21.854586" lon="104.85994"><ele>82.2</ele><time>2011-04-28T09:37:04.0000000+00:00</time></trkpt><trkpt lat="21.85442" lon="104.860199"><ele>83.0</ele><time>2011-04-28T09:37:09.0000000+00:00</time></trkpt><trkpt lat="21.854246" lon="104.860458"><ele>83.6</ele><time>2011-04-28T09:37:14.0000000+00:00</time></trkpt><trkpt lat="21.854099" lon="104.860695"><ele>84.6</ele><time>2011-04-28T09:37:19.0000000+00:00</time></trkpt><trkpt lat="21.853901" lon="104.860924"><ele>84.0</ele><time>2011-04-28T09:37:24.0000000+00:00</time></trkpt><trkpt lat="21.85375" lon="104.861115"><ele>82.7</ele><time>2011-04-28T09:37:29.0000000+00:00</time></trkpt><trkpt lat="21.853617" lon="104.861298"><ele>82.8</ele><time>2011-04-28T09:37:34.0000000+00:00</time></trkpt><trkpt lat="21.853458" lon="104.861465"><ele>84.3</ele><time>2011-04-28T09:37:39.0000000+00:00</time></trkpt><trkpt lat="21.853277" lon="104.861603"><ele>86.4</ele><time>2011-04-28T09:37:44.0000000+00:00</time></trkpt><trkpt lat="21.853117" lon="104.861694"><ele>87.4</ele><time>2011-04-28T09:37:49.0000000+00:00</time></trkpt><trkpt lat="21.852982" lon="104.861801"><ele>89.1</ele><time>2011-04-28T09:37:54.0000000+00:00</time></trkpt><trkpt lat="21.852859" lon="104.861885"><ele>91.1</ele><time>2011-04-28T09:37:59.0000000+00:00</time></trkpt><trkpt lat="21.852728" lon="104.861984"><ele>92.9</ele><time>2011-04-28T09:38:04.0000000+00:00</time></trkpt><trkpt lat="21.852627" lon="104.862061"><ele>94.2</ele><time>2011-04-28T09:38:09.0000000+00:00</time></trkpt><trkpt lat="21.852533" lon="104.862129"><ele>94.6</ele><time>2011-04-28T09:38:14.0000000+00:00</time></trkpt><trkpt lat="21.852457" lon="104.862183"><ele>96.0</ele><time>2011-04-28T09:38:19.0000000+00:00</time></trkpt><trkpt lat="21.852377" lon="104.862244"><ele>97.4</ele><time>2011-04-28T09:38:24.0000000+00:00</time></trkpt><trkpt lat="21.852304" lon="104.862312"><ele>98.9</ele><time>2011-04-28T09:38:29.0000000+00:00</time></trkpt><trkpt lat="21.852228" lon="104.862335"><ele>100.3</ele><time>2011-04-28T09:38:34.0000000+00:00</time></trkpt><trkpt lat="21.852142" lon="104.862373"><ele>101.3</ele><time>2011-04-28T09:38:39.0000000+00:00</time></trkpt><trkpt lat="21.852045" lon="104.862434"><ele>102.9</ele><time>2011-04-28T09:38:44.0000000+00:00</time></trkpt><trkpt lat="21.851961" lon="104.862488"><ele>104.3</ele><time>2011-04-28T09:38:49.0000000+00:00</time></trkpt><trkpt lat="21.851892" lon="104.862518"><ele>106.2</ele><time>2011-04-28T09:38:54.0000000+00:00</time></trkpt><trkpt lat="21.851841" lon="104.862511"><ele>108.7</ele><time>2011-04-28T09:38:59.0000000+00:00</time></trkpt><trkpt lat="21.85173" lon="104.862511"><ele>110.9</ele><time>2011-04-28T09:39:04.0000000+00:00</time></trkpt><trkpt lat="21.851597" lon="104.862518"><ele>111.9</ele><time>2011-04-28T09:39:09.0000000+00:00</time></trkpt><trkpt lat="21.851444" lon="104.862503"><ele>112.2</ele><time>2011-04-28T09:39:14.0000000+00:00</time></trkpt><trkpt lat="21.851297" lon="104.862488"><ele>113.0</ele><time>2011-04-28T09:39:19.0000000+00:00</time></trkpt><trkpt lat="21.851158" lon="104.862457"><ele>114.1</ele><time>2011-04-28T09:39:24.0000000+00:00</time></trkpt><trkpt lat="21.85103" lon="104.862427"><ele>115.8</ele><time>2011-04-28T09:39:29.0000000+00:00</time></trkpt><trkpt lat="21.850883" lon="104.862411"><ele>117.5</ele><time>2011-04-28T09:39:34.0000000+00:00</time></trkpt><trkpt lat="21.850735" lon="104.862396"><ele>118.1</ele><time>2011-04-28T09:39:39.0000000+00:00</time></trkpt><trkpt lat="21.850609" lon="104.862373"><ele>119.3</ele><time>2011-04-28T09:39:44.0000000+00:00</time></trkpt><trkpt lat="21.850494" lon="104.862366"><ele>121.4</ele><time>2011-04-28T09:39:49.0000000+00:00</time></trkpt><trkpt lat="21.850384" lon="104.862335"><ele>123.1</ele><time>2011-04-28T09:39:54.0000000+00:00</time></trkpt><trkpt lat="21.850235" lon="104.862282"><ele>124.9</ele><time>2011-04-28T09:39:59.0000000+00:00</time></trkpt><trkpt lat="21.850058" lon="104.862259"><ele>125.5</ele><time>2011-04-28T09:40:04.0000000+00:00</time></trkpt><trkpt lat="21.849855" lon="104.862228"><ele>126.2</ele><time>2011-04-28T09:40:09.0000000+00:00</time></trkpt><trkpt lat="21.849596" lon="104.862251"><ele>126.4</ele><time>2011-04-28T09:40:14.0000000+00:00</time></trkpt><trkpt lat="21.849308" lon="104.862305"><ele>126.8</ele><time>2011-04-28T09:40:19.0000000+00:00</time></trkpt><trkpt lat="21.848963" lon="104.862373"><ele>128.2</ele><time>2011-04-28T09:40:24.0000000+00:00</time></trkpt><trkpt lat="21.848663" lon="104.862488"><ele>128.9</ele><time>2011-04-28T09:40:29.0000000+00:00</time></trkpt><trkpt lat="21.848406" lon="104.862694"><ele>129.2</ele><time>2011-04-28T09:40:34.0000000+00:00</time></trkpt><trkpt lat="21.848141" lon="104.862915"><ele>128.1</ele><time>2011-04-28T09:40:39.0000000+00:00</time></trkpt><trkpt lat="21.847885" lon="104.863106"><ele>128.6</ele><time>2011-04-28T09:40:44.0000000+00:00</time></trkpt><trkpt lat="21.847649" lon="104.863289"><ele>128.5</ele><time>2011-04-28T09:40:49.0000000+00:00</time></trkpt><trkpt lat="21.847437" lon="104.863419"><ele>129.2</ele><time>2011-04-28T09:40:54.0000000+00:00</time></trkpt><trkpt lat="21.847286" lon="104.863495"><ele>128.9</ele><time>2011-04-28T09:40:59.0000000+00:00</time></trkpt><trkpt lat="21.847149" lon="104.863564"><ele>129.3</ele><time>2011-04-28T09:41:04.0000000+00:00</time></trkpt><trkpt lat="21.846985" lon="104.863617"><ele>129.4</ele><time>2011-04-28T09:41:09.0000000+00:00</time></trkpt><trkpt lat="21.846836" lon="104.863678"><ele>129.2</ele><time>2011-04-28T09:41:14.0000000+00:00</time></trkpt><trkpt lat="21.84668" lon="104.863792"><ele>128.4</ele><time>2011-04-28T09:41:19.0000000+00:00</time></trkpt><trkpt lat="21.846514" lon="104.863907"><ele>126.2</ele><time>2011-04-28T09:41:24.0000000+00:00</time></trkpt><trkpt lat="21.846342" lon="104.864006"><ele>125.7</ele><time>2011-04-28T09:41:29.0000000+00:00</time></trkpt><trkpt lat="21.846119" lon="104.864128"><ele>125.9</ele><time>2011-04-28T09:41:34.0000000+00:00</time></trkpt><trkpt lat="21.845915" lon="104.864258"><ele>124.7</ele><time>2011-04-28T09:41:39.0000000+00:00</time></trkpt><trkpt lat="21.845739" lon="104.864372"><ele>124.1</ele><time>2011-04-28T09:41:44.0000000+00:00</time></trkpt><trkpt lat="21.845585" lon="104.864525"><ele>124.5</ele><time>2011-04-28T09:41:49.0000000+00:00</time></trkpt><trkpt lat="21.845423" lon="104.864738"><ele>123.2</ele><time>2011-04-28T09:41:54.0000000+00:00</time></trkpt><trkpt lat="21.845263" lon="104.864937"><ele>121.8</ele><time>2011-04-28T09:41:59.0000000+00:00</time></trkpt><trkpt lat="21.845121" lon="104.865097"><ele>119.4</ele><time>2011-04-28T09:42:04.0000000+00:00</time></trkpt><trkpt lat="21.84495" lon="104.86525"><ele>120.4</ele><time>2011-04-28T09:42:09.0000000+00:00</time></trkpt><trkpt lat="21.844707" lon="104.865341"><ele>119.9</ele><time>2011-04-28T09:42:14.0000000+00:00</time></trkpt><trkpt lat="21.844378" lon="104.865143"><ele>121.4</ele><time>2011-04-28T09:42:19.0000000+00:00</time></trkpt><trkpt lat="21.844158" lon="104.86483"><ele>122.6</ele><time>2011-04-28T09:42:24.0000000+00:00</time></trkpt><trkpt lat="21.843885" lon="104.864677"><ele>124.4</ele><time>2011-04-28T09:42:29.0000000+00:00</time></trkpt><trkpt lat="21.843536" lon="104.864777"><ele>124.0</ele><time>2011-04-28T09:42:34.0000000+00:00</time></trkpt><trkpt lat="21.843298" lon="104.865013"><ele>119.6</ele><time>2011-04-28T09:42:39.0000000+00:00</time></trkpt><trkpt lat="21.843145" lon="104.865379"><ele>114.5</ele><time>2011-04-28T09:42:44.0000000+00:00</time></trkpt><trkpt lat="21.84289" lon="104.8657"><ele>110.6</ele><time>2011-04-28T09:42:49.0000000+00:00</time></trkpt><trkpt lat="21.842556" lon="104.865944"><ele>101.5</ele><time>2011-04-28T09:42:54.0000000+00:00</time></trkpt><trkpt lat="21.842218" lon="104.866165"><ele>97.3</ele><time>2011-04-28T09:42:59.0000000+00:00</time></trkpt><trkpt lat="21.841969" lon="104.866417"><ele>97.0</ele><time>2011-04-28T09:43:04.0000000+00:00</time></trkpt><trkpt lat="21.841837" lon="104.866714"><ele>97.8</ele><time>2011-04-28T09:43:09.0000000+00:00</time></trkpt><trkpt lat="21.84173" lon="104.867035"><ele>99.8</ele><time>2011-04-28T09:43:14.0000000+00:00</time></trkpt><trkpt lat="21.841627" lon="104.867348"><ele>102.5</ele><time>2011-04-28T09:43:19.0000000+00:00</time></trkpt><trkpt lat="21.841528" lon="104.867653"><ele>105.1</ele><time>2011-04-28T09:43:24.0000000+00:00</time></trkpt><trkpt lat="21.841385" lon="104.867905"><ele>107.5</ele><time>2011-04-28T09:43:29.0000000+00:00</time></trkpt><trkpt lat="21.841177" lon="104.868118"><ele>107.5</ele><time>2011-04-28T09:43:34.0000000+00:00</time></trkpt><trkpt lat="21.840973" lon="104.86837"><ele>109.0</ele><time>2011-04-28T09:43:39.0000000+00:00</time></trkpt><trkpt lat="21.84071" lon="104.868698"><ele>110.2</ele><time>2011-04-28T09:43:44.0000000+00:00</time></trkpt><trkpt lat="21.840376" lon="104.86898"><ele>111.7</ele><time>2011-04-28T09:43:49.0000000+00:00</time></trkpt><trkpt lat="21.840057" lon="104.869202"><ele>113.0</ele><time>2011-04-28T09:43:54.0000000+00:00</time></trkpt><trkpt lat="21.8398" lon="104.869362"><ele>114.1</ele><time>2011-04-28T09:43:59.0000000+00:00</time></trkpt><trkpt lat="21.839632" lon="104.869537"><ele>115.1</ele><time>2011-04-28T09:44:04.0000000+00:00</time></trkpt><trkpt lat="21.839462" lon="104.869766"><ele>115.5</ele><time>2011-04-28T09:44:09.0000000+00:00</time></trkpt><trkpt lat="21.83931" lon="104.869972"><ele>115.6</ele><time>2011-04-28T09:44:14.0000000+00:00</time></trkpt><trkpt lat="21.839165" lon="104.870148"><ele>115.0</ele><time>2011-04-28T09:44:19.0000000+00:00</time></trkpt><trkpt lat="21.839001" lon="104.8703"><ele>114.8</ele><time>2011-04-28T09:44:24.0000000+00:00</time></trkpt><trkpt lat="21.838823" lon="104.870476"><ele>113.8</ele><time>2011-04-28T09:44:29.0000000+00:00</time></trkpt><trkpt lat="21.838598" lon="104.870682"><ele>113.9</ele><time>2011-04-28T09:44:34.0000000+00:00</time></trkpt><trkpt lat="21.838331" lon="104.870857"><ele>112.7</ele><time>2011-04-28T09:44:39.0000000+00:00</time></trkpt><trkpt lat="21.838095" lon="104.870911"><ele>109.7</ele><time>2011-04-28T09:44:44.0000000+00:00</time></trkpt><trkpt lat="21.837862" lon="104.870819"><ele>109.1</ele><time>2011-04-28T09:44:49.0000000+00:00</time></trkpt><trkpt lat="21.837696" lon="104.870743"><ele>108.6</ele><time>2011-04-28T09:44:54.0000000+00:00</time></trkpt><trkpt lat="21.837536" lon="104.870651"><ele>108.6</ele><time>2011-04-28T09:44:59.0000000+00:00</time></trkpt><trkpt lat="21.837351" lon="104.870636"><ele>109.2</ele><time>2011-04-28T09:45:04.0000000+00:00</time></trkpt><trkpt lat="21.837181" lon="104.870628"><ele>107.6</ele><time>2011-04-28T09:45:09.0000000+00:00</time></trkpt><trkpt lat="21.837069" lon="104.870636"><ele>107.7</ele><time>2011-04-28T09:45:14.0000000+00:00</time></trkpt><trkpt lat="21.836979" lon="104.870667"><ele>107.9</ele><time>2011-04-28T09:45:19.0000000+00:00</time></trkpt><trkpt lat="21.836929" lon="104.870667"><ele>103.9</ele><time>2011-04-28T09:45:24.0000000+00:00</time></trkpt><trkpt lat="21.836931" lon="104.870667"><ele>103.5</ele><time>2011-04-28T09:45:29.0000000+00:00</time></trkpt><trkpt lat="21.836931" lon="104.870667"><ele>103.5</ele><time>2011-04-28T09:45:34.0000000+00:00</time></trkpt><trkpt lat="21.836927" lon="104.870667"><ele>103.4</ele><time>2011-04-28T09:45:39.0000000+00:00</time></trkpt><trkpt lat="21.836927" lon="104.870667"><ele>103.4</ele><time>2011-04-28T09:45:44.0000000+00:00</time></trkpt><trkpt lat="21.836927" lon="104.870667"><ele>103.3</ele><time>2011-04-28T09:45:49.0000000+00:00</time></trkpt><trkpt lat="21.836927" lon="104.870667"><ele>103.3</ele><time>2011-04-28T09:45:54.0000000+00:00</time></trkpt><trkpt lat="21.836927" lon="104.870667"><ele>103.2</ele><time>2011-04-28T09:45:59.0000000+00:00</time></trkpt><trkpt lat="21.836926" lon="104.870667"><ele>103.1</ele><time>2011-04-28T09:46:04.0000000+00:00</time></trkpt><trkpt lat="21.836926" lon="104.870667"><ele>103.1</ele><time>2011-04-28T09:46:09.0000000+00:00</time></trkpt><trkpt lat="21.836926" lon="104.870667"><ele>103.0</ele><time>2011-04-28T09:46:14.0000000+00:00</time></trkpt><trkpt lat="21.836926" lon="104.870667"><ele>102.9</ele><time>2011-04-28T09:46:19.0000000+00:00</time></trkpt><trkpt lat="21.836926" lon="104.870667"><ele>102.9</ele><time>2011-04-28T09:46:24.0000000+00:00</time></trkpt><trkpt lat="21.836927" lon="104.870667"><ele>102.8</ele><time>2011-04-28T09:46:29.0000000+00:00</time></trkpt><trkpt lat="21.836927" lon="104.870667"><ele>102.8</ele><time>2011-04-28T09:46:34.0000000+00:00</time></trkpt><trkpt lat="21.836927" lon="104.870659"><ele>102.7</ele><time>2011-04-28T09:46:39.0000000+00:00</time></trkpt><trkpt lat="21.836927" lon="104.870659"><ele>102.7</ele><time>2011-04-28T09:46:44.0000000+00:00</time></trkpt><trkpt lat="21.83691" lon="104.870651"><ele>102.7</ele><time>2011-04-28T09:46:49.0000000+00:00</time></trkpt><trkpt lat="21.83675" lon="104.870644"><ele>100.5</ele><time>2011-04-28T09:46:54.0000000+00:00</time></trkpt><trkpt lat="21.836573" lon="104.870613"><ele>99.5</ele><time>2011-04-28T09:46:59.0000000+00:00</time></trkpt><trkpt lat="21.83637" lon="104.87056"><ele>98.5</ele><time>2011-04-28T09:47:04.0000000+00:00</time></trkpt><trkpt lat="21.836134" lon="104.870583"><ele>96.7</ele><time>2011-04-28T09:47:09.0000000+00:00</time></trkpt><trkpt lat="21.835892" lon="104.870697"><ele>95.7</ele><time>2011-04-28T09:47:14.0000000+00:00</time></trkpt><trkpt lat="21.835672" lon="104.870995"><ele>87.5</ele><time>2011-04-28T09:47:19.0000000+00:00</time></trkpt><trkpt lat="21.835491" lon="104.87133"><ele>81.4</ele><time>2011-04-28T09:47:24.0000000+00:00</time></trkpt><trkpt lat="21.83534" lon="104.871712"><ele>76.1</ele><time>2011-04-28T09:47:29.0000000+00:00</time></trkpt><trkpt lat="21.835207" lon="104.87207"><ele>73.6</ele><time>2011-04-28T09:47:34.0000000+00:00</time></trkpt><trkpt lat="21.835016" lon="104.872307"><ele>70.7</ele><time>2011-04-28T09:47:39.0000000+00:00</time></trkpt><trkpt lat="21.834778" lon="104.872536"><ele>70.4</ele><time>2011-04-28T09:47:44.0000000+00:00</time></trkpt><trkpt lat="21.834572" lon="104.872726"><ele>69.8</ele><time>2011-04-28T09:47:49.0000000+00:00</time></trkpt><trkpt lat="21.834375" lon="104.872902"><ele>68.4</ele><time>2011-04-28T09:47:54.0000000+00:00</time></trkpt><trkpt lat="21.834162" lon="104.873077"><ele>67.6</ele><time>2011-04-28T09:47:59.0000000+00:00</time></trkpt><trkpt lat="21.833935" lon="104.873276"><ele>69.3</ele><time>2011-04-28T09:48:04.0000000+00:00</time></trkpt><trkpt lat="21.833639" lon="104.873436"><ele>69.8</ele><time>2011-04-28T09:48:09.0000000+00:00</time></trkpt><trkpt lat="21.833256" lon="104.873489"><ele>69.2</ele><time>2011-04-28T09:48:14.0000000+00:00</time></trkpt><trkpt lat="21.832844" lon="104.873535"><ele>67.6</ele><time>2011-04-28T09:48:19.0000000+00:00</time></trkpt><trkpt lat="21.832497" lon="104.873642"><ele>67.1</ele><time>2011-04-28T09:48:24.0000000+00:00</time></trkpt><trkpt lat="21.832226" lon="104.873848"><ele>68.0</ele><time>2011-04-28T09:48:29.0000000+00:00</time></trkpt><trkpt lat="21.832039" lon="104.874084"><ele>68.5</ele><time>2011-04-28T09:48:34.0000000+00:00</time></trkpt><trkpt lat="21.831875" lon="104.874359"><ele>69.1</ele><time>2011-04-28T09:48:39.0000000+00:00</time></trkpt><trkpt lat="21.83172" lon="104.874588"><ele>69.7</ele><time>2011-04-28T09:48:44.0000000+00:00</time></trkpt><trkpt lat="21.831512" lon="104.874771"><ele>70.2</ele><time>2011-04-28T09:48:49.0000000+00:00</time></trkpt><trkpt lat="21.831301" lon="104.874916"><ele>71.3</ele><time>2011-04-28T09:48:54.0000000+00:00</time></trkpt><trkpt lat="21.83112" lon="104.875"><ele>72.0</ele><time>2011-04-28T09:48:59.0000000+00:00</time></trkpt><trkpt lat="21.830898" lon="104.875099"><ele>73.4</ele><time>2011-04-28T09:49:04.0000000+00:00</time></trkpt><trkpt lat="21.830677" lon="104.875183"><ele>73.6</ele><time>2011-04-28T09:49:09.0000000+00:00</time></trkpt><trkpt lat="21.830534" lon="104.875214"><ele>76.9</ele><time>2011-04-28T09:49:14.0000000+00:00</time></trkpt><trkpt lat="21.830355" lon="104.875252"><ele>82.6</ele><time>2011-04-28T09:49:19.0000000+00:00</time></trkpt><trkpt lat="21.830133" lon="104.87532"><ele>85.0</ele><time>2011-04-28T09:49:24.0000000+00:00</time></trkpt><trkpt lat="21.829828" lon="104.875397"><ele>85.4</ele><time>2011-04-28T09:49:29.0000000+00:00</time></trkpt><trkpt lat="21.829491" lon="104.875595"><ele>79.3</ele><time>2011-04-28T09:49:34.0000000+00:00</time></trkpt><trkpt lat="21.829174" lon="104.875885"><ele>73.5</ele><time>2011-04-28T09:49:39.0000000+00:00</time></trkpt><trkpt lat="21.828884" lon="104.87616"><ele>70.7</ele><time>2011-04-28T09:49:44.0000000+00:00</time></trkpt><trkpt lat="21.828642" lon="104.876389"><ele>69.2</ele><time>2011-04-28T09:49:49.0000000+00:00</time></trkpt><trkpt lat="21.82844" lon="104.876602"><ele>65.0</ele><time>2011-04-28T09:49:54.0000000+00:00</time></trkpt><trkpt lat="21.828203" lon="104.876831"><ele>64.8</ele><time>2011-04-28T09:49:59.0000000+00:00</time></trkpt><trkpt lat="21.827969" lon="104.877068"><ele>66.0</ele><time>2011-04-28T09:50:04.0000000+00:00</time></trkpt><trkpt lat="21.827742" lon="104.877296"><ele>67.3</ele><time>2011-04-28T09:50:09.0000000+00:00</time></trkpt><trkpt lat="21.827532" lon="104.87751"><ele>68.5</ele><time>2011-04-28T09:50:14.0000000+00:00</time></trkpt><trkpt lat="21.827353" lon="104.877701"><ele>69.2</ele><time>2011-04-28T09:50:19.0000000+00:00</time></trkpt><trkpt lat="21.827168" lon="104.877884"><ele>68.5</ele><time>2011-04-28T09:50:24.0000000+00:00</time></trkpt><trkpt lat="21.826984" lon="104.87809"><ele>67.9</ele><time>2011-04-28T09:50:29.0000000+00:00</time></trkpt><trkpt lat="21.826866" lon="104.87838"><ele>68.9</ele><time>2011-04-28T09:50:34.0000000+00:00</time></trkpt><trkpt lat="21.826777" lon="104.878738"><ele>69.9</ele><time>2011-04-28T09:50:39.0000000+00:00</time></trkpt><trkpt lat="21.826492" lon="104.878967"><ele>67.1</ele><time>2011-04-28T09:50:44.0000000+00:00</time></trkpt><trkpt lat="21.826195" lon="104.879135"><ele>67.0</ele><time>2011-04-28T09:50:49.0000000+00:00</time></trkpt><trkpt lat="21.82596" lon="104.879402"><ele>68.2</ele><time>2011-04-28T09:50:54.0000000+00:00</time></trkpt><trkpt lat="21.825752" lon="104.879669"><ele>67.0</ele><time>2011-04-28T09:50:59.0000000+00:00</time></trkpt><trkpt lat="21.82551" lon="104.879875"><ele>67.1</ele><time>2011-04-28T09:51:04.0000000+00:00</time></trkpt><trkpt lat="21.825243" lon="104.880005"><ele>67.3</ele><time>2011-04-28T09:51:09.0000000+00:00</time></trkpt><trkpt lat="21.824986" lon="104.880066"><ele>68.5</ele><time>2011-04-28T09:51:14.0000000+00:00</time></trkpt><trkpt lat="21.824724" lon="104.88018"><ele>69.5</ele><time>2011-04-28T09:51:19.0000000+00:00</time></trkpt><trkpt lat="21.824446" lon="104.880356"><ele>69.2</ele><time>2011-04-28T09:51:24.0000000+00:00</time></trkpt><trkpt lat="21.824162" lon="104.880508"><ele>69.3</ele><time>2011-04-28T09:51:29.0000000+00:00</time></trkpt><trkpt lat="21.82386" lon="104.880554"><ele>69.2</ele><time>2011-04-28T09:51:34.0000000+00:00</time></trkpt><trkpt lat="21.823559" lon="104.88047"><ele>69.1</ele><time>2011-04-28T09:51:39.0000000+00:00</time></trkpt><trkpt lat="21.823311" lon="104.880333"><ele>69.5</ele><time>2011-04-28T09:51:44.0000000+00:00</time></trkpt><trkpt lat="21.823118" lon="104.880226"><ele>70.2</ele><time>2011-04-28T09:51:49.0000000+00:00</time></trkpt><trkpt lat="21.822947" lon="104.880165"><ele>70.5</ele><time>2011-04-28T09:51:54.0000000+00:00</time></trkpt><trkpt lat="21.822802" lon="104.880112"><ele>70.4</ele><time>2011-04-28T09:51:59.0000000+00:00</time></trkpt><trkpt lat="21.822664" lon="104.880051"><ele>70.9</ele><time>2011-04-28T09:52:04.0000000+00:00</time></trkpt><trkpt lat="21.822533" lon="104.880035"><ele>72.0</ele><time>2011-04-28T09:52:09.0000000+00:00</time></trkpt><trkpt lat="21.82243" lon="104.880043"><ele>72.8</ele><time>2011-04-28T09:52:14.0000000+00:00</time></trkpt><trkpt lat="21.822304" lon="104.880089"><ele>73.3</ele><time>2011-04-28T09:52:19.0000000+00:00</time></trkpt><trkpt lat="21.822123" lon="104.880203"><ele>71.7</ele><time>2011-04-28T09:52:24.0000000+00:00</time></trkpt><trkpt lat="21.821999" lon="104.880318"><ele>70.6</ele><time>2011-04-28T09:52:29.0000000+00:00</time></trkpt><trkpt lat="21.821869" lon="104.880447"><ele>71.4</ele><time>2011-04-28T09:52:34.0000000+00:00</time></trkpt><trkpt lat="21.821726" lon="104.880592"><ele>72.1</ele><time>2011-04-28T09:52:39.0000000+00:00</time></trkpt><trkpt lat="21.821566" lon="104.880737"><ele>73.4</ele><time>2011-04-28T09:52:44.0000000+00:00</time></trkpt><trkpt lat="21.821413" lon="104.880905"><ele>73.5</ele><time>2011-04-28T09:52:49.0000000+00:00</time></trkpt><trkpt lat="21.821297" lon="104.881096"><ele>72.1</ele><time>2011-04-28T09:52:54.0000000+00:00</time></trkpt><trkpt lat="21.821228" lon="104.88134"><ele>72.2</ele><time>2011-04-28T09:52:59.0000000+00:00</time></trkpt><trkpt lat="21.821199" lon="104.881592"><ele>72.4</ele><time>2011-04-28T09:53:04.0000000+00:00</time></trkpt><trkpt lat="21.821171" lon="104.881828"><ele>73.0</ele><time>2011-04-28T09:53:09.0000000+00:00</time></trkpt><trkpt lat="21.82106" lon="104.882057"><ele>73.2</ele><time>2011-04-28T09:53:14.0000000+00:00</time></trkpt><trkpt lat="21.820902" lon="104.882202"><ele>73.5</ele><time>2011-04-28T09:53:19.0000000+00:00</time></trkpt><trkpt lat="21.820734" lon="104.882332"><ele>74.3</ele><time>2011-04-28T09:53:24.0000000+00:00</time></trkpt><trkpt lat="21.820566" lon="104.882477"><ele>75.2</ele><time>2011-04-28T09:53:29.0000000+00:00</time></trkpt><trkpt lat="21.820419" lon="104.882599"><ele>76.6</ele><time>2011-04-28T09:53:34.0000000+00:00</time></trkpt><trkpt lat="21.820295" lon="104.88269"><ele>77.8</ele><time>2011-04-28T09:53:39.0000000+00:00</time></trkpt><trkpt lat="21.820139" lon="104.882797"><ele>76.7</ele><time>2011-04-28T09:53:44.0000000+00:00</time></trkpt><trkpt lat="21.819994" lon="104.882919"><ele>78.0</ele><time>2011-04-28T09:53:49.0000000+00:00</time></trkpt><trkpt lat="21.819933" lon="104.883041"><ele>80.0</ele><time>2011-04-28T09:53:54.0000000+00:00</time></trkpt><trkpt lat="21.819927" lon="104.883148"><ele>81.6</ele><time>2011-04-28T09:53:59.0000000+00:00</time></trkpt><trkpt lat="21.819971" lon="104.883293"><ele>81.1</ele><time>2011-04-28T09:54:04.0000000+00:00</time></trkpt><trkpt lat="21.819994" lon="104.883423"><ele>81.8</ele><time>2011-04-28T09:54:09.0000000+00:00</time></trkpt><trkpt lat="21.820026" lon="104.883522"><ele>82.1</ele><time>2011-04-28T09:54:14.0000000+00:00</time></trkpt><trkpt lat="21.820013" lon="104.883621"><ele>81.0</ele><time>2011-04-28T09:54:19.0000000+00:00</time></trkpt><trkpt lat="21.819986" lon="104.883759"><ele>81.2</ele><time>2011-04-28T09:54:24.0000000+00:00</time></trkpt><trkpt lat="21.819948" lon="104.883835"><ele>81.3</ele><time>2011-04-28T09:54:29.0000000+00:00</time></trkpt><trkpt lat="21.819891" lon="104.883896"><ele>80.9</ele><time>2011-04-28T09:54:34.0000000+00:00</time></trkpt><trkpt lat="21.819813" lon="104.884056"><ele>79.6</ele><time>2011-04-28T09:54:39.0000000+00:00</time></trkpt><trkpt lat="21.819771" lon="104.884178"><ele>79.7</ele><time>2011-04-28T09:54:44.0000000+00:00</time></trkpt><trkpt lat="21.819729" lon="104.884293"><ele>77.9</ele><time>2011-04-28T09:54:49.0000000+00:00</time></trkpt><trkpt lat="21.819708" lon="104.884354"><ele>75.0</ele><time>2011-04-28T09:54:54.0000000+00:00</time></trkpt><trkpt lat="21.819691" lon="104.884346"><ele>74.5</ele><time>2011-04-28T09:54:59.0000000+00:00</time></trkpt><trkpt lat="21.819683" lon="104.884338"><ele>74.1</ele><time>2011-04-28T09:55:04.0000000+00:00</time></trkpt><trkpt lat="21.819681" lon="104.884346"><ele>73.9</ele><time>2011-04-28T09:55:09.0000000+00:00</time></trkpt><trkpt lat="21.819677" lon="104.884346"><ele>73.9</ele><time>2011-04-28T09:55:14.0000000+00:00</time></trkpt><trkpt lat="21.819677" lon="104.884346"><ele>73.9</ele><time>2011-04-28T09:55:19.0000000+00:00</time></trkpt><trkpt lat="21.819677" lon="104.884346"><ele>73.8</ele><time>2011-04-28T09:55:24.0000000+00:00</time></trkpt><trkpt lat="21.819677" lon="104.884346"><ele>73.8</ele><time>2011-04-28T09:55:29.0000000+00:00</time></trkpt><trkpt lat="21.819675" lon="104.884346"><ele>73.8</ele><time>2011-04-28T09:55:34.0000000+00:00</time></trkpt><trkpt lat="21.819672" lon="104.884346"><ele>73.8</ele><time>2011-04-28T09:55:39.0000000+00:00</time></trkpt><trkpt lat="21.819668" lon="104.884346"><ele>73.8</ele><time>2011-04-28T09:55:44.0000000+00:00</time></trkpt><trkpt lat="21.819668" lon="104.884338"><ele>73.8</ele><time>2011-04-28T09:55:49.0000000+00:00</time></trkpt><trkpt lat="21.819668" lon="104.884338"><ele>73.8</ele><time>2011-04-28T09:55:54.0000000+00:00</time></trkpt><trkpt lat="21.819666" lon="104.884338"><ele>73.8</ele><time>2011-04-28T09:55:59.0000000+00:00</time></trkpt><trkpt lat="21.81967" lon="104.884346"><ele>73.8</ele><time>2011-04-28T09:56:04.0000000+00:00</time></trkpt><trkpt lat="21.819674" lon="104.884346"><ele>73.9</ele><time>2011-04-28T09:56:09.0000000+00:00</time></trkpt><trkpt lat="21.819664" lon="104.884361"><ele>73.8</ele><time>2011-04-28T09:56:14.0000000+00:00</time></trkpt><trkpt lat="21.819656" lon="104.88443"><ele>74.3</ele><time>2011-04-28T09:56:19.0000000+00:00</time></trkpt><trkpt lat="21.819635" lon="104.884567"><ele>74.9</ele><time>2011-04-28T09:56:24.0000000+00:00</time></trkpt><trkpt lat="21.819597" lon="104.88475"><ele>75.2</ele><time>2011-04-28T09:56:29.0000000+00:00</time></trkpt><trkpt lat="21.819548" lon="104.885017"><ele>75.1</ele><time>2011-04-28T09:56:34.0000000+00:00</time></trkpt><trkpt lat="21.819651" lon="104.885284"><ele>75.0</ele><time>2011-04-28T09:56:39.0000000+00:00</time></trkpt><trkpt lat="21.819754" lon="104.885674"><ele>75.3</ele><time>2011-04-28T09:56:44.0000000+00:00</time></trkpt><trkpt lat="21.819515" lon="104.885872"><ele>72.0</ele><time>2011-04-28T09:56:49.0000000+00:00</time></trkpt><trkpt lat="21.819265" lon="104.885796"><ele>72.9</ele><time>2011-04-28T09:56:54.0000000+00:00</time></trkpt><trkpt lat="21.818926" lon="104.885727"><ele>74.0</ele><time>2011-04-28T09:56:59.0000000+00:00</time></trkpt><trkpt lat="21.818655" lon="104.885956"><ele>72.4</ele><time>2011-04-28T09:57:04.0000000+00:00</time></trkpt><trkpt lat="21.818668" lon="104.886406"><ele>75.5</ele><time>2011-04-28T09:57:09.0000000+00:00</time></trkpt><trkpt lat="21.818727" lon="104.886864"><ele>76.5</ele><time>2011-04-28T09:57:14.0000000+00:00</time></trkpt><trkpt lat="21.818668" lon="104.887184"><ele>73.5</ele><time>2011-04-28T09:57:19.0000000+00:00</time></trkpt><trkpt lat="21.818521" lon="104.887405"><ele>72.8</ele><time>2011-04-28T09:57:24.0000000+00:00</time></trkpt><trkpt lat="21.81851" lon="104.887672"><ele>72.1</ele><time>2011-04-28T09:57:29.0000000+00:00</time></trkpt><trkpt lat="21.818613" lon="104.887947"><ele>70.4</ele><time>2011-04-28T09:57:34.0000000+00:00</time></trkpt><trkpt lat="21.818649" lon="104.888313"><ele>69.8</ele><time>2011-04-28T09:57:39.0000000+00:00</time></trkpt><trkpt lat="21.818399" lon="104.88858"><ele>69.6</ele><time>2011-04-28T09:57:44.0000000+00:00</time></trkpt><trkpt lat="21.818087" lon="104.888771"><ele>69.2</ele><time>2011-04-28T09:57:49.0000000+00:00</time></trkpt><trkpt lat="21.817661" lon="104.889015"><ele>68.1</ele><time>2011-04-28T09:57:54.0000000+00:00</time></trkpt><trkpt lat="21.817331" lon="104.889252"><ele>67.5</ele><time>2011-04-28T09:57:59.0000000+00:00</time></trkpt><trkpt lat="21.816963" lon="104.889503"><ele>66.6</ele><time>2011-04-28T09:58:04.0000000+00:00</time></trkpt><trkpt lat="21.816595" lon="104.88974"><ele>65.0</ele><time>2011-04-28T09:58:09.0000000+00:00</time></trkpt><trkpt lat="21.816284" lon="104.889961"><ele>63.8</ele><time>2011-04-28T09:58:14.0000000+00:00</time></trkpt><trkpt lat="21.816063" lon="104.890114"><ele>63.0</ele><time>2011-04-28T09:58:19.0000000+00:00</time></trkpt><trkpt lat="21.815815" lon="104.890282"><ele>61.8</ele><time>2011-04-28T09:58:24.0000000+00:00</time></trkpt><trkpt lat="21.815598" lon="104.890472"><ele>61.1</ele><time>2011-04-28T09:58:29.0000000+00:00</time></trkpt><trkpt lat="21.815403" lon="104.890671"><ele>60.4</ele><time>2011-04-28T09:58:34.0000000+00:00</time></trkpt><trkpt lat="21.81518" lon="104.890892"><ele>59.9</ele><time>2011-04-28T09:58:39.0000000+00:00</time></trkpt><trkpt lat="21.814999" lon="104.891121"><ele>59.4</ele><time>2011-04-28T09:58:44.0000000+00:00</time></trkpt><trkpt lat="21.814848" lon="104.891388"><ele>56.7</ele><time>2011-04-28T09:58:49.0000000+00:00</time></trkpt><trkpt lat="21.814665" lon="104.891624"><ele>55.1</ele><time>2011-04-28T09:58:54.0000000+00:00</time></trkpt><trkpt lat="21.814432" lon="104.891762"><ele>54.6</ele><time>2011-04-28T09:58:59.0000000+00:00</time></trkpt><trkpt lat="21.814194" lon="104.89183"><ele>53.9</ele><time>2011-04-28T09:59:04.0000000+00:00</time></trkpt><trkpt lat="21.813936" lon="104.891899"><ele>53.6</ele><time>2011-04-28T09:59:09.0000000+00:00</time></trkpt><trkpt lat="21.813726" lon="104.891983"><ele>53.9</ele><time>2011-04-28T09:59:14.0000000+00:00</time></trkpt><trkpt lat="21.813547" lon="104.892105"><ele>55.6</ele><time>2011-04-28T09:59:19.0000000+00:00</time></trkpt><trkpt lat="21.813393" lon="104.892273"><ele>56.0</ele><time>2011-04-28T09:59:24.0000000+00:00</time></trkpt><trkpt lat="21.813274" lon="104.892479"><ele>57.5</ele><time>2011-04-28T09:59:29.0000000+00:00</time></trkpt><trkpt lat="21.813183" lon="104.892685"><ele>58.6</ele><time>2011-04-28T09:59:34.0000000+00:00</time></trkpt><trkpt lat="21.813063" lon="104.892891"><ele>58.1</ele><time>2011-04-28T09:59:39.0000000+00:00</time></trkpt><trkpt lat="21.812939" lon="104.893105"><ele>58.1</ele><time>2011-04-28T09:59:44.0000000+00:00</time></trkpt><trkpt lat="21.812788" lon="104.893341"><ele>58.1</ele><time>2011-04-28T09:59:49.0000000+00:00</time></trkpt><trkpt lat="21.812576" lon="104.893593"><ele>58.4</ele><time>2011-04-28T09:59:54.0000000+00:00</time></trkpt><trkpt lat="21.812414" lon="104.893845"><ele>58.3</ele><time>2011-04-28T09:59:59.0000000+00:00</time></trkpt><trkpt lat="21.812243" lon="104.894119"><ele>58.7</ele><time>2011-04-28T10:00:04.0000000+00:00</time></trkpt><trkpt lat="21.812094" lon="104.894386"><ele>59.4</ele><time>2011-04-28T10:00:09.0000000+00:00</time></trkpt><trkpt lat="21.811934" lon="104.894646"><ele>60.0</ele><time>2011-04-28T10:00:14.0000000+00:00</time></trkpt><trkpt lat="21.811756" lon="104.894836"><ele>60.7</ele><time>2011-04-28T10:00:19.0000000+00:00</time></trkpt><trkpt lat="21.811466" lon="104.894913"><ele>60.7</ele><time>2011-04-28T10:00:24.0000000+00:00</time></trkpt><trkpt lat="21.811226" lon="104.894989"><ele>61.4</ele><time>2011-04-28T10:00:29.0000000+00:00</time></trkpt><trkpt lat="21.810982" lon="104.895172"><ele>62.2</ele><time>2011-04-28T10:00:34.0000000+00:00</time></trkpt><trkpt lat="21.810806" lon="104.895363"><ele>62.1</ele><time>2011-04-28T10:00:39.0000000+00:00</time></trkpt><trkpt lat="21.810593" lon="104.895531"><ele>61.6</ele><time>2011-04-28T10:00:44.0000000+00:00</time></trkpt><trkpt lat="21.810389" lon="104.89576"><ele>60.7</ele><time>2011-04-28T10:00:49.0000000+00:00</time></trkpt><trkpt lat="21.810169" lon="104.895981"><ele>61.0</ele><time>2011-04-28T10:00:54.0000000+00:00</time></trkpt><trkpt lat="21.809925" lon="104.896225"><ele>61.6</ele><time>2011-04-28T10:00:59.0000000+00:00</time></trkpt><trkpt lat="21.809752" lon="104.896431"><ele>61.7</ele><time>2011-04-28T10:01:04.0000000+00:00</time></trkpt><trkpt lat="21.809526" lon="104.896652"><ele>61.4</ele><time>2011-04-28T10:01:09.0000000+00:00</time></trkpt><trkpt lat="21.809307" lon="104.896866"><ele>60.5</ele><time>2011-04-28T10:01:14.0000000+00:00</time></trkpt><trkpt lat="21.809093" lon="104.897095"><ele>61.1</ele><time>2011-04-28T10:01:19.0000000+00:00</time></trkpt><trkpt lat="21.808842" lon="104.897278"><ele>61.8</ele><time>2011-04-28T10:01:24.0000000+00:00</time></trkpt><trkpt lat="21.808596" lon="104.897324"><ele>63.0</ele><time>2011-04-28T10:01:29.0000000+00:00</time></trkpt><trkpt lat="21.808359" lon="104.897293"><ele>63.9</ele><time>2011-04-28T10:01:34.0000000+00:00</time></trkpt><trkpt lat="21.808157" lon="104.8974"><ele>64.6</ele><time>2011-04-28T10:01:39.0000000+00:00</time></trkpt><trkpt lat="21.808073" lon="104.897621"><ele>63.7</ele><time>2011-04-28T10:01:44.0000000+00:00</time></trkpt><trkpt lat="21.807983" lon="104.897835"><ele>62.8</ele><time>2011-04-28T10:01:49.0000000+00:00</time></trkpt><trkpt lat="21.807873" lon="104.898018"><ele>63.2</ele><time>2011-04-28T10:01:54.0000000+00:00</time></trkpt><trkpt lat="21.807732" lon="104.898125"><ele>63.0</ele><time>2011-04-28T10:01:59.0000000+00:00</time></trkpt><trkpt lat="21.807562" lon="104.898216"><ele>63.5</ele><time>2011-04-28T10:02:04.0000000+00:00</time></trkpt><trkpt lat="21.807392" lon="104.898308"><ele>63.6</ele><time>2011-04-28T10:02:09.0000000+00:00</time></trkpt><trkpt lat="21.80719" lon="104.898392"><ele>63.6</ele><time>2011-04-28T10:02:14.0000000+00:00</time></trkpt><trkpt lat="21.807009" lon="104.898499"><ele>64.0</ele><time>2011-04-28T10:02:19.0000000+00:00</time></trkpt><trkpt lat="21.806841" lon="104.898567"><ele>64.4</ele><time>2011-04-28T10:02:24.0000000+00:00</time></trkpt><trkpt lat="21.806707" lon="104.898674"><ele>64.9</ele><time>2011-04-28T10:02:29.0000000+00:00</time></trkpt><trkpt lat="21.80661" lon="104.898857"><ele>66.7</ele><time>2011-04-28T10:02:34.0000000+00:00</time></trkpt><trkpt lat="21.806566" lon="104.898987"><ele>67.7</ele><time>2011-04-28T10:02:39.0000000+00:00</time></trkpt><trkpt lat="21.806562" lon="104.899124"><ele>67.6</ele><time>2011-04-28T10:02:44.0000000+00:00</time></trkpt><trkpt lat="21.806589" lon="104.899261"><ele>68.1</ele><time>2011-04-28T10:02:49.0000000+00:00</time></trkpt><trkpt lat="21.806629" lon="104.899399"><ele>69.9</ele><time>2011-04-28T10:02:54.0000000+00:00</time></trkpt><trkpt lat="21.806669" lon="104.899513"><ele>71.5</ele><time>2011-04-28T10:02:59.0000000+00:00</time></trkpt><trkpt lat="21.806677" lon="104.899628"><ele>72.2</ele><time>2011-04-28T10:03:04.0000000+00:00</time></trkpt><trkpt lat="21.806705" lon="104.899757"><ele>72.7</ele><time>2011-04-28T10:03:09.0000000+00:00</time></trkpt><trkpt lat="21.806707" lon="104.899857"><ele>72.7</ele><time>2011-04-28T10:03:14.0000000+00:00</time></trkpt><trkpt lat="21.806671" lon="104.899933"><ele>71.8</ele><time>2011-04-28T10:03:19.0000000+00:00</time></trkpt><trkpt lat="21.806599" lon="104.900009"><ele>72.2</ele><time>2011-04-28T10:03:24.0000000+00:00</time></trkpt><trkpt lat="21.806496" lon="104.900055"><ele>72.4</ele><time>2011-04-28T10:03:29.0000000+00:00</time></trkpt><trkpt lat="21.806385" lon="104.900085"><ele>73.3</ele><time>2011-04-28T10:03:34.0000000+00:00</time></trkpt><trkpt lat="21.806229" lon="104.900116"><ele>73.8</ele><time>2011-04-28T10:03:39.0000000+00:00</time></trkpt><trkpt lat="21.806023" lon="104.900154"><ele>72.5</ele><time>2011-04-28T10:03:44.0000000+00:00</time></trkpt><trkpt lat="21.805845" lon="104.900215"><ele>72.0</ele><time>2011-04-28T10:03:49.0000000+00:00</time></trkpt><trkpt lat="21.805759" lon="104.900398"><ele>72.2</ele><time>2011-04-28T10:03:54.0000000+00:00</time></trkpt><trkpt lat="21.805723" lon="104.900566"><ele>72.2</ele><time>2011-04-28T10:03:59.0000000+00:00</time></trkpt><trkpt lat="21.805664" lon="104.900726"><ele>71.7</ele><time>2011-04-28T10:04:04.0000000+00:00</time></trkpt><trkpt lat="21.805614" lon="104.900848"><ele>72.1</ele><time>2011-04-28T10:04:09.0000000+00:00</time></trkpt><trkpt lat="21.805544" lon="104.900955"><ele>71.8</ele><time>2011-04-28T10:04:14.0000000+00:00</time></trkpt><trkpt lat="21.805443" lon="104.901047"><ele>71.5</ele><time>2011-04-28T10:04:19.0000000+00:00</time></trkpt><trkpt lat="21.805355" lon="104.901108"><ele>71.3</ele><time>2011-04-28T10:04:24.0000000+00:00</time></trkpt><trkpt lat="21.805244" lon="104.901222"><ele>71.4</ele><time>2011-04-28T10:04:29.0000000+00:00</time></trkpt><trkpt lat="21.805201" lon="104.90136"><ele>71.2</ele><time>2011-04-28T10:04:34.0000000+00:00</time></trkpt><trkpt lat="21.805241" lon="104.901566"><ele>71.6</ele><time>2011-04-28T10:04:39.0000000+00:00</time></trkpt><trkpt lat="21.805244" lon="104.901726"><ele>71.4</ele><time>2011-04-28T10:04:44.0000000+00:00</time></trkpt><trkpt lat="21.805241" lon="104.901886"><ele>71.2</ele><time>2011-04-28T10:04:49.0000000+00:00</time></trkpt><trkpt lat="21.805201" lon="104.901993"><ele>71.6</ele><time>2011-04-28T10:04:54.0000000+00:00</time></trkpt><trkpt lat="21.805157" lon="104.902107"><ele>71.3</ele><time>2011-04-28T10:04:59.0000000+00:00</time></trkpt><trkpt lat="21.805178" lon="104.902199"><ele>78.4</ele><time>2011-04-28T10:05:04.0000000+00:00</time></trkpt><trkpt lat="21.80513" lon="104.90226"><ele>80.7</ele><time>2011-04-28T10:05:09.0000000+00:00</time></trkpt><trkpt lat="21.805126" lon="104.90226"><ele>80.7</ele><time>2011-04-28T10:05:14.0000000+00:00</time></trkpt><trkpt lat="21.805126" lon="104.90226"><ele>80.6</ele><time>2011-04-28T10:05:19.0000000+00:00</time></trkpt><trkpt lat="21.805126" lon="104.90226"><ele>80.6</ele><time>2011-04-28T10:05:24.0000000+00:00</time></trkpt><trkpt lat="21.805126" lon="104.90226"><ele>80.6</ele><time>2011-04-28T10:05:29.0000000+00:00</time></trkpt><trkpt lat="21.805126" lon="104.90226"><ele>80.7</ele><time>2011-04-28T10:05:34.0000000+00:00</time></trkpt><trkpt lat="21.805126" lon="104.90226"><ele>80.7</ele><time>2011-04-28T10:05:39.0000000+00:00</time></trkpt><trkpt lat="21.805126" lon="104.90226"><ele>80.7</ele><time>2011-04-28T10:05:44.0000000+00:00</time></trkpt><trkpt lat="21.805126" lon="104.90226"><ele>80.7</ele><time>2011-04-28T10:05:49.0000000+00:00</time></trkpt><trkpt lat="21.805126" lon="104.90226"><ele>80.7</ele><time>2011-04-28T10:05:54.0000000+00:00</time></trkpt><trkpt lat="21.805126" lon="104.90226"><ele>80.7</ele><time>2011-04-28T10:05:59.0000000+00:00</time></trkpt><trkpt lat="21.805122" lon="104.90226"><ele>80.7</ele><time>2011-04-28T10:06:04.0000000+00:00</time></trkpt><trkpt lat="21.805122" lon="104.90226"><ele>80.7</ele><time>2011-04-28T10:06:09.0000000+00:00</time></trkpt><trkpt lat="21.805124" lon="104.90226"><ele>80.7</ele><time>2011-04-28T10:06:14.0000000+00:00</time></trkpt><trkpt lat="21.805124" lon="104.90226"><ele>80.7</ele><time>2011-04-28T10:06:19.0000000+00:00</time></trkpt><trkpt lat="21.805124" lon="104.90226"><ele>80.7</ele><time>2011-04-28T10:06:24.0000000+00:00</time></trkpt><trkpt lat="21.805126" lon="104.90226"><ele>80.7</ele><time>2011-04-28T10:06:29.0000000+00:00</time></trkpt><trkpt lat="21.805126" lon="104.902267"><ele>80.7</ele><time>2011-04-28T10:06:34.0000000+00:00</time></trkpt><trkpt lat="21.805126" lon="104.90226"><ele>80.6</ele><time>2011-04-28T10:06:39.0000000+00:00</time></trkpt><trkpt lat="21.805128" lon="104.90226"><ele>80.6</ele><time>2011-04-28T10:06:44.0000000+00:00</time></trkpt><trkpt lat="21.805132" lon="104.90226"><ele>80.6</ele><time>2011-04-28T10:06:49.0000000+00:00</time></trkpt><trkpt lat="21.805134" lon="104.90226"><ele>80.6</ele><time>2011-04-28T10:06:54.0000000+00:00</time></trkpt><trkpt lat="21.805136" lon="104.90226"><ele>80.6</ele><time>2011-04-28T10:06:59.0000000+00:00</time></trkpt><trkpt lat="21.805136" lon="104.90226"><ele>80.5</ele><time>2011-04-28T10:07:04.0000000+00:00</time></trkpt><trkpt lat="21.805136" lon="104.90226"><ele>80.5</ele><time>2011-04-28T10:07:09.0000000+00:00</time></trkpt><trkpt lat="21.805099" lon="104.902252"><ele>80.3</ele><time>2011-04-28T10:07:14.0000000+00:00</time></trkpt><trkpt lat="21.804932" lon="104.902313"><ele>79.9</ele><time>2011-04-28T10:07:19.0000000+00:00</time></trkpt><trkpt lat="21.804718" lon="104.902435"><ele>80.0</ele><time>2011-04-28T10:07:24.0000000+00:00</time></trkpt><trkpt lat="21.804447" lon="104.902573"><ele>80.7</ele><time>2011-04-28T10:07:29.0000000+00:00</time></trkpt><trkpt lat="21.804226" lon="104.902809"><ele>81.6</ele><time>2011-04-28T10:07:34.0000000+00:00</time></trkpt><trkpt lat="21.804148" lon="104.903038"><ele>81.7</ele><time>2011-04-28T10:07:39.0000000+00:00</time></trkpt><trkpt lat="21.803968" lon="104.90345"><ele>82.6</ele><time>2011-04-28T10:07:44.0000000+00:00</time></trkpt><trkpt lat="21.803808" lon="104.903824"><ele>82.8</ele><time>2011-04-28T10:07:49.0000000+00:00</time></trkpt><trkpt lat="21.803562" lon="104.904114"><ele>82.4</ele><time>2011-04-28T10:07:54.0000000+00:00</time></trkpt><trkpt lat="21.803305" lon="104.904327"><ele>81.3</ele><time>2011-04-28T10:07:59.0000000+00:00</time></trkpt><trkpt lat="21.803043" lon="104.904472"><ele>81.3</ele><time>2011-04-28T10:08:04.0000000+00:00</time></trkpt><trkpt lat="21.802803" lon="104.904587"><ele>81.2</ele><time>2011-04-28T10:08:09.0000000+00:00</time></trkpt><trkpt lat="21.802607" lon="104.904709"><ele>80.4</ele><time>2011-04-28T10:08:14.0000000+00:00</time></trkpt><trkpt lat="21.802368" lon="104.904861"><ele>80.6</ele><time>2011-04-28T10:08:19.0000000+00:00</time></trkpt><trkpt lat="21.802158" lon="104.905136"><ele>78.2</ele><time>2011-04-28T10:08:24.0000000+00:00</time></trkpt><trkpt lat="21.801945" lon="104.905434"><ele>75.0</ele><time>2011-04-28T10:08:29.0000000+00:00</time></trkpt><trkpt lat="21.801743" lon="104.905716"><ele>74.8</ele><time>2011-04-28T10:08:34.0000000+00:00</time></trkpt><trkpt lat="21.801544" lon="104.90593"><ele>74.7</ele><time>2011-04-28T10:08:39.0000000+00:00</time></trkpt><trkpt lat="21.801342" lon="104.906075"><ele>75.4</ele><time>2011-04-28T10:08:44.0000000+00:00</time></trkpt><trkpt lat="21.801123" lon="104.906235"><ele>76.9</ele><time>2011-04-28T10:08:49.0000000+00:00</time></trkpt><trkpt lat="21.800953" lon="104.90638"><ele>77.6</ele><time>2011-04-28T10:08:54.0000000+00:00</time></trkpt><trkpt lat="21.800829" lon="104.906525"><ele>77.6</ele><time>2011-04-28T10:08:59.0000000+00:00</time></trkpt><trkpt lat="21.800709" lon="104.906654"><ele>78.2</ele><time>2011-04-28T10:09:04.0000000+00:00</time></trkpt><trkpt lat="21.800579" lon="104.906792"><ele>78.9</ele><time>2011-04-28T10:09:09.0000000+00:00</time></trkpt><trkpt lat="21.800457" lon="104.906952"><ele>78.9</ele><time>2011-04-28T10:09:14.0000000+00:00</time></trkpt><trkpt lat="21.800354" lon="104.907089"><ele>79.5</ele><time>2011-04-28T10:09:19.0000000+00:00</time></trkpt><trkpt lat="21.800249" lon="104.907211"><ele>80.1</ele><time>2011-04-28T10:09:24.0000000+00:00</time></trkpt><trkpt lat="21.800154" lon="104.907326"><ele>81.6</ele><time>2011-04-28T10:09:29.0000000+00:00</time></trkpt><trkpt lat="21.800062" lon="104.907471"><ele>83.4</ele><time>2011-04-28T10:09:34.0000000+00:00</time></trkpt><trkpt lat="21.800003" lon="104.907616"><ele>83.4</ele><time>2011-04-28T10:09:39.0000000+00:00</time></trkpt><trkpt lat="21.799894" lon="104.907745"><ele>84.9</ele><time>2011-04-28T10:09:44.0000000+00:00</time></trkpt><trkpt lat="21.799814" lon="104.90789"><ele>85.9</ele><time>2011-04-28T10:09:49.0000000+00:00</time></trkpt><trkpt lat="21.799734" lon="104.908012"><ele>86.8</ele><time>2011-04-28T10:09:54.0000000+00:00</time></trkpt><trkpt lat="21.799641" lon="104.908096"><ele>88.2</ele><time>2011-04-28T10:09:59.0000000+00:00</time></trkpt><trkpt lat="21.799543" lon="104.908234"><ele>87.3</ele><time>2011-04-28T10:10:04.0000000+00:00</time></trkpt><trkpt lat="21.799442" lon="104.908455"><ele>83.5</ele><time>2011-04-28T10:10:09.0000000+00:00</time></trkpt><trkpt lat="21.799389" lon="104.908615"><ele>81.6</ele><time>2011-04-28T10:10:14.0000000+00:00</time></trkpt><trkpt lat="21.799345" lon="104.908775"><ele>80.7</ele><time>2011-04-28T10:10:19.0000000+00:00</time></trkpt><trkpt lat="21.799299" lon="104.90892"><ele>77.3</ele><time>2011-04-28T10:10:24.0000000+00:00</time></trkpt><trkpt lat="21.799263" lon="104.909081"><ele>76.2</ele><time>2011-04-28T10:10:29.0000000+00:00</time></trkpt><trkpt lat="21.799202" lon="104.909203"><ele>74.7</ele><time>2011-04-28T10:10:34.0000000+00:00</time></trkpt><trkpt lat="21.799147" lon="104.909309"><ele>75.0</ele><time>2011-04-28T10:10:39.0000000+00:00</time></trkpt><trkpt lat="21.799103" lon="104.909409"><ele>73.5</ele><time>2011-04-28T10:10:44.0000000+00:00</time></trkpt><trkpt lat="21.79903" lon="104.909515"><ele>74.2</ele><time>2011-04-28T10:10:49.0000000+00:00</time></trkpt><trkpt lat="21.798977" lon="104.909607"><ele>74.7</ele><time>2011-04-28T10:10:54.0000000+00:00</time></trkpt><trkpt lat="21.798937" lon="104.909706"><ele>74.4</ele><time>2011-04-28T10:10:59.0000000+00:00</time></trkpt><trkpt lat="21.798895" lon="104.909828"><ele>73.3</ele><time>2011-04-28T10:11:04.0000000+00:00</time></trkpt><trkpt lat="21.79883" lon="104.909958"><ele>73.0</ele><time>2011-04-28T10:11:09.0000000+00:00</time></trkpt><trkpt lat="21.798773" lon="104.91008"><ele>71.4</ele><time>2011-04-28T10:11:14.0000000+00:00</time></trkpt><trkpt lat="21.798723" lon="104.91021"><ele>69.9</ele><time>2011-04-28T10:11:19.0000000+00:00</time></trkpt><trkpt lat="21.7987" lon="104.910309"><ele>69.8</ele><time>2011-04-28T10:11:24.0000000+00:00</time></trkpt><trkpt lat="21.798708" lon="104.910378"><ele>70.0</ele><time>2011-04-28T10:11:29.0000000+00:00</time></trkpt><trkpt lat="21.798746" lon="104.910461"><ele>70.9</ele><time>2011-04-28T10:11:34.0000000+00:00</time></trkpt><trkpt lat="21.798807" lon="104.910561"><ele>73.8</ele><time>2011-04-28T10:11:39.0000000+00:00</time></trkpt><trkpt lat="21.798817" lon="104.910637"><ele>74.5</ele><time>2011-04-28T10:11:44.0000000+00:00</time></trkpt><trkpt lat="21.798845" lon="104.910721"><ele>78.0</ele><time>2011-04-28T10:11:49.0000000+00:00</time></trkpt><trkpt lat="21.798864" lon="104.910797"><ele>79.7</ele><time>2011-04-28T10:11:54.0000000+00:00</time></trkpt><trkpt lat="21.798885" lon="104.910873"><ele>81.0</ele><time>2011-04-28T10:11:59.0000000+00:00</time></trkpt><trkpt lat="21.79891" lon="104.910919"><ele>84.4</ele><time>2011-04-28T10:12:04.0000000+00:00</time></trkpt><trkpt lat="21.798944" lon="104.910995"><ele>86.8</ele><time>2011-04-28T10:12:09.0000000+00:00</time></trkpt><trkpt lat="21.798967" lon="104.911064"><ele>87.2</ele><time>2011-04-28T10:12:14.0000000+00:00</time></trkpt><trkpt lat="21.798983" lon="104.911125"><ele>87.8</ele><time>2011-04-28T10:12:19.0000000+00:00</time></trkpt><trkpt lat="21.798988" lon="104.911186"><ele>88.1</ele><time>2011-04-28T10:12:24.0000000+00:00</time></trkpt><trkpt lat="21.798981" lon="104.911247"><ele>88.7</ele><time>2011-04-28T10:12:29.0000000+00:00</time></trkpt><trkpt lat="21.798941" lon="104.911316"><ele>89.4</ele><time>2011-04-28T10:12:34.0000000+00:00</time></trkpt><trkpt lat="21.798901" lon="104.911377"><ele>89.4</ele><time>2011-04-28T10:12:39.0000000+00:00</time></trkpt><trkpt lat="21.79887" lon="104.91143"><ele>89.1</ele><time>2011-04-28T10:12:44.0000000+00:00</time></trkpt><trkpt lat="21.79883" lon="104.911461"><ele>89.6</ele><time>2011-04-28T10:12:49.0000000+00:00</time></trkpt><trkpt lat="21.798773" lon="104.911499"><ele>90.1</ele><time>2011-04-28T10:12:54.0000000+00:00</time></trkpt><trkpt lat="21.798704" lon="104.91153"><ele>90.8</ele><time>2011-04-28T10:12:59.0000000+00:00</time></trkpt><trkpt lat="21.798643" lon="104.911568"><ele>91.0</ele><time>2011-04-28T10:13:04.0000000+00:00</time></trkpt><trkpt lat="21.798582" lon="104.911598"><ele>91.5</ele><time>2011-04-28T10:13:09.0000000+00:00</time></trkpt><trkpt lat="21.798544" lon="104.911674"><ele>92.7</ele><time>2011-04-28T10:13:14.0000000+00:00</time></trkpt><trkpt lat="21.798494" lon="104.911766"><ele>95.2</ele><time>2011-04-28T10:13:19.0000000+00:00</time></trkpt><trkpt lat="21.798473" lon="104.911827"><ele>96.6</ele><time>2011-04-28T10:13:24.0000000+00:00</time></trkpt><trkpt lat="21.798449" lon="104.911919"><ele>98.1</ele><time>2011-04-28T10:13:29.0000000+00:00</time></trkpt><trkpt lat="21.798439" lon="104.911995"><ele>99.4</ele><time>2011-04-28T10:13:34.0000000+00:00</time></trkpt><trkpt lat="21.798426" lon="104.912079"><ele>100.8</ele><time>2011-04-28T10:13:39.0000000+00:00</time></trkpt><trkpt lat="21.798409" lon="104.912163"><ele>101.9</ele><time>2011-04-28T10:13:44.0000000+00:00</time></trkpt><trkpt lat="21.798388" lon="104.912231"><ele>103.1</ele><time>2011-04-28T10:13:49.0000000+00:00</time></trkpt><trkpt lat="21.798355" lon="104.912292"><ele>103.8</ele><time>2011-04-28T10:13:54.0000000+00:00</time></trkpt><trkpt lat="21.798342" lon="104.912338"><ele>104.7</ele><time>2011-04-28T10:13:59.0000000+00:00</time></trkpt><trkpt lat="21.7983" lon="104.912361"><ele>106.0</ele><time>2011-04-28T10:14:04.0000000+00:00</time></trkpt><trkpt lat="21.798237" lon="104.912369"><ele>107.5</ele><time>2011-04-28T10:14:09.0000000+00:00</time></trkpt><trkpt lat="21.79814" lon="104.912422"><ele>109.2</ele><time>2011-04-28T10:14:14.0000000+00:00</time></trkpt><trkpt lat="21.798054" lon="104.912468"><ele>111.5</ele><time>2011-04-28T10:14:19.0000000+00:00</time></trkpt><trkpt lat="21.797979" lon="104.912506"><ele>113.7</ele><time>2011-04-28T10:14:24.0000000+00:00</time></trkpt><trkpt lat="21.797911" lon="104.912529"><ele>115.1</ele><time>2011-04-28T10:14:29.0000000+00:00</time></trkpt><trkpt lat="21.797846" lon="104.912613"><ele>115.9</ele><time>2011-04-28T10:14:34.0000000+00:00</time></trkpt><trkpt lat="21.797766" lon="104.912666"><ele>116.9</ele><time>2011-04-28T10:14:39.0000000+00:00</time></trkpt><trkpt lat="21.797689" lon="104.91272"><ele>117.4</ele><time>2011-04-28T10:14:44.0000000+00:00</time></trkpt><trkpt lat="21.797617" lon="104.912781"><ele>117.2</ele><time>2011-04-28T10:14:49.0000000+00:00</time></trkpt><trkpt lat="21.797533" lon="104.912811"><ele>117.9</ele><time>2011-04-28T10:14:54.0000000+00:00</time></trkpt><trkpt lat="21.797445" lon="104.912849"><ele>118.8</ele><time>2011-04-28T10:14:59.0000000+00:00</time></trkpt><trkpt lat="21.797319" lon="104.912865"><ele>118.1</ele><time>2011-04-28T10:15:04.0000000+00:00</time></trkpt><trkpt lat="21.797235" lon="104.91291"><ele>118.6</ele><time>2011-04-28T10:15:09.0000000+00:00</time></trkpt><trkpt lat="21.797152" lon="104.912941"><ele>118.9</ele><time>2011-04-28T10:15:14.0000000+00:00</time></trkpt><trkpt lat="21.797058" lon="104.912987"><ele>119.3</ele><time>2011-04-28T10:15:19.0000000+00:00</time></trkpt><trkpt lat="21.796942" lon="104.91304"><ele>118.9</ele><time>2011-04-28T10:15:24.0000000+00:00</time></trkpt><trkpt lat="21.796843" lon="104.913086"><ele>118.4</ele><time>2011-04-28T10:15:29.0000000+00:00</time></trkpt><trkpt lat="21.796761" lon="104.913124"><ele>119.0</ele><time>2011-04-28T10:15:34.0000000+00:00</time></trkpt><trkpt lat="21.796669" lon="104.913139"><ele>119.5</ele><time>2011-04-28T10:15:39.0000000+00:00</time></trkpt><trkpt lat="21.796598" lon="104.913155"><ele>120.8</ele><time>2011-04-28T10:15:44.0000000+00:00</time></trkpt><trkpt lat="21.796535" lon="104.913231"><ele>121.9</ele><time>2011-04-28T10:15:49.0000000+00:00</time></trkpt><trkpt lat="21.796465" lon="104.913322"><ele>123.5</ele><time>2011-04-28T10:15:54.0000000+00:00</time></trkpt><trkpt lat="21.796392" lon="104.913361"><ele>123.9</ele><time>2011-04-28T10:15:59.0000000+00:00</time></trkpt><trkpt lat="21.796299" lon="104.913368"><ele>124.4</ele><time>2011-04-28T10:16:04.0000000+00:00</time></trkpt><trkpt lat="21.796211" lon="104.913399"><ele>125.1</ele><time>2011-04-28T10:16:09.0000000+00:00</time></trkpt><trkpt lat="21.796059" lon="104.913399"><ele>123.9</ele><time>2011-04-28T10:16:14.0000000+00:00</time></trkpt><trkpt lat="21.795973" lon="104.913437"><ele>123.8</ele><time>2011-04-28T10:16:19.0000000+00:00</time></trkpt><trkpt lat="21.795872" lon="104.913475"><ele>124.0</ele><time>2011-04-28T10:16:24.0000000+00:00</time></trkpt><trkpt lat="21.795767" lon="104.913536"><ele>123.1</ele><time>2011-04-28T10:16:29.0000000+00:00</time></trkpt><trkpt lat="21.795692" lon="104.913597"><ele>121.8</ele><time>2011-04-28T10:16:34.0000000+00:00</time></trkpt><trkpt lat="21.795616" lon="104.913696"><ele>119.1</ele><time>2011-04-28T10:16:39.0000000+00:00</time></trkpt><trkpt lat="21.79554" lon="104.913818"><ele>118.1</ele><time>2011-04-28T10:16:44.0000000+00:00</time></trkpt><trkpt lat="21.795481" lon="104.913933"><ele>115.6</ele><time>2011-04-28T10:16:49.0000000+00:00</time></trkpt><trkpt lat="21.795404" lon="104.914085"><ele>116.4</ele><time>2011-04-28T10:16:54.0000000+00:00</time></trkpt><trkpt lat="21.795345" lon="104.914192"><ele>116.6</ele><time>2011-04-28T10:16:59.0000000+00:00</time></trkpt><trkpt lat="21.795271" lon="104.914307"><ele>119.5</ele><time>2011-04-28T10:17:04.0000000+00:00</time></trkpt><trkpt lat="21.795221" lon="104.914421"><ele>122.6</ele><time>2011-04-28T10:17:09.0000000+00:00</time></trkpt><trkpt lat="21.7952" lon="104.914536"><ele>124.7</ele><time>2011-04-28T10:17:14.0000000+00:00</time></trkpt><trkpt lat="21.795149" lon="104.914627"><ele>124.0</ele><time>2011-04-28T10:17:19.0000000+00:00</time></trkpt><trkpt lat="21.79513" lon="104.914627"><ele>123.2</ele><time>2011-04-28T10:17:24.0000000+00:00</time></trkpt><trkpt lat="21.795128" lon="104.914635"><ele>122.5</ele><time>2011-04-28T10:17:29.0000000+00:00</time></trkpt><trkpt lat="21.795137" lon="104.914635"><ele>121.9</ele><time>2011-04-28T10:17:34.0000000+00:00</time></trkpt><trkpt lat="21.795143" lon="104.914642"><ele>121.9</ele><time>2011-04-28T10:17:39.0000000+00:00</time></trkpt><trkpt lat="21.795147" lon="104.914642"><ele>121.8</ele><time>2011-04-28T10:17:44.0000000+00:00</time></trkpt><trkpt lat="21.795147" lon="104.914642"><ele>121.8</ele><time>2011-04-28T10:17:49.0000000+00:00</time></trkpt><trkpt lat="21.795147" lon="104.914642"><ele>121.8</ele><time>2011-04-28T10:17:54.0000000+00:00</time></trkpt><trkpt lat="21.795147" lon="104.91465"><ele>121.8</ele><time>2011-04-28T10:17:59.0000000+00:00</time></trkpt><trkpt lat="21.795147" lon="104.91465"><ele>121.9</ele><time>2011-04-28T10:18:04.0000000+00:00</time></trkpt><trkpt lat="21.795141" lon="104.914658"><ele>121.9</ele><time>2011-04-28T10:18:09.0000000+00:00</time></trkpt><trkpt lat="21.795141" lon="104.914658"><ele>121.9</ele><time>2011-04-28T10:18:14.0000000+00:00</time></trkpt><trkpt lat="21.795139" lon="104.914665"><ele>121.9</ele><time>2011-04-28T10:18:19.0000000+00:00</time></trkpt><trkpt lat="21.795147" lon="104.914642"><ele>122.7</ele><time>2011-04-28T10:18:24.0000000+00:00</time></trkpt><trkpt lat="21.795151" lon="104.914642"><ele>122.7</ele><time>2011-04-28T10:18:29.0000000+00:00</time></trkpt><trkpt lat="21.795156" lon="104.914627"><ele>122.7</ele><time>2011-04-28T10:18:34.0000000+00:00</time></trkpt><trkpt lat="21.795158" lon="104.914627"><ele>122.7</ele><time>2011-04-28T10:18:39.0000000+00:00</time></trkpt><trkpt lat="21.795158" lon="104.914619"><ele>122.8</ele><time>2011-04-28T10:18:44.0000000+00:00</time></trkpt><trkpt lat="21.795158" lon="104.914619"><ele>122.8</ele><time>2011-04-28T10:18:49.0000000+00:00</time></trkpt><trkpt lat="21.795158" lon="104.914619"><ele>122.8</ele><time>2011-04-28T10:18:54.0000000+00:00</time></trkpt><trkpt lat="21.795158" lon="104.914619"><ele>122.9</ele><time>2011-04-28T10:18:59.0000000+00:00</time></trkpt><trkpt lat="21.795158" lon="104.914619"><ele>122.9</ele><time>2011-04-28T10:19:04.0000000+00:00</time></trkpt><trkpt lat="21.795158" lon="104.914619"><ele>122.9</ele><time>2011-04-28T10:19:09.0000000+00:00</time></trkpt><trkpt lat="21.79516" lon="104.914619"><ele>123.3</ele><time>2011-04-28T10:19:14.0000000+00:00</time></trkpt><trkpt lat="21.79516" lon="104.914604"><ele>124.8</ele><time>2011-04-28T10:19:19.0000000+00:00</time></trkpt><trkpt lat="21.795162" lon="104.914597"><ele>126.3</ele><time>2011-04-28T10:19:24.0000000+00:00</time></trkpt><trkpt lat="21.79516" lon="104.914589"><ele>127.5</ele><time>2011-04-28T10:19:29.0000000+00:00</time></trkpt><trkpt lat="21.795158" lon="104.914597"><ele>128.4</ele><time>2011-04-28T10:19:34.0000000+00:00</time></trkpt><trkpt lat="21.795158" lon="104.914604"><ele>128.9</ele><time>2011-04-28T10:19:39.0000000+00:00</time></trkpt><trkpt lat="21.795162" lon="104.914604"><ele>129.0</ele><time>2011-04-28T10:19:44.0000000+00:00</time></trkpt><trkpt lat="21.795164" lon="104.914612"><ele>129.3</ele><time>2011-04-28T10:19:49.0000000+00:00</time></trkpt><trkpt lat="21.795166" lon="104.914619"><ele>129.5</ele><time>2011-04-28T10:19:54.0000000+00:00</time></trkpt><trkpt lat="21.795166" lon="104.914612"><ele>129.9</ele><time>2011-04-28T10:19:59.0000000+00:00</time></trkpt><trkpt lat="21.795164" lon="104.914612"><ele>129.9</ele><time>2011-04-28T10:20:04.0000000+00:00</time></trkpt><trkpt lat="21.795164" lon="104.914612"><ele>129.9</ele><time>2011-04-28T10:20:09.0000000+00:00</time></trkpt><trkpt lat="21.795164" lon="104.914612"><ele>129.9</ele><time>2011-04-28T10:20:14.0000000+00:00</time></trkpt><trkpt lat="21.795164" lon="104.914612"><ele>129.9</ele><time>2011-04-28T10:20:19.0000000+00:00</time></trkpt><trkpt lat="21.795164" lon="104.914612"><ele>129.9</ele><time>2011-04-28T10:20:24.0000000+00:00</time></trkpt><trkpt lat="21.795164" lon="104.914612"><ele>129.9</ele><time>2011-04-28T10:20:29.0000000+00:00</time></trkpt><trkpt lat="21.795164" lon="104.914612"><ele>129.9</ele><time>2011-04-28T10:20:34.0000000+00:00</time></trkpt><trkpt lat="21.795164" lon="104.914612"><ele>129.9</ele><time>2011-04-28T10:20:39.0000000+00:00</time></trkpt><trkpt lat="21.795164" lon="104.914612"><ele>130.0</ele><time>2011-04-28T10:20:44.0000000+00:00</time></trkpt><trkpt lat="21.795164" lon="104.914612"><ele>130.0</ele><time>2011-04-28T10:20:49.0000000+00:00</time></trkpt><trkpt lat="21.795164" lon="104.914612"><ele>130.0</ele><time>2011-04-28T10:20:54.0000000+00:00</time></trkpt><trkpt lat="21.795164" lon="104.914612"><ele>130.0</ele><time>2011-04-28T10:20:59.0000000+00:00</time></trkpt><trkpt lat="21.795166" lon="104.914612"><ele>130.0</ele><time>2011-04-28T10:21:04.0000000+00:00</time></trkpt><trkpt lat="21.795166" lon="104.914612"><ele>130.0</ele><time>2011-04-28T10:21:09.0000000+00:00</time></trkpt><trkpt lat="21.795166" lon="104.914612"><ele>130.0</ele><time>2011-04-28T10:21:14.0000000+00:00</time></trkpt><trkpt lat="21.795166" lon="104.914612"><ele>130.0</ele><time>2011-04-28T10:21:19.0000000+00:00</time></trkpt><trkpt lat="21.795166" lon="104.914612"><ele>130.0</ele><time>2011-04-28T10:21:24.0000000+00:00</time></trkpt><trkpt lat="21.795166" lon="104.914612"><ele>129.9</ele><time>2011-04-28T10:21:29.0000000+00:00</time></trkpt><trkpt lat="21.795166" lon="104.914612"><ele>129.9</ele><time>2011-04-28T10:21:34.0000000+00:00</time></trkpt><trkpt lat="21.795166" lon="104.914612"><ele>129.9</ele><time>2011-04-28T10:21:39.0000000+00:00</time></trkpt><trkpt lat="21.795166" lon="104.914612"><ele>129.9</ele><time>2011-04-28T10:21:44.0000000+00:00</time></trkpt><trkpt lat="21.795166" lon="104.914612"><ele>129.8</ele><time>2011-04-28T10:21:49.0000000+00:00</time></trkpt><trkpt lat="21.795166" lon="104.914612"><ele>129.8</ele><time>2011-04-28T10:21:54.0000000+00:00</time></trkpt><trkpt lat="21.795166" lon="104.914612"><ele>129.8</ele><time>2011-04-28T10:21:59.0000000+00:00</time></trkpt><trkpt lat="21.795166" lon="104.914612"><ele>129.8</ele><time>2011-04-28T10:22:04.0000000+00:00</time></trkpt><trkpt lat="21.795166" lon="104.914612"><ele>129.8</ele><time>2011-04-28T10:22:09.0000000+00:00</time></trkpt><trkpt lat="21.795166" lon="104.914619"><ele>129.8</ele><time>2011-04-28T10:22:14.0000000+00:00</time></trkpt><trkpt lat="21.795166" lon="104.914619"><ele>129.7</ele><time>2011-04-28T10:22:19.0000000+00:00</time></trkpt><trkpt lat="21.795168" lon="104.914612"><ele>129.7</ele><time>2011-04-28T10:22:24.0000000+00:00</time></trkpt><trkpt lat="21.795168" lon="104.914612"><ele>129.8</ele><time>2011-04-28T10:22:29.0000000+00:00</time></trkpt><trkpt lat="21.795168" lon="104.914612"><ele>129.8</ele><time>2011-04-28T10:22:34.0000000+00:00</time></trkpt><trkpt lat="21.795168" lon="104.914612"><ele>129.8</ele><time>2011-04-28T10:22:39.0000000+00:00</time></trkpt><trkpt lat="21.795168" lon="104.914612"><ele>129.8</ele><time>2011-04-28T10:22:44.0000000+00:00</time></trkpt><trkpt lat="21.795168" lon="104.914612"><ele>129.8</ele><time>2011-04-28T10:22:49.0000000+00:00</time></trkpt><trkpt lat="21.795168" lon="104.914612"><ele>129.8</ele><time>2011-04-28T10:22:54.0000000+00:00</time></trkpt><trkpt lat="21.795168" lon="104.914612"><ele>129.9</ele><time>2011-04-28T10:22:59.0000000+00:00</time></trkpt><trkpt lat="21.795168" lon="104.914612"><ele>129.9</ele><time>2011-04-28T10:23:04.0000000+00:00</time></trkpt><trkpt lat="21.795168" lon="104.914619"><ele>129.9</ele><time>2011-04-28T10:23:09.0000000+00:00</time></trkpt><trkpt lat="21.795168" lon="104.914619"><ele>129.9</ele><time>2011-04-28T10:23:14.0000000+00:00</time></trkpt><trkpt lat="21.795168" lon="104.914619"><ele>129.9</ele><time>2011-04-28T10:23:19.0000000+00:00</time></trkpt><trkpt lat="21.795168" lon="104.914619"><ele>129.9</ele><time>2011-04-28T10:23:24.0000000+00:00</time></trkpt><trkpt lat="21.795168" lon="104.914619"><ele>129.9</ele><time>2011-04-28T10:23:29.0000000+00:00</time></trkpt><trkpt lat="21.795168" lon="104.914619"><ele>129.9</ele><time>2011-04-28T10:23:34.0000000+00:00</time></trkpt><trkpt lat="21.795168" lon="104.914619"><ele>129.9</ele><time>2011-04-28T10:23:39.0000000+00:00</time></trkpt><trkpt lat="21.795168" lon="104.914619"><ele>130.0</ele><time>2011-04-28T10:23:44.0000000+00:00</time></trkpt><trkpt lat="21.795168" lon="104.914619"><ele>130.0</ele><time>2011-04-28T10:23:49.0000000+00:00</time></trkpt><trkpt lat="21.795168" lon="104.914619"><ele>130.0</ele><time>2011-04-28T10:23:54.0000000+00:00</time></trkpt><trkpt lat="21.795168" lon="104.914619"><ele>130.0</ele><time>2011-04-28T10:23:59.0000000+00:00</time></trkpt><trkpt lat="21.795168" lon="104.914619"><ele>130.0</ele><time>2011-04-28T10:24:04.0000000+00:00</time></trkpt><trkpt lat="21.795168" lon="104.914619"><ele>130.0</ele><time>2011-04-28T10:24:09.0000000+00:00</time></trkpt><trkpt lat="21.795168" lon="104.914619"><ele>130.0</ele><time>2011-04-28T10:24:14.0000000+00:00</time></trkpt><trkpt lat="21.795168" lon="104.914619"><ele>130.0</ele><time>2011-04-28T10:24:19.0000000+00:00</time></trkpt><trkpt lat="21.795168" lon="104.914619"><ele>130.0</ele><time>2011-04-28T10:24:24.0000000+00:00</time></trkpt><trkpt lat="21.795168" lon="104.914619"><ele>130.0</ele><time>2011-04-28T10:24:29.0000000+00:00</time></trkpt><trkpt lat="21.79517" lon="104.914619"><ele>130.0</ele><time>2011-04-28T10:24:34.0000000+00:00</time></trkpt><trkpt lat="21.79517" lon="104.914619"><ele>130.0</ele><time>2011-04-28T10:24:39.0000000+00:00</time></trkpt><trkpt lat="21.79517" lon="104.914619"><ele>130.0</ele><time>2011-04-28T10:24:44.0000000+00:00</time></trkpt><trkpt lat="21.79517" lon="104.914619"><ele>129.9</ele><time>2011-04-28T10:24:49.0000000+00:00</time></trkpt><trkpt lat="21.79517" lon="104.914619"><ele>129.9</ele><time>2011-04-28T10:24:54.0000000+00:00</time></trkpt><trkpt lat="21.79517" lon="104.914619"><ele>129.9</ele><time>2011-04-28T10:24:59.0000000+00:00</time></trkpt><trkpt lat="21.795168" lon="104.914619"><ele>129.9</ele><time>2011-04-28T10:25:04.0000000+00:00</time></trkpt><trkpt lat="21.795168" lon="104.914619"><ele>129.9</ele><time>2011-04-28T10:25:09.0000000+00:00</time></trkpt><trkpt lat="21.795168" lon="104.914619"><ele>129.8</ele><time>2011-04-28T10:25:14.0000000+00:00</time></trkpt><trkpt lat="21.795168" lon="104.914619"><ele>129.8</ele><time>2011-04-28T10:25:19.0000000+00:00</time></trkpt><trkpt lat="21.795168" lon="104.914619"><ele>129.8</ele><time>2011-04-28T10:25:24.0000000+00:00</time></trkpt><trkpt lat="21.795168" lon="104.914619"><ele>129.8</ele><time>2011-04-28T10:25:29.0000000+00:00</time></trkpt><trkpt lat="21.795168" lon="104.914619"><ele>129.7</ele><time>2011-04-28T10:25:34.0000000+00:00</time></trkpt><trkpt lat="21.795168" lon="104.914619"><ele>129.7</ele><time>2011-04-28T10:25:39.0000000+00:00</time></trkpt><trkpt lat="21.795168" lon="104.914619"><ele>129.7</ele><time>2011-04-28T10:25:44.0000000+00:00</time></trkpt><trkpt lat="21.795168" lon="104.914627"><ele>129.7</ele><time>2011-04-28T10:25:49.0000000+00:00</time></trkpt><trkpt lat="21.795168" lon="104.914627"><ele>129.7</ele><time>2011-04-28T10:25:54.0000000+00:00</time></trkpt><trkpt lat="21.795168" lon="104.914627"><ele>129.6</ele><time>2011-04-28T10:25:59.0000000+00:00</time></trkpt><trkpt lat="21.795168" lon="104.914627"><ele>129.6</ele><time>2011-04-28T10:26:04.0000000+00:00</time></trkpt><trkpt lat="21.795168" lon="104.914627"><ele>129.6</ele><time>2011-04-28T10:26:09.0000000+00:00</time></trkpt><trkpt lat="21.795168" lon="104.914627"><ele>129.6</ele><time>2011-04-28T10:26:14.0000000+00:00</time></trkpt><trkpt lat="21.795168" lon="104.914619"><ele>129.6</ele><time>2011-04-28T10:26:19.0000000+00:00</time></trkpt><trkpt lat="21.795168" lon="104.914627"><ele>129.6</ele><time>2011-04-28T10:26:24.0000000+00:00</time></trkpt><trkpt lat="21.795168" lon="104.914627"><ele>129.5</ele><time>2011-04-28T10:26:29.0000000+00:00</time></trkpt><trkpt lat="21.795168" lon="104.914627"><ele>129.6</ele><time>2011-04-28T10:26:34.0000000+00:00</time></trkpt><trkpt lat="21.795168" lon="104.914627"><ele>129.6</ele><time>2011-04-28T10:26:39.0000000+00:00</time></trkpt><trkpt lat="21.795168" lon="104.914627"><ele>129.6</ele><time>2011-04-28T10:26:44.0000000+00:00</time></trkpt><trkpt lat="21.795168" lon="104.914627"><ele>129.5</ele><time>2011-04-28T10:26:49.0000000+00:00</time></trkpt><trkpt lat="21.795168" lon="104.914627"><ele>129.5</ele><time>2011-04-28T10:26:54.0000000+00:00</time></trkpt><trkpt lat="21.795168" lon="104.914627"><ele>129.5</ele><time>2011-04-28T10:26:59.0000000+00:00</time></trkpt><trkpt lat="21.795168" lon="104.914627"><ele>129.5</ele><time>2011-04-28T10:27:04.0000000+00:00</time></trkpt><trkpt lat="21.795168" lon="104.914627"><ele>129.5</ele><time>2011-04-28T10:27:09.0000000+00:00</time></trkpt><trkpt lat="21.795168" lon="104.914627"><ele>129.5</ele><time>2011-04-28T10:27:14.0000000+00:00</time></trkpt><trkpt lat="21.795168" lon="104.914627"><ele>129.5</ele><time>2011-04-28T10:27:19.0000000+00:00</time></trkpt><trkpt lat="21.795168" lon="104.914627"><ele>129.5</ele><time>2011-04-28T10:27:24.0000000+00:00</time></trkpt><trkpt lat="21.795168" lon="104.914627"><ele>129.5</ele><time>2011-04-28T10:27:29.0000000+00:00</time></trkpt><trkpt lat="21.79517" lon="104.914627"><ele>129.5</ele><time>2011-04-28T10:27:34.0000000+00:00</time></trkpt><trkpt lat="21.79517" lon="104.914627"><ele>129.5</ele><time>2011-04-28T10:27:39.0000000+00:00</time></trkpt><trkpt lat="21.79517" lon="104.914627"><ele>129.5</ele><time>2011-04-28T10:27:44.0000000+00:00</time></trkpt><trkpt lat="21.79517" lon="104.914627"><ele>129.5</ele><time>2011-04-28T10:27:49.0000000+00:00</time></trkpt><trkpt lat="21.79517" lon="104.914627"><ele>129.4</ele><time>2011-04-28T10:27:54.0000000+00:00</time></trkpt><trkpt lat="21.795168" lon="104.914627"><ele>129.4</ele><time>2011-04-28T10:27:59.0000000+00:00</time></trkpt><trkpt lat="21.795168" lon="104.914627"><ele>129.4</ele><time>2011-04-28T10:28:04.0000000+00:00</time></trkpt><trkpt lat="21.795168" lon="104.914627"><ele>129.3</ele><time>2011-04-28T10:28:09.0000000+00:00</time></trkpt><trkpt lat="21.795168" lon="104.914627"><ele>129.3</ele><time>2011-04-28T10:28:14.0000000+00:00</time></trkpt><trkpt lat="21.795168" lon="104.914627"><ele>129.3</ele><time>2011-04-28T10:28:19.0000000+00:00</time></trkpt><trkpt lat="21.795168" lon="104.914627"><ele>129.3</ele><time>2011-04-28T10:28:24.0000000+00:00</time></trkpt><trkpt lat="21.795168" lon="104.914627"><ele>129.3</ele><time>2011-04-28T10:28:29.0000000+00:00</time></trkpt><trkpt lat="21.795168" lon="104.914627"><ele>129.3</ele><time>2011-04-28T10:28:34.0000000+00:00</time></trkpt><trkpt lat="21.795168" lon="104.914627"><ele>129.3</ele><time>2011-04-28T10:28:39.0000000+00:00</time></trkpt><trkpt lat="21.795168" lon="104.914627"><ele>129.2</ele><time>2011-04-28T10:28:44.0000000+00:00</time></trkpt><trkpt lat="21.795168" lon="104.914627"><ele>129.2</ele><time>2011-04-28T10:28:49.0000000+00:00</time></trkpt><trkpt lat="21.795168" lon="104.914627"><ele>129.2</ele><time>2011-04-28T10:28:54.0000000+00:00</time></trkpt><trkpt lat="21.795168" lon="104.914627"><ele>129.2</ele><time>2011-04-28T10:28:59.0000000+00:00</time></trkpt><trkpt lat="21.795168" lon="104.914627"><ele>129.2</ele><time>2011-04-28T10:29:04.0000000+00:00</time></trkpt><trkpt lat="21.795168" lon="104.914627"><ele>129.2</ele><time>2011-04-28T10:29:09.0000000+00:00</time></trkpt><trkpt lat="21.795168" lon="104.914627"><ele>129.1</ele><time>2011-04-28T10:29:14.0000000+00:00</time></trkpt><trkpt lat="21.795168" lon="104.914635"><ele>129.1</ele><time>2011-04-28T10:29:19.0000000+00:00</time></trkpt><trkpt lat="21.795168" lon="104.914635"><ele>129.1</ele><time>2011-04-28T10:29:24.0000000+00:00</time></trkpt><trkpt lat="21.795168" lon="104.914635"><ele>129.0</ele><time>2011-04-28T10:29:29.0000000+00:00</time></trkpt><trkpt lat="21.795168" lon="104.914635"><ele>129.0</ele><time>2011-04-28T10:29:34.0000000+00:00</time></trkpt><trkpt lat="21.795168" lon="104.914635"><ele>128.9</ele><time>2011-04-28T10:29:39.0000000+00:00</time></trkpt><trkpt lat="21.795168" lon="104.914635"><ele>128.9</ele><time>2011-04-28T10:29:44.0000000+00:00</time></trkpt><trkpt lat="21.795168" lon="104.914635"><ele>128.8</ele><time>2011-04-28T10:29:49.0000000+00:00</time></trkpt><trkpt lat="21.795168" lon="104.914635"><ele>128.8</ele><time>2011-04-28T10:29:54.0000000+00:00</time></trkpt><trkpt lat="21.79517" lon="104.914635"><ele>128.8</ele><time>2011-04-28T10:29:59.0000000+00:00</time></trkpt><trkpt lat="21.79517" lon="104.914635"><ele>128.8</ele><time>2011-04-28T10:30:04.0000000+00:00</time></trkpt><trkpt lat="21.79517" lon="104.914635"><ele>128.8</ele><time>2011-04-28T10:30:09.0000000+00:00</time></trkpt><trkpt lat="21.79517" lon="104.914635"><ele>128.8</ele><time>2011-04-28T10:30:14.0000000+00:00</time></trkpt><trkpt lat="21.79517" lon="104.914635"><ele>128.8</ele><time>2011-04-28T10:30:19.0000000+00:00</time></trkpt><trkpt lat="21.79517" lon="104.914635"><ele>128.8</ele><time>2011-04-28T10:30:24.0000000+00:00</time></trkpt><trkpt lat="21.79517" lon="104.914635"><ele>128.9</ele><time>2011-04-28T10:30:29.0000000+00:00</time></trkpt><trkpt lat="21.79517" lon="104.914635"><ele>128.9</ele><time>2011-04-28T10:30:34.0000000+00:00</time></trkpt><trkpt lat="21.79517" lon="104.914635"><ele>128.9</ele><time>2011-04-28T10:30:39.0000000+00:00</time></trkpt><trkpt lat="21.79517" lon="104.914635"><ele>128.8</ele><time>2011-04-28T10:30:44.0000000+00:00</time></trkpt><trkpt lat="21.79517" lon="104.914635"><ele>128.8</ele><time>2011-04-28T10:30:49.0000000+00:00</time></trkpt><trkpt lat="21.79517" lon="104.914635"><ele>128.9</ele><time>2011-04-28T10:30:54.0000000+00:00</time></trkpt><trkpt lat="21.79517" lon="104.914635"><ele>128.9</ele><time>2011-04-28T10:30:59.0000000+00:00</time></trkpt><trkpt lat="21.79517" lon="104.914635"><ele>128.9</ele><time>2011-04-28T10:31:04.0000000+00:00</time></trkpt><trkpt lat="21.79517" lon="104.914635"><ele>128.9</ele><time>2011-04-28T10:31:09.0000000+00:00</time></trkpt><trkpt lat="21.79517" lon="104.914635"><ele>128.9</ele><time>2011-04-28T10:31:14.0000000+00:00</time></trkpt><trkpt lat="21.79517" lon="104.914635"><ele>129.0</ele><time>2011-04-28T10:31:19.0000000+00:00</time></trkpt><trkpt lat="21.79517" lon="104.914635"><ele>129.0</ele><time>2011-04-28T10:31:24.0000000+00:00</time></trkpt><trkpt lat="21.79517" lon="104.914635"><ele>129.0</ele><time>2011-04-28T10:31:29.0000000+00:00</time></trkpt><trkpt lat="21.79517" lon="104.914635"><ele>129.0</ele><time>2011-04-28T10:31:34.0000000+00:00</time></trkpt><trkpt lat="21.79517" lon="104.914635"><ele>129.0</ele><time>2011-04-28T10:31:39.0000000+00:00</time></trkpt><trkpt lat="21.79517" lon="104.914635"><ele>129.0</ele><time>2011-04-28T10:31:44.0000000+00:00</time></trkpt><trkpt lat="21.79517" lon="104.914635"><ele>129.0</ele><time>2011-04-28T10:31:49.0000000+00:00</time></trkpt><trkpt lat="21.795168" lon="104.914635"><ele>129.1</ele><time>2011-04-28T10:31:54.0000000+00:00</time></trkpt><trkpt lat="21.795162" lon="104.914642"><ele>129.1</ele><time>2011-04-28T10:31:59.0000000+00:00</time></trkpt><trkpt lat="21.795061" lon="104.914673"><ele>128.9</ele><time>2011-04-28T10:32:04.0000000+00:00</time></trkpt><trkpt lat="21.794886" lon="104.914703"><ele>129.4</ele><time>2011-04-28T10:32:09.0000000+00:00</time></trkpt><trkpt lat="21.794666" lon="104.914665"><ele>130.1</ele><time>2011-04-28T10:32:14.0000000+00:00</time></trkpt><trkpt lat="21.794443" lon="104.914597"><ele>131.0</ele><time>2011-04-28T10:32:19.0000000+00:00</time></trkpt><trkpt lat="21.794235" lon="104.914528"><ele>131.5</ele><time>2011-04-28T10:32:24.0000000+00:00</time></trkpt><trkpt lat="21.794027" lon="104.914566"><ele>131.0</ele><time>2011-04-28T10:32:29.0000000+00:00</time></trkpt><trkpt lat="21.793941" lon="104.914803"><ele>129.3</ele><time>2011-04-28T10:32:34.0000000+00:00</time></trkpt><trkpt lat="21.793909" lon="104.915054"><ele>127.9</ele><time>2011-04-28T10:32:39.0000000+00:00</time></trkpt><trkpt lat="21.794004" lon="104.915337"><ele>126.9</ele><time>2011-04-28T10:32:44.0000000+00:00</time></trkpt><trkpt lat="21.793987" lon="104.915649"><ele>123.7</ele><time>2011-04-28T10:32:49.0000000+00:00</time></trkpt><trkpt lat="21.793716" lon="104.915771"><ele>121.9</ele><time>2011-04-28T10:32:54.0000000+00:00</time></trkpt><trkpt lat="21.793478" lon="104.915977"><ele>120.0</ele><time>2011-04-28T10:32:59.0000000+00:00</time></trkpt><trkpt lat="21.793324" lon="104.916344"><ele>116.2</ele><time>2011-04-28T10:33:04.0000000+00:00</time></trkpt><trkpt lat="21.793192" lon="104.916626"><ele>112.9</ele><time>2011-04-28T10:33:09.0000000+00:00</time></trkpt><trkpt lat="21.792927" lon="104.916893"><ele>109.2</ele><time>2011-04-28T10:33:14.0000000+00:00</time></trkpt><trkpt lat="21.792746" lon="104.917023"><ele>106.7</ele><time>2011-04-28T10:33:19.0000000+00:00</time></trkpt><trkpt lat="21.792635" lon="104.917145"><ele>106.7</ele><time>2011-04-28T10:33:24.0000000+00:00</time></trkpt><trkpt lat="21.792517" lon="104.917168"><ele>109.3</ele><time>2011-04-28T10:33:29.0000000+00:00</time></trkpt><trkpt lat="21.792524" lon="104.917183"><ele>109.9</ele><time>2011-04-28T10:33:34.0000000+00:00</time></trkpt><trkpt lat="21.79253" lon="104.917175"><ele>109.9</ele><time>2011-04-28T10:33:39.0000000+00:00</time></trkpt><trkpt lat="21.792532" lon="104.917175"><ele>110.1</ele><time>2011-04-28T10:33:44.0000000+00:00</time></trkpt><trkpt lat="21.792503" lon="104.917259"><ele>110.0</ele><time>2011-04-28T10:33:49.0000000+00:00</time></trkpt><trkpt lat="21.792559" lon="104.91732"><ele>109.3</ele><time>2011-04-28T10:33:54.0000000+00:00</time></trkpt><trkpt lat="21.792564" lon="104.917404"><ele>109.1</ele><time>2011-04-28T10:33:59.0000000+00:00</time></trkpt><trkpt lat="21.792532" lon="104.917488"><ele>110.5</ele><time>2011-04-28T10:34:04.0000000+00:00</time></trkpt><trkpt lat="21.792494" lon="104.917564"><ele>112.1</ele><time>2011-04-28T10:34:09.0000000+00:00</time></trkpt><trkpt lat="21.792473" lon="104.917625"><ele>113.0</ele><time>2011-04-28T10:34:14.0000000+00:00</time></trkpt><trkpt lat="21.792475" lon="104.917625"><ele>114.0</ele><time>2011-04-28T10:34:19.0000000+00:00</time></trkpt><trkpt lat="21.792477" lon="104.917671"><ele>115.2</ele><time>2011-04-28T10:34:24.0000000+00:00</time></trkpt><trkpt lat="21.792479" lon="104.917709"><ele>115.9</ele><time>2011-04-28T10:34:29.0000000+00:00</time></trkpt><trkpt lat="21.792477" lon="104.917755"><ele>117.1</ele><time>2011-04-28T10:34:34.0000000+00:00</time></trkpt><trkpt lat="21.792475" lon="104.917786"><ele>117.9</ele><time>2011-04-28T10:34:39.0000000+00:00</time></trkpt><trkpt lat="21.79248" lon="104.917786"><ele>117.7</ele><time>2011-04-28T10:34:44.0000000+00:00</time></trkpt><trkpt lat="21.79248" lon="104.917786"><ele>117.7</ele><time>2011-04-28T10:34:49.0000000+00:00</time></trkpt><trkpt lat="21.79248" lon="104.917786"><ele>117.7</ele><time>2011-04-28T10:34:54.0000000+00:00</time></trkpt><trkpt lat="21.79248" lon="104.917786"><ele>117.7</ele><time>2011-04-28T10:34:59.0000000+00:00</time></trkpt><trkpt lat="21.792446" lon="104.917816"><ele>117.8</ele><time>2011-04-28T10:35:04.0000000+00:00</time></trkpt><trkpt lat="21.792412" lon="104.917824"><ele>118.2</ele><time>2011-04-28T10:35:09.0000000+00:00</time></trkpt><trkpt lat="21.79241" lon="104.917824"><ele>118.8</ele><time>2011-04-28T10:35:14.0000000+00:00</time></trkpt><trkpt lat="21.79241" lon="104.917824"><ele>118.8</ele><time>2011-04-28T10:35:19.0000000+00:00</time></trkpt><trkpt lat="21.79241" lon="104.917824"><ele>118.8</ele><time>2011-04-28T10:35:24.0000000+00:00</time></trkpt><trkpt lat="21.79241" lon="104.917824"><ele>118.8</ele><time>2011-04-28T10:35:29.0000000+00:00</time></trkpt><trkpt lat="21.79241" lon="104.917824"><ele>118.8</ele><time>2011-04-28T10:35:34.0000000+00:00</time></trkpt><trkpt lat="21.79241" lon="104.917824"><ele>118.8</ele><time>2011-04-28T10:35:39.0000000+00:00</time></trkpt><trkpt lat="21.79241" lon="104.917824"><ele>118.8</ele><time>2011-04-28T10:35:44.0000000+00:00</time></trkpt><trkpt lat="21.79241" lon="104.917824"><ele>118.8</ele><time>2011-04-28T10:35:49.0000000+00:00</time></trkpt><trkpt lat="21.79241" lon="104.917824"><ele>118.8</ele><time>2011-04-28T10:35:54.0000000+00:00</time></trkpt><trkpt lat="21.79241" lon="104.917824"><ele>118.8</ele><time>2011-04-28T10:35:59.0000000+00:00</time></trkpt><trkpt lat="21.79241" lon="104.917824"><ele>118.8</ele><time>2011-04-28T10:36:04.0000000+00:00</time></trkpt><trkpt lat="21.79241" lon="104.917824"><ele>118.8</ele><time>2011-04-28T10:36:09.0000000+00:00</time></trkpt><trkpt lat="21.79241" lon="104.917824"><ele>118.8</ele><time>2011-04-28T10:36:14.0000000+00:00</time></trkpt><trkpt lat="21.79241" lon="104.917824"><ele>118.8</ele><time>2011-04-28T10:36:19.0000000+00:00</time></trkpt><trkpt lat="21.79241" lon="104.917824"><ele>118.8</ele><time>2011-04-28T10:36:24.0000000+00:00</time></trkpt><trkpt lat="21.79241" lon="104.917824"><ele>118.8</ele><time>2011-04-28T10:36:29.0000000+00:00</time></trkpt><trkpt lat="21.79241" lon="104.917824"><ele>118.8</ele><time>2011-04-28T10:36:34.0000000+00:00</time></trkpt><trkpt lat="21.792408" lon="104.917824"><ele>118.8</ele><time>2011-04-28T10:36:39.0000000+00:00</time></trkpt><trkpt lat="21.792408" lon="104.917824"><ele>118.9</ele><time>2011-04-28T10:36:44.0000000+00:00</time></trkpt><trkpt lat="21.792408" lon="104.917824"><ele>118.9</ele><time>2011-04-28T10:36:49.0000000+00:00</time></trkpt><trkpt lat="21.792408" lon="104.917824"><ele>118.9</ele><time>2011-04-28T10:36:54.0000000+00:00</time></trkpt><trkpt lat="21.792408" lon="104.917824"><ele>118.9</ele><time>2011-04-28T10:36:59.0000000+00:00</time></trkpt><trkpt lat="21.792408" lon="104.917824"><ele>118.9</ele><time>2011-04-28T10:37:04.0000000+00:00</time></trkpt><trkpt lat="21.792406" lon="104.917824"><ele>118.9</ele><time>2011-04-28T10:37:09.0000000+00:00</time></trkpt><trkpt lat="21.792406" lon="104.917824"><ele>118.9</ele><time>2011-04-28T10:37:14.0000000+00:00</time></trkpt><trkpt lat="21.792406" lon="104.917824"><ele>118.9</ele><time>2011-04-28T10:37:19.0000000+00:00</time></trkpt><trkpt lat="21.792406" lon="104.917824"><ele>119.0</ele><time>2011-04-28T10:37:24.0000000+00:00</time></trkpt><trkpt lat="21.792406" lon="104.917824"><ele>119.0</ele><time>2011-04-28T10:37:29.0000000+00:00</time></trkpt><trkpt lat="21.792406" lon="104.917824"><ele>119.0</ele><time>2011-04-28T10:37:34.0000000+00:00</time></trkpt><trkpt lat="21.792404" lon="104.917824"><ele>119.0</ele><time>2011-04-28T10:37:39.0000000+00:00</time></trkpt><trkpt lat="21.792404" lon="104.917824"><ele>119.1</ele><time>2011-04-28T10:37:44.0000000+00:00</time></trkpt><trkpt lat="21.792406" lon="104.917824"><ele>119.1</ele><time>2011-04-28T10:37:49.0000000+00:00</time></trkpt><trkpt lat="21.792406" lon="104.917824"><ele>119.2</ele><time>2011-04-28T10:37:54.0000000+00:00</time></trkpt><trkpt lat="21.792406" lon="104.917824"><ele>119.2</ele><time>2011-04-28T10:37:59.0000000+00:00</time></trkpt><trkpt lat="21.792406" lon="104.917824"><ele>119.2</ele><time>2011-04-28T10:38:04.0000000+00:00</time></trkpt><trkpt lat="21.792406" lon="104.917824"><ele>119.2</ele><time>2011-04-28T10:38:09.0000000+00:00</time></trkpt><trkpt lat="21.792406" lon="104.917824"><ele>119.2</ele><time>2011-04-28T10:38:14.0000000+00:00</time></trkpt><trkpt lat="21.792406" lon="104.917824"><ele>119.2</ele><time>2011-04-28T10:38:19.0000000+00:00</time></trkpt><trkpt lat="21.792406" lon="104.917824"><ele>119.3</ele><time>2011-04-28T10:38:24.0000000+00:00</time></trkpt><trkpt lat="21.792406" lon="104.917824"><ele>119.3</ele><time>2011-04-28T10:38:29.0000000+00:00</time></trkpt><trkpt lat="21.792404" lon="104.917824"><ele>119.3</ele><time>2011-04-28T10:38:34.0000000+00:00</time></trkpt><trkpt lat="21.792404" lon="104.917824"><ele>119.3</ele><time>2011-04-28T10:38:39.0000000+00:00</time></trkpt><trkpt lat="21.792404" lon="104.917824"><ele>119.3</ele><time>2011-04-28T10:38:44.0000000+00:00</time></trkpt><trkpt lat="21.792404" lon="104.917824"><ele>119.3</ele><time>2011-04-28T10:38:49.0000000+00:00</time></trkpt><trkpt lat="21.792404" lon="104.917824"><ele>119.3</ele><time>2011-04-28T10:38:54.0000000+00:00</time></trkpt><trkpt lat="21.792404" lon="104.917824"><ele>119.4</ele><time>2011-04-28T10:38:59.0000000+00:00</time></trkpt><trkpt lat="21.792404" lon="104.917824"><ele>119.4</ele><time>2011-04-28T10:39:04.0000000+00:00</time></trkpt><trkpt lat="21.792404" lon="104.917824"><ele>119.4</ele><time>2011-04-28T10:39:09.0000000+00:00</time></trkpt><trkpt lat="21.792402" lon="104.917824"><ele>119.4</ele><time>2011-04-28T10:39:14.0000000+00:00</time></trkpt><trkpt lat="21.792402" lon="104.917824"><ele>119.4</ele><time>2011-04-28T10:39:19.0000000+00:00</time></trkpt><trkpt lat="21.792402" lon="104.917824"><ele>119.4</ele><time>2011-04-28T10:39:24.0000000+00:00</time></trkpt><trkpt lat="21.792402" lon="104.917824"><ele>119.4</ele><time>2011-04-28T10:39:29.0000000+00:00</time></trkpt><trkpt lat="21.792402" lon="104.917824"><ele>119.4</ele><time>2011-04-28T10:39:34.0000000+00:00</time></trkpt><trkpt lat="21.792402" lon="104.917824"><ele>119.4</ele><time>2011-04-28T10:39:39.0000000+00:00</time></trkpt><trkpt lat="21.792402" lon="104.917824"><ele>119.4</ele><time>2011-04-28T10:39:44.0000000+00:00</time></trkpt><trkpt lat="21.792402" lon="104.917824"><ele>119.4</ele><time>2011-04-28T10:39:49.0000000+00:00</time></trkpt><trkpt lat="21.792402" lon="104.917824"><ele>119.4</ele><time>2011-04-28T10:39:54.0000000+00:00</time></trkpt><trkpt lat="21.792402" lon="104.917824"><ele>119.4</ele><time>2011-04-28T10:39:59.0000000+00:00</time></trkpt><trkpt lat="21.792402" lon="104.917824"><ele>119.4</ele><time>2011-04-28T10:40:04.0000000+00:00</time></trkpt><trkpt lat="21.792402" lon="104.917824"><ele>119.4</ele><time>2011-04-28T10:40:09.0000000+00:00</time></trkpt><trkpt lat="21.792402" lon="104.917824"><ele>119.4</ele><time>2011-04-28T10:40:14.0000000+00:00</time></trkpt><trkpt lat="21.792402" lon="104.917824"><ele>119.4</ele><time>2011-04-28T10:40:19.0000000+00:00</time></trkpt><trkpt lat="21.792402" lon="104.917824"><ele>119.4</ele><time>2011-04-28T10:40:24.0000000+00:00</time></trkpt><trkpt lat="21.792402" lon="104.917831"><ele>119.4</ele><time>2011-04-28T10:40:29.0000000+00:00</time></trkpt><trkpt lat="21.7924" lon="104.917831"><ele>119.5</ele><time>2011-04-28T10:40:34.0000000+00:00</time></trkpt><trkpt lat="21.7924" lon="104.917831"><ele>119.5</ele><time>2011-04-28T10:40:39.0000000+00:00</time></trkpt><trkpt lat="21.7924" lon="104.917831"><ele>119.4</ele><time>2011-04-28T10:40:44.0000000+00:00</time></trkpt><trkpt lat="21.7924" lon="104.917831"><ele>119.4</ele><time>2011-04-28T10:40:49.0000000+00:00</time></trkpt><trkpt lat="21.7924" lon="104.917831"><ele>119.4</ele><time>2011-04-28T10:40:54.0000000+00:00</time></trkpt><trkpt lat="21.7924" lon="104.917831"><ele>119.4</ele><time>2011-04-28T10:40:59.0000000+00:00</time></trkpt><trkpt lat="21.7924" lon="104.917831"><ele>119.4</ele><time>2011-04-28T10:41:04.0000000+00:00</time></trkpt><trkpt lat="21.7924" lon="104.917831"><ele>119.4</ele><time>2011-04-28T10:41:09.0000000+00:00</time></trkpt><trkpt lat="21.7924" lon="104.917831"><ele>119.4</ele><time>2011-04-28T10:41:14.0000000+00:00</time></trkpt><trkpt lat="21.7924" lon="104.917831"><ele>119.4</ele><time>2011-04-28T10:41:19.0000000+00:00</time></trkpt><trkpt lat="21.792398" lon="104.917831"><ele>119.3</ele><time>2011-04-28T10:41:24.0000000+00:00</time></trkpt><trkpt lat="21.792398" lon="104.917831"><ele>119.3</ele><time>2011-04-28T10:41:29.0000000+00:00</time></trkpt><trkpt lat="21.792398" lon="104.917831"><ele>119.3</ele><time>2011-04-28T10:41:34.0000000+00:00</time></trkpt><trkpt lat="21.792398" lon="104.917831"><ele>119.3</ele><time>2011-04-28T10:41:39.0000000+00:00</time></trkpt><trkpt lat="21.792398" lon="104.917831"><ele>119.4</ele><time>2011-04-28T10:41:44.0000000+00:00</time></trkpt><trkpt lat="21.792398" lon="104.917831"><ele>119.4</ele><time>2011-04-28T10:41:49.0000000+00:00</time></trkpt><trkpt lat="21.792398" lon="104.917831"><ele>119.4</ele><time>2011-04-28T10:41:54.0000000+00:00</time></trkpt><trkpt lat="21.792398" lon="104.917831"><ele>119.4</ele><time>2011-04-28T10:41:59.0000000+00:00</time></trkpt><trkpt lat="21.792397" lon="104.917831"><ele>119.4</ele><time>2011-04-28T10:42:04.0000000+00:00</time></trkpt><trkpt lat="21.792397" lon="104.917831"><ele>119.4</ele><time>2011-04-28T10:42:09.0000000+00:00</time></trkpt><trkpt lat="21.792397" lon="104.917831"><ele>119.4</ele><time>2011-04-28T10:42:14.0000000+00:00</time></trkpt><trkpt lat="21.792397" lon="104.917831"><ele>119.4</ele><time>2011-04-28T10:42:19.0000000+00:00</time></trkpt><trkpt lat="21.792397" lon="104.917831"><ele>119.4</ele><time>2011-04-28T10:42:24.0000000+00:00</time></trkpt><trkpt lat="21.792397" lon="104.917831"><ele>119.4</ele><time>2011-04-28T10:42:29.0000000+00:00</time></trkpt><trkpt lat="21.792397" lon="104.917831"><ele>119.4</ele><time>2011-04-28T10:42:34.0000000+00:00</time></trkpt><trkpt lat="21.792397" lon="104.917831"><ele>119.5</ele><time>2011-04-28T10:42:39.0000000+00:00</time></trkpt><trkpt lat="21.792397" lon="104.917831"><ele>119.5</ele><time>2011-04-28T10:42:44.0000000+00:00</time></trkpt><trkpt lat="21.792397" lon="104.917831"><ele>119.5</ele><time>2011-04-28T10:42:49.0000000+00:00</time></trkpt><trkpt lat="21.792397" lon="104.917831"><ele>119.5</ele><time>2011-04-28T10:42:54.0000000+00:00</time></trkpt><trkpt lat="21.792397" lon="104.917831"><ele>119.5</ele><time>2011-04-28T10:42:59.0000000+00:00</time></trkpt><trkpt lat="21.792397" lon="104.917831"><ele>119.5</ele><time>2011-04-28T10:43:04.0000000+00:00</time></trkpt><trkpt lat="21.792395" lon="104.917831"><ele>119.6</ele><time>2011-04-28T10:43:09.0000000+00:00</time></trkpt><trkpt lat="21.792395" lon="104.917831"><ele>119.6</ele><time>2011-04-28T10:43:14.0000000+00:00</time></trkpt><trkpt lat="21.792395" lon="104.917831"><ele>119.6</ele><time>2011-04-28T10:43:19.0000000+00:00</time></trkpt><trkpt lat="21.792395" lon="104.917831"><ele>119.6</ele><time>2011-04-28T10:43:24.0000000+00:00</time></trkpt><trkpt lat="21.792395" lon="104.917831"><ele>119.6</ele><time>2011-04-28T10:43:29.0000000+00:00</time></trkpt><trkpt lat="21.792395" lon="104.917839"><ele>119.6</ele><time>2011-04-28T10:43:34.0000000+00:00</time></trkpt><trkpt lat="21.792395" lon="104.917839"><ele>119.6</ele><time>2011-04-28T10:43:39.0000000+00:00</time></trkpt><trkpt lat="21.792395" lon="104.917839"><ele>119.6</ele><time>2011-04-28T10:43:44.0000000+00:00</time></trkpt><trkpt lat="21.792395" lon="104.917839"><ele>119.7</ele><time>2011-04-28T10:43:49.0000000+00:00</time></trkpt><trkpt lat="21.792395" lon="104.917839"><ele>119.7</ele><time>2011-04-28T10:43:54.0000000+00:00</time></trkpt><trkpt lat="21.792395" lon="104.917839"><ele>119.7</ele><time>2011-04-28T10:43:59.0000000+00:00</time></trkpt><trkpt lat="21.792393" lon="104.917839"><ele>119.7</ele><time>2011-04-28T10:44:04.0000000+00:00</time></trkpt><trkpt lat="21.792393" lon="104.917839"><ele>119.7</ele><time>2011-04-28T10:44:09.0000000+00:00</time></trkpt><trkpt lat="21.792393" lon="104.917839"><ele>119.7</ele><time>2011-04-28T10:44:14.0000000+00:00</time></trkpt><trkpt lat="21.792393" lon="104.917839"><ele>119.8</ele><time>2011-04-28T10:44:19.0000000+00:00</time></trkpt><trkpt lat="21.792395" lon="104.917839"><ele>119.7</ele><time>2011-04-28T10:44:24.0000000+00:00</time></trkpt><trkpt lat="21.792393" lon="104.917839"><ele>119.7</ele><time>2011-04-28T10:44:29.0000000+00:00</time></trkpt><trkpt lat="21.792393" lon="104.917839"><ele>119.8</ele><time>2011-04-28T10:44:34.0000000+00:00</time></trkpt><trkpt lat="21.792393" lon="104.917839"><ele>119.8</ele><time>2011-04-28T10:44:39.0000000+00:00</time></trkpt><trkpt lat="21.792393" lon="104.917839"><ele>119.8</ele><time>2011-04-28T10:44:44.0000000+00:00</time></trkpt><trkpt lat="21.792393" lon="104.917839"><ele>119.8</ele><time>2011-04-28T10:44:49.0000000+00:00</time></trkpt><trkpt lat="21.792393" lon="104.917839"><ele>119.8</ele><time>2011-04-28T10:44:54.0000000+00:00</time></trkpt><trkpt lat="21.792393" lon="104.917839"><ele>119.8</ele><time>2011-04-28T10:44:59.0000000+00:00</time></trkpt><trkpt lat="21.792393" lon="104.917839"><ele>119.8</ele><time>2011-04-28T10:45:04.0000000+00:00</time></trkpt><trkpt lat="21.792393" lon="104.917839"><ele>119.8</ele><time>2011-04-28T10:45:09.0000000+00:00</time></trkpt><trkpt lat="21.792393" lon="104.917839"><ele>119.8</ele><time>2011-04-28T10:45:14.0000000+00:00</time></trkpt><trkpt lat="21.792393" lon="104.917839"><ele>119.8</ele><time>2011-04-28T10:45:19.0000000+00:00</time></trkpt><trkpt lat="21.792393" lon="104.917839"><ele>119.8</ele><time>2011-04-28T10:45:24.0000000+00:00</time></trkpt><trkpt lat="21.792393" lon="104.917839"><ele>119.8</ele><time>2011-04-28T10:45:29.0000000+00:00</time></trkpt><trkpt lat="21.792393" lon="104.917839"><ele>119.8</ele><time>2011-04-28T10:45:34.0000000+00:00</time></trkpt><trkpt lat="21.792393" lon="104.917839"><ele>119.8</ele><time>2011-04-28T10:45:39.0000000+00:00</time></trkpt><trkpt lat="21.792393" lon="104.917839"><ele>119.8</ele><time>2011-04-28T10:45:44.0000000+00:00</time></trkpt><trkpt lat="21.792393" lon="104.917839"><ele>119.8</ele><time>2011-04-28T10:45:49.0000000+00:00</time></trkpt><trkpt lat="21.792393" lon="104.917839"><ele>119.8</ele><time>2011-04-28T10:45:54.0000000+00:00</time></trkpt><trkpt lat="21.792393" lon="104.917839"><ele>119.8</ele><time>2011-04-28T10:45:59.0000000+00:00</time></trkpt><trkpt lat="21.792393" lon="104.917839"><ele>119.9</ele><time>2011-04-28T10:46:04.0000000+00:00</time></trkpt><trkpt lat="21.792391" lon="104.917839"><ele>119.9</ele><time>2011-04-28T10:46:09.0000000+00:00</time></trkpt><trkpt lat="21.792391" lon="104.917839"><ele>119.9</ele><time>2011-04-28T10:46:14.0000000+00:00</time></trkpt><trkpt lat="21.792391" lon="104.917839"><ele>119.9</ele><time>2011-04-28T10:46:19.0000000+00:00</time></trkpt><trkpt lat="21.792391" lon="104.917839"><ele>120.0</ele><time>2011-04-28T10:46:24.0000000+00:00</time></trkpt><trkpt lat="21.792391" lon="104.917839"><ele>120.0</ele><time>2011-04-28T10:46:29.0000000+00:00</time></trkpt><trkpt lat="21.792391" lon="104.917839"><ele>120.1</ele><time>2011-04-28T10:46:34.0000000+00:00</time></trkpt><trkpt lat="21.792389" lon="104.917839"><ele>120.1</ele><time>2011-04-28T10:46:39.0000000+00:00</time></trkpt><trkpt lat="21.792389" lon="104.917839"><ele>120.2</ele><time>2011-04-28T10:46:44.0000000+00:00</time></trkpt><trkpt lat="21.792389" lon="104.917839"><ele>120.2</ele><time>2011-04-28T10:46:49.0000000+00:00</time></trkpt><trkpt lat="21.792389" lon="104.917839"><ele>120.2</ele><time>2011-04-28T10:46:54.0000000+00:00</time></trkpt><trkpt lat="21.792389" lon="104.917839"><ele>120.2</ele><time>2011-04-28T10:46:59.0000000+00:00</time></trkpt><trkpt lat="21.792389" lon="104.917839"><ele>120.2</ele><time>2011-04-28T10:47:04.0000000+00:00</time></trkpt><trkpt lat="21.792389" lon="104.917839"><ele>120.2</ele><time>2011-04-28T10:47:09.0000000+00:00</time></trkpt><trkpt lat="21.792389" lon="104.917839"><ele>120.2</ele><time>2011-04-28T10:47:14.0000000+00:00</time></trkpt><trkpt lat="21.792389" lon="104.917839"><ele>120.2</ele><time>2011-04-28T10:47:19.0000000+00:00</time></trkpt><trkpt lat="21.792389" lon="104.917839"><ele>120.2</ele><time>2011-04-28T10:47:24.0000000+00:00</time></trkpt><trkpt lat="21.792389" lon="104.917839"><ele>120.2</ele><time>2011-04-28T10:47:29.0000000+00:00</time></trkpt><trkpt lat="21.792389" lon="104.917839"><ele>120.2</ele><time>2011-04-28T10:47:34.0000000+00:00</time></trkpt><trkpt lat="21.792389" lon="104.917839"><ele>120.2</ele><time>2011-04-28T10:47:39.0000000+00:00</time></trkpt><trkpt lat="21.792389" lon="104.917839"><ele>120.2</ele><time>2011-04-28T10:47:44.0000000+00:00</time></trkpt><trkpt lat="21.792391" lon="104.917839"><ele>120.2</ele><time>2011-04-28T10:47:49.0000000+00:00</time></trkpt><trkpt lat="21.792387" lon="104.917824"><ele>120.2</ele><time>2011-04-28T10:47:54.0000000+00:00</time></trkpt><trkpt lat="21.792402" lon="104.91774"><ele>120.2</ele><time>2011-04-28T10:47:59.0000000+00:00</time></trkpt><trkpt lat="21.792431" lon="104.917648"><ele>119.9</ele><time>2011-04-28T10:48:04.0000000+00:00</time></trkpt><trkpt lat="21.792513" lon="104.917519"><ele>119.4</ele><time>2011-04-28T10:48:09.0000000+00:00</time></trkpt><trkpt lat="21.792576" lon="104.917419"><ele>118.9</ele><time>2011-04-28T10:48:14.0000000+00:00</time></trkpt><trkpt lat="21.792587" lon="104.917351"><ele>118.6</ele><time>2011-04-28T10:48:19.0000000+00:00</time></trkpt><trkpt lat="21.792601" lon="104.91732"><ele>117.9</ele><time>2011-04-28T10:48:24.0000000+00:00</time></trkpt><trkpt lat="21.792601" lon="104.91732"><ele>117.7</ele><time>2011-04-28T10:48:29.0000000+00:00</time></trkpt><trkpt lat="21.792601" lon="104.917328"><ele>117.6</ele><time>2011-04-28T10:48:34.0000000+00:00</time></trkpt><trkpt lat="21.792593" lon="104.917351"><ele>117.6</ele><time>2011-04-28T10:48:39.0000000+00:00</time></trkpt><trkpt lat="21.792591" lon="104.917351"><ele>117.5</ele><time>2011-04-28T10:48:44.0000000+00:00</time></trkpt><trkpt lat="21.792589" lon="104.917358"><ele>117.4</ele><time>2011-04-28T10:48:49.0000000+00:00</time></trkpt><trkpt lat="21.792589" lon="104.917366"><ele>117.2</ele><time>2011-04-28T10:48:54.0000000+00:00</time></trkpt><trkpt lat="21.792589" lon="104.917366"><ele>117.0</ele><time>2011-04-28T10:48:59.0000000+00:00</time></trkpt><trkpt lat="21.792587" lon="104.917374"><ele>116.9</ele><time>2011-04-28T10:49:04.0000000+00:00</time></trkpt><trkpt lat="21.792585" lon="104.917381"><ele>116.7</ele><time>2011-04-28T10:49:09.0000000+00:00</time></trkpt><trkpt lat="21.792583" lon="104.917381"><ele>116.5</ele><time>2011-04-28T10:49:14.0000000+00:00</time></trkpt><trkpt lat="21.792587" lon="104.917381"><ele>116.4</ele><time>2011-04-28T10:49:19.0000000+00:00</time></trkpt><trkpt lat="21.792587" lon="104.917366"><ele>116.2</ele><time>2011-04-28T10:49:24.0000000+00:00</time></trkpt><trkpt lat="21.792597" lon="104.917351"><ele>116.0</ele><time>2011-04-28T10:49:29.0000000+00:00</time></trkpt><trkpt lat="21.792587" lon="104.917336"><ele>115.7</ele><time>2011-04-28T10:49:34.0000000+00:00</time></trkpt><trkpt lat="21.792587" lon="104.917328"><ele>115.5</ele><time>2011-04-28T10:49:39.0000000+00:00</time></trkpt><trkpt lat="21.792549" lon="104.917305"><ele>115.6</ele><time>2011-04-28T10:49:44.0000000+00:00</time></trkpt><trkpt lat="21.79241" lon="104.917267"><ele>115.9</ele><time>2011-04-28T10:49:49.0000000+00:00</time></trkpt><trkpt lat="21.792215" lon="104.917191"><ele>114.6</ele><time>2011-04-28T10:49:54.0000000+00:00</time></trkpt><trkpt lat="21.79203" lon="104.917152"><ele>114.5</ele><time>2011-04-28T10:49:59.0000000+00:00</time></trkpt><trkpt lat="21.791826" lon="104.917168"><ele>114.7</ele><time>2011-04-28T10:50:04.0000000+00:00</time></trkpt><trkpt lat="21.79162" lon="104.917183"><ele>113.7</ele><time>2011-04-28T10:50:09.0000000+00:00</time></trkpt><trkpt lat="21.791349" lon="104.91713"><ele>113.5</ele><time>2011-04-28T10:50:14.0000000+00:00</time></trkpt><trkpt lat="21.791214" lon="104.91684"><ele>113.4</ele><time>2011-04-28T10:50:19.0000000+00:00</time></trkpt><trkpt lat="21.791044" lon="104.916542"><ele>114.1</ele><time>2011-04-28T10:50:24.0000000+00:00</time></trkpt><trkpt lat="21.790749" lon="104.916374"><ele>112.7</ele><time>2011-04-28T10:50:29.0000000+00:00</time></trkpt><trkpt lat="21.790443" lon="104.916565"><ele>112.0</ele><time>2011-04-28T10:50:34.0000000+00:00</time></trkpt><trkpt lat="21.790218" lon="104.916924"><ele>113.5</ele><time>2011-04-28T10:50:39.0000000+00:00</time></trkpt><trkpt lat="21.790031" lon="104.917236"><ele>112.5</ele><time>2011-04-28T10:50:44.0000000+00:00</time></trkpt><trkpt lat="21.789835" lon="104.917458"><ele>111.7</ele><time>2011-04-28T10:50:49.0000000+00:00</time></trkpt><trkpt lat="21.789557" lon="104.917389"><ele>110.9</ele><time>2011-04-28T10:50:54.0000000+00:00</time></trkpt><trkpt lat="21.789373" lon="104.917145"><ele>109.2</ele><time>2011-04-28T10:50:59.0000000+00:00</time></trkpt><trkpt lat="21.789459" lon="104.916908"><ele>107.8</ele><time>2011-04-28T10:51:04.0000000+00:00</time></trkpt><trkpt lat="21.78961" lon="104.91674"><ele>107.9</ele><time>2011-04-28T10:51:09.0000000+00:00</time></trkpt><trkpt lat="21.789711" lon="104.91658"><ele>107.7</ele><time>2011-04-28T10:51:14.0000000+00:00</time></trkpt><trkpt lat="21.789734" lon="104.91642"><ele>108.8</ele><time>2011-04-28T10:51:19.0000000+00:00</time></trkpt><trkpt lat="21.789663" lon="104.916237"><ele>109.3</ele><time>2011-04-28T10:51:24.0000000+00:00</time></trkpt><trkpt lat="21.789572" lon="104.916077"><ele>109.0</ele><time>2011-04-28T10:51:29.0000000+00:00</time></trkpt><trkpt lat="21.78952" lon="104.915878"><ele>108.3</ele><time>2011-04-28T10:51:34.0000000+00:00</time></trkpt><trkpt lat="21.789549" lon="104.91568"><ele>105.3</ele><time>2011-04-28T10:51:39.0000000+00:00</time></trkpt><trkpt lat="21.789692" lon="104.915497"><ele>101.2</ele><time>2011-04-28T10:51:44.0000000+00:00</time></trkpt><trkpt lat="21.789839" lon="104.915329"><ele>99.8</ele><time>2011-04-28T10:51:49.0000000+00:00</time></trkpt><trkpt lat="21.78993" lon="104.915092"><ele>98.9</ele><time>2011-04-28T10:51:54.0000000+00:00</time></trkpt><trkpt lat="21.789803" lon="104.914848"><ele>100.4</ele><time>2011-04-28T10:51:59.0000000+00:00</time></trkpt><trkpt lat="21.789557" lon="104.914673"><ele>99.0</ele><time>2011-04-28T10:52:04.0000000+00:00</time></trkpt><trkpt lat="21.789322" lon="104.914497"><ele>97.8</ele><time>2011-04-28T10:52:09.0000000+00:00</time></trkpt><trkpt lat="21.78911" lon="104.914345"><ele>97.0</ele><time>2011-04-28T10:52:14.0000000+00:00</time></trkpt><trkpt lat="21.788843" lon="104.914131"><ele>96.3</ele><time>2011-04-28T10:52:19.0000000+00:00</time></trkpt><trkpt lat="21.788595" lon="104.913963"><ele>96.5</ele><time>2011-04-28T10:52:24.0000000+00:00</time></trkpt><trkpt lat="21.788364" lon="104.914085"><ele>96.1</ele><time>2011-04-28T10:52:29.0000000+00:00</time></trkpt><trkpt lat="21.788166" lon="104.914436"><ele>96.9</ele><time>2011-04-28T10:52:34.0000000+00:00</time></trkpt><trkpt lat="21.787857" lon="104.91468"><ele>97.2</ele><time>2011-04-28T10:52:39.0000000+00:00</time></trkpt><trkpt lat="21.787527" lon="104.914795"><ele>97.0</ele><time>2011-04-28T10:52:44.0000000+00:00</time></trkpt><trkpt lat="21.787241" lon="104.914673"><ele>96.8</ele><time>2011-04-28T10:52:49.0000000+00:00</time></trkpt><trkpt lat="21.787025" lon="104.914467"><ele>97.7</ele><time>2011-04-28T10:52:54.0000000+00:00</time></trkpt><trkpt lat="21.786833" lon="104.91436"><ele>98.1</ele><time>2011-04-28T10:52:59.0000000+00:00</time></trkpt><trkpt lat="21.786573" lon="104.914429"><ele>98.2</ele><time>2011-04-28T10:53:04.0000000+00:00</time></trkpt><trkpt lat="21.786533" lon="104.914749"><ele>97.6</ele><time>2011-04-28T10:53:09.0000000+00:00</time></trkpt><trkpt lat="21.786488" lon="104.915024"><ele>97.0</ele><time>2011-04-28T10:53:14.0000000+00:00</time></trkpt><trkpt lat="21.786287" lon="104.915169"><ele>96.3</ele><time>2011-04-28T10:53:19.0000000+00:00</time></trkpt><trkpt lat="21.786034" lon="104.915176"><ele>95.3</ele><time>2011-04-28T10:53:24.0000000+00:00</time></trkpt><trkpt lat="21.785849" lon="104.915352"><ele>93.9</ele><time>2011-04-28T10:53:29.0000000+00:00</time></trkpt><trkpt lat="21.785812" lon="104.915695"><ele>93.2</ele><time>2011-04-28T10:53:34.0000000+00:00</time></trkpt><trkpt lat="21.785702" lon="104.915947"><ele>92.4</ele><time>2011-04-28T10:53:39.0000000+00:00</time></trkpt><trkpt lat="21.785488" lon="104.916016"><ele>93.2</ele><time>2011-04-28T10:53:44.0000000+00:00</time></trkpt><trkpt lat="21.785389" lon="104.915855"><ele>93.5</ele><time>2011-04-28T10:53:49.0000000+00:00</time></trkpt><trkpt lat="21.785391" lon="104.915695"><ele>94.7</ele><time>2011-04-28T10:53:54.0000000+00:00</time></trkpt><trkpt lat="21.785378" lon="104.915581"><ele>96.3</ele><time>2011-04-28T10:53:59.0000000+00:00</time></trkpt><trkpt lat="21.785328" lon="104.915436"><ele>99.1</ele><time>2011-04-28T10:54:04.0000000+00:00</time></trkpt><trkpt lat="21.785242" lon="104.91539"><ele>99.9</ele><time>2011-04-28T10:54:09.0000000+00:00</time></trkpt><trkpt lat="21.785122" lon="104.915329"><ele>100.4</ele><time>2011-04-28T10:54:14.0000000+00:00</time></trkpt><trkpt lat="21.78499" lon="104.91523"><ele>99.4</ele><time>2011-04-28T10:54:19.0000000+00:00</time></trkpt><trkpt lat="21.784882" lon="104.915176"><ele>100.7</ele><time>2011-04-28T10:54:24.0000000+00:00</time></trkpt><trkpt lat="21.784779" lon="104.915092"><ele>101.8</ele><time>2011-04-28T10:54:29.0000000+00:00</time></trkpt><trkpt lat="21.784685" lon="104.915009"><ele>100.6</ele><time>2011-04-28T10:54:34.0000000+00:00</time></trkpt><trkpt lat="21.784525" lon="104.91497"><ele>100.5</ele><time>2011-04-28T10:54:39.0000000+00:00</time></trkpt><trkpt lat="21.784321" lon="104.915039"><ele>99.8</ele><time>2011-04-28T10:54:44.0000000+00:00</time></trkpt><trkpt lat="21.784115" lon="104.915108"><ele>99.5</ele><time>2011-04-28T10:54:49.0000000+00:00</time></trkpt><trkpt lat="21.783901" lon="104.915176"><ele>99.5</ele><time>2011-04-28T10:54:54.0000000+00:00</time></trkpt><trkpt lat="21.783724" lon="104.915138"><ele>100.6</ele><time>2011-04-28T10:54:59.0000000+00:00</time></trkpt><trkpt lat="21.783552" lon="104.915054"><ele>101.2</ele><time>2011-04-28T10:55:04.0000000+00:00</time></trkpt><trkpt lat="21.783323" lon="104.915062"><ele>102.1</ele><time>2011-04-28T10:55:09.0000000+00:00</time></trkpt><trkpt lat="21.783007" lon="104.915276"><ele>102.4</ele><time>2011-04-28T10:55:14.0000000+00:00</time></trkpt><trkpt lat="21.782686" lon="104.915413"><ele>101.2</ele><time>2011-04-28T10:55:19.0000000+00:00</time></trkpt><trkpt lat="21.782351" lon="104.915474"><ele>100.2</ele><time>2011-04-28T10:55:24.0000000+00:00</time></trkpt><trkpt lat="21.782063" lon="104.915688"><ele>98.6</ele><time>2011-04-28T10:55:29.0000000+00:00</time></trkpt><trkpt lat="21.781858" lon="104.916023"><ele>100.8</ele><time>2011-04-28T10:55:34.0000000+00:00</time></trkpt><trkpt lat="21.781561" lon="104.91629"><ele>99.5</ele><time>2011-04-28T10:55:39.0000000+00:00</time></trkpt><trkpt lat="21.781155" lon="104.91629"><ele>96.9</ele><time>2011-04-28T10:55:44.0000000+00:00</time></trkpt><trkpt lat="21.780731" lon="104.916267"><ele>96.1</ele><time>2011-04-28T10:55:49.0000000+00:00</time></trkpt><trkpt lat="21.780357" lon="104.916435"><ele>95.3</ele><time>2011-04-28T10:55:54.0000000+00:00</time></trkpt><trkpt lat="21.780043" lon="104.916626"><ele>94.6</ele><time>2011-04-28T10:55:59.0000000+00:00</time></trkpt><trkpt lat="21.779766" lon="104.916809"><ele>94.3</ele><time>2011-04-28T10:56:04.0000000+00:00</time></trkpt><trkpt lat="21.779541" lon="104.917023"><ele>96.8</ele><time>2011-04-28T10:56:09.0000000+00:00</time></trkpt><trkpt lat="21.779388" lon="104.917328"><ele>97.8</ele><time>2011-04-28T10:56:14.0000000+00:00</time></trkpt><trkpt lat="21.779177" lon="104.917625"><ele>97.5</ele><time>2011-04-28T10:56:19.0000000+00:00</time></trkpt><trkpt lat="21.778896" lon="104.917809"><ele>99.3</ele><time>2011-04-28T10:56:24.0000000+00:00</time></trkpt><trkpt lat="21.778641" lon="104.917969"><ele>99.1</ele><time>2011-04-28T10:56:29.0000000+00:00</time></trkpt><trkpt lat="21.778421" lon="104.918137"><ele>99.5</ele><time>2011-04-28T10:56:34.0000000+00:00</time></trkpt><trkpt lat="21.778198" lon="104.918343"><ele>101.4</ele><time>2011-04-28T10:56:39.0000000+00:00</time></trkpt><trkpt lat="21.778" lon="104.918602"><ele>101.9</ele><time>2011-04-28T10:56:44.0000000+00:00</time></trkpt><trkpt lat="21.777817" lon="104.918877"><ele>103.2</ele><time>2011-04-28T10:56:49.0000000+00:00</time></trkpt><trkpt lat="21.777655" lon="104.919044"><ele>106.7</ele><time>2011-04-28T10:56:54.0000000+00:00</time></trkpt><trkpt lat="21.777487" lon="104.919128"><ele>111.1</ele><time>2011-04-28T10:56:59.0000000+00:00</time></trkpt><trkpt lat="21.777353" lon="104.919205"><ele>114.1</ele><time>2011-04-28T10:57:04.0000000+00:00</time></trkpt><trkpt lat="21.777214" lon="104.919319"><ele>115.6</ele><time>2011-04-28T10:57:09.0000000+00:00</time></trkpt><trkpt lat="21.777061" lon="104.919449"><ele>115.3</ele><time>2011-04-28T10:57:14.0000000+00:00</time></trkpt><trkpt lat="21.776964" lon="104.919518"><ele>113.6</ele><time>2011-04-28T10:57:19.0000000+00:00</time></trkpt><trkpt lat="21.77688" lon="104.919586"><ele>114.3</ele><time>2011-04-28T10:57:24.0000000+00:00</time></trkpt><trkpt lat="21.776781" lon="104.919632"><ele>114.4</ele><time>2011-04-28T10:57:29.0000000+00:00</time></trkpt><trkpt lat="21.776651" lon="104.919739"><ele>115.0</ele><time>2011-04-28T10:57:34.0000000+00:00</time></trkpt><trkpt lat="21.776501" lon="104.919891"><ele>114.4</ele><time>2011-04-28T10:57:39.0000000+00:00</time></trkpt><trkpt lat="21.776329" lon="104.920044"><ele>112.0</ele><time>2011-04-28T10:57:44.0000000+00:00</time></trkpt><trkpt lat="21.776121" lon="104.920197"><ele>109.0</ele><time>2011-04-28T10:57:49.0000000+00:00</time></trkpt><trkpt lat="21.77585" lon="104.920372"><ele>103.5</ele><time>2011-04-28T10:57:54.0000000+00:00</time></trkpt><trkpt lat="21.775591" lon="104.920517"><ele>99.6</ele><time>2011-04-28T10:57:59.0000000+00:00</time></trkpt><trkpt lat="21.775324" lon="104.920685"><ele>95.7</ele><time>2011-04-28T10:58:04.0000000+00:00</time></trkpt><trkpt lat="21.775024" lon="104.920845"><ele>92.4</ele><time>2011-04-28T10:58:09.0000000+00:00</time></trkpt><trkpt lat="21.774725" lon="104.920998"><ele>91.5</ele><time>2011-04-28T10:58:14.0000000+00:00</time></trkpt><trkpt lat="21.774437" lon="104.921188"><ele>85.2</ele><time>2011-04-28T10:58:19.0000000+00:00</time></trkpt><trkpt lat="21.774223" lon="104.921394"><ele>86.4</ele><time>2011-04-28T10:58:24.0000000+00:00</time></trkpt><trkpt lat="21.773939" lon="104.921524"><ele>82.4</ele><time>2011-04-28T10:58:29.0000000+00:00</time></trkpt><trkpt lat="21.773602" lon="104.921547"><ele>78.8</ele><time>2011-04-28T10:58:34.0000000+00:00</time></trkpt><trkpt lat="21.773361" lon="104.92141"><ele>76.6</ele><time>2011-04-28T10:58:39.0000000+00:00</time></trkpt><trkpt lat="21.773193" lon="104.921127"><ele>76.5</ele><time>2011-04-28T10:58:44.0000000+00:00</time></trkpt><trkpt lat="21.773022" lon="104.920891"><ele>77.4</ele><time>2011-04-28T10:58:49.0000000+00:00</time></trkpt><trkpt lat="21.77286" lon="104.920723"><ele>77.6</ele><time>2011-04-28T10:58:54.0000000+00:00</time></trkpt><trkpt lat="21.772676" lon="104.920647"><ele>77.3</ele><time>2011-04-28T10:58:59.0000000+00:00</time></trkpt><trkpt lat="21.772448" lon="104.92054"><ele>76.0</ele><time>2011-04-28T10:59:04.0000000+00:00</time></trkpt><trkpt lat="21.772203" lon="104.920502"><ele>75.8</ele><time>2011-04-28T10:59:09.0000000+00:00</time></trkpt><trkpt lat="21.772018" lon="104.920547"><ele>76.0</ele><time>2011-04-28T10:59:14.0000000+00:00</time></trkpt><trkpt lat="21.771868" lon="104.92057"><ele>77.2</ele><time>2011-04-28T10:59:19.0000000+00:00</time></trkpt><trkpt lat="21.771746" lon="104.920677"><ele>79.7</ele><time>2011-04-28T10:59:24.0000000+00:00</time></trkpt><trkpt lat="21.771624" lon="104.920868"><ele>84.4</ele><time>2011-04-28T10:59:29.0000000+00:00</time></trkpt><trkpt lat="21.771521" lon="104.921021"><ele>87.0</ele><time>2011-04-28T10:59:34.0000000+00:00</time></trkpt><trkpt lat="21.7714" lon="104.921104"><ele>88.3</ele><time>2011-04-28T10:59:39.0000000+00:00</time></trkpt><trkpt lat="21.771252" lon="104.921104"><ele>88.2</ele><time>2011-04-28T10:59:44.0000000+00:00</time></trkpt><trkpt lat="21.771132" lon="104.921066"><ele>88.8</ele><time>2011-04-28T10:59:49.0000000+00:00</time></trkpt><trkpt lat="21.771059" lon="104.921028"><ele>88.4</ele><time>2011-04-28T10:59:54.0000000+00:00</time></trkpt><trkpt lat="21.771019" lon="104.921005"><ele>88.0</ele><time>2011-04-28T10:59:59.0000000+00:00</time></trkpt><trkpt lat="21.771019" lon="104.921005"><ele>87.9</ele><time>2011-04-28T11:00:04.0000000+00:00</time></trkpt><trkpt lat="21.771021" lon="104.921005"><ele>88.0</ele><time>2011-04-28T11:00:09.0000000+00:00</time></trkpt><trkpt lat="21.771019" lon="104.92099"><ele>88.0</ele><time>2011-04-28T11:00:14.0000000+00:00</time></trkpt><trkpt lat="21.771017" lon="104.920975"><ele>88.0</ele><time>2011-04-28T11:00:19.0000000+00:00</time></trkpt><trkpt lat="21.771015" lon="104.920975"><ele>88.1</ele><time>2011-04-28T11:00:24.0000000+00:00</time></trkpt><trkpt lat="21.771015" lon="104.920975"><ele>88.0</ele><time>2011-04-28T11:00:29.0000000+00:00</time></trkpt><trkpt lat="21.771013" lon="104.920975"><ele>88.0</ele><time>2011-04-28T11:00:34.0000000+00:00</time></trkpt><trkpt lat="21.771015" lon="104.920967"><ele>88.0</ele><time>2011-04-28T11:00:39.0000000+00:00</time></trkpt><trkpt lat="21.771019" lon="104.920967"><ele>88.0</ele><time>2011-04-28T11:00:44.0000000+00:00</time></trkpt><trkpt lat="21.771017" lon="104.920959"><ele>88.0</ele><time>2011-04-28T11:00:49.0000000+00:00</time></trkpt><trkpt lat="21.771017" lon="104.920952"><ele>88.0</ele><time>2011-04-28T11:00:54.0000000+00:00</time></trkpt><trkpt lat="21.770987" lon="104.920937"><ele>87.9</ele><time>2011-04-28T11:00:59.0000000+00:00</time></trkpt><trkpt lat="21.770773" lon="104.920906"><ele>87.0</ele><time>2011-04-28T11:01:04.0000000+00:00</time></trkpt><trkpt lat="21.770517" lon="104.920952"><ele>86.1</ele><time>2011-04-28T11:01:09.0000000+00:00</time></trkpt><trkpt lat="21.77025" lon="104.921059"><ele>84.7</ele><time>2011-04-28T11:01:14.0000000+00:00</time></trkpt><trkpt lat="21.770002" lon="104.921249"><ele>84.4</ele><time>2011-04-28T11:01:19.0000000+00:00</time></trkpt><trkpt lat="21.769779" lon="104.921425"><ele>83.0</ele><time>2011-04-28T11:01:24.0000000+00:00</time></trkpt><trkpt lat="21.76955" lon="104.921524"><ele>81.6</ele><time>2011-04-28T11:01:29.0000000+00:00</time></trkpt><trkpt lat="21.769335" lon="104.921539"><ele>82.0</ele><time>2011-04-28T11:01:34.0000000+00:00</time></trkpt><trkpt lat="21.769068" lon="104.92157"><ele>82.5</ele><time>2011-04-28T11:01:39.0000000+00:00</time></trkpt><trkpt lat="21.768847" lon="104.921631"><ele>81.7</ele><time>2011-04-28T11:01:44.0000000+00:00</time></trkpt><trkpt lat="21.768637" lon="104.92173"><ele>82.1</ele><time>2011-04-28T11:01:49.0000000+00:00</time></trkpt><trkpt lat="21.768444" lon="104.921814"><ele>84.9</ele><time>2011-04-28T11:01:54.0000000+00:00</time></trkpt><trkpt lat="21.768238" lon="104.921875"><ele>88.3</ele><time>2011-04-28T11:01:59.0000000+00:00</time></trkpt><trkpt lat="21.768053" lon="104.921906"><ele>93.2</ele><time>2011-04-28T11:02:04.0000000+00:00</time></trkpt><trkpt lat="21.767893" lon="104.921982"><ele>97.1</ele><time>2011-04-28T11:02:09.0000000+00:00</time></trkpt><trkpt lat="21.767775" lon="104.922165"><ele>103.7</ele><time>2011-04-28T11:02:14.0000000+00:00</time></trkpt><trkpt lat="21.767633" lon="104.922333"><ele>104.7</ele><time>2011-04-28T11:02:19.0000000+00:00</time></trkpt><trkpt lat="21.767513" lon="104.922379"><ele>106.3</ele><time>2011-04-28T11:02:24.0000000+00:00</time></trkpt><trkpt lat="21.767397" lon="104.922432"><ele>104.0</ele><time>2011-04-28T11:02:29.0000000+00:00</time></trkpt><trkpt lat="21.767262" lon="104.92247"><ele>102.4</ele><time>2011-04-28T11:02:34.0000000+00:00</time></trkpt><trkpt lat="21.767136" lon="104.922531"><ele>104.0</ele><time>2011-04-28T11:02:39.0000000+00:00</time></trkpt><trkpt lat="21.767038" lon="104.922569"><ele>106.2</ele><time>2011-04-28T11:02:44.0000000+00:00</time></trkpt><trkpt lat="21.766895" lon="104.922646"><ele>108.0</ele><time>2011-04-28T11:02:49.0000000+00:00</time></trkpt><trkpt lat="21.766708" lon="104.922707"><ele>108.7</ele><time>2011-04-28T11:02:54.0000000+00:00</time></trkpt><trkpt lat="21.766554" lon="104.922798"><ele>108.6</ele><time>2011-04-28T11:02:59.0000000+00:00</time></trkpt><trkpt lat="21.766314" lon="104.92289"><ele>108.7</ele><time>2011-04-28T11:03:04.0000000+00:00</time></trkpt><trkpt lat="21.766014" lon="104.923035"><ele>106.3</ele><time>2011-04-28T11:03:09.0000000+00:00</time></trkpt><trkpt lat="21.765718" lon="104.923195"><ele>103.2</ele><time>2011-04-28T11:03:14.0000000+00:00</time></trkpt><trkpt lat="21.7654" lon="104.923317"><ele>99.0</ele><time>2011-04-28T11:03:19.0000000+00:00</time></trkpt><trkpt lat="21.765162" lon="104.923317"><ele>97.9</ele><time>2011-04-28T11:03:24.0000000+00:00</time></trkpt><trkpt lat="21.764957" lon="104.923271"><ele>94.5</ele><time>2011-04-28T11:03:29.0000000+00:00</time></trkpt><trkpt lat="21.764763" lon="104.923233"><ele>94.8</ele><time>2011-04-28T11:03:34.0000000+00:00</time></trkpt><trkpt lat="21.764597" lon="104.923164"><ele>93.2</ele><time>2011-04-28T11:03:39.0000000+00:00</time></trkpt><trkpt lat="21.764437" lon="104.923134"><ele>93.3</ele><time>2011-04-28T11:03:44.0000000+00:00</time></trkpt><trkpt lat="21.764278" lon="104.923134"><ele>93.3</ele><time>2011-04-28T11:03:49.0000000+00:00</time></trkpt><trkpt lat="21.764097" lon="104.923157"><ele>93.4</ele><time>2011-04-28T11:03:54.0000000+00:00</time></trkpt><trkpt lat="21.76387" lon="104.923264"><ele>93.2</ele><time>2011-04-28T11:03:59.0000000+00:00</time></trkpt><trkpt lat="21.763733" lon="104.923431"><ele>97.7</ele><time>2011-04-28T11:04:04.0000000+00:00</time></trkpt><trkpt lat="21.763622" lon="104.923653"><ele>100.4</ele><time>2011-04-28T11:04:09.0000000+00:00</time></trkpt><trkpt lat="21.763485" lon="104.923851"><ele>101.9</ele><time>2011-04-28T11:04:14.0000000+00:00</time></trkpt><trkpt lat="21.763367" lon="104.923996"><ele>104.9</ele><time>2011-04-28T11:04:19.0000000+00:00</time></trkpt><trkpt lat="21.763273" lon="104.924164"><ele>107.2</ele><time>2011-04-28T11:04:24.0000000+00:00</time></trkpt><trkpt lat="21.763227" lon="104.924408"><ele>109.0</ele><time>2011-04-28T11:04:29.0000000+00:00</time></trkpt><trkpt lat="21.763208" lon="104.924667"><ele>109.1</ele><time>2011-04-28T11:04:34.0000000+00:00</time></trkpt><trkpt lat="21.763212" lon="104.92495"><ele>105.6</ele><time>2011-04-28T11:04:39.0000000+00:00</time></trkpt><trkpt lat="21.763203" lon="104.92524"><ele>102.8</ele><time>2011-04-28T11:04:44.0000000+00:00</time></trkpt><trkpt lat="21.763103" lon="104.925568"><ele>94.7</ele><time>2011-04-28T11:04:49.0000000+00:00</time></trkpt><trkpt lat="21.762968" lon="104.925888"><ele>91.8</ele><time>2011-04-28T11:04:54.0000000+00:00</time></trkpt><trkpt lat="21.762848" lon="104.926224"><ele>90.1</ele><time>2011-04-28T11:04:59.0000000+00:00</time></trkpt><trkpt lat="21.762724" lon="104.92662"><ele>84.5</ele><time>2011-04-28T11:05:04.0000000+00:00</time></trkpt><trkpt lat="21.762619" lon="104.92701"><ele>79.1</ele><time>2011-04-28T11:05:09.0000000+00:00</time></trkpt><trkpt lat="21.762524" lon="104.927544"><ele>72.1</ele><time>2011-04-28T11:05:14.0000000+00:00</time></trkpt><trkpt lat="21.762381" lon="104.928101"><ele>66.6</ele><time>2011-04-28T11:05:19.0000000+00:00</time></trkpt><trkpt lat="21.762167" lon="104.928558"><ele>62.4</ele><time>2011-04-28T11:05:24.0000000+00:00</time></trkpt><trkpt lat="21.76189" lon="104.928902"><ele>61.4</ele><time>2011-04-28T11:05:29.0000000+00:00</time></trkpt><trkpt lat="21.761623" lon="104.929199"><ele>59.8</ele><time>2011-04-28T11:05:34.0000000+00:00</time></trkpt><trkpt lat="21.761448" lon="104.929459"><ele>57.2</ele><time>2011-04-28T11:05:39.0000000+00:00</time></trkpt><trkpt lat="21.761372" lon="104.929787"><ele>56.3</ele><time>2011-04-28T11:05:44.0000000+00:00</time></trkpt><trkpt lat="21.761381" lon="104.930145"><ele>56.6</ele><time>2011-04-28T11:05:49.0000000+00:00</time></trkpt><trkpt lat="21.76145" lon="104.930504"><ele>62.5</ele><time>2011-04-28T11:05:54.0000000+00:00</time></trkpt><trkpt lat="21.761496" lon="104.930779"><ele>68.1</ele><time>2011-04-28T11:05:59.0000000+00:00</time></trkpt><trkpt lat="21.76152" lon="104.931061"><ele>70.9</ele><time>2011-04-28T11:06:04.0000000+00:00</time></trkpt><trkpt lat="21.761494" lon="104.931351"><ele>69.6</ele><time>2011-04-28T11:06:09.0000000+00:00</time></trkpt><trkpt lat="21.761433" lon="104.931587"><ele>66.3</ele><time>2011-04-28T11:06:14.0000000+00:00</time></trkpt><trkpt lat="21.761456" lon="104.931801"><ele>67.5</ele><time>2011-04-28T11:06:19.0000000+00:00</time></trkpt><trkpt lat="21.761402" lon="104.931892"><ele>70.8</ele><time>2011-04-28T11:06:24.0000000+00:00</time></trkpt><trkpt lat="21.761333" lon="104.932137"><ele>81.8</ele><time>2011-04-28T11:06:29.0000000+00:00</time></trkpt><trkpt lat="21.761232" lon="104.932335"><ele>87.9</ele><time>2011-04-28T11:06:34.0000000+00:00</time></trkpt><trkpt lat="21.761108" lon="104.932503"><ele>92.6</ele><time>2011-04-28T11:06:39.0000000+00:00</time></trkpt><trkpt lat="21.760946" lon="104.932732"><ele>96.6</ele><time>2011-04-28T11:06:44.0000000+00:00</time></trkpt><trkpt lat="21.760845" lon="104.932823"><ele>102.0</ele><time>2011-04-28T11:06:49.0000000+00:00</time></trkpt><trkpt lat="21.760803" lon="104.932899"><ele>104.9</ele><time>2011-04-28T11:06:54.0000000+00:00</time></trkpt><trkpt lat="21.760773" lon="104.932945"><ele>106.2</ele><time>2011-04-28T11:06:59.0000000+00:00</time></trkpt><trkpt lat="21.760693" lon="104.933075"><ele>107.6</ele><time>2011-04-28T11:07:04.0000000+00:00</time></trkpt><trkpt lat="21.760586" lon="104.933228"><ele>109.5</ele><time>2011-04-28T11:07:09.0000000+00:00</time></trkpt><trkpt lat="21.760452" lon="104.933372"><ele>112.4</ele><time>2011-04-28T11:07:14.0000000+00:00</time></trkpt><trkpt lat="21.760347" lon="104.933556"><ele>112.2</ele><time>2011-04-28T11:07:19.0000000+00:00</time></trkpt><trkpt lat="21.760256" lon="104.933708"><ele>111.5</ele><time>2011-04-28T11:07:24.0000000+00:00</time></trkpt><trkpt lat="21.76016" lon="104.933792"><ele>107.7</ele><time>2011-04-28T11:07:29.0000000+00:00</time></trkpt><trkpt lat="21.759983" lon="104.93383"><ele>103.5</ele><time>2011-04-28T11:07:34.0000000+00:00</time></trkpt><trkpt lat="21.759773" lon="104.933891"><ele>101.2</ele><time>2011-04-28T11:07:39.0000000+00:00</time></trkpt><trkpt lat="21.759674" lon="104.933922"><ele>92.6</ele><time>2011-04-28T11:07:44.0000000+00:00</time></trkpt><trkpt lat="21.759666" lon="104.933937"><ele>92.1</ele><time>2011-04-28T11:07:49.0000000+00:00</time></trkpt><trkpt lat="21.759666" lon="104.933929"><ele>92.0</ele><time>2011-04-28T11:07:54.0000000+00:00</time></trkpt><trkpt lat="21.759657" lon="104.933945"><ele>91.4</ele><time>2011-04-28T11:07:59.0000000+00:00</time></trkpt><trkpt lat="21.759592" lon="104.934013"><ele>87.3</ele><time>2011-04-28T11:08:04.0000000+00:00</time></trkpt><trkpt lat="21.759504" lon="104.934082"><ele>83.8</ele><time>2011-04-28T11:08:09.0000000+00:00</time></trkpt><trkpt lat="21.75943" lon="104.93412"><ele>81.1</ele><time>2011-04-28T11:08:14.0000000+00:00</time></trkpt><trkpt lat="21.759415" lon="104.934151"><ele>79.7</ele><time>2011-04-28T11:08:19.0000000+00:00</time></trkpt><trkpt lat="21.759293" lon="104.934242"><ele>79.5</ele><time>2011-04-28T11:08:24.0000000+00:00</time></trkpt><trkpt lat="21.759144" lon="104.934303"><ele>81.0</ele><time>2011-04-28T11:08:29.0000000+00:00</time></trkpt><trkpt lat="21.758913" lon="104.934448"><ele>82.0</ele><time>2011-04-28T11:08:34.0000000+00:00</time></trkpt><trkpt lat="21.758724" lon="104.934608"><ele>83.6</ele><time>2011-04-28T11:08:39.0000000+00:00</time></trkpt><trkpt lat="21.758524" lon="104.934792"><ele>85.3</ele><time>2011-04-28T11:08:44.0000000+00:00</time></trkpt><trkpt lat="21.758347" lon="104.935005"><ele>86.8</ele><time>2011-04-28T11:08:49.0000000+00:00</time></trkpt><trkpt lat="21.758181" lon="104.935196"><ele>88.2</ele><time>2011-04-28T11:08:54.0000000+00:00</time></trkpt><trkpt lat="21.757954" lon="104.935364"><ele>88.7</ele><time>2011-04-28T11:08:59.0000000+00:00</time></trkpt><trkpt lat="21.757696" lon="104.935516"><ele>89.3</ele><time>2011-04-28T11:09:04.0000000+00:00</time></trkpt><trkpt lat="21.757494" lon="104.935677"><ele>90.1</ele><time>2011-04-28T11:09:09.0000000+00:00</time></trkpt><trkpt lat="21.757364" lon="104.935921"><ele>90.8</ele><time>2011-04-28T11:09:14.0000000+00:00</time></trkpt><trkpt lat="21.757175" lon="104.936226"><ele>92.4</ele><time>2011-04-28T11:09:19.0000000+00:00</time></trkpt><trkpt lat="21.756941" lon="104.936447"><ele>94.7</ele><time>2011-04-28T11:09:24.0000000+00:00</time></trkpt><trkpt lat="21.756701" lon="104.936668"><ele>96.8</ele><time>2011-04-28T11:09:29.0000000+00:00</time></trkpt><trkpt lat="21.756531" lon="104.936882"><ele>98.1</ele><time>2011-04-28T11:09:34.0000000+00:00</time></trkpt><trkpt lat="21.756386" lon="104.937134"><ele>99.7</ele><time>2011-04-28T11:09:39.0000000+00:00</time></trkpt><trkpt lat="21.756189" lon="104.937416"><ele>101.0</ele><time>2011-04-28T11:09:44.0000000+00:00</time></trkpt><trkpt lat="21.756018" lon="104.937645"><ele>102.9</ele><time>2011-04-28T11:09:49.0000000+00:00</time></trkpt><trkpt lat="21.755825" lon="104.937912"><ele>103.9</ele><time>2011-04-28T11:09:54.0000000+00:00</time></trkpt><trkpt lat="21.755606" lon="104.938118"><ele>105.4</ele><time>2011-04-28T11:09:59.0000000+00:00</time></trkpt><trkpt lat="21.755339" lon="104.93824"><ele>106.5</ele><time>2011-04-28T11:10:04.0000000+00:00</time></trkpt><trkpt lat="21.7551" lon="104.938385"><ele>107.5</ele><time>2011-04-28T11:10:09.0000000+00:00</time></trkpt><trkpt lat="21.754875" lon="104.938644"><ele>108.6</ele><time>2011-04-28T11:10:14.0000000+00:00</time></trkpt><trkpt lat="21.754734" lon="104.938873"><ele>109.5</ele><time>2011-04-28T11:10:19.0000000+00:00</time></trkpt><trkpt lat="21.754574" lon="104.939087"><ele>109.7</ele><time>2011-04-28T11:10:24.0000000+00:00</time></trkpt><trkpt lat="21.75433" lon="104.939293"><ele>108.1</ele><time>2011-04-28T11:10:29.0000000+00:00</time></trkpt><trkpt lat="21.753939" lon="104.939438"><ele>105.3</ele><time>2011-04-28T11:10:34.0000000+00:00</time></trkpt><trkpt lat="21.753618" lon="104.939461"><ele>98.9</ele><time>2011-04-28T11:10:39.0000000+00:00</time></trkpt><trkpt lat="21.75333" lon="104.939476"><ele>97.5</ele><time>2011-04-28T11:10:44.0000000+00:00</time></trkpt><trkpt lat="21.753077" lon="104.939499"><ele>96.9</ele><time>2011-04-28T11:10:49.0000000+00:00</time></trkpt><trkpt lat="21.752869" lon="104.939545"><ele>95.1</ele><time>2011-04-28T11:10:54.0000000+00:00</time></trkpt><trkpt lat="21.752617" lon="104.93956"><ele>93.4</ele><time>2011-04-28T11:10:59.0000000+00:00</time></trkpt><trkpt lat="21.752407" lon="104.939629"><ele>92.1</ele><time>2011-04-28T11:11:04.0000000+00:00</time></trkpt><trkpt lat="21.752218" lon="104.939713"><ele>92.1</ele><time>2011-04-28T11:11:09.0000000+00:00</time></trkpt><trkpt lat="21.751974" lon="104.939751"><ele>89.3</ele><time>2011-04-28T11:11:14.0000000+00:00</time></trkpt><trkpt lat="21.751667" lon="104.939728"><ele>81.7</ele><time>2011-04-28T11:11:19.0000000+00:00</time></trkpt><trkpt lat="21.751354" lon="104.939705"><ele>77.1</ele><time>2011-04-28T11:11:24.0000000+00:00</time></trkpt><trkpt lat="21.75103" lon="104.939819"><ele>73.7</ele><time>2011-04-28T11:11:29.0000000+00:00</time></trkpt><trkpt lat="21.750704" lon="104.939896"><ele>72.1</ele><time>2011-04-28T11:11:34.0000000+00:00</time></trkpt><trkpt lat="21.750402" lon="104.939903"><ele>69.9</ele><time>2011-04-28T11:11:39.0000000+00:00</time></trkpt><trkpt lat="21.750128" lon="104.939819"><ele>68.6</ele><time>2011-04-28T11:11:44.0000000+00:00</time></trkpt><trkpt lat="21.749897" lon="104.939766"><ele>66.5</ele><time>2011-04-28T11:11:49.0000000+00:00</time></trkpt><trkpt lat="21.749706" lon="104.93969"><ele>65.6</ele><time>2011-04-28T11:11:54.0000000+00:00</time></trkpt><trkpt lat="21.74946" lon="104.939522"><ele>64.3</ele><time>2011-04-28T11:11:59.0000000+00:00</time></trkpt><trkpt lat="21.749241" lon="104.939316"><ele>63.2</ele><time>2011-04-28T11:12:04.0000000+00:00</time></trkpt><trkpt lat="21.749084" lon="104.939178"><ele>62.5</ele><time>2011-04-28T11:12:09.0000000+00:00</time></trkpt><trkpt lat="21.748943" lon="104.939056"><ele>63.1</ele><time>2011-04-28T11:12:14.0000000+00:00</time></trkpt><trkpt lat="21.748873" lon="104.938889"><ele>63.9</ele><time>2011-04-28T11:12:19.0000000+00:00</time></trkpt><trkpt lat="21.74885" lon="104.938698"><ele>63.1</ele><time>2011-04-28T11:12:24.0000000+00:00</time></trkpt><trkpt lat="21.748795" lon="104.938568"><ele>63.3</ele><time>2011-04-28T11:12:29.0000000+00:00</time></trkpt><trkpt lat="21.748735" lon="104.938507"><ele>63.4</ele><time>2011-04-28T11:12:34.0000000+00:00</time></trkpt><trkpt lat="21.748724" lon="104.938499"><ele>63.9</ele><time>2011-04-28T11:12:39.0000000+00:00</time></trkpt><trkpt lat="21.74872" lon="104.938492"><ele>64.1</ele><time>2011-04-28T11:12:44.0000000+00:00</time></trkpt><trkpt lat="21.748579" lon="104.938423"><ele>62.7</ele><time>2011-04-28T11:12:49.0000000+00:00</time></trkpt><trkpt lat="21.748301" lon="104.938347"><ele>61.9</ele><time>2011-04-28T11:12:54.0000000+00:00</time></trkpt><trkpt lat="21.74807" lon="104.938248"><ele>62.5</ele><time>2011-04-28T11:12:59.0000000+00:00</time></trkpt><trkpt lat="21.747866" lon="104.938148"><ele>63.2</ele><time>2011-04-28T11:13:04.0000000+00:00</time></trkpt><trkpt lat="21.747633" lon="104.938065"><ele>63.5</ele><time>2011-04-28T11:13:09.0000000+00:00</time></trkpt><trkpt lat="21.747446" lon="104.937988"><ele>63.9</ele><time>2011-04-28T11:13:14.0000000+00:00</time></trkpt><trkpt lat="21.747234" lon="104.937912"><ele>64.2</ele><time>2011-04-28T11:13:19.0000000+00:00</time></trkpt><trkpt lat="21.747034" lon="104.937851"><ele>64.3</ele><time>2011-04-28T11:13:24.0000000+00:00</time></trkpt><trkpt lat="21.746805" lon="104.937889"><ele>64.2</ele><time>2011-04-28T11:13:29.0000000+00:00</time></trkpt><trkpt lat="21.746588" lon="104.938004"><ele>63.9</ele><time>2011-04-28T11:13:34.0000000+00:00</time></trkpt><trkpt lat="21.746386" lon="104.93811"><ele>64.2</ele><time>2011-04-28T11:13:39.0000000+00:00</time></trkpt><trkpt lat="21.746181" lon="104.938225"><ele>65.6</ele><time>2011-04-28T11:13:44.0000000+00:00</time></trkpt><trkpt lat="21.74597" lon="104.938278"><ele>68.1</ele><time>2011-04-28T11:13:49.0000000+00:00</time></trkpt><trkpt lat="21.745901" lon="104.938362"><ele>69.4</ele><time>2011-04-28T11:13:54.0000000+00:00</time></trkpt><trkpt lat="21.745825" lon="104.93853"><ele>69.7</ele><time>2011-04-28T11:13:59.0000000+00:00</time></trkpt><trkpt lat="21.745762" lon="104.938774"><ele>69.3</ele><time>2011-04-28T11:14:04.0000000+00:00</time></trkpt><trkpt lat="21.745714" lon="104.939056"><ele>68.9</ele><time>2011-04-28T11:14:09.0000000+00:00</time></trkpt><trkpt lat="21.745621" lon="104.939285"><ele>69.2</ele><time>2011-04-28T11:14:14.0000000+00:00</time></trkpt><trkpt lat="21.745533" lon="104.939537"><ele>70.1</ele><time>2011-04-28T11:14:19.0000000+00:00</time></trkpt><trkpt lat="21.745567" lon="104.939865"><ele>72.9</ele><time>2011-04-28T11:14:24.0000000+00:00</time></trkpt><trkpt lat="21.745661" lon="104.940132"><ele>75.9</ele><time>2011-04-28T11:14:29.0000000+00:00</time></trkpt><trkpt lat="21.745787" lon="104.940353"><ele>75.5</ele><time>2011-04-28T11:14:34.0000000+00:00</time></trkpt><trkpt lat="21.745955" lon="104.940536"><ele>73.1</ele><time>2011-04-28T11:14:39.0000000+00:00</time></trkpt><trkpt lat="21.746054" lon="104.940681"><ele>72.5</ele><time>2011-04-28T11:14:44.0000000+00:00</time></trkpt><trkpt lat="21.746092" lon="104.940773"><ele>71.6</ele><time>2011-04-28T11:14:49.0000000+00:00</time></trkpt><trkpt lat="21.746096" lon="104.940773"><ele>70.3</ele><time>2011-04-28T11:14:54.0000000+00:00</time></trkpt><trkpt lat="21.746096" lon="104.940773"><ele>70.1</ele><time>2011-04-28T11:14:59.0000000+00:00</time></trkpt><trkpt lat="21.746096" lon="104.940773"><ele>70.1</ele><time>2011-04-28T11:15:04.0000000+00:00</time></trkpt><trkpt lat="21.746096" lon="104.940773"><ele>70.0</ele><time>2011-04-28T11:15:09.0000000+00:00</time></trkpt><trkpt lat="21.746098" lon="104.940765"><ele>70.2</ele><time>2011-04-28T11:15:14.0000000+00:00</time></trkpt><trkpt lat="21.746098" lon="104.940765"><ele>70.2</ele><time>2011-04-28T11:15:19.0000000+00:00</time></trkpt><trkpt lat="21.746098" lon="104.940765"><ele>70.2</ele><time>2011-04-28T11:15:24.0000000+00:00</time></trkpt><trkpt lat="21.746098" lon="104.940765"><ele>70.2</ele><time>2011-04-28T11:15:29.0000000+00:00</time></trkpt><trkpt lat="21.746098" lon="104.940765"><ele>70.2</ele><time>2011-04-28T11:15:34.0000000+00:00</time></trkpt><trkpt lat="21.746098" lon="104.940765"><ele>70.2</ele><time>2011-04-28T11:15:39.0000000+00:00</time></trkpt><trkpt lat="21.746098" lon="104.940765"><ele>70.2</ele><time>2011-04-28T11:15:44.0000000+00:00</time></trkpt><trkpt lat="21.746098" lon="104.940765"><ele>70.2</ele><time>2011-04-28T11:15:49.0000000+00:00</time></trkpt><trkpt lat="21.746098" lon="104.940765"><ele>70.2</ele><time>2011-04-28T11:15:54.0000000+00:00</time></trkpt><trkpt lat="21.746098" lon="104.940765"><ele>70.2</ele><time>2011-04-28T11:15:59.0000000+00:00</time></trkpt><trkpt lat="21.746098" lon="104.940765"><ele>70.3</ele><time>2011-04-28T11:16:04.0000000+00:00</time></trkpt><trkpt lat="21.746098" lon="104.940765"><ele>70.3</ele><time>2011-04-28T11:16:09.0000000+00:00</time></trkpt><trkpt lat="21.746098" lon="104.940765"><ele>70.3</ele><time>2011-04-28T11:16:14.0000000+00:00</time></trkpt><trkpt lat="21.746098" lon="104.940765"><ele>70.3</ele><time>2011-04-28T11:16:19.0000000+00:00</time></trkpt><trkpt lat="21.746098" lon="104.940765"><ele>70.3</ele><time>2011-04-28T11:16:24.0000000+00:00</time></trkpt><trkpt lat="21.746098" lon="104.940765"><ele>70.4</ele><time>2011-04-28T11:16:29.0000000+00:00</time></trkpt><trkpt lat="21.746098" lon="104.940765"><ele>70.4</ele><time>2011-04-28T11:16:34.0000000+00:00</time></trkpt><trkpt lat="21.746086" lon="104.940773"><ele>70.4</ele><time>2011-04-28T11:16:39.0000000+00:00</time></trkpt><trkpt lat="21.746069" lon="104.940773"><ele>71.0</ele><time>2011-04-28T11:16:44.0000000+00:00</time></trkpt><trkpt lat="21.746054" lon="104.940773"><ele>71.6</ele><time>2011-04-28T11:16:49.0000000+00:00</time></trkpt><trkpt lat="21.746046" lon="104.940781"><ele>72.6</ele><time>2011-04-28T11:16:54.0000000+00:00</time></trkpt><trkpt lat="21.746073" lon="104.940781"><ele>72.5</ele><time>2011-04-28T11:16:59.0000000+00:00</time></trkpt><trkpt lat="21.746065" lon="104.940796"><ele>72.2</ele><time>2011-04-28T11:17:04.0000000+00:00</time></trkpt><trkpt lat="21.746054" lon="104.940811"><ele>71.5</ele><time>2011-04-28T11:17:09.0000000+00:00</time></trkpt><trkpt lat="21.746054" lon="104.940811"><ele>71.1</ele><time>2011-04-28T11:17:14.0000000+00:00</time></trkpt><trkpt lat="21.746078" lon="104.940804"><ele>70.5</ele><time>2011-04-28T11:17:19.0000000+00:00</time></trkpt><trkpt lat="21.746094" lon="104.940796"><ele>70.4</ele><time>2011-04-28T11:17:24.0000000+00:00</time></trkpt><trkpt lat="21.746099" lon="104.940788"><ele>70.2</ele><time>2011-04-28T11:17:29.0000000+00:00</time></trkpt><trkpt lat="21.746101" lon="104.940788"><ele>70.2</ele><time>2011-04-28T11:17:34.0000000+00:00</time></trkpt><trkpt lat="21.746099" lon="104.940804"><ele>68.5</ele><time>2011-04-28T11:17:39.0000000+00:00</time></trkpt><trkpt lat="21.746117" lon="104.940849"><ele>67.9</ele><time>2011-04-28T11:17:44.0000000+00:00</time></trkpt><trkpt lat="21.746149" lon="104.940941"><ele>67.8</ele><time>2011-04-28T11:17:49.0000000+00:00</time></trkpt><trkpt lat="21.74618" lon="104.94104"><ele>68.5</ele><time>2011-04-28T11:17:54.0000000+00:00</time></trkpt><trkpt lat="21.74617" lon="104.941101"><ele>69.1</ele><time>2011-04-28T11:17:59.0000000+00:00</time></trkpt><trkpt lat="21.746159" lon="104.941139"><ele>69.4</ele><time>2011-04-28T11:18:04.0000000+00:00</time></trkpt><trkpt lat="21.746162" lon="104.94117"><ele>69.6</ele><time>2011-04-28T11:18:09.0000000+00:00</time></trkpt><trkpt lat="21.746195" lon="104.941154"><ele>71.1</ele><time>2011-04-28T11:18:14.0000000+00:00</time></trkpt><trkpt lat="21.746159" lon="104.941185"><ele>73.7</ele><time>2011-04-28T11:18:19.0000000+00:00</time></trkpt><trkpt lat="21.746151" lon="104.941216"><ele>75.1</ele><time>2011-04-28T11:18:24.0000000+00:00</time></trkpt><trkpt lat="21.746138" lon="104.941246"><ele>76.3</ele><time>2011-04-28T11:18:29.0000000+00:00</time></trkpt><trkpt lat="21.746161" lon="104.941284"><ele>77.4</ele><time>2011-04-28T11:18:34.0000000+00:00</time></trkpt><trkpt lat="21.746164" lon="104.941299"><ele>78.1</ele><time>2011-04-28T11:18:39.0000000+00:00</time></trkpt><trkpt lat="21.746162" lon="104.94133"><ele>79.1</ele><time>2011-04-28T11:18:44.0000000+00:00</time></trkpt><trkpt lat="21.746145" lon="104.941368"><ele>79.6</ele><time>2011-04-28T11:18:49.0000000+00:00</time></trkpt><trkpt lat="21.74613" lon="104.941414"><ele>80.0</ele><time>2011-04-28T11:18:54.0000000+00:00</time></trkpt><trkpt lat="21.74614" lon="104.941406"><ele>80.1</ele><time>2011-04-28T11:18:59.0000000+00:00</time></trkpt><trkpt lat="21.746143" lon="104.941383"><ele>80.0</ele><time>2011-04-28T11:19:04.0000000+00:00</time></trkpt><trkpt lat="21.746143" lon="104.941391"><ele>80.1</ele><time>2011-04-28T11:19:09.0000000+00:00</time></trkpt><trkpt lat="21.746147" lon="104.941383"><ele>80.1</ele><time>2011-04-28T11:19:14.0000000+00:00</time></trkpt><trkpt lat="21.746153" lon="104.941383"><ele>80.1</ele><time>2011-04-28T11:19:19.0000000+00:00</time></trkpt><trkpt lat="21.746162" lon="104.941383"><ele>80.1</ele><time>2011-04-28T11:19:24.0000000+00:00</time></trkpt><trkpt lat="21.746183" lon="104.94136"><ele>80.0</ele><time>2011-04-28T11:19:29.0000000+00:00</time></trkpt><trkpt lat="21.746214" lon="104.941315"><ele>79.8</ele><time>2011-04-28T11:19:34.0000000+00:00</time></trkpt><trkpt lat="21.746208" lon="104.941345"><ele>79.7</ele><time>2011-04-28T11:19:39.0000000+00:00</time></trkpt><trkpt lat="21.746202" lon="104.941353"><ele>79.6</ele><time>2011-04-28T11:19:44.0000000+00:00</time></trkpt><trkpt lat="21.746199" lon="104.94136"><ele>79.6</ele><time>2011-04-28T11:19:49.0000000+00:00</time></trkpt><trkpt lat="21.746185" lon="104.94136"><ele>79.6</ele><time>2011-04-28T11:19:54.0000000+00:00</time></trkpt><trkpt lat="21.746189" lon="104.941345"><ele>79.7</ele><time>2011-04-28T11:19:59.0000000+00:00</time></trkpt><trkpt lat="21.746193" lon="104.941345"><ele>79.7</ele><time>2011-04-28T11:20:04.0000000+00:00</time></trkpt><trkpt lat="21.746199" lon="104.941338"><ele>79.7</ele><time>2011-04-28T11:20:09.0000000+00:00</time></trkpt><trkpt lat="21.746202" lon="104.941338"><ele>79.7</ele><time>2011-04-28T11:20:14.0000000+00:00</time></trkpt><trkpt lat="21.746201" lon="104.94133"><ele>79.7</ele><time>2011-04-28T11:20:19.0000000+00:00</time></trkpt><trkpt lat="21.746191" lon="104.941345"><ele>79.8</ele><time>2011-04-28T11:20:24.0000000+00:00</time></trkpt><trkpt lat="21.746155" lon="104.941353"><ele>80.0</ele><time>2011-04-28T11:20:29.0000000+00:00</time></trkpt><trkpt lat="21.746147" lon="104.941368"><ele>80.1</ele><time>2011-04-28T11:20:34.0000000+00:00</time></trkpt><trkpt lat="21.746117" lon="104.941368"><ele>80.1</ele><time>2011-04-28T11:20:39.0000000+00:00</time></trkpt><trkpt lat="21.746096" lon="104.941376"><ele>80.2</ele><time>2011-04-28T11:20:44.0000000+00:00</time></trkpt><trkpt lat="21.74609" lon="104.941399"><ele>80.1</ele><time>2011-04-28T11:20:49.0000000+00:00</time></trkpt><trkpt lat="21.746105" lon="104.941383"><ele>80.0</ele><time>2011-04-28T11:20:54.0000000+00:00</time></trkpt><trkpt lat="21.746101" lon="104.941391"><ele>80.0</ele><time>2011-04-28T11:20:59.0000000+00:00</time></trkpt><trkpt lat="21.746105" lon="104.941391"><ele>80.0</ele><time>2011-04-28T11:21:04.0000000+00:00</time></trkpt><trkpt lat="21.746109" lon="104.941391"><ele>80.0</ele><time>2011-04-28T11:21:09.0000000+00:00</time></trkpt><trkpt lat="21.746117" lon="104.941391"><ele>80.0</ele><time>2011-04-28T11:21:14.0000000+00:00</time></trkpt><trkpt lat="21.746122" lon="104.941383"><ele>80.0</ele><time>2011-04-28T11:21:19.0000000+00:00</time></trkpt><trkpt lat="21.746126" lon="104.941383"><ele>80.1</ele><time>2011-04-28T11:21:24.0000000+00:00</time></trkpt><trkpt lat="21.74613" lon="104.94136"><ele>80.1</ele><time>2011-04-28T11:21:29.0000000+00:00</time></trkpt><trkpt lat="21.746138" lon="104.941338"><ele>80.3</ele><time>2011-04-28T11:21:34.0000000+00:00</time></trkpt><trkpt lat="21.746128" lon="104.94133"><ele>80.5</ele><time>2011-04-28T11:21:39.0000000+00:00</time></trkpt><trkpt lat="21.746128" lon="104.941338"><ele>80.5</ele><time>2011-04-28T11:21:44.0000000+00:00</time></trkpt><trkpt lat="21.746124" lon="104.941338"><ele>80.5</ele><time>2011-04-28T11:21:49.0000000+00:00</time></trkpt><trkpt lat="21.746117" lon="104.941322"><ele>80.5</ele><time>2011-04-28T11:21:54.0000000+00:00</time></trkpt><trkpt lat="21.746149" lon="104.941277"><ele>80.4</ele><time>2011-04-28T11:21:59.0000000+00:00</time></trkpt><trkpt lat="21.746174" lon="104.941246"><ele>79.9</ele><time>2011-04-28T11:22:04.0000000+00:00</time></trkpt><trkpt lat="21.746212" lon="104.941261"><ele>79.3</ele><time>2011-04-28T11:22:09.0000000+00:00</time></trkpt><trkpt lat="21.746199" lon="104.941322"><ele>79.5</ele><time>2011-04-28T11:22:14.0000000+00:00</time></trkpt><trkpt lat="21.746162" lon="104.941376"><ele>79.9</ele><time>2011-04-28T11:22:19.0000000+00:00</time></trkpt><trkpt lat="21.746172" lon="104.94136"><ele>79.9</ele><time>2011-04-28T11:22:24.0000000+00:00</time></trkpt><trkpt lat="21.746174" lon="104.941353"><ele>79.9</ele><time>2011-04-28T11:22:29.0000000+00:00</time></trkpt><trkpt lat="21.746149" lon="104.941338"><ele>79.7</ele><time>2011-04-28T11:22:34.0000000+00:00</time></trkpt><trkpt lat="21.746147" lon="104.941299"><ele>79.6</ele><time>2011-04-28T11:22:39.0000000+00:00</time></trkpt><trkpt lat="21.746155" lon="104.941299"><ele>79.6</ele><time>2011-04-28T11:22:44.0000000+00:00</time></trkpt><trkpt lat="21.746166" lon="104.941307"><ele>79.6</ele><time>2011-04-28T11:22:49.0000000+00:00</time></trkpt><trkpt lat="21.746191" lon="104.941307"><ele>79.7</ele><time>2011-04-28T11:22:54.0000000+00:00</time></trkpt><trkpt lat="21.746204" lon="104.941299"><ele>79.7</ele><time>2011-04-28T11:22:59.0000000+00:00</time></trkpt><trkpt lat="21.746216" lon="104.94133"><ele>79.8</ele><time>2011-04-28T11:23:04.0000000+00:00</time></trkpt><trkpt lat="21.746227" lon="104.941345"><ele>80.2</ele><time>2011-04-28T11:23:09.0000000+00:00</time></trkpt><trkpt lat="21.746246" lon="104.941338"><ele>80.5</ele><time>2011-04-28T11:23:14.0000000+00:00</time></trkpt><trkpt lat="21.746252" lon="104.941338"><ele>80.5</ele><time>2011-04-28T11:23:19.0000000+00:00</time></trkpt><trkpt lat="21.746258" lon="104.94133"><ele>80.5</ele><time>2011-04-28T11:23:24.0000000+00:00</time></trkpt><trkpt lat="21.746264" lon="104.941322"><ele>80.6</ele><time>2011-04-28T11:23:29.0000000+00:00</time></trkpt><trkpt lat="21.74626" lon="104.941322"><ele>80.6</ele><time>2011-04-28T11:23:34.0000000+00:00</time></trkpt><trkpt lat="21.746256" lon="104.941315"><ele>80.6</ele><time>2011-04-28T11:23:39.0000000+00:00</time></trkpt><trkpt lat="21.746252" lon="104.941315"><ele>80.6</ele><time>2011-04-28T11:23:44.0000000+00:00</time></trkpt><trkpt lat="21.746248" lon="104.941315"><ele>80.6</ele><time>2011-04-28T11:23:49.0000000+00:00</time></trkpt><trkpt lat="21.746237" lon="104.941261"><ele>80.3</ele><time>2011-04-28T11:23:54.0000000+00:00</time></trkpt><trkpt lat="21.746246" lon="104.941208"><ele>79.8</ele><time>2011-04-28T11:23:59.0000000+00:00</time></trkpt><trkpt lat="21.746254" lon="104.9412"><ele>79.2</ele><time>2011-04-28T11:24:04.0000000+00:00</time></trkpt><trkpt lat="21.746269" lon="104.941238"><ele>78.5</ele><time>2011-04-28T11:24:09.0000000+00:00</time></trkpt><trkpt lat="21.746275" lon="104.941238"><ele>78.6</ele><time>2011-04-28T11:24:14.0000000+00:00</time></trkpt><trkpt lat="21.746269" lon="104.941246"><ele>79.0</ele><time>2011-04-28T11:24:19.0000000+00:00</time></trkpt><trkpt lat="21.746248" lon="104.941254"><ele>79.5</ele><time>2011-04-28T11:24:24.0000000+00:00</time></trkpt><trkpt lat="21.746239" lon="104.941277"><ele>79.6</ele><time>2011-04-28T11:24:29.0000000+00:00</time></trkpt><trkpt lat="21.746258" lon="104.941254"><ele>79.6</ele><time>2011-04-28T11:24:34.0000000+00:00</time></trkpt><trkpt lat="21.746283" lon="104.941261"><ele>79.4</ele><time>2011-04-28T11:24:39.0000000+00:00</time></trkpt><trkpt lat="21.74629" lon="104.941269"><ele>79.5</ele><time>2011-04-28T11:24:44.0000000+00:00</time></trkpt><trkpt lat="21.746283" lon="104.941277"><ele>79.5</ele><time>2011-04-28T11:24:49.0000000+00:00</time></trkpt><trkpt lat="21.746262" lon="104.941284"><ele>79.5</ele><time>2011-04-28T11:24:54.0000000+00:00</time></trkpt><trkpt lat="21.746246" lon="104.94133"><ele>79.4</ele><time>2011-04-28T11:24:59.0000000+00:00</time></trkpt><trkpt lat="21.746233" lon="104.941353"><ele>79.4</ele><time>2011-04-28T11:25:04.0000000+00:00</time></trkpt><trkpt lat="21.746225" lon="104.941345"><ele>79.1</ele><time>2011-04-28T11:25:09.0000000+00:00</time></trkpt><trkpt lat="21.746206" lon="104.941353"><ele>79.3</ele><time>2011-04-28T11:25:14.0000000+00:00</time></trkpt><trkpt lat="21.746222" lon="104.941345"><ele>79.4</ele><time>2011-04-28T11:25:19.0000000+00:00</time></trkpt><trkpt lat="21.746201" lon="104.941338"><ele>79.4</ele><time>2011-04-28T11:25:24.0000000+00:00</time></trkpt><trkpt lat="21.746197" lon="104.941338"><ele>79.6</ele><time>2011-04-28T11:25:29.0000000+00:00</time></trkpt><trkpt lat="21.746199" lon="104.941338"><ele>79.7</ele><time>2011-04-28T11:25:34.0000000+00:00</time></trkpt><trkpt lat="21.746199" lon="104.941338"><ele>79.0</ele><time>2011-04-28T11:25:39.0000000+00:00</time></trkpt><trkpt lat="21.746214" lon="104.941345"><ele>78.3</ele><time>2011-04-28T11:25:44.0000000+00:00</time></trkpt><trkpt lat="21.746227" lon="104.941345"><ele>78.2</ele><time>2011-04-28T11:25:49.0000000+00:00</time></trkpt><trkpt lat="21.746235" lon="104.941322"><ele>78.2</ele><time>2011-04-28T11:25:54.0000000+00:00</time></trkpt><trkpt lat="21.746231" lon="104.941307"><ele>78.3</ele><time>2011-04-28T11:25:59.0000000+00:00</time></trkpt><trkpt lat="21.746212" lon="104.941299"><ele>78.4</ele><time>2011-04-28T11:26:04.0000000+00:00</time></trkpt><trkpt lat="21.746199" lon="104.941284"><ele>78.2</ele><time>2011-04-28T11:26:09.0000000+00:00</time></trkpt><trkpt lat="21.746161" lon="104.941307"><ele>78.6</ele><time>2011-04-28T11:26:14.0000000+00:00</time></trkpt><trkpt lat="21.746143" lon="104.941269"><ele>79.0</ele><time>2011-04-28T11:26:19.0000000+00:00</time></trkpt><trkpt lat="21.746136" lon="104.941261"><ele>79.3</ele><time>2011-04-28T11:26:24.0000000+00:00</time></trkpt><trkpt lat="21.746157" lon="104.941269"><ele>79.3</ele><time>2011-04-28T11:26:29.0000000+00:00</time></trkpt><trkpt lat="21.74617" lon="104.941277"><ele>79.4</ele><time>2011-04-28T11:26:34.0000000+00:00</time></trkpt><trkpt lat="21.746185" lon="104.941261"><ele>79.3</ele><time>2011-04-28T11:26:39.0000000+00:00</time></trkpt><trkpt lat="21.746176" lon="104.941254"><ele>79.6</ele><time>2011-04-28T11:26:44.0000000+00:00</time></trkpt><trkpt lat="21.746122" lon="104.941277"><ele>80.6</ele><time>2011-04-28T11:26:49.0000000+00:00</time></trkpt><trkpt lat="21.746094" lon="104.941254"><ele>81.1</ele><time>2011-04-28T11:26:54.0000000+00:00</time></trkpt><trkpt lat="21.746084" lon="104.941246"><ele>81.6</ele><time>2011-04-28T11:26:59.0000000+00:00</time></trkpt><trkpt lat="21.746092" lon="104.941246"><ele>81.7</ele><time>2011-04-28T11:27:04.0000000+00:00</time></trkpt><trkpt lat="21.746092" lon="104.941254"><ele>81.7</ele><time>2011-04-28T11:27:09.0000000+00:00</time></trkpt><trkpt lat="21.746111" lon="104.941254"><ele>81.9</ele><time>2011-04-28T11:27:14.0000000+00:00</time></trkpt><trkpt lat="21.746111" lon="104.941261"><ele>82.2</ele><time>2011-04-28T11:27:19.0000000+00:00</time></trkpt><trkpt lat="21.746111" lon="104.941261"><ele>82.3</ele><time>2011-04-28T11:27:24.0000000+00:00</time></trkpt><trkpt lat="21.746124" lon="104.941254"><ele>82.5</ele><time>2011-04-28T11:27:29.0000000+00:00</time></trkpt><trkpt lat="21.746134" lon="104.941246"><ele>83.1</ele><time>2011-04-28T11:27:34.0000000+00:00</time></trkpt><trkpt lat="21.746145" lon="104.941246"><ele>83.6</ele><time>2011-04-28T11:27:39.0000000+00:00</time></trkpt><trkpt lat="21.746134" lon="104.941238"><ele>83.8</ele><time>2011-04-28T11:27:44.0000000+00:00</time></trkpt><trkpt lat="21.746128" lon="104.941238"><ele>84.1</ele><time>2011-04-28T11:27:49.0000000+00:00</time></trkpt><trkpt lat="21.746155" lon="104.941231"><ele>84.2</ele><time>2011-04-28T11:27:54.0000000+00:00</time></trkpt><trkpt lat="21.746157" lon="104.941231"><ele>84.5</ele><time>2011-04-28T11:27:59.0000000+00:00</time></trkpt><trkpt lat="21.746145" lon="104.941231"><ele>84.9</ele><time>2011-04-28T11:28:04.0000000+00:00</time></trkpt><trkpt lat="21.746124" lon="104.941246"><ele>85.0</ele><time>2011-04-28T11:28:09.0000000+00:00</time></trkpt><trkpt lat="21.746098" lon="104.941261"><ele>85.2</ele><time>2011-04-28T11:28:14.0000000+00:00</time></trkpt><trkpt lat="21.746086" lon="104.941269"><ele>85.3</ele><time>2011-04-28T11:28:19.0000000+00:00</time></trkpt><trkpt lat="21.746075" lon="104.941277"><ele>85.6</ele><time>2011-04-28T11:28:24.0000000+00:00</time></trkpt><trkpt lat="21.746084" lon="104.941269"><ele>85.9</ele><time>2011-04-28T11:28:29.0000000+00:00</time></trkpt><trkpt lat="21.746098" lon="104.941254"><ele>85.6</ele><time>2011-04-28T11:28:34.0000000+00:00</time></trkpt><trkpt lat="21.746088" lon="104.941277"><ele>86.4</ele><time>2011-04-28T11:28:39.0000000+00:00</time></trkpt><trkpt lat="21.746077" lon="104.941292"><ele>87.0</ele><time>2011-04-28T11:28:44.0000000+00:00</time></trkpt><trkpt lat="21.746082" lon="104.941292"><ele>87.5</ele><time>2011-04-28T11:28:49.0000000+00:00</time></trkpt><trkpt lat="21.74608" lon="104.941284"><ele>85.9</ele><time>2011-04-28T11:28:54.0000000+00:00</time></trkpt><trkpt lat="21.74608" lon="104.941284"><ele>85.1</ele><time>2011-04-28T11:28:59.0000000+00:00</time></trkpt><trkpt lat="21.74608" lon="104.941277"><ele>85.3</ele><time>2011-04-28T11:29:04.0000000+00:00</time></trkpt><trkpt lat="21.746078" lon="104.941277"><ele>85.3</ele><time>2011-04-28T11:29:09.0000000+00:00</time></trkpt><trkpt lat="21.746077" lon="104.941269"><ele>85.1</ele><time>2011-04-28T11:29:14.0000000+00:00</time></trkpt><trkpt lat="21.746077" lon="104.941269"><ele>85.1</ele><time>2011-04-28T11:29:19.0000000+00:00</time></trkpt><trkpt lat="21.746082" lon="104.941261"><ele>84.9</ele><time>2011-04-28T11:29:24.0000000+00:00</time></trkpt><trkpt lat="21.746117" lon="104.941246"><ele>84.9</ele><time>2011-04-28T11:29:29.0000000+00:00</time></trkpt><trkpt lat="21.746159" lon="104.941231"><ele>84.4</ele><time>2011-04-28T11:29:34.0000000+00:00</time></trkpt><trkpt lat="21.746174" lon="104.941223"><ele>84.1</ele><time>2011-04-28T11:29:39.0000000+00:00</time></trkpt><trkpt lat="21.74618" lon="104.941223"><ele>83.8</ele><time>2011-04-28T11:29:44.0000000+00:00</time></trkpt><trkpt lat="21.746191" lon="104.941216"><ele>83.5</ele><time>2011-04-28T11:29:49.0000000+00:00</time></trkpt><trkpt lat="21.746195" lon="104.941208"><ele>83.2</ele><time>2011-04-28T11:29:54.0000000+00:00</time></trkpt><trkpt lat="21.746197" lon="104.9412"><ele>83.2</ele><time>2011-04-28T11:29:59.0000000+00:00</time></trkpt><trkpt lat="21.74614" lon="104.941208"><ele>83.5</ele><time>2011-04-28T11:30:04.0000000+00:00</time></trkpt><trkpt lat="21.746126" lon="104.941223"><ele>83.8</ele><time>2011-04-28T11:30:09.0000000+00:00</time></trkpt><trkpt lat="21.746086" lon="104.941277"><ele>83.7</ele><time>2011-04-28T11:30:14.0000000+00:00</time></trkpt><trkpt lat="21.746054" lon="104.941299"><ele>84.4</ele><time>2011-04-28T11:30:19.0000000+00:00</time></trkpt><trkpt lat="21.746046" lon="104.941284"><ele>84.3</ele><time>2011-04-28T11:30:24.0000000+00:00</time></trkpt><trkpt lat="21.746058" lon="104.941299"><ele>84.4</ele><time>2011-04-28T11:30:29.0000000+00:00</time></trkpt><trkpt lat="21.74614" lon="104.941383"><ele>81.5</ele><time>2011-04-28T11:30:34.0000000+00:00</time></trkpt><trkpt lat="21.746181" lon="104.941383"><ele>81.0</ele><time>2011-04-28T11:30:39.0000000+00:00</time></trkpt><trkpt lat="21.746185" lon="104.941391"><ele>80.6</ele><time>2011-04-28T11:30:44.0000000+00:00</time></trkpt><trkpt lat="21.746189" lon="104.941391"><ele>80.1</ele><time>2011-04-28T11:30:49.0000000+00:00</time></trkpt><trkpt lat="21.746204" lon="104.941383"><ele>80.0</ele><time>2011-04-28T11:30:54.0000000+00:00</time></trkpt><trkpt lat="21.746235" lon="104.941368"><ele>79.5</ele><time>2011-04-28T11:30:59.0000000+00:00</time></trkpt><trkpt lat="21.746244" lon="104.941345"><ele>79.4</ele><time>2011-04-28T11:31:04.0000000+00:00</time></trkpt><trkpt lat="21.746239" lon="104.941345"><ele>79.6</ele><time>2011-04-28T11:31:09.0000000+00:00</time></trkpt><trkpt lat="21.746231" lon="104.941338"><ele>79.6</ele><time>2011-04-28T11:31:14.0000000+00:00</time></trkpt><trkpt lat="21.746229" lon="104.941338"><ele>79.4</ele><time>2011-04-28T11:31:19.0000000+00:00</time></trkpt><trkpt lat="21.746229" lon="104.941338"><ele>79.1</ele><time>2011-04-28T11:31:24.0000000+00:00</time></trkpt></trkseg><trkseg><trkpt lat="21.745958" lon="104.941154"><ele>174.3</ele><time>2011-04-29T05:09:25.0000000+00:00</time></trkpt><trkpt lat="21.745947" lon="104.941162"><ele>174.3</ele><time>2011-04-29T05:09:30.0000000+00:00</time></trkpt><trkpt lat="21.745916" lon="104.941154"><ele>174.3</ele><time>2011-04-29T05:09:35.0000000+00:00</time></trkpt><trkpt lat="21.745924" lon="104.941147"><ele>174.4</ele><time>2011-04-29T05:09:40.0000000+00:00</time></trkpt><trkpt lat="21.74588" lon="104.941139"><ele>174.4</ele><time>2011-04-29T05:09:45.0000000+00:00</time></trkpt><trkpt lat="21.745844" lon="104.941162"><ele>174.4</ele><time>2011-04-29T05:09:50.0000000+00:00</time></trkpt><trkpt lat="21.745836" lon="104.941185"><ele>174.3</ele><time>2011-04-29T05:09:55.0000000+00:00</time></trkpt><trkpt lat="21.745825" lon="104.9412"><ele>174.3</ele><time>2011-04-29T05:10:00.0000000+00:00</time></trkpt><trkpt lat="21.745815" lon="104.9412"><ele>174.3</ele><time>2011-04-29T05:10:05.0000000+00:00</time></trkpt><trkpt lat="21.745806" lon="104.9412"><ele>174.3</ele><time>2011-04-29T05:10:10.0000000+00:00</time></trkpt><trkpt lat="21.745804" lon="104.941208"><ele>174.3</ele><time>2011-04-29T05:10:15.0000000+00:00</time></trkpt><trkpt lat="21.74581" lon="104.941208"><ele>174.3</ele><time>2011-04-29T05:10:20.0000000+00:00</time></trkpt><trkpt lat="21.745874" lon="104.94117"><ele>174.1</ele><time>2011-04-29T05:10:25.0000000+00:00</time></trkpt><trkpt lat="21.745916" lon="104.941124"><ele>174.0</ele><time>2011-04-29T05:10:30.0000000+00:00</time></trkpt><trkpt lat="21.745935" lon="104.941109"><ele>173.8</ele><time>2011-04-29T05:10:35.0000000+00:00</time></trkpt><trkpt lat="21.745962" lon="104.941093"><ele>173.6</ele><time>2011-04-29T05:10:40.0000000+00:00</time></trkpt><trkpt lat="21.745975" lon="104.941101"><ele>173.4</ele><time>2011-04-29T05:10:45.0000000+00:00</time></trkpt><trkpt lat="21.745993" lon="104.941109"><ele>173.3</ele><time>2011-04-29T05:10:50.0000000+00:00</time></trkpt><trkpt lat="21.746311" lon="104.941261"><ele>58.4</ele><time>2011-04-29T05:10:55.0000000+00:00</time></trkpt><trkpt lat="21.746302" lon="104.941261"><ele>58.9</ele><time>2011-04-29T05:11:00.0000000+00:00</time></trkpt><trkpt lat="21.746292" lon="104.941261"><ele>59.1</ele><time>2011-04-29T05:11:05.0000000+00:00</time></trkpt><trkpt lat="21.746288" lon="104.941254"><ele>59.2</ele><time>2011-04-29T05:11:10.0000000+00:00</time></trkpt><trkpt lat="21.746281" lon="104.941254"><ele>59.3</ele><time>2011-04-29T05:11:15.0000000+00:00</time></trkpt><trkpt lat="21.746277" lon="104.941246"><ele>59.3</ele><time>2011-04-29T05:11:20.0000000+00:00</time></trkpt><trkpt lat="21.746275" lon="104.941254"><ele>59.3</ele><time>2011-04-29T05:11:25.0000000+00:00</time></trkpt><trkpt lat="21.746271" lon="104.941254"><ele>59.3</ele><time>2011-04-29T05:11:30.0000000+00:00</time></trkpt><trkpt lat="21.746273" lon="104.941254"><ele>59.3</ele><time>2011-04-29T05:11:35.0000000+00:00</time></trkpt><trkpt lat="21.746279" lon="104.941261"><ele>59.3</ele><time>2011-04-29T05:11:40.0000000+00:00</time></trkpt><trkpt lat="21.746294" lon="104.941261"><ele>59.3</ele><time>2011-04-29T05:11:45.0000000+00:00</time></trkpt><trkpt lat="21.746323" lon="104.941231"><ele>59.5</ele><time>2011-04-29T05:11:50.0000000+00:00</time></trkpt><trkpt lat="21.746344" lon="104.941208"><ele>59.7</ele><time>2011-04-29T05:11:55.0000000+00:00</time></trkpt><trkpt lat="21.746347" lon="104.9412"><ele>59.9</ele><time>2011-04-29T05:12:00.0000000+00:00</time></trkpt><trkpt lat="21.746344" lon="104.9412"><ele>60.0</ele><time>2011-04-29T05:12:05.0000000+00:00</time></trkpt><trkpt lat="21.746347" lon="104.9412"><ele>60.0</ele><time>2011-04-29T05:12:10.0000000+00:00</time></trkpt><trkpt lat="21.746357" lon="104.941193"><ele>60.0</ele><time>2011-04-29T05:12:15.0000000+00:00</time></trkpt><trkpt lat="21.746363" lon="104.941193"><ele>60.0</ele><time>2011-04-29T05:12:20.0000000+00:00</time></trkpt><trkpt lat="21.746363" lon="104.941193"><ele>60.0</ele><time>2011-04-29T05:12:25.0000000+00:00</time></trkpt><trkpt lat="21.746359" lon="104.9412"><ele>60.0</ele><time>2011-04-29T05:12:30.0000000+00:00</time></trkpt><trkpt lat="21.746351" lon="104.941208"><ele>60.0</ele><time>2011-04-29T05:12:35.0000000+00:00</time></trkpt><trkpt lat="21.746344" lon="104.941216"><ele>60.0</ele><time>2011-04-29T05:12:40.0000000+00:00</time></trkpt><trkpt lat="21.746338" lon="104.941223"><ele>60.0</ele><time>2011-04-29T05:12:45.0000000+00:00</time></trkpt><trkpt lat="21.746334" lon="104.941231"><ele>60.0</ele><time>2011-04-29T05:12:50.0000000+00:00</time></trkpt><trkpt lat="21.74633" lon="104.941231"><ele>60.0</ele><time>2011-04-29T05:12:55.0000000+00:00</time></trkpt><trkpt lat="21.746323" lon="104.941238"><ele>60.0</ele><time>2011-04-29T05:13:00.0000000+00:00</time></trkpt><trkpt lat="21.746319" lon="104.941238"><ele>60.0</ele><time>2011-04-29T05:13:05.0000000+00:00</time></trkpt><trkpt lat="21.746319" lon="104.941246"><ele>60.0</ele><time>2011-04-29T05:13:10.0000000+00:00</time></trkpt><trkpt lat="21.746325" lon="104.941246"><ele>60.0</ele><time>2011-04-29T05:13:15.0000000+00:00</time></trkpt><trkpt lat="21.74633" lon="104.941246"><ele>59.9</ele><time>2011-04-29T05:13:20.0000000+00:00</time></trkpt><trkpt lat="21.74633" lon="104.941238"><ele>60.0</ele><time>2011-04-29T05:13:25.0000000+00:00</time></trkpt><trkpt lat="21.746325" lon="104.941238"><ele>60.0</ele><time>2011-04-29T05:13:30.0000000+00:00</time></trkpt><trkpt lat="21.746315" lon="104.941231"><ele>60.0</ele><time>2011-04-29T05:13:35.0000000+00:00</time></trkpt><trkpt lat="21.746307" lon="104.941231"><ele>60.0</ele><time>2011-04-29T05:13:40.0000000+00:00</time></trkpt><trkpt lat="21.746307" lon="104.941223"><ele>60.0</ele><time>2011-04-29T05:13:45.0000000+00:00</time></trkpt><trkpt lat="21.746311" lon="104.941223"><ele>60.0</ele><time>2011-04-29T05:13:50.0000000+00:00</time></trkpt><trkpt lat="21.746313" lon="104.941216"><ele>60.1</ele><time>2011-04-29T05:13:55.0000000+00:00</time></trkpt><trkpt lat="21.746317" lon="104.941216"><ele>60.1</ele><time>2011-04-29T05:14:00.0000000+00:00</time></trkpt><trkpt lat="21.746319" lon="104.941216"><ele>60.0</ele><time>2011-04-29T05:14:05.0000000+00:00</time></trkpt><trkpt lat="21.746317" lon="104.941216"><ele>60.0</ele><time>2011-04-29T05:14:10.0000000+00:00</time></trkpt><trkpt lat="21.746315" lon="104.941223"><ele>60.0</ele><time>2011-04-29T05:14:15.0000000+00:00</time></trkpt><trkpt lat="21.746311" lon="104.941223"><ele>60.0</ele><time>2011-04-29T05:14:20.0000000+00:00</time></trkpt><trkpt lat="21.746309" lon="104.941223"><ele>60.0</ele><time>2011-04-29T05:14:25.0000000+00:00</time></trkpt><trkpt lat="21.746304" lon="104.941223"><ele>60.0</ele><time>2011-04-29T05:14:30.0000000+00:00</time></trkpt><trkpt lat="21.746296" lon="104.941223"><ele>60.0</ele><time>2011-04-29T05:14:35.0000000+00:00</time></trkpt><trkpt lat="21.746281" lon="104.941231"><ele>60.0</ele><time>2011-04-29T05:14:40.0000000+00:00</time></trkpt><trkpt lat="21.746275" lon="104.941223"><ele>59.9</ele><time>2011-04-29T05:14:45.0000000+00:00</time></trkpt><trkpt lat="21.746277" lon="104.941216"><ele>59.8</ele><time>2011-04-29T05:14:50.0000000+00:00</time></trkpt><trkpt lat="21.746275" lon="104.941216"><ele>59.8</ele><time>2011-04-29T05:14:55.0000000+00:00</time></trkpt><trkpt lat="21.746271" lon="104.941216"><ele>59.8</ele><time>2011-04-29T05:15:00.0000000+00:00</time></trkpt><trkpt lat="21.746267" lon="104.941216"><ele>59.8</ele><time>2011-04-29T05:15:05.0000000+00:00</time></trkpt><trkpt lat="21.746265" lon="104.941216"><ele>59.8</ele><time>2011-04-29T05:15:10.0000000+00:00</time></trkpt><trkpt lat="21.746264" lon="104.941216"><ele>59.8</ele><time>2011-04-29T05:15:15.0000000+00:00</time></trkpt><trkpt lat="21.746262" lon="104.941216"><ele>59.8</ele><time>2011-04-29T05:15:20.0000000+00:00</time></trkpt><trkpt lat="21.746264" lon="104.941208"><ele>59.9</ele><time>2011-04-29T05:15:25.0000000+00:00</time></trkpt><trkpt lat="21.746264" lon="104.941216"><ele>59.9</ele><time>2011-04-29T05:15:30.0000000+00:00</time></trkpt><trkpt lat="21.746262" lon="104.941216"><ele>59.9</ele><time>2011-04-29T05:15:35.0000000+00:00</time></trkpt><trkpt lat="21.746254" lon="104.941223"><ele>59.9</ele><time>2011-04-29T05:15:40.0000000+00:00</time></trkpt><trkpt lat="21.746252" lon="104.941223"><ele>59.9</ele><time>2011-04-29T05:15:45.0000000+00:00</time></trkpt><trkpt lat="21.746252" lon="104.941231"><ele>59.9</ele><time>2011-04-29T05:15:50.0000000+00:00</time></trkpt><trkpt lat="21.746252" lon="104.941231"><ele>59.9</ele><time>2011-04-29T05:15:55.0000000+00:00</time></trkpt><trkpt lat="21.746258" lon="104.941231"><ele>59.8</ele><time>2011-04-29T05:16:00.0000000+00:00</time></trkpt><trkpt lat="21.746269" lon="104.941231"><ele>59.8</ele><time>2011-04-29T05:16:05.0000000+00:00</time></trkpt><trkpt lat="21.746279" lon="104.941231"><ele>59.8</ele><time>2011-04-29T05:16:10.0000000+00:00</time></trkpt><trkpt lat="21.746283" lon="104.941231"><ele>59.8</ele><time>2011-04-29T05:16:15.0000000+00:00</time></trkpt><trkpt lat="21.74629" lon="104.941223"><ele>59.8</ele><time>2011-04-29T05:16:20.0000000+00:00</time></trkpt><trkpt lat="21.746288" lon="104.941223"><ele>60.1</ele><time>2011-04-29T05:16:25.0000000+00:00</time></trkpt><trkpt lat="21.746279" lon="104.941284"><ele>59.0</ele><time>2011-04-29T05:16:30.0000000+00:00</time></trkpt><trkpt lat="21.74626" lon="104.941292"><ele>59.5</ele><time>2011-04-29T05:16:35.0000000+00:00</time></trkpt><trkpt lat="21.746246" lon="104.941299"><ele>59.5</ele><time>2011-04-29T05:16:40.0000000+00:00</time></trkpt><trkpt lat="21.746229" lon="104.941292"><ele>60.1</ele><time>2011-04-29T05:16:45.0000000+00:00</time></trkpt><trkpt lat="21.746134" lon="104.941315"><ele>61.0</ele><time>2011-04-29T05:16:50.0000000+00:00</time></trkpt><trkpt lat="21.746058" lon="104.941315"><ele>61.6</ele><time>2011-04-29T05:16:55.0000000+00:00</time></trkpt><trkpt lat="21.746" lon="104.941338"><ele>63.8</ele><time>2011-04-29T05:17:00.0000000+00:00</time></trkpt><trkpt lat="21.746002" lon="104.941338"><ele>64.3</ele><time>2011-04-29T05:17:05.0000000+00:00</time></trkpt><trkpt lat="21.745981" lon="104.941338"><ele>65.3</ele><time>2011-04-29T05:17:10.0000000+00:00</time></trkpt><trkpt lat="21.745972" lon="104.94136"><ele>64.2</ele><time>2011-04-29T05:17:15.0000000+00:00</time></trkpt><trkpt lat="21.745977" lon="104.941376"><ele>64.5</ele><time>2011-04-29T05:17:20.0000000+00:00</time></trkpt><trkpt lat="21.745975" lon="104.941383"><ele>64.6</ele><time>2011-04-29T05:17:25.0000000+00:00</time></trkpt><trkpt lat="21.745981" lon="104.941376"><ele>64.8</ele><time>2011-04-29T05:17:30.0000000+00:00</time></trkpt><trkpt lat="21.745987" lon="104.941376"><ele>65.4</ele><time>2011-04-29T05:17:35.0000000+00:00</time></trkpt><trkpt lat="21.745983" lon="104.941391"><ele>66.6</ele><time>2011-04-29T05:17:40.0000000+00:00</time></trkpt><trkpt lat="21.745998" lon="104.941414"><ele>67.2</ele><time>2011-04-29T05:17:45.0000000+00:00</time></trkpt><trkpt lat="21.746008" lon="104.941414"><ele>67.4</ele><time>2011-04-29T05:17:50.0000000+00:00</time></trkpt><trkpt lat="21.746016" lon="104.941422"><ele>68.4</ele><time>2011-04-29T05:17:55.0000000+00:00</time></trkpt><trkpt lat="21.746016" lon="104.941483"><ele>68.9</ele><time>2011-04-29T05:18:00.0000000+00:00</time></trkpt><trkpt lat="21.745962" lon="104.941475"><ele>70.2</ele><time>2011-04-29T05:18:05.0000000+00:00</time></trkpt><trkpt lat="21.745998" lon="104.94149"><ele>70.9</ele><time>2011-04-29T05:18:10.0000000+00:00</time></trkpt><trkpt lat="21.746017" lon="104.941505"><ele>71.2</ele><time>2011-04-29T05:18:15.0000000+00:00</time></trkpt><trkpt lat="21.746023" lon="104.941521"><ele>71.0</ele><time>2011-04-29T05:18:20.0000000+00:00</time></trkpt><trkpt lat="21.746002" lon="104.941498"><ele>70.7</ele><time>2011-04-29T05:18:25.0000000+00:00</time></trkpt><trkpt lat="21.745985" lon="104.941467"><ele>71.3</ele><time>2011-04-29T05:18:30.0000000+00:00</time></trkpt><trkpt lat="21.745937" lon="104.941429"><ele>71.6</ele><time>2011-04-29T05:18:35.0000000+00:00</time></trkpt><trkpt lat="21.745926" lon="104.941422"><ele>71.2</ele><time>2011-04-29T05:18:40.0000000+00:00</time></trkpt><trkpt lat="21.74592" lon="104.941422"><ele>70.8</ele><time>2011-04-29T05:18:45.0000000+00:00</time></trkpt><trkpt lat="21.74589" lon="104.941414"><ele>70.1</ele><time>2011-04-29T05:18:50.0000000+00:00</time></trkpt><trkpt lat="21.745899" lon="104.941414"><ele>70.1</ele><time>2011-04-29T05:18:55.0000000+00:00</time></trkpt><trkpt lat="21.745901" lon="104.941406"><ele>69.6</ele><time>2011-04-29T05:19:00.0000000+00:00</time></trkpt><trkpt lat="21.745903" lon="104.941391"><ele>69.2</ele><time>2011-04-29T05:19:05.0000000+00:00</time></trkpt><trkpt lat="21.745905" lon="104.941391"><ele>68.7</ele><time>2011-04-29T05:19:10.0000000+00:00</time></trkpt><trkpt lat="21.745903" lon="104.941383"><ele>68.3</ele><time>2011-04-29T05:19:15.0000000+00:00</time></trkpt><trkpt lat="21.745899" lon="104.941376"><ele>67.9</ele><time>2011-04-29T05:19:20.0000000+00:00</time></trkpt><trkpt lat="21.745893" lon="104.941368"><ele>67.4</ele><time>2011-04-29T05:19:25.0000000+00:00</time></trkpt><trkpt lat="21.745888" lon="104.94136"><ele>67.4</ele><time>2011-04-29T05:19:30.0000000+00:00</time></trkpt><trkpt lat="21.745871" lon="104.941345"><ele>68.6</ele><time>2011-04-29T05:19:35.0000000+00:00</time></trkpt><trkpt lat="21.745867" lon="104.941345"><ele>68.4</ele><time>2011-04-29T05:19:40.0000000+00:00</time></trkpt><trkpt lat="21.745871" lon="104.94133"><ele>68.3</ele><time>2011-04-29T05:19:45.0000000+00:00</time></trkpt><trkpt lat="21.745871" lon="104.941322"><ele>68.7</ele><time>2011-04-29T05:19:50.0000000+00:00</time></trkpt><trkpt lat="21.745865" lon="104.941322"><ele>68.2</ele><time>2011-04-29T05:19:55.0000000+00:00</time></trkpt><trkpt lat="21.745861" lon="104.941315"><ele>67.8</ele><time>2011-04-29T05:20:00.0000000+00:00</time></trkpt><trkpt lat="21.745865" lon="104.941307"><ele>67.4</ele><time>2011-04-29T05:20:05.0000000+00:00</time></trkpt><trkpt lat="21.745863" lon="104.941307"><ele>67.3</ele><time>2011-04-29T05:20:10.0000000+00:00</time></trkpt><trkpt lat="21.745863" lon="104.941322"><ele>67.3</ele><time>2011-04-29T05:20:15.0000000+00:00</time></trkpt><trkpt lat="21.745874" lon="104.941307"><ele>67.3</ele><time>2011-04-29T05:20:20.0000000+00:00</time></trkpt><trkpt lat="21.745863" lon="104.941307"><ele>67.7</ele><time>2011-04-29T05:20:25.0000000+00:00</time></trkpt><trkpt lat="21.745855" lon="104.941299"><ele>67.7</ele><time>2011-04-29T05:20:30.0000000+00:00</time></trkpt><trkpt lat="21.745848" lon="104.941299"><ele>67.7</ele><time>2011-04-29T05:20:35.0000000+00:00</time></trkpt><trkpt lat="21.745852" lon="104.941292"><ele>67.7</ele><time>2011-04-29T05:20:40.0000000+00:00</time></trkpt><trkpt lat="21.745855" lon="104.941299"><ele>67.7</ele><time>2011-04-29T05:20:45.0000000+00:00</time></trkpt><trkpt lat="21.745859" lon="104.941299"><ele>67.7</ele><time>2011-04-29T05:20:50.0000000+00:00</time></trkpt><trkpt lat="21.745861" lon="104.941299"><ele>67.7</ele><time>2011-04-29T05:20:55.0000000+00:00</time></trkpt><trkpt lat="21.745857" lon="104.941299"><ele>67.7</ele><time>2011-04-29T05:21:00.0000000+00:00</time></trkpt><trkpt lat="21.745861" lon="104.941307"><ele>67.4</ele><time>2011-04-29T05:21:05.0000000+00:00</time></trkpt><trkpt lat="21.745865" lon="104.941315"><ele>67.5</ele><time>2011-04-29T05:21:10.0000000+00:00</time></trkpt><trkpt lat="21.745867" lon="104.941322"><ele>67.5</ele><time>2011-04-29T05:21:15.0000000+00:00</time></trkpt><trkpt lat="21.745861" lon="104.941353"><ele>67.5</ele><time>2011-04-29T05:21:20.0000000+00:00</time></trkpt><trkpt lat="21.745869" lon="104.941383"><ele>67.5</ele><time>2011-04-29T05:21:25.0000000+00:00</time></trkpt><trkpt lat="21.745926" lon="104.941399"><ele>66.8</ele><time>2011-04-29T05:21:30.0000000+00:00</time></trkpt><trkpt lat="21.745937" lon="104.941422"><ele>66.4</ele><time>2011-04-29T05:21:35.0000000+00:00</time></trkpt><trkpt lat="21.745955" lon="104.941429"><ele>66.3</ele><time>2011-04-29T05:21:40.0000000+00:00</time></trkpt><trkpt lat="21.745945" lon="104.941429"><ele>66.4</ele><time>2011-04-29T05:21:45.0000000+00:00</time></trkpt><trkpt lat="21.745939" lon="104.941429"><ele>66.4</ele><time>2011-04-29T05:21:50.0000000+00:00</time></trkpt><trkpt lat="21.74593" lon="104.941437"><ele>66.5</ele><time>2011-04-29T05:21:55.0000000+00:00</time></trkpt><trkpt lat="21.745916" lon="104.941437"><ele>66.7</ele><time>2011-04-29T05:22:00.0000000+00:00</time></trkpt><trkpt lat="21.745913" lon="104.941437"><ele>66.9</ele><time>2011-04-29T05:22:05.0000000+00:00</time></trkpt><trkpt lat="21.745905" lon="104.941444"><ele>66.9</ele><time>2011-04-29T05:22:10.0000000+00:00</time></trkpt><trkpt lat="21.745897" lon="104.941444"><ele>67.0</ele><time>2011-04-29T05:22:15.0000000+00:00</time></trkpt><trkpt lat="21.745895" lon="104.941444"><ele>67.0</ele><time>2011-04-29T05:22:20.0000000+00:00</time></trkpt><trkpt lat="21.745897" lon="104.941452"><ele>67.0</ele><time>2011-04-29T05:22:25.0000000+00:00</time></trkpt><trkpt lat="21.745899" lon="104.941452"><ele>67.1</ele><time>2011-04-29T05:22:30.0000000+00:00</time></trkpt><trkpt lat="21.745903" lon="104.941452"><ele>67.1</ele><time>2011-04-29T05:22:35.0000000+00:00</time></trkpt><trkpt lat="21.745905" lon="104.941444"><ele>67.1</ele><time>2011-04-29T05:22:40.0000000+00:00</time></trkpt><trkpt lat="21.745907" lon="104.941452"><ele>67.2</ele><time>2011-04-29T05:22:45.0000000+00:00</time></trkpt><trkpt lat="21.745857" lon="104.941505"><ele>67.2</ele><time>2011-04-29T05:22:50.0000000+00:00</time></trkpt><trkpt lat="21.745802" lon="104.941643"><ele>67.2</ele><time>2011-04-29T05:22:55.0000000+00:00</time></trkpt><trkpt lat="21.745605" lon="104.941895"><ele>66.7</ele><time>2011-04-29T05:23:00.0000000+00:00</time></trkpt><trkpt lat="21.74526" lon="104.941994"><ele>66.3</ele><time>2011-04-29T05:23:05.0000000+00:00</time></trkpt><trkpt lat="21.744818" lon="104.942062"><ele>65.4</ele><time>2011-04-29T05:23:10.0000000+00:00</time></trkpt><trkpt lat="21.7444" lon="104.942123"><ele>65.1</ele><time>2011-04-29T05:23:15.0000000+00:00</time></trkpt><trkpt lat="21.74395" lon="104.942116"><ele>64.6</ele><time>2011-04-29T05:23:20.0000000+00:00</time></trkpt><trkpt lat="21.743464" lon="104.942024"><ele>63.8</ele><time>2011-04-29T05:23:25.0000000+00:00</time></trkpt><trkpt lat="21.742901" lon="104.94191"><ele>62.1</ele><time>2011-04-29T05:23:30.0000000+00:00</time></trkpt><trkpt lat="21.742287" lon="104.941811"><ele>60.7</ele><time>2011-04-29T05:23:35.0000000+00:00</time></trkpt><trkpt lat="21.74161" lon="104.941719"><ele>58.8</ele><time>2011-04-29T05:23:40.0000000+00:00</time></trkpt><trkpt lat="21.741127" lon="104.941689"><ele>56.9</ele><time>2011-04-29T05:23:45.0000000+00:00</time></trkpt><trkpt lat="21.740818" lon="104.941795"><ele>55.0</ele><time>2011-04-29T05:23:50.0000000+00:00</time></trkpt><trkpt lat="21.740772" lon="104.941833"><ele>53.7</ele><time>2011-04-29T05:23:55.0000000+00:00</time></trkpt><trkpt lat="21.740755" lon="104.941856"><ele>52.5</ele><time>2011-04-29T05:24:00.0000000+00:00</time></trkpt><trkpt lat="21.740702" lon="104.941917"><ele>51.7</ele><time>2011-04-29T05:24:05.0000000+00:00</time></trkpt><trkpt lat="21.740614" lon="104.942078"><ele>50.4</ele><time>2011-04-29T05:24:10.0000000+00:00</time></trkpt><trkpt lat="21.740547" lon="104.942352"><ele>49.7</ele><time>2011-04-29T05:24:15.0000000+00:00</time></trkpt><trkpt lat="21.740486" lon="104.94239"><ele>49.8</ele><time>2011-04-29T05:24:20.0000000+00:00</time></trkpt><trkpt lat="21.740473" lon="104.94239"><ele>49.4</ele><time>2011-04-29T05:24:25.0000000+00:00</time></trkpt><trkpt lat="21.740458" lon="104.942398"><ele>49.3</ele><time>2011-04-29T05:24:30.0000000+00:00</time></trkpt><trkpt lat="21.74049" lon="104.942574"><ele>48.6</ele><time>2011-04-29T05:24:35.0000000+00:00</time></trkpt><trkpt lat="21.74049" lon="104.942802"><ele>48.5</ele><time>2011-04-29T05:24:40.0000000+00:00</time></trkpt><trkpt lat="21.740461" lon="104.943176"><ele>48.4</ele><time>2011-04-29T05:24:45.0000000+00:00</time></trkpt><trkpt lat="21.740391" lon="104.943596"><ele>49.0</ele><time>2011-04-29T05:24:50.0000000+00:00</time></trkpt><trkpt lat="21.74025" lon="104.944092"><ele>48.9</ele><time>2011-04-29T05:24:55.0000000+00:00</time></trkpt><trkpt lat="21.740105" lon="104.944534"><ele>49.4</ele><time>2011-04-29T05:25:00.0000000+00:00</time></trkpt><trkpt lat="21.739878" lon="104.944954"><ele>50.1</ele><time>2011-04-29T05:25:05.0000000+00:00</time></trkpt><trkpt lat="21.739639" lon="104.945366"><ele>51.1</ele><time>2011-04-29T05:25:10.0000000+00:00</time></trkpt><trkpt lat="21.73941" lon="104.945824"><ele>52.0</ele><time>2011-04-29T05:25:15.0000000+00:00</time></trkpt><trkpt lat="21.73925" lon="104.946335"><ele>52.2</ele><time>2011-04-29T05:25:20.0000000+00:00</time></trkpt><trkpt lat="21.739325" lon="104.946846"><ele>52.7</ele><time>2011-04-29T05:25:25.0000000+00:00</time></trkpt><trkpt lat="21.739552" lon="104.947357"><ele>52.2</ele><time>2011-04-29T05:25:30.0000000+00:00</time></trkpt><trkpt lat="21.739567" lon="104.947876"><ele>51.9</ele><time>2011-04-29T05:25:35.0000000+00:00</time></trkpt><trkpt lat="21.739359" lon="104.948357"><ele>51.9</ele><time>2011-04-29T05:25:40.0000000+00:00</time></trkpt><trkpt lat="21.739023" lon="104.948799"><ele>51.5</ele><time>2011-04-29T05:25:45.0000000+00:00</time></trkpt><trkpt lat="21.738684" lon="104.949226"><ele>51.4</ele><time>2011-04-29T05:25:50.0000000+00:00</time></trkpt><trkpt lat="21.738358" lon="104.949524"><ele>52.2</ele><time>2011-04-29T05:25:55.0000000+00:00</time></trkpt><trkpt lat="21.737949" lon="104.949791"><ele>56.0</ele><time>2011-04-29T05:26:00.0000000+00:00</time></trkpt><trkpt lat="21.737543" lon="104.950035"><ele>57.0</ele><time>2011-04-29T05:26:05.0000000+00:00</time></trkpt><trkpt lat="21.737165" lon="104.950302"><ele>58.1</ele><time>2011-04-29T05:26:10.0000000+00:00</time></trkpt><trkpt lat="21.736736" lon="104.950569"><ele>55.6</ele><time>2011-04-29T05:26:15.0000000+00:00</time></trkpt><trkpt lat="21.73633" lon="104.950836"><ele>54.1</ele><time>2011-04-29T05:26:20.0000000+00:00</time></trkpt><trkpt lat="21.73588" lon="104.950996"><ele>53.0</ele><time>2011-04-29T05:26:25.0000000+00:00</time></trkpt><trkpt lat="21.735386" lon="104.950851"><ele>52.7</ele><time>2011-04-29T05:26:30.0000000+00:00</time></trkpt><trkpt lat="21.734844" lon="104.950623"><ele>56.2</ele><time>2011-04-29T05:26:35.0000000+00:00</time></trkpt><trkpt lat="21.734333" lon="104.950577"><ele>57.9</ele><time>2011-04-29T05:26:40.0000000+00:00</time></trkpt><trkpt lat="21.733936" lon="104.950836"><ele>58.7</ele><time>2011-04-29T05:26:45.0000000+00:00</time></trkpt><trkpt lat="21.733568" lon="104.951225"><ele>59.3</ele><time>2011-04-29T05:26:50.0000000+00:00</time></trkpt><trkpt lat="21.733362" lon="104.951675"><ele>60.1</ele><time>2011-04-29T05:26:55.0000000+00:00</time></trkpt><trkpt lat="21.733265" lon="104.952271"><ele>59.8</ele><time>2011-04-29T05:27:00.0000000+00:00</time></trkpt><trkpt lat="21.73328" lon="104.952873"><ele>58.1</ele><time>2011-04-29T05:27:05.0000000+00:00</time></trkpt><trkpt lat="21.733406" lon="104.953362"><ele>58.3</ele><time>2011-04-29T05:27:10.0000000+00:00</time></trkpt><trkpt lat="21.733538" lon="104.95385"><ele>59.5</ele><time>2011-04-29T05:27:15.0000000+00:00</time></trkpt><trkpt lat="21.733585" lon="104.954407"><ele>61.8</ele><time>2011-04-29T05:27:20.0000000+00:00</time></trkpt><trkpt lat="21.733315" lon="104.954895"><ele>59.3</ele><time>2011-04-29T05:27:25.0000000+00:00</time></trkpt><trkpt lat="21.73307" lon="104.955338"><ele>58.5</ele><time>2011-04-29T05:27:30.0000000+00:00</time></trkpt><trkpt lat="21.732754" lon="104.955849"><ele>57.0</ele><time>2011-04-29T05:27:35.0000000+00:00</time></trkpt><trkpt lat="21.732529" lon="104.95639"><ele>56.8</ele><time>2011-04-29T05:27:40.0000000+00:00</time></trkpt><trkpt lat="21.732489" lon="104.956947"><ele>55.3</ele><time>2011-04-29T05:27:45.0000000+00:00</time></trkpt><trkpt lat="21.73255" lon="104.957512"><ele>55.9</ele><time>2011-04-29T05:27:50.0000000+00:00</time></trkpt><trkpt lat="21.732639" lon="104.958054"><ele>56.2</ele><time>2011-04-29T05:27:55.0000000+00:00</time></trkpt><trkpt lat="21.7327" lon="104.958572"><ele>55.5</ele><time>2011-04-29T05:28:00.0000000+00:00</time></trkpt><trkpt lat="21.732611" lon="104.959099"><ele>56.9</ele><time>2011-04-29T05:28:05.0000000+00:00</time></trkpt><trkpt lat="21.73225" lon="104.959442"><ele>55.3</ele><time>2011-04-29T05:28:10.0000000+00:00</time></trkpt><trkpt lat="21.7318" lon="104.959679"><ele>52.1</ele><time>2011-04-29T05:28:15.0000000+00:00</time></trkpt><trkpt lat="21.731327" lon="104.959923"><ele>49.0</ele><time>2011-04-29T05:28:20.0000000+00:00</time></trkpt><trkpt lat="21.730865" lon="104.960182"><ele>49.1</ele><time>2011-04-29T05:28:25.0000000+00:00</time></trkpt><trkpt lat="21.730425" lon="104.960403"><ele>49.3</ele><time>2011-04-29T05:28:30.0000000+00:00</time></trkpt><trkpt lat="21.730028" lon="104.960732"><ele>49.8</ele><time>2011-04-29T05:28:35.0000000+00:00</time></trkpt><trkpt lat="21.729704" lon="104.961113"><ele>49.2</ele><time>2011-04-29T05:28:40.0000000+00:00</time></trkpt><trkpt lat="21.729309" lon="104.961426"><ele>47.5</ele><time>2011-04-29T05:28:45.0000000+00:00</time></trkpt><trkpt lat="21.728817" lon="104.961578"><ele>46.0</ele><time>2011-04-29T05:28:50.0000000+00:00</time></trkpt><trkpt lat="21.728273" lon="104.961632"><ele>44.7</ele><time>2011-04-29T05:28:55.0000000+00:00</time></trkpt><trkpt lat="21.727743" lon="104.961685"><ele>43.4</ele><time>2011-04-29T05:29:00.0000000+00:00</time></trkpt><trkpt lat="21.727215" lon="104.961769"><ele>42.8</ele><time>2011-04-29T05:29:05.0000000+00:00</time></trkpt><trkpt lat="21.726742" lon="104.961823"><ele>44.2</ele><time>2011-04-29T05:29:10.0000000+00:00</time></trkpt><trkpt lat="21.726349" lon="104.962036"><ele>43.9</ele><time>2011-04-29T05:29:15.0000000+00:00</time></trkpt><trkpt lat="21.726118" lon="104.962471"><ele>43.6</ele><time>2011-04-29T05:29:20.0000000+00:00</time></trkpt><trkpt lat="21.726007" lon="104.963028"><ele>42.7</ele><time>2011-04-29T05:29:25.0000000+00:00</time></trkpt><trkpt lat="21.725925" lon="104.963516"><ele>42.2</ele><time>2011-04-29T05:29:30.0000000+00:00</time></trkpt><trkpt lat="21.725857" lon="104.963974"><ele>42.8</ele><time>2011-04-29T05:29:35.0000000+00:00</time></trkpt><trkpt lat="21.725733" lon="104.964478"><ele>43.1</ele><time>2011-04-29T05:29:40.0000000+00:00</time></trkpt><trkpt lat="21.725597" lon="104.96508"><ele>42.3</ele><time>2011-04-29T05:29:45.0000000+00:00</time></trkpt><trkpt lat="21.725468" lon="104.96563"><ele>41.5</ele><time>2011-04-29T05:29:50.0000000+00:00</time></trkpt><trkpt lat="21.725323" lon="104.966171"><ele>42.1</ele><time>2011-04-29T05:29:55.0000000+00:00</time></trkpt><trkpt lat="21.725231" lon="104.966721"><ele>43.5</ele><time>2011-04-29T05:30:00.0000000+00:00</time></trkpt><trkpt lat="21.725195" lon="104.967247"><ele>43.3</ele><time>2011-04-29T05:30:05.0000000+00:00</time></trkpt><trkpt lat="21.725168" lon="104.967758"><ele>43.8</ele><time>2011-04-29T05:30:10.0000000+00:00</time></trkpt><trkpt lat="21.725069" lon="104.968262"><ele>45.4</ele><time>2011-04-29T05:30:15.0000000+00:00</time></trkpt><trkpt lat="21.724842" lon="104.968727"><ele>47.3</ele><time>2011-04-29T05:30:20.0000000+00:00</time></trkpt><trkpt lat="21.724707" lon="104.969254"><ele>49.9</ele><time>2011-04-29T05:30:25.0000000+00:00</time></trkpt><trkpt lat="21.724735" lon="104.96978"><ele>48.8</ele><time>2011-04-29T05:30:30.0000000+00:00</time></trkpt><trkpt lat="21.724766" lon="104.970306"><ele>51.9</ele><time>2011-04-29T05:30:35.0000000+00:00</time></trkpt><trkpt lat="21.724762" lon="104.970795"><ele>55.0</ele><time>2011-04-29T05:30:40.0000000+00:00</time></trkpt><trkpt lat="21.724699" lon="104.971222"><ele>56.7</ele><time>2011-04-29T05:30:45.0000000+00:00</time></trkpt><trkpt lat="21.724695" lon="104.971397"><ele>56.3</ele><time>2011-04-29T05:30:50.0000000+00:00</time></trkpt><trkpt lat="21.724716" lon="104.971397"><ele>56.0</ele><time>2011-04-29T05:30:55.0000000+00:00</time></trkpt><trkpt lat="21.72472" lon="104.971405"><ele>56.1</ele><time>2011-04-29T05:31:00.0000000+00:00</time></trkpt><trkpt lat="21.724716" lon="104.971443"><ele>56.1</ele><time>2011-04-29T05:31:05.0000000+00:00</time></trkpt><trkpt lat="21.724716" lon="104.971718"><ele>56.8</ele><time>2011-04-29T05:31:10.0000000+00:00</time></trkpt><trkpt lat="21.724655" lon="104.972061"><ele>56.7</ele><time>2011-04-29T05:31:15.0000000+00:00</time></trkpt><trkpt lat="21.724556" lon="104.972511"><ele>55.8</ele><time>2011-04-29T05:31:20.0000000+00:00</time></trkpt><trkpt lat="21.724409" lon="104.972954"><ele>57.0</ele><time>2011-04-29T05:31:25.0000000+00:00</time></trkpt><trkpt lat="21.724134" lon="104.973366"><ele>57.0</ele><time>2011-04-29T05:31:30.0000000+00:00</time></trkpt><trkpt lat="21.723816" lon="104.973801"><ele>54.2</ele><time>2011-04-29T05:31:35.0000000+00:00</time></trkpt><trkpt lat="21.723454" lon="104.974213"><ele>53.8</ele><time>2011-04-29T05:31:40.0000000+00:00</time></trkpt><trkpt lat="21.723103" lon="104.974648"><ele>53.8</ele><time>2011-04-29T05:31:45.0000000+00:00</time></trkpt><trkpt lat="21.722818" lon="104.975082"><ele>54.3</ele><time>2011-04-29T05:31:50.0000000+00:00</time></trkpt><trkpt lat="21.722542" lon="104.975563"><ele>54.9</ele><time>2011-04-29T05:31:55.0000000+00:00</time></trkpt><trkpt lat="21.72224" lon="104.976074"><ele>55.4</ele><time>2011-04-29T05:32:00.0000000+00:00</time></trkpt><trkpt lat="21.721922" lon="104.976631"><ele>55.8</ele><time>2011-04-29T05:32:05.0000000+00:00</time></trkpt><trkpt lat="21.7216" lon="104.977234"><ele>55.8</ele><time>2011-04-29T05:32:10.0000000+00:00</time></trkpt><trkpt lat="21.721577" lon="104.977875"><ele>56.0</ele><time>2011-04-29T05:32:15.0000000+00:00</time></trkpt><trkpt lat="21.721754" lon="104.978455"><ele>57.0</ele><time>2011-04-29T05:32:20.0000000+00:00</time></trkpt><trkpt lat="21.721636" lon="104.979065"><ele>57.6</ele><time>2011-04-29T05:32:25.0000000+00:00</time></trkpt><trkpt lat="21.721306" lon="104.979591"><ele>54.5</ele><time>2011-04-29T05:32:30.0000000+00:00</time></trkpt><trkpt lat="21.721018" lon="104.98008"><ele>53.8</ele><time>2011-04-29T05:32:35.0000000+00:00</time></trkpt><trkpt lat="21.720953" lon="104.98069"><ele>51.5</ele><time>2011-04-29T05:32:40.0000000+00:00</time></trkpt><trkpt lat="21.72093" lon="104.981323"><ele>51.0</ele><time>2011-04-29T05:32:45.0000000+00:00</time></trkpt><trkpt lat="21.720966" lon="104.981934"><ele>57.6</ele><time>2011-04-29T05:32:50.0000000+00:00</time></trkpt><trkpt lat="21.721216" lon="104.98243"><ele>59.5</ele><time>2011-04-29T05:32:55.0000000+00:00</time></trkpt><trkpt lat="21.721481" lon="104.982864"><ele>62.4</ele><time>2011-04-29T05:33:00.0000000+00:00</time></trkpt><trkpt lat="21.721439" lon="104.98336"><ele>65.6</ele><time>2011-04-29T05:33:05.0000000+00:00</time></trkpt><trkpt lat="21.721251" lon="104.98378"><ele>67.8</ele><time>2011-04-29T05:33:10.0000000+00:00</time></trkpt><trkpt lat="21.721094" lon="104.984039"><ele>71.3</ele><time>2011-04-29T05:33:15.0000000+00:00</time></trkpt><trkpt lat="21.721001" lon="104.984238"><ele>74.5</ele><time>2011-04-29T05:33:20.0000000+00:00</time></trkpt><trkpt lat="21.720861" lon="104.984497"><ele>73.8</ele><time>2011-04-29T05:33:25.0000000+00:00</time></trkpt><trkpt lat="21.720638" lon="104.984917"><ele>72.9</ele><time>2011-04-29T05:33:30.0000000+00:00</time></trkpt><trkpt lat="21.720419" lon="104.985435"><ele>69.4</ele><time>2011-04-29T05:33:35.0000000+00:00</time></trkpt><trkpt lat="21.720163" lon="104.98597"><ele>69.0</ele><time>2011-04-29T05:33:40.0000000+00:00</time></trkpt><trkpt lat="21.719925" lon="104.986473"><ele>66.9</ele><time>2011-04-29T05:33:45.0000000+00:00</time></trkpt><trkpt lat="21.719603" lon="104.986977"><ele>63.4</ele><time>2011-04-29T05:33:50.0000000+00:00</time></trkpt><trkpt lat="21.719042" lon="104.987404"><ele>60.1</ele><time>2011-04-29T05:33:55.0000000+00:00</time></trkpt><trkpt lat="21.718395" lon="104.987854"><ele>58.1</ele><time>2011-04-29T05:34:00.0000000+00:00</time></trkpt><trkpt lat="21.717806" lon="104.988281"><ele>54.5</ele><time>2011-04-29T05:34:05.0000000+00:00</time></trkpt><trkpt lat="21.717197" lon="104.988739"><ele>54.4</ele><time>2011-04-29T05:34:10.0000000+00:00</time></trkpt><trkpt lat="21.716566" lon="104.989189"><ele>53.6</ele><time>2011-04-29T05:34:15.0000000+00:00</time></trkpt><trkpt lat="21.71608" lon="104.989708"><ele>54.6</ele><time>2011-04-29T05:34:20.0000000+00:00</time></trkpt><trkpt lat="21.715809" lon="104.990318"><ele>54.0</ele><time>2011-04-29T05:34:25.0000000+00:00</time></trkpt><trkpt lat="21.715473" lon="104.990784"><ele>52.6</ele><time>2011-04-29T05:34:30.0000000+00:00</time></trkpt><trkpt lat="21.714964" lon="104.991226"><ele>51.5</ele><time>2011-04-29T05:34:35.0000000+00:00</time></trkpt><trkpt lat="21.714384" lon="104.991768"><ele>50.0</ele><time>2011-04-29T05:34:40.0000000+00:00</time></trkpt><trkpt lat="21.713808" lon="104.99231"><ele>49.5</ele><time>2011-04-29T05:34:45.0000000+00:00</time></trkpt><trkpt lat="21.713255" lon="104.992844"><ele>48.6</ele><time>2011-04-29T05:34:50.0000000+00:00</time></trkpt><trkpt lat="21.712637" lon="104.993401"><ele>48.9</ele><time>2011-04-29T05:34:55.0000000+00:00</time></trkpt><trkpt lat="21.712103" lon="104.993996"><ele>49.6</ele><time>2011-04-29T05:35:00.0000000+00:00</time></trkpt><trkpt lat="21.711555" lon="104.994537"><ele>50.5</ele><time>2011-04-29T05:35:05.0000000+00:00</time></trkpt><trkpt lat="21.710876" lon="104.994888"><ele>50.1</ele><time>2011-04-29T05:35:10.0000000+00:00</time></trkpt><trkpt lat="21.710121" lon="104.995209"><ele>50.0</ele><time>2011-04-29T05:35:15.0000000+00:00</time></trkpt><trkpt lat="21.709438" lon="104.995514"><ele>50.2</ele><time>2011-04-29T05:35:20.0000000+00:00</time></trkpt><trkpt lat="21.708845" lon="104.995537"><ele>48.3</ele><time>2011-04-29T05:35:25.0000000+00:00</time></trkpt><trkpt lat="21.708267" lon="104.995316"><ele>46.3</ele><time>2011-04-29T05:35:30.0000000+00:00</time></trkpt><trkpt lat="21.707502" lon="104.995285"><ele>43.5</ele><time>2011-04-29T05:35:35.0000000+00:00</time></trkpt><trkpt lat="21.706753" lon="104.995346"><ele>45.7</ele><time>2011-04-29T05:35:40.0000000+00:00</time></trkpt><trkpt lat="21.706196" lon="104.995461"><ele>49.3</ele><time>2011-04-29T05:35:45.0000000+00:00</time></trkpt><trkpt lat="21.70582" lon="104.995857"><ele>53.7</ele><time>2011-04-29T05:35:50.0000000+00:00</time></trkpt><trkpt lat="21.705553" lon="104.996315"><ele>57.5</ele><time>2011-04-29T05:35:55.0000000+00:00</time></trkpt><trkpt lat="21.705225" lon="104.996597"><ele>60.2</ele><time>2011-04-29T05:36:00.0000000+00:00</time></trkpt><trkpt lat="21.704777" lon="104.99649"><ele>62.7</ele><time>2011-04-29T05:36:05.0000000+00:00</time></trkpt><trkpt lat="21.7043" lon="104.996223"><ele>64.9</ele><time>2011-04-29T05:36:10.0000000+00:00</time></trkpt><trkpt lat="21.703745" lon="104.996323"><ele>65.8</ele><time>2011-04-29T05:36:15.0000000+00:00</time></trkpt><trkpt lat="21.703232" lon="104.996643"><ele>67.1</ele><time>2011-04-29T05:36:20.0000000+00:00</time></trkpt><trkpt lat="21.702721" lon="104.996658"><ele>68.1</ele><time>2011-04-29T05:36:25.0000000+00:00</time></trkpt><trkpt lat="21.702196" lon="104.996399"><ele>70.6</ele><time>2011-04-29T05:36:30.0000000+00:00</time></trkpt><trkpt lat="21.701672" lon="104.996193"><ele>72.4</ele><time>2011-04-29T05:36:35.0000000+00:00</time></trkpt><trkpt lat="21.700991" lon="104.9963"><ele>72.4</ele><time>2011-04-29T05:36:40.0000000+00:00</time></trkpt><trkpt lat="21.700352" lon="104.99649"><ele>70.6</ele><time>2011-04-29T05:36:45.0000000+00:00</time></trkpt><trkpt lat="21.699677" lon="104.996681"><ele>63.2</ele><time>2011-04-29T05:36:50.0000000+00:00</time></trkpt><trkpt lat="21.698959" lon="104.996819"><ele>55.2</ele><time>2011-04-29T05:36:55.0000000+00:00</time></trkpt><trkpt lat="21.698341" lon="104.996803"><ele>53.2</ele><time>2011-04-29T05:37:00.0000000+00:00</time></trkpt><trkpt lat="21.697811" lon="104.996414"><ele>51.2</ele><time>2011-04-29T05:37:05.0000000+00:00</time></trkpt><trkpt lat="21.69725" lon="104.995972"><ele>52.2</ele><time>2011-04-29T05:37:10.0000000+00:00</time></trkpt><trkpt lat="21.696701" lon="104.995522"><ele>50.4</ele><time>2011-04-29T05:37:15.0000000+00:00</time></trkpt><trkpt lat="21.696156" lon="104.995087"><ele>50.9</ele><time>2011-04-29T05:37:20.0000000+00:00</time></trkpt><trkpt lat="21.69561" lon="104.994659"><ele>53.7</ele><time>2011-04-29T05:37:25.0000000+00:00</time></trkpt><trkpt lat="21.695055" lon="104.994537"><ele>57.2</ele><time>2011-04-29T05:37:30.0000000+00:00</time></trkpt><trkpt lat="21.694628" lon="104.994789"><ele>56.7</ele><time>2011-04-29T05:37:35.0000000+00:00</time></trkpt><trkpt lat="21.69421" lon="104.995171"><ele>58.6</ele><time>2011-04-29T05:37:40.0000000+00:00</time></trkpt><trkpt lat="21.693844" lon="104.995552"><ele>61.0</ele><time>2011-04-29T05:37:45.0000000+00:00</time></trkpt><trkpt lat="21.693432" lon="104.995461"><ele>62.9</ele><time>2011-04-29T05:37:50.0000000+00:00</time></trkpt><trkpt lat="21.693031" lon="104.995041"><ele>64.3</ele><time>2011-04-29T05:37:55.0000000+00:00</time></trkpt><trkpt lat="21.692503" lon="104.994583"><ele>64.2</ele><time>2011-04-29T05:38:00.0000000+00:00</time></trkpt><trkpt lat="21.691826" lon="104.994225"><ele>63.4</ele><time>2011-04-29T05:38:05.0000000+00:00</time></trkpt><trkpt lat="21.691195" lon="104.993973"><ele>62.8</ele><time>2011-04-29T05:38:10.0000000+00:00</time></trkpt><trkpt lat="21.690569" lon="104.994064"><ele>61.5</ele><time>2011-04-29T05:38:15.0000000+00:00</time></trkpt><trkpt lat="21.690023" lon="104.994354"><ele>63.8</ele><time>2011-04-29T05:38:20.0000000+00:00</time></trkpt><trkpt lat="21.689554" lon="104.994637"><ele>67.0</ele><time>2011-04-29T05:38:25.0000000+00:00</time></trkpt><trkpt lat="21.689262" lon="104.995087"><ele>71.5</ele><time>2011-04-29T05:38:30.0000000+00:00</time></trkpt><trkpt lat="21.689226" lon="104.995552"><ele>74.8</ele><time>2011-04-29T05:38:35.0000000+00:00</time></trkpt><trkpt lat="21.689445" lon="104.996033"><ele>77.7</ele><time>2011-04-29T05:38:40.0000000+00:00</time></trkpt><trkpt lat="21.689508" lon="104.996582"><ele>81.1</ele><time>2011-04-29T05:38:45.0000000+00:00</time></trkpt><trkpt lat="21.689203" lon="104.996956"><ele>84.9</ele><time>2011-04-29T05:38:50.0000000+00:00</time></trkpt><trkpt lat="21.688856" lon="104.997337"><ele>89.0</ele><time>2011-04-29T05:38:55.0000000+00:00</time></trkpt><trkpt lat="21.688808" lon="104.997772"><ele>93.0</ele><time>2011-04-29T05:39:00.0000000+00:00</time></trkpt><trkpt lat="21.688871" lon="104.998276"><ele>97.1</ele><time>2011-04-29T05:39:05.0000000+00:00</time></trkpt><trkpt lat="21.688885" lon="104.998772"><ele>101.3</ele><time>2011-04-29T05:39:10.0000000+00:00</time></trkpt><trkpt lat="21.688732" lon="104.999184"><ele>105.8</ele><time>2011-04-29T05:39:15.0000000+00:00</time></trkpt><trkpt lat="21.688334" lon="104.999268"><ele>110.4</ele><time>2011-04-29T05:39:20.0000000+00:00</time></trkpt><trkpt lat="21.687866" lon="104.999474"><ele>114.4</ele><time>2011-04-29T05:39:25.0000000+00:00</time></trkpt><trkpt lat="21.687584" lon="104.999886"><ele>118.4</ele><time>2011-04-29T05:39:30.0000000+00:00</time></trkpt><trkpt lat="21.687296" lon="105.000351"><ele>122.3</ele><time>2011-04-29T05:39:35.0000000+00:00</time></trkpt><trkpt lat="21.687101" lon="105.000908"><ele>125.9</ele><time>2011-04-29T05:39:40.0000000+00:00</time></trkpt><trkpt lat="21.687149" lon="105.001579"><ele>127.2</ele><time>2011-04-29T05:39:45.0000000+00:00</time></trkpt><trkpt lat="21.686838" lon="105.002136"><ele>125.5</ele><time>2011-04-29T05:39:50.0000000+00:00</time></trkpt><trkpt lat="21.686411" lon="105.002708"><ele>121.8</ele><time>2011-04-29T05:39:55.0000000+00:00</time></trkpt><trkpt lat="21.686058" lon="105.003418"><ele>116.1</ele><time>2011-04-29T05:40:00.0000000+00:00</time></trkpt><trkpt lat="21.685514" lon="105.00399"><ele>113.3</ele><time>2011-04-29T05:40:05.0000000+00:00</time></trkpt><trkpt lat="21.684944" lon="105.004471"><ele>108.4</ele><time>2011-04-29T05:40:10.0000000+00:00</time></trkpt><trkpt lat="21.684603" lon="105.005074"><ele>103.3</ele><time>2011-04-29T05:40:15.0000000+00:00</time></trkpt><trkpt lat="21.684324" lon="105.005676"><ele>98.6</ele><time>2011-04-29T05:40:20.0000000+00:00</time></trkpt><trkpt lat="21.683891" lon="105.006134"><ele>97.2</ele><time>2011-04-29T05:40:25.0000000+00:00</time></trkpt><trkpt lat="21.683506" lon="105.006462"><ele>87.6</ele><time>2011-04-29T05:40:30.0000000+00:00</time></trkpt><trkpt lat="21.683296" lon="105.006981"><ele>85.4</ele><time>2011-04-29T05:40:35.0000000+00:00</time></trkpt><trkpt lat="21.683119" lon="105.00753"><ele>85.2</ele><time>2011-04-29T05:40:40.0000000+00:00</time></trkpt><trkpt lat="21.682735" lon="105.007942"><ele>84.9</ele><time>2011-04-29T05:40:45.0000000+00:00</time></trkpt><trkpt lat="21.682365" lon="105.008369"><ele>84.9</ele><time>2011-04-29T05:40:50.0000000+00:00</time></trkpt><trkpt lat="21.682198" lon="105.008995"><ele>84.9</ele><time>2011-04-29T05:40:55.0000000+00:00</time></trkpt><trkpt lat="21.682119" lon="105.009674"><ele>84.8</ele><time>2011-04-29T05:41:00.0000000+00:00</time></trkpt><trkpt lat="21.68182" lon="105.010216"><ele>84.5</ele><time>2011-04-29T05:41:05.0000000+00:00</time></trkpt><trkpt lat="21.681322" lon="105.010521"><ele>83.9</ele><time>2011-04-29T05:41:10.0000000+00:00</time></trkpt><trkpt lat="21.680862" lon="105.010796"><ele>82.5</ele><time>2011-04-29T05:41:15.0000000+00:00</time></trkpt><trkpt lat="21.680407" lon="105.011276"><ele>80.3</ele><time>2011-04-29T05:41:20.0000000+00:00</time></trkpt><trkpt lat="21.679935" lon="105.011696"><ele>74.9</ele><time>2011-04-29T05:41:25.0000000+00:00</time></trkpt><trkpt lat="21.67942" lon="105.012039"><ele>71.7</ele><time>2011-04-29T05:41:30.0000000+00:00</time></trkpt><trkpt lat="21.678864" lon="105.012405"><ele>67.3</ele><time>2011-04-29T05:41:35.0000000+00:00</time></trkpt><trkpt lat="21.678429" lon="105.012703"><ele>67.0</ele><time>2011-04-29T05:41:40.0000000+00:00</time></trkpt><trkpt lat="21.678112" lon="105.013008"><ele>67.7</ele><time>2011-04-29T05:41:45.0000000+00:00</time></trkpt><trkpt lat="21.677876" lon="105.013466"><ele>69.1</ele><time>2011-04-29T05:41:50.0000000+00:00</time></trkpt><trkpt lat="21.677679" lon="105.014061"><ele>69.4</ele><time>2011-04-29T05:41:55.0000000+00:00</time></trkpt><trkpt lat="21.677505" lon="105.014626"><ele>68.7</ele><time>2011-04-29T05:42:00.0000000+00:00</time></trkpt><trkpt lat="21.677349" lon="105.015175"><ele>67.8</ele><time>2011-04-29T05:42:05.0000000+00:00</time></trkpt><trkpt lat="21.677219" lon="105.015686"><ele>68.5</ele><time>2011-04-29T05:42:10.0000000+00:00</time></trkpt><trkpt lat="21.677078" lon="105.016197"><ele>70.3</ele><time>2011-04-29T05:42:15.0000000+00:00</time></trkpt><trkpt lat="21.676947" lon="105.016731"><ele>71.5</ele><time>2011-04-29T05:42:20.0000000+00:00</time></trkpt><trkpt lat="21.676786" lon="105.017265"><ele>72.8</ele><time>2011-04-29T05:42:25.0000000+00:00</time></trkpt><trkpt lat="21.676617" lon="105.017815"><ele>74.1</ele><time>2011-04-29T05:42:30.0000000+00:00</time></trkpt><trkpt lat="21.676353" lon="105.018333"><ele>75.2</ele><time>2011-04-29T05:42:35.0000000+00:00</time></trkpt><trkpt lat="21.676037" lon="105.018768"><ele>75.9</ele><time>2011-04-29T05:42:40.0000000+00:00</time></trkpt><trkpt lat="21.675686" lon="105.019211"><ele>77.0</ele><time>2011-04-29T05:42:45.0000000+00:00</time></trkpt><trkpt lat="21.675257" lon="105.019608"><ele>78.5</ele><time>2011-04-29T05:42:50.0000000+00:00</time></trkpt><trkpt lat="21.674822" lon="105.019928"><ele>79.1</ele><time>2011-04-29T05:42:55.0000000+00:00</time></trkpt><trkpt lat="21.674406" lon="105.020393"><ele>79.2</ele><time>2011-04-29T05:43:00.0000000+00:00</time></trkpt><trkpt lat="21.674105" lon="105.02095"><ele>79.5</ele><time>2011-04-29T05:43:05.0000000+00:00</time></trkpt><trkpt lat="21.673862" lon="105.021545"><ele>79.7</ele><time>2011-04-29T05:43:10.0000000+00:00</time></trkpt><trkpt lat="21.673717" lon="105.022095"><ele>79.8</ele><time>2011-04-29T05:43:15.0000000+00:00</time></trkpt><trkpt lat="21.673666" lon="105.02272"><ele>79.8</ele><time>2011-04-29T05:43:20.0000000+00:00</time></trkpt><trkpt lat="21.673708" lon="105.023315"><ele>80.5</ele><time>2011-04-29T05:43:25.0000000+00:00</time></trkpt><trkpt lat="21.673729" lon="105.023926"><ele>81.5</ele><time>2011-04-29T05:43:30.0000000+00:00</time></trkpt><trkpt lat="21.673502" lon="105.024544"><ele>82.2</ele><time>2011-04-29T05:43:35.0000000+00:00</time></trkpt><trkpt lat="21.673231" lon="105.025093"><ele>82.8</ele><time>2011-04-29T05:43:40.0000000+00:00</time></trkpt><trkpt lat="21.673346" lon="105.025635"><ele>83.3</ele><time>2011-04-29T05:43:45.0000000+00:00</time></trkpt><trkpt lat="21.673681" lon="105.026123"><ele>83.6</ele><time>2011-04-29T05:43:50.0000000+00:00</time></trkpt><trkpt lat="21.673985" lon="105.026634"><ele>83.9</ele><time>2011-04-29T05:43:55.0000000+00:00</time></trkpt><trkpt lat="21.674067" lon="105.027222"><ele>83.2</ele><time>2011-04-29T05:44:00.0000000+00:00</time></trkpt><trkpt lat="21.67382" lon="105.027802"><ele>83.3</ele><time>2011-04-29T05:44:05.0000000+00:00</time></trkpt><trkpt lat="21.673281" lon="105.028221"><ele>81.4</ele><time>2011-04-29T05:44:10.0000000+00:00</time></trkpt><trkpt lat="21.672707" lon="105.028564"><ele>77.8</ele><time>2011-04-29T05:44:15.0000000+00:00</time></trkpt><trkpt lat="21.672331" lon="105.028954"><ele>73.9</ele><time>2011-04-29T05:44:20.0000000+00:00</time></trkpt><trkpt lat="21.672192" lon="105.029556"><ele>69.7</ele><time>2011-04-29T05:44:25.0000000+00:00</time></trkpt><trkpt lat="21.671856" lon="105.030136"><ele>67.1</ele><time>2011-04-29T05:44:30.0000000+00:00</time></trkpt><trkpt lat="21.671616" lon="105.03067"><ele>65.1</ele><time>2011-04-29T05:44:35.0000000+00:00</time></trkpt><trkpt lat="21.671795" lon="105.031204"><ele>65.0</ele><time>2011-04-29T05:44:40.0000000+00:00</time></trkpt><trkpt lat="21.672083" lon="105.031731"><ele>65.7</ele><time>2011-04-29T05:44:45.0000000+00:00</time></trkpt><trkpt lat="21.67227" lon="105.032303"><ele>66.0</ele><time>2011-04-29T05:44:50.0000000+00:00</time></trkpt><trkpt lat="21.672297" lon="105.032913"><ele>66.6</ele><time>2011-04-29T05:44:55.0000000+00:00</time></trkpt><trkpt lat="21.672186" lon="105.033516"><ele>67.1</ele><time>2011-04-29T05:45:00.0000000+00:00</time></trkpt><trkpt lat="21.672035" lon="105.034134"><ele>67.6</ele><time>2011-04-29T05:45:05.0000000+00:00</time></trkpt><trkpt lat="21.671915" lon="105.034782"><ele>65.6</ele><time>2011-04-29T05:45:10.0000000+00:00</time></trkpt><trkpt lat="21.671919" lon="105.035408"><ele>64.4</ele><time>2011-04-29T05:45:15.0000000+00:00</time></trkpt><trkpt lat="21.672108" lon="105.035919"><ele>63.2</ele><time>2011-04-29T05:45:20.0000000+00:00</time></trkpt><trkpt lat="21.672337" lon="105.036278"><ele>62.9</ele><time>2011-04-29T05:45:25.0000000+00:00</time></trkpt><trkpt lat="21.672684" lon="105.03656"><ele>62.8</ele><time>2011-04-29T05:45:30.0000000+00:00</time></trkpt><trkpt lat="21.673075" lon="105.03672"><ele>60.5</ele><time>2011-04-29T05:45:35.0000000+00:00</time></trkpt><trkpt lat="21.673401" lon="105.036842"><ele>59.3</ele><time>2011-04-29T05:45:40.0000000+00:00</time></trkpt><trkpt lat="21.673725" lon="105.03701"><ele>60.0</ele><time>2011-04-29T05:45:45.0000000+00:00</time></trkpt><trkpt lat="21.673975" lon="105.037308"><ele>59.9</ele><time>2011-04-29T05:45:50.0000000+00:00</time></trkpt><trkpt lat="21.674143" lon="105.037674"><ele>59.1</ele><time>2011-04-29T05:45:55.0000000+00:00</time></trkpt><trkpt lat="21.674322" lon="105.03804"><ele>59.3</ele><time>2011-04-29T05:46:00.0000000+00:00</time></trkpt><trkpt lat="21.674442" lon="105.038506"><ele>59.6</ele><time>2011-04-29T05:46:05.0000000+00:00</time></trkpt><trkpt lat="21.674345" lon="105.038918"><ele>59.2</ele><time>2011-04-29T05:46:10.0000000+00:00</time></trkpt><trkpt lat="21.674191" lon="105.039238"><ele>58.3</ele><time>2011-04-29T05:46:15.0000000+00:00</time></trkpt><trkpt lat="21.673952" lon="105.039497"><ele>58.7</ele><time>2011-04-29T05:46:20.0000000+00:00</time></trkpt><trkpt lat="21.673969" lon="105.039841"><ele>59.1</ele><time>2011-04-29T05:46:25.0000000+00:00</time></trkpt><trkpt lat="21.674234" lon="105.040131"><ele>59.7</ele><time>2011-04-29T05:46:30.0000000+00:00</time></trkpt><trkpt lat="21.674421" lon="105.040413"><ele>60.4</ele><time>2011-04-29T05:46:35.0000000+00:00</time></trkpt><trkpt lat="21.674582" lon="105.040733"><ele>60.3</ele><time>2011-04-29T05:46:40.0000000+00:00</time></trkpt><trkpt lat="21.674786" lon="105.040985"><ele>59.7</ele><time>2011-04-29T05:46:45.0000000+00:00</time></trkpt><trkpt lat="21.675058" lon="105.041351"><ele>57.9</ele><time>2011-04-29T05:46:50.0000000+00:00</time></trkpt><trkpt lat="21.675301" lon="105.04171"><ele>56.0</ele><time>2011-04-29T05:46:55.0000000+00:00</time></trkpt><trkpt lat="21.675591" lon="105.042053"><ele>53.2</ele><time>2011-04-29T05:47:00.0000000+00:00</time></trkpt><trkpt lat="21.675869" lon="105.042366"><ele>51.6</ele><time>2011-04-29T05:47:05.0000000+00:00</time></trkpt><trkpt lat="21.676107" lon="105.042778"><ele>49.0</ele><time>2011-04-29T05:47:10.0000000+00:00</time></trkpt><trkpt lat="21.676294" lon="105.043167"><ele>48.0</ele><time>2011-04-29T05:47:15.0000000+00:00</time></trkpt><trkpt lat="21.676418" lon="105.043564"><ele>47.1</ele><time>2011-04-29T05:47:20.0000000+00:00</time></trkpt><trkpt lat="21.676283" lon="105.043877"><ele>46.1</ele><time>2011-04-29T05:47:25.0000000+00:00</time></trkpt><trkpt lat="21.675938" lon="105.044014"><ele>44.8</ele><time>2011-04-29T05:47:30.0000000+00:00</time></trkpt><trkpt lat="21.675529" lon="105.044235"><ele>44.0</ele><time>2011-04-29T05:47:35.0000000+00:00</time></trkpt><trkpt lat="21.675299" lon="105.044479"><ele>44.1</ele><time>2011-04-29T05:47:40.0000000+00:00</time></trkpt><trkpt lat="21.675129" lon="105.044762"><ele>43.4</ele><time>2011-04-29T05:47:45.0000000+00:00</time></trkpt><trkpt lat="21.675119" lon="105.045128"><ele>42.5</ele><time>2011-04-29T05:47:50.0000000+00:00</time></trkpt><trkpt lat="21.675419" lon="105.045418"><ele>41.6</ele><time>2011-04-29T05:47:55.0000000+00:00</time></trkpt><trkpt lat="21.67555" lon="105.045815"><ele>40.6</ele><time>2011-04-29T05:48:00.0000000+00:00</time></trkpt><trkpt lat="21.675486" lon="105.046036"><ele>39.5</ele><time>2011-04-29T05:48:05.0000000+00:00</time></trkpt><trkpt lat="21.675386" lon="105.046333"><ele>38.8</ele><time>2011-04-29T05:48:10.0000000+00:00</time></trkpt><trkpt lat="21.6754" lon="105.046722"><ele>38.4</ele><time>2011-04-29T05:48:15.0000000+00:00</time></trkpt><trkpt lat="21.675453" lon="105.04715"><ele>37.3</ele><time>2011-04-29T05:48:20.0000000+00:00</time></trkpt><trkpt lat="21.675285" lon="105.047508"><ele>36.8</ele><time>2011-04-29T05:48:25.0000000+00:00</time></trkpt><trkpt lat="21.675011" lon="105.047859"><ele>35.6</ele><time>2011-04-29T05:48:30.0000000+00:00</time></trkpt><trkpt lat="21.674776" lon="105.048286"><ele>34.5</ele><time>2011-04-29T05:48:35.0000000+00:00</time></trkpt><trkpt lat="21.674671" lon="105.048759"><ele>33.6</ele><time>2011-04-29T05:48:40.0000000+00:00</time></trkpt><trkpt lat="21.674679" lon="105.049316"><ele>33.2</ele><time>2011-04-29T05:48:45.0000000+00:00</time></trkpt><trkpt lat="21.674831" lon="105.049858"><ele>32.0</ele><time>2011-04-29T05:48:50.0000000+00:00</time></trkpt><trkpt lat="21.675035" lon="105.050316"><ele>32.6</ele><time>2011-04-29T05:48:55.0000000+00:00</time></trkpt><trkpt lat="21.674973" lon="105.050797"><ele>33.2</ele><time>2011-04-29T05:49:00.0000000+00:00</time></trkpt><trkpt lat="21.674799" lon="105.051247"><ele>34.4</ele><time>2011-04-29T05:49:05.0000000+00:00</time></trkpt><trkpt lat="21.674725" lon="105.051811"><ele>35.4</ele><time>2011-04-29T05:49:10.0000000+00:00</time></trkpt><trkpt lat="21.674732" lon="105.052361"><ele>36.0</ele><time>2011-04-29T05:49:15.0000000+00:00</time></trkpt><trkpt lat="21.674738" lon="105.052879"><ele>37.1</ele><time>2011-04-29T05:49:20.0000000+00:00</time></trkpt><trkpt lat="21.674744" lon="105.053482"><ele>37.7</ele><time>2011-04-29T05:49:25.0000000+00:00</time></trkpt><trkpt lat="21.674799" lon="105.054176"><ele>38.5</ele><time>2011-04-29T05:49:30.0000000+00:00</time></trkpt><trkpt lat="21.674932" lon="105.054832"><ele>36.5</ele><time>2011-04-29T05:49:35.0000000+00:00</time></trkpt><trkpt lat="21.675259" lon="105.055412"><ele>35.6</ele><time>2011-04-29T05:49:40.0000000+00:00</time></trkpt><trkpt lat="21.675745" lon="105.055923"><ele>32.5</ele><time>2011-04-29T05:49:45.0000000+00:00</time></trkpt><trkpt lat="21.67638" lon="105.056206"><ele>30.2</ele><time>2011-04-29T05:49:50.0000000+00:00</time></trkpt><trkpt lat="21.676765" lon="105.056763"><ele>28.6</ele><time>2011-04-29T05:49:55.0000000+00:00</time></trkpt><trkpt lat="21.677206" lon="105.057259"><ele>25.8</ele><time>2011-04-29T05:50:00.0000000+00:00</time></trkpt><trkpt lat="21.677776" lon="105.057686"><ele>23.8</ele><time>2011-04-29T05:50:05.0000000+00:00</time></trkpt><trkpt lat="21.677935" lon="105.058273"><ele>22.9</ele><time>2011-04-29T05:50:10.0000000+00:00</time></trkpt><trkpt lat="21.6777" lon="105.058853"><ele>21.5</ele><time>2011-04-29T05:50:15.0000000+00:00</time></trkpt><trkpt lat="21.677408" lon="105.059479"><ele>21.7</ele><time>2011-04-29T05:50:20.0000000+00:00</time></trkpt><trkpt lat="21.677135" lon="105.060143"><ele>21.3</ele><time>2011-04-29T05:50:25.0000000+00:00</time></trkpt><trkpt lat="21.677034" lon="105.060852"><ele>20.0</ele><time>2011-04-29T05:50:30.0000000+00:00</time></trkpt><trkpt lat="21.676979" lon="105.061584"><ele>18.0</ele><time>2011-04-29T05:50:35.0000000+00:00</time></trkpt><trkpt lat="21.677006" lon="105.062332"><ele>17.2</ele><time>2011-04-29T05:50:40.0000000+00:00</time></trkpt><trkpt lat="21.677103" lon="105.062851"><ele>18.7</ele><time>2011-04-29T05:50:45.0000000+00:00</time></trkpt><trkpt lat="21.677185" lon="105.063248"><ele>19.4</ele><time>2011-04-29T05:50:50.0000000+00:00</time></trkpt><trkpt lat="21.677265" lon="105.063744"><ele>20.7</ele><time>2011-04-29T05:50:55.0000000+00:00</time></trkpt><trkpt lat="21.677374" lon="105.064255"><ele>19.8</ele><time>2011-04-29T05:51:00.0000000+00:00</time></trkpt><trkpt lat="21.677425" lon="105.064789"><ele>19.6</ele><time>2011-04-29T05:51:05.0000000+00:00</time></trkpt><trkpt lat="21.677488" lon="105.065384"><ele>21.2</ele><time>2011-04-29T05:51:10.0000000+00:00</time></trkpt><trkpt lat="21.677582" lon="105.066086"><ele>21.7</ele><time>2011-04-29T05:51:15.0000000+00:00</time></trkpt><trkpt lat="21.677668" lon="105.066826"><ele>21.8</ele><time>2011-04-29T05:51:20.0000000+00:00</time></trkpt><trkpt lat="21.677767" lon="105.067474"><ele>22.5</ele><time>2011-04-29T05:51:25.0000000+00:00</time></trkpt><trkpt lat="21.677826" lon="105.068115"><ele>23.3</ele><time>2011-04-29T05:51:30.0000000+00:00</time></trkpt><trkpt lat="21.677923" lon="105.068771"><ele>23.9</ele><time>2011-04-29T05:51:35.0000000+00:00</time></trkpt><trkpt lat="21.678066" lon="105.069283"><ele>22.5</ele><time>2011-04-29T05:51:40.0000000+00:00</time></trkpt><trkpt lat="21.678318" lon="105.069778"><ele>19.5</ele><time>2011-04-29T05:51:45.0000000+00:00</time></trkpt><trkpt lat="21.678709" lon="105.070305"><ele>18.8</ele><time>2011-04-29T05:51:50.0000000+00:00</time></trkpt><trkpt lat="21.679136" lon="105.070847"><ele>17.6</ele><time>2011-04-29T05:51:55.0000000+00:00</time></trkpt><trkpt lat="21.679596" lon="105.071335"><ele>14.7</ele><time>2011-04-29T05:52:00.0000000+00:00</time></trkpt><trkpt lat="21.679974" lon="105.071861"><ele>15.5</ele><time>2011-04-29T05:52:05.0000000+00:00</time></trkpt><trkpt lat="21.679916" lon="105.072395"><ele>16.5</ele><time>2011-04-29T05:52:10.0000000+00:00</time></trkpt><trkpt lat="21.679609" lon="105.072914"><ele>17.5</ele><time>2011-04-29T05:52:15.0000000+00:00</time></trkpt><trkpt lat="21.679377" lon="105.073402"><ele>18.7</ele><time>2011-04-29T05:52:20.0000000+00:00</time></trkpt><trkpt lat="21.679295" lon="105.07399"><ele>20.6</ele><time>2011-04-29T05:52:25.0000000+00:00</time></trkpt><trkpt lat="21.679346" lon="105.074654"><ele>19.5</ele><time>2011-04-29T05:52:30.0000000+00:00</time></trkpt><trkpt lat="21.679628" lon="105.075272"><ele>15.4</ele><time>2011-04-29T05:52:35.0000000+00:00</time></trkpt><trkpt lat="21.680082" lon="105.075806"><ele>13.2</ele><time>2011-04-29T05:52:40.0000000+00:00</time></trkpt><trkpt lat="21.680462" lon="105.076431"><ele>12.0</ele><time>2011-04-29T05:52:45.0000000+00:00</time></trkpt><trkpt lat="21.680658" lon="105.076988"><ele>11.4</ele><time>2011-04-29T05:52:50.0000000+00:00</time></trkpt><trkpt lat="21.680645" lon="105.077133"><ele>11.1</ele><time>2011-04-29T05:52:55.0000000+00:00</time></trkpt><trkpt lat="21.680609" lon="105.077141"><ele>11.4</ele><time>2011-04-29T05:53:00.0000000+00:00</time></trkpt><trkpt lat="21.680601" lon="105.077164"><ele>12.2</ele><time>2011-04-29T05:53:05.0000000+00:00</time></trkpt><trkpt lat="21.680597" lon="105.077187"><ele>13.0</ele><time>2011-04-29T05:53:10.0000000+00:00</time></trkpt><trkpt lat="21.680563" lon="105.077263"><ele>14.8</ele><time>2011-04-29T05:53:15.0000000+00:00</time></trkpt><trkpt lat="21.680435" lon="105.077438"><ele>14.8</ele><time>2011-04-29T05:53:20.0000000+00:00</time></trkpt><trkpt lat="21.680202" lon="105.077698"><ele>15.1</ele><time>2011-04-29T05:53:25.0000000+00:00</time></trkpt><trkpt lat="21.679737" lon="105.077896"><ele>14.8</ele><time>2011-04-29T05:53:30.0000000+00:00</time></trkpt><trkpt lat="21.679237" lon="105.07798"><ele>14.2</ele><time>2011-04-29T05:53:35.0000000+00:00</time></trkpt><trkpt lat="21.678665" lon="105.078148"><ele>14.2</ele><time>2011-04-29T05:53:40.0000000+00:00</time></trkpt><trkpt lat="21.678062" lon="105.078415"><ele>14.7</ele><time>2011-04-29T05:53:45.0000000+00:00</time></trkpt><trkpt lat="21.677492" lon="105.078857"><ele>15.5</ele><time>2011-04-29T05:53:50.0000000+00:00</time></trkpt><trkpt lat="21.676943" lon="105.079407"><ele>15.8</ele><time>2011-04-29T05:53:55.0000000+00:00</time></trkpt><trkpt lat="21.676405" lon="105.079964"><ele>16.2</ele><time>2011-04-29T05:54:00.0000000+00:00</time></trkpt><trkpt lat="21.67584" lon="105.080589"><ele>16.8</ele><time>2011-04-29T05:54:05.0000000+00:00</time></trkpt><trkpt lat="21.675222" lon="105.081245"><ele>17.8</ele><time>2011-04-29T05:54:10.0000000+00:00</time></trkpt><trkpt lat="21.674606" lon="105.081848"><ele>19.1</ele><time>2011-04-29T05:54:15.0000000+00:00</time></trkpt><trkpt lat="21.674028" lon="105.082451"><ele>20.6</ele><time>2011-04-29T05:54:20.0000000+00:00</time></trkpt><trkpt lat="21.673531" lon="105.083153"><ele>21.0</ele><time>2011-04-29T05:54:25.0000000+00:00</time></trkpt><trkpt lat="21.673058" lon="105.083893"><ele>21.9</ele><time>2011-04-29T05:54:30.0000000+00:00</time></trkpt><trkpt lat="21.67267" lon="105.084473"><ele>22.2</ele><time>2011-04-29T05:54:35.0000000+00:00</time></trkpt><trkpt lat="21.672096" lon="105.084763"><ele>20.8</ele><time>2011-04-29T05:54:40.0000000+00:00</time></trkpt><trkpt lat="21.671402" lon="105.084694"><ele>20.6</ele><time>2011-04-29T05:54:45.0000000+00:00</time></trkpt><trkpt lat="21.670826" lon="105.084282"><ele>21.7</ele><time>2011-04-29T05:54:50.0000000+00:00</time></trkpt><trkpt lat="21.670427" lon="105.083725"><ele>24.4</ele><time>2011-04-29T05:54:55.0000000+00:00</time></trkpt><trkpt lat="21.669989" lon="105.08342"><ele>26.2</ele><time>2011-04-29T05:55:00.0000000+00:00</time></trkpt><trkpt lat="21.669418" lon="105.083496"><ele>27.5</ele><time>2011-04-29T05:55:05.0000000+00:00</time></trkpt><trkpt lat="21.66885" lon="105.083748"><ele>27.7</ele><time>2011-04-29T05:55:10.0000000+00:00</time></trkpt><trkpt lat="21.668341" lon="105.084167"><ele>28.8</ele><time>2011-04-29T05:55:15.0000000+00:00</time></trkpt><trkpt lat="21.667933" lon="105.084633"><ele>31.0</ele><time>2011-04-29T05:55:20.0000000+00:00</time></trkpt><trkpt lat="21.667469" lon="105.085052"><ele>31.9</ele><time>2011-04-29T05:55:25.0000000+00:00</time></trkpt><trkpt lat="21.666847" lon="105.085342"><ele>29.1</ele><time>2011-04-29T05:55:30.0000000+00:00</time></trkpt><trkpt lat="21.666067" lon="105.085503"><ele>25.8</ele><time>2011-04-29T05:55:35.0000000+00:00</time></trkpt><trkpt lat="21.665253" lon="105.085617"><ele>25.7</ele><time>2011-04-29T05:55:40.0000000+00:00</time></trkpt><trkpt lat="21.664461" lon="105.085747"><ele>24.2</ele><time>2011-04-29T05:55:45.0000000+00:00</time></trkpt><trkpt lat="21.663769" lon="105.086037"><ele>21.1</ele><time>2011-04-29T05:55:50.0000000+00:00</time></trkpt><trkpt lat="21.66329" lon="105.086563"><ele>19.2</ele><time>2011-04-29T05:55:55.0000000+00:00</time></trkpt><trkpt lat="21.662981" lon="105.087051"><ele>17.8</ele><time>2011-04-29T05:56:00.0000000+00:00</time></trkpt><trkpt lat="21.662827" lon="105.087227"><ele>16.6</ele><time>2011-04-29T05:56:05.0000000+00:00</time></trkpt><trkpt lat="21.662651" lon="105.087372"><ele>14.2</ele><time>2011-04-29T05:56:10.0000000+00:00</time></trkpt><trkpt lat="21.662357" lon="105.087631"><ele>12.6</ele><time>2011-04-29T05:56:15.0000000+00:00</time></trkpt><trkpt lat="21.662031" lon="105.087845"><ele>12.1</ele><time>2011-04-29T05:56:20.0000000+00:00</time></trkpt><trkpt lat="21.661886" lon="105.087875"><ele>11.0</ele><time>2011-04-29T05:56:25.0000000+00:00</time></trkpt><trkpt lat="21.661699" lon="105.087936"><ele>8.8</ele><time>2011-04-29T05:56:30.0000000+00:00</time></trkpt><trkpt lat="21.661442" lon="105.088013"><ele>9.0</ele><time>2011-04-29T05:56:35.0000000+00:00</time></trkpt><trkpt lat="21.661024" lon="105.08812"><ele>8.0</ele><time>2011-04-29T05:56:40.0000000+00:00</time></trkpt><trkpt lat="21.660549" lon="105.08815"><ele>8.3</ele><time>2011-04-29T05:56:45.0000000+00:00</time></trkpt><trkpt lat="21.660027" lon="105.088043"><ele>8.4</ele><time>2011-04-29T05:56:50.0000000+00:00</time></trkpt><trkpt lat="21.659464" lon="105.087837"><ele>7.8</ele><time>2011-04-29T05:56:55.0000000+00:00</time></trkpt><trkpt lat="21.658895" lon="105.087646"><ele>7.1</ele><time>2011-04-29T05:57:00.0000000+00:00</time></trkpt><trkpt lat="21.658325" lon="105.0877"><ele>7.5</ele><time>2011-04-29T05:57:05.0000000+00:00</time></trkpt><trkpt lat="21.657745" lon="105.088028"><ele>8.0</ele><time>2011-04-29T05:57:10.0000000+00:00</time></trkpt><trkpt lat="21.657137" lon="105.088394"><ele>8.1</ele><time>2011-04-29T05:57:15.0000000+00:00</time></trkpt><trkpt lat="21.656443" lon="105.088493"><ele>10.9</ele><time>2011-04-29T05:57:20.0000000+00:00</time></trkpt><trkpt lat="21.65576" lon="105.088387"><ele>14.2</ele><time>2011-04-29T05:57:25.0000000+00:00</time></trkpt><trkpt lat="21.655087" lon="105.088249"><ele>18.7</ele><time>2011-04-29T05:57:30.0000000+00:00</time></trkpt><trkpt lat="21.654417" lon="105.088104"><ele>21.0</ele><time>2011-04-29T05:57:35.0000000+00:00</time></trkpt><trkpt lat="21.653698" lon="105.087967"><ele>21.8</ele><time>2011-04-29T05:57:40.0000000+00:00</time></trkpt><trkpt lat="21.652966" lon="105.088036"><ele>23.2</ele><time>2011-04-29T05:57:45.0000000+00:00</time></trkpt><trkpt lat="21.652277" lon="105.088371"><ele>24.8</ele><time>2011-04-29T05:57:50.0000000+00:00</time></trkpt><trkpt lat="21.651703" lon="105.088905"><ele>23.8</ele><time>2011-04-29T05:57:55.0000000+00:00</time></trkpt><trkpt lat="21.65115" lon="105.089439"><ele>24.8</ele><time>2011-04-29T05:58:00.0000000+00:00</time></trkpt><trkpt lat="21.650661" lon="105.090057"><ele>25.6</ele><time>2011-04-29T05:58:05.0000000+00:00</time></trkpt><trkpt lat="21.650229" lon="105.090736"><ele>26.1</ele><time>2011-04-29T05:58:10.0000000+00:00</time></trkpt><trkpt lat="21.649933" lon="105.091476"><ele>26.2</ele><time>2011-04-29T05:58:15.0000000+00:00</time></trkpt><trkpt lat="21.649544" lon="105.092125"><ele>24.5</ele><time>2011-04-29T05:58:20.0000000+00:00</time></trkpt><trkpt lat="21.648996" lon="105.092529"><ele>21.7</ele><time>2011-04-29T05:58:25.0000000+00:00</time></trkpt><trkpt lat="21.648523" lon="105.093048"><ele>19.0</ele><time>2011-04-29T05:58:30.0000000+00:00</time></trkpt><trkpt lat="21.648216" lon="105.093636"><ele>19.2</ele><time>2011-04-29T05:58:35.0000000+00:00</time></trkpt><trkpt lat="21.647909" lon="105.094025"><ele>21.3</ele><time>2011-04-29T05:58:40.0000000+00:00</time></trkpt><trkpt lat="21.647818" lon="105.094116"><ele>19.8</ele><time>2011-04-29T05:58:45.0000000+00:00</time></trkpt><trkpt lat="21.647717" lon="105.094223"><ele>20.2</ele><time>2011-04-29T05:58:50.0000000+00:00</time></trkpt><trkpt lat="21.647495" lon="105.094383"><ele>20.3</ele><time>2011-04-29T05:58:55.0000000+00:00</time></trkpt><trkpt lat="21.647108" lon="105.094513"><ele>21.9</ele><time>2011-04-29T05:59:00.0000000+00:00</time></trkpt><trkpt lat="21.64662" lon="105.094666"><ele>21.9</ele><time>2011-04-29T05:59:05.0000000+00:00</time></trkpt><trkpt lat="21.646172" lon="105.095024"><ele>20.8</ele><time>2011-04-29T05:59:10.0000000+00:00</time></trkpt><trkpt lat="21.645903" lon="105.095551"><ele>21.1</ele><time>2011-04-29T05:59:15.0000000+00:00</time></trkpt><trkpt lat="21.645823" lon="105.096161"><ele>22.7</ele><time>2011-04-29T05:59:20.0000000+00:00</time></trkpt><trkpt lat="21.645985" lon="105.096809"><ele>22.9</ele><time>2011-04-29T05:59:25.0000000+00:00</time></trkpt><trkpt lat="21.646288" lon="105.097466"><ele>23.1</ele><time>2011-04-29T05:59:30.0000000+00:00</time></trkpt><trkpt lat="21.646385" lon="105.098099"><ele>22.7</ele><time>2011-04-29T05:59:35.0000000+00:00</time></trkpt><trkpt lat="21.646051" lon="105.098564"><ele>23.1</ele><time>2011-04-29T05:59:40.0000000+00:00</time></trkpt><trkpt lat="21.645561" lon="105.098938"><ele>23.1</ele><time>2011-04-29T05:59:45.0000000+00:00</time></trkpt><trkpt lat="21.645325" lon="105.099556"><ele>24.0</ele><time>2011-04-29T05:59:50.0000000+00:00</time></trkpt><trkpt lat="21.645309" lon="105.100296"><ele>25.0</ele><time>2011-04-29T05:59:55.0000000+00:00</time></trkpt><trkpt lat="21.645304" lon="105.101067"><ele>25.1</ele><time>2011-04-29T06:00:00.0000000+00:00</time></trkpt><trkpt lat="21.645262" lon="105.10186"><ele>24.6</ele><time>2011-04-29T06:00:05.0000000+00:00</time></trkpt><trkpt lat="21.645205" lon="105.102669"><ele>23.3</ele><time>2011-04-29T06:00:10.0000000+00:00</time></trkpt><trkpt lat="21.645157" lon="105.103477"><ele>23.4</ele><time>2011-04-29T06:00:15.0000000+00:00</time></trkpt><trkpt lat="21.64513" lon="105.104309"><ele>22.4</ele><time>2011-04-29T06:00:20.0000000+00:00</time></trkpt><trkpt lat="21.644979" lon="105.105095"><ele>21.3</ele><time>2011-04-29T06:00:25.0000000+00:00</time></trkpt><trkpt lat="21.64468" lon="105.105812"><ele>19.3</ele><time>2011-04-29T06:00:30.0000000+00:00</time></trkpt><trkpt lat="21.644264" lon="105.106483"><ele>18.0</ele><time>2011-04-29T06:00:35.0000000+00:00</time></trkpt><trkpt lat="21.643717" lon="105.106918"><ele>16.2</ele><time>2011-04-29T06:00:40.0000000+00:00</time></trkpt><trkpt lat="21.643061" lon="105.107224"><ele>16.2</ele><time>2011-04-29T06:00:45.0000000+00:00</time></trkpt><trkpt lat="21.642529" lon="105.107681"><ele>16.4</ele><time>2011-04-29T06:00:50.0000000+00:00</time></trkpt><trkpt lat="21.642269" lon="105.108376"><ele>17.8</ele><time>2011-04-29T06:00:55.0000000+00:00</time></trkpt><trkpt lat="21.641979" lon="105.109062"><ele>19.6</ele><time>2011-04-29T06:01:00.0000000+00:00</time></trkpt><trkpt lat="21.641491" lon="105.10965"><ele>17.8</ele><time>2011-04-29T06:01:05.0000000+00:00</time></trkpt><trkpt lat="21.640991" lon="105.110313"><ele>18.7</ele><time>2011-04-29T06:01:10.0000000+00:00</time></trkpt><trkpt lat="21.640568" lon="105.111015"><ele>18.9</ele><time>2011-04-29T06:01:15.0000000+00:00</time></trkpt><trkpt lat="21.640207" lon="105.111732"><ele>19.3</ele><time>2011-04-29T06:01:20.0000000+00:00</time></trkpt><trkpt lat="21.639795" lon="105.112328"><ele>18.9</ele><time>2011-04-29T06:01:25.0000000+00:00</time></trkpt><trkpt lat="21.639244" lon="105.112694"><ele>20.0</ele><time>2011-04-29T06:01:30.0000000+00:00</time></trkpt><trkpt lat="21.638554" lon="105.112587"><ele>15.9</ele><time>2011-04-29T06:01:35.0000000+00:00</time></trkpt><trkpt lat="21.637844" lon="105.112373"><ele>15.6</ele><time>2011-04-29T06:01:40.0000000+00:00</time></trkpt><trkpt lat="21.637104" lon="105.112259"><ele>15.4</ele><time>2011-04-29T06:01:45.0000000+00:00</time></trkpt><trkpt lat="21.636389" lon="105.112381"><ele>17.2</ele><time>2011-04-29T06:01:50.0000000+00:00</time></trkpt><trkpt lat="21.635807" lon="105.112732"><ele>20.5</ele><time>2011-04-29T06:01:55.0000000+00:00</time></trkpt><trkpt lat="21.635279" lon="105.113083"><ele>22.4</ele><time>2011-04-29T06:02:00.0000000+00:00</time></trkpt><trkpt lat="21.634678" lon="105.113144"><ele>21.9</ele><time>2011-04-29T06:02:05.0000000+00:00</time></trkpt><trkpt lat="21.634092" lon="105.113327"><ele>19.2</ele><time>2011-04-29T06:02:10.0000000+00:00</time></trkpt><trkpt lat="21.633749" lon="105.113792"><ele>16.5</ele><time>2011-04-29T06:02:15.0000000+00:00</time></trkpt><trkpt lat="21.633686" lon="105.11425"><ele>14.9</ele><time>2011-04-29T06:02:20.0000000+00:00</time></trkpt><trkpt lat="21.633911" lon="105.114754"><ele>13.7</ele><time>2011-04-29T06:02:25.0000000+00:00</time></trkpt><trkpt lat="21.634241" lon="105.115295"><ele>11.8</ele><time>2011-04-29T06:02:30.0000000+00:00</time></trkpt><trkpt lat="21.634304" lon="105.115898"><ele>10.9</ele><time>2011-04-29T06:02:35.0000000+00:00</time></trkpt><trkpt lat="21.633999" lon="105.116447"><ele>10.0</ele><time>2011-04-29T06:02:40.0000000+00:00</time></trkpt><trkpt lat="21.633497" lon="105.116722"><ele>9.0</ele><time>2011-04-29T06:02:45.0000000+00:00</time></trkpt><trkpt lat="21.632978" lon="105.116982"><ele>12.1</ele><time>2011-04-29T06:02:50.0000000+00:00</time></trkpt><trkpt lat="21.632624" lon="105.117233"><ele>12.9</ele><time>2011-04-29T06:02:55.0000000+00:00</time></trkpt><trkpt lat="21.632412" lon="105.117638"><ele>14.6</ele><time>2011-04-29T06:03:00.0000000+00:00</time></trkpt><trkpt lat="21.632277" lon="105.118134"><ele>15.2</ele><time>2011-04-29T06:03:05.0000000+00:00</time></trkpt><trkpt lat="21.632195" lon="105.11869"><ele>17.4</ele><time>2011-04-29T06:03:10.0000000+00:00</time></trkpt><trkpt lat="21.632341" lon="105.119293"><ele>18.0</ele><time>2011-04-29T06:03:15.0000000+00:00</time></trkpt><trkpt lat="21.632635" lon="105.119873"><ele>19.1</ele><time>2011-04-29T06:03:20.0000000+00:00</time></trkpt><trkpt lat="21.632767" lon="105.120506"><ele>18.4</ele><time>2011-04-29T06:03:25.0000000+00:00</time></trkpt><trkpt lat="21.632769" lon="105.121094"><ele>17.8</ele><time>2011-04-29T06:03:30.0000000+00:00</time></trkpt><trkpt lat="21.632849" lon="105.121635"><ele>17.9</ele><time>2011-04-29T06:03:35.0000000+00:00</time></trkpt><trkpt lat="21.63291" lon="105.122169"><ele>17.7</ele><time>2011-04-29T06:03:40.0000000+00:00</time></trkpt><trkpt lat="21.632893" lon="105.122757"><ele>18.0</ele><time>2011-04-29T06:03:45.0000000+00:00</time></trkpt><trkpt lat="21.632904" lon="105.123329"><ele>18.6</ele><time>2011-04-29T06:03:50.0000000+00:00</time></trkpt><trkpt lat="21.632874" lon="105.123924"><ele>19.2</ele><time>2011-04-29T06:03:55.0000000+00:00</time></trkpt><trkpt lat="21.632849" lon="105.124504"><ele>20.1</ele><time>2011-04-29T06:04:00.0000000+00:00</time></trkpt><trkpt lat="21.632778" lon="105.125053"><ele>18.1</ele><time>2011-04-29T06:04:05.0000000+00:00</time></trkpt><trkpt lat="21.63262" lon="105.125572"><ele>16.8</ele><time>2011-04-29T06:04:10.0000000+00:00</time></trkpt><trkpt lat="21.632332" lon="105.126068"><ele>15.2</ele><time>2011-04-29T06:04:15.0000000+00:00</time></trkpt><trkpt lat="21.63201" lon="105.126503"><ele>16.0</ele><time>2011-04-29T06:04:20.0000000+00:00</time></trkpt><trkpt lat="21.631744" lon="105.126945"><ele>17.1</ele><time>2011-04-29T06:04:25.0000000+00:00</time></trkpt><trkpt lat="21.631569" lon="105.127464"><ele>16.4</ele><time>2011-04-29T06:04:30.0000000+00:00</time></trkpt><trkpt lat="21.631483" lon="105.127953"><ele>17.3</ele><time>2011-04-29T06:04:35.0000000+00:00</time></trkpt><trkpt lat="21.631548" lon="105.128494"><ele>19.4</ele><time>2011-04-29T06:04:40.0000000+00:00</time></trkpt><trkpt lat="21.631657" lon="105.129021"><ele>19.6</ele><time>2011-04-29T06:04:45.0000000+00:00</time></trkpt><trkpt lat="21.631773" lon="105.129593"><ele>18.3</ele><time>2011-04-29T06:04:50.0000000+00:00</time></trkpt><trkpt lat="21.631899" lon="105.13015"><ele>19.0</ele><time>2011-04-29T06:04:55.0000000+00:00</time></trkpt><trkpt lat="21.631985" lon="105.130714"><ele>19.0</ele><time>2011-04-29T06:05:00.0000000+00:00</time></trkpt><trkpt lat="21.632076" lon="105.131302"><ele>18.1</ele><time>2011-04-29T06:05:05.0000000+00:00</time></trkpt><trkpt lat="21.632195" lon="105.131851"><ele>18.7</ele><time>2011-04-29T06:05:10.0000000+00:00</time></trkpt><trkpt lat="21.632286" lon="105.132423"><ele>16.5</ele><time>2011-04-29T06:05:15.0000000+00:00</time></trkpt><trkpt lat="21.632349" lon="105.132957"><ele>16.2</ele><time>2011-04-29T06:05:20.0000000+00:00</time></trkpt><trkpt lat="21.632277" lon="105.133568"><ele>16.4</ele><time>2011-04-29T06:05:25.0000000+00:00</time></trkpt><trkpt lat="21.632084" lon="105.134155"><ele>16.5</ele><time>2011-04-29T06:05:30.0000000+00:00</time></trkpt><trkpt lat="21.63179" lon="105.134682"><ele>17.8</ele><time>2011-04-29T06:05:35.0000000+00:00</time></trkpt><trkpt lat="21.631489" lon="105.135178"><ele>17.4</ele><time>2011-04-29T06:05:40.0000000+00:00</time></trkpt><trkpt lat="21.631176" lon="105.135712"><ele>15.8</ele><time>2011-04-29T06:05:45.0000000+00:00</time></trkpt><trkpt lat="21.630833" lon="105.136269"><ele>15.1</ele><time>2011-04-29T06:05:50.0000000+00:00</time></trkpt><trkpt lat="21.63047" lon="105.136833"><ele>15.4</ele><time>2011-04-29T06:05:55.0000000+00:00</time></trkpt><trkpt lat="21.630089" lon="105.137451"><ele>15.3</ele><time>2011-04-29T06:06:00.0000000+00:00</time></trkpt><trkpt lat="21.629709" lon="105.138069"><ele>14.6</ele><time>2011-04-29T06:06:05.0000000+00:00</time></trkpt><trkpt lat="21.629311" lon="105.138702"><ele>14.5</ele><time>2011-04-29T06:06:10.0000000+00:00</time></trkpt><trkpt lat="21.62891" lon="105.13932"><ele>14.1</ele><time>2011-04-29T06:06:15.0000000+00:00</time></trkpt><trkpt lat="21.628523" lon="105.139877"><ele>13.8</ele><time>2011-04-29T06:06:20.0000000+00:00</time></trkpt><trkpt lat="21.628159" lon="105.140388"><ele>14.0</ele><time>2011-04-29T06:06:25.0000000+00:00</time></trkpt><trkpt lat="21.6278" lon="105.140839"><ele>15.5</ele><time>2011-04-29T06:06:30.0000000+00:00</time></trkpt><trkpt lat="21.627443" lon="105.141327"><ele>16.2</ele><time>2011-04-29T06:06:35.0000000+00:00</time></trkpt><trkpt lat="21.627102" lon="105.141785"><ele>17.1</ele><time>2011-04-29T06:06:40.0000000+00:00</time></trkpt><trkpt lat="21.626869" lon="105.142128"><ele>17.9</ele><time>2011-04-29T06:06:45.0000000+00:00</time></trkpt><trkpt lat="21.626644" lon="105.142456"><ele>17.5</ele><time>2011-04-29T06:06:50.0000000+00:00</time></trkpt><trkpt lat="21.626348" lon="105.142838"><ele>16.6</ele><time>2011-04-29T06:06:55.0000000+00:00</time></trkpt><trkpt lat="21.626011" lon="105.143295"><ele>15.8</ele><time>2011-04-29T06:07:00.0000000+00:00</time></trkpt><trkpt lat="21.625622" lon="105.143822"><ele>15.7</ele><time>2011-04-29T06:07:05.0000000+00:00</time></trkpt><trkpt lat="21.625214" lon="105.144402"><ele>14.9</ele><time>2011-04-29T06:07:10.0000000+00:00</time></trkpt><trkpt lat="21.6248" lon="105.144966"><ele>13.8</ele><time>2011-04-29T06:07:15.0000000+00:00</time></trkpt><trkpt lat="21.624403" lon="105.145508"><ele>13.6</ele><time>2011-04-29T06:07:20.0000000+00:00</time></trkpt><trkpt lat="21.624018" lon="105.146027"><ele>13.0</ele><time>2011-04-29T06:07:25.0000000+00:00</time></trkpt><trkpt lat="21.623623" lon="105.146545"><ele>12.0</ele><time>2011-04-29T06:07:30.0000000+00:00</time></trkpt><trkpt lat="21.623302" lon="105.147163"><ele>12.0</ele><time>2011-04-29T06:07:35.0000000+00:00</time></trkpt><trkpt lat="21.623077" lon="105.14782"><ele>11.0</ele><time>2011-04-29T06:07:40.0000000+00:00</time></trkpt><trkpt lat="21.622936" lon="105.14846"><ele>9.8</ele><time>2011-04-29T06:07:45.0000000+00:00</time></trkpt><trkpt lat="21.622858" lon="105.14901"><ele>7.7</ele><time>2011-04-29T06:07:50.0000000+00:00</time></trkpt><trkpt lat="21.622812" lon="105.14959"><ele>8.0</ele><time>2011-04-29T06:07:55.0000000+00:00</time></trkpt><trkpt lat="21.622789" lon="105.150146"><ele>8.9</ele><time>2011-04-29T06:08:00.0000000+00:00</time></trkpt><trkpt lat="21.622852" lon="105.150719"><ele>9.6</ele><time>2011-04-29T06:08:05.0000000+00:00</time></trkpt><trkpt lat="21.622997" lon="105.151283"><ele>11.7</ele><time>2011-04-29T06:08:10.0000000+00:00</time></trkpt><trkpt lat="21.623278" lon="105.151695"><ele>11.7</ele><time>2011-04-29T06:08:15.0000000+00:00</time></trkpt><trkpt lat="21.623695" lon="105.151993"><ele>13.2</ele><time>2011-04-29T06:08:20.0000000+00:00</time></trkpt><trkpt lat="21.624142" lon="105.152252"><ele>13.5</ele><time>2011-04-29T06:08:25.0000000+00:00</time></trkpt><trkpt lat="21.624598" lon="105.152504"><ele>13.4</ele><time>2011-04-29T06:08:30.0000000+00:00</time></trkpt><trkpt lat="21.625027" lon="105.152779"><ele>14.2</ele><time>2011-04-29T06:08:35.0000000+00:00</time></trkpt><trkpt lat="21.625433" lon="105.153046"><ele>15.0</ele><time>2011-04-29T06:08:40.0000000+00:00</time></trkpt><trkpt lat="21.625816" lon="105.15329"><ele>15.9</ele><time>2011-04-29T06:08:45.0000000+00:00</time></trkpt><trkpt lat="21.62615" lon="105.153557"><ele>17.7</ele><time>2011-04-29T06:08:50.0000000+00:00</time></trkpt><trkpt lat="21.626398" lon="105.154015"><ele>18.9</ele><time>2011-04-29T06:08:55.0000000+00:00</time></trkpt><trkpt lat="21.626484" lon="105.154594"><ele>20.1</ele><time>2011-04-29T06:09:00.0000000+00:00</time></trkpt><trkpt lat="21.626459" lon="105.15519"><ele>19.9</ele><time>2011-04-29T06:09:05.0000000+00:00</time></trkpt><trkpt lat="21.626425" lon="105.155792"><ele>15.2</ele><time>2011-04-29T06:09:10.0000000+00:00</time></trkpt><trkpt lat="21.626295" lon="105.156464"><ele>14.3</ele><time>2011-04-29T06:09:15.0000000+00:00</time></trkpt><trkpt lat="21.626129" lon="105.157082"><ele>14.9</ele><time>2011-04-29T06:09:20.0000000+00:00</time></trkpt><trkpt lat="21.625866" lon="105.157654"><ele>14.1</ele><time>2011-04-29T06:09:25.0000000+00:00</time></trkpt><trkpt lat="21.625601" lon="105.158211"><ele>13.8</ele><time>2011-04-29T06:09:30.0000000+00:00</time></trkpt><trkpt lat="21.625345" lon="105.158699"><ele>13.4</ele><time>2011-04-29T06:09:35.0000000+00:00</time></trkpt><trkpt lat="21.62513" lon="105.159157"><ele>12.8</ele><time>2011-04-29T06:09:40.0000000+00:00</time></trkpt><trkpt lat="21.624874" lon="105.159698"><ele>11.9</ele><time>2011-04-29T06:09:45.0000000+00:00</time></trkpt><trkpt lat="21.624632" lon="105.160202"><ele>12.3</ele><time>2011-04-29T06:09:50.0000000+00:00</time></trkpt><trkpt lat="21.62442" lon="105.160675"><ele>12.6</ele><time>2011-04-29T06:09:55.0000000+00:00</time></trkpt><trkpt lat="21.624218" lon="105.161072"><ele>13.4</ele><time>2011-04-29T06:10:00.0000000+00:00</time></trkpt><trkpt lat="21.624022" lon="105.161484"><ele>13.7</ele><time>2011-04-29T06:10:05.0000000+00:00</time></trkpt><trkpt lat="21.623823" lon="105.161865"><ele>13.7</ele><time>2011-04-29T06:10:10.0000000+00:00</time></trkpt><trkpt lat="21.623693" lon="105.162331"><ele>14.0</ele><time>2011-04-29T06:10:15.0000000+00:00</time></trkpt><trkpt lat="21.623646" lon="105.162842"><ele>13.5</ele><time>2011-04-29T06:10:20.0000000+00:00</time></trkpt><trkpt lat="21.62364" lon="105.163406"><ele>12.2</ele><time>2011-04-29T06:10:25.0000000+00:00</time></trkpt><trkpt lat="21.623741" lon="105.163963"><ele>12.0</ele><time>2011-04-29T06:10:30.0000000+00:00</time></trkpt><trkpt lat="21.623932" lon="105.164459"><ele>12.6</ele><time>2011-04-29T06:10:35.0000000+00:00</time></trkpt><trkpt lat="21.624151" lon="105.164948"><ele>13.8</ele><time>2011-04-29T06:10:40.0000000+00:00</time></trkpt><trkpt lat="21.624287" lon="105.165489"><ele>15.5</ele><time>2011-04-29T06:10:45.0000000+00:00</time></trkpt><trkpt lat="21.624279" lon="105.166008"><ele>16.3</ele><time>2011-04-29T06:10:50.0000000+00:00</time></trkpt><trkpt lat="21.624096" lon="105.166534"><ele>15.2</ele><time>2011-04-29T06:10:55.0000000+00:00</time></trkpt><trkpt lat="21.623735" lon="105.166954"><ele>13.2</ele><time>2011-04-29T06:11:00.0000000+00:00</time></trkpt><trkpt lat="21.623373" lon="105.167458"><ele>12.3</ele><time>2011-04-29T06:11:05.0000000+00:00</time></trkpt><trkpt lat="21.623072" lon="105.167976"><ele>11.9</ele><time>2011-04-29T06:11:10.0000000+00:00</time></trkpt><trkpt lat="21.622639" lon="105.168343"><ele>12.1</ele><time>2011-04-29T06:11:15.0000000+00:00</time></trkpt><trkpt lat="21.622152" lon="105.168564"><ele>13.3</ele><time>2011-04-29T06:11:20.0000000+00:00</time></trkpt><trkpt lat="21.621719" lon="105.168854"><ele>13.9</ele><time>2011-04-29T06:11:25.0000000+00:00</time></trkpt><trkpt lat="21.621502" lon="105.169304"><ele>13.2</ele><time>2011-04-29T06:11:30.0000000+00:00</time></trkpt><trkpt lat="21.621464" lon="105.169853"><ele>14.5</ele><time>2011-04-29T06:11:35.0000000+00:00</time></trkpt><trkpt lat="21.621658" lon="105.170364"><ele>14.2</ele><time>2011-04-29T06:11:40.0000000+00:00</time></trkpt><trkpt lat="21.622004" lon="105.170761"><ele>13.8</ele><time>2011-04-29T06:11:45.0000000+00:00</time></trkpt><trkpt lat="21.62219" lon="105.171234"><ele>11.8</ele><time>2011-04-29T06:11:50.0000000+00:00</time></trkpt><trkpt lat="21.622169" lon="105.171768"><ele>12.3</ele><time>2011-04-29T06:11:55.0000000+00:00</time></trkpt><trkpt lat="21.622322" lon="105.17218"><ele>13.4</ele><time>2011-04-29T06:12:00.0000000+00:00</time></trkpt><trkpt lat="21.62266" lon="105.172531"><ele>14.2</ele><time>2011-04-29T06:12:05.0000000+00:00</time></trkpt><trkpt lat="21.622993" lon="105.172867"><ele>15.3</ele><time>2011-04-29T06:12:10.0000000+00:00</time></trkpt><trkpt lat="21.623148" lon="105.17334"><ele>17.4</ele><time>2011-04-29T06:12:15.0000000+00:00</time></trkpt><trkpt lat="21.62331" lon="105.173698"><ele>19.7</ele><time>2011-04-29T06:12:20.0000000+00:00</time></trkpt><trkpt lat="21.623384" lon="105.173904"><ele>18.7</ele><time>2011-04-29T06:12:25.0000000+00:00</time></trkpt><trkpt lat="21.623415" lon="105.173927"><ele>19.7</ele><time>2011-04-29T06:12:30.0000000+00:00</time></trkpt><trkpt lat="21.623421" lon="105.17392"><ele>20.2</ele><time>2011-04-29T06:12:35.0000000+00:00</time></trkpt><trkpt lat="21.623423" lon="105.173912"><ele>20.4</ele><time>2011-04-29T06:12:40.0000000+00:00</time></trkpt><trkpt lat="21.623419" lon="105.173912"><ele>20.4</ele><time>2011-04-29T06:12:45.0000000+00:00</time></trkpt><trkpt lat="21.623415" lon="105.17392"><ele>20.4</ele><time>2011-04-29T06:12:50.0000000+00:00</time></trkpt><trkpt lat="21.623415" lon="105.173927"><ele>20.4</ele><time>2011-04-29T06:12:55.0000000+00:00</time></trkpt><trkpt lat="21.623409" lon="105.173927"><ele>20.4</ele><time>2011-04-29T06:13:00.0000000+00:00</time></trkpt><trkpt lat="21.623404" lon="105.173927"><ele>20.4</ele><time>2011-04-29T06:13:05.0000000+00:00</time></trkpt><trkpt lat="21.623404" lon="105.17392"><ele>20.4</ele><time>2011-04-29T06:13:10.0000000+00:00</time></trkpt><trkpt lat="21.623405" lon="105.17392"><ele>20.4</ele><time>2011-04-29T06:13:15.0000000+00:00</time></trkpt><trkpt lat="21.623405" lon="105.173927"><ele>20.4</ele><time>2011-04-29T06:13:20.0000000+00:00</time></trkpt><trkpt lat="21.623404" lon="105.173927"><ele>20.4</ele><time>2011-04-29T06:13:25.0000000+00:00</time></trkpt><trkpt lat="21.623407" lon="105.173927"><ele>20.4</ele><time>2011-04-29T06:13:30.0000000+00:00</time></trkpt><trkpt lat="21.623419" lon="105.173935"><ele>20.4</ele><time>2011-04-29T06:13:35.0000000+00:00</time></trkpt><trkpt lat="21.623428" lon="105.173943"><ele>20.3</ele><time>2011-04-29T06:13:40.0000000+00:00</time></trkpt><trkpt lat="21.623432" lon="105.17395"><ele>20.3</ele><time>2011-04-29T06:13:45.0000000+00:00</time></trkpt><trkpt lat="21.623428" lon="105.17395"><ele>20.3</ele><time>2011-04-29T06:13:50.0000000+00:00</time></trkpt><trkpt lat="21.623426" lon="105.17395"><ele>20.4</ele><time>2011-04-29T06:13:55.0000000+00:00</time></trkpt><trkpt lat="21.623425" lon="105.17395"><ele>20.4</ele><time>2011-04-29T06:14:00.0000000+00:00</time></trkpt><trkpt lat="21.623428" lon="105.173958"><ele>20.5</ele><time>2011-04-29T06:14:05.0000000+00:00</time></trkpt><trkpt lat="21.623486" lon="105.174095"><ele>21.0</ele><time>2011-04-29T06:14:10.0000000+00:00</time></trkpt><trkpt lat="21.623621" lon="105.17437"><ele>22.1</ele><time>2011-04-29T06:14:15.0000000+00:00</time></trkpt><trkpt lat="21.62376" lon="105.174728"><ele>20.6</ele><time>2011-04-29T06:14:20.0000000+00:00</time></trkpt><trkpt lat="21.623873" lon="105.175095"><ele>23.4</ele><time>2011-04-29T06:14:25.0000000+00:00</time></trkpt><trkpt lat="21.623924" lon="105.175522"><ele>28.1</ele><time>2011-04-29T06:14:30.0000000+00:00</time></trkpt><trkpt lat="21.623909" lon="105.175926"><ele>30.4</ele><time>2011-04-29T06:14:35.0000000+00:00</time></trkpt><trkpt lat="21.623924" lon="105.176361"><ele>32.3</ele><time>2011-04-29T06:14:40.0000000+00:00</time></trkpt><trkpt lat="21.623981" lon="105.176819"><ele>35.1</ele><time>2011-04-29T06:14:45.0000000+00:00</time></trkpt><trkpt lat="21.623894" lon="105.177277"><ele>37.1</ele><time>2011-04-29T06:14:50.0000000+00:00</time></trkpt><trkpt lat="21.623594" lon="105.177757"><ele>38.8</ele><time>2011-04-29T06:14:55.0000000+00:00</time></trkpt><trkpt lat="21.62335" lon="105.1782"><ele>40.0</ele><time>2011-04-29T06:15:00.0000000+00:00</time></trkpt><trkpt lat="21.623442" lon="105.178696"><ele>40.5</ele><time>2011-04-29T06:15:05.0000000+00:00</time></trkpt><trkpt lat="21.623722" lon="105.179192"><ele>32.0</ele><time>2011-04-29T06:15:10.0000000+00:00</time></trkpt><trkpt lat="21.62402" lon="105.17971"><ele>25.8</ele><time>2011-04-29T06:15:15.0000000+00:00</time></trkpt><trkpt lat="21.624279" lon="105.180099"><ele>23.0</ele><time>2011-04-29T06:15:20.0000000+00:00</time></trkpt><trkpt lat="21.624723" lon="105.180275"><ele>19.0</ele><time>2011-04-29T06:15:25.0000000+00:00</time></trkpt><trkpt lat="21.625149" lon="105.180511"><ele>13.3</ele><time>2011-04-29T06:15:30.0000000+00:00</time></trkpt><trkpt lat="21.625399" lon="105.180901"><ele>10.7</ele><time>2011-04-29T06:15:35.0000000+00:00</time></trkpt><trkpt lat="21.625401" lon="105.181419"><ele>7.5</ele><time>2011-04-29T06:15:40.0000000+00:00</time></trkpt><trkpt lat="21.625238" lon="105.181862"><ele>6.5</ele><time>2011-04-29T06:15:45.0000000+00:00</time></trkpt><trkpt lat="21.625166" lon="105.182327"><ele>3.9</ele><time>2011-04-29T06:15:50.0000000+00:00</time></trkpt><trkpt lat="21.625351" lon="105.18277"><ele>5.7</ele><time>2011-04-29T06:15:55.0000000+00:00</time></trkpt><trkpt lat="21.625616" lon="105.183052"><ele>5.7</ele><time>2011-04-29T06:16:00.0000000+00:00</time></trkpt><trkpt lat="21.625835" lon="105.183327"><ele>6.0</ele><time>2011-04-29T06:16:05.0000000+00:00</time></trkpt><trkpt lat="21.625973" lon="105.183578"><ele>5.1</ele><time>2011-04-29T06:16:10.0000000+00:00</time></trkpt><trkpt lat="21.62598" lon="105.183678"><ele>6.0</ele><time>2011-04-29T06:16:15.0000000+00:00</time></trkpt><trkpt lat="21.625965" lon="105.183685"><ele>6.2</ele><time>2011-04-29T06:16:20.0000000+00:00</time></trkpt><trkpt lat="21.625956" lon="105.183685"><ele>6.3</ele><time>2011-04-29T06:16:25.0000000+00:00</time></trkpt><trkpt lat="21.625948" lon="105.183685"><ele>6.3</ele><time>2011-04-29T06:16:30.0000000+00:00</time></trkpt><trkpt lat="21.625956" lon="105.183701"><ele>6.4</ele><time>2011-04-29T06:16:35.0000000+00:00</time></trkpt><trkpt lat="21.625872" lon="105.183846"><ele>7.2</ele><time>2011-04-29T06:16:40.0000000+00:00</time></trkpt><trkpt lat="21.625694" lon="105.184036"><ele>9.4</ele><time>2011-04-29T06:16:45.0000000+00:00</time></trkpt><trkpt lat="21.62537" lon="105.184303"><ele>12.5</ele><time>2011-04-29T06:16:50.0000000+00:00</time></trkpt><trkpt lat="21.625048" lon="105.184563"><ele>16.3</ele><time>2011-04-29T06:16:55.0000000+00:00</time></trkpt><trkpt lat="21.624777" lon="105.184807"><ele>14.0</ele><time>2011-04-29T06:17:00.0000000+00:00</time></trkpt><trkpt lat="21.624506" lon="105.185036"><ele>14.1</ele><time>2011-04-29T06:17:05.0000000+00:00</time></trkpt><trkpt lat="21.624184" lon="105.18528"><ele>13.6</ele><time>2011-04-29T06:17:10.0000000+00:00</time></trkpt><trkpt lat="21.623789" lon="105.185547"><ele>14.5</ele><time>2011-04-29T06:17:15.0000000+00:00</time></trkpt><trkpt lat="21.623434" lon="105.185783"><ele>13.5</ele><time>2011-04-29T06:17:20.0000000+00:00</time></trkpt><trkpt lat="21.623035" lon="105.185989"><ele>11.6</ele><time>2011-04-29T06:17:25.0000000+00:00</time></trkpt><trkpt lat="21.622665" lon="105.186165"><ele>11.7</ele><time>2011-04-29T06:17:30.0000000+00:00</time></trkpt><trkpt lat="21.622379" lon="105.186378"><ele>13.2</ele><time>2011-04-29T06:17:35.0000000+00:00</time></trkpt><trkpt lat="21.622149" lon="105.18663"><ele>12.6</ele><time>2011-04-29T06:17:40.0000000+00:00</time></trkpt><trkpt lat="21.621897" lon="105.186928"><ele>7.5</ele><time>2011-04-29T06:17:45.0000000+00:00</time></trkpt><trkpt lat="21.621597" lon="105.187241"><ele>3.8</ele><time>2011-04-29T06:17:50.0000000+00:00</time></trkpt><trkpt lat="21.621307" lon="105.187576"><ele>1.5</ele><time>2011-04-29T06:17:55.0000000+00:00</time></trkpt><trkpt lat="21.621014" lon="105.187904"><ele>4.1</ele><time>2011-04-29T06:18:00.0000000+00:00</time></trkpt><trkpt lat="21.620707" lon="105.188225"><ele>4.1</ele><time>2011-04-29T06:18:05.0000000+00:00</time></trkpt><trkpt lat="21.620386" lon="105.188339"><ele>5.8</ele><time>2011-04-29T06:18:10.0000000+00:00</time></trkpt><trkpt lat="21.620049" lon="105.188187"><ele>5.5</ele><time>2011-04-29T06:18:15.0000000+00:00</time></trkpt><trkpt lat="21.619709" lon="105.187889"><ele>6.4</ele><time>2011-04-29T06:18:20.0000000+00:00</time></trkpt><trkpt lat="21.61935" lon="105.187576"><ele>7.6</ele><time>2011-04-29T06:18:25.0000000+00:00</time></trkpt><trkpt lat="21.619005" lon="105.187225"><ele>9.4</ele><time>2011-04-29T06:18:30.0000000+00:00</time></trkpt><trkpt lat="21.618658" lon="105.186867"><ele>9.4</ele><time>2011-04-29T06:18:35.0000000+00:00</time></trkpt><trkpt lat="21.618292" lon="105.186569"><ele>9.2</ele><time>2011-04-29T06:18:40.0000000+00:00</time></trkpt><trkpt lat="21.617912" lon="105.186317"><ele>10.3</ele><time>2011-04-29T06:18:45.0000000+00:00</time></trkpt><trkpt lat="21.617483" lon="105.18618"><ele>11.5</ele><time>2011-04-29T06:18:50.0000000+00:00</time></trkpt><trkpt lat="21.617039" lon="105.186058"><ele>11.2</ele><time>2011-04-29T06:18:55.0000000+00:00</time></trkpt><trkpt lat="21.616629" lon="105.185844"><ele>11.3</ele><time>2011-04-29T06:19:00.0000000+00:00</time></trkpt><trkpt lat="21.616228" lon="105.185616"><ele>9.9</ele><time>2011-04-29T06:19:05.0000000+00:00</time></trkpt><trkpt lat="21.61585" lon="105.185356"><ele>8.7</ele><time>2011-04-29T06:19:10.0000000+00:00</time></trkpt><trkpt lat="21.615469" lon="105.18515"><ele>6.2</ele><time>2011-04-29T06:19:15.0000000+00:00</time></trkpt><trkpt lat="21.615089" lon="105.184898"><ele>6.7</ele><time>2011-04-29T06:19:20.0000000+00:00</time></trkpt><trkpt lat="21.614752" lon="105.184677"><ele>7.8</ele><time>2011-04-29T06:19:25.0000000+00:00</time></trkpt><trkpt lat="21.614483" lon="105.184494"><ele>8.0</ele><time>2011-04-29T06:19:30.0000000+00:00</time></trkpt><trkpt lat="21.614189" lon="105.184319"><ele>7.0</ele><time>2011-04-29T06:19:35.0000000+00:00</time></trkpt><trkpt lat="21.613871" lon="105.184052"><ele>4.0</ele><time>2011-04-29T06:19:40.0000000+00:00</time></trkpt><trkpt lat="21.613523" lon="105.183762"><ele>3.1</ele><time>2011-04-29T06:19:45.0000000+00:00</time></trkpt><trkpt lat="21.613146" lon="105.183464"><ele>3.4</ele><time>2011-04-29T06:19:50.0000000+00:00</time></trkpt><trkpt lat="21.612701" lon="105.183098"><ele>2.2</ele><time>2011-04-29T06:19:55.0000000+00:00</time></trkpt><trkpt lat="21.612232" lon="105.182755"><ele>2.4</ele><time>2011-04-29T06:20:00.0000000+00:00</time></trkpt><trkpt lat="21.611788" lon="105.182404"><ele>3.4</ele><time>2011-04-29T06:20:05.0000000+00:00</time></trkpt><trkpt lat="21.611361" lon="105.182068"><ele>5.8</ele><time>2011-04-29T06:20:10.0000000+00:00</time></trkpt><trkpt lat="21.610929" lon="105.18174"><ele>7.1</ele><time>2011-04-29T06:20:15.0000000+00:00</time></trkpt><trkpt lat="21.610512" lon="105.18145"><ele>8.4</ele><time>2011-04-29T06:20:20.0000000+00:00</time></trkpt><trkpt lat="21.610086" lon="105.181175"><ele>9.4</ele><time>2011-04-29T06:20:25.0000000+00:00</time></trkpt><trkpt lat="21.609631" lon="105.18087"><ele>9.6</ele><time>2011-04-29T06:20:30.0000000+00:00</time></trkpt><trkpt lat="21.609182" lon="105.180489"><ele>8.9</ele><time>2011-04-29T06:20:35.0000000+00:00</time></trkpt><trkpt lat="21.608719" lon="105.180092"><ele>6.9</ele><time>2011-04-29T06:20:40.0000000+00:00</time></trkpt><trkpt lat="21.60824" lon="105.17971"><ele>7.3</ele><time>2011-04-29T06:20:45.0000000+00:00</time></trkpt><trkpt lat="21.607798" lon="105.179398"><ele>5.9</ele><time>2011-04-29T06:20:50.0000000+00:00</time></trkpt><trkpt lat="21.607384" lon="105.179123"><ele>3.0</ele><time>2011-04-29T06:20:55.0000000+00:00</time></trkpt><trkpt lat="21.60697" lon="105.178841"><ele>2.6</ele><time>2011-04-29T06:21:00.0000000+00:00</time></trkpt><trkpt lat="21.606518" lon="105.178757"><ele>1.6</ele><time>2011-04-29T06:21:05.0000000+00:00</time></trkpt><trkpt lat="21.60607" lon="105.178802"><ele>1.5</ele><time>2011-04-29T06:21:10.0000000+00:00</time></trkpt><trkpt lat="21.605612" lon="105.178871"><ele>1.9</ele><time>2011-04-29T06:21:15.0000000+00:00</time></trkpt><trkpt lat="21.605078" lon="105.179039"><ele>2.3</ele><time>2011-04-29T06:21:20.0000000+00:00</time></trkpt><trkpt lat="21.604553" lon="105.179214"><ele>1.8</ele><time>2011-04-29T06:21:25.0000000+00:00</time></trkpt><trkpt lat="21.604031" lon="105.179405"><ele>2.9</ele><time>2011-04-29T06:21:30.0000000+00:00</time></trkpt><trkpt lat="21.603491" lon="105.179695"><ele>0.9</ele><time>2011-04-29T06:21:35.0000000+00:00</time></trkpt><trkpt lat="21.602961" lon="105.180008"><ele>-0.6</ele><time>2011-04-29T06:21:40.0000000+00:00</time></trkpt><trkpt lat="21.602541" lon="105.18029"><ele>-0.1</ele><time>2011-04-29T06:21:45.0000000+00:00</time></trkpt><trkpt lat="21.602268" lon="105.180542"><ele>1.1</ele><time>2011-04-29T06:21:50.0000000+00:00</time></trkpt><trkpt lat="21.602022" lon="105.180801"><ele>-0.2</ele><time>2011-04-29T06:21:55.0000000+00:00</time></trkpt><trkpt lat="21.601713" lon="105.181107"><ele>1.6</ele><time>2011-04-29T06:22:00.0000000+00:00</time></trkpt><trkpt lat="21.601353" lon="105.181496"><ele>2.7</ele><time>2011-04-29T06:22:05.0000000+00:00</time></trkpt><trkpt lat="21.600988" lon="105.181885"><ele>4.2</ele><time>2011-04-29T06:22:10.0000000+00:00</time></trkpt><trkpt lat="21.600639" lon="105.182335"><ele>0.6</ele><time>2011-04-29T06:22:15.0000000+00:00</time></trkpt><trkpt lat="21.600235" lon="105.182785"><ele>-1.1</ele><time>2011-04-29T06:22:20.0000000+00:00</time></trkpt><trkpt lat="21.599766" lon="105.183159"><ele>-0.6</ele><time>2011-04-29T06:22:25.0000000+00:00</time></trkpt><trkpt lat="21.599247" lon="105.183479"><ele>0.5</ele><time>2011-04-29T06:22:30.0000000+00:00</time></trkpt><trkpt lat="21.59877" lon="105.183815"><ele>2.1</ele><time>2011-04-29T06:22:35.0000000+00:00</time></trkpt><trkpt lat="21.598312" lon="105.184166"><ele>1.8</ele><time>2011-04-29T06:22:40.0000000+00:00</time></trkpt><trkpt lat="21.597837" lon="105.184486"><ele>2.2</ele><time>2011-04-29T06:22:45.0000000+00:00</time></trkpt><trkpt lat="21.597363" lon="105.184761"><ele>2.4</ele><time>2011-04-29T06:22:50.0000000+00:00</time></trkpt><trkpt lat="21.596918" lon="105.185059"><ele>1.9</ele><time>2011-04-29T06:22:55.0000000+00:00</time></trkpt><trkpt lat="21.596546" lon="105.185532"><ele>2.4</ele><time>2011-04-29T06:23:00.0000000+00:00</time></trkpt><trkpt lat="21.596203" lon="105.18602"><ele>1.1</ele><time>2011-04-29T06:23:05.0000000+00:00</time></trkpt><trkpt lat="21.595776" lon="105.186478"><ele>1.0</ele><time>2011-04-29T06:23:10.0000000+00:00</time></trkpt><trkpt lat="21.595358" lon="105.186897"><ele>1.8</ele><time>2011-04-29T06:23:15.0000000+00:00</time></trkpt><trkpt lat="21.594931" lon="105.187302"><ele>2.2</ele><time>2011-04-29T06:23:20.0000000+00:00</time></trkpt><trkpt lat="21.594528" lon="105.187698"><ele>-0.5</ele><time>2011-04-29T06:23:25.0000000+00:00</time></trkpt><trkpt lat="21.594168" lon="105.188118"><ele>-2.2</ele><time>2011-04-29T06:23:30.0000000+00:00</time></trkpt><trkpt lat="21.593809" lon="105.188522"><ele>-3.9</ele><time>2011-04-29T06:23:35.0000000+00:00</time></trkpt><trkpt lat="21.59342" lon="105.18895"><ele>-4.5</ele><time>2011-04-29T06:23:40.0000000+00:00</time></trkpt><trkpt lat="21.593016" lon="105.189362"><ele>-3.6</ele><time>2011-04-29T06:23:45.0000000+00:00</time></trkpt><trkpt lat="21.592545" lon="105.189667"><ele>-4.0</ele><time>2011-04-29T06:23:50.0000000+00:00</time></trkpt><trkpt lat="21.592033" lon="105.189751"><ele>-5.3</ele><time>2011-04-29T06:23:55.0000000+00:00</time></trkpt><trkpt lat="21.591505" lon="105.189857"><ele>-2.8</ele><time>2011-04-29T06:24:00.0000000+00:00</time></trkpt><trkpt lat="21.590971" lon="105.189865"><ele>-1.5</ele><time>2011-04-29T06:24:05.0000000+00:00</time></trkpt><trkpt lat="21.590456" lon="105.189735"><ele>-0.2</ele><time>2011-04-29T06:24:10.0000000+00:00</time></trkpt><trkpt lat="21.590052" lon="105.189468"><ele>-0.1</ele><time>2011-04-29T06:24:15.0000000+00:00</time></trkpt><trkpt lat="21.589657" lon="105.189095"><ele>0.0</ele><time>2011-04-29T06:24:20.0000000+00:00</time></trkpt><trkpt lat="21.589211" lon="105.188751"><ele>0.9</ele><time>2011-04-29T06:24:25.0000000+00:00</time></trkpt><trkpt lat="21.588646" lon="105.188606"><ele>-0.4</ele><time>2011-04-29T06:24:30.0000000+00:00</time></trkpt><trkpt lat="21.588095" lon="105.188812"><ele>0.2</ele><time>2011-04-29T06:24:35.0000000+00:00</time></trkpt><trkpt lat="21.587589" lon="105.189194"><ele>2.3</ele><time>2011-04-29T06:24:40.0000000+00:00</time></trkpt><trkpt lat="21.587053" lon="105.189415"><ele>3.1</ele><time>2011-04-29T06:24:45.0000000+00:00</time></trkpt><trkpt lat="21.586533" lon="105.18959"><ele>3.1</ele><time>2011-04-29T06:24:50.0000000+00:00</time></trkpt><trkpt lat="21.586004" lon="105.189774"><ele>5.6</ele><time>2011-04-29T06:24:55.0000000+00:00</time></trkpt><trkpt lat="21.585522" lon="105.189896"><ele>0.6</ele><time>2011-04-29T06:25:00.0000000+00:00</time></trkpt><trkpt lat="21.585009" lon="105.190048"><ele>-0.7</ele><time>2011-04-29T06:25:05.0000000+00:00</time></trkpt><trkpt lat="21.584425" lon="105.190102"><ele>1.1</ele><time>2011-04-29T06:25:10.0000000+00:00</time></trkpt><trkpt lat="21.583822" lon="105.19001"><ele>2.8</ele><time>2011-04-29T06:25:15.0000000+00:00</time></trkpt><trkpt lat="21.583263" lon="105.189903"><ele>4.5</ele><time>2011-04-29T06:25:20.0000000+00:00</time></trkpt><trkpt lat="21.582771" lon="105.189835"><ele>4.6</ele><time>2011-04-29T06:25:25.0000000+00:00</time></trkpt><trkpt lat="21.582375" lon="105.189774"><ele>9.5</ele><time>2011-04-29T06:25:30.0000000+00:00</time></trkpt><trkpt lat="21.581932" lon="105.189705"><ele>11.5</ele><time>2011-04-29T06:25:35.0000000+00:00</time></trkpt><trkpt lat="21.581505" lon="105.189453"><ele>14.7</ele><time>2011-04-29T06:25:40.0000000+00:00</time></trkpt><trkpt lat="21.581137" lon="105.189041"><ele>16.1</ele><time>2011-04-29T06:25:45.0000000+00:00</time></trkpt><trkpt lat="21.580933" lon="105.188744"><ele>17.6</ele><time>2011-04-29T06:25:50.0000000+00:00</time></trkpt><trkpt lat="21.580877" lon="105.188683"><ele>18.3</ele><time>2011-04-29T06:25:55.0000000+00:00</time></trkpt><trkpt lat="21.580812" lon="105.188599"><ele>19.0</ele><time>2011-04-29T06:26:00.0000000+00:00</time></trkpt><trkpt lat="21.580679" lon="105.188454"><ele>22.0</ele><time>2011-04-29T06:26:05.0000000+00:00</time></trkpt><trkpt lat="21.5805" lon="105.188179"><ele>22.6</ele><time>2011-04-29T06:26:10.0000000+00:00</time></trkpt><trkpt lat="21.580242" lon="105.187851"><ele>24.4</ele><time>2011-04-29T06:26:15.0000000+00:00</time></trkpt><trkpt lat="21.579838" lon="105.187508"><ele>24.1</ele><time>2011-04-29T06:26:20.0000000+00:00</time></trkpt><trkpt lat="21.579395" lon="105.187271"><ele>23.4</ele><time>2011-04-29T06:26:25.0000000+00:00</time></trkpt><trkpt lat="21.578917" lon="105.187042"><ele>21.9</ele><time>2011-04-29T06:26:30.0000000+00:00</time></trkpt><trkpt lat="21.578337" lon="105.186905"><ele>21.2</ele><time>2011-04-29T06:26:35.0000000+00:00</time></trkpt><trkpt lat="21.577724" lon="105.18689"><ele>18.2</ele><time>2011-04-29T06:26:40.0000000+00:00</time></trkpt><trkpt lat="21.577097" lon="105.186852"><ele>9.6</ele><time>2011-04-29T06:26:45.0000000+00:00</time></trkpt><trkpt lat="21.576464" lon="105.186867"><ele>5.8</ele><time>2011-04-29T06:26:50.0000000+00:00</time></trkpt><trkpt lat="21.57583" lon="105.186935"><ele>3.0</ele><time>2011-04-29T06:26:55.0000000+00:00</time></trkpt><trkpt lat="21.575226" lon="105.187035"><ele>2.1</ele><time>2011-04-29T06:27:00.0000000+00:00</time></trkpt><trkpt lat="21.574669" lon="105.187317"><ele>2.5</ele><time>2011-04-29T06:27:05.0000000+00:00</time></trkpt><trkpt lat="21.574144" lon="105.187538"><ele>2.1</ele><time>2011-04-29T06:27:10.0000000+00:00</time></trkpt><trkpt lat="21.573633" lon="105.18766"><ele>3.5</ele><time>2011-04-29T06:27:15.0000000+00:00</time></trkpt><trkpt lat="21.573082" lon="105.187782"><ele>1.7</ele><time>2011-04-29T06:27:20.0000000+00:00</time></trkpt><trkpt lat="21.572512" lon="105.187836"><ele>2.0</ele><time>2011-04-29T06:27:25.0000000+00:00</time></trkpt><trkpt lat="21.571934" lon="105.187798"><ele>2.7</ele><time>2011-04-29T06:27:30.0000000+00:00</time></trkpt><trkpt lat="21.571386" lon="105.187744"><ele>2.8</ele><time>2011-04-29T06:27:35.0000000+00:00</time></trkpt><trkpt lat="21.570848" lon="105.187645"><ele>5.2</ele><time>2011-04-29T06:27:40.0000000+00:00</time></trkpt><trkpt lat="21.570332" lon="105.187538"><ele>5.5</ele><time>2011-04-29T06:27:45.0000000+00:00</time></trkpt><trkpt lat="21.570162" lon="105.187469"><ele>6.2</ele><time>2011-04-29T06:27:50.0000000+00:00</time></trkpt><trkpt lat="21.570118" lon="105.187469"><ele>7.3</ele><time>2011-04-29T06:27:55.0000000+00:00</time></trkpt><trkpt lat="21.570101" lon="105.187469"><ele>8.4</ele><time>2011-04-29T06:28:00.0000000+00:00</time></trkpt><trkpt lat="21.570093" lon="105.187469"><ele>8.7</ele><time>2011-04-29T06:28:05.0000000+00:00</time></trkpt><trkpt lat="21.570091" lon="105.187462"><ele>8.8</ele><time>2011-04-29T06:28:10.0000000+00:00</time></trkpt><trkpt lat="21.570076" lon="105.187462"><ele>8.9</ele><time>2011-04-29T06:28:15.0000000+00:00</time></trkpt><trkpt lat="21.57007" lon="105.187462"><ele>9.0</ele><time>2011-04-29T06:28:20.0000000+00:00</time></trkpt><trkpt lat="21.57007" lon="105.187469"><ele>9.1</ele><time>2011-04-29T06:28:25.0000000+00:00</time></trkpt><trkpt lat="21.570059" lon="105.187469"><ele>9.1</ele><time>2011-04-29T06:28:30.0000000+00:00</time></trkpt><trkpt lat="21.570049" lon="105.187462"><ele>9.1</ele><time>2011-04-29T06:28:35.0000000+00:00</time></trkpt><trkpt lat="21.570028" lon="105.187454"><ele>9.2</ele><time>2011-04-29T06:28:40.0000000+00:00</time></trkpt><trkpt lat="21.569908" lon="105.187378"><ele>8.1</ele><time>2011-04-29T06:28:45.0000000+00:00</time></trkpt><trkpt lat="21.569622" lon="105.187347"><ele>8.7</ele><time>2011-04-29T06:28:50.0000000+00:00</time></trkpt><trkpt lat="21.569235" lon="105.187263"><ele>9.3</ele><time>2011-04-29T06:28:55.0000000+00:00</time></trkpt><trkpt lat="21.568804" lon="105.18718"><ele>11.1</ele><time>2011-04-29T06:29:00.0000000+00:00</time></trkpt><trkpt lat="21.568296" lon="105.18708"><ele>9.7</ele><time>2011-04-29T06:29:05.0000000+00:00</time></trkpt><trkpt lat="21.56777" lon="105.186958"><ele>10.2</ele><time>2011-04-29T06:29:10.0000000+00:00</time></trkpt><trkpt lat="21.567259" lon="105.186844"><ele>14.4</ele><time>2011-04-29T06:29:15.0000000+00:00</time></trkpt><trkpt lat="21.566696" lon="105.186821"><ele>15.7</ele><time>2011-04-29T06:29:20.0000000+00:00</time></trkpt><trkpt lat="21.566135" lon="105.186905"><ele>16.1</ele><time>2011-04-29T06:29:25.0000000+00:00</time></trkpt><trkpt lat="21.565582" lon="105.186996"><ele>10.7</ele><time>2011-04-29T06:29:30.0000000+00:00</time></trkpt><trkpt lat="21.565023" lon="105.187096"><ele>10.9</ele><time>2011-04-29T06:29:35.0000000+00:00</time></trkpt><trkpt lat="21.564426" lon="105.187225"><ele>8.8</ele><time>2011-04-29T06:29:40.0000000+00:00</time></trkpt><trkpt lat="21.563816" lon="105.187424"><ele>6.4</ele><time>2011-04-29T06:29:45.0000000+00:00</time></trkpt><trkpt lat="21.563229" lon="105.187691"><ele>7.6</ele><time>2011-04-29T06:29:50.0000000+00:00</time></trkpt><trkpt lat="21.562597" lon="105.18782"><ele>7.5</ele><time>2011-04-29T06:29:55.0000000+00:00</time></trkpt><trkpt lat="21.561914" lon="105.18779"><ele>8.2</ele><time>2011-04-29T06:30:00.0000000+00:00</time></trkpt><trkpt lat="21.561232" lon="105.187828"><ele>11.0</ele><time>2011-04-29T06:30:05.0000000+00:00</time></trkpt><trkpt lat="21.560701" lon="105.188087"><ele>13.6</ele><time>2011-04-29T06:30:10.0000000+00:00</time></trkpt><trkpt lat="21.560266" lon="105.188484"><ele>16.4</ele><time>2011-04-29T06:30:15.0000000+00:00</time></trkpt><trkpt lat="21.559841" lon="105.188934"><ele>20.1</ele><time>2011-04-29T06:30:20.0000000+00:00</time></trkpt><trkpt lat="21.55941" lon="105.189415"><ele>22.8</ele><time>2011-04-29T06:30:25.0000000+00:00</time></trkpt><trkpt lat="21.558834" lon="105.189842"><ele>22.2</ele><time>2011-04-29T06:30:30.0000000+00:00</time></trkpt><trkpt lat="21.558207" lon="105.190216"><ele>21.0</ele><time>2011-04-29T06:30:35.0000000+00:00</time></trkpt><trkpt lat="21.557657" lon="105.190804"><ele>17.9</ele><time>2011-04-29T06:30:40.0000000+00:00</time></trkpt><trkpt lat="21.557175" lon="105.191544"><ele>13.7</ele><time>2011-04-29T06:30:45.0000000+00:00</time></trkpt><trkpt lat="21.556698" lon="105.192284"><ele>15.9</ele><time>2011-04-29T06:30:50.0000000+00:00</time></trkpt><trkpt lat="21.55624" lon="105.192841"><ele>18.0</ele><time>2011-04-29T06:30:55.0000000+00:00</time></trkpt><trkpt lat="21.555643" lon="105.193031"><ele>17.7</ele><time>2011-04-29T06:31:00.0000000+00:00</time></trkpt><trkpt lat="21.554947" lon="105.193047"><ele>16.7</ele><time>2011-04-29T06:31:05.0000000+00:00</time></trkpt><trkpt lat="21.554237" lon="105.193077"><ele>19.7</ele><time>2011-04-29T06:31:10.0000000+00:00</time></trkpt><trkpt lat="21.553553" lon="105.193123"><ele>21.3</ele><time>2011-04-29T06:31:15.0000000+00:00</time></trkpt><trkpt lat="21.552864" lon="105.193169"><ele>20.1</ele><time>2011-04-29T06:31:20.0000000+00:00</time></trkpt><trkpt lat="21.552172" lon="105.193413"><ele>18.9</ele><time>2011-04-29T06:31:25.0000000+00:00</time></trkpt><trkpt lat="21.551489" lon="105.19371"><ele>20.1</ele><time>2011-04-29T06:31:30.0000000+00:00</time></trkpt><trkpt lat="21.550814" lon="105.193794"><ele>20.3</ele><time>2011-04-29T06:31:35.0000000+00:00</time></trkpt><trkpt lat="21.550125" lon="105.193657"><ele>19.8</ele><time>2011-04-29T06:31:40.0000000+00:00</time></trkpt><trkpt lat="21.54945" lon="105.193504"><ele>19.3</ele><time>2011-04-29T06:31:45.0000000+00:00</time></trkpt><trkpt lat="21.548798" lon="105.193398"><ele>19.3</ele><time>2011-04-29T06:31:50.0000000+00:00</time></trkpt><trkpt lat="21.548147" lon="105.193245"><ele>20.6</ele><time>2011-04-29T06:31:55.0000000+00:00</time></trkpt><trkpt lat="21.547537" lon="105.192924"><ele>22.4</ele><time>2011-04-29T06:32:00.0000000+00:00</time></trkpt><trkpt lat="21.547031" lon="105.192451"><ele>25.7</ele><time>2011-04-29T06:32:05.0000000+00:00</time></trkpt><trkpt lat="21.546425" lon="105.192207"><ele>28.1</ele><time>2011-04-29T06:32:10.0000000+00:00</time></trkpt><trkpt lat="21.545776" lon="105.192299"><ele>30.6</ele><time>2011-04-29T06:32:15.0000000+00:00</time></trkpt><trkpt lat="21.545084" lon="105.192474"><ele>30.8</ele><time>2011-04-29T06:32:20.0000000+00:00</time></trkpt><trkpt lat="21.544327" lon="105.192741"><ele>32.0</ele><time>2011-04-29T06:32:25.0000000+00:00</time></trkpt><trkpt lat="21.543663" lon="105.193092"><ele>30.4</ele><time>2011-04-29T06:32:30.0000000+00:00</time></trkpt><trkpt lat="21.54306" lon="105.193451"><ele>30.1</ele><time>2011-04-29T06:32:35.0000000+00:00</time></trkpt><trkpt lat="21.54236" lon="105.193695"><ele>29.7</ele><time>2011-04-29T06:32:40.0000000+00:00</time></trkpt><trkpt lat="21.541622" lon="105.193924"><ele>28.7</ele><time>2011-04-29T06:32:45.0000000+00:00</time></trkpt><trkpt lat="21.540943" lon="105.194153"><ele>27.6</ele><time>2011-04-29T06:32:50.0000000+00:00</time></trkpt><trkpt lat="21.540529" lon="105.194649"><ele>28.0</ele><time>2011-04-29T06:32:55.0000000+00:00</time></trkpt><trkpt lat="21.540314" lon="105.195274"><ele>29.3</ele><time>2011-04-29T06:33:00.0000000+00:00</time></trkpt><trkpt lat="21.540167" lon="105.195793"><ele>31.0</ele><time>2011-04-29T06:33:05.0000000+00:00</time></trkpt><trkpt lat="21.540073" lon="105.196198"><ele>32.6</ele><time>2011-04-29T06:33:10.0000000+00:00</time></trkpt><trkpt lat="21.539976" lon="105.196594"><ele>34.3</ele><time>2011-04-29T06:33:15.0000000+00:00</time></trkpt><trkpt lat="21.539869" lon="105.197029"><ele>35.7</ele><time>2011-04-29T06:33:20.0000000+00:00</time></trkpt><trkpt lat="21.53973" lon="105.197487"><ele>37.0</ele><time>2011-04-29T06:33:25.0000000+00:00</time></trkpt><trkpt lat="21.539595" lon="105.198006"><ele>36.7</ele><time>2011-04-29T06:33:30.0000000+00:00</time></trkpt><trkpt lat="21.539427" lon="105.198524"><ele>37.0</ele><time>2011-04-29T06:33:35.0000000+00:00</time></trkpt><trkpt lat="21.539118" lon="105.199005"><ele>34.1</ele><time>2011-04-29T06:33:40.0000000+00:00</time></trkpt><trkpt lat="21.538633" lon="105.199425"><ele>28.4</ele><time>2011-04-29T06:33:45.0000000+00:00</time></trkpt><trkpt lat="21.538088" lon="105.199844"><ele>26.3</ele><time>2011-04-29T06:33:50.0000000+00:00</time></trkpt><trkpt lat="21.537542" lon="105.200272"><ele>19.8</ele><time>2011-04-29T06:33:55.0000000+00:00</time></trkpt><trkpt lat="21.536947" lon="105.200569"><ele>18.3</ele><time>2011-04-29T06:34:00.0000000+00:00</time></trkpt><trkpt lat="21.536339" lon="105.200783"><ele>18.7</ele><time>2011-04-29T06:34:05.0000000+00:00</time></trkpt><trkpt lat="21.535851" lon="105.201134"><ele>18.1</ele><time>2011-04-29T06:34:10.0000000+00:00</time></trkpt><trkpt lat="21.535475" lon="105.201584"><ele>18.3</ele><time>2011-04-29T06:34:15.0000000+00:00</time></trkpt><trkpt lat="21.535141" lon="105.202034"><ele>19.4</ele><time>2011-04-29T06:34:20.0000000+00:00</time></trkpt><trkpt lat="21.534777" lon="105.202446"><ele>20.6</ele><time>2011-04-29T06:34:25.0000000+00:00</time></trkpt><trkpt lat="21.534384" lon="105.202919"><ele>19.1</ele><time>2011-04-29T06:34:30.0000000+00:00</time></trkpt><trkpt lat="21.533958" lon="105.203453"><ele>15.6</ele><time>2011-04-29T06:34:35.0000000+00:00</time></trkpt><trkpt lat="21.533545" lon="105.203979"><ele>12.2</ele><time>2011-04-29T06:34:40.0000000+00:00</time></trkpt><trkpt lat="21.533045" lon="105.204437"><ele>10.9</ele><time>2011-04-29T06:34:45.0000000+00:00</time></trkpt><trkpt lat="21.53249" lon="105.204811"><ele>11.9</ele><time>2011-04-29T06:34:50.0000000+00:00</time></trkpt><trkpt lat="21.531954" lon="105.205193"><ele>11.8</ele><time>2011-04-29T06:34:55.0000000+00:00</time></trkpt><trkpt lat="21.531485" lon="105.205513"><ele>12.7</ele><time>2011-04-29T06:35:00.0000000+00:00</time></trkpt><trkpt lat="21.531033" lon="105.205887"><ele>14.1</ele><time>2011-04-29T06:35:05.0000000+00:00</time></trkpt><trkpt lat="21.5306" lon="105.206306"><ele>13.8</ele><time>2011-04-29T06:35:10.0000000+00:00</time></trkpt><trkpt lat="21.530136" lon="105.206734"><ele>15.1</ele><time>2011-04-29T06:35:15.0000000+00:00</time></trkpt><trkpt lat="21.529615" lon="105.207024"><ele>15.4</ele><time>2011-04-29T06:35:20.0000000+00:00</time></trkpt><trkpt lat="21.52907" lon="105.207077"><ele>12.8</ele><time>2011-04-29T06:35:25.0000000+00:00</time></trkpt><trkpt lat="21.528534" lon="105.206879"><ele>11.6</ele><time>2011-04-29T06:35:30.0000000+00:00</time></trkpt><trkpt lat="21.528055" lon="105.206459"><ele>12.4</ele><time>2011-04-29T06:35:35.0000000+00:00</time></trkpt><trkpt lat="21.527626" lon="105.205925"><ele>13.1</ele><time>2011-04-29T06:35:40.0000000+00:00</time></trkpt><trkpt lat="21.527182" lon="105.205414"><ele>14.4</ele><time>2011-04-29T06:35:45.0000000+00:00</time></trkpt><trkpt lat="21.526739" lon="105.204926"><ele>16.1</ele><time>2011-04-29T06:35:50.0000000+00:00</time></trkpt><trkpt lat="21.526409" lon="105.204491"><ele>17.5</ele><time>2011-04-29T06:35:55.0000000+00:00</time></trkpt><trkpt lat="21.526049" lon="105.204056"><ele>19.3</ele><time>2011-04-29T06:36:00.0000000+00:00</time></trkpt><trkpt lat="21.525604" lon="105.203651"><ele>20.7</ele><time>2011-04-29T06:36:05.0000000+00:00</time></trkpt><trkpt lat="21.525034" lon="105.203461"><ele>21.6</ele><time>2011-04-29T06:36:10.0000000+00:00</time></trkpt><trkpt lat="21.524414" lon="105.203339"><ele>22.9</ele><time>2011-04-29T06:36:15.0000000+00:00</time></trkpt><trkpt lat="21.523855" lon="105.203224"><ele>23.7</ele><time>2011-04-29T06:36:20.0000000+00:00</time></trkpt><trkpt lat="21.523375" lon="105.202965"><ele>23.8</ele><time>2011-04-29T06:36:25.0000000+00:00</time></trkpt><trkpt lat="21.522964" lon="105.202621"><ele>25.9</ele><time>2011-04-29T06:36:30.0000000+00:00</time></trkpt><trkpt lat="21.522526" lon="105.202301"><ele>27.5</ele><time>2011-04-29T06:36:35.0000000+00:00</time></trkpt><trkpt lat="21.522032" lon="105.202248"><ele>21.5</ele><time>2011-04-29T06:36:40.0000000+00:00</time></trkpt><trkpt lat="21.521503" lon="105.202431"><ele>19.2</ele><time>2011-04-29T06:36:45.0000000+00:00</time></trkpt><trkpt lat="21.521025" lon="105.202843"><ele>18.2</ele><time>2011-04-29T06:36:50.0000000+00:00</time></trkpt><trkpt lat="21.520544" lon="105.203285"><ele>17.0</ele><time>2011-04-29T06:36:55.0000000+00:00</time></trkpt><trkpt lat="21.519981" lon="105.20359"><ele>16.4</ele><time>2011-04-29T06:37:00.0000000+00:00</time></trkpt><trkpt lat="21.519352" lon="105.203514"><ele>16.2</ele><time>2011-04-29T06:37:05.0000000+00:00</time></trkpt><trkpt lat="21.518751" lon="105.203247"><ele>16.2</ele><time>2011-04-29T06:37:10.0000000+00:00</time></trkpt><trkpt lat="21.51815" lon="105.203003"><ele>16.4</ele><time>2011-04-29T06:37:15.0000000+00:00</time></trkpt><trkpt lat="21.517527" lon="105.202972"><ele>14.5</ele><time>2011-04-29T06:37:20.0000000+00:00</time></trkpt><trkpt lat="21.517017" lon="105.203194"><ele>17.5</ele><time>2011-04-29T06:37:25.0000000+00:00</time></trkpt><trkpt lat="21.516546" lon="105.203568"><ele>19.0</ele><time>2011-04-29T06:37:30.0000000+00:00</time></trkpt><trkpt lat="21.51602" lon="105.203949"><ele>22.8</ele><time>2011-04-29T06:37:35.0000000+00:00</time></trkpt><trkpt lat="21.515461" lon="105.20433"><ele>24.9</ele><time>2011-04-29T06:37:40.0000000+00:00</time></trkpt><trkpt lat="21.514946" lon="105.204735"><ele>29.7</ele><time>2011-04-29T06:37:45.0000000+00:00</time></trkpt><trkpt lat="21.514599" lon="105.205299"><ele>31.4</ele><time>2011-04-29T06:37:50.0000000+00:00</time></trkpt><trkpt lat="21.514328" lon="105.205887"><ele>32.9</ele><time>2011-04-29T06:37:55.0000000+00:00</time></trkpt><trkpt lat="21.514071" lon="105.206467"><ele>33.5</ele><time>2011-04-29T06:38:00.0000000+00:00</time></trkpt><trkpt lat="21.513796" lon="105.207069"><ele>34.0</ele><time>2011-04-29T06:38:05.0000000+00:00</time></trkpt><trkpt lat="21.513531" lon="105.207657"><ele>35.4</ele><time>2011-04-29T06:38:10.0000000+00:00</time></trkpt><trkpt lat="21.513338" lon="105.20826"><ele>35.7</ele><time>2011-04-29T06:38:15.0000000+00:00</time></trkpt><trkpt lat="21.513243" lon="105.2089"><ele>36.6</ele><time>2011-04-29T06:38:20.0000000+00:00</time></trkpt><trkpt lat="21.513046" lon="105.209473"><ele>37.5</ele><time>2011-04-29T06:38:25.0000000+00:00</time></trkpt><trkpt lat="21.512691" lon="105.209984"><ele>39.2</ele><time>2011-04-29T06:38:30.0000000+00:00</time></trkpt><trkpt lat="21.51232" lon="105.21048"><ele>40.2</ele><time>2011-04-29T06:38:35.0000000+00:00</time></trkpt><trkpt lat="21.512081" lon="105.211006"><ele>41.4</ele><time>2011-04-29T06:38:40.0000000+00:00</time></trkpt><trkpt lat="21.511824" lon="105.211494"><ele>42.8</ele><time>2011-04-29T06:38:45.0000000+00:00</time></trkpt><trkpt lat="21.511425" lon="105.211815"><ele>44.5</ele><time>2011-04-29T06:38:50.0000000+00:00</time></trkpt><trkpt lat="21.510973" lon="105.21212"><ele>45.9</ele><time>2011-04-29T06:38:55.0000000+00:00</time></trkpt><trkpt lat="21.510454" lon="105.212357"><ele>47.6</ele><time>2011-04-29T06:39:00.0000000+00:00</time></trkpt><trkpt lat="21.509949" lon="105.212585"><ele>49.8</ele><time>2011-04-29T06:39:05.0000000+00:00</time></trkpt><trkpt lat="21.509399" lon="105.21283"><ele>53.2</ele><time>2011-04-29T06:39:10.0000000+00:00</time></trkpt><trkpt lat="21.508801" lon="105.213158"><ele>56.1</ele><time>2011-04-29T06:39:15.0000000+00:00</time></trkpt><trkpt lat="21.508093" lon="105.213448"><ele>55.5</ele><time>2011-04-29T06:39:20.0000000+00:00</time></trkpt><trkpt lat="21.507284" lon="105.213478"><ele>53.5</ele><time>2011-04-29T06:39:25.0000000+00:00</time></trkpt><trkpt lat="21.506508" lon="105.213547"><ele>47.6</ele><time>2011-04-29T06:39:30.0000000+00:00</time></trkpt><trkpt lat="21.505762" lon="105.213692"><ele>43.5</ele><time>2011-04-29T06:39:35.0000000+00:00</time></trkpt><trkpt lat="21.505043" lon="105.213646"><ele>41.4</ele><time>2011-04-29T06:39:40.0000000+00:00</time></trkpt><trkpt lat="21.504339" lon="105.213684"><ele>37.9</ele><time>2011-04-29T06:39:45.0000000+00:00</time></trkpt><trkpt lat="21.503668" lon="105.213982"><ele>36.2</ele><time>2011-04-29T06:39:50.0000000+00:00</time></trkpt><trkpt lat="21.503149" lon="105.214508"><ele>34.4</ele><time>2011-04-29T06:39:55.0000000+00:00</time></trkpt><trkpt lat="21.502783" lon="105.215157"><ele>32.7</ele><time>2011-04-29T06:40:00.0000000+00:00</time></trkpt><trkpt lat="21.502504" lon="105.215706"><ele>31.0</ele><time>2011-04-29T06:40:05.0000000+00:00</time></trkpt><trkpt lat="21.502337" lon="105.216095"><ele>27.7</ele><time>2011-04-29T06:40:10.0000000+00:00</time></trkpt><trkpt lat="21.50222" lon="105.216545"><ele>22.6</ele><time>2011-04-29T06:40:15.0000000+00:00</time></trkpt><trkpt lat="21.50218" lon="105.217125"><ele>24.3</ele><time>2011-04-29T06:40:20.0000000+00:00</time></trkpt><trkpt lat="21.502138" lon="105.217712"><ele>24.4</ele><time>2011-04-29T06:40:25.0000000+00:00</time></trkpt><trkpt lat="21.50193" lon="105.21833"><ele>23.7</ele><time>2011-04-29T06:40:30.0000000+00:00</time></trkpt><trkpt lat="21.501457" lon="105.218819"><ele>22.9</ele><time>2011-04-29T06:40:35.0000000+00:00</time></trkpt><trkpt lat="21.500898" lon="105.219223"><ele>21.8</ele><time>2011-04-29T06:40:40.0000000+00:00</time></trkpt><trkpt lat="21.500322" lon="105.219521"><ele>21.9</ele><time>2011-04-29T06:40:45.0000000+00:00</time></trkpt><trkpt lat="21.499733" lon="105.219795"><ele>21.7</ele><time>2011-04-29T06:40:50.0000000+00:00</time></trkpt><trkpt lat="21.499142" lon="105.220108"><ele>22.4</ele><time>2011-04-29T06:40:55.0000000+00:00</time></trkpt><trkpt lat="21.498507" lon="105.220482"><ele>22.8</ele><time>2011-04-29T06:41:00.0000000+00:00</time></trkpt><trkpt lat="21.497988" lon="105.220932"><ele>19.5</ele><time>2011-04-29T06:41:05.0000000+00:00</time></trkpt><trkpt lat="21.497509" lon="105.22142"><ele>18.4</ele><time>2011-04-29T06:41:10.0000000+00:00</time></trkpt><trkpt lat="21.49703" lon="105.221901"><ele>17.5</ele><time>2011-04-29T06:41:15.0000000+00:00</time></trkpt><trkpt lat="21.49654" lon="105.22229"><ele>17.5</ele><time>2011-04-29T06:41:20.0000000+00:00</time></trkpt><trkpt lat="21.496008" lon="105.222359"><ele>18.8</ele><time>2011-04-29T06:41:25.0000000+00:00</time></trkpt><trkpt lat="21.495428" lon="105.222351"><ele>21.1</ele><time>2011-04-29T06:41:30.0000000+00:00</time></trkpt><trkpt lat="21.494823" lon="105.222397"><ele>23.3</ele><time>2011-04-29T06:41:35.0000000+00:00</time></trkpt><trkpt lat="21.494305" lon="105.222694"><ele>23.4</ele><time>2011-04-29T06:41:40.0000000+00:00</time></trkpt><trkpt lat="21.493933" lon="105.223206"><ele>24.8</ele><time>2011-04-29T06:41:45.0000000+00:00</time></trkpt><trkpt lat="21.493631" lon="105.223709"><ele>26.4</ele><time>2011-04-29T06:41:50.0000000+00:00</time></trkpt><trkpt lat="21.493345" lon="105.224174"><ele>28.2</ele><time>2011-04-29T06:41:55.0000000+00:00</time></trkpt><trkpt lat="21.493067" lon="105.224609"><ele>28.2</ele><time>2011-04-29T06:42:00.0000000+00:00</time></trkpt><trkpt lat="21.492645" lon="105.224937"><ele>27.3</ele><time>2011-04-29T06:42:05.0000000+00:00</time></trkpt><trkpt lat="21.492144" lon="105.225182"><ele>27.6</ele><time>2011-04-29T06:42:10.0000000+00:00</time></trkpt><trkpt lat="21.491631" lon="105.22538"><ele>26.8</ele><time>2011-04-29T06:42:15.0000000+00:00</time></trkpt><trkpt lat="21.491129" lon="105.225624"><ele>26.9</ele><time>2011-04-29T06:42:20.0000000+00:00</time></trkpt><trkpt lat="21.49058" lon="105.225761"><ele>24.7</ele><time>2011-04-29T06:42:25.0000000+00:00</time></trkpt><trkpt lat="21.490068" lon="105.225685"><ele>21.9</ele><time>2011-04-29T06:42:30.0000000+00:00</time></trkpt><trkpt lat="21.489624" lon="105.225586"><ele>21.7</ele><time>2011-04-29T06:42:35.0000000+00:00</time></trkpt><trkpt lat="21.489178" lon="105.225624"><ele>23.8</ele><time>2011-04-29T06:42:40.0000000+00:00</time></trkpt><trkpt lat="21.488741" lon="105.225861"><ele>25.4</ele><time>2011-04-29T06:42:45.0000000+00:00</time></trkpt><trkpt lat="21.488337" lon="105.226181"><ele>26.5</ele><time>2011-04-29T06:42:50.0000000+00:00</time></trkpt><trkpt lat="21.487944" lon="105.226479"><ele>25.8</ele><time>2011-04-29T06:42:55.0000000+00:00</time></trkpt><trkpt lat="21.487532" lon="105.226784"><ele>27.2</ele><time>2011-04-29T06:43:00.0000000+00:00</time></trkpt><trkpt lat="21.487099" lon="105.227089"><ele>30.9</ele><time>2011-04-29T06:43:05.0000000+00:00</time></trkpt><trkpt lat="21.486605" lon="105.227219"><ele>36.7</ele><time>2011-04-29T06:43:10.0000000+00:00</time></trkpt><trkpt lat="21.486055" lon="105.227119"><ele>40.0</ele><time>2011-04-29T06:43:15.0000000+00:00</time></trkpt><trkpt lat="21.4855" lon="105.22699"><ele>40.1</ele><time>2011-04-29T06:43:20.0000000+00:00</time></trkpt><trkpt lat="21.484919" lon="105.226913"><ele>38.5</ele><time>2011-04-29T06:43:25.0000000+00:00</time></trkpt><trkpt lat="21.48431" lon="105.227036"><ele>36.1</ele><time>2011-04-29T06:43:30.0000000+00:00</time></trkpt><trkpt lat="21.483723" lon="105.227219"><ele>33.9</ele><time>2011-04-29T06:43:35.0000000+00:00</time></trkpt><trkpt lat="21.483128" lon="105.227432"><ele>32.8</ele><time>2011-04-29T06:43:40.0000000+00:00</time></trkpt><trkpt lat="21.482527" lon="105.227646"><ele>34.2</ele><time>2011-04-29T06:43:45.0000000+00:00</time></trkpt><trkpt lat="21.481932" lon="105.227844"><ele>33.7</ele><time>2011-04-29T06:43:50.0000000+00:00</time></trkpt><trkpt lat="21.481333" lon="105.22802"><ele>34.0</ele><time>2011-04-29T06:43:55.0000000+00:00</time></trkpt><trkpt lat="21.480749" lon="105.228256"><ele>33.4</ele><time>2011-04-29T06:44:00.0000000+00:00</time></trkpt><trkpt lat="21.480234" lon="105.228653"><ele>33.2</ele><time>2011-04-29T06:44:05.0000000+00:00</time></trkpt><trkpt lat="21.479839" lon="105.229179"><ele>33.6</ele><time>2011-04-29T06:44:10.0000000+00:00</time></trkpt><trkpt lat="21.479446" lon="105.229691"><ele>33.4</ele><time>2011-04-29T06:44:15.0000000+00:00</time></trkpt><trkpt lat="21.479021" lon="105.230179"><ele>32.8</ele><time>2011-04-29T06:44:20.0000000+00:00</time></trkpt><trkpt lat="21.478521" lon="105.23056"><ele>27.8</ele><time>2011-04-29T06:44:25.0000000+00:00</time></trkpt><trkpt lat="21.47794" lon="105.230751"><ele>26.9</ele><time>2011-04-29T06:44:30.0000000+00:00</time></trkpt><trkpt lat="21.477398" lon="105.230927"><ele>25.3</ele><time>2011-04-29T06:44:35.0000000+00:00</time></trkpt><trkpt lat="21.476885" lon="105.231087"><ele>26.1</ele><time>2011-04-29T06:44:40.0000000+00:00</time></trkpt><trkpt lat="21.476336" lon="105.231232"><ele>24.8</ele><time>2011-04-29T06:44:45.0000000+00:00</time></trkpt><trkpt lat="21.475712" lon="105.231277"><ele>25.5</ele><time>2011-04-29T06:44:50.0000000+00:00</time></trkpt><trkpt lat="21.475061" lon="105.231285"><ele>23.8</ele><time>2011-04-29T06:44:55.0000000+00:00</time></trkpt><trkpt lat="21.47439" lon="105.231277"><ele>23.3</ele><time>2011-04-29T06:45:00.0000000+00:00</time></trkpt><trkpt lat="21.473715" lon="105.231308"><ele>24.2</ele><time>2011-04-29T06:45:05.0000000+00:00</time></trkpt><trkpt lat="21.47303" lon="105.231369"><ele>25.8</ele><time>2011-04-29T06:45:10.0000000+00:00</time></trkpt><trkpt lat="21.472408" lon="105.231483"><ele>27.3</ele><time>2011-04-29T06:45:15.0000000+00:00</time></trkpt><trkpt lat="21.471916" lon="105.231812"><ele>29.3</ele><time>2011-04-29T06:45:20.0000000+00:00</time></trkpt><trkpt lat="21.471621" lon="105.2323"><ele>30.7</ele><time>2011-04-29T06:45:25.0000000+00:00</time></trkpt><trkpt lat="21.471554" lon="105.232964"><ele>30.4</ele><time>2011-04-29T06:45:30.0000000+00:00</time></trkpt><trkpt lat="21.471533" lon="105.233658"><ele>28.4</ele><time>2011-04-29T06:45:35.0000000+00:00</time></trkpt><trkpt lat="21.471411" lon="105.234314"><ele>28.2</ele><time>2011-04-29T06:45:40.0000000+00:00</time></trkpt><trkpt lat="21.471121" lon="105.234833"><ele>28.0</ele><time>2011-04-29T06:45:45.0000000+00:00</time></trkpt><trkpt lat="21.470779" lon="105.235222"><ele>30.0</ele><time>2011-04-29T06:45:50.0000000+00:00</time></trkpt><trkpt lat="21.470398" lon="105.235603"><ele>28.6</ele><time>2011-04-29T06:45:55.0000000+00:00</time></trkpt><trkpt lat="21.469994" lon="105.236023"><ele>29.5</ele><time>2011-04-29T06:46:00.0000000+00:00</time></trkpt><trkpt lat="21.469601" lon="105.236458"><ele>27.7</ele><time>2011-04-29T06:46:05.0000000+00:00</time></trkpt><trkpt lat="21.469185" lon="105.236893"><ele>26.3</ele><time>2011-04-29T06:46:10.0000000+00:00</time></trkpt><trkpt lat="21.468782" lon="105.237312"><ele>24.2</ele><time>2011-04-29T06:46:15.0000000+00:00</time></trkpt><trkpt lat="21.468611" lon="105.237503"><ele>22.9</ele><time>2011-04-29T06:46:20.0000000+00:00</time></trkpt><trkpt lat="21.468571" lon="105.237534"><ele>23.7</ele><time>2011-04-29T06:46:25.0000000+00:00</time></trkpt><trkpt lat="21.468554" lon="105.237549"><ele>23.7</ele><time>2011-04-29T06:46:30.0000000+00:00</time></trkpt><trkpt lat="21.468531" lon="105.237572"><ele>23.4</ele><time>2011-04-29T06:46:35.0000000+00:00</time></trkpt><trkpt lat="21.468391" lon="105.237717"><ele>25.1</ele><time>2011-04-29T06:46:40.0000000+00:00</time></trkpt><trkpt lat="21.468134" lon="105.237984"><ele>27.2</ele><time>2011-04-29T06:46:45.0000000+00:00</time></trkpt><trkpt lat="21.467825" lon="105.238312"><ele>29.5</ele><time>2011-04-29T06:46:50.0000000+00:00</time></trkpt><trkpt lat="21.467451" lon="105.238739"><ele>29.8</ele><time>2011-04-29T06:46:55.0000000+00:00</time></trkpt><trkpt lat="21.467096" lon="105.239182"><ele>29.9</ele><time>2011-04-29T06:47:00.0000000+00:00</time></trkpt><trkpt lat="21.466764" lon="105.239647"><ele>29.0</ele><time>2011-04-29T06:47:05.0000000+00:00</time></trkpt><trkpt lat="21.466312" lon="105.240051"><ele>28.1</ele><time>2011-04-29T06:47:10.0000000+00:00</time></trkpt><trkpt lat="21.465689" lon="105.240166"><ele>27.3</ele><time>2011-04-29T06:47:15.0000000+00:00</time></trkpt><trkpt lat="21.464966" lon="105.24015"><ele>26.9</ele><time>2011-04-29T06:47:20.0000000+00:00</time></trkpt><trkpt lat="21.464182" lon="105.24015"><ele>26.1</ele><time>2011-04-29T06:47:25.0000000+00:00</time></trkpt><trkpt lat="21.463408" lon="105.240158"><ele>25.1</ele><time>2011-04-29T06:47:30.0000000+00:00</time></trkpt><trkpt lat="21.462666" lon="105.240181"><ele>24.7</ele><time>2011-04-29T06:47:35.0000000+00:00</time></trkpt><trkpt lat="21.461931" lon="105.240356"><ele>23.8</ele><time>2011-04-29T06:47:40.0000000+00:00</time></trkpt><trkpt lat="21.461212" lon="105.240593"><ele>23.3</ele><time>2011-04-29T06:47:45.0000000+00:00</time></trkpt><trkpt lat="21.460562" lon="105.240776"><ele>22.7</ele><time>2011-04-29T06:47:50.0000000+00:00</time></trkpt><trkpt lat="21.459938" lon="105.240921"><ele>22.4</ele><time>2011-04-29T06:47:55.0000000+00:00</time></trkpt><trkpt lat="21.459282" lon="105.241074"><ele>20.5</ele><time>2011-04-29T06:48:00.0000000+00:00</time></trkpt><trkpt lat="21.458647" lon="105.241241"><ele>19.4</ele><time>2011-04-29T06:48:05.0000000+00:00</time></trkpt><trkpt lat="21.458067" lon="105.241371"><ele>17.8</ele><time>2011-04-29T06:48:10.0000000+00:00</time></trkpt><trkpt lat="21.457438" lon="105.241516"><ele>17.0</ele><time>2011-04-29T06:48:15.0000000+00:00</time></trkpt><trkpt lat="21.456783" lon="105.241646"><ele>16.5</ele><time>2011-04-29T06:48:20.0000000+00:00</time></trkpt><trkpt lat="21.456156" lon="105.241814"><ele>20.3</ele><time>2011-04-29T06:48:25.0000000+00:00</time></trkpt><trkpt lat="21.45569" lon="105.242149"><ele>20.1</ele><time>2011-04-29T06:48:30.0000000+00:00</time></trkpt><trkpt lat="21.455421" lon="105.242538"><ele>16.5</ele><time>2011-04-29T06:48:35.0000000+00:00</time></trkpt><trkpt lat="21.455118" lon="105.242828"><ele>13.8</ele><time>2011-04-29T06:48:40.0000000+00:00</time></trkpt><trkpt lat="21.454739" lon="105.243126"><ele>13.1</ele><time>2011-04-29T06:48:45.0000000+00:00</time></trkpt><trkpt lat="21.454277" lon="105.243462"><ele>10.6</ele><time>2011-04-29T06:48:50.0000000+00:00</time></trkpt><trkpt lat="21.453869" lon="105.243774"><ele>9.8</ele><time>2011-04-29T06:48:55.0000000+00:00</time></trkpt><trkpt lat="21.453468" lon="105.244102"><ele>11.5</ele><time>2011-04-29T06:49:00.0000000+00:00</time></trkpt><trkpt lat="21.453014" lon="105.244423"><ele>10.5</ele><time>2011-04-29T06:49:05.0000000+00:00</time></trkpt><trkpt lat="21.452517" lon="105.244698"><ele>14.0</ele><time>2011-04-29T06:49:10.0000000+00:00</time></trkpt><trkpt lat="21.451996" lon="105.244965"><ele>14.1</ele><time>2011-04-29T06:49:15.0000000+00:00</time></trkpt><trkpt lat="21.451447" lon="105.245148"><ele>17.0</ele><time>2011-04-29T06:49:20.0000000+00:00</time></trkpt><trkpt lat="21.450855" lon="105.245346"><ele>16.4</ele><time>2011-04-29T06:49:25.0000000+00:00</time></trkpt><trkpt lat="21.450285" lon="105.24559"><ele>17.3</ele><time>2011-04-29T06:49:30.0000000+00:00</time></trkpt><trkpt lat="21.449831" lon="105.24585"><ele>18.1</ele><time>2011-04-29T06:49:35.0000000+00:00</time></trkpt><trkpt lat="21.449635" lon="105.245972"><ele>19.9</ele><time>2011-04-29T06:49:40.0000000+00:00</time></trkpt><trkpt lat="21.449619" lon="105.245949"><ele>21.0</ele><time>2011-04-29T06:49:45.0000000+00:00</time></trkpt><trkpt lat="21.449574" lon="105.245972"><ele>21.9</ele><time>2011-04-29T06:49:50.0000000+00:00</time></trkpt><trkpt lat="21.44936" lon="105.246109"><ele>23.1</ele><time>2011-04-29T06:49:55.0000000+00:00</time></trkpt><trkpt lat="21.449049" lon="105.246254"><ele>24.8</ele><time>2011-04-29T06:50:00.0000000+00:00</time></trkpt><trkpt lat="21.448652" lon="105.246391"><ele>25.8</ele><time>2011-04-29T06:50:05.0000000+00:00</time></trkpt><trkpt lat="21.448177" lon="105.246521"><ele>24.6</ele><time>2011-04-29T06:50:10.0000000+00:00</time></trkpt><trkpt lat="21.447687" lon="105.246765"><ele>22.4</ele><time>2011-04-29T06:50:15.0000000+00:00</time></trkpt><trkpt lat="21.44721" lon="105.247208"><ele>18.7</ele><time>2011-04-29T06:50:20.0000000+00:00</time></trkpt><trkpt lat="21.446711" lon="105.247704"><ele>18.5</ele><time>2011-04-29T06:50:25.0000000+00:00</time></trkpt><trkpt lat="21.44628" lon="105.248192"><ele>19.3</ele><time>2011-04-29T06:50:30.0000000+00:00</time></trkpt><trkpt lat="21.445963" lon="105.248734"><ele>21.5</ele><time>2011-04-29T06:50:35.0000000+00:00</time></trkpt><trkpt lat="21.445642" lon="105.249336"><ele>20.1</ele><time>2011-04-29T06:50:40.0000000+00:00</time></trkpt><trkpt lat="21.445305" lon="105.249939"><ele>20.1</ele><time>2011-04-29T06:50:45.0000000+00:00</time></trkpt><trkpt lat="21.444948" lon="105.250549"><ele>21.1</ele><time>2011-04-29T06:50:50.0000000+00:00</time></trkpt><trkpt lat="21.444563" lon="105.251083"><ele>21.7</ele><time>2011-04-29T06:50:55.0000000+00:00</time></trkpt><trkpt lat="21.444096" lon="105.251617"><ele>20.7</ele><time>2011-04-29T06:51:00.0000000+00:00</time></trkpt><trkpt lat="21.443644" lon="105.252129"><ele>19.3</ele><time>2011-04-29T06:51:05.0000000+00:00</time></trkpt><trkpt lat="21.443165" lon="105.252563"><ele>18.1</ele><time>2011-04-29T06:51:10.0000000+00:00</time></trkpt><trkpt lat="21.442566" lon="105.252914"><ele>16.5</ele><time>2011-04-29T06:51:15.0000000+00:00</time></trkpt><trkpt lat="21.44199" lon="105.253265"><ele>18.1</ele><time>2011-04-29T06:51:20.0000000+00:00</time></trkpt><trkpt lat="21.441517" lon="105.253654"><ele>20.6</ele><time>2011-04-29T06:51:25.0000000+00:00</time></trkpt><trkpt lat="21.441048" lon="105.254074"><ele>22.5</ele><time>2011-04-29T06:51:30.0000000+00:00</time></trkpt><trkpt lat="21.440556" lon="105.254448"><ele>24.2</ele><time>2011-04-29T06:51:35.0000000+00:00</time></trkpt><trkpt lat="21.440004" lon="105.254753"><ele>24.9</ele><time>2011-04-29T06:51:40.0000000+00:00</time></trkpt><trkpt lat="21.439419" lon="105.254974"><ele>26.9</ele><time>2011-04-29T06:51:45.0000000+00:00</time></trkpt><trkpt lat="21.438837" lon="105.25518"><ele>28.7</ele><time>2011-04-29T06:51:50.0000000+00:00</time></trkpt><trkpt lat="21.438313" lon="105.255386"><ele>30.1</ele><time>2011-04-29T06:51:55.0000000+00:00</time></trkpt><trkpt lat="21.43782" lon="105.255531"><ele>30.1</ele><time>2011-04-29T06:52:00.0000000+00:00</time></trkpt><trkpt lat="21.437353" lon="105.255684"><ele>32.2</ele><time>2011-04-29T06:52:05.0000000+00:00</time></trkpt><trkpt lat="21.436853" lon="105.255859"><ele>34.5</ele><time>2011-04-29T06:52:10.0000000+00:00</time></trkpt><trkpt lat="21.436346" lon="105.256073"><ele>32.4</ele><time>2011-04-29T06:52:15.0000000+00:00</time></trkpt><trkpt lat="21.435892" lon="105.256378"><ele>32.2</ele><time>2011-04-29T06:52:20.0000000+00:00</time></trkpt><trkpt lat="21.435539" lon="105.256691"><ele>30.9</ele><time>2011-04-29T06:52:25.0000000+00:00</time></trkpt><trkpt lat="21.435219" lon="105.256958"><ele>31.9</ele><time>2011-04-29T06:52:30.0000000+00:00</time></trkpt><trkpt lat="21.434904" lon="105.257179"><ele>31.2</ele><time>2011-04-29T06:52:35.0000000+00:00</time></trkpt><trkpt lat="21.434576" lon="105.257423"><ele>28.8</ele><time>2011-04-29T06:52:40.0000000+00:00</time></trkpt><trkpt lat="21.434227" lon="105.257698"><ele>25.4</ele><time>2011-04-29T06:52:45.0000000+00:00</time></trkpt><trkpt lat="21.433949" lon="105.258064"><ele>20.8</ele><time>2011-04-29T06:52:50.0000000+00:00</time></trkpt><trkpt lat="21.433826" lon="105.258568"><ele>18.0</ele><time>2011-04-29T06:52:55.0000000+00:00</time></trkpt><trkpt lat="21.433905" lon="105.259094"><ele>17.7</ele><time>2011-04-29T06:53:00.0000000+00:00</time></trkpt><trkpt lat="21.43401" lon="105.259567"><ele>19.4</ele><time>2011-04-29T06:53:05.0000000+00:00</time></trkpt><trkpt lat="21.434034" lon="105.259895"><ele>24.0</ele><time>2011-04-29T06:53:10.0000000+00:00</time></trkpt><trkpt lat="21.433975" lon="105.260231"><ele>24.5</ele><time>2011-04-29T06:53:15.0000000+00:00</time></trkpt><trkpt lat="21.433809" lon="105.260674"><ele>25.7</ele><time>2011-04-29T06:53:20.0000000+00:00</time></trkpt><trkpt lat="21.433611" lon="105.261185"><ele>25.4</ele><time>2011-04-29T06:53:25.0000000+00:00</time></trkpt><trkpt lat="21.433407" lon="105.261658"><ele>28.2</ele><time>2011-04-29T06:53:30.0000000+00:00</time></trkpt><trkpt lat="21.433258" lon="105.261986"><ele>29.6</ele><time>2011-04-29T06:53:35.0000000+00:00</time></trkpt><trkpt lat="21.433167" lon="105.262344"><ele>32.5</ele><time>2011-04-29T06:53:40.0000000+00:00</time></trkpt><trkpt lat="21.433168" lon="105.262733"><ele>33.7</ele><time>2011-04-29T06:53:45.0000000+00:00</time></trkpt><trkpt lat="21.433327" lon="105.263123"><ele>32.7</ele><time>2011-04-29T06:53:50.0000000+00:00</time></trkpt><trkpt lat="21.433653" lon="105.263489"><ele>33.4</ele><time>2011-04-29T06:53:55.0000000+00:00</time></trkpt><trkpt lat="21.43401" lon="105.263802"><ele>34.5</ele><time>2011-04-29T06:54:00.0000000+00:00</time></trkpt><trkpt lat="21.434319" lon="105.264084"><ele>35.7</ele><time>2011-04-29T06:54:05.0000000+00:00</time></trkpt><trkpt lat="21.43461" lon="105.264374"><ele>33.9</ele><time>2011-04-29T06:54:10.0000000+00:00</time></trkpt><trkpt lat="21.434942" lon="105.264687"><ele>31.7</ele><time>2011-04-29T06:54:15.0000000+00:00</time></trkpt><trkpt lat="21.435303" lon="105.265045"><ele>32.5</ele><time>2011-04-29T06:54:20.0000000+00:00</time></trkpt><trkpt lat="21.435575" lon="105.265373"><ele>32.6</ele><time>2011-04-29T06:54:25.0000000+00:00</time></trkpt><trkpt lat="21.435814" lon="105.265785"><ele>31.9</ele><time>2011-04-29T06:54:30.0000000+00:00</time></trkpt><trkpt lat="21.43602" lon="105.266205"><ele>34.8</ele><time>2011-04-29T06:54:35.0000000+00:00</time></trkpt><trkpt lat="21.436255" lon="105.266647"><ele>37.9</ele><time>2011-04-29T06:54:40.0000000+00:00</time></trkpt><trkpt lat="21.436462" lon="105.267097"><ele>39.0</ele><time>2011-04-29T06:54:45.0000000+00:00</time></trkpt><trkpt lat="21.436705" lon="105.267548"><ele>40.9</ele><time>2011-04-29T06:54:50.0000000+00:00</time></trkpt><trkpt lat="21.436924" lon="105.268013"><ele>41.8</ele><time>2011-04-29T06:54:55.0000000+00:00</time></trkpt><trkpt lat="21.437073" lon="105.268463"><ele>43.1</ele><time>2011-04-29T06:55:00.0000000+00:00</time></trkpt><trkpt lat="21.437138" lon="105.268944"><ele>43.9</ele><time>2011-04-29T06:55:05.0000000+00:00</time></trkpt><trkpt lat="21.437189" lon="105.269478"><ele>43.3</ele><time>2011-04-29T06:55:10.0000000+00:00</time></trkpt><trkpt lat="21.437241" lon="105.270027"><ele>42.0</ele><time>2011-04-29T06:55:15.0000000+00:00</time></trkpt><trkpt lat="21.437429" lon="105.270592"><ele>41.4</ele><time>2011-04-29T06:55:20.0000000+00:00</time></trkpt><trkpt lat="21.43782" lon="105.271049"><ele>42.1</ele><time>2011-04-29T06:55:25.0000000+00:00</time></trkpt><trkpt lat="21.438293" lon="105.271339"><ele>41.2</ele><time>2011-04-29T06:55:30.0000000+00:00</time></trkpt><trkpt lat="21.438698" lon="105.271545"><ele>42.1</ele><time>2011-04-29T06:55:35.0000000+00:00</time></trkpt><trkpt lat="21.439047" lon="105.27182"><ele>43.7</ele><time>2011-04-29T06:55:40.0000000+00:00</time></trkpt><trkpt lat="21.439371" lon="105.272179"><ele>44.9</ele><time>2011-04-29T06:55:45.0000000+00:00</time></trkpt><trkpt lat="21.439751" lon="105.272621"><ele>40.7</ele><time>2011-04-29T06:55:50.0000000+00:00</time></trkpt><trkpt lat="21.440277" lon="105.273033"><ele>38.9</ele><time>2011-04-29T06:55:55.0000000+00:00</time></trkpt><trkpt lat="21.440891" lon="105.273346"><ele>36.4</ele><time>2011-04-29T06:56:00.0000000+00:00</time></trkpt><trkpt lat="21.441448" lon="105.273796"><ele>36.1</ele><time>2011-04-29T06:56:05.0000000+00:00</time></trkpt><trkpt lat="21.441849" lon="105.274452"><ele>36.0</ele><time>2011-04-29T06:56:10.0000000+00:00</time></trkpt><trkpt lat="21.442198" lon="105.275177"><ele>36.4</ele><time>2011-04-29T06:56:15.0000000+00:00</time></trkpt><trkpt lat="21.442427" lon="105.275986"><ele>31.4</ele><time>2011-04-29T06:56:20.0000000+00:00</time></trkpt><trkpt lat="21.442305" lon="105.276756"><ele>29.7</ele><time>2011-04-29T06:56:25.0000000+00:00</time></trkpt><trkpt lat="21.442051" lon="105.277519"><ele>27.7</ele><time>2011-04-29T06:56:30.0000000+00:00</time></trkpt><trkpt lat="21.441803" lon="105.278267"><ele>28.2</ele><time>2011-04-29T06:56:35.0000000+00:00</time></trkpt><trkpt lat="21.44171" lon="105.279022"><ele>28.6</ele><time>2011-04-29T06:56:40.0000000+00:00</time></trkpt><trkpt lat="21.442049" lon="105.279648"><ele>29.2</ele><time>2011-04-29T06:56:45.0000000+00:00</time></trkpt><trkpt lat="21.442612" lon="105.280144"><ele>28.6</ele><time>2011-04-29T06:56:50.0000000+00:00</time></trkpt><trkpt lat="21.443144" lon="105.280754"><ele>32.1</ele><time>2011-04-29T06:56:55.0000000+00:00</time></trkpt><trkpt lat="21.44334" lon="105.28157"><ele>31.0</ele><time>2011-04-29T06:57:00.0000000+00:00</time></trkpt><trkpt lat="21.443424" lon="105.282448"><ele>32.6</ele><time>2011-04-29T06:57:05.0000000+00:00</time></trkpt><trkpt lat="21.443289" lon="105.283264"><ele>35.1</ele><time>2011-04-29T06:57:10.0000000+00:00</time></trkpt><trkpt lat="21.442877" lon="105.28392"><ele>37.7</ele><time>2011-04-29T06:57:15.0000000+00:00</time></trkpt><trkpt lat="21.442387" lon="105.284492"><ele>39.9</ele><time>2011-04-29T06:57:20.0000000+00:00</time></trkpt><trkpt lat="21.441906" lon="105.285027"><ele>40.2</ele><time>2011-04-29T06:57:25.0000000+00:00</time></trkpt><trkpt lat="21.441465" lon="105.285469"><ele>40.9</ele><time>2011-04-29T06:57:30.0000000+00:00</time></trkpt><trkpt lat="21.440985" lon="105.285767"><ele>42.7</ele><time>2011-04-29T06:57:35.0000000+00:00</time></trkpt><trkpt lat="21.440481" lon="105.285965"><ele>45.7</ele><time>2011-04-29T06:57:40.0000000+00:00</time></trkpt><trkpt lat="21.439968" lon="105.286133"><ele>47.8</ele><time>2011-04-29T06:57:45.0000000+00:00</time></trkpt><trkpt lat="21.439474" lon="105.286316"><ele>49.1</ele><time>2011-04-29T06:57:50.0000000+00:00</time></trkpt><trkpt lat="21.439034" lon="105.286491"><ele>50.7</ele><time>2011-04-29T06:57:55.0000000+00:00</time></trkpt><trkpt lat="21.4387" lon="105.286835"><ele>49.2</ele><time>2011-04-29T06:58:00.0000000+00:00</time></trkpt><trkpt lat="21.438416" lon="105.287323"><ele>49.1</ele><time>2011-04-29T06:58:05.0000000+00:00</time></trkpt><trkpt lat="21.438164" lon="105.287804"><ele>48.2</ele><time>2011-04-29T06:58:10.0000000+00:00</time></trkpt><trkpt lat="21.43795" lon="105.288185"><ele>45.1</ele><time>2011-04-29T06:58:15.0000000+00:00</time></trkpt><trkpt lat="21.437737" lon="105.288574"><ele>44.1</ele><time>2011-04-29T06:58:20.0000000+00:00</time></trkpt><trkpt lat="21.437494" lon="105.288994"><ele>46.2</ele><time>2011-04-29T06:58:25.0000000+00:00</time></trkpt><trkpt lat="21.437246" lon="105.289459"><ele>44.5</ele><time>2011-04-29T06:58:30.0000000+00:00</time></trkpt><trkpt lat="21.436996" lon="105.289886"><ele>45.4</ele><time>2011-04-29T06:58:35.0000000+00:00</time></trkpt><trkpt lat="21.436739" lon="105.290306"><ele>45.9</ele><time>2011-04-29T06:58:40.0000000+00:00</time></trkpt><trkpt lat="21.436497" lon="105.290672"><ele>46.2</ele><time>2011-04-29T06:58:45.0000000+00:00</time></trkpt><trkpt lat="21.436241" lon="105.291023"><ele>45.2</ele><time>2011-04-29T06:58:50.0000000+00:00</time></trkpt><trkpt lat="21.435881" lon="105.291283"><ele>45.2</ele><time>2011-04-29T06:58:55.0000000+00:00</time></trkpt><trkpt lat="21.435421" lon="105.291267"><ele>45.0</ele><time>2011-04-29T06:59:00.0000000+00:00</time></trkpt><trkpt lat="21.434956" lon="105.291107"><ele>44.2</ele><time>2011-04-29T06:59:05.0000000+00:00</time></trkpt><trkpt lat="21.434481" lon="105.290947"><ele>42.5</ele><time>2011-04-29T06:59:10.0000000+00:00</time></trkpt><trkpt lat="21.43399" lon="105.290787"><ele>41.8</ele><time>2011-04-29T06:59:15.0000000+00:00</time></trkpt><trkpt lat="21.433533" lon="105.290665"><ele>43.4</ele><time>2011-04-29T06:59:20.0000000+00:00</time></trkpt><trkpt lat="21.433105" lon="105.290741"><ele>42.0</ele><time>2011-04-29T06:59:25.0000000+00:00</time></trkpt><trkpt lat="21.432756" lon="105.291046"><ele>42.2</ele><time>2011-04-29T06:59:30.0000000+00:00</time></trkpt><trkpt lat="21.432514" lon="105.291275"><ele>44.2</ele><time>2011-04-29T06:59:35.0000000+00:00</time></trkpt><trkpt lat="21.432261" lon="105.291534"><ele>46.3</ele><time>2011-04-29T06:59:40.0000000+00:00</time></trkpt><trkpt lat="21.431957" lon="105.291847"><ele>43.5</ele><time>2011-04-29T06:59:45.0000000+00:00</time></trkpt><trkpt lat="21.431623" lon="105.292168"><ele>42.9</ele><time>2011-04-29T06:59:50.0000000+00:00</time></trkpt><trkpt lat="21.431213" lon="105.292427"><ele>41.5</ele><time>2011-04-29T06:59:55.0000000+00:00</time></trkpt><trkpt lat="21.430771" lon="105.292572"><ele>42.6</ele><time>2011-04-29T07:00:00.0000000+00:00</time></trkpt><trkpt lat="21.430307" lon="105.292725"><ele>45.0</ele><time>2011-04-29T07:00:05.0000000+00:00</time></trkpt><trkpt lat="21.429811" lon="105.292885"><ele>45.6</ele><time>2011-04-29T07:00:10.0000000+00:00</time></trkpt><trkpt lat="21.429296" lon="105.29303"><ele>46.9</ele><time>2011-04-29T07:00:15.0000000+00:00</time></trkpt><trkpt lat="21.428831" lon="105.293159"><ele>46.0</ele><time>2011-04-29T07:00:20.0000000+00:00</time></trkpt><trkpt lat="21.428442" lon="105.29335"><ele>41.9</ele><time>2011-04-29T07:00:25.0000000+00:00</time></trkpt><trkpt lat="21.428144" lon="105.293678"><ele>41.3</ele><time>2011-04-29T07:00:30.0000000+00:00</time></trkpt><trkpt lat="21.427919" lon="105.294044"><ele>41.6</ele><time>2011-04-29T07:00:35.0000000+00:00</time></trkpt><trkpt lat="21.427647" lon="105.294418"><ele>41.5</ele><time>2011-04-29T07:00:40.0000000+00:00</time></trkpt><trkpt lat="21.42724" lon="105.29464"><ele>38.0</ele><time>2011-04-29T07:00:45.0000000+00:00</time></trkpt><trkpt lat="21.426769" lon="105.294563"><ele>37.5</ele><time>2011-04-29T07:00:50.0000000+00:00</time></trkpt><trkpt lat="21.426302" lon="105.294327"><ele>38.7</ele><time>2011-04-29T07:00:55.0000000+00:00</time></trkpt><trkpt lat="21.425848" lon="105.294098"><ele>38.1</ele><time>2011-04-29T07:01:00.0000000+00:00</time></trkpt><trkpt lat="21.425407" lon="105.293938"><ele>40.5</ele><time>2011-04-29T07:01:05.0000000+00:00</time></trkpt><trkpt lat="21.424976" lon="105.2939"><ele>41.8</ele><time>2011-04-29T07:01:10.0000000+00:00</time></trkpt><trkpt lat="21.42457" lon="105.293999"><ele>41.2</ele><time>2011-04-29T07:01:15.0000000+00:00</time></trkpt><trkpt lat="21.424122" lon="105.294197"><ele>39.1</ele><time>2011-04-29T07:01:20.0000000+00:00</time></trkpt><trkpt lat="21.423553" lon="105.294495"><ele>40.2</ele><time>2011-04-29T07:01:25.0000000+00:00</time></trkpt><trkpt lat="21.423035" lon="105.294724"><ele>39.3</ele><time>2011-04-29T07:01:30.0000000+00:00</time></trkpt><trkpt lat="21.422535" lon="105.294952"><ele>38.2</ele><time>2011-04-29T07:01:35.0000000+00:00</time></trkpt><trkpt lat="21.421993" lon="105.295189"><ele>36.2</ele><time>2011-04-29T07:01:40.0000000+00:00</time></trkpt><trkpt lat="21.421476" lon="105.295341"><ele>35.9</ele><time>2011-04-29T07:01:45.0000000+00:00</time></trkpt><trkpt lat="21.42099" lon="105.295441"><ele>36.4</ele><time>2011-04-29T07:01:50.0000000+00:00</time></trkpt><trkpt lat="21.420544" lon="105.295662"><ele>35.2</ele><time>2011-04-29T07:01:55.0000000+00:00</time></trkpt><trkpt lat="21.420265" lon="105.296043"><ele>34.8</ele><time>2011-04-29T07:02:00.0000000+00:00</time></trkpt><trkpt lat="21.420069" lon="105.29641"><ele>34.1</ele><time>2011-04-29T07:02:05.0000000+00:00</time></trkpt><trkpt lat="21.41991" lon="105.296509"><ele>35.3</ele><time>2011-04-29T07:02:10.0000000+00:00</time></trkpt><trkpt lat="21.419857" lon="105.296471"><ele>39.1</ele><time>2011-04-29T07:02:15.0000000+00:00</time></trkpt><trkpt lat="21.419853" lon="105.296471"><ele>39.2</ele><time>2011-04-29T07:02:20.0000000+00:00</time></trkpt><trkpt lat="21.419855" lon="105.296478"><ele>39.2</ele><time>2011-04-29T07:02:25.0000000+00:00</time></trkpt><trkpt lat="21.419859" lon="105.296478"><ele>39.2</ele><time>2011-04-29T07:02:30.0000000+00:00</time></trkpt><trkpt lat="21.419865" lon="105.296486"><ele>39.3</ele><time>2011-04-29T07:02:35.0000000+00:00</time></trkpt><trkpt lat="21.419867" lon="105.296486"><ele>39.3</ele><time>2011-04-29T07:02:40.0000000+00:00</time></trkpt><trkpt lat="21.419867" lon="105.296486"><ele>39.3</ele><time>2011-04-29T07:02:45.0000000+00:00</time></trkpt><trkpt lat="21.419867" lon="105.296478"><ele>39.4</ele><time>2011-04-29T07:02:50.0000000+00:00</time></trkpt><trkpt lat="21.419867" lon="105.296478"><ele>39.4</ele><time>2011-04-29T07:02:55.0000000+00:00</time></trkpt><trkpt lat="21.419867" lon="105.296478"><ele>39.5</ele><time>2011-04-29T07:03:00.0000000+00:00</time></trkpt><trkpt lat="21.419867" lon="105.296478"><ele>39.5</ele><time>2011-04-29T07:03:05.0000000+00:00</time></trkpt><trkpt lat="21.419867" lon="105.296478"><ele>39.6</ele><time>2011-04-29T07:03:10.0000000+00:00</time></trkpt><trkpt lat="21.419867" lon="105.296478"><ele>39.6</ele><time>2011-04-29T07:03:15.0000000+00:00</time></trkpt><trkpt lat="21.419861" lon="105.296471"><ele>39.6</ele><time>2011-04-29T07:03:20.0000000+00:00</time></trkpt><trkpt lat="21.419861" lon="105.296471"><ele>39.6</ele><time>2011-04-29T07:03:25.0000000+00:00</time></trkpt><trkpt lat="21.419861" lon="105.296478"><ele>39.6</ele><time>2011-04-29T07:03:30.0000000+00:00</time></trkpt><trkpt lat="21.419859" lon="105.296478"><ele>39.6</ele><time>2011-04-29T07:03:35.0000000+00:00</time></trkpt><trkpt lat="21.419868" lon="105.296478"><ele>39.6</ele><time>2011-04-29T07:03:40.0000000+00:00</time></trkpt><trkpt lat="21.419876" lon="105.296478"><ele>39.7</ele><time>2011-04-29T07:03:45.0000000+00:00</time></trkpt><trkpt lat="21.419874" lon="105.296478"><ele>39.8</ele><time>2011-04-29T07:03:50.0000000+00:00</time></trkpt><trkpt lat="21.419865" lon="105.296478"><ele>39.8</ele><time>2011-04-29T07:03:55.0000000+00:00</time></trkpt><trkpt lat="21.419861" lon="105.296486"><ele>39.7</ele><time>2011-04-29T07:04:00.0000000+00:00</time></trkpt><trkpt lat="21.419857" lon="105.296486"><ele>39.7</ele><time>2011-04-29T07:04:05.0000000+00:00</time></trkpt><trkpt lat="21.419855" lon="105.296494"><ele>39.7</ele><time>2011-04-29T07:04:10.0000000+00:00</time></trkpt><trkpt lat="21.419859" lon="105.296494"><ele>39.7</ele><time>2011-04-29T07:04:15.0000000+00:00</time></trkpt><trkpt lat="21.419861" lon="105.296494"><ele>39.6</ele><time>2011-04-29T07:04:20.0000000+00:00</time></trkpt><trkpt lat="21.419861" lon="105.296494"><ele>39.6</ele><time>2011-04-29T07:04:25.0000000+00:00</time></trkpt><trkpt lat="21.419863" lon="105.296494"><ele>39.7</ele><time>2011-04-29T07:04:30.0000000+00:00</time></trkpt><trkpt lat="21.419861" lon="105.296494"><ele>39.7</ele><time>2011-04-29T07:04:35.0000000+00:00</time></trkpt><trkpt lat="21.419861" lon="105.296494"><ele>39.8</ele><time>2011-04-29T07:04:40.0000000+00:00</time></trkpt><trkpt lat="21.419859" lon="105.296494"><ele>39.8</ele><time>2011-04-29T07:04:45.0000000+00:00</time></trkpt><trkpt lat="21.419857" lon="105.296501"><ele>39.9</ele><time>2011-04-29T07:04:50.0000000+00:00</time></trkpt><trkpt lat="21.419857" lon="105.296501"><ele>39.9</ele><time>2011-04-29T07:04:55.0000000+00:00</time></trkpt><trkpt lat="21.419853" lon="105.296501"><ele>39.9</ele><time>2011-04-29T07:05:00.0000000+00:00</time></trkpt><trkpt lat="21.419851" lon="105.296509"><ele>39.9</ele><time>2011-04-29T07:05:05.0000000+00:00</time></trkpt><trkpt lat="21.419849" lon="105.296516"><ele>40.0</ele><time>2011-04-29T07:05:10.0000000+00:00</time></trkpt><trkpt lat="21.419853" lon="105.296516"><ele>40.0</ele><time>2011-04-29T07:05:15.0000000+00:00</time></trkpt><trkpt lat="21.419853" lon="105.296516"><ele>40.1</ele><time>2011-04-29T07:05:20.0000000+00:00</time></trkpt><trkpt lat="21.419853" lon="105.296524"><ele>40.2</ele><time>2011-04-29T07:05:25.0000000+00:00</time></trkpt><trkpt lat="21.419853" lon="105.296516"><ele>40.2</ele><time>2011-04-29T07:05:30.0000000+00:00</time></trkpt><trkpt lat="21.419851" lon="105.296516"><ele>40.3</ele><time>2011-04-29T07:05:35.0000000+00:00</time></trkpt><trkpt lat="21.419851" lon="105.296516"><ele>40.3</ele><time>2011-04-29T07:05:40.0000000+00:00</time></trkpt><trkpt lat="21.419851" lon="105.296516"><ele>40.3</ele><time>2011-04-29T07:05:45.0000000+00:00</time></trkpt><trkpt lat="21.419851" lon="105.296516"><ele>40.3</ele><time>2011-04-29T07:05:50.0000000+00:00</time></trkpt><trkpt lat="21.419851" lon="105.296516"><ele>40.3</ele><time>2011-04-29T07:05:55.0000000+00:00</time></trkpt><trkpt lat="21.419851" lon="105.296516"><ele>40.3</ele><time>2011-04-29T07:06:00.0000000+00:00</time></trkpt><trkpt lat="21.419851" lon="105.296516"><ele>40.3</ele><time>2011-04-29T07:06:05.0000000+00:00</time></trkpt><trkpt lat="21.419853" lon="105.296516"><ele>40.2</ele><time>2011-04-29T07:06:10.0000000+00:00</time></trkpt><trkpt lat="21.419853" lon="105.296516"><ele>40.3</ele><time>2011-04-29T07:06:15.0000000+00:00</time></trkpt><trkpt lat="21.419853" lon="105.296516"><ele>40.2</ele><time>2011-04-29T07:06:20.0000000+00:00</time></trkpt><trkpt lat="21.419853" lon="105.296516"><ele>40.2</ele><time>2011-04-29T07:06:25.0000000+00:00</time></trkpt><trkpt lat="21.419853" lon="105.296516"><ele>40.2</ele><time>2011-04-29T07:06:30.0000000+00:00</time></trkpt><trkpt lat="21.419853" lon="105.296516"><ele>40.2</ele><time>2011-04-29T07:06:35.0000000+00:00</time></trkpt><trkpt lat="21.419853" lon="105.296516"><ele>40.2</ele><time>2011-04-29T07:06:40.0000000+00:00</time></trkpt><trkpt lat="21.419853" lon="105.296516"><ele>40.2</ele><time>2011-04-29T07:06:45.0000000+00:00</time></trkpt><trkpt lat="21.419853" lon="105.296516"><ele>40.2</ele><time>2011-04-29T07:06:50.0000000+00:00</time></trkpt><trkpt lat="21.419853" lon="105.296516"><ele>40.2</ele><time>2011-04-29T07:06:55.0000000+00:00</time></trkpt><trkpt lat="21.419853" lon="105.296516"><ele>40.2</ele><time>2011-04-29T07:07:00.0000000+00:00</time></trkpt><trkpt lat="21.419853" lon="105.296516"><ele>40.2</ele><time>2011-04-29T07:07:05.0000000+00:00</time></trkpt><trkpt lat="21.419842" lon="105.296516"><ele>39.0</ele><time>2011-04-29T07:07:10.0000000+00:00</time></trkpt><trkpt lat="21.41983" lon="105.296516"><ele>38.2</ele><time>2011-04-29T07:07:15.0000000+00:00</time></trkpt><trkpt lat="21.41983" lon="105.296516"><ele>36.4</ele><time>2011-04-29T07:07:20.0000000+00:00</time></trkpt><trkpt lat="21.419827" lon="105.296509"><ele>35.2</ele><time>2011-04-29T07:07:25.0000000+00:00</time></trkpt><trkpt lat="21.41983" lon="105.296524"><ele>33.6</ele><time>2011-04-29T07:07:30.0000000+00:00</time></trkpt><trkpt lat="21.419823" lon="105.296524"><ele>32.8</ele><time>2011-04-29T07:07:35.0000000+00:00</time></trkpt><trkpt lat="21.419825" lon="105.296516"><ele>31.8</ele><time>2011-04-29T07:07:40.0000000+00:00</time></trkpt><trkpt lat="21.419821" lon="105.296509"><ele>31.0</ele><time>2011-04-29T07:07:45.0000000+00:00</time></trkpt><trkpt lat="21.419821" lon="105.296509"><ele>30.8</ele><time>2011-04-29T07:07:50.0000000+00:00</time></trkpt><trkpt lat="21.419823" lon="105.296509"><ele>30.7</ele><time>2011-04-29T07:07:55.0000000+00:00</time></trkpt><trkpt lat="21.419827" lon="105.296509"><ele>30.7</ele><time>2011-04-29T07:08:00.0000000+00:00</time></trkpt><trkpt lat="21.419832" lon="105.296509"><ele>30.6</ele><time>2011-04-29T07:08:05.0000000+00:00</time></trkpt><trkpt lat="21.41984" lon="105.296509"><ele>30.4</ele><time>2011-04-29T07:08:10.0000000+00:00</time></trkpt><trkpt lat="21.419849" lon="105.296509"><ele>30.0</ele><time>2011-04-29T07:08:15.0000000+00:00</time></trkpt><trkpt lat="21.419857" lon="105.296509"><ele>29.6</ele><time>2011-04-29T07:08:20.0000000+00:00</time></trkpt><trkpt lat="21.419863" lon="105.296509"><ele>29.1</ele><time>2011-04-29T07:08:25.0000000+00:00</time></trkpt><trkpt lat="21.419868" lon="105.296509"><ele>28.4</ele><time>2011-04-29T07:08:30.0000000+00:00</time></trkpt><trkpt lat="21.419874" lon="105.296509"><ele>27.7</ele><time>2011-04-29T07:08:35.0000000+00:00</time></trkpt><trkpt lat="21.41988" lon="105.296509"><ele>26.8</ele><time>2011-04-29T07:08:40.0000000+00:00</time></trkpt><trkpt lat="21.419884" lon="105.296509"><ele>25.9</ele><time>2011-04-29T07:08:45.0000000+00:00</time></trkpt><trkpt lat="21.419886" lon="105.296509"><ele>24.9</ele><time>2011-04-29T07:08:50.0000000+00:00</time></trkpt><trkpt lat="21.419889" lon="105.296501"><ele>23.9</ele><time>2011-04-29T07:08:55.0000000+00:00</time></trkpt><trkpt lat="21.419893" lon="105.296501"><ele>22.8</ele><time>2011-04-29T07:09:00.0000000+00:00</time></trkpt><trkpt lat="21.419895" lon="105.296494"><ele>21.6</ele><time>2011-04-29T07:09:05.0000000+00:00</time></trkpt><trkpt lat="21.419895" lon="105.296486"><ele>20.4</ele><time>2011-04-29T07:09:10.0000000+00:00</time></trkpt><trkpt lat="21.419895" lon="105.296478"><ele>19.2</ele><time>2011-04-29T07:09:15.0000000+00:00</time></trkpt><trkpt lat="21.419895" lon="105.296463"><ele>17.9</ele><time>2011-04-29T07:09:20.0000000+00:00</time></trkpt><trkpt lat="21.419895" lon="105.296455"><ele>16.7</ele><time>2011-04-29T07:09:25.0000000+00:00</time></trkpt><trkpt lat="21.419893" lon="105.296448"><ele>15.6</ele><time>2011-04-29T07:09:30.0000000+00:00</time></trkpt><trkpt lat="21.419891" lon="105.29644"><ele>14.6</ele><time>2011-04-29T07:09:35.0000000+00:00</time></trkpt><trkpt lat="21.419888" lon="105.29644"><ele>13.7</ele><time>2011-04-29T07:09:40.0000000+00:00</time></trkpt><trkpt lat="21.419886" lon="105.296432"><ele>12.9</ele><time>2011-04-29T07:09:45.0000000+00:00</time></trkpt><trkpt lat="21.419886" lon="105.296432"><ele>12.2</ele><time>2011-04-29T07:09:50.0000000+00:00</time></trkpt><trkpt lat="21.419884" lon="105.296432"><ele>11.6</ele><time>2011-04-29T07:09:55.0000000+00:00</time></trkpt><trkpt lat="21.419882" lon="105.296432"><ele>11.1</ele><time>2011-04-29T07:10:00.0000000+00:00</time></trkpt><trkpt lat="21.419878" lon="105.29644"><ele>10.6</ele><time>2011-04-29T07:10:05.0000000+00:00</time></trkpt><trkpt lat="21.419878" lon="105.29644"><ele>10.4</ele><time>2011-04-29T07:10:10.0000000+00:00</time></trkpt><trkpt lat="21.419874" lon="105.296448"><ele>10.2</ele><time>2011-04-29T07:10:15.0000000+00:00</time></trkpt><trkpt lat="21.419874" lon="105.296448"><ele>10.2</ele><time>2011-04-29T07:10:20.0000000+00:00</time></trkpt><trkpt lat="21.419874" lon="105.296448"><ele>10.3</ele><time>2011-04-29T07:10:25.0000000+00:00</time></trkpt><trkpt lat="21.419874" lon="105.296448"><ele>10.4</ele><time>2011-04-29T07:10:30.0000000+00:00</time></trkpt><trkpt lat="21.419874" lon="105.296448"><ele>10.4</ele><time>2011-04-29T07:10:35.0000000+00:00</time></trkpt><trkpt lat="21.419874" lon="105.296448"><ele>10.4</ele><time>2011-04-29T07:10:40.0000000+00:00</time></trkpt><trkpt lat="21.419874" lon="105.296448"><ele>10.4</ele><time>2011-04-29T07:10:45.0000000+00:00</time></trkpt><trkpt lat="21.419874" lon="105.296448"><ele>10.5</ele><time>2011-04-29T07:10:50.0000000+00:00</time></trkpt><trkpt lat="21.419874" lon="105.296448"><ele>10.5</ele><time>2011-04-29T07:10:55.0000000+00:00</time></trkpt><trkpt lat="21.419874" lon="105.296448"><ele>10.5</ele><time>2011-04-29T07:11:00.0000000+00:00</time></trkpt><trkpt lat="21.419874" lon="105.296448"><ele>10.6</ele><time>2011-04-29T07:11:05.0000000+00:00</time></trkpt><trkpt lat="21.419874" lon="105.296448"><ele>10.6</ele><time>2011-04-29T07:11:10.0000000+00:00</time></trkpt><trkpt lat="21.419874" lon="105.296448"><ele>10.6</ele><time>2011-04-29T07:11:15.0000000+00:00</time></trkpt><trkpt lat="21.419874" lon="105.296448"><ele>10.6</ele><time>2011-04-29T07:11:20.0000000+00:00</time></trkpt><trkpt lat="21.419874" lon="105.296448"><ele>10.7</ele><time>2011-04-29T07:11:25.0000000+00:00</time></trkpt><trkpt lat="21.419874" lon="105.296448"><ele>10.7</ele><time>2011-04-29T07:11:30.0000000+00:00</time></trkpt><trkpt lat="21.419874" lon="105.296448"><ele>10.7</ele><time>2011-04-29T07:11:35.0000000+00:00</time></trkpt><trkpt lat="21.419874" lon="105.296448"><ele>10.8</ele><time>2011-04-29T07:11:40.0000000+00:00</time></trkpt><trkpt lat="21.419874" lon="105.296448"><ele>10.8</ele><time>2011-04-29T07:11:45.0000000+00:00</time></trkpt><trkpt lat="21.419874" lon="105.296448"><ele>10.8</ele><time>2011-04-29T07:11:50.0000000+00:00</time></trkpt><trkpt lat="21.419874" lon="105.296448"><ele>10.9</ele><time>2011-04-29T07:11:55.0000000+00:00</time></trkpt><trkpt lat="21.419874" lon="105.296448"><ele>10.9</ele><time>2011-04-29T07:12:00.0000000+00:00</time></trkpt><trkpt lat="21.419874" lon="105.296448"><ele>10.9</ele><time>2011-04-29T07:12:05.0000000+00:00</time></trkpt><trkpt lat="21.419874" lon="105.296448"><ele>11.0</ele><time>2011-04-29T07:12:10.0000000+00:00</time></trkpt><trkpt lat="21.419874" lon="105.296448"><ele>11.0</ele><time>2011-04-29T07:12:15.0000000+00:00</time></trkpt><trkpt lat="21.419874" lon="105.296448"><ele>11.0</ele><time>2011-04-29T07:12:20.0000000+00:00</time></trkpt><trkpt lat="21.419874" lon="105.296448"><ele>11.1</ele><time>2011-04-29T07:12:25.0000000+00:00</time></trkpt><trkpt lat="21.419874" lon="105.296448"><ele>11.2</ele><time>2011-04-29T07:12:30.0000000+00:00</time></trkpt><trkpt lat="21.419874" lon="105.296448"><ele>11.2</ele><time>2011-04-29T07:12:35.0000000+00:00</time></trkpt><trkpt lat="21.419874" lon="105.296448"><ele>11.3</ele><time>2011-04-29T07:12:40.0000000+00:00</time></trkpt><trkpt lat="21.419874" lon="105.296448"><ele>11.3</ele><time>2011-04-29T07:12:45.0000000+00:00</time></trkpt><trkpt lat="21.419874" lon="105.296448"><ele>11.4</ele><time>2011-04-29T07:12:50.0000000+00:00</time></trkpt><trkpt lat="21.419874" lon="105.296455"><ele>11.4</ele><time>2011-04-29T07:12:55.0000000+00:00</time></trkpt><trkpt lat="21.419874" lon="105.296455"><ele>11.5</ele><time>2011-04-29T07:13:00.0000000+00:00</time></trkpt><trkpt lat="21.419874" lon="105.296455"><ele>11.6</ele><time>2011-04-29T07:13:05.0000000+00:00</time></trkpt><trkpt lat="21.419874" lon="105.296455"><ele>11.7</ele><time>2011-04-29T07:13:10.0000000+00:00</time></trkpt><trkpt lat="21.419874" lon="105.296455"><ele>11.7</ele><time>2011-04-29T07:13:15.0000000+00:00</time></trkpt><trkpt lat="21.419874" lon="105.296455"><ele>11.8</ele><time>2011-04-29T07:13:20.0000000+00:00</time></trkpt><trkpt lat="21.419874" lon="105.296455"><ele>11.9</ele><time>2011-04-29T07:13:25.0000000+00:00</time></trkpt><trkpt lat="21.419874" lon="105.296455"><ele>12.0</ele><time>2011-04-29T07:13:30.0000000+00:00</time></trkpt><trkpt lat="21.419874" lon="105.296455"><ele>12.1</ele><time>2011-04-29T07:13:35.0000000+00:00</time></trkpt><trkpt lat="21.419874" lon="105.296455"><ele>12.1</ele><time>2011-04-29T07:13:40.0000000+00:00</time></trkpt><trkpt lat="21.419874" lon="105.296455"><ele>12.2</ele><time>2011-04-29T07:13:45.0000000+00:00</time></trkpt><trkpt lat="21.419872" lon="105.296455"><ele>12.3</ele><time>2011-04-29T07:13:50.0000000+00:00</time></trkpt><trkpt lat="21.419872" lon="105.296455"><ele>12.3</ele><time>2011-04-29T07:13:55.0000000+00:00</time></trkpt><trkpt lat="21.419872" lon="105.296455"><ele>12.4</ele><time>2011-04-29T07:14:00.0000000+00:00</time></trkpt><trkpt lat="21.419872" lon="105.296455"><ele>12.4</ele><time>2011-04-29T07:14:05.0000000+00:00</time></trkpt><trkpt lat="21.419872" lon="105.296455"><ele>12.4</ele><time>2011-04-29T07:14:10.0000000+00:00</time></trkpt><trkpt lat="21.419872" lon="105.296455"><ele>12.5</ele><time>2011-04-29T07:14:15.0000000+00:00</time></trkpt><trkpt lat="21.419872" lon="105.296455"><ele>12.5</ele><time>2011-04-29T07:14:20.0000000+00:00</time></trkpt><trkpt lat="21.41987" lon="105.296455"><ele>12.5</ele><time>2011-04-29T07:14:25.0000000+00:00</time></trkpt><trkpt lat="21.41987" lon="105.296455"><ele>12.5</ele><time>2011-04-29T07:14:30.0000000+00:00</time></trkpt><trkpt lat="21.41987" lon="105.296455"><ele>12.5</ele><time>2011-04-29T07:14:35.0000000+00:00</time></trkpt><trkpt lat="21.41987" lon="105.296455"><ele>12.5</ele><time>2011-04-29T07:14:40.0000000+00:00</time></trkpt><trkpt lat="21.41987" lon="105.296455"><ele>12.5</ele><time>2011-04-29T07:14:45.0000000+00:00</time></trkpt><trkpt lat="21.41987" lon="105.296455"><ele>12.5</ele><time>2011-04-29T07:14:50.0000000+00:00</time></trkpt><trkpt lat="21.419868" lon="105.296455"><ele>12.5</ele><time>2011-04-29T07:14:55.0000000+00:00</time></trkpt><trkpt lat="21.419868" lon="105.296455"><ele>12.5</ele><time>2011-04-29T07:15:00.0000000+00:00</time></trkpt><trkpt lat="21.419868" lon="105.296455"><ele>12.5</ele><time>2011-04-29T07:15:05.0000000+00:00</time></trkpt><trkpt lat="21.41987" lon="105.296455"><ele>12.6</ele><time>2011-04-29T07:15:10.0000000+00:00</time></trkpt><trkpt lat="21.419868" lon="105.296455"><ele>12.7</ele><time>2011-04-29T07:15:15.0000000+00:00</time></trkpt><trkpt lat="21.419868" lon="105.296455"><ele>12.7</ele><time>2011-04-29T07:15:20.0000000+00:00</time></trkpt><trkpt lat="21.419868" lon="105.296455"><ele>12.7</ele><time>2011-04-29T07:15:25.0000000+00:00</time></trkpt><trkpt lat="21.419868" lon="105.296455"><ele>12.8</ele><time>2011-04-29T07:15:30.0000000+00:00</time></trkpt><trkpt lat="21.41987" lon="105.296455"><ele>12.8</ele><time>2011-04-29T07:15:35.0000000+00:00</time></trkpt><trkpt lat="21.41987" lon="105.296455"><ele>12.8</ele><time>2011-04-29T07:15:40.0000000+00:00</time></trkpt><trkpt lat="21.41987" lon="105.296455"><ele>12.9</ele><time>2011-04-29T07:15:45.0000000+00:00</time></trkpt><trkpt lat="21.419868" lon="105.296455"><ele>13.0</ele><time>2011-04-29T07:15:50.0000000+00:00</time></trkpt><trkpt lat="21.419868" lon="105.296463"><ele>13.0</ele><time>2011-04-29T07:15:55.0000000+00:00</time></trkpt><trkpt lat="21.419868" lon="105.296463"><ele>13.1</ele><time>2011-04-29T07:16:00.0000000+00:00</time></trkpt><trkpt lat="21.419868" lon="105.296463"><ele>13.1</ele><time>2011-04-29T07:16:05.0000000+00:00</time></trkpt><trkpt lat="21.419868" lon="105.296463"><ele>13.2</ele><time>2011-04-29T07:16:10.0000000+00:00</time></trkpt><trkpt lat="21.419867" lon="105.296463"><ele>13.2</ele><time>2011-04-29T07:16:15.0000000+00:00</time></trkpt><trkpt lat="21.419867" lon="105.296463"><ele>13.2</ele><time>2011-04-29T07:16:20.0000000+00:00</time></trkpt><trkpt lat="21.419867" lon="105.296463"><ele>13.3</ele><time>2011-04-29T07:16:25.0000000+00:00</time></trkpt><trkpt lat="21.419867" lon="105.296463"><ele>13.3</ele><time>2011-04-29T07:16:30.0000000+00:00</time></trkpt><trkpt lat="21.419865" lon="105.296463"><ele>13.4</ele><time>2011-04-29T07:16:35.0000000+00:00</time></trkpt><trkpt lat="21.419865" lon="105.296463"><ele>13.4</ele><time>2011-04-29T07:16:40.0000000+00:00</time></trkpt><trkpt lat="21.419865" lon="105.296463"><ele>13.5</ele><time>2011-04-29T07:16:45.0000000+00:00</time></trkpt><trkpt lat="21.419865" lon="105.296463"><ele>13.5</ele><time>2011-04-29T07:16:50.0000000+00:00</time></trkpt><trkpt lat="21.419865" lon="105.296463"><ele>13.5</ele><time>2011-04-29T07:16:55.0000000+00:00</time></trkpt><trkpt lat="21.419863" lon="105.296463"><ele>13.5</ele><time>2011-04-29T07:17:00.0000000+00:00</time></trkpt><trkpt lat="21.419859" lon="105.296471"><ele>13.6</ele><time>2011-04-29T07:17:05.0000000+00:00</time></trkpt><trkpt lat="21.419853" lon="105.296478"><ele>13.7</ele><time>2011-04-29T07:17:10.0000000+00:00</time></trkpt><trkpt lat="21.419846" lon="105.296486"><ele>13.9</ele><time>2011-04-29T07:17:15.0000000+00:00</time></trkpt><trkpt lat="21.419836" lon="105.296486"><ele>14.1</ele><time>2011-04-29T07:17:20.0000000+00:00</time></trkpt><trkpt lat="21.419827" lon="105.296494"><ele>14.4</ele><time>2011-04-29T07:17:25.0000000+00:00</time></trkpt><trkpt lat="21.419819" lon="105.296501"><ele>14.7</ele><time>2011-04-29T07:17:30.0000000+00:00</time></trkpt><trkpt lat="21.419815" lon="105.296509"><ele>15.1</ele><time>2011-04-29T07:17:35.0000000+00:00</time></trkpt><trkpt lat="21.419813" lon="105.296509"><ele>15.5</ele><time>2011-04-29T07:17:40.0000000+00:00</time></trkpt><trkpt lat="21.419811" lon="105.296516"><ele>15.9</ele><time>2011-04-29T07:17:45.0000000+00:00</time></trkpt><trkpt lat="21.419811" lon="105.296524"><ele>16.4</ele><time>2011-04-29T07:17:50.0000000+00:00</time></trkpt><trkpt lat="21.419811" lon="105.296524"><ele>16.9</ele><time>2011-04-29T07:17:55.0000000+00:00</time></trkpt><trkpt lat="21.419811" lon="105.296532"><ele>17.5</ele><time>2011-04-29T07:18:00.0000000+00:00</time></trkpt><trkpt lat="21.419811" lon="105.296539"><ele>18.2</ele><time>2011-04-29T07:18:05.0000000+00:00</time></trkpt><trkpt lat="21.419813" lon="105.296539"><ele>18.9</ele><time>2011-04-29T07:18:10.0000000+00:00</time></trkpt><trkpt lat="21.419815" lon="105.296539"><ele>19.8</ele><time>2011-04-29T07:18:15.0000000+00:00</time></trkpt><trkpt lat="21.419817" lon="105.296547"><ele>20.9</ele><time>2011-04-29T07:18:20.0000000+00:00</time></trkpt><trkpt lat="21.419823" lon="105.296547"><ele>22.2</ele><time>2011-04-29T07:18:25.0000000+00:00</time></trkpt><trkpt lat="21.419828" lon="105.296547"><ele>23.6</ele><time>2011-04-29T07:18:30.0000000+00:00</time></trkpt><trkpt lat="21.419838" lon="105.296547"><ele>25.1</ele><time>2011-04-29T07:18:35.0000000+00:00</time></trkpt><trkpt lat="21.419844" lon="105.296555"><ele>26.7</ele><time>2011-04-29T07:18:40.0000000+00:00</time></trkpt><trkpt lat="21.419851" lon="105.296555"><ele>28.3</ele><time>2011-04-29T07:18:45.0000000+00:00</time></trkpt><trkpt lat="21.419857" lon="105.296555"><ele>30.0</ele><time>2011-04-29T07:18:50.0000000+00:00</time></trkpt><trkpt lat="21.419863" lon="105.296555"><ele>31.6</ele><time>2011-04-29T07:18:55.0000000+00:00</time></trkpt><trkpt lat="21.419867" lon="105.296555"><ele>33.2</ele><time>2011-04-29T07:19:00.0000000+00:00</time></trkpt><trkpt lat="21.419868" lon="105.296547"><ele>34.8</ele><time>2011-04-29T07:19:05.0000000+00:00</time></trkpt><trkpt lat="21.419872" lon="105.296547"><ele>36.3</ele><time>2011-04-29T07:19:10.0000000+00:00</time></trkpt><trkpt lat="21.419874" lon="105.296547"><ele>37.9</ele><time>2011-04-29T07:19:15.0000000+00:00</time></trkpt><trkpt lat="21.419876" lon="105.296547"><ele>39.6</ele><time>2011-04-29T07:19:20.0000000+00:00</time></trkpt><trkpt lat="21.419876" lon="105.296547"><ele>41.3</ele><time>2011-04-29T07:19:25.0000000+00:00</time></trkpt><trkpt lat="21.419874" lon="105.296547"><ele>43.0</ele><time>2011-04-29T07:19:30.0000000+00:00</time></trkpt><trkpt lat="21.419874" lon="105.296547"><ele>44.7</ele><time>2011-04-29T07:19:35.0000000+00:00</time></trkpt><trkpt lat="21.419872" lon="105.296547"><ele>46.3</ele><time>2011-04-29T07:19:40.0000000+00:00</time></trkpt><trkpt lat="21.41987" lon="105.296547"><ele>48.0</ele><time>2011-04-29T07:19:45.0000000+00:00</time></trkpt><trkpt lat="21.41987" lon="105.296547"><ele>48.2</ele><time>2011-04-29T07:19:50.0000000+00:00</time></trkpt><trkpt lat="21.41987" lon="105.296547"><ele>48.2</ele><time>2011-04-29T07:19:55.0000000+00:00</time></trkpt><trkpt lat="21.41987" lon="105.296555"><ele>48.2</ele><time>2011-04-29T07:20:00.0000000+00:00</time></trkpt><trkpt lat="21.41987" lon="105.296555"><ele>48.2</ele><time>2011-04-29T07:20:05.0000000+00:00</time></trkpt><trkpt lat="21.41987" lon="105.296555"><ele>48.2</ele><time>2011-04-29T07:20:10.0000000+00:00</time></trkpt><trkpt lat="21.419872" lon="105.296555"><ele>48.2</ele><time>2011-04-29T07:20:15.0000000+00:00</time></trkpt><trkpt lat="21.41987" lon="105.296555"><ele>48.2</ele><time>2011-04-29T07:20:20.0000000+00:00</time></trkpt><trkpt lat="21.41987" lon="105.296555"><ele>48.1</ele><time>2011-04-29T07:20:25.0000000+00:00</time></trkpt><trkpt lat="21.41987" lon="105.296555"><ele>48.1</ele><time>2011-04-29T07:20:30.0000000+00:00</time></trkpt><trkpt lat="21.41987" lon="105.296555"><ele>48.1</ele><time>2011-04-29T07:20:35.0000000+00:00</time></trkpt><trkpt lat="21.41987" lon="105.296555"><ele>48.1</ele><time>2011-04-29T07:20:40.0000000+00:00</time></trkpt><trkpt lat="21.41987" lon="105.296555"><ele>48.1</ele><time>2011-04-29T07:20:45.0000000+00:00</time></trkpt><trkpt lat="21.419868" lon="105.296547"><ele>48.1</ele><time>2011-04-29T07:20:50.0000000+00:00</time></trkpt><trkpt lat="21.419868" lon="105.296547"><ele>48.1</ele><time>2011-04-29T07:20:55.0000000+00:00</time></trkpt><trkpt lat="21.419868" lon="105.296547"><ele>48.0</ele><time>2011-04-29T07:21:00.0000000+00:00</time></trkpt><trkpt lat="21.419868" lon="105.296547"><ele>48.0</ele><time>2011-04-29T07:21:05.0000000+00:00</time></trkpt><trkpt lat="21.419867" lon="105.296547"><ele>48.0</ele><time>2011-04-29T07:21:10.0000000+00:00</time></trkpt><trkpt lat="21.419867" lon="105.296547"><ele>48.0</ele><time>2011-04-29T07:21:15.0000000+00:00</time></trkpt><trkpt lat="21.419867" lon="105.296547"><ele>48.0</ele><time>2011-04-29T07:21:20.0000000+00:00</time></trkpt><trkpt lat="21.419867" lon="105.296547"><ele>48.0</ele><time>2011-04-29T07:21:25.0000000+00:00</time></trkpt><trkpt lat="21.419867" lon="105.296547"><ele>48.0</ele><time>2011-04-29T07:21:30.0000000+00:00</time></trkpt><trkpt lat="21.419867" lon="105.296547"><ele>48.0</ele><time>2011-04-29T07:21:35.0000000+00:00</time></trkpt><trkpt lat="21.419867" lon="105.296547"><ele>48.0</ele><time>2011-04-29T07:21:40.0000000+00:00</time></trkpt><trkpt lat="21.419867" lon="105.296547"><ele>48.0</ele><time>2011-04-29T07:21:45.0000000+00:00</time></trkpt><trkpt lat="21.419868" lon="105.296547"><ele>48.0</ele><time>2011-04-29T07:21:50.0000000+00:00</time></trkpt><trkpt lat="21.419868" lon="105.296547"><ele>48.0</ele><time>2011-04-29T07:21:55.0000000+00:00</time></trkpt><trkpt lat="21.419868" lon="105.296547"><ele>47.9</ele><time>2011-04-29T07:22:00.0000000+00:00</time></trkpt><trkpt lat="21.419868" lon="105.296547"><ele>47.9</ele><time>2011-04-29T07:22:05.0000000+00:00</time></trkpt><trkpt lat="21.419868" lon="105.296547"><ele>47.9</ele><time>2011-04-29T07:22:10.0000000+00:00</time></trkpt><trkpt lat="21.419868" lon="105.296547"><ele>47.9</ele><time>2011-04-29T07:22:15.0000000+00:00</time></trkpt><trkpt lat="21.419868" lon="105.296547"><ele>47.9</ele><time>2011-04-29T07:22:20.0000000+00:00</time></trkpt><trkpt lat="21.419868" lon="105.296547"><ele>47.9</ele><time>2011-04-29T07:22:25.0000000+00:00</time></trkpt><trkpt lat="21.419868" lon="105.296547"><ele>47.9</ele><time>2011-04-29T07:22:30.0000000+00:00</time></trkpt><trkpt lat="21.419868" lon="105.296547"><ele>47.8</ele><time>2011-04-29T07:22:35.0000000+00:00</time></trkpt><trkpt lat="21.419868" lon="105.296547"><ele>47.8</ele><time>2011-04-29T07:22:40.0000000+00:00</time></trkpt><trkpt lat="21.419868" lon="105.296547"><ele>47.9</ele><time>2011-04-29T07:22:45.0000000+00:00</time></trkpt><trkpt lat="21.419868" lon="105.296547"><ele>47.9</ele><time>2011-04-29T07:22:50.0000000+00:00</time></trkpt><trkpt lat="21.419868" lon="105.296547"><ele>47.9</ele><time>2011-04-29T07:22:55.0000000+00:00</time></trkpt><trkpt lat="21.419868" lon="105.296547"><ele>47.9</ele><time>2011-04-29T07:23:00.0000000+00:00</time></trkpt><trkpt lat="21.419868" lon="105.296547"><ele>47.9</ele><time>2011-04-29T07:23:05.0000000+00:00</time></trkpt><trkpt lat="21.419868" lon="105.296547"><ele>47.9</ele><time>2011-04-29T07:23:10.0000000+00:00</time></trkpt><trkpt lat="21.419868" lon="105.296547"><ele>47.9</ele><time>2011-04-29T07:23:15.0000000+00:00</time></trkpt><trkpt lat="21.419868" lon="105.296547"><ele>47.9</ele><time>2011-04-29T07:23:20.0000000+00:00</time></trkpt><trkpt lat="21.419868" lon="105.296547"><ele>47.9</ele><time>2011-04-29T07:23:25.0000000+00:00</time></trkpt><trkpt lat="21.419868" lon="105.296547"><ele>47.9</ele><time>2011-04-29T07:23:30.0000000+00:00</time></trkpt><trkpt lat="21.419868" lon="105.296547"><ele>47.9</ele><time>2011-04-29T07:23:35.0000000+00:00</time></trkpt><trkpt lat="21.419868" lon="105.296547"><ele>47.9</ele><time>2011-04-29T07:23:40.0000000+00:00</time></trkpt><trkpt lat="21.419868" lon="105.296547"><ele>47.9</ele><time>2011-04-29T07:23:45.0000000+00:00</time></trkpt><trkpt lat="21.419868" lon="105.296547"><ele>48.0</ele><time>2011-04-29T07:23:50.0000000+00:00</time></trkpt><trkpt lat="21.41987" lon="105.296547"><ele>48.0</ele><time>2011-04-29T07:23:55.0000000+00:00</time></trkpt><trkpt lat="21.41987" lon="105.296547"><ele>48.0</ele><time>2011-04-29T07:24:00.0000000+00:00</time></trkpt><trkpt lat="21.41987" lon="105.296555"><ele>48.0</ele><time>2011-04-29T07:24:05.0000000+00:00</time></trkpt><trkpt lat="21.41987" lon="105.296555"><ele>48.0</ele><time>2011-04-29T07:24:10.0000000+00:00</time></trkpt><trkpt lat="21.41987" lon="105.296555"><ele>48.0</ele><time>2011-04-29T07:24:15.0000000+00:00</time></trkpt><trkpt lat="21.419872" lon="105.296555"><ele>48.0</ele><time>2011-04-29T07:24:20.0000000+00:00</time></trkpt><trkpt lat="21.419872" lon="105.296555"><ele>48.0</ele><time>2011-04-29T07:24:25.0000000+00:00</time></trkpt><trkpt lat="21.419872" lon="105.296555"><ele>47.9</ele><time>2011-04-29T07:24:30.0000000+00:00</time></trkpt><trkpt lat="21.419872" lon="105.296555"><ele>47.9</ele><time>2011-04-29T07:24:35.0000000+00:00</time></trkpt><trkpt lat="21.419876" lon="105.296562"><ele>47.9</ele><time>2011-04-29T07:24:40.0000000+00:00</time></trkpt><trkpt lat="21.419811" lon="105.296654"><ele>46.4</ele><time>2011-04-29T07:24:45.0000000+00:00</time></trkpt><trkpt lat="21.419653" lon="105.296898"><ele>44.6</ele><time>2011-04-29T07:24:50.0000000+00:00</time></trkpt><trkpt lat="21.419336" lon="105.297211"><ele>41.1</ele><time>2011-04-29T07:24:55.0000000+00:00</time></trkpt><trkpt lat="21.418922" lon="105.297485"><ele>39.2</ele><time>2011-04-29T07:25:00.0000000+00:00</time></trkpt><trkpt lat="21.41847" lon="105.297661"><ele>38.0</ele><time>2011-04-29T07:25:05.0000000+00:00</time></trkpt><trkpt lat="21.418053" lon="105.297844"><ele>37.3</ele><time>2011-04-29T07:25:10.0000000+00:00</time></trkpt><trkpt lat="21.417732" lon="105.298088"><ele>36.4</ele><time>2011-04-29T07:25:15.0000000+00:00</time></trkpt><trkpt lat="21.417456" lon="105.298347"><ele>35.9</ele><time>2011-04-29T07:25:20.0000000+00:00</time></trkpt><trkpt lat="21.417168" lon="105.298607"><ele>33.9</ele><time>2011-04-29T07:25:25.0000000+00:00</time></trkpt><trkpt lat="21.416838" lon="105.298889"><ele>33.3</ele><time>2011-04-29T07:25:30.0000000+00:00</time></trkpt><trkpt lat="21.416458" lon="105.299248"><ele>32.6</ele><time>2011-04-29T07:25:35.0000000+00:00</time></trkpt><trkpt lat="21.416113" lon="105.299568"><ele>32.2</ele><time>2011-04-29T07:25:40.0000000+00:00</time></trkpt><trkpt lat="21.41584" lon="105.299828"><ele>32.4</ele><time>2011-04-29T07:25:45.0000000+00:00</time></trkpt><trkpt lat="21.415537" lon="105.300064"><ele>31.5</ele><time>2011-04-29T07:25:50.0000000+00:00</time></trkpt><trkpt lat="21.415247" lon="105.300385"><ele>33.8</ele><time>2011-04-29T07:25:55.0000000+00:00</time></trkpt><trkpt lat="21.415045" lon="105.300819"><ele>34.5</ele><time>2011-04-29T07:26:00.0000000+00:00</time></trkpt><trkpt lat="21.414965" lon="105.301315"><ele>36.2</ele><time>2011-04-29T07:26:05.0000000+00:00</time></trkpt><trkpt lat="21.414913" lon="105.301834"><ele>36.5</ele><time>2011-04-29T07:26:10.0000000+00:00</time></trkpt><trkpt lat="21.414879" lon="105.302269"><ele>39.8</ele><time>2011-04-29T07:26:15.0000000+00:00</time></trkpt><trkpt lat="21.414736" lon="105.302689"><ele>40.6</ele><time>2011-04-29T07:26:20.0000000+00:00</time></trkpt><trkpt lat="21.414413" lon="105.303047"><ele>42.4</ele><time>2011-04-29T07:26:25.0000000+00:00</time></trkpt><trkpt lat="21.414001" lon="105.303352"><ele>40.5</ele><time>2011-04-29T07:26:30.0000000+00:00</time></trkpt><trkpt lat="21.41358" lon="105.303627"><ele>41.4</ele><time>2011-04-29T07:26:35.0000000+00:00</time></trkpt><trkpt lat="21.413122" lon="105.303833"><ele>41.3</ele><time>2011-04-29T07:26:40.0000000+00:00</time></trkpt><trkpt lat="21.412642" lon="105.304085"><ele>41.0</ele><time>2011-04-29T07:26:45.0000000+00:00</time></trkpt><trkpt lat="21.41217" lon="105.304306"><ele>41.1</ele><time>2011-04-29T07:26:50.0000000+00:00</time></trkpt><trkpt lat="21.411695" lon="105.30452"><ele>43.3</ele><time>2011-04-29T07:26:55.0000000+00:00</time></trkpt><trkpt lat="21.41128" lon="105.304688"><ele>45.2</ele><time>2011-04-29T07:27:00.0000000+00:00</time></trkpt><trkpt lat="21.410919" lon="105.304863"><ele>44.9</ele><time>2011-04-29T07:27:05.0000000+00:00</time></trkpt><trkpt lat="21.410576" lon="105.305031"><ele>47.1</ele><time>2011-04-29T07:27:10.0000000+00:00</time></trkpt><trkpt lat="21.410254" lon="105.305153"><ele>49.8</ele><time>2011-04-29T07:27:15.0000000+00:00</time></trkpt><trkpt lat="21.409817" lon="105.305267"><ele>50.0</ele><time>2011-04-29T07:27:20.0000000+00:00</time></trkpt><trkpt lat="21.409313" lon="105.305305"><ele>50.2</ele><time>2011-04-29T07:27:25.0000000+00:00</time></trkpt><trkpt lat="21.40884" lon="105.305382"><ele>49.7</ele><time>2011-04-29T07:27:30.0000000+00:00</time></trkpt><trkpt lat="21.40852" lon="105.305557"><ele>48.0</ele><time>2011-04-29T07:27:35.0000000+00:00</time></trkpt><trkpt lat="21.408419" lon="105.305855"><ele>43.2</ele><time>2011-04-29T07:27:40.0000000+00:00</time></trkpt><trkpt lat="21.408442" lon="105.306343"><ele>39.6</ele><time>2011-04-29T07:27:45.0000000+00:00</time></trkpt><trkpt lat="21.408625" lon="105.306831"><ele>35.3</ele><time>2011-04-29T07:27:50.0000000+00:00</time></trkpt><trkpt lat="21.409014" lon="105.307213"><ele>32.8</ele><time>2011-04-29T07:27:55.0000000+00:00</time></trkpt><trkpt lat="21.409353" lon="105.30761"><ele>31.2</ele><time>2011-04-29T07:28:00.0000000+00:00</time></trkpt><trkpt lat="21.409433" lon="105.308098"><ele>31.1</ele><time>2011-04-29T07:28:05.0000000+00:00</time></trkpt><trkpt lat="21.409281" lon="105.308662"><ele>29.8</ele><time>2011-04-29T07:28:10.0000000+00:00</time></trkpt><trkpt lat="21.409111" lon="105.309242"><ele>29.6</ele><time>2011-04-29T07:28:15.0000000+00:00</time></trkpt><trkpt lat="21.408953" lon="105.309799"><ele>26.9</ele><time>2011-04-29T07:28:20.0000000+00:00</time></trkpt><trkpt lat="21.408842" lon="105.310341"><ele>27.3</ele><time>2011-04-29T07:28:25.0000000+00:00</time></trkpt><trkpt lat="21.408731" lon="105.310867"><ele>25.6</ele><time>2011-04-29T07:28:30.0000000+00:00</time></trkpt><trkpt lat="21.40863" lon="105.311378"><ele>23.2</ele><time>2011-04-29T07:28:35.0000000+00:00</time></trkpt><trkpt lat="21.408524" lon="105.311905"><ele>23.0</ele><time>2011-04-29T07:28:40.0000000+00:00</time></trkpt><trkpt lat="21.408287" lon="105.31234"><ele>23.7</ele><time>2011-04-29T07:28:45.0000000+00:00</time></trkpt><trkpt lat="21.407885" lon="105.312592"><ele>23.4</ele><time>2011-04-29T07:28:50.0000000+00:00</time></trkpt><trkpt lat="21.40748" lon="105.312798"><ele>25.1</ele><time>2011-04-29T07:28:55.0000000+00:00</time></trkpt><trkpt lat="21.407108" lon="105.31292"><ele>24.5</ele><time>2011-04-29T07:29:00.0000000+00:00</time></trkpt><trkpt lat="21.406767" lon="105.313042"><ele>24.7</ele><time>2011-04-29T07:29:05.0000000+00:00</time></trkpt><trkpt lat="21.406332" lon="105.313004"><ele>25.7</ele><time>2011-04-29T07:29:10.0000000+00:00</time></trkpt><trkpt lat="21.405834" lon="105.312943"><ele>25.2</ele><time>2011-04-29T07:29:15.0000000+00:00</time></trkpt><trkpt lat="21.405443" lon="105.313019"><ele>24.8</ele><time>2011-04-29T07:29:20.0000000+00:00</time></trkpt><trkpt lat="21.40518" lon="105.313324"><ele>25.4</ele><time>2011-04-29T07:29:25.0000000+00:00</time></trkpt><trkpt lat="21.404924" lon="105.31366"><ele>26.2</ele><time>2011-04-29T07:29:30.0000000+00:00</time></trkpt><trkpt lat="21.404636" lon="105.314056"><ele>28.1</ele><time>2011-04-29T07:29:35.0000000+00:00</time></trkpt><trkpt lat="21.40435" lon="105.314453"><ele>29.2</ele><time>2011-04-29T07:29:40.0000000+00:00</time></trkpt><trkpt lat="21.404018" lon="105.314919"><ele>28.5</ele><time>2011-04-29T07:29:45.0000000+00:00</time></trkpt><trkpt lat="21.403795" lon="105.315468"><ele>27.6</ele><time>2011-04-29T07:29:50.0000000+00:00</time></trkpt><trkpt lat="21.40374" lon="105.316032"><ele>24.6</ele><time>2011-04-29T07:29:55.0000000+00:00</time></trkpt><trkpt lat="21.403702" lon="105.316597"><ele>24.3</ele><time>2011-04-29T07:30:00.0000000+00:00</time></trkpt><trkpt lat="21.403667" lon="105.317139"><ele>24.2</ele><time>2011-04-29T07:30:05.0000000+00:00</time></trkpt><trkpt lat="21.403635" lon="105.317635"><ele>29.7</ele><time>2011-04-29T07:30:10.0000000+00:00</time></trkpt><trkpt lat="21.40345" lon="105.318054"><ele>31.0</ele><time>2011-04-29T07:30:15.0000000+00:00</time></trkpt><trkpt lat="21.40307" lon="105.318382"><ele>27.3</ele><time>2011-04-29T07:30:20.0000000+00:00</time></trkpt><trkpt lat="21.402639" lon="105.318718"><ele>24.7</ele><time>2011-04-29T07:30:25.0000000+00:00</time></trkpt><trkpt lat="21.402214" lon="105.319038"><ele>23.7</ele><time>2011-04-29T07:30:30.0000000+00:00</time></trkpt><trkpt lat="21.401913" lon="105.31945"><ele>21.4</ele><time>2011-04-29T07:30:35.0000000+00:00</time></trkpt><trkpt lat="21.401619" lon="105.319977"><ele>17.6</ele><time>2011-04-29T07:30:40.0000000+00:00</time></trkpt><trkpt lat="21.401283" lon="105.320419"><ele>14.5</ele><time>2011-04-29T07:30:45.0000000+00:00</time></trkpt><trkpt lat="21.400837" lon="105.320732"><ele>13.2</ele><time>2011-04-29T07:30:50.0000000+00:00</time></trkpt><trkpt lat="21.400288" lon="105.320976"><ele>14.1</ele><time>2011-04-29T07:30:55.0000000+00:00</time></trkpt><trkpt lat="21.399679" lon="105.321114"><ele>15.1</ele><time>2011-04-29T07:31:00.0000000+00:00</time></trkpt><trkpt lat="21.399191" lon="105.32122"><ele>16.6</ele><time>2011-04-29T07:31:05.0000000+00:00</time></trkpt><trkpt lat="21.398819" lon="105.321404"><ele>17.7</ele><time>2011-04-29T07:31:10.0000000+00:00</time></trkpt><trkpt lat="21.398548" lon="105.321732"><ele>16.6</ele><time>2011-04-29T07:31:15.0000000+00:00</time></trkpt><trkpt lat="21.398365" lon="105.322235"><ele>21.8</ele><time>2011-04-29T07:31:20.0000000+00:00</time></trkpt><trkpt lat="21.398211" lon="105.322792"><ele>27.2</ele><time>2011-04-29T07:31:25.0000000+00:00</time></trkpt><trkpt lat="21.398062" lon="105.323341"><ele>30.3</ele><time>2011-04-29T07:31:30.0000000+00:00</time></trkpt><trkpt lat="21.397835" lon="105.323891"><ele>31.2</ele><time>2011-04-29T07:31:35.0000000+00:00</time></trkpt><trkpt lat="21.39753" lon="105.324486"><ele>31.5</ele><time>2011-04-29T07:31:40.0000000+00:00</time></trkpt><trkpt lat="21.397232" lon="105.32502"><ele>32.0</ele><time>2011-04-29T07:31:45.0000000+00:00</time></trkpt><trkpt lat="21.396914" lon="105.325439"><ele>31.9</ele><time>2011-04-29T07:31:50.0000000+00:00</time></trkpt><trkpt lat="21.396366" lon="105.325745"><ele>28.9</ele><time>2011-04-29T07:31:55.0000000+00:00</time></trkpt><trkpt lat="21.395716" lon="105.325951"><ele>29.6</ele><time>2011-04-29T07:32:00.0000000+00:00</time></trkpt><trkpt lat="21.395069" lon="105.326126"><ele>25.8</ele><time>2011-04-29T07:32:05.0000000+00:00</time></trkpt><trkpt lat="21.394426" lon="105.326363"><ele>24.8</ele><time>2011-04-29T07:32:10.0000000+00:00</time></trkpt><trkpt lat="21.39378" lon="105.326553"><ele>23.9</ele><time>2011-04-29T07:32:15.0000000+00:00</time></trkpt><trkpt lat="21.393137" lon="105.326683"><ele>23.7</ele><time>2011-04-29T07:32:20.0000000+00:00</time></trkpt><trkpt lat="21.392519" lon="105.326797"><ele>25.2</ele><time>2011-04-29T07:32:25.0000000+00:00</time></trkpt><trkpt lat="21.391987" lon="105.327011"><ele>25.7</ele><time>2011-04-29T07:32:30.0000000+00:00</time></trkpt><trkpt lat="21.391539" lon="105.327339"><ele>23.3</ele><time>2011-04-29T07:32:35.0000000+00:00</time></trkpt><trkpt lat="21.39105" lon="105.327705"><ele>21.4</ele><time>2011-04-29T07:32:40.0000000+00:00</time></trkpt><trkpt lat="21.39057" lon="105.328102"><ele>16.9</ele><time>2011-04-29T07:32:45.0000000+00:00</time></trkpt><trkpt lat="21.390121" lon="105.328438"><ele>12.9</ele><time>2011-04-29T07:32:50.0000000+00:00</time></trkpt><trkpt lat="21.389709" lon="105.328773"><ele>11.9</ele><time>2011-04-29T07:32:55.0000000+00:00</time></trkpt><trkpt lat="21.38924" lon="105.329147"><ele>14.0</ele><time>2011-04-29T07:33:00.0000000+00:00</time></trkpt><trkpt lat="21.388702" lon="105.329552"><ele>15.2</ele><time>2011-04-29T07:33:05.0000000+00:00</time></trkpt><trkpt lat="21.38821" lon="105.329964"><ele>17.3</ele><time>2011-04-29T07:33:10.0000000+00:00</time></trkpt><trkpt lat="21.387983" lon="105.330498"><ele>18.8</ele><time>2011-04-29T07:33:15.0000000+00:00</time></trkpt><trkpt lat="21.38785" lon="105.331032"><ele>20.1</ele><time>2011-04-29T07:33:20.0000000+00:00</time></trkpt><trkpt lat="21.387699" lon="105.331535"><ele>19.6</ele><time>2011-04-29T07:33:25.0000000+00:00</time></trkpt><trkpt lat="21.387411" lon="105.331993"><ele>20.9</ele><time>2011-04-29T07:33:30.0000000+00:00</time></trkpt><trkpt lat="21.38693" lon="105.332253"><ele>22.4</ele><time>2011-04-29T07:33:35.0000000+00:00</time></trkpt><trkpt lat="21.386366" lon="105.332283"><ele>21.2</ele><time>2011-04-29T07:33:40.0000000+00:00</time></trkpt><trkpt lat="21.38574" lon="105.332146"><ele>21.4</ele><time>2011-04-29T07:33:45.0000000+00:00</time></trkpt><trkpt lat="21.38509" lon="105.331993"><ele>20.3</ele><time>2011-04-29T07:33:50.0000000+00:00</time></trkpt><trkpt lat="21.384491" lon="105.332169"><ele>20.6</ele><time>2011-04-29T07:33:55.0000000+00:00</time></trkpt><trkpt lat="21.3839" lon="105.332527"><ele>19.0</ele><time>2011-04-29T07:34:00.0000000+00:00</time></trkpt><trkpt lat="21.383286" lon="105.332901"><ele>18.4</ele><time>2011-04-29T07:34:05.0000000+00:00</time></trkpt><trkpt lat="21.382746" lon="105.333191"><ele>21.3</ele><time>2011-04-29T07:34:10.0000000+00:00</time></trkpt><trkpt lat="21.382284" lon="105.333382"><ele>23.4</ele><time>2011-04-29T07:34:15.0000000+00:00</time></trkpt><trkpt lat="21.381809" lon="105.333496"><ele>23.3</ele><time>2011-04-29T07:34:20.0000000+00:00</time></trkpt><trkpt lat="21.381277" lon="105.333656"><ele>19.7</ele><time>2011-04-29T07:34:25.0000000+00:00</time></trkpt><trkpt lat="21.380791" lon="105.333984"><ele>17.6</ele><time>2011-04-29T07:34:30.0000000+00:00</time></trkpt><trkpt lat="21.380302" lon="105.334328"><ele>17.4</ele><time>2011-04-29T07:34:35.0000000+00:00</time></trkpt><trkpt lat="21.379803" lon="105.334633"><ele>17.0</ele><time>2011-04-29T07:34:40.0000000+00:00</time></trkpt><trkpt lat="21.379229" lon="105.334831"><ele>17.4</ele><time>2011-04-29T07:34:45.0000000+00:00</time></trkpt><trkpt lat="21.378689" lon="105.334946"><ele>19.6</ele><time>2011-04-29T07:34:50.0000000+00:00</time></trkpt><trkpt lat="21.378168" lon="105.334984"><ele>26.4</ele><time>2011-04-29T07:34:55.0000000+00:00</time></trkpt><trkpt lat="21.37772" lon="105.334976"><ele>32.9</ele><time>2011-04-29T07:35:00.0000000+00:00</time></trkpt><trkpt lat="21.377291" lon="105.335052"><ele>32.2</ele><time>2011-04-29T07:35:05.0000000+00:00</time></trkpt><trkpt lat="21.376911" lon="105.335312"><ele>30.7</ele><time>2011-04-29T07:35:10.0000000+00:00</time></trkpt><trkpt lat="21.376532" lon="105.335716"><ele>26.1</ele><time>2011-04-29T07:35:15.0000000+00:00</time></trkpt><trkpt lat="21.376102" lon="105.336205"><ele>24.1</ele><time>2011-04-29T07:35:20.0000000+00:00</time></trkpt><trkpt lat="21.375666" lon="105.336708"><ele>21.7</ele><time>2011-04-29T07:35:25.0000000+00:00</time></trkpt><trkpt lat="21.375364" lon="105.337311"><ele>20.0</ele><time>2011-04-29T07:35:30.0000000+00:00</time></trkpt><trkpt lat="21.375158" lon="105.338058"><ele>17.7</ele><time>2011-04-29T07:35:35.0000000+00:00</time></trkpt><trkpt lat="21.374924" lon="105.338684"><ele>15.0</ele><time>2011-04-29T07:35:40.0000000+00:00</time></trkpt><trkpt lat="21.374626" lon="105.339104"><ele>12.8</ele><time>2011-04-29T07:35:45.0000000+00:00</time></trkpt><trkpt lat="21.374266" lon="105.339447"><ele>12.8</ele><time>2011-04-29T07:35:50.0000000+00:00</time></trkpt><trkpt lat="21.373905" lon="105.339714"><ele>13.8</ele><time>2011-04-29T07:35:55.0000000+00:00</time></trkpt><trkpt lat="21.373549" lon="105.339981"><ele>14.6</ele><time>2011-04-29T07:36:00.0000000+00:00</time></trkpt><trkpt lat="21.373211" lon="105.340233"><ele>15.8</ele><time>2011-04-29T07:36:05.0000000+00:00</time></trkpt><trkpt lat="21.372822" lon="105.340508"><ele>17.7</ele><time>2011-04-29T07:36:10.0000000+00:00</time></trkpt><trkpt lat="21.37241" lon="105.340805"><ele>19.4</ele><time>2011-04-29T07:36:15.0000000+00:00</time></trkpt><trkpt lat="21.372007" lon="105.34111"><ele>21.7</ele><time>2011-04-29T07:36:20.0000000+00:00</time></trkpt><trkpt lat="21.371567" lon="105.341438"><ele>23.9</ele><time>2011-04-29T07:36:25.0000000+00:00</time></trkpt><trkpt lat="21.371094" lon="105.34182"><ele>25.8</ele><time>2011-04-29T07:36:30.0000000+00:00</time></trkpt><trkpt lat="21.370539" lon="105.342247"><ele>27.5</ele><time>2011-04-29T07:36:35.0000000+00:00</time></trkpt><trkpt lat="21.369974" lon="105.342667"><ele>30.5</ele><time>2011-04-29T07:36:40.0000000+00:00</time></trkpt><trkpt lat="21.369432" lon="105.343079"><ele>31.5</ele><time>2011-04-29T07:36:45.0000000+00:00</time></trkpt><trkpt lat="21.368834" lon="105.343536"><ele>31.5</ele><time>2011-04-29T07:36:50.0000000+00:00</time></trkpt><trkpt lat="21.368265" lon="105.343956"><ele>30.7</ele><time>2011-04-29T07:36:55.0000000+00:00</time></trkpt><trkpt lat="21.367928" lon="105.344482"><ele>30.9</ele><time>2011-04-29T07:37:00.0000000+00:00</time></trkpt><trkpt lat="21.367744" lon="105.345062"><ele>29.9</ele><time>2011-04-29T07:37:05.0000000+00:00</time></trkpt><trkpt lat="21.367554" lon="105.345566"><ele>31.0</ele><time>2011-04-29T07:37:10.0000000+00:00</time></trkpt><trkpt lat="21.367258" lon="105.345985"><ele>31.7</ele><time>2011-04-29T07:37:15.0000000+00:00</time></trkpt><trkpt lat="21.366817" lon="105.346336"><ele>31.0</ele><time>2011-04-29T07:37:20.0000000+00:00</time></trkpt><trkpt lat="21.366365" lon="105.34668"><ele>31.5</ele><time>2011-04-29T07:37:25.0000000+00:00</time></trkpt><trkpt lat="21.365913" lon="105.34697"><ele>30.7</ele><time>2011-04-29T07:37:30.0000000+00:00</time></trkpt><trkpt lat="21.365501" lon="105.347229"><ele>30.1</ele><time>2011-04-29T07:37:35.0000000+00:00</time></trkpt><trkpt lat="21.365074" lon="105.347473"><ele>27.9</ele><time>2011-04-29T07:37:40.0000000+00:00</time></trkpt><trkpt lat="21.364613" lon="105.347778"><ele>29.1</ele><time>2011-04-29T07:37:45.0000000+00:00</time></trkpt><trkpt lat="21.364134" lon="105.348083"><ele>31.1</ele><time>2011-04-29T07:37:50.0000000+00:00</time></trkpt><trkpt lat="21.363691" lon="105.348404"><ele>31.3</ele><time>2011-04-29T07:37:55.0000000+00:00</time></trkpt><trkpt lat="21.363239" lon="105.348701"><ele>30.7</ele><time>2011-04-29T07:38:00.0000000+00:00</time></trkpt><trkpt lat="21.362801" lon="105.348984"><ele>30.6</ele><time>2011-04-29T07:38:05.0000000+00:00</time></trkpt><trkpt lat="21.362358" lon="105.349258"><ele>30.9</ele><time>2011-04-29T07:38:10.0000000+00:00</time></trkpt><trkpt lat="21.361929" lon="105.349541"><ele>30.0</ele><time>2011-04-29T07:38:15.0000000+00:00</time></trkpt><trkpt lat="21.361485" lon="105.349815"><ele>29.4</ele><time>2011-04-29T07:38:20.0000000+00:00</time></trkpt><trkpt lat="21.361023" lon="105.350113"><ele>29.1</ele><time>2011-04-29T07:38:25.0000000+00:00</time></trkpt><trkpt lat="21.360542" lon="105.35041"><ele>29.2</ele><time>2011-04-29T07:38:30.0000000+00:00</time></trkpt><trkpt lat="21.360092" lon="105.3507"><ele>29.4</ele><time>2011-04-29T07:38:35.0000000+00:00</time></trkpt><trkpt lat="21.359623" lon="105.350983"><ele>30.8</ele><time>2011-04-29T07:38:40.0000000+00:00</time></trkpt><trkpt lat="21.359148" lon="105.351295"><ele>33.9</ele><time>2011-04-29T07:38:45.0000000+00:00</time></trkpt><trkpt lat="21.358704" lon="105.351585"><ele>37.1</ele><time>2011-04-29T07:38:50.0000000+00:00</time></trkpt><trkpt lat="21.358286" lon="105.351837"><ele>37.5</ele><time>2011-04-29T07:38:55.0000000+00:00</time></trkpt><trkpt lat="21.357872" lon="105.352104"><ele>39.9</ele><time>2011-04-29T07:39:00.0000000+00:00</time></trkpt><trkpt lat="21.357443" lon="105.352386"><ele>39.6</ele><time>2011-04-29T07:39:05.0000000+00:00</time></trkpt><trkpt lat="21.357004" lon="105.352692"><ele>40.1</ele><time>2011-04-29T07:39:10.0000000+00:00</time></trkpt><trkpt lat="21.356588" lon="105.352966"><ele>38.0</ele><time>2011-04-29T07:39:15.0000000+00:00</time></trkpt><trkpt lat="21.356178" lon="105.353218"><ele>37.2</ele><time>2011-04-29T07:39:20.0000000+00:00</time></trkpt><trkpt lat="21.355759" lon="105.353516"><ele>33.3</ele><time>2011-04-29T07:39:25.0000000+00:00</time></trkpt><trkpt lat="21.355413" lon="105.353859"><ele>29.9</ele><time>2011-04-29T07:39:30.0000000+00:00</time></trkpt><trkpt lat="21.355143" lon="105.354271"><ele>28.2</ele><time>2011-04-29T07:39:35.0000000+00:00</time></trkpt><trkpt lat="21.354902" lon="105.354736"><ele>28.3</ele><time>2011-04-29T07:39:40.0000000+00:00</time></trkpt><trkpt lat="21.354639" lon="105.355232"><ele>27.1</ele><time>2011-04-29T07:39:45.0000000+00:00</time></trkpt><trkpt lat="21.354412" lon="105.355713"><ele>25.0</ele><time>2011-04-29T07:39:50.0000000+00:00</time></trkpt><trkpt lat="21.354132" lon="105.356155"><ele>24.2</ele><time>2011-04-29T07:39:55.0000000+00:00</time></trkpt><trkpt lat="21.353718" lon="105.356438"><ele>23.0</ele><time>2011-04-29T07:40:00.0000000+00:00</time></trkpt><trkpt lat="21.353201" lon="105.356606"><ele>22.1</ele><time>2011-04-29T07:40:05.0000000+00:00</time></trkpt><trkpt lat="21.352657" lon="105.356758"><ele>21.8</ele><time>2011-04-29T07:40:10.0000000+00:00</time></trkpt><trkpt lat="21.352133" lon="105.356926"><ele>22.9</ele><time>2011-04-29T07:40:15.0000000+00:00</time></trkpt><trkpt lat="21.35162" lon="105.357086"><ele>22.9</ele><time>2011-04-29T07:40:20.0000000+00:00</time></trkpt><trkpt lat="21.351114" lon="105.357246"><ele>21.0</ele><time>2011-04-29T07:40:25.0000000+00:00</time></trkpt><trkpt lat="21.350588" lon="105.35743"><ele>21.4</ele><time>2011-04-29T07:40:30.0000000+00:00</time></trkpt><trkpt lat="21.350052" lon="105.357605"><ele>22.7</ele><time>2011-04-29T07:40:35.0000000+00:00</time></trkpt><trkpt lat="21.349514" lon="105.35778"><ele>23.4</ele><time>2011-04-29T07:40:40.0000000+00:00</time></trkpt><trkpt lat="21.348982" lon="105.357971"><ele>23.0</ele><time>2011-04-29T07:40:45.0000000+00:00</time></trkpt><trkpt lat="21.348473" lon="105.3582"><ele>22.8</ele><time>2011-04-29T07:40:50.0000000+00:00</time></trkpt><trkpt lat="21.348045" lon="105.358536"><ele>20.4</ele><time>2011-04-29T07:40:55.0000000+00:00</time></trkpt><trkpt lat="21.347673" lon="105.358879"><ele>16.6</ele><time>2011-04-29T07:41:00.0000000+00:00</time></trkpt><trkpt lat="21.347305" lon="105.35923"><ele>13.9</ele><time>2011-04-29T07:41:05.0000000+00:00</time></trkpt><trkpt lat="21.346933" lon="105.359489"><ele>14.0</ele><time>2011-04-29T07:41:10.0000000+00:00</time></trkpt><trkpt lat="21.346483" lon="105.359688"><ele>13.1</ele><time>2011-04-29T07:41:15.0000000+00:00</time></trkpt><trkpt lat="21.345963" lon="105.359894"><ele>14.0</ele><time>2011-04-29T07:41:20.0000000+00:00</time></trkpt><trkpt lat="21.345453" lon="105.360092"><ele>15.2</ele><time>2011-04-29T07:41:25.0000000+00:00</time></trkpt><trkpt lat="21.344955" lon="105.360245"><ele>15.1</ele><time>2011-04-29T07:41:30.0000000+00:00</time></trkpt><trkpt lat="21.344429" lon="105.360367"><ele>16.5</ele><time>2011-04-29T07:41:35.0000000+00:00</time></trkpt><trkpt lat="21.343931" lon="105.360474"><ele>14.4</ele><time>2011-04-29T07:41:40.0000000+00:00</time></trkpt><trkpt lat="21.343416" lon="105.360603"><ele>15.0</ele><time>2011-04-29T07:41:45.0000000+00:00</time></trkpt><trkpt lat="21.342987" lon="105.360893"><ele>17.0</ele><time>2011-04-29T07:41:50.0000000+00:00</time></trkpt><trkpt lat="21.342739" lon="105.361275"><ele>18.7</ele><time>2011-04-29T07:41:55.0000000+00:00</time></trkpt><trkpt lat="21.34256" lon="105.361694"><ele>19.4</ele><time>2011-04-29T07:42:00.0000000+00:00</time></trkpt><trkpt lat="21.342354" lon="105.362167"><ele>18.4</ele><time>2011-04-29T07:42:05.0000000+00:00</time></trkpt><trkpt lat="21.342154" lon="105.362625"><ele>19.2</ele><time>2011-04-29T07:42:10.0000000+00:00</time></trkpt><trkpt lat="21.341919" lon="105.363045"><ele>18.0</ele><time>2011-04-29T07:42:15.0000000+00:00</time></trkpt><trkpt lat="21.341593" lon="105.363464"><ele>17.3</ele><time>2011-04-29T07:42:20.0000000+00:00</time></trkpt><trkpt lat="21.341269" lon="105.363869"><ele>15.6</ele><time>2011-04-29T07:42:25.0000000+00:00</time></trkpt><trkpt lat="21.34094" lon="105.364273"><ele>13.9</ele><time>2011-04-29T07:42:30.0000000+00:00</time></trkpt><trkpt lat="21.340599" lon="105.364662"><ele>13.9</ele><time>2011-04-29T07:42:35.0000000+00:00</time></trkpt><trkpt lat="21.340252" lon="105.365097"><ele>13.5</ele><time>2011-04-29T07:42:40.0000000+00:00</time></trkpt><trkpt lat="21.339903" lon="105.365524"><ele>12.2</ele><time>2011-04-29T07:42:45.0000000+00:00</time></trkpt><trkpt lat="21.339548" lon="105.365952"><ele>11.6</ele><time>2011-04-29T07:42:50.0000000+00:00</time></trkpt><trkpt lat="21.339201" lon="105.366348"><ele>11.8</ele><time>2011-04-29T07:42:55.0000000+00:00</time></trkpt><trkpt lat="21.338879" lon="105.366745"><ele>11.9</ele><time>2011-04-29T07:43:00.0000000+00:00</time></trkpt><trkpt lat="21.338547" lon="105.367134"><ele>12.0</ele><time>2011-04-29T07:43:05.0000000+00:00</time></trkpt><trkpt lat="21.338234" lon="105.367561"><ele>11.3</ele><time>2011-04-29T07:43:10.0000000+00:00</time></trkpt><trkpt lat="21.337959" lon="105.368019"><ele>9.9</ele><time>2011-04-29T07:43:15.0000000+00:00</time></trkpt><trkpt lat="21.337776" lon="105.368492"><ele>10.8</ele><time>2011-04-29T07:43:20.0000000+00:00</time></trkpt><trkpt lat="21.337637" lon="105.368988"><ele>11.4</ele><time>2011-04-29T07:43:25.0000000+00:00</time></trkpt><trkpt lat="21.337509" lon="105.369499"><ele>11.8</ele><time>2011-04-29T07:43:30.0000000+00:00</time></trkpt><trkpt lat="21.33742" lon="105.369965"><ele>11.1</ele><time>2011-04-29T07:43:35.0000000+00:00</time></trkpt><trkpt lat="21.337324" lon="105.370361"><ele>11.2</ele><time>2011-04-29T07:43:40.0000000+00:00</time></trkpt><trkpt lat="21.337233" lon="105.370644"><ele>11.3</ele><time>2011-04-29T07:43:45.0000000+00:00</time></trkpt><trkpt lat="21.337091" lon="105.370995"><ele>12.0</ele><time>2011-04-29T07:43:50.0000000+00:00</time></trkpt><trkpt lat="21.336887" lon="105.371391"><ele>12.7</ele><time>2011-04-29T07:43:55.0000000+00:00</time></trkpt><trkpt lat="21.336605" lon="105.371773"><ele>13.7</ele><time>2011-04-29T07:44:00.0000000+00:00</time></trkpt><trkpt lat="21.336304" lon="105.372238"><ele>16.4</ele><time>2011-04-29T07:44:05.0000000+00:00</time></trkpt><trkpt lat="21.33596" lon="105.372704"><ele>16.3</ele><time>2011-04-29T07:44:10.0000000+00:00</time></trkpt><trkpt lat="21.335617" lon="105.37307"><ele>16.8</ele><time>2011-04-29T07:44:15.0000000+00:00</time></trkpt><trkpt lat="21.335196" lon="105.373444"><ele>17.7</ele><time>2011-04-29T07:44:20.0000000+00:00</time></trkpt><trkpt lat="21.33474" lon="105.373795"><ele>16.8</ele><time>2011-04-29T07:44:25.0000000+00:00</time></trkpt><trkpt lat="21.334322" lon="105.3741"><ele>16.2</ele><time>2011-04-29T07:44:30.0000000+00:00</time></trkpt><trkpt lat="21.3339" lon="105.374397"><ele>16.0</ele><time>2011-04-29T07:44:35.0000000+00:00</time></trkpt><trkpt lat="21.333435" lon="105.374687"><ele>16.6</ele><time>2011-04-29T07:44:40.0000000+00:00</time></trkpt><trkpt lat="21.333063" lon="105.374947"><ele>15.8</ele><time>2011-04-29T07:44:45.0000000+00:00</time></trkpt><trkpt lat="21.332865" lon="105.375092"><ele>15.1</ele><time>2011-04-29T07:44:50.0000000+00:00</time></trkpt><trkpt lat="21.332821" lon="105.375137"><ele>14.1</ele><time>2011-04-29T07:44:55.0000000+00:00</time></trkpt><trkpt lat="21.332825" lon="105.375153"><ele>14.6</ele><time>2011-04-29T07:45:00.0000000+00:00</time></trkpt><trkpt lat="21.332773" lon="105.375183"><ele>14.9</ele><time>2011-04-29T07:45:05.0000000+00:00</time></trkpt><trkpt lat="21.332592" lon="105.375282"><ele>13.7</ele><time>2011-04-29T07:45:10.0000000+00:00</time></trkpt><trkpt lat="21.332344" lon="105.375427"><ele>11.5</ele><time>2011-04-29T07:45:15.0000000+00:00</time></trkpt><trkpt lat="21.332018" lon="105.375656"><ele>10.1</ele><time>2011-04-29T07:45:20.0000000+00:00</time></trkpt><trkpt lat="21.331713" lon="105.375885"><ele>9.3</ele><time>2011-04-29T07:45:25.0000000+00:00</time></trkpt><trkpt lat="21.331381" lon="105.376167"><ele>9.4</ele><time>2011-04-29T07:45:30.0000000+00:00</time></trkpt><trkpt lat="21.33103" lon="105.376511"><ele>7.5</ele><time>2011-04-29T07:45:35.0000000+00:00</time></trkpt><trkpt lat="21.33066" lon="105.376877"><ele>6.4</ele><time>2011-04-29T07:45:40.0000000+00:00</time></trkpt><trkpt lat="21.33029" lon="105.377243"><ele>4.9</ele><time>2011-04-29T07:45:45.0000000+00:00</time></trkpt><trkpt lat="21.329937" lon="105.377586"><ele>5.0</ele><time>2011-04-29T07:45:50.0000000+00:00</time></trkpt><trkpt lat="21.329618" lon="105.377899"><ele>5.2</ele><time>2011-04-29T07:45:55.0000000+00:00</time></trkpt><trkpt lat="21.329294" lon="105.378212"><ele>4.4</ele><time>2011-04-29T07:46:00.0000000+00:00</time></trkpt><trkpt lat="21.328979" lon="105.378494"><ele>4.7</ele><time>2011-04-29T07:46:05.0000000+00:00</time></trkpt><trkpt lat="21.328682" lon="105.378784"><ele>4.9</ele><time>2011-04-29T07:46:10.0000000+00:00</time></trkpt><trkpt lat="21.328419" lon="105.379044"><ele>5.1</ele><time>2011-04-29T07:46:15.0000000+00:00</time></trkpt><trkpt lat="21.328215" lon="105.379265"><ele>3.4</ele><time>2011-04-29T07:46:20.0000000+00:00</time></trkpt><trkpt lat="21.328018" lon="105.379463"><ele>6.6</ele><time>2011-04-29T07:46:25.0000000+00:00</time></trkpt><trkpt lat="21.327799" lon="105.379692"><ele>6.7</ele><time>2011-04-29T07:46:30.0000000+00:00</time></trkpt><trkpt lat="21.327555" lon="105.379906"><ele>7.3</ele><time>2011-04-29T07:46:35.0000000+00:00</time></trkpt><trkpt lat="21.327272" lon="105.38018"><ele>7.1</ele><time>2011-04-29T07:46:40.0000000+00:00</time></trkpt><trkpt lat="21.326971" lon="105.38047"><ele>7.5</ele><time>2011-04-29T07:46:45.0000000+00:00</time></trkpt><trkpt lat="21.326651" lon="105.380798"><ele>7.5</ele><time>2011-04-29T07:46:50.0000000+00:00</time></trkpt><trkpt lat="21.326342" lon="105.381081"><ele>7.2</ele><time>2011-04-29T07:46:55.0000000+00:00</time></trkpt><trkpt lat="21.326021" lon="105.381378"><ele>6.8</ele><time>2011-04-29T07:47:00.0000000+00:00</time></trkpt><trkpt lat="21.32571" lon="105.381699"><ele>5.6</ele><time>2011-04-29T07:47:05.0000000+00:00</time></trkpt><trkpt lat="21.325399" lon="105.381958"><ele>5.4</ele><time>2011-04-29T07:47:10.0000000+00:00</time></trkpt><trkpt lat="21.325193" lon="105.382164"><ele>5.6</ele><time>2011-04-29T07:47:15.0000000+00:00</time></trkpt><trkpt lat="21.325077" lon="105.382278"><ele>9.2</ele><time>2011-04-29T07:47:20.0000000+00:00</time></trkpt><trkpt lat="21.325006" lon="105.382347"><ele>13.7</ele><time>2011-04-29T07:47:25.0000000+00:00</time></trkpt><trkpt lat="21.325003" lon="105.382324"><ele>9.2</ele><time>2011-04-29T07:47:30.0000000+00:00</time></trkpt><trkpt lat="21.325006" lon="105.382332"><ele>10.1</ele><time>2011-04-29T07:47:35.0000000+00:00</time></trkpt><trkpt lat="21.325029" lon="105.382332"><ele>7.8</ele><time>2011-04-29T07:47:40.0000000+00:00</time></trkpt><trkpt lat="21.325037" lon="105.382347"><ele>8.3</ele><time>2011-04-29T07:47:45.0000000+00:00</time></trkpt><trkpt lat="21.324965" lon="105.382393"><ele>10.2</ele><time>2011-04-29T07:47:50.0000000+00:00</time></trkpt><trkpt lat="21.324835" lon="105.38253"><ele>9.4</ele><time>2011-04-29T07:47:55.0000000+00:00</time></trkpt><trkpt lat="21.324694" lon="105.382706"><ele>7.7</ele><time>2011-04-29T07:48:00.0000000+00:00</time></trkpt><trkpt lat="21.324524" lon="105.382828"><ele>8.8</ele><time>2011-04-29T07:48:05.0000000+00:00</time></trkpt><trkpt lat="21.324343" lon="105.383011"><ele>17.7</ele><time>2011-04-29T07:48:10.0000000+00:00</time></trkpt><trkpt lat="21.324125" lon="105.383202"><ele>22.3</ele><time>2011-04-29T07:48:15.0000000+00:00</time></trkpt><trkpt lat="21.323883" lon="105.383408"><ele>24.5</ele><time>2011-04-29T07:48:20.0000000+00:00</time></trkpt><trkpt lat="21.323606" lon="105.383659"><ele>27.3</ele><time>2011-04-29T07:48:25.0000000+00:00</time></trkpt><trkpt lat="21.323225" lon="105.383957"><ele>26.5</ele><time>2011-04-29T07:48:30.0000000+00:00</time></trkpt><trkpt lat="21.322847" lon="105.38427"><ele>25.6</ele><time>2011-04-29T07:48:35.0000000+00:00</time></trkpt><trkpt lat="21.322475" lon="105.384567"><ele>27.3</ele><time>2011-04-29T07:48:40.0000000+00:00</time></trkpt><trkpt lat="21.322138" lon="105.384827"><ele>24.2</ele><time>2011-04-29T07:48:45.0000000+00:00</time></trkpt><trkpt lat="21.321804" lon="105.385139"><ele>23.7</ele><time>2011-04-29T07:48:50.0000000+00:00</time></trkpt><trkpt lat="21.321424" lon="105.385452"><ele>21.8</ele><time>2011-04-29T07:48:55.0000000+00:00</time></trkpt><trkpt lat="21.321087" lon="105.38575"><ele>18.3</ele><time>2011-04-29T07:49:00.0000000+00:00</time></trkpt><trkpt lat="21.320709" lon="105.386078"><ele>15.9</ele><time>2011-04-29T07:49:05.0000000+00:00</time></trkpt><trkpt lat="21.320307" lon="105.386414"><ele>14.8</ele><time>2011-04-29T07:49:10.0000000+00:00</time></trkpt><trkpt lat="21.319939" lon="105.386734"><ele>14.7</ele><time>2011-04-29T07:49:15.0000000+00:00</time></trkpt><trkpt lat="21.31958" lon="105.387032"><ele>12.3</ele><time>2011-04-29T07:49:20.0000000+00:00</time></trkpt><trkpt lat="21.319216" lon="105.387352"><ele>9.7</ele><time>2011-04-29T07:49:25.0000000+00:00</time></trkpt><trkpt lat="21.318823" lon="105.387688"><ele>10.5</ele><time>2011-04-29T07:49:30.0000000+00:00</time></trkpt><trkpt lat="21.318409" lon="105.388023"><ele>10.2</ele><time>2011-04-29T07:49:35.0000000+00:00</time></trkpt><trkpt lat="21.318014" lon="105.388359"><ele>12.9</ele><time>2011-04-29T07:49:40.0000000+00:00</time></trkpt><trkpt lat="21.317617" lon="105.388695"><ele>15.3</ele><time>2011-04-29T07:49:45.0000000+00:00</time></trkpt><trkpt lat="21.317236" lon="105.389"><ele>15.0</ele><time>2011-04-29T07:49:50.0000000+00:00</time></trkpt><trkpt lat="21.316877" lon="105.389259"><ele>14.4</ele><time>2011-04-29T07:49:55.0000000+00:00</time></trkpt><trkpt lat="21.316555" lon="105.389542"><ele>12.1</ele><time>2011-04-29T07:50:00.0000000+00:00</time></trkpt><trkpt lat="21.316233" lon="105.389854"><ele>11.8</ele><time>2011-04-29T07:50:05.0000000+00:00</time></trkpt><trkpt lat="21.315907" lon="105.390228"><ele>8.6</ele><time>2011-04-29T07:50:10.0000000+00:00</time></trkpt><trkpt lat="21.315638" lon="105.390633"><ele>5.8</ele><time>2011-04-29T07:50:15.0000000+00:00</time></trkpt><trkpt lat="21.315392" lon="105.391045"><ele>4.2</ele><time>2011-04-29T07:50:20.0000000+00:00</time></trkpt><trkpt lat="21.315121" lon="105.391457"><ele>2.0</ele><time>2011-04-29T07:50:25.0000000+00:00</time></trkpt><trkpt lat="21.314886" lon="105.391914"><ele>2.5</ele><time>2011-04-29T07:50:30.0000000+00:00</time></trkpt><trkpt lat="21.314631" lon="105.392387"><ele>5.1</ele><time>2011-04-29T07:50:35.0000000+00:00</time></trkpt><trkpt lat="21.314377" lon="105.392883"><ele>6.7</ele><time>2011-04-29T07:50:40.0000000+00:00</time></trkpt><trkpt lat="21.31414" lon="105.393364"><ele>10.2</ele><time>2011-04-29T07:50:45.0000000+00:00</time></trkpt><trkpt lat="21.313932" lon="105.393791"><ele>11.5</ele><time>2011-04-29T07:50:50.0000000+00:00</time></trkpt><trkpt lat="21.31377" lon="105.394119"><ele>12.4</ele><time>2011-04-29T07:50:55.0000000+00:00</time></trkpt><trkpt lat="21.313684" lon="105.394295"><ele>12.9</ele><time>2011-04-29T07:51:00.0000000+00:00</time></trkpt><trkpt lat="21.313692" lon="105.394325"><ele>12.1</ele><time>2011-04-29T07:51:05.0000000+00:00</time></trkpt><trkpt lat="21.313694" lon="105.394333"><ele>12.1</ele><time>2011-04-29T07:51:10.0000000+00:00</time></trkpt><trkpt lat="21.313696" lon="105.394333"><ele>12.1</ele><time>2011-04-29T07:51:15.0000000+00:00</time></trkpt><trkpt lat="21.313698" lon="105.394333"><ele>12.1</ele><time>2011-04-29T07:51:20.0000000+00:00</time></trkpt><trkpt lat="21.313667" lon="105.394379"><ele>11.3</ele><time>2011-04-29T07:51:25.0000000+00:00</time></trkpt><trkpt lat="21.313562" lon="105.394547"><ele>12.1</ele><time>2011-04-29T07:51:30.0000000+00:00</time></trkpt><trkpt lat="21.313452" lon="105.394722"><ele>12.0</ele><time>2011-04-29T07:51:35.0000000+00:00</time></trkpt><trkpt lat="21.313341" lon="105.394974"><ele>12.2</ele><time>2011-04-29T07:51:40.0000000+00:00</time></trkpt><trkpt lat="21.313177" lon="105.395309"><ele>12.4</ele><time>2011-04-29T07:51:45.0000000+00:00</time></trkpt><trkpt lat="21.312992" lon="105.395691"><ele>10.1</ele><time>2011-04-29T07:51:50.0000000+00:00</time></trkpt><trkpt lat="21.312796" lon="105.396065"><ele>9.7</ele><time>2011-04-29T07:51:55.0000000+00:00</time></trkpt><trkpt lat="21.312595" lon="105.396477"><ele>9.0</ele><time>2011-04-29T07:52:00.0000000+00:00</time></trkpt><trkpt lat="21.312403" lon="105.396858"><ele>7.1</ele><time>2011-04-29T07:52:05.0000000+00:00</time></trkpt><trkpt lat="21.312183" lon="105.397316"><ele>6.1</ele><time>2011-04-29T07:52:10.0000000+00:00</time></trkpt><trkpt lat="21.311945" lon="105.397797"><ele>6.1</ele><time>2011-04-29T07:52:15.0000000+00:00</time></trkpt><trkpt lat="21.311735" lon="105.398224"><ele>5.0</ele><time>2011-04-29T07:52:20.0000000+00:00</time></trkpt><trkpt lat="21.311552" lon="105.398598"><ele>6.9</ele><time>2011-04-29T07:52:25.0000000+00:00</time></trkpt><trkpt lat="21.311378" lon="105.398949"><ele>6.2</ele><time>2011-04-29T07:52:30.0000000+00:00</time></trkpt><trkpt lat="21.311205" lon="105.39933"><ele>7.5</ele><time>2011-04-29T07:52:35.0000000+00:00</time></trkpt><trkpt lat="21.310993" lon="105.399734"><ele>8.8</ele><time>2011-04-29T07:52:40.0000000+00:00</time></trkpt><trkpt lat="21.310755" lon="105.400215"><ele>10.4</ele><time>2011-04-29T07:52:45.0000000+00:00</time></trkpt><trkpt lat="21.310471" lon="105.400612"><ele>12.0</ele><time>2011-04-29T07:52:50.0000000+00:00</time></trkpt><trkpt lat="21.310165" lon="105.401009"><ele>13.0</ele><time>2011-04-29T07:52:55.0000000+00:00</time></trkpt><trkpt lat="21.309889" lon="105.401413"><ele>14.1</ele><time>2011-04-29T07:53:00.0000000+00:00</time></trkpt><trkpt lat="21.309624" lon="105.401833"><ele>15.3</ele><time>2011-04-29T07:53:05.0000000+00:00</time></trkpt><trkpt lat="21.309345" lon="105.402267"><ele>17.9</ele><time>2011-04-29T07:53:10.0000000+00:00</time></trkpt><trkpt lat="21.309021" lon="105.40271"><ele>19.3</ele><time>2011-04-29T07:53:15.0000000+00:00</time></trkpt><trkpt lat="21.308666" lon="105.403145"><ele>20.4</ele><time>2011-04-29T07:53:20.0000000+00:00</time></trkpt><trkpt lat="21.308296" lon="105.403564"><ele>21.4</ele><time>2011-04-29T07:53:25.0000000+00:00</time></trkpt><trkpt lat="21.307961" lon="105.403954"><ele>22.5</ele><time>2011-04-29T07:53:30.0000000+00:00</time></trkpt><trkpt lat="21.307673" lon="105.404335"><ele>23.8</ele><time>2011-04-29T07:53:35.0000000+00:00</time></trkpt><trkpt lat="21.307459" lon="105.404686"><ele>24.6</ele><time>2011-04-29T07:53:40.0000000+00:00</time></trkpt><trkpt lat="21.307352" lon="105.404869"><ele>27.0</ele><time>2011-04-29T07:53:45.0000000+00:00</time></trkpt><trkpt lat="21.307335" lon="105.404915"><ele>26.4</ele><time>2011-04-29T07:53:50.0000000+00:00</time></trkpt><trkpt lat="21.307329" lon="105.40493"><ele>27.8</ele><time>2011-04-29T07:53:55.0000000+00:00</time></trkpt><trkpt lat="21.307327" lon="105.40493"><ele>28.7</ele><time>2011-04-29T07:54:00.0000000+00:00</time></trkpt><trkpt lat="21.307318" lon="105.40493"><ele>29.0</ele><time>2011-04-29T07:54:05.0000000+00:00</time></trkpt><trkpt lat="21.307251" lon="105.405052"><ele>28.7</ele><time>2011-04-29T07:54:10.0000000+00:00</time></trkpt><trkpt lat="21.307177" lon="105.405159"><ele>28.9</ele><time>2011-04-29T07:54:15.0000000+00:00</time></trkpt><trkpt lat="21.307089" lon="105.405365"><ele>27.9</ele><time>2011-04-29T07:54:20.0000000+00:00</time></trkpt><trkpt lat="21.306971" lon="105.40564"><ele>27.7</ele><time>2011-04-29T07:54:25.0000000+00:00</time></trkpt><trkpt lat="21.306828" lon="105.405937"><ele>27.9</ele><time>2011-04-29T07:54:30.0000000+00:00</time></trkpt><trkpt lat="21.306667" lon="105.40625"><ele>27.6</ele><time>2011-04-29T07:54:35.0000000+00:00</time></trkpt><trkpt lat="21.306562" lon="105.406441"><ele>23.9</ele><time>2011-04-29T07:54:40.0000000+00:00</time></trkpt><trkpt lat="21.306532" lon="105.406502"><ele>22.0</ele><time>2011-04-29T07:54:45.0000000+00:00</time></trkpt><trkpt lat="21.306511" lon="105.406555"><ele>22.3</ele><time>2011-04-29T07:54:50.0000000+00:00</time></trkpt><trkpt lat="21.306412" lon="105.406723"><ele>20.6</ele><time>2011-04-29T07:54:55.0000000+00:00</time></trkpt><trkpt lat="21.306274" lon="105.40699"><ele>19.6</ele><time>2011-04-29T07:55:00.0000000+00:00</time></trkpt><trkpt lat="21.306122" lon="105.407318"><ele>18.3</ele><time>2011-04-29T07:55:05.0000000+00:00</time></trkpt><trkpt lat="21.305969" lon="105.407692"><ele>15.0</ele><time>2011-04-29T07:55:10.0000000+00:00</time></trkpt><trkpt lat="21.305792" lon="105.408012"><ele>15.0</ele><time>2011-04-29T07:55:15.0000000+00:00</time></trkpt><trkpt lat="21.305607" lon="105.408417"><ele>14.9</ele><time>2011-04-29T07:55:20.0000000+00:00</time></trkpt><trkpt lat="21.30541" lon="105.408844"><ele>13.6</ele><time>2011-04-29T07:55:25.0000000+00:00</time></trkpt><trkpt lat="21.305243" lon="105.409294"><ele>12.4</ele><time>2011-04-29T07:55:30.0000000+00:00</time></trkpt><trkpt lat="21.305099" lon="105.40976"><ele>11.5</ele><time>2011-04-29T07:55:35.0000000+00:00</time></trkpt><trkpt lat="21.304962" lon="105.410217"><ele>9.3</ele><time>2011-04-29T07:55:40.0000000+00:00</time></trkpt><trkpt lat="21.304804" lon="105.410698"><ele>7.5</ele><time>2011-04-29T07:55:45.0000000+00:00</time></trkpt><trkpt lat="21.304634" lon="105.411179"><ele>6.7</ele><time>2011-04-29T07:55:50.0000000+00:00</time></trkpt><trkpt lat="21.30452" lon="105.411682"><ele>8.0</ele><time>2011-04-29T07:55:55.0000000+00:00</time></trkpt><trkpt lat="21.304436" lon="105.412186"><ele>7.5</ele><time>2011-04-29T07:56:00.0000000+00:00</time></trkpt><trkpt lat="21.304382" lon="105.412689"><ele>7.7</ele><time>2011-04-29T07:56:05.0000000+00:00</time></trkpt><trkpt lat="21.304348" lon="105.413147"><ele>8.6</ele><time>2011-04-29T07:56:10.0000000+00:00</time></trkpt><trkpt lat="21.304331" lon="105.413605"><ele>9.0</ele><time>2011-04-29T07:56:15.0000000+00:00</time></trkpt><trkpt lat="21.304337" lon="105.414078"><ele>8.8</ele><time>2011-04-29T07:56:20.0000000+00:00</time></trkpt><trkpt lat="21.304331" lon="105.414505"><ele>8.8</ele><time>2011-04-29T07:56:25.0000000+00:00</time></trkpt><trkpt lat="21.304344" lon="105.414772"><ele>9.0</ele><time>2011-04-29T07:56:30.0000000+00:00</time></trkpt><trkpt lat="21.304337" lon="105.414818"><ele>8.9</ele><time>2011-04-29T07:56:35.0000000+00:00</time></trkpt><trkpt lat="21.304331" lon="105.414825"><ele>8.4</ele><time>2011-04-29T07:56:40.0000000+00:00</time></trkpt><trkpt lat="21.304333" lon="105.414833"><ele>8.4</ele><time>2011-04-29T07:56:45.0000000+00:00</time></trkpt><trkpt lat="21.304327" lon="105.414841"><ele>8.4</ele><time>2011-04-29T07:56:50.0000000+00:00</time></trkpt><trkpt lat="21.304323" lon="105.414841"><ele>8.4</ele><time>2011-04-29T07:56:55.0000000+00:00</time></trkpt><trkpt lat="21.304331" lon="105.414848"><ele>8.4</ele><time>2011-04-29T07:57:00.0000000+00:00</time></trkpt><trkpt lat="21.304338" lon="105.414856"><ele>8.4</ele><time>2011-04-29T07:57:05.0000000+00:00</time></trkpt><trkpt lat="21.30435" lon="105.415031"><ele>7.6</ele><time>2011-04-29T07:57:10.0000000+00:00</time></trkpt><trkpt lat="21.30434" lon="105.415367"><ele>8.3</ele><time>2011-04-29T07:57:15.0000000+00:00</time></trkpt><trkpt lat="21.30434" lon="105.41581"><ele>8.9</ele><time>2011-04-29T07:57:20.0000000+00:00</time></trkpt><trkpt lat="21.30434" lon="105.416298"><ele>8.8</ele><time>2011-04-29T07:57:25.0000000+00:00</time></trkpt><trkpt lat="21.304342" lon="105.41684"><ele>9.3</ele><time>2011-04-29T07:57:30.0000000+00:00</time></trkpt><trkpt lat="21.304348" lon="105.417343"><ele>8.7</ele><time>2011-04-29T07:57:35.0000000+00:00</time></trkpt><trkpt lat="21.304317" lon="105.417839"><ele>7.7</ele><time>2011-04-29T07:57:40.0000000+00:00</time></trkpt><trkpt lat="21.304342" lon="105.418365"><ele>6.7</ele><time>2011-04-29T07:57:45.0000000+00:00</time></trkpt><trkpt lat="21.304335" lon="105.4189"><ele>7.3</ele><time>2011-04-29T07:57:50.0000000+00:00</time></trkpt><trkpt lat="21.304283" lon="105.419434"><ele>7.5</ele><time>2011-04-29T07:57:55.0000000+00:00</time></trkpt><trkpt lat="21.304264" lon="105.41996"><ele>7.2</ele><time>2011-04-29T07:58:00.0000000+00:00</time></trkpt><trkpt lat="21.304226" lon="105.420502"><ele>7.6</ele><time>2011-04-29T07:58:05.0000000+00:00</time></trkpt><trkpt lat="21.30422" lon="105.420929"><ele>7.5</ele><time>2011-04-29T07:58:10.0000000+00:00</time></trkpt><trkpt lat="21.304209" lon="105.421112"><ele>9.4</ele><time>2011-04-29T07:58:15.0000000+00:00</time></trkpt><trkpt lat="21.304203" lon="105.421188"><ele>7.3</ele><time>2011-04-29T07:58:20.0000000+00:00</time></trkpt><trkpt lat="21.304205" lon="105.421219"><ele>6.3</ele><time>2011-04-29T07:58:25.0000000+00:00</time></trkpt><trkpt lat="21.304201" lon="105.421234"><ele>5.5</ele><time>2011-04-29T07:58:30.0000000+00:00</time></trkpt><trkpt lat="21.304176" lon="105.421387"><ele>6.1</ele><time>2011-04-29T07:58:35.0000000+00:00</time></trkpt><trkpt lat="21.304155" lon="105.4216"><ele>5.2</ele><time>2011-04-29T07:58:40.0000000+00:00</time></trkpt><trkpt lat="21.304169" lon="105.421906"><ele>3.8</ele><time>2011-04-29T07:58:45.0000000+00:00</time></trkpt><trkpt lat="21.304157" lon="105.422325"><ele>6.1</ele><time>2011-04-29T07:58:50.0000000+00:00</time></trkpt><trkpt lat="21.304152" lon="105.42276"><ele>6.6</ele><time>2011-04-29T07:58:55.0000000+00:00</time></trkpt><trkpt lat="21.304169" lon="105.423225"><ele>7.2</ele><time>2011-04-29T07:59:00.0000000+00:00</time></trkpt><trkpt lat="21.304178" lon="105.423729"><ele>8.7</ele><time>2011-04-29T07:59:05.0000000+00:00</time></trkpt><trkpt lat="21.304134" lon="105.424187"><ele>9.3</ele><time>2011-04-29T07:59:10.0000000+00:00</time></trkpt><trkpt lat="21.304073" lon="105.42466"><ele>9.3</ele><time>2011-04-29T07:59:15.0000000+00:00</time></trkpt><trkpt lat="21.304005" lon="105.425171"><ele>7.6</ele><time>2011-04-29T07:59:20.0000000+00:00</time></trkpt><trkpt lat="21.303932" lon="105.425652"><ele>8.5</ele><time>2011-04-29T07:59:25.0000000+00:00</time></trkpt><trkpt lat="21.303879" lon="105.426132"><ele>7.8</ele><time>2011-04-29T07:59:30.0000000+00:00</time></trkpt><trkpt lat="21.303818" lon="105.426659"><ele>8.4</ele><time>2011-04-29T07:59:35.0000000+00:00</time></trkpt><trkpt lat="21.303734" lon="105.427162"><ele>10.5</ele><time>2011-04-29T07:59:40.0000000+00:00</time></trkpt><trkpt lat="21.303694" lon="105.427643"><ele>7.5</ele><time>2011-04-29T07:59:45.0000000+00:00</time></trkpt><trkpt lat="21.303749" lon="105.428116"><ele>11.4</ele><time>2011-04-29T07:59:50.0000000+00:00</time></trkpt><trkpt lat="21.303894" lon="105.428558"><ele>6.8</ele><time>2011-04-29T07:59:55.0000000+00:00</time></trkpt><trkpt lat="21.304152" lon="105.429001"><ele>6.0</ele><time>2011-04-29T08:00:00.0000000+00:00</time></trkpt><trkpt lat="21.304428" lon="105.429428"><ele>5.8</ele><time>2011-04-29T08:00:05.0000000+00:00</time></trkpt><trkpt lat="21.304735" lon="105.429848"><ele>5.5</ele><time>2011-04-29T08:00:10.0000000+00:00</time></trkpt><trkpt lat="21.305046" lon="105.430275"><ele>5.9</ele><time>2011-04-29T08:00:15.0000000+00:00</time></trkpt><trkpt lat="21.305292" lon="105.430717"><ele>6.5</ele><time>2011-04-29T08:00:20.0000000+00:00</time></trkpt><trkpt lat="21.305431" lon="105.431175"><ele>3.3</ele><time>2011-04-29T08:00:25.0000000+00:00</time></trkpt><trkpt lat="21.30549" lon="105.431671"><ele>2.0</ele><time>2011-04-29T08:00:30.0000000+00:00</time></trkpt><trkpt lat="21.305603" lon="105.432198"><ele>3.6</ele><time>2011-04-29T08:00:35.0000000+00:00</time></trkpt><trkpt lat="21.305687" lon="105.432808"><ele>3.7</ele><time>2011-04-29T08:00:40.0000000+00:00</time></trkpt><trkpt lat="21.305771" lon="105.433525"><ele>7.3</ele><time>2011-04-29T08:00:45.0000000+00:00</time></trkpt><trkpt lat="21.305731" lon="105.434303"><ele>9.5</ele><time>2011-04-29T08:00:50.0000000+00:00</time></trkpt><trkpt lat="21.305542" lon="105.435081"><ele>9.9</ele><time>2011-04-29T08:00:55.0000000+00:00</time></trkpt><trkpt lat="21.305368" lon="105.435837"><ele>9.5</ele><time>2011-04-29T08:01:00.0000000+00:00</time></trkpt><trkpt lat="21.305206" lon="105.436577"><ele>10.6</ele><time>2011-04-29T08:01:05.0000000+00:00</time></trkpt><trkpt lat="21.305042" lon="105.437271"><ele>11.5</ele><time>2011-04-29T08:01:10.0000000+00:00</time></trkpt><trkpt lat="21.304899" lon="105.437943"><ele>11.7</ele><time>2011-04-29T08:01:15.0000000+00:00</time></trkpt><trkpt lat="21.304737" lon="105.438629"><ele>11.9</ele><time>2011-04-29T08:01:20.0000000+00:00</time></trkpt><trkpt lat="21.304575" lon="105.439339"><ele>12.2</ele><time>2011-04-29T08:01:25.0000000+00:00</time></trkpt><trkpt lat="21.304399" lon="105.440079"><ele>12.7</ele><time>2011-04-29T08:01:30.0000000+00:00</time></trkpt><trkpt lat="21.304214" lon="105.440842"><ele>13.1</ele><time>2011-04-29T08:01:35.0000000+00:00</time></trkpt><trkpt lat="21.303963" lon="105.441574"><ele>12.9</ele><time>2011-04-29T08:01:40.0000000+00:00</time></trkpt><trkpt lat="21.303627" lon="105.442192"><ele>13.7</ele><time>2011-04-29T08:01:45.0000000+00:00</time></trkpt><trkpt lat="21.30324" lon="105.442711"><ele>14.8</ele><time>2011-04-29T08:01:50.0000000+00:00</time></trkpt><trkpt lat="21.302799" lon="105.4431"><ele>16.1</ele><time>2011-04-29T08:01:55.0000000+00:00</time></trkpt><trkpt lat="21.302343" lon="105.443344"><ele>16.6</ele><time>2011-04-29T08:02:00.0000000+00:00</time></trkpt><trkpt lat="21.301876" lon="105.443474"><ele>18.0</ele><time>2011-04-29T08:02:05.0000000+00:00</time></trkpt><trkpt lat="21.301426" lon="105.443565"><ele>19.3</ele><time>2011-04-29T08:02:10.0000000+00:00</time></trkpt><trkpt lat="21.300983" lon="105.443634"><ele>17.1</ele><time>2011-04-29T08:02:15.0000000+00:00</time></trkpt><trkpt lat="21.300528" lon="105.443748"><ele>20.9</ele><time>2011-04-29T08:02:20.0000000+00:00</time></trkpt><trkpt lat="21.300051" lon="105.443855"><ele>20.5</ele><time>2011-04-29T08:02:25.0000000+00:00</time></trkpt><trkpt lat="21.299593" lon="105.443954"><ele>20.4</ele><time>2011-04-29T08:02:30.0000000+00:00</time></trkpt><trkpt lat="21.299137" lon="105.444046"><ele>19.8</ele><time>2011-04-29T08:02:35.0000000+00:00</time></trkpt><trkpt lat="21.298719" lon="105.444122"><ele>20.7</ele><time>2011-04-29T08:02:40.0000000+00:00</time></trkpt><trkpt lat="21.298298" lon="105.444199"><ele>18.0</ele><time>2011-04-29T08:02:45.0000000+00:00</time></trkpt><trkpt lat="21.297928" lon="105.44426"><ele>16.4</ele><time>2011-04-29T08:02:50.0000000+00:00</time></trkpt><trkpt lat="21.297558" lon="105.444435"><ele>15.4</ele><time>2011-04-29T08:02:55.0000000+00:00</time></trkpt><trkpt lat="21.297487" lon="105.444862"><ele>15.7</ele><time>2011-04-29T08:03:00.0000000+00:00</time></trkpt><trkpt lat="21.297812" lon="105.445221"><ele>15.1</ele><time>2011-04-29T08:03:05.0000000+00:00</time></trkpt><trkpt lat="21.298233" lon="105.445091"><ele>12.2</ele><time>2011-04-29T08:03:10.0000000+00:00</time></trkpt><trkpt lat="21.298351" lon="105.444672"><ele>12.3</ele><time>2011-04-29T08:03:15.0000000+00:00</time></trkpt><trkpt lat="21.298216" lon="105.444244"><ele>12.6</ele><time>2011-04-29T08:03:20.0000000+00:00</time></trkpt><trkpt lat="21.298067" lon="105.443871"><ele>11.0</ele><time>2011-04-29T08:03:25.0000000+00:00</time></trkpt><trkpt lat="21.29775" lon="105.443672"><ele>8.9</ele><time>2011-04-29T08:03:30.0000000+00:00</time></trkpt><trkpt lat="21.297358" lon="105.443779"><ele>6.3</ele><time>2011-04-29T08:03:35.0000000+00:00</time></trkpt><trkpt lat="21.296976" lon="105.443924"><ele>4.7</ele><time>2011-04-29T08:03:40.0000000+00:00</time></trkpt><trkpt lat="21.296625" lon="105.444084"><ele>5.8</ele><time>2011-04-29T08:03:45.0000000+00:00</time></trkpt><trkpt lat="21.296251" lon="105.44426"><ele>7.2</ele><time>2011-04-29T08:03:50.0000000+00:00</time></trkpt><trkpt lat="21.295897" lon="105.444412"><ele>6.4</ele><time>2011-04-29T08:03:55.0000000+00:00</time></trkpt><trkpt lat="21.295553" lon="105.44455"><ele>6.3</ele><time>2011-04-29T08:04:00.0000000+00:00</time></trkpt><trkpt lat="21.295153" lon="105.444733"><ele>4.0</ele><time>2011-04-29T08:04:05.0000000+00:00</time></trkpt><trkpt lat="21.294712" lon="105.444946"><ele>2.9</ele><time>2011-04-29T08:04:10.0000000+00:00</time></trkpt><trkpt lat="21.294273" lon="105.445229"><ele>2.5</ele><time>2011-04-29T08:04:15.0000000+00:00</time></trkpt><trkpt lat="21.293833" lon="105.445572"><ele>2.0</ele><time>2011-04-29T08:04:20.0000000+00:00</time></trkpt><trkpt lat="21.293409" lon="105.445969"><ele>3.3</ele><time>2011-04-29T08:04:25.0000000+00:00</time></trkpt><trkpt lat="21.293026" lon="105.446472"><ele>5.6</ele><time>2011-04-29T08:04:30.0000000+00:00</time></trkpt><trkpt lat="21.29262" lon="105.447075"><ele>7.3</ele><time>2011-04-29T08:04:35.0000000+00:00</time></trkpt><trkpt lat="21.292261" lon="105.447807"><ele>5.7</ele><time>2011-04-29T08:04:40.0000000+00:00</time></trkpt><trkpt lat="21.291986" lon="105.448578"><ele>6.1</ele><time>2011-04-29T08:04:45.0000000+00:00</time></trkpt><trkpt lat="21.291822" lon="105.449326"><ele>4.9</ele><time>2011-04-29T08:04:50.0000000+00:00</time></trkpt><trkpt lat="21.291746" lon="105.450058"><ele>6.1</ele><time>2011-04-29T08:04:55.0000000+00:00</time></trkpt><trkpt lat="21.291656" lon="105.450821"><ele>6.0</ele><time>2011-04-29T08:05:00.0000000+00:00</time></trkpt><trkpt lat="21.291567" lon="105.451591"><ele>6.1</ele><time>2011-04-29T08:05:05.0000000+00:00</time></trkpt><trkpt lat="21.291401" lon="105.452278"><ele>8.7</ele><time>2011-04-29T08:05:10.0000000+00:00</time></trkpt><trkpt lat="21.291039" lon="105.452812"><ele>10.1</ele><time>2011-04-29T08:05:15.0000000+00:00</time></trkpt><trkpt lat="21.290634" lon="105.453094"><ele>9.2</ele><time>2011-04-29T08:05:20.0000000+00:00</time></trkpt><trkpt lat="21.290239" lon="105.453262"><ele>9.5</ele><time>2011-04-29T08:05:25.0000000+00:00</time></trkpt><trkpt lat="21.289883" lon="105.453308"><ele>8.8</ele><time>2011-04-29T08:05:30.0000000+00:00</time></trkpt><trkpt lat="21.289536" lon="105.453262"><ele>5.6</ele><time>2011-04-29T08:05:35.0000000+00:00</time></trkpt><trkpt lat="21.289194" lon="105.453209"><ele>4.7</ele><time>2011-04-29T08:05:40.0000000+00:00</time></trkpt><trkpt lat="21.288851" lon="105.453148"><ele>4.6</ele><time>2011-04-29T08:05:45.0000000+00:00</time></trkpt><trkpt lat="21.288475" lon="105.453072"><ele>3.9</ele><time>2011-04-29T08:05:50.0000000+00:00</time></trkpt><trkpt lat="21.288097" lon="105.452972"><ele>4.7</ele><time>2011-04-29T08:05:55.0000000+00:00</time></trkpt><trkpt lat="21.287678" lon="105.452866"><ele>5.3</ele><time>2011-04-29T08:06:00.0000000+00:00</time></trkpt><trkpt lat="21.287247" lon="105.452759"><ele>7.9</ele><time>2011-04-29T08:06:05.0000000+00:00</time></trkpt><trkpt lat="21.286821" lon="105.452652"><ele>8.8</ele><time>2011-04-29T08:06:10.0000000+00:00</time></trkpt><trkpt lat="21.286371" lon="105.452515"><ele>9.0</ele><time>2011-04-29T08:06:15.0000000+00:00</time></trkpt><trkpt lat="21.285927" lon="105.452385"><ele>11.4</ele><time>2011-04-29T08:06:20.0000000+00:00</time></trkpt><trkpt lat="21.285528" lon="105.452278"><ele>12.6</ele><time>2011-04-29T08:06:25.0000000+00:00</time></trkpt><trkpt lat="21.285143" lon="105.452255"><ele>13.4</ele><time>2011-04-29T08:06:30.0000000+00:00</time></trkpt><trkpt lat="21.284723" lon="105.452248"><ele>11.1</ele><time>2011-04-29T08:06:35.0000000+00:00</time></trkpt><trkpt lat="21.28433" lon="105.4524"><ele>7.2</ele><time>2011-04-29T08:06:40.0000000+00:00</time></trkpt><trkpt lat="21.28396" lon="105.452614"><ele>5.2</ele><time>2011-04-29T08:06:45.0000000+00:00</time></trkpt><trkpt lat="21.283665" lon="105.452789"><ele>2.7</ele><time>2011-04-29T08:06:50.0000000+00:00</time></trkpt><trkpt lat="21.2834" lon="105.452911"><ele>0.8</ele><time>2011-04-29T08:06:55.0000000+00:00</time></trkpt><trkpt lat="21.283115" lon="105.453033"><ele>0.6</ele><time>2011-04-29T08:07:00.0000000+00:00</time></trkpt><trkpt lat="21.282887" lon="105.453186"><ele>2.0</ele><time>2011-04-29T08:07:05.0000000+00:00</time></trkpt><trkpt lat="21.282705" lon="105.453354"><ele>2.8</ele><time>2011-04-29T08:07:10.0000000+00:00</time></trkpt><trkpt lat="21.282478" lon="105.453568"><ele>4.9</ele><time>2011-04-29T08:07:15.0000000+00:00</time></trkpt><trkpt lat="21.282133" lon="105.453773"><ele>4.2</ele><time>2011-04-29T08:07:20.0000000+00:00</time></trkpt><trkpt lat="21.281769" lon="105.453957"><ele>4.1</ele><time>2011-04-29T08:07:25.0000000+00:00</time></trkpt><trkpt lat="21.281403" lon="105.454117"><ele>5.1</ele><time>2011-04-29T08:07:30.0000000+00:00</time></trkpt><trkpt lat="21.28112" lon="105.454292"><ele>6.6</ele><time>2011-04-29T08:07:35.0000000+00:00</time></trkpt><trkpt lat="21.280846" lon="105.454475"><ele>6.8</ele><time>2011-04-29T08:07:40.0000000+00:00</time></trkpt><trkpt lat="21.280565" lon="105.454674"><ele>5.1</ele><time>2011-04-29T08:07:45.0000000+00:00</time></trkpt><trkpt lat="21.280239" lon="105.454865"><ele>1.9</ele><time>2011-04-29T08:07:50.0000000+00:00</time></trkpt><trkpt lat="21.279884" lon="105.455093"><ele>0.1</ele><time>2011-04-29T08:07:55.0000000+00:00</time></trkpt><trkpt lat="21.279499" lon="105.455368"><ele>-0.5</ele><time>2011-04-29T08:08:00.0000000+00:00</time></trkpt><trkpt lat="21.279078" lon="105.455688"><ele>-0.7</ele><time>2011-04-29T08:08:05.0000000+00:00</time></trkpt><trkpt lat="21.27869" lon="105.4561"><ele>-0.6</ele><time>2011-04-29T08:08:10.0000000+00:00</time></trkpt><trkpt lat="21.278532" lon="105.456657"><ele>-1.1</ele><time>2011-04-29T08:08:15.0000000+00:00</time></trkpt><trkpt lat="21.278488" lon="105.457245"><ele>-1.1</ele><time>2011-04-29T08:08:20.0000000+00:00</time></trkpt><trkpt lat="21.278456" lon="105.457886"><ele>5.1</ele><time>2011-04-29T08:08:25.0000000+00:00</time></trkpt><trkpt lat="21.278425" lon="105.45845"><ele>4.4</ele><time>2011-04-29T08:08:30.0000000+00:00</time></trkpt><trkpt lat="21.278397" lon="105.459007"><ele>2.5</ele><time>2011-04-29T08:08:35.0000000+00:00</time></trkpt><trkpt lat="21.278376" lon="105.459618"><ele>2.0</ele><time>2011-04-29T08:08:40.0000000+00:00</time></trkpt><trkpt lat="21.278309" lon="105.460251"><ele>3.0</ele><time>2011-04-29T08:08:45.0000000+00:00</time></trkpt><trkpt lat="21.278276" lon="105.460808"><ele>5.9</ele><time>2011-04-29T08:08:50.0000000+00:00</time></trkpt><trkpt lat="21.278246" lon="105.461319"><ele>5.6</ele><time>2011-04-29T08:08:55.0000000+00:00</time></trkpt><trkpt lat="21.278219" lon="105.461823"><ele>5.7</ele><time>2011-04-29T08:09:00.0000000+00:00</time></trkpt><trkpt lat="21.278202" lon="105.462357"><ele>4.7</ele><time>2011-04-29T08:09:05.0000000+00:00</time></trkpt><trkpt lat="21.278362" lon="105.46283"><ele>2.7</ele><time>2011-04-29T08:09:10.0000000+00:00</time></trkpt><trkpt lat="21.278654" lon="105.463219"><ele>3.5</ele><time>2011-04-29T08:09:15.0000000+00:00</time></trkpt><trkpt lat="21.278933" lon="105.463585"><ele>4.6</ele><time>2011-04-29T08:09:20.0000000+00:00</time></trkpt><trkpt lat="21.279125" lon="105.464005"><ele>7.5</ele><time>2011-04-29T08:09:25.0000000+00:00</time></trkpt><trkpt lat="21.279192" lon="105.464447"><ele>10.1</ele><time>2011-04-29T08:09:30.0000000+00:00</time></trkpt><trkpt lat="21.279209" lon="105.464935"><ele>14.5</ele><time>2011-04-29T08:09:35.0000000+00:00</time></trkpt><trkpt lat="21.279209" lon="105.465401"><ele>15.1</ele><time>2011-04-29T08:09:40.0000000+00:00</time></trkpt><trkpt lat="21.279194" lon="105.465866"><ele>15.2</ele><time>2011-04-29T08:09:45.0000000+00:00</time></trkpt><trkpt lat="21.279144" lon="105.466362"><ele>13.7</ele><time>2011-04-29T08:09:50.0000000+00:00</time></trkpt><trkpt lat="21.279114" lon="105.466881"><ele>10.6</ele><time>2011-04-29T08:09:55.0000000+00:00</time></trkpt><trkpt lat="21.279173" lon="105.467369"><ele>11.8</ele><time>2011-04-29T08:10:00.0000000+00:00</time></trkpt><trkpt lat="21.279272" lon="105.46785"><ele>8.8</ele><time>2011-04-29T08:10:05.0000000+00:00</time></trkpt><trkpt lat="21.279428" lon="105.468346"><ele>7.7</ele><time>2011-04-29T08:10:10.0000000+00:00</time></trkpt><trkpt lat="21.279568" lon="105.468864"><ele>6.6</ele><time>2011-04-29T08:10:15.0000000+00:00</time></trkpt><trkpt lat="21.279709" lon="105.469376"><ele>5.4</ele><time>2011-04-29T08:10:20.0000000+00:00</time></trkpt><trkpt lat="21.27985" lon="105.469902"><ele>3.4</ele><time>2011-04-29T08:10:25.0000000+00:00</time></trkpt><trkpt lat="21.28001" lon="105.470375"><ele>2.2</ele><time>2011-04-29T08:10:30.0000000+00:00</time></trkpt><trkpt lat="21.280106" lon="105.470703"><ele>2.6</ele><time>2011-04-29T08:10:35.0000000+00:00</time></trkpt><trkpt lat="21.280184" lon="105.471024"><ele>4.7</ele><time>2011-04-29T08:10:40.0000000+00:00</time></trkpt><trkpt lat="21.280268" lon="105.471428"><ele>8.7</ele><time>2011-04-29T08:10:45.0000000+00:00</time></trkpt><trkpt lat="21.280401" lon="105.471893"><ele>12.4</ele><time>2011-04-29T08:10:50.0000000+00:00</time></trkpt><trkpt lat="21.280497" lon="105.47245"><ele>15.7</ele><time>2011-04-29T08:10:55.0000000+00:00</time></trkpt><trkpt lat="21.280458" lon="105.473061"><ele>15.1</ele><time>2011-04-29T08:11:00.0000000+00:00</time></trkpt><trkpt lat="21.280363" lon="105.473671"><ele>14.2</ele><time>2011-04-29T08:11:05.0000000+00:00</time></trkpt><trkpt lat="21.28027" lon="105.474274"><ele>10.8</ele><time>2011-04-29T08:11:10.0000000+00:00</time></trkpt><trkpt lat="21.280195" lon="105.474884"><ele>6.3</ele><time>2011-04-29T08:11:15.0000000+00:00</time></trkpt><trkpt lat="21.28013" lon="105.475471"><ele>5.0</ele><time>2011-04-29T08:11:20.0000000+00:00</time></trkpt><trkpt lat="21.280027" lon="105.476036"><ele>3.3</ele><time>2011-04-29T08:11:25.0000000+00:00</time></trkpt><trkpt lat="21.279953" lon="105.47657"><ele>3.7</ele><time>2011-04-29T08:11:30.0000000+00:00</time></trkpt><trkpt lat="21.279865" lon="105.477112"><ele>4.5</ele><time>2011-04-29T08:11:35.0000000+00:00</time></trkpt><trkpt lat="21.279778" lon="105.477638"><ele>2.5</ele><time>2011-04-29T08:11:40.0000000+00:00</time></trkpt><trkpt lat="21.279696" lon="105.47818"><ele>-0.7</ele><time>2011-04-29T08:11:45.0000000+00:00</time></trkpt><trkpt lat="21.279629" lon="105.478767"><ele>1.9</ele><time>2011-04-29T08:11:50.0000000+00:00</time></trkpt><trkpt lat="21.279522" lon="105.479378"><ele>1.5</ele><time>2011-04-29T08:11:55.0000000+00:00</time></trkpt><trkpt lat="21.279434" lon="105.47995"><ele>0.3</ele><time>2011-04-29T08:12:00.0000000+00:00</time></trkpt><trkpt lat="21.279322" lon="105.480644"><ele>0.1</ele><time>2011-04-29T08:12:05.0000000+00:00</time></trkpt><trkpt lat="21.279186" lon="105.481422"><ele>-0.0</ele><time>2011-04-29T08:12:10.0000000+00:00</time></trkpt><trkpt lat="21.279083" lon="105.482063"><ele>1.6</ele><time>2011-04-29T08:12:15.0000000+00:00</time></trkpt><trkpt lat="21.279013" lon="105.482628"><ele>1.1</ele><time>2011-04-29T08:12:20.0000000+00:00</time></trkpt><trkpt lat="21.278913" lon="105.483269"><ele>1.3</ele><time>2011-04-29T08:12:25.0000000+00:00</time></trkpt><trkpt lat="21.278833" lon="105.483887"><ele>2.0</ele><time>2011-04-29T08:12:30.0000000+00:00</time></trkpt><trkpt lat="21.278738" lon="105.484428"><ele>2.9</ele><time>2011-04-29T08:12:35.0000000+00:00</time></trkpt><trkpt lat="21.278677" lon="105.484924"><ele>1.0</ele><time>2011-04-29T08:12:40.0000000+00:00</time></trkpt><trkpt lat="21.278601" lon="105.485458"><ele>1.2</ele><time>2011-04-29T08:12:45.0000000+00:00</time></trkpt><trkpt lat="21.278505" lon="105.486038"><ele>2.2</ele><time>2011-04-29T08:12:50.0000000+00:00</time></trkpt><trkpt lat="21.278412" lon="105.486633"><ele>3.6</ele><time>2011-04-29T08:12:55.0000000+00:00</time></trkpt><trkpt lat="21.278309" lon="105.487267"><ele>5.6</ele><time>2011-04-29T08:13:00.0000000+00:00</time></trkpt><trkpt lat="21.278208" lon="105.487915"><ele>7.9</ele><time>2011-04-29T08:13:05.0000000+00:00</time></trkpt><trkpt lat="21.278116" lon="105.488586"><ele>7.3</ele><time>2011-04-29T08:13:10.0000000+00:00</time></trkpt><trkpt lat="21.278032" lon="105.489174"><ele>6.7</ele><time>2011-04-29T08:13:15.0000000+00:00</time></trkpt><trkpt lat="21.277952" lon="105.489769"><ele>4.2</ele><time>2011-04-29T08:13:20.0000000+00:00</time></trkpt><trkpt lat="21.277857" lon="105.490425"><ele>5.5</ele><time>2011-04-29T08:13:25.0000000+00:00</time></trkpt><trkpt lat="21.277737" lon="105.491089"><ele>5.1</ele><time>2011-04-29T08:13:30.0000000+00:00</time></trkpt><trkpt lat="21.27763" lon="105.49173"><ele>4.4</ele><time>2011-04-29T08:13:35.0000000+00:00</time></trkpt><trkpt lat="21.277521" lon="105.492378"><ele>3.4</ele><time>2011-04-29T08:13:40.0000000+00:00</time></trkpt><trkpt lat="21.277441" lon="105.492958"><ele>3.3</ele><time>2011-04-29T08:13:45.0000000+00:00</time></trkpt><trkpt lat="21.27739" lon="105.493484"><ele>5.6</ele><time>2011-04-29T08:13:50.0000000+00:00</time></trkpt><trkpt lat="21.27739" lon="105.494095"><ele>5.2</ele><time>2011-04-29T08:13:55.0000000+00:00</time></trkpt><trkpt lat="21.277409" lon="105.494759"><ele>4.9</ele><time>2011-04-29T08:14:00.0000000+00:00</time></trkpt><trkpt lat="21.27743" lon="105.495193"><ele>5.6</ele><time>2011-04-29T08:14:05.0000000+00:00</time></trkpt><trkpt lat="21.277452" lon="105.495667"><ele>6.3</ele><time>2011-04-29T08:14:10.0000000+00:00</time></trkpt><trkpt lat="21.277483" lon="105.496117"><ele>6.8</ele><time>2011-04-29T08:14:15.0000000+00:00</time></trkpt><trkpt lat="21.277529" lon="105.496613"><ele>4.1</ele><time>2011-04-29T08:14:20.0000000+00:00</time></trkpt><trkpt lat="21.277538" lon="105.497192"><ele>2.4</ele><time>2011-04-29T08:14:25.0000000+00:00</time></trkpt><trkpt lat="21.27758" lon="105.497894"><ele>2.4</ele><time>2011-04-29T08:14:30.0000000+00:00</time></trkpt><trkpt lat="21.277617" lon="105.498642"><ele>-0.3</ele><time>2011-04-29T08:14:35.0000000+00:00</time></trkpt><trkpt lat="21.277664" lon="105.499397"><ele>0.1</ele><time>2011-04-29T08:14:40.0000000+00:00</time></trkpt><trkpt lat="21.277706" lon="105.500084"><ele>0.8</ele><time>2011-04-29T08:14:45.0000000+00:00</time></trkpt><trkpt lat="21.277742" lon="105.500778"><ele>1.0</ele><time>2011-04-29T08:14:50.0000000+00:00</time></trkpt><trkpt lat="21.277784" lon="105.501495"><ele>-1.6</ele><time>2011-04-29T08:14:55.0000000+00:00</time></trkpt><trkpt lat="21.27784" lon="105.502243"><ele>-1.8</ele><time>2011-04-29T08:15:00.0000000+00:00</time></trkpt><trkpt lat="21.277878" lon="105.503044"><ele>-2.5</ele><time>2011-04-29T08:15:05.0000000+00:00</time></trkpt><trkpt lat="21.277908" lon="105.503845"><ele>-2.0</ele><time>2011-04-29T08:15:10.0000000+00:00</time></trkpt><trkpt lat="21.277956" lon="105.504616"><ele>-0.7</ele><time>2011-04-29T08:15:15.0000000+00:00</time></trkpt><trkpt lat="21.278017" lon="105.50531"><ele>3.7</ele><time>2011-04-29T08:15:20.0000000+00:00</time></trkpt><trkpt lat="21.278053" lon="105.505898"><ele>4.9</ele><time>2011-04-29T08:15:25.0000000+00:00</time></trkpt><trkpt lat="21.278091" lon="105.506401"><ele>2.7</ele><time>2011-04-29T08:15:30.0000000+00:00</time></trkpt><trkpt lat="21.278118" lon="105.506943"><ele>4.9</ele><time>2011-04-29T08:15:35.0000000+00:00</time></trkpt><trkpt lat="21.278137" lon="105.507439"><ele>2.1</ele><time>2011-04-29T08:15:40.0000000+00:00</time></trkpt><trkpt lat="21.278175" lon="105.507988"><ele>2.4</ele><time>2011-04-29T08:15:45.0000000+00:00</time></trkpt><trkpt lat="21.278215" lon="105.508568"><ele>-1.5</ele><time>2011-04-29T08:15:50.0000000+00:00</time></trkpt><trkpt lat="21.278246" lon="105.509201"><ele>-2.8</ele><time>2011-04-29T08:15:55.0000000+00:00</time></trkpt><trkpt lat="21.27825" lon="105.50943"><ele>-4.4</ele><time>2011-04-29T08:16:00.0000000+00:00</time></trkpt><trkpt lat="21.278263" lon="105.509476"><ele>-4.6</ele><time>2011-04-29T08:16:05.0000000+00:00</time></trkpt><trkpt lat="21.278267" lon="105.509758"><ele>-4.5</ele><time>2011-04-29T08:16:10.0000000+00:00</time></trkpt><trkpt lat="21.278294" lon="105.510132"><ele>-4.6</ele><time>2011-04-29T08:16:15.0000000+00:00</time></trkpt><trkpt lat="21.278334" lon="105.510635"><ele>-6.4</ele><time>2011-04-29T08:16:20.0000000+00:00</time></trkpt><trkpt lat="21.278372" lon="105.511208"><ele>-8.2</ele><time>2011-04-29T08:16:25.0000000+00:00</time></trkpt><trkpt lat="21.278402" lon="105.511787"><ele>-9.4</ele><time>2011-04-29T08:16:30.0000000+00:00</time></trkpt><trkpt lat="21.27844" lon="105.512398"><ele>-9.7</ele><time>2011-04-29T08:16:35.0000000+00:00</time></trkpt><trkpt lat="21.278475" lon="105.512947"><ele>-8.2</ele><time>2011-04-29T08:16:40.0000000+00:00</time></trkpt><trkpt lat="21.278509" lon="105.513535"><ele>-8.5</ele><time>2011-04-29T08:16:45.0000000+00:00</time></trkpt><trkpt lat="21.27857" lon="105.514198"><ele>-10.1</ele><time>2011-04-29T08:16:50.0000000+00:00</time></trkpt><trkpt lat="21.278599" lon="105.514946"><ele>-12.4</ele><time>2011-04-29T08:16:55.0000000+00:00</time></trkpt><trkpt lat="21.278646" lon="105.515739"><ele>-11.7</ele><time>2011-04-29T08:17:00.0000000+00:00</time></trkpt><trkpt lat="21.278683" lon="105.516411"><ele>-11.6</ele><time>2011-04-29T08:17:05.0000000+00:00</time></trkpt><trkpt lat="21.278721" lon="105.517021"><ele>-12.7</ele><time>2011-04-29T08:17:10.0000000+00:00</time></trkpt><trkpt lat="21.278765" lon="105.5177"><ele>-10.6</ele><time>2011-04-29T08:17:15.0000000+00:00</time></trkpt><trkpt lat="21.278774" lon="105.518349"><ele>-7.4</ele><time>2011-04-29T08:17:20.0000000+00:00</time></trkpt><trkpt lat="21.278803" lon="105.518867"><ele>-6.5</ele><time>2011-04-29T08:17:25.0000000+00:00</time></trkpt><trkpt lat="21.278833" lon="105.519348"><ele>-6.9</ele><time>2011-04-29T08:17:30.0000000+00:00</time></trkpt><trkpt lat="21.278875" lon="105.519852"><ele>-3.3</ele><time>2011-04-29T08:17:35.0000000+00:00</time></trkpt><trkpt lat="21.278997" lon="105.520386"><ele>1.6</ele><time>2011-04-29T08:17:40.0000000+00:00</time></trkpt><trkpt lat="21.279127" lon="105.520882"><ele>7.5</ele><time>2011-04-29T08:17:45.0000000+00:00</time></trkpt><trkpt lat="21.279289" lon="105.521362"><ele>14.9</ele><time>2011-04-29T08:17:50.0000000+00:00</time></trkpt><trkpt lat="21.279459" lon="105.521873"><ele>15.8</ele><time>2011-04-29T08:17:55.0000000+00:00</time></trkpt><trkpt lat="21.279608" lon="105.522369"><ele>16.3</ele><time>2011-04-29T08:18:00.0000000+00:00</time></trkpt><trkpt lat="21.279783" lon="105.522934"><ele>15.7</ele><time>2011-04-29T08:18:05.0000000+00:00</time></trkpt><trkpt lat="21.280001" lon="105.523567"><ele>14.7</ele><time>2011-04-29T08:18:10.0000000+00:00</time></trkpt><trkpt lat="21.280251" lon="105.524323"><ele>14.8</ele><time>2011-04-29T08:18:15.0000000+00:00</time></trkpt><trkpt lat="21.280519" lon="105.525108"><ele>14.4</ele><time>2011-04-29T08:18:20.0000000+00:00</time></trkpt><trkpt lat="21.280806" lon="105.525894"><ele>13.4</ele><time>2011-04-29T08:18:25.0000000+00:00</time></trkpt><trkpt lat="21.281116" lon="105.526741"><ele>14.7</ele><time>2011-04-29T08:18:30.0000000+00:00</time></trkpt><trkpt lat="21.281431" lon="105.527596"><ele>12.7</ele><time>2011-04-29T08:18:35.0000000+00:00</time></trkpt><trkpt lat="21.281725" lon="105.528412"><ele>12.7</ele><time>2011-04-29T08:18:40.0000000+00:00</time></trkpt><trkpt lat="21.281998" lon="105.529205"><ele>9.8</ele><time>2011-04-29T08:18:45.0000000+00:00</time></trkpt><trkpt lat="21.282246" lon="105.529953"><ele>11.2</ele><time>2011-04-29T08:18:50.0000000+00:00</time></trkpt><trkpt lat="21.282505" lon="105.530632"><ele>8.6</ele><time>2011-04-29T08:18:55.0000000+00:00</time></trkpt><trkpt lat="21.282722" lon="105.531273"><ele>8.4</ele><time>2011-04-29T08:19:00.0000000+00:00</time></trkpt><trkpt lat="21.282913" lon="105.531868"><ele>8.9</ele><time>2011-04-29T08:19:05.0000000+00:00</time></trkpt><trkpt lat="21.283125" lon="105.53244"><ele>11.4</ele><time>2011-04-29T08:19:10.0000000+00:00</time></trkpt><trkpt lat="21.283337" lon="105.533035"><ele>11.0</ele><time>2011-04-29T08:19:15.0000000+00:00</time></trkpt><trkpt lat="21.283531" lon="105.533592"><ele>10.5</ele><time>2011-04-29T08:19:20.0000000+00:00</time></trkpt><trkpt lat="21.283691" lon="105.534065"><ele>9.6</ele><time>2011-04-29T08:19:25.0000000+00:00</time></trkpt><trkpt lat="21.283815" lon="105.534447"><ele>9.3</ele><time>2011-04-29T08:19:30.0000000+00:00</time></trkpt><trkpt lat="21.283985" lon="105.534882"><ele>5.1</ele><time>2011-04-29T08:19:35.0000000+00:00</time></trkpt><trkpt lat="21.284164" lon="105.535378"><ele>5.7</ele><time>2011-04-29T08:19:40.0000000+00:00</time></trkpt><trkpt lat="21.284336" lon="105.535866"><ele>3.8</ele><time>2011-04-29T08:19:45.0000000+00:00</time></trkpt><trkpt lat="21.284508" lon="105.536415"><ele>5.2</ele><time>2011-04-29T08:19:50.0000000+00:00</time></trkpt><trkpt lat="21.284698" lon="105.536972"><ele>4.2</ele><time>2011-04-29T08:19:55.0000000+00:00</time></trkpt><trkpt lat="21.284912" lon="105.537544"><ele>2.3</ele><time>2011-04-29T08:20:00.0000000+00:00</time></trkpt><trkpt lat="21.285137" lon="105.538177"><ele>1.4</ele><time>2011-04-29T08:20:05.0000000+00:00</time></trkpt><trkpt lat="21.285372" lon="105.538811"><ele>2.8</ele><time>2011-04-29T08:20:10.0000000+00:00</time></trkpt><trkpt lat="21.285595" lon="105.539406"><ele>3.0</ele><time>2011-04-29T08:20:15.0000000+00:00</time></trkpt><trkpt lat="21.285803" lon="105.539986"><ele>3.0</ele><time>2011-04-29T08:20:20.0000000+00:00</time></trkpt><trkpt lat="21.286028" lon="105.540565"><ele>5.3</ele><time>2011-04-29T08:20:25.0000000+00:00</time></trkpt><trkpt lat="21.286234" lon="105.541138"><ele>3.5</ele><time>2011-04-29T08:20:30.0000000+00:00</time></trkpt><trkpt lat="21.286446" lon="105.541725"><ele>3.9</ele><time>2011-04-29T08:20:35.0000000+00:00</time></trkpt><trkpt lat="21.286661" lon="105.542336"><ele>3.2</ele><time>2011-04-29T08:20:40.0000000+00:00</time></trkpt><trkpt lat="21.286879" lon="105.542953"><ele>4.7</ele><time>2011-04-29T08:20:45.0000000+00:00</time></trkpt><trkpt lat="21.28709" lon="105.543571"><ele>7.8</ele><time>2011-04-29T08:20:50.0000000+00:00</time></trkpt><trkpt lat="21.287317" lon="105.544205"><ele>9.4</ele><time>2011-04-29T08:20:55.0000000+00:00</time></trkpt><trkpt lat="21.287544" lon="105.544815"><ele>8.0</ele><time>2011-04-29T08:21:00.0000000+00:00</time></trkpt><trkpt lat="21.287767" lon="105.545425"><ele>5.0</ele><time>2011-04-29T08:21:05.0000000+00:00</time></trkpt><trkpt lat="21.28796" lon="105.545952"><ele>2.9</ele><time>2011-04-29T08:21:10.0000000+00:00</time></trkpt><trkpt lat="21.288055" lon="105.546249"><ele>3.4</ele><time>2011-04-29T08:21:15.0000000+00:00</time></trkpt><trkpt lat="21.288086" lon="105.546295"><ele>4.5</ele><time>2011-04-29T08:21:20.0000000+00:00</time></trkpt><trkpt lat="21.288097" lon="105.546341"><ele>4.7</ele><time>2011-04-29T08:21:25.0000000+00:00</time></trkpt><trkpt lat="21.28817" lon="105.546555"><ele>5.6</ele><time>2011-04-29T08:21:30.0000000+00:00</time></trkpt><trkpt lat="21.288284" lon="105.546883"><ele>6.8</ele><time>2011-04-29T08:21:35.0000000+00:00</time></trkpt><trkpt lat="21.288464" lon="105.547356"><ele>7.8</ele><time>2011-04-29T08:21:40.0000000+00:00</time></trkpt><trkpt lat="21.288744" lon="105.547852"><ele>12.6</ele><time>2011-04-29T08:21:45.0000000+00:00</time></trkpt><trkpt lat="21.289129" lon="105.548286"><ele>15.3</ele><time>2011-04-29T08:21:50.0000000+00:00</time></trkpt><trkpt lat="21.28956" lon="105.548729"><ele>16.2</ele><time>2011-04-29T08:21:55.0000000+00:00</time></trkpt><trkpt lat="21.290003" lon="105.549194"><ele>14.7</ele><time>2011-04-29T08:22:00.0000000+00:00</time></trkpt><trkpt lat="21.290442" lon="105.549629"><ele>6.7</ele><time>2011-04-29T08:22:05.0000000+00:00</time></trkpt><trkpt lat="21.290901" lon="105.550079"><ele>2.7</ele><time>2011-04-29T08:22:10.0000000+00:00</time></trkpt><trkpt lat="21.291357" lon="105.550545"><ele>0.3</ele><time>2011-04-29T08:22:15.0000000+00:00</time></trkpt><trkpt lat="21.291794" lon="105.551025"><ele>1.2</ele><time>2011-04-29T08:22:20.0000000+00:00</time></trkpt><trkpt lat="21.292242" lon="105.551514"><ele>1.1</ele><time>2011-04-29T08:22:25.0000000+00:00</time></trkpt><trkpt lat="21.29266" lon="105.551964"><ele>-0.2</ele><time>2011-04-29T08:22:30.0000000+00:00</time></trkpt><trkpt lat="21.293036" lon="105.552414"><ele>0.3</ele><time>2011-04-29T08:22:35.0000000+00:00</time></trkpt><trkpt lat="21.293406" lon="105.552811"><ele>-1.9</ele><time>2011-04-29T08:22:40.0000000+00:00</time></trkpt><trkpt lat="21.293739" lon="105.553169"><ele>-2.1</ele><time>2011-04-29T08:22:45.0000000+00:00</time></trkpt><trkpt lat="21.294062" lon="105.553551"><ele>0.3</ele><time>2011-04-29T08:22:50.0000000+00:00</time></trkpt><trkpt lat="21.294397" lon="105.55394"><ele>0.3</ele><time>2011-04-29T08:22:55.0000000+00:00</time></trkpt><trkpt lat="21.294758" lon="105.554352"><ele>0.6</ele><time>2011-04-29T08:23:00.0000000+00:00</time></trkpt><trkpt lat="21.295118" lon="105.554787"><ele>1.5</ele><time>2011-04-29T08:23:05.0000000+00:00</time></trkpt><trkpt lat="21.295456" lon="105.555183"><ele>3.2</ele><time>2011-04-29T08:23:10.0000000+00:00</time></trkpt><trkpt lat="21.295805" lon="105.555588"><ele>2.6</ele><time>2011-04-29T08:23:15.0000000+00:00</time></trkpt><trkpt lat="21.296154" lon="105.556"><ele>2.4</ele><time>2011-04-29T08:23:20.0000000+00:00</time></trkpt><trkpt lat="21.296509" lon="105.556412"><ele>1.3</ele><time>2011-04-29T08:23:25.0000000+00:00</time></trkpt><trkpt lat="21.296873" lon="105.556862"><ele>1.4</ele><time>2011-04-29T08:23:30.0000000+00:00</time></trkpt><trkpt lat="21.297226" lon="105.557274"><ele>1.7</ele><time>2011-04-29T08:23:35.0000000+00:00</time></trkpt><trkpt lat="21.297611" lon="105.557701"><ele>3.1</ele><time>2011-04-29T08:23:40.0000000+00:00</time></trkpt><trkpt lat="21.297987" lon="105.558128"><ele>3.8</ele><time>2011-04-29T08:23:45.0000000+00:00</time></trkpt><trkpt lat="21.298334" lon="105.558533"><ele>4.4</ele><time>2011-04-29T08:23:50.0000000+00:00</time></trkpt><trkpt lat="21.298573" lon="105.558846"><ele>3.9</ele><time>2011-04-29T08:23:55.0000000+00:00</time></trkpt><trkpt lat="21.298794" lon="105.559044"><ele>12.3</ele><time>2011-04-29T08:24:00.0000000+00:00</time></trkpt><trkpt lat="21.298941" lon="105.559204"><ele>15.0</ele><time>2011-04-29T08:24:05.0000000+00:00</time></trkpt><trkpt lat="21.299046" lon="105.559288"><ele>11.9</ele><time>2011-04-29T08:24:10.0000000+00:00</time></trkpt><trkpt lat="21.299076" lon="105.559364"><ele>9.1</ele><time>2011-04-29T08:24:15.0000000+00:00</time></trkpt><trkpt lat="21.299091" lon="105.559433"><ele>9.1</ele><time>2011-04-29T08:24:20.0000000+00:00</time></trkpt><trkpt lat="21.299196" lon="105.559563"><ele>11.5</ele><time>2011-04-29T08:24:25.0000000+00:00</time></trkpt><trkpt lat="21.299368" lon="105.559776"><ele>13.5</ele><time>2011-04-29T08:24:30.0000000+00:00</time></trkpt><trkpt lat="21.299513" lon="105.559982"><ele>15.7</ele><time>2011-04-29T08:24:35.0000000+00:00</time></trkpt><trkpt lat="21.299696" lon="105.560188"><ele>18.1</ele><time>2011-04-29T08:24:40.0000000+00:00</time></trkpt><trkpt lat="21.299976" lon="105.560532"><ele>17.9</ele><time>2011-04-29T08:24:45.0000000+00:00</time></trkpt><trkpt lat="21.300222" lon="105.560837"><ele>17.8</ele><time>2011-04-29T08:24:50.0000000+00:00</time></trkpt><trkpt lat="21.300383" lon="105.560989"><ele>17.0</ele><time>2011-04-29T08:24:55.0000000+00:00</time></trkpt><trkpt lat="21.300474" lon="105.561096"><ele>13.8</ele><time>2011-04-29T08:25:00.0000000+00:00</time></trkpt><trkpt lat="21.30064" lon="105.561287"><ele>10.0</ele><time>2011-04-29T08:25:05.0000000+00:00</time></trkpt><trkpt lat="21.300867" lon="105.561562"><ele>9.3</ele><time>2011-04-29T08:25:10.0000000+00:00</time></trkpt><trkpt lat="21.301128" lon="105.561882"><ele>9.9</ele><time>2011-04-29T08:25:15.0000000+00:00</time></trkpt><trkpt lat="21.301447" lon="105.562256"><ele>13.1</ele><time>2011-04-29T08:25:20.0000000+00:00</time></trkpt><trkpt lat="21.301752" lon="105.562653"><ele>12.5</ele><time>2011-04-29T08:25:25.0000000+00:00</time></trkpt><trkpt lat="21.302055" lon="105.563042"><ele>11.9</ele><time>2011-04-29T08:25:30.0000000+00:00</time></trkpt><trkpt lat="21.302374" lon="105.563469"><ele>11.9</ele><time>2011-04-29T08:25:35.0000000+00:00</time></trkpt><trkpt lat="21.302677" lon="105.563904"><ele>11.2</ele><time>2011-04-29T08:25:40.0000000+00:00</time></trkpt><trkpt lat="21.302942" lon="105.564262"><ele>11.6</ele><time>2011-04-29T08:25:45.0000000+00:00</time></trkpt><trkpt lat="21.303185" lon="105.564651"><ele>10.2</ele><time>2011-04-29T08:25:50.0000000+00:00</time></trkpt><trkpt lat="21.30348" lon="105.565033"><ele>9.2</ele><time>2011-04-29T08:25:55.0000000+00:00</time></trkpt><trkpt lat="21.303745" lon="105.56543"><ele>8.7</ele><time>2011-04-29T08:26:00.0000000+00:00</time></trkpt><trkpt lat="21.304062" lon="105.565857"><ele>10.0</ele><time>2011-04-29T08:26:05.0000000+00:00</time></trkpt><trkpt lat="21.30439" lon="105.566292"><ele>9.8</ele><time>2011-04-29T08:26:10.0000000+00:00</time></trkpt><trkpt lat="21.304688" lon="105.566765"><ele>7.7</ele><time>2011-04-29T08:26:15.0000000+00:00</time></trkpt><trkpt lat="21.304924" lon="105.56723"><ele>5.1</ele><time>2011-04-29T08:26:20.0000000+00:00</time></trkpt><trkpt lat="21.305145" lon="105.567719"><ele>5.9</ele><time>2011-04-29T08:26:25.0000000+00:00</time></trkpt><trkpt lat="21.305342" lon="105.568268"><ele>4.7</ele><time>2011-04-29T08:26:30.0000000+00:00</time></trkpt><trkpt lat="21.305574" lon="105.568825"><ele>5.1</ele><time>2011-04-29T08:26:35.0000000+00:00</time></trkpt><trkpt lat="21.305784" lon="105.569412"><ele>7.7</ele><time>2011-04-29T08:26:40.0000000+00:00</time></trkpt><trkpt lat="21.305946" lon="105.569954"><ele>9.6</ele><time>2011-04-29T08:26:45.0000000+00:00</time></trkpt><trkpt lat="21.306042" lon="105.570473"><ele>10.7</ele><time>2011-04-29T08:26:50.0000000+00:00</time></trkpt><trkpt lat="21.306082" lon="105.571037"><ele>13.3</ele><time>2011-04-29T08:26:55.0000000+00:00</time></trkpt><trkpt lat="21.306072" lon="105.571556"><ele>17.8</ele><time>2011-04-29T08:27:00.0000000+00:00</time></trkpt><trkpt lat="21.306099" lon="105.572083"><ele>23.5</ele><time>2011-04-29T08:27:05.0000000+00:00</time></trkpt><trkpt lat="21.306107" lon="105.572556"><ele>26.3</ele><time>2011-04-29T08:27:10.0000000+00:00</time></trkpt><trkpt lat="21.306112" lon="105.573006"><ele>22.9</ele><time>2011-04-29T08:27:15.0000000+00:00</time></trkpt><trkpt lat="21.306101" lon="105.573441"><ele>20.8</ele><time>2011-04-29T08:27:20.0000000+00:00</time></trkpt><trkpt lat="21.306103" lon="105.573822"><ele>21.3</ele><time>2011-04-29T08:27:25.0000000+00:00</time></trkpt><trkpt lat="21.306124" lon="105.574272"><ele>19.5</ele><time>2011-04-29T08:27:30.0000000+00:00</time></trkpt><trkpt lat="21.306171" lon="105.574768"><ele>15.9</ele><time>2011-04-29T08:27:35.0000000+00:00</time></trkpt><trkpt lat="21.306234" lon="105.575226"><ele>11.1</ele><time>2011-04-29T08:27:40.0000000+00:00</time></trkpt><trkpt lat="21.306316" lon="105.575577"><ele>6.9</ele><time>2011-04-29T08:27:45.0000000+00:00</time></trkpt><trkpt lat="21.306364" lon="105.575912"><ele>2.8</ele><time>2011-04-29T08:27:50.0000000+00:00</time></trkpt><trkpt lat="21.306414" lon="105.576309"><ele>0.5</ele><time>2011-04-29T08:27:55.0000000+00:00</time></trkpt><trkpt lat="21.306467" lon="105.576645"><ele>0.1</ele><time>2011-04-29T08:28:00.0000000+00:00</time></trkpt><trkpt lat="21.306532" lon="105.577034"><ele>2.5</ele><time>2011-04-29T08:28:05.0000000+00:00</time></trkpt><trkpt lat="21.306599" lon="105.577553"><ele>1.5</ele><time>2011-04-29T08:28:10.0000000+00:00</time></trkpt><trkpt lat="21.306684" lon="105.578041"><ele>2.2</ele><time>2011-04-29T08:28:15.0000000+00:00</time></trkpt><trkpt lat="21.306751" lon="105.578514"><ele>1.7</ele><time>2011-04-29T08:28:20.0000000+00:00</time></trkpt><trkpt lat="21.306822" lon="105.579018"><ele>4.3</ele><time>2011-04-29T08:28:25.0000000+00:00</time></trkpt><trkpt lat="21.306894" lon="105.579552"><ele>7.3</ele><time>2011-04-29T08:28:30.0000000+00:00</time></trkpt><trkpt lat="21.306999" lon="105.580101"><ele>10.5</ele><time>2011-04-29T08:28:35.0000000+00:00</time></trkpt><trkpt lat="21.307079" lon="105.58065"><ele>12.8</ele><time>2011-04-29T08:28:40.0000000+00:00</time></trkpt><trkpt lat="21.307177" lon="105.581161"><ele>13.7</ele><time>2011-04-29T08:28:45.0000000+00:00</time></trkpt><trkpt lat="21.307249" lon="105.581665"><ele>15.1</ele><time>2011-04-29T08:28:50.0000000+00:00</time></trkpt><trkpt lat="21.30732" lon="105.582069"><ele>15.2</ele><time>2011-04-29T08:28:55.0000000+00:00</time></trkpt><trkpt lat="21.307392" lon="105.582382"><ele>13.6</ele><time>2011-04-29T08:29:00.0000000+00:00</time></trkpt><trkpt lat="21.307423" lon="105.582626"><ele>10.3</ele><time>2011-04-29T08:29:05.0000000+00:00</time></trkpt><trkpt lat="21.307455" lon="105.58284"><ele>8.7</ele><time>2011-04-29T08:29:10.0000000+00:00</time></trkpt><trkpt lat="21.307478" lon="105.583069"><ele>8.0</ele><time>2011-04-29T08:29:15.0000000+00:00</time></trkpt><trkpt lat="21.307518" lon="105.583321"><ele>9.8</ele><time>2011-04-29T08:29:20.0000000+00:00</time></trkpt><trkpt lat="21.307554" lon="105.583649"><ele>14.1</ele><time>2011-04-29T08:29:25.0000000+00:00</time></trkpt><trkpt lat="21.3076" lon="105.584038"><ele>19.1</ele><time>2011-04-29T08:29:30.0000000+00:00</time></trkpt><trkpt lat="21.307667" lon="105.584465"><ele>23.6</ele><time>2011-04-29T08:29:35.0000000+00:00</time></trkpt><trkpt lat="21.307762" lon="105.584877"><ele>25.3</ele><time>2011-04-29T08:29:40.0000000+00:00</time></trkpt><trkpt lat="21.307854" lon="105.585312"><ele>25.7</ele><time>2011-04-29T08:29:45.0000000+00:00</time></trkpt><trkpt lat="21.307907" lon="105.585785"><ele>29.6</ele><time>2011-04-29T08:29:50.0000000+00:00</time></trkpt><trkpt lat="21.308044" lon="105.586227"><ele>31.5</ele><time>2011-04-29T08:29:55.0000000+00:00</time></trkpt><trkpt lat="21.308266" lon="105.586525"><ele>29.2</ele><time>2011-04-29T08:30:00.0000000+00:00</time></trkpt><trkpt lat="21.308514" lon="105.586761"><ele>24.0</ele><time>2011-04-29T08:30:05.0000000+00:00</time></trkpt><trkpt lat="21.308777" lon="105.587105"><ele>23.1</ele><time>2011-04-29T08:30:10.0000000+00:00</time></trkpt><trkpt lat="21.308849" lon="105.587563"><ele>24.5</ele><time>2011-04-29T08:30:15.0000000+00:00</time></trkpt><trkpt lat="21.30887" lon="105.588005"><ele>22.0</ele><time>2011-04-29T08:30:20.0000000+00:00</time></trkpt><trkpt lat="21.308926" lon="105.588409"><ele>21.7</ele><time>2011-04-29T08:30:25.0000000+00:00</time></trkpt><trkpt lat="21.308954" lon="105.588829"><ele>24.2</ele><time>2011-04-29T08:30:30.0000000+00:00</time></trkpt><trkpt lat="21.308922" lon="105.589249"><ele>22.6</ele><time>2011-04-29T08:30:35.0000000+00:00</time></trkpt><trkpt lat="21.308882" lon="105.589722"><ele>19.3</ele><time>2011-04-29T08:30:40.0000000+00:00</time></trkpt><trkpt lat="21.308844" lon="105.590218"><ele>14.6</ele><time>2011-04-29T08:30:45.0000000+00:00</time></trkpt><trkpt lat="21.308794" lon="105.590721"><ele>10.4</ele><time>2011-04-29T08:30:50.0000000+00:00</time></trkpt><trkpt lat="21.308744" lon="105.591187"><ele>5.8</ele><time>2011-04-29T08:30:55.0000000+00:00</time></trkpt><trkpt lat="21.308735" lon="105.591606"><ele>2.2</ele><time>2011-04-29T08:31:00.0000000+00:00</time></trkpt><trkpt lat="21.30871" lon="105.591988"><ele>2.0</ele><time>2011-04-29T08:31:05.0000000+00:00</time></trkpt><trkpt lat="21.308613" lon="105.592323"><ele>5.6</ele><time>2011-04-29T08:31:10.0000000+00:00</time></trkpt><trkpt lat="21.308468" lon="105.592644"><ele>4.4</ele><time>2011-04-29T08:31:15.0000000+00:00</time></trkpt><trkpt lat="21.308325" lon="105.592972"><ele>5.6</ele><time>2011-04-29T08:31:20.0000000+00:00</time></trkpt><trkpt lat="21.308199" lon="105.593285"><ele>5.3</ele><time>2011-04-29T08:31:25.0000000+00:00</time></trkpt><trkpt lat="21.308174" lon="105.593582"><ele>3.1</ele><time>2011-04-29T08:31:30.0000000+00:00</time></trkpt><trkpt lat="21.308348" lon="105.593765"><ele>1.4</ele><time>2011-04-29T08:31:35.0000000+00:00</time></trkpt><trkpt lat="21.308506" lon="105.593781"><ele>1.6</ele><time>2011-04-29T08:31:40.0000000+00:00</time></trkpt><trkpt lat="21.308784" lon="105.593826"><ele>-2.3</ele><time>2011-04-29T08:31:45.0000000+00:00</time></trkpt><trkpt lat="21.309072" lon="105.593979"><ele>-1.3</ele><time>2011-04-29T08:31:50.0000000+00:00</time></trkpt><trkpt lat="21.309408" lon="105.594193"><ele>0.4</ele><time>2011-04-29T08:31:55.0000000+00:00</time></trkpt><trkpt lat="21.30978" lon="105.594406"><ele>-0.2</ele><time>2011-04-29T08:32:00.0000000+00:00</time></trkpt><trkpt lat="21.310116" lon="105.594612"><ele>-0.3</ele><time>2011-04-29T08:32:05.0000000+00:00</time></trkpt><trkpt lat="21.310438" lon="105.594803"><ele>-0.6</ele><time>2011-04-29T08:32:10.0000000+00:00</time></trkpt><trkpt lat="21.310774" lon="105.594994"><ele>-0.8</ele><time>2011-04-29T08:32:15.0000000+00:00</time></trkpt><trkpt lat="21.311102" lon="105.595184"><ele>-1.3</ele><time>2011-04-29T08:32:20.0000000+00:00</time></trkpt><trkpt lat="21.311348" lon="105.595367"><ele>-2.0</ele><time>2011-04-29T08:32:25.0000000+00:00</time></trkpt><trkpt lat="21.311617" lon="105.595535"><ele>-2.9</ele><time>2011-04-29T08:32:30.0000000+00:00</time></trkpt><trkpt lat="21.31188" lon="105.595688"><ele>-1.6</ele><time>2011-04-29T08:32:35.0000000+00:00</time></trkpt><trkpt lat="21.312105" lon="105.595833"><ele>0.2</ele><time>2011-04-29T08:32:40.0000000+00:00</time></trkpt><trkpt lat="21.312296" lon="105.595947"><ele>-0.2</ele><time>2011-04-29T08:32:45.0000000+00:00</time></trkpt><trkpt lat="21.312447" lon="105.596046"><ele>-1.2</ele><time>2011-04-29T08:32:50.0000000+00:00</time></trkpt><trkpt lat="21.312597" lon="105.596153"><ele>0.1</ele><time>2011-04-29T08:32:55.0000000+00:00</time></trkpt><trkpt lat="21.312752" lon="105.59626"><ele>-0.7</ele><time>2011-04-29T08:33:00.0000000+00:00</time></trkpt><trkpt lat="21.312943" lon="105.59639"><ele>3.0</ele><time>2011-04-29T08:33:05.0000000+00:00</time></trkpt><trkpt lat="21.313131" lon="105.596596"><ele>4.3</ele><time>2011-04-29T08:33:10.0000000+00:00</time></trkpt><trkpt lat="21.313255" lon="105.596817"><ele>3.2</ele><time>2011-04-29T08:33:15.0000000+00:00</time></trkpt><trkpt lat="21.313326" lon="105.597038"><ele>5.4</ele><time>2011-04-29T08:33:20.0000000+00:00</time></trkpt><trkpt lat="21.313345" lon="105.597122"><ele>7.8</ele><time>2011-04-29T08:33:25.0000000+00:00</time></trkpt><trkpt lat="21.313362" lon="105.597153"><ele>9.0</ele><time>2011-04-29T08:33:30.0000000+00:00</time></trkpt><trkpt lat="21.313374" lon="105.597191"><ele>9.5</ele><time>2011-04-29T08:33:35.0000000+00:00</time></trkpt><trkpt lat="21.313404" lon="105.597282"><ele>9.1</ele><time>2011-04-29T08:33:40.0000000+00:00</time></trkpt><trkpt lat="21.313395" lon="105.597412"><ele>9.2</ele><time>2011-04-29T08:33:45.0000000+00:00</time></trkpt><trkpt lat="21.313391" lon="105.597527"><ele>6.6</ele><time>2011-04-29T08:33:50.0000000+00:00</time></trkpt><trkpt lat="21.313406" lon="105.597656"><ele>8.3</ele><time>2011-04-29T08:33:55.0000000+00:00</time></trkpt><trkpt lat="21.313417" lon="105.597916"><ele>10.3</ele><time>2011-04-29T08:34:00.0000000+00:00</time></trkpt><trkpt lat="21.313438" lon="105.598244"><ele>12.0</ele><time>2011-04-29T08:34:05.0000000+00:00</time></trkpt><trkpt lat="21.313461" lon="105.59864"><ele>14.8</ele><time>2011-04-29T08:34:10.0000000+00:00</time></trkpt><trkpt lat="21.313488" lon="105.599007"><ele>17.0</ele><time>2011-04-29T08:34:15.0000000+00:00</time></trkpt><trkpt lat="21.313528" lon="105.599266"><ele>20.6</ele><time>2011-04-29T08:34:20.0000000+00:00</time></trkpt><trkpt lat="21.313576" lon="105.599594"><ele>20.8</ele><time>2011-04-29T08:34:25.0000000+00:00</time></trkpt><trkpt lat="21.313606" lon="105.5998"><ele>18.6</ele><time>2011-04-29T08:34:30.0000000+00:00</time></trkpt><trkpt lat="21.313627" lon="105.599838"><ele>19.8</ele><time>2011-04-29T08:34:35.0000000+00:00</time></trkpt><trkpt lat="21.313627" lon="105.599854"><ele>20.3</ele><time>2011-04-29T08:34:40.0000000+00:00</time></trkpt><trkpt lat="21.313623" lon="105.599854"><ele>20.5</ele><time>2011-04-29T08:34:45.0000000+00:00</time></trkpt><trkpt lat="21.313622" lon="105.599854"><ele>20.5</ele><time>2011-04-29T08:34:50.0000000+00:00</time></trkpt><trkpt lat="21.313623" lon="105.599869"><ele>20.6</ele><time>2011-04-29T08:34:55.0000000+00:00</time></trkpt><trkpt lat="21.313654" lon="105.600014"><ele>21.7</ele><time>2011-04-29T08:35:00.0000000+00:00</time></trkpt><trkpt lat="21.3137" lon="105.600159"><ele>22.6</ele><time>2011-04-29T08:35:05.0000000+00:00</time></trkpt><trkpt lat="21.313761" lon="105.600372"><ele>21.3</ele><time>2011-04-29T08:35:10.0000000+00:00</time></trkpt><trkpt lat="21.313843" lon="105.6007"><ele>21.3</ele><time>2011-04-29T08:35:15.0000000+00:00</time></trkpt><trkpt lat="21.313906" lon="105.601143"><ele>19.6</ele><time>2011-04-29T08:35:20.0000000+00:00</time></trkpt><trkpt lat="21.313974" lon="105.601624"><ele>19.1</ele><time>2011-04-29T08:35:25.0000000+00:00</time></trkpt><trkpt lat="21.314035" lon="105.602028"><ele>18.5</ele><time>2011-04-29T08:35:30.0000000+00:00</time></trkpt><trkpt lat="21.314045" lon="105.602509"><ele>17.9</ele><time>2011-04-29T08:35:35.0000000+00:00</time></trkpt><trkpt lat="21.314119" lon="105.603012"><ele>17.3</ele><time>2011-04-29T08:35:40.0000000+00:00</time></trkpt><trkpt lat="21.314198" lon="105.603523"><ele>18.6</ele><time>2011-04-29T08:35:45.0000000+00:00</time></trkpt><trkpt lat="21.314247" lon="105.604019"><ele>18.8</ele><time>2011-04-29T08:35:50.0000000+00:00</time></trkpt><trkpt lat="21.314344" lon="105.6045"><ele>19.6</ele><time>2011-04-29T08:35:55.0000000+00:00</time></trkpt><trkpt lat="21.314402" lon="105.604996"><ele>19.8</ele><time>2011-04-29T08:36:00.0000000+00:00</time></trkpt><trkpt lat="21.314472" lon="105.605522"><ele>18.0</ele><time>2011-04-29T08:36:05.0000000+00:00</time></trkpt><trkpt lat="21.314568" lon="105.606041"><ele>13.3</ele><time>2011-04-29T08:36:10.0000000+00:00</time></trkpt><trkpt lat="21.314646" lon="105.606552"><ele>11.0</ele><time>2011-04-29T08:36:15.0000000+00:00</time></trkpt><trkpt lat="21.314671" lon="105.607033"><ele>11.7</ele><time>2011-04-29T08:36:20.0000000+00:00</time></trkpt><trkpt lat="21.314577" lon="105.607483"><ele>12.0</ele><time>2011-04-29T08:36:25.0000000+00:00</time></trkpt><trkpt lat="21.314459" lon="105.607971"><ele>12.2</ele><time>2011-04-29T08:36:30.0000000+00:00</time></trkpt><trkpt lat="21.314362" lon="105.608429"><ele>13.9</ele><time>2011-04-29T08:36:35.0000000+00:00</time></trkpt><trkpt lat="21.314236" lon="105.608879"><ele>17.6</ele><time>2011-04-29T08:36:40.0000000+00:00</time></trkpt><trkpt lat="21.314119" lon="105.609383"><ele>19.7</ele><time>2011-04-29T08:36:45.0000000+00:00</time></trkpt><trkpt lat="21.313972" lon="105.609848"><ele>21.8</ele><time>2011-04-29T08:36:50.0000000+00:00</time></trkpt><trkpt lat="21.313833" lon="105.610214"><ele>22.5</ele><time>2011-04-29T08:36:55.0000000+00:00</time></trkpt><trkpt lat="21.313671" lon="105.610588"><ele>24.7</ele><time>2011-04-29T08:37:00.0000000+00:00</time></trkpt><trkpt lat="21.313526" lon="105.610931"><ele>24.2</ele><time>2011-04-29T08:37:05.0000000+00:00</time></trkpt><trkpt lat="21.313393" lon="105.611244"><ele>23.2</ele><time>2011-04-29T08:37:10.0000000+00:00</time></trkpt><trkpt lat="21.313236" lon="105.611649"><ele>21.4</ele><time>2011-04-29T08:37:15.0000000+00:00</time></trkpt><trkpt lat="21.313019" lon="105.612076"><ele>22.9</ele><time>2011-04-29T08:37:20.0000000+00:00</time></trkpt><trkpt lat="21.312815" lon="105.612511"><ele>22.5</ele><time>2011-04-29T08:37:25.0000000+00:00</time></trkpt><trkpt lat="21.312613" lon="105.612984"><ele>19.3</ele><time>2011-04-29T08:37:30.0000000+00:00</time></trkpt><trkpt lat="21.312399" lon="105.613358"><ele>14.3</ele><time>2011-04-29T08:37:35.0000000+00:00</time></trkpt><trkpt lat="21.312202" lon="105.613693"><ele>8.8</ele><time>2011-04-29T08:37:40.0000000+00:00</time></trkpt><trkpt lat="21.31193" lon="105.614059"><ele>7.1</ele><time>2011-04-29T08:37:45.0000000+00:00</time></trkpt><trkpt lat="21.311575" lon="105.614334"><ele>6.5</ele><time>2011-04-29T08:37:50.0000000+00:00</time></trkpt><trkpt lat="21.311169" lon="105.614479"><ele>5.4</ele><time>2011-04-29T08:37:55.0000000+00:00</time></trkpt><trkpt lat="21.310762" lon="105.614555"><ele>5.6</ele><time>2011-04-29T08:38:00.0000000+00:00</time></trkpt><trkpt lat="21.310318" lon="105.614655"><ele>6.0</ele><time>2011-04-29T08:38:05.0000000+00:00</time></trkpt><trkpt lat="21.309914" lon="105.614799"><ele>4.5</ele><time>2011-04-29T08:38:10.0000000+00:00</time></trkpt><trkpt lat="21.309484" lon="105.615067"><ele>2.6</ele><time>2011-04-29T08:38:15.0000000+00:00</time></trkpt><trkpt lat="21.308975" lon="105.615356"><ele>1.5</ele><time>2011-04-29T08:38:20.0000000+00:00</time></trkpt><trkpt lat="21.308483" lon="105.615646"><ele>2.9</ele><time>2011-04-29T08:38:25.0000000+00:00</time></trkpt><trkpt lat="21.308023" lon="105.615891"><ele>2.1</ele><time>2011-04-29T08:38:30.0000000+00:00</time></trkpt><trkpt lat="21.307587" lon="105.616112"><ele>-0.4</ele><time>2011-04-29T08:38:35.0000000+00:00</time></trkpt><trkpt lat="21.30719" lon="105.616142"><ele>0.5</ele><time>2011-04-29T08:38:40.0000000+00:00</time></trkpt><trkpt lat="21.306986" lon="105.616348"><ele>2.5</ele><time>2011-04-29T08:38:45.0000000+00:00</time></trkpt><trkpt lat="21.30694" lon="105.616737"><ele>1.7</ele><time>2011-04-29T08:38:50.0000000+00:00</time></trkpt><trkpt lat="21.306843" lon="105.617134"><ele>2.2</ele><time>2011-04-29T08:38:55.0000000+00:00</time></trkpt><trkpt lat="21.306681" lon="105.617546"><ele>3.7</ele><time>2011-04-29T08:39:00.0000000+00:00</time></trkpt><trkpt lat="21.306494" lon="105.617966"><ele>6.1</ele><time>2011-04-29T08:39:05.0000000+00:00</time></trkpt><trkpt lat="21.306232" lon="105.618393"><ele>5.5</ele><time>2011-04-29T08:39:10.0000000+00:00</time></trkpt><trkpt lat="21.305904" lon="105.618813"><ele>4.8</ele><time>2011-04-29T08:39:15.0000000+00:00</time></trkpt><trkpt lat="21.305536" lon="105.619179"><ele>4.9</ele><time>2011-04-29T08:39:20.0000000+00:00</time></trkpt><trkpt lat="21.305151" lon="105.61956"><ele>1.2</ele><time>2011-04-29T08:39:25.0000000+00:00</time></trkpt><trkpt lat="21.304844" lon="105.619881"><ele>1.9</ele><time>2011-04-29T08:39:30.0000000+00:00</time></trkpt><trkpt lat="21.304571" lon="105.620285"><ele>4.1</ele><time>2011-04-29T08:39:35.0000000+00:00</time></trkpt><trkpt lat="21.304291" lon="105.62075"><ele>5.3</ele><time>2011-04-29T08:39:40.0000000+00:00</time></trkpt><trkpt lat="21.304052" lon="105.621239"><ele>5.8</ele><time>2011-04-29T08:39:45.0000000+00:00</time></trkpt><trkpt lat="21.303852" lon="105.62175"><ele>7.9</ele><time>2011-04-29T08:39:50.0000000+00:00</time></trkpt><trkpt lat="21.303707" lon="105.622269"><ele>10.8</ele><time>2011-04-29T08:39:55.0000000+00:00</time></trkpt><trkpt lat="21.303614" lon="105.622787"><ele>13.8</ele><time>2011-04-29T08:40:00.0000000+00:00</time></trkpt><trkpt lat="21.303553" lon="105.623291"><ele>13.5</ele><time>2011-04-29T08:40:05.0000000+00:00</time></trkpt><trkpt lat="21.303482" lon="105.623749"><ele>14.8</ele><time>2011-04-29T08:40:10.0000000+00:00</time></trkpt><trkpt lat="21.303434" lon="105.624092"><ele>16.2</ele><time>2011-04-29T08:40:15.0000000+00:00</time></trkpt><trkpt lat="21.303391" lon="105.624298"><ele>14.5</ele><time>2011-04-29T08:40:20.0000000+00:00</time></trkpt><trkpt lat="21.303368" lon="105.624535"><ele>11.9</ele><time>2011-04-29T08:40:25.0000000+00:00</time></trkpt><trkpt lat="21.303347" lon="105.624817"><ele>8.4</ele><time>2011-04-29T08:40:30.0000000+00:00</time></trkpt><trkpt lat="21.30332" lon="105.625107"><ele>7.4</ele><time>2011-04-29T08:40:35.0000000+00:00</time></trkpt><trkpt lat="21.303278" lon="105.625473"><ele>5.2</ele><time>2011-04-29T08:40:40.0000000+00:00</time></trkpt><trkpt lat="21.303207" lon="105.6259"><ele>5.8</ele><time>2011-04-29T08:40:45.0000000+00:00</time></trkpt><trkpt lat="21.303101" lon="105.626358"><ele>8.8</ele><time>2011-04-29T08:40:50.0000000+00:00</time></trkpt><trkpt lat="21.302893" lon="105.626816"><ele>9.1</ele><time>2011-04-29T08:40:55.0000000+00:00</time></trkpt><trkpt lat="21.302614" lon="105.627213"><ele>11.0</ele><time>2011-04-29T08:41:00.0000000+00:00</time></trkpt><trkpt lat="21.302284" lon="105.627571"><ele>10.5</ele><time>2011-04-29T08:41:05.0000000+00:00</time></trkpt><trkpt lat="21.301939" lon="105.627922"><ele>11.9</ele><time>2011-04-29T08:41:10.0000000+00:00</time></trkpt><trkpt lat="21.301592" lon="105.628296"><ele>12.7</ele><time>2011-04-29T08:41:15.0000000+00:00</time></trkpt><trkpt lat="21.301229" lon="105.628693"><ele>11.0</ele><time>2011-04-29T08:41:20.0000000+00:00</time></trkpt><trkpt lat="21.300882" lon="105.629044"><ele>4.8</ele><time>2011-04-29T08:41:25.0000000+00:00</time></trkpt><trkpt lat="21.300554" lon="105.629395"><ele>5.5</ele><time>2011-04-29T08:41:30.0000000+00:00</time></trkpt><trkpt lat="21.300177" lon="105.629692"><ele>8.4</ele><time>2011-04-29T08:41:35.0000000+00:00</time></trkpt><trkpt lat="21.299753" lon="105.62989"><ele>9.8</ele><time>2011-04-29T08:41:40.0000000+00:00</time></trkpt><trkpt lat="21.299322" lon="105.629997"><ele>11.3</ele><time>2011-04-29T08:41:45.0000000+00:00</time></trkpt><trkpt lat="21.298882" lon="105.630013"><ele>10.8</ele><time>2011-04-29T08:41:50.0000000+00:00</time></trkpt><trkpt lat="21.298355" lon="105.630028"><ele>9.1</ele><time>2011-04-29T08:41:55.0000000+00:00</time></trkpt><trkpt lat="21.297785" lon="105.630028"><ele>4.3</ele><time>2011-04-29T08:42:00.0000000+00:00</time></trkpt><trkpt lat="21.297222" lon="105.630051"><ele>1.4</ele><time>2011-04-29T08:42:05.0000000+00:00</time></trkpt><trkpt lat="21.296705" lon="105.630074"><ele>0.7</ele><time>2011-04-29T08:42:10.0000000+00:00</time></trkpt><trkpt lat="21.2962" lon="105.630119"><ele>-1.7</ele><time>2011-04-29T08:42:15.0000000+00:00</time></trkpt><trkpt lat="21.295679" lon="105.630211"><ele>-0.6</ele><time>2011-04-29T08:42:20.0000000+00:00</time></trkpt><trkpt lat="21.295156" lon="105.630333"><ele>-1.1</ele><time>2011-04-29T08:42:25.0000000+00:00</time></trkpt><trkpt lat="21.294643" lon="105.63047"><ele>0.2</ele><time>2011-04-29T08:42:30.0000000+00:00</time></trkpt><trkpt lat="21.294123" lon="105.630615"><ele>0.9</ele><time>2011-04-29T08:42:35.0000000+00:00</time></trkpt><trkpt lat="21.293592" lon="105.630768"><ele>2.3</ele><time>2011-04-29T08:42:40.0000000+00:00</time></trkpt><trkpt lat="21.293085" lon="105.630913"><ele>4.5</ele><time>2011-04-29T08:42:45.0000000+00:00</time></trkpt><trkpt lat="21.292589" lon="105.631042"><ele>4.6</ele><time>2011-04-29T08:42:50.0000000+00:00</time></trkpt><trkpt lat="21.292122" lon="105.631165"><ele>4.2</ele><time>2011-04-29T08:42:55.0000000+00:00</time></trkpt><trkpt lat="21.291672" lon="105.631287"><ele>4.8</ele><time>2011-04-29T08:43:00.0000000+00:00</time></trkpt><trkpt lat="21.291183" lon="105.631416"><ele>5.8</ele><time>2011-04-29T08:43:05.0000000+00:00</time></trkpt><trkpt lat="21.290674" lon="105.631546"><ele>6.4</ele><time>2011-04-29T08:43:10.0000000+00:00</time></trkpt><trkpt lat="21.290152" lon="105.631668"><ele>4.7</ele><time>2011-04-29T08:43:15.0000000+00:00</time></trkpt><trkpt lat="21.289581" lon="105.631798"><ele>2.0</ele><time>2011-04-29T08:43:20.0000000+00:00</time></trkpt><trkpt lat="21.288988" lon="105.63192"><ele>1.4</ele><time>2011-04-29T08:43:25.0000000+00:00</time></trkpt><trkpt lat="21.288391" lon="105.632057"><ele>1.2</ele><time>2011-04-29T08:43:30.0000000+00:00</time></trkpt><trkpt lat="21.287827" lon="105.632179"><ele>1.4</ele><time>2011-04-29T08:43:35.0000000+00:00</time></trkpt><trkpt lat="21.287249" lon="105.632317"><ele>2.2</ele><time>2011-04-29T08:43:40.0000000+00:00</time></trkpt><trkpt lat="21.286671" lon="105.632431"><ele>2.1</ele><time>2011-04-29T08:43:45.0000000+00:00</time></trkpt><trkpt lat="21.286131" lon="105.632545"><ele>1.6</ele><time>2011-04-29T08:43:50.0000000+00:00</time></trkpt><trkpt lat="21.285658" lon="105.632645"><ele>2.1</ele><time>2011-04-29T08:43:55.0000000+00:00</time></trkpt><trkpt lat="21.285286" lon="105.632706"><ele>3.1</ele><time>2011-04-29T08:44:00.0000000+00:00</time></trkpt><trkpt lat="21.285025" lon="105.632683"><ele>1.1</ele><time>2011-04-29T08:44:05.0000000+00:00</time></trkpt><trkpt lat="21.284786" lon="105.632591"><ele>1.8</ele><time>2011-04-29T08:44:10.0000000+00:00</time></trkpt><trkpt lat="21.284557" lon="105.632637"><ele>2.7</ele><time>2011-04-29T08:44:15.0000000+00:00</time></trkpt><trkpt lat="21.284441" lon="105.632874"><ele>3.4</ele><time>2011-04-29T08:44:20.0000000+00:00</time></trkpt><trkpt lat="21.284376" lon="105.633148"><ele>0.8</ele><time>2011-04-29T08:44:25.0000000+00:00</time></trkpt><trkpt lat="21.284262" lon="105.633362"><ele>2.6</ele><time>2011-04-29T08:44:30.0000000+00:00</time></trkpt><trkpt lat="21.284155" lon="105.633537"><ele>3.2</ele><time>2011-04-29T08:44:35.0000000+00:00</time></trkpt><trkpt lat="21.284052" lon="105.633675"><ele>2.3</ele><time>2011-04-29T08:44:40.0000000+00:00</time></trkpt><trkpt lat="21.283941" lon="105.633842"><ele>3.6</ele><time>2011-04-29T08:44:45.0000000+00:00</time></trkpt><trkpt lat="21.28384" lon="105.633987"><ele>3.4</ele><time>2011-04-29T08:44:50.0000000+00:00</time></trkpt><trkpt lat="21.283813" lon="105.634033"><ele>-1.2</ele><time>2011-04-29T08:44:55.0000000+00:00</time></trkpt><trkpt lat="21.283768" lon="105.634109"><ele>-2.7</ele><time>2011-04-29T08:45:00.0000000+00:00</time></trkpt><trkpt lat="21.283733" lon="105.634171"><ele>-3.7</ele><time>2011-04-29T08:45:05.0000000+00:00</time></trkpt><trkpt lat="21.283699" lon="105.634186"><ele>-4.9</ele><time>2011-04-29T08:45:10.0000000+00:00</time></trkpt><trkpt lat="21.283642" lon="105.63427"><ele>-5.4</ele><time>2011-04-29T08:45:15.0000000+00:00</time></trkpt><trkpt lat="21.283598" lon="105.634384"><ele>-2.0</ele><time>2011-04-29T08:45:20.0000000+00:00</time></trkpt><trkpt lat="21.283525" lon="105.634476"><ele>-0.2</ele><time>2011-04-29T08:45:25.0000000+00:00</time></trkpt><trkpt lat="21.283463" lon="105.63459"><ele>0.5</ele><time>2011-04-29T08:45:30.0000000+00:00</time></trkpt><trkpt lat="21.283415" lon="105.634682"><ele>1.2</ele><time>2011-04-29T08:45:35.0000000+00:00</time></trkpt><trkpt lat="21.283379" lon="105.634758"><ele>0.7</ele><time>2011-04-29T08:45:40.0000000+00:00</time></trkpt><trkpt lat="21.283346" lon="105.634827"><ele>1.9</ele><time>2011-04-29T08:45:45.0000000+00:00</time></trkpt><trkpt lat="21.283337" lon="105.634842"><ele>2.4</ele><time>2011-04-29T08:45:50.0000000+00:00</time></trkpt><trkpt lat="21.283295" lon="105.634941"><ele>4.3</ele><time>2011-04-29T08:45:55.0000000+00:00</time></trkpt><trkpt lat="21.283249" lon="105.634987"><ele>4.0</ele><time>2011-04-29T08:46:00.0000000+00:00</time></trkpt><trkpt lat="21.283239" lon="105.635033"><ele>3.9</ele><time>2011-04-29T08:46:05.0000000+00:00</time></trkpt><trkpt lat="21.283237" lon="105.63504"><ele>3.8</ele><time>2011-04-29T08:46:10.0000000+00:00</time></trkpt><trkpt lat="21.283237" lon="105.63504"><ele>3.8</ele><time>2011-04-29T08:46:15.0000000+00:00</time></trkpt><trkpt lat="21.283237" lon="105.63504"><ele>3.8</ele><time>2011-04-29T08:46:20.0000000+00:00</time></trkpt><trkpt lat="21.283236" lon="105.635048"><ele>3.8</ele><time>2011-04-29T08:46:25.0000000+00:00</time></trkpt><trkpt lat="21.283236" lon="105.635048"><ele>3.8</ele><time>2011-04-29T08:46:30.0000000+00:00</time></trkpt><trkpt lat="21.283236" lon="105.635048"><ele>3.7</ele><time>2011-04-29T08:46:35.0000000+00:00</time></trkpt><trkpt lat="21.283236" lon="105.635048"><ele>3.8</ele><time>2011-04-29T08:46:40.0000000+00:00</time></trkpt><trkpt lat="21.283236" lon="105.635048"><ele>3.7</ele><time>2011-04-29T08:46:45.0000000+00:00</time></trkpt><trkpt lat="21.283236" lon="105.635048"><ele>3.7</ele><time>2011-04-29T08:46:50.0000000+00:00</time></trkpt><trkpt lat="21.283236" lon="105.635048"><ele>3.8</ele><time>2011-04-29T08:46:55.0000000+00:00</time></trkpt><trkpt lat="21.283236" lon="105.635048"><ele>3.8</ele><time>2011-04-29T08:47:00.0000000+00:00</time></trkpt><trkpt lat="21.283236" lon="105.635048"><ele>3.8</ele><time>2011-04-29T08:47:05.0000000+00:00</time></trkpt><trkpt lat="21.283236" lon="105.635048"><ele>3.8</ele><time>2011-04-29T08:47:10.0000000+00:00</time></trkpt><trkpt lat="21.283236" lon="105.635048"><ele>3.8</ele><time>2011-04-29T08:47:15.0000000+00:00</time></trkpt><trkpt lat="21.283234" lon="105.63504"><ele>3.8</ele><time>2011-04-29T08:47:20.0000000+00:00</time></trkpt><trkpt lat="21.283234" lon="105.63504"><ele>3.8</ele><time>2011-04-29T08:47:25.0000000+00:00</time></trkpt><trkpt lat="21.283234" lon="105.63504"><ele>3.7</ele><time>2011-04-29T08:47:30.0000000+00:00</time></trkpt><trkpt lat="21.283234" lon="105.63504"><ele>3.7</ele><time>2011-04-29T08:47:35.0000000+00:00</time></trkpt><trkpt lat="21.283234" lon="105.63504"><ele>3.6</ele><time>2011-04-29T08:47:40.0000000+00:00</time></trkpt><trkpt lat="21.283234" lon="105.63504"><ele>3.5</ele><time>2011-04-29T08:47:45.0000000+00:00</time></trkpt><trkpt lat="21.283236" lon="105.63504"><ele>3.5</ele><time>2011-04-29T08:47:50.0000000+00:00</time></trkpt><trkpt lat="21.283236" lon="105.63504"><ele>3.5</ele><time>2011-04-29T08:47:55.0000000+00:00</time></trkpt><trkpt lat="21.283236" lon="105.63504"><ele>3.5</ele><time>2011-04-29T08:48:00.0000000+00:00</time></trkpt><trkpt lat="21.283236" lon="105.63504"><ele>3.5</ele><time>2011-04-29T08:48:05.0000000+00:00</time></trkpt><trkpt lat="21.283236" lon="105.63504"><ele>3.5</ele><time>2011-04-29T08:48:10.0000000+00:00</time></trkpt><trkpt lat="21.283236" lon="105.63504"><ele>3.6</ele><time>2011-04-29T08:48:15.0000000+00:00</time></trkpt><trkpt lat="21.283236" lon="105.63504"><ele>3.6</ele><time>2011-04-29T08:48:20.0000000+00:00</time></trkpt><trkpt lat="21.283234" lon="105.63504"><ele>3.6</ele><time>2011-04-29T08:48:25.0000000+00:00</time></trkpt><trkpt lat="21.283234" lon="105.63504"><ele>3.6</ele><time>2011-04-29T08:48:30.0000000+00:00</time></trkpt><trkpt lat="21.283234" lon="105.63504"><ele>3.6</ele><time>2011-04-29T08:48:35.0000000+00:00</time></trkpt><trkpt lat="21.283234" lon="105.63504"><ele>3.6</ele><time>2011-04-29T08:48:40.0000000+00:00</time></trkpt><trkpt lat="21.283234" lon="105.63504"><ele>3.6</ele><time>2011-04-29T08:48:45.0000000+00:00</time></trkpt><trkpt lat="21.283234" lon="105.63504"><ele>3.7</ele><time>2011-04-29T08:48:50.0000000+00:00</time></trkpt><trkpt lat="21.283203" lon="105.635117"><ele>4.5</ele><time>2011-04-29T08:48:55.0000000+00:00</time></trkpt><trkpt lat="21.283091" lon="105.63533"><ele>3.6</ele><time>2011-04-29T08:49:00.0000000+00:00</time></trkpt><trkpt lat="21.282955" lon="105.635582"><ele>3.0</ele><time>2011-04-29T08:49:05.0000000+00:00</time></trkpt><trkpt lat="21.282793" lon="105.635849"><ele>2.5</ele><time>2011-04-29T08:49:10.0000000+00:00</time></trkpt><trkpt lat="21.282585" lon="105.636185"><ele>4.4</ele><time>2011-04-29T08:49:15.0000000+00:00</time></trkpt><trkpt lat="21.282322" lon="105.636513"><ele>4.1</ele><time>2011-04-29T08:49:20.0000000+00:00</time></trkpt><trkpt lat="21.281971" lon="105.63681"><ele>4.2</ele><time>2011-04-29T08:49:25.0000000+00:00</time></trkpt><trkpt lat="21.28154" lon="105.637115"><ele>3.0</ele><time>2011-04-29T08:49:30.0000000+00:00</time></trkpt><trkpt lat="21.28101" lon="105.637421"><ele>1.1</ele><time>2011-04-29T08:49:35.0000000+00:00</time></trkpt><trkpt lat="21.28039" lon="105.637779"><ele>1.1</ele><time>2011-04-29T08:49:40.0000000+00:00</time></trkpt><trkpt lat="21.279703" lon="105.638176"><ele>0.2</ele><time>2011-04-29T08:49:45.0000000+00:00</time></trkpt><trkpt lat="21.279007" lon="105.638596"><ele>0.3</ele><time>2011-04-29T08:49:50.0000000+00:00</time></trkpt><trkpt lat="21.278313" lon="105.638992"><ele>1.7</ele><time>2011-04-29T08:49:55.0000000+00:00</time></trkpt><trkpt lat="21.277601" lon="105.639397"><ele>3.6</ele><time>2011-04-29T08:50:00.0000000+00:00</time></trkpt><trkpt lat="21.276871" lon="105.639816"><ele>5.3</ele><time>2011-04-29T08:50:05.0000000+00:00</time></trkpt><trkpt lat="21.27618" lon="105.640221"><ele>4.8</ele><time>2011-04-29T08:50:10.0000000+00:00</time></trkpt><trkpt lat="21.275537" lon="105.640602"><ele>5.3</ele><time>2011-04-29T08:50:15.0000000+00:00</time></trkpt><trkpt lat="21.274904" lon="105.640984"><ele>4.6</ele><time>2011-04-29T08:50:20.0000000+00:00</time></trkpt><trkpt lat="21.274302" lon="105.641457"><ele>2.5</ele><time>2011-04-29T08:50:25.0000000+00:00</time></trkpt><trkpt lat="21.273716" lon="105.642059"><ele>-0.5</ele><time>2011-04-29T08:50:30.0000000+00:00</time></trkpt><trkpt lat="21.273115" lon="105.642731"><ele>-1.8</ele><time>2011-04-29T08:50:35.0000000+00:00</time></trkpt><trkpt lat="21.272476" lon="105.643448"><ele>-3.3</ele><time>2011-04-29T08:50:40.0000000+00:00</time></trkpt><trkpt lat="21.271793" lon="105.644226"><ele>-4.4</ele><time>2011-04-29T08:50:45.0000000+00:00</time></trkpt><trkpt lat="21.271099" lon="105.645027"><ele>-4.7</ele><time>2011-04-29T08:50:50.0000000+00:00</time></trkpt><trkpt lat="21.270372" lon="105.645828"><ele>-3.2</ele><time>2011-04-29T08:50:55.0000000+00:00</time></trkpt><trkpt lat="21.269625" lon="105.646629"><ele>-3.8</ele><time>2011-04-29T08:51:00.0000000+00:00</time></trkpt><trkpt lat="21.268797" lon="105.647385"><ele>-3.9</ele><time>2011-04-29T08:51:05.0000000+00:00</time></trkpt><trkpt lat="21.267962" lon="105.648048"><ele>-4.3</ele><time>2011-04-29T08:51:10.0000000+00:00</time></trkpt><trkpt lat="21.267138" lon="105.648682"><ele>-5.2</ele><time>2011-04-29T08:51:15.0000000+00:00</time></trkpt><trkpt lat="21.266327" lon="105.649338"><ele>-5.5</ele><time>2011-04-29T08:51:20.0000000+00:00</time></trkpt><trkpt lat="21.265518" lon="105.650017"><ele>-5.4</ele><time>2011-04-29T08:51:25.0000000+00:00</time></trkpt><trkpt lat="21.264782" lon="105.650711"><ele>-4.3</ele><time>2011-04-29T08:51:30.0000000+00:00</time></trkpt><trkpt lat="21.264151" lon="105.651421"><ele>-5.6</ele><time>2011-04-29T08:51:35.0000000+00:00</time></trkpt><trkpt lat="21.26359" lon="105.652138"><ele>-5.4</ele><time>2011-04-29T08:51:40.0000000+00:00</time></trkpt><trkpt lat="21.263041" lon="105.652809"><ele>-5.1</ele><time>2011-04-29T08:51:45.0000000+00:00</time></trkpt><trkpt lat="21.262518" lon="105.653465"><ele>-4.8</ele><time>2011-04-29T08:51:50.0000000+00:00</time></trkpt><trkpt lat="21.262018" lon="105.654083"><ele>-6.1</ele><time>2011-04-29T08:51:55.0000000+00:00</time></trkpt><trkpt lat="21.261595" lon="105.654655"><ele>-5.5</ele><time>2011-04-29T08:52:00.0000000+00:00</time></trkpt><trkpt lat="21.261204" lon="105.65522"><ele>-1.5</ele><time>2011-04-29T08:52:05.0000000+00:00</time></trkpt><trkpt lat="21.260822" lon="105.655762"><ele>1.7</ele><time>2011-04-29T08:52:10.0000000+00:00</time></trkpt><trkpt lat="21.26045" lon="105.656296"><ele>3.6</ele><time>2011-04-29T08:52:15.0000000+00:00</time></trkpt><trkpt lat="21.260031" lon="105.656883"><ele>5.2</ele><time>2011-04-29T08:52:20.0000000+00:00</time></trkpt><trkpt lat="21.259602" lon="105.657494"><ele>7.8</ele><time>2011-04-29T08:52:25.0000000+00:00</time></trkpt><trkpt lat="21.259144" lon="105.658127"><ele>5.6</ele><time>2011-04-29T08:52:30.0000000+00:00</time></trkpt><trkpt lat="21.258675" lon="105.658783"><ele>3.8</ele><time>2011-04-29T08:52:35.0000000+00:00</time></trkpt><trkpt lat="21.25824" lon="105.659416"><ele>4.5</ele><time>2011-04-29T08:52:40.0000000+00:00</time></trkpt><trkpt lat="21.257902" lon="105.660049"><ele>4.8</ele><time>2011-04-29T08:52:45.0000000+00:00</time></trkpt><trkpt lat="21.257637" lon="105.660698"><ele>4.8</ele><time>2011-04-29T08:52:50.0000000+00:00</time></trkpt><trkpt lat="21.25742" lon="105.661369"><ele>4.1</ele><time>2011-04-29T08:52:55.0000000+00:00</time></trkpt><trkpt lat="21.257221" lon="105.662048"><ele>3.6</ele><time>2011-04-29T08:53:00.0000000+00:00</time></trkpt><trkpt lat="21.257027" lon="105.662727"><ele>3.9</ele><time>2011-04-29T08:53:05.0000000+00:00</time></trkpt><trkpt lat="21.256845" lon="105.663353"><ele>5.4</ele><time>2011-04-29T08:53:10.0000000+00:00</time></trkpt><trkpt lat="21.256649" lon="105.663994"><ele>6.8</ele><time>2011-04-29T08:53:15.0000000+00:00</time></trkpt><trkpt lat="21.256456" lon="105.664604"><ele>8.8</ele><time>2011-04-29T08:53:20.0000000+00:00</time></trkpt><trkpt lat="21.25626" lon="105.665215"><ele>10.7</ele><time>2011-04-29T08:53:25.0000000+00:00</time></trkpt><trkpt lat="21.256073" lon="105.66581"><ele>9.6</ele><time>2011-04-29T08:53:30.0000000+00:00</time></trkpt><trkpt lat="21.255838" lon="105.66629"><ele>6.0</ele><time>2011-04-29T08:53:35.0000000+00:00</time></trkpt><trkpt lat="21.255644" lon="105.666565"><ele>7.9</ele><time>2011-04-29T08:53:40.0000000+00:00</time></trkpt><trkpt lat="21.255465" lon="105.66671"><ele>6.7</ele><time>2011-04-29T08:53:45.0000000+00:00</time></trkpt><trkpt lat="21.255312" lon="105.666985"><ele>5.3</ele><time>2011-04-29T08:53:50.0000000+00:00</time></trkpt><trkpt lat="21.255098" lon="105.66732"><ele>6.2</ele><time>2011-04-29T08:53:55.0000000+00:00</time></trkpt><trkpt lat="21.25474" lon="105.667603"><ele>1.3</ele><time>2011-04-29T08:54:00.0000000+00:00</time></trkpt><trkpt lat="21.254311" lon="105.667885"><ele>-0.9</ele><time>2011-04-29T08:54:05.0000000+00:00</time></trkpt><trkpt lat="21.253853" lon="105.668121"><ele>-1.8</ele><time>2011-04-29T08:54:10.0000000+00:00</time></trkpt><trkpt lat="21.253389" lon="105.668365"><ele>-4.2</ele><time>2011-04-29T08:54:15.0000000+00:00</time></trkpt><trkpt lat="21.252934" lon="105.668625"><ele>-4.8</ele><time>2011-04-29T08:54:20.0000000+00:00</time></trkpt><trkpt lat="21.252449" lon="105.668884"><ele>-6.7</ele><time>2011-04-29T08:54:25.0000000+00:00</time></trkpt><trkpt lat="21.252001" lon="105.669128"><ele>-3.8</ele><time>2011-04-29T08:54:30.0000000+00:00</time></trkpt><trkpt lat="21.251602" lon="105.669365"><ele>-1.7</ele><time>2011-04-29T08:54:35.0000000+00:00</time></trkpt><trkpt lat="21.251234" lon="105.669678"><ele>-1.0</ele><time>2011-04-29T08:54:40.0000000+00:00</time></trkpt><trkpt lat="21.250896" lon="105.670029"><ele>-2.2</ele><time>2011-04-29T08:54:45.0000000+00:00</time></trkpt><trkpt lat="21.250622" lon="105.670326"><ele>-3.0</ele><time>2011-04-29T08:54:50.0000000+00:00</time></trkpt><trkpt lat="21.250298" lon="105.670692"><ele>-4.6</ele><time>2011-04-29T08:54:55.0000000+00:00</time></trkpt><trkpt lat="21.249933" lon="105.671135"><ele>-3.4</ele><time>2011-04-29T08:55:00.0000000+00:00</time></trkpt><trkpt lat="21.249552" lon="105.67157"><ele>-3.9</ele><time>2011-04-29T08:55:05.0000000+00:00</time></trkpt><trkpt lat="21.249212" lon="105.671997"><ele>-2.7</ele><time>2011-04-29T08:55:10.0000000+00:00</time></trkpt><trkpt lat="21.248871" lon="105.672424"><ele>-2.6</ele><time>2011-04-29T08:55:15.0000000+00:00</time></trkpt><trkpt lat="21.248499" lon="105.672852"><ele>-3.1</ele><time>2011-04-29T08:55:20.0000000+00:00</time></trkpt><trkpt lat="21.248083" lon="105.673355"><ele>-1.5</ele><time>2011-04-29T08:55:25.0000000+00:00</time></trkpt><trkpt lat="21.247656" lon="105.673874"><ele>-1.8</ele><time>2011-04-29T08:55:30.0000000+00:00</time></trkpt><trkpt lat="21.247234" lon="105.674316"><ele>-3.6</ele><time>2011-04-29T08:55:35.0000000+00:00</time></trkpt><trkpt lat="21.246809" lon="105.674721"><ele>-3.6</ele><time>2011-04-29T08:55:40.0000000+00:00</time></trkpt><trkpt lat="21.246384" lon="105.675102"><ele>-3.3</ele><time>2011-04-29T08:55:45.0000000+00:00</time></trkpt><trkpt lat="21.245953" lon="105.675468"><ele>-4.2</ele><time>2011-04-29T08:55:50.0000000+00:00</time></trkpt><trkpt lat="21.24555" lon="105.675842"><ele>-5.1</ele><time>2011-04-29T08:55:55.0000000+00:00</time></trkpt><trkpt lat="21.24519" lon="105.67617"><ele>-6.7</ele><time>2011-04-29T08:56:00.0000000+00:00</time></trkpt><trkpt lat="21.244875" lon="105.67646"><ele>-6.4</ele><time>2011-04-29T08:56:05.0000000+00:00</time></trkpt><trkpt lat="21.244587" lon="105.676697"><ele>-9.6</ele><time>2011-04-29T08:56:10.0000000+00:00</time></trkpt><trkpt lat="21.244398" lon="105.676865"><ele>-9.6</ele><time>2011-04-29T08:56:15.0000000+00:00</time></trkpt><trkpt lat="21.244137" lon="105.677101"><ele>-8.8</ele><time>2011-04-29T08:56:20.0000000+00:00</time></trkpt><trkpt lat="21.243847" lon="105.677361"><ele>-8.3</ele><time>2011-04-29T08:56:25.0000000+00:00</time></trkpt><trkpt lat="21.243477" lon="105.677666"><ele>-5.3</ele><time>2011-04-29T08:56:30.0000000+00:00</time></trkpt><trkpt lat="21.24308" lon="105.67804"><ele>-2.5</ele><time>2011-04-29T08:56:35.0000000+00:00</time></trkpt><trkpt lat="21.24264" lon="105.678497"><ele>-2.1</ele><time>2011-04-29T08:56:40.0000000+00:00</time></trkpt><trkpt lat="21.2421" lon="105.679001"><ele>-3.4</ele><time>2011-04-29T08:56:45.0000000+00:00</time></trkpt><trkpt lat="21.241539" lon="105.679543"><ele>-5.7</ele><time>2011-04-29T08:56:50.0000000+00:00</time></trkpt><trkpt lat="21.240953" lon="105.680107"><ele>-6.5</ele><time>2011-04-29T08:56:55.0000000+00:00</time></trkpt><trkpt lat="21.240398" lon="105.680695"><ele>-7.2</ele><time>2011-04-29T08:57:00.0000000+00:00</time></trkpt><trkpt lat="21.239971" lon="105.681374"><ele>-5.0</ele><time>2011-04-29T08:57:05.0000000+00:00</time></trkpt><trkpt lat="21.239672" lon="105.68206"><ele>-4.0</ele><time>2011-04-29T08:57:10.0000000+00:00</time></trkpt><trkpt lat="21.23942" lon="105.682701"><ele>-2.7</ele><time>2011-04-29T08:57:15.0000000+00:00</time></trkpt><trkpt lat="21.239166" lon="105.683304"><ele>-2.0</ele><time>2011-04-29T08:57:20.0000000+00:00</time></trkpt><trkpt lat="21.238916" lon="105.683929"><ele>1.7</ele><time>2011-04-29T08:57:25.0000000+00:00</time></trkpt><trkpt lat="21.238651" lon="105.684563"><ele>4.6</ele><time>2011-04-29T08:57:30.0000000+00:00</time></trkpt><trkpt lat="21.238373" lon="105.685135"><ele>4.0</ele><time>2011-04-29T08:57:35.0000000+00:00</time></trkpt><trkpt lat="21.23806" lon="105.685684"><ele>4.9</ele><time>2011-04-29T08:57:40.0000000+00:00</time></trkpt><trkpt lat="21.237722" lon="105.686195"><ele>4.3</ele><time>2011-04-29T08:57:45.0000000+00:00</time></trkpt><trkpt lat="21.237326" lon="105.686676"><ele>2.3</ele><time>2011-04-29T08:57:50.0000000+00:00</time></trkpt><trkpt lat="21.236891" lon="105.687172"><ele>0.6</ele><time>2011-04-29T08:57:55.0000000+00:00</time></trkpt><trkpt lat="21.236395" lon="105.687561"><ele>-0.9</ele><time>2011-04-29T08:58:00.0000000+00:00</time></trkpt><trkpt lat="21.235874" lon="105.687981"><ele>-1.2</ele><time>2011-04-29T08:58:05.0000000+00:00</time></trkpt><trkpt lat="21.235319" lon="105.688347"><ele>0.0</ele><time>2011-04-29T08:58:10.0000000+00:00</time></trkpt><trkpt lat="21.234749" lon="105.68869"><ele>-0.3</ele><time>2011-04-29T08:58:15.0000000+00:00</time></trkpt><trkpt lat="21.234205" lon="105.689034"><ele>-2.0</ele><time>2011-04-29T08:58:20.0000000+00:00</time></trkpt><trkpt lat="21.233719" lon="105.689346"><ele>-0.5</ele><time>2011-04-29T08:58:25.0000000+00:00</time></trkpt><trkpt lat="21.233269" lon="105.689636"><ele>1.3</ele><time>2011-04-29T08:58:30.0000000+00:00</time></trkpt><trkpt lat="21.232845" lon="105.689949"><ele>2.5</ele><time>2011-04-29T08:58:35.0000000+00:00</time></trkpt><trkpt lat="21.232481" lon="105.6903"><ele>1.6</ele><time>2011-04-29T08:58:40.0000000+00:00</time></trkpt><trkpt lat="21.232197" lon="105.690727"><ele>3.2</ele><time>2011-04-29T08:58:45.0000000+00:00</time></trkpt><trkpt lat="21.231926" lon="105.691193"><ele>2.0</ele><time>2011-04-29T08:58:50.0000000+00:00</time></trkpt><trkpt lat="21.231699" lon="105.691612"><ele>3.9</ele><time>2011-04-29T08:58:55.0000000+00:00</time></trkpt><trkpt lat="21.23148" lon="105.692032"><ele>5.6</ele><time>2011-04-29T08:59:00.0000000+00:00</time></trkpt><trkpt lat="21.231293" lon="105.692398"><ele>6.7</ele><time>2011-04-29T08:59:05.0000000+00:00</time></trkpt><trkpt lat="21.231159" lon="105.692665"><ele>10.3</ele><time>2011-04-29T08:59:10.0000000+00:00</time></trkpt><trkpt lat="21.231096" lon="105.692734"><ele>12.9</ele><time>2011-04-29T08:59:15.0000000+00:00</time></trkpt><trkpt lat="21.231068" lon="105.69278"><ele>14.9</ele><time>2011-04-29T08:59:20.0000000+00:00</time></trkpt><trkpt lat="21.231054" lon="105.692795"><ele>17.0</ele><time>2011-04-29T08:59:25.0000000+00:00</time></trkpt><trkpt lat="21.231047" lon="105.69281"><ele>18.3</ele><time>2011-04-29T08:59:30.0000000+00:00</time></trkpt><trkpt lat="21.231039" lon="105.692833"><ele>19.6</ele><time>2011-04-29T08:59:35.0000000+00:00</time></trkpt><trkpt lat="21.23103" lon="105.692863"><ele>20.9</ele><time>2011-04-29T08:59:40.0000000+00:00</time></trkpt><trkpt lat="21.231003" lon="105.693008"><ele>20.4</ele><time>2011-04-29T08:59:45.0000000+00:00</time></trkpt><trkpt lat="21.230947" lon="105.69326"><ele>21.3</ele><time>2011-04-29T08:59:50.0000000+00:00</time></trkpt><trkpt lat="21.230873" lon="105.693619"><ele>20.5</ele><time>2011-04-29T08:59:55.0000000+00:00</time></trkpt><trkpt lat="21.23085" lon="105.694084"><ele>20.3</ele><time>2011-04-29T09:00:00.0000000+00:00</time></trkpt><trkpt lat="21.230856" lon="105.694603"><ele>19.8</ele><time>2011-04-29T09:00:05.0000000+00:00</time></trkpt><trkpt lat="21.230883" lon="105.695084"><ele>14.0</ele><time>2011-04-29T09:00:10.0000000+00:00</time></trkpt><trkpt lat="21.230904" lon="105.695602"><ele>11.1</ele><time>2011-04-29T09:00:15.0000000+00:00</time></trkpt><trkpt lat="21.230923" lon="105.696129"><ele>9.4</ele><time>2011-04-29T09:00:20.0000000+00:00</time></trkpt><trkpt lat="21.230932" lon="105.696678"><ele>6.9</ele><time>2011-04-29T09:00:25.0000000+00:00</time></trkpt><trkpt lat="21.230949" lon="105.697189"><ele>5.8</ele><time>2011-04-29T09:00:30.0000000+00:00</time></trkpt><trkpt lat="21.230965" lon="105.697739"><ele>0.9</ele><time>2011-04-29T09:00:35.0000000+00:00</time></trkpt><trkpt lat="21.230991" lon="105.698296"><ele>-5.9</ele><time>2011-04-29T09:00:40.0000000+00:00</time></trkpt><trkpt lat="21.231005" lon="105.698845"><ele>-9.1</ele><time>2011-04-29T09:00:45.0000000+00:00</time></trkpt><trkpt lat="21.231012" lon="105.699379"><ele>-11.3</ele><time>2011-04-29T09:00:50.0000000+00:00</time></trkpt><trkpt lat="21.23102" lon="105.699898"><ele>-13.2</ele><time>2011-04-29T09:00:55.0000000+00:00</time></trkpt><trkpt lat="21.231039" lon="105.700409"><ele>-12.8</ele><time>2011-04-29T09:01:00.0000000+00:00</time></trkpt><trkpt lat="21.231064" lon="105.70089"><ele>-12.8</ele><time>2011-04-29T09:01:05.0000000+00:00</time></trkpt><trkpt lat="21.231064" lon="105.701309"><ele>-12.2</ele><time>2011-04-29T09:01:10.0000000+00:00</time></trkpt><trkpt lat="21.231079" lon="105.701645"><ele>-9.6</ele><time>2011-04-29T09:01:15.0000000+00:00</time></trkpt><trkpt lat="21.231081" lon="105.701805"><ele>-6.0</ele><time>2011-04-29T09:01:20.0000000+00:00</time></trkpt><trkpt lat="21.231092" lon="105.701874"><ele>-0.9</ele><time>2011-04-29T09:01:25.0000000+00:00</time></trkpt><trkpt lat="21.2311" lon="105.702049"><ele>2.8</ele><time>2011-04-29T09:01:30.0000000+00:00</time></trkpt><trkpt lat="21.231129" lon="105.702354"><ele>1.8</ele><time>2011-04-29T09:01:35.0000000+00:00</time></trkpt><trkpt lat="21.231131" lon="105.702751"><ele>1.0</ele><time>2011-04-29T09:01:40.0000000+00:00</time></trkpt><trkpt lat="21.231157" lon="105.703209"><ele>5.6</ele><time>2011-04-29T09:01:45.0000000+00:00</time></trkpt><trkpt lat="21.231173" lon="105.703697"><ele>10.0</ele><time>2011-04-29T09:01:50.0000000+00:00</time></trkpt><trkpt lat="21.23118" lon="105.704201"><ele>13.5</ele><time>2011-04-29T09:01:55.0000000+00:00</time></trkpt><trkpt lat="21.231205" lon="105.704704"><ele>13.8</ele><time>2011-04-29T09:02:00.0000000+00:00</time></trkpt><trkpt lat="21.231232" lon="105.705185"><ele>15.2</ele><time>2011-04-29T09:02:05.0000000+00:00</time></trkpt><trkpt lat="21.231253" lon="105.705643"><ele>16.0</ele><time>2011-04-29T09:02:10.0000000+00:00</time></trkpt><trkpt lat="21.231268" lon="105.705887"><ele>14.6</ele><time>2011-04-29T09:02:15.0000000+00:00</time></trkpt><trkpt lat="21.231297" lon="105.705978"><ele>15.1</ele><time>2011-04-29T09:02:20.0000000+00:00</time></trkpt><trkpt lat="21.231312" lon="105.706108"><ele>15.2</ele><time>2011-04-29T09:02:25.0000000+00:00</time></trkpt><trkpt lat="21.231321" lon="105.706238"><ele>16.4</ele><time>2011-04-29T09:02:30.0000000+00:00</time></trkpt><trkpt lat="21.231327" lon="105.70636"><ele>13.9</ele><time>2011-04-29T09:02:35.0000000+00:00</time></trkpt><trkpt lat="21.23131" lon="105.706604"><ele>9.8</ele><time>2011-04-29T09:02:40.0000000+00:00</time></trkpt><trkpt lat="21.231319" lon="105.706985"><ele>11.3</ele><time>2011-04-29T09:02:45.0000000+00:00</time></trkpt><trkpt lat="21.231312" lon="105.70742"><ele>12.1</ele><time>2011-04-29T09:02:50.0000000+00:00</time></trkpt><trkpt lat="21.231344" lon="105.707932"><ele>16.5</ele><time>2011-04-29T09:02:55.0000000+00:00</time></trkpt><trkpt lat="21.231348" lon="105.708412"><ele>19.0</ele><time>2011-04-29T09:03:00.0000000+00:00</time></trkpt><trkpt lat="21.231356" lon="105.708862"><ele>20.8</ele><time>2011-04-29T09:03:05.0000000+00:00</time></trkpt><trkpt lat="21.231342" lon="105.709343"><ele>24.6</ele><time>2011-04-29T09:03:10.0000000+00:00</time></trkpt><trkpt lat="21.231333" lon="105.709869"><ele>27.5</ele><time>2011-04-29T09:03:15.0000000+00:00</time></trkpt><trkpt lat="21.231333" lon="105.71035"><ele>31.1</ele><time>2011-04-29T09:03:20.0000000+00:00</time></trkpt><trkpt lat="21.231323" lon="105.710663"><ele>25.8</ele><time>2011-04-29T09:03:25.0000000+00:00</time></trkpt><trkpt lat="21.231358" lon="105.710991"><ele>24.7</ele><time>2011-04-29T09:03:30.0000000+00:00</time></trkpt><trkpt lat="21.23152" lon="105.711426"><ele>21.7</ele><time>2011-04-29T09:03:35.0000000+00:00</time></trkpt><trkpt lat="21.231722" lon="105.711906"><ele>17.3</ele><time>2011-04-29T09:03:40.0000000+00:00</time></trkpt><trkpt lat="21.231949" lon="105.712433"><ele>10.2</ele><time>2011-04-29T09:03:45.0000000+00:00</time></trkpt><trkpt lat="21.232176" lon="105.712975"><ele>6.4</ele><time>2011-04-29T09:03:50.0000000+00:00</time></trkpt><trkpt lat="21.232391" lon="105.713486"><ele>2.2</ele><time>2011-04-29T09:03:55.0000000+00:00</time></trkpt><trkpt lat="21.232603" lon="105.713997"><ele>-2.2</ele><time>2011-04-29T09:04:00.0000000+00:00</time></trkpt><trkpt lat="21.232821" lon="105.714523"><ele>-6.2</ele><time>2011-04-29T09:04:05.0000000+00:00</time></trkpt><trkpt lat="21.233032" lon="105.715042"><ele>-8.2</ele><time>2011-04-29T09:04:10.0000000+00:00</time></trkpt><trkpt lat="21.233269" lon="105.715591"><ele>-5.7</ele><time>2011-04-29T09:04:15.0000000+00:00</time></trkpt><trkpt lat="21.233467" lon="105.716072"><ele>-7.4</ele><time>2011-04-29T09:04:20.0000000+00:00</time></trkpt><trkpt lat="21.233681" lon="105.716576"><ele>-5.8</ele><time>2011-04-29T09:04:25.0000000+00:00</time></trkpt><trkpt lat="21.233877" lon="105.717056"><ele>-6.2</ele><time>2011-04-29T09:04:30.0000000+00:00</time></trkpt><trkpt lat="21.234083" lon="105.717545"><ele>-7.4</ele><time>2011-04-29T09:04:35.0000000+00:00</time></trkpt><trkpt lat="21.23432" lon="105.71801"><ele>-7.1</ele><time>2011-04-29T09:04:40.0000000+00:00</time></trkpt><trkpt lat="21.234634" lon="105.718513"><ele>-6.1</ele><time>2011-04-29T09:04:45.0000000+00:00</time></trkpt><trkpt lat="21.234955" lon="105.719032"><ele>-6.4</ele><time>2011-04-29T09:04:50.0000000+00:00</time></trkpt><trkpt lat="21.235275" lon="105.719543"><ele>-4.8</ele><time>2011-04-29T09:04:55.0000000+00:00</time></trkpt><trkpt lat="21.235575" lon="105.720001"><ele>-3.5</ele><time>2011-04-29T09:05:00.0000000+00:00</time></trkpt><trkpt lat="21.235863" lon="105.720428"><ele>-4.5</ele><time>2011-04-29T09:05:05.0000000+00:00</time></trkpt><trkpt lat="21.236132" lon="105.720833"><ele>-4.9</ele><time>2011-04-29T09:05:10.0000000+00:00</time></trkpt><trkpt lat="21.236422" lon="105.721275"><ele>-5.4</ele><time>2011-04-29T09:05:15.0000000+00:00</time></trkpt><trkpt lat="21.236671" lon="105.721695"><ele>-4.4</ele><time>2011-04-29T09:05:20.0000000+00:00</time></trkpt><trkpt lat="21.236893" lon="105.722076"><ele>-3.9</ele><time>2011-04-29T09:05:25.0000000+00:00</time></trkpt><trkpt lat="21.237062" lon="105.72242"><ele>-6.2</ele><time>2011-04-29T09:05:30.0000000+00:00</time></trkpt><trkpt lat="21.237257" lon="105.722794"><ele>-8.5</ele><time>2011-04-29T09:05:35.0000000+00:00</time></trkpt><trkpt lat="21.237467" lon="105.723167"><ele>-7.3</ele><time>2011-04-29T09:05:40.0000000+00:00</time></trkpt><trkpt lat="21.237663" lon="105.723549"><ele>-6.7</ele><time>2011-04-29T09:05:45.0000000+00:00</time></trkpt><trkpt lat="21.237856" lon="105.723946"><ele>-2.8</ele><time>2011-04-29T09:05:50.0000000+00:00</time></trkpt><trkpt lat="21.238049" lon="105.72435"><ele>-2.1</ele><time>2011-04-29T09:05:55.0000000+00:00</time></trkpt><trkpt lat="21.238234" lon="105.724808"><ele>-1.4</ele><time>2011-04-29T09:06:00.0000000+00:00</time></trkpt><trkpt lat="21.23843" lon="105.725273"><ele>-2.0</ele><time>2011-04-29T09:06:05.0000000+00:00</time></trkpt><trkpt lat="21.238602" lon="105.725739"><ele>-3.1</ele><time>2011-04-29T09:06:10.0000000+00:00</time></trkpt><trkpt lat="21.23876" lon="105.726189"><ele>-4.4</ele><time>2011-04-29T09:06:15.0000000+00:00</time></trkpt><trkpt lat="21.238932" lon="105.726624"><ele>-3.1</ele><time>2011-04-29T09:06:20.0000000+00:00</time></trkpt><trkpt lat="21.239101" lon="105.727058"><ele>-3.5</ele><time>2011-04-29T09:06:25.0000000+00:00</time></trkpt><trkpt lat="21.239244" lon="105.727501"><ele>-3.3</ele><time>2011-04-29T09:06:30.0000000+00:00</time></trkpt><trkpt lat="21.239431" lon="105.727936"><ele>-3.7</ele><time>2011-04-29T09:06:35.0000000+00:00</time></trkpt><trkpt lat="21.239595" lon="105.728355"><ele>-3.4</ele><time>2011-04-29T09:06:40.0000000+00:00</time></trkpt><trkpt lat="21.23974" lon="105.728783"><ele>-3.2</ele><time>2011-04-29T09:06:45.0000000+00:00</time></trkpt><trkpt lat="21.239834" lon="105.729141"><ele>-5.4</ele><time>2011-04-29T09:06:50.0000000+00:00</time></trkpt><trkpt lat="21.239933" lon="105.7295"><ele>-4.1</ele><time>2011-04-29T09:06:55.0000000+00:00</time></trkpt><trkpt lat="21.240004" lon="105.729919"><ele>-3.5</ele><time>2011-04-29T09:07:00.0000000+00:00</time></trkpt><trkpt lat="21.240021" lon="105.730408"><ele>-2.8</ele><time>2011-04-29T09:07:05.0000000+00:00</time></trkpt><trkpt lat="21.240017" lon="105.730881"><ele>0.9</ele><time>2011-04-29T09:07:10.0000000+00:00</time></trkpt><trkpt lat="21.24003" lon="105.731346"><ele>3.1</ele><time>2011-04-29T09:07:15.0000000+00:00</time></trkpt><trkpt lat="21.240042" lon="105.731781"><ele>5.3</ele><time>2011-04-29T09:07:20.0000000+00:00</time></trkpt><trkpt lat="21.240051" lon="105.732208"><ele>3.7</ele><time>2011-04-29T09:07:25.0000000+00:00</time></trkpt><trkpt lat="21.240074" lon="105.732651"><ele>3.1</ele><time>2011-04-29T09:07:30.0000000+00:00</time></trkpt><trkpt lat="21.240103" lon="105.733154"><ele>4.3</ele><time>2011-04-29T09:07:35.0000000+00:00</time></trkpt><trkpt lat="21.240101" lon="105.733612"><ele>5.0</ele><time>2011-04-29T09:07:40.0000000+00:00</time></trkpt><trkpt lat="21.240103" lon="105.734116"><ele>6.4</ele><time>2011-04-29T09:07:45.0000000+00:00</time></trkpt><trkpt lat="21.240107" lon="105.734627"><ele>8.3</ele><time>2011-04-29T09:07:50.0000000+00:00</time></trkpt><trkpt lat="21.24012" lon="105.735115"><ele>9.1</ele><time>2011-04-29T09:07:55.0000000+00:00</time></trkpt><trkpt lat="21.240158" lon="105.735634"><ele>6.2</ele><time>2011-04-29T09:08:00.0000000+00:00</time></trkpt><trkpt lat="21.240173" lon="105.736176"><ele>5.6</ele><time>2011-04-29T09:08:05.0000000+00:00</time></trkpt><trkpt lat="21.240187" lon="105.736748"><ele>5.6</ele><time>2011-04-29T09:08:10.0000000+00:00</time></trkpt><trkpt lat="21.240206" lon="105.737312"><ele>6.0</ele><time>2011-04-29T09:08:15.0000000+00:00</time></trkpt><trkpt lat="21.240219" lon="105.737839"><ele>7.8</ele><time>2011-04-29T09:08:20.0000000+00:00</time></trkpt><trkpt lat="21.240175" lon="105.738251"><ele>7.5</ele><time>2011-04-29T09:08:25.0000000+00:00</time></trkpt><trkpt lat="21.24017" lon="105.738617"><ele>8.4</ele><time>2011-04-29T09:08:30.0000000+00:00</time></trkpt><trkpt lat="21.240168" lon="105.73877"><ele>8.5</ele><time>2011-04-29T09:08:35.0000000+00:00</time></trkpt><trkpt lat="21.24017" lon="105.738815"><ele>7.2</ele><time>2011-04-29T09:08:40.0000000+00:00</time></trkpt><trkpt lat="21.240173" lon="105.739006"><ele>6.2</ele><time>2011-04-29T09:08:45.0000000+00:00</time></trkpt><trkpt lat="21.24015" lon="105.739326"><ele>3.8</ele><time>2011-04-29T09:08:50.0000000+00:00</time></trkpt><trkpt lat="21.240046" lon="105.739754"><ele>1.3</ele><time>2011-04-29T09:08:55.0000000+00:00</time></trkpt><trkpt lat="21.239857" lon="105.740181"><ele>-1.0</ele><time>2011-04-29T09:09:00.0000000+00:00</time></trkpt><trkpt lat="21.239613" lon="105.740593"><ele>-1.3</ele><time>2011-04-29T09:09:05.0000000+00:00</time></trkpt><trkpt lat="21.239376" lon="105.740944"><ele>-0.9</ele><time>2011-04-29T09:09:10.0000000+00:00</time></trkpt><trkpt lat="21.239155" lon="105.741234"><ele>-2.7</ele><time>2011-04-29T09:09:15.0000000+00:00</time></trkpt><trkpt lat="21.238958" lon="105.741493"><ele>-4.1</ele><time>2011-04-29T09:09:20.0000000+00:00</time></trkpt><trkpt lat="21.23877" lon="105.741745"><ele>-5.6</ele><time>2011-04-29T09:09:25.0000000+00:00</time></trkpt><trkpt lat="21.238535" lon="105.742073"><ele>-4.9</ele><time>2011-04-29T09:09:30.0000000+00:00</time></trkpt><trkpt lat="21.238268" lon="105.742447"><ele>-2.8</ele><time>2011-04-29T09:09:35.0000000+00:00</time></trkpt><trkpt lat="21.237955" lon="105.742882"><ele>-1.6</ele><time>2011-04-29T09:09:40.0000000+00:00</time></trkpt><trkpt lat="21.237602" lon="105.743355"><ele>0.5</ele><time>2011-04-29T09:09:45.0000000+00:00</time></trkpt><trkpt lat="21.237225" lon="105.743896"><ele>3.2</ele><time>2011-04-29T09:09:50.0000000+00:00</time></trkpt><trkpt lat="21.2369" lon="105.744461"><ele>3.7</ele><time>2011-04-29T09:09:55.0000000+00:00</time></trkpt><trkpt lat="21.236582" lon="105.745041"><ele>2.4</ele><time>2011-04-29T09:10:00.0000000+00:00</time></trkpt><trkpt lat="21.236252" lon="105.745628"><ele>3.9</ele><time>2011-04-29T09:10:05.0000000+00:00</time></trkpt><trkpt lat="21.235937" lon="105.746185"><ele>5.0</ele><time>2011-04-29T09:10:10.0000000+00:00</time></trkpt><trkpt lat="21.23559" lon="105.746758"><ele>4.1</ele><time>2011-04-29T09:10:15.0000000+00:00</time></trkpt><trkpt lat="21.23521" lon="105.74736"><ele>3.8</ele><time>2011-04-29T09:10:20.0000000+00:00</time></trkpt><trkpt lat="21.23484" lon="105.74791"><ele>3.7</ele><time>2011-04-29T09:10:25.0000000+00:00</time></trkpt><trkpt lat="21.234507" lon="105.748398"><ele>4.5</ele><time>2011-04-29T09:10:30.0000000+00:00</time></trkpt><trkpt lat="21.234234" lon="105.748825"><ele>3.2</ele><time>2011-04-29T09:10:35.0000000+00:00</time></trkpt><trkpt lat="21.233959" lon="105.749245"><ele>4.0</ele><time>2011-04-29T09:10:40.0000000+00:00</time></trkpt><trkpt lat="21.233662" lon="105.749695"><ele>3.3</ele><time>2011-04-29T09:10:45.0000000+00:00</time></trkpt><trkpt lat="21.23336" lon="105.750214"><ele>1.4</ele><time>2011-04-29T09:10:50.0000000+00:00</time></trkpt><trkpt lat="21.233112" lon="105.750771"><ele>3.7</ele><time>2011-04-29T09:10:55.0000000+00:00</time></trkpt><trkpt lat="21.232904" lon="105.751312"><ele>3.1</ele><time>2011-04-29T09:11:00.0000000+00:00</time></trkpt><trkpt lat="21.2327" lon="105.751884"><ele>1.3</ele><time>2011-04-29T09:11:05.0000000+00:00</time></trkpt><trkpt lat="21.232496" lon="105.75251"><ele>0.4</ele><time>2011-04-29T09:11:10.0000000+00:00</time></trkpt><trkpt lat="21.232279" lon="105.753113"><ele>-0.5</ele><time>2011-04-29T09:11:15.0000000+00:00</time></trkpt><trkpt lat="21.232052" lon="105.753769"><ele>-0.2</ele><time>2011-04-29T09:11:20.0000000+00:00</time></trkpt><trkpt lat="21.231794" lon="105.754463"><ele>-0.7</ele><time>2011-04-29T09:11:25.0000000+00:00</time></trkpt><trkpt lat="21.23156" lon="105.755135"><ele>-0.5</ele><time>2011-04-29T09:11:30.0000000+00:00</time></trkpt><trkpt lat="21.231297" lon="105.755768"><ele>1.1</ele><time>2011-04-29T09:11:35.0000000+00:00</time></trkpt><trkpt lat="21.230997" lon="105.756355"><ele>3.1</ele><time>2011-04-29T09:11:40.0000000+00:00</time></trkpt><trkpt lat="21.230604" lon="105.756935"><ele>4.7</ele><time>2011-04-29T09:11:45.0000000+00:00</time></trkpt><trkpt lat="21.230211" lon="105.757492"><ele>4.6</ele><time>2011-04-29T09:11:50.0000000+00:00</time></trkpt><trkpt lat="21.229811" lon="105.758041"><ele>5.5</ele><time>2011-04-29T09:11:55.0000000+00:00</time></trkpt><trkpt lat="21.229416" lon="105.758575"><ele>5.8</ele><time>2011-04-29T09:12:00.0000000+00:00</time></trkpt><trkpt lat="21.229053" lon="105.759071"><ele>5.1</ele><time>2011-04-29T09:12:05.0000000+00:00</time></trkpt><trkpt lat="21.228668" lon="105.75959"><ele>5.5</ele><time>2011-04-29T09:12:10.0000000+00:00</time></trkpt><trkpt lat="21.228287" lon="105.760147"><ele>5.2</ele><time>2011-04-29T09:12:15.0000000+00:00</time></trkpt><trkpt lat="21.22789" lon="105.760696"><ele>3.8</ele><time>2011-04-29T09:12:20.0000000+00:00</time></trkpt><trkpt lat="21.227505" lon="105.76123"><ele>4.6</ele><time>2011-04-29T09:12:25.0000000+00:00</time></trkpt><trkpt lat="21.227139" lon="105.761765"><ele>7.3</ele><time>2011-04-29T09:12:30.0000000+00:00</time></trkpt><trkpt lat="21.226828" lon="105.762215"><ele>8.1</ele><time>2011-04-29T09:12:35.0000000+00:00</time></trkpt><trkpt lat="21.226631" lon="105.762482"><ele>9.1</ele><time>2011-04-29T09:12:40.0000000+00:00</time></trkpt><trkpt lat="21.226553" lon="105.762604"><ele>9.6</ele><time>2011-04-29T09:12:45.0000000+00:00</time></trkpt><trkpt lat="21.226484" lon="105.762718"><ele>10.1</ele><time>2011-04-29T09:12:50.0000000+00:00</time></trkpt><trkpt lat="21.226299" lon="105.762978"><ele>10.5</ele><time>2011-04-29T09:12:55.0000000+00:00</time></trkpt><trkpt lat="21.226053" lon="105.763344"><ele>12.0</ele><time>2011-04-29T09:13:00.0000000+00:00</time></trkpt><trkpt lat="21.225727" lon="105.763779"><ele>12.7</ele><time>2011-04-29T09:13:05.0000000+00:00</time></trkpt><trkpt lat="21.225412" lon="105.764221"><ele>12.6</ele><time>2011-04-29T09:13:10.0000000+00:00</time></trkpt><trkpt lat="21.225063" lon="105.764702"><ele>12.5</ele><time>2011-04-29T09:13:15.0000000+00:00</time></trkpt><trkpt lat="21.224714" lon="105.765213"><ele>12.5</ele><time>2011-04-29T09:13:20.0000000+00:00</time></trkpt><trkpt lat="21.224346" lon="105.765755"><ele>12.1</ele><time>2011-04-29T09:13:25.0000000+00:00</time></trkpt><trkpt lat="21.223967" lon="105.766281"><ele>12.1</ele><time>2011-04-29T09:13:30.0000000+00:00</time></trkpt><trkpt lat="21.22361" lon="105.766792"><ele>12.6</ele><time>2011-04-29T09:13:35.0000000+00:00</time></trkpt><trkpt lat="21.223284" lon="105.76725"><ele>11.7</ele><time>2011-04-29T09:13:40.0000000+00:00</time></trkpt><trkpt lat="21.223" lon="105.76767"><ele>12.6</ele><time>2011-04-29T09:13:45.0000000+00:00</time></trkpt><trkpt lat="21.222723" lon="105.768044"><ele>12.6</ele><time>2011-04-29T09:13:50.0000000+00:00</time></trkpt><trkpt lat="21.222496" lon="105.768402"><ele>11.5</ele><time>2011-04-29T09:13:55.0000000+00:00</time></trkpt><trkpt lat="21.222282" lon="105.768723"><ele>9.0</ele><time>2011-04-29T09:14:00.0000000+00:00</time></trkpt><trkpt lat="21.222111" lon="105.768967"><ele>7.3</ele><time>2011-04-29T09:14:05.0000000+00:00</time></trkpt><trkpt lat="21.221989" lon="105.76915"><ele>7.2</ele><time>2011-04-29T09:14:10.0000000+00:00</time></trkpt><trkpt lat="21.221926" lon="105.769234"><ele>7.0</ele><time>2011-04-29T09:14:15.0000000+00:00</time></trkpt><trkpt lat="21.221844" lon="105.769348"><ele>6.5</ele><time>2011-04-29T09:14:20.0000000+00:00</time></trkpt><trkpt lat="21.221796" lon="105.76944"><ele>6.0</ele><time>2011-04-29T09:14:25.0000000+00:00</time></trkpt><trkpt lat="21.221722" lon="105.769531"><ele>3.7</ele><time>2011-04-29T09:14:30.0000000+00:00</time></trkpt><trkpt lat="21.221643" lon="105.76963"><ele>3.4</ele><time>2011-04-29T09:14:35.0000000+00:00</time></trkpt><trkpt lat="21.221581" lon="105.769707"><ele>4.8</ele><time>2011-04-29T09:14:40.0000000+00:00</time></trkpt><trkpt lat="21.221506" lon="105.769814"><ele>5.7</ele><time>2011-04-29T09:14:45.0000000+00:00</time></trkpt><trkpt lat="21.221436" lon="105.769943"><ele>5.8</ele><time>2011-04-29T09:14:50.0000000+00:00</time></trkpt><trkpt lat="21.221357" lon="105.770058"><ele>4.4</ele><time>2011-04-29T09:14:55.0000000+00:00</time></trkpt><trkpt lat="21.221268" lon="105.770172"><ele>3.0</ele><time>2011-04-29T09:15:00.0000000+00:00</time></trkpt><trkpt lat="21.221176" lon="105.770309"><ele>3.1</ele><time>2011-04-29T09:15:05.0000000+00:00</time></trkpt><trkpt lat="21.221098" lon="105.770447"><ele>3.3</ele><time>2011-04-29T09:15:10.0000000+00:00</time></trkpt><trkpt lat="21.221041" lon="105.770561"><ele>5.2</ele><time>2011-04-29T09:15:15.0000000+00:00</time></trkpt><trkpt lat="21.220997" lon="105.770645"><ele>6.1</ele><time>2011-04-29T09:15:20.0000000+00:00</time></trkpt><trkpt lat="21.220989" lon="105.770668"><ele>6.6</ele><time>2011-04-29T09:15:25.0000000+00:00</time></trkpt><trkpt lat="21.220936" lon="105.770767"><ele>7.6</ele><time>2011-04-29T09:15:30.0000000+00:00</time></trkpt><trkpt lat="21.220881" lon="105.770866"><ele>8.3</ele><time>2011-04-29T09:15:35.0000000+00:00</time></trkpt><trkpt lat="21.220823" lon="105.771004"><ele>10.0</ele><time>2011-04-29T09:15:40.0000000+00:00</time></trkpt><trkpt lat="21.220697" lon="105.771217"><ele>11.2</ele><time>2011-04-29T09:15:45.0000000+00:00</time></trkpt><trkpt lat="21.220493" lon="105.771515"><ele>9.0</ele><time>2011-04-29T09:15:50.0000000+00:00</time></trkpt><trkpt lat="21.220278" lon="105.771858"><ele>8.9</ele><time>2011-04-29T09:15:55.0000000+00:00</time></trkpt><trkpt lat="21.220062" lon="105.772217"><ele>7.8</ele><time>2011-04-29T09:16:00.0000000+00:00</time></trkpt><trkpt lat="21.219873" lon="105.772545"><ele>7.8</ele><time>2011-04-29T09:16:05.0000000+00:00</time></trkpt><trkpt lat="21.219694" lon="105.772804"><ele>7.2</ele><time>2011-04-29T09:16:10.0000000+00:00</time></trkpt><trkpt lat="21.219448" lon="105.772957"><ele>6.6</ele><time>2011-04-29T09:16:15.0000000+00:00</time></trkpt><trkpt lat="21.219133" lon="105.773018"><ele>6.1</ele><time>2011-04-29T09:16:20.0000000+00:00</time></trkpt><trkpt lat="21.218801" lon="105.773193"><ele>7.5</ele><time>2011-04-29T09:16:25.0000000+00:00</time></trkpt><trkpt lat="21.218708" lon="105.773315"><ele>6.1</ele><time>2011-04-29T09:16:30.0000000+00:00</time></trkpt><trkpt lat="21.218681" lon="105.773399"><ele>5.2</ele><time>2011-04-29T09:16:35.0000000+00:00</time></trkpt><trkpt lat="21.218643" lon="105.773529"><ele>6.1</ele><time>2011-04-29T09:16:40.0000000+00:00</time></trkpt><trkpt lat="21.218636" lon="105.773735"><ele>8.2</ele><time>2011-04-29T09:16:45.0000000+00:00</time></trkpt><trkpt lat="21.218681" lon="105.773949"><ele>5.5</ele><time>2011-04-29T09:16:50.0000000+00:00</time></trkpt><trkpt lat="21.218752" lon="105.77417"><ele>5.3</ele><time>2011-04-29T09:16:55.0000000+00:00</time></trkpt><trkpt lat="21.218712" lon="105.774399"><ele>3.8</ele><time>2011-04-29T09:17:00.0000000+00:00</time></trkpt><trkpt lat="21.218557" lon="105.774712"><ele>4.2</ele><time>2011-04-29T09:17:05.0000000+00:00</time></trkpt><trkpt lat="21.218374" lon="105.775047"><ele>5.3</ele><time>2011-04-29T09:17:10.0000000+00:00</time></trkpt><trkpt lat="21.218153" lon="105.775436"><ele>6.1</ele><time>2011-04-29T09:17:15.0000000+00:00</time></trkpt><trkpt lat="21.217932" lon="105.775833"><ele>6.7</ele><time>2011-04-29T09:17:20.0000000+00:00</time></trkpt><trkpt lat="21.217705" lon="105.776245"><ele>6.8</ele><time>2011-04-29T09:17:25.0000000+00:00</time></trkpt><trkpt lat="21.217447" lon="105.776703"><ele>5.6</ele><time>2011-04-29T09:17:30.0000000+00:00</time></trkpt><trkpt lat="21.217194" lon="105.77713"><ele>1.9</ele><time>2011-04-29T09:17:35.0000000+00:00</time></trkpt><trkpt lat="21.216963" lon="105.777496"><ele>1.8</ele><time>2011-04-29T09:17:40.0000000+00:00</time></trkpt><trkpt lat="21.216812" lon="105.777702"><ele>5.2</ele><time>2011-04-29T09:17:45.0000000+00:00</time></trkpt><trkpt lat="21.216799" lon="105.777718"><ele>5.7</ele><time>2011-04-29T09:17:50.0000000+00:00</time></trkpt><trkpt lat="21.216789" lon="105.77774"><ele>6.0</ele><time>2011-04-29T09:17:55.0000000+00:00</time></trkpt><trkpt lat="21.216692" lon="105.777878"><ele>5.6</ele><time>2011-04-29T09:18:00.0000000+00:00</time></trkpt><trkpt lat="21.216518" lon="105.778114"><ele>4.1</ele><time>2011-04-29T09:18:05.0000000+00:00</time></trkpt><trkpt lat="21.21627" lon="105.778336"><ele>3.7</ele><time>2011-04-29T09:18:10.0000000+00:00</time></trkpt><trkpt lat="21.21596" lon="105.778412"><ele>3.8</ele><time>2011-04-29T09:18:15.0000000+00:00</time></trkpt><trkpt lat="21.215635" lon="105.778465"><ele>5.9</ele><time>2011-04-29T09:18:20.0000000+00:00</time></trkpt><trkpt lat="21.215229" lon="105.778526"><ele>7.1</ele><time>2011-04-29T09:18:25.0000000+00:00</time></trkpt><trkpt lat="21.214781" lon="105.77858"><ele>8.4</ele><time>2011-04-29T09:18:30.0000000+00:00</time></trkpt><trkpt lat="21.214302" lon="105.778648"><ele>10.1</ele><time>2011-04-29T09:18:35.0000000+00:00</time></trkpt><trkpt lat="21.213785" lon="105.778717"><ele>11.4</ele><time>2011-04-29T09:18:40.0000000+00:00</time></trkpt><trkpt lat="21.213243" lon="105.778793"><ele>11.5</ele><time>2011-04-29T09:18:45.0000000+00:00</time></trkpt><trkpt lat="21.212706" lon="105.778847"><ele>9.8</ele><time>2011-04-29T09:18:50.0000000+00:00</time></trkpt><trkpt lat="21.212149" lon="105.778893"><ele>10.3</ele><time>2011-04-29T09:18:55.0000000+00:00</time></trkpt><trkpt lat="21.211565" lon="105.778954"><ele>11.0</ele><time>2011-04-29T09:19:00.0000000+00:00</time></trkpt><trkpt lat="21.210966" lon="105.779015"><ele>9.1</ele><time>2011-04-29T09:19:05.0000000+00:00</time></trkpt><trkpt lat="21.210373" lon="105.779091"><ele>8.9</ele><time>2011-04-29T09:19:10.0000000+00:00</time></trkpt><trkpt lat="21.209784" lon="105.77916"><ele>9.2</ele><time>2011-04-29T09:19:15.0000000+00:00</time></trkpt><trkpt lat="21.209202" lon="105.779213"><ele>9.4</ele><time>2011-04-29T09:19:20.0000000+00:00</time></trkpt><trkpt lat="21.208639" lon="105.779266"><ele>7.8</ele><time>2011-04-29T09:19:25.0000000+00:00</time></trkpt><trkpt lat="21.208097" lon="105.779335"><ele>8.1</ele><time>2011-04-29T09:19:30.0000000+00:00</time></trkpt><trkpt lat="21.207563" lon="105.779388"><ele>6.7</ele><time>2011-04-29T09:19:35.0000000+00:00</time></trkpt><trkpt lat="21.207041" lon="105.779434"><ele>5.7</ele><time>2011-04-29T09:19:40.0000000+00:00</time></trkpt><trkpt lat="21.206539" lon="105.779503"><ele>6.6</ele><time>2011-04-29T09:19:45.0000000+00:00</time></trkpt><trkpt lat="21.206059" lon="105.779572"><ele>9.3</ele><time>2011-04-29T09:19:50.0000000+00:00</time></trkpt><trkpt lat="21.205631" lon="105.77961"><ele>7.0</ele><time>2011-04-29T09:19:55.0000000+00:00</time></trkpt><trkpt lat="21.205238" lon="105.779617"><ele>8.2</ele><time>2011-04-29T09:20:00.0000000+00:00</time></trkpt><trkpt lat="21.204905" lon="105.779602"><ele>6.6</ele><time>2011-04-29T09:20:05.0000000+00:00</time></trkpt><trkpt lat="21.204632" lon="105.77961"><ele>1.8</ele><time>2011-04-29T09:20:10.0000000+00:00</time></trkpt><trkpt lat="21.204535" lon="105.779617"><ele>0.2</ele><time>2011-04-29T09:20:15.0000000+00:00</time></trkpt><trkpt lat="21.204477" lon="105.779625"><ele>-0.9</ele><time>2011-04-29T09:20:20.0000000+00:00</time></trkpt><trkpt lat="21.204355" lon="105.77964"><ele>-1.5</ele><time>2011-04-29T09:20:25.0000000+00:00</time></trkpt><trkpt lat="21.204212" lon="105.779655"><ele>0.5</ele><time>2011-04-29T09:20:30.0000000+00:00</time></trkpt><trkpt lat="21.20405" lon="105.779663"><ele>-0.1</ele><time>2011-04-29T09:20:35.0000000+00:00</time></trkpt><trkpt lat="21.203915" lon="105.779655"><ele>2.6</ele><time>2011-04-29T09:20:40.0000000+00:00</time></trkpt><trkpt lat="21.20381" lon="105.779678"><ele>3.2</ele><time>2011-04-29T09:20:45.0000000+00:00</time></trkpt><trkpt lat="21.203749" lon="105.779678"><ele>-0.3</ele><time>2011-04-29T09:20:50.0000000+00:00</time></trkpt><trkpt lat="21.203747" lon="105.779686"><ele>0.2</ele><time>2011-04-29T09:20:55.0000000+00:00</time></trkpt><trkpt lat="21.203709" lon="105.779694"><ele>0.6</ele><time>2011-04-29T09:21:00.0000000+00:00</time></trkpt><trkpt lat="21.203627" lon="105.779701"><ele>1.2</ele><time>2011-04-29T09:21:05.0000000+00:00</time></trkpt><trkpt lat="21.203545" lon="105.779724"><ele>3.1</ele><time>2011-04-29T09:21:10.0000000+00:00</time></trkpt><trkpt lat="21.203489" lon="105.779739"><ele>2.7</ele><time>2011-04-29T09:21:15.0000000+00:00</time></trkpt><trkpt lat="21.203434" lon="105.779739"><ele>1.3</ele><time>2011-04-29T09:21:20.0000000+00:00</time></trkpt><trkpt lat="21.203367" lon="105.779732"><ele>3.2</ele><time>2011-04-29T09:21:25.0000000+00:00</time></trkpt><trkpt lat="21.203331" lon="105.779709"><ele>5.6</ele><time>2011-04-29T09:21:30.0000000+00:00</time></trkpt><trkpt lat="21.203251" lon="105.779732"><ele>6.8</ele><time>2011-04-29T09:21:35.0000000+00:00</time></trkpt><trkpt lat="21.203152" lon="105.779747"><ele>7.3</ele><time>2011-04-29T09:21:40.0000000+00:00</time></trkpt><trkpt lat="21.203049" lon="105.77977"><ele>8.2</ele><time>2011-04-29T09:21:45.0000000+00:00</time></trkpt><trkpt lat="21.202906" lon="105.779808"><ele>9.1</ele><time>2011-04-29T09:21:50.0000000+00:00</time></trkpt><trkpt lat="21.202753" lon="105.779778"><ele>9.1</ele><time>2011-04-29T09:21:55.0000000+00:00</time></trkpt><trkpt lat="21.202642" lon="105.779762"><ele>8.8</ele><time>2011-04-29T09:22:00.0000000+00:00</time></trkpt><trkpt lat="21.202621" lon="105.779778"><ele>8.2</ele><time>2011-04-29T09:22:05.0000000+00:00</time></trkpt><trkpt lat="21.202629" lon="105.779785"><ele>7.7</ele><time>2011-04-29T09:22:10.0000000+00:00</time></trkpt><trkpt lat="21.202627" lon="105.779785"><ele>7.7</ele><time>2011-04-29T09:22:15.0000000+00:00</time></trkpt><trkpt lat="21.202621" lon="105.779785"><ele>7.6</ele><time>2011-04-29T09:22:20.0000000+00:00</time></trkpt><trkpt lat="21.20262" lon="105.779785"><ele>7.6</ele><time>2011-04-29T09:22:25.0000000+00:00</time></trkpt><trkpt lat="21.202618" lon="105.779785"><ele>7.5</ele><time>2011-04-29T09:22:30.0000000+00:00</time></trkpt><trkpt lat="21.202623" lon="105.779785"><ele>7.5</ele><time>2011-04-29T09:22:35.0000000+00:00</time></trkpt><trkpt lat="21.202623" lon="105.779778"><ele>7.5</ele><time>2011-04-29T09:22:40.0000000+00:00</time></trkpt><trkpt lat="21.202621" lon="105.779785"><ele>7.6</ele><time>2011-04-29T09:22:45.0000000+00:00</time></trkpt><trkpt lat="21.202623" lon="105.779785"><ele>7.6</ele><time>2011-04-29T09:22:50.0000000+00:00</time></trkpt><trkpt lat="21.202623" lon="105.779785"><ele>7.5</ele><time>2011-04-29T09:22:55.0000000+00:00</time></trkpt><trkpt lat="21.202623" lon="105.779785"><ele>7.5</ele><time>2011-04-29T09:23:00.0000000+00:00</time></trkpt><trkpt lat="21.202625" lon="105.779778"><ele>7.4</ele><time>2011-04-29T09:23:05.0000000+00:00</time></trkpt><trkpt lat="21.202623" lon="105.779778"><ele>7.3</ele><time>2011-04-29T09:23:10.0000000+00:00</time></trkpt><trkpt lat="21.202621" lon="105.779778"><ele>7.3</ele><time>2011-04-29T09:23:15.0000000+00:00</time></trkpt><trkpt lat="21.202625" lon="105.779778"><ele>7.3</ele><time>2011-04-29T09:23:20.0000000+00:00</time></trkpt><trkpt lat="21.202629" lon="105.779778"><ele>7.3</ele><time>2011-04-29T09:23:25.0000000+00:00</time></trkpt><trkpt lat="21.202629" lon="105.779778"><ele>7.3</ele><time>2011-04-29T09:23:30.0000000+00:00</time></trkpt><trkpt lat="21.202633" lon="105.779778"><ele>7.3</ele><time>2011-04-29T09:23:35.0000000+00:00</time></trkpt><trkpt lat="21.202633" lon="105.779778"><ele>7.3</ele><time>2011-04-29T09:23:40.0000000+00:00</time></trkpt><trkpt lat="21.202629" lon="105.779778"><ele>7.4</ele><time>2011-04-29T09:23:45.0000000+00:00</time></trkpt><trkpt lat="21.202579" lon="105.779793"><ele>7.5</ele><time>2011-04-29T09:23:50.0000000+00:00</time></trkpt><trkpt lat="21.202446" lon="105.779823"><ele>8.2</ele><time>2011-04-29T09:23:55.0000000+00:00</time></trkpt><trkpt lat="21.20224" lon="105.779869"><ele>8.7</ele><time>2011-04-29T09:24:00.0000000+00:00</time></trkpt><trkpt lat="21.201971" lon="105.779945"><ele>9.7</ele><time>2011-04-29T09:24:05.0000000+00:00</time></trkpt><trkpt lat="21.201639" lon="105.780006"><ele>9.8</ele><time>2011-04-29T09:24:10.0000000+00:00</time></trkpt><trkpt lat="21.20125" lon="105.780037"><ele>10.8</ele><time>2011-04-29T09:24:15.0000000+00:00</time></trkpt><trkpt lat="21.200832" lon="105.780075"><ele>12.5</ele><time>2011-04-29T09:24:20.0000000+00:00</time></trkpt><trkpt lat="21.200354" lon="105.780128"><ele>14.2</ele><time>2011-04-29T09:24:25.0000000+00:00</time></trkpt><trkpt lat="21.199865" lon="105.78019"><ele>16.2</ele><time>2011-04-29T09:24:30.0000000+00:00</time></trkpt><trkpt lat="21.199369" lon="105.780251"><ele>15.2</ele><time>2011-04-29T09:24:35.0000000+00:00</time></trkpt><trkpt lat="21.198851" lon="105.780312"><ele>16.1</ele><time>2011-04-29T09:24:40.0000000+00:00</time></trkpt><trkpt lat="21.198343" lon="105.780365"><ele>13.8</ele><time>2011-04-29T09:24:45.0000000+00:00</time></trkpt><trkpt lat="21.197838" lon="105.780426"><ele>11.8</ele><time>2011-04-29T09:24:50.0000000+00:00</time></trkpt><trkpt lat="21.197309" lon="105.780487"><ele>10.0</ele><time>2011-04-29T09:24:55.0000000+00:00</time></trkpt><trkpt lat="21.196781" lon="105.78054"><ele>8.1</ele><time>2011-04-29T09:25:00.0000000+00:00</time></trkpt><trkpt lat="21.19623" lon="105.780594"><ele>7.7</ele><time>2011-04-29T09:25:05.0000000+00:00</time></trkpt><trkpt lat="21.195683" lon="105.780647"><ele>6.9</ele><time>2011-04-29T09:25:10.0000000+00:00</time></trkpt><trkpt lat="21.195208" lon="105.780678"><ele>3.1</ele><time>2011-04-29T09:25:15.0000000+00:00</time></trkpt><trkpt lat="21.194822" lon="105.780685"><ele>-0.2</ele><time>2011-04-29T09:25:20.0000000+00:00</time></trkpt><trkpt lat="21.194506" lon="105.780685"><ele>-5.9</ele><time>2011-04-29T09:25:25.0000000+00:00</time></trkpt><trkpt lat="21.194149" lon="105.780693"><ele>-5.7</ele><time>2011-04-29T09:25:30.0000000+00:00</time></trkpt><trkpt lat="21.193655" lon="105.780693"><ele>-4.7</ele><time>2011-04-29T09:25:35.0000000+00:00</time></trkpt><trkpt lat="21.19309" lon="105.780678"><ele>-5.9</ele><time>2011-04-29T09:25:40.0000000+00:00</time></trkpt><trkpt lat="21.192484" lon="105.780647"><ele>-9.4</ele><time>2011-04-29T09:25:45.0000000+00:00</time></trkpt><trkpt lat="21.19187" lon="105.78064"><ele>-9.7</ele><time>2011-04-29T09:25:50.0000000+00:00</time></trkpt><trkpt lat="21.191282" lon="105.780647"><ele>-6.7</ele><time>2011-04-29T09:25:55.0000000+00:00</time></trkpt><trkpt lat="21.190634" lon="105.780594"><ele>-6.2</ele><time>2011-04-29T09:26:00.0000000+00:00</time></trkpt><trkpt lat="21.189894" lon="105.780563"><ele>-7.3</ele><time>2011-04-29T09:26:05.0000000+00:00</time></trkpt><trkpt lat="21.189114" lon="105.780533"><ele>-6.8</ele><time>2011-04-29T09:26:10.0000000+00:00</time></trkpt><trkpt lat="21.188396" lon="105.780518"><ele>-6.3</ele><time>2011-04-29T09:26:15.0000000+00:00</time></trkpt><trkpt lat="21.187752" lon="105.780487"><ele>-6.0</ele><time>2011-04-29T09:26:20.0000000+00:00</time></trkpt><trkpt lat="21.187195" lon="105.780472"><ele>-5.3</ele><time>2011-04-29T09:26:25.0000000+00:00</time></trkpt><trkpt lat="21.186621" lon="105.780441"><ele>-5.7</ele><time>2011-04-29T09:26:30.0000000+00:00</time></trkpt><trkpt lat="21.185989" lon="105.780411"><ele>-6.2</ele><time>2011-04-29T09:26:35.0000000+00:00</time></trkpt><trkpt lat="21.185356" lon="105.780373"><ele>-4.5</ele><time>2011-04-29T09:26:40.0000000+00:00</time></trkpt><trkpt lat="21.18471" lon="105.780365"><ele>-5.8</ele><time>2011-04-29T09:26:45.0000000+00:00</time></trkpt><trkpt lat="21.184097" lon="105.780342"><ele>-8.0</ele><time>2011-04-29T09:26:50.0000000+00:00</time></trkpt><trkpt lat="21.183496" lon="105.780312"><ele>-8.9</ele><time>2011-04-29T09:26:55.0000000+00:00</time></trkpt><trkpt lat="21.182859" lon="105.780289"><ele>-7.0</ele><time>2011-04-29T09:27:00.0000000+00:00</time></trkpt><trkpt lat="21.182177" lon="105.780258"><ele>-3.4</ele><time>2011-04-29T09:27:05.0000000+00:00</time></trkpt><trkpt lat="21.181456" lon="105.78022"><ele>-1.3</ele><time>2011-04-29T09:27:10.0000000+00:00</time></trkpt><trkpt lat="21.180723" lon="105.780182"><ele>-1.9</ele><time>2011-04-29T09:27:15.0000000+00:00</time></trkpt><trkpt lat="21.179985" lon="105.780159"><ele>-3.2</ele><time>2011-04-29T09:27:20.0000000+00:00</time></trkpt><trkpt lat="21.179213" lon="105.780128"><ele>-2.9</ele><time>2011-04-29T09:27:25.0000000+00:00</time></trkpt><trkpt lat="21.178436" lon="105.780106"><ele>-4.0</ele><time>2011-04-29T09:27:30.0000000+00:00</time></trkpt><trkpt lat="21.177679" lon="105.780083"><ele>-6.2</ele><time>2011-04-29T09:27:35.0000000+00:00</time></trkpt><trkpt lat="21.176941" lon="105.78006"><ele>-5.6</ele><time>2011-04-29T09:27:40.0000000+00:00</time></trkpt><trkpt lat="21.176235" lon="105.780014"><ele>-4.1</ele><time>2011-04-29T09:27:45.0000000+00:00</time></trkpt><trkpt lat="21.175552" lon="105.779984"><ele>-5.3</ele><time>2011-04-29T09:27:50.0000000+00:00</time></trkpt><trkpt lat="21.174877" lon="105.779961"><ele>-6.3</ele><time>2011-04-29T09:27:55.0000000+00:00</time></trkpt><trkpt lat="21.174231" lon="105.779945"><ele>-5.5</ele><time>2011-04-29T09:28:00.0000000+00:00</time></trkpt><trkpt lat="21.173584" lon="105.779922"><ele>-4.8</ele><time>2011-04-29T09:28:05.0000000+00:00</time></trkpt><trkpt lat="21.17292" lon="105.779892"><ele>-7.3</ele><time>2011-04-29T09:28:10.0000000+00:00</time></trkpt><trkpt lat="21.172264" lon="105.779854"><ele>-7.7</ele><time>2011-04-29T09:28:15.0000000+00:00</time></trkpt><trkpt lat="21.171618" lon="105.779823"><ele>-8.7</ele><time>2011-04-29T09:28:20.0000000+00:00</time></trkpt><trkpt lat="21.170977" lon="105.779793"><ele>-7.4</ele><time>2011-04-29T09:28:25.0000000+00:00</time></trkpt><trkpt lat="21.170359" lon="105.77977"><ele>-9.4</ele><time>2011-04-29T09:28:30.0000000+00:00</time></trkpt><trkpt lat="21.169744" lon="105.779755"><ele>-9.5</ele><time>2011-04-29T09:28:35.0000000+00:00</time></trkpt><trkpt lat="21.169128" lon="105.779732"><ele>-11.7</ele><time>2011-04-29T09:28:40.0000000+00:00</time></trkpt><trkpt lat="21.168533" lon="105.779709"><ele>-10.4</ele><time>2011-04-29T09:28:45.0000000+00:00</time></trkpt><trkpt lat="21.167988" lon="105.779694"><ele>-8.5</ele><time>2011-04-29T09:28:50.0000000+00:00</time></trkpt><trkpt lat="21.167439" lon="105.779671"><ele>-8.1</ele><time>2011-04-29T09:28:55.0000000+00:00</time></trkpt><trkpt lat="21.166897" lon="105.779648"><ele>-6.5</ele><time>2011-04-29T09:29:00.0000000+00:00</time></trkpt><trkpt lat="21.166355" lon="105.779633"><ele>-7.2</ele><time>2011-04-29T09:29:05.0000000+00:00</time></trkpt><trkpt lat="21.165779" lon="105.77961"><ele>-7.2</ele><time>2011-04-29T09:29:10.0000000+00:00</time></trkpt><trkpt lat="21.165184" lon="105.779579"><ele>-6.0</ele><time>2011-04-29T09:29:15.0000000+00:00</time></trkpt><trkpt lat="21.164715" lon="105.779572"><ele>-4.8</ele><time>2011-04-29T09:29:20.0000000+00:00</time></trkpt><trkpt lat="21.164213" lon="105.779564"><ele>-4.5</ele><time>2011-04-29T09:29:25.0000000+00:00</time></trkpt><trkpt lat="21.163689" lon="105.779549"><ele>-1.9</ele><time>2011-04-29T09:29:30.0000000+00:00</time></trkpt><trkpt lat="21.163204" lon="105.779503"><ele>-1.7</ele><time>2011-04-29T09:29:35.0000000+00:00</time></trkpt><trkpt lat="21.16271" lon="105.779472"><ele>-0.2</ele><time>2011-04-29T09:29:40.0000000+00:00</time></trkpt><trkpt lat="21.162218" lon="105.779457"><ele>-0.2</ele><time>2011-04-29T09:29:45.0000000+00:00</time></trkpt><trkpt lat="21.161907" lon="105.779449"><ele>-1.4</ele><time>2011-04-29T09:29:50.0000000+00:00</time></trkpt><trkpt lat="21.161697" lon="105.779419"><ele>-1.8</ele><time>2011-04-29T09:29:55.0000000+00:00</time></trkpt><trkpt lat="21.161495" lon="105.779419"><ele>-3.6</ele><time>2011-04-29T09:30:00.0000000+00:00</time></trkpt><trkpt lat="21.161362" lon="105.779396"><ele>-5.9</ele><time>2011-04-29T09:30:05.0000000+00:00</time></trkpt><trkpt lat="21.16132" lon="105.779388"><ele>-5.8</ele><time>2011-04-29T09:30:10.0000000+00:00</time></trkpt><trkpt lat="21.161301" lon="105.779388"><ele>-5.6</ele><time>2011-04-29T09:30:15.0000000+00:00</time></trkpt><trkpt lat="21.161263" lon="105.779388"><ele>-6.1</ele><time>2011-04-29T09:30:20.0000000+00:00</time></trkpt><trkpt lat="21.16115" lon="105.779366"><ele>-8.3</ele><time>2011-04-29T09:30:25.0000000+00:00</time></trkpt><trkpt lat="21.161091" lon="105.779373"><ele>-11.5</ele><time>2011-04-29T09:30:30.0000000+00:00</time></trkpt><trkpt lat="21.160976" lon="105.779373"><ele>-11.2</ele><time>2011-04-29T09:30:35.0000000+00:00</time></trkpt><trkpt lat="21.16083" lon="105.779366"><ele>-11.5</ele><time>2011-04-29T09:30:40.0000000+00:00</time></trkpt><trkpt lat="21.160645" lon="105.77935"><ele>-9.3</ele><time>2011-04-29T09:30:45.0000000+00:00</time></trkpt><trkpt lat="21.160479" lon="105.779343"><ele>-12.0</ele><time>2011-04-29T09:30:50.0000000+00:00</time></trkpt><trkpt lat="21.160322" lon="105.779343"><ele>-13.6</ele><time>2011-04-29T09:30:55.0000000+00:00</time></trkpt><trkpt lat="21.160158" lon="105.779343"><ele>-13.2</ele><time>2011-04-29T09:31:00.0000000+00:00</time></trkpt><trkpt lat="21.160015" lon="105.77932"><ele>-15.2</ele><time>2011-04-29T09:31:05.0000000+00:00</time></trkpt><trkpt lat="21.159859" lon="105.779305"><ele>-15.8</ele><time>2011-04-29T09:31:10.0000000+00:00</time></trkpt><trkpt lat="21.15976" lon="105.77932"><ele>-16.1</ele><time>2011-04-29T09:31:15.0000000+00:00</time></trkpt><trkpt lat="21.159737" lon="105.77932"><ele>-14.2</ele><time>2011-04-29T09:31:20.0000000+00:00</time></trkpt><trkpt lat="21.159735" lon="105.779312"><ele>-14.4</ele><time>2011-04-29T09:31:25.0000000+00:00</time></trkpt><trkpt lat="21.159733" lon="105.779312"><ele>-14.5</ele><time>2011-04-29T09:31:30.0000000+00:00</time></trkpt><trkpt lat="21.159733" lon="105.779312"><ele>-14.6</ele><time>2011-04-29T09:31:35.0000000+00:00</time></trkpt><trkpt lat="21.159733" lon="105.779312"><ele>-14.6</ele><time>2011-04-29T09:31:40.0000000+00:00</time></trkpt><trkpt lat="21.159733" lon="105.779305"><ele>-14.6</ele><time>2011-04-29T09:31:45.0000000+00:00</time></trkpt><trkpt lat="21.159735" lon="105.779297"><ele>-14.6</ele><time>2011-04-29T09:31:50.0000000+00:00</time></trkpt><trkpt lat="21.159737" lon="105.779282"><ele>-14.6</ele><time>2011-04-29T09:31:55.0000000+00:00</time></trkpt><trkpt lat="21.159739" lon="105.779274"><ele>-14.6</ele><time>2011-04-29T09:32:00.0000000+00:00</time></trkpt><trkpt lat="21.159744" lon="105.779259"><ele>-14.6</ele><time>2011-04-29T09:32:05.0000000+00:00</time></trkpt><trkpt lat="21.159746" lon="105.779259"><ele>-14.7</ele><time>2011-04-29T09:32:10.0000000+00:00</time></trkpt><trkpt lat="21.159739" lon="105.779251"><ele>-14.7</ele><time>2011-04-29T09:32:15.0000000+00:00</time></trkpt><trkpt lat="21.15958" lon="105.779274"><ele>-14.7</ele><time>2011-04-29T09:32:20.0000000+00:00</time></trkpt><trkpt lat="21.159294" lon="105.779297"><ele>-15.8</ele><time>2011-04-29T09:32:25.0000000+00:00</time></trkpt><trkpt lat="21.158878" lon="105.779297"><ele>-14.4</ele><time>2011-04-29T09:32:30.0000000+00:00</time></trkpt><trkpt lat="21.158382" lon="105.779289"><ele>-13.3</ele><time>2011-04-29T09:32:35.0000000+00:00</time></trkpt><trkpt lat="21.15781" lon="105.779266"><ele>-13.9</ele><time>2011-04-29T09:32:40.0000000+00:00</time></trkpt><trkpt lat="21.157124" lon="105.779236"><ele>-12.4</ele><time>2011-04-29T09:32:45.0000000+00:00</time></trkpt><trkpt lat="21.156332" lon="105.77919"><ele>-13.2</ele><time>2011-04-29T09:32:50.0000000+00:00</time></trkpt><trkpt lat="21.15546" lon="105.77916"><ele>-12.2</ele><time>2011-04-29T09:32:55.0000000+00:00</time></trkpt><trkpt lat="21.154505" lon="105.779106"><ele>-13.2</ele><time>2011-04-29T09:33:00.0000000+00:00</time></trkpt><trkpt lat="21.153469" lon="105.77906"><ele>-12.8</ele><time>2011-04-29T09:33:05.0000000+00:00</time></trkpt><trkpt lat="21.152512" lon="105.779037"><ele>-14.9</ele><time>2011-04-29T09:33:10.0000000+00:00</time></trkpt><trkpt lat="21.151588" lon="105.778984"><ele>-16.1</ele><time>2011-04-29T09:33:15.0000000+00:00</time></trkpt><trkpt lat="21.150723" lon="105.778954"><ele>-17.1</ele><time>2011-04-29T09:33:20.0000000+00:00</time></trkpt><trkpt lat="21.149883" lon="105.778923"><ele>-18.5</ele><time>2011-04-29T09:33:25.0000000+00:00</time></trkpt><trkpt lat="21.148991" lon="105.7789"><ele>-14.8</ele><time>2011-04-29T09:33:30.0000000+00:00</time></trkpt><trkpt lat="21.148045" lon="105.778854"><ele>-12.8</ele><time>2011-04-29T09:33:35.0000000+00:00</time></trkpt><trkpt lat="21.147076" lon="105.778809"><ele>-11.9</ele><time>2011-04-29T09:33:40.0000000+00:00</time></trkpt><trkpt lat="21.146078" lon="105.778755"><ele>-11.2</ele><time>2011-04-29T09:33:45.0000000+00:00</time></trkpt><trkpt lat="21.145086" lon="105.778702"><ele>-10.9</ele><time>2011-04-29T09:33:50.0000000+00:00</time></trkpt><trkpt lat="21.144119" lon="105.778671"><ele>-10.6</ele><time>2011-04-29T09:33:55.0000000+00:00</time></trkpt><trkpt lat="21.143166" lon="105.778625"><ele>-8.3</ele><time>2011-04-29T09:34:00.0000000+00:00</time></trkpt><trkpt lat="21.142174" lon="105.778603"><ele>-8.0</ele><time>2011-04-29T09:34:05.0000000+00:00</time></trkpt><trkpt lat="21.141161" lon="105.778557"><ele>-7.1</ele><time>2011-04-29T09:34:10.0000000+00:00</time></trkpt><trkpt lat="21.140139" lon="105.778496"><ele>-6.4</ele><time>2011-04-29T09:34:15.0000000+00:00</time></trkpt><trkpt lat="21.139118" lon="105.778435"><ele>-7.0</ele><time>2011-04-29T09:34:20.0000000+00:00</time></trkpt><trkpt lat="21.138193" lon="105.778397"><ele>-8.5</ele><time>2011-04-29T09:34:25.0000000+00:00</time></trkpt><trkpt lat="21.137287" lon="105.778358"><ele>-9.8</ele><time>2011-04-29T09:34:30.0000000+00:00</time></trkpt><trkpt lat="21.136349" lon="105.778313"><ele>-9.9</ele><time>2011-04-29T09:34:35.0000000+00:00</time></trkpt><trkpt lat="21.135405" lon="105.778313"><ele>-13.1</ele><time>2011-04-29T09:34:40.0000000+00:00</time></trkpt><trkpt lat="21.134451" lon="105.778412"><ele>-13.0</ele><time>2011-04-29T09:34:45.0000000+00:00</time></trkpt><trkpt lat="21.133533" lon="105.77861"><ele>-10.2</ele><time>2011-04-29T09:34:50.0000000+00:00</time></trkpt><trkpt lat="21.132648" lon="105.778854"><ele>-9.4</ele><time>2011-04-29T09:34:55.0000000+00:00</time></trkpt><trkpt lat="21.131805" lon="105.779152"><ele>-8.9</ele><time>2011-04-29T09:35:00.0000000+00:00</time></trkpt><trkpt lat="21.130999" lon="105.779434"><ele>-8.7</ele><time>2011-04-29T09:35:05.0000000+00:00</time></trkpt><trkpt lat="21.130167" lon="105.779701"><ele>-10.1</ele><time>2011-04-29T09:35:10.0000000+00:00</time></trkpt><trkpt lat="21.129303" lon="105.779953"><ele>-9.9</ele><time>2011-04-29T09:35:15.0000000+00:00</time></trkpt><trkpt lat="21.128502" lon="105.780228"><ele>-8.9</ele><time>2011-04-29T09:35:20.0000000+00:00</time></trkpt><trkpt lat="21.127705" lon="105.780502"><ele>-8.7</ele><time>2011-04-29T09:35:25.0000000+00:00</time></trkpt><trkpt lat="21.126926" lon="105.780746"><ele>-6.5</ele><time>2011-04-29T09:35:30.0000000+00:00</time></trkpt><trkpt lat="21.126173" lon="105.780991"><ele>-4.9</ele><time>2011-04-29T09:35:35.0000000+00:00</time></trkpt><trkpt lat="21.12545" lon="105.781258"><ele>-6.3</ele><time>2011-04-29T09:35:40.0000000+00:00</time></trkpt><trkpt lat="21.124744" lon="105.781487"><ele>-5.3</ele><time>2011-04-29T09:35:45.0000000+00:00</time></trkpt><trkpt lat="21.124056" lon="105.781723"><ele>-3.3</ele><time>2011-04-29T09:35:50.0000000+00:00</time></trkpt><trkpt lat="21.123386" lon="105.781952"><ele>-6.1</ele><time>2011-04-29T09:35:55.0000000+00:00</time></trkpt><trkpt lat="21.122683" lon="105.782181"><ele>-8.2</ele><time>2011-04-29T09:36:00.0000000+00:00</time></trkpt><trkpt lat="21.121998" lon="105.782417"><ele>-6.0</ele><time>2011-04-29T09:36:05.0000000+00:00</time></trkpt><trkpt lat="21.121433" lon="105.782623"><ele>-4.5</ele><time>2011-04-29T09:36:10.0000000+00:00</time></trkpt><trkpt lat="21.121035" lon="105.782745"><ele>-5.4</ele><time>2011-04-29T09:36:15.0000000+00:00</time></trkpt><trkpt lat="21.120768" lon="105.782852"><ele>-6.9</ele><time>2011-04-29T09:36:20.0000000+00:00</time></trkpt><trkpt lat="21.120577" lon="105.782921"><ele>-6.5</ele><time>2011-04-29T09:36:25.0000000+00:00</time></trkpt><trkpt lat="21.12044" lon="105.782944"><ele>-6.4</ele><time>2011-04-29T09:36:30.0000000+00:00</time></trkpt><trkpt lat="21.120337" lon="105.782974"><ele>-7.2</ele><time>2011-04-29T09:36:35.0000000+00:00</time></trkpt><trkpt lat="21.120239" lon="105.783005"><ele>-7.6</ele><time>2011-04-29T09:36:40.0000000+00:00</time></trkpt><trkpt lat="21.120163" lon="105.783028"><ele>-10.3</ele><time>2011-04-29T09:36:45.0000000+00:00</time></trkpt><trkpt lat="21.120075" lon="105.783058"><ele>-13.6</ele><time>2011-04-29T09:36:50.0000000+00:00</time></trkpt><trkpt lat="21.120024" lon="105.783081"><ele>-16.4</ele><time>2011-04-29T09:36:55.0000000+00:00</time></trkpt><trkpt lat="21.120007" lon="105.783089"><ele>-17.6</ele><time>2011-04-29T09:37:00.0000000+00:00</time></trkpt><trkpt lat="21.119984" lon="105.783089"><ele>-18.2</ele><time>2011-04-29T09:37:05.0000000+00:00</time></trkpt><trkpt lat="21.119913" lon="105.783112"><ele>-17.8</ele><time>2011-04-29T09:37:10.0000000+00:00</time></trkpt><trkpt lat="21.119852" lon="105.783134"><ele>-18.2</ele><time>2011-04-29T09:37:15.0000000+00:00</time></trkpt><trkpt lat="21.119806" lon="105.783142"><ele>-16.7</ele><time>2011-04-29T09:37:20.0000000+00:00</time></trkpt><trkpt lat="21.119736" lon="105.783173"><ele>-16.3</ele><time>2011-04-29T09:37:25.0000000+00:00</time></trkpt><trkpt lat="21.119583" lon="105.783218"><ele>-15.3</ele><time>2011-04-29T09:37:30.0000000+00:00</time></trkpt><trkpt lat="21.119511" lon="105.783264"><ele>-13.9</ele><time>2011-04-29T09:37:35.0000000+00:00</time></trkpt><trkpt lat="21.119442" lon="105.783272"><ele>-12.4</ele><time>2011-04-29T09:37:40.0000000+00:00</time></trkpt><trkpt lat="21.119314" lon="105.783295"><ele>-12.4</ele><time>2011-04-29T09:37:45.0000000+00:00</time></trkpt><trkpt lat="21.119167" lon="105.78331"><ele>-10.0</ele><time>2011-04-29T09:37:50.0000000+00:00</time></trkpt><trkpt lat="21.119032" lon="105.783356"><ele>-8.7</ele><time>2011-04-29T09:37:55.0000000+00:00</time></trkpt><trkpt lat="21.118938" lon="105.783394"><ele>-5.9</ele><time>2011-04-29T09:38:00.0000000+00:00</time></trkpt><trkpt lat="21.118877" lon="105.783417"><ele>-7.2</ele><time>2011-04-29T09:38:05.0000000+00:00</time></trkpt><trkpt lat="21.118748" lon="105.783455"><ele>-3.8</ele><time>2011-04-29T09:38:10.0000000+00:00</time></trkpt><trkpt lat="21.118572" lon="105.783531"><ele>-4.4</ele><time>2011-04-29T09:38:15.0000000+00:00</time></trkpt><trkpt lat="21.118279" lon="105.783646"><ele>-2.1</ele><time>2011-04-29T09:38:20.0000000+00:00</time></trkpt><trkpt lat="21.117882" lon="105.783783"><ele>-0.9</ele><time>2011-04-29T09:38:25.0000000+00:00</time></trkpt><trkpt lat="21.117443" lon="105.783936"><ele>-2.1</ele><time>2011-04-29T09:38:30.0000000+00:00</time></trkpt><trkpt lat="21.116976" lon="105.784088"><ele>-1.7</ele><time>2011-04-29T09:38:35.0000000+00:00</time></trkpt><trkpt lat="21.11648" lon="105.784264"><ele>1.8</ele><time>2011-04-29T09:38:40.0000000+00:00</time></trkpt><trkpt lat="21.115959" lon="105.784439"><ele>2.3</ele><time>2011-04-29T09:38:45.0000000+00:00</time></trkpt><trkpt lat="21.115379" lon="105.78463"><ele>0.4</ele><time>2011-04-29T09:38:50.0000000+00:00</time></trkpt><trkpt lat="21.114807" lon="105.784821"><ele>0.1</ele><time>2011-04-29T09:38:55.0000000+00:00</time></trkpt><trkpt lat="21.11426" lon="105.785019"><ele>-0.7</ele><time>2011-04-29T09:39:00.0000000+00:00</time></trkpt><trkpt lat="21.113852" lon="105.785164"><ele>0.1</ele><time>2011-04-29T09:39:05.0000000+00:00</time></trkpt><trkpt lat="21.113628" lon="105.785233"><ele>-1.4</ele><time>2011-04-29T09:39:10.0000000+00:00</time></trkpt><trkpt lat="21.113426" lon="105.785294"><ele>-3.5</ele><time>2011-04-29T09:39:15.0000000+00:00</time></trkpt><trkpt lat="21.113159" lon="105.785385"><ele>-2.9</ele><time>2011-04-29T09:39:20.0000000+00:00</time></trkpt><trkpt lat="21.112894" lon="105.785469"><ele>-4.5</ele><time>2011-04-29T09:39:25.0000000+00:00</time></trkpt><trkpt lat="21.112606" lon="105.785591"><ele>-4.9</ele><time>2011-04-29T09:39:30.0000000+00:00</time></trkpt><trkpt lat="21.11223" lon="105.785728"><ele>-6.1</ele><time>2011-04-29T09:39:35.0000000+00:00</time></trkpt><trkpt lat="21.111765" lon="105.785873"><ele>-1.9</ele><time>2011-04-29T09:39:40.0000000+00:00</time></trkpt><trkpt lat="21.111288" lon="105.786003"><ele>-2.6</ele><time>2011-04-29T09:39:45.0000000+00:00</time></trkpt><trkpt lat="21.110815" lon="105.786156"><ele>-5.1</ele><time>2011-04-29T09:39:50.0000000+00:00</time></trkpt><trkpt lat="21.110317" lon="105.786301"><ele>-2.6</ele><time>2011-04-29T09:39:55.0000000+00:00</time></trkpt><trkpt lat="21.109779" lon="105.786491"><ele>-0.5</ele><time>2011-04-29T09:40:00.0000000+00:00</time></trkpt><trkpt lat="21.109222" lon="105.786682"><ele>1.6</ele><time>2011-04-29T09:40:05.0000000+00:00</time></trkpt><trkpt lat="21.108648" lon="105.786865"><ele>4.1</ele><time>2011-04-29T09:40:10.0000000+00:00</time></trkpt><trkpt lat="21.108051" lon="105.787025"><ele>8.0</ele><time>2011-04-29T09:40:15.0000000+00:00</time></trkpt><trkpt lat="21.107405" lon="105.787086"><ele>10.5</ele><time>2011-04-29T09:40:20.0000000+00:00</time></trkpt><trkpt lat="21.106686" lon="105.787071"><ele>11.5</ele><time>2011-04-29T09:40:25.0000000+00:00</time></trkpt><trkpt lat="21.105947" lon="105.787018"><ele>10.4</ele><time>2011-04-29T09:40:30.0000000+00:00</time></trkpt><trkpt lat="21.105156" lon="105.78698"><ele>14.0</ele><time>2011-04-29T09:40:35.0000000+00:00</time></trkpt><trkpt lat="21.1043" lon="105.786911"><ele>14.0</ele><time>2011-04-29T09:40:40.0000000+00:00</time></trkpt><trkpt lat="21.103418" lon="105.786842"><ele>15.9</ele><time>2011-04-29T09:40:45.0000000+00:00</time></trkpt><trkpt lat="21.102543" lon="105.786774"><ele>14.8</ele><time>2011-04-29T09:40:50.0000000+00:00</time></trkpt><trkpt lat="21.101593" lon="105.786697"><ele>12.8</ele><time>2011-04-29T09:40:55.0000000+00:00</time></trkpt><trkpt lat="21.100615" lon="105.786621"><ele>16.0</ele><time>2011-04-29T09:41:00.0000000+00:00</time></trkpt><trkpt lat="21.099613" lon="105.78653"><ele>15.5</ele><time>2011-04-29T09:41:05.0000000+00:00</time></trkpt><trkpt lat="21.098597" lon="105.786453"><ele>15.5</ele><time>2011-04-29T09:41:10.0000000+00:00</time></trkpt><trkpt lat="21.097607" lon="105.786407"><ele>15.7</ele><time>2011-04-29T09:41:15.0000000+00:00</time></trkpt><trkpt lat="21.096643" lon="105.786301"><ele>17.6</ele><time>2011-04-29T09:41:20.0000000+00:00</time></trkpt><trkpt lat="21.095678" lon="105.786232"><ele>20.6</ele><time>2011-04-29T09:41:25.0000000+00:00</time></trkpt><trkpt lat="21.09474" lon="105.786156"><ele>21.2</ele><time>2011-04-29T09:41:30.0000000+00:00</time></trkpt><trkpt lat="21.093813" lon="105.786102"><ele>21.6</ele><time>2011-04-29T09:41:35.0000000+00:00</time></trkpt><trkpt lat="21.092951" lon="105.786034"><ele>22.6</ele><time>2011-04-29T09:41:40.0000000+00:00</time></trkpt><trkpt lat="21.092096" lon="105.785957"><ele>21.1</ele><time>2011-04-29T09:41:45.0000000+00:00</time></trkpt><trkpt lat="21.091257" lon="105.785889"><ele>20.4</ele><time>2011-04-29T09:41:50.0000000+00:00</time></trkpt><trkpt lat="21.090477" lon="105.785851"><ele>18.9</ele><time>2011-04-29T09:41:55.0000000+00:00</time></trkpt><trkpt lat="21.089733" lon="105.785835"><ele>17.4</ele><time>2011-04-29T09:42:00.0000000+00:00</time></trkpt><trkpt lat="21.089016" lon="105.786018"><ele>14.4</ele><time>2011-04-29T09:42:05.0000000+00:00</time></trkpt><trkpt lat="21.088306" lon="105.78627"><ele>12.5</ele><time>2011-04-29T09:42:10.0000000+00:00</time></trkpt><trkpt lat="21.08757" lon="105.786514"><ele>10.2</ele><time>2011-04-29T09:42:15.0000000+00:00</time></trkpt><trkpt lat="21.086849" lon="105.786766"><ele>6.6</ele><time>2011-04-29T09:42:20.0000000+00:00</time></trkpt><trkpt lat="21.086155" lon="105.786995"><ele>5.6</ele><time>2011-04-29T09:42:25.0000000+00:00</time></trkpt><trkpt lat="21.085501" lon="105.787216"><ele>3.5</ele><time>2011-04-29T09:42:30.0000000+00:00</time></trkpt><trkpt lat="21.084877" lon="105.787415"><ele>1.6</ele><time>2011-04-29T09:42:35.0000000+00:00</time></trkpt><trkpt lat="21.084272" lon="105.787628"><ele>-1.1</ele><time>2011-04-29T09:42:40.0000000+00:00</time></trkpt><trkpt lat="21.083662" lon="105.787819"><ele>-5.6</ele><time>2011-04-29T09:42:45.0000000+00:00</time></trkpt><trkpt lat="21.083054" lon="105.788017"><ele>-10.3</ele><time>2011-04-29T09:42:50.0000000+00:00</time></trkpt><trkpt lat="21.082455" lon="105.788216"><ele>-12.6</ele><time>2011-04-29T09:42:55.0000000+00:00</time></trkpt><trkpt lat="21.081825" lon="105.788361"><ele>-12.6</ele><time>2011-04-29T09:43:00.0000000+00:00</time></trkpt><trkpt lat="21.081184" lon="105.788391"><ele>-13.5</ele><time>2011-04-29T09:43:05.0000000+00:00</time></trkpt><trkpt lat="21.080526" lon="105.788338"><ele>-13.7</ele><time>2011-04-29T09:43:10.0000000+00:00</time></trkpt><trkpt lat="21.079931" lon="105.7882"><ele>-10.9</ele><time>2011-04-29T09:43:15.0000000+00:00</time></trkpt><trkpt lat="21.079365" lon="105.787971"><ele>-5.7</ele><time>2011-04-29T09:43:20.0000000+00:00</time></trkpt><trkpt lat="21.078932" lon="105.787727"><ele>-3.7</ele><time>2011-04-29T09:43:25.0000000+00:00</time></trkpt><trkpt lat="21.078634" lon="105.787544"><ele>-2.8</ele><time>2011-04-29T09:43:30.0000000+00:00</time></trkpt><trkpt lat="21.078415" lon="105.787399"><ele>-2.3</ele><time>2011-04-29T09:43:35.0000000+00:00</time></trkpt><trkpt lat="21.078203" lon="105.78727"><ele>-1.4</ele><time>2011-04-29T09:43:40.0000000+00:00</time></trkpt><trkpt lat="21.07799" lon="105.787155"><ele>-2.7</ele><time>2011-04-29T09:43:45.0000000+00:00</time></trkpt><trkpt lat="21.077774" lon="105.78701"><ele>-2.7</ele><time>2011-04-29T09:43:50.0000000+00:00</time></trkpt><trkpt lat="21.077536" lon="105.786858"><ele>-2.2</ele><time>2011-04-29T09:43:55.0000000+00:00</time></trkpt><trkpt lat="21.077211" lon="105.786674"><ele>0.7</ele><time>2011-04-29T09:44:00.0000000+00:00</time></trkpt><trkpt lat="21.07683" lon="105.786446"><ele>-0.3</ele><time>2011-04-29T09:44:05.0000000+00:00</time></trkpt><trkpt lat="21.076382" lon="105.78624"><ele>1.1</ele><time>2011-04-29T09:44:10.0000000+00:00</time></trkpt><trkpt lat="21.075802" lon="105.785995"><ele>2.4</ele><time>2011-04-29T09:44:15.0000000+00:00</time></trkpt><trkpt lat="21.075201" lon="105.785873"><ele>2.4</ele><time>2011-04-29T09:44:20.0000000+00:00</time></trkpt><trkpt lat="21.074627" lon="105.78582"><ele>-0.4</ele><time>2011-04-29T09:44:25.0000000+00:00</time></trkpt><trkpt lat="21.074087" lon="105.785789"><ele>-0.0</ele><time>2011-04-29T09:44:30.0000000+00:00</time></trkpt><trkpt lat="21.073561" lon="105.785744"><ele>-0.4</ele><time>2011-04-29T09:44:35.0000000+00:00</time></trkpt><trkpt lat="21.073002" lon="105.785706"><ele>1.0</ele><time>2011-04-29T09:44:40.0000000+00:00</time></trkpt><trkpt lat="21.072449" lon="105.785667"><ele>0.7</ele><time>2011-04-29T09:44:45.0000000+00:00</time></trkpt><trkpt lat="21.071911" lon="105.785637"><ele>-0.2</ele><time>2011-04-29T09:44:50.0000000+00:00</time></trkpt><trkpt lat="21.071379" lon="105.785591"><ele>-2.1</ele><time>2011-04-29T09:44:55.0000000+00:00</time></trkpt><trkpt lat="21.070864" lon="105.785545"><ele>-3.8</ele><time>2011-04-29T09:45:00.0000000+00:00</time></trkpt><trkpt lat="21.070421" lon="105.785515"><ele>-5.0</ele><time>2011-04-29T09:45:05.0000000+00:00</time></trkpt><trkpt lat="21.070021" lon="105.785477"><ele>-4.1</ele><time>2011-04-29T09:45:10.0000000+00:00</time></trkpt><trkpt lat="21.069601" lon="105.785446"><ele>-4.3</ele><time>2011-04-29T09:45:15.0000000+00:00</time></trkpt><trkpt lat="21.069166" lon="105.785416"><ele>-3.1</ele><time>2011-04-29T09:45:20.0000000+00:00</time></trkpt><trkpt lat="21.068806" lon="105.785355"><ele>-6.3</ele><time>2011-04-29T09:45:25.0000000+00:00</time></trkpt><trkpt lat="21.068497" lon="105.785309"><ele>-3.1</ele><time>2011-04-29T09:45:30.0000000+00:00</time></trkpt><trkpt lat="21.068113" lon="105.785255"><ele>-3.7</ele><time>2011-04-29T09:45:35.0000000+00:00</time></trkpt><trkpt lat="21.067677" lon="105.785172"><ele>-4.3</ele><time>2011-04-29T09:45:40.0000000+00:00</time></trkpt><trkpt lat="21.067223" lon="105.785088"><ele>-6.4</ele><time>2011-04-29T09:45:45.0000000+00:00</time></trkpt><trkpt lat="21.066704" lon="105.784981"><ele>-5.2</ele><time>2011-04-29T09:45:50.0000000+00:00</time></trkpt><trkpt lat="21.066177" lon="105.784843"><ele>-4.9</ele><time>2011-04-29T09:45:55.0000000+00:00</time></trkpt><trkpt lat="21.065668" lon="105.784737"><ele>-3.4</ele><time>2011-04-29T09:46:00.0000000+00:00</time></trkpt><trkpt lat="21.065115" lon="105.784592"><ele>-3.9</ele><time>2011-04-29T09:46:05.0000000+00:00</time></trkpt><trkpt lat="21.064566" lon="105.784447"><ele>-2.8</ele><time>2011-04-29T09:46:10.0000000+00:00</time></trkpt><trkpt lat="21.064066" lon="105.784317"><ele>-1.3</ele><time>2011-04-29T09:46:15.0000000+00:00</time></trkpt><trkpt lat="21.06361" lon="105.78418"><ele>-2.3</ele><time>2011-04-29T09:46:20.0000000+00:00</time></trkpt><trkpt lat="21.063169" lon="105.784081"><ele>-1.2</ele><time>2011-04-29T09:46:25.0000000+00:00</time></trkpt><trkpt lat="21.0627" lon="105.783966"><ele>-0.9</ele><time>2011-04-29T09:46:30.0000000+00:00</time></trkpt><trkpt lat="21.062235" lon="105.783852"><ele>0.2</ele><time>2011-04-29T09:46:35.0000000+00:00</time></trkpt><trkpt lat="21.061821" lon="105.78376"><ele>1.5</ele><time>2011-04-29T09:46:40.0000000+00:00</time></trkpt><trkpt lat="21.061455" lon="105.783653"><ele>-0.1</ele><time>2011-04-29T09:46:45.0000000+00:00</time></trkpt><trkpt lat="21.061117" lon="105.783562"><ele>0.8</ele><time>2011-04-29T09:46:50.0000000+00:00</time></trkpt><trkpt lat="21.060778" lon="105.78347"><ele>2.1</ele><time>2011-04-29T09:46:55.0000000+00:00</time></trkpt><trkpt lat="21.060465" lon="105.783401"><ele>1.6</ele><time>2011-04-29T09:47:00.0000000+00:00</time></trkpt><trkpt lat="21.060202" lon="105.78334"><ele>2.8</ele><time>2011-04-29T09:47:05.0000000+00:00</time></trkpt><trkpt lat="21.060003" lon="105.783302"><ele>3.0</ele><time>2011-04-29T09:47:10.0000000+00:00</time></trkpt><trkpt lat="21.059818" lon="105.783264"><ele>6.8</ele><time>2011-04-29T09:47:15.0000000+00:00</time></trkpt><trkpt lat="21.059746" lon="105.783241"><ele>7.2</ele><time>2011-04-29T09:47:20.0000000+00:00</time></trkpt><trkpt lat="21.059717" lon="105.783249"><ele>8.8</ele><time>2011-04-29T09:47:25.0000000+00:00</time></trkpt><trkpt lat="21.059706" lon="105.783249"><ele>9.8</ele><time>2011-04-29T09:47:30.0000000+00:00</time></trkpt><trkpt lat="21.059706" lon="105.783257"><ele>10.3</ele><time>2011-04-29T09:47:35.0000000+00:00</time></trkpt><trkpt lat="21.059681" lon="105.783257"><ele>10.1</ele><time>2011-04-29T09:47:40.0000000+00:00</time></trkpt><trkpt lat="21.059553" lon="105.783211"><ele>8.9</ele><time>2011-04-29T09:47:45.0000000+00:00</time></trkpt><trkpt lat="21.059418" lon="105.783173"><ele>7.1</ele><time>2011-04-29T09:47:50.0000000+00:00</time></trkpt><trkpt lat="21.059294" lon="105.783127"><ele>7.8</ele><time>2011-04-29T09:47:55.0000000+00:00</time></trkpt><trkpt lat="21.059151" lon="105.783081"><ele>2.9</ele><time>2011-04-29T09:48:00.0000000+00:00</time></trkpt><trkpt lat="21.058962" lon="105.782997"><ele>-0.7</ele><time>2011-04-29T09:48:05.0000000+00:00</time></trkpt><trkpt lat="21.058731" lon="105.782951"><ele>-0.1</ele><time>2011-04-29T09:48:10.0000000+00:00</time></trkpt><trkpt lat="21.058479" lon="105.78289"><ele>-2.9</ele><time>2011-04-29T09:48:15.0000000+00:00</time></trkpt><trkpt lat="21.058212" lon="105.782822"><ele>-0.6</ele><time>2011-04-29T09:48:20.0000000+00:00</time></trkpt><trkpt lat="21.058008" lon="105.782753"><ele>1.8</ele><time>2011-04-29T09:48:25.0000000+00:00</time></trkpt><trkpt lat="21.057808" lon="105.782692"><ele>1.7</ele><time>2011-04-29T09:48:30.0000000+00:00</time></trkpt><trkpt lat="21.057587" lon="105.782654"><ele>-0.4</ele><time>2011-04-29T09:48:35.0000000+00:00</time></trkpt><trkpt lat="21.057369" lon="105.782585"><ele>-0.8</ele><time>2011-04-29T09:48:40.0000000+00:00</time></trkpt><trkpt lat="21.057264" lon="105.782547"><ele>-0.4</ele><time>2011-04-29T09:48:45.0000000+00:00</time></trkpt><trkpt lat="21.057186" lon="105.782524"><ele>1.6</ele><time>2011-04-29T09:48:50.0000000+00:00</time></trkpt><trkpt lat="21.057085" lon="105.782494"><ele>1.1</ele><time>2011-04-29T09:48:55.0000000+00:00</time></trkpt><trkpt lat="21.056984" lon="105.78244"><ele>0.2</ele><time>2011-04-29T09:49:00.0000000+00:00</time></trkpt><trkpt lat="21.056845" lon="105.782402"><ele>-1.6</ele><time>2011-04-29T09:49:05.0000000+00:00</time></trkpt><trkpt lat="21.056738" lon="105.782394"><ele>-3.0</ele><time>2011-04-29T09:49:10.0000000+00:00</time></trkpt><trkpt lat="21.056681" lon="105.782402"><ele>-5.6</ele><time>2011-04-29T09:49:15.0000000+00:00</time></trkpt><trkpt lat="21.05661" lon="105.782402"><ele>-8.0</ele><time>2011-04-29T09:49:20.0000000+00:00</time></trkpt><trkpt lat="21.056559" lon="105.782379"><ele>-8.7</ele><time>2011-04-29T09:49:25.0000000+00:00</time></trkpt><trkpt lat="21.05649" lon="105.782372"><ele>-9.1</ele><time>2011-04-29T09:49:30.0000000+00:00</time></trkpt><trkpt lat="21.056372" lon="105.782349"><ele>-9.7</ele><time>2011-04-29T09:49:35.0000000+00:00</time></trkpt><trkpt lat="21.056206" lon="105.782295"><ele>-10.0</ele><time>2011-04-29T09:49:40.0000000+00:00</time></trkpt><trkpt lat="21.055939" lon="105.782249"><ele>-9.1</ele><time>2011-04-29T09:49:45.0000000+00:00</time></trkpt><trkpt lat="21.055557" lon="105.782173"><ele>-8.9</ele><time>2011-04-29T09:49:50.0000000+00:00</time></trkpt><trkpt lat="21.055141" lon="105.782074"><ele>-5.2</ele><time>2011-04-29T09:49:55.0000000+00:00</time></trkpt><trkpt lat="21.05471" lon="105.781975"><ele>-4.7</ele><time>2011-04-29T09:50:00.0000000+00:00</time></trkpt><trkpt lat="21.054228" lon="105.781883"><ele>-5.4</ele><time>2011-04-29T09:50:05.0000000+00:00</time></trkpt><trkpt lat="21.053778" lon="105.781822"><ele>-7.2</ele><time>2011-04-29T09:50:10.0000000+00:00</time></trkpt><trkpt lat="21.053318" lon="105.781776"><ele>-8.2</ele><time>2011-04-29T09:50:15.0000000+00:00</time></trkpt><trkpt lat="21.052889" lon="105.781738"><ele>-9.9</ele><time>2011-04-29T09:50:20.0000000+00:00</time></trkpt><trkpt lat="21.052532" lon="105.781715"><ele>-15.1</ele><time>2011-04-29T09:50:25.0000000+00:00</time></trkpt><trkpt lat="21.052244" lon="105.78167"><ele>-14.7</ele><time>2011-04-29T09:50:30.0000000+00:00</time></trkpt><trkpt lat="21.051996" lon="105.781654"><ele>-15.4</ele><time>2011-04-29T09:50:35.0000000+00:00</time></trkpt><trkpt lat="21.051819" lon="105.78167"><ele>-10.5</ele><time>2011-04-29T09:50:40.0000000+00:00</time></trkpt><trkpt lat="21.051756" lon="105.781631"><ele>-7.2</ele><time>2011-04-29T09:50:45.0000000+00:00</time></trkpt><trkpt lat="21.051733" lon="105.781616"><ele>-4.9</ele><time>2011-04-29T09:50:50.0000000+00:00</time></trkpt><trkpt lat="21.051638" lon="105.781624"><ele>-2.0</ele><time>2011-04-29T09:50:55.0000000+00:00</time></trkpt><trkpt lat="21.051491" lon="105.781578"><ele>1.2</ele><time>2011-04-29T09:51:00.0000000+00:00</time></trkpt><trkpt lat="21.051176" lon="105.781563"><ele>4.3</ele><time>2011-04-29T09:51:05.0000000+00:00</time></trkpt><trkpt lat="21.050785" lon="105.781555"><ele>9.3</ele><time>2011-04-29T09:51:10.0000000+00:00</time></trkpt><trkpt lat="21.05052" lon="105.78157"><ele>9.2</ele><time>2011-04-29T09:51:15.0000000+00:00</time></trkpt><trkpt lat="21.050251" lon="105.781555"><ele>11.0</ele><time>2011-04-29T09:51:20.0000000+00:00</time></trkpt><trkpt lat="21.049894" lon="105.781509"><ele>12.0</ele><time>2011-04-29T09:51:25.0000000+00:00</time></trkpt><trkpt lat="21.049488" lon="105.781479"><ele>11.6</ele><time>2011-04-29T09:51:30.0000000+00:00</time></trkpt><trkpt lat="21.04908" lon="105.781441"><ele>10.3</ele><time>2011-04-29T09:51:35.0000000+00:00</time></trkpt><trkpt lat="21.048683" lon="105.781425"><ele>8.6</ele><time>2011-04-29T09:51:40.0000000+00:00</time></trkpt><trkpt lat="21.048355" lon="105.781395"><ele>12.0</ele><time>2011-04-29T09:51:45.0000000+00:00</time></trkpt><trkpt lat="21.048134" lon="105.781372"><ele>13.0</ele><time>2011-04-29T09:51:50.0000000+00:00</time></trkpt><trkpt lat="21.047926" lon="105.781357"><ele>10.2</ele><time>2011-04-29T09:51:55.0000000+00:00</time></trkpt><trkpt lat="21.047846" lon="105.781326"><ele>4.6</ele><time>2011-04-29T09:52:00.0000000+00:00</time></trkpt><trkpt lat="21.047729" lon="105.781326"><ele>5.3</ele><time>2011-04-29T09:52:05.0000000+00:00</time></trkpt><trkpt lat="21.047567" lon="105.781311"><ele>4.4</ele><time>2011-04-29T09:52:10.0000000+00:00</time></trkpt><trkpt lat="21.047356" lon="105.781319"><ele>2.4</ele><time>2011-04-29T09:52:15.0000000+00:00</time></trkpt><trkpt lat="21.047194" lon="105.781296"><ele>-1.7</ele><time>2011-04-29T09:52:20.0000000+00:00</time></trkpt><trkpt lat="21.047083" lon="105.781311"><ele>-4.8</ele><time>2011-04-29T09:52:25.0000000+00:00</time></trkpt><trkpt lat="21.046982" lon="105.781311"><ele>-10.6</ele><time>2011-04-29T09:52:30.0000000+00:00</time></trkpt><trkpt lat="21.046883" lon="105.781296"><ele>-10.6</ele><time>2011-04-29T09:52:35.0000000+00:00</time></trkpt><trkpt lat="21.046762" lon="105.781273"><ele>-11.3</ele><time>2011-04-29T09:52:40.0000000+00:00</time></trkpt><trkpt lat="21.046621" lon="105.78125"><ele>-10.8</ele><time>2011-04-29T09:52:45.0000000+00:00</time></trkpt><trkpt lat="21.04644" lon="105.781242"><ele>-12.2</ele><time>2011-04-29T09:52:50.0000000+00:00</time></trkpt><trkpt lat="21.046206" lon="105.781235"><ele>-7.8</ele><time>2011-04-29T09:52:55.0000000+00:00</time></trkpt><trkpt lat="21.045982" lon="105.781219"><ele>-7.8</ele><time>2011-04-29T09:53:00.0000000+00:00</time></trkpt><trkpt lat="21.0457" lon="105.781204"><ele>-5.7</ele><time>2011-04-29T09:53:05.0000000+00:00</time></trkpt><trkpt lat="21.045351" lon="105.781189"><ele>-5.4</ele><time>2011-04-29T09:53:10.0000000+00:00</time></trkpt><trkpt lat="21.044952" lon="105.781166"><ele>-4.9</ele><time>2011-04-29T09:53:15.0000000+00:00</time></trkpt><trkpt lat="21.044565" lon="105.781128"><ele>-6.1</ele><time>2011-04-29T09:53:20.0000000+00:00</time></trkpt><trkpt lat="21.044191" lon="105.781097"><ele>-7.7</ele><time>2011-04-29T09:53:25.0000000+00:00</time></trkpt><trkpt lat="21.04393" lon="105.78109"><ele>-9.0</ele><time>2011-04-29T09:53:30.0000000+00:00</time></trkpt><trkpt lat="21.043785" lon="105.781067"><ele>-11.6</ele><time>2011-04-29T09:53:35.0000000+00:00</time></trkpt><trkpt lat="21.043688" lon="105.781036"><ele>-12.9</ele><time>2011-04-29T09:53:40.0000000+00:00</time></trkpt><trkpt lat="21.043638" lon="105.781029"><ele>-13.0</ele><time>2011-04-29T09:53:45.0000000+00:00</time></trkpt><trkpt lat="21.043579" lon="105.781029"><ele>-13.1</ele><time>2011-04-29T09:53:50.0000000+00:00</time></trkpt><trkpt lat="21.043516" lon="105.781021"><ele>-10.7</ele><time>2011-04-29T09:53:55.0000000+00:00</time></trkpt><trkpt lat="21.043455" lon="105.781029"><ele>-9.6</ele><time>2011-04-29T09:54:00.0000000+00:00</time></trkpt><trkpt lat="21.043392" lon="105.781013"><ele>-8.4</ele><time>2011-04-29T09:54:05.0000000+00:00</time></trkpt><trkpt lat="21.043304" lon="105.781013"><ele>-8.2</ele><time>2011-04-29T09:54:10.0000000+00:00</time></trkpt><trkpt lat="21.043207" lon="105.781006"><ele>-9.2</ele><time>2011-04-29T09:54:15.0000000+00:00</time></trkpt><trkpt lat="21.043098" lon="105.780991"><ele>-9.4</ele><time>2011-04-29T09:54:20.0000000+00:00</time></trkpt><trkpt lat="21.042971" lon="105.780975"><ele>-9.9</ele><time>2011-04-29T09:54:25.0000000+00:00</time></trkpt><trkpt lat="21.042875" lon="105.780983"><ele>-11.4</ele><time>2011-04-29T09:54:30.0000000+00:00</time></trkpt><trkpt lat="21.042839" lon="105.780968"><ele>-11.6</ele><time>2011-04-29T09:54:35.0000000+00:00</time></trkpt><trkpt lat="21.04277" lon="105.780952"><ele>-10.9</ele><time>2011-04-29T09:54:40.0000000+00:00</time></trkpt><trkpt lat="21.042637" lon="105.78096"><ele>-10.0</ele><time>2011-04-29T09:54:45.0000000+00:00</time></trkpt><trkpt lat="21.042444" lon="105.780937"><ele>-10.6</ele><time>2011-04-29T09:54:50.0000000+00:00</time></trkpt><trkpt lat="21.042206" lon="105.780914"><ele>-12.2</ele><time>2011-04-29T09:54:55.0000000+00:00</time></trkpt><trkpt lat="21.041943" lon="105.780907"><ele>-13.5</ele><time>2011-04-29T09:55:00.0000000+00:00</time></trkpt><trkpt lat="21.041624" lon="105.780899"><ele>-10.2</ele><time>2011-04-29T09:55:05.0000000+00:00</time></trkpt><trkpt lat="21.041288" lon="105.780876"><ele>-10.8</ele><time>2011-04-29T09:55:10.0000000+00:00</time></trkpt><trkpt lat="21.040997" lon="105.780853"><ele>-11.8</ele><time>2011-04-29T09:55:15.0000000+00:00</time></trkpt><trkpt lat="21.040707" lon="105.780876"><ele>-11.0</ele><time>2011-04-29T09:55:20.0000000+00:00</time></trkpt><trkpt lat="21.040304" lon="105.780861"><ele>-8.8</ele><time>2011-04-29T09:55:25.0000000+00:00</time></trkpt><trkpt lat="21.039852" lon="105.780846"><ele>-8.3</ele><time>2011-04-29T09:55:30.0000000+00:00</time></trkpt><trkpt lat="21.039402" lon="105.780823"><ele>-6.8</ele><time>2011-04-29T09:55:35.0000000+00:00</time></trkpt><trkpt lat="21.038944" lon="105.780785"><ele>-6.6</ele><time>2011-04-29T09:55:40.0000000+00:00</time></trkpt><trkpt lat="21.038465" lon="105.780746"><ele>-4.8</ele><time>2011-04-29T09:55:45.0000000+00:00</time></trkpt><trkpt lat="21.038052" lon="105.780701"><ele>-1.9</ele><time>2011-04-29T09:55:50.0000000+00:00</time></trkpt><trkpt lat="21.037628" lon="105.780655"><ele>0.2</ele><time>2011-04-29T09:55:55.0000000+00:00</time></trkpt><trkpt lat="21.037174" lon="105.780602"><ele>-1.8</ele><time>2011-04-29T09:56:00.0000000+00:00</time></trkpt><trkpt lat="21.036718" lon="105.78054"><ele>-0.2</ele><time>2011-04-29T09:56:05.0000000+00:00</time></trkpt><trkpt lat="21.03623" lon="105.780487"><ele>0.3</ele><time>2011-04-29T09:56:10.0000000+00:00</time></trkpt><trkpt lat="21.035728" lon="105.780403"><ele>0.3</ele><time>2011-04-29T09:56:15.0000000+00:00</time></trkpt><trkpt lat="21.035191" lon="105.780289"><ele>-1.4</ele><time>2011-04-29T09:56:20.0000000+00:00</time></trkpt><trkpt lat="21.034674" lon="105.780205"><ele>-2.6</ele><time>2011-04-29T09:56:25.0000000+00:00</time></trkpt><trkpt lat="21.034206" lon="105.780128"><ele>-4.1</ele><time>2011-04-29T09:56:30.0000000+00:00</time></trkpt><trkpt lat="21.03377" lon="105.780067"><ele>-3.8</ele><time>2011-04-29T09:56:35.0000000+00:00</time></trkpt><trkpt lat="21.033386" lon="105.779991"><ele>-4.3</ele><time>2011-04-29T09:56:40.0000000+00:00</time></trkpt><trkpt lat="21.033089" lon="105.779915"><ele>-4.2</ele><time>2011-04-29T09:56:45.0000000+00:00</time></trkpt><trkpt lat="21.032751" lon="105.779823"><ele>-6.6</ele><time>2011-04-29T09:56:50.0000000+00:00</time></trkpt><trkpt lat="21.032475" lon="105.779739"><ele>-5.3</ele><time>2011-04-29T09:56:55.0000000+00:00</time></trkpt><trkpt lat="21.032276" lon="105.779678"><ele>-3.8</ele><time>2011-04-29T09:57:00.0000000+00:00</time></trkpt><trkpt lat="21.03212" lon="105.779648"><ele>-4.9</ele><time>2011-04-29T09:57:05.0000000+00:00</time></trkpt><trkpt lat="21.032013" lon="105.779617"><ele>-3.0</ele><time>2011-04-29T09:57:10.0000000+00:00</time></trkpt><trkpt lat="21.031925" lon="105.77961"><ele>-2.4</ele><time>2011-04-29T09:57:15.0000000+00:00</time></trkpt><trkpt lat="21.031834" lon="105.779594"><ele>-2.2</ele><time>2011-04-29T09:57:20.0000000+00:00</time></trkpt><trkpt lat="21.031738" lon="105.779572"><ele>0.3</ele><time>2011-04-29T09:57:25.0000000+00:00</time></trkpt><trkpt lat="21.031626" lon="105.779556"><ele>1.5</ele><time>2011-04-29T09:57:30.0000000+00:00</time></trkpt><trkpt lat="21.031511" lon="105.779541"><ele>0.8</ele><time>2011-04-29T09:57:35.0000000+00:00</time></trkpt><trkpt lat="21.031403" lon="105.77948"><ele>0.1</ele><time>2011-04-29T09:57:40.0000000+00:00</time></trkpt><trkpt lat="21.031303" lon="105.77948"><ele>0.1</ele><time>2011-04-29T09:57:45.0000000+00:00</time></trkpt><trkpt lat="21.031219" lon="105.779465"><ele>2.3</ele><time>2011-04-29T09:57:50.0000000+00:00</time></trkpt><trkpt lat="21.031136" lon="105.779442"><ele>3.0</ele><time>2011-04-29T09:57:55.0000000+00:00</time></trkpt><trkpt lat="21.031019" lon="105.779427"><ele>3.9</ele><time>2011-04-29T09:58:00.0000000+00:00</time></trkpt><trkpt lat="21.030926" lon="105.779396"><ele>3.8</ele><time>2011-04-29T09:58:05.0000000+00:00</time></trkpt><trkpt lat="21.03087" lon="105.779396"><ele>0.1</ele><time>2011-04-29T09:58:10.0000000+00:00</time></trkpt><trkpt lat="21.030832" lon="105.779396"><ele>0.9</ele><time>2011-04-29T09:58:15.0000000+00:00</time></trkpt><trkpt lat="21.030745" lon="105.779388"><ele>0.3</ele><time>2011-04-29T09:58:20.0000000+00:00</time></trkpt><trkpt lat="21.030691" lon="105.779381"><ele>-2.3</ele><time>2011-04-29T09:58:25.0000000+00:00</time></trkpt><trkpt lat="21.030638" lon="105.779396"><ele>-1.6</ele><time>2011-04-29T09:58:30.0000000+00:00</time></trkpt><trkpt lat="21.0306" lon="105.779388"><ele>-0.8</ele><time>2011-04-29T09:58:35.0000000+00:00</time></trkpt><trkpt lat="21.030577" lon="105.779366"><ele>-1.2</ele><time>2011-04-29T09:58:40.0000000+00:00</time></trkpt><trkpt lat="21.030533" lon="105.779373"><ele>-0.5</ele><time>2011-04-29T09:58:45.0000000+00:00</time></trkpt><trkpt lat="21.030502" lon="105.779366"><ele>-0.6</ele><time>2011-04-29T09:58:50.0000000+00:00</time></trkpt><trkpt lat="21.030439" lon="105.779358"><ele>0.4</ele><time>2011-04-29T09:58:55.0000000+00:00</time></trkpt><trkpt lat="21.030405" lon="105.779343"><ele>1.4</ele><time>2011-04-29T09:59:00.0000000+00:00</time></trkpt><trkpt lat="21.030333" lon="105.779343"><ele>1.9</ele><time>2011-04-29T09:59:05.0000000+00:00</time></trkpt><trkpt lat="21.030294" lon="105.779343"><ele>1.6</ele><time>2011-04-29T09:59:10.0000000+00:00</time></trkpt><trkpt lat="21.030266" lon="105.779335"><ele>1.8</ele><time>2011-04-29T09:59:15.0000000+00:00</time></trkpt><trkpt lat="21.030226" lon="105.779327"><ele>1.6</ele><time>2011-04-29T09:59:20.0000000+00:00</time></trkpt><trkpt lat="21.030195" lon="105.77932"><ele>1.3</ele><time>2011-04-29T09:59:25.0000000+00:00</time></trkpt><trkpt lat="21.030151" lon="105.779305"><ele>0.9</ele><time>2011-04-29T09:59:30.0000000+00:00</time></trkpt><trkpt lat="21.030125" lon="105.779305"><ele>0.9</ele><time>2011-04-29T09:59:35.0000000+00:00</time></trkpt><trkpt lat="21.030064" lon="105.779289"><ele>1.2</ele><time>2011-04-29T09:59:40.0000000+00:00</time></trkpt><trkpt lat="21.029999" lon="105.779282"><ele>0.8</ele><time>2011-04-29T09:59:45.0000000+00:00</time></trkpt><trkpt lat="21.029902" lon="105.779282"><ele>0.3</ele><time>2011-04-29T09:59:50.0000000+00:00</time></trkpt><trkpt lat="21.029804" lon="105.779259"><ele>-0.1</ele><time>2011-04-29T09:59:55.0000000+00:00</time></trkpt><trkpt lat="21.029711" lon="105.779228"><ele>-0.2</ele><time>2011-04-29T10:00:00.0000000+00:00</time></trkpt><trkpt lat="21.02964" lon="105.779213"><ele>-0.5</ele><time>2011-04-29T10:00:05.0000000+00:00</time></trkpt><trkpt lat="21.029573" lon="105.779198"><ele>-0.5</ele><time>2011-04-29T10:00:10.0000000+00:00</time></trkpt><trkpt lat="21.029509" lon="105.779182"><ele>-1.3</ele><time>2011-04-29T10:00:15.0000000+00:00</time></trkpt><trkpt lat="21.029442" lon="105.779167"><ele>-1.8</ele><time>2011-04-29T10:00:20.0000000+00:00</time></trkpt><trkpt lat="21.02936" lon="105.779167"><ele>-2.0</ele><time>2011-04-29T10:00:25.0000000+00:00</time></trkpt><trkpt lat="21.029305" lon="105.779175"><ele>-2.3</ele><time>2011-04-29T10:00:30.0000000+00:00</time></trkpt><trkpt lat="21.029274" lon="105.77916"><ele>-2.4</ele><time>2011-04-29T10:00:35.0000000+00:00</time></trkpt><trkpt lat="21.029245" lon="105.779175"><ele>-1.9</ele><time>2011-04-29T10:00:40.0000000+00:00</time></trkpt><trkpt lat="21.029219" lon="105.779175"><ele>-2.1</ele><time>2011-04-29T10:00:45.0000000+00:00</time></trkpt><trkpt lat="21.029211" lon="105.779152"><ele>-2.8</ele><time>2011-04-29T10:00:50.0000000+00:00</time></trkpt><trkpt lat="21.029196" lon="105.779144"><ele>-2.5</ele><time>2011-04-29T10:00:55.0000000+00:00</time></trkpt><trkpt lat="21.029184" lon="105.779129"><ele>-3.1</ele><time>2011-04-29T10:01:00.0000000+00:00</time></trkpt><trkpt lat="21.029163" lon="105.779137"><ele>-3.2</ele><time>2011-04-29T10:01:05.0000000+00:00</time></trkpt><trkpt lat="21.029158" lon="105.779121"><ele>-3.2</ele><time>2011-04-29T10:01:10.0000000+00:00</time></trkpt><trkpt lat="21.029131" lon="105.779121"><ele>-3.7</ele><time>2011-04-29T10:01:15.0000000+00:00</time></trkpt><trkpt lat="21.029097" lon="105.779106"><ele>-3.4</ele><time>2011-04-29T10:01:20.0000000+00:00</time></trkpt><trkpt lat="21.029093" lon="105.779091"><ele>-3.3</ele><time>2011-04-29T10:01:25.0000000+00:00</time></trkpt><trkpt lat="21.029057" lon="105.779091"><ele>-3.3</ele><time>2011-04-29T10:01:30.0000000+00:00</time></trkpt><trkpt lat="21.029009" lon="105.779091"><ele>-3.9</ele><time>2011-04-29T10:01:35.0000000+00:00</time></trkpt><trkpt lat="21.028954" lon="105.779083"><ele>-3.3</ele><time>2011-04-29T10:01:40.0000000+00:00</time></trkpt><trkpt lat="21.028917" lon="105.779068"><ele>-3.9</ele><time>2011-04-29T10:01:45.0000000+00:00</time></trkpt><trkpt lat="21.028856" lon="105.779045"><ele>-4.6</ele><time>2011-04-29T10:01:50.0000000+00:00</time></trkpt><trkpt lat="21.028818" lon="105.778999"><ele>-4.6</ele><time>2011-04-29T10:01:55.0000000+00:00</time></trkpt><trkpt lat="21.028809" lon="105.778938"><ele>-4.6</ele><time>2011-04-29T10:02:00.0000000+00:00</time></trkpt><trkpt lat="21.028797" lon="105.778877"><ele>-3.9</ele><time>2011-04-29T10:02:05.0000000+00:00</time></trkpt><trkpt lat="21.028811" lon="105.778801"><ele>-3.0</ele><time>2011-04-29T10:02:10.0000000+00:00</time></trkpt><trkpt lat="21.02882" lon="105.778702"><ele>-2.6</ele><time>2011-04-29T10:02:15.0000000+00:00</time></trkpt><trkpt lat="21.02882" lon="105.778648"><ele>-2.1</ele><time>2011-04-29T10:02:20.0000000+00:00</time></trkpt><trkpt lat="21.028835" lon="105.778625"><ele>-2.5</ele><time>2011-04-29T10:02:25.0000000+00:00</time></trkpt><trkpt lat="21.028837" lon="105.778603"><ele>-3.4</ele><time>2011-04-29T10:02:30.0000000+00:00</time></trkpt><trkpt lat="21.028839" lon="105.778587"><ele>-3.2</ele><time>2011-04-29T10:02:35.0000000+00:00</time></trkpt><trkpt lat="21.028835" lon="105.77858"><ele>-3.1</ele><time>2011-04-29T10:02:40.0000000+00:00</time></trkpt><trkpt lat="21.028835" lon="105.77858"><ele>-3.1</ele><time>2011-04-29T10:02:45.0000000+00:00</time></trkpt><trkpt lat="21.028841" lon="105.778572"><ele>-3.0</ele><time>2011-04-29T10:02:50.0000000+00:00</time></trkpt><trkpt lat="21.028845" lon="105.778564"><ele>-3.0</ele><time>2011-04-29T10:02:55.0000000+00:00</time></trkpt><trkpt lat="21.028851" lon="105.778519"><ele>-1.0</ele><time>2011-04-29T10:03:00.0000000+00:00</time></trkpt><trkpt lat="21.028872" lon="105.778473"><ele>-0.9</ele><time>2011-04-29T10:03:05.0000000+00:00</time></trkpt><trkpt lat="21.02887" lon="105.778458"><ele>-1.2</ele><time>2011-04-29T10:03:10.0000000+00:00</time></trkpt><trkpt lat="21.028887" lon="105.778427"><ele>-0.5</ele><time>2011-04-29T10:03:15.0000000+00:00</time></trkpt><trkpt lat="21.028906" lon="105.778397"><ele>-0.5</ele><time>2011-04-29T10:03:20.0000000+00:00</time></trkpt><trkpt lat="21.028921" lon="105.778381"><ele>0.8</ele><time>2011-04-29T10:03:25.0000000+00:00</time></trkpt><trkpt lat="21.028902" lon="105.778389"><ele>0.3</ele><time>2011-04-29T10:03:30.0000000+00:00</time></trkpt><trkpt lat="21.028908" lon="105.778366"><ele>0.4</ele><time>2011-04-29T10:03:35.0000000+00:00</time></trkpt><trkpt lat="21.028921" lon="105.778374"><ele>0.1</ele><time>2011-04-29T10:03:40.0000000+00:00</time></trkpt><trkpt lat="21.028923" lon="105.778381"><ele>0.1</ele><time>2011-04-29T10:03:45.0000000+00:00</time></trkpt><trkpt lat="21.028913" lon="105.778351"><ele>-0.0</ele><time>2011-04-29T10:03:50.0000000+00:00</time></trkpt><trkpt lat="21.028919" lon="105.778313"><ele>-0.2</ele><time>2011-04-29T10:03:55.0000000+00:00</time></trkpt><trkpt lat="21.028933" lon="105.778305"><ele>0.1</ele><time>2011-04-29T10:04:00.0000000+00:00</time></trkpt><trkpt lat="21.028934" lon="105.778297"><ele>-0.1</ele><time>2011-04-29T10:04:05.0000000+00:00</time></trkpt><trkpt lat="21.028927" lon="105.77829"><ele>-0.1</ele><time>2011-04-29T10:04:10.0000000+00:00</time></trkpt><trkpt lat="21.028925" lon="105.778267"><ele>-0.3</ele><time>2011-04-29T10:04:15.0000000+00:00</time></trkpt><trkpt lat="21.028925" lon="105.778236"><ele>-0.4</ele><time>2011-04-29T10:04:20.0000000+00:00</time></trkpt><trkpt lat="21.028921" lon="105.778221"><ele>-0.3</ele><time>2011-04-29T10:04:25.0000000+00:00</time></trkpt><trkpt lat="21.028912" lon="105.778175"><ele>-0.0</ele><time>2011-04-29T10:04:30.0000000+00:00</time></trkpt><trkpt lat="21.028938" lon="105.778168"><ele>-0.5</ele><time>2011-04-29T10:04:35.0000000+00:00</time></trkpt><trkpt lat="21.028946" lon="105.77813"><ele>-0.6</ele><time>2011-04-29T10:04:40.0000000+00:00</time></trkpt><trkpt lat="21.028938" lon="105.77813"><ele>-0.7</ele><time>2011-04-29T10:04:45.0000000+00:00</time></trkpt><trkpt lat="21.028925" lon="105.778107"><ele>-0.1</ele><time>2011-04-29T10:04:50.0000000+00:00</time></trkpt><trkpt lat="21.028917" lon="105.778084"><ele>0.1</ele><time>2011-04-29T10:04:55.0000000+00:00</time></trkpt><trkpt lat="21.028885" lon="105.778076"><ele>0.9</ele><time>2011-04-29T10:05:00.0000000+00:00</time></trkpt><trkpt lat="21.028877" lon="105.778099"><ele>1.3</ele><time>2011-04-29T10:05:05.0000000+00:00</time></trkpt><trkpt lat="21.028873" lon="105.778099"><ele>1.4</ele><time>2011-04-29T10:05:10.0000000+00:00</time></trkpt><trkpt lat="21.02887" lon="105.778099"><ele>1.5</ele><time>2011-04-29T10:05:15.0000000+00:00</time></trkpt><trkpt lat="21.02887" lon="105.778099"><ele>1.5</ele><time>2011-04-29T10:05:20.0000000+00:00</time></trkpt><trkpt lat="21.028872" lon="105.778099"><ele>1.5</ele><time>2011-04-29T10:05:25.0000000+00:00</time></trkpt><trkpt lat="21.028868" lon="105.778099"><ele>1.5</ele><time>2011-04-29T10:05:30.0000000+00:00</time></trkpt><trkpt lat="21.028864" lon="105.778099"><ele>0.9</ele><time>2011-04-29T10:05:35.0000000+00:00</time></trkpt><trkpt lat="21.028868" lon="105.778076"><ele>1.0</ele><time>2011-04-29T10:05:40.0000000+00:00</time></trkpt><trkpt lat="21.028881" lon="105.778038"><ele>0.9</ele><time>2011-04-29T10:05:45.0000000+00:00</time></trkpt><trkpt lat="21.028891" lon="105.778015"><ele>0.3</ele><time>2011-04-29T10:05:50.0000000+00:00</time></trkpt><trkpt lat="21.028929" lon="105.777962"><ele>1.2</ele><time>2011-04-29T10:05:55.0000000+00:00</time></trkpt><trkpt lat="21.028929" lon="105.777931"><ele>1.6</ele><time>2011-04-29T10:06:00.0000000+00:00</time></trkpt><trkpt lat="21.028934" lon="105.777908"><ele>1.4</ele><time>2011-04-29T10:06:05.0000000+00:00</time></trkpt><trkpt lat="21.028954" lon="105.777863"><ele>1.8</ele><time>2011-04-29T10:06:10.0000000+00:00</time></trkpt><trkpt lat="21.028963" lon="105.77784"><ele>2.5</ele><time>2011-04-29T10:06:15.0000000+00:00</time></trkpt><trkpt lat="21.028986" lon="105.777824"><ele>3.6</ele><time>2011-04-29T10:06:20.0000000+00:00</time></trkpt><trkpt lat="21.029005" lon="105.777779"><ele>3.9</ele><time>2011-04-29T10:06:25.0000000+00:00</time></trkpt><trkpt lat="21.028997" lon="105.777748"><ele>4.0</ele><time>2011-04-29T10:06:30.0000000+00:00</time></trkpt><trkpt lat="21.028997" lon="105.777702"><ele>4.8</ele><time>2011-04-29T10:06:35.0000000+00:00</time></trkpt><trkpt lat="21.028994" lon="105.777672"><ele>4.5</ele><time>2011-04-29T10:06:40.0000000+00:00</time></trkpt><trkpt lat="21.028973" lon="105.777664"><ele>4.1</ele><time>2011-04-29T10:06:45.0000000+00:00</time></trkpt><trkpt lat="21.028963" lon="105.777664"><ele>4.6</ele><time>2011-04-29T10:06:50.0000000+00:00</time></trkpt><trkpt lat="21.028961" lon="105.777657"><ele>4.7</ele><time>2011-04-29T10:06:55.0000000+00:00</time></trkpt><trkpt lat="21.028961" lon="105.777649"><ele>4.8</ele><time>2011-04-29T10:07:00.0000000+00:00</time></trkpt><trkpt lat="21.028965" lon="105.777649"><ele>4.9</ele><time>2011-04-29T10:07:05.0000000+00:00</time></trkpt><trkpt lat="21.028969" lon="105.777649"><ele>5.0</ele><time>2011-04-29T10:07:10.0000000+00:00</time></trkpt><trkpt lat="21.028965" lon="105.777649"><ele>5.0</ele><time>2011-04-29T10:07:15.0000000+00:00</time></trkpt><trkpt lat="21.028961" lon="105.777649"><ele>5.1</ele><time>2011-04-29T10:07:20.0000000+00:00</time></trkpt><trkpt lat="21.028959" lon="105.777641"><ele>5.1</ele><time>2011-04-29T10:07:25.0000000+00:00</time></trkpt><trkpt lat="21.028955" lon="105.777641"><ele>5.1</ele><time>2011-04-29T10:07:30.0000000+00:00</time></trkpt><trkpt lat="21.02895" lon="105.777641"><ele>5.2</ele><time>2011-04-29T10:07:35.0000000+00:00</time></trkpt><trkpt lat="21.02895" lon="105.777634"><ele>5.3</ele><time>2011-04-29T10:07:40.0000000+00:00</time></trkpt><trkpt lat="21.028957" lon="105.777626"><ele>5.2</ele><time>2011-04-29T10:07:45.0000000+00:00</time></trkpt><trkpt lat="21.028978" lon="105.777618"><ele>4.8</ele><time>2011-04-29T10:07:50.0000000+00:00</time></trkpt><trkpt lat="21.029007" lon="105.777611"><ele>1.7</ele><time>2011-04-29T10:07:55.0000000+00:00</time></trkpt><trkpt lat="21.028997" lon="105.777634"><ele>2.3</ele><time>2011-04-29T10:08:00.0000000+00:00</time></trkpt><trkpt lat="21.028999" lon="105.777634"><ele>2.2</ele><time>2011-04-29T10:08:05.0000000+00:00</time></trkpt><trkpt lat="21.028999" lon="105.777626"><ele>2.2</ele><time>2011-04-29T10:08:10.0000000+00:00</time></trkpt><trkpt lat="21.029026" lon="105.777603"><ele>2.2</ele><time>2011-04-29T10:08:15.0000000+00:00</time></trkpt><trkpt lat="21.029037" lon="105.777603"><ele>2.3</ele><time>2011-04-29T10:08:20.0000000+00:00</time></trkpt><trkpt lat="21.029037" lon="105.777596"><ele>2.3</ele><time>2011-04-29T10:08:25.0000000+00:00</time></trkpt><trkpt lat="21.029034" lon="105.777596"><ele>2.2</ele><time>2011-04-29T10:08:30.0000000+00:00</time></trkpt><trkpt lat="21.029028" lon="105.777588"><ele>2.1</ele><time>2011-04-29T10:08:35.0000000+00:00</time></trkpt><trkpt lat="21.029024" lon="105.77758"><ele>2.0</ele><time>2011-04-29T10:08:40.0000000+00:00</time></trkpt><trkpt lat="21.02902" lon="105.777573"><ele>1.8</ele><time>2011-04-29T10:08:45.0000000+00:00</time></trkpt><trkpt lat="21.02902" lon="105.777565"><ele>1.6</ele><time>2011-04-29T10:08:50.0000000+00:00</time></trkpt><trkpt lat="21.029016" lon="105.777557"><ele>1.4</ele><time>2011-04-29T10:08:55.0000000+00:00</time></trkpt><trkpt lat="21.029015" lon="105.77755"><ele>1.1</ele><time>2011-04-29T10:09:00.0000000+00:00</time></trkpt><trkpt lat="21.029007" lon="105.77755"><ele>0.8</ele><time>2011-04-29T10:09:05.0000000+00:00</time></trkpt><trkpt lat="21.028999" lon="105.77755"><ele>0.5</ele><time>2011-04-29T10:09:10.0000000+00:00</time></trkpt><trkpt lat="21.028994" lon="105.77755"><ele>0.2</ele><time>2011-04-29T10:09:15.0000000+00:00</time></trkpt><trkpt lat="21.028984" lon="105.77755"><ele>-0.2</ele><time>2011-04-29T10:09:20.0000000+00:00</time></trkpt><trkpt lat="21.02898" lon="105.77755"><ele>-0.4</ele><time>2011-04-29T10:09:25.0000000+00:00</time></trkpt><trkpt lat="21.028978" lon="105.777542"><ele>-0.7</ele><time>2011-04-29T10:09:30.0000000+00:00</time></trkpt><trkpt lat="21.028975" lon="105.777527"><ele>-0.9</ele><time>2011-04-29T10:09:35.0000000+00:00</time></trkpt><trkpt lat="21.028961" lon="105.777519"><ele>-0.9</ele><time>2011-04-29T10:09:40.0000000+00:00</time></trkpt><trkpt lat="21.028971" lon="105.777481"><ele>-1.0</ele><time>2011-04-29T10:09:45.0000000+00:00</time></trkpt><trkpt lat="21.028976" lon="105.777435"><ele>-1.7</ele><time>2011-04-29T10:09:50.0000000+00:00</time></trkpt><trkpt lat="21.02899" lon="105.777351"><ele>-2.1</ele><time>2011-04-29T10:09:55.0000000+00:00</time></trkpt><trkpt lat="21.028999" lon="105.777298"><ele>-2.8</ele><time>2011-04-29T10:10:00.0000000+00:00</time></trkpt><trkpt lat="21.028999" lon="105.77726"><ele>-3.7</ele><time>2011-04-29T10:10:05.0000000+00:00</time></trkpt><trkpt lat="21.028982" lon="105.777237"><ele>-3.4</ele><time>2011-04-29T10:10:10.0000000+00:00</time></trkpt><trkpt lat="21.028982" lon="105.777229"><ele>-3.7</ele><time>2011-04-29T10:10:15.0000000+00:00</time></trkpt><trkpt lat="21.028988" lon="105.777199"><ele>-2.8</ele><time>2011-04-29T10:10:20.0000000+00:00</time></trkpt><trkpt lat="21.02899" lon="105.777184"><ele>-2.5</ele><time>2011-04-29T10:10:25.0000000+00:00</time></trkpt><trkpt lat="21.028992" lon="105.777138"><ele>-1.5</ele><time>2011-04-29T10:10:30.0000000+00:00</time></trkpt><trkpt lat="21.028984" lon="105.777107"><ele>-1.0</ele><time>2011-04-29T10:10:35.0000000+00:00</time></trkpt><trkpt lat="21.028992" lon="105.777092"><ele>-0.5</ele><time>2011-04-29T10:10:40.0000000+00:00</time></trkpt><trkpt lat="21.029009" lon="105.777061"><ele>0.2</ele><time>2011-04-29T10:10:45.0000000+00:00</time></trkpt><trkpt lat="21.029013" lon="105.777023"><ele>0.3</ele><time>2011-04-29T10:10:50.0000000+00:00</time></trkpt><trkpt lat="21.02902" lon="105.777"><ele>-0.5</ele><time>2011-04-29T10:10:55.0000000+00:00</time></trkpt><trkpt lat="21.029039" lon="105.776985"><ele>0.3</ele><time>2011-04-29T10:11:00.0000000+00:00</time></trkpt><trkpt lat="21.029026" lon="105.77697"><ele>0.5</ele><time>2011-04-29T10:11:05.0000000+00:00</time></trkpt><trkpt lat="21.029013" lon="105.776947"><ele>0.6</ele><time>2011-04-29T10:11:10.0000000+00:00</time></trkpt><trkpt lat="21.028997" lon="105.776932"><ele>0.7</ele><time>2011-04-29T10:11:15.0000000+00:00</time></trkpt><trkpt lat="21.02899" lon="105.776901"><ele>0.8</ele><time>2011-04-29T10:11:20.0000000+00:00</time></trkpt><trkpt lat="21.028963" lon="105.776894"><ele>0.8</ele><time>2011-04-29T10:11:25.0000000+00:00</time></trkpt><trkpt lat="21.028955" lon="105.776848"><ele>2.2</ele><time>2011-04-29T10:11:30.0000000+00:00</time></trkpt><trkpt lat="21.028933" lon="105.77684"><ele>2.8</ele><time>2011-04-29T10:11:35.0000000+00:00</time></trkpt><trkpt lat="21.028919" lon="105.776833"><ele>2.5</ele><time>2011-04-29T10:11:40.0000000+00:00</time></trkpt><trkpt lat="21.028915" lon="105.776833"><ele>2.6</ele><time>2011-04-29T10:11:45.0000000+00:00</time></trkpt><trkpt lat="21.028908" lon="105.776833"><ele>2.8</ele><time>2011-04-29T10:11:50.0000000+00:00</time></trkpt><trkpt lat="21.02891" lon="105.776833"><ele>3.0</ele><time>2011-04-29T10:11:55.0000000+00:00</time></trkpt><trkpt lat="21.028917" lon="105.776825"><ele>3.2</ele><time>2011-04-29T10:12:00.0000000+00:00</time></trkpt><trkpt lat="21.028919" lon="105.776825"><ele>3.5</ele><time>2011-04-29T10:12:05.0000000+00:00</time></trkpt><trkpt lat="21.028917" lon="105.776825"><ele>3.8</ele><time>2011-04-29T10:12:10.0000000+00:00</time></trkpt><trkpt lat="21.028915" lon="105.776833"><ele>4.0</ele><time>2011-04-29T10:12:15.0000000+00:00</time></trkpt><trkpt lat="21.028915" lon="105.77684"><ele>4.2</ele><time>2011-04-29T10:12:20.0000000+00:00</time></trkpt><trkpt lat="21.028912" lon="105.77684"><ele>4.4</ele><time>2011-04-29T10:12:25.0000000+00:00</time></trkpt><trkpt lat="21.028912" lon="105.77684"><ele>4.6</ele><time>2011-04-29T10:12:30.0000000+00:00</time></trkpt><trkpt lat="21.02891" lon="105.77684"><ele>4.6</ele><time>2011-04-29T10:12:35.0000000+00:00</time></trkpt><trkpt lat="21.028912" lon="105.77684"><ele>4.7</ele><time>2011-04-29T10:12:40.0000000+00:00</time></trkpt><trkpt lat="21.028915" lon="105.77684"><ele>4.8</ele><time>2011-04-29T10:12:45.0000000+00:00</time></trkpt><trkpt lat="21.028936" lon="105.776833"><ele>5.7</ele><time>2011-04-29T10:12:50.0000000+00:00</time></trkpt><trkpt lat="21.028954" lon="105.776817"><ele>7.3</ele><time>2011-04-29T10:12:55.0000000+00:00</time></trkpt><trkpt lat="21.028965" lon="105.776817"><ele>8.9</ele><time>2011-04-29T10:13:00.0000000+00:00</time></trkpt><trkpt lat="21.028961" lon="105.77681"><ele>8.9</ele><time>2011-04-29T10:13:05.0000000+00:00</time></trkpt><trkpt lat="21.028967" lon="105.776817"><ele>9.8</ele><time>2011-04-29T10:13:10.0000000+00:00</time></trkpt><trkpt lat="21.028971" lon="105.776817"><ele>9.6</ele><time>2011-04-29T10:13:15.0000000+00:00</time></trkpt><trkpt lat="21.028971" lon="105.776817"><ele>9.6</ele><time>2011-04-29T10:13:20.0000000+00:00</time></trkpt><trkpt lat="21.028973" lon="105.776817"><ele>9.5</ele><time>2011-04-29T10:13:25.0000000+00:00</time></trkpt><trkpt lat="21.028973" lon="105.776817"><ele>9.5</ele><time>2011-04-29T10:13:30.0000000+00:00</time></trkpt><trkpt lat="21.028973" lon="105.776817"><ele>9.5</ele><time>2011-04-29T10:13:35.0000000+00:00</time></trkpt><trkpt lat="21.028973" lon="105.776817"><ele>9.5</ele><time>2011-04-29T10:13:40.0000000+00:00</time></trkpt><trkpt lat="21.028973" lon="105.776817"><ele>9.4</ele><time>2011-04-29T10:13:45.0000000+00:00</time></trkpt><trkpt lat="21.028973" lon="105.776817"><ele>9.4</ele><time>2011-04-29T10:13:50.0000000+00:00</time></trkpt><trkpt lat="21.028973" lon="105.776817"><ele>9.4</ele><time>2011-04-29T10:13:55.0000000+00:00</time></trkpt><trkpt lat="21.028973" lon="105.776817"><ele>9.3</ele><time>2011-04-29T10:14:00.0000000+00:00</time></trkpt><trkpt lat="21.028973" lon="105.776817"><ele>9.3</ele><time>2011-04-29T10:14:05.0000000+00:00</time></trkpt><trkpt lat="21.028973" lon="105.776817"><ele>9.3</ele><time>2011-04-29T10:14:10.0000000+00:00</time></trkpt><trkpt lat="21.028973" lon="105.776817"><ele>9.3</ele><time>2011-04-29T10:14:15.0000000+00:00</time></trkpt><trkpt lat="21.028973" lon="105.776817"><ele>9.3</ele><time>2011-04-29T10:14:20.0000000+00:00</time></trkpt><trkpt lat="21.028973" lon="105.776817"><ele>9.3</ele><time>2011-04-29T10:14:25.0000000+00:00</time></trkpt><trkpt lat="21.028973" lon="105.776817"><ele>9.3</ele><time>2011-04-29T10:14:30.0000000+00:00</time></trkpt><trkpt lat="21.028973" lon="105.776817"><ele>9.3</ele><time>2011-04-29T10:14:35.0000000+00:00</time></trkpt><trkpt lat="21.028973" lon="105.776817"><ele>9.3</ele><time>2011-04-29T10:14:40.0000000+00:00</time></trkpt><trkpt lat="21.028973" lon="105.776817"><ele>9.3</ele><time>2011-04-29T10:14:45.0000000+00:00</time></trkpt><trkpt lat="21.028973" lon="105.776817"><ele>9.3</ele><time>2011-04-29T10:14:50.0000000+00:00</time></trkpt><trkpt lat="21.028973" lon="105.776817"><ele>9.3</ele><time>2011-04-29T10:14:55.0000000+00:00</time></trkpt><trkpt lat="21.028973" lon="105.776817"><ele>9.3</ele><time>2011-04-29T10:15:00.0000000+00:00</time></trkpt><trkpt lat="21.028975" lon="105.776817"><ele>9.3</ele><time>2011-04-29T10:15:05.0000000+00:00</time></trkpt><trkpt lat="21.028975" lon="105.776817"><ele>9.3</ele><time>2011-04-29T10:15:10.0000000+00:00</time></trkpt><trkpt lat="21.028975" lon="105.776817"><ele>9.3</ele><time>2011-04-29T10:15:15.0000000+00:00</time></trkpt><trkpt lat="21.028975" lon="105.776817"><ele>9.3</ele><time>2011-04-29T10:15:20.0000000+00:00</time></trkpt><trkpt lat="21.028975" lon="105.776817"><ele>9.3</ele><time>2011-04-29T10:15:25.0000000+00:00</time></trkpt><trkpt lat="21.028975" lon="105.776817"><ele>9.3</ele><time>2011-04-29T10:15:30.0000000+00:00</time></trkpt><trkpt lat="21.028975" lon="105.776817"><ele>9.3</ele><time>2011-04-29T10:15:35.0000000+00:00</time></trkpt><trkpt lat="21.028975" lon="105.776817"><ele>9.3</ele><time>2011-04-29T10:15:40.0000000+00:00</time></trkpt><trkpt lat="21.028975" lon="105.776817"><ele>9.3</ele><time>2011-04-29T10:15:45.0000000+00:00</time></trkpt><trkpt lat="21.028975" lon="105.776817"><ele>9.3</ele><time>2011-04-29T10:15:50.0000000+00:00</time></trkpt><trkpt lat="21.02898" lon="105.776825"><ele>9.4</ele><time>2011-04-29T10:15:55.0000000+00:00</time></trkpt><trkpt lat="21.028978" lon="105.776825"><ele>9.0</ele><time>2011-04-29T10:16:00.0000000+00:00</time></trkpt><trkpt lat="21.028978" lon="105.776825"><ele>8.9</ele><time>2011-04-29T10:16:05.0000000+00:00</time></trkpt><trkpt lat="21.028978" lon="105.776825"><ele>8.9</ele><time>2011-04-29T10:16:10.0000000+00:00</time></trkpt><trkpt lat="21.028976" lon="105.776825"><ele>8.8</ele><time>2011-04-29T10:16:15.0000000+00:00</time></trkpt><trkpt lat="21.02898" lon="105.776825"><ele>8.9</ele><time>2011-04-29T10:16:20.0000000+00:00</time></trkpt><trkpt lat="21.028978" lon="105.776825"><ele>9.0</ele><time>2011-04-29T10:16:25.0000000+00:00</time></trkpt><trkpt lat="21.02898" lon="105.776825"><ele>9.1</ele><time>2011-04-29T10:16:30.0000000+00:00</time></trkpt><trkpt lat="21.02898" lon="105.776825"><ele>9.1</ele><time>2011-04-29T10:16:35.0000000+00:00</time></trkpt><trkpt lat="21.02898" lon="105.776825"><ele>9.1</ele><time>2011-04-29T10:16:40.0000000+00:00</time></trkpt><trkpt lat="21.02898" lon="105.776825"><ele>9.2</ele><time>2011-04-29T10:16:45.0000000+00:00</time></trkpt><trkpt lat="21.02898" lon="105.776825"><ele>9.2</ele><time>2011-04-29T10:16:50.0000000+00:00</time></trkpt><trkpt lat="21.02898" lon="105.776825"><ele>9.2</ele><time>2011-04-29T10:16:55.0000000+00:00</time></trkpt><trkpt lat="21.02898" lon="105.776825"><ele>9.2</ele><time>2011-04-29T10:17:00.0000000+00:00</time></trkpt><trkpt lat="21.028976" lon="105.776817"><ele>9.7</ele><time>2011-04-29T10:17:05.0000000+00:00</time></trkpt><trkpt lat="21.028973" lon="105.77681"><ele>9.7</ele><time>2011-04-29T10:17:10.0000000+00:00</time></trkpt><trkpt lat="21.028967" lon="105.77681"><ele>9.4</ele><time>2011-04-29T10:17:15.0000000+00:00</time></trkpt><trkpt lat="21.028963" lon="105.77681"><ele>9.1</ele><time>2011-04-29T10:17:20.0000000+00:00</time></trkpt><trkpt lat="21.028963" lon="105.77681"><ele>8.9</ele><time>2011-04-29T10:17:25.0000000+00:00</time></trkpt><trkpt lat="21.028963" lon="105.77681"><ele>8.9</ele><time>2011-04-29T10:17:30.0000000+00:00</time></trkpt><trkpt lat="21.028963" lon="105.77681"><ele>8.9</ele><time>2011-04-29T10:17:35.0000000+00:00</time></trkpt><trkpt lat="21.028963" lon="105.77681"><ele>8.9</ele><time>2011-04-29T10:17:40.0000000+00:00</time></trkpt><trkpt lat="21.028963" lon="105.77681"><ele>8.8</ele><time>2011-04-29T10:17:45.0000000+00:00</time></trkpt><trkpt lat="21.028963" lon="105.77681"><ele>8.8</ele><time>2011-04-29T10:17:50.0000000+00:00</time></trkpt><trkpt lat="21.028963" lon="105.77681"><ele>8.8</ele><time>2011-04-29T10:17:55.0000000+00:00</time></trkpt><trkpt lat="21.028963" lon="105.77681"><ele>8.8</ele><time>2011-04-29T10:18:00.0000000+00:00</time></trkpt><trkpt lat="21.028963" lon="105.77681"><ele>8.8</ele><time>2011-04-29T10:18:05.0000000+00:00</time></trkpt><trkpt lat="21.028961" lon="105.77681"><ele>8.8</ele><time>2011-04-29T10:18:10.0000000+00:00</time></trkpt><trkpt lat="21.028961" lon="105.77681"><ele>8.8</ele><time>2011-04-29T10:18:15.0000000+00:00</time></trkpt><trkpt lat="21.028961" lon="105.77681"><ele>8.8</ele><time>2011-04-29T10:18:20.0000000+00:00</time></trkpt><trkpt lat="21.028963" lon="105.77681"><ele>8.8</ele><time>2011-04-29T10:18:25.0000000+00:00</time></trkpt><trkpt lat="21.028963" lon="105.77681"><ele>8.8</ele><time>2011-04-29T10:18:30.0000000+00:00</time></trkpt><trkpt lat="21.028963" lon="105.77681"><ele>8.8</ele><time>2011-04-29T10:18:35.0000000+00:00</time></trkpt><trkpt lat="21.028963" lon="105.77681"><ele>8.8</ele><time>2011-04-29T10:18:40.0000000+00:00</time></trkpt><trkpt lat="21.028963" lon="105.77681"><ele>8.8</ele><time>2011-04-29T10:18:45.0000000+00:00</time></trkpt><trkpt lat="21.028963" lon="105.77681"><ele>8.8</ele><time>2011-04-29T10:18:50.0000000+00:00</time></trkpt><trkpt lat="21.028961" lon="105.77681"><ele>8.8</ele><time>2011-04-29T10:18:55.0000000+00:00</time></trkpt><trkpt lat="21.028961" lon="105.77681"><ele>8.8</ele><time>2011-04-29T10:19:00.0000000+00:00</time></trkpt><trkpt lat="21.028961" lon="105.77681"><ele>8.5</ele><time>2011-04-29T10:19:05.0000000+00:00</time></trkpt><trkpt lat="21.028959" lon="105.77681"><ele>7.8</ele><time>2011-04-29T10:19:10.0000000+00:00</time></trkpt><trkpt lat="21.028959" lon="105.776802"><ele>7.8</ele><time>2011-04-29T10:19:15.0000000+00:00</time></trkpt><trkpt lat="21.028955" lon="105.776802"><ele>7.6</ele><time>2011-04-29T10:19:20.0000000+00:00</time></trkpt><trkpt lat="21.028954" lon="105.77681"><ele>6.8</ele><time>2011-04-29T10:19:25.0000000+00:00</time></trkpt><trkpt lat="21.028954" lon="105.776817"><ele>6.3</ele><time>2011-04-29T10:19:30.0000000+00:00</time></trkpt><trkpt lat="21.02895" lon="105.776817"><ele>6.0</ele><time>2011-04-29T10:19:35.0000000+00:00</time></trkpt><trkpt lat="21.028944" lon="105.776833"><ele>6.3</ele><time>2011-04-29T10:19:40.0000000+00:00</time></trkpt><trkpt lat="21.02894" lon="105.776833"><ele>5.9</ele><time>2011-04-29T10:19:45.0000000+00:00</time></trkpt><trkpt lat="21.028938" lon="105.776825"><ele>5.8</ele><time>2011-04-29T10:19:50.0000000+00:00</time></trkpt><trkpt lat="21.028938" lon="105.776825"><ele>5.8</ele><time>2011-04-29T10:19:55.0000000+00:00</time></trkpt><trkpt lat="21.028938" lon="105.776825"><ele>5.8</ele><time>2011-04-29T10:20:00.0000000+00:00</time></trkpt><trkpt lat="21.028938" lon="105.776833"><ele>5.9</ele><time>2011-04-29T10:20:05.0000000+00:00</time></trkpt><trkpt lat="21.028938" lon="105.776833"><ele>5.9</ele><time>2011-04-29T10:20:10.0000000+00:00</time></trkpt><trkpt lat="21.028938" lon="105.776833"><ele>5.9</ele><time>2011-04-29T10:20:15.0000000+00:00</time></trkpt><trkpt lat="21.028938" lon="105.776833"><ele>5.9</ele><time>2011-04-29T10:20:20.0000000+00:00</time></trkpt><trkpt lat="21.028938" lon="105.776833"><ele>5.9</ele><time>2011-04-29T10:20:25.0000000+00:00</time></trkpt><trkpt lat="21.028938" lon="105.776825"><ele>5.8</ele><time>2011-04-29T10:20:30.0000000+00:00</time></trkpt><trkpt lat="21.028938" lon="105.776833"><ele>5.9</ele><time>2011-04-29T10:20:35.0000000+00:00</time></trkpt><trkpt lat="21.028938" lon="105.776833"><ele>5.9</ele><time>2011-04-29T10:20:40.0000000+00:00</time></trkpt><trkpt lat="21.028938" lon="105.776833"><ele>5.9</ele><time>2011-04-29T10:20:45.0000000+00:00</time></trkpt><trkpt lat="21.028938" lon="105.776833"><ele>5.9</ele><time>2011-04-29T10:20:50.0000000+00:00</time></trkpt><trkpt lat="21.028938" lon="105.776833"><ele>5.9</ele><time>2011-04-29T10:20:55.0000000+00:00</time></trkpt><trkpt lat="21.028938" lon="105.776833"><ele>5.9</ele><time>2011-04-29T10:21:00.0000000+00:00</time></trkpt><trkpt lat="21.028938" lon="105.776833"><ele>5.8</ele><time>2011-04-29T10:21:05.0000000+00:00</time></trkpt><trkpt lat="21.028938" lon="105.776833"><ele>5.8</ele><time>2011-04-29T10:21:10.0000000+00:00</time></trkpt><trkpt lat="21.028938" lon="105.776833"><ele>5.8</ele><time>2011-04-29T10:21:15.0000000+00:00</time></trkpt><trkpt lat="21.028938" lon="105.776833"><ele>5.8</ele><time>2011-04-29T10:21:20.0000000+00:00</time></trkpt><trkpt lat="21.028938" lon="105.776833"><ele>5.8</ele><time>2011-04-29T10:21:25.0000000+00:00</time></trkpt><trkpt lat="21.028938" lon="105.776833"><ele>5.7</ele><time>2011-04-29T10:21:30.0000000+00:00</time></trkpt><trkpt lat="21.028938" lon="105.776833"><ele>5.7</ele><time>2011-04-29T10:21:35.0000000+00:00</time></trkpt><trkpt lat="21.028938" lon="105.776833"><ele>5.7</ele><time>2011-04-29T10:21:40.0000000+00:00</time></trkpt><trkpt lat="21.028938" lon="105.776825"><ele>5.7</ele><time>2011-04-29T10:21:45.0000000+00:00</time></trkpt><trkpt lat="21.028938" lon="105.776825"><ele>5.7</ele><time>2011-04-29T10:21:50.0000000+00:00</time></trkpt><trkpt lat="21.028938" lon="105.776825"><ele>5.6</ele><time>2011-04-29T10:21:55.0000000+00:00</time></trkpt><trkpt lat="21.028938" lon="105.776825"><ele>5.6</ele><time>2011-04-29T10:22:00.0000000+00:00</time></trkpt><trkpt lat="21.028938" lon="105.776825"><ele>5.7</ele><time>2011-04-29T10:22:05.0000000+00:00</time></trkpt><trkpt lat="21.02894" lon="105.776825"><ele>5.7</ele><time>2011-04-29T10:22:10.0000000+00:00</time></trkpt><trkpt lat="21.02894" lon="105.776825"><ele>5.6</ele><time>2011-04-29T10:22:15.0000000+00:00</time></trkpt><trkpt lat="21.02894" lon="105.776825"><ele>5.6</ele><time>2011-04-29T10:22:20.0000000+00:00</time></trkpt><trkpt lat="21.02894" lon="105.776825"><ele>5.6</ele><time>2011-04-29T10:22:25.0000000+00:00</time></trkpt><trkpt lat="21.02894" lon="105.776825"><ele>5.6</ele><time>2011-04-29T10:22:30.0000000+00:00</time></trkpt><trkpt lat="21.02894" lon="105.776825"><ele>5.6</ele><time>2011-04-29T10:22:35.0000000+00:00</time></trkpt><trkpt lat="21.02894" lon="105.776825"><ele>5.5</ele><time>2011-04-29T10:22:40.0000000+00:00</time></trkpt><trkpt lat="21.02894" lon="105.776825"><ele>5.5</ele><time>2011-04-29T10:22:45.0000000+00:00</time></trkpt><trkpt lat="21.02894" lon="105.776825"><ele>5.5</ele><time>2011-04-29T10:22:50.0000000+00:00</time></trkpt><trkpt lat="21.028942" lon="105.776825"><ele>5.4</ele><time>2011-04-29T10:22:55.0000000+00:00</time></trkpt><trkpt lat="21.028944" lon="105.776825"><ele>5.4</ele><time>2011-04-29T10:23:00.0000000+00:00</time></trkpt><trkpt lat="21.028944" lon="105.776825"><ele>5.4</ele><time>2011-04-29T10:23:05.0000000+00:00</time></trkpt><trkpt lat="21.028946" lon="105.776825"><ele>5.3</ele><time>2011-04-29T10:23:10.0000000+00:00</time></trkpt><trkpt lat="21.028948" lon="105.776825"><ele>5.3</ele><time>2011-04-29T10:23:15.0000000+00:00</time></trkpt><trkpt lat="21.02895" lon="105.776817"><ele>5.5</ele><time>2011-04-29T10:23:20.0000000+00:00</time></trkpt><trkpt lat="21.028948" lon="105.776817"><ele>6.0</ele><time>2011-04-29T10:23:25.0000000+00:00</time></trkpt><trkpt lat="21.028948" lon="105.776817"><ele>6.0</ele><time>2011-04-29T10:23:30.0000000+00:00</time></trkpt><trkpt lat="21.028948" lon="105.776817"><ele>6.0</ele><time>2011-04-29T10:23:35.0000000+00:00</time></trkpt><trkpt lat="21.028986" lon="105.776855"><ele>5.2</ele><time>2011-04-29T10:23:40.0000000+00:00</time></trkpt><trkpt lat="21.02907" lon="105.776924"><ele>4.1</ele><time>2011-04-29T10:23:45.0000000+00:00</time></trkpt><trkpt lat="21.029114" lon="105.776894"><ele>4.1</ele><time>2011-04-29T10:23:50.0000000+00:00</time></trkpt><trkpt lat="21.029131" lon="105.776878"><ele>3.4</ele><time>2011-04-29T10:23:55.0000000+00:00</time></trkpt><trkpt lat="21.029127" lon="105.776886"><ele>3.5</ele><time>2011-04-29T10:24:00.0000000+00:00</time></trkpt><trkpt lat="21.029139" lon="105.776886"><ele>3.9</ele><time>2011-04-29T10:24:05.0000000+00:00</time></trkpt><trkpt lat="21.02915" lon="105.776878"><ele>4.1</ele><time>2011-04-29T10:24:10.0000000+00:00</time></trkpt><trkpt lat="21.029154" lon="105.776871"><ele>4.3</ele><time>2011-04-29T10:24:15.0000000+00:00</time></trkpt><trkpt lat="21.029169" lon="105.776871"><ele>5.1</ele><time>2011-04-29T10:24:20.0000000+00:00</time></trkpt><trkpt lat="21.029173" lon="105.776855"><ele>4.2</ele><time>2011-04-29T10:24:25.0000000+00:00</time></trkpt><trkpt lat="21.029169" lon="105.776855"><ele>3.9</ele><time>2011-04-29T10:24:30.0000000+00:00</time></trkpt><trkpt lat="21.029198" lon="105.776855"><ele>3.2</ele><time>2011-04-29T10:24:35.0000000+00:00</time></trkpt><trkpt lat="21.029173" lon="105.777008"><ele>2.8</ele><time>2011-04-29T10:24:40.0000000+00:00</time></trkpt><trkpt lat="21.029154" lon="105.777168"><ele>3.3</ele><time>2011-04-29T10:24:45.0000000+00:00</time></trkpt><trkpt lat="21.029139" lon="105.77729"><ele>4.3</ele><time>2011-04-29T10:24:50.0000000+00:00</time></trkpt><trkpt lat="21.029125" lon="105.77742"><ele>5.6</ele><time>2011-04-29T10:24:55.0000000+00:00</time></trkpt><trkpt lat="21.029108" lon="105.777458"><ele>6.6</ele><time>2011-04-29T10:25:00.0000000+00:00</time></trkpt><trkpt lat="21.0291" lon="105.777466"><ele>6.9</ele><time>2011-04-29T10:25:05.0000000+00:00</time></trkpt><trkpt lat="21.0291" lon="105.777466"><ele>6.8</ele><time>2011-04-29T10:25:10.0000000+00:00</time></trkpt><trkpt lat="21.0291" lon="105.777466"><ele>6.8</ele><time>2011-04-29T10:25:15.0000000+00:00</time></trkpt><trkpt lat="21.0291" lon="105.777466"><ele>6.8</ele><time>2011-04-29T10:25:20.0000000+00:00</time></trkpt><trkpt lat="21.0291" lon="105.777466"><ele>6.8</ele><time>2011-04-29T10:25:25.0000000+00:00</time></trkpt><trkpt lat="21.0291" lon="105.777466"><ele>6.8</ele><time>2011-04-29T10:25:30.0000000+00:00</time></trkpt><trkpt lat="21.0291" lon="105.777466"><ele>6.8</ele><time>2011-04-29T10:25:35.0000000+00:00</time></trkpt><trkpt lat="21.029102" lon="105.777466"><ele>6.8</ele><time>2011-04-29T10:25:40.0000000+00:00</time></trkpt><trkpt lat="21.029102" lon="105.777466"><ele>6.8</ele><time>2011-04-29T10:25:45.0000000+00:00</time></trkpt><trkpt lat="21.029102" lon="105.777466"><ele>6.7</ele><time>2011-04-29T10:25:50.0000000+00:00</time></trkpt><trkpt lat="21.029102" lon="105.777458"><ele>6.8</ele><time>2011-04-29T10:25:55.0000000+00:00</time></trkpt><trkpt lat="21.029102" lon="105.777458"><ele>6.8</ele><time>2011-04-29T10:26:00.0000000+00:00</time></trkpt><trkpt lat="21.029102" lon="105.777458"><ele>6.8</ele><time>2011-04-29T10:26:05.0000000+00:00</time></trkpt><trkpt lat="21.029102" lon="105.777458"><ele>6.8</ele><time>2011-04-29T10:26:10.0000000+00:00</time></trkpt><trkpt lat="21.029102" lon="105.777458"><ele>6.7</ele><time>2011-04-29T10:26:15.0000000+00:00</time></trkpt><trkpt lat="21.029102" lon="105.777458"><ele>6.8</ele><time>2011-04-29T10:26:20.0000000+00:00</time></trkpt><trkpt lat="21.029102" lon="105.777466"><ele>6.7</ele><time>2011-04-29T10:26:25.0000000+00:00</time></trkpt><trkpt lat="21.029106" lon="105.777496"><ele>6.5</ele><time>2011-04-29T10:26:30.0000000+00:00</time></trkpt><trkpt lat="21.029099" lon="105.777611"><ele>6.4</ele><time>2011-04-29T10:26:35.0000000+00:00</time></trkpt><trkpt lat="21.029083" lon="105.777779"><ele>6.4</ele><time>2011-04-29T10:26:40.0000000+00:00</time></trkpt><trkpt lat="21.029055" lon="105.777931"><ele>6.6</ele><time>2011-04-29T10:26:45.0000000+00:00</time></trkpt><trkpt lat="21.029034" lon="105.778091"><ele>6.8</ele><time>2011-04-29T10:26:50.0000000+00:00</time></trkpt><trkpt lat="21.029013" lon="105.778267"><ele>6.5</ele><time>2011-04-29T10:26:55.0000000+00:00</time></trkpt><trkpt lat="21.029005" lon="105.778366"><ele>5.8</ele><time>2011-04-29T10:27:00.0000000+00:00</time></trkpt><trkpt lat="21.028994" lon="105.778481"><ele>4.9</ele><time>2011-04-29T10:27:05.0000000+00:00</time></trkpt><trkpt lat="21.028973" lon="105.778603"><ele>4.4</ele><time>2011-04-29T10:27:10.0000000+00:00</time></trkpt><trkpt lat="21.028948" lon="105.778709"><ele>4.8</ele><time>2011-04-29T10:27:15.0000000+00:00</time></trkpt><trkpt lat="21.028936" lon="105.778801"><ele>5.2</ele><time>2011-04-29T10:27:20.0000000+00:00</time></trkpt><trkpt lat="21.028921" lon="105.778831"><ele>5.3</ele><time>2011-04-29T10:27:25.0000000+00:00</time></trkpt><trkpt lat="21.0289" lon="105.778854"><ele>5.6</ele><time>2011-04-29T10:27:30.0000000+00:00</time></trkpt><trkpt lat="21.0289" lon="105.778854"><ele>5.7</ele><time>2011-04-29T10:27:35.0000000+00:00</time></trkpt><trkpt lat="21.0289" lon="105.778854"><ele>5.6</ele><time>2011-04-29T10:27:40.0000000+00:00</time></trkpt><trkpt lat="21.0289" lon="105.778854"><ele>5.6</ele><time>2011-04-29T10:27:45.0000000+00:00</time></trkpt><trkpt lat="21.028898" lon="105.778862"><ele>5.9</ele><time>2011-04-29T10:27:50.0000000+00:00</time></trkpt><trkpt lat="21.028898" lon="105.778862"><ele>5.9</ele><time>2011-04-29T10:27:55.0000000+00:00</time></trkpt><trkpt lat="21.028898" lon="105.778862"><ele>6.0</ele><time>2011-04-29T10:28:00.0000000+00:00</time></trkpt><trkpt lat="21.028898" lon="105.77887"><ele>6.4</ele><time>2011-04-29T10:28:05.0000000+00:00</time></trkpt><trkpt lat="21.028898" lon="105.778877"><ele>7.0</ele><time>2011-04-29T10:28:10.0000000+00:00</time></trkpt><trkpt lat="21.028934" lon="105.778923"><ele>6.8</ele><time>2011-04-29T10:28:15.0000000+00:00</time></trkpt><trkpt lat="21.028976" lon="105.778938"><ele>6.3</ele><time>2011-04-29T10:28:20.0000000+00:00</time></trkpt><trkpt lat="21.02898" lon="105.778938"><ele>6.4</ele><time>2011-04-29T10:28:25.0000000+00:00</time></trkpt><trkpt lat="21.029007" lon="105.778938"><ele>6.6</ele><time>2011-04-29T10:28:30.0000000+00:00</time></trkpt><trkpt lat="21.029083" lon="105.778999"><ele>6.4</ele><time>2011-04-29T10:28:35.0000000+00:00</time></trkpt><trkpt lat="21.029146" lon="105.779022"><ele>5.3</ele><time>2011-04-29T10:28:40.0000000+00:00</time></trkpt><trkpt lat="21.029222" lon="105.77903"><ele>5.6</ele><time>2011-04-29T10:28:45.0000000+00:00</time></trkpt><trkpt lat="21.029299" lon="105.779053"><ele>5.6</ele><time>2011-04-29T10:28:50.0000000+00:00</time></trkpt><trkpt lat="21.029314" lon="105.77906"><ele>5.9</ele><time>2011-04-29T10:28:55.0000000+00:00</time></trkpt><trkpt lat="21.029354" lon="105.779037"><ele>5.5</ele><time>2011-04-29T10:29:00.0000000+00:00</time></trkpt><trkpt lat="21.029423" lon="105.779045"><ele>6.0</ele><time>2011-04-29T10:29:05.0000000+00:00</time></trkpt><trkpt lat="21.029459" lon="105.779037"><ele>7.0</ele><time>2011-04-29T10:29:10.0000000+00:00</time></trkpt><trkpt lat="21.029476" lon="105.779045"><ele>8.0</ele><time>2011-04-29T10:29:15.0000000+00:00</time></trkpt><trkpt lat="21.029537" lon="105.77906"><ele>7.9</ele><time>2011-04-29T10:29:20.0000000+00:00</time></trkpt><trkpt lat="21.029604" lon="105.779099"><ele>6.6</ele><time>2011-04-29T10:29:25.0000000+00:00</time></trkpt><trkpt lat="21.029673" lon="105.779114"><ele>5.5</ele><time>2011-04-29T10:29:30.0000000+00:00</time></trkpt><trkpt lat="21.029749" lon="105.779121"><ele>4.9</ele><time>2011-04-29T10:29:35.0000000+00:00</time></trkpt><trkpt lat="21.029819" lon="105.779137"><ele>3.7</ele><time>2011-04-29T10:29:40.0000000+00:00</time></trkpt><trkpt lat="21.029905" lon="105.779144"><ele>2.8</ele><time>2011-04-29T10:29:45.0000000+00:00</time></trkpt><trkpt lat="21.029993" lon="105.779167"><ele>1.9</ele><time>2011-04-29T10:29:50.0000000+00:00</time></trkpt><trkpt lat="21.030058" lon="105.779175"><ele>2.2</ele><time>2011-04-29T10:29:55.0000000+00:00</time></trkpt><trkpt lat="21.030138" lon="105.77919"><ele>2.0</ele><time>2011-04-29T10:30:00.0000000+00:00</time></trkpt><trkpt lat="21.030222" lon="105.77919"><ele>1.4</ele><time>2011-04-29T10:30:05.0000000+00:00</time></trkpt><trkpt lat="21.030289" lon="105.779213"><ele>1.8</ele><time>2011-04-29T10:30:10.0000000+00:00</time></trkpt><trkpt lat="21.030361" lon="105.779228"><ele>2.0</ele><time>2011-04-29T10:30:15.0000000+00:00</time></trkpt><trkpt lat="21.030481" lon="105.779259"><ele>2.9</ele><time>2011-04-29T10:30:20.0000000+00:00</time></trkpt><trkpt lat="21.030638" lon="105.779297"><ele>3.1</ele><time>2011-04-29T10:30:25.0000000+00:00</time></trkpt><trkpt lat="21.030745" lon="105.779343"><ele>3.1</ele><time>2011-04-29T10:30:30.0000000+00:00</time></trkpt><trkpt lat="21.030884" lon="105.779343"><ele>3.6</ele><time>2011-04-29T10:30:35.0000000+00:00</time></trkpt><trkpt lat="21.031015" lon="105.779366"><ele>3.7</ele><time>2011-04-29T10:30:40.0000000+00:00</time></trkpt><trkpt lat="21.031118" lon="105.779427"><ele>3.1</ele><time>2011-04-29T10:30:45.0000000+00:00</time></trkpt><trkpt lat="21.031202" lon="105.779465"><ele>3.3</ele><time>2011-04-29T10:30:50.0000000+00:00</time></trkpt><trkpt lat="21.031321" lon="105.77948"><ele>3.4</ele><time>2011-04-29T10:30:55.0000000+00:00</time></trkpt><trkpt lat="21.031414" lon="105.779488"><ele>2.9</ele><time>2011-04-29T10:31:00.0000000+00:00</time></trkpt><trkpt lat="21.031475" lon="105.779495"><ele>2.3</ele><time>2011-04-29T10:31:05.0000000+00:00</time></trkpt><trkpt lat="21.031548" lon="105.779533"><ele>3.1</ele><time>2011-04-29T10:31:10.0000000+00:00</time></trkpt><trkpt lat="21.031652" lon="105.779579"><ele>4.3</ele><time>2011-04-29T10:31:15.0000000+00:00</time></trkpt><trkpt lat="21.031782" lon="105.779594"><ele>5.4</ele><time>2011-04-29T10:31:20.0000000+00:00</time></trkpt><trkpt lat="21.031958" lon="105.779587"><ele>5.3</ele><time>2011-04-29T10:31:25.0000000+00:00</time></trkpt><trkpt lat="21.032122" lon="105.779602"><ele>5.7</ele><time>2011-04-29T10:31:30.0000000+00:00</time></trkpt><trkpt lat="21.032257" lon="105.779633"><ele>5.6</ele><time>2011-04-29T10:31:35.0000000+00:00</time></trkpt><trkpt lat="21.032347" lon="105.779617"><ele>5.1</ele><time>2011-04-29T10:31:40.0000000+00:00</time></trkpt><trkpt lat="21.032454" lon="105.779633"><ele>4.0</ele><time>2011-04-29T10:31:45.0000000+00:00</time></trkpt><trkpt lat="21.032579" lon="105.77964"><ele>4.2</ele><time>2011-04-29T10:31:50.0000000+00:00</time></trkpt><trkpt lat="21.032745" lon="105.779663"><ele>4.0</ele><time>2011-04-29T10:31:55.0000000+00:00</time></trkpt><trkpt lat="21.032894" lon="105.779694"><ele>3.9</ele><time>2011-04-29T10:32:00.0000000+00:00</time></trkpt><trkpt lat="21.033009" lon="105.779732"><ele>3.6</ele><time>2011-04-29T10:32:05.0000000+00:00</time></trkpt><trkpt lat="21.033117" lon="105.77977"><ele>3.1</ele><time>2011-04-29T10:32:10.0000000+00:00</time></trkpt><trkpt lat="21.033232" lon="105.779778"><ele>3.1</ele><time>2011-04-29T10:32:15.0000000+00:00</time></trkpt><trkpt lat="21.033342" lon="105.779808"><ele>3.6</ele><time>2011-04-29T10:32:20.0000000+00:00</time></trkpt><trkpt lat="21.033409" lon="105.779839"><ele>3.4</ele><time>2011-04-29T10:32:25.0000000+00:00</time></trkpt><trkpt lat="21.033493" lon="105.779877"><ele>3.5</ele><time>2011-04-29T10:32:30.0000000+00:00</time></trkpt><trkpt lat="21.03363" lon="105.779831"><ele>4.4</ele><time>2011-04-29T10:32:35.0000000+00:00</time></trkpt><trkpt lat="21.033718" lon="105.779846"><ele>4.9</ele><time>2011-04-29T10:32:40.0000000+00:00</time></trkpt><trkpt lat="21.033833" lon="105.779861"><ele>5.3</ele><time>2011-04-29T10:32:45.0000000+00:00</time></trkpt><trkpt lat="21.033985" lon="105.7799"><ele>5.2</ele><time>2011-04-29T10:32:50.0000000+00:00</time></trkpt><trkpt lat="21.034124" lon="105.779938"><ele>5.2</ele><time>2011-04-29T10:32:55.0000000+00:00</time></trkpt><trkpt lat="21.034262" lon="105.779968"><ele>5.9</ele><time>2011-04-29T10:33:00.0000000+00:00</time></trkpt><trkpt lat="21.034386" lon="105.780006"><ele>6.4</ele><time>2011-04-29T10:33:05.0000000+00:00</time></trkpt><trkpt lat="21.034512" lon="105.780022"><ele>6.5</ele><time>2011-04-29T10:33:10.0000000+00:00</time></trkpt><trkpt lat="21.034546" lon="105.780014"><ele>6.4</ele><time>2011-04-29T10:33:15.0000000+00:00</time></trkpt><trkpt lat="21.034569" lon="105.780014"><ele>6.2</ele><time>2011-04-29T10:33:20.0000000+00:00</time></trkpt><trkpt lat="21.034571" lon="105.780014"><ele>6.0</ele><time>2011-04-29T10:33:25.0000000+00:00</time></trkpt><trkpt lat="21.034571" lon="105.780014"><ele>5.9</ele><time>2011-04-29T10:33:30.0000000+00:00</time></trkpt><trkpt lat="21.034569" lon="105.780014"><ele>5.9</ele><time>2011-04-29T10:33:35.0000000+00:00</time></trkpt><trkpt lat="21.034571" lon="105.780014"><ele>5.8</ele><time>2011-04-29T10:33:40.0000000+00:00</time></trkpt><trkpt lat="21.034571" lon="105.780014"><ele>5.7</ele><time>2011-04-29T10:33:45.0000000+00:00</time></trkpt><trkpt lat="21.034576" lon="105.780014"><ele>5.6</ele><time>2011-04-29T10:33:50.0000000+00:00</time></trkpt><trkpt lat="21.034649" lon="105.780029"><ele>5.7</ele><time>2011-04-29T10:33:55.0000000+00:00</time></trkpt><trkpt lat="21.034801" lon="105.78006"><ele>5.8</ele><time>2011-04-29T10:34:00.0000000+00:00</time></trkpt><trkpt lat="21.03495" lon="105.780083"><ele>5.8</ele><time>2011-04-29T10:34:05.0000000+00:00</time></trkpt><trkpt lat="21.035118" lon="105.780098"><ele>5.9</ele><time>2011-04-29T10:34:10.0000000+00:00</time></trkpt><trkpt lat="21.035273" lon="105.780136"><ele>6.3</ele><time>2011-04-29T10:34:15.0000000+00:00</time></trkpt><trkpt lat="21.035404" lon="105.780151"><ele>6.9</ele><time>2011-04-29T10:34:20.0000000+00:00</time></trkpt><trkpt lat="21.035501" lon="105.780151"><ele>6.7</ele><time>2011-04-29T10:34:25.0000000+00:00</time></trkpt><trkpt lat="21.035568" lon="105.780174"><ele>6.8</ele><time>2011-04-29T10:34:30.0000000+00:00</time></trkpt><trkpt lat="21.035627" lon="105.78019"><ele>7.0</ele><time>2011-04-29T10:34:35.0000000+00:00</time></trkpt><trkpt lat="21.035666" lon="105.780197"><ele>4.3</ele><time>2011-04-29T10:34:40.0000000+00:00</time></trkpt><trkpt lat="21.035721" lon="105.78019"><ele>6.4</ele><time>2011-04-29T10:34:45.0000000+00:00</time></trkpt><trkpt lat="21.035816" lon="105.780212"><ele>7.0</ele><time>2011-04-29T10:34:50.0000000+00:00</time></trkpt><trkpt lat="21.035921" lon="105.780258"><ele>6.9</ele><time>2011-04-29T10:34:55.0000000+00:00</time></trkpt><trkpt lat="21.035995" lon="105.780251"><ele>7.8</ele><time>2011-04-29T10:35:00.0000000+00:00</time></trkpt><trkpt lat="21.036055" lon="105.780258"><ele>7.9</ele><time>2011-04-29T10:35:05.0000000+00:00</time></trkpt><trkpt lat="21.036114" lon="105.780334"><ele>7.6</ele><time>2011-04-29T10:35:10.0000000+00:00</time></trkpt><trkpt lat="21.036203" lon="105.780342"><ele>7.5</ele><time>2011-04-29T10:35:15.0000000+00:00</time></trkpt><trkpt lat="21.036263" lon="105.780396"><ele>6.2</ele><time>2011-04-29T10:35:20.0000000+00:00</time></trkpt><trkpt lat="21.036259" lon="105.780403"><ele>6.5</ele><time>2011-04-29T10:35:25.0000000+00:00</time></trkpt><trkpt lat="21.036245" lon="105.780457"><ele>5.6</ele><time>2011-04-29T10:35:30.0000000+00:00</time></trkpt><trkpt lat="21.036255" lon="105.78054"><ele>4.6</ele><time>2011-04-29T10:35:35.0000000+00:00</time></trkpt><trkpt lat="21.036369" lon="105.780685"><ele>2.9</ele><time>2011-04-29T10:35:40.0000000+00:00</time></trkpt><trkpt lat="21.036547" lon="105.780739"><ele>3.6</ele><time>2011-04-29T10:35:45.0000000+00:00</time></trkpt><trkpt lat="21.036697" lon="105.780754"><ele>4.4</ele><time>2011-04-29T10:35:50.0000000+00:00</time></trkpt><trkpt lat="21.036718" lon="105.780746"><ele>3.7</ele><time>2011-04-29T10:35:55.0000000+00:00</time></trkpt><trkpt lat="21.03672" lon="105.780746"><ele>3.7</ele><time>2011-04-29T10:36:00.0000000+00:00</time></trkpt><trkpt lat="21.03672" lon="105.780746"><ele>3.8</ele><time>2011-04-29T10:36:05.0000000+00:00</time></trkpt><trkpt lat="21.036718" lon="105.780746"><ele>3.8</ele><time>2011-04-29T10:36:10.0000000+00:00</time></trkpt><trkpt lat="21.036718" lon="105.780746"><ele>3.8</ele><time>2011-04-29T10:36:15.0000000+00:00</time></trkpt><trkpt lat="21.03672" lon="105.780746"><ele>3.9</ele><time>2011-04-29T10:36:20.0000000+00:00</time></trkpt><trkpt lat="21.03672" lon="105.780746"><ele>3.8</ele><time>2011-04-29T10:36:25.0000000+00:00</time></trkpt><trkpt lat="21.036743" lon="105.780746"><ele>3.6</ele><time>2011-04-29T10:36:30.0000000+00:00</time></trkpt><trkpt lat="21.036953" lon="105.780769"><ele>3.1</ele><time>2011-04-29T10:36:35.0000000+00:00</time></trkpt><trkpt lat="21.037186" lon="105.780792"><ele>3.1</ele><time>2011-04-29T10:36:40.0000000+00:00</time></trkpt><trkpt lat="21.037428" lon="105.78083"><ele>3.2</ele><time>2011-04-29T10:36:45.0000000+00:00</time></trkpt><trkpt lat="21.037691" lon="105.780861"><ele>3.1</ele><time>2011-04-29T10:36:50.0000000+00:00</time></trkpt><trkpt lat="21.037964" lon="105.780907"><ele>3.1</ele><time>2011-04-29T10:36:55.0000000+00:00</time></trkpt><trkpt lat="21.038239" lon="105.780945"><ele>3.6</ele><time>2011-04-29T10:37:00.0000000+00:00</time></trkpt><trkpt lat="21.038519" lon="105.780975"><ele>4.5</ele><time>2011-04-29T10:37:05.0000000+00:00</time></trkpt><trkpt lat="21.038801" lon="105.780998"><ele>4.2</ele><time>2011-04-29T10:37:10.0000000+00:00</time></trkpt><trkpt lat="21.039072" lon="105.781021"><ele>4.2</ele><time>2011-04-29T10:37:15.0000000+00:00</time></trkpt><trkpt lat="21.039301" lon="105.781029"><ele>4.5</ele><time>2011-04-29T10:37:20.0000000+00:00</time></trkpt><trkpt lat="21.039528" lon="105.781006"><ele>4.4</ele><time>2011-04-29T10:37:25.0000000+00:00</time></trkpt><trkpt lat="21.039774" lon="105.780998"><ele>4.7</ele><time>2011-04-29T10:37:30.0000000+00:00</time></trkpt><trkpt lat="21.04002" lon="105.780991"><ele>4.7</ele><time>2011-04-29T10:37:35.0000000+00:00</time></trkpt><trkpt lat="21.04027" lon="105.780983"><ele>5.1</ele><time>2011-04-29T10:37:40.0000000+00:00</time></trkpt><trkpt lat="21.040487" lon="105.780975"><ele>5.2</ele><time>2011-04-29T10:37:45.0000000+00:00</time></trkpt><trkpt lat="21.040655" lon="105.780975"><ele>4.9</ele><time>2011-04-29T10:37:50.0000000+00:00</time></trkpt><trkpt lat="21.040812" lon="105.780975"><ele>6.3</ele><time>2011-04-29T10:37:55.0000000+00:00</time></trkpt><trkpt lat="21.040955" lon="105.780975"><ele>6.0</ele><time>2011-04-29T10:38:00.0000000+00:00</time></trkpt><trkpt lat="21.041065" lon="105.78096"><ele>7.1</ele><time>2011-04-29T10:38:05.0000000+00:00</time></trkpt><trkpt lat="21.04125" lon="105.780952"><ele>7.8</ele><time>2011-04-29T10:38:10.0000000+00:00</time></trkpt><trkpt lat="21.041456" lon="105.780975"><ele>9.5</ele><time>2011-04-29T10:38:15.0000000+00:00</time></trkpt><trkpt lat="21.041641" lon="105.780998"><ele>10.2</ele><time>2011-04-29T10:38:20.0000000+00:00</time></trkpt><trkpt lat="21.041765" lon="105.781006"><ele>8.8</ele><time>2011-04-29T10:38:25.0000000+00:00</time></trkpt><trkpt lat="21.04187" lon="105.781029"><ele>9.0</ele><time>2011-04-29T10:38:30.0000000+00:00</time></trkpt><trkpt lat="21.041943" lon="105.781044"><ele>9.0</ele><time>2011-04-29T10:38:35.0000000+00:00</time></trkpt><trkpt lat="21.042025" lon="105.781052"><ele>10.5</ele><time>2011-04-29T10:38:40.0000000+00:00</time></trkpt><trkpt lat="21.042131" lon="105.781067"><ele>12.0</ele><time>2011-04-29T10:38:45.0000000+00:00</time></trkpt><trkpt lat="21.042225" lon="105.781075"><ele>13.5</ele><time>2011-04-29T10:38:50.0000000+00:00</time></trkpt><trkpt lat="21.042299" lon="105.78109"><ele>13.1</ele><time>2011-04-29T10:38:55.0000000+00:00</time></trkpt><trkpt lat="21.042397" lon="105.78109"><ele>11.6</ele><time>2011-04-29T10:39:00.0000000+00:00</time></trkpt><trkpt lat="21.042521" lon="105.781105"><ele>10.5</ele><time>2011-04-29T10:39:05.0000000+00:00</time></trkpt><trkpt lat="21.042686" lon="105.781097"><ele>11.7</ele><time>2011-04-29T10:39:10.0000000+00:00</time></trkpt><trkpt lat="21.042833" lon="105.78112"><ele>14.0</ele><time>2011-04-29T10:39:15.0000000+00:00</time></trkpt><trkpt lat="21.043003" lon="105.781128"><ele>14.9</ele><time>2011-04-29T10:39:20.0000000+00:00</time></trkpt><trkpt lat="21.043209" lon="105.781143"><ele>14.4</ele><time>2011-04-29T10:39:25.0000000+00:00</time></trkpt><trkpt lat="21.043421" lon="105.781166"><ele>14.6</ele><time>2011-04-29T10:39:30.0000000+00:00</time></trkpt><trkpt lat="21.043648" lon="105.781197"><ele>13.2</ele><time>2011-04-29T10:39:35.0000000+00:00</time></trkpt><trkpt lat="21.043936" lon="105.781212"><ele>11.4</ele><time>2011-04-29T10:39:40.0000000+00:00</time></trkpt><trkpt lat="21.044233" lon="105.781235"><ele>10.2</ele><time>2011-04-29T10:39:45.0000000+00:00</time></trkpt><trkpt lat="21.044485" lon="105.78125"><ele>8.6</ele><time>2011-04-29T10:39:50.0000000+00:00</time></trkpt><trkpt lat="21.044691" lon="105.781265"><ele>9.1</ele><time>2011-04-29T10:39:55.0000000+00:00</time></trkpt><trkpt lat="21.044899" lon="105.781281"><ele>9.9</ele><time>2011-04-29T10:40:00.0000000+00:00</time></trkpt><trkpt lat="21.045103" lon="105.781288"><ele>10.6</ele><time>2011-04-29T10:40:05.0000000+00:00</time></trkpt><trkpt lat="21.045296" lon="105.781281"><ele>9.2</ele><time>2011-04-29T10:40:10.0000000+00:00</time></trkpt><trkpt lat="21.045475" lon="105.781296"><ele>11.1</ele><time>2011-04-29T10:40:15.0000000+00:00</time></trkpt><trkpt lat="21.045635" lon="105.781342"><ele>9.7</ele><time>2011-04-29T10:40:20.0000000+00:00</time></trkpt><trkpt lat="21.045753" lon="105.781433"><ele>9.7</ele><time>2011-04-29T10:40:25.0000000+00:00</time></trkpt><trkpt lat="21.045879" lon="105.781609"><ele>10.2</ele><time>2011-04-29T10:40:30.0000000+00:00</time></trkpt><trkpt lat="21.045954" lon="105.781799"><ele>9.3</ele><time>2011-04-29T10:40:35.0000000+00:00</time></trkpt><trkpt lat="21.046005" lon="105.782005"><ele>8.3</ele><time>2011-04-29T10:40:40.0000000+00:00</time></trkpt><trkpt lat="21.046024" lon="105.782158"><ele>8.4</ele><time>2011-04-29T10:40:45.0000000+00:00</time></trkpt><trkpt lat="21.046036" lon="105.782326"><ele>8.6</ele><time>2011-04-29T10:40:50.0000000+00:00</time></trkpt><trkpt lat="21.046057" lon="105.782455"><ele>8.6</ele><time>2011-04-29T10:40:55.0000000+00:00</time></trkpt><trkpt lat="21.046045" lon="105.782578"><ele>9.3</ele><time>2011-04-29T10:41:00.0000000+00:00</time></trkpt><trkpt lat="21.046041" lon="105.782768"><ele>10.0</ele><time>2011-04-29T10:41:05.0000000+00:00</time></trkpt><trkpt lat="21.046051" lon="105.782974"><ele>10.4</ele><time>2011-04-29T10:41:10.0000000+00:00</time></trkpt><trkpt lat="21.046059" lon="105.783188"><ele>11.0</ele><time>2011-04-29T10:41:15.0000000+00:00</time></trkpt><trkpt lat="21.046059" lon="105.783394"><ele>11.4</ele><time>2011-04-29T10:41:20.0000000+00:00</time></trkpt><trkpt lat="21.046049" lon="105.783623"><ele>13.6</ele><time>2011-04-29T10:41:25.0000000+00:00</time></trkpt><trkpt lat="21.046049" lon="105.783867"><ele>18.1</ele><time>2011-04-29T10:41:30.0000000+00:00</time></trkpt><trkpt lat="21.046019" lon="105.784042"><ele>17.4</ele><time>2011-04-29T10:41:35.0000000+00:00</time></trkpt><trkpt lat="21.046036" lon="105.784309"><ele>12.5</ele><time>2011-04-29T10:41:40.0000000+00:00</time></trkpt><trkpt lat="21.046055" lon="105.784538"><ele>11.8</ele><time>2011-04-29T10:41:45.0000000+00:00</time></trkpt><trkpt lat="21.046053" lon="105.784805"><ele>12.1</ele><time>2011-04-29T10:41:50.0000000+00:00</time></trkpt><trkpt lat="21.046051" lon="105.785072"><ele>10.0</ele><time>2011-04-29T10:41:55.0000000+00:00</time></trkpt><trkpt lat="21.046043" lon="105.785324"><ele>8.9</ele><time>2011-04-29T10:42:00.0000000+00:00</time></trkpt><trkpt lat="21.046047" lon="105.785561"><ele>8.1</ele><time>2011-04-29T10:42:05.0000000+00:00</time></trkpt><trkpt lat="21.046045" lon="105.785774"><ele>9.4</ele><time>2011-04-29T10:42:10.0000000+00:00</time></trkpt><trkpt lat="21.046041" lon="105.786026"><ele>12.6</ele><time>2011-04-29T10:42:15.0000000+00:00</time></trkpt><trkpt lat="21.046021" lon="105.786285"><ele>10.3</ele><time>2011-04-29T10:42:20.0000000+00:00</time></trkpt><trkpt lat="21.046032" lon="105.786568"><ele>11.3</ele><time>2011-04-29T10:42:25.0000000+00:00</time></trkpt><trkpt lat="21.04604" lon="105.786835"><ele>11.1</ele><time>2011-04-29T10:42:30.0000000+00:00</time></trkpt><trkpt lat="21.046053" lon="105.787125"><ele>10.8</ele><time>2011-04-29T10:42:35.0000000+00:00</time></trkpt><trkpt lat="21.046061" lon="105.787407"><ele>11.0</ele><time>2011-04-29T10:42:40.0000000+00:00</time></trkpt><trkpt lat="21.046064" lon="105.787682"><ele>10.6</ele><time>2011-04-29T10:42:45.0000000+00:00</time></trkpt><trkpt lat="21.046062" lon="105.787971"><ele>9.2</ele><time>2011-04-29T10:42:50.0000000+00:00</time></trkpt><trkpt lat="21.046051" lon="105.788254"><ele>8.2</ele><time>2011-04-29T10:42:55.0000000+00:00</time></trkpt><trkpt lat="21.046051" lon="105.788544"><ele>8.4</ele><time>2011-04-29T10:43:00.0000000+00:00</time></trkpt><trkpt lat="21.046055" lon="105.788826"><ele>8.4</ele><time>2011-04-29T10:43:05.0000000+00:00</time></trkpt><trkpt lat="21.046064" lon="105.789116"><ele>10.3</ele><time>2011-04-29T10:43:10.0000000+00:00</time></trkpt><trkpt lat="21.046082" lon="105.789406"><ele>10.0</ele><time>2011-04-29T10:43:15.0000000+00:00</time></trkpt><trkpt lat="21.046082" lon="105.789635"><ele>10.3</ele><time>2011-04-29T10:43:20.0000000+00:00</time></trkpt><trkpt lat="21.046082" lon="105.789825"><ele>10.1</ele><time>2011-04-29T10:43:25.0000000+00:00</time></trkpt><trkpt lat="21.046085" lon="105.789932"><ele>10.6</ele><time>2011-04-29T10:43:30.0000000+00:00</time></trkpt><trkpt lat="21.046085" lon="105.790001"><ele>10.7</ele><time>2011-04-29T10:43:35.0000000+00:00</time></trkpt><trkpt lat="21.046089" lon="105.790169"><ele>10.3</ele><time>2011-04-29T10:43:40.0000000+00:00</time></trkpt><trkpt lat="21.046087" lon="105.790405"><ele>10.3</ele><time>2011-04-29T10:43:45.0000000+00:00</time></trkpt><trkpt lat="21.046085" lon="105.790672"><ele>10.3</ele><time>2011-04-29T10:43:50.0000000+00:00</time></trkpt><trkpt lat="21.046076" lon="105.790962"><ele>9.9</ele><time>2011-04-29T10:43:55.0000000+00:00</time></trkpt><trkpt lat="21.04607" lon="105.791237"><ele>10.0</ele><time>2011-04-29T10:44:00.0000000+00:00</time></trkpt><trkpt lat="21.046061" lon="105.791489"><ele>10.2</ele><time>2011-04-29T10:44:05.0000000+00:00</time></trkpt><trkpt lat="21.04607" lon="105.79174"><ele>9.3</ele><time>2011-04-29T10:44:10.0000000+00:00</time></trkpt><trkpt lat="21.046074" lon="105.791977"><ele>10.0</ele><time>2011-04-29T10:44:15.0000000+00:00</time></trkpt><trkpt lat="21.046051" lon="105.792229"><ele>10.2</ele><time>2011-04-29T10:44:20.0000000+00:00</time></trkpt><trkpt lat="21.04604" lon="105.792465"><ele>10.6</ele><time>2011-04-29T10:44:25.0000000+00:00</time></trkpt><trkpt lat="21.046028" lon="105.792717"><ele>11.2</ele><time>2011-04-29T10:44:30.0000000+00:00</time></trkpt><trkpt lat="21.046019" lon="105.792953"><ele>11.7</ele><time>2011-04-29T10:44:35.0000000+00:00</time></trkpt><trkpt lat="21.046026" lon="105.793152"><ele>15.0</ele><time>2011-04-29T10:44:40.0000000+00:00</time></trkpt><trkpt lat="21.046028" lon="105.793266"><ele>17.2</ele><time>2011-04-29T10:44:45.0000000+00:00</time></trkpt><trkpt lat="21.046032" lon="105.793381"><ele>15.4</ele><time>2011-04-29T10:44:50.0000000+00:00</time></trkpt><trkpt lat="21.046032" lon="105.793457"><ele>14.8</ele><time>2011-04-29T10:44:55.0000000+00:00</time></trkpt><trkpt lat="21.046057" lon="105.793503"><ele>16.5</ele><time>2011-04-29T10:45:00.0000000+00:00</time></trkpt><trkpt lat="21.046062" lon="105.79351"><ele>16.3</ele><time>2011-04-29T10:45:05.0000000+00:00</time></trkpt><trkpt lat="21.046062" lon="105.79351"><ele>16.3</ele><time>2011-04-29T10:45:10.0000000+00:00</time></trkpt><trkpt lat="21.046061" lon="105.793571"><ele>15.3</ele><time>2011-04-29T10:45:15.0000000+00:00</time></trkpt><trkpt lat="21.046061" lon="105.793655"><ele>14.4</ele><time>2011-04-29T10:45:20.0000000+00:00</time></trkpt><trkpt lat="21.046043" lon="105.793724"><ele>14.2</ele><time>2011-04-29T10:45:25.0000000+00:00</time></trkpt><trkpt lat="21.04603" lon="105.793777"><ele>13.6</ele><time>2011-04-29T10:45:30.0000000+00:00</time></trkpt><trkpt lat="21.04604" lon="105.793846"><ele>13.3</ele><time>2011-04-29T10:45:35.0000000+00:00</time></trkpt><trkpt lat="21.046034" lon="105.7939"><ele>12.9</ele><time>2011-04-29T10:45:40.0000000+00:00</time></trkpt><trkpt lat="21.046051" lon="105.79393"><ele>12.6</ele><time>2011-04-29T10:45:45.0000000+00:00</time></trkpt><trkpt lat="21.046059" lon="105.793945"><ele>12.2</ele><time>2011-04-29T10:45:50.0000000+00:00</time></trkpt><trkpt lat="21.046068" lon="105.793961"><ele>12.1</ele><time>2011-04-29T10:45:55.0000000+00:00</time></trkpt><trkpt lat="21.046066" lon="105.793961"><ele>12.2</ele><time>2011-04-29T10:46:00.0000000+00:00</time></trkpt><trkpt lat="21.046066" lon="105.793961"><ele>12.2</ele><time>2011-04-29T10:46:05.0000000+00:00</time></trkpt><trkpt lat="21.046066" lon="105.793961"><ele>11.8</ele><time>2011-04-29T10:46:10.0000000+00:00</time></trkpt><trkpt lat="21.046062" lon="105.793968"><ele>11.4</ele><time>2011-04-29T10:46:15.0000000+00:00</time></trkpt><trkpt lat="21.046064" lon="105.793968"><ele>10.6</ele><time>2011-04-29T10:46:20.0000000+00:00</time></trkpt><trkpt lat="21.046061" lon="105.793961"><ele>9.8</ele><time>2011-04-29T10:46:25.0000000+00:00</time></trkpt><trkpt lat="21.046066" lon="105.793961"><ele>9.8</ele><time>2011-04-29T10:46:30.0000000+00:00</time></trkpt><trkpt lat="21.046072" lon="105.793976"><ele>9.4</ele><time>2011-04-29T10:46:35.0000000+00:00</time></trkpt><trkpt lat="21.046066" lon="105.79409"><ele>9.2</ele><time>2011-04-29T10:46:40.0000000+00:00</time></trkpt><trkpt lat="21.046072" lon="105.794266"><ele>9.3</ele><time>2011-04-29T10:46:45.0000000+00:00</time></trkpt><trkpt lat="21.046066" lon="105.794472"><ele>8.8</ele><time>2011-04-29T10:46:50.0000000+00:00</time></trkpt><trkpt lat="21.046074" lon="105.794701"><ele>9.8</ele><time>2011-04-29T10:46:55.0000000+00:00</time></trkpt><trkpt lat="21.04608" lon="105.794937"><ele>10.5</ele><time>2011-04-29T10:47:00.0000000+00:00</time></trkpt><trkpt lat="21.046089" lon="105.795204"><ele>12.7</ele><time>2011-04-29T10:47:05.0000000+00:00</time></trkpt><trkpt lat="21.046087" lon="105.795471"><ele>13.7</ele><time>2011-04-29T10:47:10.0000000+00:00</time></trkpt><trkpt lat="21.046087" lon="105.795761"><ele>15.6</ele><time>2011-04-29T10:47:15.0000000+00:00</time></trkpt><trkpt lat="21.046083" lon="105.796005"><ele>23.2</ele><time>2011-04-29T10:47:20.0000000+00:00</time></trkpt><trkpt lat="21.046082" lon="105.796227"><ele>24.6</ele><time>2011-04-29T10:47:25.0000000+00:00</time></trkpt><trkpt lat="21.046066" lon="105.796486"><ele>24.7</ele><time>2011-04-29T10:47:30.0000000+00:00</time></trkpt><trkpt lat="21.046068" lon="105.796715"><ele>22.7</ele><time>2011-04-29T10:47:35.0000000+00:00</time></trkpt><trkpt lat="21.046064" lon="105.79686"><ele>22.4</ele><time>2011-04-29T10:47:40.0000000+00:00</time></trkpt><trkpt lat="21.046072" lon="105.796989"><ele>19.0</ele><time>2011-04-29T10:47:45.0000000+00:00</time></trkpt><trkpt lat="21.046074" lon="105.797127"><ele>16.8</ele><time>2011-04-29T10:47:50.0000000+00:00</time></trkpt><trkpt lat="21.046064" lon="105.797325"><ele>15.6</ele><time>2011-04-29T10:47:55.0000000+00:00</time></trkpt><trkpt lat="21.046064" lon="105.797424"><ele>15.7</ele><time>2011-04-29T10:48:00.0000000+00:00</time></trkpt><trkpt lat="21.046083" lon="105.797554"><ele>16.4</ele><time>2011-04-29T10:48:05.0000000+00:00</time></trkpt><trkpt lat="21.046104" lon="105.797775"><ele>15.4</ele><time>2011-04-29T10:48:10.0000000+00:00</time></trkpt><trkpt lat="21.046083" lon="105.798073"><ele>15.6</ele><time>2011-04-29T10:48:15.0000000+00:00</time></trkpt><trkpt lat="21.046082" lon="105.798363"><ele>16.0</ele><time>2011-04-29T10:48:20.0000000+00:00</time></trkpt><trkpt lat="21.046101" lon="105.79866"><ele>17.3</ele><time>2011-04-29T10:48:25.0000000+00:00</time></trkpt><trkpt lat="21.04611" lon="105.798981"><ele>17.4</ele><time>2011-04-29T10:48:30.0000000+00:00</time></trkpt><trkpt lat="21.046095" lon="105.799301"><ele>17.1</ele><time>2011-04-29T10:48:35.0000000+00:00</time></trkpt><trkpt lat="21.046103" lon="105.799622"><ele>17.6</ele><time>2011-04-29T10:48:40.0000000+00:00</time></trkpt><trkpt lat="21.046106" lon="105.799927"><ele>17.6</ele><time>2011-04-29T10:48:45.0000000+00:00</time></trkpt><trkpt lat="21.046101" lon="105.800201"><ele>20.4</ele><time>2011-04-29T10:48:50.0000000+00:00</time></trkpt><trkpt lat="21.046099" lon="105.800522"><ele>18.7</ele><time>2011-04-29T10:48:55.0000000+00:00</time></trkpt><trkpt lat="21.046097" lon="105.800835"><ele>18.0</ele><time>2011-04-29T10:49:00.0000000+00:00</time></trkpt><trkpt lat="21.046091" lon="105.801125"><ele>16.4</ele><time>2011-04-29T10:49:05.0000000+00:00</time></trkpt><trkpt lat="21.046101" lon="105.801392"><ele>16.6</ele><time>2011-04-29T10:49:10.0000000+00:00</time></trkpt><trkpt lat="21.046104" lon="105.801704"><ele>15.0</ele><time>2011-04-29T10:49:15.0000000+00:00</time></trkpt><trkpt lat="21.046118" lon="105.802032"><ele>14.1</ele><time>2011-04-29T10:49:20.0000000+00:00</time></trkpt><trkpt lat="21.046116" lon="105.802345"><ele>13.8</ele><time>2011-04-29T10:49:25.0000000+00:00</time></trkpt><trkpt lat="21.046118" lon="105.80262"><ele>13.8</ele><time>2011-04-29T10:49:30.0000000+00:00</time></trkpt><trkpt lat="21.046125" lon="105.802925"><ele>14.2</ele><time>2011-04-29T10:49:35.0000000+00:00</time></trkpt><trkpt lat="21.046118" lon="105.803276"><ele>13.6</ele><time>2011-04-29T10:49:40.0000000+00:00</time></trkpt><trkpt lat="21.04611" lon="105.803596"><ele>14.2</ele><time>2011-04-29T10:49:45.0000000+00:00</time></trkpt><trkpt lat="21.046103" lon="105.803848"><ele>13.4</ele><time>2011-04-29T10:49:50.0000000+00:00</time></trkpt><trkpt lat="21.046097" lon="105.804062"><ele>12.1</ele><time>2011-04-29T10:49:55.0000000+00:00</time></trkpt><trkpt lat="21.04611" lon="105.804329"><ele>13.4</ele><time>2011-04-29T10:50:00.0000000+00:00</time></trkpt><trkpt lat="21.046112" lon="105.804581"><ele>14.1</ele><time>2011-04-29T10:50:05.0000000+00:00</time></trkpt><trkpt lat="21.046101" lon="105.804825"><ele>13.6</ele><time>2011-04-29T10:50:10.0000000+00:00</time></trkpt><trkpt lat="21.046097" lon="105.805061"><ele>13.1</ele><time>2011-04-29T10:50:15.0000000+00:00</time></trkpt><trkpt lat="21.046059" lon="105.80526"><ele>13.1</ele><time>2011-04-29T10:50:20.0000000+00:00</time></trkpt><trkpt lat="21.045961" lon="105.805466"><ele>14.2</ele><time>2011-04-29T10:50:25.0000000+00:00</time></trkpt><trkpt lat="21.046009" lon="105.805641"><ele>14.4</ele><time>2011-04-29T10:50:30.0000000+00:00</time></trkpt><trkpt lat="21.046009" lon="105.805733"><ele>13.6</ele><time>2011-04-29T10:50:35.0000000+00:00</time></trkpt><trkpt lat="21.046011" lon="105.805748"><ele>13.8</ele><time>2011-04-29T10:50:40.0000000+00:00</time></trkpt><trkpt lat="21.046011" lon="105.805756"><ele>13.7</ele><time>2011-04-29T10:50:45.0000000+00:00</time></trkpt><trkpt lat="21.046007" lon="105.805763"><ele>13.7</ele><time>2011-04-29T10:50:50.0000000+00:00</time></trkpt><trkpt lat="21.045967" lon="105.805794"><ele>13.4</ele><time>2011-04-29T10:50:55.0000000+00:00</time></trkpt><trkpt lat="21.045847" lon="105.805824"><ele>12.9</ele><time>2011-04-29T10:51:00.0000000+00:00</time></trkpt><trkpt lat="21.04567" lon="105.80587"><ele>13.7</ele><time>2011-04-29T10:51:05.0000000+00:00</time></trkpt><trkpt lat="21.045504" lon="105.805893"><ele>13.9</ele><time>2011-04-29T10:51:10.0000000+00:00</time></trkpt><trkpt lat="21.04537" lon="105.805908"><ele>14.2</ele><time>2011-04-29T10:51:15.0000000+00:00</time></trkpt><trkpt lat="21.045286" lon="105.805908"><ele>14.7</ele><time>2011-04-29T10:51:20.0000000+00:00</time></trkpt><trkpt lat="21.045227" lon="105.805916"><ele>15.4</ele><time>2011-04-29T10:51:25.0000000+00:00</time></trkpt><trkpt lat="21.045242" lon="105.805992"><ele>17.0</ele><time>2011-04-29T10:51:30.0000000+00:00</time></trkpt><trkpt lat="21.045372" lon="105.806023"><ele>17.3</ele><time>2011-04-29T10:51:35.0000000+00:00</time></trkpt><trkpt lat="21.045458" lon="105.806053"><ele>18.5</ele><time>2011-04-29T10:51:40.0000000+00:00</time></trkpt><trkpt lat="21.045542" lon="105.806053"><ele>20.4</ele><time>2011-04-29T10:51:45.0000000+00:00</time></trkpt><trkpt lat="21.045567" lon="105.806053"><ele>24.2</ele><time>2011-04-29T10:51:50.0000000+00:00</time></trkpt><trkpt lat="21.045555" lon="105.806046"><ele>25.8</ele><time>2011-04-29T10:51:55.0000000+00:00</time></trkpt><trkpt lat="21.045547" lon="105.806046"><ele>27.4</ele><time>2011-04-29T10:52:00.0000000+00:00</time></trkpt><trkpt lat="21.045542" lon="105.806046"><ele>28.0</ele><time>2011-04-29T10:52:05.0000000+00:00</time></trkpt><trkpt lat="21.045542" lon="105.806038"><ele>28.2</ele><time>2011-04-29T10:52:10.0000000+00:00</time></trkpt><trkpt lat="21.04554" lon="105.806038"><ele>28.1</ele><time>2011-04-29T10:52:15.0000000+00:00</time></trkpt><trkpt lat="21.04554" lon="105.806038"><ele>28.1</ele><time>2011-04-29T10:52:20.0000000+00:00</time></trkpt><trkpt lat="21.045544" lon="105.806038"><ele>28.1</ele><time>2011-04-29T10:52:25.0000000+00:00</time></trkpt><trkpt lat="21.045546" lon="105.806038"><ele>28.1</ele><time>2011-04-29T10:52:30.0000000+00:00</time></trkpt><trkpt lat="21.04566" lon="105.806068"><ele>27.6</ele><time>2011-04-29T10:52:35.0000000+00:00</time></trkpt><trkpt lat="21.04586" lon="105.806061"><ele>26.8</ele><time>2011-04-29T10:52:40.0000000+00:00</time></trkpt><trkpt lat="21.046013" lon="105.806061"><ele>25.1</ele><time>2011-04-29T10:52:45.0000000+00:00</time></trkpt><trkpt lat="21.046225" lon="105.80603"><ele>22.3</ele><time>2011-04-29T10:52:50.0000000+00:00</time></trkpt><trkpt lat="21.04635" lon="105.806023"><ele>22.4</ele><time>2011-04-29T10:52:55.0000000+00:00</time></trkpt><trkpt lat="21.046474" lon="105.80603"><ele>20.8</ele><time>2011-04-29T10:53:00.0000000+00:00</time></trkpt><trkpt lat="21.046633" lon="105.806015"><ele>20.2</ele><time>2011-04-29T10:53:05.0000000+00:00</time></trkpt><trkpt lat="21.046701" lon="105.80603"><ele>19.3</ele><time>2011-04-29T10:53:10.0000000+00:00</time></trkpt><trkpt lat="21.04678" lon="105.806007"><ele>19.9</ele><time>2011-04-29T10:53:15.0000000+00:00</time></trkpt><trkpt lat="21.046867" lon="105.806"><ele>20.4</ele><time>2011-04-29T10:53:20.0000000+00:00</time></trkpt><trkpt lat="21.046909" lon="105.805969"><ele>23.5</ele><time>2011-04-29T10:53:25.0000000+00:00</time></trkpt><trkpt lat="21.04693" lon="105.805962"><ele>23.2</ele><time>2011-04-29T10:53:30.0000000+00:00</time></trkpt><trkpt lat="21.046965" lon="105.805946"><ele>24.4</ele><time>2011-04-29T10:53:35.0000000+00:00</time></trkpt><trkpt lat="21.046995" lon="105.805962"><ele>21.9</ele><time>2011-04-29T10:53:40.0000000+00:00</time></trkpt><trkpt lat="21.047035" lon="105.805954"><ele>22.8</ele><time>2011-04-29T10:53:45.0000000+00:00</time></trkpt><trkpt lat="21.047094" lon="105.805954"><ele>22.1</ele><time>2011-04-29T10:53:50.0000000+00:00</time></trkpt><trkpt lat="21.047148" lon="105.805969"><ele>20.4</ele><time>2011-04-29T10:53:55.0000000+00:00</time></trkpt><trkpt lat="21.047194" lon="105.805977"><ele>20.5</ele><time>2011-04-29T10:54:00.0000000+00:00</time></trkpt><trkpt lat="21.047249" lon="105.805984"><ele>21.3</ele><time>2011-04-29T10:54:05.0000000+00:00</time></trkpt><trkpt lat="21.047329" lon="105.806015"><ele>21.1</ele><time>2011-04-29T10:54:10.0000000+00:00</time></trkpt><trkpt lat="21.047459" lon="105.806091"><ele>21.2</ele><time>2011-04-29T10:54:15.0000000+00:00</time></trkpt><trkpt lat="21.047516" lon="105.806259"><ele>20.1</ele><time>2011-04-29T10:54:20.0000000+00:00</time></trkpt><trkpt lat="21.047501" lon="105.806381"><ele>20.1</ele><time>2011-04-29T10:54:25.0000000+00:00</time></trkpt><trkpt lat="21.047497" lon="105.806496"><ele>19.4</ele><time>2011-04-29T10:54:30.0000000+00:00</time></trkpt><trkpt lat="21.047491" lon="105.80661"><ele>20.1</ele><time>2011-04-29T10:54:35.0000000+00:00</time></trkpt><trkpt lat="21.047482" lon="105.806694"><ele>21.3</ele><time>2011-04-29T10:54:40.0000000+00:00</time></trkpt><trkpt lat="21.047457" lon="105.806824"><ele>23.2</ele><time>2011-04-29T10:54:45.0000000+00:00</time></trkpt><trkpt lat="21.047417" lon="105.806915"><ele>24.5</ele><time>2011-04-29T10:54:50.0000000+00:00</time></trkpt><trkpt lat="21.047441" lon="105.80703"><ele>24.5</ele><time>2011-04-29T10:54:55.0000000+00:00</time></trkpt><trkpt lat="21.047436" lon="105.80735"><ele>23.1</ele><time>2011-04-29T10:55:00.0000000+00:00</time></trkpt><trkpt lat="21.047415" lon="105.807617"><ele>24.1</ele><time>2011-04-29T10:55:05.0000000+00:00</time></trkpt><trkpt lat="21.047348" lon="105.807892"><ele>24.4</ele><time>2011-04-29T10:55:10.0000000+00:00</time></trkpt><trkpt lat="21.047369" lon="105.808098"><ele>24.7</ele><time>2011-04-29T10:55:15.0000000+00:00</time></trkpt><trkpt lat="21.04727" lon="105.808289"><ele>20.7</ele><time>2011-04-29T10:55:20.0000000+00:00</time></trkpt><trkpt lat="21.04722" lon="105.808456"><ele>19.4</ele><time>2011-04-29T10:55:25.0000000+00:00</time></trkpt><trkpt lat="21.047195" lon="105.808525"><ele>19.6</ele><time>2011-04-29T10:55:30.0000000+00:00</time></trkpt><trkpt lat="21.047171" lon="105.808594"><ele>17.9</ele><time>2011-04-29T10:55:35.0000000+00:00</time></trkpt><trkpt lat="21.047134" lon="105.80864"><ele>18.1</ele><time>2011-04-29T10:55:40.0000000+00:00</time></trkpt><trkpt lat="21.047096" lon="105.808739"><ele>18.2</ele><time>2011-04-29T10:55:45.0000000+00:00</time></trkpt><trkpt lat="21.047079" lon="105.808846"><ele>19.0</ele><time>2011-04-29T10:55:50.0000000+00:00</time></trkpt><trkpt lat="21.047054" lon="105.808914"><ele>21.0</ele><time>2011-04-29T10:55:55.0000000+00:00</time></trkpt><trkpt lat="21.047001" lon="105.809021"><ele>21.1</ele><time>2011-04-29T10:56:00.0000000+00:00</time></trkpt><trkpt lat="21.046892" lon="105.809204"><ele>22.5</ele><time>2011-04-29T10:56:05.0000000+00:00</time></trkpt><trkpt lat="21.046808" lon="105.809402"><ele>23.7</ele><time>2011-04-29T10:56:10.0000000+00:00</time></trkpt><trkpt lat="21.046703" lon="105.809608"><ele>23.6</ele><time>2011-04-29T10:56:15.0000000+00:00</time></trkpt><trkpt lat="21.046581" lon="105.809898"><ele>25.0</ele><time>2011-04-29T10:56:20.0000000+00:00</time></trkpt><trkpt lat="21.046501" lon="105.810089"><ele>25.1</ele><time>2011-04-29T10:56:25.0000000+00:00</time></trkpt><trkpt lat="21.046406" lon="105.810265"><ele>25.0</ele><time>2011-04-29T10:56:30.0000000+00:00</time></trkpt><trkpt lat="21.046316" lon="105.810471"><ele>25.0</ele><time>2011-04-29T10:56:35.0000000+00:00</time></trkpt><trkpt lat="21.046215" lon="105.810684"><ele>26.2</ele><time>2011-04-29T10:56:40.0000000+00:00</time></trkpt><trkpt lat="21.046108" lon="105.81089"><ele>24.5</ele><time>2011-04-29T10:56:45.0000000+00:00</time></trkpt><trkpt lat="21.046001" lon="105.811043"><ele>27.4</ele><time>2011-04-29T10:56:50.0000000+00:00</time></trkpt><trkpt lat="21.045942" lon="105.81115"><ele>27.9</ele><time>2011-04-29T10:56:55.0000000+00:00</time></trkpt><trkpt lat="21.045877" lon="105.811256"><ele>30.0</ele><time>2011-04-29T10:57:00.0000000+00:00</time></trkpt><trkpt lat="21.045782" lon="105.811386"><ele>31.5</ele><time>2011-04-29T10:57:05.0000000+00:00</time></trkpt><trkpt lat="21.045654" lon="105.811539"><ele>34.5</ele><time>2011-04-29T10:57:10.0000000+00:00</time></trkpt><trkpt lat="21.045504" lon="105.811737"><ele>37.7</ele><time>2011-04-29T10:57:15.0000000+00:00</time></trkpt><trkpt lat="21.045364" lon="105.811913"><ele>37.7</ele><time>2011-04-29T10:57:20.0000000+00:00</time></trkpt><trkpt lat="21.045223" lon="105.812042"><ele>39.7</ele><time>2011-04-29T10:57:25.0000000+00:00</time></trkpt><trkpt lat="21.045099" lon="105.812195"><ele>41.8</ele><time>2011-04-29T10:57:30.0000000+00:00</time></trkpt><trkpt lat="21.044939" lon="105.81234"><ele>45.8</ele><time>2011-04-29T10:57:35.0000000+00:00</time></trkpt><trkpt lat="21.044758" lon="105.812508"><ele>46.2</ele><time>2011-04-29T10:57:40.0000000+00:00</time></trkpt><trkpt lat="21.044586" lon="105.812683"><ele>48.5</ele><time>2011-04-29T10:57:45.0000000+00:00</time></trkpt><trkpt lat="21.044369" lon="105.812851"><ele>45.7</ele><time>2011-04-29T10:57:50.0000000+00:00</time></trkpt><trkpt lat="21.044163" lon="105.812988"><ele>39.5</ele><time>2011-04-29T10:57:55.0000000+00:00</time></trkpt><trkpt lat="21.044008" lon="105.813095"><ele>37.1</ele><time>2011-04-29T10:58:00.0000000+00:00</time></trkpt><trkpt lat="21.043818" lon="105.813316"><ele>34.2</ele><time>2011-04-29T10:58:05.0000000+00:00</time></trkpt><trkpt lat="21.043615" lon="105.813576"><ele>32.0</ele><time>2011-04-29T10:58:10.0000000+00:00</time></trkpt><trkpt lat="21.043459" lon="105.813805"><ele>29.9</ele><time>2011-04-29T10:58:15.0000000+00:00</time></trkpt><trkpt lat="21.043348" lon="105.813988"><ele>29.2</ele><time>2011-04-29T10:58:20.0000000+00:00</time></trkpt><trkpt lat="21.043209" lon="105.814186"><ele>27.4</ele><time>2011-04-29T10:58:25.0000000+00:00</time></trkpt><trkpt lat="21.043087" lon="105.814384"><ele>26.4</ele><time>2011-04-29T10:58:30.0000000+00:00</time></trkpt><trkpt lat="21.042971" lon="105.81456"><ele>28.8</ele><time>2011-04-29T10:58:35.0000000+00:00</time></trkpt><trkpt lat="21.042915" lon="105.81472"><ele>29.2</ele><time>2011-04-29T10:58:40.0000000+00:00</time></trkpt><trkpt lat="21.042831" lon="105.814903"><ele>27.0</ele><time>2011-04-29T10:58:45.0000000+00:00</time></trkpt><trkpt lat="21.042772" lon="105.815041"><ele>25.8</ele><time>2011-04-29T10:58:50.0000000+00:00</time></trkpt><trkpt lat="21.042723" lon="105.815132"><ele>24.5</ele><time>2011-04-29T10:58:55.0000000+00:00</time></trkpt><trkpt lat="21.04266" lon="105.815239"><ele>24.7</ele><time>2011-04-29T10:59:00.0000000+00:00</time></trkpt><trkpt lat="21.042608" lon="105.815399"><ele>22.7</ele><time>2011-04-29T10:59:05.0000000+00:00</time></trkpt><trkpt lat="21.042543" lon="105.815575"><ele>21.5</ele><time>2011-04-29T10:59:10.0000000+00:00</time></trkpt><trkpt lat="21.042486" lon="105.815712"><ele>21.1</ele><time>2011-04-29T10:59:15.0000000+00:00</time></trkpt><trkpt lat="21.04244" lon="105.815826"><ele>20.8</ele><time>2011-04-29T10:59:20.0000000+00:00</time></trkpt><trkpt lat="21.042433" lon="105.815834"><ele>20.0</ele><time>2011-04-29T10:59:25.0000000+00:00</time></trkpt><trkpt lat="21.042433" lon="105.815842"><ele>20.0</ele><time>2011-04-29T10:59:30.0000000+00:00</time></trkpt><trkpt lat="21.042433" lon="105.815849"><ele>20.3</ele><time>2011-04-29T10:59:35.0000000+00:00</time></trkpt><trkpt lat="21.042435" lon="105.815849"><ele>20.4</ele><time>2011-04-29T10:59:40.0000000+00:00</time></trkpt><trkpt lat="21.042435" lon="105.815849"><ele>20.4</ele><time>2011-04-29T10:59:45.0000000+00:00</time></trkpt><trkpt lat="21.042435" lon="105.815849"><ele>20.4</ele><time>2011-04-29T10:59:50.0000000+00:00</time></trkpt><trkpt lat="21.042433" lon="105.815857"><ele>20.3</ele><time>2011-04-29T10:59:55.0000000+00:00</time></trkpt><trkpt lat="21.042387" lon="105.815971"><ele>18.2</ele><time>2011-04-29T11:00:00.0000000+00:00</time></trkpt><trkpt lat="21.042332" lon="105.816063"><ele>17.7</ele><time>2011-04-29T11:00:05.0000000+00:00</time></trkpt><trkpt lat="21.042267" lon="105.816116"><ele>15.8</ele><time>2011-04-29T11:00:10.0000000+00:00</time></trkpt><trkpt lat="21.042225" lon="105.816147"><ele>14.0</ele><time>2011-04-29T11:00:15.0000000+00:00</time></trkpt><trkpt lat="21.042223" lon="105.816139"><ele>13.0</ele><time>2011-04-29T11:00:20.0000000+00:00</time></trkpt><trkpt lat="21.042223" lon="105.816139"><ele>12.9</ele><time>2011-04-29T11:00:25.0000000+00:00</time></trkpt><trkpt lat="21.042208" lon="105.816147"><ele>12.2</ele><time>2011-04-29T11:00:30.0000000+00:00</time></trkpt><trkpt lat="21.042105" lon="105.816208"><ele>11.1</ele><time>2011-04-29T11:00:35.0000000+00:00</time></trkpt><trkpt lat="21.041971" lon="105.816254"><ele>11.5</ele><time>2011-04-29T11:00:40.0000000+00:00</time></trkpt><trkpt lat="21.041836" lon="105.816208"><ele>11.7</ele><time>2011-04-29T11:00:45.0000000+00:00</time></trkpt><trkpt lat="21.041714" lon="105.816177"><ele>12.2</ele><time>2011-04-29T11:00:50.0000000+00:00</time></trkpt><trkpt lat="21.041618" lon="105.816162"><ele>11.5</ele><time>2011-04-29T11:00:55.0000000+00:00</time></trkpt><trkpt lat="21.04154" lon="105.816147"><ele>10.9</ele><time>2011-04-29T11:01:00.0000000+00:00</time></trkpt><trkpt lat="21.041447" lon="105.816101"><ele>10.7</ele><time>2011-04-29T11:01:05.0000000+00:00</time></trkpt><trkpt lat="21.041374" lon="105.816071"><ele>8.9</ele><time>2011-04-29T11:01:10.0000000+00:00</time></trkpt><trkpt lat="21.041319" lon="105.816017"><ele>6.4</ele><time>2011-04-29T11:01:15.0000000+00:00</time></trkpt><trkpt lat="21.041311" lon="105.816002"><ele>5.0</ele><time>2011-04-29T11:01:20.0000000+00:00</time></trkpt><trkpt lat="21.041313" lon="105.815994"><ele>5.3</ele><time>2011-04-29T11:01:25.0000000+00:00</time></trkpt><trkpt lat="21.041309" lon="105.815987"><ele>5.0</ele><time>2011-04-29T11:01:30.0000000+00:00</time></trkpt><trkpt lat="21.041309" lon="105.815979"><ele>4.6</ele><time>2011-04-29T11:01:35.0000000+00:00</time></trkpt><trkpt lat="21.041309" lon="105.815971"><ele>5.6</ele><time>2011-04-29T11:01:40.0000000+00:00</time></trkpt><trkpt lat="21.041311" lon="105.815926"><ele>5.7</ele><time>2011-04-29T11:01:45.0000000+00:00</time></trkpt><trkpt lat="21.041319" lon="105.815895"><ele>5.7</ele><time>2011-04-29T11:01:50.0000000+00:00</time></trkpt><trkpt lat="21.041313" lon="105.815849"><ele>5.5</ele><time>2011-04-29T11:01:55.0000000+00:00</time></trkpt><trkpt lat="21.041292" lon="105.81575"><ele>6.8</ele><time>2011-04-29T11:02:00.0000000+00:00</time></trkpt><trkpt lat="21.041265" lon="105.815712"><ele>9.5</ele><time>2011-04-29T11:02:05.0000000+00:00</time></trkpt><trkpt lat="21.041267" lon="105.815598"><ele>10.6</ele><time>2011-04-29T11:02:10.0000000+00:00</time></trkpt><trkpt lat="21.041283" lon="105.815445"><ele>12.5</ele><time>2011-04-29T11:02:15.0000000+00:00</time></trkpt><trkpt lat="21.041294" lon="105.815323"><ele>12.3</ele><time>2011-04-29T11:02:20.0000000+00:00</time></trkpt><trkpt lat="21.041349" lon="105.815292"><ele>14.2</ele><time>2011-04-29T11:02:25.0000000+00:00</time></trkpt><trkpt lat="21.041395" lon="105.815308"><ele>15.8</ele><time>2011-04-29T11:02:30.0000000+00:00</time></trkpt><trkpt lat="21.041464" lon="105.815277"><ele>17.6</ele><time>2011-04-29T11:02:35.0000000+00:00</time></trkpt><trkpt lat="21.041534" lon="105.815201"><ele>20.7</ele><time>2011-04-29T11:02:40.0000000+00:00</time></trkpt><trkpt lat="21.041559" lon="105.815208"><ele>21.8</ele><time>2011-04-29T11:02:45.0000000+00:00</time></trkpt><trkpt lat="21.041571" lon="105.815201"><ele>23.4</ele><time>2011-04-29T11:02:50.0000000+00:00</time></trkpt><trkpt lat="21.041592" lon="105.815224"><ele>24.4</ele><time>2011-04-29T11:02:55.0000000+00:00</time></trkpt><trkpt lat="21.041597" lon="105.815239"><ele>25.5</ele><time>2011-04-29T11:03:00.0000000+00:00</time></trkpt><trkpt lat="21.041586" lon="105.815239"><ele>26.5</ele><time>2011-04-29T11:03:05.0000000+00:00</time></trkpt><trkpt lat="21.04158" lon="105.815269"><ele>27.1</ele><time>2011-04-29T11:03:10.0000000+00:00</time></trkpt><trkpt lat="21.041563" lon="105.815285"><ele>28.1</ele><time>2011-04-29T11:03:15.0000000+00:00</time></trkpt><trkpt lat="21.041586" lon="105.815277"><ele>28.5</ele><time>2011-04-29T11:03:20.0000000+00:00</time></trkpt><trkpt lat="21.041618" lon="105.8153"><ele>28.8</ele><time>2011-04-29T11:03:25.0000000+00:00</time></trkpt><trkpt lat="21.041662" lon="105.815216"><ele>30.0</ele><time>2011-04-29T11:03:30.0000000+00:00</time></trkpt><trkpt lat="21.041658" lon="105.815216"><ele>30.0</ele><time>2011-04-29T11:03:35.0000000+00:00</time></trkpt><trkpt lat="21.041677" lon="105.815193"><ele>30.1</ele><time>2011-04-29T11:03:40.0000000+00:00</time></trkpt><trkpt lat="21.041698" lon="105.815178"><ele>30.1</ele><time>2011-04-29T11:03:45.0000000+00:00</time></trkpt></trkseg><trkseg><trkpt lat="21.028149" lon="105.778038"><ele>28.9</ele><time>2011-04-29T22:06:05.0000000+00:00</time></trkpt><trkpt lat="21.028168" lon="105.778053"><ele>21.2</ele><time>2011-04-29T22:06:10.0000000+00:00</time></trkpt><trkpt lat="21.02817" lon="105.778061"><ele>18.8</ele><time>2011-04-29T22:06:15.0000000+00:00</time></trkpt><trkpt lat="21.02817" lon="105.778069"><ele>18.6</ele><time>2011-04-29T22:06:20.0000000+00:00</time></trkpt><trkpt lat="21.02817" lon="105.778069"><ele>17.6</ele><time>2011-04-29T22:06:25.0000000+00:00</time></trkpt><trkpt lat="21.028164" lon="105.778084"><ele>18.3</ele><time>2011-04-29T22:06:30.0000000+00:00</time></trkpt><trkpt lat="21.028145" lon="105.778076"><ele>18.9</ele><time>2011-04-29T22:06:35.0000000+00:00</time></trkpt><trkpt lat="21.028149" lon="105.778076"><ele>19.0</ele><time>2011-04-29T22:06:40.0000000+00:00</time></trkpt><trkpt lat="21.028151" lon="105.778076"><ele>19.1</ele><time>2011-04-29T22:06:45.0000000+00:00</time></trkpt><trkpt lat="21.028154" lon="105.778076"><ele>19.1</ele><time>2011-04-29T22:06:50.0000000+00:00</time></trkpt><trkpt lat="21.028162" lon="105.778076"><ele>18.9</ele><time>2011-04-29T22:06:55.0000000+00:00</time></trkpt><trkpt lat="21.028164" lon="105.778076"><ele>18.8</ele><time>2011-04-29T22:07:00.0000000+00:00</time></trkpt><trkpt lat="21.028166" lon="105.778076"><ele>18.7</ele><time>2011-04-29T22:07:05.0000000+00:00</time></trkpt><trkpt lat="21.02817" lon="105.778069"><ele>18.6</ele><time>2011-04-29T22:07:10.0000000+00:00</time></trkpt><trkpt lat="21.028172" lon="105.778069"><ele>18.3</ele><time>2011-04-29T22:07:15.0000000+00:00</time></trkpt><trkpt lat="21.028172" lon="105.778069"><ele>18.3</ele><time>2011-04-29T22:07:20.0000000+00:00</time></trkpt><trkpt lat="21.028172" lon="105.778069"><ele>18.2</ele><time>2011-04-29T22:07:25.0000000+00:00</time></trkpt><trkpt lat="21.028173" lon="105.778069"><ele>18.2</ele><time>2011-04-29T22:07:30.0000000+00:00</time></trkpt><trkpt lat="21.028173" lon="105.778069"><ele>18.1</ele><time>2011-04-29T22:07:35.0000000+00:00</time></trkpt><trkpt lat="21.028173" lon="105.778069"><ele>18.1</ele><time>2011-04-29T22:07:40.0000000+00:00</time></trkpt><trkpt lat="21.028175" lon="105.778069"><ele>18.1</ele><time>2011-04-29T22:07:45.0000000+00:00</time></trkpt><trkpt lat="21.028175" lon="105.778069"><ele>18.0</ele><time>2011-04-29T22:07:50.0000000+00:00</time></trkpt><trkpt lat="21.028183" lon="105.778069"><ele>17.8</ele><time>2011-04-29T22:07:55.0000000+00:00</time></trkpt><trkpt lat="21.028191" lon="105.778061"><ele>16.5</ele><time>2011-04-29T22:08:00.0000000+00:00</time></trkpt><trkpt lat="21.028194" lon="105.778061"><ele>16.0</ele><time>2011-04-29T22:08:05.0000000+00:00</time></trkpt><trkpt lat="21.028198" lon="105.778061"><ele>15.6</ele><time>2011-04-29T22:08:10.0000000+00:00</time></trkpt><trkpt lat="21.028202" lon="105.778061"><ele>15.1</ele><time>2011-04-29T22:08:15.0000000+00:00</time></trkpt><trkpt lat="21.028208" lon="105.778053"><ele>14.5</ele><time>2011-04-29T22:08:20.0000000+00:00</time></trkpt><trkpt lat="21.028221" lon="105.778046"><ele>13.8</ele><time>2011-04-29T22:08:25.0000000+00:00</time></trkpt><trkpt lat="21.028229" lon="105.778046"><ele>11.4</ele><time>2011-04-29T22:08:30.0000000+00:00</time></trkpt><trkpt lat="21.028229" lon="105.778046"><ele>10.6</ele><time>2011-04-29T22:08:35.0000000+00:00</time></trkpt><trkpt lat="21.028231" lon="105.778053"><ele>9.7</ele><time>2011-04-29T22:08:40.0000000+00:00</time></trkpt><trkpt lat="21.028227" lon="105.778061"><ele>8.9</ele><time>2011-04-29T22:08:45.0000000+00:00</time></trkpt><trkpt lat="21.028221" lon="105.778069"><ele>8.0</ele><time>2011-04-29T22:08:50.0000000+00:00</time></trkpt><trkpt lat="21.028215" lon="105.778076"><ele>7.0</ele><time>2011-04-29T22:08:55.0000000+00:00</time></trkpt><trkpt lat="21.02821" lon="105.778084"><ele>6.0</ele><time>2011-04-29T22:09:00.0000000+00:00</time></trkpt><trkpt lat="21.028208" lon="105.778084"><ele>4.8</ele><time>2011-04-29T22:09:05.0000000+00:00</time></trkpt><trkpt lat="21.028206" lon="105.778091"><ele>3.6</ele><time>2011-04-29T22:09:10.0000000+00:00</time></trkpt><trkpt lat="21.028208" lon="105.778091"><ele>2.5</ele><time>2011-04-29T22:09:15.0000000+00:00</time></trkpt><trkpt lat="21.028208" lon="105.778091"><ele>1.4</ele><time>2011-04-29T22:09:20.0000000+00:00</time></trkpt><trkpt lat="21.028206" lon="105.778084"><ele>0.4</ele><time>2011-04-29T22:09:25.0000000+00:00</time></trkpt><trkpt lat="21.0282" lon="105.778076"><ele>-0.6</ele><time>2011-04-29T22:09:30.0000000+00:00</time></trkpt><trkpt lat="21.028196" lon="105.778076"><ele>-1.6</ele><time>2011-04-29T22:09:35.0000000+00:00</time></trkpt><trkpt lat="21.028191" lon="105.778069"><ele>-2.6</ele><time>2011-04-29T22:09:40.0000000+00:00</time></trkpt><trkpt lat="21.028185" lon="105.778069"><ele>-3.6</ele><time>2011-04-29T22:09:45.0000000+00:00</time></trkpt><trkpt lat="21.028179" lon="105.778069"><ele>-4.5</ele><time>2011-04-29T22:09:50.0000000+00:00</time></trkpt><trkpt lat="21.028177" lon="105.778069"><ele>-5.5</ele><time>2011-04-29T22:09:55.0000000+00:00</time></trkpt><trkpt lat="21.028177" lon="105.778069"><ele>-6.4</ele><time>2011-04-29T22:10:00.0000000+00:00</time></trkpt><trkpt lat="21.028181" lon="105.778069"><ele>-7.3</ele><time>2011-04-29T22:10:05.0000000+00:00</time></trkpt><trkpt lat="21.028187" lon="105.778061"><ele>-8.1</ele><time>2011-04-29T22:10:10.0000000+00:00</time></trkpt><trkpt lat="21.028193" lon="105.778046"><ele>-8.8</ele><time>2011-04-29T22:10:15.0000000+00:00</time></trkpt><trkpt lat="21.028194" lon="105.778038"><ele>-9.5</ele><time>2011-04-29T22:10:20.0000000+00:00</time></trkpt><trkpt lat="21.028194" lon="105.77803"><ele>-10.1</ele><time>2011-04-29T22:10:25.0000000+00:00</time></trkpt><trkpt lat="21.028196" lon="105.778023"><ele>-10.6</ele><time>2011-04-29T22:10:30.0000000+00:00</time></trkpt><trkpt lat="21.0282" lon="105.778023"><ele>-10.9</ele><time>2011-04-29T22:10:35.0000000+00:00</time></trkpt><trkpt lat="21.028208" lon="105.778023"><ele>-11.2</ele><time>2011-04-29T22:10:40.0000000+00:00</time></trkpt><trkpt lat="21.028212" lon="105.77803"><ele>-11.5</ele><time>2011-04-29T22:10:45.0000000+00:00</time></trkpt><trkpt lat="21.028214" lon="105.77803"><ele>-11.7</ele><time>2011-04-29T22:10:50.0000000+00:00</time></trkpt><trkpt lat="21.028212" lon="105.77803"><ele>-11.8</ele><time>2011-04-29T22:10:55.0000000+00:00</time></trkpt><trkpt lat="21.028212" lon="105.77803"><ele>-11.8</ele><time>2011-04-29T22:11:00.0000000+00:00</time></trkpt><trkpt lat="21.028212" lon="105.77803"><ele>-11.8</ele><time>2011-04-29T22:11:05.0000000+00:00</time></trkpt><trkpt lat="21.028212" lon="105.77803"><ele>-11.8</ele><time>2011-04-29T22:11:10.0000000+00:00</time></trkpt><trkpt lat="21.028212" lon="105.778038"><ele>-11.8</ele><time>2011-04-29T22:11:15.0000000+00:00</time></trkpt><trkpt lat="21.028215" lon="105.778038"><ele>-11.8</ele><time>2011-04-29T22:11:20.0000000+00:00</time></trkpt><trkpt lat="21.028217" lon="105.778046"><ele>-11.8</ele><time>2011-04-29T22:11:25.0000000+00:00</time></trkpt><trkpt lat="21.028221" lon="105.778053"><ele>-11.8</ele><time>2011-04-29T22:11:30.0000000+00:00</time></trkpt><trkpt lat="21.028223" lon="105.778053"><ele>-11.8</ele><time>2011-04-29T22:11:35.0000000+00:00</time></trkpt><trkpt lat="21.028225" lon="105.778053"><ele>-11.7</ele><time>2011-04-29T22:11:40.0000000+00:00</time></trkpt><trkpt lat="21.028225" lon="105.778053"><ele>-11.7</ele><time>2011-04-29T22:11:45.0000000+00:00</time></trkpt><trkpt lat="21.028225" lon="105.778053"><ele>-11.6</ele><time>2011-04-29T22:11:50.0000000+00:00</time></trkpt><trkpt lat="21.028225" lon="105.778053"><ele>-11.6</ele><time>2011-04-29T22:11:55.0000000+00:00</time></trkpt><trkpt lat="21.028225" lon="105.778053"><ele>-11.6</ele><time>2011-04-29T22:12:00.0000000+00:00</time></trkpt><trkpt lat="21.028225" lon="105.778053"><ele>-11.6</ele><time>2011-04-29T22:12:05.0000000+00:00</time></trkpt><trkpt lat="21.028225" lon="105.778053"><ele>-11.6</ele><time>2011-04-29T22:12:10.0000000+00:00</time></trkpt><trkpt lat="21.028225" lon="105.778053"><ele>-11.6</ele><time>2011-04-29T22:12:15.0000000+00:00</time></trkpt><trkpt lat="21.028225" lon="105.778053"><ele>-11.6</ele><time>2011-04-29T22:12:20.0000000+00:00</time></trkpt><trkpt lat="21.028225" lon="105.778053"><ele>-11.6</ele><time>2011-04-29T22:12:25.0000000+00:00</time></trkpt><trkpt lat="21.028223" lon="105.778053"><ele>-11.5</ele><time>2011-04-29T22:12:30.0000000+00:00</time></trkpt><trkpt lat="21.028223" lon="105.778053"><ele>-11.5</ele><time>2011-04-29T22:12:35.0000000+00:00</time></trkpt><trkpt lat="21.028223" lon="105.778053"><ele>-11.5</ele><time>2011-04-29T22:12:40.0000000+00:00</time></trkpt><trkpt lat="21.028223" lon="105.778053"><ele>-11.5</ele><time>2011-04-29T22:12:45.0000000+00:00</time></trkpt><trkpt lat="21.028221" lon="105.778061"><ele>-11.3</ele><time>2011-04-29T22:12:50.0000000+00:00</time></trkpt><trkpt lat="21.028219" lon="105.778069"><ele>-11.1</ele><time>2011-04-29T22:12:55.0000000+00:00</time></trkpt><trkpt lat="21.028217" lon="105.778069"><ele>-10.9</ele><time>2011-04-29T22:13:00.0000000+00:00</time></trkpt><trkpt lat="21.028219" lon="105.778076"><ele>-10.8</ele><time>2011-04-29T22:13:05.0000000+00:00</time></trkpt><trkpt lat="21.028219" lon="105.778076"><ele>-10.6</ele><time>2011-04-29T22:13:10.0000000+00:00</time></trkpt><trkpt lat="21.028217" lon="105.778084"><ele>-10.4</ele><time>2011-04-29T22:13:15.0000000+00:00</time></trkpt><trkpt lat="21.028214" lon="105.778091"><ele>-10.3</ele><time>2011-04-29T22:13:20.0000000+00:00</time></trkpt><trkpt lat="21.028208" lon="105.778099"><ele>-10.1</ele><time>2011-04-29T22:13:25.0000000+00:00</time></trkpt><trkpt lat="21.028202" lon="105.778107"><ele>-10.0</ele><time>2011-04-29T22:13:30.0000000+00:00</time></trkpt><trkpt lat="21.028198" lon="105.778114"><ele>-9.8</ele><time>2011-04-29T22:13:35.0000000+00:00</time></trkpt><trkpt lat="21.028198" lon="105.778107"><ele>-9.6</ele><time>2011-04-29T22:13:40.0000000+00:00</time></trkpt><trkpt lat="21.0282" lon="105.778107"><ele>-9.3</ele><time>2011-04-29T22:13:45.0000000+00:00</time></trkpt><trkpt lat="21.028202" lon="105.778099"><ele>-9.0</ele><time>2011-04-29T22:13:50.0000000+00:00</time></trkpt><trkpt lat="21.028202" lon="105.778091"><ele>-8.5</ele><time>2011-04-29T22:13:55.0000000+00:00</time></trkpt><trkpt lat="21.028202" lon="105.778084"><ele>-7.9</ele><time>2011-04-29T22:14:00.0000000+00:00</time></trkpt><trkpt lat="21.028202" lon="105.778076"><ele>-7.3</ele><time>2011-04-29T22:14:05.0000000+00:00</time></trkpt><trkpt lat="21.028202" lon="105.778069"><ele>-6.6</ele><time>2011-04-29T22:14:10.0000000+00:00</time></trkpt><trkpt lat="21.028198" lon="105.778061"><ele>-5.9</ele><time>2011-04-29T22:14:15.0000000+00:00</time></trkpt><trkpt lat="21.028198" lon="105.778053"><ele>-5.2</ele><time>2011-04-29T22:14:20.0000000+00:00</time></trkpt><trkpt lat="21.028198" lon="105.778046"><ele>-4.4</ele><time>2011-04-29T22:14:25.0000000+00:00</time></trkpt><trkpt lat="21.028198" lon="105.778038"><ele>-3.7</ele><time>2011-04-29T22:14:30.0000000+00:00</time></trkpt><trkpt lat="21.028196" lon="105.778038"><ele>-2.9</ele><time>2011-04-29T22:14:35.0000000+00:00</time></trkpt><trkpt lat="21.028194" lon="105.778046"><ele>-1.9</ele><time>2011-04-29T22:14:40.0000000+00:00</time></trkpt><trkpt lat="21.028191" lon="105.778053"><ele>-1.0</ele><time>2011-04-29T22:14:45.0000000+00:00</time></trkpt><trkpt lat="21.028187" lon="105.778061"><ele>-0.0</ele><time>2011-04-29T22:14:50.0000000+00:00</time></trkpt><trkpt lat="21.028185" lon="105.778069"><ele>0.9</ele><time>2011-04-29T22:14:55.0000000+00:00</time></trkpt><trkpt lat="21.028183" lon="105.778076"><ele>1.9</ele><time>2011-04-29T22:15:00.0000000+00:00</time></trkpt><trkpt lat="21.028183" lon="105.778076"><ele>2.8</ele><time>2011-04-29T22:15:05.0000000+00:00</time></trkpt><trkpt lat="21.028183" lon="105.778076"><ele>3.7</ele><time>2011-04-29T22:15:10.0000000+00:00</time></trkpt><trkpt lat="21.028187" lon="105.778069"><ele>4.5</ele><time>2011-04-29T22:15:15.0000000+00:00</time></trkpt><trkpt lat="21.028189" lon="105.778053"><ele>5.2</ele><time>2011-04-29T22:15:20.0000000+00:00</time></trkpt><trkpt lat="21.0282" lon="105.778023"><ele>6.2</ele><time>2011-04-29T22:15:25.0000000+00:00</time></trkpt><trkpt lat="21.028193" lon="105.778023"><ele>7.7</ele><time>2011-04-29T22:15:30.0000000+00:00</time></trkpt><trkpt lat="21.028193" lon="105.778015"><ele>8.6</ele><time>2011-04-29T22:15:35.0000000+00:00</time></trkpt><trkpt lat="21.028191" lon="105.778"><ele>9.4</ele><time>2011-04-29T22:15:40.0000000+00:00</time></trkpt><trkpt lat="21.028191" lon="105.777992"><ele>10.4</ele><time>2011-04-29T22:15:45.0000000+00:00</time></trkpt><trkpt lat="21.028194" lon="105.777992"><ele>11.3</ele><time>2011-04-29T22:15:50.0000000+00:00</time></trkpt><trkpt lat="21.028206" lon="105.777985"><ele>12.1</ele><time>2011-04-29T22:15:55.0000000+00:00</time></trkpt><trkpt lat="21.02821" lon="105.777985"><ele>12.7</ele><time>2011-04-29T22:16:00.0000000+00:00</time></trkpt><trkpt lat="21.028214" lon="105.777985"><ele>13.6</ele><time>2011-04-29T22:16:05.0000000+00:00</time></trkpt><trkpt lat="21.028215" lon="105.777977"><ele>14.5</ele><time>2011-04-29T22:16:10.0000000+00:00</time></trkpt><trkpt lat="21.02821" lon="105.777977"><ele>15.3</ele><time>2011-04-29T22:16:15.0000000+00:00</time></trkpt><trkpt lat="21.028202" lon="105.777969"><ele>16.1</ele><time>2011-04-29T22:16:20.0000000+00:00</time></trkpt><trkpt lat="21.028191" lon="105.777969"><ele>16.8</ele><time>2011-04-29T22:16:25.0000000+00:00</time></trkpt><trkpt lat="21.028179" lon="105.777969"><ele>17.6</ele><time>2011-04-29T22:16:30.0000000+00:00</time></trkpt><trkpt lat="21.028173" lon="105.777977"><ele>18.3</ele><time>2011-04-29T22:16:35.0000000+00:00</time></trkpt><trkpt lat="21.028168" lon="105.777977"><ele>18.9</ele><time>2011-04-29T22:16:40.0000000+00:00</time></trkpt><trkpt lat="21.028162" lon="105.777977"><ele>19.6</ele><time>2011-04-29T22:16:45.0000000+00:00</time></trkpt><trkpt lat="21.028156" lon="105.777985"><ele>20.2</ele><time>2011-04-29T22:16:50.0000000+00:00</time></trkpt><trkpt lat="21.028154" lon="105.778"><ele>20.9</ele><time>2011-04-29T22:16:55.0000000+00:00</time></trkpt><trkpt lat="21.028143" lon="105.778053"><ele>23.0</ele><time>2011-04-29T22:17:00.0000000+00:00</time></trkpt><trkpt lat="21.028168" lon="105.778061"><ele>23.4</ele><time>2011-04-29T22:17:05.0000000+00:00</time></trkpt><trkpt lat="21.028177" lon="105.778053"><ele>24.3</ele><time>2011-04-29T22:17:10.0000000+00:00</time></trkpt><trkpt lat="21.028181" lon="105.778038"><ele>25.1</ele><time>2011-04-29T22:17:15.0000000+00:00</time></trkpt><trkpt lat="21.028181" lon="105.77803"><ele>25.4</ele><time>2011-04-29T22:17:20.0000000+00:00</time></trkpt><trkpt lat="21.028168" lon="105.77803"><ele>25.5</ele><time>2011-04-29T22:17:25.0000000+00:00</time></trkpt><trkpt lat="21.028168" lon="105.778023"><ele>26.1</ele><time>2011-04-29T22:17:30.0000000+00:00</time></trkpt><trkpt lat="21.028172" lon="105.778008"><ele>26.7</ele><time>2011-04-29T22:17:35.0000000+00:00</time></trkpt><trkpt lat="21.028172" lon="105.778008"><ele>27.3</ele><time>2011-04-29T22:17:40.0000000+00:00</time></trkpt><trkpt lat="21.02817" lon="105.778008"><ele>27.9</ele><time>2011-04-29T22:17:45.0000000+00:00</time></trkpt><trkpt lat="21.028168" lon="105.778008"><ele>28.4</ele><time>2011-04-29T22:17:50.0000000+00:00</time></trkpt><trkpt lat="21.02816" lon="105.778023"><ele>28.9</ele><time>2011-04-29T22:17:55.0000000+00:00</time></trkpt><trkpt lat="21.028156" lon="105.778023"><ele>29.3</ele><time>2011-04-29T22:18:00.0000000+00:00</time></trkpt><trkpt lat="21.028156" lon="105.778023"><ele>29.7</ele><time>2011-04-29T22:18:05.0000000+00:00</time></trkpt><trkpt lat="21.028154" lon="105.77803"><ele>30.0</ele><time>2011-04-29T22:18:10.0000000+00:00</time></trkpt><trkpt lat="21.028152" lon="105.77803"><ele>30.3</ele><time>2011-04-29T22:18:15.0000000+00:00</time></trkpt><trkpt lat="21.028154" lon="105.77803"><ele>30.4</ele><time>2011-04-29T22:18:20.0000000+00:00</time></trkpt><trkpt lat="21.028156" lon="105.778023"><ele>30.5</ele><time>2011-04-29T22:18:25.0000000+00:00</time></trkpt><trkpt lat="21.028158" lon="105.778015"><ele>30.5</ele><time>2011-04-29T22:18:30.0000000+00:00</time></trkpt><trkpt lat="21.028156" lon="105.778008"><ele>30.4</ele><time>2011-04-29T22:18:35.0000000+00:00</time></trkpt><trkpt lat="21.028158" lon="105.778"><ele>30.3</ele><time>2011-04-29T22:18:40.0000000+00:00</time></trkpt><trkpt lat="21.028158" lon="105.777992"><ele>30.2</ele><time>2011-04-29T22:18:45.0000000+00:00</time></trkpt><trkpt lat="21.02816" lon="105.777985"><ele>30.0</ele><time>2011-04-29T22:18:50.0000000+00:00</time></trkpt><trkpt lat="21.028168" lon="105.777977"><ele>29.9</ele><time>2011-04-29T22:18:55.0000000+00:00</time></trkpt><trkpt lat="21.028173" lon="105.777969"><ele>29.7</ele><time>2011-04-29T22:19:00.0000000+00:00</time></trkpt><trkpt lat="21.028177" lon="105.777962"><ele>29.5</ele><time>2011-04-29T22:19:05.0000000+00:00</time></trkpt><trkpt lat="21.028185" lon="105.777962"><ele>29.3</ele><time>2011-04-29T22:19:10.0000000+00:00</time></trkpt><trkpt lat="21.028193" lon="105.777962"><ele>29.1</ele><time>2011-04-29T22:19:15.0000000+00:00</time></trkpt><trkpt lat="21.028196" lon="105.777969"><ele>28.7</ele><time>2011-04-29T22:19:20.0000000+00:00</time></trkpt><trkpt lat="21.0282" lon="105.777985"><ele>28.4</ele><time>2011-04-29T22:19:25.0000000+00:00</time></trkpt><trkpt lat="21.028202" lon="105.777992"><ele>28.0</ele><time>2011-04-29T22:19:30.0000000+00:00</time></trkpt><trkpt lat="21.028212" lon="105.777992"><ele>27.5</ele><time>2011-04-29T22:19:35.0000000+00:00</time></trkpt><trkpt lat="21.028223" lon="105.777992"><ele>27.1</ele><time>2011-04-29T22:19:40.0000000+00:00</time></trkpt><trkpt lat="21.028233" lon="105.778"><ele>26.5</ele><time>2011-04-29T22:19:45.0000000+00:00</time></trkpt><trkpt lat="21.028236" lon="105.777992"><ele>25.9</ele><time>2011-04-29T22:19:50.0000000+00:00</time></trkpt><trkpt lat="21.028236" lon="105.777992"><ele>25.3</ele><time>2011-04-29T22:19:55.0000000+00:00</time></trkpt><trkpt lat="21.028233" lon="105.777992"><ele>24.7</ele><time>2011-04-29T22:20:00.0000000+00:00</time></trkpt><trkpt lat="21.028227" lon="105.777992"><ele>24.0</ele><time>2011-04-29T22:20:05.0000000+00:00</time></trkpt><trkpt lat="21.028221" lon="105.777992"><ele>23.3</ele><time>2011-04-29T22:20:10.0000000+00:00</time></trkpt><trkpt lat="21.028217" lon="105.777985"><ele>22.6</ele><time>2011-04-29T22:20:15.0000000+00:00</time></trkpt><trkpt lat="21.028214" lon="105.777992"><ele>21.8</ele><time>2011-04-29T22:20:20.0000000+00:00</time></trkpt><trkpt lat="21.028212" lon="105.777992"><ele>20.9</ele><time>2011-04-29T22:20:25.0000000+00:00</time></trkpt><trkpt lat="21.02821" lon="105.778"><ele>20.0</ele><time>2011-04-29T22:20:30.0000000+00:00</time></trkpt><trkpt lat="21.028206" lon="105.778"><ele>19.1</ele><time>2011-04-29T22:20:35.0000000+00:00</time></trkpt><trkpt lat="21.0282" lon="105.778"><ele>18.2</ele><time>2011-04-29T22:20:40.0000000+00:00</time></trkpt><trkpt lat="21.028194" lon="105.778"><ele>17.2</ele><time>2011-04-29T22:20:45.0000000+00:00</time></trkpt><trkpt lat="21.028191" lon="105.777992"><ele>16.2</ele><time>2011-04-29T22:20:50.0000000+00:00</time></trkpt><trkpt lat="21.028187" lon="105.777985"><ele>15.2</ele><time>2011-04-29T22:20:55.0000000+00:00</time></trkpt><trkpt lat="21.028183" lon="105.777992"><ele>14.1</ele><time>2011-04-29T22:21:00.0000000+00:00</time></trkpt><trkpt lat="21.028187" lon="105.778"><ele>13.1</ele><time>2011-04-29T22:21:05.0000000+00:00</time></trkpt><trkpt lat="21.028191" lon="105.778008"><ele>12.1</ele><time>2011-04-29T22:21:10.0000000+00:00</time></trkpt><trkpt lat="21.028194" lon="105.778015"><ele>11.1</ele><time>2011-04-29T22:21:15.0000000+00:00</time></trkpt><trkpt lat="21.0282" lon="105.778023"><ele>10.3</ele><time>2011-04-29T22:21:20.0000000+00:00</time></trkpt><trkpt lat="21.028206" lon="105.77803"><ele>9.5</ele><time>2011-04-29T22:21:25.0000000+00:00</time></trkpt><trkpt lat="21.028212" lon="105.77803"><ele>8.8</ele><time>2011-04-29T22:21:30.0000000+00:00</time></trkpt><trkpt lat="21.02821" lon="105.77803"><ele>8.1</ele><time>2011-04-29T22:21:35.0000000+00:00</time></trkpt><trkpt lat="21.028206" lon="105.77803"><ele>7.6</ele><time>2011-04-29T22:21:40.0000000+00:00</time></trkpt><trkpt lat="21.02821" lon="105.778023"><ele>7.1</ele><time>2011-04-29T22:21:45.0000000+00:00</time></trkpt><trkpt lat="21.028212" lon="105.778023"><ele>6.7</ele><time>2011-04-29T22:21:50.0000000+00:00</time></trkpt><trkpt lat="21.028212" lon="105.778015"><ele>6.3</ele><time>2011-04-29T22:21:55.0000000+00:00</time></trkpt><trkpt lat="21.028212" lon="105.778008"><ele>6.1</ele><time>2011-04-29T22:22:00.0000000+00:00</time></trkpt><trkpt lat="21.028214" lon="105.778008"><ele>5.8</ele><time>2011-04-29T22:22:05.0000000+00:00</time></trkpt><trkpt lat="21.028215" lon="105.778"><ele>5.6</ele><time>2011-04-29T22:22:10.0000000+00:00</time></trkpt><trkpt lat="21.028217" lon="105.778"><ele>5.3</ele><time>2011-04-29T22:22:15.0000000+00:00</time></trkpt><trkpt lat="21.028217" lon="105.778"><ele>4.9</ele><time>2011-04-29T22:22:20.0000000+00:00</time></trkpt><trkpt lat="21.028217" lon="105.778"><ele>4.5</ele><time>2011-04-29T22:22:25.0000000+00:00</time></trkpt><trkpt lat="21.028215" lon="105.778008"><ele>4.0</ele><time>2011-04-29T22:22:30.0000000+00:00</time></trkpt><trkpt lat="21.028214" lon="105.778015"><ele>3.3</ele><time>2011-04-29T22:22:35.0000000+00:00</time></trkpt><trkpt lat="21.028212" lon="105.778023"><ele>2.5</ele><time>2011-04-29T22:22:40.0000000+00:00</time></trkpt><trkpt lat="21.028212" lon="105.778023"><ele>1.7</ele><time>2011-04-29T22:22:45.0000000+00:00</time></trkpt><trkpt lat="21.028212" lon="105.778038"><ele>0.8</ele><time>2011-04-29T22:22:50.0000000+00:00</time></trkpt><trkpt lat="21.028212" lon="105.778046"><ele>0.0</ele><time>2011-04-29T22:22:55.0000000+00:00</time></trkpt><trkpt lat="21.02821" lon="105.778053"><ele>-0.8</ele><time>2011-04-29T22:23:00.0000000+00:00</time></trkpt><trkpt lat="21.028208" lon="105.778069"><ele>-1.6</ele><time>2011-04-29T22:23:05.0000000+00:00</time></trkpt><trkpt lat="21.02821" lon="105.778076"><ele>-2.4</ele><time>2011-04-29T22:23:10.0000000+00:00</time></trkpt><trkpt lat="21.02821" lon="105.778084"><ele>-3.1</ele><time>2011-04-29T22:23:15.0000000+00:00</time></trkpt><trkpt lat="21.02821" lon="105.778084"><ele>-3.8</ele><time>2011-04-29T22:23:20.0000000+00:00</time></trkpt><trkpt lat="21.02821" lon="105.778091"><ele>-4.5</ele><time>2011-04-29T22:23:25.0000000+00:00</time></trkpt><trkpt lat="21.02821" lon="105.778091"><ele>-5.1</ele><time>2011-04-29T22:23:30.0000000+00:00</time></trkpt><trkpt lat="21.028208" lon="105.778091"><ele>-5.6</ele><time>2011-04-29T22:23:35.0000000+00:00</time></trkpt><trkpt lat="21.028206" lon="105.778091"><ele>-6.1</ele><time>2011-04-29T22:23:40.0000000+00:00</time></trkpt><trkpt lat="21.028202" lon="105.778091"><ele>-6.7</ele><time>2011-04-29T22:23:45.0000000+00:00</time></trkpt><trkpt lat="21.028196" lon="105.778084"><ele>-7.2</ele><time>2011-04-29T22:23:50.0000000+00:00</time></trkpt><trkpt lat="21.028194" lon="105.778084"><ele>-7.7</ele><time>2011-04-29T22:23:55.0000000+00:00</time></trkpt><trkpt lat="21.028189" lon="105.778076"><ele>-8.2</ele><time>2011-04-29T22:24:00.0000000+00:00</time></trkpt><trkpt lat="21.028187" lon="105.778076"><ele>-8.6</ele><time>2011-04-29T22:24:05.0000000+00:00</time></trkpt><trkpt lat="21.028185" lon="105.778084"><ele>-8.8</ele><time>2011-04-29T22:24:10.0000000+00:00</time></trkpt><trkpt lat="21.028183" lon="105.778084"><ele>-8.7</ele><time>2011-04-29T22:24:15.0000000+00:00</time></trkpt><trkpt lat="21.028183" lon="105.778084"><ele>-8.6</ele><time>2011-04-29T22:24:20.0000000+00:00</time></trkpt><trkpt lat="21.028183" lon="105.778084"><ele>-8.5</ele><time>2011-04-29T22:24:25.0000000+00:00</time></trkpt><trkpt lat="21.028187" lon="105.778084"><ele>-8.4</ele><time>2011-04-29T22:24:30.0000000+00:00</time></trkpt><trkpt lat="21.028187" lon="105.778076"><ele>-8.2</ele><time>2011-04-29T22:24:35.0000000+00:00</time></trkpt><trkpt lat="21.028187" lon="105.778076"><ele>-7.8</ele><time>2011-04-29T22:24:40.0000000+00:00</time></trkpt><trkpt lat="21.028185" lon="105.778076"><ele>-7.2</ele><time>2011-04-29T22:24:45.0000000+00:00</time></trkpt><trkpt lat="21.028181" lon="105.778069"><ele>-6.6</ele><time>2011-04-29T22:24:50.0000000+00:00</time></trkpt><trkpt lat="21.028179" lon="105.778069"><ele>-5.7</ele><time>2011-04-29T22:24:55.0000000+00:00</time></trkpt><trkpt lat="21.028177" lon="105.778061"><ele>-4.8</ele><time>2011-04-29T22:25:00.0000000+00:00</time></trkpt><trkpt lat="21.028177" lon="105.778061"><ele>-3.7</ele><time>2011-04-29T22:25:05.0000000+00:00</time></trkpt><trkpt lat="21.028177" lon="105.778061"><ele>-2.4</ele><time>2011-04-29T22:25:10.0000000+00:00</time></trkpt><trkpt lat="21.028177" lon="105.778053"><ele>-1.0</ele><time>2011-04-29T22:25:15.0000000+00:00</time></trkpt><trkpt lat="21.028179" lon="105.778046"><ele>0.4</ele><time>2011-04-29T22:25:20.0000000+00:00</time></trkpt><trkpt lat="21.028179" lon="105.778038"><ele>1.9</ele><time>2011-04-29T22:25:25.0000000+00:00</time></trkpt><trkpt lat="21.028183" lon="105.778023"><ele>3.5</ele><time>2011-04-29T22:25:30.0000000+00:00</time></trkpt><trkpt lat="21.028187" lon="105.778"><ele>7.1</ele><time>2011-04-29T22:25:35.0000000+00:00</time></trkpt><trkpt lat="21.028194" lon="105.777985"><ele>10.3</ele><time>2011-04-29T22:25:40.0000000+00:00</time></trkpt><trkpt lat="21.028212" lon="105.777962"><ele>12.2</ele><time>2011-04-29T22:25:45.0000000+00:00</time></trkpt><trkpt lat="21.028219" lon="105.777969"><ele>9.8</ele><time>2011-04-29T22:25:50.0000000+00:00</time></trkpt><trkpt lat="21.028225" lon="105.777977"><ele>10.1</ele><time>2011-04-29T22:25:55.0000000+00:00</time></trkpt><trkpt lat="21.028223" lon="105.777977"><ele>11.4</ele><time>2011-04-29T22:26:00.0000000+00:00</time></trkpt><trkpt lat="21.028217" lon="105.777977"><ele>12.6</ele><time>2011-04-29T22:26:05.0000000+00:00</time></trkpt><trkpt lat="21.02821" lon="105.777977"><ele>13.7</ele><time>2011-04-29T22:26:10.0000000+00:00</time></trkpt><trkpt lat="21.028206" lon="105.777969"><ele>15.3</ele><time>2011-04-29T22:26:15.0000000+00:00</time></trkpt><trkpt lat="21.0282" lon="105.777954"><ele>16.3</ele><time>2011-04-29T22:26:20.0000000+00:00</time></trkpt><trkpt lat="21.0282" lon="105.777946"><ele>17.0</ele><time>2011-04-29T22:26:25.0000000+00:00</time></trkpt><trkpt lat="21.028187" lon="105.777924"><ele>18.1</ele><time>2011-04-29T22:26:30.0000000+00:00</time></trkpt><trkpt lat="21.028179" lon="105.777924"><ele>19.9</ele><time>2011-04-29T22:26:35.0000000+00:00</time></trkpt><trkpt lat="21.02816" lon="105.777916"><ele>20.4</ele><time>2011-04-29T22:26:40.0000000+00:00</time></trkpt><trkpt lat="21.028137" lon="105.777924"><ele>19.8</ele><time>2011-04-29T22:26:45.0000000+00:00</time></trkpt><trkpt lat="21.02813" lon="105.777924"><ele>18.1</ele><time>2011-04-29T22:26:50.0000000+00:00</time></trkpt><trkpt lat="21.028122" lon="105.777924"><ele>18.8</ele><time>2011-04-29T22:26:55.0000000+00:00</time></trkpt><trkpt lat="21.028122" lon="105.777924"><ele>19.5</ele><time>2011-04-29T22:27:00.0000000+00:00</time></trkpt><trkpt lat="21.028122" lon="105.777916"><ele>20.0</ele><time>2011-04-29T22:27:05.0000000+00:00</time></trkpt><trkpt lat="21.02812" lon="105.777908"><ele>20.4</ele><time>2011-04-29T22:27:10.0000000+00:00</time></trkpt><trkpt lat="21.028109" lon="105.777901"><ele>20.7</ele><time>2011-04-29T22:27:15.0000000+00:00</time></trkpt><trkpt lat="21.028097" lon="105.777885"><ele>20.1</ele><time>2011-04-29T22:27:20.0000000+00:00</time></trkpt><trkpt lat="21.028065" lon="105.77787"><ele>19.7</ele><time>2011-04-29T22:27:25.0000000+00:00</time></trkpt><trkpt lat="21.028048" lon="105.777863"><ele>19.4</ele><time>2011-04-29T22:27:30.0000000+00:00</time></trkpt><trkpt lat="21.028027" lon="105.777855"><ele>18.8</ele><time>2011-04-29T22:27:35.0000000+00:00</time></trkpt><trkpt lat="21.028023" lon="105.777855"><ele>18.3</ele><time>2011-04-29T22:27:40.0000000+00:00</time></trkpt><trkpt lat="21.028011" lon="105.777855"><ele>18.4</ele><time>2011-04-29T22:27:45.0000000+00:00</time></trkpt><trkpt lat="21.02799" lon="105.77784"><ele>17.8</ele><time>2011-04-29T22:27:50.0000000+00:00</time></trkpt><trkpt lat="21.027971" lon="105.777847"><ele>15.1</ele><time>2011-04-29T22:27:55.0000000+00:00</time></trkpt><trkpt lat="21.027952" lon="105.777855"><ele>13.9</ele><time>2011-04-29T22:28:00.0000000+00:00</time></trkpt><trkpt lat="21.027931" lon="105.777855"><ele>13.6</ele><time>2011-04-29T22:28:05.0000000+00:00</time></trkpt><trkpt lat="21.027889" lon="105.77787"><ele>12.4</ele><time>2011-04-29T22:28:10.0000000+00:00</time></trkpt><trkpt lat="21.027868" lon="105.77787"><ele>11.1</ele><time>2011-04-29T22:28:15.0000000+00:00</time></trkpt><trkpt lat="21.027866" lon="105.777863"><ele>10.5</ele><time>2011-04-29T22:28:20.0000000+00:00</time></trkpt><trkpt lat="21.027845" lon="105.77787"><ele>10.0</ele><time>2011-04-29T22:28:25.0000000+00:00</time></trkpt><trkpt lat="21.027805" lon="105.777863"><ele>9.4</ele><time>2011-04-29T22:28:30.0000000+00:00</time></trkpt><trkpt lat="21.027769" lon="105.77787"><ele>9.2</ele><time>2011-04-29T22:28:35.0000000+00:00</time></trkpt><trkpt lat="21.027748" lon="105.777878"><ele>9.2</ele><time>2011-04-29T22:28:40.0000000+00:00</time></trkpt><trkpt lat="21.027702" lon="105.777885"><ele>9.1</ele><time>2011-04-29T22:28:45.0000000+00:00</time></trkpt><trkpt lat="21.027666" lon="105.777901"><ele>9.6</ele><time>2011-04-29T22:28:50.0000000+00:00</time></trkpt><trkpt lat="21.027611" lon="105.777885"><ele>9.4</ele><time>2011-04-29T22:28:55.0000000+00:00</time></trkpt><trkpt lat="21.027573" lon="105.777901"><ele>9.0</ele><time>2011-04-29T22:29:00.0000000+00:00</time></trkpt><trkpt lat="21.027559" lon="105.777916"><ele>8.8</ele><time>2011-04-29T22:29:05.0000000+00:00</time></trkpt><trkpt lat="21.02755" lon="105.777931"><ele>7.9</ele><time>2011-04-29T22:29:10.0000000+00:00</time></trkpt><trkpt lat="21.027527" lon="105.777985"><ele>6.1</ele><time>2011-04-29T22:29:15.0000000+00:00</time></trkpt><trkpt lat="21.027531" lon="105.778046"><ele>4.2</ele><time>2011-04-29T22:29:20.0000000+00:00</time></trkpt><trkpt lat="21.027534" lon="105.778084"><ele>4.0</ele><time>2011-04-29T22:29:25.0000000+00:00</time></trkpt><trkpt lat="21.027552" lon="105.778114"><ele>3.9</ele><time>2011-04-29T22:29:30.0000000+00:00</time></trkpt><trkpt lat="21.027544" lon="105.778198"><ele>2.7</ele><time>2011-04-29T22:29:35.0000000+00:00</time></trkpt><trkpt lat="21.027534" lon="105.77829"><ele>2.7</ele><time>2011-04-29T22:29:40.0000000+00:00</time></trkpt><trkpt lat="21.027546" lon="105.778397"><ele>0.2</ele><time>2011-04-29T22:29:45.0000000+00:00</time></trkpt><trkpt lat="21.027483" lon="105.778503"><ele>-0.2</ele><time>2011-04-29T22:29:50.0000000+00:00</time></trkpt><trkpt lat="21.027483" lon="105.778542"><ele>-1.1</ele><time>2011-04-29T22:29:55.0000000+00:00</time></trkpt><trkpt lat="21.027485" lon="105.778549"><ele>-2.0</ele><time>2011-04-29T22:30:00.0000000+00:00</time></trkpt><trkpt lat="21.027481" lon="105.778557"><ele>-3.4</ele><time>2011-04-29T22:30:05.0000000+00:00</time></trkpt><trkpt lat="21.027475" lon="105.778564"><ele>-3.7</ele><time>2011-04-29T22:30:10.0000000+00:00</time></trkpt><trkpt lat="21.02747" lon="105.778572"><ele>-4.0</ele><time>2011-04-29T22:30:15.0000000+00:00</time></trkpt><trkpt lat="21.02747" lon="105.778572"><ele>-4.3</ele><time>2011-04-29T22:30:20.0000000+00:00</time></trkpt><trkpt lat="21.027473" lon="105.778572"><ele>-4.5</ele><time>2011-04-29T22:30:25.0000000+00:00</time></trkpt><trkpt lat="21.02747" lon="105.778618"><ele>-5.3</ele><time>2011-04-29T22:30:30.0000000+00:00</time></trkpt><trkpt lat="21.027456" lon="105.778671"><ele>-6.1</ele><time>2011-04-29T22:30:35.0000000+00:00</time></trkpt><trkpt lat="21.027426" lon="105.77874"><ele>-5.5</ele><time>2011-04-29T22:30:40.0000000+00:00</time></trkpt><trkpt lat="21.027386" lon="105.778778"><ele>-5.3</ele><time>2011-04-29T22:30:45.0000000+00:00</time></trkpt><trkpt lat="21.027246" lon="105.778786"><ele>-5.2</ele><time>2011-04-29T22:30:50.0000000+00:00</time></trkpt><trkpt lat="21.02704" lon="105.778748"><ele>-4.9</ele><time>2011-04-29T22:30:55.0000000+00:00</time></trkpt><trkpt lat="21.026773" lon="105.778732"><ele>-3.9</ele><time>2011-04-29T22:31:00.0000000+00:00</time></trkpt><trkpt lat="21.026445" lon="105.778664"><ele>-0.2</ele><time>2011-04-29T22:31:05.0000000+00:00</time></trkpt><trkpt lat="21.026089" lon="105.77861"><ele>0.9</ele><time>2011-04-29T22:31:10.0000000+00:00</time></trkpt><trkpt lat="21.025734" lon="105.778572"><ele>3.7</ele><time>2011-04-29T22:31:15.0000000+00:00</time></trkpt><trkpt lat="21.025415" lon="105.778503"><ele>6.0</ele><time>2011-04-29T22:31:20.0000000+00:00</time></trkpt><trkpt lat="21.025068" lon="105.778465"><ele>5.1</ele><time>2011-04-29T22:31:25.0000000+00:00</time></trkpt><trkpt lat="21.024704" lon="105.778458"><ele>6.5</ele><time>2011-04-29T22:31:30.0000000+00:00</time></trkpt><trkpt lat="21.024366" lon="105.77845"><ele>7.8</ele><time>2011-04-29T22:31:35.0000000+00:00</time></trkpt><trkpt lat="21.024025" lon="105.778465"><ele>9.2</ele><time>2011-04-29T22:31:40.0000000+00:00</time></trkpt><trkpt lat="21.023689" lon="105.778496"><ele>10.8</ele><time>2011-04-29T22:31:45.0000000+00:00</time></trkpt><trkpt lat="21.023354" lon="105.778542"><ele>9.7</ele><time>2011-04-29T22:31:50.0000000+00:00</time></trkpt><trkpt lat="21.023037" lon="105.778603"><ele>11.3</ele><time>2011-04-29T22:31:55.0000000+00:00</time></trkpt><trkpt lat="21.022768" lon="105.778664"><ele>13.0</ele><time>2011-04-29T22:32:00.0000000+00:00</time></trkpt><trkpt lat="21.022533" lon="105.778755"><ele>10.2</ele><time>2011-04-29T22:32:05.0000000+00:00</time></trkpt><trkpt lat="21.022341" lon="105.778816"><ele>7.4</ele><time>2011-04-29T22:32:10.0000000+00:00</time></trkpt><trkpt lat="21.022308" lon="105.778816"><ele>5.0</ele><time>2011-04-29T22:32:15.0000000+00:00</time></trkpt><trkpt lat="21.022221" lon="105.778831"><ele>3.3</ele><time>2011-04-29T22:32:20.0000000+00:00</time></trkpt><trkpt lat="21.022062" lon="105.7789"><ele>0.9</ele><time>2011-04-29T22:32:25.0000000+00:00</time></trkpt><trkpt lat="21.021925" lon="105.778946"><ele>1.7</ele><time>2011-04-29T22:32:30.0000000+00:00</time></trkpt><trkpt lat="21.021891" lon="105.778969"><ele>-0.8</ele><time>2011-04-29T22:32:35.0000000+00:00</time></trkpt><trkpt lat="21.021847" lon="105.778969"><ele>-0.1</ele><time>2011-04-29T22:32:40.0000000+00:00</time></trkpt><trkpt lat="21.02174" lon="105.77903"><ele>1.4</ele><time>2011-04-29T22:32:45.0000000+00:00</time></trkpt><trkpt lat="21.021719" lon="105.779129"><ele>0.4</ele><time>2011-04-29T22:32:50.0000000+00:00</time></trkpt><trkpt lat="21.021746" lon="105.779236"><ele>0.2</ele><time>2011-04-29T22:32:55.0000000+00:00</time></trkpt><trkpt lat="21.021837" lon="105.779274"><ele>0.5</ele><time>2011-04-29T22:33:00.0000000+00:00</time></trkpt><trkpt lat="21.021971" lon="105.779282"><ele>1.9</ele><time>2011-04-29T22:33:05.0000000+00:00</time></trkpt><trkpt lat="21.022198" lon="105.779228"><ele>3.8</ele><time>2011-04-29T22:33:10.0000000+00:00</time></trkpt><trkpt lat="21.022408" lon="105.779167"><ele>5.8</ele><time>2011-04-29T22:33:15.0000000+00:00</time></trkpt><trkpt lat="21.022623" lon="105.779106"><ele>6.5</ele><time>2011-04-29T22:33:20.0000000+00:00</time></trkpt><trkpt lat="21.02289" lon="105.779015"><ele>7.2</ele><time>2011-04-29T22:33:25.0000000+00:00</time></trkpt><trkpt lat="21.023153" lon="105.778969"><ele>9.2</ele><time>2011-04-29T22:33:30.0000000+00:00</time></trkpt><trkpt lat="21.023376" lon="105.778938"><ele>10.8</ele><time>2011-04-29T22:33:35.0000000+00:00</time></trkpt><trkpt lat="21.023605" lon="105.778915"><ele>11.7</ele><time>2011-04-29T22:33:40.0000000+00:00</time></trkpt><trkpt lat="21.023834" lon="105.778885"><ele>13.4</ele><time>2011-04-29T22:33:45.0000000+00:00</time></trkpt><trkpt lat="21.024099" lon="105.778877"><ele>15.2</ele><time>2011-04-29T22:33:50.0000000+00:00</time></trkpt><trkpt lat="21.024374" lon="105.778854"><ele>16.7</ele><time>2011-04-29T22:33:55.0000000+00:00</time></trkpt><trkpt lat="21.024633" lon="105.778839"><ele>18.1</ele><time>2011-04-29T22:34:00.0000000+00:00</time></trkpt><trkpt lat="21.024908" lon="105.778847"><ele>20.0</ele><time>2011-04-29T22:34:05.0000000+00:00</time></trkpt><trkpt lat="21.02515" lon="105.77887"><ele>16.2</ele><time>2011-04-29T22:34:10.0000000+00:00</time></trkpt><trkpt lat="21.025415" lon="105.778893"><ele>14.0</ele><time>2011-04-29T22:34:15.0000000+00:00</time></trkpt><trkpt lat="21.025673" lon="105.778923"><ele>12.8</ele><time>2011-04-29T22:34:20.0000000+00:00</time></trkpt><trkpt lat="21.025936" lon="105.778938"><ele>9.2</ele><time>2011-04-29T22:34:25.0000000+00:00</time></trkpt><trkpt lat="21.026196" lon="105.778999"><ele>12.3</ele><time>2011-04-29T22:34:30.0000000+00:00</time></trkpt><trkpt lat="21.026442" lon="105.779045"><ele>11.7</ele><time>2011-04-29T22:34:35.0000000+00:00</time></trkpt><trkpt lat="21.026665" lon="105.77906"><ele>13.9</ele><time>2011-04-29T22:34:40.0000000+00:00</time></trkpt><trkpt lat="21.026842" lon="105.779106"><ele>11.5</ele><time>2011-04-29T22:34:45.0000000+00:00</time></trkpt><trkpt lat="21.026907" lon="105.77916"><ele>8.0</ele><time>2011-04-29T22:34:50.0000000+00:00</time></trkpt><trkpt lat="21.02697" lon="105.779175"><ele>6.8</ele><time>2011-04-29T22:34:55.0000000+00:00</time></trkpt><trkpt lat="21.027012" lon="105.779167"><ele>10.2</ele><time>2011-04-29T22:35:00.0000000+00:00</time></trkpt><trkpt lat="21.027061" lon="105.779167"><ele>12.5</ele><time>2011-04-29T22:35:05.0000000+00:00</time></trkpt><trkpt lat="21.027157" lon="105.77916"><ele>17.0</ele><time>2011-04-29T22:35:10.0000000+00:00</time></trkpt><trkpt lat="21.027224" lon="105.77919"><ele>19.3</ele><time>2011-04-29T22:35:15.0000000+00:00</time></trkpt><trkpt lat="21.027382" lon="105.779259"><ele>17.1</ele><time>2011-04-29T22:35:20.0000000+00:00</time></trkpt><trkpt lat="21.027575" lon="105.779266"><ele>18.7</ele><time>2011-04-29T22:35:25.0000000+00:00</time></trkpt><trkpt lat="21.027706" lon="105.779305"><ele>16.1</ele><time>2011-04-29T22:35:30.0000000+00:00</time></trkpt><trkpt lat="21.027931" lon="105.779327"><ele>18.1</ele><time>2011-04-29T22:35:35.0000000+00:00</time></trkpt><trkpt lat="21.028128" lon="105.779358"><ele>18.5</ele><time>2011-04-29T22:35:40.0000000+00:00</time></trkpt><trkpt lat="21.028301" lon="105.779366"><ele>22.6</ele><time>2011-04-29T22:35:45.0000000+00:00</time></trkpt><trkpt lat="21.028484" lon="105.779335"><ele>27.5</ele><time>2011-04-29T22:35:50.0000000+00:00</time></trkpt><trkpt lat="21.028738" lon="105.779343"><ele>34.7</ele><time>2011-04-29T22:35:55.0000000+00:00</time></trkpt><trkpt lat="21.02891" lon="105.779335"><ele>39.3</ele><time>2011-04-29T22:36:00.0000000+00:00</time></trkpt><trkpt lat="21.02911" lon="105.779343"><ele>46.7</ele><time>2011-04-29T22:36:05.0000000+00:00</time></trkpt><trkpt lat="21.029198" lon="105.779327"><ele>49.3</ele><time>2011-04-29T22:36:10.0000000+00:00</time></trkpt><trkpt lat="21.029209" lon="105.779335"><ele>52.0</ele><time>2011-04-29T22:36:15.0000000+00:00</time></trkpt><trkpt lat="21.029303" lon="105.77935"><ele>53.6</ele><time>2011-04-29T22:36:20.0000000+00:00</time></trkpt><trkpt lat="21.029469" lon="105.779427"><ele>51.5</ele><time>2011-04-29T22:36:25.0000000+00:00</time></trkpt><trkpt lat="21.029711" lon="105.779526"><ele>48.9</ele><time>2011-04-29T22:36:30.0000000+00:00</time></trkpt><trkpt lat="21.029972" lon="105.779579"><ele>43.5</ele><time>2011-04-29T22:36:35.0000000+00:00</time></trkpt><trkpt lat="21.030275" lon="105.779648"><ele>42.0</ele><time>2011-04-29T22:36:40.0000000+00:00</time></trkpt><trkpt lat="21.03054" lon="105.779663"><ele>36.9</ele><time>2011-04-29T22:36:45.0000000+00:00</time></trkpt><trkpt lat="21.030882" lon="105.779732"><ele>32.9</ele><time>2011-04-29T22:36:50.0000000+00:00</time></trkpt><trkpt lat="21.031252" lon="105.779854"><ele>22.3</ele><time>2011-04-29T22:36:55.0000000+00:00</time></trkpt><trkpt lat="21.031677" lon="105.77993"><ele>28.5</ele><time>2011-04-29T22:37:00.0000000+00:00</time></trkpt><trkpt lat="21.032061" lon="105.779961"><ele>25.5</ele><time>2011-04-29T22:37:05.0000000+00:00</time></trkpt><trkpt lat="21.032454" lon="105.780029"><ele>15.9</ele><time>2011-04-29T22:37:10.0000000+00:00</time></trkpt><trkpt lat="21.032846" lon="105.780067"><ele>12.1</ele><time>2011-04-29T22:37:15.0000000+00:00</time></trkpt><trkpt lat="21.033314" lon="105.780121"><ele>12.5</ele><time>2011-04-29T22:37:20.0000000+00:00</time></trkpt><trkpt lat="21.033873" lon="105.780197"><ele>18.2</ele><time>2011-04-29T22:37:25.0000000+00:00</time></trkpt><trkpt lat="21.034481" lon="105.780273"><ele>25.3</ele><time>2011-04-29T22:37:30.0000000+00:00</time></trkpt><trkpt lat="21.03511" lon="105.780388"><ele>24.0</ele><time>2011-04-29T22:37:35.0000000+00:00</time></trkpt><trkpt lat="21.035675" lon="105.780495"><ele>21.3</ele><time>2011-04-29T22:37:40.0000000+00:00</time></trkpt><trkpt lat="21.036179" lon="105.780556"><ele>20.2</ele><time>2011-04-29T22:37:45.0000000+00:00</time></trkpt><trkpt lat="21.036659" lon="105.780617"><ele>21.6</ele><time>2011-04-29T22:37:50.0000000+00:00</time></trkpt><trkpt lat="21.037132" lon="105.780678"><ele>23.2</ele><time>2011-04-29T22:37:55.0000000+00:00</time></trkpt><trkpt lat="21.037605" lon="105.780724"><ele>24.1</ele><time>2011-04-29T22:38:00.0000000+00:00</time></trkpt><trkpt lat="21.038063" lon="105.780769"><ele>24.2</ele><time>2011-04-29T22:38:05.0000000+00:00</time></trkpt><trkpt lat="21.038517" lon="105.7808"><ele>25.4</ele><time>2011-04-29T22:38:10.0000000+00:00</time></trkpt><trkpt lat="21.038948" lon="105.780853"><ele>29.5</ele><time>2011-04-29T22:38:15.0000000+00:00</time></trkpt><trkpt lat="21.03936" lon="105.780891"><ele>28.3</ele><time>2011-04-29T22:38:20.0000000+00:00</time></trkpt><trkpt lat="21.039652" lon="105.780907"><ele>27.4</ele><time>2011-04-29T22:38:25.0000000+00:00</time></trkpt><trkpt lat="21.039965" lon="105.78093"><ele>24.8</ele><time>2011-04-29T22:38:30.0000000+00:00</time></trkpt><trkpt lat="21.040295" lon="105.78093"><ele>20.3</ele><time>2011-04-29T22:38:35.0000000+00:00</time></trkpt><trkpt lat="21.0406" lon="105.780945"><ele>16.2</ele><time>2011-04-29T22:38:40.0000000+00:00</time></trkpt><trkpt lat="21.040915" lon="105.78096"><ele>18.7</ele><time>2011-04-29T22:38:45.0000000+00:00</time></trkpt><trkpt lat="21.041241" lon="105.781006"><ele>16.2</ele><time>2011-04-29T22:38:50.0000000+00:00</time></trkpt><trkpt lat="21.041563" lon="105.781006"><ele>18.1</ele><time>2011-04-29T22:38:55.0000000+00:00</time></trkpt><trkpt lat="21.041864" lon="105.780991"><ele>12.8</ele><time>2011-04-29T22:39:00.0000000+00:00</time></trkpt><trkpt lat="21.042175" lon="105.781067"><ele>11.3</ele><time>2011-04-29T22:39:05.0000000+00:00</time></trkpt><trkpt lat="21.042379" lon="105.781052"><ele>14.9</ele><time>2011-04-29T22:39:10.0000000+00:00</time></trkpt><trkpt lat="21.04253" lon="105.781029"><ele>13.3</ele><time>2011-04-29T22:39:15.0000000+00:00</time></trkpt><trkpt lat="21.042768" lon="105.780991"><ele>21.3</ele><time>2011-04-29T22:39:20.0000000+00:00</time></trkpt><trkpt lat="21.043072" lon="105.781036"><ele>26.1</ele><time>2011-04-29T22:39:25.0000000+00:00</time></trkpt><trkpt lat="21.043381" lon="105.781052"><ele>31.8</ele><time>2011-04-29T22:39:30.0000000+00:00</time></trkpt><trkpt lat="21.043736" lon="105.781082"><ele>32.0</ele><time>2011-04-29T22:39:35.0000000+00:00</time></trkpt><trkpt lat="21.044041" lon="105.78112"><ele>21.8</ele><time>2011-04-29T22:39:40.0000000+00:00</time></trkpt><trkpt lat="21.044359" lon="105.781128"><ele>17.8</ele><time>2011-04-29T22:39:45.0000000+00:00</time></trkpt><trkpt lat="21.044605" lon="105.781174"><ele>13.7</ele><time>2011-04-29T22:39:50.0000000+00:00</time></trkpt><trkpt lat="21.044846" lon="105.781197"><ele>12.7</ele><time>2011-04-29T22:39:55.0000000+00:00</time></trkpt><trkpt lat="21.045107" lon="105.781258"><ele>10.1</ele><time>2011-04-29T22:40:00.0000000+00:00</time></trkpt><trkpt lat="21.045368" lon="105.781265"><ele>14.7</ele><time>2011-04-29T22:40:05.0000000+00:00</time></trkpt><trkpt lat="21.045649" lon="105.781311"><ele>8.1</ele><time>2011-04-29T22:40:10.0000000+00:00</time></trkpt><trkpt lat="21.045914" lon="105.781342"><ele>8.1</ele><time>2011-04-29T22:40:15.0000000+00:00</time></trkpt><trkpt lat="21.046177" lon="105.781387"><ele>3.8</ele><time>2011-04-29T22:40:20.0000000+00:00</time></trkpt><trkpt lat="21.046394" lon="105.78138"><ele>5.7</ele><time>2011-04-29T22:40:25.0000000+00:00</time></trkpt><trkpt lat="21.046551" lon="105.781364"><ele>9.1</ele><time>2011-04-29T22:40:30.0000000+00:00</time></trkpt><trkpt lat="21.046654" lon="105.781349"><ele>11.5</ele><time>2011-04-29T22:40:35.0000000+00:00</time></trkpt><trkpt lat="21.046692" lon="105.781357"><ele>13.1</ele><time>2011-04-29T22:40:40.0000000+00:00</time></trkpt><trkpt lat="21.046787" lon="105.781387"><ele>16.2</ele><time>2011-04-29T22:40:45.0000000+00:00</time></trkpt><trkpt lat="21.046877" lon="105.781418"><ele>21.1</ele><time>2011-04-29T22:40:50.0000000+00:00</time></trkpt><trkpt lat="21.046919" lon="105.781425"><ele>24.3</ele><time>2011-04-29T22:40:55.0000000+00:00</time></trkpt><trkpt lat="21.046989" lon="105.781418"><ele>26.1</ele><time>2011-04-29T22:41:00.0000000+00:00</time></trkpt><trkpt lat="21.047203" lon="105.781387"><ele>28.0</ele><time>2011-04-29T22:41:05.0000000+00:00</time></trkpt><trkpt lat="21.047503" lon="105.781387"><ele>30.3</ele><time>2011-04-29T22:41:10.0000000+00:00</time></trkpt><trkpt lat="21.047897" lon="105.781433"><ele>26.5</ele><time>2011-04-29T22:41:15.0000000+00:00</time></trkpt><trkpt lat="21.048231" lon="105.781456"><ele>24.0</ele><time>2011-04-29T22:41:20.0000000+00:00</time></trkpt><trkpt lat="21.048496" lon="105.781479"><ele>18.8</ele><time>2011-04-29T22:41:25.0000000+00:00</time></trkpt><trkpt lat="21.048712" lon="105.781471"><ele>14.3</ele><time>2011-04-29T22:41:30.0000000+00:00</time></trkpt><trkpt lat="21.048899" lon="105.781494"><ele>15.3</ele><time>2011-04-29T22:41:35.0000000+00:00</time></trkpt><trkpt lat="21.049242" lon="105.781456"><ele>28.2</ele><time>2011-04-29T22:41:40.0000000+00:00</time></trkpt><trkpt lat="21.049585" lon="105.781464"><ele>40.3</ele><time>2011-04-29T22:41:45.0000000+00:00</time></trkpt><trkpt lat="21.050013" lon="105.781525"><ele>39.8</ele><time>2011-04-29T22:41:50.0000000+00:00</time></trkpt><trkpt lat="21.050493" lon="105.78157"><ele>38.2</ele><time>2011-04-29T22:41:55.0000000+00:00</time></trkpt><trkpt lat="21.050901" lon="105.781578"><ele>40.8</ele><time>2011-04-29T22:42:00.0000000+00:00</time></trkpt><trkpt lat="21.05126" lon="105.781586"><ele>42.8</ele><time>2011-04-29T22:42:05.0000000+00:00</time></trkpt><trkpt lat="21.051687" lon="105.781639"><ele>39.5</ele><time>2011-04-29T22:42:10.0000000+00:00</time></trkpt><trkpt lat="21.052176" lon="105.781677"><ele>40.9</ele><time>2011-04-29T22:42:15.0000000+00:00</time></trkpt><trkpt lat="21.052666" lon="105.781708"><ele>47.7</ele><time>2011-04-29T22:42:20.0000000+00:00</time></trkpt><trkpt lat="21.053123" lon="105.781731"><ele>55.3</ele><time>2011-04-29T22:42:25.0000000+00:00</time></trkpt><trkpt lat="21.053606" lon="105.781738"><ele>66.0</ele><time>2011-04-29T22:42:30.0000000+00:00</time></trkpt><trkpt lat="21.054136" lon="105.78183"><ele>51.7</ele><time>2011-04-29T22:42:35.0000000+00:00</time></trkpt><trkpt lat="21.054642" lon="105.781952"><ele>45.7</ele><time>2011-04-29T22:42:40.0000000+00:00</time></trkpt><trkpt lat="21.055149" lon="105.782082"><ele>35.2</ele><time>2011-04-29T22:42:45.0000000+00:00</time></trkpt><trkpt lat="21.055609" lon="105.782181"><ele>34.1</ele><time>2011-04-29T22:42:50.0000000+00:00</time></trkpt><trkpt lat="21.055923" lon="105.782242"><ele>37.2</ele><time>2011-04-29T22:42:55.0000000+00:00</time></trkpt><trkpt lat="21.056166" lon="105.782295"><ele>52.3</ele><time>2011-04-29T22:43:00.0000000+00:00</time></trkpt><trkpt lat="21.056471" lon="105.782326"><ele>56.3</ele><time>2011-04-29T22:43:05.0000000+00:00</time></trkpt><trkpt lat="21.05678" lon="105.782387"><ele>64.8</ele><time>2011-04-29T22:43:10.0000000+00:00</time></trkpt><trkpt lat="21.057058" lon="105.782471"><ele>73.5</ele><time>2011-04-29T22:43:15.0000000+00:00</time></trkpt><trkpt lat="21.057329" lon="105.782532"><ele>87.9</ele><time>2011-04-29T22:43:20.0000000+00:00</time></trkpt><trkpt lat="21.057632" lon="105.7826"><ele>92.5</ele><time>2011-04-29T22:43:25.0000000+00:00</time></trkpt><trkpt lat="21.058043" lon="105.782677"><ele>106.3</ele><time>2011-04-29T22:43:30.0000000+00:00</time></trkpt><trkpt lat="21.058268" lon="105.782715"><ele>120.1</ele><time>2011-04-29T22:43:35.0000000+00:00</time></trkpt><trkpt lat="21.058458" lon="105.782707"><ele>125.2</ele><time>2011-04-29T22:43:40.0000000+00:00</time></trkpt><trkpt lat="21.058617" lon="105.782738"><ele>124.7</ele><time>2011-04-29T22:43:45.0000000+00:00</time></trkpt><trkpt lat="21.058796" lon="105.782784"><ele>126.5</ele><time>2011-04-29T22:43:50.0000000+00:00</time></trkpt><trkpt lat="21.058939" lon="105.782822"><ele>130.2</ele><time>2011-04-29T22:43:55.0000000+00:00</time></trkpt><trkpt lat="21.059196" lon="105.782845"><ele>132.0</ele><time>2011-04-29T22:44:00.0000000+00:00</time></trkpt><trkpt lat="21.059574" lon="105.782913"><ele>136.3</ele><time>2011-04-29T22:44:05.0000000+00:00</time></trkpt><trkpt lat="21.060009" lon="105.783028"><ele>134.2</ele><time>2011-04-29T22:44:10.0000000+00:00</time></trkpt><trkpt lat="21.060507" lon="105.783173"><ele>134.9</ele><time>2011-04-29T22:44:15.0000000+00:00</time></trkpt><trkpt lat="21.061031" lon="105.783417"><ele>121.7</ele><time>2011-04-29T22:44:20.0000000+00:00</time></trkpt><trkpt lat="21.061573" lon="105.783539"><ele>120.6</ele><time>2011-04-29T22:44:25.0000000+00:00</time></trkpt><trkpt lat="21.062107" lon="105.783669"><ele>117.7</ele><time>2011-04-29T22:44:30.0000000+00:00</time></trkpt><trkpt lat="21.062632" lon="105.783798"><ele>111.8</ele><time>2011-04-29T22:44:35.0000000+00:00</time></trkpt><trkpt lat="21.063211" lon="105.783966"><ele>112.6</ele><time>2011-04-29T22:44:40.0000000+00:00</time></trkpt><trkpt lat="21.063795" lon="105.784119"><ele>109.3</ele><time>2011-04-29T22:44:45.0000000+00:00</time></trkpt><trkpt lat="21.064407" lon="105.784317"><ele>104.5</ele><time>2011-04-29T22:44:50.0000000+00:00</time></trkpt><trkpt lat="21.064983" lon="105.784485"><ele>96.1</ele><time>2011-04-29T22:44:55.0000000+00:00</time></trkpt><trkpt lat="21.065647" lon="105.784653"><ele>88.4</ele><time>2011-04-29T22:45:00.0000000+00:00</time></trkpt><trkpt lat="21.066267" lon="105.784813"><ele>82.9</ele><time>2011-04-29T22:45:05.0000000+00:00</time></trkpt><trkpt lat="21.066906" lon="105.784943"><ele>77.2</ele><time>2011-04-29T22:45:10.0000000+00:00</time></trkpt><trkpt lat="21.067492" lon="105.785049"><ele>73.7</ele><time>2011-04-29T22:45:15.0000000+00:00</time></trkpt><trkpt lat="21.068037" lon="105.785164"><ele>65.2</ele><time>2011-04-29T22:45:20.0000000+00:00</time></trkpt><trkpt lat="21.068478" lon="105.785294"><ele>60.5</ele><time>2011-04-29T22:45:25.0000000+00:00</time></trkpt><trkpt lat="21.068733" lon="105.785324"><ele>54.8</ele><time>2011-04-29T22:45:30.0000000+00:00</time></trkpt><trkpt lat="21.068804" lon="105.785347"><ele>54.3</ele><time>2011-04-29T22:45:35.0000000+00:00</time></trkpt><trkpt lat="21.069019" lon="105.78537"><ele>60.8</ele><time>2011-04-29T22:45:40.0000000+00:00</time></trkpt><trkpt lat="21.06938" lon="105.785446"><ele>47.8</ele><time>2011-04-29T22:45:45.0000000+00:00</time></trkpt><trkpt lat="21.069767" lon="105.785469"><ele>42.9</ele><time>2011-04-29T22:45:50.0000000+00:00</time></trkpt><trkpt lat="21.069981" lon="105.785492"><ele>42.7</ele><time>2011-04-29T22:45:55.0000000+00:00</time></trkpt><trkpt lat="21.070129" lon="105.785515"><ele>38.0</ele><time>2011-04-29T22:46:00.0000000+00:00</time></trkpt><trkpt lat="21.070446" lon="105.785553"><ele>37.2</ele><time>2011-04-29T22:46:05.0000000+00:00</time></trkpt><trkpt lat="21.070848" lon="105.785576"><ele>35.6</ele><time>2011-04-29T22:46:10.0000000+00:00</time></trkpt><trkpt lat="21.071386" lon="105.785629"><ele>34.9</ele><time>2011-04-29T22:46:15.0000000+00:00</time></trkpt><trkpt lat="21.071918" lon="105.785675"><ele>35.4</ele><time>2011-04-29T22:46:20.0000000+00:00</time></trkpt><trkpt lat="21.072449" lon="105.785683"><ele>34.7</ele><time>2011-04-29T22:46:25.0000000+00:00</time></trkpt><trkpt lat="21.072954" lon="105.785706"><ele>41.6</ele><time>2011-04-29T22:46:30.0000000+00:00</time></trkpt><trkpt lat="21.073212" lon="105.785721"><ele>46.5</ele><time>2011-04-29T22:46:35.0000000+00:00</time></trkpt><trkpt lat="21.073326" lon="105.785759"><ele>45.1</ele><time>2011-04-29T22:46:40.0000000+00:00</time></trkpt><trkpt lat="21.073399" lon="105.785751"><ele>45.0</ele><time>2011-04-29T22:46:45.0000000+00:00</time></trkpt><trkpt lat="21.073431" lon="105.785728"><ele>44.1</ele><time>2011-04-29T22:46:50.0000000+00:00</time></trkpt><trkpt lat="21.073517" lon="105.785736"><ele>43.4</ele><time>2011-04-29T22:46:55.0000000+00:00</time></trkpt><trkpt lat="21.073782" lon="105.785736"><ele>42.6</ele><time>2011-04-29T22:47:00.0000000+00:00</time></trkpt><trkpt lat="21.074131" lon="105.785805"><ele>47.9</ele><time>2011-04-29T22:47:05.0000000+00:00</time></trkpt><trkpt lat="21.074549" lon="105.785858"><ele>49.6</ele><time>2011-04-29T22:47:10.0000000+00:00</time></trkpt><trkpt lat="21.07469" lon="105.785873"><ele>49.4</ele><time>2011-04-29T22:47:15.0000000+00:00</time></trkpt><trkpt lat="21.074739" lon="105.785851"><ele>49.2</ele><time>2011-04-29T22:47:20.0000000+00:00</time></trkpt><trkpt lat="21.074747" lon="105.785851"><ele>50.0</ele><time>2011-04-29T22:47:25.0000000+00:00</time></trkpt><trkpt lat="21.074766" lon="105.785851"><ele>50.2</ele><time>2011-04-29T22:47:30.0000000+00:00</time></trkpt><trkpt lat="21.075058" lon="105.78582"><ele>51.2</ele><time>2011-04-29T22:47:35.0000000+00:00</time></trkpt><trkpt lat="21.075468" lon="105.785873"><ele>50.8</ele><time>2011-04-29T22:47:40.0000000+00:00</time></trkpt><trkpt lat="21.075954" lon="105.785988"><ele>52.7</ele><time>2011-04-29T22:47:45.0000000+00:00</time></trkpt><trkpt lat="21.076363" lon="105.786133"><ele>52.2</ele><time>2011-04-29T22:47:50.0000000+00:00</time></trkpt><trkpt lat="21.076609" lon="105.786324"><ele>49.9</ele><time>2011-04-29T22:47:55.0000000+00:00</time></trkpt><trkpt lat="21.076912" lon="105.786514"><ele>49.4</ele><time>2011-04-29T22:48:00.0000000+00:00</time></trkpt><trkpt lat="21.077326" lon="105.786751"><ele>49.3</ele><time>2011-04-29T22:48:05.0000000+00:00</time></trkpt><trkpt lat="21.077644" lon="105.786995"><ele>45.7</ele><time>2011-04-29T22:48:10.0000000+00:00</time></trkpt><trkpt lat="21.077696" lon="105.787071"><ele>42.5</ele><time>2011-04-29T22:48:15.0000000+00:00</time></trkpt><trkpt lat="21.077705" lon="105.787079"><ele>42.0</ele><time>2011-04-29T22:48:20.0000000+00:00</time></trkpt><trkpt lat="21.077724" lon="105.787079"><ele>42.1</ele><time>2011-04-29T22:48:25.0000000+00:00</time></trkpt><trkpt lat="21.077806" lon="105.787109"><ele>43.1</ele><time>2011-04-29T22:48:30.0000000+00:00</time></trkpt><trkpt lat="21.077932" lon="105.787163"><ele>38.9</ele><time>2011-04-29T22:48:35.0000000+00:00</time></trkpt><trkpt lat="21.07799" lon="105.787224"><ele>33.3</ele><time>2011-04-29T22:48:40.0000000+00:00</time></trkpt><trkpt lat="21.077965" lon="105.787277"><ele>31.3</ele><time>2011-04-29T22:48:45.0000000+00:00</time></trkpt><trkpt lat="21.077967" lon="105.787277"><ele>31.1</ele><time>2011-04-29T22:48:50.0000000+00:00</time></trkpt><trkpt lat="21.077963" lon="105.787277"><ele>31.0</ele><time>2011-04-29T22:48:55.0000000+00:00</time></trkpt><trkpt lat="21.077961" lon="105.787285"><ele>30.9</ele><time>2011-04-29T22:49:00.0000000+00:00</time></trkpt><trkpt lat="21.077961" lon="105.787292"><ele>30.9</ele><time>2011-04-29T22:49:05.0000000+00:00</time></trkpt><trkpt lat="21.077978" lon="105.7873"><ele>30.7</ele><time>2011-04-29T22:49:10.0000000+00:00</time></trkpt><trkpt lat="21.078104" lon="105.787376"><ele>30.2</ele><time>2011-04-29T22:49:15.0000000+00:00</time></trkpt><trkpt lat="21.07836" lon="105.787514"><ele>29.7</ele><time>2011-04-29T22:49:20.0000000+00:00</time></trkpt><trkpt lat="21.078724" lon="105.787758"><ele>26.5</ele><time>2011-04-29T22:49:25.0000000+00:00</time></trkpt><trkpt lat="21.079048" lon="105.787941"><ele>24.7</ele><time>2011-04-29T22:49:30.0000000+00:00</time></trkpt><trkpt lat="21.079092" lon="105.787971"><ele>22.9</ele><time>2011-04-29T22:49:35.0000000+00:00</time></trkpt><trkpt lat="21.079094" lon="105.787979"><ele>22.5</ele><time>2011-04-29T22:49:40.0000000+00:00</time></trkpt><trkpt lat="21.07914" lon="105.787994"><ele>22.6</ele><time>2011-04-29T22:49:45.0000000+00:00</time></trkpt><trkpt lat="21.079327" lon="105.788078"><ele>23.9</ele><time>2011-04-29T22:49:50.0000000+00:00</time></trkpt><trkpt lat="21.07971" lon="105.788216"><ele>22.8</ele><time>2011-04-29T22:49:55.0000000+00:00</time></trkpt><trkpt lat="21.080294" lon="105.788368"><ele>22.6</ele><time>2011-04-29T22:50:00.0000000+00:00</time></trkpt><trkpt lat="21.080854" lon="105.788467"><ele>16.8</ele><time>2011-04-29T22:50:05.0000000+00:00</time></trkpt><trkpt lat="21.081444" lon="105.788445"><ele>16.7</ele><time>2011-04-29T22:50:10.0000000+00:00</time></trkpt><trkpt lat="21.082016" lon="105.788376"><ele>15.3</ele><time>2011-04-29T22:50:15.0000000+00:00</time></trkpt><trkpt lat="21.08264" lon="105.788208"><ele>15.9</ele><time>2011-04-29T22:50:20.0000000+00:00</time></trkpt><trkpt lat="21.083275" lon="105.788002"><ele>13.9</ele><time>2011-04-29T22:50:25.0000000+00:00</time></trkpt><trkpt lat="21.083954" lon="105.787781"><ele>12.0</ele><time>2011-04-29T22:50:30.0000000+00:00</time></trkpt><trkpt lat="21.084597" lon="105.787575"><ele>12.0</ele><time>2011-04-29T22:50:35.0000000+00:00</time></trkpt><trkpt lat="21.085209" lon="105.787346"><ele>13.3</ele><time>2011-04-29T22:50:40.0000000+00:00</time></trkpt><trkpt lat="21.085867" lon="105.787125"><ele>14.4</ele><time>2011-04-29T22:50:45.0000000+00:00</time></trkpt><trkpt lat="21.086533" lon="105.786888"><ele>16.2</ele><time>2011-04-29T22:50:50.0000000+00:00</time></trkpt><trkpt lat="21.087214" lon="105.786667"><ele>17.7</ele><time>2011-04-29T22:50:55.0000000+00:00</time></trkpt><trkpt lat="21.08791" lon="105.786461"><ele>20.9</ele><time>2011-04-29T22:51:00.0000000+00:00</time></trkpt><trkpt lat="21.088573" lon="105.786224"><ele>23.6</ele><time>2011-04-29T22:51:05.0000000+00:00</time></trkpt><trkpt lat="21.089218" lon="105.786003"><ele>26.7</ele><time>2011-04-29T22:51:10.0000000+00:00</time></trkpt><trkpt lat="21.089874" lon="105.785889"><ele>29.5</ele><time>2011-04-29T22:51:15.0000000+00:00</time></trkpt><trkpt lat="21.090557" lon="105.785881"><ele>29.6</ele><time>2011-04-29T22:51:20.0000000+00:00</time></trkpt><trkpt lat="21.091249" lon="105.785934"><ele>28.9</ele><time>2011-04-29T22:51:25.0000000+00:00</time></trkpt><trkpt lat="21.092001" lon="105.785995"><ele>29.0</ele><time>2011-04-29T22:51:30.0000000+00:00</time></trkpt><trkpt lat="21.092768" lon="105.786057"><ele>27.5</ele><time>2011-04-29T22:51:35.0000000+00:00</time></trkpt><trkpt lat="21.093506" lon="105.786125"><ele>27.9</ele><time>2011-04-29T22:51:40.0000000+00:00</time></trkpt><trkpt lat="21.094254" lon="105.786179"><ele>24.9</ele><time>2011-04-29T22:51:45.0000000+00:00</time></trkpt><trkpt lat="21.095001" lon="105.78624"><ele>27.6</ele><time>2011-04-29T22:51:50.0000000+00:00</time></trkpt><trkpt lat="21.095778" lon="105.786308"><ele>28.1</ele><time>2011-04-29T22:51:55.0000000+00:00</time></trkpt><trkpt lat="21.096592" lon="105.786369"><ele>29.3</ele><time>2011-04-29T22:52:00.0000000+00:00</time></trkpt><trkpt lat="21.097454" lon="105.786438"><ele>30.0</ele><time>2011-04-29T22:52:05.0000000+00:00</time></trkpt><trkpt lat="21.098318" lon="105.786507"><ele>30.0</ele><time>2011-04-29T22:52:10.0000000+00:00</time></trkpt><trkpt lat="21.099138" lon="105.786568"><ele>26.4</ele><time>2011-04-29T22:52:15.0000000+00:00</time></trkpt><trkpt lat="21.099953" lon="105.786613"><ele>25.0</ele><time>2011-04-29T22:52:20.0000000+00:00</time></trkpt><trkpt lat="21.100754" lon="105.786659"><ele>24.2</ele><time>2011-04-29T22:52:25.0000000+00:00</time></trkpt><trkpt lat="21.101534" lon="105.786751"><ele>24.4</ele><time>2011-04-29T22:52:30.0000000+00:00</time></trkpt><trkpt lat="21.102314" lon="105.786797"><ele>24.9</ele><time>2011-04-29T22:52:35.0000000+00:00</time></trkpt><trkpt lat="21.102974" lon="105.78685"><ele>28.0</ele><time>2011-04-29T22:52:40.0000000+00:00</time></trkpt><trkpt lat="21.103592" lon="105.786896"><ele>29.8</ele><time>2011-04-29T22:52:45.0000000+00:00</time></trkpt><trkpt lat="21.104122" lon="105.786934"><ele>28.6</ele><time>2011-04-29T22:52:50.0000000+00:00</time></trkpt><trkpt lat="21.104702" lon="105.786972"><ele>26.4</ele><time>2011-04-29T22:52:55.0000000+00:00</time></trkpt><trkpt lat="21.105389" lon="105.787018"><ele>22.5</ele><time>2011-04-29T22:53:00.0000000+00:00</time></trkpt><trkpt lat="21.106131" lon="105.787064"><ele>21.3</ele><time>2011-04-29T22:53:05.0000000+00:00</time></trkpt><trkpt lat="21.106878" lon="105.787132"><ele>22.3</ele><time>2011-04-29T22:53:10.0000000+00:00</time></trkpt><trkpt lat="21.107536" lon="105.787163"><ele>22.4</ele><time>2011-04-29T22:53:15.0000000+00:00</time></trkpt><trkpt lat="21.108084" lon="105.787102"><ele>23.9</ele><time>2011-04-29T22:53:20.0000000+00:00</time></trkpt><trkpt lat="21.108669" lon="105.786949"><ele>26.4</ele><time>2011-04-29T22:53:25.0000000+00:00</time></trkpt><trkpt lat="21.109268" lon="105.786743"><ele>26.9</ele><time>2011-04-29T22:53:30.0000000+00:00</time></trkpt><trkpt lat="21.109831" lon="105.786583"><ele>26.7</ele><time>2011-04-29T22:53:35.0000000+00:00</time></trkpt><trkpt lat="21.110392" lon="105.786377"><ele>23.2</ele><time>2011-04-29T22:53:40.0000000+00:00</time></trkpt><trkpt lat="21.111036" lon="105.786148"><ele>23.2</ele><time>2011-04-29T22:53:45.0000000+00:00</time></trkpt><trkpt lat="21.111658" lon="105.785942"><ele>20.4</ele><time>2011-04-29T22:53:50.0000000+00:00</time></trkpt><trkpt lat="21.112267" lon="105.785736"><ele>17.0</ele><time>2011-04-29T22:53:55.0000000+00:00</time></trkpt><trkpt lat="21.11285" lon="105.78553"><ele>16.0</ele><time>2011-04-29T22:54:00.0000000+00:00</time></trkpt><trkpt lat="21.113434" lon="105.785355"><ele>15.0</ele><time>2011-04-29T22:54:05.0000000+00:00</time></trkpt><trkpt lat="21.114023" lon="105.785172"><ele>12.6</ele><time>2011-04-29T22:54:10.0000000+00:00</time></trkpt><trkpt lat="21.114542" lon="105.785011"><ele>8.4</ele><time>2011-04-29T22:54:15.0000000+00:00</time></trkpt><trkpt lat="21.114958" lon="105.784866"><ele>8.2</ele><time>2011-04-29T22:54:20.0000000+00:00</time></trkpt><trkpt lat="21.115349" lon="105.784744"><ele>6.2</ele><time>2011-04-29T22:54:25.0000000+00:00</time></trkpt><trkpt lat="21.115812" lon="105.784592"><ele>5.9</ele><time>2011-04-29T22:54:30.0000000+00:00</time></trkpt><trkpt lat="21.116318" lon="105.784409"><ele>8.4</ele><time>2011-04-29T22:54:35.0000000+00:00</time></trkpt><trkpt lat="21.116856" lon="105.784233"><ele>8.4</ele><time>2011-04-29T22:54:40.0000000+00:00</time></trkpt><trkpt lat="21.117489" lon="105.784019"><ele>8.1</ele><time>2011-04-29T22:54:45.0000000+00:00</time></trkpt><trkpt lat="21.118071" lon="105.783829"><ele>10.4</ele><time>2011-04-29T22:54:50.0000000+00:00</time></trkpt><trkpt lat="21.118559" lon="105.783653"><ele>10.0</ele><time>2011-04-29T22:54:55.0000000+00:00</time></trkpt><trkpt lat="21.119036" lon="105.783485"><ele>9.7</ele><time>2011-04-29T22:55:00.0000000+00:00</time></trkpt><trkpt lat="21.1196" lon="105.78331"><ele>14.0</ele><time>2011-04-29T22:55:05.0000000+00:00</time></trkpt><trkpt lat="21.120207" lon="105.783104"><ele>14.8</ele><time>2011-04-29T22:55:10.0000000+00:00</time></trkpt><trkpt lat="21.120823" lon="105.78289"><ele>13.5</ele><time>2011-04-29T22:55:15.0000000+00:00</time></trkpt><trkpt lat="21.12146" lon="105.782654"><ele>12.8</ele><time>2011-04-29T22:55:20.0000000+00:00</time></trkpt><trkpt lat="21.122141" lon="105.78244"><ele>11.4</ele><time>2011-04-29T22:55:25.0000000+00:00</time></trkpt><trkpt lat="21.122871" lon="105.782219"><ele>12.9</ele><time>2011-04-29T22:55:30.0000000+00:00</time></trkpt><trkpt lat="21.123596" lon="105.781975"><ele>14.4</ele><time>2011-04-29T22:55:35.0000000+00:00</time></trkpt><trkpt lat="21.124302" lon="105.781738"><ele>16.8</ele><time>2011-04-29T22:55:40.0000000+00:00</time></trkpt><trkpt lat="21.124964" lon="105.781517"><ele>18.8</ele><time>2011-04-29T22:55:45.0000000+00:00</time></trkpt><trkpt lat="21.125597" lon="105.781303"><ele>20.9</ele><time>2011-04-29T22:55:50.0000000+00:00</time></trkpt><trkpt lat="21.12624" lon="105.78109"><ele>21.3</ele><time>2011-04-29T22:55:55.0000000+00:00</time></trkpt><trkpt lat="21.126848" lon="105.780876"><ele>20.5</ele><time>2011-04-29T22:56:00.0000000+00:00</time></trkpt><trkpt lat="21.127451" lon="105.780678"><ele>21.9</ele><time>2011-04-29T22:56:05.0000000+00:00</time></trkpt><trkpt lat="21.12805" lon="105.780464"><ele>18.0</ele><time>2011-04-29T22:56:10.0000000+00:00</time></trkpt><trkpt lat="21.128525" lon="105.780319"><ele>12.1</ele><time>2011-04-29T22:56:15.0000000+00:00</time></trkpt><trkpt lat="21.129023" lon="105.780151"><ele>10.7</ele><time>2011-04-29T22:56:20.0000000+00:00</time></trkpt><trkpt lat="21.129534" lon="105.779984"><ele>11.5</ele><time>2011-04-29T22:56:25.0000000+00:00</time></trkpt><trkpt lat="21.130016" lon="105.779808"><ele>10.8</ele><time>2011-04-29T22:56:30.0000000+00:00</time></trkpt><trkpt lat="21.130589" lon="105.779594"><ele>9.3</ele><time>2011-04-29T22:56:35.0000000+00:00</time></trkpt><trkpt lat="21.131157" lon="105.779396"><ele>13.7</ele><time>2011-04-29T22:56:40.0000000+00:00</time></trkpt><trkpt lat="21.131666" lon="105.779251"><ele>12.6</ele><time>2011-04-29T22:56:45.0000000+00:00</time></trkpt><trkpt lat="21.131994" lon="105.779144"><ele>12.6</ele><time>2011-04-29T22:56:50.0000000+00:00</time></trkpt><trkpt lat="21.132399" lon="105.778999"><ele>11.6</ele><time>2011-04-29T22:56:55.0000000+00:00</time></trkpt><trkpt lat="21.132906" lon="105.778839"><ele>14.1</ele><time>2011-04-29T22:57:00.0000000+00:00</time></trkpt><trkpt lat="21.133532" lon="105.778679"><ele>16.0</ele><time>2011-04-29T22:57:05.0000000+00:00</time></trkpt><trkpt lat="21.134283" lon="105.778542"><ele>13.0</ele><time>2011-04-29T22:57:10.0000000+00:00</time></trkpt><trkpt lat="21.13508" lon="105.778427"><ele>13.0</ele><time>2011-04-29T22:57:15.0000000+00:00</time></trkpt><trkpt lat="21.13586" lon="105.778397"><ele>12.2</ele><time>2011-04-29T22:57:20.0000000+00:00</time></trkpt><trkpt lat="21.136524" lon="105.778412"><ele>11.5</ele><time>2011-04-29T22:57:25.0000000+00:00</time></trkpt><trkpt lat="21.137144" lon="105.778442"><ele>14.9</ele><time>2011-04-29T22:57:30.0000000+00:00</time></trkpt><trkpt lat="21.137714" lon="105.778465"><ele>16.0</ele><time>2011-04-29T22:57:35.0000000+00:00</time></trkpt><trkpt lat="21.138262" lon="105.778473"><ele>16.0</ele><time>2011-04-29T22:57:40.0000000+00:00</time></trkpt><trkpt lat="21.138895" lon="105.778488"><ele>14.7</ele><time>2011-04-29T22:57:45.0000000+00:00</time></trkpt><trkpt lat="21.139629" lon="105.778519"><ele>14.0</ele><time>2011-04-29T22:57:50.0000000+00:00</time></trkpt><trkpt lat="21.140472" lon="105.778542"><ele>13.3</ele><time>2011-04-29T22:57:55.0000000+00:00</time></trkpt><trkpt lat="21.141335" lon="105.778595"><ele>10.4</ele><time>2011-04-29T22:58:00.0000000+00:00</time></trkpt><trkpt lat="21.142233" lon="105.778633"><ele>8.9</ele><time>2011-04-29T22:58:05.0000000+00:00</time></trkpt><trkpt lat="21.143148" lon="105.778671"><ele>9.6</ele><time>2011-04-29T22:58:10.0000000+00:00</time></trkpt><trkpt lat="21.144053" lon="105.778732"><ele>10.2</ele><time>2011-04-29T22:58:15.0000000+00:00</time></trkpt><trkpt lat="21.144974" lon="105.77877"><ele>10.0</ele><time>2011-04-29T22:58:20.0000000+00:00</time></trkpt><trkpt lat="21.145872" lon="105.778816"><ele>12.1</ele><time>2011-04-29T22:58:25.0000000+00:00</time></trkpt><trkpt lat="21.146734" lon="105.778839"><ele>12.2</ele><time>2011-04-29T22:58:30.0000000+00:00</time></trkpt><trkpt lat="21.147579" lon="105.778893"><ele>10.0</ele><time>2011-04-29T22:58:35.0000000+00:00</time></trkpt><trkpt lat="21.148346" lon="105.778938"><ele>10.3</ele><time>2011-04-29T22:58:40.0000000+00:00</time></trkpt><trkpt lat="21.149107" lon="105.778961"><ele>12.9</ele><time>2011-04-29T22:58:45.0000000+00:00</time></trkpt><trkpt lat="21.149857" lon="105.778992"><ele>13.0</ele><time>2011-04-29T22:58:50.0000000+00:00</time></trkpt><trkpt lat="21.15053" lon="105.779022"><ele>13.0</ele><time>2011-04-29T22:58:55.0000000+00:00</time></trkpt><trkpt lat="21.151199" lon="105.779045"><ele>15.8</ele><time>2011-04-29T22:59:00.0000000+00:00</time></trkpt><trkpt lat="21.151941" lon="105.779068"><ele>16.9</ele><time>2011-04-29T22:59:05.0000000+00:00</time></trkpt><trkpt lat="21.152679" lon="105.779114"><ele>16.0</ele><time>2011-04-29T22:59:10.0000000+00:00</time></trkpt><trkpt lat="21.153351" lon="105.779144"><ele>16.2</ele><time>2011-04-29T22:59:15.0000000+00:00</time></trkpt><trkpt lat="21.153936" lon="105.779167"><ele>14.5</ele><time>2011-04-29T22:59:20.0000000+00:00</time></trkpt><trkpt lat="21.154526" lon="105.779213"><ele>14.3</ele><time>2011-04-29T22:59:25.0000000+00:00</time></trkpt><trkpt lat="21.155214" lon="105.779243"><ele>14.4</ele><time>2011-04-29T22:59:30.0000000+00:00</time></trkpt><trkpt lat="21.155996" lon="105.779266"><ele>12.3</ele><time>2011-04-29T22:59:35.0000000+00:00</time></trkpt><trkpt lat="21.156839" lon="105.779305"><ele>11.3</ele><time>2011-04-29T22:59:40.0000000+00:00</time></trkpt><trkpt lat="21.157658" lon="105.779343"><ele>12.8</ele><time>2011-04-29T22:59:45.0000000+00:00</time></trkpt><trkpt lat="21.158401" lon="105.779366"><ele>9.0</ele><time>2011-04-29T22:59:50.0000000+00:00</time></trkpt><trkpt lat="21.159006" lon="105.779388"><ele>10.2</ele><time>2011-04-29T22:59:55.0000000+00:00</time></trkpt><trkpt lat="21.159523" lon="105.779419"><ele>15.2</ele><time>2011-04-29T23:00:00.0000000+00:00</time></trkpt><trkpt lat="21.159864" lon="105.779449"><ele>14.4</ele><time>2011-04-29T23:00:05.0000000+00:00</time></trkpt><trkpt lat="21.159956" lon="105.779465"><ele>14.9</ele><time>2011-04-29T23:00:10.0000000+00:00</time></trkpt><trkpt lat="21.159985" lon="105.779457"><ele>12.8</ele><time>2011-04-29T23:00:15.0000000+00:00</time></trkpt><trkpt lat="21.159986" lon="105.779457"><ele>12.5</ele><time>2011-04-29T23:00:20.0000000+00:00</time></trkpt><trkpt lat="21.159986" lon="105.779457"><ele>12.3</ele><time>2011-04-29T23:00:25.0000000+00:00</time></trkpt><trkpt lat="21.159994" lon="105.779465"><ele>12.3</ele><time>2011-04-29T23:00:30.0000000+00:00</time></trkpt><trkpt lat="21.160227" lon="105.77948"><ele>15.0</ele><time>2011-04-29T23:00:35.0000000+00:00</time></trkpt><trkpt lat="21.16058" lon="105.779488"><ele>15.3</ele><time>2011-04-29T23:00:40.0000000+00:00</time></trkpt><trkpt lat="21.161083" lon="105.77951"><ele>16.3</ele><time>2011-04-29T23:00:45.0000000+00:00</time></trkpt><trkpt lat="21.16165" lon="105.779503"><ele>15.3</ele><time>2011-04-29T23:00:50.0000000+00:00</time></trkpt><trkpt lat="21.162302" lon="105.779518"><ele>15.9</ele><time>2011-04-29T23:00:55.0000000+00:00</time></trkpt><trkpt lat="21.163033" lon="105.779564"><ele>20.7</ele><time>2011-04-29T23:01:00.0000000+00:00</time></trkpt><trkpt lat="21.16378" lon="105.77961"><ele>20.2</ele><time>2011-04-29T23:01:05.0000000+00:00</time></trkpt><trkpt lat="21.164469" lon="105.779663"><ele>21.7</ele><time>2011-04-29T23:01:10.0000000+00:00</time></trkpt><trkpt lat="21.165108" lon="105.779686"><ele>23.7</ele><time>2011-04-29T23:01:15.0000000+00:00</time></trkpt><trkpt lat="21.165817" lon="105.779701"><ele>21.0</ele><time>2011-04-29T23:01:20.0000000+00:00</time></trkpt><trkpt lat="21.166563" lon="105.779724"><ele>21.9</ele><time>2011-04-29T23:01:25.0000000+00:00</time></trkpt><trkpt lat="21.167385" lon="105.77977"><ele>25.3</ele><time>2011-04-29T23:01:30.0000000+00:00</time></trkpt><trkpt lat="21.168238" lon="105.779793"><ele>25.6</ele><time>2011-04-29T23:01:35.0000000+00:00</time></trkpt><trkpt lat="21.169125" lon="105.779839"><ele>25.6</ele><time>2011-04-29T23:01:40.0000000+00:00</time></trkpt><trkpt lat="21.170057" lon="105.779877"><ele>28.7</ele><time>2011-04-29T23:01:45.0000000+00:00</time></trkpt><trkpt lat="21.171" lon="105.779915"><ele>26.2</ele><time>2011-04-29T23:01:50.0000000+00:00</time></trkpt><trkpt lat="21.171965" lon="105.779953"><ele>24.9</ele><time>2011-04-29T23:01:55.0000000+00:00</time></trkpt><trkpt lat="21.172964" lon="105.779991"><ele>25.2</ele><time>2011-04-29T23:02:00.0000000+00:00</time></trkpt><trkpt lat="21.173916" lon="105.780037"><ele>27.9</ele><time>2011-04-29T23:02:05.0000000+00:00</time></trkpt><trkpt lat="21.174864" lon="105.780075"><ele>25.7</ele><time>2011-04-29T23:02:10.0000000+00:00</time></trkpt><trkpt lat="21.175755" lon="105.780106"><ele>24.5</ele><time>2011-04-29T23:02:15.0000000+00:00</time></trkpt><trkpt lat="21.176575" lon="105.780151"><ele>24.3</ele><time>2011-04-29T23:02:20.0000000+00:00</time></trkpt><trkpt lat="21.177378" lon="105.780182"><ele>27.6</ele><time>2011-04-29T23:02:25.0000000+00:00</time></trkpt><trkpt lat="21.178211" lon="105.780197"><ele>29.9</ele><time>2011-04-29T23:02:30.0000000+00:00</time></trkpt><trkpt lat="21.179056" lon="105.780235"><ele>31.4</ele><time>2011-04-29T23:02:35.0000000+00:00</time></trkpt><trkpt lat="21.179924" lon="105.780266"><ele>33.0</ele><time>2011-04-29T23:02:40.0000000+00:00</time></trkpt><trkpt lat="21.180786" lon="105.780312"><ele>31.3</ele><time>2011-04-29T23:02:45.0000000+00:00</time></trkpt><trkpt lat="21.181648" lon="105.780342"><ele>27.9</ele><time>2011-04-29T23:02:50.0000000+00:00</time></trkpt><trkpt lat="21.182487" lon="105.780396"><ele>25.2</ele><time>2011-04-29T23:02:55.0000000+00:00</time></trkpt><trkpt lat="21.183296" lon="105.780418"><ele>23.4</ele><time>2011-04-29T23:03:00.0000000+00:00</time></trkpt><trkpt lat="21.184057" lon="105.780449"><ele>22.2</ele><time>2011-04-29T23:03:05.0000000+00:00</time></trkpt><trkpt lat="21.184795" lon="105.780464"><ele>18.9</ele><time>2011-04-29T23:03:10.0000000+00:00</time></trkpt><trkpt lat="21.185593" lon="105.780472"><ele>17.2</ele><time>2011-04-29T23:03:15.0000000+00:00</time></trkpt><trkpt lat="21.186384" lon="105.780518"><ele>11.6</ele><time>2011-04-29T23:03:20.0000000+00:00</time></trkpt><trkpt lat="21.187113" lon="105.780548"><ele>11.3</ele><time>2011-04-29T23:03:25.0000000+00:00</time></trkpt><trkpt lat="21.187847" lon="105.780563"><ele>14.4</ele><time>2011-04-29T23:03:30.0000000+00:00</time></trkpt><trkpt lat="21.188633" lon="105.780594"><ele>15.5</ele><time>2011-04-29T23:03:35.0000000+00:00</time></trkpt><trkpt lat="21.18944" lon="105.78064"><ele>16.7</ele><time>2011-04-29T23:03:40.0000000+00:00</time></trkpt><trkpt lat="21.190088" lon="105.780663"><ele>14.3</ele><time>2011-04-29T23:03:45.0000000+00:00</time></trkpt><trkpt lat="21.190313" lon="105.780685"><ele>15.3</ele><time>2011-04-29T23:03:50.0000000+00:00</time></trkpt><trkpt lat="21.190332" lon="105.780685"><ele>15.0</ele><time>2011-04-29T23:03:55.0000000+00:00</time></trkpt><trkpt lat="21.190331" lon="105.780685"><ele>14.9</ele><time>2011-04-29T23:04:00.0000000+00:00</time></trkpt><trkpt lat="21.190332" lon="105.780678"><ele>14.9</ele><time>2011-04-29T23:04:05.0000000+00:00</time></trkpt><trkpt lat="21.19034" lon="105.78067"><ele>15.0</ele><time>2011-04-29T23:04:10.0000000+00:00</time></trkpt><trkpt lat="21.190447" lon="105.780693"><ele>15.1</ele><time>2011-04-29T23:04:15.0000000+00:00</time></trkpt><trkpt lat="21.190731" lon="105.780708"><ele>15.0</ele><time>2011-04-29T23:04:20.0000000+00:00</time></trkpt><trkpt lat="21.191181" lon="105.780708"><ele>17.6</ele><time>2011-04-29T23:04:25.0000000+00:00</time></trkpt><trkpt lat="21.191694" lon="105.780739"><ele>16.8</ele><time>2011-04-29T23:04:30.0000000+00:00</time></trkpt><trkpt lat="21.192049" lon="105.780769"><ele>19.3</ele><time>2011-04-29T23:04:35.0000000+00:00</time></trkpt><trkpt lat="21.192112" lon="105.780769"><ele>18.5</ele><time>2011-04-29T23:04:40.0000000+00:00</time></trkpt><trkpt lat="21.192181" lon="105.780785"><ele>17.3</ele><time>2011-04-29T23:04:45.0000000+00:00</time></trkpt><trkpt lat="21.192316" lon="105.780777"><ele>20.3</ele><time>2011-04-29T23:04:50.0000000+00:00</time></trkpt><trkpt lat="21.192341" lon="105.780762"><ele>22.2</ele><time>2011-04-29T23:04:55.0000000+00:00</time></trkpt><trkpt lat="21.192463" lon="105.780769"><ele>21.4</ele><time>2011-04-29T23:05:00.0000000+00:00</time></trkpt><trkpt lat="21.192778" lon="105.780769"><ele>22.7</ele><time>2011-04-29T23:05:05.0000000+00:00</time></trkpt><trkpt lat="21.193144" lon="105.780785"><ele>21.6</ele><time>2011-04-29T23:05:10.0000000+00:00</time></trkpt><trkpt lat="21.193577" lon="105.780792"><ele>20.2</ele><time>2011-04-29T23:05:15.0000000+00:00</time></trkpt><trkpt lat="21.194077" lon="105.780807"><ele>22.5</ele><time>2011-04-29T23:05:20.0000000+00:00</time></trkpt><trkpt lat="21.194582" lon="105.780807"><ele>19.4</ele><time>2011-04-29T23:05:25.0000000+00:00</time></trkpt><trkpt lat="21.195086" lon="105.7808"><ele>14.7</ele><time>2011-04-29T23:05:30.0000000+00:00</time></trkpt><trkpt lat="21.195702" lon="105.780769"><ele>12.8</ele><time>2011-04-29T23:05:35.0000000+00:00</time></trkpt><trkpt lat="21.19636" lon="105.780693"><ele>11.4</ele><time>2011-04-29T23:05:40.0000000+00:00</time></trkpt><trkpt lat="21.197062" lon="105.780609"><ele>13.4</ele><time>2011-04-29T23:05:45.0000000+00:00</time></trkpt><trkpt lat="21.1978" lon="105.78051"><ele>16.2</ele><time>2011-04-29T23:05:50.0000000+00:00</time></trkpt><trkpt lat="21.19861" lon="105.780411"><ele>16.5</ele><time>2011-04-29T23:05:55.0000000+00:00</time></trkpt><trkpt lat="21.19944" lon="105.780327"><ele>18.6</ele><time>2011-04-29T23:06:00.0000000+00:00</time></trkpt><trkpt lat="21.200298" lon="105.780251"><ele>17.9</ele><time>2011-04-29T23:06:05.0000000+00:00</time></trkpt><trkpt lat="21.201132" lon="105.780167"><ele>16.6</ele><time>2011-04-29T23:06:10.0000000+00:00</time></trkpt><trkpt lat="21.201777" lon="105.780121"><ele>17.0</ele><time>2011-04-29T23:06:15.0000000+00:00</time></trkpt><trkpt lat="21.202309" lon="105.780113"><ele>17.9</ele><time>2011-04-29T23:06:20.0000000+00:00</time></trkpt><trkpt lat="21.2027" lon="105.780098"><ele>18.9</ele><time>2011-04-29T23:06:25.0000000+00:00</time></trkpt><trkpt lat="21.20289" lon="105.780083"><ele>18.3</ele><time>2011-04-29T23:06:30.0000000+00:00</time></trkpt><trkpt lat="21.202969" lon="105.780067"><ele>20.4</ele><time>2011-04-29T23:06:35.0000000+00:00</time></trkpt><trkpt lat="21.203079" lon="105.78006"><ele>20.6</ele><time>2011-04-29T23:06:40.0000000+00:00</time></trkpt><trkpt lat="21.203121" lon="105.780052"><ele>19.6</ele><time>2011-04-29T23:06:45.0000000+00:00</time></trkpt><trkpt lat="21.203135" lon="105.780052"><ele>18.5</ele><time>2011-04-29T23:06:50.0000000+00:00</time></trkpt><trkpt lat="21.203171" lon="105.780045"><ele>18.3</ele><time>2011-04-29T23:06:55.0000000+00:00</time></trkpt><trkpt lat="21.203306" lon="105.780029"><ele>17.2</ele><time>2011-04-29T23:07:00.0000000+00:00</time></trkpt><trkpt lat="21.203648" lon="105.780006"><ele>17.7</ele><time>2011-04-29T23:07:05.0000000+00:00</time></trkpt><trkpt lat="21.203934" lon="105.779976"><ele>19.2</ele><time>2011-04-29T23:07:10.0000000+00:00</time></trkpt><trkpt lat="21.204008" lon="105.779961"><ele>18.7</ele><time>2011-04-29T23:07:15.0000000+00:00</time></trkpt><trkpt lat="21.204025" lon="105.779961"><ele>18.7</ele><time>2011-04-29T23:07:20.0000000+00:00</time></trkpt><trkpt lat="21.204058" lon="105.779953"><ele>18.4</ele><time>2011-04-29T23:07:25.0000000+00:00</time></trkpt><trkpt lat="21.204117" lon="105.779953"><ele>16.1</ele><time>2011-04-29T23:07:30.0000000+00:00</time></trkpt><trkpt lat="21.204168" lon="105.779953"><ele>14.9</ele><time>2011-04-29T23:07:35.0000000+00:00</time></trkpt><trkpt lat="21.204384" lon="105.780022"><ele>14.9</ele><time>2011-04-29T23:07:40.0000000+00:00</time></trkpt><trkpt lat="21.204618" lon="105.780205"><ele>16.2</ele><time>2011-04-29T23:07:45.0000000+00:00</time></trkpt><trkpt lat="21.204823" lon="105.780472"><ele>17.1</ele><time>2011-04-29T23:07:50.0000000+00:00</time></trkpt><trkpt lat="21.204924" lon="105.78093"><ele>14.6</ele><time>2011-04-29T23:07:55.0000000+00:00</time></trkpt><trkpt lat="21.20483" lon="105.781548"><ele>14.2</ele><time>2011-04-29T23:08:00.0000000+00:00</time></trkpt><trkpt lat="21.204659" lon="105.782257"><ele>12.7</ele><time>2011-04-29T23:08:05.0000000+00:00</time></trkpt><trkpt lat="21.204485" lon="105.78302"><ele>10.9</ele><time>2011-04-29T23:08:10.0000000+00:00</time></trkpt><trkpt lat="21.204569" lon="105.783607"><ele>14.2</ele><time>2011-04-29T23:08:15.0000000+00:00</time></trkpt><trkpt lat="21.204897" lon="105.784058"><ele>16.4</ele><time>2011-04-29T23:08:20.0000000+00:00</time></trkpt><trkpt lat="21.205118" lon="105.784592"><ele>17.6</ele><time>2011-04-29T23:08:25.0000000+00:00</time></trkpt><trkpt lat="21.205116" lon="105.784912"><ele>14.6</ele><time>2011-04-29T23:08:30.0000000+00:00</time></trkpt><trkpt lat="21.20509" lon="105.784996"><ele>13.2</ele><time>2011-04-29T23:08:35.0000000+00:00</time></trkpt><trkpt lat="21.204983" lon="105.785263"><ele>13.0</ele><time>2011-04-29T23:08:40.0000000+00:00</time></trkpt><trkpt lat="21.204782" lon="105.785645"><ele>11.0</ele><time>2011-04-29T23:08:45.0000000+00:00</time></trkpt><trkpt lat="21.2045" lon="105.786156"><ele>13.4</ele><time>2011-04-29T23:08:50.0000000+00:00</time></trkpt><trkpt lat="21.204136" lon="105.78672"><ele>15.1</ele><time>2011-04-29T23:08:55.0000000+00:00</time></trkpt><trkpt lat="21.203726" lon="105.787331"><ele>14.8</ele><time>2011-04-29T23:09:00.0000000+00:00</time></trkpt><trkpt lat="21.20322" lon="105.788017"><ele>17.7</ele><time>2011-04-29T23:09:05.0000000+00:00</time></trkpt><trkpt lat="21.20269" lon="105.788734"><ele>17.3</ele><time>2011-04-29T23:09:10.0000000+00:00</time></trkpt><trkpt lat="21.202118" lon="105.789505"><ele>16.8</ele><time>2011-04-29T23:09:15.0000000+00:00</time></trkpt><trkpt lat="21.201551" lon="105.790276"><ele>17.7</ele><time>2011-04-29T23:09:20.0000000+00:00</time></trkpt><trkpt lat="21.200968" lon="105.791092"><ele>18.2</ele><time>2011-04-29T23:09:25.0000000+00:00</time></trkpt><trkpt lat="21.200354" lon="105.791924"><ele>16.5</ele><time>2011-04-29T23:09:30.0000000+00:00</time></trkpt><trkpt lat="21.199732" lon="105.792763"><ele>13.5</ele><time>2011-04-29T23:09:35.0000000+00:00</time></trkpt><trkpt lat="21.199146" lon="105.793602"><ele>10.7</ele><time>2011-04-29T23:09:40.0000000+00:00</time></trkpt><trkpt lat="21.198532" lon="105.794472"><ele>9.3</ele><time>2011-04-29T23:09:45.0000000+00:00</time></trkpt><trkpt lat="21.197926" lon="105.79538"><ele>12.6</ele><time>2011-04-29T23:09:50.0000000+00:00</time></trkpt><trkpt lat="21.197367" lon="105.796295"><ele>14.0</ele><time>2011-04-29T23:09:55.0000000+00:00</time></trkpt><trkpt lat="21.196844" lon="105.797234"><ele>16.1</ele><time>2011-04-29T23:10:00.0000000+00:00</time></trkpt><trkpt lat="21.196371" lon="105.798195"><ele>15.2</ele><time>2011-04-29T23:10:05.0000000+00:00</time></trkpt><trkpt lat="21.19594" lon="105.799171"><ele>15.5</ele><time>2011-04-29T23:10:10.0000000+00:00</time></trkpt><trkpt lat="21.195538" lon="105.800186"><ele>15.6</ele><time>2011-04-29T23:10:15.0000000+00:00</time></trkpt><trkpt lat="21.195177" lon="105.801208"><ele>13.8</ele><time>2011-04-29T23:10:20.0000000+00:00</time></trkpt><trkpt lat="21.194891" lon="105.8022"><ele>12.4</ele><time>2011-04-29T23:10:25.0000000+00:00</time></trkpt><trkpt lat="21.194632" lon="105.8032"><ele>10.6</ele><time>2011-04-29T23:10:30.0000000+00:00</time></trkpt><trkpt lat="21.194397" lon="105.804245"><ele>8.5</ele><time>2011-04-29T23:10:35.0000000+00:00</time></trkpt><trkpt lat="21.194239" lon="105.80529"><ele>6.0</ele><time>2011-04-29T23:10:40.0000000+00:00</time></trkpt><trkpt lat="21.194111" lon="105.806366"><ele>5.5</ele><time>2011-04-29T23:10:45.0000000+00:00</time></trkpt><trkpt lat="21.194016" lon="105.807396"><ele>4.4</ele><time>2011-04-29T23:10:50.0000000+00:00</time></trkpt><trkpt lat="21.193983" lon="105.808434"><ele>8.8</ele><time>2011-04-29T23:10:55.0000000+00:00</time></trkpt><trkpt lat="21.193975" lon="105.809479"><ele>11.6</ele><time>2011-04-29T23:11:00.0000000+00:00</time></trkpt><trkpt lat="21.193996" lon="105.810585"><ele>12.4</ele><time>2011-04-29T23:11:05.0000000+00:00</time></trkpt><trkpt lat="21.193993" lon="105.811768"><ele>11.3</ele><time>2011-04-29T23:11:10.0000000+00:00</time></trkpt><trkpt lat="21.194017" lon="105.812996"><ele>7.8</ele><time>2011-04-29T23:11:15.0000000+00:00</time></trkpt><trkpt lat="21.194054" lon="105.814224"><ele>3.9</ele><time>2011-04-29T23:11:20.0000000+00:00</time></trkpt><trkpt lat="21.194105" lon="105.815445"><ele>1.5</ele><time>2011-04-29T23:11:25.0000000+00:00</time></trkpt><trkpt lat="21.194153" lon="105.816666"><ele>0.4</ele><time>2011-04-29T23:11:30.0000000+00:00</time></trkpt><trkpt lat="21.194201" lon="105.817879"><ele>-0.3</ele><time>2011-04-29T23:11:35.0000000+00:00</time></trkpt><trkpt lat="21.194235" lon="105.819077"><ele>-0.1</ele><time>2011-04-29T23:11:40.0000000+00:00</time></trkpt><trkpt lat="21.194269" lon="105.82032"><ele>1.0</ele><time>2011-04-29T23:11:45.0000000+00:00</time></trkpt><trkpt lat="21.194334" lon="105.821587"><ele>1.1</ele><time>2011-04-29T23:11:50.0000000+00:00</time></trkpt><trkpt lat="21.194395" lon="105.822853"><ele>0.3</ele><time>2011-04-29T23:11:55.0000000+00:00</time></trkpt><trkpt lat="21.194483" lon="105.823982"><ele>3.6</ele><time>2011-04-29T23:12:00.0000000+00:00</time></trkpt><trkpt lat="21.194586" lon="105.824814"><ele>6.4</ele><time>2011-04-29T23:12:05.0000000+00:00</time></trkpt><trkpt lat="21.194704" lon="105.825241"><ele>11.3</ele><time>2011-04-29T23:12:10.0000000+00:00</time></trkpt><trkpt lat="21.194719" lon="105.825302"><ele>13.1</ele><time>2011-04-29T23:12:15.0000000+00:00</time></trkpt><trkpt lat="21.194721" lon="105.825317"><ele>14.5</ele><time>2011-04-29T23:12:20.0000000+00:00</time></trkpt><trkpt lat="21.194778" lon="105.825523"><ele>13.7</ele><time>2011-04-29T23:12:25.0000000+00:00</time></trkpt><trkpt lat="21.194902" lon="105.825882"><ele>13.9</ele><time>2011-04-29T23:12:30.0000000+00:00</time></trkpt><trkpt lat="21.195051" lon="105.826385"><ele>14.4</ele><time>2011-04-29T23:12:35.0000000+00:00</time></trkpt><trkpt lat="21.195244" lon="105.826973"><ele>15.0</ele><time>2011-04-29T23:12:40.0000000+00:00</time></trkpt><trkpt lat="21.195509" lon="105.827652"><ele>13.6</ele><time>2011-04-29T23:12:45.0000000+00:00</time></trkpt><trkpt lat="21.195869" lon="105.828384"><ele>11.4</ele><time>2011-04-29T23:12:50.0000000+00:00</time></trkpt><trkpt lat="21.19627" lon="105.82917"><ele>11.5</ele><time>2011-04-29T23:12:55.0000000+00:00</time></trkpt><trkpt lat="21.196747" lon="105.829956"><ele>14.2</ele><time>2011-04-29T23:13:00.0000000+00:00</time></trkpt><trkpt lat="21.197292" lon="105.830757"><ele>15.5</ele><time>2011-04-29T23:13:05.0000000+00:00</time></trkpt><trkpt lat="21.197906" lon="105.83152"><ele>17.9</ele><time>2011-04-29T23:13:10.0000000+00:00</time></trkpt><trkpt lat="21.198601" lon="105.832275"><ele>24.7</ele><time>2011-04-29T23:13:15.0000000+00:00</time></trkpt><trkpt lat="21.199387" lon="105.832993"><ele>24.7</ele><time>2011-04-29T23:13:20.0000000+00:00</time></trkpt><trkpt lat="21.200186" lon="105.833641"><ele>22.7</ele><time>2011-04-29T23:13:25.0000000+00:00</time></trkpt><trkpt lat="21.20096" lon="105.83419"><ele>21.1</ele><time>2011-04-29T23:13:30.0000000+00:00</time></trkpt><trkpt lat="21.201641" lon="105.834625"><ele>21.7</ele><time>2011-04-29T23:13:35.0000000+00:00</time></trkpt><trkpt lat="21.202347" lon="105.835114"><ele>24.0</ele><time>2011-04-29T23:13:40.0000000+00:00</time></trkpt><trkpt lat="21.203112" lon="105.83564"><ele>24.6</ele><time>2011-04-29T23:13:45.0000000+00:00</time></trkpt><trkpt lat="21.203873" lon="105.836235"><ele>25.0</ele><time>2011-04-29T23:13:50.0000000+00:00</time></trkpt><trkpt lat="21.204649" lon="105.836891"><ele>25.1</ele><time>2011-04-29T23:13:55.0000000+00:00</time></trkpt><trkpt lat="21.205383" lon="105.837608"><ele>24.7</ele><time>2011-04-29T23:14:00.0000000+00:00</time></trkpt><trkpt lat="21.206099" lon="105.838379"><ele>23.8</ele><time>2011-04-29T23:14:05.0000000+00:00</time></trkpt><trkpt lat="21.206749" lon="105.839157"><ele>23.1</ele><time>2011-04-29T23:14:10.0000000+00:00</time></trkpt><trkpt lat="21.207329" lon="105.83992"><ele>24.1</ele><time>2011-04-29T23:14:15.0000000+00:00</time></trkpt><trkpt lat="21.20783" lon="105.840691"><ele>23.8</ele><time>2011-04-29T23:14:20.0000000+00:00</time></trkpt><trkpt lat="21.208269" lon="105.841423"><ele>22.7</ele><time>2011-04-29T23:14:25.0000000+00:00</time></trkpt><trkpt lat="21.208693" lon="105.842125"><ele>21.0</ele><time>2011-04-29T23:14:30.0000000+00:00</time></trkpt><trkpt lat="21.209057" lon="105.842773"><ele>19.1</ele><time>2011-04-29T23:14:35.0000000+00:00</time></trkpt><trkpt lat="21.209332" lon="105.843376"><ele>18.5</ele><time>2011-04-29T23:14:40.0000000+00:00</time></trkpt><trkpt lat="21.209547" lon="105.84388"><ele>17.0</ele><time>2011-04-29T23:14:45.0000000+00:00</time></trkpt><trkpt lat="21.209652" lon="105.844124"><ele>12.4</ele><time>2011-04-29T23:14:50.0000000+00:00</time></trkpt><trkpt lat="21.209646" lon="105.844131"><ele>12.8</ele><time>2011-04-29T23:14:55.0000000+00:00</time></trkpt><trkpt lat="21.20965" lon="105.844131"><ele>12.6</ele><time>2011-04-29T23:15:00.0000000+00:00</time></trkpt><trkpt lat="21.209684" lon="105.844215"><ele>13.1</ele><time>2011-04-29T23:15:05.0000000+00:00</time></trkpt><trkpt lat="21.209793" lon="105.84446"><ele>13.6</ele><time>2011-04-29T23:15:10.0000000+00:00</time></trkpt><trkpt lat="21.209972" lon="105.844803"><ele>15.8</ele><time>2011-04-29T23:15:15.0000000+00:00</time></trkpt><trkpt lat="21.21015" lon="105.84536"><ele>17.2</ele><time>2011-04-29T23:15:20.0000000+00:00</time></trkpt><trkpt lat="21.210344" lon="105.845917"><ele>16.4</ele><time>2011-04-29T23:15:25.0000000+00:00</time></trkpt><trkpt lat="21.210541" lon="105.846542"><ele>16.0</ele><time>2011-04-29T23:15:30.0000000+00:00</time></trkpt><trkpt lat="21.210732" lon="105.847252"><ele>15.0</ele><time>2011-04-29T23:15:35.0000000+00:00</time></trkpt><trkpt lat="21.210897" lon="105.848015"><ele>13.4</ele><time>2011-04-29T23:15:40.0000000+00:00</time></trkpt><trkpt lat="21.211046" lon="105.848816"><ele>13.1</ele><time>2011-04-29T23:15:45.0000000+00:00</time></trkpt><trkpt lat="21.211159" lon="105.849678"><ele>14.5</ele><time>2011-04-29T23:15:50.0000000+00:00</time></trkpt><trkpt lat="21.211262" lon="105.85054"><ele>14.8</ele><time>2011-04-29T23:15:55.0000000+00:00</time></trkpt><trkpt lat="21.211319" lon="105.851501"><ele>13.9</ele><time>2011-04-29T23:16:00.0000000+00:00</time></trkpt><trkpt lat="21.211344" lon="105.852531"><ele>15.4</ele><time>2011-04-29T23:16:05.0000000+00:00</time></trkpt><trkpt lat="21.21126" lon="105.853615"><ele>16.8</ele><time>2011-04-29T23:16:10.0000000+00:00</time></trkpt><trkpt lat="21.211149" lon="105.854713"><ele>21.2</ele><time>2011-04-29T23:16:15.0000000+00:00</time></trkpt><trkpt lat="21.211048" lon="105.855774"><ele>23.0</ele><time>2011-04-29T23:16:20.0000000+00:00</time></trkpt><trkpt lat="21.21096" lon="105.856796"><ele>23.8</ele><time>2011-04-29T23:16:25.0000000+00:00</time></trkpt><trkpt lat="21.210852" lon="105.857841"><ele>23.7</ele><time>2011-04-29T23:16:30.0000000+00:00</time></trkpt><trkpt lat="21.210766" lon="105.858894"><ele>22.0</ele><time>2011-04-29T23:16:35.0000000+00:00</time></trkpt><trkpt lat="21.210667" lon="105.85997"><ele>19.1</ele><time>2011-04-29T23:16:40.0000000+00:00</time></trkpt><trkpt lat="21.210587" lon="105.861099"><ele>16.9</ele><time>2011-04-29T23:16:45.0000000+00:00</time></trkpt><trkpt lat="21.210571" lon="105.862267"><ele>9.3</ele><time>2011-04-29T23:16:50.0000000+00:00</time></trkpt><trkpt lat="21.210625" lon="105.863396"><ele>7.2</ele><time>2011-04-29T23:16:55.0000000+00:00</time></trkpt><trkpt lat="21.210712" lon="105.864487"><ele>6.5</ele><time>2011-04-29T23:17:00.0000000+00:00</time></trkpt><trkpt lat="21.210871" lon="105.865471"><ele>6.8</ele><time>2011-04-29T23:17:05.0000000+00:00</time></trkpt><trkpt lat="21.211065" lon="105.866394"><ele>8.0</ele><time>2011-04-29T23:17:10.0000000+00:00</time></trkpt><trkpt lat="21.211296" lon="105.867355"><ele>8.0</ele><time>2011-04-29T23:17:15.0000000+00:00</time></trkpt><trkpt lat="21.211584" lon="105.868332"><ele>9.3</ele><time>2011-04-29T23:17:20.0000000+00:00</time></trkpt><trkpt lat="21.211935" lon="105.86927"><ele>10.5</ele><time>2011-04-29T23:17:25.0000000+00:00</time></trkpt><trkpt lat="21.212311" lon="105.870155"><ele>11.6</ele><time>2011-04-29T23:17:30.0000000+00:00</time></trkpt><trkpt lat="21.212713" lon="105.871048"><ele>10.9</ele><time>2011-04-29T23:17:35.0000000+00:00</time></trkpt><trkpt lat="21.213152" lon="105.871887"><ele>11.3</ele><time>2011-04-29T23:17:40.0000000+00:00</time></trkpt><trkpt lat="21.213646" lon="105.872787"><ele>12.3</ele><time>2011-04-29T23:17:45.0000000+00:00</time></trkpt><trkpt lat="21.214159" lon="105.873734"><ele>11.9</ele><time>2011-04-29T23:17:50.0000000+00:00</time></trkpt><trkpt lat="21.214655" lon="105.874702"><ele>11.0</ele><time>2011-04-29T23:17:55.0000000+00:00</time></trkpt><trkpt lat="21.215111" lon="105.87571"><ele>12.4</ele><time>2011-04-29T23:18:00.0000000+00:00</time></trkpt><trkpt lat="21.215504" lon="105.876755"><ele>15.9</ele><time>2011-04-29T23:18:05.0000000+00:00</time></trkpt><trkpt lat="21.215841" lon="105.877762"><ele>16.3</ele><time>2011-04-29T23:18:10.0000000+00:00</time></trkpt><trkpt lat="21.21611" lon="105.878799"><ele>14.7</ele><time>2011-04-29T23:18:15.0000000+00:00</time></trkpt><trkpt lat="21.216333" lon="105.87986"><ele>11.8</ele><time>2011-04-29T23:18:20.0000000+00:00</time></trkpt><trkpt lat="21.216505" lon="105.880951"><ele>11.0</ele><time>2011-04-29T23:18:25.0000000+00:00</time></trkpt><trkpt lat="21.216621" lon="105.882034"><ele>10.9</ele><time>2011-04-29T23:18:30.0000000+00:00</time></trkpt><trkpt lat="21.216682" lon="105.88311"><ele>9.8</ele><time>2011-04-29T23:18:35.0000000+00:00</time></trkpt><trkpt lat="21.21666" lon="105.884193"><ele>11.9</ele><time>2011-04-29T23:18:40.0000000+00:00</time></trkpt><trkpt lat="21.216597" lon="105.885201"><ele>11.3</ele><time>2011-04-29T23:18:45.0000000+00:00</time></trkpt><trkpt lat="21.216482" lon="105.886108"><ele>11.0</ele><time>2011-04-29T23:18:50.0000000+00:00</time></trkpt><trkpt lat="21.21633" lon="105.887108"><ele>12.8</ele><time>2011-04-29T23:18:55.0000000+00:00</time></trkpt><trkpt lat="21.21612" lon="105.888168"><ele>13.4</ele><time>2011-04-29T23:19:00.0000000+00:00</time></trkpt><trkpt lat="21.215847" lon="105.889252"><ele>9.8</ele><time>2011-04-29T23:19:05.0000000+00:00</time></trkpt><trkpt lat="21.215574" lon="105.89035"><ele>4.2</ele><time>2011-04-29T23:19:10.0000000+00:00</time></trkpt><trkpt lat="21.21529" lon="105.891457"><ele>0.4</ele><time>2011-04-29T23:19:15.0000000+00:00</time></trkpt><trkpt lat="21.215015" lon="105.892517"><ele>0.0</ele><time>2011-04-29T23:19:20.0000000+00:00</time></trkpt><trkpt lat="21.21476" lon="105.893532"><ele>-0.9</ele><time>2011-04-29T23:19:25.0000000+00:00</time></trkpt><trkpt lat="21.214481" lon="105.894554"><ele>-0.2</ele><time>2011-04-29T23:19:30.0000000+00:00</time></trkpt><trkpt lat="21.214201" lon="105.895584"><ele>-0.9</ele><time>2011-04-29T23:19:35.0000000+00:00</time></trkpt><trkpt lat="21.213932" lon="105.896606"><ele>1.9</ele><time>2011-04-29T23:19:40.0000000+00:00</time></trkpt><trkpt lat="21.21365" lon="105.897659"><ele>2.7</ele><time>2011-04-29T23:19:45.0000000+00:00</time></trkpt><trkpt lat="21.213373" lon="105.898689"><ele>4.9</ele><time>2011-04-29T23:19:50.0000000+00:00</time></trkpt><trkpt lat="21.213095" lon="105.899719"><ele>7.5</ele><time>2011-04-29T23:19:55.0000000+00:00</time></trkpt><trkpt lat="21.212828" lon="105.900749"><ele>7.8</ele><time>2011-04-29T23:20:00.0000000+00:00</time></trkpt><trkpt lat="21.212582" lon="105.901802"><ele>9.7</ele><time>2011-04-29T23:20:05.0000000+00:00</time></trkpt><trkpt lat="21.21237" lon="105.902832"><ele>10.7</ele><time>2011-04-29T23:20:10.0000000+00:00</time></trkpt><trkpt lat="21.212214" lon="105.903862"><ele>11.7</ele><time>2011-04-29T23:20:15.0000000+00:00</time></trkpt><trkpt lat="21.212109" lon="105.904877"><ele>10.4</ele><time>2011-04-29T23:20:20.0000000+00:00</time></trkpt><trkpt lat="21.21203" lon="105.905884"><ele>10.9</ele><time>2011-04-29T23:20:25.0000000+00:00</time></trkpt><trkpt lat="21.212008" lon="105.906929"><ele>9.1</ele><time>2011-04-29T23:20:30.0000000+00:00</time></trkpt><trkpt lat="21.212011" lon="105.907974"><ele>9.0</ele><time>2011-04-29T23:20:35.0000000+00:00</time></trkpt><trkpt lat="21.212036" lon="105.909004"><ele>10.4</ele><time>2011-04-29T23:20:40.0000000+00:00</time></trkpt><trkpt lat="21.212082" lon="105.910034"><ele>11.5</ele><time>2011-04-29T23:20:45.0000000+00:00</time></trkpt><trkpt lat="21.212147" lon="105.911049"><ele>12.1</ele><time>2011-04-29T23:20:50.0000000+00:00</time></trkpt><trkpt lat="21.212164" lon="105.912079"><ele>13.6</ele><time>2011-04-29T23:20:55.0000000+00:00</time></trkpt><trkpt lat="21.212172" lon="105.913063"><ele>15.0</ele><time>2011-04-29T23:21:00.0000000+00:00</time></trkpt><trkpt lat="21.212147" lon="105.914024"><ele>14.9</ele><time>2011-04-29T23:21:05.0000000+00:00</time></trkpt><trkpt lat="21.212154" lon="105.914978"><ele>13.7</ele><time>2011-04-29T23:21:10.0000000+00:00</time></trkpt><trkpt lat="21.212137" lon="105.915894"><ele>15.4</ele><time>2011-04-29T23:21:15.0000000+00:00</time></trkpt><trkpt lat="21.21213" lon="105.91671"><ele>15.9</ele><time>2011-04-29T23:21:20.0000000+00:00</time></trkpt><trkpt lat="21.212101" lon="105.917534"><ele>15.2</ele><time>2011-04-29T23:21:25.0000000+00:00</time></trkpt><trkpt lat="21.212046" lon="105.91835"><ele>13.4</ele><time>2011-04-29T23:21:30.0000000+00:00</time></trkpt><trkpt lat="21.21203" lon="105.919205"><ele>14.7</ele><time>2011-04-29T23:21:35.0000000+00:00</time></trkpt><trkpt lat="21.212" lon="105.920143"><ele>15.3</ele><time>2011-04-29T23:21:40.0000000+00:00</time></trkpt><trkpt lat="21.211979" lon="105.921127"><ele>15.3</ele><time>2011-04-29T23:21:45.0000000+00:00</time></trkpt><trkpt lat="21.211948" lon="105.92218"><ele>16.4</ele><time>2011-04-29T23:21:50.0000000+00:00</time></trkpt><trkpt lat="21.211906" lon="105.923294"><ele>14.9</ele><time>2011-04-29T23:21:55.0000000+00:00</time></trkpt><trkpt lat="21.211809" lon="105.924484"><ele>14.1</ele><time>2011-04-29T23:22:00.0000000+00:00</time></trkpt><trkpt lat="21.211706" lon="105.925682"><ele>12.6</ele><time>2011-04-29T23:22:05.0000000+00:00</time></trkpt><trkpt lat="21.211555" lon="105.926872"><ele>14.5</ele><time>2011-04-29T23:22:10.0000000+00:00</time></trkpt><trkpt lat="21.211355" lon="105.92807"><ele>15.0</ele><time>2011-04-29T23:22:15.0000000+00:00</time></trkpt><trkpt lat="21.211082" lon="105.929306"><ele>11.6</ele><time>2011-04-29T23:22:20.0000000+00:00</time></trkpt><trkpt lat="21.210768" lon="105.930534"><ele>7.1</ele><time>2011-04-29T23:22:25.0000000+00:00</time></trkpt><trkpt lat="21.210411" lon="105.931763"><ele>6.6</ele><time>2011-04-29T23:22:30.0000000+00:00</time></trkpt><trkpt lat="21.210033" lon="105.932968"><ele>7.5</ele><time>2011-04-29T23:22:35.0000000+00:00</time></trkpt><trkpt lat="21.209669" lon="105.934174"><ele>8.6</ele><time>2011-04-29T23:22:40.0000000+00:00</time></trkpt><trkpt lat="21.209305" lon="105.935364"><ele>8.6</ele><time>2011-04-29T23:22:45.0000000+00:00</time></trkpt><trkpt lat="21.208954" lon="105.936539"><ele>8.4</ele><time>2011-04-29T23:22:50.0000000+00:00</time></trkpt><trkpt lat="21.20858" lon="105.937691"><ele>8.8</ele><time>2011-04-29T23:22:55.0000000+00:00</time></trkpt><trkpt lat="21.208212" lon="105.93885"><ele>10.4</ele><time>2011-04-29T23:23:00.0000000+00:00</time></trkpt><trkpt lat="21.207853" lon="105.940025"><ele>12.1</ele><time>2011-04-29T23:23:05.0000000+00:00</time></trkpt><trkpt lat="21.207474" lon="105.941216"><ele>13.5</ele><time>2011-04-29T23:23:10.0000000+00:00</time></trkpt><trkpt lat="21.207106" lon="105.94239"><ele>12.2</ele><time>2011-04-29T23:23:15.0000000+00:00</time></trkpt><trkpt lat="21.206751" lon="105.943535"><ele>12.0</ele><time>2011-04-29T23:23:20.0000000+00:00</time></trkpt><trkpt lat="21.206415" lon="105.944687"><ele>9.4</ele><time>2011-04-29T23:23:25.0000000+00:00</time></trkpt><trkpt lat="21.206097" lon="105.945885"><ele>8.7</ele><time>2011-04-29T23:23:30.0000000+00:00</time></trkpt><trkpt lat="21.205763" lon="105.947075"><ele>10.0</ele><time>2011-04-29T23:23:35.0000000+00:00</time></trkpt><trkpt lat="21.205444" lon="105.948265"><ele>10.9</ele><time>2011-04-29T23:23:40.0000000+00:00</time></trkpt><trkpt lat="21.205145" lon="105.949425"><ele>11.8</ele><time>2011-04-29T23:23:45.0000000+00:00</time></trkpt><trkpt lat="21.204838" lon="105.9506"><ele>12.2</ele><time>2011-04-29T23:23:50.0000000+00:00</time></trkpt><trkpt lat="21.204496" lon="105.95182"><ele>10.2</ele><time>2011-04-29T23:23:55.0000000+00:00</time></trkpt><trkpt lat="21.204189" lon="105.953011"><ele>9.6</ele><time>2011-04-29T23:24:00.0000000+00:00</time></trkpt><trkpt lat="21.203867" lon="105.954216"><ele>7.0</ele><time>2011-04-29T23:24:05.0000000+00:00</time></trkpt><trkpt lat="21.203571" lon="105.955368"><ele>2.4</ele><time>2011-04-29T23:24:10.0000000+00:00</time></trkpt><trkpt lat="21.203295" lon="105.956406"><ele>-0.2</ele><time>2011-04-29T23:24:15.0000000+00:00</time></trkpt><trkpt lat="21.203056" lon="105.957291"><ele>-1.5</ele><time>2011-04-29T23:24:20.0000000+00:00</time></trkpt><trkpt lat="21.202887" lon="105.957947"><ele>-2.1</ele><time>2011-04-29T23:24:25.0000000+00:00</time></trkpt><trkpt lat="21.202805" lon="105.958206"><ele>-1.4</ele><time>2011-04-29T23:24:30.0000000+00:00</time></trkpt><trkpt lat="21.202791" lon="105.958214"><ele>-1.0</ele><time>2011-04-29T23:24:35.0000000+00:00</time></trkpt><trkpt lat="21.202791" lon="105.958221"><ele>-1.0</ele><time>2011-04-29T23:24:40.0000000+00:00</time></trkpt><trkpt lat="21.202785" lon="105.958229"><ele>-1.0</ele><time>2011-04-29T23:24:45.0000000+00:00</time></trkpt><trkpt lat="21.202782" lon="105.958237"><ele>-1.0</ele><time>2011-04-29T23:24:50.0000000+00:00</time></trkpt><trkpt lat="21.202785" lon="105.958267"><ele>-0.8</ele><time>2011-04-29T23:24:55.0000000+00:00</time></trkpt><trkpt lat="21.202732" lon="105.958542"><ele>0.7</ele><time>2011-04-29T23:25:00.0000000+00:00</time></trkpt><trkpt lat="21.20265" lon="105.958916"><ele>-0.5</ele><time>2011-04-29T23:25:05.0000000+00:00</time></trkpt><trkpt lat="21.202486" lon="105.959457"><ele>0.1</ele><time>2011-04-29T23:25:10.0000000+00:00</time></trkpt><trkpt lat="21.202326" lon="105.96006"><ele>0.5</ele><time>2011-04-29T23:25:15.0000000+00:00</time></trkpt><trkpt lat="21.202129" lon="105.9608"><ele>1.9</ele><time>2011-04-29T23:25:20.0000000+00:00</time></trkpt><trkpt lat="21.20191" lon="105.961632"><ele>2.6</ele><time>2011-04-29T23:25:25.0000000+00:00</time></trkpt><trkpt lat="21.201702" lon="105.962517"><ele>1.6</ele><time>2011-04-29T23:25:30.0000000+00:00</time></trkpt><trkpt lat="21.201458" lon="105.963455"><ele>-0.2</ele><time>2011-04-29T23:25:35.0000000+00:00</time></trkpt><trkpt lat="21.201218" lon="105.964417"><ele>1.1</ele><time>2011-04-29T23:25:40.0000000+00:00</time></trkpt><trkpt lat="21.200968" lon="105.965401"><ele>2.2</ele><time>2011-04-29T23:25:45.0000000+00:00</time></trkpt><trkpt lat="21.200714" lon="105.966408"><ele>2.2</ele><time>2011-04-29T23:25:50.0000000+00:00</time></trkpt><trkpt lat="21.200445" lon="105.967453"><ele>-0.7</ele><time>2011-04-29T23:25:55.0000000+00:00</time></trkpt><trkpt lat="21.20018" lon="105.968491"><ele>-1.7</ele><time>2011-04-29T23:26:00.0000000+00:00</time></trkpt><trkpt lat="21.199921" lon="105.969498"><ele>-2.2</ele><time>2011-04-29T23:26:05.0000000+00:00</time></trkpt><trkpt lat="21.199654" lon="105.970543"><ele>-1.7</ele><time>2011-04-29T23:26:10.0000000+00:00</time></trkpt><trkpt lat="21.199371" lon="105.971596"><ele>-0.9</ele><time>2011-04-29T23:26:15.0000000+00:00</time></trkpt><trkpt lat="21.199104" lon="105.972656"><ele>1.0</ele><time>2011-04-29T23:26:20.0000000+00:00</time></trkpt><trkpt lat="21.198851" lon="105.973709"><ele>0.6</ele><time>2011-04-29T23:26:25.0000000+00:00</time></trkpt><trkpt lat="21.198645" lon="105.974762"><ele>0.5</ele><time>2011-04-29T23:26:30.0000000+00:00</time></trkpt><trkpt lat="21.198469" lon="105.975815"><ele>1.1</ele><time>2011-04-29T23:26:35.0000000+00:00</time></trkpt><trkpt lat="21.198278" lon="105.976883"><ele>1.3</ele><time>2011-04-29T23:26:40.0000000+00:00</time></trkpt><trkpt lat="21.198114" lon="105.977959"><ele>2.5</ele><time>2011-04-29T23:26:45.0000000+00:00</time></trkpt><trkpt lat="21.197987" lon="105.979065"><ele>3.0</ele><time>2011-04-29T23:26:50.0000000+00:00</time></trkpt><trkpt lat="21.197863" lon="105.980171"><ele>2.6</ele><time>2011-04-29T23:26:55.0000000+00:00</time></trkpt><trkpt lat="21.197737" lon="105.981285"><ele>4.3</ele><time>2011-04-29T23:27:00.0000000+00:00</time></trkpt><trkpt lat="21.197601" lon="105.982445"><ele>4.3</ele><time>2011-04-29T23:27:05.0000000+00:00</time></trkpt><trkpt lat="21.197485" lon="105.98362"><ele>3.7</ele><time>2011-04-29T23:27:10.0000000+00:00</time></trkpt><trkpt lat="21.197357" lon="105.984795"><ele>4.4</ele><time>2011-04-29T23:27:15.0000000+00:00</time></trkpt><trkpt lat="21.197222" lon="105.985947"><ele>4.2</ele><time>2011-04-29T23:27:20.0000000+00:00</time></trkpt><trkpt lat="21.197094" lon="105.987045"><ele>5.8</ele><time>2011-04-29T23:27:25.0000000+00:00</time></trkpt><trkpt lat="21.19698" lon="105.988121"><ele>5.5</ele><time>2011-04-29T23:27:30.0000000+00:00</time></trkpt><trkpt lat="21.196863" lon="105.989166"><ele>4.4</ele><time>2011-04-29T23:27:35.0000000+00:00</time></trkpt><trkpt lat="21.196714" lon="105.990166"><ele>3.9</ele><time>2011-04-29T23:27:40.0000000+00:00</time></trkpt><trkpt lat="21.19655" lon="105.991051"><ele>4.3</ele><time>2011-04-29T23:27:45.0000000+00:00</time></trkpt><trkpt lat="21.196377" lon="105.991829"><ele>5.7</ele><time>2011-04-29T23:27:50.0000000+00:00</time></trkpt><trkpt lat="21.196196" lon="105.992554"><ele>6.3</ele><time>2011-04-29T23:27:55.0000000+00:00</time></trkpt><trkpt lat="21.19607" lon="105.993088"><ele>7.6</ele><time>2011-04-29T23:28:00.0000000+00:00</time></trkpt><trkpt lat="21.196026" lon="105.993248"><ele>8.3</ele><time>2011-04-29T23:28:05.0000000+00:00</time></trkpt><trkpt lat="21.195976" lon="105.993416"><ele>6.5</ele><time>2011-04-29T23:28:10.0000000+00:00</time></trkpt><trkpt lat="21.195866" lon="105.993744"><ele>7.3</ele><time>2011-04-29T23:28:15.0000000+00:00</time></trkpt><trkpt lat="21.195719" lon="105.994179"><ele>9.0</ele><time>2011-04-29T23:28:20.0000000+00:00</time></trkpt><trkpt lat="21.195545" lon="105.994682"><ele>8.6</ele><time>2011-04-29T23:28:25.0000000+00:00</time></trkpt><trkpt lat="21.195333" lon="105.995262"><ele>6.5</ele><time>2011-04-29T23:28:30.0000000+00:00</time></trkpt><trkpt lat="21.195078" lon="105.995903"><ele>1.1</ele><time>2011-04-29T23:28:35.0000000+00:00</time></trkpt><trkpt lat="21.194756" lon="105.996651"><ele>0.0</ele><time>2011-04-29T23:28:40.0000000+00:00</time></trkpt><trkpt lat="21.194397" lon="105.997437"><ele>-2.6</ele><time>2011-04-29T23:28:45.0000000+00:00</time></trkpt><trkpt lat="21.193991" lon="105.998245"><ele>-3.1</ele><time>2011-04-29T23:28:50.0000000+00:00</time></trkpt><trkpt lat="21.193562" lon="105.999016"><ele>-1.5</ele><time>2011-04-29T23:28:55.0000000+00:00</time></trkpt><trkpt lat="21.193119" lon="105.999733"><ele>1.8</ele><time>2011-04-29T23:29:00.0000000+00:00</time></trkpt><trkpt lat="21.192657" lon="106.000435"><ele>1.9</ele><time>2011-04-29T23:29:05.0000000+00:00</time></trkpt><trkpt lat="21.192169" lon="106.001114"><ele>1.6</ele><time>2011-04-29T23:29:10.0000000+00:00</time></trkpt><trkpt lat="21.191683" lon="106.001747"><ele>3.4</ele><time>2011-04-29T23:29:15.0000000+00:00</time></trkpt><trkpt lat="21.191196" lon="106.002342"><ele>1.5</ele><time>2011-04-29T23:29:20.0000000+00:00</time></trkpt><trkpt lat="21.190653" lon="106.002968"><ele>3.9</ele><time>2011-04-29T23:29:25.0000000+00:00</time></trkpt><trkpt lat="21.190065" lon="106.003593"><ele>7.5</ele><time>2011-04-29T23:29:30.0000000+00:00</time></trkpt><trkpt lat="21.189432" lon="106.004204"><ele>10.0</ele><time>2011-04-29T23:29:35.0000000+00:00</time></trkpt><trkpt lat="21.188776" lon="106.004814"><ele>10.7</ele><time>2011-04-29T23:29:40.0000000+00:00</time></trkpt><trkpt lat="21.188137" lon="106.005386"><ele>9.1</ele><time>2011-04-29T23:29:45.0000000+00:00</time></trkpt><trkpt lat="21.187527" lon="106.005974"><ele>8.7</ele><time>2011-04-29T23:29:50.0000000+00:00</time></trkpt><trkpt lat="21.186909" lon="106.006546"><ele>8.3</ele><time>2011-04-29T23:29:55.0000000+00:00</time></trkpt><trkpt lat="21.186327" lon="106.007126"><ele>5.4</ele><time>2011-04-29T23:30:00.0000000+00:00</time></trkpt><trkpt lat="21.185699" lon="106.007767"><ele>3.7</ele><time>2011-04-29T23:30:05.0000000+00:00</time></trkpt><trkpt lat="21.185123" lon="106.008469"><ele>5.4</ele><time>2011-04-29T23:30:10.0000000+00:00</time></trkpt><trkpt lat="21.18454" lon="106.009201"><ele>6.8</ele><time>2011-04-29T23:30:15.0000000+00:00</time></trkpt><trkpt lat="21.183983" lon="106.010025"><ele>6.0</ele><time>2011-04-29T23:30:20.0000000+00:00</time></trkpt><trkpt lat="21.183434" lon="106.010895"><ele>5.8</ele><time>2011-04-29T23:30:25.0000000+00:00</time></trkpt><trkpt lat="21.182926" lon="106.011803"><ele>4.0</ele><time>2011-04-29T23:30:30.0000000+00:00</time></trkpt><trkpt lat="21.18247" lon="106.012733"><ele>3.7</ele><time>2011-04-29T23:30:35.0000000+00:00</time></trkpt><trkpt lat="21.182041" lon="106.013664"><ele>1.8</ele><time>2011-04-29T23:30:40.0000000+00:00</time></trkpt><trkpt lat="21.181683" lon="106.014565"><ele>0.9</ele><time>2011-04-29T23:30:45.0000000+00:00</time></trkpt><trkpt lat="21.181362" lon="106.015419"><ele>1.2</ele><time>2011-04-29T23:30:50.0000000+00:00</time></trkpt><trkpt lat="21.181032" lon="106.016273"><ele>2.5</ele><time>2011-04-29T23:30:55.0000000+00:00</time></trkpt><trkpt lat="21.180672" lon="106.017189"><ele>0.6</ele><time>2011-04-29T23:31:00.0000000+00:00</time></trkpt><trkpt lat="21.180292" lon="106.018158"><ele>0.1</ele><time>2011-04-29T23:31:05.0000000+00:00</time></trkpt><trkpt lat="21.179913" lon="106.01915"><ele>-1.5</ele><time>2011-04-29T23:31:10.0000000+00:00</time></trkpt><trkpt lat="21.179529" lon="106.020172"><ele>-3.0</ele><time>2011-04-29T23:31:15.0000000+00:00</time></trkpt><trkpt lat="21.179115" lon="106.021225"><ele>-1.8</ele><time>2011-04-29T23:31:20.0000000+00:00</time></trkpt><trkpt lat="21.178709" lon="106.022285"><ele>-1.0</ele><time>2011-04-29T23:31:25.0000000+00:00</time></trkpt><trkpt lat="21.178295" lon="106.023338"><ele>-1.9</ele><time>2011-04-29T23:31:30.0000000+00:00</time></trkpt><trkpt lat="21.177912" lon="106.024384"><ele>-3.1</ele><time>2011-04-29T23:31:35.0000000+00:00</time></trkpt><trkpt lat="21.177536" lon="106.025406"><ele>-2.8</ele><time>2011-04-29T23:31:40.0000000+00:00</time></trkpt><trkpt lat="21.177132" lon="106.026436"><ele>-0.8</ele><time>2011-04-29T23:31:45.0000000+00:00</time></trkpt><trkpt lat="21.176735" lon="106.027489"><ele>0.3</ele><time>2011-04-29T23:31:50.0000000+00:00</time></trkpt><trkpt lat="21.176331" lon="106.028549"><ele>1.4</ele><time>2011-04-29T23:31:55.0000000+00:00</time></trkpt><trkpt lat="21.175886" lon="106.029602"><ele>2.6</ele><time>2011-04-29T23:32:00.0000000+00:00</time></trkpt><trkpt lat="21.175444" lon="106.030655"><ele>3.1</ele><time>2011-04-29T23:32:05.0000000+00:00</time></trkpt><trkpt lat="21.17499" lon="106.0317"><ele>2.6</ele><time>2011-04-29T23:32:10.0000000+00:00</time></trkpt><trkpt lat="21.174541" lon="106.032715"><ele>2.8</ele><time>2011-04-29T23:32:15.0000000+00:00</time></trkpt><trkpt lat="21.174091" lon="106.033684"><ele>2.9</ele><time>2011-04-29T23:32:20.0000000+00:00</time></trkpt><trkpt lat="21.173637" lon="106.034569"><ele>5.7</ele><time>2011-04-29T23:32:25.0000000+00:00</time></trkpt><trkpt lat="21.173195" lon="106.035378"><ele>6.8</ele><time>2011-04-29T23:32:30.0000000+00:00</time></trkpt><trkpt lat="21.172764" lon="106.036079"><ele>5.8</ele><time>2011-04-29T23:32:35.0000000+00:00</time></trkpt><trkpt lat="21.172398" lon="106.036659"><ele>5.5</ele><time>2011-04-29T23:32:40.0000000+00:00</time></trkpt><trkpt lat="21.171991" lon="106.037231"><ele>4.9</ele><time>2011-04-29T23:32:45.0000000+00:00</time></trkpt><trkpt lat="21.171478" lon="106.037903"><ele>5.2</ele><time>2011-04-29T23:32:50.0000000+00:00</time></trkpt><trkpt lat="21.170897" lon="106.038597"><ele>3.9</ele><time>2011-04-29T23:32:55.0000000+00:00</time></trkpt><trkpt lat="21.170231" lon="106.03933"><ele>1.9</ele><time>2011-04-29T23:33:00.0000000+00:00</time></trkpt><trkpt lat="21.169544" lon="106.040039"><ele>4.0</ele><time>2011-04-29T23:33:05.0000000+00:00</time></trkpt><trkpt lat="21.168808" lon="106.04071"><ele>9.6</ele><time>2011-04-29T23:33:10.0000000+00:00</time></trkpt><trkpt lat="21.168039" lon="106.041359"><ele>12.8</ele><time>2011-04-29T23:33:15.0000000+00:00</time></trkpt><trkpt lat="21.167236" lon="106.041962"><ele>14.8</ele><time>2011-04-29T23:33:20.0000000+00:00</time></trkpt><trkpt lat="21.166401" lon="106.042549"><ele>15.1</ele><time>2011-04-29T23:33:25.0000000+00:00</time></trkpt><trkpt lat="21.165564" lon="106.043106"><ele>13.0</ele><time>2011-04-29T23:33:30.0000000+00:00</time></trkpt><trkpt lat="21.164715" lon="106.043655"><ele>10.1</ele><time>2011-04-29T23:33:35.0000000+00:00</time></trkpt><trkpt lat="21.163851" lon="106.044258"><ele>8.0</ele><time>2011-04-29T23:33:40.0000000+00:00</time></trkpt><trkpt lat="21.162979" lon="106.044975"><ele>5.1</ele><time>2011-04-29T23:33:45.0000000+00:00</time></trkpt><trkpt lat="21.162159" lon="106.045746"><ele>7.5</ele><time>2011-04-29T23:33:50.0000000+00:00</time></trkpt><trkpt lat="21.161425" lon="106.046555"><ele>7.5</ele><time>2011-04-29T23:33:55.0000000+00:00</time></trkpt><trkpt lat="21.160765" lon="106.047386"><ele>5.4</ele><time>2011-04-29T23:34:00.0000000+00:00</time></trkpt><trkpt lat="21.160137" lon="106.048218"><ele>6.5</ele><time>2011-04-29T23:34:05.0000000+00:00</time></trkpt><trkpt lat="21.159586" lon="106.048943"><ele>7.0</ele><time>2011-04-29T23:34:10.0000000+00:00</time></trkpt><trkpt lat="21.159168" lon="106.049522"><ele>8.8</ele><time>2011-04-29T23:34:15.0000000+00:00</time></trkpt><trkpt lat="21.15888" lon="106.050018"><ele>7.0</ele><time>2011-04-29T23:34:20.0000000+00:00</time></trkpt><trkpt lat="21.158596" lon="106.050484"><ele>4.9</ele><time>2011-04-29T23:34:25.0000000+00:00</time></trkpt><trkpt lat="21.158398" lon="106.051056"><ele>2.6</ele><time>2011-04-29T23:34:30.0000000+00:00</time></trkpt><trkpt lat="21.158503" lon="106.051666"><ele>1.4</ele><time>2011-04-29T23:34:35.0000000+00:00</time></trkpt><trkpt lat="21.158781" lon="106.052193"><ele>1.1</ele><time>2011-04-29T23:34:40.0000000+00:00</time></trkpt><trkpt lat="21.159063" lon="106.052734"><ele>1.4</ele><time>2011-04-29T23:34:45.0000000+00:00</time></trkpt><trkpt lat="21.159103" lon="106.05336"><ele>1.9</ele><time>2011-04-29T23:34:50.0000000+00:00</time></trkpt><trkpt lat="21.158831" lon="106.053947"><ele>4.0</ele><time>2011-04-29T23:34:55.0000000+00:00</time></trkpt><trkpt lat="21.158321" lon="106.054382"><ele>7.3</ele><time>2011-04-29T23:35:00.0000000+00:00</time></trkpt><trkpt lat="21.157827" lon="106.054741"><ele>9.3</ele><time>2011-04-29T23:35:05.0000000+00:00</time></trkpt><trkpt lat="21.157318" lon="106.055099"><ele>12.0</ele><time>2011-04-29T23:35:10.0000000+00:00</time></trkpt><trkpt lat="21.156729" lon="106.055527"><ele>12.7</ele><time>2011-04-29T23:35:15.0000000+00:00</time></trkpt><trkpt lat="21.15616" lon="106.055939"><ele>12.4</ele><time>2011-04-29T23:35:20.0000000+00:00</time></trkpt><trkpt lat="21.155613" lon="106.056343"><ele>12.8</ele><time>2011-04-29T23:35:25.0000000+00:00</time></trkpt><trkpt lat="21.155125" lon="106.056694"><ele>13.6</ele><time>2011-04-29T23:35:30.0000000+00:00</time></trkpt><trkpt lat="21.15472" lon="106.056999"><ele>14.4</ele><time>2011-04-29T23:35:35.0000000+00:00</time></trkpt><trkpt lat="21.154364" lon="106.057312"><ele>11.3</ele><time>2011-04-29T23:35:40.0000000+00:00</time></trkpt><trkpt lat="21.154198" lon="106.057831"><ele>10.6</ele><time>2011-04-29T23:35:45.0000000+00:00</time></trkpt><trkpt lat="21.15444" lon="106.058365"><ele>10.8</ele><time>2011-04-29T23:35:50.0000000+00:00</time></trkpt><trkpt lat="21.155043" lon="106.058525"><ele>5.1</ele><time>2011-04-29T23:35:55.0000000+00:00</time></trkpt><trkpt lat="21.155689" lon="106.058502"><ele>4.7</ele><time>2011-04-29T23:36:00.0000000+00:00</time></trkpt><trkpt lat="21.15626" lon="106.058708"><ele>4.7</ele><time>2011-04-29T23:36:05.0000000+00:00</time></trkpt><trkpt lat="21.156738" lon="106.059219"><ele>5.5</ele><time>2011-04-29T23:36:10.0000000+00:00</time></trkpt><trkpt lat="21.15719" lon="106.059906"><ele>5.2</ele><time>2011-04-29T23:36:15.0000000+00:00</time></trkpt><trkpt lat="21.157692" lon="106.060692"><ele>5.0</ele><time>2011-04-29T23:36:20.0000000+00:00</time></trkpt><trkpt lat="21.158213" lon="106.061493"><ele>6.7</ele><time>2011-04-29T23:36:25.0000000+00:00</time></trkpt><trkpt lat="21.158739" lon="106.062317"><ele>7.8</ele><time>2011-04-29T23:36:30.0000000+00:00</time></trkpt><trkpt lat="21.159189" lon="106.063072"><ele>7.5</ele><time>2011-04-29T23:36:35.0000000+00:00</time></trkpt><trkpt lat="21.15966" lon="106.063812"><ele>8.7</ele><time>2011-04-29T23:36:40.0000000+00:00</time></trkpt><trkpt lat="21.160107" lon="106.064514"><ele>9.2</ele><time>2011-04-29T23:36:45.0000000+00:00</time></trkpt><trkpt lat="21.160568" lon="106.065239"><ele>10.5</ele><time>2011-04-29T23:36:50.0000000+00:00</time></trkpt><trkpt lat="21.16103" lon="106.065948"><ele>10.4</ele><time>2011-04-29T23:36:55.0000000+00:00</time></trkpt><trkpt lat="21.161465" lon="106.06665"><ele>7.1</ele><time>2011-04-29T23:37:00.0000000+00:00</time></trkpt><trkpt lat="21.161884" lon="106.067383"><ele>6.9</ele><time>2011-04-29T23:37:05.0000000+00:00</time></trkpt><trkpt lat="21.162256" lon="106.068077"><ele>6.4</ele><time>2011-04-29T23:37:10.0000000+00:00</time></trkpt><trkpt lat="21.162588" lon="106.068764"><ele>6.5</ele><time>2011-04-29T23:37:15.0000000+00:00</time></trkpt><trkpt lat="21.162951" lon="106.069595"><ele>6.6</ele><time>2011-04-29T23:37:20.0000000+00:00</time></trkpt><trkpt lat="21.163305" lon="106.070496"><ele>4.6</ele><time>2011-04-29T23:37:25.0000000+00:00</time></trkpt><trkpt lat="21.163633" lon="106.071442"><ele>6.2</ele><time>2011-04-29T23:37:30.0000000+00:00</time></trkpt><trkpt lat="21.163965" lon="106.072403"><ele>6.8</ele><time>2011-04-29T23:37:35.0000000+00:00</time></trkpt><trkpt lat="21.164215" lon="106.073334"><ele>6.4</ele><time>2011-04-29T23:37:40.0000000+00:00</time></trkpt><trkpt lat="21.16445" lon="106.074272"><ele>8.4</ele><time>2011-04-29T23:37:45.0000000+00:00</time></trkpt><trkpt lat="21.164684" lon="106.075264"><ele>8.2</ele><time>2011-04-29T23:37:50.0000000+00:00</time></trkpt><trkpt lat="21.164917" lon="106.076286"><ele>9.8</ele><time>2011-04-29T23:37:55.0000000+00:00</time></trkpt><trkpt lat="21.165173" lon="106.077293"><ele>8.9</ele><time>2011-04-29T23:38:00.0000000+00:00</time></trkpt><trkpt lat="21.165415" lon="106.078308"><ele>8.5</ele><time>2011-04-29T23:38:05.0000000+00:00</time></trkpt><trkpt lat="21.165676" lon="106.0793"><ele>10.8</ele><time>2011-04-29T23:38:10.0000000+00:00</time></trkpt><trkpt lat="21.165997" lon="106.080299"><ele>11.2</ele><time>2011-04-29T23:38:15.0000000+00:00</time></trkpt><trkpt lat="21.166349" lon="106.081253"><ele>8.1</ele><time>2011-04-29T23:38:20.0000000+00:00</time></trkpt><trkpt lat="21.166729" lon="106.082146"><ele>6.4</ele><time>2011-04-29T23:38:25.0000000+00:00</time></trkpt><trkpt lat="21.167154" lon="106.083038"><ele>6.8</ele><time>2011-04-29T23:38:30.0000000+00:00</time></trkpt><trkpt lat="21.167616" lon="106.0839"><ele>5.8</ele><time>2011-04-29T23:38:35.0000000+00:00</time></trkpt><trkpt lat="21.168089" lon="106.084663"><ele>5.9</ele><time>2011-04-29T23:38:40.0000000+00:00</time></trkpt><trkpt lat="21.168568" lon="106.085403"><ele>6.5</ele><time>2011-04-29T23:38:45.0000000+00:00</time></trkpt><trkpt lat="21.169107" lon="106.086121"><ele>8.2</ele><time>2011-04-29T23:38:50.0000000+00:00</time></trkpt><trkpt lat="21.169645" lon="106.086777"><ele>9.2</ele><time>2011-04-29T23:38:55.0000000+00:00</time></trkpt><trkpt lat="21.170151" lon="106.087379"><ele>9.8</ele><time>2011-04-29T23:39:00.0000000+00:00</time></trkpt><trkpt lat="21.170572" lon="106.087875"><ele>12.6</ele><time>2011-04-29T23:39:05.0000000+00:00</time></trkpt><trkpt lat="21.170902" lon="106.088249"><ele>13.3</ele><time>2011-04-29T23:39:10.0000000+00:00</time></trkpt><trkpt lat="21.171154" lon="106.088593"><ele>13.0</ele><time>2011-04-29T23:39:15.0000000+00:00</time></trkpt><trkpt lat="21.171335" lon="106.089066"><ele>9.6</ele><time>2011-04-29T23:39:20.0000000+00:00</time></trkpt><trkpt lat="21.171341" lon="106.089584"><ele>9.4</ele><time>2011-04-29T23:39:25.0000000+00:00</time></trkpt><trkpt lat="21.171225" lon="106.090164"><ele>5.5</ele><time>2011-04-29T23:39:30.0000000+00:00</time></trkpt><trkpt lat="21.171087" lon="106.09079"><ele>5.5</ele><time>2011-04-29T23:39:35.0000000+00:00</time></trkpt><trkpt lat="21.171022" lon="106.09137"><ele>3.5</ele><time>2011-04-29T23:39:40.0000000+00:00</time></trkpt><trkpt lat="21.171219" lon="106.091866"><ele>4.0</ele><time>2011-04-29T23:39:45.0000000+00:00</time></trkpt><trkpt lat="21.171558" lon="106.092163"><ele>6.2</ele><time>2011-04-29T23:39:50.0000000+00:00</time></trkpt><trkpt lat="21.171785" lon="106.092361"><ele>6.4</ele><time>2011-04-29T23:39:55.0000000+00:00</time></trkpt><trkpt lat="21.171837" lon="106.092659"><ele>8.9</ele><time>2011-04-29T23:40:00.0000000+00:00</time></trkpt><trkpt lat="21.171782" lon="106.092957"><ele>11.6</ele><time>2011-04-29T23:40:05.0000000+00:00</time></trkpt><trkpt lat="21.171753" lon="106.093086"><ele>12.6</ele><time>2011-04-29T23:40:10.0000000+00:00</time></trkpt><trkpt lat="21.171761" lon="106.093117"><ele>11.1</ele><time>2011-04-29T23:40:15.0000000+00:00</time></trkpt><trkpt lat="21.171764" lon="106.093124"><ele>12.0</ele><time>2011-04-29T23:40:20.0000000+00:00</time></trkpt><trkpt lat="21.171766" lon="106.093124"><ele>12.2</ele><time>2011-04-29T23:40:25.0000000+00:00</time></trkpt><trkpt lat="21.171772" lon="106.093124"><ele>12.2</ele><time>2011-04-29T23:40:30.0000000+00:00</time></trkpt><trkpt lat="21.171774" lon="106.093132"><ele>12.3</ele><time>2011-04-29T23:40:35.0000000+00:00</time></trkpt><trkpt lat="21.171774" lon="106.093124"><ele>12.3</ele><time>2011-04-29T23:40:40.0000000+00:00</time></trkpt><trkpt lat="21.171776" lon="106.093124"><ele>12.3</ele><time>2011-04-29T23:40:45.0000000+00:00</time></trkpt><trkpt lat="21.171778" lon="106.093124"><ele>12.3</ele><time>2011-04-29T23:40:50.0000000+00:00</time></trkpt><trkpt lat="21.171776" lon="106.093124"><ele>12.3</ele><time>2011-04-29T23:40:55.0000000+00:00</time></trkpt><trkpt lat="21.17178" lon="106.093124"><ele>12.3</ele><time>2011-04-29T23:41:00.0000000+00:00</time></trkpt><trkpt lat="21.171783" lon="106.093124"><ele>12.3</ele><time>2011-04-29T23:41:05.0000000+00:00</time></trkpt><trkpt lat="21.171785" lon="106.093124"><ele>12.3</ele><time>2011-04-29T23:41:10.0000000+00:00</time></trkpt><trkpt lat="21.171783" lon="106.093132"><ele>12.3</ele><time>2011-04-29T23:41:15.0000000+00:00</time></trkpt><trkpt lat="21.17178" lon="106.093124"><ele>12.3</ele><time>2011-04-29T23:41:20.0000000+00:00</time></trkpt><trkpt lat="21.171774" lon="106.093124"><ele>12.3</ele><time>2011-04-29T23:41:25.0000000+00:00</time></trkpt><trkpt lat="21.171772" lon="106.093124"><ele>12.4</ele><time>2011-04-29T23:41:30.0000000+00:00</time></trkpt><trkpt lat="21.17177" lon="106.093124"><ele>12.4</ele><time>2011-04-29T23:41:35.0000000+00:00</time></trkpt><trkpt lat="21.17177" lon="106.093124"><ele>12.4</ele><time>2011-04-29T23:41:40.0000000+00:00</time></trkpt><trkpt lat="21.17177" lon="106.093124"><ele>12.4</ele><time>2011-04-29T23:41:45.0000000+00:00</time></trkpt><trkpt lat="21.17177" lon="106.093124"><ele>12.4</ele><time>2011-04-29T23:41:50.0000000+00:00</time></trkpt><trkpt lat="21.171768" lon="106.093124"><ele>12.3</ele><time>2011-04-29T23:41:55.0000000+00:00</time></trkpt><trkpt lat="21.171768" lon="106.093124"><ele>12.3</ele><time>2011-04-29T23:42:00.0000000+00:00</time></trkpt><trkpt lat="21.171768" lon="106.093124"><ele>12.3</ele><time>2011-04-29T23:42:05.0000000+00:00</time></trkpt><trkpt lat="21.171768" lon="106.093124"><ele>12.3</ele><time>2011-04-29T23:42:10.0000000+00:00</time></trkpt><trkpt lat="21.171762" lon="106.093231"><ele>12.3</ele><time>2011-04-29T23:42:15.0000000+00:00</time></trkpt><trkpt lat="21.17169" lon="106.093575"><ele>12.6</ele><time>2011-04-29T23:42:20.0000000+00:00</time></trkpt><trkpt lat="21.171595" lon="106.09404"><ele>12.1</ele><time>2011-04-29T23:42:25.0000000+00:00</time></trkpt><trkpt lat="21.171465" lon="106.094612"><ele>12.1</ele><time>2011-04-29T23:42:30.0000000+00:00</time></trkpt><trkpt lat="21.171316" lon="106.0952"><ele>12.0</ele><time>2011-04-29T23:42:35.0000000+00:00</time></trkpt><trkpt lat="21.171181" lon="106.095818"><ele>14.3</ele><time>2011-04-29T23:42:40.0000000+00:00</time></trkpt><trkpt lat="21.171021" lon="106.096527"><ele>16.6</ele><time>2011-04-29T23:42:45.0000000+00:00</time></trkpt><trkpt lat="21.170841" lon="106.097252"><ele>19.2</ele><time>2011-04-29T23:42:50.0000000+00:00</time></trkpt><trkpt lat="21.170687" lon="106.0979"><ele>18.7</ele><time>2011-04-29T23:42:55.0000000+00:00</time></trkpt><trkpt lat="21.170519" lon="106.098549"><ele>17.8</ele><time>2011-04-29T23:43:00.0000000+00:00</time></trkpt><trkpt lat="21.170374" lon="106.09922"><ele>16.5</ele><time>2011-04-29T23:43:05.0000000+00:00</time></trkpt><trkpt lat="21.170246" lon="106.099831"><ele>15.9</ele><time>2011-04-29T23:43:10.0000000+00:00</time></trkpt><trkpt lat="21.170109" lon="106.100327"><ele>17.1</ele><time>2011-04-29T23:43:15.0000000+00:00</time></trkpt><trkpt lat="21.169996" lon="106.10083"><ele>18.7</ele><time>2011-04-29T23:43:20.0000000+00:00</time></trkpt><trkpt lat="21.169809" lon="106.101326"><ele>15.4</ele><time>2011-04-29T23:43:25.0000000+00:00</time></trkpt><trkpt lat="21.169514" lon="106.101814"><ele>15.3</ele><time>2011-04-29T23:43:30.0000000+00:00</time></trkpt><trkpt lat="21.169237" lon="106.102196"><ele>15.0</ele><time>2011-04-29T23:43:35.0000000+00:00</time></trkpt><trkpt lat="21.168951" lon="106.102623"><ele>17.0</ele><time>2011-04-29T23:43:40.0000000+00:00</time></trkpt><trkpt lat="21.168549" lon="106.103134"><ele>11.9</ele><time>2011-04-29T23:43:45.0000000+00:00</time></trkpt><trkpt lat="21.168129" lon="106.103714"><ele>10.5</ele><time>2011-04-29T23:43:50.0000000+00:00</time></trkpt><trkpt lat="21.167667" lon="106.104347"><ele>10.1</ele><time>2011-04-29T23:43:55.0000000+00:00</time></trkpt><trkpt lat="21.167204" lon="106.105019"><ele>6.6</ele><time>2011-04-29T23:44:00.0000000+00:00</time></trkpt><trkpt lat="21.166739" lon="106.105675"><ele>6.8</ele><time>2011-04-29T23:44:05.0000000+00:00</time></trkpt><trkpt lat="21.166283" lon="106.106285"><ele>4.9</ele><time>2011-04-29T23:44:10.0000000+00:00</time></trkpt><trkpt lat="21.165876" lon="106.106873"><ele>4.1</ele><time>2011-04-29T23:44:15.0000000+00:00</time></trkpt><trkpt lat="21.165531" lon="106.107368"><ele>5.7</ele><time>2011-04-29T23:44:20.0000000+00:00</time></trkpt><trkpt lat="21.165169" lon="106.107849"><ele>7.0</ele><time>2011-04-29T23:44:25.0000000+00:00</time></trkpt><trkpt lat="21.164814" lon="106.108322"><ele>7.9</ele><time>2011-04-29T23:44:30.0000000+00:00</time></trkpt><trkpt lat="21.164492" lon="106.108727"><ele>8.6</ele><time>2011-04-29T23:44:35.0000000+00:00</time></trkpt><trkpt lat="21.164145" lon="106.109131"><ele>8.8</ele><time>2011-04-29T23:44:40.0000000+00:00</time></trkpt><trkpt lat="21.163807" lon="106.109451"><ele>10.3</ele><time>2011-04-29T23:44:45.0000000+00:00</time></trkpt><trkpt lat="21.163456" lon="106.109779"><ele>11.4</ele><time>2011-04-29T23:44:50.0000000+00:00</time></trkpt><trkpt lat="21.163017" lon="106.110153"><ele>12.6</ele><time>2011-04-29T23:44:55.0000000+00:00</time></trkpt><trkpt lat="21.162588" lon="106.110527"><ele>12.2</ele><time>2011-04-29T23:45:00.0000000+00:00</time></trkpt><trkpt lat="21.162176" lon="106.110893"><ele>10.8</ele><time>2011-04-29T23:45:05.0000000+00:00</time></trkpt><trkpt lat="21.161779" lon="106.111237"><ele>11.2</ele><time>2011-04-29T23:45:10.0000000+00:00</time></trkpt><trkpt lat="21.161419" lon="106.111595"><ele>10.4</ele><time>2011-04-29T23:45:15.0000000+00:00</time></trkpt><trkpt lat="21.161022" lon="106.112007"><ele>10.4</ele><time>2011-04-29T23:45:20.0000000+00:00</time></trkpt><trkpt lat="21.160664" lon="106.112442"><ele>7.6</ele><time>2011-04-29T23:45:25.0000000+00:00</time></trkpt><trkpt lat="21.160416" lon="106.112793"><ele>4.7</ele><time>2011-04-29T23:45:30.0000000+00:00</time></trkpt><trkpt lat="21.160175" lon="106.113197"><ele>6.0</ele><time>2011-04-29T23:45:35.0000000+00:00</time></trkpt><trkpt lat="21.159904" lon="106.113663"><ele>10.7</ele><time>2011-04-29T23:45:40.0000000+00:00</time></trkpt><trkpt lat="21.15963" lon="106.114235"><ele>12.1</ele><time>2011-04-29T23:45:45.0000000+00:00</time></trkpt><trkpt lat="21.159416" lon="106.114777"><ele>11.5</ele><time>2011-04-29T23:45:50.0000000+00:00</time></trkpt><trkpt lat="21.159222" lon="106.11528"><ele>18.3</ele><time>2011-04-29T23:45:55.0000000+00:00</time></trkpt><trkpt lat="21.159103" lon="106.115837"><ele>21.6</ele><time>2011-04-29T23:46:00.0000000+00:00</time></trkpt><trkpt lat="21.159027" lon="106.116394"><ele>28.2</ele><time>2011-04-29T23:46:05.0000000+00:00</time></trkpt><trkpt lat="21.158915" lon="106.116959"><ele>30.2</ele><time>2011-04-29T23:46:10.0000000+00:00</time></trkpt><trkpt lat="21.158823" lon="106.117508"><ele>30.1</ele><time>2011-04-29T23:46:15.0000000+00:00</time></trkpt><trkpt lat="21.158714" lon="106.118088"><ele>28.4</ele><time>2011-04-29T23:46:20.0000000+00:00</time></trkpt><trkpt lat="21.158619" lon="106.118713"><ele>29.3</ele><time>2011-04-29T23:46:25.0000000+00:00</time></trkpt><trkpt lat="21.158531" lon="106.1194"><ele>28.6</ele><time>2011-04-29T23:46:30.0000000+00:00</time></trkpt><trkpt lat="21.158415" lon="106.12014"><ele>27.6</ele><time>2011-04-29T23:46:35.0000000+00:00</time></trkpt><trkpt lat="21.158278" lon="106.120949"><ele>27.0</ele><time>2011-04-29T23:46:40.0000000+00:00</time></trkpt><trkpt lat="21.158121" lon="106.121773"><ele>26.9</ele><time>2011-04-29T23:46:45.0000000+00:00</time></trkpt><trkpt lat="21.157991" lon="106.122665"><ele>25.9</ele><time>2011-04-29T23:46:50.0000000+00:00</time></trkpt><trkpt lat="21.157848" lon="106.123581"><ele>23.5</ele><time>2011-04-29T23:46:55.0000000+00:00</time></trkpt><trkpt lat="21.157717" lon="106.124496"><ele>22.5</ele><time>2011-04-29T23:47:00.0000000+00:00</time></trkpt><trkpt lat="21.157598" lon="106.125488"><ele>24.0</ele><time>2011-04-29T23:47:05.0000000+00:00</time></trkpt><trkpt lat="21.157427" lon="106.12648"><ele>24.1</ele><time>2011-04-29T23:47:10.0000000+00:00</time></trkpt><trkpt lat="21.157238" lon="106.127495"><ele>23.6</ele><time>2011-04-29T23:47:15.0000000+00:00</time></trkpt><trkpt lat="21.157074" lon="106.128479"><ele>24.0</ele><time>2011-04-29T23:47:20.0000000+00:00</time></trkpt><trkpt lat="21.156904" lon="106.129524"><ele>24.4</ele><time>2011-04-29T23:47:25.0000000+00:00</time></trkpt><trkpt lat="21.156731" lon="106.130554"><ele>24.7</ele><time>2011-04-29T23:47:30.0000000+00:00</time></trkpt><trkpt lat="21.156563" lon="106.131523"><ele>24.6</ele><time>2011-04-29T23:47:35.0000000+00:00</time></trkpt><trkpt lat="21.156406" lon="106.132446"><ele>24.0</ele><time>2011-04-29T23:47:40.0000000+00:00</time></trkpt><trkpt lat="21.156269" lon="106.133232"><ele>23.7</ele><time>2011-04-29T23:47:45.0000000+00:00</time></trkpt><trkpt lat="21.156151" lon="106.133919"><ele>24.2</ele><time>2011-04-29T23:47:50.0000000+00:00</time></trkpt><trkpt lat="21.156019" lon="106.134682"><ele>24.6</ele><time>2011-04-29T23:47:55.0000000+00:00</time></trkpt><trkpt lat="21.155865" lon="106.13549"><ele>24.8</ele><time>2011-04-29T23:48:00.0000000+00:00</time></trkpt><trkpt lat="21.155739" lon="106.136307"><ele>24.7</ele><time>2011-04-29T23:48:05.0000000+00:00</time></trkpt><trkpt lat="21.155628" lon="106.137177"><ele>24.4</ele><time>2011-04-29T23:48:10.0000000+00:00</time></trkpt><trkpt lat="21.155495" lon="106.138069"><ele>22.3</ele><time>2011-04-29T23:48:15.0000000+00:00</time></trkpt><trkpt lat="21.155363" lon="106.138985"><ele>20.8</ele><time>2011-04-29T23:48:20.0000000+00:00</time></trkpt><trkpt lat="21.15521" lon="106.139809"><ele>20.7</ele><time>2011-04-29T23:48:25.0000000+00:00</time></trkpt><trkpt lat="21.155077" lon="106.140671"><ele>22.9</ele><time>2011-04-29T23:48:30.0000000+00:00</time></trkpt><trkpt lat="21.154921" lon="106.141533"><ele>21.7</ele><time>2011-04-29T23:48:35.0000000+00:00</time></trkpt><trkpt lat="21.154768" lon="106.142448"><ele>21.2</ele><time>2011-04-29T23:48:40.0000000+00:00</time></trkpt><trkpt lat="21.154623" lon="106.143326"><ele>20.6</ele><time>2011-04-29T23:48:45.0000000+00:00</time></trkpt><trkpt lat="21.154484" lon="106.144112"><ele>19.4</ele><time>2011-04-29T23:48:50.0000000+00:00</time></trkpt><trkpt lat="21.154369" lon="106.144814"><ele>18.6</ele><time>2011-04-29T23:48:55.0000000+00:00</time></trkpt><trkpt lat="21.154257" lon="106.145531"><ele>17.7</ele><time>2011-04-29T23:49:00.0000000+00:00</time></trkpt><trkpt lat="21.154131" lon="106.146263"><ele>17.1</ele><time>2011-04-29T23:49:05.0000000+00:00</time></trkpt><trkpt lat="21.15402" lon="106.146957"><ele>16.4</ele><time>2011-04-29T23:49:10.0000000+00:00</time></trkpt><trkpt lat="21.153898" lon="106.147713"><ele>16.2</ele><time>2011-04-29T23:49:15.0000000+00:00</time></trkpt><trkpt lat="21.153776" lon="106.148521"><ele>17.1</ele><time>2011-04-29T23:49:20.0000000+00:00</time></trkpt><trkpt lat="21.153639" lon="106.149231"><ele>18.3</ele><time>2011-04-29T23:49:25.0000000+00:00</time></trkpt><trkpt lat="21.15354" lon="106.149857"><ele>18.0</ele><time>2011-04-29T23:49:30.0000000+00:00</time></trkpt><trkpt lat="21.153433" lon="106.150482"><ele>18.6</ele><time>2011-04-29T23:49:35.0000000+00:00</time></trkpt><trkpt lat="21.153395" lon="106.150925"><ele>19.1</ele><time>2011-04-29T23:49:40.0000000+00:00</time></trkpt><trkpt lat="21.153425" lon="106.151077"><ele>20.0</ele><time>2011-04-29T23:49:45.0000000+00:00</time></trkpt><trkpt lat="21.153402" lon="106.15123"><ele>18.5</ele><time>2011-04-29T23:49:50.0000000+00:00</time></trkpt><trkpt lat="21.153364" lon="106.151299"><ele>18.1</ele><time>2011-04-29T23:49:55.0000000+00:00</time></trkpt><trkpt lat="21.153353" lon="106.151421"><ele>19.4</ele><time>2011-04-29T23:50:00.0000000+00:00</time></trkpt><trkpt lat="21.153286" lon="106.151672"><ele>17.3</ele><time>2011-04-29T23:50:05.0000000+00:00</time></trkpt><trkpt lat="21.153273" lon="106.151985"><ele>18.2</ele><time>2011-04-29T23:50:10.0000000+00:00</time></trkpt><trkpt lat="21.153128" lon="106.152534"><ele>17.6</ele><time>2011-04-29T23:50:15.0000000+00:00</time></trkpt><trkpt lat="21.153004" lon="106.153122"><ele>17.0</ele><time>2011-04-29T23:50:20.0000000+00:00</time></trkpt><trkpt lat="21.15291" lon="106.153786"><ele>15.8</ele><time>2011-04-29T23:50:25.0000000+00:00</time></trkpt><trkpt lat="21.152826" lon="106.154442"><ele>13.7</ele><time>2011-04-29T23:50:30.0000000+00:00</time></trkpt><trkpt lat="21.152714" lon="106.155128"><ele>13.0</ele><time>2011-04-29T23:50:35.0000000+00:00</time></trkpt><trkpt lat="21.152609" lon="106.155823"><ele>11.9</ele><time>2011-04-29T23:50:40.0000000+00:00</time></trkpt><trkpt lat="21.152506" lon="106.156555"><ele>11.3</ele><time>2011-04-29T23:50:45.0000000+00:00</time></trkpt><trkpt lat="21.152456" lon="106.157272"><ele>10.1</ele><time>2011-04-29T23:50:50.0000000+00:00</time></trkpt><trkpt lat="21.152397" lon="106.158058"><ele>9.0</ele><time>2011-04-29T23:50:55.0000000+00:00</time></trkpt><trkpt lat="21.152237" lon="106.158913"><ele>9.0</ele><time>2011-04-29T23:51:00.0000000+00:00</time></trkpt><trkpt lat="21.152102" lon="106.15976"><ele>8.4</ele><time>2011-04-29T23:51:05.0000000+00:00</time></trkpt><trkpt lat="21.151955" lon="106.160599"><ele>12.7</ele><time>2011-04-29T23:51:10.0000000+00:00</time></trkpt><trkpt lat="21.151762" lon="106.161469"><ele>17.0</ele><time>2011-04-29T23:51:15.0000000+00:00</time></trkpt><trkpt lat="21.151506" lon="106.162277"><ele>17.9</ele><time>2011-04-29T23:51:20.0000000+00:00</time></trkpt><trkpt lat="21.151178" lon="106.163033"><ele>17.6</ele><time>2011-04-29T23:51:25.0000000+00:00</time></trkpt><trkpt lat="21.150854" lon="106.163673"><ele>17.3</ele><time>2011-04-29T23:51:30.0000000+00:00</time></trkpt><trkpt lat="21.150503" lon="106.164124"><ele>15.1</ele><time>2011-04-29T23:51:35.0000000+00:00</time></trkpt><trkpt lat="21.150068" lon="106.164734"><ele>16.4</ele><time>2011-04-29T23:51:40.0000000+00:00</time></trkpt><trkpt lat="21.14957" lon="106.165398"><ele>17.8</ele><time>2011-04-29T23:51:45.0000000+00:00</time></trkpt><trkpt lat="21.149014" lon="106.166054"><ele>18.7</ele><time>2011-04-29T23:51:50.0000000+00:00</time></trkpt><trkpt lat="21.148476" lon="106.166725"><ele>18.9</ele><time>2011-04-29T23:51:55.0000000+00:00</time></trkpt><trkpt lat="21.147882" lon="106.167397"><ele>18.5</ele><time>2011-04-29T23:52:00.0000000+00:00</time></trkpt><trkpt lat="21.14723" lon="106.168091"><ele>19.2</ele><time>2011-04-29T23:52:05.0000000+00:00</time></trkpt><trkpt lat="21.146553" lon="106.1688"><ele>19.1</ele><time>2011-04-29T23:52:10.0000000+00:00</time></trkpt><trkpt lat="21.145889" lon="106.169525"><ele>18.9</ele><time>2011-04-29T23:52:15.0000000+00:00</time></trkpt><trkpt lat="21.145208" lon="106.170258"><ele>15.8</ele><time>2011-04-29T23:52:20.0000000+00:00</time></trkpt><trkpt lat="21.14451" lon="106.170998"><ele>16.4</ele><time>2011-04-29T23:52:25.0000000+00:00</time></trkpt><trkpt lat="21.143835" lon="106.171738"><ele>16.4</ele><time>2011-04-29T23:52:30.0000000+00:00</time></trkpt><trkpt lat="21.143166" lon="106.172432"><ele>17.2</ele><time>2011-04-29T23:52:35.0000000+00:00</time></trkpt><trkpt lat="21.142485" lon="106.173164"><ele>17.9</ele><time>2011-04-29T23:52:40.0000000+00:00</time></trkpt><trkpt lat="21.141794" lon="106.173927"><ele>17.3</ele><time>2011-04-29T23:52:45.0000000+00:00</time></trkpt><trkpt lat="21.141075" lon="106.174652"><ele>16.2</ele><time>2011-04-29T23:52:50.0000000+00:00</time></trkpt><trkpt lat="21.140347" lon="106.175301"><ele>13.4</ele><time>2011-04-29T23:52:55.0000000+00:00</time></trkpt><trkpt lat="21.139635" lon="106.175911"><ele>13.2</ele><time>2011-04-29T23:53:00.0000000+00:00</time></trkpt><trkpt lat="21.138968" lon="106.17662"><ele>14.6</ele><time>2011-04-29T23:53:05.0000000+00:00</time></trkpt><trkpt lat="21.138418" lon="106.177414"><ele>14.5</ele><time>2011-04-29T23:53:10.0000000+00:00</time></trkpt><trkpt lat="21.138021" lon="106.178246"><ele>14.1</ele><time>2011-04-29T23:53:15.0000000+00:00</time></trkpt><trkpt lat="21.137663" lon="106.179077"><ele>11.2</ele><time>2011-04-29T23:53:20.0000000+00:00</time></trkpt><trkpt lat="21.137321" lon="106.179901"><ele>10.6</ele><time>2011-04-29T23:53:25.0000000+00:00</time></trkpt><trkpt lat="21.136929" lon="106.180779"><ele>8.6</ele><time>2011-04-29T23:53:30.0000000+00:00</time></trkpt><trkpt lat="21.136463" lon="106.181648"><ele>9.1</ele><time>2011-04-29T23:53:35.0000000+00:00</time></trkpt><trkpt lat="21.135952" lon="106.182526"><ele>11.1</ele><time>2011-04-29T23:53:40.0000000+00:00</time></trkpt><trkpt lat="21.135462" lon="106.183372"><ele>12.2</ele><time>2011-04-29T23:53:45.0000000+00:00</time></trkpt><trkpt lat="21.134995" lon="106.184128"><ele>10.9</ele><time>2011-04-29T23:53:50.0000000+00:00</time></trkpt><trkpt lat="21.134546" lon="106.184868"><ele>9.6</ele><time>2011-04-29T23:53:55.0000000+00:00</time></trkpt><trkpt lat="21.134113" lon="106.185623"><ele>9.5</ele><time>2011-04-29T23:54:00.0000000+00:00</time></trkpt><trkpt lat="21.133677" lon="106.186363"><ele>8.5</ele><time>2011-04-29T23:54:05.0000000+00:00</time></trkpt><trkpt lat="21.133251" lon="106.187065"><ele>8.0</ele><time>2011-04-29T23:54:10.0000000+00:00</time></trkpt><trkpt lat="21.132874" lon="106.187759"><ele>8.1</ele><time>2011-04-29T23:54:15.0000000+00:00</time></trkpt><trkpt lat="21.13257" lon="106.188507"><ele>10.5</ele><time>2011-04-29T23:54:20.0000000+00:00</time></trkpt><trkpt lat="21.132248" lon="106.189331"><ele>13.3</ele><time>2011-04-29T23:54:25.0000000+00:00</time></trkpt><trkpt lat="21.131886" lon="106.190186"><ele>15.5</ele><time>2011-04-29T23:54:30.0000000+00:00</time></trkpt><trkpt lat="21.131519" lon="106.191116"><ele>15.1</ele><time>2011-04-29T23:54:35.0000000+00:00</time></trkpt><trkpt lat="21.131161" lon="106.192078"><ele>14.9</ele><time>2011-04-29T23:54:40.0000000+00:00</time></trkpt><trkpt lat="21.130804" lon="106.193001"><ele>14.8</ele><time>2011-04-29T23:54:45.0000000+00:00</time></trkpt><trkpt lat="21.130449" lon="106.193909"><ele>13.6</ele><time>2011-04-29T23:54:50.0000000+00:00</time></trkpt><trkpt lat="21.130074" lon="106.194786"><ele>13.8</ele><time>2011-04-29T23:54:55.0000000+00:00</time></trkpt><trkpt lat="21.129686" lon="106.195625"><ele>12.7</ele><time>2011-04-29T23:55:00.0000000+00:00</time></trkpt><trkpt lat="21.129259" lon="106.196426"><ele>11.4</ele><time>2011-04-29T23:55:05.0000000+00:00</time></trkpt><trkpt lat="21.128803" lon="106.197205"><ele>9.1</ele><time>2011-04-29T23:55:10.0000000+00:00</time></trkpt><trkpt lat="21.128353" lon="106.19796"><ele>7.5</ele><time>2011-04-29T23:55:15.0000000+00:00</time></trkpt><trkpt lat="21.127974" lon="106.198616"><ele>7.3</ele><time>2011-04-29T23:55:20.0000000+00:00</time></trkpt><trkpt lat="21.127811" lon="106.198921"><ele>5.9</ele><time>2011-04-29T23:55:25.0000000+00:00</time></trkpt><trkpt lat="21.127794" lon="106.198921"><ele>4.4</ele><time>2011-04-29T23:55:30.0000000+00:00</time></trkpt><trkpt lat="21.127802" lon="106.198929"><ele>4.1</ele><time>2011-04-29T23:55:35.0000000+00:00</time></trkpt><trkpt lat="21.127811" lon="106.198929"><ele>4.0</ele><time>2011-04-29T23:55:40.0000000+00:00</time></trkpt><trkpt lat="21.127815" lon="106.198929"><ele>3.9</ele><time>2011-04-29T23:55:45.0000000+00:00</time></trkpt><trkpt lat="21.127815" lon="106.198929"><ele>3.9</ele><time>2011-04-29T23:55:50.0000000+00:00</time></trkpt><trkpt lat="21.127813" lon="106.198929"><ele>3.9</ele><time>2011-04-29T23:55:55.0000000+00:00</time></trkpt><trkpt lat="21.127815" lon="106.198929"><ele>3.9</ele><time>2011-04-29T23:56:00.0000000+00:00</time></trkpt><trkpt lat="21.127819" lon="106.198936"><ele>3.9</ele><time>2011-04-29T23:56:05.0000000+00:00</time></trkpt><trkpt lat="21.127781" lon="106.199013"><ele>4.0</ele><time>2011-04-29T23:56:10.0000000+00:00</time></trkpt><trkpt lat="21.127636" lon="106.199326"><ele>4.4</ele><time>2011-04-29T23:56:15.0000000+00:00</time></trkpt><trkpt lat="21.127396" lon="106.199684"><ele>5.5</ele><time>2011-04-29T23:56:20.0000000+00:00</time></trkpt><trkpt lat="21.127115" lon="106.200165"><ele>6.2</ele><time>2011-04-29T23:56:25.0000000+00:00</time></trkpt><trkpt lat="21.126814" lon="106.200676"><ele>9.3</ele><time>2011-04-29T23:56:30.0000000+00:00</time></trkpt><trkpt lat="21.126518" lon="106.201218"><ele>9.8</ele><time>2011-04-29T23:56:35.0000000+00:00</time></trkpt><trkpt lat="21.126244" lon="106.20182"><ele>7.3</ele><time>2011-04-29T23:56:40.0000000+00:00</time></trkpt><trkpt lat="21.126007" lon="106.2024"><ele>4.9</ele><time>2011-04-29T23:56:45.0000000+00:00</time></trkpt><trkpt lat="21.125803" lon="106.203079"><ele>3.7</ele><time>2011-04-29T23:56:50.0000000+00:00</time></trkpt><trkpt lat="21.12561" lon="106.203804"><ele>3.1</ele><time>2011-04-29T23:56:55.0000000+00:00</time></trkpt><trkpt lat="21.125469" lon="106.204605"><ele>4.3</ele><time>2011-04-29T23:57:00.0000000+00:00</time></trkpt><trkpt lat="21.125338" lon="106.205421"><ele>8.4</ele><time>2011-04-29T23:57:05.0000000+00:00</time></trkpt><trkpt lat="21.125233" lon="106.206268"><ele>9.2</ele><time>2011-04-29T23:57:10.0000000+00:00</time></trkpt><trkpt lat="21.125118" lon="106.207123"><ele>8.5</ele><time>2011-04-29T23:57:15.0000000+00:00</time></trkpt><trkpt lat="21.125006" lon="106.207977"><ele>7.7</ele><time>2011-04-29T23:57:20.0000000+00:00</time></trkpt><trkpt lat="21.124899" lon="106.2089"><ele>6.5</ele><time>2011-04-29T23:57:25.0000000+00:00</time></trkpt><trkpt lat="21.124763" lon="106.209869"><ele>6.1</ele><time>2011-04-29T23:57:30.0000000+00:00</time></trkpt><trkpt lat="21.124622" lon="106.210854"><ele>6.0</ele><time>2011-04-29T23:57:35.0000000+00:00</time></trkpt><trkpt lat="21.124483" lon="106.211853"><ele>7.6</ele><time>2011-04-29T23:57:40.0000000+00:00</time></trkpt><trkpt lat="21.124357" lon="106.212822"><ele>7.8</ele><time>2011-04-29T23:57:45.0000000+00:00</time></trkpt><trkpt lat="21.124241" lon="106.213776"><ele>9.0</ele><time>2011-04-29T23:57:50.0000000+00:00</time></trkpt><trkpt lat="21.124126" lon="106.214714"><ele>8.7</ele><time>2011-04-29T23:57:55.0000000+00:00</time></trkpt><trkpt lat="21.124004" lon="106.215698"><ele>8.2</ele><time>2011-04-29T23:58:00.0000000+00:00</time></trkpt><trkpt lat="21.12389" lon="106.216713"><ele>6.9</ele><time>2011-04-29T23:58:05.0000000+00:00</time></trkpt><trkpt lat="21.123775" lon="106.217728"><ele>7.2</ele><time>2011-04-29T23:58:10.0000000+00:00</time></trkpt><trkpt lat="21.123646" lon="106.218681"><ele>7.9</ele><time>2011-04-29T23:58:15.0000000+00:00</time></trkpt><trkpt lat="21.123547" lon="106.219673"><ele>10.6</ele><time>2011-04-29T23:58:20.0000000+00:00</time></trkpt><trkpt lat="21.123413" lon="106.220657"><ele>11.0</ele><time>2011-04-29T23:58:25.0000000+00:00</time></trkpt><trkpt lat="21.12328" lon="106.221649"><ele>10.6</ele><time>2011-04-29T23:58:30.0000000+00:00</time></trkpt><trkpt lat="21.123154" lon="106.222656"><ele>10.1</ele><time>2011-04-29T23:58:35.0000000+00:00</time></trkpt><trkpt lat="21.123014" lon="106.223625"><ele>9.0</ele><time>2011-04-29T23:58:40.0000000+00:00</time></trkpt><trkpt lat="21.122887" lon="106.224487"><ele>8.7</ele><time>2011-04-29T23:58:45.0000000+00:00</time></trkpt><trkpt lat="21.122768" lon="106.225342"><ele>6.7</ele><time>2011-04-29T23:58:50.0000000+00:00</time></trkpt><trkpt lat="21.122658" lon="106.226204"><ele>5.5</ele><time>2011-04-29T23:58:55.0000000+00:00</time></trkpt><trkpt lat="21.122547" lon="106.227066"><ele>7.3</ele><time>2011-04-29T23:59:00.0000000+00:00</time></trkpt><trkpt lat="21.122433" lon="106.227882"><ele>6.1</ele><time>2011-04-29T23:59:05.0000000+00:00</time></trkpt><trkpt lat="21.122328" lon="106.22876"><ele>5.0</ele><time>2011-04-29T23:59:10.0000000+00:00</time></trkpt><trkpt lat="21.122202" lon="106.229614"><ele>6.4</ele><time>2011-04-29T23:59:15.0000000+00:00</time></trkpt><trkpt lat="21.122072" lon="106.230522"><ele>6.8</ele><time>2011-04-29T23:59:20.0000000+00:00</time></trkpt><trkpt lat="21.121965" lon="106.231461"><ele>6.4</ele><time>2011-04-29T23:59:25.0000000+00:00</time></trkpt><trkpt lat="21.121841" lon="106.232407"><ele>6.1</ele><time>2011-04-29T23:59:30.0000000+00:00</time></trkpt><trkpt lat="21.121712" lon="106.23333"><ele>7.8</ele><time>2011-04-29T23:59:35.0000000+00:00</time></trkpt><trkpt lat="21.121584" lon="106.234261"><ele>8.4</ele><time>2011-04-29T23:59:40.0000000+00:00</time></trkpt><trkpt lat="21.121468" lon="106.235222"><ele>9.4</ele><time>2011-04-29T23:59:45.0000000+00:00</time></trkpt><trkpt lat="21.121349" lon="106.236191"><ele>10.3</ele><time>2011-04-29T23:59:50.0000000+00:00</time></trkpt><trkpt lat="21.121222" lon="106.23716"><ele>10.8</ele><time>2011-04-29T23:59:55.0000000+00:00</time></trkpt><trkpt lat="21.121101" lon="106.238106"><ele>12.0</ele><time>2011-04-30T00:00:00.0000000+00:00</time></trkpt><trkpt lat="21.120989" lon="106.239059"><ele>11.9</ele><time>2011-04-30T00:00:05.0000000+00:00</time></trkpt><trkpt lat="21.120871" lon="106.240021"><ele>11.2</ele><time>2011-04-30T00:00:10.0000000+00:00</time></trkpt><trkpt lat="21.12076" lon="106.240952"><ele>10.4</ele><time>2011-04-30T00:00:15.0000000+00:00</time></trkpt><trkpt lat="21.120655" lon="106.241837"><ele>9.6</ele><time>2011-04-30T00:00:20.0000000+00:00</time></trkpt><trkpt lat="21.12056" lon="106.242668"><ele>8.2</ele><time>2011-04-30T00:00:25.0000000+00:00</time></trkpt><trkpt lat="21.120483" lon="106.243401"><ele>5.6</ele><time>2011-04-30T00:00:30.0000000+00:00</time></trkpt><trkpt lat="21.120415" lon="106.244034"><ele>4.1</ele><time>2011-04-30T00:00:35.0000000+00:00</time></trkpt><trkpt lat="21.120354" lon="106.244652"><ele>2.5</ele><time>2011-04-30T00:00:40.0000000+00:00</time></trkpt><trkpt lat="21.120274" lon="106.245384"><ele>1.9</ele><time>2011-04-30T00:00:45.0000000+00:00</time></trkpt><trkpt lat="21.120199" lon="106.246193"><ele>0.7</ele><time>2011-04-30T00:00:50.0000000+00:00</time></trkpt><trkpt lat="21.120117" lon="106.24704"><ele>0.6</ele><time>2011-04-30T00:00:55.0000000+00:00</time></trkpt><trkpt lat="21.120003" lon="106.247871"><ele>-0.0</ele><time>2011-04-30T00:01:00.0000000+00:00</time></trkpt><trkpt lat="21.119907" lon="106.248596"><ele>-0.6</ele><time>2011-04-30T00:01:05.0000000+00:00</time></trkpt><trkpt lat="21.119871" lon="106.249031"><ele>0.3</ele><time>2011-04-30T00:01:10.0000000+00:00</time></trkpt><trkpt lat="21.119864" lon="106.24913"><ele>0.7</ele><time>2011-04-30T00:01:15.0000000+00:00</time></trkpt><trkpt lat="21.119848" lon="106.249138"><ele>1.9</ele><time>2011-04-30T00:01:20.0000000+00:00</time></trkpt><trkpt lat="21.119846" lon="106.249138"><ele>1.9</ele><time>2011-04-30T00:01:25.0000000+00:00</time></trkpt><trkpt lat="21.119844" lon="106.249146"><ele>1.9</ele><time>2011-04-30T00:01:30.0000000+00:00</time></trkpt><trkpt lat="21.11985" lon="106.249146"><ele>1.9</ele><time>2011-04-30T00:01:35.0000000+00:00</time></trkpt><trkpt lat="21.11986" lon="106.249138"><ele>1.9</ele><time>2011-04-30T00:01:40.0000000+00:00</time></trkpt><trkpt lat="21.119862" lon="106.249146"><ele>1.9</ele><time>2011-04-30T00:01:45.0000000+00:00</time></trkpt><trkpt lat="21.119862" lon="106.249153"><ele>1.9</ele><time>2011-04-30T00:01:50.0000000+00:00</time></trkpt><trkpt lat="21.119858" lon="106.249161"><ele>1.9</ele><time>2011-04-30T00:01:55.0000000+00:00</time></trkpt><trkpt lat="21.119854" lon="106.249168"><ele>1.9</ele><time>2011-04-30T00:02:00.0000000+00:00</time></trkpt><trkpt lat="21.11985" lon="106.249168"><ele>1.9</ele><time>2011-04-30T00:02:05.0000000+00:00</time></trkpt><trkpt lat="21.119848" lon="106.249207"><ele>1.7</ele><time>2011-04-30T00:02:10.0000000+00:00</time></trkpt><trkpt lat="21.119818" lon="106.249435"><ele>1.9</ele><time>2011-04-30T00:02:15.0000000+00:00</time></trkpt><trkpt lat="21.119787" lon="106.249771"><ele>3.6</ele><time>2011-04-30T00:02:20.0000000+00:00</time></trkpt><trkpt lat="21.119724" lon="106.250313"><ele>4.7</ele><time>2011-04-30T00:02:25.0000000+00:00</time></trkpt><trkpt lat="21.119658" lon="106.2509"><ele>5.2</ele><time>2011-04-30T00:02:30.0000000+00:00</time></trkpt><trkpt lat="21.119562" lon="106.251541"><ele>4.1</ele><time>2011-04-30T00:02:35.0000000+00:00</time></trkpt><trkpt lat="21.119457" lon="106.252312"><ele>3.8</ele><time>2011-04-30T00:02:40.0000000+00:00</time></trkpt><trkpt lat="21.119329" lon="106.253159"><ele>6.1</ele><time>2011-04-30T00:02:45.0000000+00:00</time></trkpt><trkpt lat="21.119205" lon="106.254013"><ele>6.9</ele><time>2011-04-30T00:02:50.0000000+00:00</time></trkpt><trkpt lat="21.119083" lon="106.254875"><ele>6.5</ele><time>2011-04-30T00:02:55.0000000+00:00</time></trkpt><trkpt lat="21.118969" lon="106.255745"><ele>7.1</ele><time>2011-04-30T00:03:00.0000000+00:00</time></trkpt><trkpt lat="21.11886" lon="106.25663"><ele>7.4</ele><time>2011-04-30T00:03:05.0000000+00:00</time></trkpt><trkpt lat="21.118725" lon="106.257545"><ele>7.3</ele><time>2011-04-30T00:03:10.0000000+00:00</time></trkpt><trkpt lat="21.118605" lon="106.258492"><ele>7.4</ele><time>2011-04-30T00:03:15.0000000+00:00</time></trkpt><trkpt lat="21.118513" lon="106.259445"><ele>7.5</ele><time>2011-04-30T00:03:20.0000000+00:00</time></trkpt><trkpt lat="21.118393" lon="106.260361"><ele>9.5</ele><time>2011-04-30T00:03:25.0000000+00:00</time></trkpt><trkpt lat="21.118298" lon="106.2612"><ele>9.8</ele><time>2011-04-30T00:03:30.0000000+00:00</time></trkpt><trkpt lat="21.118202" lon="106.2621"><ele>10.2</ele><time>2011-04-30T00:03:35.0000000+00:00</time></trkpt><trkpt lat="21.118082" lon="106.263031"><ele>10.0</ele><time>2011-04-30T00:03:40.0000000+00:00</time></trkpt><trkpt lat="21.11797" lon="106.263992"><ele>10.4</ele><time>2011-04-30T00:03:45.0000000+00:00</time></trkpt><trkpt lat="21.117844" lon="106.264946"><ele>8.4</ele><time>2011-04-30T00:03:50.0000000+00:00</time></trkpt><trkpt lat="21.117739" lon="106.265884"><ele>8.3</ele><time>2011-04-30T00:03:55.0000000+00:00</time></trkpt><trkpt lat="21.117626" lon="106.266823"><ele>8.7</ele><time>2011-04-30T00:04:00.0000000+00:00</time></trkpt><trkpt lat="21.117514" lon="106.267746"><ele>8.4</ele><time>2011-04-30T00:04:05.0000000+00:00</time></trkpt><trkpt lat="21.117407" lon="106.268631"><ele>9.5</ele><time>2011-04-30T00:04:10.0000000+00:00</time></trkpt><trkpt lat="21.117296" lon="106.269539"><ele>11.2</ele><time>2011-04-30T00:04:15.0000000+00:00</time></trkpt><trkpt lat="21.117197" lon="106.270447"><ele>11.0</ele><time>2011-04-30T00:04:20.0000000+00:00</time></trkpt><trkpt lat="21.117086" lon="106.271324"><ele>8.4</ele><time>2011-04-30T00:04:25.0000000+00:00</time></trkpt><trkpt lat="21.116989" lon="106.27211"><ele>5.3</ele><time>2011-04-30T00:04:30.0000000+00:00</time></trkpt><trkpt lat="21.116926" lon="106.272728"><ele>5.5</ele><time>2011-04-30T00:04:35.0000000+00:00</time></trkpt><trkpt lat="21.116859" lon="106.273346"><ele>4.8</ele><time>2011-04-30T00:04:40.0000000+00:00</time></trkpt><trkpt lat="21.116787" lon="106.274025"><ele>3.5</ele><time>2011-04-30T00:04:45.0000000+00:00</time></trkpt><trkpt lat="21.116707" lon="106.274658"><ele>3.8</ele><time>2011-04-30T00:04:50.0000000+00:00</time></trkpt><trkpt lat="21.116644" lon="106.275246"><ele>2.0</ele><time>2011-04-30T00:04:55.0000000+00:00</time></trkpt><trkpt lat="21.116552" lon="106.275757"><ele>3.0</ele><time>2011-04-30T00:05:00.0000000+00:00</time></trkpt><trkpt lat="21.116493" lon="106.276154"><ele>3.7</ele><time>2011-04-30T00:05:05.0000000+00:00</time></trkpt><trkpt lat="21.116484" lon="106.276329"><ele>3.3</ele><time>2011-04-30T00:05:10.0000000+00:00</time></trkpt><trkpt lat="21.116484" lon="106.276413"><ele>3.2</ele><time>2011-04-30T00:05:15.0000000+00:00</time></trkpt><trkpt lat="21.116491" lon="106.276421"><ele>3.4</ele><time>2011-04-30T00:05:20.0000000+00:00</time></trkpt><trkpt lat="21.116495" lon="106.276436"><ele>3.4</ele><time>2011-04-30T00:05:25.0000000+00:00</time></trkpt><trkpt lat="21.116486" lon="106.276497"><ele>3.1</ele><time>2011-04-30T00:05:30.0000000+00:00</time></trkpt><trkpt lat="21.116484" lon="106.276779"><ele>2.2</ele><time>2011-04-30T00:05:35.0000000+00:00</time></trkpt><trkpt lat="21.116493" lon="106.277245"><ele>0.6</ele><time>2011-04-30T00:05:40.0000000+00:00</time></trkpt><trkpt lat="21.116493" lon="106.277779"><ele>0.1</ele><time>2011-04-30T00:05:45.0000000+00:00</time></trkpt><trkpt lat="21.116512" lon="106.278358"><ele>0.1</ele><time>2011-04-30T00:05:50.0000000+00:00</time></trkpt><trkpt lat="21.116587" lon="106.279045"><ele>-0.7</ele><time>2011-04-30T00:05:55.0000000+00:00</time></trkpt><trkpt lat="21.116713" lon="106.279793"><ele>-0.0</ele><time>2011-04-30T00:06:00.0000000+00:00</time></trkpt><trkpt lat="21.116875" lon="106.280548"><ele>1.1</ele><time>2011-04-30T00:06:05.0000000+00:00</time></trkpt><trkpt lat="21.117096" lon="106.28138"><ele>1.1</ele><time>2011-04-30T00:06:10.0000000+00:00</time></trkpt><trkpt lat="21.117344" lon="106.282204"><ele>2.7</ele><time>2011-04-30T00:06:15.0000000+00:00</time></trkpt><trkpt lat="21.117575" lon="106.282997"><ele>2.4</ele><time>2011-04-30T00:06:20.0000000+00:00</time></trkpt><trkpt lat="21.117723" lon="106.283791"><ele>2.6</ele><time>2011-04-30T00:06:25.0000000+00:00</time></trkpt><trkpt lat="21.11779" lon="106.284615"><ele>2.2</ele><time>2011-04-30T00:06:30.0000000+00:00</time></trkpt><trkpt lat="21.117723" lon="106.285431"><ele>2.6</ele><time>2011-04-30T00:06:35.0000000+00:00</time></trkpt><trkpt lat="21.117537" lon="106.28627"><ele>2.8</ele><time>2011-04-30T00:06:40.0000000+00:00</time></trkpt><trkpt lat="21.117252" lon="106.287132"><ele>3.5</ele><time>2011-04-30T00:06:45.0000000+00:00</time></trkpt><trkpt lat="21.116938" lon="106.28804"><ele>4.3</ele><time>2011-04-30T00:06:50.0000000+00:00</time></trkpt><trkpt lat="21.116587" lon="106.288918"><ele>6.5</ele><time>2011-04-30T00:06:55.0000000+00:00</time></trkpt><trkpt lat="21.116278" lon="106.28978"><ele>8.1</ele><time>2011-04-30T00:07:00.0000000+00:00</time></trkpt><trkpt lat="21.115993" lon="106.290642"><ele>9.1</ele><time>2011-04-30T00:07:05.0000000+00:00</time></trkpt><trkpt lat="21.115696" lon="106.291504"><ele>9.1</ele><time>2011-04-30T00:07:10.0000000+00:00</time></trkpt><trkpt lat="21.115391" lon="106.292366"><ele>10.4</ele><time>2011-04-30T00:07:15.0000000+00:00</time></trkpt><trkpt lat="21.11508" lon="106.293266"><ele>11.2</ele><time>2011-04-30T00:07:20.0000000+00:00</time></trkpt><trkpt lat="21.11478" lon="106.294174"><ele>9.6</ele><time>2011-04-30T00:07:25.0000000+00:00</time></trkpt><trkpt lat="21.114515" lon="106.294914"><ele>11.2</ele><time>2011-04-30T00:07:30.0000000+00:00</time></trkpt><trkpt lat="21.11429" lon="106.295578"><ele>12.7</ele><time>2011-04-30T00:07:35.0000000+00:00</time></trkpt><trkpt lat="21.114061" lon="106.296265"><ele>12.2</ele><time>2011-04-30T00:07:40.0000000+00:00</time></trkpt><trkpt lat="21.113834" lon="106.296906"><ele>10.2</ele><time>2011-04-30T00:07:45.0000000+00:00</time></trkpt><trkpt lat="21.113611" lon="106.297485"><ele>11.0</ele><time>2011-04-30T00:07:50.0000000+00:00</time></trkpt><trkpt lat="21.113369" lon="106.298111"><ele>11.1</ele><time>2011-04-30T00:07:55.0000000+00:00</time></trkpt><trkpt lat="21.113178" lon="106.298668"><ele>10.2</ele><time>2011-04-30T00:08:00.0000000+00:00</time></trkpt><trkpt lat="21.113049" lon="106.29921"><ele>8.9</ele><time>2011-04-30T00:08:05.0000000+00:00</time></trkpt><trkpt lat="21.112942" lon="106.299767"><ele>6.7</ele><time>2011-04-30T00:08:10.0000000+00:00</time></trkpt><trkpt lat="21.1129" lon="106.300369"><ele>4.4</ele><time>2011-04-30T00:08:15.0000000+00:00</time></trkpt><trkpt lat="21.112928" lon="106.300957"><ele>3.4</ele><time>2011-04-30T00:08:20.0000000+00:00</time></trkpt><trkpt lat="21.11301" lon="106.301559"><ele>1.3</ele><time>2011-04-30T00:08:25.0000000+00:00</time></trkpt><trkpt lat="21.113094" lon="106.302124"><ele>1.0</ele><time>2011-04-30T00:08:30.0000000+00:00</time></trkpt><trkpt lat="21.113167" lon="106.302605"><ele>1.0</ele><time>2011-04-30T00:08:35.0000000+00:00</time></trkpt><trkpt lat="21.113226" lon="106.303093"><ele>0.5</ele><time>2011-04-30T00:08:40.0000000+00:00</time></trkpt><trkpt lat="21.113234" lon="106.303528"><ele>1.6</ele><time>2011-04-30T00:08:45.0000000+00:00</time></trkpt><trkpt lat="21.113224" lon="106.303955"><ele>2.7</ele><time>2011-04-30T00:08:50.0000000+00:00</time></trkpt><trkpt lat="21.113232" lon="106.304482"><ele>3.5</ele><time>2011-04-30T00:08:55.0000000+00:00</time></trkpt><trkpt lat="21.113199" lon="106.305046"><ele>6.6</ele><time>2011-04-30T00:09:00.0000000+00:00</time></trkpt><trkpt lat="21.11315" lon="106.305626"><ele>7.5</ele><time>2011-04-30T00:09:05.0000000+00:00</time></trkpt><trkpt lat="21.113073" lon="106.306145"><ele>9.0</ele><time>2011-04-30T00:09:10.0000000+00:00</time></trkpt><trkpt lat="21.113035" lon="106.306671"><ele>11.2</ele><time>2011-04-30T00:09:15.0000000+00:00</time></trkpt><trkpt lat="21.113003" lon="106.307274"><ele>11.3</ele><time>2011-04-30T00:09:20.0000000+00:00</time></trkpt><trkpt lat="21.112963" lon="106.307892"><ele>11.5</ele><time>2011-04-30T00:09:25.0000000+00:00</time></trkpt><trkpt lat="21.112959" lon="106.308556"><ele>10.5</ele><time>2011-04-30T00:09:30.0000000+00:00</time></trkpt><trkpt lat="21.112907" lon="106.309151"><ele>9.9</ele><time>2011-04-30T00:09:35.0000000+00:00</time></trkpt><trkpt lat="21.11286" lon="106.309769"><ele>10.6</ele><time>2011-04-30T00:09:40.0000000+00:00</time></trkpt><trkpt lat="21.11281" lon="106.310387"><ele>11.3</ele><time>2011-04-30T00:09:45.0000000+00:00</time></trkpt><trkpt lat="21.112755" lon="106.310883"><ele>10.3</ele><time>2011-04-30T00:09:50.0000000+00:00</time></trkpt><trkpt lat="21.112724" lon="106.311378"><ele>9.3</ele><time>2011-04-30T00:09:55.0000000+00:00</time></trkpt><trkpt lat="21.11273" lon="106.311913"><ele>5.4</ele><time>2011-04-30T00:10:00.0000000+00:00</time></trkpt><trkpt lat="21.112711" lon="106.312485"><ele>1.7</ele><time>2011-04-30T00:10:05.0000000+00:00</time></trkpt><trkpt lat="21.112684" lon="106.313087"><ele>1.6</ele><time>2011-04-30T00:10:10.0000000+00:00</time></trkpt><trkpt lat="21.112648" lon="106.313667"><ele>1.7</ele><time>2011-04-30T00:10:15.0000000+00:00</time></trkpt><trkpt lat="21.112619" lon="106.314217"><ele>1.7</ele><time>2011-04-30T00:10:20.0000000+00:00</time></trkpt><trkpt lat="21.112577" lon="106.314812"><ele>1.1</ele><time>2011-04-30T00:10:25.0000000+00:00</time></trkpt><trkpt lat="21.112545" lon="106.315422"><ele>2.6</ele><time>2011-04-30T00:10:30.0000000+00:00</time></trkpt><trkpt lat="21.112511" lon="106.316002"><ele>3.0</ele><time>2011-04-30T00:10:35.0000000+00:00</time></trkpt><trkpt lat="21.112478" lon="106.316574"><ele>2.5</ele><time>2011-04-30T00:10:40.0000000+00:00</time></trkpt><trkpt lat="21.112448" lon="106.317162"><ele>2.1</ele><time>2011-04-30T00:10:45.0000000+00:00</time></trkpt><trkpt lat="21.112453" lon="106.317833"><ele>-2.3</ele><time>2011-04-30T00:10:50.0000000+00:00</time></trkpt><trkpt lat="21.112419" lon="106.318573"><ele>-4.3</ele><time>2011-04-30T00:10:55.0000000+00:00</time></trkpt><trkpt lat="21.112375" lon="106.319298"><ele>-5.2</ele><time>2011-04-30T00:11:00.0000000+00:00</time></trkpt><trkpt lat="21.112328" lon="106.319939"><ele>-7.2</ele><time>2011-04-30T00:11:05.0000000+00:00</time></trkpt><trkpt lat="21.112291" lon="106.32045"><ele>-7.7</ele><time>2011-04-30T00:11:10.0000000+00:00</time></trkpt><trkpt lat="21.112236" lon="106.320946"><ele>-5.7</ele><time>2011-04-30T00:11:15.0000000+00:00</time></trkpt><trkpt lat="21.112164" lon="106.321487"><ele>-5.0</ele><time>2011-04-30T00:11:20.0000000+00:00</time></trkpt><trkpt lat="21.112072" lon="106.32206"><ele>-3.7</ele><time>2011-04-30T00:11:25.0000000+00:00</time></trkpt><trkpt lat="21.111923" lon="106.322609"><ele>-3.1</ele><time>2011-04-30T00:11:30.0000000+00:00</time></trkpt><trkpt lat="21.111725" lon="106.323204"><ele>-2.1</ele><time>2011-04-30T00:11:35.0000000+00:00</time></trkpt><trkpt lat="21.11153" lon="106.323837"><ele>-1.3</ele><time>2011-04-30T00:11:40.0000000+00:00</time></trkpt><trkpt lat="21.111355" lon="106.324387"><ele>-0.6</ele><time>2011-04-30T00:11:45.0000000+00:00</time></trkpt><trkpt lat="21.111269" lon="106.324936"><ele>0.7</ele><time>2011-04-30T00:11:50.0000000+00:00</time></trkpt><trkpt lat="21.111227" lon="106.325478"><ele>1.8</ele><time>2011-04-30T00:11:55.0000000+00:00</time></trkpt><trkpt lat="21.11108" lon="106.326157"><ele>4.1</ele><time>2011-04-30T00:12:00.0000000+00:00</time></trkpt><trkpt lat="21.110952" lon="106.326927"><ele>4.3</ele><time>2011-04-30T00:12:05.0000000+00:00</time></trkpt><trkpt lat="21.110825" lon="106.327728"><ele>4.4</ele><time>2011-04-30T00:12:10.0000000+00:00</time></trkpt><trkpt lat="21.110655" lon="106.328598"><ele>4.5</ele><time>2011-04-30T00:12:15.0000000+00:00</time></trkpt><trkpt lat="21.110458" lon="106.329521"><ele>3.8</ele><time>2011-04-30T00:12:20.0000000+00:00</time></trkpt><trkpt lat="21.110266" lon="106.330482"><ele>3.8</ele><time>2011-04-30T00:12:25.0000000+00:00</time></trkpt><trkpt lat="21.1101" lon="106.331413"><ele>4.5</ele><time>2011-04-30T00:12:30.0000000+00:00</time></trkpt><trkpt lat="21.109928" lon="106.33226"><ele>3.9</ele><time>2011-04-30T00:12:35.0000000+00:00</time></trkpt><trkpt lat="21.109806" lon="106.333054"><ele>3.2</ele><time>2011-04-30T00:12:40.0000000+00:00</time></trkpt><trkpt lat="21.109678" lon="106.333824"><ele>3.3</ele><time>2011-04-30T00:12:45.0000000+00:00</time></trkpt><trkpt lat="21.109526" lon="106.334663"><ele>3.4</ele><time>2011-04-30T00:12:50.0000000+00:00</time></trkpt><trkpt lat="21.109333" lon="106.335594"><ele>2.7</ele><time>2011-04-30T00:12:55.0000000+00:00</time></trkpt><trkpt lat="21.109138" lon="106.336563"><ele>2.1</ele><time>2011-04-30T00:13:00.0000000+00:00</time></trkpt><trkpt lat="21.108938" lon="106.337585"><ele>1.5</ele><time>2011-04-30T00:13:05.0000000+00:00</time></trkpt><trkpt lat="21.108725" lon="106.338608"><ele>1.6</ele><time>2011-04-30T00:13:10.0000000+00:00</time></trkpt><trkpt lat="21.108543" lon="106.339569"><ele>2.2</ele><time>2011-04-30T00:13:15.0000000+00:00</time></trkpt><trkpt lat="21.108372" lon="106.340408"><ele>3.6</ele><time>2011-04-30T00:13:20.0000000+00:00</time></trkpt><trkpt lat="21.108212" lon="106.341095"><ele>4.3</ele><time>2011-04-30T00:13:25.0000000+00:00</time></trkpt><trkpt lat="21.107977" lon="106.34166"><ele>5.5</ele><time>2011-04-30T00:13:30.0000000+00:00</time></trkpt><trkpt lat="21.107677" lon="106.342247"><ele>6.0</ele><time>2011-04-30T00:13:35.0000000+00:00</time></trkpt><trkpt lat="21.107449" lon="106.342766"><ele>6.6</ele><time>2011-04-30T00:13:40.0000000+00:00</time></trkpt><trkpt lat="21.107317" lon="106.343254"><ele>7.5</ele><time>2011-04-30T00:13:45.0000000+00:00</time></trkpt><trkpt lat="21.107271" lon="106.343819"><ele>9.2</ele><time>2011-04-30T00:13:50.0000000+00:00</time></trkpt><trkpt lat="21.107271" lon="106.344368"><ele>9.8</ele><time>2011-04-30T00:13:55.0000000+00:00</time></trkpt><trkpt lat="21.107244" lon="106.344933"><ele>10.8</ele><time>2011-04-30T00:14:00.0000000+00:00</time></trkpt><trkpt lat="21.107098" lon="106.345512"><ele>9.9</ele><time>2011-04-30T00:14:05.0000000+00:00</time></trkpt><trkpt lat="21.106823" lon="106.346146"><ele>6.1</ele><time>2011-04-30T00:14:10.0000000+00:00</time></trkpt><trkpt lat="21.106485" lon="106.346825"><ele>6.5</ele><time>2011-04-30T00:14:15.0000000+00:00</time></trkpt><trkpt lat="21.106199" lon="106.347557"><ele>6.9</ele><time>2011-04-30T00:14:20.0000000+00:00</time></trkpt><trkpt lat="21.10594" lon="106.34832"><ele>7.1</ele><time>2011-04-30T00:14:25.0000000+00:00</time></trkpt><trkpt lat="21.105692" lon="106.349129"><ele>7.8</ele><time>2011-04-30T00:14:30.0000000+00:00</time></trkpt><trkpt lat="21.105455" lon="106.349991"><ele>8.2</ele><time>2011-04-30T00:14:35.0000000+00:00</time></trkpt><trkpt lat="21.105228" lon="106.350761"><ele>8.1</ele><time>2011-04-30T00:14:40.0000000+00:00</time></trkpt><trkpt lat="21.10504" lon="106.35141"><ele>9.0</ele><time>2011-04-30T00:14:45.0000000+00:00</time></trkpt><trkpt lat="21.104897" lon="106.352142"><ele>9.3</ele><time>2011-04-30T00:14:50.0000000+00:00</time></trkpt><trkpt lat="21.104677" lon="106.35289"><ele>9.5</ele><time>2011-04-30T00:14:55.0000000+00:00</time></trkpt><trkpt lat="21.104454" lon="106.353561"><ele>10.0</ele><time>2011-04-30T00:15:00.0000000+00:00</time></trkpt><trkpt lat="21.104279" lon="106.354218"><ele>9.7</ele><time>2011-04-30T00:15:05.0000000+00:00</time></trkpt><trkpt lat="21.104071" lon="106.354973"><ele>9.7</ele><time>2011-04-30T00:15:10.0000000+00:00</time></trkpt><trkpt lat="21.103836" lon="106.355812"><ele>9.5</ele><time>2011-04-30T00:15:15.0000000+00:00</time></trkpt><trkpt lat="21.103598" lon="106.356651"><ele>10.5</ele><time>2011-04-30T00:15:20.0000000+00:00</time></trkpt><trkpt lat="21.103355" lon="106.357498"><ele>12.4</ele><time>2011-04-30T00:15:25.0000000+00:00</time></trkpt><trkpt lat="21.103123" lon="106.358292"><ele>13.1</ele><time>2011-04-30T00:15:30.0000000+00:00</time></trkpt><trkpt lat="21.102955" lon="106.359131"><ele>13.6</ele><time>2011-04-30T00:15:35.0000000+00:00</time></trkpt><trkpt lat="21.102863" lon="106.360016"><ele>11.6</ele><time>2011-04-30T00:15:40.0000000+00:00</time></trkpt><trkpt lat="21.102789" lon="106.360893"><ele>8.4</ele><time>2011-04-30T00:15:45.0000000+00:00</time></trkpt><trkpt lat="21.102777" lon="106.361755"><ele>7.4</ele><time>2011-04-30T00:15:50.0000000+00:00</time></trkpt><trkpt lat="21.102776" lon="106.362549"><ele>6.4</ele><time>2011-04-30T00:15:55.0000000+00:00</time></trkpt><trkpt lat="21.102753" lon="106.363297"><ele>5.4</ele><time>2011-04-30T00:16:00.0000000+00:00</time></trkpt><trkpt lat="21.102707" lon="106.363976"><ele>3.1</ele><time>2011-04-30T00:16:05.0000000+00:00</time></trkpt><trkpt lat="21.102667" lon="106.364532"><ele>0.9</ele><time>2011-04-30T00:16:10.0000000+00:00</time></trkpt><trkpt lat="21.102568" lon="106.365128"><ele>1.9</ele><time>2011-04-30T00:16:15.0000000+00:00</time></trkpt><trkpt lat="21.102467" lon="106.365746"><ele>3.5</ele><time>2011-04-30T00:16:20.0000000+00:00</time></trkpt><trkpt lat="21.102306" lon="106.366417"><ele>2.0</ele><time>2011-04-30T00:16:25.0000000+00:00</time></trkpt><trkpt lat="21.102053" lon="106.367104"><ele>1.7</ele><time>2011-04-30T00:16:30.0000000+00:00</time></trkpt><trkpt lat="21.101704" lon="106.367828"><ele>1.6</ele><time>2011-04-30T00:16:35.0000000+00:00</time></trkpt><trkpt lat="21.101374" lon="106.368576"><ele>2.4</ele><time>2011-04-30T00:16:40.0000000+00:00</time></trkpt><trkpt lat="21.101055" lon="106.369301"><ele>2.3</ele><time>2011-04-30T00:16:45.0000000+00:00</time></trkpt><trkpt lat="21.100727" lon="106.370079"><ele>1.9</ele><time>2011-04-30T00:16:50.0000000+00:00</time></trkpt><trkpt lat="21.100458" lon="106.37085"><ele>1.7</ele><time>2011-04-30T00:16:55.0000000+00:00</time></trkpt><trkpt lat="21.10021" lon="106.371628"><ele>2.7</ele><time>2011-04-30T00:17:00.0000000+00:00</time></trkpt><trkpt lat="21.099998" lon="106.372375"><ele>3.9</ele><time>2011-04-30T00:17:05.0000000+00:00</time></trkpt><trkpt lat="21.099842" lon="106.373077"><ele>5.5</ele><time>2011-04-30T00:17:10.0000000+00:00</time></trkpt><trkpt lat="21.099733" lon="106.373672"><ele>7.1</ele><time>2011-04-30T00:17:15.0000000+00:00</time></trkpt><trkpt lat="21.099615" lon="106.374252"><ele>10.9</ele><time>2011-04-30T00:17:20.0000000+00:00</time></trkpt><trkpt lat="21.099508" lon="106.374901"><ele>13.6</ele><time>2011-04-30T00:17:25.0000000+00:00</time></trkpt><trkpt lat="21.099386" lon="106.375595"><ele>14.8</ele><time>2011-04-30T00:17:30.0000000+00:00</time></trkpt><trkpt lat="21.099268" lon="106.376335"><ele>15.8</ele><time>2011-04-30T00:17:35.0000000+00:00</time></trkpt><trkpt lat="21.099188" lon="106.377068"><ele>15.4</ele><time>2011-04-30T00:17:40.0000000+00:00</time></trkpt><trkpt lat="21.099258" lon="106.377762"><ele>14.1</ele><time>2011-04-30T00:17:45.0000000+00:00</time></trkpt><trkpt lat="21.099443" lon="106.378334"><ele>12.6</ele><time>2011-04-30T00:17:50.0000000+00:00</time></trkpt><trkpt lat="21.099661" lon="106.378738"><ele>9.5</ele><time>2011-04-30T00:17:55.0000000+00:00</time></trkpt><trkpt lat="21.099901" lon="106.379082"><ele>9.4</ele><time>2011-04-30T00:18:00.0000000+00:00</time></trkpt><trkpt lat="21.100245" lon="106.37944"><ele>9.6</ele><time>2011-04-30T00:18:05.0000000+00:00</time></trkpt><trkpt lat="21.100628" lon="106.379738"><ele>10.5</ele><time>2011-04-30T00:18:10.0000000+00:00</time></trkpt><trkpt lat="21.100945" lon="106.379936"><ele>12.5</ele><time>2011-04-30T00:18:15.0000000+00:00</time></trkpt><trkpt lat="21.101208" lon="106.38015"><ele>16.5</ele><time>2011-04-30T00:18:20.0000000+00:00</time></trkpt><trkpt lat="21.101479" lon="106.380348"><ele>18.6</ele><time>2011-04-30T00:18:25.0000000+00:00</time></trkpt><trkpt lat="21.101717" lon="106.380531"><ele>21.1</ele><time>2011-04-30T00:18:30.0000000+00:00</time></trkpt><trkpt lat="21.10194" lon="106.380707"><ele>22.3</ele><time>2011-04-30T00:18:35.0000000+00:00</time></trkpt><trkpt lat="21.102335" lon="106.380997"><ele>19.6</ele><time>2011-04-30T00:18:40.0000000+00:00</time></trkpt><trkpt lat="21.10277" lon="106.38131"><ele>16.3</ele><time>2011-04-30T00:18:45.0000000+00:00</time></trkpt><trkpt lat="21.10326" lon="106.381653"><ele>15.2</ele><time>2011-04-30T00:18:50.0000000+00:00</time></trkpt><trkpt lat="21.103745" lon="106.382004"><ele>15.4</ele><time>2011-04-30T00:18:55.0000000+00:00</time></trkpt><trkpt lat="21.104162" lon="106.382347"><ele>15.9</ele><time>2011-04-30T00:19:00.0000000+00:00</time></trkpt><trkpt lat="21.104448" lon="106.382568"><ele>15.2</ele><time>2011-04-30T00:19:05.0000000+00:00</time></trkpt><trkpt lat="21.104797" lon="106.382835"><ele>15.7</ele><time>2011-04-30T00:19:10.0000000+00:00</time></trkpt><trkpt lat="21.105198" lon="106.383118"><ele>16.1</ele><time>2011-04-30T00:19:15.0000000+00:00</time></trkpt><trkpt lat="21.105576" lon="106.383377"><ele>17.3</ele><time>2011-04-30T00:19:20.0000000+00:00</time></trkpt><trkpt lat="21.106043" lon="106.383705"><ele>17.8</ele><time>2011-04-30T00:19:25.0000000+00:00</time></trkpt><trkpt lat="21.106499" lon="106.384048"><ele>18.3</ele><time>2011-04-30T00:19:30.0000000+00:00</time></trkpt><trkpt lat="21.106846" lon="106.384384"><ele>18.1</ele><time>2011-04-30T00:19:35.0000000+00:00</time></trkpt><trkpt lat="21.107159" lon="106.384697"><ele>18.1</ele><time>2011-04-30T00:19:40.0000000+00:00</time></trkpt><trkpt lat="21.107458" lon="106.385017"><ele>18.7</ele><time>2011-04-30T00:19:45.0000000+00:00</time></trkpt><trkpt lat="21.107649" lon="106.385307"><ele>17.5</ele><time>2011-04-30T00:19:50.0000000+00:00</time></trkpt><trkpt lat="21.107876" lon="106.385612"><ele>16.3</ele><time>2011-04-30T00:19:55.0000000+00:00</time></trkpt><trkpt lat="21.10817" lon="106.385986"><ele>15.8</ele><time>2011-04-30T00:20:00.0000000+00:00</time></trkpt><trkpt lat="21.108484" lon="106.386398"><ele>13.8</ele><time>2011-04-30T00:20:05.0000000+00:00</time></trkpt><trkpt lat="21.108747" lon="106.386734"><ele>12.1</ele><time>2011-04-30T00:20:10.0000000+00:00</time></trkpt><trkpt lat="21.109011" lon="106.387085"><ele>9.8</ele><time>2011-04-30T00:20:15.0000000+00:00</time></trkpt><trkpt lat="21.109341" lon="106.38752"><ele>9.2</ele><time>2011-04-30T00:20:20.0000000+00:00</time></trkpt><trkpt lat="21.109713" lon="106.387985"><ele>9.0</ele><time>2011-04-30T00:20:25.0000000+00:00</time></trkpt><trkpt lat="21.110029" lon="106.38842"><ele>9.5</ele><time>2011-04-30T00:20:30.0000000+00:00</time></trkpt><trkpt lat="21.11034" lon="106.388771"><ele>9.6</ele><time>2011-04-30T00:20:35.0000000+00:00</time></trkpt><trkpt lat="21.110641" lon="106.389191"><ele>9.4</ele><time>2011-04-30T00:20:40.0000000+00:00</time></trkpt><trkpt lat="21.110981" lon="106.389641"><ele>8.8</ele><time>2011-04-30T00:20:45.0000000+00:00</time></trkpt><trkpt lat="21.111292" lon="106.390091"><ele>8.7</ele><time>2011-04-30T00:20:50.0000000+00:00</time></trkpt><trkpt lat="21.111519" lon="106.390396"><ele>8.7</ele><time>2011-04-30T00:20:55.0000000+00:00</time></trkpt><trkpt lat="21.11158" lon="106.390465"><ele>8.7</ele><time>2011-04-30T00:21:00.0000000+00:00</time></trkpt><trkpt lat="21.111607" lon="106.39048"><ele>9.1</ele><time>2011-04-30T00:21:05.0000000+00:00</time></trkpt><trkpt lat="21.111618" lon="106.390495"><ele>9.2</ele><time>2011-04-30T00:21:10.0000000+00:00</time></trkpt><trkpt lat="21.111643" lon="106.390488"><ele>9.3</ele><time>2011-04-30T00:21:15.0000000+00:00</time></trkpt><trkpt lat="21.111666" lon="106.390495"><ele>9.4</ele><time>2011-04-30T00:21:20.0000000+00:00</time></trkpt><trkpt lat="21.111681" lon="106.390503"><ele>9.5</ele><time>2011-04-30T00:21:25.0000000+00:00</time></trkpt><trkpt lat="21.111696" lon="106.390503"><ele>9.6</ele><time>2011-04-30T00:21:30.0000000+00:00</time></trkpt><trkpt lat="21.111704" lon="106.390503"><ele>9.7</ele><time>2011-04-30T00:21:35.0000000+00:00</time></trkpt><trkpt lat="21.111713" lon="106.390503"><ele>9.8</ele><time>2011-04-30T00:21:40.0000000+00:00</time></trkpt><trkpt lat="21.111721" lon="106.390518"><ele>9.8</ele><time>2011-04-30T00:21:45.0000000+00:00</time></trkpt><trkpt lat="21.111786" lon="106.390572"><ele>10.1</ele><time>2011-04-30T00:21:50.0000000+00:00</time></trkpt><trkpt lat="21.1119" lon="106.390724"><ele>10.8</ele><time>2011-04-30T00:21:55.0000000+00:00</time></trkpt><trkpt lat="21.112015" lon="106.390923"><ele>11.7</ele><time>2011-04-30T00:22:00.0000000+00:00</time></trkpt><trkpt lat="21.11231" lon="106.391296"><ele>12.1</ele><time>2011-04-30T00:22:05.0000000+00:00</time></trkpt><trkpt lat="21.112511" lon="106.391632"><ele>12.2</ele><time>2011-04-30T00:22:10.0000000+00:00</time></trkpt><trkpt lat="21.112644" lon="106.3918"><ele>12.6</ele><time>2011-04-30T00:22:15.0000000+00:00</time></trkpt><trkpt lat="21.112658" lon="106.39183"><ele>12.8</ele><time>2011-04-30T00:22:20.0000000+00:00</time></trkpt><trkpt lat="21.112661" lon="106.391838"><ele>12.8</ele><time>2011-04-30T00:22:25.0000000+00:00</time></trkpt><trkpt lat="21.112661" lon="106.391861"><ele>12.7</ele><time>2011-04-30T00:22:30.0000000+00:00</time></trkpt><trkpt lat="21.112667" lon="106.391861"><ele>12.7</ele><time>2011-04-30T00:22:35.0000000+00:00</time></trkpt><trkpt lat="21.112682" lon="106.391876"><ele>12.6</ele><time>2011-04-30T00:22:40.0000000+00:00</time></trkpt><trkpt lat="21.112759" lon="106.391968"><ele>12.3</ele><time>2011-04-30T00:22:45.0000000+00:00</time></trkpt><trkpt lat="21.112894" lon="106.392075"><ele>12.8</ele><time>2011-04-30T00:22:50.0000000+00:00</time></trkpt><trkpt lat="21.113075" lon="106.392311"><ele>13.2</ele><time>2011-04-30T00:22:55.0000000+00:00</time></trkpt><trkpt lat="21.11322" lon="106.39254"><ele>13.7</ele><time>2011-04-30T00:23:00.0000000+00:00</time></trkpt><trkpt lat="21.113272" lon="106.392654"><ele>14.2</ele><time>2011-04-30T00:23:05.0000000+00:00</time></trkpt><trkpt lat="21.113291" lon="106.392677"><ele>15.1</ele><time>2011-04-30T00:23:10.0000000+00:00</time></trkpt><trkpt lat="21.113312" lon="106.392715"><ele>15.8</ele><time>2011-04-30T00:23:15.0000000+00:00</time></trkpt><trkpt lat="21.113426" lon="106.392868"><ele>16.4</ele><time>2011-04-30T00:23:20.0000000+00:00</time></trkpt><trkpt lat="21.113577" lon="106.393074"><ele>17.4</ele><time>2011-04-30T00:23:25.0000000+00:00</time></trkpt><trkpt lat="21.11385" lon="106.39344"><ele>17.6</ele><time>2011-04-30T00:23:30.0000000+00:00</time></trkpt><trkpt lat="21.114052" lon="106.393761"><ele>18.0</ele><time>2011-04-30T00:23:35.0000000+00:00</time></trkpt><trkpt lat="21.114214" lon="106.394035"><ele>17.9</ele><time>2011-04-30T00:23:40.0000000+00:00</time></trkpt><trkpt lat="21.114391" lon="106.394272"><ele>18.2</ele><time>2011-04-30T00:23:45.0000000+00:00</time></trkpt><trkpt lat="21.114635" lon="106.394585"><ele>18.9</ele><time>2011-04-30T00:23:50.0000000+00:00</time></trkpt><trkpt lat="21.114874" lon="106.39489"><ele>19.9</ele><time>2011-04-30T00:23:55.0000000+00:00</time></trkpt><trkpt lat="21.115015" lon="106.395134"><ele>21.0</ele><time>2011-04-30T00:24:00.0000000+00:00</time></trkpt><trkpt lat="21.115202" lon="106.395432"><ele>21.9</ele><time>2011-04-30T00:24:05.0000000+00:00</time></trkpt><trkpt lat="21.115389" lon="106.395699"><ele>22.9</ele><time>2011-04-30T00:24:10.0000000+00:00</time></trkpt><trkpt lat="21.115534" lon="106.395966"><ele>22.0</ele><time>2011-04-30T00:24:15.0000000+00:00</time></trkpt><trkpt lat="21.115635" lon="106.396057"><ele>20.5</ele><time>2011-04-30T00:24:20.0000000+00:00</time></trkpt><trkpt lat="21.115673" lon="106.396118"><ele>19.9</ele><time>2011-04-30T00:24:25.0000000+00:00</time></trkpt><trkpt lat="21.115801" lon="106.396324"><ele>19.5</ele><time>2011-04-30T00:24:30.0000000+00:00</time></trkpt><trkpt lat="21.115973" lon="106.396629"><ele>19.7</ele><time>2011-04-30T00:24:35.0000000+00:00</time></trkpt><trkpt lat="21.116205" lon="106.397064"><ele>20.6</ele><time>2011-04-30T00:24:40.0000000+00:00</time></trkpt><trkpt lat="21.116465" lon="106.397484"><ele>20.2</ele><time>2011-04-30T00:24:45.0000000+00:00</time></trkpt><trkpt lat="21.116665" lon="106.39785"><ele>19.6</ele><time>2011-04-30T00:24:50.0000000+00:00</time></trkpt><trkpt lat="21.116867" lon="106.398186"><ele>19.0</ele><time>2011-04-30T00:24:55.0000000+00:00</time></trkpt><trkpt lat="21.117085" lon="106.398529"><ele>19.0</ele><time>2011-04-30T00:25:00.0000000+00:00</time></trkpt><trkpt lat="21.117275" lon="106.398857"><ele>19.9</ele><time>2011-04-30T00:25:05.0000000+00:00</time></trkpt><trkpt lat="21.117472" lon="106.399208"><ele>18.7</ele><time>2011-04-30T00:25:10.0000000+00:00</time></trkpt><trkpt lat="21.117788" lon="106.399559"><ele>19.4</ele><time>2011-04-30T00:25:15.0000000+00:00</time></trkpt><trkpt lat="21.118137" lon="106.399933"><ele>18.1</ele><time>2011-04-30T00:25:20.0000000+00:00</time></trkpt><trkpt lat="21.118511" lon="106.400238"><ele>18.3</ele><time>2011-04-30T00:25:25.0000000+00:00</time></trkpt><trkpt lat="21.118845" lon="106.400513"><ele>19.3</ele><time>2011-04-30T00:25:30.0000000+00:00</time></trkpt><trkpt lat="21.119204" lon="106.400826"><ele>16.9</ele><time>2011-04-30T00:25:35.0000000+00:00</time></trkpt><trkpt lat="21.119656" lon="106.40126"><ele>16.0</ele><time>2011-04-30T00:25:40.0000000+00:00</time></trkpt><trkpt lat="21.120018" lon="106.401749"><ele>14.7</ele><time>2011-04-30T00:25:45.0000000+00:00</time></trkpt><trkpt lat="21.120443" lon="106.402313"><ele>12.6</ele><time>2011-04-30T00:25:50.0000000+00:00</time></trkpt><trkpt lat="21.12085" lon="106.402901"><ele>11.8</ele><time>2011-04-30T00:25:55.0000000+00:00</time></trkpt><trkpt lat="21.121239" lon="106.403488"><ele>10.1</ele><time>2011-04-30T00:26:00.0000000+00:00</time></trkpt><trkpt lat="21.121599" lon="106.40403"><ele>9.8</ele><time>2011-04-30T00:26:05.0000000+00:00</time></trkpt><trkpt lat="21.121912" lon="106.404526"><ele>10.6</ele><time>2011-04-30T00:26:10.0000000+00:00</time></trkpt><trkpt lat="21.122221" lon="106.405029"><ele>8.3</ele><time>2011-04-30T00:26:15.0000000+00:00</time></trkpt><trkpt lat="21.122555" lon="106.40554"><ele>6.8</ele><time>2011-04-30T00:26:20.0000000+00:00</time></trkpt><trkpt lat="21.122936" lon="106.406097"><ele>6.0</ele><time>2011-04-30T00:26:25.0000000+00:00</time></trkpt><trkpt lat="21.123283" lon="106.406654"><ele>6.3</ele><time>2011-04-30T00:26:30.0000000+00:00</time></trkpt><trkpt lat="21.123634" lon="106.407234"><ele>5.4</ele><time>2011-04-30T00:26:35.0000000+00:00</time></trkpt><trkpt lat="21.123985" lon="106.407768"><ele>6.2</ele><time>2011-04-30T00:26:40.0000000+00:00</time></trkpt><trkpt lat="21.124355" lon="106.408295"><ele>7.4</ele><time>2011-04-30T00:26:45.0000000+00:00</time></trkpt><trkpt lat="21.1248" lon="106.408829"><ele>8.7</ele><time>2011-04-30T00:26:50.0000000+00:00</time></trkpt><trkpt lat="21.125301" lon="106.409393"><ele>9.5</ele><time>2011-04-30T00:26:55.0000000+00:00</time></trkpt><trkpt lat="21.125822" lon="106.409996"><ele>10.1</ele><time>2011-04-30T00:27:00.0000000+00:00</time></trkpt><trkpt lat="21.126328" lon="106.410622"><ele>10.3</ele><time>2011-04-30T00:27:05.0000000+00:00</time></trkpt><trkpt lat="21.126778" lon="106.411278"><ele>10.6</ele><time>2011-04-30T00:27:10.0000000+00:00</time></trkpt><trkpt lat="21.127195" lon="106.411911"><ele>10.7</ele><time>2011-04-30T00:27:15.0000000+00:00</time></trkpt><trkpt lat="21.127529" lon="106.41243"><ele>9.9</ele><time>2011-04-30T00:27:20.0000000+00:00</time></trkpt><trkpt lat="21.127823" lon="106.412872"><ele>10.5</ele><time>2011-04-30T00:27:25.0000000+00:00</time></trkpt><trkpt lat="21.128138" lon="106.413307"><ele>11.3</ele><time>2011-04-30T00:27:30.0000000+00:00</time></trkpt><trkpt lat="21.128475" lon="106.413803"><ele>11.8</ele><time>2011-04-30T00:27:35.0000000+00:00</time></trkpt><trkpt lat="21.12878" lon="106.414314"><ele>12.3</ele><time>2011-04-30T00:27:40.0000000+00:00</time></trkpt><trkpt lat="21.12903" lon="106.414864"><ele>12.9</ele><time>2011-04-30T00:27:45.0000000+00:00</time></trkpt><trkpt lat="21.129341" lon="106.415405"><ele>12.2</ele><time>2011-04-30T00:27:50.0000000+00:00</time></trkpt><trkpt lat="21.129622" lon="106.415947"><ele>11.5</ele><time>2011-04-30T00:27:55.0000000+00:00</time></trkpt><trkpt lat="21.1299" lon="106.416489"><ele>10.6</ele><time>2011-04-30T00:28:00.0000000+00:00</time></trkpt><trkpt lat="21.130165" lon="106.416992"><ele>10.0</ele><time>2011-04-30T00:28:05.0000000+00:00</time></trkpt><trkpt lat="21.130396" lon="106.417496"><ele>6.3</ele><time>2011-04-30T00:28:10.0000000+00:00</time></trkpt><trkpt lat="21.130625" lon="106.417969"><ele>5.3</ele><time>2011-04-30T00:28:15.0000000+00:00</time></trkpt><trkpt lat="21.130857" lon="106.418381"><ele>5.4</ele><time>2011-04-30T00:28:20.0000000+00:00</time></trkpt><trkpt lat="21.131102" lon="106.41851"><ele>2.9</ele><time>2011-04-30T00:28:25.0000000+00:00</time></trkpt><trkpt lat="21.131283" lon="106.418449"><ele>2.5</ele><time>2011-04-30T00:28:30.0000000+00:00</time></trkpt><trkpt lat="21.131317" lon="106.418434"><ele>1.8</ele><time>2011-04-30T00:28:35.0000000+00:00</time></trkpt><trkpt lat="21.131323" lon="106.418442"><ele>1.7</ele><time>2011-04-30T00:28:40.0000000+00:00</time></trkpt><trkpt lat="21.131325" lon="106.418449"><ele>1.7</ele><time>2011-04-30T00:28:45.0000000+00:00</time></trkpt><trkpt lat="21.131327" lon="106.418457"><ele>1.7</ele><time>2011-04-30T00:28:50.0000000+00:00</time></trkpt><trkpt lat="21.131332" lon="106.418457"><ele>1.7</ele><time>2011-04-30T00:28:55.0000000+00:00</time></trkpt><trkpt lat="21.131336" lon="106.418457"><ele>1.7</ele><time>2011-04-30T00:29:00.0000000+00:00</time></trkpt><trkpt lat="21.131342" lon="106.418457"><ele>1.6</ele><time>2011-04-30T00:29:05.0000000+00:00</time></trkpt><trkpt lat="21.131346" lon="106.418457"><ele>1.6</ele><time>2011-04-30T00:29:10.0000000+00:00</time></trkpt><trkpt lat="21.131346" lon="106.418457"><ele>1.6</ele><time>2011-04-30T00:29:15.0000000+00:00</time></trkpt><trkpt lat="21.13135" lon="106.418457"><ele>1.6</ele><time>2011-04-30T00:29:20.0000000+00:00</time></trkpt><trkpt lat="21.131351" lon="106.418457"><ele>1.6</ele><time>2011-04-30T00:29:25.0000000+00:00</time></trkpt><trkpt lat="21.131351" lon="106.418465"><ele>1.6</ele><time>2011-04-30T00:29:30.0000000+00:00</time></trkpt><trkpt lat="21.131351" lon="106.418472"><ele>1.6</ele><time>2011-04-30T00:29:35.0000000+00:00</time></trkpt><trkpt lat="21.13135" lon="106.418488"><ele>1.6</ele><time>2011-04-30T00:29:40.0000000+00:00</time></trkpt><trkpt lat="21.131348" lon="106.418495"><ele>1.6</ele><time>2011-04-30T00:29:45.0000000+00:00</time></trkpt><trkpt lat="21.131348" lon="106.418495"><ele>1.6</ele><time>2011-04-30T00:29:50.0000000+00:00</time></trkpt><trkpt lat="21.13135" lon="106.418495"><ele>1.6</ele><time>2011-04-30T00:29:55.0000000+00:00</time></trkpt><trkpt lat="21.131348" lon="106.418503"><ele>1.6</ele><time>2011-04-30T00:30:00.0000000+00:00</time></trkpt><trkpt lat="21.131346" lon="106.41851"><ele>1.6</ele><time>2011-04-30T00:30:05.0000000+00:00</time></trkpt><trkpt lat="21.131344" lon="106.41851"><ele>1.6</ele><time>2011-04-30T00:30:10.0000000+00:00</time></trkpt><trkpt lat="21.131344" lon="106.41851"><ele>1.6</ele><time>2011-04-30T00:30:15.0000000+00:00</time></trkpt><trkpt lat="21.131346" lon="106.418518"><ele>1.6</ele><time>2011-04-30T00:30:20.0000000+00:00</time></trkpt><trkpt lat="21.131348" lon="106.418526"><ele>1.5</ele><time>2011-04-30T00:30:25.0000000+00:00</time></trkpt><trkpt lat="21.131353" lon="106.418518"><ele>1.5</ele><time>2011-04-30T00:30:30.0000000+00:00</time></trkpt><trkpt lat="21.131359" lon="106.41851"><ele>1.5</ele><time>2011-04-30T00:30:35.0000000+00:00</time></trkpt><trkpt lat="21.131361" lon="106.41851"><ele>1.5</ele><time>2011-04-30T00:30:40.0000000+00:00</time></trkpt><trkpt lat="21.131359" lon="106.41851"><ele>1.6</ele><time>2011-04-30T00:30:45.0000000+00:00</time></trkpt><trkpt lat="21.131355" lon="106.41851"><ele>1.6</ele><time>2011-04-30T00:30:50.0000000+00:00</time></trkpt><trkpt lat="21.131355" lon="106.418503"><ele>1.5</ele><time>2011-04-30T00:30:55.0000000+00:00</time></trkpt><trkpt lat="21.131353" lon="106.418503"><ele>1.5</ele><time>2011-04-30T00:31:00.0000000+00:00</time></trkpt><trkpt lat="21.131351" lon="106.418495"><ele>1.5</ele><time>2011-04-30T00:31:05.0000000+00:00</time></trkpt><trkpt lat="21.131353" lon="106.418495"><ele>1.6</ele><time>2011-04-30T00:31:10.0000000+00:00</time></trkpt><trkpt lat="21.131355" lon="106.418495"><ele>1.6</ele><time>2011-04-30T00:31:15.0000000+00:00</time></trkpt><trkpt lat="21.131355" lon="106.418503"><ele>1.6</ele><time>2011-04-30T00:31:20.0000000+00:00</time></trkpt><trkpt lat="21.131348" lon="106.418518"><ele>1.6</ele><time>2011-04-30T00:31:25.0000000+00:00</time></trkpt><trkpt lat="21.131342" lon="106.418541"><ele>1.6</ele><time>2011-04-30T00:31:30.0000000+00:00</time></trkpt><trkpt lat="21.131342" lon="106.418556"><ele>1.6</ele><time>2011-04-30T00:31:35.0000000+00:00</time></trkpt><trkpt lat="21.131334" lon="106.418556"><ele>1.7</ele><time>2011-04-30T00:31:40.0000000+00:00</time></trkpt><trkpt lat="21.131329" lon="106.418556"><ele>1.7</ele><time>2011-04-30T00:31:45.0000000+00:00</time></trkpt><trkpt lat="21.131321" lon="106.418549"><ele>1.7</ele><time>2011-04-30T00:31:50.0000000+00:00</time></trkpt><trkpt lat="21.131315" lon="106.418533"><ele>1.8</ele><time>2011-04-30T00:31:55.0000000+00:00</time></trkpt><trkpt lat="21.131311" lon="106.418518"><ele>1.8</ele><time>2011-04-30T00:32:00.0000000+00:00</time></trkpt><trkpt lat="21.13131" lon="106.418503"><ele>1.8</ele><time>2011-04-30T00:32:05.0000000+00:00</time></trkpt><trkpt lat="21.131308" lon="106.418495"><ele>1.9</ele><time>2011-04-30T00:32:10.0000000+00:00</time></trkpt><trkpt lat="21.131306" lon="106.418488"><ele>2.0</ele><time>2011-04-30T00:32:15.0000000+00:00</time></trkpt><trkpt lat="21.131302" lon="106.418488"><ele>1.9</ele><time>2011-04-30T00:32:20.0000000+00:00</time></trkpt><trkpt lat="21.131298" lon="106.41848"><ele>1.8</ele><time>2011-04-30T00:32:25.0000000+00:00</time></trkpt><trkpt lat="21.131294" lon="106.418472"><ele>1.7</ele><time>2011-04-30T00:32:30.0000000+00:00</time></trkpt><trkpt lat="21.131289" lon="106.418457"><ele>1.7</ele><time>2011-04-30T00:32:35.0000000+00:00</time></trkpt><trkpt lat="21.131289" lon="106.418449"><ele>1.7</ele><time>2011-04-30T00:32:40.0000000+00:00</time></trkpt><trkpt lat="21.131287" lon="106.418457"><ele>1.6</ele><time>2011-04-30T00:32:45.0000000+00:00</time></trkpt><trkpt lat="21.131283" lon="106.418457"><ele>1.6</ele><time>2011-04-30T00:32:50.0000000+00:00</time></trkpt><trkpt lat="21.131277" lon="106.418457"><ele>1.6</ele><time>2011-04-30T00:32:55.0000000+00:00</time></trkpt><trkpt lat="21.131273" lon="106.418465"><ele>1.7</ele><time>2011-04-30T00:33:00.0000000+00:00</time></trkpt><trkpt lat="21.131273" lon="106.418465"><ele>1.7</ele><time>2011-04-30T00:33:05.0000000+00:00</time></trkpt><trkpt lat="21.131271" lon="106.418472"><ele>1.7</ele><time>2011-04-30T00:33:10.0000000+00:00</time></trkpt><trkpt lat="21.131271" lon="106.418465"><ele>1.8</ele><time>2011-04-30T00:33:15.0000000+00:00</time></trkpt><trkpt lat="21.131268" lon="106.418457"><ele>2.0</ele><time>2011-04-30T00:33:20.0000000+00:00</time></trkpt><trkpt lat="21.131235" lon="106.418419"><ele>1.0</ele><time>2011-04-30T00:33:25.0000000+00:00</time></trkpt><trkpt lat="21.131237" lon="106.418404"><ele>-0.4</ele><time>2011-04-30T00:33:30.0000000+00:00</time></trkpt><trkpt lat="21.131235" lon="106.418404"><ele>-0.5</ele><time>2011-04-30T00:33:35.0000000+00:00</time></trkpt><trkpt lat="21.131239" lon="106.418404"><ele>-0.7</ele><time>2011-04-30T00:33:40.0000000+00:00</time></trkpt><trkpt lat="21.131241" lon="106.418411"><ele>-1.0</ele><time>2011-04-30T00:33:45.0000000+00:00</time></trkpt><trkpt lat="21.131243" lon="106.418419"><ele>-1.3</ele><time>2011-04-30T00:33:50.0000000+00:00</time></trkpt><trkpt lat="21.131241" lon="106.418434"><ele>-1.7</ele><time>2011-04-30T00:33:55.0000000+00:00</time></trkpt><trkpt lat="21.131292" lon="106.41848"><ele>-2.6</ele><time>2011-04-30T00:34:00.0000000+00:00</time></trkpt><trkpt lat="21.131283" lon="106.418503"><ele>-5.9</ele><time>2011-04-30T00:34:05.0000000+00:00</time></trkpt><trkpt lat="21.131287" lon="106.418503"><ele>-6.6</ele><time>2011-04-30T00:34:10.0000000+00:00</time></trkpt><trkpt lat="21.131287" lon="106.418503"><ele>-7.0</ele><time>2011-04-30T00:34:15.0000000+00:00</time></trkpt><trkpt lat="21.13129" lon="106.418495"><ele>-7.3</ele><time>2011-04-30T00:34:20.0000000+00:00</time></trkpt><trkpt lat="21.13129" lon="106.418495"><ele>-7.5</ele><time>2011-04-30T00:34:25.0000000+00:00</time></trkpt><trkpt lat="21.13129" lon="106.418495"><ele>-7.5</ele><time>2011-04-30T00:34:30.0000000+00:00</time></trkpt><trkpt lat="21.13129" lon="106.418495"><ele>-7.4</ele><time>2011-04-30T00:34:35.0000000+00:00</time></trkpt><trkpt lat="21.13129" lon="106.418495"><ele>-7.4</ele><time>2011-04-30T00:34:40.0000000+00:00</time></trkpt><trkpt lat="21.13129" lon="106.418495"><ele>-7.4</ele><time>2011-04-30T00:34:45.0000000+00:00</time></trkpt><trkpt lat="21.13129" lon="106.418495"><ele>-7.4</ele><time>2011-04-30T00:34:50.0000000+00:00</time></trkpt><trkpt lat="21.13129" lon="106.418495"><ele>-7.3</ele><time>2011-04-30T00:34:55.0000000+00:00</time></trkpt><trkpt lat="21.13129" lon="106.418495"><ele>-7.3</ele><time>2011-04-30T00:35:00.0000000+00:00</time></trkpt><trkpt lat="21.13129" lon="106.418495"><ele>-7.3</ele><time>2011-04-30T00:35:05.0000000+00:00</time></trkpt><trkpt lat="21.13129" lon="106.418495"><ele>-7.3</ele><time>2011-04-30T00:35:10.0000000+00:00</time></trkpt><trkpt lat="21.13129" lon="106.418495"><ele>-7.3</ele><time>2011-04-30T00:35:15.0000000+00:00</time></trkpt><trkpt lat="21.13129" lon="106.418495"><ele>-7.3</ele><time>2011-04-30T00:35:20.0000000+00:00</time></trkpt><trkpt lat="21.13129" lon="106.418495"><ele>-7.3</ele><time>2011-04-30T00:35:25.0000000+00:00</time></trkpt><trkpt lat="21.13129" lon="106.418488"><ele>-7.3</ele><time>2011-04-30T00:35:30.0000000+00:00</time></trkpt><trkpt lat="21.131294" lon="106.418472"><ele>-7.4</ele><time>2011-04-30T00:35:35.0000000+00:00</time></trkpt><trkpt lat="21.131302" lon="106.418465"><ele>-7.3</ele><time>2011-04-30T00:35:40.0000000+00:00</time></trkpt><trkpt lat="21.131317" lon="106.418449"><ele>-7.5</ele><time>2011-04-30T00:35:45.0000000+00:00</time></trkpt><trkpt lat="21.131321" lon="106.418442"><ele>-7.5</ele><time>2011-04-30T00:35:50.0000000+00:00</time></trkpt><trkpt lat="21.131327" lon="106.418434"><ele>-7.5</ele><time>2011-04-30T00:35:55.0000000+00:00</time></trkpt><trkpt lat="21.131332" lon="106.418427"><ele>-7.4</ele><time>2011-04-30T00:36:00.0000000+00:00</time></trkpt><trkpt lat="21.131338" lon="106.418419"><ele>-7.2</ele><time>2011-04-30T00:36:05.0000000+00:00</time></trkpt><trkpt lat="21.13134" lon="106.418419"><ele>-6.9</ele><time>2011-04-30T00:36:10.0000000+00:00</time></trkpt><trkpt lat="21.13134" lon="106.418419"><ele>-6.4</ele><time>2011-04-30T00:36:15.0000000+00:00</time></trkpt><trkpt lat="21.131336" lon="106.418411"><ele>-5.6</ele><time>2011-04-30T00:36:20.0000000+00:00</time></trkpt><trkpt lat="21.131329" lon="106.418419"><ele>-4.6</ele><time>2011-04-30T00:36:25.0000000+00:00</time></trkpt><trkpt lat="21.131332" lon="106.418427"><ele>0.0</ele><time>2011-04-30T00:36:30.0000000+00:00</time></trkpt><trkpt lat="21.131327" lon="106.418449"><ele>4.1</ele><time>2011-04-30T00:36:35.0000000+00:00</time></trkpt><trkpt lat="21.131321" lon="106.418457"><ele>6.4</ele><time>2011-04-30T00:36:40.0000000+00:00</time></trkpt><trkpt lat="21.131323" lon="106.418465"><ele>7.6</ele><time>2011-04-30T00:36:45.0000000+00:00</time></trkpt><trkpt lat="21.131317" lon="106.41848"><ele>8.7</ele><time>2011-04-30T00:36:50.0000000+00:00</time></trkpt><trkpt lat="21.131311" lon="106.41848"><ele>9.8</ele><time>2011-04-30T00:36:55.0000000+00:00</time></trkpt><trkpt lat="21.131302" lon="106.418488"><ele>10.7</ele><time>2011-04-30T00:37:00.0000000+00:00</time></trkpt><trkpt lat="21.131294" lon="106.418495"><ele>11.5</ele><time>2011-04-30T00:37:05.0000000+00:00</time></trkpt><trkpt lat="21.13129" lon="106.418503"><ele>12.4</ele><time>2011-04-30T00:37:10.0000000+00:00</time></trkpt><trkpt lat="21.131287" lon="106.418503"><ele>13.3</ele><time>2011-04-30T00:37:15.0000000+00:00</time></trkpt><trkpt lat="21.131283" lon="106.41851"><ele>14.0</ele><time>2011-04-30T00:37:20.0000000+00:00</time></trkpt><trkpt lat="21.131283" lon="106.418518"><ele>14.6</ele><time>2011-04-30T00:37:25.0000000+00:00</time></trkpt><trkpt lat="21.131283" lon="106.418526"><ele>15.2</ele><time>2011-04-30T00:37:30.0000000+00:00</time></trkpt><trkpt lat="21.131287" lon="106.418526"><ele>15.6</ele><time>2011-04-30T00:37:35.0000000+00:00</time></trkpt><trkpt lat="21.131289" lon="106.418533"><ele>16.0</ele><time>2011-04-30T00:37:40.0000000+00:00</time></trkpt><trkpt lat="21.13129" lon="106.418533"><ele>16.3</ele><time>2011-04-30T00:37:45.0000000+00:00</time></trkpt><trkpt lat="21.131292" lon="106.418533"><ele>16.5</ele><time>2011-04-30T00:37:50.0000000+00:00</time></trkpt><trkpt lat="21.131294" lon="106.418541"><ele>16.6</ele><time>2011-04-30T00:37:55.0000000+00:00</time></trkpt><trkpt lat="21.131294" lon="106.418541"><ele>16.5</ele><time>2011-04-30T00:38:00.0000000+00:00</time></trkpt><trkpt lat="21.131294" lon="106.418533"><ele>16.5</ele><time>2011-04-30T00:38:05.0000000+00:00</time></trkpt><trkpt lat="21.131294" lon="106.418533"><ele>16.4</ele><time>2011-04-30T00:38:10.0000000+00:00</time></trkpt><trkpt lat="21.131294" lon="106.418533"><ele>16.4</ele><time>2011-04-30T00:38:15.0000000+00:00</time></trkpt><trkpt lat="21.131294" lon="106.418533"><ele>16.3</ele><time>2011-04-30T00:38:20.0000000+00:00</time></trkpt><trkpt lat="21.131294" lon="106.418533"><ele>16.3</ele><time>2011-04-30T00:38:25.0000000+00:00</time></trkpt><trkpt lat="21.131294" lon="106.418533"><ele>16.2</ele><time>2011-04-30T00:38:30.0000000+00:00</time></trkpt><trkpt lat="21.131294" lon="106.418533"><ele>16.1</ele><time>2011-04-30T00:38:35.0000000+00:00</time></trkpt><trkpt lat="21.131294" lon="106.418533"><ele>16.1</ele><time>2011-04-30T00:38:40.0000000+00:00</time></trkpt><trkpt lat="21.131294" lon="106.418533"><ele>16.0</ele><time>2011-04-30T00:38:45.0000000+00:00</time></trkpt><trkpt lat="21.131294" lon="106.418533"><ele>16.0</ele><time>2011-04-30T00:38:50.0000000+00:00</time></trkpt><trkpt lat="21.131294" lon="106.418533"><ele>15.9</ele><time>2011-04-30T00:38:55.0000000+00:00</time></trkpt><trkpt lat="21.131296" lon="106.418533"><ele>15.9</ele><time>2011-04-30T00:39:00.0000000+00:00</time></trkpt><trkpt lat="21.131296" lon="106.418533"><ele>15.8</ele><time>2011-04-30T00:39:05.0000000+00:00</time></trkpt><trkpt lat="21.131296" lon="106.418533"><ele>15.8</ele><time>2011-04-30T00:39:10.0000000+00:00</time></trkpt><trkpt lat="21.131296" lon="106.418533"><ele>15.7</ele><time>2011-04-30T00:39:15.0000000+00:00</time></trkpt><trkpt lat="21.131296" lon="106.418533"><ele>15.7</ele><time>2011-04-30T00:39:20.0000000+00:00</time></trkpt><trkpt lat="21.131298" lon="106.418533"><ele>15.7</ele><time>2011-04-30T00:39:25.0000000+00:00</time></trkpt><trkpt lat="21.131298" lon="106.418533"><ele>15.7</ele><time>2011-04-30T00:39:30.0000000+00:00</time></trkpt><trkpt lat="21.131298" lon="106.418533"><ele>15.6</ele><time>2011-04-30T00:39:35.0000000+00:00</time></trkpt><trkpt lat="21.131298" lon="106.418533"><ele>15.5</ele><time>2011-04-30T00:39:40.0000000+00:00</time></trkpt><trkpt lat="21.131298" lon="106.418533"><ele>15.5</ele><time>2011-04-30T00:39:45.0000000+00:00</time></trkpt><trkpt lat="21.131298" lon="106.418533"><ele>15.4</ele><time>2011-04-30T00:39:50.0000000+00:00</time></trkpt><trkpt lat="21.131298" lon="106.418526"><ele>15.3</ele><time>2011-04-30T00:39:55.0000000+00:00</time></trkpt><trkpt lat="21.131298" lon="106.418526"><ele>15.2</ele><time>2011-04-30T00:40:00.0000000+00:00</time></trkpt><trkpt lat="21.131298" lon="106.418526"><ele>15.2</ele><time>2011-04-30T00:40:05.0000000+00:00</time></trkpt><trkpt lat="21.1313" lon="106.418526"><ele>15.1</ele><time>2011-04-30T00:40:10.0000000+00:00</time></trkpt><trkpt lat="21.1313" lon="106.418526"><ele>15.1</ele><time>2011-04-30T00:40:15.0000000+00:00</time></trkpt><trkpt lat="21.1313" lon="106.418526"><ele>15.0</ele><time>2011-04-30T00:40:20.0000000+00:00</time></trkpt><trkpt lat="21.131302" lon="106.418526"><ele>15.0</ele><time>2011-04-30T00:40:25.0000000+00:00</time></trkpt><trkpt lat="21.131302" lon="106.418526"><ele>14.9</ele><time>2011-04-30T00:40:30.0000000+00:00</time></trkpt><trkpt lat="21.131302" lon="106.418526"><ele>14.9</ele><time>2011-04-30T00:40:35.0000000+00:00</time></trkpt><trkpt lat="21.131302" lon="106.418526"><ele>14.9</ele><time>2011-04-30T00:40:40.0000000+00:00</time></trkpt><trkpt lat="21.131306" lon="106.418518"><ele>14.8</ele><time>2011-04-30T00:40:45.0000000+00:00</time></trkpt><trkpt lat="21.131313" lon="106.418518"><ele>14.6</ele><time>2011-04-30T00:40:50.0000000+00:00</time></trkpt><trkpt lat="21.131323" lon="106.418518"><ele>14.4</ele><time>2011-04-30T00:40:55.0000000+00:00</time></trkpt><trkpt lat="21.131329" lon="106.418518"><ele>14.0</ele><time>2011-04-30T00:41:00.0000000+00:00</time></trkpt><trkpt lat="21.131336" lon="106.41851"><ele>13.7</ele><time>2011-04-30T00:41:05.0000000+00:00</time></trkpt><trkpt lat="21.131344" lon="106.41851"><ele>13.4</ele><time>2011-04-30T00:41:10.0000000+00:00</time></trkpt><trkpt lat="21.131346" lon="106.418503"><ele>13.1</ele><time>2011-04-30T00:41:15.0000000+00:00</time></trkpt><trkpt lat="21.131348" lon="106.418495"><ele>12.7</ele><time>2011-04-30T00:41:20.0000000+00:00</time></trkpt><trkpt lat="21.131346" lon="106.418488"><ele>12.5</ele><time>2011-04-30T00:41:25.0000000+00:00</time></trkpt><trkpt lat="21.131344" lon="106.41848"><ele>12.2</ele><time>2011-04-30T00:41:30.0000000+00:00</time></trkpt><trkpt lat="21.131342" lon="106.418472"><ele>12.0</ele><time>2011-04-30T00:41:35.0000000+00:00</time></trkpt><trkpt lat="21.13134" lon="106.418457"><ele>12.0</ele><time>2011-04-30T00:41:40.0000000+00:00</time></trkpt><trkpt lat="21.131338" lon="106.418442"><ele>12.2</ele><time>2011-04-30T00:41:45.0000000+00:00</time></trkpt><trkpt lat="21.131336" lon="106.418434"><ele>12.4</ele><time>2011-04-30T00:41:50.0000000+00:00</time></trkpt><trkpt lat="21.131334" lon="106.418427"><ele>12.7</ele><time>2011-04-30T00:41:55.0000000+00:00</time></trkpt><trkpt lat="21.13133" lon="106.418427"><ele>13.1</ele><time>2011-04-30T00:42:00.0000000+00:00</time></trkpt><trkpt lat="21.131327" lon="106.418419"><ele>13.3</ele><time>2011-04-30T00:42:05.0000000+00:00</time></trkpt><trkpt lat="21.131325" lon="106.418419"><ele>13.5</ele><time>2011-04-30T00:42:10.0000000+00:00</time></trkpt><trkpt lat="21.131321" lon="106.418419"><ele>13.8</ele><time>2011-04-30T00:42:15.0000000+00:00</time></trkpt><trkpt lat="21.131321" lon="106.418419"><ele>14.0</ele><time>2011-04-30T00:42:20.0000000+00:00</time></trkpt><trkpt lat="21.131317" lon="106.418427"><ele>14.2</ele><time>2011-04-30T00:42:25.0000000+00:00</time></trkpt><trkpt lat="21.131315" lon="106.418427"><ele>14.4</ele><time>2011-04-30T00:42:30.0000000+00:00</time></trkpt><trkpt lat="21.131315" lon="106.418427"><ele>14.5</ele><time>2011-04-30T00:42:35.0000000+00:00</time></trkpt><trkpt lat="21.131315" lon="106.418427"><ele>14.4</ele><time>2011-04-30T00:42:40.0000000+00:00</time></trkpt><trkpt lat="21.131315" lon="106.418427"><ele>14.4</ele><time>2011-04-30T00:42:45.0000000+00:00</time></trkpt><trkpt lat="21.131315" lon="106.418427"><ele>14.3</ele><time>2011-04-30T00:42:50.0000000+00:00</time></trkpt><trkpt lat="21.131315" lon="106.418427"><ele>14.3</ele><time>2011-04-30T00:42:55.0000000+00:00</time></trkpt><trkpt lat="21.13131" lon="106.418427"><ele>14.2</ele><time>2011-04-30T00:43:00.0000000+00:00</time></trkpt><trkpt lat="21.131302" lon="106.418427"><ele>14.2</ele><time>2011-04-30T00:43:05.0000000+00:00</time></trkpt><trkpt lat="21.131294" lon="106.418434"><ele>14.2</ele><time>2011-04-30T00:43:10.0000000+00:00</time></trkpt><trkpt lat="21.131287" lon="106.418442"><ele>14.1</ele><time>2011-04-30T00:43:15.0000000+00:00</time></trkpt><trkpt lat="21.131281" lon="106.418457"><ele>14.1</ele><time>2011-04-30T00:43:20.0000000+00:00</time></trkpt><trkpt lat="21.131277" lon="106.418465"><ele>14.0</ele><time>2011-04-30T00:43:25.0000000+00:00</time></trkpt><trkpt lat="21.131277" lon="106.418472"><ele>13.9</ele><time>2011-04-30T00:43:30.0000000+00:00</time></trkpt><trkpt lat="21.131273" lon="106.41848"><ele>13.6</ele><time>2011-04-30T00:43:35.0000000+00:00</time></trkpt><trkpt lat="21.131273" lon="106.418488"><ele>13.4</ele><time>2011-04-30T00:43:40.0000000+00:00</time></trkpt><trkpt lat="21.131271" lon="106.418495"><ele>13.2</ele><time>2011-04-30T00:43:45.0000000+00:00</time></trkpt><trkpt lat="21.131275" lon="106.418495"><ele>13.0</ele><time>2011-04-30T00:43:50.0000000+00:00</time></trkpt><trkpt lat="21.131277" lon="106.418503"><ele>12.8</ele><time>2011-04-30T00:43:55.0000000+00:00</time></trkpt><trkpt lat="21.131277" lon="106.418503"><ele>12.7</ele><time>2011-04-30T00:44:00.0000000+00:00</time></trkpt><trkpt lat="21.131275" lon="106.418495"><ele>12.7</ele><time>2011-04-30T00:44:05.0000000+00:00</time></trkpt><trkpt lat="21.131271" lon="106.41848"><ele>13.4</ele><time>2011-04-30T00:44:10.0000000+00:00</time></trkpt><trkpt lat="21.131273" lon="106.418457"><ele>14.0</ele><time>2011-04-30T00:44:15.0000000+00:00</time></trkpt><trkpt lat="21.131296" lon="106.418442"><ele>14.2</ele><time>2011-04-30T00:44:20.0000000+00:00</time></trkpt><trkpt lat="21.131304" lon="106.418434"><ele>14.8</ele><time>2011-04-30T00:44:25.0000000+00:00</time></trkpt><trkpt lat="21.131306" lon="106.418427"><ele>15.0</ele><time>2011-04-30T00:44:30.0000000+00:00</time></trkpt><trkpt lat="21.131306" lon="106.418419"><ele>15.3</ele><time>2011-04-30T00:44:35.0000000+00:00</time></trkpt><trkpt lat="21.131308" lon="106.418427"><ele>15.5</ele><time>2011-04-30T00:44:40.0000000+00:00</time></trkpt><trkpt lat="21.131308" lon="106.418427"><ele>15.6</ele><time>2011-04-30T00:44:45.0000000+00:00</time></trkpt><trkpt lat="21.131308" lon="106.418442"><ele>15.7</ele><time>2011-04-30T00:44:50.0000000+00:00</time></trkpt><trkpt lat="21.131308" lon="106.418449"><ele>15.7</ele><time>2011-04-30T00:44:55.0000000+00:00</time></trkpt><trkpt lat="21.13131" lon="106.418457"><ele>15.5</ele><time>2011-04-30T00:45:00.0000000+00:00</time></trkpt><trkpt lat="21.13131" lon="106.418449"><ele>15.4</ele><time>2011-04-30T00:45:05.0000000+00:00</time></trkpt><trkpt lat="21.131306" lon="106.418442"><ele>15.2</ele><time>2011-04-30T00:45:10.0000000+00:00</time></trkpt><trkpt lat="21.1313" lon="106.418434"><ele>15.0</ele><time>2011-04-30T00:45:15.0000000+00:00</time></trkpt><trkpt lat="21.131296" lon="106.418434"><ele>14.7</ele><time>2011-04-30T00:45:20.0000000+00:00</time></trkpt><trkpt lat="21.131294" lon="106.418434"><ele>14.4</ele><time>2011-04-30T00:45:25.0000000+00:00</time></trkpt><trkpt lat="21.131287" lon="106.418457"><ele>13.6</ele><time>2011-04-30T00:45:30.0000000+00:00</time></trkpt><trkpt lat="21.131271" lon="106.418472"><ele>11.6</ele><time>2011-04-30T00:45:35.0000000+00:00</time></trkpt><trkpt lat="21.131264" lon="106.418488"><ele>10.4</ele><time>2011-04-30T00:45:40.0000000+00:00</time></trkpt><trkpt lat="21.131273" lon="106.41851"><ele>9.1</ele><time>2011-04-30T00:45:45.0000000+00:00</time></trkpt><trkpt lat="21.131283" lon="106.418533"><ele>8.1</ele><time>2011-04-30T00:45:50.0000000+00:00</time></trkpt><trkpt lat="21.131283" lon="106.418541"><ele>7.5</ele><time>2011-04-30T00:45:55.0000000+00:00</time></trkpt><trkpt lat="21.131283" lon="106.418541"><ele>6.9</ele><time>2011-04-30T00:46:00.0000000+00:00</time></trkpt><trkpt lat="21.131287" lon="106.418549"><ele>6.4</ele><time>2011-04-30T00:46:05.0000000+00:00</time></trkpt><trkpt lat="21.131292" lon="106.418549"><ele>5.8</ele><time>2011-04-30T00:46:10.0000000+00:00</time></trkpt><trkpt lat="21.1313" lon="106.418556"><ele>5.2</ele><time>2011-04-30T00:46:15.0000000+00:00</time></trkpt><trkpt lat="21.131306" lon="106.418556"><ele>4.6</ele><time>2011-04-30T00:46:20.0000000+00:00</time></trkpt><trkpt lat="21.131306" lon="106.418556"><ele>4.0</ele><time>2011-04-30T00:46:25.0000000+00:00</time></trkpt><trkpt lat="21.131306" lon="106.418549"><ele>3.3</ele><time>2011-04-30T00:46:30.0000000+00:00</time></trkpt><trkpt lat="21.131306" lon="106.418549"><ele>3.3</ele><time>2011-04-30T00:46:35.0000000+00:00</time></trkpt><trkpt lat="21.131306" lon="106.418549"><ele>3.3</ele><time>2011-04-30T00:46:40.0000000+00:00</time></trkpt><trkpt lat="21.131304" lon="106.418549"><ele>3.3</ele><time>2011-04-30T00:46:45.0000000+00:00</time></trkpt><trkpt lat="21.131304" lon="106.418549"><ele>3.3</ele><time>2011-04-30T00:46:50.0000000+00:00</time></trkpt><trkpt lat="21.131306" lon="106.418549"><ele>3.2</ele><time>2011-04-30T00:46:55.0000000+00:00</time></trkpt><trkpt lat="21.131308" lon="106.418541"><ele>3.1</ele><time>2011-04-30T00:47:00.0000000+00:00</time></trkpt><trkpt lat="21.131308" lon="106.418533"><ele>2.9</ele><time>2011-04-30T00:47:05.0000000+00:00</time></trkpt><trkpt lat="21.131306" lon="106.418526"><ele>2.5</ele><time>2011-04-30T00:47:10.0000000+00:00</time></trkpt><trkpt lat="21.131304" lon="106.418518"><ele>2.0</ele><time>2011-04-30T00:47:15.0000000+00:00</time></trkpt><trkpt lat="21.1313" lon="106.418503"><ele>1.2</ele><time>2011-04-30T00:47:20.0000000+00:00</time></trkpt><trkpt lat="21.1313" lon="106.418495"><ele>0.4</ele><time>2011-04-30T00:47:25.0000000+00:00</time></trkpt><trkpt lat="21.131302" lon="106.41848"><ele>-0.5</ele><time>2011-04-30T00:47:30.0000000+00:00</time></trkpt><trkpt lat="21.131304" lon="106.418472"><ele>-1.4</ele><time>2011-04-30T00:47:35.0000000+00:00</time></trkpt><trkpt lat="21.1313" lon="106.418465"><ele>-2.3</ele><time>2011-04-30T00:47:40.0000000+00:00</time></trkpt><trkpt lat="21.131298" lon="106.418465"><ele>-3.3</ele><time>2011-04-30T00:47:45.0000000+00:00</time></trkpt><trkpt lat="21.131296" lon="106.418472"><ele>-4.2</ele><time>2011-04-30T00:47:50.0000000+00:00</time></trkpt><trkpt lat="21.131296" lon="106.418472"><ele>-5.0</ele><time>2011-04-30T00:47:55.0000000+00:00</time></trkpt><trkpt lat="21.131296" lon="106.418472"><ele>-5.0</ele><time>2011-04-30T00:48:00.0000000+00:00</time></trkpt><trkpt lat="21.131296" lon="106.418472"><ele>-5.0</ele><time>2011-04-30T00:48:05.0000000+00:00</time></trkpt><trkpt lat="21.131296" lon="106.418472"><ele>-4.9</ele><time>2011-04-30T00:48:10.0000000+00:00</time></trkpt><trkpt lat="21.131294" lon="106.418472"><ele>-4.9</ele><time>2011-04-30T00:48:15.0000000+00:00</time></trkpt><trkpt lat="21.131287" lon="106.418472"><ele>-4.9</ele><time>2011-04-30T00:48:20.0000000+00:00</time></trkpt><trkpt lat="21.131231" lon="106.418465"><ele>-5.1</ele><time>2011-04-30T00:48:25.0000000+00:00</time></trkpt><trkpt lat="21.131222" lon="106.418472"><ele>-5.3</ele><time>2011-04-30T00:48:30.0000000+00:00</time></trkpt><trkpt lat="21.131176" lon="106.418587"><ele>-5.1</ele><time>2011-04-30T00:48:35.0000000+00:00</time></trkpt><trkpt lat="21.131182" lon="106.418678"><ele>-5.9</ele><time>2011-04-30T00:48:40.0000000+00:00</time></trkpt><trkpt lat="21.131159" lon="106.418732"><ele>-4.6</ele><time>2011-04-30T00:48:45.0000000+00:00</time></trkpt><trkpt lat="21.131166" lon="106.418961"><ele>-3.2</ele><time>2011-04-30T00:48:50.0000000+00:00</time></trkpt><trkpt lat="21.131306" lon="106.419289"><ele>-1.6</ele><time>2011-04-30T00:48:55.0000000+00:00</time></trkpt><trkpt lat="21.131531" lon="106.419777"><ele>-3.4</ele><time>2011-04-30T00:49:00.0000000+00:00</time></trkpt><trkpt lat="21.131802" lon="106.420311"><ele>-3.3</ele><time>2011-04-30T00:49:05.0000000+00:00</time></trkpt><trkpt lat="21.132076" lon="106.420868"><ele>-3.7</ele><time>2011-04-30T00:49:10.0000000+00:00</time></trkpt><trkpt lat="21.132385" lon="106.421425"><ele>-2.3</ele><time>2011-04-30T00:49:15.0000000+00:00</time></trkpt><trkpt lat="21.13266" lon="106.421951"><ele>-0.5</ele><time>2011-04-30T00:49:20.0000000+00:00</time></trkpt><trkpt lat="21.132904" lon="106.422485"><ele>-1.4</ele><time>2011-04-30T00:49:25.0000000+00:00</time></trkpt><trkpt lat="21.133144" lon="106.422989"><ele>-2.9</ele><time>2011-04-30T00:49:30.0000000+00:00</time></trkpt><trkpt lat="21.133343" lon="106.423553"><ele>-4.4</ele><time>2011-04-30T00:49:35.0000000+00:00</time></trkpt><trkpt lat="21.133478" lon="106.424225"><ele>-5.2</ele><time>2011-04-30T00:49:40.0000000+00:00</time></trkpt><trkpt lat="21.133493" lon="106.424995"><ele>-6.1</ele><time>2011-04-30T00:49:45.0000000+00:00</time></trkpt><trkpt lat="21.133394" lon="106.425819"><ele>-5.8</ele><time>2011-04-30T00:49:50.0000000+00:00</time></trkpt><trkpt lat="21.133303" lon="106.426682"><ele>-5.4</ele><time>2011-04-30T00:49:55.0000000+00:00</time></trkpt><trkpt lat="21.133217" lon="106.427635"><ele>-5.1</ele><time>2011-04-30T00:50:00.0000000+00:00</time></trkpt><trkpt lat="21.133099" lon="106.428612"><ele>-4.3</ele><time>2011-04-30T00:50:05.0000000+00:00</time></trkpt><trkpt lat="21.132957" lon="106.429596"><ele>-4.8</ele><time>2011-04-30T00:50:10.0000000+00:00</time></trkpt><trkpt lat="21.132835" lon="106.430473"><ele>-8.3</ele><time>2011-04-30T00:50:15.0000000+00:00</time></trkpt><trkpt lat="21.13273" lon="106.43116"><ele>-10.6</ele><time>2011-04-30T00:50:20.0000000+00:00</time></trkpt><trkpt lat="21.132668" lon="106.431763"><ele>-10.7</ele><time>2011-04-30T00:50:25.0000000+00:00</time></trkpt><trkpt lat="21.132641" lon="106.432274"><ele>-10.3</ele><time>2011-04-30T00:50:30.0000000+00:00</time></trkpt><trkpt lat="21.132658" lon="106.432587"><ele>-10.1</ele><time>2011-04-30T00:50:35.0000000+00:00</time></trkpt><trkpt lat="21.132685" lon="106.432777"><ele>-8.0</ele><time>2011-04-30T00:50:40.0000000+00:00</time></trkpt><trkpt lat="21.132721" lon="106.432999"><ele>-8.5</ele><time>2011-04-30T00:50:45.0000000+00:00</time></trkpt><trkpt lat="21.132769" lon="106.433266"><ele>-6.9</ele><time>2011-04-30T00:50:50.0000000+00:00</time></trkpt><trkpt lat="21.132803" lon="106.433586"><ele>-4.9</ele><time>2011-04-30T00:50:55.0000000+00:00</time></trkpt><trkpt lat="21.132843" lon="106.434036"><ele>-5.0</ele><time>2011-04-30T00:51:00.0000000+00:00</time></trkpt><trkpt lat="21.132769" lon="106.434532"><ele>-4.4</ele><time>2011-04-30T00:51:05.0000000+00:00</time></trkpt><trkpt lat="21.132658" lon="106.43499"><ele>-3.7</ele><time>2011-04-30T00:51:10.0000000+00:00</time></trkpt><trkpt lat="21.132549" lon="106.435371"><ele>-3.0</ele><time>2011-04-30T00:51:15.0000000+00:00</time></trkpt><trkpt lat="21.132431" lon="106.43586"><ele>-1.7</ele><time>2011-04-30T00:51:20.0000000+00:00</time></trkpt><trkpt lat="21.132284" lon="106.436401"><ele>-3.6</ele><time>2011-04-30T00:51:25.0000000+00:00</time></trkpt><trkpt lat="21.132092" lon="106.437004"><ele>-3.6</ele><time>2011-04-30T00:51:30.0000000+00:00</time></trkpt><trkpt lat="21.131874" lon="106.437668"><ele>-3.4</ele><time>2011-04-30T00:51:35.0000000+00:00</time></trkpt><trkpt lat="21.13167" lon="106.438408"><ele>-1.3</ele><time>2011-04-30T00:51:40.0000000+00:00</time></trkpt><trkpt lat="21.131458" lon="106.439163"><ele>-2.0</ele><time>2011-04-30T00:51:45.0000000+00:00</time></trkpt><trkpt lat="21.131285" lon="106.439735"><ele>-2.0</ele><time>2011-04-30T00:51:50.0000000+00:00</time></trkpt><trkpt lat="21.131124" lon="106.440231"><ele>-2.3</ele><time>2011-04-30T00:51:55.0000000+00:00</time></trkpt><trkpt lat="21.130985" lon="106.440636"><ele>-2.4</ele><time>2011-04-30T00:52:00.0000000+00:00</time></trkpt><trkpt lat="21.130875" lon="106.441086"><ele>-4.3</ele><time>2011-04-30T00:52:05.0000000+00:00</time></trkpt><trkpt lat="21.130716" lon="106.441658"><ele>-4.5</ele><time>2011-04-30T00:52:10.0000000+00:00</time></trkpt><trkpt lat="21.130524" lon="106.442299"><ele>-6.5</ele><time>2011-04-30T00:52:15.0000000+00:00</time></trkpt><trkpt lat="21.130354" lon="106.442856"><ele>-9.3</ele><time>2011-04-30T00:52:20.0000000+00:00</time></trkpt><trkpt lat="21.130226" lon="106.443352"><ele>-10.3</ele><time>2011-04-30T00:52:25.0000000+00:00</time></trkpt><trkpt lat="21.130089" lon="106.443932"><ele>-7.4</ele><time>2011-04-30T00:52:30.0000000+00:00</time></trkpt><trkpt lat="21.129917" lon="106.44455"><ele>-5.1</ele><time>2011-04-30T00:52:35.0000000+00:00</time></trkpt><trkpt lat="21.129717" lon="106.445229"><ele>-4.5</ele><time>2011-04-30T00:52:40.0000000+00:00</time></trkpt><trkpt lat="21.129494" lon="106.445961"><ele>-5.3</ele><time>2011-04-30T00:52:45.0000000+00:00</time></trkpt><trkpt lat="21.129213" lon="106.44677"><ele>-4.4</ele><time>2011-04-30T00:52:50.0000000+00:00</time></trkpt><trkpt lat="21.12887" lon="106.447586"><ele>-5.1</ele><time>2011-04-30T00:52:55.0000000+00:00</time></trkpt><trkpt lat="21.128511" lon="106.44841"><ele>-4.2</ele><time>2011-04-30T00:53:00.0000000+00:00</time></trkpt><trkpt lat="21.128162" lon="106.449196"><ele>-5.7</ele><time>2011-04-30T00:53:05.0000000+00:00</time></trkpt><trkpt lat="21.127846" lon="106.449944"><ele>-6.0</ele><time>2011-04-30T00:53:10.0000000+00:00</time></trkpt><trkpt lat="21.127562" lon="106.450653"><ele>-5.8</ele><time>2011-04-30T00:53:15.0000000+00:00</time></trkpt><trkpt lat="21.127268" lon="106.451408"><ele>-6.7</ele><time>2011-04-30T00:53:20.0000000+00:00</time></trkpt><trkpt lat="21.127037" lon="106.452034"><ele>-7.2</ele><time>2011-04-30T00:53:25.0000000+00:00</time></trkpt><trkpt lat="21.126831" lon="106.45256"><ele>-6.2</ele><time>2011-04-30T00:53:30.0000000+00:00</time></trkpt><trkpt lat="21.126602" lon="106.453194"><ele>-8.7</ele><time>2011-04-30T00:53:35.0000000+00:00</time></trkpt><trkpt lat="21.126329" lon="106.453964"><ele>-9.7</ele><time>2011-04-30T00:53:40.0000000+00:00</time></trkpt><trkpt lat="21.126005" lon="106.454735"><ele>-8.0</ele><time>2011-04-30T00:53:45.0000000+00:00</time></trkpt><trkpt lat="21.125664" lon="106.455559"><ele>-7.5</ele><time>2011-04-30T00:53:50.0000000+00:00</time></trkpt><trkpt lat="21.125313" lon="106.456284"><ele>-9.0</ele><time>2011-04-30T00:53:55.0000000+00:00</time></trkpt><trkpt lat="21.124987" lon="106.456902"><ele>-8.7</ele><time>2011-04-30T00:54:00.0000000+00:00</time></trkpt><trkpt lat="21.12467" lon="106.457451"><ele>-8.9</ele><time>2011-04-30T00:54:05.0000000+00:00</time></trkpt><trkpt lat="21.124294" lon="106.458038"><ele>-11.8</ele><time>2011-04-30T00:54:10.0000000+00:00</time></trkpt><trkpt lat="21.123819" lon="106.458549"><ele>-12.1</ele><time>2011-04-30T00:54:15.0000000+00:00</time></trkpt><trkpt lat="21.12327" lon="106.458931"><ele>-12.1</ele><time>2011-04-30T00:54:20.0000000+00:00</time></trkpt><trkpt lat="21.122732" lon="106.459229"><ele>-9.1</ele><time>2011-04-30T00:54:25.0000000+00:00</time></trkpt><trkpt lat="21.12216" lon="106.459541"><ele>-6.9</ele><time>2011-04-30T00:54:30.0000000+00:00</time></trkpt><trkpt lat="21.121618" lon="106.459953"><ele>-5.3</ele><time>2011-04-30T00:54:35.0000000+00:00</time></trkpt><trkpt lat="21.121107" lon="106.460449"><ele>-3.4</ele><time>2011-04-30T00:54:40.0000000+00:00</time></trkpt><trkpt lat="21.12068" lon="106.461029"><ele>-2.8</ele><time>2011-04-30T00:54:45.0000000+00:00</time></trkpt><trkpt lat="21.120302" lon="106.461693"><ele>-0.1</ele><time>2011-04-30T00:54:50.0000000+00:00</time></trkpt><trkpt lat="21.119947" lon="106.462357"><ele>1.5</ele><time>2011-04-30T00:54:55.0000000+00:00</time></trkpt><trkpt lat="21.119627" lon="106.463051"><ele>3.0</ele><time>2011-04-30T00:55:00.0000000+00:00</time></trkpt><trkpt lat="21.119265" lon="106.463669"><ele>3.7</ele><time>2011-04-30T00:55:05.0000000+00:00</time></trkpt><trkpt lat="21.118919" lon="106.464294"><ele>5.2</ele><time>2011-04-30T00:55:10.0000000+00:00</time></trkpt><trkpt lat="21.118534" lon="106.464844"><ele>6.8</ele><time>2011-04-30T00:55:15.0000000+00:00</time></trkpt><trkpt lat="21.118164" lon="106.465355"><ele>6.7</ele><time>2011-04-30T00:55:20.0000000+00:00</time></trkpt><trkpt lat="21.117769" lon="106.46582"><ele>6.1</ele><time>2011-04-30T00:55:25.0000000+00:00</time></trkpt><trkpt lat="21.117376" lon="106.46624"><ele>6.1</ele><time>2011-04-30T00:55:30.0000000+00:00</time></trkpt><trkpt lat="21.116995" lon="106.46666"><ele>6.7</ele><time>2011-04-30T00:55:35.0000000+00:00</time></trkpt><trkpt lat="21.116558" lon="106.467155"><ele>4.0</ele><time>2011-04-30T00:55:40.0000000+00:00</time></trkpt><trkpt lat="21.116064" lon="106.467659"><ele>1.4</ele><time>2011-04-30T00:55:45.0000000+00:00</time></trkpt><trkpt lat="21.11554" lon="106.468132"><ele>0.7</ele><time>2011-04-30T00:55:50.0000000+00:00</time></trkpt><trkpt lat="21.115011" lon="106.468613"><ele>-1.6</ele><time>2011-04-30T00:55:55.0000000+00:00</time></trkpt><trkpt lat="21.114534" lon="106.469078"><ele>-3.1</ele><time>2011-04-30T00:56:00.0000000+00:00</time></trkpt><trkpt lat="21.114046" lon="106.469582"><ele>-4.0</ele><time>2011-04-30T00:56:05.0000000+00:00</time></trkpt><trkpt lat="21.113554" lon="106.470047"><ele>-4.9</ele><time>2011-04-30T00:56:10.0000000+00:00</time></trkpt><trkpt lat="21.113024" lon="106.470558"><ele>-5.6</ele><time>2011-04-30T00:56:15.0000000+00:00</time></trkpt><trkpt lat="21.112513" lon="106.471069"><ele>-6.6</ele><time>2011-04-30T00:56:20.0000000+00:00</time></trkpt><trkpt lat="21.111965" lon="106.471596"><ele>-8.7</ele><time>2011-04-30T00:56:25.0000000+00:00</time></trkpt><trkpt lat="21.111397" lon="106.472122"><ele>-9.6</ele><time>2011-04-30T00:56:30.0000000+00:00</time></trkpt><trkpt lat="21.110867" lon="106.472633"><ele>-10.4</ele><time>2011-04-30T00:56:35.0000000+00:00</time></trkpt><trkpt lat="21.110376" lon="106.473106"><ele>-13.7</ele><time>2011-04-30T00:56:40.0000000+00:00</time></trkpt><trkpt lat="21.109911" lon="106.473557"><ele>-17.4</ele><time>2011-04-30T00:56:45.0000000+00:00</time></trkpt><trkpt lat="21.109484" lon="106.473984"><ele>-18.9</ele><time>2011-04-30T00:56:50.0000000+00:00</time></trkpt><trkpt lat="21.109001" lon="106.474411"><ele>-19.3</ele><time>2011-04-30T00:56:55.0000000+00:00</time></trkpt><trkpt lat="21.108517" lon="106.474892"><ele>-20.4</ele><time>2011-04-30T00:57:00.0000000+00:00</time></trkpt><trkpt lat="21.108011" lon="106.475426"><ele>-21.9</ele><time>2011-04-30T00:57:05.0000000+00:00</time></trkpt><trkpt lat="21.107519" lon="106.475891"><ele>-24.7</ele><time>2011-04-30T00:57:10.0000000+00:00</time></trkpt><trkpt lat="21.107035" lon="106.476341"><ele>-26.8</ele><time>2011-04-30T00:57:15.0000000+00:00</time></trkpt><trkpt lat="21.106667" lon="106.47673"><ele>-26.2</ele><time>2011-04-30T00:57:20.0000000+00:00</time></trkpt><trkpt lat="21.106485" lon="106.476913"><ele>-25.2</ele><time>2011-04-30T00:57:25.0000000+00:00</time></trkpt><trkpt lat="21.106413" lon="106.476952"><ele>-24.4</ele><time>2011-04-30T00:57:30.0000000+00:00</time></trkpt><trkpt lat="21.106348" lon="106.476944"><ele>-19.5</ele><time>2011-04-30T00:57:35.0000000+00:00</time></trkpt><trkpt lat="21.106337" lon="106.476913"><ele>-19.5</ele><time>2011-04-30T00:57:40.0000000+00:00</time></trkpt><trkpt lat="21.106323" lon="106.476906"><ele>-20.3</ele><time>2011-04-30T00:57:45.0000000+00:00</time></trkpt><trkpt lat="21.106318" lon="106.476898"><ele>-21.1</ele><time>2011-04-30T00:57:50.0000000+00:00</time></trkpt><trkpt lat="21.106316" lon="106.476898"><ele>-21.8</ele><time>2011-04-30T00:57:55.0000000+00:00</time></trkpt><trkpt lat="21.106316" lon="106.476898"><ele>-22.3</ele><time>2011-04-30T00:58:00.0000000+00:00</time></trkpt><trkpt lat="21.106312" lon="106.476898"><ele>-22.7</ele><time>2011-04-30T00:58:05.0000000+00:00</time></trkpt><trkpt lat="21.1063" lon="106.476898"><ele>-23.0</ele><time>2011-04-30T00:58:10.0000000+00:00</time></trkpt><trkpt lat="21.106287" lon="106.476906"><ele>-23.3</ele><time>2011-04-30T00:58:15.0000000+00:00</time></trkpt><trkpt lat="21.106274" lon="106.476906"><ele>-23.5</ele><time>2011-04-30T00:58:20.0000000+00:00</time></trkpt><trkpt lat="21.106262" lon="106.476913"><ele>-23.8</ele><time>2011-04-30T00:58:25.0000000+00:00</time></trkpt><trkpt lat="21.106258" lon="106.476913"><ele>-24.0</ele><time>2011-04-30T00:58:30.0000000+00:00</time></trkpt><trkpt lat="21.106258" lon="106.476913"><ele>-24.0</ele><time>2011-04-30T00:58:35.0000000+00:00</time></trkpt><trkpt lat="21.106256" lon="106.476921"><ele>-23.8</ele><time>2011-04-30T00:58:40.0000000+00:00</time></trkpt><trkpt lat="21.106255" lon="106.476929"><ele>-23.6</ele><time>2011-04-30T00:58:45.0000000+00:00</time></trkpt><trkpt lat="21.106256" lon="106.476929"><ele>-23.4</ele><time>2011-04-30T00:58:50.0000000+00:00</time></trkpt><trkpt lat="21.106264" lon="106.476944"><ele>-23.1</ele><time>2011-04-30T00:58:55.0000000+00:00</time></trkpt><trkpt lat="21.106268" lon="106.476952"><ele>-22.8</ele><time>2011-04-30T00:59:00.0000000+00:00</time></trkpt><trkpt lat="21.106274" lon="106.476959"><ele>-22.4</ele><time>2011-04-30T00:59:05.0000000+00:00</time></trkpt><trkpt lat="21.106277" lon="106.476967"><ele>-22.1</ele><time>2011-04-30T00:59:10.0000000+00:00</time></trkpt><trkpt lat="21.106285" lon="106.476974"><ele>-21.7</ele><time>2011-04-30T00:59:15.0000000+00:00</time></trkpt><trkpt lat="21.106289" lon="106.476974"><ele>-21.0</ele><time>2011-04-30T00:59:20.0000000+00:00</time></trkpt><trkpt lat="21.106293" lon="106.476967"><ele>-20.2</ele><time>2011-04-30T00:59:25.0000000+00:00</time></trkpt><trkpt lat="21.106298" lon="106.476959"><ele>-19.3</ele><time>2011-04-30T00:59:30.0000000+00:00</time></trkpt><trkpt lat="21.106306" lon="106.476959"><ele>-18.3</ele><time>2011-04-30T00:59:35.0000000+00:00</time></trkpt><trkpt lat="21.106318" lon="106.476952"><ele>-17.1</ele><time>2011-04-30T00:59:40.0000000+00:00</time></trkpt><trkpt lat="21.106327" lon="106.476959"><ele>-15.7</ele><time>2011-04-30T00:59:45.0000000+00:00</time></trkpt><trkpt lat="21.106333" lon="106.476967"><ele>-14.2</ele><time>2011-04-30T00:59:50.0000000+00:00</time></trkpt><trkpt lat="21.106331" lon="106.476959"><ele>-13.0</ele><time>2011-04-30T00:59:55.0000000+00:00</time></trkpt><trkpt lat="21.106329" lon="106.476959"><ele>-11.7</ele><time>2011-04-30T01:00:00.0000000+00:00</time></trkpt><trkpt lat="21.106325" lon="106.476952"><ele>-10.4</ele><time>2011-04-30T01:00:05.0000000+00:00</time></trkpt><trkpt lat="21.106325" lon="106.476944"><ele>-8.9</ele><time>2011-04-30T01:00:10.0000000+00:00</time></trkpt><trkpt lat="21.106323" lon="106.476944"><ele>-7.3</ele><time>2011-04-30T01:00:15.0000000+00:00</time></trkpt><trkpt lat="21.106321" lon="106.476944"><ele>-6.0</ele><time>2011-04-30T01:00:20.0000000+00:00</time></trkpt><trkpt lat="21.106321" lon="106.476952"><ele>-5.3</ele><time>2011-04-30T01:00:25.0000000+00:00</time></trkpt><trkpt lat="21.106321" lon="106.476952"><ele>-5.3</ele><time>2011-04-30T01:00:30.0000000+00:00</time></trkpt><trkpt lat="21.106321" lon="106.476952"><ele>-5.2</ele><time>2011-04-30T01:00:35.0000000+00:00</time></trkpt><trkpt lat="21.106321" lon="106.476952"><ele>-5.2</ele><time>2011-04-30T01:00:40.0000000+00:00</time></trkpt><trkpt lat="21.106321" lon="106.476944"><ele>-5.2</ele><time>2011-04-30T01:00:45.0000000+00:00</time></trkpt><trkpt lat="21.106319" lon="106.476944"><ele>-5.2</ele><time>2011-04-30T01:00:50.0000000+00:00</time></trkpt><trkpt lat="21.106319" lon="106.476944"><ele>-5.1</ele><time>2011-04-30T01:00:55.0000000+00:00</time></trkpt><trkpt lat="21.106321" lon="106.476944"><ele>-5.1</ele><time>2011-04-30T01:01:00.0000000+00:00</time></trkpt><trkpt lat="21.106321" lon="106.476944"><ele>-5.1</ele><time>2011-04-30T01:01:05.0000000+00:00</time></trkpt><trkpt lat="21.106321" lon="106.476944"><ele>-5.0</ele><time>2011-04-30T01:01:10.0000000+00:00</time></trkpt><trkpt lat="21.106321" lon="106.476944"><ele>-5.0</ele><time>2011-04-30T01:01:15.0000000+00:00</time></trkpt><trkpt lat="21.106319" lon="106.476944"><ele>-5.0</ele><time>2011-04-30T01:01:20.0000000+00:00</time></trkpt><trkpt lat="21.106319" lon="106.476944"><ele>-5.1</ele><time>2011-04-30T01:01:25.0000000+00:00</time></trkpt><trkpt lat="21.106319" lon="106.476944"><ele>-5.1</ele><time>2011-04-30T01:01:30.0000000+00:00</time></trkpt><trkpt lat="21.106319" lon="106.476944"><ele>-5.1</ele><time>2011-04-30T01:01:35.0000000+00:00</time></trkpt><trkpt lat="21.106319" lon="106.476944"><ele>-5.0</ele><time>2011-04-30T01:01:40.0000000+00:00</time></trkpt><trkpt lat="21.106319" lon="106.476944"><ele>-5.0</ele><time>2011-04-30T01:01:45.0000000+00:00</time></trkpt><trkpt lat="21.106319" lon="106.476944"><ele>-5.0</ele><time>2011-04-30T01:01:50.0000000+00:00</time></trkpt><trkpt lat="21.106319" lon="106.476944"><ele>-5.0</ele><time>2011-04-30T01:01:55.0000000+00:00</time></trkpt><trkpt lat="21.106319" lon="106.476944"><ele>-5.0</ele><time>2011-04-30T01:02:00.0000000+00:00</time></trkpt><trkpt lat="21.106319" lon="106.476944"><ele>-5.0</ele><time>2011-04-30T01:02:05.0000000+00:00</time></trkpt><trkpt lat="21.106319" lon="106.476944"><ele>-4.9</ele><time>2011-04-30T01:02:10.0000000+00:00</time></trkpt><trkpt lat="21.106319" lon="106.476944"><ele>-4.9</ele><time>2011-04-30T01:02:15.0000000+00:00</time></trkpt><trkpt lat="21.106319" lon="106.476944"><ele>-4.9</ele><time>2011-04-30T01:02:20.0000000+00:00</time></trkpt><trkpt lat="21.106319" lon="106.476944"><ele>-4.8</ele><time>2011-04-30T01:02:25.0000000+00:00</time></trkpt><trkpt lat="21.106319" lon="106.476944"><ele>-4.8</ele><time>2011-04-30T01:02:30.0000000+00:00</time></trkpt><trkpt lat="21.106319" lon="106.476944"><ele>-4.8</ele><time>2011-04-30T01:02:35.0000000+00:00</time></trkpt><trkpt lat="21.106319" lon="106.476944"><ele>-4.8</ele><time>2011-04-30T01:02:40.0000000+00:00</time></trkpt><trkpt lat="21.106319" lon="106.476944"><ele>-4.8</ele><time>2011-04-30T01:02:45.0000000+00:00</time></trkpt><trkpt lat="21.106321" lon="106.476944"><ele>-4.7</ele><time>2011-04-30T01:02:50.0000000+00:00</time></trkpt><trkpt lat="21.106321" lon="106.476944"><ele>-4.7</ele><time>2011-04-30T01:02:55.0000000+00:00</time></trkpt><trkpt lat="21.106321" lon="106.476944"><ele>-4.7</ele><time>2011-04-30T01:03:00.0000000+00:00</time></trkpt><trkpt lat="21.106321" lon="106.476944"><ele>-4.7</ele><time>2011-04-30T01:03:05.0000000+00:00</time></trkpt><trkpt lat="21.106321" lon="106.476944"><ele>-4.7</ele><time>2011-04-30T01:03:10.0000000+00:00</time></trkpt><trkpt lat="21.106319" lon="106.476944"><ele>-4.7</ele><time>2011-04-30T01:03:15.0000000+00:00</time></trkpt><trkpt lat="21.10618" lon="106.477158"><ele>-4.5</ele><time>2011-04-30T01:03:20.0000000+00:00</time></trkpt><trkpt lat="21.105862" lon="106.477516"><ele>-5.6</ele><time>2011-04-30T01:03:25.0000000+00:00</time></trkpt><trkpt lat="21.105463" lon="106.477997"><ele>-8.0</ele><time>2011-04-30T01:03:30.0000000+00:00</time></trkpt><trkpt lat="21.105013" lon="106.478455"><ele>-9.3</ele><time>2011-04-30T01:03:35.0000000+00:00</time></trkpt><trkpt lat="21.1045" lon="106.478989"><ele>-8.8</ele><time>2011-04-30T01:03:40.0000000+00:00</time></trkpt><trkpt lat="21.10408" lon="106.479408"><ele>-11.6</ele><time>2011-04-30T01:03:45.0000000+00:00</time></trkpt><trkpt lat="21.103683" lon="106.479813"><ele>-14.7</ele><time>2011-04-30T01:03:50.0000000+00:00</time></trkpt><trkpt lat="21.103321" lon="106.480194"><ele>-17.5</ele><time>2011-04-30T01:03:55.0000000+00:00</time></trkpt><trkpt lat="21.102928" lon="106.480576"><ele>-21.8</ele><time>2011-04-30T01:04:00.0000000+00:00</time></trkpt><trkpt lat="21.102497" lon="106.480995"><ele>-22.1</ele><time>2011-04-30T01:04:05.0000000+00:00</time></trkpt><trkpt lat="21.101954" lon="106.481506"><ele>-24.0</ele><time>2011-04-30T01:04:10.0000000+00:00</time></trkpt><trkpt lat="21.101349" lon="106.482109"><ele>-27.4</ele><time>2011-04-30T01:04:15.0000000+00:00</time></trkpt><trkpt lat="21.100723" lon="106.482742"><ele>-30.4</ele><time>2011-04-30T01:04:20.0000000+00:00</time></trkpt><trkpt lat="21.100044" lon="106.483429"><ele>-32.8</ele><time>2011-04-30T01:04:25.0000000+00:00</time></trkpt><trkpt lat="21.099312" lon="106.484184"><ele>-34.7</ele><time>2011-04-30T01:04:30.0000000+00:00</time></trkpt><trkpt lat="21.098549" lon="106.48497"><ele>-35.1</ele><time>2011-04-30T01:04:35.0000000+00:00</time></trkpt><trkpt lat="21.097733" lon="106.485748"><ele>-34.4</ele><time>2011-04-30T01:04:40.0000000+00:00</time></trkpt><trkpt lat="21.097052" lon="106.486427"><ele>-32.7</ele><time>2011-04-30T01:04:45.0000000+00:00</time></trkpt><trkpt lat="21.096413" lon="106.487076"><ele>-33.7</ele><time>2011-04-30T01:04:50.0000000+00:00</time></trkpt><trkpt lat="21.095791" lon="106.487717"><ele>-30.4</ele><time>2011-04-30T01:04:55.0000000+00:00</time></trkpt><trkpt lat="21.095192" lon="106.488319"><ele>-29.3</ele><time>2011-04-30T01:05:00.0000000+00:00</time></trkpt><trkpt lat="21.094749" lon="106.488747"><ele>-28.1</ele><time>2011-04-30T01:05:05.0000000+00:00</time></trkpt><trkpt lat="21.094437" lon="106.48912"><ele>-25.0</ele><time>2011-04-30T01:05:10.0000000+00:00</time></trkpt><trkpt lat="21.094145" lon="106.489449"><ele>-20.6</ele><time>2011-04-30T01:05:15.0000000+00:00</time></trkpt><trkpt lat="21.093834" lon="106.489944"><ele>-12.8</ele><time>2011-04-30T01:05:20.0000000+00:00</time></trkpt><trkpt lat="21.093466" lon="106.490578"><ele>-3.5</ele><time>2011-04-30T01:05:25.0000000+00:00</time></trkpt><trkpt lat="21.093084" lon="106.491287"><ele>3.4</ele><time>2011-04-30T01:05:30.0000000+00:00</time></trkpt><trkpt lat="21.092718" lon="106.491936"><ele>7.6</ele><time>2011-04-30T01:05:35.0000000+00:00</time></trkpt><trkpt lat="21.092428" lon="106.492493"><ele>9.6</ele><time>2011-04-30T01:05:40.0000000+00:00</time></trkpt><trkpt lat="21.092148" lon="106.492981"><ele>11.1</ele><time>2011-04-30T01:05:45.0000000+00:00</time></trkpt><trkpt lat="21.091749" lon="106.493462"><ele>9.7</ele><time>2011-04-30T01:05:50.0000000+00:00</time></trkpt><trkpt lat="21.091232" lon="106.493851"><ele>6.8</ele><time>2011-04-30T01:05:55.0000000+00:00</time></trkpt><trkpt lat="21.090862" lon="106.494087"><ele>8.7</ele><time>2011-04-30T01:06:00.0000000+00:00</time></trkpt><trkpt lat="21.090635" lon="106.494209"><ele>9.1</ele><time>2011-04-30T01:06:05.0000000+00:00</time></trkpt><trkpt lat="21.09038" lon="106.494385"><ele>8.4</ele><time>2011-04-30T01:06:10.0000000+00:00</time></trkpt><trkpt lat="21.090034" lon="106.494606"><ele>4.9</ele><time>2011-04-30T01:06:15.0000000+00:00</time></trkpt><trkpt lat="21.089638" lon="106.494896"><ele>3.7</ele><time>2011-04-30T01:06:20.0000000+00:00</time></trkpt><trkpt lat="21.089182" lon="106.495201"><ele>0.5</ele><time>2011-04-30T01:06:25.0000000+00:00</time></trkpt><trkpt lat="21.088755" lon="106.495529"><ele>-1.2</ele><time>2011-04-30T01:06:30.0000000+00:00</time></trkpt><trkpt lat="21.088364" lon="106.495842"><ele>-3.5</ele><time>2011-04-30T01:06:35.0000000+00:00</time></trkpt><trkpt lat="21.088001" lon="106.496094"><ele>-3.0</ele><time>2011-04-30T01:06:40.0000000+00:00</time></trkpt><trkpt lat="21.087646" lon="106.496361"><ele>-3.4</ele><time>2011-04-30T01:06:45.0000000+00:00</time></trkpt><trkpt lat="21.087257" lon="106.496674"><ele>-5.9</ele><time>2011-04-30T01:06:50.0000000+00:00</time></trkpt><trkpt lat="21.086901" lon="106.497086"><ele>-7.4</ele><time>2011-04-30T01:06:55.0000000+00:00</time></trkpt><trkpt lat="21.086634" lon="106.497627"><ele>-7.0</ele><time>2011-04-30T01:07:00.0000000+00:00</time></trkpt><trkpt lat="21.086498" lon="106.498215"><ele>-8.2</ele><time>2011-04-30T01:07:05.0000000+00:00</time></trkpt><trkpt lat="21.086466" lon="106.498802"><ele>-7.3</ele><time>2011-04-30T01:07:10.0000000+00:00</time></trkpt><trkpt lat="21.086473" lon="106.499252"><ele>-6.6</ele><time>2011-04-30T01:07:15.0000000+00:00</time></trkpt><trkpt lat="21.0865" lon="106.499626"><ele>-8.0</ele><time>2011-04-30T01:07:20.0000000+00:00</time></trkpt><trkpt lat="21.086514" lon="106.500145"><ele>-8.5</ele><time>2011-04-30T01:07:25.0000000+00:00</time></trkpt><trkpt lat="21.086498" lon="106.500771"><ele>-7.5</ele><time>2011-04-30T01:07:30.0000000+00:00</time></trkpt><trkpt lat="21.086494" lon="106.501427"><ele>-6.6</ele><time>2011-04-30T01:07:35.0000000+00:00</time></trkpt><trkpt lat="21.086477" lon="106.502022"><ele>-5.3</ele><time>2011-04-30T01:07:40.0000000+00:00</time></trkpt><trkpt lat="21.086483" lon="106.502571"><ele>-3.2</ele><time>2011-04-30T01:07:45.0000000+00:00</time></trkpt><trkpt lat="21.086477" lon="106.50312"><ele>-2.9</ele><time>2011-04-30T01:07:50.0000000+00:00</time></trkpt><trkpt lat="21.086445" lon="106.503738"><ele>-2.3</ele><time>2011-04-30T01:07:55.0000000+00:00</time></trkpt><trkpt lat="21.086384" lon="106.504425"><ele>-5.1</ele><time>2011-04-30T01:08:00.0000000+00:00</time></trkpt><trkpt lat="21.08637" lon="106.505188"><ele>-6.6</ele><time>2011-04-30T01:08:05.0000000+00:00</time></trkpt><trkpt lat="21.086508" lon="106.505989"><ele>-7.7</ele><time>2011-04-30T01:08:10.0000000+00:00</time></trkpt><trkpt lat="21.086689" lon="106.506889"><ele>-9.9</ele><time>2011-04-30T01:08:15.0000000+00:00</time></trkpt><trkpt lat="21.086874" lon="106.507843"><ele>-10.3</ele><time>2011-04-30T01:08:20.0000000+00:00</time></trkpt><trkpt lat="21.087091" lon="106.508858"><ele>-12.6</ele><time>2011-04-30T01:08:25.0000000+00:00</time></trkpt><trkpt lat="21.087317" lon="106.509903"><ele>-13.7</ele><time>2011-04-30T01:08:30.0000000+00:00</time></trkpt><trkpt lat="21.087555" lon="106.510971"><ele>-14.5</ele><time>2011-04-30T01:08:35.0000000+00:00</time></trkpt><trkpt lat="21.087767" lon="106.512016"><ele>-15.4</ele><time>2011-04-30T01:08:40.0000000+00:00</time></trkpt><trkpt lat="21.087933" lon="106.512901"><ele>-15.5</ele><time>2011-04-30T01:08:45.0000000+00:00</time></trkpt><trkpt lat="21.088074" lon="106.513702"><ele>-15.9</ele><time>2011-04-30T01:08:50.0000000+00:00</time></trkpt><trkpt lat="21.088261" lon="106.514526"><ele>-16.1</ele><time>2011-04-30T01:08:55.0000000+00:00</time></trkpt><trkpt lat="21.088446" lon="106.515411"><ele>-14.8</ele><time>2011-04-30T01:09:00.0000000+00:00</time></trkpt><trkpt lat="21.08864" lon="106.51635"><ele>-14.1</ele><time>2011-04-30T01:09:05.0000000+00:00</time></trkpt><trkpt lat="21.088797" lon="106.51722"><ele>-11.8</ele><time>2011-04-30T01:09:10.0000000+00:00</time></trkpt><trkpt lat="21.088808" lon="106.517929"><ele>-11.0</ele><time>2011-04-30T01:09:15.0000000+00:00</time></trkpt><trkpt lat="21.088654" lon="106.518478"><ele>-9.7</ele><time>2011-04-30T01:09:20.0000000+00:00</time></trkpt><trkpt lat="21.088446" lon="106.518951"><ele>-8.7</ele><time>2011-04-30T01:09:25.0000000+00:00</time></trkpt><trkpt lat="21.088293" lon="106.519234"><ele>-8.1</ele><time>2011-04-30T01:09:30.0000000+00:00</time></trkpt><trkpt lat="21.088276" lon="106.519249"><ele>-7.8</ele><time>2011-04-30T01:09:35.0000000+00:00</time></trkpt><trkpt lat="21.088274" lon="106.519257"><ele>-8.0</ele><time>2011-04-30T01:09:40.0000000+00:00</time></trkpt><trkpt lat="21.088278" lon="106.519249"><ele>-8.1</ele><time>2011-04-30T01:09:45.0000000+00:00</time></trkpt><trkpt lat="21.088282" lon="106.519241"><ele>-8.1</ele><time>2011-04-30T01:09:50.0000000+00:00</time></trkpt><trkpt lat="21.088287" lon="106.519226"><ele>-8.1</ele><time>2011-04-30T01:09:55.0000000+00:00</time></trkpt><trkpt lat="21.088293" lon="106.519218"><ele>-8.1</ele><time>2011-04-30T01:10:00.0000000+00:00</time></trkpt><trkpt lat="21.088295" lon="106.519218"><ele>-8.2</ele><time>2011-04-30T01:10:05.0000000+00:00</time></trkpt><trkpt lat="21.088295" lon="106.519218"><ele>-8.2</ele><time>2011-04-30T01:10:10.0000000+00:00</time></trkpt><trkpt lat="21.088293" lon="106.519226"><ele>-8.2</ele><time>2011-04-30T01:10:15.0000000+00:00</time></trkpt><trkpt lat="21.088291" lon="106.519226"><ele>-8.1</ele><time>2011-04-30T01:10:20.0000000+00:00</time></trkpt><trkpt lat="21.088295" lon="106.519226"><ele>-8.0</ele><time>2011-04-30T01:10:25.0000000+00:00</time></trkpt><trkpt lat="21.088295" lon="106.519226"><ele>-8.0</ele><time>2011-04-30T01:10:30.0000000+00:00</time></trkpt><trkpt lat="21.088249" lon="106.51931"><ele>-7.8</ele><time>2011-04-30T01:10:35.0000000+00:00</time></trkpt><trkpt lat="21.088104" lon="106.519608"><ele>-7.0</ele><time>2011-04-30T01:10:40.0000000+00:00</time></trkpt><trkpt lat="21.0879" lon="106.519943"><ele>-4.1</ele><time>2011-04-30T01:10:45.0000000+00:00</time></trkpt><trkpt lat="21.087801" lon="106.520142"><ele>-1.8</ele><time>2011-04-30T01:10:50.0000000+00:00</time></trkpt><trkpt lat="21.087652" lon="106.520363"><ele>-0.5</ele><time>2011-04-30T01:10:55.0000000+00:00</time></trkpt><trkpt lat="21.087328" lon="106.520851"><ele>0.7</ele><time>2011-04-30T01:11:00.0000000+00:00</time></trkpt><trkpt lat="21.086981" lon="106.521362"><ele>2.0</ele><time>2011-04-30T01:11:05.0000000+00:00</time></trkpt><trkpt lat="21.086578" lon="106.521965"><ele>-0.6</ele><time>2011-04-30T01:11:10.0000000+00:00</time></trkpt><trkpt lat="21.086143" lon="106.522629"><ele>-1.8</ele><time>2011-04-30T01:11:15.0000000+00:00</time></trkpt><trkpt lat="21.085701" lon="106.523331"><ele>-2.4</ele><time>2011-04-30T01:11:20.0000000+00:00</time></trkpt><trkpt lat="21.085243" lon="106.524086"><ele>-1.5</ele><time>2011-04-30T01:11:25.0000000+00:00</time></trkpt><trkpt lat="21.084724" lon="106.524895"><ele>-1.4</ele><time>2011-04-30T01:11:30.0000000+00:00</time></trkpt><trkpt lat="21.0842" lon="106.525681"><ele>-0.4</ele><time>2011-04-30T01:11:35.0000000+00:00</time></trkpt><trkpt lat="21.083498" lon="106.526283"><ele>0.4</ele><time>2011-04-30T01:11:40.0000000+00:00</time></trkpt><trkpt lat="21.082682" lon="106.526672"><ele>1.7</ele><time>2011-04-30T01:11:45.0000000+00:00</time></trkpt><trkpt lat="21.081869" lon="106.526985"><ele>3.5</ele><time>2011-04-30T01:11:50.0000000+00:00</time></trkpt><trkpt lat="21.081202" lon="106.527222"><ele>3.2</ele><time>2011-04-30T01:11:55.0000000+00:00</time></trkpt><trkpt lat="21.080517" lon="106.527466"><ele>1.3</ele><time>2011-04-30T01:12:00.0000000+00:00</time></trkpt><trkpt lat="21.079754" lon="106.527756"><ele>0.4</ele><time>2011-04-30T01:12:05.0000000+00:00</time></trkpt><trkpt lat="21.078936" lon="106.528053"><ele>-0.5</ele><time>2011-04-30T01:12:10.0000000+00:00</time></trkpt><trkpt lat="21.078093" lon="106.528366"><ele>-2.2</ele><time>2011-04-30T01:12:15.0000000+00:00</time></trkpt><trkpt lat="21.077381" lon="106.528641"><ele>-3.2</ele><time>2011-04-30T01:12:20.0000000+00:00</time></trkpt><trkpt lat="21.076647" lon="106.5289"><ele>-4.1</ele><time>2011-04-30T01:12:25.0000000+00:00</time></trkpt><trkpt lat="21.075846" lon="106.529213"><ele>-7.2</ele><time>2011-04-30T01:12:30.0000000+00:00</time></trkpt><trkpt lat="21.075024" lon="106.52951"><ele>-12.1</ele><time>2011-04-30T01:12:35.0000000+00:00</time></trkpt><trkpt lat="21.074329" lon="106.529785"><ele>-14.5</ele><time>2011-04-30T01:12:40.0000000+00:00</time></trkpt><trkpt lat="21.073881" lon="106.530006"><ele>-16.4</ele><time>2011-04-30T01:12:45.0000000+00:00</time></trkpt><trkpt lat="21.07362" lon="106.530304"><ele>-15.5</ele><time>2011-04-30T01:12:50.0000000+00:00</time></trkpt><trkpt lat="21.073521" lon="106.530754"><ele>-13.1</ele><time>2011-04-30T01:12:55.0000000+00:00</time></trkpt><trkpt lat="21.073458" lon="106.531258"><ele>-9.7</ele><time>2011-04-30T01:13:00.0000000+00:00</time></trkpt><trkpt lat="21.073441" lon="106.531792"><ele>-2.4</ele><time>2011-04-30T01:13:05.0000000+00:00</time></trkpt><trkpt lat="21.073479" lon="106.532288"><ele>-0.6</ele><time>2011-04-30T01:13:10.0000000+00:00</time></trkpt><trkpt lat="21.073597" lon="106.532837"><ele>2.6</ele><time>2011-04-30T01:13:15.0000000+00:00</time></trkpt><trkpt lat="21.073702" lon="106.533394"><ele>3.7</ele><time>2011-04-30T01:13:20.0000000+00:00</time></trkpt><trkpt lat="21.073812" lon="106.533974"><ele>1.5</ele><time>2011-04-30T01:13:25.0000000+00:00</time></trkpt><trkpt lat="21.073896" lon="106.534576"><ele>0.6</ele><time>2011-04-30T01:13:30.0000000+00:00</time></trkpt><trkpt lat="21.074022" lon="106.535179"><ele>-0.4</ele><time>2011-04-30T01:13:35.0000000+00:00</time></trkpt><trkpt lat="21.074129" lon="106.535774"><ele>-2.5</ele><time>2011-04-30T01:13:40.0000000+00:00</time></trkpt><trkpt lat="21.074223" lon="106.53624"><ele>-2.1</ele><time>2011-04-30T01:13:45.0000000+00:00</time></trkpt><trkpt lat="21.074299" lon="106.536736"><ele>-4.7</ele><time>2011-04-30T01:13:50.0000000+00:00</time></trkpt><trkpt lat="21.074408" lon="106.537361"><ele>-6.3</ele><time>2011-04-30T01:13:55.0000000+00:00</time></trkpt><trkpt lat="21.074509" lon="106.53804"><ele>-7.7</ele><time>2011-04-30T01:14:00.0000000+00:00</time></trkpt><trkpt lat="21.074621" lon="106.538696"><ele>-9.6</ele><time>2011-04-30T01:14:05.0000000+00:00</time></trkpt><trkpt lat="21.074728" lon="106.539436"><ele>-9.6</ele><time>2011-04-30T01:14:10.0000000+00:00</time></trkpt><trkpt lat="21.074877" lon="106.54023"><ele>-6.2</ele><time>2011-04-30T01:14:15.0000000+00:00</time></trkpt><trkpt lat="21.0749" lon="106.541016"><ele>-5.3</ele><time>2011-04-30T01:14:20.0000000+00:00</time></trkpt><trkpt lat="21.074768" lon="106.541733"><ele>-4.8</ele><time>2011-04-30T01:14:25.0000000+00:00</time></trkpt><trkpt lat="21.074566" lon="106.542473"><ele>-3.8</ele><time>2011-04-30T01:14:30.0000000+00:00</time></trkpt><trkpt lat="21.074341" lon="106.543274"><ele>-0.3</ele><time>2011-04-30T01:14:35.0000000+00:00</time></trkpt><trkpt lat="21.074123" lon="106.543945"><ele>0.6</ele><time>2011-04-30T01:14:40.0000000+00:00</time></trkpt><trkpt lat="21.073931" lon="106.544678"><ele>2.0</ele><time>2011-04-30T01:14:45.0000000+00:00</time></trkpt><trkpt lat="21.073748" lon="106.545395"><ele>3.9</ele><time>2011-04-30T01:14:50.0000000+00:00</time></trkpt><trkpt lat="21.073549" lon="106.54612"><ele>7.8</ele><time>2011-04-30T01:14:55.0000000+00:00</time></trkpt><trkpt lat="21.073326" lon="106.546822"><ele>11.7</ele><time>2011-04-30T01:15:00.0000000+00:00</time></trkpt><trkpt lat="21.073149" lon="106.547493"><ele>13.6</ele><time>2011-04-30T01:15:05.0000000+00:00</time></trkpt><trkpt lat="21.073" lon="106.54821"><ele>12.3</ele><time>2011-04-30T01:15:10.0000000+00:00</time></trkpt><trkpt lat="21.072824" lon="106.548874"><ele>11.3</ele><time>2011-04-30T01:15:15.0000000+00:00</time></trkpt><trkpt lat="21.072613" lon="106.549591"><ele>7.2</ele><time>2011-04-30T01:15:20.0000000+00:00</time></trkpt><trkpt lat="21.072403" lon="106.550308"><ele>6.9</ele><time>2011-04-30T01:15:25.0000000+00:00</time></trkpt><trkpt lat="21.072166" lon="106.551018"><ele>6.1</ele><time>2011-04-30T01:15:30.0000000+00:00</time></trkpt><trkpt lat="21.071898" lon="106.551765"><ele>4.4</ele><time>2011-04-30T01:15:35.0000000+00:00</time></trkpt><trkpt lat="21.071659" lon="106.552437"><ele>2.2</ele><time>2011-04-30T01:15:40.0000000+00:00</time></trkpt><trkpt lat="21.071436" lon="106.553032"><ele>0.3</ele><time>2011-04-30T01:15:45.0000000+00:00</time></trkpt><trkpt lat="21.071209" lon="106.553665"><ele>-1.5</ele><time>2011-04-30T01:15:50.0000000+00:00</time></trkpt><trkpt lat="21.07098" lon="106.55423"><ele>-2.7</ele><time>2011-04-30T01:15:55.0000000+00:00</time></trkpt><trkpt lat="21.070814" lon="106.554642"><ele>-3.2</ele><time>2011-04-30T01:16:00.0000000+00:00</time></trkpt><trkpt lat="21.07077" lon="106.554779"><ele>-5.4</ele><time>2011-04-30T01:16:05.0000000+00:00</time></trkpt><trkpt lat="21.070749" lon="106.554787"><ele>-5.5</ele><time>2011-04-30T01:16:10.0000000+00:00</time></trkpt><trkpt lat="21.070744" lon="106.554787"><ele>-5.8</ele><time>2011-04-30T01:16:15.0000000+00:00</time></trkpt><trkpt lat="21.070744" lon="106.554787"><ele>-5.9</ele><time>2011-04-30T01:16:20.0000000+00:00</time></trkpt><trkpt lat="21.070744" lon="106.554779"><ele>-5.9</ele><time>2011-04-30T01:16:25.0000000+00:00</time></trkpt><trkpt lat="21.070736" lon="106.554825"><ele>-6.1</ele><time>2011-04-30T01:16:30.0000000+00:00</time></trkpt><trkpt lat="21.070669" lon="106.555077"><ele>-7.2</ele><time>2011-04-30T01:16:35.0000000+00:00</time></trkpt><trkpt lat="21.07056" lon="106.555367"><ele>-9.1</ele><time>2011-04-30T01:16:40.0000000+00:00</time></trkpt><trkpt lat="21.07044" lon="106.555634"><ele>-9.6</ele><time>2011-04-30T01:16:45.0000000+00:00</time></trkpt><trkpt lat="21.070295" lon="106.556068"><ele>-12.3</ele><time>2011-04-30T01:16:50.0000000+00:00</time></trkpt><trkpt lat="21.070129" lon="106.556572"><ele>-12.3</ele><time>2011-04-30T01:16:55.0000000+00:00</time></trkpt><trkpt lat="21.069885" lon="106.557152"><ele>-14.3</ele><time>2011-04-30T01:17:00.0000000+00:00</time></trkpt><trkpt lat="21.069675" lon="106.557793"><ele>-14.4</ele><time>2011-04-30T01:17:05.0000000+00:00</time></trkpt><trkpt lat="21.069427" lon="106.558487"><ele>-12.9</ele><time>2011-04-30T01:17:10.0000000+00:00</time></trkpt><trkpt lat="21.069147" lon="106.559204"><ele>-13.2</ele><time>2011-04-30T01:17:15.0000000+00:00</time></trkpt><trkpt lat="21.068899" lon="106.559998"><ele>-12.8</ele><time>2011-04-30T01:17:20.0000000+00:00</time></trkpt><trkpt lat="21.068605" lon="106.560852"><ele>-13.7</ele><time>2011-04-30T01:17:25.0000000+00:00</time></trkpt><trkpt lat="21.068308" lon="106.561699"><ele>-14.4</ele><time>2011-04-30T01:17:30.0000000+00:00</time></trkpt><trkpt lat="21.068014" lon="106.562523"><ele>-15.1</ele><time>2011-04-30T01:17:35.0000000+00:00</time></trkpt><trkpt lat="21.06773" lon="106.563332"><ele>-11.9</ele><time>2011-04-30T01:17:40.0000000+00:00</time></trkpt><trkpt lat="21.067453" lon="106.564095"><ele>-13.0</ele><time>2011-04-30T01:17:45.0000000+00:00</time></trkpt><trkpt lat="21.067209" lon="106.564827"><ele>-11.6</ele><time>2011-04-30T01:17:50.0000000+00:00</time></trkpt><trkpt lat="21.066963" lon="106.565514"><ele>-10.6</ele><time>2011-04-30T01:17:55.0000000+00:00</time></trkpt><trkpt lat="21.066797" lon="106.56601"><ele>-9.6</ele><time>2011-04-30T01:18:00.0000000+00:00</time></trkpt><trkpt lat="21.066631" lon="106.566498"><ele>-9.6</ele><time>2011-04-30T01:18:05.0000000+00:00</time></trkpt><trkpt lat="21.066469" lon="106.56694"><ele>-9.4</ele><time>2011-04-30T01:18:10.0000000+00:00</time></trkpt><trkpt lat="21.066336" lon="106.56736"><ele>-7.4</ele><time>2011-04-30T01:18:15.0000000+00:00</time></trkpt><trkpt lat="21.066128" lon="106.567863"><ele>-7.3</ele><time>2011-04-30T01:18:20.0000000+00:00</time></trkpt><trkpt lat="21.06592" lon="106.568466"><ele>-6.6</ele><time>2011-04-30T01:18:25.0000000+00:00</time></trkpt><trkpt lat="21.065733" lon="106.569008"><ele>-5.6</ele><time>2011-04-30T01:18:30.0000000+00:00</time></trkpt><trkpt lat="21.06559" lon="106.569481"><ele>-5.4</ele><time>2011-04-30T01:18:35.0000000+00:00</time></trkpt><trkpt lat="21.065399" lon="106.57003"><ele>-4.8</ele><time>2011-04-30T01:18:40.0000000+00:00</time></trkpt><trkpt lat="21.065151" lon="106.570686"><ele>-1.7</ele><time>2011-04-30T01:18:45.0000000+00:00</time></trkpt><trkpt lat="21.064894" lon="106.571358"><ele>-1.8</ele><time>2011-04-30T01:18:50.0000000+00:00</time></trkpt><trkpt lat="21.06465" lon="106.571991"><ele>-2.2</ele><time>2011-04-30T01:18:55.0000000+00:00</time></trkpt><trkpt lat="21.06447" lon="106.572502"><ele>-2.4</ele><time>2011-04-30T01:19:00.0000000+00:00</time></trkpt><trkpt lat="21.064341" lon="106.572868"><ele>-1.7</ele><time>2011-04-30T01:19:05.0000000+00:00</time></trkpt><trkpt lat="21.064173" lon="106.573357"><ele>-1.6</ele><time>2011-04-30T01:19:10.0000000+00:00</time></trkpt><trkpt lat="21.063992" lon="106.573906"><ele>-1.9</ele><time>2011-04-30T01:19:15.0000000+00:00</time></trkpt><trkpt lat="21.063745" lon="106.574539"><ele>-0.3</ele><time>2011-04-30T01:19:20.0000000+00:00</time></trkpt><trkpt lat="21.063431" lon="106.575302"><ele>0.9</ele><time>2011-04-30T01:19:25.0000000+00:00</time></trkpt><trkpt lat="21.063129" lon="106.576141"><ele>3.1</ele><time>2011-04-30T01:19:30.0000000+00:00</time></trkpt><trkpt lat="21.062811" lon="106.576965"><ele>6.4</ele><time>2011-04-30T01:19:35.0000000+00:00</time></trkpt><trkpt lat="21.062544" lon="106.577843"><ele>9.1</ele><time>2011-04-30T01:19:40.0000000+00:00</time></trkpt><trkpt lat="21.062273" lon="106.578697"><ele>11.1</ele><time>2011-04-30T01:19:45.0000000+00:00</time></trkpt><trkpt lat="21.062094" lon="106.579567"><ele>13.1</ele><time>2011-04-30T01:19:50.0000000+00:00</time></trkpt><trkpt lat="21.061945" lon="106.58033"><ele>12.4</ele><time>2011-04-30T01:19:55.0000000+00:00</time></trkpt><trkpt lat="21.061817" lon="106.580902"><ele>12.7</ele><time>2011-04-30T01:20:00.0000000+00:00</time></trkpt><trkpt lat="21.06172" lon="106.581406"><ele>15.0</ele><time>2011-04-30T01:20:05.0000000+00:00</time></trkpt><trkpt lat="21.061617" lon="106.581741"><ele>12.5</ele><time>2011-04-30T01:20:10.0000000+00:00</time></trkpt><trkpt lat="21.061588" lon="106.581947"><ele>12.8</ele><time>2011-04-30T01:20:15.0000000+00:00</time></trkpt><trkpt lat="21.061531" lon="106.582222"><ele>12.0</ele><time>2011-04-30T01:20:20.0000000+00:00</time></trkpt><trkpt lat="21.061449" lon="106.582565"><ele>9.5</ele><time>2011-04-30T01:20:25.0000000+00:00</time></trkpt><trkpt lat="21.06134" lon="106.582962"><ele>6.8</ele><time>2011-04-30T01:20:30.0000000+00:00</time></trkpt><trkpt lat="21.061241" lon="106.583359"><ele>4.7</ele><time>2011-04-30T01:20:35.0000000+00:00</time></trkpt><trkpt lat="21.061178" lon="106.583633"><ele>1.5</ele><time>2011-04-30T01:20:40.0000000+00:00</time></trkpt><trkpt lat="21.061121" lon="106.583954"><ele>-0.8</ele><time>2011-04-30T01:20:45.0000000+00:00</time></trkpt><trkpt lat="21.061075" lon="106.58432"><ele>-0.7</ele><time>2011-04-30T01:20:50.0000000+00:00</time></trkpt><trkpt lat="21.061029" lon="106.584671"><ele>-1.1</ele><time>2011-04-30T01:20:55.0000000+00:00</time></trkpt><trkpt lat="21.06093" lon="106.585114"><ele>-1.5</ele><time>2011-04-30T01:21:00.0000000+00:00</time></trkpt><trkpt lat="21.060772" lon="106.585632"><ele>-3.4</ele><time>2011-04-30T01:21:05.0000000+00:00</time></trkpt><trkpt lat="21.060627" lon="106.58625"><ele>-1.8</ele><time>2011-04-30T01:21:10.0000000+00:00</time></trkpt><trkpt lat="21.060436" lon="106.586884"><ele>-2.3</ele><time>2011-04-30T01:21:15.0000000+00:00</time></trkpt><trkpt lat="21.060362" lon="106.587067"><ele>-2.2</ele><time>2011-04-30T01:21:20.0000000+00:00</time></trkpt><trkpt lat="21.060373" lon="106.587189"><ele>-0.1</ele><time>2011-04-30T01:21:25.0000000+00:00</time></trkpt><trkpt lat="21.06028" lon="106.587463"><ele>1.7</ele><time>2011-04-30T01:21:30.0000000+00:00</time></trkpt><trkpt lat="21.060156" lon="106.587868"><ele>3.3</ele><time>2011-04-30T01:21:35.0000000+00:00</time></trkpt><trkpt lat="21.059977" lon="106.588409"><ele>4.5</ele><time>2011-04-30T01:21:40.0000000+00:00</time></trkpt><trkpt lat="21.05983" lon="106.589005"><ele>6.4</ele><time>2011-04-30T01:21:45.0000000+00:00</time></trkpt><trkpt lat="21.059662" lon="106.589592"><ele>7.8</ele><time>2011-04-30T01:21:50.0000000+00:00</time></trkpt><trkpt lat="21.059557" lon="106.590073"><ele>9.1</ele><time>2011-04-30T01:21:55.0000000+00:00</time></trkpt><trkpt lat="21.05945" lon="106.590469"><ele>12.6</ele><time>2011-04-30T01:22:00.0000000+00:00</time></trkpt><trkpt lat="21.05942" lon="106.590752"><ele>12.1</ele><time>2011-04-30T01:22:05.0000000+00:00</time></trkpt><trkpt lat="21.059389" lon="106.590851"><ele>12.8</ele><time>2011-04-30T01:22:10.0000000+00:00</time></trkpt><trkpt lat="21.059381" lon="106.590919"><ele>13.8</ele><time>2011-04-30T01:22:15.0000000+00:00</time></trkpt><trkpt lat="21.05937" lon="106.591011"><ele>15.3</ele><time>2011-04-30T01:22:20.0000000+00:00</time></trkpt><trkpt lat="21.059357" lon="106.591057"><ele>16.3</ele><time>2011-04-30T01:22:25.0000000+00:00</time></trkpt><trkpt lat="21.059361" lon="106.59111"><ele>17.6</ele><time>2011-04-30T01:22:30.0000000+00:00</time></trkpt><trkpt lat="21.059343" lon="106.591133"><ele>18.2</ele><time>2011-04-30T01:22:35.0000000+00:00</time></trkpt><trkpt lat="21.059317" lon="106.591171"><ele>17.8</ele><time>2011-04-30T01:22:40.0000000+00:00</time></trkpt><trkpt lat="21.059294" lon="106.59127"><ele>17.8</ele><time>2011-04-30T01:22:45.0000000+00:00</time></trkpt><trkpt lat="21.059261" lon="106.591385"><ele>17.2</ele><time>2011-04-30T01:22:50.0000000+00:00</time></trkpt><trkpt lat="21.059216" lon="106.59156"><ele>16.5</ele><time>2011-04-30T01:22:55.0000000+00:00</time></trkpt><trkpt lat="21.059128" lon="106.591736"><ele>16.9</ele><time>2011-04-30T01:23:00.0000000+00:00</time></trkpt><trkpt lat="21.059027" lon="106.591949"><ele>15.8</ele><time>2011-04-30T01:23:05.0000000+00:00</time></trkpt><trkpt lat="21.058945" lon="106.592163"><ele>17.1</ele><time>2011-04-30T01:23:10.0000000+00:00</time></trkpt><trkpt lat="21.058796" lon="106.592468"><ele>18.4</ele><time>2011-04-30T01:23:15.0000000+00:00</time></trkpt><trkpt lat="21.05858" lon="106.592972"><ele>22.1</ele><time>2011-04-30T01:23:20.0000000+00:00</time></trkpt><trkpt lat="21.058393" lon="106.593422"><ele>27.6</ele><time>2011-04-30T01:23:25.0000000+00:00</time></trkpt><trkpt lat="21.058247" lon="106.593765"><ele>31.8</ele><time>2011-04-30T01:23:30.0000000+00:00</time></trkpt><trkpt lat="21.058151" lon="106.594009"><ele>35.8</ele><time>2011-04-30T01:23:35.0000000+00:00</time></trkpt><trkpt lat="21.058054" lon="106.594376"><ele>39.1</ele><time>2011-04-30T01:23:40.0000000+00:00</time></trkpt><trkpt lat="21.057974" lon="106.594719"><ele>35.7</ele><time>2011-04-30T01:23:45.0000000+00:00</time></trkpt><trkpt lat="21.057835" lon="106.595123"><ele>35.8</ele><time>2011-04-30T01:23:50.0000000+00:00</time></trkpt><trkpt lat="21.057682" lon="106.595535"><ele>35.4</ele><time>2011-04-30T01:23:55.0000000+00:00</time></trkpt><trkpt lat="21.057613" lon="106.595779"><ele>32.9</ele><time>2011-04-30T01:24:00.0000000+00:00</time></trkpt><trkpt lat="21.057549" lon="106.595955"><ele>31.2</ele><time>2011-04-30T01:24:05.0000000+00:00</time></trkpt><trkpt lat="21.057455" lon="106.596169"><ele>29.2</ele><time>2011-04-30T01:24:10.0000000+00:00</time></trkpt><trkpt lat="21.057339" lon="106.59642"><ele>29.6</ele><time>2011-04-30T01:24:15.0000000+00:00</time></trkpt><trkpt lat="21.057261" lon="106.596634"><ele>33.3</ele><time>2011-04-30T01:24:20.0000000+00:00</time></trkpt><trkpt lat="21.057209" lon="106.596916"><ele>30.9</ele><time>2011-04-30T01:24:25.0000000+00:00</time></trkpt><trkpt lat="21.057192" lon="106.597137"><ele>27.9</ele><time>2011-04-30T01:24:30.0000000+00:00</time></trkpt><trkpt lat="21.057091" lon="106.597313"><ele>27.6</ele><time>2011-04-30T01:24:35.0000000+00:00</time></trkpt><trkpt lat="21.057009" lon="106.597565"><ele>31.2</ele><time>2011-04-30T01:24:40.0000000+00:00</time></trkpt><trkpt lat="21.056942" lon="106.59771"><ele>35.7</ele><time>2011-04-30T01:24:45.0000000+00:00</time></trkpt><trkpt lat="21.056919" lon="106.597832"><ele>37.2</ele><time>2011-04-30T01:24:50.0000000+00:00</time></trkpt><trkpt lat="21.056908" lon="106.597954"><ele>39.5</ele><time>2011-04-30T01:24:55.0000000+00:00</time></trkpt><trkpt lat="21.05691" lon="106.597992"><ele>39.1</ele><time>2011-04-30T01:25:00.0000000+00:00</time></trkpt><trkpt lat="21.056898" lon="106.598076"><ele>41.0</ele><time>2011-04-30T01:25:05.0000000+00:00</time></trkpt><trkpt lat="21.056814" lon="106.598328"><ele>41.0</ele><time>2011-04-30T01:25:10.0000000+00:00</time></trkpt><trkpt lat="21.056746" lon="106.598595"><ele>40.4</ele><time>2011-04-30T01:25:15.0000000+00:00</time></trkpt><trkpt lat="21.056667" lon="106.598907"><ele>41.2</ele><time>2011-04-30T01:25:20.0000000+00:00</time></trkpt><trkpt lat="21.056602" lon="106.599075"><ele>41.7</ele><time>2011-04-30T01:25:25.0000000+00:00</time></trkpt><trkpt lat="21.05654" lon="106.59922"><ele>43.3</ele><time>2011-04-30T01:25:30.0000000+00:00</time></trkpt><trkpt lat="21.056473" lon="106.599342"><ele>44.1</ele><time>2011-04-30T01:25:35.0000000+00:00</time></trkpt><trkpt lat="21.05641" lon="106.599464"><ele>43.8</ele><time>2011-04-30T01:25:40.0000000+00:00</time></trkpt><trkpt lat="21.056381" lon="106.599586"><ele>37.8</ele><time>2011-04-30T01:25:45.0000000+00:00</time></trkpt><trkpt lat="21.056355" lon="106.599731"><ele>33.7</ele><time>2011-04-30T01:25:50.0000000+00:00</time></trkpt><trkpt lat="21.056328" lon="106.599869"><ele>31.9</ele><time>2011-04-30T01:25:55.0000000+00:00</time></trkpt><trkpt lat="21.056301" lon="106.600029"><ele>29.4</ele><time>2011-04-30T01:26:00.0000000+00:00</time></trkpt><trkpt lat="21.056231" lon="106.600189"><ele>28.4</ele><time>2011-04-30T01:26:05.0000000+00:00</time></trkpt><trkpt lat="21.056171" lon="106.600334"><ele>27.6</ele><time>2011-04-30T01:26:10.0000000+00:00</time></trkpt><trkpt lat="21.056103" lon="106.60054"><ele>30.8</ele><time>2011-04-30T01:26:15.0000000+00:00</time></trkpt><trkpt lat="21.056093" lon="106.600655"><ele>31.5</ele><time>2011-04-30T01:26:20.0000000+00:00</time></trkpt><trkpt lat="21.056095" lon="106.600723"><ele>29.7</ele><time>2011-04-30T01:26:25.0000000+00:00</time></trkpt><trkpt lat="21.056099" lon="106.600746"><ele>30.8</ele><time>2011-04-30T01:26:30.0000000+00:00</time></trkpt><trkpt lat="21.056099" lon="106.600777"><ele>31.7</ele><time>2011-04-30T01:26:35.0000000+00:00</time></trkpt><trkpt lat="21.056093" lon="106.600792"><ele>32.7</ele><time>2011-04-30T01:26:40.0000000+00:00</time></trkpt><trkpt lat="21.056093" lon="106.600792"><ele>33.3</ele><time>2011-04-30T01:26:45.0000000+00:00</time></trkpt><trkpt lat="21.056093" lon="106.600784"><ele>33.5</ele><time>2011-04-30T01:26:50.0000000+00:00</time></trkpt><trkpt lat="21.056095" lon="106.600784"><ele>33.5</ele><time>2011-04-30T01:26:55.0000000+00:00</time></trkpt><trkpt lat="21.056078" lon="106.600845"><ele>33.3</ele><time>2011-04-30T01:27:00.0000000+00:00</time></trkpt><trkpt lat="21.055998" lon="106.601036"><ele>33.8</ele><time>2011-04-30T01:27:05.0000000+00:00</time></trkpt><trkpt lat="21.055935" lon="106.601158"><ele>35.1</ele><time>2011-04-30T01:27:10.0000000+00:00</time></trkpt><trkpt lat="21.055893" lon="106.601227"><ele>36.7</ele><time>2011-04-30T01:27:15.0000000+00:00</time></trkpt><trkpt lat="21.055868" lon="106.601265"><ele>37.9</ele><time>2011-04-30T01:27:20.0000000+00:00</time></trkpt><trkpt lat="21.055855" lon="106.601311"><ele>39.3</ele><time>2011-04-30T01:27:25.0000000+00:00</time></trkpt><trkpt lat="21.055822" lon="106.601418"><ele>39.9</ele><time>2011-04-30T01:27:30.0000000+00:00</time></trkpt><trkpt lat="21.055809" lon="106.601433"><ele>40.1</ele><time>2011-04-30T01:27:35.0000000+00:00</time></trkpt><trkpt lat="21.055805" lon="106.60144"><ele>40.0</ele><time>2011-04-30T01:27:40.0000000+00:00</time></trkpt><trkpt lat="21.055792" lon="106.601456"><ele>40.1</ele><time>2011-04-30T01:27:45.0000000+00:00</time></trkpt><trkpt lat="21.055775" lon="106.601471"><ele>39.5</ele><time>2011-04-30T01:27:50.0000000+00:00</time></trkpt><trkpt lat="21.055759" lon="106.601509"><ele>39.4</ele><time>2011-04-30T01:27:55.0000000+00:00</time></trkpt><trkpt lat="21.055721" lon="106.601578"><ele>38.6</ele><time>2011-04-30T01:28:00.0000000+00:00</time></trkpt><trkpt lat="21.055676" lon="106.601662"><ele>37.0</ele><time>2011-04-30T01:28:05.0000000+00:00</time></trkpt><trkpt lat="21.05563" lon="106.601776"><ele>35.2</ele><time>2011-04-30T01:28:10.0000000+00:00</time></trkpt><trkpt lat="21.055616" lon="106.601913"><ele>33.7</ele><time>2011-04-30T01:28:15.0000000+00:00</time></trkpt><trkpt lat="21.055647" lon="106.602013"><ele>32.2</ele><time>2011-04-30T01:28:20.0000000+00:00</time></trkpt><trkpt lat="21.05554" lon="106.602211"><ele>32.7</ele><time>2011-04-30T01:28:25.0000000+00:00</time></trkpt><trkpt lat="21.055521" lon="106.602371"><ele>32.5</ele><time>2011-04-30T01:28:30.0000000+00:00</time></trkpt><trkpt lat="21.055525" lon="106.602478"><ele>31.1</ele><time>2011-04-30T01:28:35.0000000+00:00</time></trkpt><trkpt lat="21.05549" lon="106.602562"><ele>27.8</ele><time>2011-04-30T01:28:40.0000000+00:00</time></trkpt><trkpt lat="21.055477" lon="106.6026"><ele>26.2</ele><time>2011-04-30T01:28:45.0000000+00:00</time></trkpt><trkpt lat="21.055473" lon="106.6026"><ele>25.5</ele><time>2011-04-30T01:28:50.0000000+00:00</time></trkpt><trkpt lat="21.055471" lon="106.602608"><ele>25.5</ele><time>2011-04-30T01:28:55.0000000+00:00</time></trkpt><trkpt lat="21.055473" lon="106.602615"><ele>25.5</ele><time>2011-04-30T01:29:00.0000000+00:00</time></trkpt><trkpt lat="21.055473" lon="106.602623"><ele>25.4</ele><time>2011-04-30T01:29:05.0000000+00:00</time></trkpt><trkpt lat="21.055437" lon="106.602684"><ele>24.9</ele><time>2011-04-30T01:29:10.0000000+00:00</time></trkpt><trkpt lat="21.055399" lon="106.602753"><ele>24.4</ele><time>2011-04-30T01:29:15.0000000+00:00</time></trkpt><trkpt lat="21.055319" lon="106.602959"><ele>23.9</ele><time>2011-04-30T01:29:20.0000000+00:00</time></trkpt><trkpt lat="21.055283" lon="106.603271"><ele>23.9</ele><time>2011-04-30T01:29:25.0000000+00:00</time></trkpt><trkpt lat="21.055155" lon="106.603653"><ele>24.4</ele><time>2011-04-30T01:29:30.0000000+00:00</time></trkpt><trkpt lat="21.054991" lon="106.604172"><ele>23.6</ele><time>2011-04-30T01:29:35.0000000+00:00</time></trkpt><trkpt lat="21.05485" lon="106.604752"><ele>18.2</ele><time>2011-04-30T01:29:40.0000000+00:00</time></trkpt><trkpt lat="21.05468" lon="106.605316"><ele>14.6</ele><time>2011-04-30T01:29:45.0000000+00:00</time></trkpt><trkpt lat="21.054525" lon="106.605873"><ele>9.6</ele><time>2011-04-30T01:29:50.0000000+00:00</time></trkpt><trkpt lat="21.054407" lon="106.606285"><ele>3.8</ele><time>2011-04-30T01:29:55.0000000+00:00</time></trkpt><trkpt lat="21.054337" lon="106.606522"><ele>-0.4</ele><time>2011-04-30T01:30:00.0000000+00:00</time></trkpt><trkpt lat="21.054266" lon="106.606766"><ele>-4.8</ele><time>2011-04-30T01:30:05.0000000+00:00</time></trkpt><trkpt lat="21.054146" lon="106.607124"><ele>-5.6</ele><time>2011-04-30T01:30:10.0000000+00:00</time></trkpt><trkpt lat="21.0541" lon="106.607491"><ele>-8.3</ele><time>2011-04-30T01:30:15.0000000+00:00</time></trkpt><trkpt lat="21.054003" lon="106.607849"><ele>-10.5</ele><time>2011-04-30T01:30:20.0000000+00:00</time></trkpt><trkpt lat="21.053892" lon="106.608215"><ele>-10.3</ele><time>2011-04-30T01:30:25.0000000+00:00</time></trkpt><trkpt lat="21.053757" lon="106.608513"><ele>-7.0</ele><time>2011-04-30T01:30:30.0000000+00:00</time></trkpt><trkpt lat="21.053629" lon="106.608833"><ele>3.6</ele><time>2011-04-30T01:30:35.0000000+00:00</time></trkpt><trkpt lat="21.053556" lon="106.609161"><ele>12.5</ele><time>2011-04-30T01:30:40.0000000+00:00</time></trkpt><trkpt lat="21.053467" lon="106.609596"><ele>18.2</ele><time>2011-04-30T01:30:45.0000000+00:00</time></trkpt><trkpt lat="21.05336" lon="106.610107"><ele>21.6</ele><time>2011-04-30T01:30:50.0000000+00:00</time></trkpt><trkpt lat="21.053268" lon="106.610588"><ele>22.0</ele><time>2011-04-30T01:30:55.0000000+00:00</time></trkpt><trkpt lat="21.053171" lon="106.611092"><ele>21.1</ele><time>2011-04-30T01:31:00.0000000+00:00</time></trkpt><trkpt lat="21.053068" lon="106.611572"><ele>22.3</ele><time>2011-04-30T01:31:05.0000000+00:00</time></trkpt><trkpt lat="21.053003" lon="106.612045"><ele>22.0</ele><time>2011-04-30T01:31:10.0000000+00:00</time></trkpt><trkpt lat="21.052904" lon="106.612518"><ele>20.6</ele><time>2011-04-30T01:31:15.0000000+00:00</time></trkpt><trkpt lat="21.052795" lon="106.612907"><ele>20.9</ele><time>2011-04-30T01:31:20.0000000+00:00</time></trkpt><trkpt lat="21.052702" lon="106.613274"><ele>20.2</ele><time>2011-04-30T01:31:25.0000000+00:00</time></trkpt><trkpt lat="21.052599" lon="106.613617"><ele>21.0</ele><time>2011-04-30T01:31:30.0000000+00:00</time></trkpt><trkpt lat="21.052498" lon="106.613998"><ele>19.6</ele><time>2011-04-30T01:31:35.0000000+00:00</time></trkpt><trkpt lat="21.052387" lon="106.614349"><ele>16.0</ele><time>2011-04-30T01:31:40.0000000+00:00</time></trkpt><trkpt lat="21.052351" lon="106.61454"><ele>12.1</ele><time>2011-04-30T01:31:45.0000000+00:00</time></trkpt><trkpt lat="21.052258" lon="106.614891"><ele>9.1</ele><time>2011-04-30T01:31:50.0000000+00:00</time></trkpt><trkpt lat="21.052147" lon="106.615402"><ele>7.4</ele><time>2011-04-30T01:31:55.0000000+00:00</time></trkpt><trkpt lat="21.052023" lon="106.61599"><ele>4.9</ele><time>2011-04-30T01:32:00.0000000+00:00</time></trkpt><trkpt lat="21.051859" lon="106.616623"><ele>2.3</ele><time>2011-04-30T01:32:05.0000000+00:00</time></trkpt><trkpt lat="21.051714" lon="106.617287"><ele>-1.4</ele><time>2011-04-30T01:32:10.0000000+00:00</time></trkpt><trkpt lat="21.051611" lon="106.61776"><ele>-4.9</ele><time>2011-04-30T01:32:15.0000000+00:00</time></trkpt><trkpt lat="21.051563" lon="106.61805"><ele>-7.2</ele><time>2011-04-30T01:32:20.0000000+00:00</time></trkpt><trkpt lat="21.05159" lon="106.618454"><ele>0.5</ele><time>2011-04-30T01:32:25.0000000+00:00</time></trkpt><trkpt lat="21.051615" lon="106.618973"><ele>2.2</ele><time>2011-04-30T01:32:30.0000000+00:00</time></trkpt><trkpt lat="21.051662" lon="106.61956"><ele>0.5</ele><time>2011-04-30T01:32:35.0000000+00:00</time></trkpt><trkpt lat="21.051674" lon="106.620071"><ele>1.2</ele><time>2011-04-30T01:32:40.0000000+00:00</time></trkpt><trkpt lat="21.051706" lon="106.620605"><ele>-0.6</ele><time>2011-04-30T01:32:45.0000000+00:00</time></trkpt><trkpt lat="21.051743" lon="106.621063"><ele>0.4</ele><time>2011-04-30T01:32:50.0000000+00:00</time></trkpt><trkpt lat="21.051741" lon="106.621216"><ele>3.4</ele><time>2011-04-30T01:32:55.0000000+00:00</time></trkpt><trkpt lat="21.051727" lon="106.621231"><ele>5.2</ele><time>2011-04-30T01:33:00.0000000+00:00</time></trkpt><trkpt lat="21.051731" lon="106.621246"><ele>5.3</ele><time>2011-04-30T01:33:05.0000000+00:00</time></trkpt><trkpt lat="21.051733" lon="106.621246"><ele>5.3</ele><time>2011-04-30T01:33:10.0000000+00:00</time></trkpt><trkpt lat="21.051737" lon="106.621246"><ele>5.3</ele><time>2011-04-30T01:33:15.0000000+00:00</time></trkpt><trkpt lat="21.051743" lon="106.621254"><ele>5.4</ele><time>2011-04-30T01:33:20.0000000+00:00</time></trkpt><trkpt lat="21.051746" lon="106.621254"><ele>5.4</ele><time>2011-04-30T01:33:25.0000000+00:00</time></trkpt><trkpt lat="21.051758" lon="106.621307"><ele>5.9</ele><time>2011-04-30T01:33:30.0000000+00:00</time></trkpt><trkpt lat="21.051775" lon="106.621445"><ele>6.2</ele><time>2011-04-30T01:33:35.0000000+00:00</time></trkpt><trkpt lat="21.051798" lon="106.621681"><ele>7.9</ele><time>2011-04-30T01:33:40.0000000+00:00</time></trkpt><trkpt lat="21.051844" lon="106.62207"><ele>12.1</ele><time>2011-04-30T01:33:45.0000000+00:00</time></trkpt><trkpt lat="21.051897" lon="106.62262"><ele>14.9</ele><time>2011-04-30T01:33:50.0000000+00:00</time></trkpt><trkpt lat="21.051964" lon="106.623207"><ele>11.4</ele><time>2011-04-30T01:33:55.0000000+00:00</time></trkpt><trkpt lat="21.052031" lon="106.62384"><ele>9.4</ele><time>2011-04-30T01:34:00.0000000+00:00</time></trkpt><trkpt lat="21.052105" lon="106.624527"><ele>6.9</ele><time>2011-04-30T01:34:05.0000000+00:00</time></trkpt><trkpt lat="21.052172" lon="106.625168"><ele>6.5</ele><time>2011-04-30T01:34:10.0000000+00:00</time></trkpt><trkpt lat="21.052267" lon="106.625801"><ele>5.8</ele><time>2011-04-30T01:34:15.0000000+00:00</time></trkpt><trkpt lat="21.052351" lon="106.626381"><ele>7.1</ele><time>2011-04-30T01:34:20.0000000+00:00</time></trkpt><trkpt lat="21.052439" lon="106.626984"><ele>8.6</ele><time>2011-04-30T01:34:25.0000000+00:00</time></trkpt><trkpt lat="21.052546" lon="106.627632"><ele>8.7</ele><time>2011-04-30T01:34:30.0000000+00:00</time></trkpt><trkpt lat="21.052628" lon="106.628281"><ele>9.1</ele><time>2011-04-30T01:34:35.0000000+00:00</time></trkpt><trkpt lat="21.052671" lon="106.628777"><ele>10.0</ele><time>2011-04-30T01:34:40.0000000+00:00</time></trkpt><trkpt lat="21.052698" lon="106.629219"><ele>11.5</ele><time>2011-04-30T01:34:45.0000000+00:00</time></trkpt><trkpt lat="21.052744" lon="106.629684"><ele>8.4</ele><time>2011-04-30T01:34:50.0000000+00:00</time></trkpt><trkpt lat="21.052784" lon="106.63018"><ele>7.8</ele><time>2011-04-30T01:34:55.0000000+00:00</time></trkpt><trkpt lat="21.05282" lon="106.630585"><ele>4.9</ele><time>2011-04-30T01:35:00.0000000+00:00</time></trkpt><trkpt lat="21.052868" lon="106.630905"><ele>1.3</ele><time>2011-04-30T01:35:05.0000000+00:00</time></trkpt><trkpt lat="21.052914" lon="106.631157"><ele>-0.9</ele><time>2011-04-30T01:35:10.0000000+00:00</time></trkpt><trkpt lat="21.052956" lon="106.631546"><ele>-3.2</ele><time>2011-04-30T01:35:15.0000000+00:00</time></trkpt><trkpt lat="21.053011" lon="106.632027"><ele>-3.9</ele><time>2011-04-30T01:35:20.0000000+00:00</time></trkpt><trkpt lat="21.053064" lon="106.632591"><ele>-4.5</ele><time>2011-04-30T01:35:25.0000000+00:00</time></trkpt><trkpt lat="21.05311" lon="106.633217"><ele>-8.1</ele><time>2011-04-30T01:35:30.0000000+00:00</time></trkpt><trkpt lat="21.05315" lon="106.633812"><ele>-9.1</ele><time>2011-04-30T01:35:35.0000000+00:00</time></trkpt><trkpt lat="21.053177" lon="106.634407"><ele>-10.6</ele><time>2011-04-30T01:35:40.0000000+00:00</time></trkpt><trkpt lat="21.053278" lon="106.634972"><ele>-10.9</ele><time>2011-04-30T01:35:45.0000000+00:00</time></trkpt><trkpt lat="21.053358" lon="106.635551"><ele>-11.1</ele><time>2011-04-30T01:35:50.0000000+00:00</time></trkpt><trkpt lat="21.05344" lon="106.636162"><ele>-9.0</ele><time>2011-04-30T01:35:55.0000000+00:00</time></trkpt><trkpt lat="21.053499" lon="106.636703"><ele>-10.4</ele><time>2011-04-30T01:36:00.0000000+00:00</time></trkpt><trkpt lat="21.053583" lon="106.637184"><ele>-10.1</ele><time>2011-04-30T01:36:05.0000000+00:00</time></trkpt><trkpt lat="21.053654" lon="106.637695"><ele>-3.7</ele><time>2011-04-30T01:36:10.0000000+00:00</time></trkpt><trkpt lat="21.053745" lon="106.638206"><ele>-3.6</ele><time>2011-04-30T01:36:15.0000000+00:00</time></trkpt><trkpt lat="21.05382" lon="106.638725"><ele>-2.4</ele><time>2011-04-30T01:36:20.0000000+00:00</time></trkpt><trkpt lat="21.053911" lon="106.639221"><ele>-1.9</ele><time>2011-04-30T01:36:25.0000000+00:00</time></trkpt><trkpt lat="21.053989" lon="106.639656"><ele>-2.5</ele><time>2011-04-30T01:36:30.0000000+00:00</time></trkpt><trkpt lat="21.05409" lon="106.640144"><ele>0.8</ele><time>2011-04-30T01:36:35.0000000+00:00</time></trkpt><trkpt lat="21.054174" lon="106.640579"><ele>4.2</ele><time>2011-04-30T01:36:40.0000000+00:00</time></trkpt><trkpt lat="21.054243" lon="106.641075"><ele>5.2</ele><time>2011-04-30T01:36:45.0000000+00:00</time></trkpt><trkpt lat="21.054304" lon="106.641571"><ele>13.7</ele><time>2011-04-30T01:36:50.0000000+00:00</time></trkpt><trkpt lat="21.054296" lon="106.642052"><ele>15.6</ele><time>2011-04-30T01:36:55.0000000+00:00</time></trkpt><trkpt lat="21.054192" lon="106.642525"><ele>15.6</ele><time>2011-04-30T01:37:00.0000000+00:00</time></trkpt><trkpt lat="21.054098" lon="106.64299"><ele>14.3</ele><time>2011-04-30T01:37:05.0000000+00:00</time></trkpt><trkpt lat="21.054007" lon="106.643494"><ele>14.1</ele><time>2011-04-30T01:37:10.0000000+00:00</time></trkpt><trkpt lat="21.053947" lon="106.643951"><ele>12.5</ele><time>2011-04-30T01:37:15.0000000+00:00</time></trkpt><trkpt lat="21.053848" lon="106.644447"><ele>10.9</ele><time>2011-04-30T01:37:20.0000000+00:00</time></trkpt><trkpt lat="21.053761" lon="106.644989"><ele>10.9</ele><time>2011-04-30T01:37:25.0000000+00:00</time></trkpt><trkpt lat="21.053598" lon="106.645622"><ele>10.1</ele><time>2011-04-30T01:37:30.0000000+00:00</time></trkpt><trkpt lat="21.053457" lon="106.646301"><ele>9.6</ele><time>2011-04-30T01:37:35.0000000+00:00</time></trkpt><trkpt lat="21.053301" lon="106.647057"><ele>9.3</ele><time>2011-04-30T01:37:40.0000000+00:00</time></trkpt><trkpt lat="21.053146" lon="106.647858"><ele>9.5</ele><time>2011-04-30T01:37:45.0000000+00:00</time></trkpt><trkpt lat="21.052992" lon="106.648651"><ele>9.0</ele><time>2011-04-30T01:37:50.0000000+00:00</time></trkpt><trkpt lat="21.052835" lon="106.64933"><ele>8.4</ele><time>2011-04-30T01:37:55.0000000+00:00</time></trkpt><trkpt lat="21.052717" lon="106.649971"><ele>7.6</ele><time>2011-04-30T01:38:00.0000000+00:00</time></trkpt><trkpt lat="21.052656" lon="106.650681"><ele>6.1</ele><time>2011-04-30T01:38:05.0000000+00:00</time></trkpt><trkpt lat="21.052551" lon="106.651382"><ele>4.9</ele><time>2011-04-30T01:38:10.0000000+00:00</time></trkpt><trkpt lat="21.052481" lon="106.652046"><ele>3.6</ele><time>2011-04-30T01:38:15.0000000+00:00</time></trkpt><trkpt lat="21.052406" lon="106.652794"><ele>1.6</ele><time>2011-04-30T01:38:20.0000000+00:00</time></trkpt><trkpt lat="21.052265" lon="106.65361"><ele>-1.4</ele><time>2011-04-30T01:38:25.0000000+00:00</time></trkpt><trkpt lat="21.052162" lon="106.654396"><ele>-2.9</ele><time>2011-04-30T01:38:30.0000000+00:00</time></trkpt><trkpt lat="21.052086" lon="106.655121"><ele>-5.3</ele><time>2011-04-30T01:38:35.0000000+00:00</time></trkpt><trkpt lat="21.052013" lon="106.655899"><ele>-6.1</ele><time>2011-04-30T01:38:40.0000000+00:00</time></trkpt><trkpt lat="21.052052" lon="106.656708"><ele>-6.0</ele><time>2011-04-30T01:38:45.0000000+00:00</time></trkpt><trkpt lat="21.052099" lon="106.657387"><ele>-7.4</ele><time>2011-04-30T01:38:50.0000000+00:00</time></trkpt><trkpt lat="21.052147" lon="106.657951"><ele>-7.2</ele><time>2011-04-30T01:38:55.0000000+00:00</time></trkpt><trkpt lat="21.052212" lon="106.658516"><ele>-5.8</ele><time>2011-04-30T01:39:00.0000000+00:00</time></trkpt><trkpt lat="21.05225" lon="106.659058"><ele>-0.1</ele><time>2011-04-30T01:39:05.0000000+00:00</time></trkpt><trkpt lat="21.05225" lon="106.659485"><ele>9.7</ele><time>2011-04-30T01:39:10.0000000+00:00</time></trkpt><trkpt lat="21.052248" lon="106.659981"><ele>13.0</ele><time>2011-04-30T01:39:15.0000000+00:00</time></trkpt><trkpt lat="21.05224" lon="106.660561"><ele>15.1</ele><time>2011-04-30T01:39:20.0000000+00:00</time></trkpt><trkpt lat="21.052193" lon="106.661263"><ele>19.0</ele><time>2011-04-30T01:39:25.0000000+00:00</time></trkpt><trkpt lat="21.05216" lon="106.662033"><ele>15.9</ele><time>2011-04-30T01:39:30.0000000+00:00</time></trkpt><trkpt lat="21.052107" lon="106.662743"><ele>14.1</ele><time>2011-04-30T01:39:35.0000000+00:00</time></trkpt><trkpt lat="21.052059" lon="106.663521"><ele>12.1</ele><time>2011-04-30T01:39:40.0000000+00:00</time></trkpt><trkpt lat="21.051985" lon="106.664299"><ele>11.1</ele><time>2011-04-30T01:39:45.0000000+00:00</time></trkpt><trkpt lat="21.051928" lon="106.665001"><ele>9.4</ele><time>2011-04-30T01:39:50.0000000+00:00</time></trkpt><trkpt lat="21.051867" lon="106.665672"><ele>7.6</ele><time>2011-04-30T01:39:55.0000000+00:00</time></trkpt><trkpt lat="21.051825" lon="106.666374"><ele>4.9</ele><time>2011-04-30T01:40:00.0000000+00:00</time></trkpt><trkpt lat="21.051762" lon="106.667076"><ele>0.4</ele><time>2011-04-30T01:40:05.0000000+00:00</time></trkpt><trkpt lat="21.051708" lon="106.667793"><ele>-2.6</ele><time>2011-04-30T01:40:10.0000000+00:00</time></trkpt><trkpt lat="21.051662" lon="106.668472"><ele>-6.6</ele><time>2011-04-30T01:40:15.0000000+00:00</time></trkpt><trkpt lat="21.051615" lon="106.669151"><ele>-5.4</ele><time>2011-04-30T01:40:20.0000000+00:00</time></trkpt><trkpt lat="21.051567" lon="106.66983"><ele>-3.2</ele><time>2011-04-30T01:40:25.0000000+00:00</time></trkpt><trkpt lat="21.051519" lon="106.670486"><ele>-5.1</ele><time>2011-04-30T01:40:30.0000000+00:00</time></trkpt><trkpt lat="21.051458" lon="106.671188"><ele>-7.5</ele><time>2011-04-30T01:40:35.0000000+00:00</time></trkpt><trkpt lat="21.051401" lon="106.671913"><ele>-10.0</ele><time>2011-04-30T01:40:40.0000000+00:00</time></trkpt><trkpt lat="21.051325" lon="106.672508"><ele>-11.0</ele><time>2011-04-30T01:40:45.0000000+00:00</time></trkpt><trkpt lat="21.051191" lon="106.673119"><ele>-11.4</ele><time>2011-04-30T01:40:50.0000000+00:00</time></trkpt><trkpt lat="21.050928" lon="106.673714"><ele>-11.8</ele><time>2011-04-30T01:40:55.0000000+00:00</time></trkpt><trkpt lat="21.050629" lon="106.674294"><ele>-12.4</ele><time>2011-04-30T01:41:00.0000000+00:00</time></trkpt><trkpt lat="21.050304" lon="106.674873"><ele>-13.0</ele><time>2011-04-30T01:41:05.0000000+00:00</time></trkpt><trkpt lat="21.050007" lon="106.675392"><ele>-13.1</ele><time>2011-04-30T01:41:10.0000000+00:00</time></trkpt><trkpt lat="21.049726" lon="106.675888"><ele>-11.0</ele><time>2011-04-30T01:41:15.0000000+00:00</time></trkpt><trkpt lat="21.049459" lon="106.676338"><ele>-9.8</ele><time>2011-04-30T01:41:20.0000000+00:00</time></trkpt><trkpt lat="21.049267" lon="106.676712"><ele>-5.3</ele><time>2011-04-30T01:41:25.0000000+00:00</time></trkpt><trkpt lat="21.049063" lon="106.677086"><ele>-3.8</ele><time>2011-04-30T01:41:30.0000000+00:00</time></trkpt><trkpt lat="21.048849" lon="106.677444"><ele>-1.9</ele><time>2011-04-30T01:41:35.0000000+00:00</time></trkpt><trkpt lat="21.048664" lon="106.677773"><ele>0.9</ele><time>2011-04-30T01:41:40.0000000+00:00</time></trkpt><trkpt lat="21.048481" lon="106.678207"><ele>2.2</ele><time>2011-04-30T01:41:45.0000000+00:00</time></trkpt><trkpt lat="21.048307" lon="106.67868"><ele>2.8</ele><time>2011-04-30T01:41:50.0000000+00:00</time></trkpt><trkpt lat="21.048178" lon="106.679222"><ele>3.0</ele><time>2011-04-30T01:41:55.0000000+00:00</time></trkpt><trkpt lat="21.04808" lon="106.67981"><ele>2.5</ele><time>2011-04-30T01:42:00.0000000+00:00</time></trkpt><trkpt lat="21.048008" lon="106.680481"><ele>2.6</ele><time>2011-04-30T01:42:05.0000000+00:00</time></trkpt><trkpt lat="21.047901" lon="106.68116"><ele>1.5</ele><time>2011-04-30T01:42:10.0000000+00:00</time></trkpt><trkpt lat="21.047798" lon="106.681793"><ele>1.6</ele><time>2011-04-30T01:42:15.0000000+00:00</time></trkpt><trkpt lat="21.047712" lon="106.682419"><ele>1.3</ele><time>2011-04-30T01:42:20.0000000+00:00</time></trkpt><trkpt lat="21.04764" lon="106.68293"><ele>0.9</ele><time>2011-04-30T01:42:25.0000000+00:00</time></trkpt><trkpt lat="21.047567" lon="106.683395"><ele>0.9</ele><time>2011-04-30T01:42:30.0000000+00:00</time></trkpt><trkpt lat="21.047485" lon="106.683876"><ele>0.0</ele><time>2011-04-30T01:42:35.0000000+00:00</time></trkpt><trkpt lat="21.047403" lon="106.684387"><ele>-0.6</ele><time>2011-04-30T01:42:40.0000000+00:00</time></trkpt><trkpt lat="21.04735" lon="106.684738"><ele>-0.8</ele><time>2011-04-30T01:42:45.0000000+00:00</time></trkpt><trkpt lat="21.047319" lon="106.685066"><ele>-0.6</ele><time>2011-04-30T01:42:50.0000000+00:00</time></trkpt><trkpt lat="21.047256" lon="106.685501"><ele>-2.9</ele><time>2011-04-30T01:42:55.0000000+00:00</time></trkpt><trkpt lat="21.047173" lon="106.686035"><ele>-2.8</ele><time>2011-04-30T01:43:00.0000000+00:00</time></trkpt><trkpt lat="21.0471" lon="106.686607"><ele>-3.2</ele><time>2011-04-30T01:43:05.0000000+00:00</time></trkpt><trkpt lat="21.047014" lon="106.687149"><ele>-3.3</ele><time>2011-04-30T01:43:10.0000000+00:00</time></trkpt><trkpt lat="21.046968" lon="106.687622"><ele>-5.0</ele><time>2011-04-30T01:43:15.0000000+00:00</time></trkpt><trkpt lat="21.046886" lon="106.68811"><ele>-7.3</ele><time>2011-04-30T01:43:20.0000000+00:00</time></trkpt><trkpt lat="21.046804" lon="106.688652"><ele>-9.3</ele><time>2011-04-30T01:43:25.0000000+00:00</time></trkpt><trkpt lat="21.046747" lon="106.689278"><ele>-7.7</ele><time>2011-04-30T01:43:30.0000000+00:00</time></trkpt><trkpt lat="21.046648" lon="106.689964"><ele>-7.4</ele><time>2011-04-30T01:43:35.0000000+00:00</time></trkpt><trkpt lat="21.046551" lon="106.69059"><ele>-6.7</ele><time>2011-04-30T01:43:40.0000000+00:00</time></trkpt><trkpt lat="21.046459" lon="106.691277"><ele>-7.5</ele><time>2011-04-30T01:43:45.0000000+00:00</time></trkpt><trkpt lat="21.04637" lon="106.691971"><ele>-9.0</ele><time>2011-04-30T01:43:50.0000000+00:00</time></trkpt><trkpt lat="21.046288" lon="106.692673"><ele>-6.9</ele><time>2011-04-30T01:43:55.0000000+00:00</time></trkpt><trkpt lat="21.046181" lon="106.693367"><ele>-6.6</ele><time>2011-04-30T01:44:00.0000000+00:00</time></trkpt><trkpt lat="21.046062" lon="106.694016"><ele>-5.8</ele><time>2011-04-30T01:44:05.0000000+00:00</time></trkpt><trkpt lat="21.045963" lon="106.69471"><ele>-7.7</ele><time>2011-04-30T01:44:10.0000000+00:00</time></trkpt><trkpt lat="21.045876" lon="106.695313"><ele>-9.9</ele><time>2011-04-30T01:44:15.0000000+00:00</time></trkpt><trkpt lat="21.045792" lon="106.695885"><ele>-10.9</ele><time>2011-04-30T01:44:20.0000000+00:00</time></trkpt><trkpt lat="21.045706" lon="106.696442"><ele>-9.9</ele><time>2011-04-30T01:44:25.0000000+00:00</time></trkpt><trkpt lat="21.045612" lon="106.697067"><ele>-8.3</ele><time>2011-04-30T01:44:30.0000000+00:00</time></trkpt><trkpt lat="21.045509" lon="106.6978"><ele>-8.6</ele><time>2011-04-30T01:44:35.0000000+00:00</time></trkpt><trkpt lat="21.04537" lon="106.698608"><ele>-7.2</ele><time>2011-04-30T01:44:40.0000000+00:00</time></trkpt><trkpt lat="21.045301" lon="106.699455"><ele>-7.3</ele><time>2011-04-30T01:44:45.0000000+00:00</time></trkpt><trkpt lat="21.045181" lon="106.700249"><ele>-6.8</ele><time>2011-04-30T01:44:50.0000000+00:00</time></trkpt><trkpt lat="21.045059" lon="106.70105"><ele>-5.2</ele><time>2011-04-30T01:44:55.0000000+00:00</time></trkpt><trkpt lat="21.04496" lon="106.70192"><ele>-5.1</ele><time>2011-04-30T01:45:00.0000000+00:00</time></trkpt><trkpt lat="21.044825" lon="106.702736"><ele>-5.2</ele><time>2011-04-30T01:45:05.0000000+00:00</time></trkpt><trkpt lat="21.044727" lon="106.703407"><ele>-4.1</ele><time>2011-04-30T01:45:10.0000000+00:00</time></trkpt><trkpt lat="21.044651" lon="106.704071"><ele>-2.4</ele><time>2011-04-30T01:45:15.0000000+00:00</time></trkpt><trkpt lat="21.044558" lon="106.704788"><ele>-2.6</ele><time>2011-04-30T01:45:20.0000000+00:00</time></trkpt><trkpt lat="21.044434" lon="106.70565"><ele>-3.0</ele><time>2011-04-30T01:45:25.0000000+00:00</time></trkpt><trkpt lat="21.044224" lon="106.706627"><ele>-3.3</ele><time>2011-04-30T01:45:30.0000000+00:00</time></trkpt><trkpt lat="21.043957" lon="106.707642"><ele>-5.2</ele><time>2011-04-30T01:45:35.0000000+00:00</time></trkpt><trkpt lat="21.043701" lon="106.708649"><ele>-7.0</ele><time>2011-04-30T01:45:40.0000000+00:00</time></trkpt><trkpt lat="21.043411" lon="106.709602"><ele>-8.2</ele><time>2011-04-30T01:45:45.0000000+00:00</time></trkpt><trkpt lat="21.043219" lon="106.710388"><ele>-6.1</ele><time>2011-04-30T01:45:50.0000000+00:00</time></trkpt><trkpt lat="21.043083" lon="106.710861"><ele>-5.2</ele><time>2011-04-30T01:45:55.0000000+00:00</time></trkpt><trkpt lat="21.042955" lon="106.711372"><ele>-4.7</ele><time>2011-04-30T01:46:00.0000000+00:00</time></trkpt><trkpt lat="21.042831" lon="106.711945"><ele>-4.4</ele><time>2011-04-30T01:46:05.0000000+00:00</time></trkpt><trkpt lat="21.042673" lon="106.712616"><ele>-3.5</ele><time>2011-04-30T01:46:10.0000000+00:00</time></trkpt><trkpt lat="21.042557" lon="106.713219"><ele>-4.1</ele><time>2011-04-30T01:46:15.0000000+00:00</time></trkpt><trkpt lat="21.042484" lon="106.713547"><ele>-3.8</ele><time>2011-04-30T01:46:20.0000000+00:00</time></trkpt><trkpt lat="21.042452" lon="106.713699"><ele>-5.3</ele><time>2011-04-30T01:46:25.0000000+00:00</time></trkpt><trkpt lat="21.04236" lon="106.714035"><ele>-6.8</ele><time>2011-04-30T01:46:30.0000000+00:00</time></trkpt><trkpt lat="21.042263" lon="106.714478"><ele>-8.0</ele><time>2011-04-30T01:46:35.0000000+00:00</time></trkpt><trkpt lat="21.042166" lon="106.71505"><ele>-8.9</ele><time>2011-04-30T01:46:40.0000000+00:00</time></trkpt><trkpt lat="21.042049" lon="106.715729"><ele>-9.5</ele><time>2011-04-30T01:46:45.0000000+00:00</time></trkpt><trkpt lat="21.04192" lon="106.716461"><ele>-11.4</ele><time>2011-04-30T01:46:50.0000000+00:00</time></trkpt><trkpt lat="21.041809" lon="106.717148"><ele>-13.0</ele><time>2011-04-30T01:46:55.0000000+00:00</time></trkpt><trkpt lat="21.041698" lon="106.717728"><ele>-13.7</ele><time>2011-04-30T01:47:00.0000000+00:00</time></trkpt><trkpt lat="21.041609" lon="106.718201"><ele>-14.0</ele><time>2011-04-30T01:47:05.0000000+00:00</time></trkpt><trkpt lat="21.041485" lon="106.71875"><ele>-14.1</ele><time>2011-04-30T01:47:10.0000000+00:00</time></trkpt><trkpt lat="21.04137" lon="106.719414"><ele>-15.1</ele><time>2011-04-30T01:47:15.0000000+00:00</time></trkpt><trkpt lat="21.041267" lon="106.720146"><ele>-15.5</ele><time>2011-04-30T01:47:20.0000000+00:00</time></trkpt><trkpt lat="21.041124" lon="106.720749"><ele>-15.7</ele><time>2011-04-30T01:47:25.0000000+00:00</time></trkpt><trkpt lat="21.041004" lon="106.721245"><ele>-16.2</ele><time>2011-04-30T01:47:30.0000000+00:00</time></trkpt><trkpt lat="21.040882" lon="106.721687"><ele>-15.3</ele><time>2011-04-30T01:47:35.0000000+00:00</time></trkpt><trkpt lat="21.040817" lon="106.722137"><ele>-14.7</ele><time>2011-04-30T01:47:40.0000000+00:00</time></trkpt><trkpt lat="21.040695" lon="106.722702"><ele>-15.0</ele><time>2011-04-30T01:47:45.0000000+00:00</time></trkpt><trkpt lat="21.040525" lon="106.72332"><ele>-15.4</ele><time>2011-04-30T01:47:50.0000000+00:00</time></trkpt><trkpt lat="21.040382" lon="106.723923"><ele>-15.6</ele><time>2011-04-30T01:47:55.0000000+00:00</time></trkpt><trkpt lat="21.040215" lon="106.724548"><ele>-17.1</ele><time>2011-04-30T01:48:00.0000000+00:00</time></trkpt><trkpt lat="21.040077" lon="106.72506"><ele>-17.3</ele><time>2011-04-30T01:48:05.0000000+00:00</time></trkpt><trkpt lat="21.039938" lon="106.725555"><ele>-16.9</ele><time>2011-04-30T01:48:10.0000000+00:00</time></trkpt><trkpt lat="21.039825" lon="106.726013"><ele>-15.8</ele><time>2011-04-30T01:48:15.0000000+00:00</time></trkpt><trkpt lat="21.039724" lon="106.726425"><ele>-15.5</ele><time>2011-04-30T01:48:20.0000000+00:00</time></trkpt><trkpt lat="21.039612" lon="106.726814"><ele>-14.7</ele><time>2011-04-30T01:48:25.0000000+00:00</time></trkpt><trkpt lat="21.039486" lon="106.727325"><ele>-13.6</ele><time>2011-04-30T01:48:30.0000000+00:00</time></trkpt><trkpt lat="21.039358" lon="106.727791"><ele>-12.6</ele><time>2011-04-30T01:48:35.0000000+00:00</time></trkpt><trkpt lat="21.039169" lon="106.728317"><ele>-11.5</ele><time>2011-04-30T01:48:40.0000000+00:00</time></trkpt><trkpt lat="21.039032" lon="106.728836"><ele>-10.3</ele><time>2011-04-30T01:48:45.0000000+00:00</time></trkpt><trkpt lat="21.038912" lon="106.729385"><ele>-7.8</ele><time>2011-04-30T01:48:50.0000000+00:00</time></trkpt><trkpt lat="21.038765" lon="106.729889"><ele>-5.9</ele><time>2011-04-30T01:48:55.0000000+00:00</time></trkpt><trkpt lat="21.038612" lon="106.730423"><ele>-5.1</ele><time>2011-04-30T01:49:00.0000000+00:00</time></trkpt><trkpt lat="21.038464" lon="106.730949"><ele>-6.0</ele><time>2011-04-30T01:49:05.0000000+00:00</time></trkpt><trkpt lat="21.038363" lon="106.731293"><ele>-3.6</ele><time>2011-04-30T01:49:10.0000000+00:00</time></trkpt><trkpt lat="21.038267" lon="106.731728"><ele>-3.5</ele><time>2011-04-30T01:49:15.0000000+00:00</time></trkpt><trkpt lat="21.038164" lon="106.732254"><ele>-5.7</ele><time>2011-04-30T01:49:20.0000000+00:00</time></trkpt><trkpt lat="21.038059" lon="106.732712"><ele>-6.6</ele><time>2011-04-30T01:49:25.0000000+00:00</time></trkpt><trkpt lat="21.037943" lon="106.733208"><ele>-8.0</ele><time>2011-04-30T01:49:30.0000000+00:00</time></trkpt><trkpt lat="21.037796" lon="106.733803"><ele>-7.8</ele><time>2011-04-30T01:49:35.0000000+00:00</time></trkpt><trkpt lat="21.037653" lon="106.734367"><ele>-8.8</ele><time>2011-04-30T01:49:40.0000000+00:00</time></trkpt><trkpt lat="21.037525" lon="106.734894"><ele>-9.6</ele><time>2011-04-30T01:49:45.0000000+00:00</time></trkpt><trkpt lat="21.037401" lon="106.735382"><ele>-10.8</ele><time>2011-04-30T01:49:50.0000000+00:00</time></trkpt><trkpt lat="21.037266" lon="106.735878"><ele>-12.0</ele><time>2011-04-30T01:49:55.0000000+00:00</time></trkpt><trkpt lat="21.037092" lon="106.736382"><ele>-12.8</ele><time>2011-04-30T01:50:00.0000000+00:00</time></trkpt><trkpt lat="21.036789" lon="106.736801"><ele>-13.6</ele><time>2011-04-30T01:50:05.0000000+00:00</time></trkpt><trkpt lat="21.036516" lon="106.737099"><ele>-15.1</ele><time>2011-04-30T01:50:10.0000000+00:00</time></trkpt><trkpt lat="21.036312" lon="106.737289"><ele>-15.9</ele><time>2011-04-30T01:50:15.0000000+00:00</time></trkpt><trkpt lat="21.036146" lon="106.737518"><ele>-16.1</ele><time>2011-04-30T01:50:20.0000000+00:00</time></trkpt><trkpt lat="21.035992" lon="106.737793"><ele>-16.2</ele><time>2011-04-30T01:50:25.0000000+00:00</time></trkpt><trkpt lat="21.035801" lon="106.738106"><ele>-16.9</ele><time>2011-04-30T01:50:30.0000000+00:00</time></trkpt><trkpt lat="21.035614" lon="106.738426"><ele>-16.0</ele><time>2011-04-30T01:50:35.0000000+00:00</time></trkpt><trkpt lat="21.035608" lon="106.738525"><ele>-12.6</ele><time>2011-04-30T01:50:40.0000000+00:00</time></trkpt><trkpt lat="21.035595" lon="106.738541"><ele>-12.1</ele><time>2011-04-30T01:50:45.0000000+00:00</time></trkpt><trkpt lat="21.035587" lon="106.738594"><ele>-10.7</ele><time>2011-04-30T01:50:50.0000000+00:00</time></trkpt><trkpt lat="21.035545" lon="106.738808"><ele>-5.8</ele><time>2011-04-30T01:50:55.0000000+00:00</time></trkpt><trkpt lat="21.035519" lon="106.739075"><ele>-0.2</ele><time>2011-04-30T01:51:00.0000000+00:00</time></trkpt><trkpt lat="21.035473" lon="106.739365"><ele>-0.0</ele><time>2011-04-30T01:51:05.0000000+00:00</time></trkpt><trkpt lat="21.035477" lon="106.739761"><ele>0.7</ele><time>2011-04-30T01:51:10.0000000+00:00</time></trkpt><trkpt lat="21.03545" lon="106.740257"><ele>2.0</ele><time>2011-04-30T01:51:15.0000000+00:00</time></trkpt><trkpt lat="21.035431" lon="106.740723"><ele>2.3</ele><time>2011-04-30T01:51:20.0000000+00:00</time></trkpt><trkpt lat="21.035421" lon="106.741158"><ele>3.1</ele><time>2011-04-30T01:51:25.0000000+00:00</time></trkpt><trkpt lat="21.035458" lon="106.741669"><ele>8.6</ele><time>2011-04-30T01:51:30.0000000+00:00</time></trkpt><trkpt lat="21.035461" lon="106.742172"><ele>11.2</ele><time>2011-04-30T01:51:35.0000000+00:00</time></trkpt><trkpt lat="21.035439" lon="106.742683"><ele>8.9</ele><time>2011-04-30T01:51:40.0000000+00:00</time></trkpt><trkpt lat="21.035414" lon="106.743118"><ele>10.4</ele><time>2011-04-30T01:51:45.0000000+00:00</time></trkpt><trkpt lat="21.035387" lon="106.743561"><ele>11.8</ele><time>2011-04-30T01:51:50.0000000+00:00</time></trkpt><trkpt lat="21.035362" lon="106.744026"><ele>9.3</ele><time>2011-04-30T01:51:55.0000000+00:00</time></trkpt><trkpt lat="21.035336" lon="106.744438"><ele>7.8</ele><time>2011-04-30T01:52:00.0000000+00:00</time></trkpt><trkpt lat="21.035286" lon="106.744881"><ele>6.2</ele><time>2011-04-30T01:52:05.0000000+00:00</time></trkpt><trkpt lat="21.035261" lon="106.745369"><ele>4.1</ele><time>2011-04-30T01:52:10.0000000+00:00</time></trkpt><trkpt lat="21.035206" lon="106.745857"><ele>4.7</ele><time>2011-04-30T01:52:15.0000000+00:00</time></trkpt><trkpt lat="21.035166" lon="106.746277"><ele>3.3</ele><time>2011-04-30T01:52:20.0000000+00:00</time></trkpt><trkpt lat="21.035112" lon="106.746597"><ele>0.7</ele><time>2011-04-30T01:52:25.0000000+00:00</time></trkpt><trkpt lat="21.035065" lon="106.74688"><ele>-0.3</ele><time>2011-04-30T01:52:30.0000000+00:00</time></trkpt><trkpt lat="21.035048" lon="106.747147"><ele>-1.5</ele><time>2011-04-30T01:52:35.0000000+00:00</time></trkpt><trkpt lat="21.035038" lon="106.747375"><ele>-0.7</ele><time>2011-04-30T01:52:40.0000000+00:00</time></trkpt><trkpt lat="21.035006" lon="106.747597"><ele>4.6</ele><time>2011-04-30T01:52:45.0000000+00:00</time></trkpt><trkpt lat="21.034981" lon="106.747749"><ele>11.8</ele><time>2011-04-30T01:52:50.0000000+00:00</time></trkpt><trkpt lat="21.034967" lon="106.747948"><ele>16.5</ele><time>2011-04-30T01:52:55.0000000+00:00</time></trkpt><trkpt lat="21.034918" lon="106.748192"><ele>21.2</ele><time>2011-04-30T01:53:00.0000000+00:00</time></trkpt><trkpt lat="21.034916" lon="106.748314"><ele>22.9</ele><time>2011-04-30T01:53:05.0000000+00:00</time></trkpt><trkpt lat="21.034904" lon="106.748413"><ele>24.8</ele><time>2011-04-30T01:53:10.0000000+00:00</time></trkpt><trkpt lat="21.034866" lon="106.748672"><ele>22.7</ele><time>2011-04-30T01:53:15.0000000+00:00</time></trkpt><trkpt lat="21.034838" lon="106.748909"><ele>22.7</ele><time>2011-04-30T01:53:20.0000000+00:00</time></trkpt><trkpt lat="21.034782" lon="106.749214"><ele>24.5</ele><time>2011-04-30T01:53:25.0000000+00:00</time></trkpt><trkpt lat="21.034719" lon="106.749596"><ele>25.2</ele><time>2011-04-30T01:53:30.0000000+00:00</time></trkpt><trkpt lat="21.034649" lon="106.750008"><ele>25.7</ele><time>2011-04-30T01:53:35.0000000+00:00</time></trkpt><trkpt lat="21.034555" lon="106.750359"><ele>26.3</ele><time>2011-04-30T01:53:40.0000000+00:00</time></trkpt><trkpt lat="21.03447" lon="106.750717"><ele>25.6</ele><time>2011-04-30T01:53:45.0000000+00:00</time></trkpt><trkpt lat="21.034433" lon="106.751022"><ele>23.1</ele><time>2011-04-30T01:53:50.0000000+00:00</time></trkpt><trkpt lat="21.034409" lon="106.751152"><ele>22.1</ele><time>2011-04-30T01:53:55.0000000+00:00</time></trkpt><trkpt lat="21.034449" lon="106.751251"><ele>18.8</ele><time>2011-04-30T01:54:00.0000000+00:00</time></trkpt><trkpt lat="21.034452" lon="106.751274"><ele>17.5</ele><time>2011-04-30T01:54:05.0000000+00:00</time></trkpt><trkpt lat="21.034454" lon="106.751297"><ele>17.6</ele><time>2011-04-30T01:54:10.0000000+00:00</time></trkpt><trkpt lat="21.03447" lon="106.751404"><ele>17.1</ele><time>2011-04-30T01:54:15.0000000+00:00</time></trkpt><trkpt lat="21.034458" lon="106.751678"><ele>17.0</ele><time>2011-04-30T01:54:20.0000000+00:00</time></trkpt><trkpt lat="21.034401" lon="106.75222"><ele>15.4</ele><time>2011-04-30T01:54:25.0000000+00:00</time></trkpt><trkpt lat="21.034332" lon="106.752731"><ele>13.7</ele><time>2011-04-30T01:54:30.0000000+00:00</time></trkpt><trkpt lat="21.034269" lon="106.753105"><ele>12.9</ele><time>2011-04-30T01:54:35.0000000+00:00</time></trkpt><trkpt lat="21.034262" lon="106.753258"><ele>11.3</ele><time>2011-04-30T01:54:40.0000000+00:00</time></trkpt><trkpt lat="21.034256" lon="106.753304"><ele>10.3</ele><time>2011-04-30T01:54:45.0000000+00:00</time></trkpt><trkpt lat="21.034275" lon="106.753433"><ele>9.1</ele><time>2011-04-30T01:54:50.0000000+00:00</time></trkpt><trkpt lat="21.034294" lon="106.753746"><ele>8.0</ele><time>2011-04-30T01:54:55.0000000+00:00</time></trkpt><trkpt lat="21.034256" lon="106.754257"><ele>8.6</ele><time>2011-04-30T01:55:00.0000000+00:00</time></trkpt><trkpt lat="21.034199" lon="106.754883"><ele>8.6</ele><time>2011-04-30T01:55:05.0000000+00:00</time></trkpt><trkpt lat="21.034153" lon="106.755569"><ele>7.7</ele><time>2011-04-30T01:55:10.0000000+00:00</time></trkpt><trkpt lat="21.034061" lon="106.756294"><ele>6.5</ele><time>2011-04-30T01:55:15.0000000+00:00</time></trkpt><trkpt lat="21.033962" lon="106.75708"><ele>5.1</ele><time>2011-04-30T01:55:20.0000000+00:00</time></trkpt><trkpt lat="21.033875" lon="106.757896"><ele>5.7</ele><time>2011-04-30T01:55:25.0000000+00:00</time></trkpt><trkpt lat="21.033806" lon="106.758636"><ele>6.8</ele><time>2011-04-30T01:55:30.0000000+00:00</time></trkpt><trkpt lat="21.033718" lon="106.759224"><ele>7.5</ele><time>2011-04-30T01:55:35.0000000+00:00</time></trkpt><trkpt lat="21.033646" lon="106.75975"><ele>9.7</ele><time>2011-04-30T01:55:40.0000000+00:00</time></trkpt><trkpt lat="21.033598" lon="106.760185"><ele>11.5</ele><time>2011-04-30T01:55:45.0000000+00:00</time></trkpt><trkpt lat="21.03356" lon="106.76059"><ele>14.0</ele><time>2011-04-30T01:55:50.0000000+00:00</time></trkpt><trkpt lat="21.033457" lon="106.760895"><ele>18.5</ele><time>2011-04-30T01:55:55.0000000+00:00</time></trkpt><trkpt lat="21.03339" lon="106.761314"><ele>22.4</ele><time>2011-04-30T01:56:00.0000000+00:00</time></trkpt><trkpt lat="21.033354" lon="106.761734"><ele>27.0</ele><time>2011-04-30T01:56:05.0000000+00:00</time></trkpt><trkpt lat="21.033342" lon="106.762131"><ele>31.6</ele><time>2011-04-30T01:56:10.0000000+00:00</time></trkpt><trkpt lat="21.033356" lon="106.762627"><ele>39.1</ele><time>2011-04-30T01:56:15.0000000+00:00</time></trkpt><trkpt lat="21.033375" lon="106.763115"><ele>45.1</ele><time>2011-04-30T01:56:20.0000000+00:00</time></trkpt><trkpt lat="21.033432" lon="106.763611"><ele>49.0</ele><time>2011-04-30T01:56:25.0000000+00:00</time></trkpt><trkpt lat="21.033491" lon="106.763931"><ele>52.4</ele><time>2011-04-30T01:56:30.0000000+00:00</time></trkpt><trkpt lat="21.033556" lon="106.764122"><ele>56.2</ele><time>2011-04-30T01:56:35.0000000+00:00</time></trkpt><trkpt lat="21.033604" lon="106.764282"><ele>60.0</ele><time>2011-04-30T01:56:40.0000000+00:00</time></trkpt><trkpt lat="21.033648" lon="106.76442"><ele>62.1</ele><time>2011-04-30T01:56:45.0000000+00:00</time></trkpt><trkpt lat="21.03368" lon="106.764496"><ele>60.1</ele><time>2011-04-30T01:56:50.0000000+00:00</time></trkpt><trkpt lat="21.033724" lon="106.764717"><ele>58.6</ele><time>2011-04-30T01:56:55.0000000+00:00</time></trkpt><trkpt lat="21.033819" lon="106.765114"><ele>59.3</ele><time>2011-04-30T01:57:00.0000000+00:00</time></trkpt><trkpt lat="21.033901" lon="106.765648"><ele>59.7</ele><time>2011-04-30T01:57:05.0000000+00:00</time></trkpt><trkpt lat="21.033981" lon="106.766106"><ele>59.9</ele><time>2011-04-30T01:57:10.0000000+00:00</time></trkpt><trkpt lat="21.034075" lon="106.766548"><ele>60.3</ele><time>2011-04-30T01:57:15.0000000+00:00</time></trkpt><trkpt lat="21.034147" lon="106.767006"><ele>61.9</ele><time>2011-04-30T01:57:20.0000000+00:00</time></trkpt><trkpt lat="21.034204" lon="106.767426"><ele>63.4</ele><time>2011-04-30T01:57:25.0000000+00:00</time></trkpt><trkpt lat="21.034283" lon="106.767815"><ele>63.4</ele><time>2011-04-30T01:57:30.0000000+00:00</time></trkpt><trkpt lat="21.034349" lon="106.768204"><ele>62.2</ele><time>2011-04-30T01:57:35.0000000+00:00</time></trkpt><trkpt lat="21.03437" lon="106.76857"><ele>61.0</ele><time>2011-04-30T01:57:40.0000000+00:00</time></trkpt><trkpt lat="21.034418" lon="106.768753"><ele>58.1</ele><time>2011-04-30T01:57:45.0000000+00:00</time></trkpt><trkpt lat="21.034452" lon="106.768852"><ele>56.9</ele><time>2011-04-30T01:57:50.0000000+00:00</time></trkpt><trkpt lat="21.034506" lon="106.769012"><ele>50.5</ele><time>2011-04-30T01:57:55.0000000+00:00</time></trkpt><trkpt lat="21.034512" lon="106.769073"><ele>45.7</ele><time>2011-04-30T01:58:00.0000000+00:00</time></trkpt><trkpt lat="21.034487" lon="106.769096"><ele>42.6</ele><time>2011-04-30T01:58:05.0000000+00:00</time></trkpt><trkpt lat="21.034475" lon="106.769173"><ele>41.3</ele><time>2011-04-30T01:58:10.0000000+00:00</time></trkpt><trkpt lat="21.034454" lon="106.769272"><ele>41.2</ele><time>2011-04-30T01:58:15.0000000+00:00</time></trkpt><trkpt lat="21.034473" lon="106.769447"><ele>39.1</ele><time>2011-04-30T01:58:20.0000000+00:00</time></trkpt><trkpt lat="21.034464" lon="106.769691"><ele>38.0</ele><time>2011-04-30T01:58:25.0000000+00:00</time></trkpt><trkpt lat="21.034445" lon="106.770004"><ele>35.3</ele><time>2011-04-30T01:58:30.0000000+00:00</time></trkpt><trkpt lat="21.034437" lon="106.770363"><ele>34.6</ele><time>2011-04-30T01:58:35.0000000+00:00</time></trkpt><trkpt lat="21.034346" lon="106.770821"><ele>33.2</ele><time>2011-04-30T01:58:40.0000000+00:00</time></trkpt><trkpt lat="21.034323" lon="106.771317"><ele>32.8</ele><time>2011-04-30T01:58:45.0000000+00:00</time></trkpt><trkpt lat="21.034332" lon="106.771584"><ele>32.7</ele><time>2011-04-30T01:58:50.0000000+00:00</time></trkpt><trkpt lat="21.034332" lon="106.771919"><ele>35.7</ele><time>2011-04-30T01:58:55.0000000+00:00</time></trkpt><trkpt lat="21.034315" lon="106.772507"><ele>39.4</ele><time>2011-04-30T01:59:00.0000000+00:00</time></trkpt><trkpt lat="21.034332" lon="106.773087"><ele>37.6</ele><time>2011-04-30T01:59:05.0000000+00:00</time></trkpt><trkpt lat="21.03433" lon="106.773476"><ele>34.0</ele><time>2011-04-30T01:59:10.0000000+00:00</time></trkpt><trkpt lat="21.034298" lon="106.773659"><ele>30.8</ele><time>2011-04-30T01:59:15.0000000+00:00</time></trkpt><trkpt lat="21.034304" lon="106.773804"><ele>35.3</ele><time>2011-04-30T01:59:20.0000000+00:00</time></trkpt><trkpt lat="21.034311" lon="106.773895"><ele>34.6</ele><time>2011-04-30T01:59:25.0000000+00:00</time></trkpt><trkpt lat="21.034281" lon="106.774162"><ele>33.6</ele><time>2011-04-30T01:59:30.0000000+00:00</time></trkpt><trkpt lat="21.034246" lon="106.774452"><ele>31.6</ele><time>2011-04-30T01:59:35.0000000+00:00</time></trkpt><trkpt lat="21.034271" lon="106.774826"><ele>28.4</ele><time>2011-04-30T01:59:40.0000000+00:00</time></trkpt><trkpt lat="21.034233" lon="106.775124"><ele>27.7</ele><time>2011-04-30T01:59:45.0000000+00:00</time></trkpt><trkpt lat="21.034168" lon="106.775383"><ele>27.7</ele><time>2011-04-30T01:59:50.0000000+00:00</time></trkpt><trkpt lat="21.034105" lon="106.775665"><ele>26.7</ele><time>2011-04-30T01:59:55.0000000+00:00</time></trkpt><trkpt lat="21.034006" lon="106.776047"><ele>24.8</ele><time>2011-04-30T02:00:00.0000000+00:00</time></trkpt><trkpt lat="21.033901" lon="106.776421"><ele>24.3</ele><time>2011-04-30T02:00:05.0000000+00:00</time></trkpt><trkpt lat="21.033882" lon="106.776688"><ele>24.1</ele><time>2011-04-30T02:00:10.0000000+00:00</time></trkpt><trkpt lat="21.033821" lon="106.776993"><ele>25.8</ele><time>2011-04-30T02:00:15.0000000+00:00</time></trkpt><trkpt lat="21.033754" lon="106.777489"><ele>27.2</ele><time>2011-04-30T02:00:20.0000000+00:00</time></trkpt><trkpt lat="21.03381" lon="106.777977"><ele>30.5</ele><time>2011-04-30T02:00:25.0000000+00:00</time></trkpt><trkpt lat="21.033922" lon="106.778305"><ele>33.3</ele><time>2011-04-30T02:00:30.0000000+00:00</time></trkpt><trkpt lat="21.034088" lon="106.778587"><ele>36.8</ele><time>2011-04-30T02:00:35.0000000+00:00</time></trkpt><trkpt lat="21.034145" lon="106.778763"><ele>43.5</ele><time>2011-04-30T02:00:40.0000000+00:00</time></trkpt><trkpt lat="21.034267" lon="106.778969"><ele>50.6</ele><time>2011-04-30T02:00:45.0000000+00:00</time></trkpt><trkpt lat="21.034416" lon="106.779243"><ele>57.2</ele><time>2011-04-30T02:00:50.0000000+00:00</time></trkpt><trkpt lat="21.034582" lon="106.779549"><ele>61.9</ele><time>2011-04-30T02:00:55.0000000+00:00</time></trkpt><trkpt lat="21.034716" lon="106.779869"><ele>65.5</ele><time>2011-04-30T02:01:00.0000000+00:00</time></trkpt><trkpt lat="21.034891" lon="106.780289"><ele>69.4</ele><time>2011-04-30T02:01:05.0000000+00:00</time></trkpt><trkpt lat="21.035137" lon="106.780724"><ele>72.5</ele><time>2011-04-30T02:01:10.0000000+00:00</time></trkpt><trkpt lat="21.035334" lon="106.781143"><ele>73.1</ele><time>2011-04-30T02:01:15.0000000+00:00</time></trkpt><trkpt lat="21.035496" lon="106.781494"><ele>73.6</ele><time>2011-04-30T02:01:20.0000000+00:00</time></trkpt><trkpt lat="21.035635" lon="106.781693"><ele>70.0</ele><time>2011-04-30T02:01:25.0000000+00:00</time></trkpt><trkpt lat="21.035778" lon="106.78199"><ele>63.4</ele><time>2011-04-30T02:01:30.0000000+00:00</time></trkpt><trkpt lat="21.035908" lon="106.782333"><ele>62.2</ele><time>2011-04-30T02:01:35.0000000+00:00</time></trkpt><trkpt lat="21.036022" lon="106.782646"><ele>61.0</ele><time>2011-04-30T02:01:40.0000000+00:00</time></trkpt><trkpt lat="21.036125" lon="106.783043"><ele>63.4</ele><time>2011-04-30T02:01:45.0000000+00:00</time></trkpt><trkpt lat="21.036058" lon="106.783524"><ele>65.3</ele><time>2011-04-30T02:01:50.0000000+00:00</time></trkpt><trkpt lat="21.035934" lon="106.784019"><ele>68.8</ele><time>2011-04-30T02:01:55.0000000+00:00</time></trkpt><trkpt lat="21.035706" lon="106.784431"><ele>69.3</ele><time>2011-04-30T02:02:00.0000000+00:00</time></trkpt><trkpt lat="21.035519" lon="106.784813"><ele>69.6</ele><time>2011-04-30T02:02:05.0000000+00:00</time></trkpt><trkpt lat="21.035309" lon="106.785202"><ele>66.9</ele><time>2011-04-30T02:02:10.0000000+00:00</time></trkpt><trkpt lat="21.035122" lon="106.785522"><ele>64.5</ele><time>2011-04-30T02:02:15.0000000+00:00</time></trkpt><trkpt lat="21.034962" lon="106.785896"><ele>64.8</ele><time>2011-04-30T02:02:20.0000000+00:00</time></trkpt><trkpt lat="21.034946" lon="106.786232"><ele>67.3</ele><time>2011-04-30T02:02:25.0000000+00:00</time></trkpt><trkpt lat="21.034904" lon="106.78653"><ele>69.0</ele><time>2011-04-30T02:02:30.0000000+00:00</time></trkpt><trkpt lat="21.034842" lon="106.786774"><ele>71.5</ele><time>2011-04-30T02:02:35.0000000+00:00</time></trkpt><trkpt lat="21.034782" lon="106.787071"><ele>75.0</ele><time>2011-04-30T02:02:40.0000000+00:00</time></trkpt><trkpt lat="21.034601" lon="106.787468"><ele>76.4</ele><time>2011-04-30T02:02:45.0000000+00:00</time></trkpt><trkpt lat="21.034309" lon="106.787895"><ele>77.2</ele><time>2011-04-30T02:02:50.0000000+00:00</time></trkpt><trkpt lat="21.033966" lon="106.788261"><ele>77.8</ele><time>2011-04-30T02:02:55.0000000+00:00</time></trkpt><trkpt lat="21.033548" lon="106.788673"><ele>77.6</ele><time>2011-04-30T02:03:00.0000000+00:00</time></trkpt><trkpt lat="21.033077" lon="106.789146"><ele>76.7</ele><time>2011-04-30T02:03:05.0000000+00:00</time></trkpt><trkpt lat="21.032667" lon="106.789536"><ele>74.3</ele><time>2011-04-30T02:03:10.0000000+00:00</time></trkpt><trkpt lat="21.032417" lon="106.789742"><ele>69.1</ele><time>2011-04-30T02:03:15.0000000+00:00</time></trkpt><trkpt lat="21.032213" lon="106.789818"><ele>61.6</ele><time>2011-04-30T02:03:20.0000000+00:00</time></trkpt><trkpt lat="21.032106" lon="106.78997"><ele>58.6</ele><time>2011-04-30T02:03:25.0000000+00:00</time></trkpt><trkpt lat="21.032022" lon="106.790215"><ele>58.4</ele><time>2011-04-30T02:03:30.0000000+00:00</time></trkpt><trkpt lat="21.032013" lon="106.790405"><ele>57.9</ele><time>2011-04-30T02:03:35.0000000+00:00</time></trkpt><trkpt lat="21.032009" lon="106.790489"><ele>57.8</ele><time>2011-04-30T02:03:40.0000000+00:00</time></trkpt><trkpt lat="21.031994" lon="106.790634"><ele>60.3</ele><time>2011-04-30T02:03:45.0000000+00:00</time></trkpt><trkpt lat="21.032007" lon="106.790787"><ele>59.9</ele><time>2011-04-30T02:03:50.0000000+00:00</time></trkpt><trkpt lat="21.031958" lon="106.791039"><ele>57.8</ele><time>2011-04-30T02:03:55.0000000+00:00</time></trkpt><trkpt lat="21.031801" lon="106.791428"><ele>55.7</ele><time>2011-04-30T02:04:00.0000000+00:00</time></trkpt><trkpt lat="21.031698" lon="106.79184"><ele>55.0</ele><time>2011-04-30T02:04:05.0000000+00:00</time></trkpt><trkpt lat="21.031584" lon="106.792351"><ele>54.6</ele><time>2011-04-30T02:04:10.0000000+00:00</time></trkpt><trkpt lat="21.031475" lon="106.792831"><ele>55.8</ele><time>2011-04-30T02:04:15.0000000+00:00</time></trkpt><trkpt lat="21.031397" lon="106.793259"><ele>50.5</ele><time>2011-04-30T02:04:20.0000000+00:00</time></trkpt><trkpt lat="21.03126" lon="106.793648"><ele>43.2</ele><time>2011-04-30T02:04:25.0000000+00:00</time></trkpt><trkpt lat="21.031099" lon="106.79406"><ele>38.1</ele><time>2011-04-30T02:04:30.0000000+00:00</time></trkpt><trkpt lat="21.030939" lon="106.79454"><ele>32.7</ele><time>2011-04-30T02:04:35.0000000+00:00</time></trkpt><trkpt lat="21.030748" lon="106.794968"><ele>29.8</ele><time>2011-04-30T02:04:40.0000000+00:00</time></trkpt><trkpt lat="21.030582" lon="106.795303"><ele>27.0</ele><time>2011-04-30T02:04:45.0000000+00:00</time></trkpt><trkpt lat="21.030481" lon="106.795486"><ele>23.8</ele><time>2011-04-30T02:04:50.0000000+00:00</time></trkpt><trkpt lat="21.030384" lon="106.795685"><ele>22.3</ele><time>2011-04-30T02:04:55.0000000+00:00</time></trkpt><trkpt lat="21.030249" lon="106.795982"><ele>18.4</ele><time>2011-04-30T02:05:00.0000000+00:00</time></trkpt><trkpt lat="21.030077" lon="106.79631"><ele>16.5</ele><time>2011-04-30T02:05:05.0000000+00:00</time></trkpt><trkpt lat="21.029844" lon="106.796829"><ele>15.7</ele><time>2011-04-30T02:05:10.0000000+00:00</time></trkpt><trkpt lat="21.029585" lon="106.797401"><ele>11.3</ele><time>2011-04-30T02:05:15.0000000+00:00</time></trkpt><trkpt lat="21.02931" lon="106.797966"><ele>10.1</ele><time>2011-04-30T02:05:20.0000000+00:00</time></trkpt><trkpt lat="21.028996" lon="106.798561"><ele>10.0</ele><time>2011-04-30T02:05:25.0000000+00:00</time></trkpt><trkpt lat="21.028717" lon="106.799156"><ele>7.7</ele><time>2011-04-30T02:05:30.0000000+00:00</time></trkpt><trkpt lat="21.028452" lon="106.79966"><ele>4.9</ele><time>2011-04-30T02:05:35.0000000+00:00</time></trkpt><trkpt lat="21.028297" lon="106.800011"><ele>4.3</ele><time>2011-04-30T02:05:40.0000000+00:00</time></trkpt><trkpt lat="21.028185" lon="106.80024"><ele>3.7</ele><time>2011-04-30T02:05:45.0000000+00:00</time></trkpt><trkpt lat="21.028126" lon="106.800377"><ele>3.5</ele><time>2011-04-30T02:05:50.0000000+00:00</time></trkpt><trkpt lat="21.028006" lon="106.800591"><ele>2.9</ele><time>2011-04-30T02:05:55.0000000+00:00</time></trkpt><trkpt lat="21.027889" lon="106.800827"><ele>3.3</ele><time>2011-04-30T02:06:00.0000000+00:00</time></trkpt><trkpt lat="21.027697" lon="106.801178"><ele>3.1</ele><time>2011-04-30T02:06:05.0000000+00:00</time></trkpt><trkpt lat="21.027473" lon="106.801643"><ele>1.6</ele><time>2011-04-30T02:06:10.0000000+00:00</time></trkpt><trkpt lat="21.027193" lon="106.802185"><ele>0.5</ele><time>2011-04-30T02:06:15.0000000+00:00</time></trkpt><trkpt lat="21.026907" lon="106.802795"><ele>0.3</ele><time>2011-04-30T02:06:20.0000000+00:00</time></trkpt><trkpt lat="21.026632" lon="106.803322"><ele>1.4</ele><time>2011-04-30T02:06:25.0000000+00:00</time></trkpt><trkpt lat="21.026329" lon="106.803879"><ele>2.8</ele><time>2011-04-30T02:06:30.0000000+00:00</time></trkpt><trkpt lat="21.026016" lon="106.804466"><ele>4.1</ele><time>2011-04-30T02:06:35.0000000+00:00</time></trkpt><trkpt lat="21.025728" lon="106.805023"><ele>6.4</ele><time>2011-04-30T02:06:40.0000000+00:00</time></trkpt><trkpt lat="21.02548" lon="106.805527"><ele>7.9</ele><time>2011-04-30T02:06:45.0000000+00:00</time></trkpt><trkpt lat="21.025249" lon="106.80603"><ele>9.0</ele><time>2011-04-30T02:06:50.0000000+00:00</time></trkpt><trkpt lat="21.024946" lon="106.806602"><ele>9.5</ele><time>2011-04-30T02:06:55.0000000+00:00</time></trkpt><trkpt lat="21.024725" lon="106.806953"><ele>10.3</ele><time>2011-04-30T02:07:00.0000000+00:00</time></trkpt><trkpt lat="21.024675" lon="106.807022"><ele>11.0</ele><time>2011-04-30T02:07:05.0000000+00:00</time></trkpt><trkpt lat="21.02467" lon="106.807022"><ele>11.3</ele><time>2011-04-30T02:07:10.0000000+00:00</time></trkpt><trkpt lat="21.024668" lon="106.807014"><ele>11.4</ele><time>2011-04-30T02:07:15.0000000+00:00</time></trkpt><trkpt lat="21.024668" lon="106.807007"><ele>11.4</ele><time>2011-04-30T02:07:20.0000000+00:00</time></trkpt><trkpt lat="21.024668" lon="106.807007"><ele>11.5</ele><time>2011-04-30T02:07:25.0000000+00:00</time></trkpt><trkpt lat="21.02466" lon="106.807007"><ele>11.5</ele><time>2011-04-30T02:07:30.0000000+00:00</time></trkpt><trkpt lat="21.024614" lon="106.807083"><ele>11.7</ele><time>2011-04-30T02:07:35.0000000+00:00</time></trkpt><trkpt lat="21.024498" lon="106.807312"><ele>12.7</ele><time>2011-04-30T02:07:40.0000000+00:00</time></trkpt><trkpt lat="21.024361" lon="106.807648"><ele>13.9</ele><time>2011-04-30T02:07:45.0000000+00:00</time></trkpt><trkpt lat="21.024132" lon="106.80809"><ele>14.9</ele><time>2011-04-30T02:07:50.0000000+00:00</time></trkpt><trkpt lat="21.023891" lon="106.808586"><ele>15.8</ele><time>2011-04-30T02:07:55.0000000+00:00</time></trkpt><trkpt lat="21.023647" lon="106.809074"><ele>16.8</ele><time>2011-04-30T02:08:00.0000000+00:00</time></trkpt><trkpt lat="21.023357" lon="106.809486"><ele>17.2</ele><time>2011-04-30T02:08:05.0000000+00:00</time></trkpt><trkpt lat="21.023087" lon="106.809814"><ele>17.1</ele><time>2011-04-30T02:08:10.0000000+00:00</time></trkpt><trkpt lat="21.022839" lon="106.81012"><ele>16.6</ele><time>2011-04-30T02:08:15.0000000+00:00</time></trkpt><trkpt lat="21.022518" lon="106.810509"><ele>15.6</ele><time>2011-04-30T02:08:20.0000000+00:00</time></trkpt><trkpt lat="21.022192" lon="106.810928"><ele>15.3</ele><time>2011-04-30T02:08:25.0000000+00:00</time></trkpt><trkpt lat="21.021875" lon="106.811302"><ele>15.6</ele><time>2011-04-30T02:08:30.0000000+00:00</time></trkpt><trkpt lat="21.021561" lon="106.811646"><ele>16.3</ele><time>2011-04-30T02:08:35.0000000+00:00</time></trkpt><trkpt lat="21.021355" lon="106.811928"><ele>16.6</ele><time>2011-04-30T02:08:40.0000000+00:00</time></trkpt><trkpt lat="21.021091" lon="106.812172"><ele>16.3</ele><time>2011-04-30T02:08:45.0000000+00:00</time></trkpt><trkpt lat="21.0208" lon="106.812492"><ele>15.1</ele><time>2011-04-30T02:08:50.0000000+00:00</time></trkpt><trkpt lat="21.020565" lon="106.812744"><ele>14.8</ele><time>2011-04-30T02:08:55.0000000+00:00</time></trkpt><trkpt lat="21.020409" lon="106.812912"><ele>14.5</ele><time>2011-04-30T02:09:00.0000000+00:00</time></trkpt><trkpt lat="21.020248" lon="106.813141"><ele>15.1</ele><time>2011-04-30T02:09:05.0000000+00:00</time></trkpt><trkpt lat="21.020081" lon="106.813385"><ele>14.9</ele><time>2011-04-30T02:09:10.0000000+00:00</time></trkpt><trkpt lat="21.019897" lon="106.813744"><ele>16.6</ele><time>2011-04-30T02:09:15.0000000+00:00</time></trkpt><trkpt lat="21.019613" lon="106.814293"><ele>18.6</ele><time>2011-04-30T02:09:20.0000000+00:00</time></trkpt><trkpt lat="21.01932" lon="106.814873"><ele>20.1</ele><time>2011-04-30T02:09:25.0000000+00:00</time></trkpt><trkpt lat="21.018965" lon="106.815552"><ele>21.6</ele><time>2011-04-30T02:09:30.0000000+00:00</time></trkpt><trkpt lat="21.01862" lon="106.816254"><ele>23.0</ele><time>2011-04-30T02:09:35.0000000+00:00</time></trkpt><trkpt lat="21.01832" lon="106.816887"><ele>21.1</ele><time>2011-04-30T02:09:40.0000000+00:00</time></trkpt><trkpt lat="21.018015" lon="106.817482"><ele>20.5</ele><time>2011-04-30T02:09:45.0000000+00:00</time></trkpt><trkpt lat="21.017735" lon="106.818092"><ele>20.7</ele><time>2011-04-30T02:09:50.0000000+00:00</time></trkpt><trkpt lat="21.017464" lon="106.818695"><ele>19.4</ele><time>2011-04-30T02:09:55.0000000+00:00</time></trkpt><trkpt lat="21.017218" lon="106.819313"><ele>17.7</ele><time>2011-04-30T02:10:00.0000000+00:00</time></trkpt><trkpt lat="21.017" lon="106.819855"><ele>16.6</ele><time>2011-04-30T02:10:05.0000000+00:00</time></trkpt><trkpt lat="21.016819" lon="106.820328"><ele>16.2</ele><time>2011-04-30T02:10:10.0000000+00:00</time></trkpt><trkpt lat="21.016638" lon="106.820839"><ele>15.2</ele><time>2011-04-30T02:10:15.0000000+00:00</time></trkpt><trkpt lat="21.016434" lon="106.821312"><ele>14.2</ele><time>2011-04-30T02:10:20.0000000+00:00</time></trkpt><trkpt lat="21.016272" lon="106.821785"><ele>13.6</ele><time>2011-04-30T02:10:25.0000000+00:00</time></trkpt><trkpt lat="21.016113" lon="106.822227"><ele>11.5</ele><time>2011-04-30T02:10:30.0000000+00:00</time></trkpt><trkpt lat="21.015972" lon="106.822716"><ele>9.2</ele><time>2011-04-30T02:10:35.0000000+00:00</time></trkpt><trkpt lat="21.015839" lon="106.823196"><ele>7.5</ele><time>2011-04-30T02:10:40.0000000+00:00</time></trkpt><trkpt lat="21.015684" lon="106.823677"><ele>5.5</ele><time>2011-04-30T02:10:45.0000000+00:00</time></trkpt><trkpt lat="21.015543" lon="106.824219"><ele>3.8</ele><time>2011-04-30T02:10:50.0000000+00:00</time></trkpt><trkpt lat="21.015398" lon="106.824738"><ele>3.2</ele><time>2011-04-30T02:10:55.0000000+00:00</time></trkpt><trkpt lat="21.015255" lon="106.825287"><ele>1.9</ele><time>2011-04-30T02:11:00.0000000+00:00</time></trkpt><trkpt lat="21.015116" lon="106.825867"><ele>-0.9</ele><time>2011-04-30T02:11:05.0000000+00:00</time></trkpt><trkpt lat="21.014957" lon="106.826416"><ele>-1.5</ele><time>2011-04-30T02:11:10.0000000+00:00</time></trkpt><trkpt lat="21.014774" lon="106.826996"><ele>-1.8</ele><time>2011-04-30T02:11:15.0000000+00:00</time></trkpt><trkpt lat="21.014647" lon="106.827568"><ele>-3.0</ele><time>2011-04-30T02:11:20.0000000+00:00</time></trkpt><trkpt lat="21.014503" lon="106.828064"><ele>-3.9</ele><time>2011-04-30T02:11:25.0000000+00:00</time></trkpt><trkpt lat="21.014336" lon="106.828506"><ele>-1.8</ele><time>2011-04-30T02:11:30.0000000+00:00</time></trkpt><trkpt lat="21.014231" lon="106.828781"><ele>2.9</ele><time>2011-04-30T02:11:35.0000000+00:00</time></trkpt><trkpt lat="21.014189" lon="106.828842"><ele>5.5</ele><time>2011-04-30T02:11:40.0000000+00:00</time></trkpt><trkpt lat="21.014124" lon="106.828987"><ele>6.3</ele><time>2011-04-30T02:11:45.0000000+00:00</time></trkpt><trkpt lat="21.013983" lon="106.829163"><ele>5.4</ele><time>2011-04-30T02:11:50.0000000+00:00</time></trkpt><trkpt lat="21.013807" lon="106.829384"><ele>6.3</ele><time>2011-04-30T02:11:55.0000000+00:00</time></trkpt><trkpt lat="21.013561" lon="106.829636"><ele>5.8</ele><time>2011-04-30T02:12:00.0000000+00:00</time></trkpt><trkpt lat="21.013292" lon="106.829918"><ele>4.4</ele><time>2011-04-30T02:12:05.0000000+00:00</time></trkpt><trkpt lat="21.012978" lon="106.830223"><ele>3.3</ele><time>2011-04-30T02:12:10.0000000+00:00</time></trkpt><trkpt lat="21.012594" lon="106.830612"><ele>1.9</ele><time>2011-04-30T02:12:15.0000000+00:00</time></trkpt><trkpt lat="21.012213" lon="106.831062"><ele>1.7</ele><time>2011-04-30T02:12:20.0000000+00:00</time></trkpt><trkpt lat="21.011961" lon="106.831688"><ele>4.6</ele><time>2011-04-30T02:12:25.0000000+00:00</time></trkpt><trkpt lat="21.011753" lon="106.832443"><ele>5.6</ele><time>2011-04-30T02:12:30.0000000+00:00</time></trkpt><trkpt lat="21.011526" lon="106.833138"><ele>5.6</ele><time>2011-04-30T02:12:35.0000000+00:00</time></trkpt><trkpt lat="21.011242" lon="106.833801"><ele>5.5</ele><time>2011-04-30T02:12:40.0000000+00:00</time></trkpt><trkpt lat="21.010824" lon="106.834297"><ele>6.4</ele><time>2011-04-30T02:12:45.0000000+00:00</time></trkpt><trkpt lat="21.010435" lon="106.83461"><ele>9.2</ele><time>2011-04-30T02:12:50.0000000+00:00</time></trkpt><trkpt lat="21.009991" lon="106.834869"><ele>8.1</ele><time>2011-04-30T02:12:55.0000000+00:00</time></trkpt><trkpt lat="21.009533" lon="106.835182"><ele>6.8</ele><time>2011-04-30T02:13:00.0000000+00:00</time></trkpt><trkpt lat="21.009108" lon="106.835419"><ele>5.9</ele><time>2011-04-30T02:13:05.0000000+00:00</time></trkpt><trkpt lat="21.008661" lon="106.835709"><ele>5.2</ele><time>2011-04-30T02:13:10.0000000+00:00</time></trkpt><trkpt lat="21.008232" lon="106.836052"><ele>4.2</ele><time>2011-04-30T02:13:15.0000000+00:00</time></trkpt><trkpt lat="21.007898" lon="106.836487"><ele>3.0</ele><time>2011-04-30T02:13:20.0000000+00:00</time></trkpt><trkpt lat="21.007669" lon="106.836922"><ele>4.3</ele><time>2011-04-30T02:13:25.0000000+00:00</time></trkpt><trkpt lat="21.007526" lon="106.837364"><ele>6.0</ele><time>2011-04-30T02:13:30.0000000+00:00</time></trkpt><trkpt lat="21.007416" lon="106.83786"><ele>6.1</ele><time>2011-04-30T02:13:35.0000000+00:00</time></trkpt><trkpt lat="21.007278" lon="106.838402"><ele>7.2</ele><time>2011-04-30T02:13:40.0000000+00:00</time></trkpt><trkpt lat="21.00713" lon="106.838921"><ele>5.3</ele><time>2011-04-30T02:13:45.0000000+00:00</time></trkpt><trkpt lat="21.006943" lon="106.839424"><ele>3.9</ele><time>2011-04-30T02:13:50.0000000+00:00</time></trkpt><trkpt lat="21.00676" lon="106.839943"><ele>3.4</ele><time>2011-04-30T02:13:55.0000000+00:00</time></trkpt><trkpt lat="21.006599" lon="106.840424"><ele>5.4</ele><time>2011-04-30T02:14:00.0000000+00:00</time></trkpt><trkpt lat="21.006495" lon="106.840927"><ele>3.9</ele><time>2011-04-30T02:14:05.0000000+00:00</time></trkpt><trkpt lat="21.00642" lon="106.841377"><ele>5.0</ele><time>2011-04-30T02:14:10.0000000+00:00</time></trkpt><trkpt lat="21.006376" lon="106.841858"><ele>3.5</ele><time>2011-04-30T02:14:15.0000000+00:00</time></trkpt><trkpt lat="21.006294" lon="106.842369"><ele>2.9</ele><time>2011-04-30T02:14:20.0000000+00:00</time></trkpt><trkpt lat="21.006176" lon="106.842903"><ele>1.5</ele><time>2011-04-30T02:14:25.0000000+00:00</time></trkpt><trkpt lat="21.006065" lon="106.843399"><ele>0.0</ele><time>2011-04-30T02:14:30.0000000+00:00</time></trkpt><trkpt lat="21.005955" lon="106.843864"><ele>-3.1</ele><time>2011-04-30T02:14:35.0000000+00:00</time></trkpt><trkpt lat="21.005852" lon="106.844337"><ele>-5.6</ele><time>2011-04-30T02:14:40.0000000+00:00</time></trkpt><trkpt lat="21.00576" lon="106.844749"><ele>-7.0</ele><time>2011-04-30T02:14:45.0000000+00:00</time></trkpt><trkpt lat="21.005684" lon="106.8451"><ele>-7.0</ele><time>2011-04-30T02:14:50.0000000+00:00</time></trkpt><trkpt lat="21.00565" lon="106.845459"><ele>-5.2</ele><time>2011-04-30T02:14:55.0000000+00:00</time></trkpt><trkpt lat="21.005545" lon="106.845871"><ele>-6.4</ele><time>2011-04-30T02:15:00.0000000+00:00</time></trkpt><trkpt lat="21.005451" lon="106.846268"><ele>-6.1</ele><time>2011-04-30T02:15:05.0000000+00:00</time></trkpt><trkpt lat="21.005367" lon="106.846535"><ele>-2.7</ele><time>2011-04-30T02:15:10.0000000+00:00</time></trkpt><trkpt lat="21.005291" lon="106.846779"><ele>0.4</ele><time>2011-04-30T02:15:15.0000000+00:00</time></trkpt><trkpt lat="21.005192" lon="106.847122"><ele>4.1</ele><time>2011-04-30T02:15:20.0000000+00:00</time></trkpt><trkpt lat="21.005117" lon="106.847527"><ele>3.9</ele><time>2011-04-30T02:15:25.0000000+00:00</time></trkpt><trkpt lat="21.005011" lon="106.847939"><ele>3.4</ele><time>2011-04-30T02:15:30.0000000+00:00</time></trkpt><trkpt lat="21.004921" lon="106.848312"><ele>7.6</ele><time>2011-04-30T02:15:35.0000000+00:00</time></trkpt><trkpt lat="21.004852" lon="106.848763"><ele>11.6</ele><time>2011-04-30T02:15:40.0000000+00:00</time></trkpt><trkpt lat="21.004759" lon="106.849258"><ele>18.1</ele><time>2011-04-30T02:15:45.0000000+00:00</time></trkpt><trkpt lat="21.004662" lon="106.84964"><ele>19.8</ele><time>2011-04-30T02:15:50.0000000+00:00</time></trkpt><trkpt lat="21.00458" lon="106.850029"><ele>20.5</ele><time>2011-04-30T02:15:55.0000000+00:00</time></trkpt><trkpt lat="21.004501" lon="106.85038"><ele>23.4</ele><time>2011-04-30T02:16:00.0000000+00:00</time></trkpt><trkpt lat="21.004427" lon="106.850784"><ele>26.3</ele><time>2011-04-30T02:16:05.0000000+00:00</time></trkpt><trkpt lat="21.004377" lon="106.851128"><ele>28.8</ele><time>2011-04-30T02:16:10.0000000+00:00</time></trkpt><trkpt lat="21.004314" lon="106.851471"><ele>32.5</ele><time>2011-04-30T02:16:15.0000000+00:00</time></trkpt><trkpt lat="21.004276" lon="106.851761"><ele>34.2</ele><time>2011-04-30T02:16:20.0000000+00:00</time></trkpt><trkpt lat="21.004204" lon="106.852005"><ele>34.6</ele><time>2011-04-30T02:16:25.0000000+00:00</time></trkpt><trkpt lat="21.004152" lon="106.852234"><ele>34.6</ele><time>2011-04-30T02:16:30.0000000+00:00</time></trkpt><trkpt lat="21.004148" lon="106.852364"><ele>34.8</ele><time>2011-04-30T02:16:35.0000000+00:00</time></trkpt><trkpt lat="21.004118" lon="106.852463"><ele>34.6</ele><time>2011-04-30T02:16:40.0000000+00:00</time></trkpt><trkpt lat="21.004103" lon="106.852493"><ele>34.5</ele><time>2011-04-30T02:16:45.0000000+00:00</time></trkpt><trkpt lat="21.00411" lon="106.852509"><ele>35.4</ele><time>2011-04-30T02:16:50.0000000+00:00</time></trkpt><trkpt lat="21.004108" lon="106.852509"><ele>35.7</ele><time>2011-04-30T02:16:55.0000000+00:00</time></trkpt><trkpt lat="21.004116" lon="106.852524"><ele>35.7</ele><time>2011-04-30T02:17:00.0000000+00:00</time></trkpt><trkpt lat="21.004126" lon="106.852539"><ele>35.9</ele><time>2011-04-30T02:17:05.0000000+00:00</time></trkpt><trkpt lat="21.004133" lon="106.852547"><ele>35.9</ele><time>2011-04-30T02:17:10.0000000+00:00</time></trkpt><trkpt lat="21.004133" lon="106.852562"><ele>35.9</ele><time>2011-04-30T02:17:15.0000000+00:00</time></trkpt><trkpt lat="21.004126" lon="106.852562"><ele>35.9</ele><time>2011-04-30T02:17:20.0000000+00:00</time></trkpt><trkpt lat="21.004116" lon="106.852562"><ele>35.8</ele><time>2011-04-30T02:17:25.0000000+00:00</time></trkpt><trkpt lat="21.004116" lon="106.85257"><ele>35.7</ele><time>2011-04-30T02:17:30.0000000+00:00</time></trkpt><trkpt lat="21.004129" lon="106.852585"><ele>35.7</ele><time>2011-04-30T02:17:35.0000000+00:00</time></trkpt><trkpt lat="21.004139" lon="106.8526"><ele>35.6</ele><time>2011-04-30T02:17:40.0000000+00:00</time></trkpt><trkpt lat="21.004143" lon="106.852608"><ele>35.6</ele><time>2011-04-30T02:17:45.0000000+00:00</time></trkpt><trkpt lat="21.004152" lon="106.852615"><ele>35.6</ele><time>2011-04-30T02:17:50.0000000+00:00</time></trkpt><trkpt lat="21.004175" lon="106.852638"><ele>35.5</ele><time>2011-04-30T02:17:55.0000000+00:00</time></trkpt><trkpt lat="21.004181" lon="106.852654"><ele>35.5</ele><time>2011-04-30T02:18:00.0000000+00:00</time></trkpt><trkpt lat="21.004169" lon="106.852661"><ele>35.4</ele><time>2011-04-30T02:18:05.0000000+00:00</time></trkpt><trkpt lat="21.00415" lon="106.852669"><ele>35.4</ele><time>2011-04-30T02:18:10.0000000+00:00</time></trkpt><trkpt lat="21.004133" lon="106.852676"><ele>35.4</ele><time>2011-04-30T02:18:15.0000000+00:00</time></trkpt><trkpt lat="21.004107" lon="106.852905"><ele>34.6</ele><time>2011-04-30T02:18:20.0000000+00:00</time></trkpt><trkpt lat="21.004066" lon="106.853134"><ele>32.6</ele><time>2011-04-30T02:18:25.0000000+00:00</time></trkpt><trkpt lat="21.004028" lon="106.853432"><ele>29.2</ele><time>2011-04-30T02:18:30.0000000+00:00</time></trkpt><trkpt lat="21.004015" lon="106.853683"><ele>25.2</ele><time>2011-04-30T02:18:35.0000000+00:00</time></trkpt><trkpt lat="21.003933" lon="106.853874"><ele>22.4</ele><time>2011-04-30T02:18:40.0000000+00:00</time></trkpt><trkpt lat="21.003986" lon="106.854111"><ele>21.4</ele><time>2011-04-30T02:18:45.0000000+00:00</time></trkpt><trkpt lat="21.004129" lon="106.854309"><ele>20.8</ele><time>2011-04-30T02:18:50.0000000+00:00</time></trkpt><trkpt lat="21.004313" lon="106.854645"><ele>20.2</ele><time>2011-04-30T02:18:55.0000000+00:00</time></trkpt><trkpt lat="21.00456" lon="106.855019"><ele>18.9</ele><time>2011-04-30T02:19:00.0000000+00:00</time></trkpt><trkpt lat="21.004837" lon="106.855431"><ele>17.5</ele><time>2011-04-30T02:19:05.0000000+00:00</time></trkpt><trkpt lat="21.005138" lon="106.855896"><ele>15.9</ele><time>2011-04-30T02:19:10.0000000+00:00</time></trkpt><trkpt lat="21.005432" lon="106.856346"><ele>14.1</ele><time>2011-04-30T02:19:15.0000000+00:00</time></trkpt><trkpt lat="21.005579" lon="106.856613"><ele>12.3</ele><time>2011-04-30T02:19:20.0000000+00:00</time></trkpt><trkpt lat="21.00581" lon="106.857018"><ele>8.9</ele><time>2011-04-30T02:19:25.0000000+00:00</time></trkpt><trkpt lat="21.006092" lon="106.85743"><ele>6.7</ele><time>2011-04-30T02:19:30.0000000+00:00</time></trkpt><trkpt lat="21.00634" lon="106.857803"><ele>4.5</ele><time>2011-04-30T02:19:35.0000000+00:00</time></trkpt><trkpt lat="21.006527" lon="106.85807"><ele>2.8</ele><time>2011-04-30T02:19:40.0000000+00:00</time></trkpt><trkpt lat="21.006716" lon="106.858383"><ele>1.3</ele><time>2011-04-30T02:19:45.0000000+00:00</time></trkpt><trkpt lat="21.006929" lon="106.858711"><ele>-1.3</ele><time>2011-04-30T02:19:50.0000000+00:00</time></trkpt><trkpt lat="21.007204" lon="106.859131"><ele>-4.0</ele><time>2011-04-30T02:19:55.0000000+00:00</time></trkpt><trkpt lat="21.0075" lon="106.859535"><ele>-6.9</ele><time>2011-04-30T02:20:00.0000000+00:00</time></trkpt><trkpt lat="21.007755" lon="106.859894"><ele>-9.8</ele><time>2011-04-30T02:20:05.0000000+00:00</time></trkpt><trkpt lat="21.008022" lon="106.860283"><ele>-11.0</ele><time>2011-04-30T02:20:10.0000000+00:00</time></trkpt><trkpt lat="21.008249" lon="106.860588"><ele>-12.3</ele><time>2011-04-30T02:20:15.0000000+00:00</time></trkpt><trkpt lat="21.008373" lon="106.860786"><ele>-15.0</ele><time>2011-04-30T02:20:20.0000000+00:00</time></trkpt><trkpt lat="21.008636" lon="106.86116"><ele>-16.0</ele><time>2011-04-30T02:20:25.0000000+00:00</time></trkpt><trkpt lat="21.008957" lon="106.861626"><ele>-15.6</ele><time>2011-04-30T02:20:30.0000000+00:00</time></trkpt><trkpt lat="21.009279" lon="106.862106"><ele>-15.2</ele><time>2011-04-30T02:20:35.0000000+00:00</time></trkpt><trkpt lat="21.009649" lon="106.86261"><ele>-13.8</ele><time>2011-04-30T02:20:40.0000000+00:00</time></trkpt><trkpt lat="21.009983" lon="106.863113"><ele>-13.5</ele><time>2011-04-30T02:20:45.0000000+00:00</time></trkpt><trkpt lat="21.010229" lon="106.863556"><ele>-11.7</ele><time>2011-04-30T02:20:50.0000000+00:00</time></trkpt><trkpt lat="21.010426" lon="106.864021"><ele>-11.1</ele><time>2011-04-30T02:20:55.0000000+00:00</time></trkpt><trkpt lat="21.010616" lon="106.864479"><ele>-10.3</ele><time>2011-04-30T02:21:00.0000000+00:00</time></trkpt><trkpt lat="21.010782" lon="106.865021"><ele>-9.7</ele><time>2011-04-30T02:21:05.0000000+00:00</time></trkpt><trkpt lat="21.010857" lon="106.865562"><ele>-9.0</ele><time>2011-04-30T02:21:10.0000000+00:00</time></trkpt><trkpt lat="21.010813" lon="106.866066"><ele>-8.6</ele><time>2011-04-30T02:21:15.0000000+00:00</time></trkpt><trkpt lat="21.010717" lon="106.86657"><ele>-7.9</ele><time>2011-04-30T02:21:20.0000000+00:00</time></trkpt><trkpt lat="21.010605" lon="106.867043"><ele>-6.4</ele><time>2011-04-30T02:21:25.0000000+00:00</time></trkpt><trkpt lat="21.010498" lon="106.867638"><ele>-6.2</ele><time>2011-04-30T02:21:30.0000000+00:00</time></trkpt><trkpt lat="21.010349" lon="106.868263"><ele>-6.6</ele><time>2011-04-30T02:21:35.0000000+00:00</time></trkpt><trkpt lat="21.010216" lon="106.868958"><ele>-5.9</ele><time>2011-04-30T02:21:40.0000000+00:00</time></trkpt><trkpt lat="21.010069" lon="106.86969"><ele>-3.9</ele><time>2011-04-30T02:21:45.0000000+00:00</time></trkpt><trkpt lat="21.009882" lon="106.870361"><ele>-2.5</ele><time>2011-04-30T02:21:50.0000000+00:00</time></trkpt><trkpt lat="21.009726" lon="106.871109"><ele>-2.0</ele><time>2011-04-30T02:21:55.0000000+00:00</time></trkpt><trkpt lat="21.009613" lon="106.871819"><ele>-1.4</ele><time>2011-04-30T02:22:00.0000000+00:00</time></trkpt><trkpt lat="21.009481" lon="106.872498"><ele>-1.2</ele><time>2011-04-30T02:22:05.0000000+00:00</time></trkpt><trkpt lat="21.009296" lon="106.873199"><ele>-0.8</ele><time>2011-04-30T02:22:10.0000000+00:00</time></trkpt><trkpt lat="21.009069" lon="106.873894"><ele>0.6</ele><time>2011-04-30T02:22:15.0000000+00:00</time></trkpt><trkpt lat="21.008814" lon="106.874611"><ele>1.5</ele><time>2011-04-30T02:22:20.0000000+00:00</time></trkpt><trkpt lat="21.008547" lon="106.875366"><ele>0.5</ele><time>2011-04-30T02:22:25.0000000+00:00</time></trkpt><trkpt lat="21.008266" lon="106.876053"><ele>0.2</ele><time>2011-04-30T02:22:30.0000000+00:00</time></trkpt><trkpt lat="21.008011" lon="106.876709"><ele>0.6</ele><time>2011-04-30T02:22:35.0000000+00:00</time></trkpt><trkpt lat="21.007702" lon="106.877426"><ele>-0.3</ele><time>2011-04-30T02:22:40.0000000+00:00</time></trkpt><trkpt lat="21.007296" lon="106.878029"><ele>0.5</ele><time>2011-04-30T02:22:45.0000000+00:00</time></trkpt><trkpt lat="21.006907" lon="106.878517"><ele>0.6</ele><time>2011-04-30T02:22:50.0000000+00:00</time></trkpt><trkpt lat="21.006474" lon="106.879044"><ele>0.0</ele><time>2011-04-30T02:22:55.0000000+00:00</time></trkpt><trkpt lat="21.006065" lon="106.879677"><ele>-1.1</ele><time>2011-04-30T02:23:00.0000000+00:00</time></trkpt><trkpt lat="21.005739" lon="106.88028"><ele>-2.1</ele><time>2011-04-30T02:23:05.0000000+00:00</time></trkpt><trkpt lat="21.005495" lon="106.880867"><ele>-2.4</ele><time>2011-04-30T02:23:10.0000000+00:00</time></trkpt><trkpt lat="21.005285" lon="106.881508"><ele>-2.6</ele><time>2011-04-30T02:23:15.0000000+00:00</time></trkpt><trkpt lat="21.005098" lon="106.882149"><ele>-3.5</ele><time>2011-04-30T02:23:20.0000000+00:00</time></trkpt><trkpt lat="21.004929" lon="106.882706"><ele>-3.3</ele><time>2011-04-30T02:23:25.0000000+00:00</time></trkpt><trkpt lat="21.004704" lon="106.883232"><ele>-2.9</ele><time>2011-04-30T02:23:30.0000000+00:00</time></trkpt><trkpt lat="21.004347" lon="106.883705"><ele>-2.8</ele><time>2011-04-30T02:23:35.0000000+00:00</time></trkpt><trkpt lat="21.003815" lon="106.884178"><ele>-1.5</ele><time>2011-04-30T02:23:40.0000000+00:00</time></trkpt><trkpt lat="21.003166" lon="106.884583"><ele>-2.2</ele><time>2011-04-30T02:23:45.0000000+00:00</time></trkpt><trkpt lat="21.002542" lon="106.884949"><ele>-3.6</ele><time>2011-04-30T02:23:50.0000000+00:00</time></trkpt><trkpt lat="21.002024" lon="106.885223"><ele>-3.1</ele><time>2011-04-30T02:23:55.0000000+00:00</time></trkpt><trkpt lat="21.001686" lon="106.885391"><ele>-2.3</ele><time>2011-04-30T02:24:00.0000000+00:00</time></trkpt><trkpt lat="21.001448" lon="106.885498"><ele>-0.7</ele><time>2011-04-30T02:24:05.0000000+00:00</time></trkpt><trkpt lat="21.001329" lon="106.885567"><ele>0.5</ele><time>2011-04-30T02:24:10.0000000+00:00</time></trkpt><trkpt lat="21.0012" lon="106.885605"><ele>2.6</ele><time>2011-04-30T02:24:15.0000000+00:00</time></trkpt><trkpt lat="21.001041" lon="106.885643"><ele>2.8</ele><time>2011-04-30T02:24:20.0000000+00:00</time></trkpt><trkpt lat="21.000889" lon="106.885666"><ele>3.7</ele><time>2011-04-30T02:24:25.0000000+00:00</time></trkpt><trkpt lat="21.000727" lon="106.885689"><ele>4.5</ele><time>2011-04-30T02:24:30.0000000+00:00</time></trkpt><trkpt lat="21.000465" lon="106.885712"><ele>6.2</ele><time>2011-04-30T02:24:35.0000000+00:00</time></trkpt><trkpt lat="21.000134" lon="106.885857"><ele>7.8</ele><time>2011-04-30T02:24:40.0000000+00:00</time></trkpt><trkpt lat="20.999781" lon="106.8862"><ele>9.3</ele><time>2011-04-30T02:24:45.0000000+00:00</time></trkpt><trkpt lat="20.999578" lon="106.88652"><ele>10.1</ele><time>2011-04-30T02:24:50.0000000+00:00</time></trkpt><trkpt lat="20.999359" lon="106.886871"><ele>11.1</ele><time>2011-04-30T02:24:55.0000000+00:00</time></trkpt><trkpt lat="20.999142" lon="106.887192"><ele>11.8</ele><time>2011-04-30T02:25:00.0000000+00:00</time></trkpt><trkpt lat="20.998842" lon="106.887642"><ele>12.5</ele><time>2011-04-30T02:25:05.0000000+00:00</time></trkpt><trkpt lat="20.998444" lon="106.888161"><ele>12.0</ele><time>2011-04-30T02:25:10.0000000+00:00</time></trkpt><trkpt lat="20.997995" lon="106.888763"><ele>12.2</ele><time>2011-04-30T02:25:15.0000000+00:00</time></trkpt><trkpt lat="20.997509" lon="106.88945"><ele>9.6</ele><time>2011-04-30T02:25:20.0000000+00:00</time></trkpt><trkpt lat="20.997084" lon="106.890106"><ele>8.1</ele><time>2011-04-30T02:25:25.0000000+00:00</time></trkpt><trkpt lat="20.996628" lon="106.890709"><ele>6.8</ele><time>2011-04-30T02:25:30.0000000+00:00</time></trkpt><trkpt lat="20.996222" lon="106.891235"><ele>5.4</ele><time>2011-04-30T02:25:35.0000000+00:00</time></trkpt><trkpt lat="20.995882" lon="106.891693"><ele>4.9</ele><time>2011-04-30T02:25:40.0000000+00:00</time></trkpt><trkpt lat="20.995552" lon="106.89212"><ele>4.1</ele><time>2011-04-30T02:25:45.0000000+00:00</time></trkpt><trkpt lat="20.995207" lon="106.892624"><ele>1.7</ele><time>2011-04-30T02:25:50.0000000+00:00</time></trkpt><trkpt lat="20.994884" lon="106.89312"><ele>-0.3</ele><time>2011-04-30T02:25:55.0000000+00:00</time></trkpt><trkpt lat="20.994526" lon="106.893593"><ele>-1.9</ele><time>2011-04-30T02:26:00.0000000+00:00</time></trkpt><trkpt lat="20.994106" lon="106.894127"><ele>-3.5</ele><time>2011-04-30T02:26:05.0000000+00:00</time></trkpt><trkpt lat="20.993685" lon="106.894676"><ele>-4.5</ele><time>2011-04-30T02:26:10.0000000+00:00</time></trkpt><trkpt lat="20.993338" lon="106.895119"><ele>-5.3</ele><time>2011-04-30T02:26:15.0000000+00:00</time></trkpt><trkpt lat="20.992994" lon="106.895561"><ele>-6.1</ele><time>2011-04-30T02:26:20.0000000+00:00</time></trkpt><trkpt lat="20.992617" lon="106.896042"><ele>-7.2</ele><time>2011-04-30T02:26:25.0000000+00:00</time></trkpt><trkpt lat="20.99217" lon="106.896507"><ele>-8.1</ele><time>2011-04-30T02:26:30.0000000+00:00</time></trkpt><trkpt lat="20.991644" lon="106.896988"><ele>-9.1</ele><time>2011-04-30T02:26:35.0000000+00:00</time></trkpt><trkpt lat="20.991102" lon="106.897514"><ele>-9.4</ele><time>2011-04-30T02:26:40.0000000+00:00</time></trkpt><trkpt lat="20.990705" lon="106.897957"><ele>-10.3</ele><time>2011-04-30T02:26:45.0000000+00:00</time></trkpt><trkpt lat="20.990404" lon="106.898338"><ele>-11.7</ele><time>2011-04-30T02:26:50.0000000+00:00</time></trkpt><trkpt lat="20.990107" lon="106.898811"><ele>-13.9</ele><time>2011-04-30T02:26:55.0000000+00:00</time></trkpt><trkpt lat="20.989782" lon="106.899361"><ele>-14.9</ele><time>2011-04-30T02:27:00.0000000+00:00</time></trkpt><trkpt lat="20.989397" lon="106.900024"><ele>-16.2</ele><time>2011-04-30T02:27:05.0000000+00:00</time></trkpt><trkpt lat="20.989012" lon="106.900696"><ele>-17.1</ele><time>2011-04-30T02:27:10.0000000+00:00</time></trkpt><trkpt lat="20.988613" lon="106.901344"><ele>-18.0</ele><time>2011-04-30T02:27:15.0000000+00:00</time></trkpt><trkpt lat="20.988207" lon="106.901871"><ele>-18.5</ele><time>2011-04-30T02:27:20.0000000+00:00</time></trkpt><trkpt lat="20.987816" lon="106.90229"><ele>-19.5</ele><time>2011-04-30T02:27:25.0000000+00:00</time></trkpt><trkpt lat="20.987392" lon="106.902672"><ele>-20.3</ele><time>2011-04-30T02:27:30.0000000+00:00</time></trkpt><trkpt lat="20.986961" lon="106.903084"><ele>-20.7</ele><time>2011-04-30T02:27:35.0000000+00:00</time></trkpt><trkpt lat="20.986574" lon="106.903419"><ele>-20.3</ele><time>2011-04-30T02:27:40.0000000+00:00</time></trkpt><trkpt lat="20.986216" lon="106.903801"><ele>-20.7</ele><time>2011-04-30T02:27:45.0000000+00:00</time></trkpt><trkpt lat="20.985867" lon="106.904114"><ele>-20.2</ele><time>2011-04-30T02:27:50.0000000+00:00</time></trkpt><trkpt lat="20.985571" lon="106.904366"><ele>-18.7</ele><time>2011-04-30T02:27:55.0000000+00:00</time></trkpt><trkpt lat="20.98531" lon="106.904617"><ele>-17.3</ele><time>2011-04-30T02:28:00.0000000+00:00</time></trkpt><trkpt lat="20.985029" lon="106.904961"><ele>-16.1</ele><time>2011-04-30T02:28:05.0000000+00:00</time></trkpt><trkpt lat="20.984768" lon="106.905373"><ele>-15.8</ele><time>2011-04-30T02:28:10.0000000+00:00</time></trkpt><trkpt lat="20.984562" lon="106.905731"><ele>-15.7</ele><time>2011-04-30T02:28:15.0000000+00:00</time></trkpt><trkpt lat="20.984402" lon="106.906082"><ele>-15.4</ele><time>2011-04-30T02:28:20.0000000+00:00</time></trkpt><trkpt lat="20.984232" lon="106.906456"><ele>-14.0</ele><time>2011-04-30T02:28:25.0000000+00:00</time></trkpt><trkpt lat="20.984098" lon="106.906891"><ele>-12.2</ele><time>2011-04-30T02:28:30.0000000+00:00</time></trkpt><trkpt lat="20.984007" lon="106.907356"><ele>-11.0</ele><time>2011-04-30T02:28:35.0000000+00:00</time></trkpt><trkpt lat="20.983891" lon="106.907928"><ele>-10.8</ele><time>2011-04-30T02:28:40.0000000+00:00</time></trkpt><trkpt lat="20.983843" lon="106.908409"><ele>-11.1</ele><time>2011-04-30T02:28:45.0000000+00:00</time></trkpt><trkpt lat="20.98381" lon="106.908875"><ele>-11.3</ele><time>2011-04-30T02:28:50.0000000+00:00</time></trkpt><trkpt lat="20.983812" lon="106.90947"><ele>-10.8</ele><time>2011-04-30T02:28:55.0000000+00:00</time></trkpt><trkpt lat="20.983858" lon="106.91011"><ele>-11.2</ele><time>2011-04-30T02:29:00.0000000+00:00</time></trkpt><trkpt lat="20.983917" lon="106.910858"><ele>-11.5</ele><time>2011-04-30T02:29:05.0000000+00:00</time></trkpt><trkpt lat="20.984026" lon="106.911697"><ele>-12.0</ele><time>2011-04-30T02:29:10.0000000+00:00</time></trkpt><trkpt lat="20.984106" lon="106.912521"><ele>-11.2</ele><time>2011-04-30T02:29:15.0000000+00:00</time></trkpt><trkpt lat="20.984081" lon="106.913322"><ele>-10.8</ele><time>2011-04-30T02:29:20.0000000+00:00</time></trkpt><trkpt lat="20.984034" lon="106.913994"><ele>-10.8</ele><time>2011-04-30T02:29:25.0000000+00:00</time></trkpt><trkpt lat="20.983906" lon="106.91468"><ele>-11.4</ele><time>2011-04-30T02:29:30.0000000+00:00</time></trkpt><trkpt lat="20.983662" lon="106.915283"><ele>-11.9</ele><time>2011-04-30T02:29:35.0000000+00:00</time></trkpt><trkpt lat="20.98336" lon="106.915894"><ele>-12.7</ele><time>2011-04-30T02:29:40.0000000+00:00</time></trkpt><trkpt lat="20.983011" lon="106.916496"><ele>-12.7</ele><time>2011-04-30T02:29:45.0000000+00:00</time></trkpt><trkpt lat="20.982615" lon="106.917007"><ele>-13.7</ele><time>2011-04-30T02:29:50.0000000+00:00</time></trkpt><trkpt lat="20.982233" lon="106.917427"><ele>-14.4</ele><time>2011-04-30T02:29:55.0000000+00:00</time></trkpt><trkpt lat="20.981842" lon="106.91787"><ele>-14.6</ele><time>2011-04-30T02:30:00.0000000+00:00</time></trkpt><trkpt lat="20.981482" lon="106.918289"><ele>-14.2</ele><time>2011-04-30T02:30:05.0000000+00:00</time></trkpt><trkpt lat="20.981127" lon="106.918716"><ele>-13.7</ele><time>2011-04-30T02:30:10.0000000+00:00</time></trkpt><trkpt lat="20.980742" lon="106.919205"><ele>-14.6</ele><time>2011-04-30T02:30:15.0000000+00:00</time></trkpt><trkpt lat="20.980356" lon="106.919716"><ele>-13.9</ele><time>2011-04-30T02:30:20.0000000+00:00</time></trkpt><trkpt lat="20.98007" lon="106.920174"><ele>-14.5</ele><time>2011-04-30T02:30:25.0000000+00:00</time></trkpt><trkpt lat="20.97982" lon="106.920616"><ele>-15.1</ele><time>2011-04-30T02:30:30.0000000+00:00</time></trkpt><trkpt lat="20.979563" lon="106.921104"><ele>-16.5</ele><time>2011-04-30T02:30:35.0000000+00:00</time></trkpt><trkpt lat="20.979315" lon="106.921593"><ele>-18.3</ele><time>2011-04-30T02:30:40.0000000+00:00</time></trkpt><trkpt lat="20.979103" lon="106.92202"><ele>-19.3</ele><time>2011-04-30T02:30:45.0000000+00:00</time></trkpt><trkpt lat="20.978926" lon="106.92234"><ele>-19.5</ele><time>2011-04-30T02:30:50.0000000+00:00</time></trkpt><trkpt lat="20.978802" lon="106.922539"><ele>-20.0</ele><time>2011-04-30T02:30:55.0000000+00:00</time></trkpt><trkpt lat="20.978655" lon="106.922813"><ele>-20.6</ele><time>2011-04-30T02:31:00.0000000+00:00</time></trkpt><trkpt lat="20.978447" lon="106.923233"><ele>-21.2</ele><time>2011-04-30T02:31:05.0000000+00:00</time></trkpt><trkpt lat="20.97821" lon="106.923706"><ele>-22.2</ele><time>2011-04-30T02:31:10.0000000+00:00</time></trkpt><trkpt lat="20.977943" lon="106.924156"><ele>-20.7</ele><time>2011-04-30T02:31:15.0000000+00:00</time></trkpt><trkpt lat="20.977661" lon="106.924606"><ele>-20.5</ele><time>2011-04-30T02:31:20.0000000+00:00</time></trkpt><trkpt lat="20.977331" lon="106.925064"><ele>-20.9</ele><time>2011-04-30T02:31:25.0000000+00:00</time></trkpt><trkpt lat="20.977009" lon="106.92543"><ele>-20.1</ele><time>2011-04-30T02:31:30.0000000+00:00</time></trkpt><trkpt lat="20.976652" lon="106.925789"><ele>-19.7</ele><time>2011-04-30T02:31:35.0000000+00:00</time></trkpt><trkpt lat="20.976192" lon="106.926186"><ele>-15.8</ele><time>2011-04-30T02:31:40.0000000+00:00</time></trkpt><trkpt lat="20.975697" lon="106.926537"><ele>-14.5</ele><time>2011-04-30T02:31:45.0000000+00:00</time></trkpt><trkpt lat="20.975286" lon="106.926849"><ele>-15.2</ele><time>2011-04-30T02:31:50.0000000+00:00</time></trkpt><trkpt lat="20.974924" lon="106.927132"><ele>-14.8</ele><time>2011-04-30T02:31:55.0000000+00:00</time></trkpt><trkpt lat="20.974602" lon="106.927422"><ele>-11.5</ele><time>2011-04-30T02:32:00.0000000+00:00</time></trkpt><trkpt lat="20.974295" lon="106.927673"><ele>-10.7</ele><time>2011-04-30T02:32:05.0000000+00:00</time></trkpt><trkpt lat="20.973902" lon="106.928047"><ele>-5.3</ele><time>2011-04-30T02:32:10.0000000+00:00</time></trkpt><trkpt lat="20.973444" lon="106.928551"><ele>-4.8</ele><time>2011-04-30T02:32:15.0000000+00:00</time></trkpt><trkpt lat="20.972919" lon="106.929176"><ele>-6.2</ele><time>2011-04-30T02:32:20.0000000+00:00</time></trkpt><trkpt lat="20.972389" lon="106.929863"><ele>-5.7</ele><time>2011-04-30T02:32:25.0000000+00:00</time></trkpt><trkpt lat="20.971916" lon="106.930458"><ele>-4.8</ele><time>2011-04-30T02:32:30.0000000+00:00</time></trkpt><trkpt lat="20.971521" lon="106.930984"><ele>-4.6</ele><time>2011-04-30T02:32:35.0000000+00:00</time></trkpt><trkpt lat="20.971142" lon="106.93148"><ele>-4.5</ele><time>2011-04-30T02:32:40.0000000+00:00</time></trkpt><trkpt lat="20.970762" lon="106.931999"><ele>-5.2</ele><time>2011-04-30T02:32:45.0000000+00:00</time></trkpt><trkpt lat="20.970308" lon="106.932632"><ele>-5.9</ele><time>2011-04-30T02:32:50.0000000+00:00</time></trkpt><trkpt lat="20.969866" lon="106.933205"><ele>-6.4</ele><time>2011-04-30T02:32:55.0000000+00:00</time></trkpt><trkpt lat="20.969475" lon="106.933716"><ele>-3.7</ele><time>2011-04-30T02:33:00.0000000+00:00</time></trkpt><trkpt lat="20.969078" lon="106.934242"><ele>-1.6</ele><time>2011-04-30T02:33:05.0000000+00:00</time></trkpt><trkpt lat="20.968658" lon="106.934769"><ele>-0.4</ele><time>2011-04-30T02:33:10.0000000+00:00</time></trkpt><trkpt lat="20.968208" lon="106.935356"><ele>0.9</ele><time>2011-04-30T02:33:15.0000000+00:00</time></trkpt><trkpt lat="20.967741" lon="106.935974"><ele>1.3</ele><time>2011-04-30T02:33:20.0000000+00:00</time></trkpt><trkpt lat="20.967274" lon="106.936562"><ele>2.9</ele><time>2011-04-30T02:33:25.0000000+00:00</time></trkpt><trkpt lat="20.96685" lon="106.937111"><ele>3.1</ele><time>2011-04-30T02:33:30.0000000+00:00</time></trkpt><trkpt lat="20.966463" lon="106.937622"><ele>4.0</ele><time>2011-04-30T02:33:35.0000000+00:00</time></trkpt><trkpt lat="20.9662" lon="106.937973"><ele>3.8</ele><time>2011-04-30T02:33:40.0000000+00:00</time></trkpt><trkpt lat="20.96608" lon="106.938156"><ele>3.6</ele><time>2011-04-30T02:33:45.0000000+00:00</time></trkpt><trkpt lat="20.966024" lon="106.938217"><ele>3.1</ele><time>2011-04-30T02:33:50.0000000+00:00</time></trkpt><trkpt lat="20.965981" lon="106.938271"><ele>2.3</ele><time>2011-04-30T02:33:55.0000000+00:00</time></trkpt><trkpt lat="20.965899" lon="106.93837"><ele>2.1</ele><time>2011-04-30T02:34:00.0000000+00:00</time></trkpt><trkpt lat="20.965828" lon="106.938469"><ele>1.5</ele><time>2011-04-30T02:34:05.0000000+00:00</time></trkpt><trkpt lat="20.965738" lon="106.938545"><ele>0.9</ele><time>2011-04-30T02:34:10.0000000+00:00</time></trkpt><trkpt lat="20.96566" lon="106.938652"><ele>-0.1</ele><time>2011-04-30T02:34:15.0000000+00:00</time></trkpt><trkpt lat="20.96557" lon="106.938736"><ele>-1.4</ele><time>2011-04-30T02:34:20.0000000+00:00</time></trkpt><trkpt lat="20.965555" lon="106.938812"><ele>-2.1</ele><time>2011-04-30T02:34:25.0000000+00:00</time></trkpt><trkpt lat="20.965504" lon="106.938889"><ele>-2.4</ele><time>2011-04-30T02:34:30.0000000+00:00</time></trkpt><trkpt lat="20.965485" lon="106.93895"><ele>-3.4</ele><time>2011-04-30T02:34:35.0000000+00:00</time></trkpt><trkpt lat="20.965462" lon="106.938988"><ele>-2.8</ele><time>2011-04-30T02:34:40.0000000+00:00</time></trkpt><trkpt lat="20.965427" lon="106.939026"><ele>-2.2</ele><time>2011-04-30T02:34:45.0000000+00:00</time></trkpt><trkpt lat="20.965422" lon="106.939041"><ele>-2.4</ele><time>2011-04-30T02:34:50.0000000+00:00</time></trkpt><trkpt lat="20.965431" lon="106.939049"><ele>-2.6</ele><time>2011-04-30T02:34:55.0000000+00:00</time></trkpt><trkpt lat="20.96533" lon="106.939171"><ele>-2.8</ele><time>2011-04-30T02:35:00.0000000+00:00</time></trkpt><trkpt lat="20.965212" lon="106.939301"><ele>-1.0</ele><time>2011-04-30T02:35:05.0000000+00:00</time></trkpt><trkpt lat="20.965107" lon="106.939415"><ele>-1.2</ele><time>2011-04-30T02:35:10.0000000+00:00</time></trkpt><trkpt lat="20.964966" lon="106.939575"><ele>0.5</ele><time>2011-04-30T02:35:15.0000000+00:00</time></trkpt><trkpt lat="20.964863" lon="106.939743"><ele>0.4</ele><time>2011-04-30T02:35:20.0000000+00:00</time></trkpt><trkpt lat="20.964785" lon="106.939888"><ele>0.9</ele><time>2011-04-30T02:35:25.0000000+00:00</time></trkpt><trkpt lat="20.964695" lon="106.939987"><ele>1.9</ele><time>2011-04-30T02:35:30.0000000+00:00</time></trkpt><trkpt lat="20.964638" lon="106.940086"><ele>2.5</ele><time>2011-04-30T02:35:35.0000000+00:00</time></trkpt><trkpt lat="20.964573" lon="106.940216"><ele>2.2</ele><time>2011-04-30T02:35:40.0000000+00:00</time></trkpt><trkpt lat="20.964542" lon="106.940277"><ele>3.1</ele><time>2011-04-30T02:35:45.0000000+00:00</time></trkpt><trkpt lat="20.964533" lon="106.9403"><ele>4.2</ele><time>2011-04-30T02:35:50.0000000+00:00</time></trkpt><trkpt lat="20.964521" lon="106.940315"><ele>4.5</ele><time>2011-04-30T02:35:55.0000000+00:00</time></trkpt><trkpt lat="20.964521" lon="106.940323"><ele>4.7</ele><time>2011-04-30T02:36:00.0000000+00:00</time></trkpt><trkpt lat="20.964499" lon="106.940392"><ele>4.7</ele><time>2011-04-30T02:36:05.0000000+00:00</time></trkpt><trkpt lat="20.964424" lon="106.940575"><ele>4.5</ele><time>2011-04-30T02:36:10.0000000+00:00</time></trkpt><trkpt lat="20.964355" lon="106.940811"><ele>3.7</ele><time>2011-04-30T02:36:15.0000000+00:00</time></trkpt><trkpt lat="20.964266" lon="106.941055"><ele>3.3</ele><time>2011-04-30T02:36:20.0000000+00:00</time></trkpt><trkpt lat="20.964211" lon="106.941261"><ele>3.1</ele><time>2011-04-30T02:36:25.0000000+00:00</time></trkpt><trkpt lat="20.964161" lon="106.941452"><ele>0.7</ele><time>2011-04-30T02:36:30.0000000+00:00</time></trkpt><trkpt lat="20.964149" lon="106.94162"><ele>-1.0</ele><time>2011-04-30T02:36:35.0000000+00:00</time></trkpt><trkpt lat="20.964058" lon="106.94191"><ele>-1.8</ele><time>2011-04-30T02:36:40.0000000+00:00</time></trkpt><trkpt lat="20.963894" lon="106.942345"><ele>-1.4</ele><time>2011-04-30T02:36:45.0000000+00:00</time></trkpt><trkpt lat="20.963707" lon="106.94281"><ele>-2.5</ele><time>2011-04-30T02:36:50.0000000+00:00</time></trkpt><trkpt lat="20.963425" lon="106.943321"><ele>-3.3</ele><time>2011-04-30T02:36:55.0000000+00:00</time></trkpt><trkpt lat="20.963058" lon="106.943817"><ele>-2.1</ele><time>2011-04-30T02:37:00.0000000+00:00</time></trkpt><trkpt lat="20.962671" lon="106.944252"><ele>-2.2</ele><time>2011-04-30T02:37:05.0000000+00:00</time></trkpt><trkpt lat="20.962275" lon="106.944695"><ele>-2.4</ele><time>2011-04-30T02:37:10.0000000+00:00</time></trkpt><trkpt lat="20.961887" lon="106.945091"><ele>-1.6</ele><time>2011-04-30T02:37:15.0000000+00:00</time></trkpt><trkpt lat="20.961592" lon="106.945404"><ele>-1.9</ele><time>2011-04-30T02:37:20.0000000+00:00</time></trkpt><trkpt lat="20.961391" lon="106.945587"><ele>-2.0</ele><time>2011-04-30T02:37:25.0000000+00:00</time></trkpt><trkpt lat="20.961123" lon="106.945831"><ele>-4.1</ele><time>2011-04-30T02:37:30.0000000+00:00</time></trkpt><trkpt lat="20.960743" lon="106.946121"><ele>-3.9</ele><time>2011-04-30T02:37:35.0000000+00:00</time></trkpt><trkpt lat="20.960291" lon="106.946365"><ele>-2.6</ele><time>2011-04-30T02:37:40.0000000+00:00</time></trkpt><trkpt lat="20.95986" lon="106.946587"><ele>-2.5</ele><time>2011-04-30T02:37:45.0000000+00:00</time></trkpt><trkpt lat="20.959484" lon="106.9468"><ele>-2.2</ele><time>2011-04-30T02:37:50.0000000+00:00</time></trkpt><trkpt lat="20.959146" lon="106.947067"><ele>-4.1</ele><time>2011-04-30T02:37:55.0000000+00:00</time></trkpt><trkpt lat="20.958824" lon="106.947334"><ele>-5.3</ele><time>2011-04-30T02:38:00.0000000+00:00</time></trkpt><trkpt lat="20.958481" lon="106.94767"><ele>-5.9</ele><time>2011-04-30T02:38:05.0000000+00:00</time></trkpt><trkpt lat="20.958263" lon="106.948029"><ele>-5.5</ele><time>2011-04-30T02:38:10.0000000+00:00</time></trkpt><trkpt lat="20.958052" lon="106.948441"><ele>-4.2</ele><time>2011-04-30T02:38:15.0000000+00:00</time></trkpt><trkpt lat="20.957912" lon="106.948891"><ele>-4.1</ele><time>2011-04-30T02:38:20.0000000+00:00</time></trkpt><trkpt lat="20.957859" lon="106.949417"><ele>-5.4</ele><time>2011-04-30T02:38:25.0000000+00:00</time></trkpt><trkpt lat="20.957846" lon="106.949814"><ele>-6.9</ele><time>2011-04-30T02:38:30.0000000+00:00</time></trkpt><trkpt lat="20.957844" lon="106.950188"><ele>-7.5</ele><time>2011-04-30T02:38:35.0000000+00:00</time></trkpt><trkpt lat="20.95785" lon="106.950638"><ele>-8.6</ele><time>2011-04-30T02:38:40.0000000+00:00</time></trkpt><trkpt lat="20.957827" lon="106.951195"><ele>-7.5</ele><time>2011-04-30T02:38:45.0000000+00:00</time></trkpt><trkpt lat="20.957794" lon="106.951759"><ele>-8.4</ele><time>2011-04-30T02:38:50.0000000+00:00</time></trkpt><trkpt lat="20.957712" lon="106.952332"><ele>-10.2</ele><time>2011-04-30T02:38:55.0000000+00:00</time></trkpt><trkpt lat="20.957619" lon="106.952843"><ele>-10.1</ele><time>2011-04-30T02:39:00.0000000+00:00</time></trkpt><trkpt lat="20.957533" lon="106.953346"><ele>-11.6</ele><time>2011-04-30T02:39:05.0000000+00:00</time></trkpt><trkpt lat="20.957403" lon="106.953888"><ele>-11.5</ele><time>2011-04-30T02:39:10.0000000+00:00</time></trkpt><trkpt lat="20.95727" lon="106.954552"><ele>-11.8</ele><time>2011-04-30T02:39:15.0000000+00:00</time></trkpt><trkpt lat="20.957115" lon="106.955208"><ele>-11.4</ele><time>2011-04-30T02:39:20.0000000+00:00</time></trkpt><trkpt lat="20.956991" lon="106.955841"><ele>-11.7</ele><time>2011-04-30T02:39:25.0000000+00:00</time></trkpt><trkpt lat="20.95685" lon="106.956505"><ele>-12.1</ele><time>2011-04-30T02:39:30.0000000+00:00</time></trkpt><trkpt lat="20.956724" lon="106.957115"><ele>-13.0</ele><time>2011-04-30T02:39:35.0000000+00:00</time></trkpt><trkpt lat="20.956606" lon="106.957733"><ele>-14.4</ele><time>2011-04-30T02:39:40.0000000+00:00</time></trkpt><trkpt lat="20.956467" lon="106.958397"><ele>-14.5</ele><time>2011-04-30T02:39:45.0000000+00:00</time></trkpt><trkpt lat="20.956343" lon="106.959076"><ele>-15.5</ele><time>2011-04-30T02:39:50.0000000+00:00</time></trkpt><trkpt lat="20.956324" lon="106.959763"><ele>-17.3</ele><time>2011-04-30T02:39:55.0000000+00:00</time></trkpt><trkpt lat="20.956438" lon="106.960411"><ele>-19.0</ele><time>2011-04-30T02:40:00.0000000+00:00</time></trkpt><trkpt lat="20.956621" lon="106.96106"><ele>-20.5</ele><time>2011-04-30T02:40:05.0000000+00:00</time></trkpt><trkpt lat="20.956736" lon="106.961617"><ele>-21.8</ele><time>2011-04-30T02:40:10.0000000+00:00</time></trkpt><trkpt lat="20.956831" lon="106.962074"><ele>-23.0</ele><time>2011-04-30T02:40:15.0000000+00:00</time></trkpt><trkpt lat="20.956892" lon="106.96257"><ele>-24.6</ele><time>2011-04-30T02:40:20.0000000+00:00</time></trkpt><trkpt lat="20.956903" lon="106.963181"><ele>-22.9</ele><time>2011-04-30T02:40:25.0000000+00:00</time></trkpt><trkpt lat="20.95685" lon="106.963753"><ele>-21.0</ele><time>2011-04-30T02:40:30.0000000+00:00</time></trkpt><trkpt lat="20.956766" lon="106.964302"><ele>-19.4</ele><time>2011-04-30T02:40:35.0000000+00:00</time></trkpt><trkpt lat="20.956654" lon="106.964851"><ele>-19.7</ele><time>2011-04-30T02:40:40.0000000+00:00</time></trkpt><trkpt lat="20.956476" lon="106.9655"><ele>-19.1</ele><time>2011-04-30T02:40:45.0000000+00:00</time></trkpt><trkpt lat="20.956287" lon="106.966133"><ele>-17.4</ele><time>2011-04-30T02:40:50.0000000+00:00</time></trkpt><trkpt lat="20.956078" lon="106.966866"><ele>-14.5</ele><time>2011-04-30T02:40:55.0000000+00:00</time></trkpt><trkpt lat="20.955864" lon="106.967606"><ele>-11.8</ele><time>2011-04-30T02:41:00.0000000+00:00</time></trkpt><trkpt lat="20.955664" lon="106.968346"><ele>-11.4</ele><time>2011-04-30T02:41:05.0000000+00:00</time></trkpt><trkpt lat="20.955465" lon="106.969131"><ele>-9.7</ele><time>2011-04-30T02:41:10.0000000+00:00</time></trkpt><trkpt lat="20.955252" lon="106.969757"><ele>-6.7</ele><time>2011-04-30T02:41:15.0000000+00:00</time></trkpt><trkpt lat="20.955088" lon="106.970268"><ele>-6.1</ele><time>2011-04-30T02:41:20.0000000+00:00</time></trkpt><trkpt lat="20.954956" lon="106.970871"><ele>-6.8</ele><time>2011-04-30T02:41:25.0000000+00:00</time></trkpt><trkpt lat="20.954844" lon="106.971481"><ele>-6.5</ele><time>2011-04-30T02:41:30.0000000+00:00</time></trkpt><trkpt lat="20.954845" lon="106.97213"><ele>-5.8</ele><time>2011-04-30T02:41:35.0000000+00:00</time></trkpt><trkpt lat="20.954918" lon="106.972763"><ele>-6.5</ele><time>2011-04-30T02:41:40.0000000+00:00</time></trkpt><trkpt lat="20.954985" lon="106.973396"><ele>-7.5</ele><time>2011-04-30T02:41:45.0000000+00:00</time></trkpt><trkpt lat="20.955067" lon="106.973976"><ele>-6.2</ele><time>2011-04-30T02:41:50.0000000+00:00</time></trkpt><trkpt lat="20.955185" lon="106.974663"><ele>-6.8</ele><time>2011-04-30T02:41:55.0000000+00:00</time></trkpt><trkpt lat="20.955269" lon="106.975365"><ele>-7.5</ele><time>2011-04-30T02:42:00.0000000+00:00</time></trkpt><trkpt lat="20.955309" lon="106.976021"><ele>-9.5</ele><time>2011-04-30T02:42:05.0000000+00:00</time></trkpt><trkpt lat="20.955343" lon="106.976669"><ele>-10.7</ele><time>2011-04-30T02:42:10.0000000+00:00</time></trkpt><trkpt lat="20.955366" lon="106.977264"><ele>-12.0</ele><time>2011-04-30T02:42:15.0000000+00:00</time></trkpt><trkpt lat="20.955397" lon="106.977844"><ele>-13.4</ele><time>2011-04-30T02:42:20.0000000+00:00</time></trkpt><trkpt lat="20.955399" lon="106.978325"><ele>-15.7</ele><time>2011-04-30T02:42:25.0000000+00:00</time></trkpt><trkpt lat="20.955339" lon="106.978783"><ele>-15.1</ele><time>2011-04-30T02:42:30.0000000+00:00</time></trkpt><trkpt lat="20.95528" lon="106.979164"><ele>-16.4</ele><time>2011-04-30T02:42:35.0000000+00:00</time></trkpt><trkpt lat="20.955223" lon="106.979576"><ele>-15.4</ele><time>2011-04-30T02:42:40.0000000+00:00</time></trkpt><trkpt lat="20.955162" lon="106.979958"><ele>-14.1</ele><time>2011-04-30T02:42:45.0000000+00:00</time></trkpt><trkpt lat="20.955114" lon="106.980392"><ele>-17.1</ele><time>2011-04-30T02:42:50.0000000+00:00</time></trkpt><trkpt lat="20.955025" lon="106.980797"><ele>-18.2</ele><time>2011-04-30T02:42:55.0000000+00:00</time></trkpt><trkpt lat="20.954935" lon="106.981209"><ele>-18.4</ele><time>2011-04-30T02:43:00.0000000+00:00</time></trkpt><trkpt lat="20.954908" lon="106.981613"><ele>-17.5</ele><time>2011-04-30T02:43:05.0000000+00:00</time></trkpt><trkpt lat="20.955078" lon="106.981987"><ele>-17.1</ele><time>2011-04-30T02:43:10.0000000+00:00</time></trkpt><trkpt lat="20.955345" lon="106.982323"><ele>-14.3</ele><time>2011-04-30T02:43:15.0000000+00:00</time></trkpt><trkpt lat="20.955601" lon="106.982719"><ele>-12.5</ele><time>2011-04-30T02:43:20.0000000+00:00</time></trkpt><trkpt lat="20.955841" lon="106.98317"><ele>-11.8</ele><time>2011-04-30T02:43:25.0000000+00:00</time></trkpt><trkpt lat="20.956097" lon="106.983604"><ele>-10.6</ele><time>2011-04-30T02:43:30.0000000+00:00</time></trkpt><trkpt lat="20.956385" lon="106.983986"><ele>-5.2</ele><time>2011-04-30T02:43:35.0000000+00:00</time></trkpt><trkpt lat="20.956713" lon="106.984344"><ele>-1.8</ele><time>2011-04-30T02:43:40.0000000+00:00</time></trkpt><trkpt lat="20.957104" lon="106.984741"><ele>2.1</ele><time>2011-04-30T02:43:45.0000000+00:00</time></trkpt><trkpt lat="20.957476" lon="106.98513"><ele>4.2</ele><time>2011-04-30T02:43:50.0000000+00:00</time></trkpt><trkpt lat="20.957808" lon="106.985527"><ele>3.1</ele><time>2011-04-30T02:43:55.0000000+00:00</time></trkpt><trkpt lat="20.9582" lon="106.985992"><ele>1.9</ele><time>2011-04-30T02:44:00.0000000+00:00</time></trkpt><trkpt lat="20.958555" lon="106.98642"><ele>-0.4</ele><time>2011-04-30T02:44:05.0000000+00:00</time></trkpt><trkpt lat="20.958864" lon="106.986855"><ele>-1.5</ele><time>2011-04-30T02:44:10.0000000+00:00</time></trkpt><trkpt lat="20.959141" lon="106.987267"><ele>-1.3</ele><time>2011-04-30T02:44:15.0000000+00:00</time></trkpt><trkpt lat="20.959398" lon="106.98764"><ele>-3.0</ele><time>2011-04-30T02:44:20.0000000+00:00</time></trkpt><trkpt lat="20.959608" lon="106.987968"><ele>-5.0</ele><time>2011-04-30T02:44:25.0000000+00:00</time></trkpt><trkpt lat="20.959785" lon="106.988205"><ele>-5.3</ele><time>2011-04-30T02:44:30.0000000+00:00</time></trkpt><trkpt lat="20.960022" lon="106.988564"><ele>-7.1</ele><time>2011-04-30T02:44:35.0000000+00:00</time></trkpt><trkpt lat="20.960337" lon="106.989059"><ele>-7.9</ele><time>2011-04-30T02:44:40.0000000+00:00</time></trkpt><trkpt lat="20.960705" lon="106.989502"><ele>-8.5</ele><time>2011-04-30T02:44:45.0000000+00:00</time></trkpt><trkpt lat="20.961149" lon="106.989975"><ele>-9.1</ele><time>2011-04-30T02:44:50.0000000+00:00</time></trkpt><trkpt lat="20.961723" lon="106.990486"><ele>-7.3</ele><time>2011-04-30T02:44:55.0000000+00:00</time></trkpt><trkpt lat="20.962368" lon="106.990936"><ele>-8.5</ele><time>2011-04-30T02:45:00.0000000+00:00</time></trkpt><trkpt lat="20.963087" lon="106.99131"><ele>-13.3</ele><time>2011-04-30T02:45:05.0000000+00:00</time></trkpt><trkpt lat="20.963844" lon="106.991623"><ele>-15.6</ele><time>2011-04-30T02:45:10.0000000+00:00</time></trkpt><trkpt lat="20.964607" lon="106.991867"><ele>-15.6</ele><time>2011-04-30T02:45:15.0000000+00:00</time></trkpt><trkpt lat="20.965372" lon="106.992126"><ele>-15.3</ele><time>2011-04-30T02:45:20.0000000+00:00</time></trkpt><trkpt lat="20.966055" lon="106.992409"><ele>-15.2</ele><time>2011-04-30T02:45:25.0000000+00:00</time></trkpt><trkpt lat="20.966677" lon="106.992851"><ele>-15.0</ele><time>2011-04-30T02:45:30.0000000+00:00</time></trkpt><trkpt lat="20.967173" lon="106.993477"><ele>-14.8</ele><time>2011-04-30T02:45:35.0000000+00:00</time></trkpt><trkpt lat="20.967535" lon="106.994232"><ele>-14.9</ele><time>2011-04-30T02:45:40.0000000+00:00</time></trkpt><trkpt lat="20.967905" lon="106.994919"><ele>-15.1</ele><time>2011-04-30T02:45:45.0000000+00:00</time></trkpt><trkpt lat="20.968449" lon="106.995468"><ele>-14.7</ele><time>2011-04-30T02:45:50.0000000+00:00</time></trkpt><trkpt lat="20.969097" lon="106.995667"><ele>-14.4</ele><time>2011-04-30T02:45:55.0000000+00:00</time></trkpt><trkpt lat="20.969818" lon="106.995697"><ele>-14.7</ele><time>2011-04-30T02:46:00.0000000+00:00</time></trkpt><trkpt lat="20.970535" lon="106.995865"><ele>-15.4</ele><time>2011-04-30T02:46:05.0000000+00:00</time></trkpt><trkpt lat="20.971033" lon="106.99633"><ele>-16.0</ele><time>2011-04-30T02:46:10.0000000+00:00</time></trkpt><trkpt lat="20.97127" lon="106.996994"><ele>-17.2</ele><time>2011-04-30T02:46:15.0000000+00:00</time></trkpt><trkpt lat="20.971369" lon="106.997658"><ele>-16.4</ele><time>2011-04-30T02:46:20.0000000+00:00</time></trkpt><trkpt lat="20.971436" lon="106.998489"><ele>-16.7</ele><time>2011-04-30T02:46:25.0000000+00:00</time></trkpt><trkpt lat="20.971529" lon="106.999405"><ele>-17.0</ele><time>2011-04-30T02:46:30.0000000+00:00</time></trkpt><trkpt lat="20.97159" lon="107.000282"><ele>-14.9</ele><time>2011-04-30T02:46:35.0000000+00:00</time></trkpt><trkpt lat="20.971661" lon="107.001068"><ele>-14.2</ele><time>2011-04-30T02:46:40.0000000+00:00</time></trkpt><trkpt lat="20.971754" lon="107.001839"><ele>-13.4</ele><time>2011-04-30T02:46:45.0000000+00:00</time></trkpt><trkpt lat="20.97183" lon="107.002625"><ele>-13.6</ele><time>2011-04-30T02:46:50.0000000+00:00</time></trkpt><trkpt lat="20.971918" lon="107.003464"><ele>-15.0</ele><time>2011-04-30T02:46:55.0000000+00:00</time></trkpt><trkpt lat="20.972017" lon="107.004341"><ele>-15.3</ele><time>2011-04-30T02:47:00.0000000+00:00</time></trkpt><trkpt lat="20.97212" lon="107.005219"><ele>-16.1</ele><time>2011-04-30T02:47:05.0000000+00:00</time></trkpt><trkpt lat="20.972208" lon="107.006126"><ele>-12.9</ele><time>2011-04-30T02:47:10.0000000+00:00</time></trkpt><trkpt lat="20.97226" lon="107.007027"><ele>-14.2</ele><time>2011-04-30T02:47:15.0000000+00:00</time></trkpt><trkpt lat="20.97216" lon="107.007896"><ele>-15.2</ele><time>2011-04-30T02:47:20.0000000+00:00</time></trkpt><trkpt lat="20.972044" lon="107.008797"><ele>-16.4</ele><time>2011-04-30T02:47:25.0000000+00:00</time></trkpt><trkpt lat="20.971863" lon="107.009682"><ele>-17.0</ele><time>2011-04-30T02:47:30.0000000+00:00</time></trkpt><trkpt lat="20.971704" lon="107.01046"><ele>-17.5</ele><time>2011-04-30T02:47:35.0000000+00:00</time></trkpt><trkpt lat="20.971556" lon="107.01107"><ele>-16.8</ele><time>2011-04-30T02:47:40.0000000+00:00</time></trkpt><trkpt lat="20.971476" lon="107.011719"><ele>-17.3</ele><time>2011-04-30T02:47:45.0000000+00:00</time></trkpt><trkpt lat="20.971523" lon="107.012375"><ele>-20.4</ele><time>2011-04-30T02:47:50.0000000+00:00</time></trkpt><trkpt lat="20.971666" lon="107.012978"><ele>-21.4</ele><time>2011-04-30T02:47:55.0000000+00:00</time></trkpt><trkpt lat="20.971869" lon="107.013496"><ele>-19.4</ele><time>2011-04-30T02:48:00.0000000+00:00</time></trkpt><trkpt lat="20.972065" lon="107.013885"><ele>-18.3</ele><time>2011-04-30T02:48:05.0000000+00:00</time></trkpt><trkpt lat="20.972181" lon="107.014145"><ele>-18.2</ele><time>2011-04-30T02:48:10.0000000+00:00</time></trkpt><trkpt lat="20.972229" lon="107.014336"><ele>-16.0</ele><time>2011-04-30T02:48:15.0000000+00:00</time></trkpt><trkpt lat="20.972267" lon="107.014442"><ele>-13.5</ele><time>2011-04-30T02:48:20.0000000+00:00</time></trkpt><trkpt lat="20.972305" lon="107.014519"><ele>-13.0</ele><time>2011-04-30T02:48:25.0000000+00:00</time></trkpt><trkpt lat="20.972315" lon="107.014534"><ele>-13.8</ele><time>2011-04-30T02:48:30.0000000+00:00</time></trkpt><trkpt lat="20.972319" lon="107.014534"><ele>-13.8</ele><time>2011-04-30T02:48:35.0000000+00:00</time></trkpt><trkpt lat="20.972324" lon="107.014542"><ele>-13.8</ele><time>2011-04-30T02:48:40.0000000+00:00</time></trkpt><trkpt lat="20.972324" lon="107.014542"><ele>-13.8</ele><time>2011-04-30T02:48:45.0000000+00:00</time></trkpt><trkpt lat="20.97233" lon="107.014557"><ele>-13.7</ele><time>2011-04-30T02:48:50.0000000+00:00</time></trkpt><trkpt lat="20.972334" lon="107.014557"><ele>-13.7</ele><time>2011-04-30T02:48:55.0000000+00:00</time></trkpt><trkpt lat="20.972332" lon="107.014557"><ele>-13.6</ele><time>2011-04-30T02:49:00.0000000+00:00</time></trkpt><trkpt lat="20.972332" lon="107.014557"><ele>-13.6</ele><time>2011-04-30T02:49:05.0000000+00:00</time></trkpt><trkpt lat="20.972336" lon="107.014557"><ele>-13.5</ele><time>2011-04-30T02:49:10.0000000+00:00</time></trkpt><trkpt lat="20.97234" lon="107.014557"><ele>-13.4</ele><time>2011-04-30T02:49:15.0000000+00:00</time></trkpt><trkpt lat="20.972345" lon="107.014565"><ele>-13.4</ele><time>2011-04-30T02:49:20.0000000+00:00</time></trkpt><trkpt lat="20.972345" lon="107.014565"><ele>-13.4</ele><time>2011-04-30T02:49:25.0000000+00:00</time></trkpt><trkpt lat="20.972374" lon="107.014641"><ele>-13.0</ele><time>2011-04-30T02:49:30.0000000+00:00</time></trkpt><trkpt lat="20.972466" lon="107.014832"><ele>-13.5</ele><time>2011-04-30T02:49:35.0000000+00:00</time></trkpt><trkpt lat="20.972559" lon="107.015022"><ele>-13.9</ele><time>2011-04-30T02:49:40.0000000+00:00</time></trkpt><trkpt lat="20.972637" lon="107.015152"><ele>-10.8</ele><time>2011-04-30T02:49:45.0000000+00:00</time></trkpt><trkpt lat="20.972662" lon="107.015198"><ele>-7.6</ele><time>2011-04-30T02:49:50.0000000+00:00</time></trkpt><trkpt lat="20.972715" lon="107.015305"><ele>-6.4</ele><time>2011-04-30T02:49:55.0000000+00:00</time></trkpt><trkpt lat="20.972809" lon="107.015511"><ele>-6.2</ele><time>2011-04-30T02:50:00.0000000+00:00</time></trkpt><trkpt lat="20.972898" lon="107.015785"><ele>-5.3</ele><time>2011-04-30T02:50:05.0000000+00:00</time></trkpt><trkpt lat="20.973051" lon="107.016129"><ele>-6.7</ele><time>2011-04-30T02:50:10.0000000+00:00</time></trkpt><trkpt lat="20.973257" lon="107.016518"><ele>-5.1</ele><time>2011-04-30T02:50:15.0000000+00:00</time></trkpt><trkpt lat="20.973499" lon="107.017052"><ele>-7.7</ele><time>2011-04-30T02:50:20.0000000+00:00</time></trkpt><trkpt lat="20.973772" lon="107.017639"><ele>-7.8</ele><time>2011-04-30T02:50:25.0000000+00:00</time></trkpt><trkpt lat="20.974064" lon="107.018318"><ele>-6.1</ele><time>2011-04-30T02:50:30.0000000+00:00</time></trkpt><trkpt lat="20.974367" lon="107.018974"><ele>-6.2</ele><time>2011-04-30T02:50:35.0000000+00:00</time></trkpt><trkpt lat="20.974648" lon="107.019615"><ele>-4.5</ele><time>2011-04-30T02:50:40.0000000+00:00</time></trkpt><trkpt lat="20.974913" lon="107.020241"><ele>-3.7</ele><time>2011-04-30T02:50:45.0000000+00:00</time></trkpt><trkpt lat="20.975204" lon="107.020859"><ele>-3.3</ele><time>2011-04-30T02:50:50.0000000+00:00</time></trkpt><trkpt lat="20.975479" lon="107.021469"><ele>-3.7</ele><time>2011-04-30T02:50:55.0000000+00:00</time></trkpt><trkpt lat="20.975739" lon="107.022057"><ele>-1.9</ele><time>2011-04-30T02:51:00.0000000+00:00</time></trkpt><trkpt lat="20.975935" lon="107.022552"><ele>1.7</ele><time>2011-04-30T02:51:05.0000000+00:00</time></trkpt><trkpt lat="20.976019" lon="107.022797"><ele>1.4</ele><time>2011-04-30T02:51:10.0000000+00:00</time></trkpt><trkpt lat="20.976028" lon="107.022827"><ele>3.0</ele><time>2011-04-30T02:51:15.0000000+00:00</time></trkpt><trkpt lat="20.976097" lon="107.023041"><ele>4.2</ele><time>2011-04-30T02:51:20.0000000+00:00</time></trkpt><trkpt lat="20.976206" lon="107.023453"><ele>2.2</ele><time>2011-04-30T02:51:25.0000000+00:00</time></trkpt><trkpt lat="20.976183" lon="107.024002"><ele>-0.1</ele><time>2011-04-30T02:51:30.0000000+00:00</time></trkpt><trkpt lat="20.976044" lon="107.024612"><ele>-0.3</ele><time>2011-04-30T02:51:35.0000000+00:00</time></trkpt><trkpt lat="20.97584" lon="107.025215"><ele>-0.0</ele><time>2011-04-30T02:51:40.0000000+00:00</time></trkpt><trkpt lat="20.975657" lon="107.025864"><ele>-0.2</ele><time>2011-04-30T02:51:45.0000000+00:00</time></trkpt><trkpt lat="20.975428" lon="107.026443"><ele>0.7</ele><time>2011-04-30T02:51:50.0000000+00:00</time></trkpt><trkpt lat="20.97514" lon="107.026947"><ele>0.5</ele><time>2011-04-30T02:51:55.0000000+00:00</time></trkpt><trkpt lat="20.974693" lon="107.027412"><ele>-0.3</ele><time>2011-04-30T02:52:00.0000000+00:00</time></trkpt><trkpt lat="20.97415" lon="107.027824"><ele>0.7</ele><time>2011-04-30T02:52:05.0000000+00:00</time></trkpt><trkpt lat="20.973629" lon="107.028252"><ele>0.2</ele><time>2011-04-30T02:52:10.0000000+00:00</time></trkpt><trkpt lat="20.97312" lon="107.02874"><ele>0.8</ele><time>2011-04-30T02:52:15.0000000+00:00</time></trkpt><trkpt lat="20.972666" lon="107.029312"><ele>1.6</ele><time>2011-04-30T02:52:20.0000000+00:00</time></trkpt><trkpt lat="20.972223" lon="107.029915"><ele>1.9</ele><time>2011-04-30T02:52:25.0000000+00:00</time></trkpt><trkpt lat="20.971756" lon="107.030533"><ele>1.2</ele><time>2011-04-30T02:52:30.0000000+00:00</time></trkpt><trkpt lat="20.971302" lon="107.031151"><ele>-2.1</ele><time>2011-04-30T02:52:35.0000000+00:00</time></trkpt><trkpt lat="20.970877" lon="107.031807"><ele>-4.8</ele><time>2011-04-30T02:52:40.0000000+00:00</time></trkpt><trkpt lat="20.970556" lon="107.032555"><ele>-5.5</ele><time>2011-04-30T02:52:45.0000000+00:00</time></trkpt><trkpt lat="20.970453" lon="107.03331"><ele>-3.3</ele><time>2011-04-30T02:52:50.0000000+00:00</time></trkpt><trkpt lat="20.970541" lon="107.033974"><ele>-3.2</ele><time>2011-04-30T02:52:55.0000000+00:00</time></trkpt><trkpt lat="20.970623" lon="107.034622"><ele>-2.3</ele><time>2011-04-30T02:53:00.0000000+00:00</time></trkpt><trkpt lat="20.97061" lon="107.035294"><ele>-1.7</ele><time>2011-04-30T02:53:05.0000000+00:00</time></trkpt><trkpt lat="20.97056" lon="107.036018"><ele>-2.7</ele><time>2011-04-30T02:53:10.0000000+00:00</time></trkpt><trkpt lat="20.970507" lon="107.036804"><ele>-3.9</ele><time>2011-04-30T02:53:15.0000000+00:00</time></trkpt><trkpt lat="20.97048" lon="107.037521"><ele>-7.1</ele><time>2011-04-30T02:53:20.0000000+00:00</time></trkpt><trkpt lat="20.970549" lon="107.038261"><ele>-9.5</ele><time>2011-04-30T02:53:25.0000000+00:00</time></trkpt><trkpt lat="20.970629" lon="107.039032"><ele>-10.9</ele><time>2011-04-30T02:53:30.0000000+00:00</time></trkpt><trkpt lat="20.970688" lon="107.03981"><ele>-12.6</ele><time>2011-04-30T02:53:35.0000000+00:00</time></trkpt><trkpt lat="20.97077" lon="107.040634"><ele>-12.6</ele><time>2011-04-30T02:53:40.0000000+00:00</time></trkpt><trkpt lat="20.970858" lon="107.041458"><ele>-13.9</ele><time>2011-04-30T02:53:45.0000000+00:00</time></trkpt><trkpt lat="20.970943" lon="107.042274"><ele>-15.0</ele><time>2011-04-30T02:53:50.0000000+00:00</time></trkpt><trkpt lat="20.971018" lon="107.043053"><ele>-15.4</ele><time>2011-04-30T02:53:55.0000000+00:00</time></trkpt><trkpt lat="20.9711" lon="107.043808"><ele>-16.8</ele><time>2011-04-30T02:54:00.0000000+00:00</time></trkpt><trkpt lat="20.971167" lon="107.044411"><ele>-18.3</ele><time>2011-04-30T02:54:05.0000000+00:00</time></trkpt><trkpt lat="20.971201" lon="107.04496"><ele>-18.0</ele><time>2011-04-30T02:54:10.0000000+00:00</time></trkpt><trkpt lat="20.971216" lon="107.045525"><ele>-15.2</ele><time>2011-04-30T02:54:15.0000000+00:00</time></trkpt><trkpt lat="20.971245" lon="107.046059"><ele>-14.7</ele><time>2011-04-30T02:54:20.0000000+00:00</time></trkpt><trkpt lat="20.971197" lon="107.046638"><ele>-11.0</ele><time>2011-04-30T02:54:25.0000000+00:00</time></trkpt><trkpt lat="20.971104" lon="107.04702"><ele>-12.1</ele><time>2011-04-30T02:54:30.0000000+00:00</time></trkpt><trkpt lat="20.971054" lon="107.047134"><ele>-8.7</ele><time>2011-04-30T02:54:35.0000000+00:00</time></trkpt><trkpt lat="20.970949" lon="107.047363"><ele>-9.4</ele><time>2011-04-30T02:54:40.0000000+00:00</time></trkpt><trkpt lat="20.970871" lon="107.047546"><ele>-8.9</ele><time>2011-04-30T02:54:45.0000000+00:00</time></trkpt><trkpt lat="20.970844" lon="107.047646"><ele>-9.0</ele><time>2011-04-30T02:54:50.0000000+00:00</time></trkpt><trkpt lat="20.970861" lon="107.047661"><ele>-8.3</ele><time>2011-04-30T02:54:55.0000000+00:00</time></trkpt><trkpt lat="20.970856" lon="107.047676"><ele>-7.5</ele><time>2011-04-30T02:55:00.0000000+00:00</time></trkpt><trkpt lat="20.970848" lon="107.047844"><ele>-7.7</ele><time>2011-04-30T02:55:05.0000000+00:00</time></trkpt><trkpt lat="20.970774" lon="107.048187"><ele>-8.7</ele><time>2011-04-30T02:55:10.0000000+00:00</time></trkpt><trkpt lat="20.970636" lon="107.048615"><ele>-4.9</ele><time>2011-04-30T02:55:15.0000000+00:00</time></trkpt><trkpt lat="20.970398" lon="107.049164"><ele>-3.3</ele><time>2011-04-30T02:55:20.0000000+00:00</time></trkpt><trkpt lat="20.970032" lon="107.049728"><ele>-6.7</ele><time>2011-04-30T02:55:25.0000000+00:00</time></trkpt><trkpt lat="20.969601" lon="107.050323"><ele>-4.9</ele><time>2011-04-30T02:55:30.0000000+00:00</time></trkpt><trkpt lat="20.969025" lon="107.050926"><ele>-3.9</ele><time>2011-04-30T02:55:35.0000000+00:00</time></trkpt><trkpt lat="20.968376" lon="107.051521"><ele>-3.0</ele><time>2011-04-30T02:55:40.0000000+00:00</time></trkpt><trkpt lat="20.96771" lon="107.052124"><ele>0.9</ele><time>2011-04-30T02:55:45.0000000+00:00</time></trkpt><trkpt lat="20.967165" lon="107.052818"><ele>0.7</ele><time>2011-04-30T02:55:50.0000000+00:00</time></trkpt><trkpt lat="20.966627" lon="107.05352"><ele>-0.5</ele><time>2011-04-30T02:55:55.0000000+00:00</time></trkpt><trkpt lat="20.96611" lon="107.054214"><ele>1.7</ele><time>2011-04-30T02:56:00.0000000+00:00</time></trkpt><trkpt lat="20.965635" lon="107.054924"><ele>1.6</ele><time>2011-04-30T02:56:05.0000000+00:00</time></trkpt><trkpt lat="20.965139" lon="107.055603"><ele>3.9</ele><time>2011-04-30T02:56:10.0000000+00:00</time></trkpt><trkpt lat="20.964649" lon="107.056244"><ele>5.9</ele><time>2011-04-30T02:56:15.0000000+00:00</time></trkpt><trkpt lat="20.964197" lon="107.05687"><ele>8.4</ele><time>2011-04-30T02:56:20.0000000+00:00</time></trkpt><trkpt lat="20.963816" lon="107.057465"><ele>10.2</ele><time>2011-04-30T02:56:25.0000000+00:00</time></trkpt><trkpt lat="20.963541" lon="107.057869"><ele>13.8</ele><time>2011-04-30T02:56:30.0000000+00:00</time></trkpt><trkpt lat="20.963432" lon="107.058044"><ele>16.9</ele><time>2011-04-30T02:56:35.0000000+00:00</time></trkpt><trkpt lat="20.963411" lon="107.05806"><ele>18.2</ele><time>2011-04-30T02:56:40.0000000+00:00</time></trkpt><trkpt lat="20.963408" lon="107.058052"><ele>19.2</ele><time>2011-04-30T02:56:45.0000000+00:00</time></trkpt><trkpt lat="20.9634" lon="107.058044"><ele>19.9</ele><time>2011-04-30T02:56:50.0000000+00:00</time></trkpt><trkpt lat="20.963394" lon="107.058037"><ele>20.3</ele><time>2011-04-30T02:56:55.0000000+00:00</time></trkpt><trkpt lat="20.963392" lon="107.058029"><ele>20.4</ele><time>2011-04-30T02:57:00.0000000+00:00</time></trkpt><trkpt lat="20.963392" lon="107.058029"><ele>20.4</ele><time>2011-04-30T02:57:05.0000000+00:00</time></trkpt><trkpt lat="20.96339" lon="107.058029"><ele>20.6</ele><time>2011-04-30T02:57:10.0000000+00:00</time></trkpt><trkpt lat="20.963364" lon="107.058029"><ele>20.9</ele><time>2011-04-30T02:57:15.0000000+00:00</time></trkpt><trkpt lat="20.963308" lon="107.058052"><ele>22.1</ele><time>2011-04-30T02:57:20.0000000+00:00</time></trkpt><trkpt lat="20.963295" lon="107.05806"><ele>22.0</ele><time>2011-04-30T02:57:25.0000000+00:00</time></trkpt><trkpt lat="20.963299" lon="107.05806"><ele>21.6</ele><time>2011-04-30T02:57:30.0000000+00:00</time></trkpt><trkpt lat="20.963297" lon="107.05806"><ele>21.5</ele><time>2011-04-30T02:57:35.0000000+00:00</time></trkpt><trkpt lat="20.963301" lon="107.05809"><ele>20.9</ele><time>2011-04-30T02:57:40.0000000+00:00</time></trkpt><trkpt lat="20.963299" lon="107.058105"><ele>21.4</ele><time>2011-04-30T02:57:45.0000000+00:00</time></trkpt><trkpt lat="20.963295" lon="107.058105"><ele>21.3</ele><time>2011-04-30T02:57:50.0000000+00:00</time></trkpt><trkpt lat="20.963295" lon="107.058113"><ele>21.0</ele><time>2011-04-30T02:57:55.0000000+00:00</time></trkpt><trkpt lat="20.963295" lon="107.058113"><ele>20.9</ele><time>2011-04-30T02:58:00.0000000+00:00</time></trkpt><trkpt lat="20.963295" lon="107.058105"><ele>20.9</ele><time>2011-04-30T02:58:05.0000000+00:00</time></trkpt><trkpt lat="20.963293" lon="107.058105"><ele>20.9</ele><time>2011-04-30T02:58:10.0000000+00:00</time></trkpt><trkpt lat="20.963293" lon="107.058105"><ele>20.9</ele><time>2011-04-30T02:58:15.0000000+00:00</time></trkpt><trkpt lat="20.963289" lon="107.058113"><ele>20.6</ele><time>2011-04-30T02:58:20.0000000+00:00</time></trkpt><trkpt lat="20.963289" lon="107.058113"><ele>20.4</ele><time>2011-04-30T02:58:25.0000000+00:00</time></trkpt><trkpt lat="20.963289" lon="107.058113"><ele>20.4</ele><time>2011-04-30T02:58:30.0000000+00:00</time></trkpt><trkpt lat="20.963284" lon="107.058098"><ele>20.6</ele><time>2011-04-30T02:58:35.0000000+00:00</time></trkpt><trkpt lat="20.96328" lon="107.058098"><ele>20.6</ele><time>2011-04-30T02:58:40.0000000+00:00</time></trkpt><trkpt lat="20.96328" lon="107.05809"><ele>20.6</ele><time>2011-04-30T02:58:45.0000000+00:00</time></trkpt><trkpt lat="20.963278" lon="107.05809"><ele>20.5</ele><time>2011-04-30T02:58:50.0000000+00:00</time></trkpt><trkpt lat="20.963278" lon="107.058098"><ele>20.5</ele><time>2011-04-30T02:58:55.0000000+00:00</time></trkpt><trkpt lat="20.96327" lon="107.058121"><ele>20.8</ele><time>2011-04-30T02:59:00.0000000+00:00</time></trkpt><trkpt lat="20.963274" lon="107.058128"><ele>21.0</ele><time>2011-04-30T02:59:05.0000000+00:00</time></trkpt><trkpt lat="20.963274" lon="107.058128"><ele>20.9</ele><time>2011-04-30T02:59:10.0000000+00:00</time></trkpt><trkpt lat="20.963276" lon="107.058128"><ele>20.5</ele><time>2011-04-30T02:59:15.0000000+00:00</time></trkpt><trkpt lat="20.963266" lon="107.058136"><ele>19.1</ele><time>2011-04-30T02:59:20.0000000+00:00</time></trkpt><trkpt lat="20.963268" lon="107.058136"><ele>18.6</ele><time>2011-04-30T02:59:25.0000000+00:00</time></trkpt><trkpt lat="20.963268" lon="107.058136"><ele>18.5</ele><time>2011-04-30T02:59:30.0000000+00:00</time></trkpt><trkpt lat="20.963268" lon="107.058136"><ele>18.5</ele><time>2011-04-30T02:59:35.0000000+00:00</time></trkpt><trkpt lat="20.963268" lon="107.058144"><ele>18.5</ele><time>2011-04-30T02:59:40.0000000+00:00</time></trkpt><trkpt lat="20.963268" lon="107.058136"><ele>18.5</ele><time>2011-04-30T02:59:45.0000000+00:00</time></trkpt><trkpt lat="20.963268" lon="107.058136"><ele>18.5</ele><time>2011-04-30T02:59:50.0000000+00:00</time></trkpt><trkpt lat="20.963268" lon="107.058136"><ele>18.5</ele><time>2011-04-30T02:59:55.0000000+00:00</time></trkpt><trkpt lat="20.963268" lon="107.058144"><ele>18.5</ele><time>2011-04-30T03:00:00.0000000+00:00</time></trkpt><trkpt lat="20.963268" lon="107.058144"><ele>18.5</ele><time>2011-04-30T03:00:05.0000000+00:00</time></trkpt><trkpt lat="20.963268" lon="107.058144"><ele>18.5</ele><time>2011-04-30T03:00:10.0000000+00:00</time></trkpt><trkpt lat="20.963268" lon="107.058144"><ele>18.5</ele><time>2011-04-30T03:00:15.0000000+00:00</time></trkpt><trkpt lat="20.963268" lon="107.058151"><ele>18.5</ele><time>2011-04-30T03:00:20.0000000+00:00</time></trkpt><trkpt lat="20.963268" lon="107.058151"><ele>18.5</ele><time>2011-04-30T03:00:25.0000000+00:00</time></trkpt><trkpt lat="20.963268" lon="107.058159"><ele>18.5</ele><time>2011-04-30T03:00:30.0000000+00:00</time></trkpt><trkpt lat="20.963268" lon="107.058159"><ele>18.5</ele><time>2011-04-30T03:00:35.0000000+00:00</time></trkpt><trkpt lat="20.96327" lon="107.058159"><ele>18.5</ele><time>2011-04-30T03:00:40.0000000+00:00</time></trkpt><trkpt lat="20.963272" lon="107.058151"><ele>18.5</ele><time>2011-04-30T03:00:45.0000000+00:00</time></trkpt><trkpt lat="20.963274" lon="107.058151"><ele>18.5</ele><time>2011-04-30T03:00:50.0000000+00:00</time></trkpt><trkpt lat="20.963276" lon="107.058151"><ele>18.5</ele><time>2011-04-30T03:00:55.0000000+00:00</time></trkpt><trkpt lat="20.963276" lon="107.058151"><ele>18.5</ele><time>2011-04-30T03:01:00.0000000+00:00</time></trkpt><trkpt lat="20.963274" lon="107.058151"><ele>18.5</ele><time>2011-04-30T03:01:05.0000000+00:00</time></trkpt><trkpt lat="20.963274" lon="107.058151"><ele>18.5</ele><time>2011-04-30T03:01:10.0000000+00:00</time></trkpt><trkpt lat="20.963272" lon="107.058151"><ele>18.5</ele><time>2011-04-30T03:01:15.0000000+00:00</time></trkpt><trkpt lat="20.963272" lon="107.058151"><ele>18.6</ele><time>2011-04-30T03:01:20.0000000+00:00</time></trkpt><trkpt lat="20.963274" lon="107.058151"><ele>18.6</ele><time>2011-04-30T03:01:25.0000000+00:00</time></trkpt><trkpt lat="20.963278" lon="107.058159"><ele>18.6</ele><time>2011-04-30T03:01:30.0000000+00:00</time></trkpt><trkpt lat="20.96328" lon="107.058159"><ele>18.7</ele><time>2011-04-30T03:01:35.0000000+00:00</time></trkpt><trkpt lat="20.963282" lon="107.058159"><ele>18.7</ele><time>2011-04-30T03:01:40.0000000+00:00</time></trkpt><trkpt lat="20.963282" lon="107.058167"><ele>18.7</ele><time>2011-04-30T03:01:45.0000000+00:00</time></trkpt><trkpt lat="20.96328" lon="107.058167"><ele>18.7</ele><time>2011-04-30T03:01:50.0000000+00:00</time></trkpt><trkpt lat="20.963276" lon="107.058159"><ele>18.6</ele><time>2011-04-30T03:01:55.0000000+00:00</time></trkpt><trkpt lat="20.963274" lon="107.058159"><ele>18.5</ele><time>2011-04-30T03:02:00.0000000+00:00</time></trkpt><trkpt lat="20.963274" lon="107.058159"><ele>18.4</ele><time>2011-04-30T03:02:05.0000000+00:00</time></trkpt><trkpt lat="20.963274" lon="107.058159"><ele>18.3</ele><time>2011-04-30T03:02:10.0000000+00:00</time></trkpt><trkpt lat="20.963274" lon="107.058159"><ele>18.3</ele><time>2011-04-30T03:02:15.0000000+00:00</time></trkpt><trkpt lat="20.963274" lon="107.058159"><ele>18.4</ele><time>2011-04-30T03:02:20.0000000+00:00</time></trkpt><trkpt lat="20.963274" lon="107.058159"><ele>18.3</ele><time>2011-04-30T03:02:25.0000000+00:00</time></trkpt><trkpt lat="20.963274" lon="107.058159"><ele>18.3</ele><time>2011-04-30T03:02:30.0000000+00:00</time></trkpt><trkpt lat="20.963274" lon="107.058159"><ele>18.3</ele><time>2011-04-30T03:02:35.0000000+00:00</time></trkpt><trkpt lat="20.963274" lon="107.058159"><ele>18.3</ele><time>2011-04-30T03:02:40.0000000+00:00</time></trkpt><trkpt lat="20.963274" lon="107.058159"><ele>18.4</ele><time>2011-04-30T03:02:45.0000000+00:00</time></trkpt><trkpt lat="20.963268" lon="107.058151"><ele>18.0</ele><time>2011-04-30T03:02:50.0000000+00:00</time></trkpt><trkpt lat="20.96327" lon="107.058151"><ele>18.2</ele><time>2011-04-30T03:02:55.0000000+00:00</time></trkpt><trkpt lat="20.963278" lon="107.058136"><ele>17.8</ele><time>2011-04-30T03:03:00.0000000+00:00</time></trkpt><trkpt lat="20.963282" lon="107.058136"><ele>17.8</ele><time>2011-04-30T03:03:05.0000000+00:00</time></trkpt><trkpt lat="20.96327" lon="107.058167"><ele>17.7</ele><time>2011-04-30T03:03:10.0000000+00:00</time></trkpt><trkpt lat="20.963243" lon="107.058205"><ele>17.8</ele><time>2011-04-30T03:03:15.0000000+00:00</time></trkpt><trkpt lat="20.963213" lon="107.058235"><ele>17.4</ele><time>2011-04-30T03:03:20.0000000+00:00</time></trkpt><trkpt lat="20.963209" lon="107.058243"><ele>17.2</ele><time>2011-04-30T03:03:25.0000000+00:00</time></trkpt><trkpt lat="20.963207" lon="107.058243"><ele>17.1</ele><time>2011-04-30T03:03:30.0000000+00:00</time></trkpt><trkpt lat="20.963203" lon="107.058243"><ele>17.1</ele><time>2011-04-30T03:03:35.0000000+00:00</time></trkpt><trkpt lat="20.9632" lon="107.058243"><ele>17.1</ele><time>2011-04-30T03:03:40.0000000+00:00</time></trkpt><trkpt lat="20.9632" lon="107.058235"><ele>17.1</ele><time>2011-04-30T03:03:45.0000000+00:00</time></trkpt><trkpt lat="20.9632" lon="107.058235"><ele>17.0</ele><time>2011-04-30T03:03:50.0000000+00:00</time></trkpt><trkpt lat="20.963198" lon="107.058235"><ele>17.0</ele><time>2011-04-30T03:03:55.0000000+00:00</time></trkpt><trkpt lat="20.963184" lon="107.05822"><ele>18.9</ele><time>2011-04-30T03:04:00.0000000+00:00</time></trkpt><trkpt lat="20.963184" lon="107.05822"><ele>18.9</ele><time>2011-04-30T03:04:05.0000000+00:00</time></trkpt><trkpt lat="20.963184" lon="107.05822"><ele>18.9</ele><time>2011-04-30T03:04:10.0000000+00:00</time></trkpt><trkpt lat="20.963184" lon="107.05822"><ele>19.0</ele><time>2011-04-30T03:04:15.0000000+00:00</time></trkpt><trkpt lat="20.963182" lon="107.05822"><ele>19.0</ele><time>2011-04-30T03:04:20.0000000+00:00</time></trkpt><trkpt lat="20.963186" lon="107.05822"><ele>19.1</ele><time>2011-04-30T03:04:25.0000000+00:00</time></trkpt><trkpt lat="20.963186" lon="107.05822"><ele>19.0</ele><time>2011-04-30T03:04:30.0000000+00:00</time></trkpt><trkpt lat="20.963184" lon="107.05822"><ele>19.0</ele><time>2011-04-30T03:04:35.0000000+00:00</time></trkpt><trkpt lat="20.963184" lon="107.05822"><ele>19.0</ele><time>2011-04-30T03:04:40.0000000+00:00</time></trkpt><trkpt lat="20.963186" lon="107.05822"><ele>19.0</ele><time>2011-04-30T03:04:45.0000000+00:00</time></trkpt><trkpt lat="20.963186" lon="107.05822"><ele>19.0</ele><time>2011-04-30T03:04:50.0000000+00:00</time></trkpt><trkpt lat="20.963188" lon="107.058228"><ele>19.0</ele><time>2011-04-30T03:04:55.0000000+00:00</time></trkpt><trkpt lat="20.963188" lon="107.05822"><ele>19.0</ele><time>2011-04-30T03:05:00.0000000+00:00</time></trkpt><trkpt lat="20.963188" lon="107.05822"><ele>19.0</ele><time>2011-04-30T03:05:05.0000000+00:00</time></trkpt><trkpt lat="20.963188" lon="107.05822"><ele>19.0</ele><time>2011-04-30T03:05:10.0000000+00:00</time></trkpt><trkpt lat="20.963188" lon="107.05822"><ele>19.0</ele><time>2011-04-30T03:05:15.0000000+00:00</time></trkpt><trkpt lat="20.963188" lon="107.05822"><ele>19.0</ele><time>2011-04-30T03:05:20.0000000+00:00</time></trkpt><trkpt lat="20.963188" lon="107.05822"><ele>19.0</ele><time>2011-04-30T03:05:25.0000000+00:00</time></trkpt><trkpt lat="20.963188" lon="107.05822"><ele>19.0</ele><time>2011-04-30T03:05:30.0000000+00:00</time></trkpt><trkpt lat="20.963188" lon="107.05822"><ele>19.0</ele><time>2011-04-30T03:05:35.0000000+00:00</time></trkpt><trkpt lat="20.963188" lon="107.05822"><ele>19.0</ele><time>2011-04-30T03:05:40.0000000+00:00</time></trkpt><trkpt lat="20.963188" lon="107.05822"><ele>19.0</ele><time>2011-04-30T03:05:45.0000000+00:00</time></trkpt><trkpt lat="20.963188" lon="107.05822"><ele>19.0</ele><time>2011-04-30T03:05:50.0000000+00:00</time></trkpt><trkpt lat="20.963188" lon="107.05822"><ele>19.0</ele><time>2011-04-30T03:05:55.0000000+00:00</time></trkpt><trkpt lat="20.963188" lon="107.05822"><ele>19.0</ele><time>2011-04-30T03:06:00.0000000+00:00</time></trkpt><trkpt lat="20.963188" lon="107.05822"><ele>19.0</ele><time>2011-04-30T03:06:05.0000000+00:00</time></trkpt><trkpt lat="20.963188" lon="107.05822"><ele>19.0</ele><time>2011-04-30T03:06:10.0000000+00:00</time></trkpt><trkpt lat="20.963186" lon="107.05822"><ele>19.0</ele><time>2011-04-30T03:06:15.0000000+00:00</time></trkpt><trkpt lat="20.96319" lon="107.058228"><ele>19.1</ele><time>2011-04-30T03:06:20.0000000+00:00</time></trkpt><trkpt lat="20.963182" lon="107.05825"><ele>19.2</ele><time>2011-04-30T03:06:25.0000000+00:00</time></trkpt><trkpt lat="20.963181" lon="107.058258"><ele>19.2</ele><time>2011-04-30T03:06:30.0000000+00:00</time></trkpt><trkpt lat="20.963188" lon="107.058266"><ele>19.3</ele><time>2011-04-30T03:06:35.0000000+00:00</time></trkpt><trkpt lat="20.96319" lon="107.058258"><ele>19.5</ele><time>2011-04-30T03:06:40.0000000+00:00</time></trkpt><trkpt lat="20.963203" lon="107.058258"><ele>20.0</ele><time>2011-04-30T03:06:45.0000000+00:00</time></trkpt><trkpt lat="20.9632" lon="107.058266"><ele>20.2</ele><time>2011-04-30T03:06:50.0000000+00:00</time></trkpt><trkpt lat="20.963196" lon="107.058266"><ele>20.1</ele><time>2011-04-30T03:06:55.0000000+00:00</time></trkpt><trkpt lat="20.963198" lon="107.058266"><ele>20.1</ele><time>2011-04-30T03:07:00.0000000+00:00</time></trkpt><trkpt lat="20.9632" lon="107.058258"><ele>19.8</ele><time>2011-04-30T03:07:05.0000000+00:00</time></trkpt><trkpt lat="20.963192" lon="107.058243"><ele>19.8</ele><time>2011-04-30T03:07:10.0000000+00:00</time></trkpt><trkpt lat="20.963182" lon="107.058228"><ele>19.8</ele><time>2011-04-30T03:07:15.0000000+00:00</time></trkpt><trkpt lat="20.963181" lon="107.058228"><ele>19.8</ele><time>2011-04-30T03:07:20.0000000+00:00</time></trkpt><trkpt lat="20.963184" lon="107.058235"><ele>19.9</ele><time>2011-04-30T03:07:25.0000000+00:00</time></trkpt><trkpt lat="20.963171" lon="107.05825"><ele>20.0</ele><time>2011-04-30T03:07:30.0000000+00:00</time></trkpt><trkpt lat="20.963175" lon="107.058266"><ele>20.2</ele><time>2011-04-30T03:07:35.0000000+00:00</time></trkpt><trkpt lat="20.963179" lon="107.058266"><ele>20.1</ele><time>2011-04-30T03:07:40.0000000+00:00</time></trkpt><trkpt lat="20.963181" lon="107.058266"><ele>19.9</ele><time>2011-04-30T03:07:45.0000000+00:00</time></trkpt><trkpt lat="20.963181" lon="107.058266"><ele>19.8</ele><time>2011-04-30T03:07:50.0000000+00:00</time></trkpt><trkpt lat="20.963179" lon="107.058266"><ele>19.9</ele><time>2011-04-30T03:07:55.0000000+00:00</time></trkpt><trkpt lat="20.963209" lon="107.058205"><ele>19.4</ele><time>2011-04-30T03:08:00.0000000+00:00</time></trkpt><trkpt lat="20.963251" lon="107.058151"><ele>19.5</ele><time>2011-04-30T03:08:05.0000000+00:00</time></trkpt><trkpt lat="20.963276" lon="107.05809"><ele>19.3</ele><time>2011-04-30T03:08:10.0000000+00:00</time></trkpt><trkpt lat="20.963284" lon="107.058067"><ele>18.8</ele><time>2011-04-30T03:08:15.0000000+00:00</time></trkpt><trkpt lat="20.963305" lon="107.05806"><ele>18.7</ele><time>2011-04-30T03:08:20.0000000+00:00</time></trkpt><trkpt lat="20.963377" lon="107.058083"><ele>18.7</ele><time>2011-04-30T03:08:25.0000000+00:00</time></trkpt><trkpt lat="20.963373" lon="107.058167"><ele>19.3</ele><time>2011-04-30T03:08:30.0000000+00:00</time></trkpt><trkpt lat="20.963396" lon="107.05822"><ele>19.1</ele><time>2011-04-30T03:08:35.0000000+00:00</time></trkpt><trkpt lat="20.963387" lon="107.058304"><ele>20.2</ele><time>2011-04-30T03:08:40.0000000+00:00</time></trkpt><trkpt lat="20.963385" lon="107.058327"><ele>20.6</ele><time>2011-04-30T03:08:45.0000000+00:00</time></trkpt><trkpt lat="20.963352" lon="107.058395"><ele>21.0</ele><time>2011-04-30T03:08:50.0000000+00:00</time></trkpt><trkpt lat="20.96335" lon="107.058449"><ele>23.3</ele><time>2011-04-30T03:08:55.0000000+00:00</time></trkpt><trkpt lat="20.963354" lon="107.058479"><ele>23.9</ele><time>2011-04-30T03:09:00.0000000+00:00</time></trkpt><trkpt lat="20.963346" lon="107.058479"><ele>24.5</ele><time>2011-04-30T03:09:05.0000000+00:00</time></trkpt><trkpt lat="20.963388" lon="107.058487"><ele>23.5</ele><time>2011-04-30T03:09:10.0000000+00:00</time></trkpt><trkpt lat="20.963451" lon="107.058502"><ele>23.4</ele><time>2011-04-30T03:09:15.0000000+00:00</time></trkpt><trkpt lat="20.963491" lon="107.058525"><ele>22.7</ele><time>2011-04-30T03:09:20.0000000+00:00</time></trkpt><trkpt lat="20.963522" lon="107.058563"><ele>22.5</ele><time>2011-04-30T03:09:25.0000000+00:00</time></trkpt><trkpt lat="20.963531" lon="107.058624"><ele>22.6</ele><time>2011-04-30T03:09:30.0000000+00:00</time></trkpt><trkpt lat="20.96356" lon="107.058708"><ele>23.4</ele><time>2011-04-30T03:09:35.0000000+00:00</time></trkpt><trkpt lat="20.963562" lon="107.058792"><ele>24.4</ele><time>2011-04-30T03:09:40.0000000+00:00</time></trkpt><trkpt lat="20.963524" lon="107.058846"><ele>24.8</ele><time>2011-04-30T03:09:45.0000000+00:00</time></trkpt><trkpt lat="20.963493" lon="107.058876"><ele>25.3</ele><time>2011-04-30T03:09:50.0000000+00:00</time></trkpt><trkpt lat="20.963453" lon="107.058907"><ele>23.8</ele><time>2011-04-30T03:09:55.0000000+00:00</time></trkpt><trkpt lat="20.963396" lon="107.058952"><ele>23.5</ele><time>2011-04-30T03:10:00.0000000+00:00</time></trkpt><trkpt lat="20.963348" lon="107.059006"><ele>24.0</ele><time>2011-04-30T03:10:05.0000000+00:00</time></trkpt><trkpt lat="20.963297" lon="107.059067"><ele>24.3</ele><time>2011-04-30T03:10:10.0000000+00:00</time></trkpt><trkpt lat="20.963255" lon="107.059135"><ele>24.3</ele><time>2011-04-30T03:10:15.0000000+00:00</time></trkpt><trkpt lat="20.963209" lon="107.059181"><ele>25.1</ele><time>2011-04-30T03:10:20.0000000+00:00</time></trkpt><trkpt lat="20.963181" lon="107.059227"><ele>26.4</ele><time>2011-04-30T03:10:25.0000000+00:00</time></trkpt><trkpt lat="20.963156" lon="107.059288"><ele>26.5</ele><time>2011-04-30T03:10:30.0000000+00:00</time></trkpt><trkpt lat="20.963112" lon="107.059311"><ele>27.4</ele><time>2011-04-30T03:10:35.0000000+00:00</time></trkpt><trkpt lat="20.963081" lon="107.059395"><ele>28.0</ele><time>2011-04-30T03:10:40.0000000+00:00</time></trkpt><trkpt lat="20.963055" lon="107.059486"><ele>27.3</ele><time>2011-04-30T03:10:45.0000000+00:00</time></trkpt><trkpt lat="20.963018" lon="107.059555"><ele>27.6</ele><time>2011-04-30T03:10:50.0000000+00:00</time></trkpt><trkpt lat="20.962984" lon="107.059624"><ele>26.5</ele><time>2011-04-30T03:10:55.0000000+00:00</time></trkpt><trkpt lat="20.962965" lon="107.059685"><ele>26.9</ele><time>2011-04-30T03:11:00.0000000+00:00</time></trkpt><trkpt lat="20.96295" lon="107.059746"><ele>26.5</ele><time>2011-04-30T03:11:05.0000000+00:00</time></trkpt><trkpt lat="20.96295" lon="107.059807"><ele>26.8</ele><time>2011-04-30T03:11:10.0000000+00:00</time></trkpt><trkpt lat="20.962919" lon="107.059875"><ele>28.9</ele><time>2011-04-30T03:11:15.0000000+00:00</time></trkpt><trkpt lat="20.962917" lon="107.059944"><ele>29.6</ele><time>2011-04-30T03:11:20.0000000+00:00</time></trkpt><trkpt lat="20.96291" lon="107.060028"><ele>30.4</ele><time>2011-04-30T03:11:25.0000000+00:00</time></trkpt><trkpt lat="20.962919" lon="107.060081"><ele>31.5</ele><time>2011-04-30T03:11:30.0000000+00:00</time></trkpt><trkpt lat="20.96294" lon="107.06015"><ele>34.2</ele><time>2011-04-30T03:11:35.0000000+00:00</time></trkpt><trkpt lat="20.962952" lon="107.060219"><ele>37.7</ele><time>2011-04-30T03:11:40.0000000+00:00</time></trkpt><trkpt lat="20.962976" lon="107.060287"><ele>40.2</ele><time>2011-04-30T03:11:45.0000000+00:00</time></trkpt><trkpt lat="20.962996" lon="107.060364"><ele>41.2</ele><time>2011-04-30T03:11:50.0000000+00:00</time></trkpt><trkpt lat="20.962986" lon="107.060455"><ele>39.3</ele><time>2011-04-30T03:11:55.0000000+00:00</time></trkpt><trkpt lat="20.962969" lon="107.060501"><ele>40.0</ele><time>2011-04-30T03:12:00.0000000+00:00</time></trkpt><trkpt lat="20.962898" lon="107.060547"><ele>38.4</ele><time>2011-04-30T03:12:05.0000000+00:00</time></trkpt><trkpt lat="20.962833" lon="107.06057"><ele>37.4</ele><time>2011-04-30T03:12:10.0000000+00:00</time></trkpt><trkpt lat="20.962786" lon="107.060577"><ele>37.3</ele><time>2011-04-30T03:12:15.0000000+00:00</time></trkpt><trkpt lat="20.962734" lon="107.060593"><ele>37.5</ele><time>2011-04-30T03:12:20.0000000+00:00</time></trkpt><trkpt lat="20.962671" lon="107.060623"><ele>37.3</ele><time>2011-04-30T03:12:25.0000000+00:00</time></trkpt><trkpt lat="20.962616" lon="107.060654"><ele>37.3</ele><time>2011-04-30T03:12:30.0000000+00:00</time></trkpt><trkpt lat="20.962564" lon="107.060669"><ele>37.9</ele><time>2011-04-30T03:12:35.0000000+00:00</time></trkpt><trkpt lat="20.962521" lon="107.060669"><ele>37.6</ele><time>2011-04-30T03:12:40.0000000+00:00</time></trkpt><trkpt lat="20.962492" lon="107.060669"><ele>39.3</ele><time>2011-04-30T03:12:45.0000000+00:00</time></trkpt><trkpt lat="20.96245" lon="107.060661"><ele>40.0</ele><time>2011-04-30T03:12:50.0000000+00:00</time></trkpt><trkpt lat="20.962418" lon="107.060654"><ele>40.8</ele><time>2011-04-30T03:12:55.0000000+00:00</time></trkpt><trkpt lat="20.962343" lon="107.060646"><ele>41.2</ele><time>2011-04-30T03:13:00.0000000+00:00</time></trkpt><trkpt lat="20.962202" lon="107.060684"><ele>41.3</ele><time>2011-04-30T03:13:05.0000000+00:00</time></trkpt><trkpt lat="20.962099" lon="107.060692"><ele>42.5</ele><time>2011-04-30T03:13:10.0000000+00:00</time></trkpt><trkpt lat="20.961973" lon="107.0606"><ele>42.4</ele><time>2011-04-30T03:13:15.0000000+00:00</time></trkpt><trkpt lat="20.961924" lon="107.0606"><ele>43.1</ele><time>2011-04-30T03:13:20.0000000+00:00</time></trkpt><trkpt lat="20.961887" lon="107.060631"><ele>42.0</ele><time>2011-04-30T03:13:25.0000000+00:00</time></trkpt><trkpt lat="20.961817" lon="107.060577"><ele>39.8</ele><time>2011-04-30T03:13:30.0000000+00:00</time></trkpt><trkpt lat="20.961754" lon="107.06057"><ele>39.2</ele><time>2011-04-30T03:13:35.0000000+00:00</time></trkpt><trkpt lat="20.961689" lon="107.06057"><ele>40.1</ele><time>2011-04-30T03:13:40.0000000+00:00</time></trkpt><trkpt lat="20.961643" lon="107.060608"><ele>40.7</ele><time>2011-04-30T03:13:45.0000000+00:00</time></trkpt><trkpt lat="20.961573" lon="107.060638"><ele>40.6</ele><time>2011-04-30T03:13:50.0000000+00:00</time></trkpt><trkpt lat="20.961483" lon="107.060661"><ele>39.9</ele><time>2011-04-30T03:13:55.0000000+00:00</time></trkpt><trkpt lat="20.961439" lon="107.060677"><ele>36.2</ele><time>2011-04-30T03:14:00.0000000+00:00</time></trkpt><trkpt lat="20.96138" lon="107.060646"><ele>34.1</ele><time>2011-04-30T03:14:05.0000000+00:00</time></trkpt><trkpt lat="20.961351" lon="107.060593"><ele>32.9</ele><time>2011-04-30T03:14:10.0000000+00:00</time></trkpt><trkpt lat="20.961311" lon="107.060532"><ele>32.2</ele><time>2011-04-30T03:14:15.0000000+00:00</time></trkpt><trkpt lat="20.961281" lon="107.060455"><ele>30.0</ele><time>2011-04-30T03:14:20.0000000+00:00</time></trkpt><trkpt lat="20.961266" lon="107.060402"><ele>28.5</ele><time>2011-04-30T03:14:25.0000000+00:00</time></trkpt><trkpt lat="20.961243" lon="107.060364"><ele>28.6</ele><time>2011-04-30T03:14:30.0000000+00:00</time></trkpt><trkpt lat="20.961193" lon="107.060326"><ele>28.3</ele><time>2011-04-30T03:14:35.0000000+00:00</time></trkpt><trkpt lat="20.961138" lon="107.060303"><ele>28.6</ele><time>2011-04-30T03:14:40.0000000+00:00</time></trkpt><trkpt lat="20.961096" lon="107.06031"><ele>29.9</ele><time>2011-04-30T03:14:45.0000000+00:00</time></trkpt><trkpt lat="20.96104" lon="107.060303"><ele>30.2</ele><time>2011-04-30T03:14:50.0000000+00:00</time></trkpt><trkpt lat="20.961" lon="107.060287"><ele>31.5</ele><time>2011-04-30T03:14:55.0000000+00:00</time></trkpt><trkpt lat="20.960993" lon="107.060287"><ele>32.4</ele><time>2011-04-30T03:15:00.0000000+00:00</time></trkpt><trkpt lat="20.960987" lon="107.06028"><ele>32.7</ele><time>2011-04-30T03:15:05.0000000+00:00</time></trkpt><trkpt lat="20.960987" lon="107.06028"><ele>32.9</ele><time>2011-04-30T03:15:10.0000000+00:00</time></trkpt><trkpt lat="20.960991" lon="107.06028"><ele>33.0</ele><time>2011-04-30T03:15:15.0000000+00:00</time></trkpt><trkpt lat="20.960991" lon="107.06028"><ele>33.1</ele><time>2011-04-30T03:15:20.0000000+00:00</time></trkpt><trkpt lat="20.960993" lon="107.06028"><ele>33.1</ele><time>2011-04-30T03:15:25.0000000+00:00</time></trkpt><trkpt lat="20.960993" lon="107.06028"><ele>33.1</ele><time>2011-04-30T03:15:30.0000000+00:00</time></trkpt><trkpt lat="20.960993" lon="107.06028"><ele>33.1</ele><time>2011-04-30T03:15:35.0000000+00:00</time></trkpt><trkpt lat="20.960989" lon="107.06028"><ele>33.2</ele><time>2011-04-30T03:15:40.0000000+00:00</time></trkpt><trkpt lat="20.960991" lon="107.060287"><ele>33.2</ele><time>2011-04-30T03:15:45.0000000+00:00</time></trkpt><trkpt lat="20.960997" lon="107.060287"><ele>33.3</ele><time>2011-04-30T03:15:50.0000000+00:00</time></trkpt><trkpt lat="20.961" lon="107.060287"><ele>33.9</ele><time>2011-04-30T03:15:55.0000000+00:00</time></trkpt><trkpt lat="20.961012" lon="107.060249"><ele>32.6</ele><time>2011-04-30T03:16:00.0000000+00:00</time></trkpt><trkpt lat="20.961018" lon="107.060242"><ele>32.3</ele><time>2011-04-30T03:16:05.0000000+00:00</time></trkpt><trkpt lat="20.961031" lon="107.060234"><ele>32.5</ele><time>2011-04-30T03:16:10.0000000+00:00</time></trkpt><trkpt lat="20.961033" lon="107.060234"><ele>32.7</ele><time>2011-04-30T03:16:15.0000000+00:00</time></trkpt><trkpt lat="20.961029" lon="107.060226"><ele>31.6</ele><time>2011-04-30T03:16:20.0000000+00:00</time></trkpt><trkpt lat="20.961029" lon="107.060226"><ele>31.9</ele><time>2011-04-30T03:16:25.0000000+00:00</time></trkpt><trkpt lat="20.961029" lon="107.060226"><ele>31.9</ele><time>2011-04-30T03:16:30.0000000+00:00</time></trkpt><trkpt lat="20.961029" lon="107.060226"><ele>31.9</ele><time>2011-04-30T03:16:35.0000000+00:00</time></trkpt><trkpt lat="20.961008" lon="107.060226"><ele>32.0</ele><time>2011-04-30T03:16:40.0000000+00:00</time></trkpt><trkpt lat="20.960964" lon="107.060242"><ele>30.8</ele><time>2011-04-30T03:16:45.0000000+00:00</time></trkpt><trkpt lat="20.960934" lon="107.060287"><ele>28.0</ele><time>2011-04-30T03:16:50.0000000+00:00</time></trkpt><trkpt lat="20.960894" lon="107.060341"><ele>27.7</ele><time>2011-04-30T03:16:55.0000000+00:00</time></trkpt><trkpt lat="20.960831" lon="107.060364"><ele>28.3</ele><time>2011-04-30T03:17:00.0000000+00:00</time></trkpt><trkpt lat="20.960829" lon="107.06044"><ele>28.1</ele><time>2011-04-30T03:17:05.0000000+00:00</time></trkpt><trkpt lat="20.960878" lon="107.060532"><ele>28.1</ele><time>2011-04-30T03:17:10.0000000+00:00</time></trkpt><trkpt lat="20.960913" lon="107.0606"><ele>28.1</ele><time>2011-04-30T03:17:15.0000000+00:00</time></trkpt><trkpt lat="20.960917" lon="107.060692"><ele>28.3</ele><time>2011-04-30T03:17:20.0000000+00:00</time></trkpt><trkpt lat="20.960918" lon="107.06076"><ele>30.1</ele><time>2011-04-30T03:17:25.0000000+00:00</time></trkpt><trkpt lat="20.960876" lon="107.060829"><ele>29.9</ele><time>2011-04-30T03:17:30.0000000+00:00</time></trkpt><trkpt lat="20.960865" lon="107.06089"><ele>31.3</ele><time>2011-04-30T03:17:35.0000000+00:00</time></trkpt><trkpt lat="20.960867" lon="107.060936"><ele>31.5</ele><time>2011-04-30T03:17:40.0000000+00:00</time></trkpt><trkpt lat="20.960804" lon="107.060989"><ele>30.5</ele><time>2011-04-30T03:17:45.0000000+00:00</time></trkpt><trkpt lat="20.960718" lon="107.061043"><ele>31.2</ele><time>2011-04-30T03:17:50.0000000+00:00</time></trkpt><trkpt lat="20.96068" lon="107.061089"><ele>30.7</ele><time>2011-04-30T03:17:55.0000000+00:00</time></trkpt><trkpt lat="20.960651" lon="107.061119"><ele>27.9</ele><time>2011-04-30T03:18:00.0000000+00:00</time></trkpt><trkpt lat="20.960627" lon="107.061172"><ele>27.3</ele><time>2011-04-30T03:18:05.0000000+00:00</time></trkpt><trkpt lat="20.960617" lon="107.061241"><ele>27.7</ele><time>2011-04-30T03:18:10.0000000+00:00</time></trkpt><trkpt lat="20.960613" lon="107.06131"><ele>28.4</ele><time>2011-04-30T03:18:15.0000000+00:00</time></trkpt><trkpt lat="20.960602" lon="107.061378"><ele>27.3</ele><time>2011-04-30T03:18:20.0000000+00:00</time></trkpt><trkpt lat="20.960579" lon="107.061478"><ele>25.4</ele><time>2011-04-30T03:18:25.0000000+00:00</time></trkpt><trkpt lat="20.960573" lon="107.061562"><ele>24.3</ele><time>2011-04-30T03:18:30.0000000+00:00</time></trkpt><trkpt lat="20.960581" lon="107.061653"><ele>23.3</ele><time>2011-04-30T03:18:35.0000000+00:00</time></trkpt><trkpt lat="20.960606" lon="107.061714"><ele>22.0</ele><time>2011-04-30T03:18:40.0000000+00:00</time></trkpt><trkpt lat="20.960625" lon="107.061752"><ele>23.7</ele><time>2011-04-30T03:18:45.0000000+00:00</time></trkpt><trkpt lat="20.960661" lon="107.06179"><ele>24.1</ele><time>2011-04-30T03:18:50.0000000+00:00</time></trkpt><trkpt lat="20.960703" lon="107.061859"><ele>26.9</ele><time>2011-04-30T03:18:55.0000000+00:00</time></trkpt><trkpt lat="20.960724" lon="107.061928"><ele>28.3</ele><time>2011-04-30T03:19:00.0000000+00:00</time></trkpt><trkpt lat="20.960741" lon="107.061996"><ele>31.3</ele><time>2011-04-30T03:19:05.0000000+00:00</time></trkpt><trkpt lat="20.960764" lon="107.062012"><ele>32.9</ele><time>2011-04-30T03:19:10.0000000+00:00</time></trkpt><trkpt lat="20.960768" lon="107.062057"><ele>35.6</ele><time>2011-04-30T03:19:15.0000000+00:00</time></trkpt><trkpt lat="20.960798" lon="107.062057"><ele>37.7</ele><time>2011-04-30T03:19:20.0000000+00:00</time></trkpt><trkpt lat="20.960819" lon="107.062073"><ele>40.6</ele><time>2011-04-30T03:19:25.0000000+00:00</time></trkpt><trkpt lat="20.960863" lon="107.062149"><ele>43.1</ele><time>2011-04-30T03:19:30.0000000+00:00</time></trkpt><trkpt lat="20.960848" lon="107.062202"><ele>45.1</ele><time>2011-04-30T03:19:35.0000000+00:00</time></trkpt><trkpt lat="20.960884" lon="107.062279"><ele>46.7</ele><time>2011-04-30T03:19:40.0000000+00:00</time></trkpt><trkpt lat="20.960928" lon="107.062363"><ele>47.9</ele><time>2011-04-30T03:19:45.0000000+00:00</time></trkpt><trkpt lat="20.960924" lon="107.062439"><ele>49.4</ele><time>2011-04-30T03:19:50.0000000+00:00</time></trkpt><trkpt lat="20.960951" lon="107.062561"><ele>49.6</ele><time>2011-04-30T03:19:55.0000000+00:00</time></trkpt><trkpt lat="20.960976" lon="107.06266"><ele>51.2</ele><time>2011-04-30T03:20:00.0000000+00:00</time></trkpt><trkpt lat="20.960976" lon="107.062714"><ele>52.3</ele><time>2011-04-30T03:20:05.0000000+00:00</time></trkpt><trkpt lat="20.960981" lon="107.062782"><ele>52.2</ele><time>2011-04-30T03:20:10.0000000+00:00</time></trkpt><trkpt lat="20.960972" lon="107.06282"><ele>53.2</ele><time>2011-04-30T03:20:15.0000000+00:00</time></trkpt><trkpt lat="20.960926" lon="107.062904"><ele>50.7</ele><time>2011-04-30T03:20:20.0000000+00:00</time></trkpt><trkpt lat="20.961016" lon="107.063011"><ele>49.1</ele><time>2011-04-30T03:20:25.0000000+00:00</time></trkpt><trkpt lat="20.961065" lon="107.06311"><ele>47.6</ele><time>2011-04-30T03:20:30.0000000+00:00</time></trkpt><trkpt lat="20.961023" lon="107.06321"><ele>40.8</ele><time>2011-04-30T03:20:35.0000000+00:00</time></trkpt><trkpt lat="20.961004" lon="107.063293"><ele>35.2</ele><time>2011-04-30T03:20:40.0000000+00:00</time></trkpt><trkpt lat="20.960962" lon="107.06337"><ele>31.4</ele><time>2011-04-30T03:20:45.0000000+00:00</time></trkpt><trkpt lat="20.960903" lon="107.063423"><ele>29.3</ele><time>2011-04-30T03:20:50.0000000+00:00</time></trkpt><trkpt lat="20.960842" lon="107.063469"><ele>25.2</ele><time>2011-04-30T03:20:55.0000000+00:00</time></trkpt><trkpt lat="20.960752" lon="107.063507"><ele>20.4</ele><time>2011-04-30T03:21:00.0000000+00:00</time></trkpt><trkpt lat="20.960686" lon="107.063545"><ele>17.7</ele><time>2011-04-30T03:21:05.0000000+00:00</time></trkpt><trkpt lat="20.96063" lon="107.06356"><ele>15.9</ele><time>2011-04-30T03:21:10.0000000+00:00</time></trkpt><trkpt lat="20.960567" lon="107.063538"><ele>13.5</ele><time>2011-04-30T03:21:15.0000000+00:00</time></trkpt><trkpt lat="20.960503" lon="107.063492"><ele>11.6</ele><time>2011-04-30T03:21:20.0000000+00:00</time></trkpt><trkpt lat="20.960461" lon="107.063454"><ele>10.3</ele><time>2011-04-30T03:21:25.0000000+00:00</time></trkpt><trkpt lat="20.960428" lon="107.063423"><ele>10.0</ele><time>2011-04-30T03:21:30.0000000+00:00</time></trkpt><trkpt lat="20.960421" lon="107.063354"><ele>9.6</ele><time>2011-04-30T03:21:35.0000000+00:00</time></trkpt><trkpt lat="20.960394" lon="107.063278"><ele>8.4</ele><time>2011-04-30T03:21:40.0000000+00:00</time></trkpt><trkpt lat="20.960392" lon="107.063217"><ele>8.3</ele><time>2011-04-30T03:21:45.0000000+00:00</time></trkpt><trkpt lat="20.960409" lon="107.063179"><ele>8.5</ele><time>2011-04-30T03:21:50.0000000+00:00</time></trkpt><trkpt lat="20.960392" lon="107.063118"><ele>8.3</ele><time>2011-04-30T03:21:55.0000000+00:00</time></trkpt><trkpt lat="20.960379" lon="107.063026"><ele>8.0</ele><time>2011-04-30T03:22:00.0000000+00:00</time></trkpt><trkpt lat="20.960373" lon="107.062988"><ele>8.6</ele><time>2011-04-30T03:22:05.0000000+00:00</time></trkpt><trkpt lat="20.960354" lon="107.062927"><ele>8.8</ele><time>2011-04-30T03:22:10.0000000+00:00</time></trkpt><trkpt lat="20.96031" lon="107.062874"><ele>9.6</ele><time>2011-04-30T03:22:15.0000000+00:00</time></trkpt><trkpt lat="20.960257" lon="107.062843"><ele>10.5</ele><time>2011-04-30T03:22:20.0000000+00:00</time></trkpt><trkpt lat="20.960188" lon="107.062775"><ele>10.3</ele><time>2011-04-30T03:22:25.0000000+00:00</time></trkpt><trkpt lat="20.960163" lon="107.062706"><ele>10.4</ele><time>2011-04-30T03:22:30.0000000+00:00</time></trkpt><trkpt lat="20.960161" lon="107.062645"><ele>9.5</ele><time>2011-04-30T03:22:35.0000000+00:00</time></trkpt><trkpt lat="20.960155" lon="107.062576"><ele>9.0</ele><time>2011-04-30T03:22:40.0000000+00:00</time></trkpt><trkpt lat="20.960159" lon="107.062523"><ele>7.4</ele><time>2011-04-30T03:22:45.0000000+00:00</time></trkpt><trkpt lat="20.960123" lon="107.062462"><ele>5.8</ele><time>2011-04-30T03:22:50.0000000+00:00</time></trkpt><trkpt lat="20.960114" lon="107.062408"><ele>6.0</ele><time>2011-04-30T03:22:55.0000000+00:00</time></trkpt><trkpt lat="20.960106" lon="107.062332"><ele>5.6</ele><time>2011-04-30T03:23:00.0000000+00:00</time></trkpt><trkpt lat="20.960098" lon="107.062271"><ele>4.9</ele><time>2011-04-30T03:23:05.0000000+00:00</time></trkpt><trkpt lat="20.960098" lon="107.06221"><ele>3.8</ele><time>2011-04-30T03:23:10.0000000+00:00</time></trkpt><trkpt lat="20.960077" lon="107.062149"><ele>2.0</ele><time>2011-04-30T03:23:15.0000000+00:00</time></trkpt><trkpt lat="20.960066" lon="107.06208"><ele>1.7</ele><time>2011-04-30T03:23:20.0000000+00:00</time></trkpt><trkpt lat="20.960045" lon="107.062012"><ele>0.7</ele><time>2011-04-30T03:23:25.0000000+00:00</time></trkpt><trkpt lat="20.960043" lon="107.061943"><ele>-0.3</ele><time>2011-04-30T03:23:30.0000000+00:00</time></trkpt><trkpt lat="20.960032" lon="107.061882"><ele>-1.0</ele><time>2011-04-30T03:23:35.0000000+00:00</time></trkpt><trkpt lat="20.960014" lon="107.061813"><ele>-0.8</ele><time>2011-04-30T03:23:40.0000000+00:00</time></trkpt><trkpt lat="20.959997" lon="107.061768"><ele>-1.2</ele><time>2011-04-30T03:23:45.0000000+00:00</time></trkpt><trkpt lat="20.959988" lon="107.061714"><ele>-0.7</ele><time>2011-04-30T03:23:50.0000000+00:00</time></trkpt><trkpt lat="20.959953" lon="107.061668"><ele>-1.1</ele><time>2011-04-30T03:23:55.0000000+00:00</time></trkpt><trkpt lat="20.959904" lon="107.061668"><ele>-0.7</ele><time>2011-04-30T03:24:00.0000000+00:00</time></trkpt><trkpt lat="20.959858" lon="107.061668"><ele>-0.5</ele><time>2011-04-30T03:24:05.0000000+00:00</time></trkpt><trkpt lat="20.959806" lon="107.061676"><ele>0.8</ele><time>2011-04-30T03:24:10.0000000+00:00</time></trkpt><trkpt lat="20.95977" lon="107.061707"><ele>2.2</ele><time>2011-04-30T03:24:15.0000000+00:00</time></trkpt><trkpt lat="20.959707" lon="107.061691"><ele>0.9</ele><time>2011-04-30T03:24:20.0000000+00:00</time></trkpt><trkpt lat="20.959675" lon="107.061646"><ele>0.3</ele><time>2011-04-30T03:24:25.0000000+00:00</time></trkpt><trkpt lat="20.959652" lon="107.061592"><ele>-0.3</ele><time>2011-04-30T03:24:30.0000000+00:00</time></trkpt><trkpt lat="20.959633" lon="107.061546"><ele>-0.8</ele><time>2011-04-30T03:24:35.0000000+00:00</time></trkpt><trkpt lat="20.959616" lon="107.061493"><ele>-1.1</ele><time>2011-04-30T03:24:40.0000000+00:00</time></trkpt><trkpt lat="20.959597" lon="107.06144"><ele>-1.9</ele><time>2011-04-30T03:24:45.0000000+00:00</time></trkpt><trkpt lat="20.959583" lon="107.061432"><ele>-1.0</ele><time>2011-04-30T03:24:50.0000000+00:00</time></trkpt><trkpt lat="20.959579" lon="107.06144"><ele>-1.0</ele><time>2011-04-30T03:24:55.0000000+00:00</time></trkpt><trkpt lat="20.959576" lon="107.06144"><ele>-1.0</ele><time>2011-04-30T03:25:00.0000000+00:00</time></trkpt><trkpt lat="20.959572" lon="107.06144"><ele>-1.0</ele><time>2011-04-30T03:25:05.0000000+00:00</time></trkpt><trkpt lat="20.959574" lon="107.06144"><ele>-1.0</ele><time>2011-04-30T03:25:10.0000000+00:00</time></trkpt><trkpt lat="20.959578" lon="107.06144"><ele>-1.1</ele><time>2011-04-30T03:25:15.0000000+00:00</time></trkpt><trkpt lat="20.959587" lon="107.061455"><ele>-1.3</ele><time>2011-04-30T03:25:20.0000000+00:00</time></trkpt><trkpt lat="20.959589" lon="107.061455"><ele>-1.3</ele><time>2011-04-30T03:25:25.0000000+00:00</time></trkpt><trkpt lat="20.959585" lon="107.061455"><ele>-1.3</ele><time>2011-04-30T03:25:30.0000000+00:00</time></trkpt><trkpt lat="20.959579" lon="107.061447"><ele>-1.3</ele><time>2011-04-30T03:25:35.0000000+00:00</time></trkpt><trkpt lat="20.959618" lon="107.061409"><ele>-1.5</ele><time>2011-04-30T03:25:40.0000000+00:00</time></trkpt><trkpt lat="20.959623" lon="107.061363"><ele>-1.3</ele><time>2011-04-30T03:25:45.0000000+00:00</time></trkpt><trkpt lat="20.959604" lon="107.061325"><ele>-1.4</ele><time>2011-04-30T03:25:50.0000000+00:00</time></trkpt><trkpt lat="20.959547" lon="107.06131"><ele>-1.8</ele><time>2011-04-30T03:25:55.0000000+00:00</time></trkpt><trkpt lat="20.959513" lon="107.061287"><ele>-2.4</ele><time>2011-04-30T03:26:00.0000000+00:00</time></trkpt><trkpt lat="20.959496" lon="107.061234"><ele>-3.6</ele><time>2011-04-30T03:26:05.0000000+00:00</time></trkpt><trkpt lat="20.959465" lon="107.06118"><ele>-3.1</ele><time>2011-04-30T03:26:10.0000000+00:00</time></trkpt><trkpt lat="20.959452" lon="107.061134"><ele>-2.6</ele><time>2011-04-30T03:26:15.0000000+00:00</time></trkpt><trkpt lat="20.959431" lon="107.061089"><ele>-2.7</ele><time>2011-04-30T03:26:20.0000000+00:00</time></trkpt><trkpt lat="20.959402" lon="107.06105"><ele>-3.4</ele><time>2011-04-30T03:26:25.0000000+00:00</time></trkpt><trkpt lat="20.959383" lon="107.061012"><ele>-3.0</ele><time>2011-04-30T03:26:30.0000000+00:00</time></trkpt><trkpt lat="20.959349" lon="107.060966"><ele>-3.6</ele><time>2011-04-30T03:26:35.0000000+00:00</time></trkpt><trkpt lat="20.959322" lon="107.060928"><ele>-3.4</ele><time>2011-04-30T03:26:40.0000000+00:00</time></trkpt><trkpt lat="20.959301" lon="107.06089"><ele>-3.3</ele><time>2011-04-30T03:26:45.0000000+00:00</time></trkpt><trkpt lat="20.959274" lon="107.060844"><ele>-3.5</ele><time>2011-04-30T03:26:50.0000000+00:00</time></trkpt><trkpt lat="20.959236" lon="107.060806"><ele>-3.6</ele><time>2011-04-30T03:26:55.0000000+00:00</time></trkpt><trkpt lat="20.959213" lon="107.060768"><ele>-3.3</ele><time>2011-04-30T03:27:00.0000000+00:00</time></trkpt><trkpt lat="20.959209" lon="107.060776"><ele>-3.3</ele><time>2011-04-30T03:27:05.0000000+00:00</time></trkpt><trkpt lat="20.959215" lon="107.060776"><ele>-3.1</ele><time>2011-04-30T03:27:10.0000000+00:00</time></trkpt><trkpt lat="20.959223" lon="107.060799"><ele>-3.0</ele><time>2011-04-30T03:27:15.0000000+00:00</time></trkpt><trkpt lat="20.959225" lon="107.060799"><ele>-2.9</ele><time>2011-04-30T03:27:20.0000000+00:00</time></trkpt><trkpt lat="20.95923" lon="107.060799"><ele>-2.8</ele><time>2011-04-30T03:27:25.0000000+00:00</time></trkpt><trkpt lat="20.95923" lon="107.060799"><ele>-2.9</ele><time>2011-04-30T03:27:30.0000000+00:00</time></trkpt><trkpt lat="20.95923" lon="107.060806"><ele>-2.9</ele><time>2011-04-30T03:27:35.0000000+00:00</time></trkpt><trkpt lat="20.959229" lon="107.060799"><ele>-2.7</ele><time>2011-04-30T03:27:40.0000000+00:00</time></trkpt><trkpt lat="20.959234" lon="107.060799"><ele>-2.8</ele><time>2011-04-30T03:27:45.0000000+00:00</time></trkpt><trkpt lat="20.959234" lon="107.060799"><ele>-2.9</ele><time>2011-04-30T03:27:50.0000000+00:00</time></trkpt><trkpt lat="20.959234" lon="107.060799"><ele>-2.8</ele><time>2011-04-30T03:27:55.0000000+00:00</time></trkpt><trkpt lat="20.959198" lon="107.060745"><ele>-3.1</ele><time>2011-04-30T03:28:00.0000000+00:00</time></trkpt><trkpt lat="20.959185" lon="107.060684"><ele>-3.5</ele><time>2011-04-30T03:28:05.0000000+00:00</time></trkpt><trkpt lat="20.95915" lon="107.060646"><ele>-3.6</ele><time>2011-04-30T03:28:10.0000000+00:00</time></trkpt><trkpt lat="20.959103" lon="107.060631"><ele>-3.4</ele><time>2011-04-30T03:28:15.0000000+00:00</time></trkpt><trkpt lat="20.959053" lon="107.060631"><ele>-3.9</ele><time>2011-04-30T03:28:20.0000000+00:00</time></trkpt><trkpt lat="20.959009" lon="107.060593"><ele>-2.7</ele><time>2011-04-30T03:28:25.0000000+00:00</time></trkpt><trkpt lat="20.958998" lon="107.06057"><ele>-3.0</ele><time>2011-04-30T03:28:30.0000000+00:00</time></trkpt><trkpt lat="20.959023" lon="107.060547"><ele>-2.9</ele><time>2011-04-30T03:28:35.0000000+00:00</time></trkpt><trkpt lat="20.959055" lon="107.060509"><ele>-2.7</ele><time>2011-04-30T03:28:40.0000000+00:00</time></trkpt><trkpt lat="20.959064" lon="107.060448"><ele>-2.9</ele><time>2011-04-30T03:28:45.0000000+00:00</time></trkpt><trkpt lat="20.959038" lon="107.060387"><ele>-2.6</ele><time>2011-04-30T03:28:50.0000000+00:00</time></trkpt><trkpt lat="20.959" lon="107.060333"><ele>-2.1</ele><time>2011-04-30T03:28:55.0000000+00:00</time></trkpt><trkpt lat="20.958986" lon="107.060318"><ele>-2.4</ele><time>2011-04-30T03:29:00.0000000+00:00</time></trkpt><trkpt lat="20.958927" lon="107.06028"><ele>-2.1</ele><time>2011-04-30T03:29:05.0000000+00:00</time></trkpt><trkpt lat="20.958887" lon="107.060242"><ele>-1.9</ele><time>2011-04-30T03:29:10.0000000+00:00</time></trkpt><trkpt lat="20.958849" lon="107.060196"><ele>-1.8</ele><time>2011-04-30T03:29:15.0000000+00:00</time></trkpt><trkpt lat="20.958817" lon="107.06015"><ele>-1.5</ele><time>2011-04-30T03:29:20.0000000+00:00</time></trkpt><trkpt lat="20.958775" lon="107.060097"><ele>-1.5</ele><time>2011-04-30T03:29:25.0000000+00:00</time></trkpt><trkpt lat="20.958763" lon="107.060043"><ele>-0.7</ele><time>2011-04-30T03:29:30.0000000+00:00</time></trkpt><trkpt lat="20.958748" lon="107.060005"><ele>-0.4</ele><time>2011-04-30T03:29:35.0000000+00:00</time></trkpt><trkpt lat="20.958742" lon="107.059967"><ele>-0.1</ele><time>2011-04-30T03:29:40.0000000+00:00</time></trkpt><trkpt lat="20.958731" lon="107.059929"><ele>-0.6</ele><time>2011-04-30T03:29:45.0000000+00:00</time></trkpt><trkpt lat="20.958683" lon="107.059921"><ele>-0.5</ele><time>2011-04-30T03:29:50.0000000+00:00</time></trkpt><trkpt lat="20.958662" lon="107.059906"><ele>0.3</ele><time>2011-04-30T03:29:55.0000000+00:00</time></trkpt><trkpt lat="20.958658" lon="107.059906"><ele>0.2</ele><time>2011-04-30T03:30:00.0000000+00:00</time></trkpt><trkpt lat="20.958654" lon="107.059898"><ele>0.1</ele><time>2011-04-30T03:30:05.0000000+00:00</time></trkpt><trkpt lat="20.958649" lon="107.059898"><ele>0.0</ele><time>2011-04-30T03:30:10.0000000+00:00</time></trkpt><trkpt lat="20.958649" lon="107.059898"><ele>0.0</ele><time>2011-04-30T03:30:15.0000000+00:00</time></trkpt><trkpt lat="20.958649" lon="107.059898"><ele>0.1</ele><time>2011-04-30T03:30:20.0000000+00:00</time></trkpt><trkpt lat="20.958649" lon="107.059898"><ele>0.0</ele><time>2011-04-30T03:30:25.0000000+00:00</time></trkpt><trkpt lat="20.958649" lon="107.059898"><ele>0.1</ele><time>2011-04-30T03:30:30.0000000+00:00</time></trkpt><trkpt lat="20.958649" lon="107.059898"><ele>0.1</ele><time>2011-04-30T03:30:35.0000000+00:00</time></trkpt><trkpt lat="20.958649" lon="107.059898"><ele>0.1</ele><time>2011-04-30T03:30:40.0000000+00:00</time></trkpt><trkpt lat="20.958647" lon="107.059898"><ele>-0.0</ele><time>2011-04-30T03:30:45.0000000+00:00</time></trkpt><trkpt lat="20.958628" lon="107.05986"><ele>0.2</ele><time>2011-04-30T03:30:50.0000000+00:00</time></trkpt><trkpt lat="20.958612" lon="107.059807"><ele>0.4</ele><time>2011-04-30T03:30:55.0000000+00:00</time></trkpt><trkpt lat="20.95858" lon="107.059731"><ele>0.4</ele><time>2011-04-30T03:31:00.0000000+00:00</time></trkpt><trkpt lat="20.958553" lon="107.059692"><ele>0.2</ele><time>2011-04-30T03:31:05.0000000+00:00</time></trkpt><trkpt lat="20.958511" lon="107.059647"><ele>-0.1</ele><time>2011-04-30T03:31:10.0000000+00:00</time></trkpt><trkpt lat="20.958467" lon="107.059601"><ele>0.1</ele><time>2011-04-30T03:31:15.0000000+00:00</time></trkpt><trkpt lat="20.958408" lon="107.059563"><ele>-0.1</ele><time>2011-04-30T03:31:20.0000000+00:00</time></trkpt><trkpt lat="20.958351" lon="107.059525"><ele>-1.1</ele><time>2011-04-30T03:31:25.0000000+00:00</time></trkpt><trkpt lat="20.958302" lon="107.059471"><ele>-2.4</ele><time>2011-04-30T03:31:30.0000000+00:00</time></trkpt><trkpt lat="20.958269" lon="107.059448"><ele>-2.1</ele><time>2011-04-30T03:31:35.0000000+00:00</time></trkpt><trkpt lat="20.958223" lon="107.059387"><ele>-2.4</ele><time>2011-04-30T03:31:40.0000000+00:00</time></trkpt><trkpt lat="20.958172" lon="107.059326"><ele>-2.5</ele><time>2011-04-30T03:31:45.0000000+00:00</time></trkpt><trkpt lat="20.958118" lon="107.059265"><ele>-2.9</ele><time>2011-04-30T03:31:50.0000000+00:00</time></trkpt><trkpt lat="20.958075" lon="107.059204"><ele>-3.2</ele><time>2011-04-30T03:31:55.0000000+00:00</time></trkpt><trkpt lat="20.958015" lon="107.059166"><ele>-3.0</ele><time>2011-04-30T03:32:00.0000000+00:00</time></trkpt><trkpt lat="20.957947" lon="107.059135"><ele>-2.5</ele><time>2011-04-30T03:32:05.0000000+00:00</time></trkpt><trkpt lat="20.957891" lon="107.05912"><ele>-2.1</ele><time>2011-04-30T03:32:10.0000000+00:00</time></trkpt><trkpt lat="20.957874" lon="107.05912"><ele>-2.1</ele><time>2011-04-30T03:32:15.0000000+00:00</time></trkpt><trkpt lat="20.957867" lon="107.059105"><ele>-1.8</ele><time>2011-04-30T03:32:20.0000000+00:00</time></trkpt><trkpt lat="20.957855" lon="107.059059"><ele>-1.6</ele><time>2011-04-30T03:32:25.0000000+00:00</time></trkpt><trkpt lat="20.95783" lon="107.059013"><ele>-1.9</ele><time>2011-04-30T03:32:30.0000000+00:00</time></trkpt><trkpt lat="20.957798" lon="107.058968"><ele>-2.3</ele><time>2011-04-30T03:32:35.0000000+00:00</time></trkpt><trkpt lat="20.957787" lon="107.058914"><ele>-2.3</ele><time>2011-04-30T03:32:40.0000000+00:00</time></trkpt><trkpt lat="20.957758" lon="107.058876"><ele>-2.8</ele><time>2011-04-30T03:32:45.0000000+00:00</time></trkpt><trkpt lat="20.957726" lon="107.058838"><ele>-2.5</ele><time>2011-04-30T03:32:50.0000000+00:00</time></trkpt><trkpt lat="20.957695" lon="107.058792"><ele>-2.1</ele><time>2011-04-30T03:32:55.0000000+00:00</time></trkpt><trkpt lat="20.957668" lon="107.058754"><ele>-1.7</ele><time>2011-04-30T03:33:00.0000000+00:00</time></trkpt><trkpt lat="20.957624" lon="107.058723"><ele>-1.9</ele><time>2011-04-30T03:33:05.0000000+00:00</time></trkpt><trkpt lat="20.957575" lon="107.058701"><ele>-1.9</ele><time>2011-04-30T03:33:10.0000000+00:00</time></trkpt><trkpt lat="20.957558" lon="107.058678"><ele>-1.5</ele><time>2011-04-30T03:33:15.0000000+00:00</time></trkpt><trkpt lat="20.957518" lon="107.058624"><ele>-2.0</ele><time>2011-04-30T03:33:20.0000000+00:00</time></trkpt><trkpt lat="20.957485" lon="107.058586"><ele>-2.2</ele><time>2011-04-30T03:33:25.0000000+00:00</time></trkpt><trkpt lat="20.957453" lon="107.058548"><ele>-2.3</ele><time>2011-04-30T03:33:30.0000000+00:00</time></trkpt><trkpt lat="20.957428" lon="107.058502"><ele>-2.5</ele><time>2011-04-30T03:33:35.0000000+00:00</time></trkpt><trkpt lat="20.957396" lon="107.058464"><ele>-2.9</ele><time>2011-04-30T03:33:40.0000000+00:00</time></trkpt><trkpt lat="20.957352" lon="107.058434"><ele>-2.1</ele><time>2011-04-30T03:33:45.0000000+00:00</time></trkpt><trkpt lat="20.957344" lon="107.058388"><ele>-2.0</ele><time>2011-04-30T03:33:50.0000000+00:00</time></trkpt><trkpt lat="20.957319" lon="107.05835"><ele>-1.7</ele><time>2011-04-30T03:33:55.0000000+00:00</time></trkpt><trkpt lat="20.95731" lon="107.058327"><ele>-1.8</ele><time>2011-04-30T03:34:00.0000000+00:00</time></trkpt><trkpt lat="20.957296" lon="107.058296"><ele>-1.5</ele><time>2011-04-30T03:34:05.0000000+00:00</time></trkpt><trkpt lat="20.957258" lon="107.05825"><ele>-1.8</ele><time>2011-04-30T03:34:10.0000000+00:00</time></trkpt><trkpt lat="20.95722" lon="107.058205"><ele>-1.9</ele><time>2011-04-30T03:34:15.0000000+00:00</time></trkpt><trkpt lat="20.95718" lon="107.058159"><ele>-2.4</ele><time>2011-04-30T03:34:20.0000000+00:00</time></trkpt><trkpt lat="20.957148" lon="107.058121"><ele>-2.9</ele><time>2011-04-30T03:34:25.0000000+00:00</time></trkpt><trkpt lat="20.957127" lon="107.058075"><ele>-3.5</ele><time>2011-04-30T03:34:30.0000000+00:00</time></trkpt><trkpt lat="20.957096" lon="107.058022"><ele>-3.6</ele><time>2011-04-30T03:34:35.0000000+00:00</time></trkpt><trkpt lat="20.957067" lon="107.057968"><ele>-3.6</ele><time>2011-04-30T03:34:40.0000000+00:00</time></trkpt><trkpt lat="20.957058" lon="107.057922"><ele>-3.6</ele><time>2011-04-30T03:34:45.0000000+00:00</time></trkpt><trkpt lat="20.957035" lon="107.057877"><ele>-3.5</ele><time>2011-04-30T03:34:50.0000000+00:00</time></trkpt><trkpt lat="20.957016" lon="107.057823"><ele>-3.4</ele><time>2011-04-30T03:34:55.0000000+00:00</time></trkpt><trkpt lat="20.956987" lon="107.057777"><ele>-3.9</ele><time>2011-04-30T03:35:00.0000000+00:00</time></trkpt><trkpt lat="20.956964" lon="107.057747"><ele>-3.9</ele><time>2011-04-30T03:35:05.0000000+00:00</time></trkpt><trkpt lat="20.956955" lon="107.057701"><ele>-3.4</ele><time>2011-04-30T03:35:10.0000000+00:00</time></trkpt><trkpt lat="20.956932" lon="107.057671"><ele>-3.5</ele><time>2011-04-30T03:35:15.0000000+00:00</time></trkpt><trkpt lat="20.956928" lon="107.057632"><ele>-3.8</ele><time>2011-04-30T03:35:20.0000000+00:00</time></trkpt><trkpt lat="20.956911" lon="107.057587"><ele>-4.3</ele><time>2011-04-30T03:35:25.0000000+00:00</time></trkpt><trkpt lat="20.956898" lon="107.057541"><ele>-3.8</ele><time>2011-04-30T03:35:30.0000000+00:00</time></trkpt><trkpt lat="20.956896" lon="107.057495"><ele>-3.4</ele><time>2011-04-30T03:35:35.0000000+00:00</time></trkpt><trkpt lat="20.956865" lon="107.057465"><ele>-2.5</ele><time>2011-04-30T03:35:40.0000000+00:00</time></trkpt><trkpt lat="20.956858" lon="107.057419"><ele>-1.5</ele><time>2011-04-30T03:35:45.0000000+00:00</time></trkpt><trkpt lat="20.956829" lon="107.057365"><ele>-0.5</ele><time>2011-04-30T03:35:50.0000000+00:00</time></trkpt><trkpt lat="20.956816" lon="107.057327"><ele>-1.3</ele><time>2011-04-30T03:35:55.0000000+00:00</time></trkpt><trkpt lat="20.956797" lon="107.057281"><ele>-0.9</ele><time>2011-04-30T03:36:00.0000000+00:00</time></trkpt><trkpt lat="20.956781" lon="107.057243"><ele>-1.6</ele><time>2011-04-30T03:36:05.0000000+00:00</time></trkpt><trkpt lat="20.956774" lon="107.057213"><ele>-1.6</ele><time>2011-04-30T03:36:10.0000000+00:00</time></trkpt><trkpt lat="20.956758" lon="107.057182"><ele>-1.8</ele><time>2011-04-30T03:36:15.0000000+00:00</time></trkpt><trkpt lat="20.956728" lon="107.057091"><ele>-1.7</ele><time>2011-04-30T03:36:20.0000000+00:00</time></trkpt><trkpt lat="20.956715" lon="107.05703"><ele>-1.5</ele><time>2011-04-30T03:36:25.0000000+00:00</time></trkpt><trkpt lat="20.956701" lon="107.056969"><ele>-1.1</ele><time>2011-04-30T03:36:30.0000000+00:00</time></trkpt><trkpt lat="20.956694" lon="107.056915"><ele>-0.5</ele><time>2011-04-30T03:36:35.0000000+00:00</time></trkpt><trkpt lat="20.956675" lon="107.05687"><ele>-0.9</ele><time>2011-04-30T03:36:40.0000000+00:00</time></trkpt><trkpt lat="20.956646" lon="107.056808"><ele>-0.9</ele><time>2011-04-30T03:36:45.0000000+00:00</time></trkpt><trkpt lat="20.956642" lon="107.056747"><ele>-0.5</ele><time>2011-04-30T03:36:50.0000000+00:00</time></trkpt><trkpt lat="20.956623" lon="107.056694"><ele>-0.3</ele><time>2011-04-30T03:36:55.0000000+00:00</time></trkpt><trkpt lat="20.956614" lon="107.056633"><ele>-0.2</ele><time>2011-04-30T03:37:00.0000000+00:00</time></trkpt><trkpt lat="20.956598" lon="107.05658"><ele>-0.4</ele><time>2011-04-30T03:37:05.0000000+00:00</time></trkpt><trkpt lat="20.956585" lon="107.056526"><ele>-0.0</ele><time>2011-04-30T03:37:10.0000000+00:00</time></trkpt><trkpt lat="20.956573" lon="107.056473"><ele>-0.3</ele><time>2011-04-30T03:37:15.0000000+00:00</time></trkpt><trkpt lat="20.956566" lon="107.056419"><ele>-1.1</ele><time>2011-04-30T03:37:20.0000000+00:00</time></trkpt><trkpt lat="20.956549" lon="107.056366"><ele>-2.2</ele><time>2011-04-30T03:37:25.0000000+00:00</time></trkpt><trkpt lat="20.95653" lon="107.056305"><ele>-2.9</ele><time>2011-04-30T03:37:30.0000000+00:00</time></trkpt><trkpt lat="20.956512" lon="107.056252"><ele>-3.2</ele><time>2011-04-30T03:37:35.0000000+00:00</time></trkpt><trkpt lat="20.956495" lon="107.05619"><ele>-3.5</ele><time>2011-04-30T03:37:40.0000000+00:00</time></trkpt><trkpt lat="20.95649" lon="107.056122"><ele>-4.0</ele><time>2011-04-30T03:37:45.0000000+00:00</time></trkpt><trkpt lat="20.956497" lon="107.056068"><ele>-3.4</ele><time>2011-04-30T03:37:50.0000000+00:00</time></trkpt><trkpt lat="20.956493" lon="107.056007"><ele>-3.9</ele><time>2011-04-30T03:37:55.0000000+00:00</time></trkpt><trkpt lat="20.956474" lon="107.055962"><ele>-4.0</ele><time>2011-04-30T03:38:00.0000000+00:00</time></trkpt><trkpt lat="20.95644" lon="107.055923"><ele>-4.6</ele><time>2011-04-30T03:38:05.0000000+00:00</time></trkpt><trkpt lat="20.956429" lon="107.055893"><ele>-4.0</ele><time>2011-04-30T03:38:10.0000000+00:00</time></trkpt><trkpt lat="20.956427" lon="107.055893"><ele>-3.4</ele><time>2011-04-30T03:38:15.0000000+00:00</time></trkpt><trkpt lat="20.956432" lon="107.055885"><ele>-3.0</ele><time>2011-04-30T03:38:20.0000000+00:00</time></trkpt><trkpt lat="20.956444" lon="107.055847"><ele>-2.7</ele><time>2011-04-30T03:38:25.0000000+00:00</time></trkpt><trkpt lat="20.956427" lon="107.055832"><ele>-2.5</ele><time>2011-04-30T03:38:30.0000000+00:00</time></trkpt><trkpt lat="20.956419" lon="107.055832"><ele>-2.4</ele><time>2011-04-30T03:38:35.0000000+00:00</time></trkpt><trkpt lat="20.956408" lon="107.05584"><ele>-2.8</ele><time>2011-04-30T03:38:40.0000000+00:00</time></trkpt><trkpt lat="20.956408" lon="107.05584"><ele>-2.7</ele><time>2011-04-30T03:38:45.0000000+00:00</time></trkpt><trkpt lat="20.956408" lon="107.05584"><ele>-2.8</ele><time>2011-04-30T03:38:50.0000000+00:00</time></trkpt><trkpt lat="20.956411" lon="107.05584"><ele>-3.2</ele><time>2011-04-30T03:38:55.0000000+00:00</time></trkpt><trkpt lat="20.956411" lon="107.055832"><ele>-3.4</ele><time>2011-04-30T03:39:00.0000000+00:00</time></trkpt><trkpt lat="20.956398" lon="107.055832"><ele>-3.7</ele><time>2011-04-30T03:39:05.0000000+00:00</time></trkpt><trkpt lat="20.956385" lon="107.055824"><ele>-3.6</ele><time>2011-04-30T03:39:10.0000000+00:00</time></trkpt><trkpt lat="20.956396" lon="107.055794"><ele>-3.2</ele><time>2011-04-30T03:39:15.0000000+00:00</time></trkpt><trkpt lat="20.956394" lon="107.055794"><ele>-3.2</ele><time>2011-04-30T03:39:20.0000000+00:00</time></trkpt><trkpt lat="20.956377" lon="107.055771"><ele>-2.9</ele><time>2011-04-30T03:39:25.0000000+00:00</time></trkpt><trkpt lat="20.956379" lon="107.055771"><ele>-2.6</ele><time>2011-04-30T03:39:30.0000000+00:00</time></trkpt><trkpt lat="20.956406" lon="107.055801"><ele>-2.7</ele><time>2011-04-30T03:39:35.0000000+00:00</time></trkpt><trkpt lat="20.956417" lon="107.055817"><ele>-2.4</ele><time>2011-04-30T03:39:40.0000000+00:00</time></trkpt><trkpt lat="20.956425" lon="107.055817"><ele>-3.1</ele><time>2011-04-30T03:39:45.0000000+00:00</time></trkpt><trkpt lat="20.956423" lon="107.055817"><ele>-3.4</ele><time>2011-04-30T03:39:50.0000000+00:00</time></trkpt><trkpt lat="20.956402" lon="107.055801"><ele>-2.6</ele><time>2011-04-30T03:39:55.0000000+00:00</time></trkpt><trkpt lat="20.956409" lon="107.055801"><ele>-2.3</ele><time>2011-04-30T03:40:00.0000000+00:00</time></trkpt><trkpt lat="20.956402" lon="107.055824"><ele>-2.6</ele><time>2011-04-30T03:40:05.0000000+00:00</time></trkpt><trkpt lat="20.956406" lon="107.055832"><ele>-2.3</ele><time>2011-04-30T03:40:10.0000000+00:00</time></trkpt><trkpt lat="20.956398" lon="107.055832"><ele>-2.0</ele><time>2011-04-30T03:40:15.0000000+00:00</time></trkpt><trkpt lat="20.956396" lon="107.055832"><ele>-1.8</ele><time>2011-04-30T03:40:20.0000000+00:00</time></trkpt><trkpt lat="20.956398" lon="107.055817"><ele>-1.6</ele><time>2011-04-30T03:40:25.0000000+00:00</time></trkpt><trkpt lat="20.956385" lon="107.055809"><ele>-1.8</ele><time>2011-04-30T03:40:30.0000000+00:00</time></trkpt><trkpt lat="20.956379" lon="107.055817"><ele>-1.5</ele><time>2011-04-30T03:40:35.0000000+00:00</time></trkpt><trkpt lat="20.956385" lon="107.055817"><ele>-1.4</ele><time>2011-04-30T03:40:40.0000000+00:00</time></trkpt><trkpt lat="20.956388" lon="107.055809"><ele>-0.8</ele><time>2011-04-30T03:40:45.0000000+00:00</time></trkpt><trkpt lat="20.956398" lon="107.055763"><ele>-1.9</ele><time>2011-04-30T03:40:50.0000000+00:00</time></trkpt><trkpt lat="20.956394" lon="107.05571"><ele>-2.6</ele><time>2011-04-30T03:40:55.0000000+00:00</time></trkpt><trkpt lat="20.956387" lon="107.055656"><ele>-3.4</ele><time>2011-04-30T03:41:00.0000000+00:00</time></trkpt><trkpt lat="20.956377" lon="107.055595"><ele>-3.0</ele><time>2011-04-30T03:41:05.0000000+00:00</time></trkpt><trkpt lat="20.956358" lon="107.055534"><ele>-1.9</ele><time>2011-04-30T03:41:10.0000000+00:00</time></trkpt><trkpt lat="20.95635" lon="107.055489"><ele>-2.2</ele><time>2011-04-30T03:41:15.0000000+00:00</time></trkpt><trkpt lat="20.956339" lon="107.055435"><ele>-1.1</ele><time>2011-04-30T03:41:20.0000000+00:00</time></trkpt><trkpt lat="20.956345" lon="107.055397"><ele>-1.2</ele><time>2011-04-30T03:41:25.0000000+00:00</time></trkpt><trkpt lat="20.956347" lon="107.055336"><ele>-1.1</ele><time>2011-04-30T03:41:30.0000000+00:00</time></trkpt><trkpt lat="20.956322" lon="107.055275"><ele>-1.5</ele><time>2011-04-30T03:41:35.0000000+00:00</time></trkpt><trkpt lat="20.956312" lon="107.055222"><ele>-1.7</ele><time>2011-04-30T03:41:40.0000000+00:00</time></trkpt><trkpt lat="20.956284" lon="107.055168"><ele>-2.5</ele><time>2011-04-30T03:41:45.0000000+00:00</time></trkpt><trkpt lat="20.956278" lon="107.055107"><ele>-1.8</ele><time>2011-04-30T03:41:50.0000000+00:00</time></trkpt><trkpt lat="20.956259" lon="107.055061"><ele>-2.4</ele><time>2011-04-30T03:41:55.0000000+00:00</time></trkpt><trkpt lat="20.956253" lon="107.055008"><ele>-2.3</ele><time>2011-04-30T03:42:00.0000000+00:00</time></trkpt><trkpt lat="20.956242" lon="107.054955"><ele>-2.2</ele><time>2011-04-30T03:42:05.0000000+00:00</time></trkpt><trkpt lat="20.956226" lon="107.054901"><ele>-2.3</ele><time>2011-04-30T03:42:10.0000000+00:00</time></trkpt><trkpt lat="20.956209" lon="107.054848"><ele>-0.4</ele><time>2011-04-30T03:42:15.0000000+00:00</time></trkpt><trkpt lat="20.956202" lon="107.054787"><ele>-0.2</ele><time>2011-04-30T03:42:20.0000000+00:00</time></trkpt><trkpt lat="20.956182" lon="107.054733"><ele>0.0</ele><time>2011-04-30T03:42:25.0000000+00:00</time></trkpt><trkpt lat="20.956167" lon="107.054665"><ele>-0.5</ele><time>2011-04-30T03:42:30.0000000+00:00</time></trkpt><trkpt lat="20.956169" lon="107.054611"><ele>-0.2</ele><time>2011-04-30T03:42:35.0000000+00:00</time></trkpt><trkpt lat="20.956163" lon="107.054565"><ele>-0.6</ele><time>2011-04-30T03:42:40.0000000+00:00</time></trkpt><trkpt lat="20.956158" lon="107.054512"><ele>-0.4</ele><time>2011-04-30T03:42:45.0000000+00:00</time></trkpt><trkpt lat="20.956161" lon="107.054466"><ele>0.8</ele><time>2011-04-30T03:42:50.0000000+00:00</time></trkpt><trkpt lat="20.956152" lon="107.054405"><ele>-0.1</ele><time>2011-04-30T03:42:55.0000000+00:00</time></trkpt><trkpt lat="20.956152" lon="107.054352"><ele>-0.1</ele><time>2011-04-30T03:43:00.0000000+00:00</time></trkpt><trkpt lat="20.956146" lon="107.054291"><ele>-0.1</ele><time>2011-04-30T03:43:05.0000000+00:00</time></trkpt><trkpt lat="20.956135" lon="107.05423"><ele>-0.5</ele><time>2011-04-30T03:43:10.0000000+00:00</time></trkpt><trkpt lat="20.956137" lon="107.054169"><ele>-0.5</ele><time>2011-04-30T03:43:15.0000000+00:00</time></trkpt><trkpt lat="20.956135" lon="107.054115"><ele>-0.0</ele><time>2011-04-30T03:43:20.0000000+00:00</time></trkpt><trkpt lat="20.956137" lon="107.054062"><ele>-3.4</ele><time>2011-04-30T03:43:25.0000000+00:00</time></trkpt><trkpt lat="20.956139" lon="107.054008"><ele>-2.6</ele><time>2011-04-30T03:43:30.0000000+00:00</time></trkpt><trkpt lat="20.956137" lon="107.053947"><ele>-2.3</ele><time>2011-04-30T03:43:35.0000000+00:00</time></trkpt><trkpt lat="20.956127" lon="107.053894"><ele>-2.5</ele><time>2011-04-30T03:43:40.0000000+00:00</time></trkpt><trkpt lat="20.956118" lon="107.053841"><ele>-2.5</ele><time>2011-04-30T03:43:45.0000000+00:00</time></trkpt><trkpt lat="20.956118" lon="107.053787"><ele>-2.6</ele><time>2011-04-30T03:43:50.0000000+00:00</time></trkpt><trkpt lat="20.956127" lon="107.053734"><ele>-2.4</ele><time>2011-04-30T03:43:55.0000000+00:00</time></trkpt><trkpt lat="20.956125" lon="107.053673"><ele>-2.4</ele><time>2011-04-30T03:44:00.0000000+00:00</time></trkpt><trkpt lat="20.956121" lon="107.053619"><ele>-2.2</ele><time>2011-04-30T03:44:05.0000000+00:00</time></trkpt><trkpt lat="20.956125" lon="107.053566"><ele>-2.0</ele><time>2011-04-30T03:44:10.0000000+00:00</time></trkpt><trkpt lat="20.956135" lon="107.053505"><ele>-2.0</ele><time>2011-04-30T03:44:15.0000000+00:00</time></trkpt><trkpt lat="20.956146" lon="107.053444"><ele>-2.0</ele><time>2011-04-30T03:44:20.0000000+00:00</time></trkpt><trkpt lat="20.95615" lon="107.053383"><ele>-2.3</ele><time>2011-04-30T03:44:25.0000000+00:00</time></trkpt><trkpt lat="20.956154" lon="107.053322"><ele>-2.5</ele><time>2011-04-30T03:44:30.0000000+00:00</time></trkpt><trkpt lat="20.95616" lon="107.053268"><ele>-1.9</ele><time>2011-04-30T03:44:35.0000000+00:00</time></trkpt><trkpt lat="20.956163" lon="107.053207"><ele>-1.0</ele><time>2011-04-30T03:44:40.0000000+00:00</time></trkpt><trkpt lat="20.956154" lon="107.053146"><ele>-0.1</ele><time>2011-04-30T03:44:45.0000000+00:00</time></trkpt><trkpt lat="20.956163" lon="107.053108"><ele>1.5</ele><time>2011-04-30T03:44:50.0000000+00:00</time></trkpt><trkpt lat="20.956173" lon="107.053055"><ele>1.9</ele><time>2011-04-30T03:44:55.0000000+00:00</time></trkpt><trkpt lat="20.956173" lon="107.053001"><ele>2.0</ele><time>2011-04-30T03:45:00.0000000+00:00</time></trkpt><trkpt lat="20.956184" lon="107.052948"><ele>2.4</ele><time>2011-04-30T03:45:05.0000000+00:00</time></trkpt><trkpt lat="20.956196" lon="107.052895"><ele>1.7</ele><time>2011-04-30T03:45:10.0000000+00:00</time></trkpt><trkpt lat="20.956207" lon="107.052841"><ele>1.5</ele><time>2011-04-30T03:45:15.0000000+00:00</time></trkpt><trkpt lat="20.956217" lon="107.052788"><ele>2.0</ele><time>2011-04-30T03:45:20.0000000+00:00</time></trkpt><trkpt lat="20.956242" lon="107.052734"><ele>2.2</ele><time>2011-04-30T03:45:25.0000000+00:00</time></trkpt><trkpt lat="20.956251" lon="107.052689"><ele>1.8</ele><time>2011-04-30T03:45:30.0000000+00:00</time></trkpt><trkpt lat="20.956249" lon="107.052628"><ele>0.5</ele><time>2011-04-30T03:45:35.0000000+00:00</time></trkpt><trkpt lat="20.956259" lon="107.052574"><ele>-0.2</ele><time>2011-04-30T03:45:40.0000000+00:00</time></trkpt><trkpt lat="20.956264" lon="107.052521"><ele>-1.0</ele><time>2011-04-30T03:45:45.0000000+00:00</time></trkpt><trkpt lat="20.956274" lon="107.05246"><ele>-2.7</ele><time>2011-04-30T03:45:50.0000000+00:00</time></trkpt><trkpt lat="20.95627" lon="107.052399"><ele>-3.7</ele><time>2011-04-30T03:45:55.0000000+00:00</time></trkpt><trkpt lat="20.956266" lon="107.052345"><ele>-4.7</ele><time>2011-04-30T03:46:00.0000000+00:00</time></trkpt><trkpt lat="20.956274" lon="107.052284"><ele>-5.7</ele><time>2011-04-30T03:46:05.0000000+00:00</time></trkpt><trkpt lat="20.956272" lon="107.052223"><ele>-5.7</ele><time>2011-04-30T03:46:10.0000000+00:00</time></trkpt><trkpt lat="20.956289" lon="107.05217"><ele>-6.7</ele><time>2011-04-30T03:46:15.0000000+00:00</time></trkpt><trkpt lat="20.956303" lon="107.052124"><ele>-6.6</ele><time>2011-04-30T03:46:20.0000000+00:00</time></trkpt><trkpt lat="20.956318" lon="107.052071"><ele>-6.6</ele><time>2011-04-30T03:46:25.0000000+00:00</time></trkpt><trkpt lat="20.956306" lon="107.052025"><ele>-6.8</ele><time>2011-04-30T03:46:30.0000000+00:00</time></trkpt><trkpt lat="20.956308" lon="107.051994"><ele>-6.8</ele><time>2011-04-30T03:46:35.0000000+00:00</time></trkpt><trkpt lat="20.956324" lon="107.051918"><ele>-9.1</ele><time>2011-04-30T03:46:40.0000000+00:00</time></trkpt><trkpt lat="20.956339" lon="107.051834"><ele>-8.7</ele><time>2011-04-30T03:46:45.0000000+00:00</time></trkpt><trkpt lat="20.956343" lon="107.051773"><ele>-8.7</ele><time>2011-04-30T03:46:50.0000000+00:00</time></trkpt><trkpt lat="20.956348" lon="107.05172"><ele>-8.6</ele><time>2011-04-30T03:46:55.0000000+00:00</time></trkpt><trkpt lat="20.956356" lon="107.051651"><ele>-9.0</ele><time>2011-04-30T03:47:00.0000000+00:00</time></trkpt><trkpt lat="20.956367" lon="107.051598"><ele>-9.0</ele><time>2011-04-30T03:47:05.0000000+00:00</time></trkpt><trkpt lat="20.956387" lon="107.051559"><ele>-8.6</ele><time>2011-04-30T03:47:10.0000000+00:00</time></trkpt><trkpt lat="20.956385" lon="107.051498"><ele>-8.3</ele><time>2011-04-30T03:47:15.0000000+00:00</time></trkpt><trkpt lat="20.956402" lon="107.051422"><ele>-9.1</ele><time>2011-04-30T03:47:20.0000000+00:00</time></trkpt><trkpt lat="20.956411" lon="107.051361"><ele>-9.5</ele><time>2011-04-30T03:47:25.0000000+00:00</time></trkpt><trkpt lat="20.956404" lon="107.0513"><ele>-9.3</ele><time>2011-04-30T03:47:30.0000000+00:00</time></trkpt><trkpt lat="20.956421" lon="107.051247"><ele>-9.8</ele><time>2011-04-30T03:47:35.0000000+00:00</time></trkpt><trkpt lat="20.956409" lon="107.051193"><ele>-8.6</ele><time>2011-04-30T03:47:40.0000000+00:00</time></trkpt><trkpt lat="20.9564" lon="107.051147"><ele>-8.4</ele><time>2011-04-30T03:47:45.0000000+00:00</time></trkpt><trkpt lat="20.956406" lon="107.051086"><ele>-8.5</ele><time>2011-04-30T03:47:50.0000000+00:00</time></trkpt><trkpt lat="20.956406" lon="107.051033"><ele>-8.4</ele><time>2011-04-30T03:47:55.0000000+00:00</time></trkpt><trkpt lat="20.956415" lon="107.050972"><ele>-8.2</ele><time>2011-04-30T03:48:00.0000000+00:00</time></trkpt><trkpt lat="20.956434" lon="107.050896"><ele>-8.6</ele><time>2011-04-30T03:48:05.0000000+00:00</time></trkpt><trkpt lat="20.956442" lon="107.05085"><ele>-7.7</ele><time>2011-04-30T03:48:10.0000000+00:00</time></trkpt><trkpt lat="20.956455" lon="107.050797"><ele>-6.3</ele><time>2011-04-30T03:48:15.0000000+00:00</time></trkpt><trkpt lat="20.956467" lon="107.050743"><ele>-5.2</ele><time>2011-04-30T03:48:20.0000000+00:00</time></trkpt><trkpt lat="20.956467" lon="107.050697"><ele>-3.7</ele><time>2011-04-30T03:48:25.0000000+00:00</time></trkpt><trkpt lat="20.956484" lon="107.050636"><ele>-3.3</ele><time>2011-04-30T03:48:30.0000000+00:00</time></trkpt><trkpt lat="20.956493" lon="107.050583"><ele>-1.7</ele><time>2011-04-30T03:48:35.0000000+00:00</time></trkpt><trkpt lat="20.956499" lon="107.050529"><ele>-0.7</ele><time>2011-04-30T03:48:40.0000000+00:00</time></trkpt><trkpt lat="20.956501" lon="107.050468"><ele>-0.9</ele><time>2011-04-30T03:48:45.0000000+00:00</time></trkpt><trkpt lat="20.956482" lon="107.05043"><ele>0.2</ele><time>2011-04-30T03:48:50.0000000+00:00</time></trkpt><trkpt lat="20.956467" lon="107.050385"><ele>0.0</ele><time>2011-04-30T03:48:55.0000000+00:00</time></trkpt><trkpt lat="20.956467" lon="107.050331"><ele>0.4</ele><time>2011-04-30T03:49:00.0000000+00:00</time></trkpt><trkpt lat="20.956455" lon="107.050285"><ele>0.7</ele><time>2011-04-30T03:49:05.0000000+00:00</time></trkpt><trkpt lat="20.956444" lon="107.050247"><ele>0.6</ele><time>2011-04-30T03:49:10.0000000+00:00</time></trkpt><trkpt lat="20.956446" lon="107.050194"><ele>0.2</ele><time>2011-04-30T03:49:15.0000000+00:00</time></trkpt><trkpt lat="20.956446" lon="107.050179"><ele>0.9</ele><time>2011-04-30T03:49:20.0000000+00:00</time></trkpt><trkpt lat="20.956419" lon="107.050148"><ele>1.6</ele><time>2011-04-30T03:49:25.0000000+00:00</time></trkpt><trkpt lat="20.956417" lon="107.05014"><ele>1.7</ele><time>2011-04-30T03:49:30.0000000+00:00</time></trkpt><trkpt lat="20.956417" lon="107.05014"><ele>1.7</ele><time>2011-04-30T03:49:35.0000000+00:00</time></trkpt><trkpt lat="20.956417" lon="107.050148"><ele>1.7</ele><time>2011-04-30T03:49:40.0000000+00:00</time></trkpt><trkpt lat="20.956417" lon="107.05014"><ele>1.7</ele><time>2011-04-30T03:49:45.0000000+00:00</time></trkpt><trkpt lat="20.956415" lon="107.05014"><ele>1.9</ele><time>2011-04-30T03:49:50.0000000+00:00</time></trkpt><trkpt lat="20.956385" lon="107.050125"><ele>3.5</ele><time>2011-04-30T03:49:55.0000000+00:00</time></trkpt><trkpt lat="20.956377" lon="107.050117"><ele>5.0</ele><time>2011-04-30T03:50:00.0000000+00:00</time></trkpt><trkpt lat="20.956367" lon="107.05011"><ele>5.5</ele><time>2011-04-30T03:50:05.0000000+00:00</time></trkpt><trkpt lat="20.956341" lon="107.05011"><ele>6.0</ele><time>2011-04-30T03:50:10.0000000+00:00</time></trkpt><trkpt lat="20.956324" lon="107.05011"><ele>4.9</ele><time>2011-04-30T03:50:15.0000000+00:00</time></trkpt><trkpt lat="20.95632" lon="107.05011"><ele>4.7</ele><time>2011-04-30T03:50:20.0000000+00:00</time></trkpt><trkpt lat="20.956318" lon="107.05011"><ele>4.7</ele><time>2011-04-30T03:50:25.0000000+00:00</time></trkpt><trkpt lat="20.956318" lon="107.05011"><ele>4.7</ele><time>2011-04-30T03:50:30.0000000+00:00</time></trkpt><trkpt lat="20.956318" lon="107.05011"><ele>4.7</ele><time>2011-04-30T03:50:35.0000000+00:00</time></trkpt><trkpt lat="20.956318" lon="107.05011"><ele>4.7</ele><time>2011-04-30T03:50:40.0000000+00:00</time></trkpt><trkpt lat="20.956318" lon="107.05011"><ele>4.7</ele><time>2011-04-30T03:50:45.0000000+00:00</time></trkpt><trkpt lat="20.956318" lon="107.05011"><ele>4.7</ele><time>2011-04-30T03:50:50.0000000+00:00</time></trkpt><trkpt lat="20.956318" lon="107.05011"><ele>4.7</ele><time>2011-04-30T03:50:55.0000000+00:00</time></trkpt><trkpt lat="20.956318" lon="107.05011"><ele>4.6</ele><time>2011-04-30T03:51:00.0000000+00:00</time></trkpt><trkpt lat="20.956318" lon="107.05011"><ele>4.6</ele><time>2011-04-30T03:51:05.0000000+00:00</time></trkpt><trkpt lat="20.956318" lon="107.05011"><ele>4.7</ele><time>2011-04-30T03:51:10.0000000+00:00</time></trkpt><trkpt lat="20.956318" lon="107.05011"><ele>4.7</ele><time>2011-04-30T03:51:15.0000000+00:00</time></trkpt><trkpt lat="20.956318" lon="107.05011"><ele>4.7</ele><time>2011-04-30T03:51:20.0000000+00:00</time></trkpt><trkpt lat="20.956318" lon="107.05011"><ele>4.6</ele><time>2011-04-30T03:51:25.0000000+00:00</time></trkpt><trkpt lat="20.956318" lon="107.05011"><ele>4.6</ele><time>2011-04-30T03:51:30.0000000+00:00</time></trkpt><trkpt lat="20.956318" lon="107.05011"><ele>4.6</ele><time>2011-04-30T03:51:35.0000000+00:00</time></trkpt><trkpt lat="20.956318" lon="107.05011"><ele>4.6</ele><time>2011-04-30T03:51:40.0000000+00:00</time></trkpt><trkpt lat="20.95632" lon="107.050095"><ele>4.8</ele><time>2011-04-30T03:51:45.0000000+00:00</time></trkpt><trkpt lat="20.956324" lon="107.050064"><ele>4.5</ele><time>2011-04-30T03:51:50.0000000+00:00</time></trkpt><trkpt lat="20.956318" lon="107.050064"><ele>4.1</ele><time>2011-04-30T03:51:55.0000000+00:00</time></trkpt><trkpt lat="20.956316" lon="107.050072"><ele>4.3</ele><time>2011-04-30T03:52:00.0000000+00:00</time></trkpt><trkpt lat="20.956318" lon="107.050072"><ele>4.3</ele><time>2011-04-30T03:52:05.0000000+00:00</time></trkpt><trkpt lat="20.956318" lon="107.050072"><ele>4.3</ele><time>2011-04-30T03:52:10.0000000+00:00</time></trkpt><trkpt lat="20.956318" lon="107.050072"><ele>4.3</ele><time>2011-04-30T03:52:15.0000000+00:00</time></trkpt><trkpt lat="20.956318" lon="107.050072"><ele>4.3</ele><time>2011-04-30T03:52:20.0000000+00:00</time></trkpt><trkpt lat="20.956318" lon="107.050072"><ele>4.3</ele><time>2011-04-30T03:52:25.0000000+00:00</time></trkpt><trkpt lat="20.95632" lon="107.050064"><ele>4.2</ele><time>2011-04-30T03:52:30.0000000+00:00</time></trkpt><trkpt lat="20.956335" lon="107.050056"><ele>3.4</ele><time>2011-04-30T03:52:35.0000000+00:00</time></trkpt><trkpt lat="20.956396" lon="107.050041"><ele>1.8</ele><time>2011-04-30T03:52:40.0000000+00:00</time></trkpt><trkpt lat="20.956459" lon="107.050041"><ele>1.2</ele><time>2011-04-30T03:52:45.0000000+00:00</time></trkpt><trkpt lat="20.956516" lon="107.050041"><ele>0.4</ele><time>2011-04-30T03:52:50.0000000+00:00</time></trkpt><trkpt lat="20.956572" lon="107.050049"><ele>0.5</ele><time>2011-04-30T03:52:55.0000000+00:00</time></trkpt><trkpt lat="20.956633" lon="107.050049"><ele>0.4</ele><time>2011-04-30T03:53:00.0000000+00:00</time></trkpt><trkpt lat="20.956684" lon="107.050034"><ele>1.5</ele><time>2011-04-30T03:53:05.0000000+00:00</time></trkpt><trkpt lat="20.956724" lon="107.050011"><ele>2.1</ele><time>2011-04-30T03:53:10.0000000+00:00</time></trkpt><trkpt lat="20.95676" lon="107.04998"><ele>2.9</ele><time>2011-04-30T03:53:15.0000000+00:00</time></trkpt><trkpt lat="20.956774" lon="107.049934"><ele>2.7</ele><time>2011-04-30T03:53:20.0000000+00:00</time></trkpt><trkpt lat="20.956806" lon="107.049957"><ele>3.5</ele><time>2011-04-30T03:53:25.0000000+00:00</time></trkpt><trkpt lat="20.956884" lon="107.049973"><ele>4.0</ele><time>2011-04-30T03:53:30.0000000+00:00</time></trkpt><trkpt lat="20.956928" lon="107.049995"><ele>5.4</ele><time>2011-04-30T03:53:35.0000000+00:00</time></trkpt><trkpt lat="20.956961" lon="107.050018"><ele>5.9</ele><time>2011-04-30T03:53:40.0000000+00:00</time></trkpt><trkpt lat="20.956974" lon="107.050056"><ele>6.0</ele><time>2011-04-30T03:53:45.0000000+00:00</time></trkpt><trkpt lat="20.957005" lon="107.050087"><ele>5.9</ele><time>2011-04-30T03:53:50.0000000+00:00</time></trkpt><trkpt lat="20.957064" lon="107.050179"><ele>5.8</ele><time>2011-04-30T03:53:55.0000000+00:00</time></trkpt><trkpt lat="20.957121" lon="107.050201"><ele>6.3</ele><time>2011-04-30T03:54:00.0000000+00:00</time></trkpt><trkpt lat="20.957146" lon="107.050232"><ele>5.6</ele><time>2011-04-30T03:54:05.0000000+00:00</time></trkpt><trkpt lat="20.957153" lon="107.050232"><ele>5.6</ele><time>2011-04-30T03:54:10.0000000+00:00</time></trkpt><trkpt lat="20.957151" lon="107.05024"><ele>5.7</ele><time>2011-04-30T03:54:15.0000000+00:00</time></trkpt><trkpt lat="20.95715" lon="107.05024"><ele>5.7</ele><time>2011-04-30T03:54:20.0000000+00:00</time></trkpt><trkpt lat="20.95713" lon="107.050285"><ele>6.0</ele><time>2011-04-30T03:54:25.0000000+00:00</time></trkpt><trkpt lat="20.957111" lon="107.050323"><ele>6.5</ele><time>2011-04-30T03:54:30.0000000+00:00</time></trkpt><trkpt lat="20.957098" lon="107.050369"><ele>6.9</ele><time>2011-04-30T03:54:35.0000000+00:00</time></trkpt><trkpt lat="20.957085" lon="107.0504"><ele>7.1</ele><time>2011-04-30T03:54:40.0000000+00:00</time></trkpt><trkpt lat="20.957081" lon="107.050453"><ele>7.8</ele><time>2011-04-30T03:54:45.0000000+00:00</time></trkpt><trkpt lat="20.957102" lon="107.050415"><ele>11.5</ele><time>2011-04-30T03:54:50.0000000+00:00</time></trkpt><trkpt lat="20.957134" lon="107.050407"><ele>15.1</ele><time>2011-04-30T03:54:55.0000000+00:00</time></trkpt><trkpt lat="20.957153" lon="107.050415"><ele>16.7</ele><time>2011-04-30T03:55:00.0000000+00:00</time></trkpt><trkpt lat="20.957167" lon="107.050407"><ele>17.2</ele><time>2011-04-30T03:55:05.0000000+00:00</time></trkpt><trkpt lat="20.95718" lon="107.050423"><ele>17.7</ele><time>2011-04-30T03:55:10.0000000+00:00</time></trkpt><trkpt lat="20.957201" lon="107.050453"><ele>18.4</ele><time>2011-04-30T03:55:15.0000000+00:00</time></trkpt><trkpt lat="20.957203" lon="107.050461"><ele>19.1</ele><time>2011-04-30T03:55:20.0000000+00:00</time></trkpt><trkpt lat="20.957195" lon="107.050461"><ele>20.1</ele><time>2011-04-30T03:55:25.0000000+00:00</time></trkpt><trkpt lat="20.957195" lon="107.050468"><ele>20.5</ele><time>2011-04-30T03:55:30.0000000+00:00</time></trkpt><trkpt lat="20.957195" lon="107.050476"><ele>21.0</ele><time>2011-04-30T03:55:35.0000000+00:00</time></trkpt><trkpt lat="20.957195" lon="107.050476"><ele>21.6</ele><time>2011-04-30T03:55:40.0000000+00:00</time></trkpt><trkpt lat="20.957214" lon="107.050476"><ele>22.7</ele><time>2011-04-30T03:55:45.0000000+00:00</time></trkpt><trkpt lat="20.957241" lon="107.050468"><ele>24.4</ele><time>2011-04-30T03:55:50.0000000+00:00</time></trkpt><trkpt lat="20.957254" lon="107.050484"><ele>25.5</ele><time>2011-04-30T03:55:55.0000000+00:00</time></trkpt><trkpt lat="20.957237" lon="107.050507"><ele>26.6</ele><time>2011-04-30T03:56:00.0000000+00:00</time></trkpt><trkpt lat="20.957233" lon="107.050491"><ele>27.8</ele><time>2011-04-30T03:56:05.0000000+00:00</time></trkpt><trkpt lat="20.957232" lon="107.050499"><ele>28.5</ele><time>2011-04-30T03:56:10.0000000+00:00</time></trkpt><trkpt lat="20.957226" lon="107.050507"><ele>29.3</ele><time>2011-04-30T03:56:15.0000000+00:00</time></trkpt><trkpt lat="20.957241" lon="107.050514"><ele>30.3</ele><time>2011-04-30T03:56:20.0000000+00:00</time></trkpt><trkpt lat="20.957253" lon="107.05056"><ele>32.3</ele><time>2011-04-30T03:56:25.0000000+00:00</time></trkpt><trkpt lat="20.957289" lon="107.050552"><ele>33.5</ele><time>2011-04-30T03:56:30.0000000+00:00</time></trkpt><trkpt lat="20.957312" lon="107.050568"><ele>34.9</ele><time>2011-04-30T03:56:35.0000000+00:00</time></trkpt><trkpt lat="20.95735" lon="107.050575"><ele>36.6</ele><time>2011-04-30T03:56:40.0000000+00:00</time></trkpt><trkpt lat="20.957352" lon="107.050583"><ele>37.5</ele><time>2011-04-30T03:56:45.0000000+00:00</time></trkpt><trkpt lat="20.957355" lon="107.050583"><ele>38.5</ele><time>2011-04-30T03:56:50.0000000+00:00</time></trkpt><trkpt lat="20.957386" lon="107.050575"><ele>39.7</ele><time>2011-04-30T03:56:55.0000000+00:00</time></trkpt><trkpt lat="20.957399" lon="107.05056"><ele>41.0</ele><time>2011-04-30T03:57:00.0000000+00:00</time></trkpt><trkpt lat="20.957417" lon="107.050545"><ele>41.2</ele><time>2011-04-30T03:57:05.0000000+00:00</time></trkpt><trkpt lat="20.957418" lon="107.05056"><ele>42.0</ele><time>2011-04-30T03:57:10.0000000+00:00</time></trkpt><trkpt lat="20.957426" lon="107.05056"><ele>42.8</ele><time>2011-04-30T03:57:15.0000000+00:00</time></trkpt><trkpt lat="20.957434" lon="107.050552"><ele>43.5</ele><time>2011-04-30T03:57:20.0000000+00:00</time></trkpt><trkpt lat="20.957439" lon="107.050552"><ele>44.3</ele><time>2011-04-30T03:57:25.0000000+00:00</time></trkpt><trkpt lat="20.957449" lon="107.050552"><ele>45.0</ele><time>2011-04-30T03:57:30.0000000+00:00</time></trkpt><trkpt lat="20.957458" lon="107.050545"><ele>45.9</ele><time>2011-04-30T03:57:35.0000000+00:00</time></trkpt><trkpt lat="20.957489" lon="107.050545"><ele>47.1</ele><time>2011-04-30T03:57:40.0000000+00:00</time></trkpt><trkpt lat="20.957533" lon="107.050529"><ele>48.6</ele><time>2011-04-30T03:57:45.0000000+00:00</time></trkpt><trkpt lat="20.957542" lon="107.050529"><ele>50.0</ele><time>2011-04-30T03:57:50.0000000+00:00</time></trkpt><trkpt lat="20.957561" lon="107.050514"><ele>51.4</ele><time>2011-04-30T03:57:55.0000000+00:00</time></trkpt><trkpt lat="20.95756" lon="107.050499"><ele>52.1</ele><time>2011-04-30T03:58:00.0000000+00:00</time></trkpt><trkpt lat="20.957539" lon="107.050499"><ele>52.4</ele><time>2011-04-30T03:58:05.0000000+00:00</time></trkpt><trkpt lat="20.957525" lon="107.050468"><ele>52.3</ele><time>2011-04-30T03:58:10.0000000+00:00</time></trkpt><trkpt lat="20.957516" lon="107.050476"><ele>51.8</ele><time>2011-04-30T03:58:15.0000000+00:00</time></trkpt><trkpt lat="20.95752" lon="107.050491"><ele>52.2</ele><time>2011-04-30T03:58:20.0000000+00:00</time></trkpt><trkpt lat="20.95752" lon="107.050491"><ele>52.9</ele><time>2011-04-30T03:58:25.0000000+00:00</time></trkpt><trkpt lat="20.957521" lon="107.050491"><ele>53.6</ele><time>2011-04-30T03:58:30.0000000+00:00</time></trkpt><trkpt lat="20.95752" lon="107.050491"><ele>54.5</ele><time>2011-04-30T03:58:35.0000000+00:00</time></trkpt><trkpt lat="20.957485" lon="107.050476"><ele>55.2</ele><time>2011-04-30T03:58:40.0000000+00:00</time></trkpt><trkpt lat="20.957453" lon="107.050446"><ele>55.5</ele><time>2011-04-30T03:58:45.0000000+00:00</time></trkpt><trkpt lat="20.957376" lon="107.050461"><ele>55.9</ele><time>2011-04-30T03:58:50.0000000+00:00</time></trkpt><trkpt lat="20.957338" lon="107.050468"><ele>56.5</ele><time>2011-04-30T03:58:55.0000000+00:00</time></trkpt><trkpt lat="20.957323" lon="107.050468"><ele>56.7</ele><time>2011-04-30T03:59:00.0000000+00:00</time></trkpt><trkpt lat="20.95731" lon="107.050468"><ele>57.2</ele><time>2011-04-30T03:59:05.0000000+00:00</time></trkpt><trkpt lat="20.957397" lon="107.050804"><ele>52.0</ele><time>2011-04-30T03:59:47.0000000+00:00</time></trkpt><trkpt lat="20.95739" lon="107.050804"><ele>52.0</ele><time>2011-04-30T03:59:52.0000000+00:00</time></trkpt><trkpt lat="20.957386" lon="107.050804"><ele>52.0</ele><time>2011-04-30T03:59:57.0000000+00:00</time></trkpt><trkpt lat="20.957329" lon="107.050476"><ele>53.6</ele><time>2011-04-30T04:00:19.0000000+00:00</time></trkpt><trkpt lat="20.957327" lon="107.05043"><ele>69.8</ele><time>2011-04-30T04:00:24.0000000+00:00</time></trkpt><trkpt lat="20.957321" lon="107.050423"><ele>69.3</ele><time>2011-04-30T04:00:29.0000000+00:00</time></trkpt><trkpt lat="20.957317" lon="107.050415"><ele>69.0</ele><time>2011-04-30T04:00:34.0000000+00:00</time></trkpt><trkpt lat="20.957319" lon="107.0504"><ele>68.9</ele><time>2011-04-30T04:00:39.0000000+00:00</time></trkpt><trkpt lat="20.957352" lon="107.050346"><ele>66.1</ele><time>2011-04-30T04:00:44.0000000+00:00</time></trkpt><trkpt lat="20.957369" lon="107.050339"><ele>64.7</ele><time>2011-04-30T04:00:49.0000000+00:00</time></trkpt><trkpt lat="20.957388" lon="107.050339"><ele>63.4</ele><time>2011-04-30T04:00:54.0000000+00:00</time></trkpt><trkpt lat="20.957394" lon="107.050339"><ele>63.4</ele><time>2011-04-30T04:00:59.0000000+00:00</time></trkpt><trkpt lat="20.957396" lon="107.050339"><ele>63.4</ele><time>2011-04-30T04:01:04.0000000+00:00</time></trkpt><trkpt lat="20.957392" lon="107.050346"><ele>63.4</ele><time>2011-04-30T04:01:09.0000000+00:00</time></trkpt><trkpt lat="20.95739" lon="107.050362"><ele>63.3</ele><time>2011-04-30T04:01:14.0000000+00:00</time></trkpt><trkpt lat="20.957384" lon="107.050392"><ele>62.3</ele><time>2011-04-30T04:01:19.0000000+00:00</time></trkpt><trkpt lat="20.957397" lon="107.050415"><ele>60.6</ele><time>2011-04-30T04:01:24.0000000+00:00</time></trkpt><trkpt lat="20.957417" lon="107.050407"><ele>60.0</ele><time>2011-04-30T04:01:29.0000000+00:00</time></trkpt><trkpt lat="20.957418" lon="107.050415"><ele>59.9</ele><time>2011-04-30T04:01:34.0000000+00:00</time></trkpt><trkpt lat="20.95742" lon="107.050423"><ele>59.8</ele><time>2011-04-30T04:01:39.0000000+00:00</time></trkpt><trkpt lat="20.957415" lon="107.050446"><ele>59.4</ele><time>2011-04-30T04:01:44.0000000+00:00</time></trkpt><trkpt lat="20.957392" lon="107.050499"><ele>58.6</ele><time>2011-04-30T04:01:49.0000000+00:00</time></trkpt><trkpt lat="20.957363" lon="107.050522"><ele>58.0</ele><time>2011-04-30T04:01:54.0000000+00:00</time></trkpt><trkpt lat="20.957396" lon="107.050529"><ele>57.4</ele><time>2011-04-30T04:01:59.0000000+00:00</time></trkpt><trkpt lat="20.957441" lon="107.05056"><ele>56.7</ele><time>2011-04-30T04:02:04.0000000+00:00</time></trkpt><trkpt lat="20.957451" lon="107.050568"><ele>56.2</ele><time>2011-04-30T04:02:09.0000000+00:00</time></trkpt><trkpt lat="20.957487" lon="107.050568"><ele>55.8</ele><time>2011-04-30T04:02:14.0000000+00:00</time></trkpt><trkpt lat="20.95752" lon="107.050598"><ele>55.2</ele><time>2011-04-30T04:02:19.0000000+00:00</time></trkpt><trkpt lat="20.957531" lon="107.050629"><ele>54.8</ele><time>2011-04-30T04:02:24.0000000+00:00</time></trkpt><trkpt lat="20.957539" lon="107.050636"><ele>54.5</ele><time>2011-04-30T04:02:29.0000000+00:00</time></trkpt><trkpt lat="20.957546" lon="107.050652"><ele>54.2</ele><time>2011-04-30T04:02:34.0000000+00:00</time></trkpt><trkpt lat="20.957529" lon="107.050613"><ele>54.0</ele><time>2011-04-30T04:02:39.0000000+00:00</time></trkpt><trkpt lat="20.957508" lon="107.050468"><ele>53.6</ele><time>2011-04-30T04:02:44.0000000+00:00</time></trkpt><trkpt lat="20.957523" lon="107.050446"><ele>53.4</ele><time>2011-04-30T04:02:49.0000000+00:00</time></trkpt><trkpt lat="20.957541" lon="107.050385"><ele>53.0</ele><time>2011-04-30T04:02:54.0000000+00:00</time></trkpt><trkpt lat="20.957573" lon="107.050339"><ele>52.1</ele><time>2011-04-30T04:02:59.0000000+00:00</time></trkpt><trkpt lat="20.957584" lon="107.050323"><ele>51.4</ele><time>2011-04-30T04:03:04.0000000+00:00</time></trkpt><trkpt lat="20.957579" lon="107.050354"><ele>51.1</ele><time>2011-04-30T04:03:09.0000000+00:00</time></trkpt><trkpt lat="20.957537" lon="107.050323"><ele>50.7</ele><time>2011-04-30T04:03:14.0000000+00:00</time></trkpt><trkpt lat="20.957495" lon="107.050339"><ele>50.8</ele><time>2011-04-30T04:03:19.0000000+00:00</time></trkpt><trkpt lat="20.957464" lon="107.050392"><ele>50.9</ele><time>2011-04-30T04:03:24.0000000+00:00</time></trkpt><trkpt lat="20.957466" lon="107.050407"><ele>50.6</ele><time>2011-04-30T04:03:29.0000000+00:00</time></trkpt><trkpt lat="20.95746" lon="107.0504"><ele>50.3</ele><time>2011-04-30T04:03:34.0000000+00:00</time></trkpt><trkpt lat="20.957462" lon="107.050392"><ele>50.1</ele><time>2011-04-30T04:03:39.0000000+00:00</time></trkpt><trkpt lat="20.957449" lon="107.050392"><ele>50.1</ele><time>2011-04-30T04:03:44.0000000+00:00</time></trkpt><trkpt lat="20.957443" lon="107.050392"><ele>50.2</ele><time>2011-04-30T04:03:49.0000000+00:00</time></trkpt><trkpt lat="20.957439" lon="107.0504"><ele>50.2</ele><time>2011-04-30T04:03:54.0000000+00:00</time></trkpt><trkpt lat="20.957439" lon="107.050407"><ele>50.3</ele><time>2011-04-30T04:03:59.0000000+00:00</time></trkpt><trkpt lat="20.957441" lon="107.050415"><ele>50.3</ele><time>2011-04-30T04:04:04.0000000+00:00</time></trkpt><trkpt lat="20.957428" lon="107.050453"><ele>50.4</ele><time>2011-04-30T04:04:09.0000000+00:00</time></trkpt><trkpt lat="20.957397" lon="107.050522"><ele>50.4</ele><time>2011-04-30T04:04:14.0000000+00:00</time></trkpt><trkpt lat="20.957376" lon="107.050537"><ele>50.3</ele><time>2011-04-30T04:04:19.0000000+00:00</time></trkpt><trkpt lat="20.957331" lon="107.050537"><ele>49.9</ele><time>2011-04-30T04:04:24.0000000+00:00</time></trkpt><trkpt lat="20.957306" lon="107.050522"><ele>49.5</ele><time>2011-04-30T04:04:29.0000000+00:00</time></trkpt><trkpt lat="20.957312" lon="107.050507"><ele>49.1</ele><time>2011-04-30T04:04:34.0000000+00:00</time></trkpt><trkpt lat="20.957283" lon="107.050522"><ele>49.2</ele><time>2011-04-30T04:04:39.0000000+00:00</time></trkpt><trkpt lat="20.957264" lon="107.050507"><ele>49.0</ele><time>2011-04-30T04:04:44.0000000+00:00</time></trkpt><trkpt lat="20.957237" lon="107.050514"><ele>48.7</ele><time>2011-04-30T04:04:49.0000000+00:00</time></trkpt><trkpt lat="20.957211" lon="107.050514"><ele>48.7</ele><time>2011-04-30T04:04:54.0000000+00:00</time></trkpt><trkpt lat="20.957184" lon="107.050529"><ele>48.6</ele><time>2011-04-30T04:04:59.0000000+00:00</time></trkpt><trkpt lat="20.957157" lon="107.050552"><ele>48.5</ele><time>2011-04-30T04:05:04.0000000+00:00</time></trkpt><trkpt lat="20.957066" lon="107.050568"><ele>48.5</ele><time>2011-04-30T04:05:09.0000000+00:00</time></trkpt><trkpt lat="20.957399" lon="107.050285"><ele>54.3</ele><time>2011-04-30T04:05:47.0000000+00:00</time></trkpt><trkpt lat="20.957438" lon="107.050323"><ele>65.3</ele><time>2011-04-30T04:05:52.0000000+00:00</time></trkpt><trkpt lat="20.957432" lon="107.050308"><ele>48.2</ele><time>2011-04-30T04:05:57.0000000+00:00</time></trkpt><trkpt lat="20.957447" lon="107.050301"><ele>45.7</ele><time>2011-04-30T04:06:02.0000000+00:00</time></trkpt><trkpt lat="20.957447" lon="107.050323"><ele>42.8</ele><time>2011-04-30T04:06:07.0000000+00:00</time></trkpt><trkpt lat="20.957458" lon="107.050308"><ele>42.9</ele><time>2011-04-30T04:06:12.0000000+00:00</time></trkpt><trkpt lat="20.957449" lon="107.050323"><ele>43.5</ele><time>2011-04-30T04:06:17.0000000+00:00</time></trkpt><trkpt lat="20.957443" lon="107.050354"><ele>44.1</ele><time>2011-04-30T04:06:22.0000000+00:00</time></trkpt><trkpt lat="20.957441" lon="107.050354"><ele>44.9</ele><time>2011-04-30T04:06:27.0000000+00:00</time></trkpt><trkpt lat="20.957466" lon="107.050346"><ele>45.5</ele><time>2011-04-30T04:06:32.0000000+00:00</time></trkpt><trkpt lat="20.95747" lon="107.050346"><ele>45.8</ele><time>2011-04-30T04:06:37.0000000+00:00</time></trkpt><trkpt lat="20.957478" lon="107.050339"><ele>45.8</ele><time>2011-04-30T04:06:42.0000000+00:00</time></trkpt><trkpt lat="20.957481" lon="107.050339"><ele>45.9</ele><time>2011-04-30T04:06:47.0000000+00:00</time></trkpt><trkpt lat="20.957479" lon="107.050331"><ele>46.0</ele><time>2011-04-30T04:06:52.0000000+00:00</time></trkpt><trkpt lat="20.957478" lon="107.050323"><ele>46.0</ele><time>2011-04-30T04:06:57.0000000+00:00</time></trkpt><trkpt lat="20.957476" lon="107.050323"><ele>46.1</ele><time>2011-04-30T04:07:02.0000000+00:00</time></trkpt><trkpt lat="20.957472" lon="107.050323"><ele>46.2</ele><time>2011-04-30T04:07:07.0000000+00:00</time></trkpt><trkpt lat="20.95746" lon="107.050323"><ele>46.3</ele><time>2011-04-30T04:07:12.0000000+00:00</time></trkpt><trkpt lat="20.957449" lon="107.050331"><ele>46.2</ele><time>2011-04-30T04:07:17.0000000+00:00</time></trkpt><trkpt lat="20.95743" lon="107.050354"><ele>46.3</ele><time>2011-04-30T04:07:22.0000000+00:00</time></trkpt><trkpt lat="20.95742" lon="107.050346"><ele>46.2</ele><time>2011-04-30T04:07:27.0000000+00:00</time></trkpt><trkpt lat="20.95743" lon="107.050323"><ele>45.9</ele><time>2011-04-30T04:07:32.0000000+00:00</time></trkpt><trkpt lat="20.957415" lon="107.050316"><ele>45.7</ele><time>2011-04-30T04:07:37.0000000+00:00</time></trkpt><trkpt lat="20.957445" lon="107.050301"><ele>45.9</ele><time>2011-04-30T04:07:42.0000000+00:00</time></trkpt><trkpt lat="20.957464" lon="107.050301"><ele>45.9</ele><time>2011-04-30T04:07:47.0000000+00:00</time></trkpt><trkpt lat="20.957457" lon="107.050308"><ele>45.8</ele><time>2011-04-30T04:07:52.0000000+00:00</time></trkpt><trkpt lat="20.957485" lon="107.050308"><ele>45.9</ele><time>2011-04-30T04:07:57.0000000+00:00</time></trkpt><trkpt lat="20.957497" lon="107.050316"><ele>45.7</ele><time>2011-04-30T04:08:02.0000000+00:00</time></trkpt><trkpt lat="20.957508" lon="107.050316"><ele>45.5</ele><time>2011-04-30T04:08:07.0000000+00:00</time></trkpt><trkpt lat="20.957495" lon="107.050385"><ele>45.8</ele><time>2011-04-30T04:08:12.0000000+00:00</time></trkpt><trkpt lat="20.957495" lon="107.05043"><ele>45.6</ele><time>2011-04-30T04:08:17.0000000+00:00</time></trkpt><trkpt lat="20.957502" lon="107.05043"><ele>45.6</ele><time>2011-04-30T04:08:22.0000000+00:00</time></trkpt><trkpt lat="20.957495" lon="107.050438"><ele>45.8</ele><time>2011-04-30T04:08:27.0000000+00:00</time></trkpt><trkpt lat="20.957502" lon="107.050407"><ele>45.9</ele><time>2011-04-30T04:08:32.0000000+00:00</time></trkpt><trkpt lat="20.957504" lon="107.0504"><ele>46.0</ele><time>2011-04-30T04:08:37.0000000+00:00</time></trkpt><trkpt lat="20.957489" lon="107.050392"><ele>46.0</ele><time>2011-04-30T04:08:42.0000000+00:00</time></trkpt><trkpt lat="20.957443" lon="107.050438"><ele>46.0</ele><time>2011-04-30T04:08:47.0000000+00:00</time></trkpt><trkpt lat="20.957401" lon="107.050453"><ele>45.8</ele><time>2011-04-30T04:08:52.0000000+00:00</time></trkpt><trkpt lat="20.957411" lon="107.050415"><ele>45.4</ele><time>2011-04-30T04:08:57.0000000+00:00</time></trkpt><trkpt lat="20.957428" lon="107.050369"><ele>45.0</ele><time>2011-04-30T04:09:02.0000000+00:00</time></trkpt><trkpt lat="20.957439" lon="107.050323"><ele>44.5</ele><time>2011-04-30T04:09:07.0000000+00:00</time></trkpt><trkpt lat="20.957428" lon="107.050308"><ele>44.8</ele><time>2011-04-30T04:09:12.0000000+00:00</time></trkpt><trkpt lat="20.957422" lon="107.050278"><ele>45.0</ele><time>2011-04-30T04:09:17.0000000+00:00</time></trkpt><trkpt lat="20.95742" lon="107.050285"><ele>44.9</ele><time>2011-04-30T04:09:22.0000000+00:00</time></trkpt><trkpt lat="20.95742" lon="107.050278"><ele>44.9</ele><time>2011-04-30T04:09:27.0000000+00:00</time></trkpt><trkpt lat="20.957424" lon="107.05027"><ele>44.9</ele><time>2011-04-30T04:09:32.0000000+00:00</time></trkpt><trkpt lat="20.957428" lon="107.050262"><ele>45.0</ele><time>2011-04-30T04:09:37.0000000+00:00</time></trkpt><trkpt lat="20.957436" lon="107.050255"><ele>45.0</ele><time>2011-04-30T04:09:42.0000000+00:00</time></trkpt><trkpt lat="20.957441" lon="107.050255"><ele>45.0</ele><time>2011-04-30T04:09:47.0000000+00:00</time></trkpt><trkpt lat="20.957441" lon="107.050278"><ele>44.9</ele><time>2011-04-30T04:09:52.0000000+00:00</time></trkpt><trkpt lat="20.957428" lon="107.050339"><ele>44.5</ele><time>2011-04-30T04:09:57.0000000+00:00</time></trkpt><trkpt lat="20.957415" lon="107.050385"><ele>44.2</ele><time>2011-04-30T04:10:02.0000000+00:00</time></trkpt><trkpt lat="20.957384" lon="107.050438"><ele>44.1</ele><time>2011-04-30T04:10:07.0000000+00:00</time></trkpt><trkpt lat="20.957367" lon="107.050461"><ele>44.3</ele><time>2011-04-30T04:10:12.0000000+00:00</time></trkpt><trkpt lat="20.957411" lon="107.050476"><ele>44.3</ele><time>2011-04-30T04:10:17.0000000+00:00</time></trkpt><trkpt lat="20.95738" lon="107.050461"><ele>44.6</ele><time>2011-04-30T04:10:22.0000000+00:00</time></trkpt><trkpt lat="20.957405" lon="107.050484"><ele>44.2</ele><time>2011-04-30T04:10:27.0000000+00:00</time></trkpt><trkpt lat="20.957422" lon="107.050461"><ele>44.2</ele><time>2011-04-30T04:10:32.0000000+00:00</time></trkpt><trkpt lat="20.957401" lon="107.050446"><ele>44.3</ele><time>2011-04-30T04:10:37.0000000+00:00</time></trkpt><trkpt lat="20.957428" lon="107.050362"><ele>44.1</ele><time>2011-04-30T04:10:42.0000000+00:00</time></trkpt><trkpt lat="20.957458" lon="107.050316"><ele>44.1</ele><time>2011-04-30T04:10:47.0000000+00:00</time></trkpt><trkpt lat="20.957474" lon="107.050308"><ele>43.9</ele><time>2011-04-30T04:10:52.0000000+00:00</time></trkpt><trkpt lat="20.957489" lon="107.050255"><ele>43.8</ele><time>2011-04-30T04:10:57.0000000+00:00</time></trkpt><trkpt lat="20.957441" lon="107.050262"><ele>43.9</ele><time>2011-04-30T04:11:02.0000000+00:00</time></trkpt><trkpt lat="20.957394" lon="107.050217"><ele>43.9</ele><time>2011-04-30T04:11:07.0000000+00:00</time></trkpt><trkpt lat="20.957396" lon="107.050186"><ele>44.2</ele><time>2011-04-30T04:11:12.0000000+00:00</time></trkpt><trkpt lat="20.95738" lon="107.050171"><ele>44.3</ele><time>2011-04-30T04:11:17.0000000+00:00</time></trkpt><trkpt lat="20.957346" lon="107.050217"><ele>44.4</ele><time>2011-04-30T04:11:22.0000000+00:00</time></trkpt><trkpt lat="20.957348" lon="107.050217"><ele>44.5</ele><time>2011-04-30T04:11:27.0000000+00:00</time></trkpt><trkpt lat="20.957413" lon="107.050262"><ele>45.0</ele><time>2011-04-30T04:11:32.0000000+00:00</time></trkpt><trkpt lat="20.957418" lon="107.050316"><ele>45.4</ele><time>2011-04-30T04:11:37.0000000+00:00</time></trkpt><trkpt lat="20.957457" lon="107.050331"><ele>45.5</ele><time>2011-04-30T04:11:42.0000000+00:00</time></trkpt><trkpt lat="20.957502" lon="107.050308"><ele>45.6</ele><time>2011-04-30T04:11:47.0000000+00:00</time></trkpt><trkpt lat="20.957523" lon="107.050308"><ele>45.5</ele><time>2011-04-30T04:11:52.0000000+00:00</time></trkpt><trkpt lat="20.957531" lon="107.050316"><ele>45.4</ele><time>2011-04-30T04:11:57.0000000+00:00</time></trkpt><trkpt lat="20.957535" lon="107.050331"><ele>45.5</ele><time>2011-04-30T04:12:02.0000000+00:00</time></trkpt><trkpt lat="20.957521" lon="107.050339"><ele>45.5</ele><time>2011-04-30T04:12:07.0000000+00:00</time></trkpt><trkpt lat="20.957525" lon="107.050346"><ele>45.6</ele><time>2011-04-30T04:12:12.0000000+00:00</time></trkpt><trkpt lat="20.957529" lon="107.050346"><ele>45.7</ele><time>2011-04-30T04:12:17.0000000+00:00</time></trkpt><trkpt lat="20.957535" lon="107.050354"><ele>45.7</ele><time>2011-04-30T04:12:22.0000000+00:00</time></trkpt><trkpt lat="20.957542" lon="107.050415"><ele>45.5</ele><time>2011-04-30T04:12:27.0000000+00:00</time></trkpt><trkpt lat="20.957552" lon="107.050453"><ele>45.3</ele><time>2011-04-30T04:12:32.0000000+00:00</time></trkpt><trkpt lat="20.95755" lon="107.050453"><ele>45.2</ele><time>2011-04-30T04:12:37.0000000+00:00</time></trkpt><trkpt lat="20.957554" lon="107.050453"><ele>45.3</ele><time>2011-04-30T04:12:42.0000000+00:00</time></trkpt><trkpt lat="20.957556" lon="107.05043"><ele>45.5</ele><time>2011-04-30T04:12:47.0000000+00:00</time></trkpt><trkpt lat="20.957542" lon="107.050407"><ele>45.7</ele><time>2011-04-30T04:12:52.0000000+00:00</time></trkpt><trkpt lat="20.957535" lon="107.050392"><ele>45.9</ele><time>2011-04-30T04:12:57.0000000+00:00</time></trkpt><trkpt lat="20.957542" lon="107.050385"><ele>46.2</ele><time>2011-04-30T04:13:02.0000000+00:00</time></trkpt><trkpt lat="20.957546" lon="107.050377"><ele>46.3</ele><time>2011-04-30T04:13:07.0000000+00:00</time></trkpt><trkpt lat="20.95756" lon="107.050331"><ele>46.3</ele><time>2011-04-30T04:13:12.0000000+00:00</time></trkpt><trkpt lat="20.95755" lon="107.050301"><ele>46.5</ele><time>2011-04-30T04:13:17.0000000+00:00</time></trkpt><trkpt lat="20.957516" lon="107.050262"><ele>46.7</ele><time>2011-04-30T04:13:22.0000000+00:00</time></trkpt><trkpt lat="20.957491" lon="107.050217"><ele>47.0</ele><time>2011-04-30T04:13:27.0000000+00:00</time></trkpt><trkpt lat="20.957466" lon="107.050194"><ele>47.3</ele><time>2011-04-30T04:13:32.0000000+00:00</time></trkpt><trkpt lat="20.957453" lon="107.050194"><ele>47.5</ele><time>2011-04-30T04:13:37.0000000+00:00</time></trkpt><trkpt lat="20.957476" lon="107.050186"><ele>47.9</ele><time>2011-04-30T04:13:42.0000000+00:00</time></trkpt><trkpt lat="20.957428" lon="107.050179"><ele>48.5</ele><time>2011-04-30T04:13:47.0000000+00:00</time></trkpt><trkpt lat="20.95742" lon="107.050171"><ele>48.8</ele><time>2011-04-30T04:13:52.0000000+00:00</time></trkpt><trkpt lat="20.957409" lon="107.050163"><ele>49.0</ele><time>2011-04-30T04:13:57.0000000+00:00</time></trkpt><trkpt lat="20.957384" lon="107.050186"><ele>49.4</ele><time>2011-04-30T04:14:02.0000000+00:00</time></trkpt><trkpt lat="20.957405" lon="107.050224"><ele>50.1</ele><time>2011-04-30T04:14:07.0000000+00:00</time></trkpt><trkpt lat="20.957405" lon="107.050247"><ele>50.5</ele><time>2011-04-30T04:14:12.0000000+00:00</time></trkpt><trkpt lat="20.957411" lon="107.05024"><ele>51.1</ele><time>2011-04-30T04:14:17.0000000+00:00</time></trkpt><trkpt lat="20.957415" lon="107.050247"><ele>51.5</ele><time>2011-04-30T04:14:22.0000000+00:00</time></trkpt><trkpt lat="20.957415" lon="107.050247"><ele>51.9</ele><time>2011-04-30T04:14:27.0000000+00:00</time></trkpt><trkpt lat="20.957428" lon="107.050247"><ele>52.9</ele><time>2011-04-30T04:14:32.0000000+00:00</time></trkpt><trkpt lat="20.957436" lon="107.05024"><ele>53.4</ele><time>2011-04-30T04:14:37.0000000+00:00</time></trkpt><trkpt lat="20.957436" lon="107.050224"><ele>54.0</ele><time>2011-04-30T04:14:42.0000000+00:00</time></trkpt><trkpt lat="20.957432" lon="107.050232"><ele>54.5</ele><time>2011-04-30T04:14:47.0000000+00:00</time></trkpt><trkpt lat="20.957436" lon="107.050224"><ele>55.0</ele><time>2011-04-30T04:14:52.0000000+00:00</time></trkpt><trkpt lat="20.957445" lon="107.050217"><ele>55.5</ele><time>2011-04-30T04:14:57.0000000+00:00</time></trkpt><trkpt lat="20.957445" lon="107.050201"><ele>55.9</ele><time>2011-04-30T04:15:02.0000000+00:00</time></trkpt><trkpt lat="20.957447" lon="107.050247"><ele>56.0</ele><time>2011-04-30T04:15:07.0000000+00:00</time></trkpt><trkpt lat="20.957472" lon="107.050278"><ele>55.0</ele><time>2011-04-30T04:15:12.0000000+00:00</time></trkpt><trkpt lat="20.957466" lon="107.050285"><ele>54.7</ele><time>2011-04-30T04:15:17.0000000+00:00</time></trkpt><trkpt lat="20.957458" lon="107.05027"><ele>54.5</ele><time>2011-04-30T04:15:22.0000000+00:00</time></trkpt><trkpt lat="20.957458" lon="107.050262"><ele>54.5</ele><time>2011-04-30T04:15:27.0000000+00:00</time></trkpt><trkpt lat="20.957453" lon="107.05027"><ele>54.3</ele><time>2011-04-30T04:15:32.0000000+00:00</time></trkpt><trkpt lat="20.957462" lon="107.050308"><ele>54.1</ele><time>2011-04-30T04:15:37.0000000+00:00</time></trkpt><trkpt lat="20.957455" lon="107.050339"><ele>53.7</ele><time>2011-04-30T04:15:42.0000000+00:00</time></trkpt><trkpt lat="20.957462" lon="107.050346"><ele>53.4</ele><time>2011-04-30T04:15:47.0000000+00:00</time></trkpt><trkpt lat="20.957441" lon="107.050278"><ele>53.3</ele><time>2011-04-30T04:15:52.0000000+00:00</time></trkpt><trkpt lat="20.95742" lon="107.050369"><ele>52.1</ele><time>2011-04-30T04:15:57.0000000+00:00</time></trkpt><trkpt lat="20.957415" lon="107.050392"><ele>51.6</ele><time>2011-04-30T04:16:02.0000000+00:00</time></trkpt><trkpt lat="20.957386" lon="107.050423"><ele>51.1</ele><time>2011-04-30T04:16:07.0000000+00:00</time></trkpt><trkpt lat="20.957355" lon="107.05043"><ele>51.4</ele><time>2011-04-30T04:16:12.0000000+00:00</time></trkpt><trkpt lat="20.957346" lon="107.050423"><ele>52.1</ele><time>2011-04-30T04:16:17.0000000+00:00</time></trkpt><trkpt lat="20.957359" lon="107.050415"><ele>52.5</ele><time>2011-04-30T04:16:22.0000000+00:00</time></trkpt><trkpt lat="20.957363" lon="107.050407"><ele>52.5</ele><time>2011-04-30T04:16:27.0000000+00:00</time></trkpt><trkpt lat="20.957361" lon="107.050392"><ele>52.6</ele><time>2011-04-30T04:16:32.0000000+00:00</time></trkpt><trkpt lat="20.95735" lon="107.050369"><ele>52.5</ele><time>2011-04-30T04:16:37.0000000+00:00</time></trkpt><trkpt lat="20.957308" lon="107.0504"><ele>51.3</ele><time>2011-04-30T04:16:42.0000000+00:00</time></trkpt><trkpt lat="20.957336" lon="107.050339"><ele>48.7</ele><time>2011-04-30T04:16:47.0000000+00:00</time></trkpt><trkpt lat="20.957335" lon="107.050308"><ele>44.5</ele><time>2011-04-30T04:16:52.0000000+00:00</time></trkpt><trkpt lat="20.957333" lon="107.050377"><ele>43.4</ele><time>2011-04-30T04:16:57.0000000+00:00</time></trkpt><trkpt lat="20.957365" lon="107.050407"><ele>43.3</ele><time>2011-04-30T04:17:02.0000000+00:00</time></trkpt><trkpt lat="20.957392" lon="107.050377"><ele>42.1</ele><time>2011-04-30T04:17:07.0000000+00:00</time></trkpt><trkpt lat="20.957384" lon="107.050369"><ele>41.7</ele><time>2011-04-30T04:17:12.0000000+00:00</time></trkpt><trkpt lat="20.957407" lon="107.050346"><ele>41.5</ele><time>2011-04-30T04:17:17.0000000+00:00</time></trkpt><trkpt lat="20.957481" lon="107.05027"><ele>40.7</ele><time>2011-04-30T04:17:22.0000000+00:00</time></trkpt><trkpt lat="20.957499" lon="107.050285"><ele>40.8</ele><time>2011-04-30T04:17:27.0000000+00:00</time></trkpt><trkpt lat="20.957491" lon="107.05027"><ele>41.6</ele><time>2011-04-30T04:17:32.0000000+00:00</time></trkpt><trkpt lat="20.957491" lon="107.05027"><ele>41.9</ele><time>2011-04-30T04:17:37.0000000+00:00</time></trkpt><trkpt lat="20.957487" lon="107.050278"><ele>42.3</ele><time>2011-04-30T04:17:42.0000000+00:00</time></trkpt><trkpt lat="20.957458" lon="107.050323"><ele>43.5</ele><time>2011-04-30T04:17:47.0000000+00:00</time></trkpt><trkpt lat="20.957453" lon="107.050339"><ele>44.0</ele><time>2011-04-30T04:17:52.0000000+00:00</time></trkpt><trkpt lat="20.95743" lon="107.050346"><ele>43.9</ele><time>2011-04-30T04:17:57.0000000+00:00</time></trkpt><trkpt lat="20.957396" lon="107.050316"><ele>43.9</ele><time>2011-04-30T04:18:02.0000000+00:00</time></trkpt><trkpt lat="20.95722" lon="107.050476"><ele>43.0</ele><time>2011-04-30T04:18:56.0000000+00:00</time></trkpt><trkpt lat="20.957163" lon="107.050529"><ele>43.1</ele><time>2011-04-30T04:19:01.0000000+00:00</time></trkpt><trkpt lat="20.957176" lon="107.050545"><ele>43.0</ele><time>2011-04-30T04:19:06.0000000+00:00</time></trkpt><trkpt lat="20.957235" lon="107.050438"><ele>44.0</ele><time>2011-04-30T04:19:11.0000000+00:00</time></trkpt><trkpt lat="20.957289" lon="107.050415"><ele>46.5</ele><time>2011-04-30T04:19:16.0000000+00:00</time></trkpt><trkpt lat="20.957321" lon="107.050377"><ele>47.8</ele><time>2011-04-30T04:19:21.0000000+00:00</time></trkpt><trkpt lat="20.957293" lon="107.050407"><ele>48.8</ele><time>2011-04-30T04:19:26.0000000+00:00</time></trkpt><trkpt lat="20.957245" lon="107.050446"><ele>50.0</ele><time>2011-04-30T04:19:31.0000000+00:00</time></trkpt><trkpt lat="20.957224" lon="107.050468"><ele>50.8</ele><time>2011-04-30T04:19:36.0000000+00:00</time></trkpt><trkpt lat="20.957209" lon="107.050484"><ele>51.5</ele><time>2011-04-30T04:19:41.0000000+00:00</time></trkpt><trkpt lat="20.957224" lon="107.050491"><ele>51.5</ele><time>2011-04-30T04:19:46.0000000+00:00</time></trkpt><trkpt lat="20.957226" lon="107.050484"><ele>52.2</ele><time>2011-04-30T04:19:51.0000000+00:00</time></trkpt><trkpt lat="20.957228" lon="107.050491"><ele>52.4</ele><time>2011-04-30T04:19:56.0000000+00:00</time></trkpt><trkpt lat="20.957241" lon="107.050484"><ele>51.6</ele><time>2011-04-30T04:20:01.0000000+00:00</time></trkpt><trkpt lat="20.957239" lon="107.050484"><ele>51.3</ele><time>2011-04-30T04:20:06.0000000+00:00</time></trkpt><trkpt lat="20.957239" lon="107.050484"><ele>51.6</ele><time>2011-04-30T04:20:11.0000000+00:00</time></trkpt><trkpt lat="20.957266" lon="107.050461"><ele>51.1</ele><time>2011-04-30T04:20:16.0000000+00:00</time></trkpt><trkpt lat="20.957272" lon="107.050461"><ele>51.4</ele><time>2011-04-30T04:20:21.0000000+00:00</time></trkpt><trkpt lat="20.957273" lon="107.050461"><ele>51.6</ele><time>2011-04-30T04:20:26.0000000+00:00</time></trkpt><trkpt lat="20.957272" lon="107.050453"><ele>51.8</ele><time>2011-04-30T04:20:31.0000000+00:00</time></trkpt><trkpt lat="20.957272" lon="107.050461"><ele>51.8</ele><time>2011-04-30T04:20:36.0000000+00:00</time></trkpt><trkpt lat="20.957272" lon="107.050461"><ele>51.8</ele><time>2011-04-30T04:20:41.0000000+00:00</time></trkpt><trkpt lat="20.957272" lon="107.050461"><ele>51.9</ele><time>2011-04-30T04:20:46.0000000+00:00</time></trkpt><trkpt lat="20.957266" lon="107.050461"><ele>51.8</ele><time>2011-04-30T04:20:51.0000000+00:00</time></trkpt><trkpt lat="20.957273" lon="107.050446"><ele>51.8</ele><time>2011-04-30T04:20:56.0000000+00:00</time></trkpt><trkpt lat="20.957272" lon="107.050453"><ele>51.8</ele><time>2011-04-30T04:21:01.0000000+00:00</time></trkpt><trkpt lat="20.957272" lon="107.050453"><ele>51.7</ele><time>2011-04-30T04:21:06.0000000+00:00</time></trkpt><trkpt lat="20.957272" lon="107.050453"><ele>51.7</ele><time>2011-04-30T04:21:11.0000000+00:00</time></trkpt><trkpt lat="20.957285" lon="107.050438"><ele>51.6</ele><time>2011-04-30T04:21:16.0000000+00:00</time></trkpt><trkpt lat="20.957291" lon="107.050438"><ele>51.4</ele><time>2011-04-30T04:21:21.0000000+00:00</time></trkpt><trkpt lat="20.957319" lon="107.050453"><ele>51.4</ele><time>2011-04-30T04:21:26.0000000+00:00</time></trkpt><trkpt lat="20.957357" lon="107.0504"><ele>48.6</ele><time>2011-04-30T04:21:31.0000000+00:00</time></trkpt><trkpt lat="20.957361" lon="107.050385"><ele>49.7</ele><time>2011-04-30T04:21:36.0000000+00:00</time></trkpt><trkpt lat="20.95739" lon="107.050369"><ele>46.4</ele><time>2011-04-30T04:21:41.0000000+00:00</time></trkpt><trkpt lat="20.957392" lon="107.050369"><ele>46.5</ele><time>2011-04-30T04:21:46.0000000+00:00</time></trkpt><trkpt lat="20.957392" lon="107.050369"><ele>46.4</ele><time>2011-04-30T04:21:51.0000000+00:00</time></trkpt><trkpt lat="20.957392" lon="107.050369"><ele>46.4</ele><time>2011-04-30T04:21:56.0000000+00:00</time></trkpt><trkpt lat="20.957394" lon="107.050369"><ele>46.4</ele><time>2011-04-30T04:22:01.0000000+00:00</time></trkpt><trkpt lat="20.957396" lon="107.050362"><ele>46.3</ele><time>2011-04-30T04:22:06.0000000+00:00</time></trkpt><trkpt lat="20.957396" lon="107.050362"><ele>46.2</ele><time>2011-04-30T04:22:11.0000000+00:00</time></trkpt><trkpt lat="20.957396" lon="107.050362"><ele>46.2</ele><time>2011-04-30T04:22:16.0000000+00:00</time></trkpt><trkpt lat="20.957396" lon="107.050362"><ele>46.2</ele><time>2011-04-30T04:22:21.0000000+00:00</time></trkpt><trkpt lat="20.957396" lon="107.050362"><ele>46.2</ele><time>2011-04-30T04:22:26.0000000+00:00</time></trkpt><trkpt lat="20.957396" lon="107.050362"><ele>46.2</ele><time>2011-04-30T04:22:31.0000000+00:00</time></trkpt><trkpt lat="20.957396" lon="107.050362"><ele>46.2</ele><time>2011-04-30T04:22:36.0000000+00:00</time></trkpt><trkpt lat="20.957396" lon="107.050362"><ele>46.2</ele><time>2011-04-30T04:22:41.0000000+00:00</time></trkpt><trkpt lat="20.957396" lon="107.050362"><ele>46.1</ele><time>2011-04-30T04:22:46.0000000+00:00</time></trkpt><trkpt lat="20.957399" lon="107.050354"><ele>46.0</ele><time>2011-04-30T04:22:51.0000000+00:00</time></trkpt><trkpt lat="20.957401" lon="107.050354"><ele>45.9</ele><time>2011-04-30T04:22:56.0000000+00:00</time></trkpt><trkpt lat="20.957403" lon="107.050346"><ele>45.8</ele><time>2011-04-30T04:23:01.0000000+00:00</time></trkpt><trkpt lat="20.957405" lon="107.050346"><ele>45.6</ele><time>2011-04-30T04:23:06.0000000+00:00</time></trkpt><trkpt lat="20.957407" lon="107.050339"><ele>45.3</ele><time>2011-04-30T04:23:11.0000000+00:00</time></trkpt><trkpt lat="20.957411" lon="107.050331"><ele>45.0</ele><time>2011-04-30T04:23:16.0000000+00:00</time></trkpt><trkpt lat="20.957405" lon="107.050323"><ele>44.8</ele><time>2011-04-30T04:23:21.0000000+00:00</time></trkpt><trkpt lat="20.95739" lon="107.050331"><ele>44.9</ele><time>2011-04-30T04:23:26.0000000+00:00</time></trkpt><trkpt lat="20.95738" lon="107.050346"><ele>44.8</ele><time>2011-04-30T04:23:31.0000000+00:00</time></trkpt><trkpt lat="20.957371" lon="107.050392"><ele>44.8</ele><time>2011-04-30T04:23:36.0000000+00:00</time></trkpt><trkpt lat="20.957352" lon="107.050423"><ele>44.6</ele><time>2011-04-30T04:23:41.0000000+00:00</time></trkpt><trkpt lat="20.957302" lon="107.050468"><ele>44.4</ele><time>2011-04-30T04:23:46.0000000+00:00</time></trkpt><trkpt lat="20.95727" lon="107.050491"><ele>44.2</ele><time>2011-04-30T04:23:51.0000000+00:00</time></trkpt><trkpt lat="20.957247" lon="107.050507"><ele>44.0</ele><time>2011-04-30T04:23:56.0000000+00:00</time></trkpt><trkpt lat="20.957241" lon="107.050522"><ele>43.8</ele><time>2011-04-30T04:24:01.0000000+00:00</time></trkpt><trkpt lat="20.957235" lon="107.05056"><ele>43.6</ele><time>2011-04-30T04:24:06.0000000+00:00</time></trkpt><trkpt lat="20.957256" lon="107.05056"><ele>43.3</ele><time>2011-04-30T04:24:11.0000000+00:00</time></trkpt><trkpt lat="20.957264" lon="107.050545"><ele>43.1</ele><time>2011-04-30T04:24:16.0000000+00:00</time></trkpt><trkpt lat="20.957262" lon="107.050537"><ele>43.0</ele><time>2011-04-30T04:24:21.0000000+00:00</time></trkpt><trkpt lat="20.957264" lon="107.050529"><ele>42.9</ele><time>2011-04-30T04:24:26.0000000+00:00</time></trkpt><trkpt lat="20.957268" lon="107.050522"><ele>42.8</ele><time>2011-04-30T04:24:31.0000000+00:00</time></trkpt><trkpt lat="20.957273" lon="107.050522"><ele>42.7</ele><time>2011-04-30T04:24:36.0000000+00:00</time></trkpt><trkpt lat="20.957281" lon="107.050522"><ele>42.6</ele><time>2011-04-30T04:24:41.0000000+00:00</time></trkpt><trkpt lat="20.957287" lon="107.050552"><ele>42.5</ele><time>2011-04-30T04:24:46.0000000+00:00</time></trkpt><trkpt lat="20.957283" lon="107.050568"><ele>42.4</ele><time>2011-04-30T04:24:51.0000000+00:00</time></trkpt><trkpt lat="20.957285" lon="107.050575"><ele>42.4</ele><time>2011-04-30T04:24:56.0000000+00:00</time></trkpt><trkpt lat="20.957241" lon="107.050522"><ele>43.2</ele><time>2011-04-30T04:25:01.0000000+00:00</time></trkpt><trkpt lat="20.957237" lon="107.050522"><ele>43.2</ele><time>2011-04-30T04:25:06.0000000+00:00</time></trkpt><trkpt lat="20.957232" lon="107.050529"><ele>43.1</ele><time>2011-04-30T04:25:11.0000000+00:00</time></trkpt><trkpt lat="20.957232" lon="107.050529"><ele>43.0</ele><time>2011-04-30T04:25:16.0000000+00:00</time></trkpt><trkpt lat="20.957232" lon="107.050522"><ele>42.9</ele><time>2011-04-30T04:25:21.0000000+00:00</time></trkpt><trkpt lat="20.957233" lon="107.050522"><ele>42.9</ele><time>2011-04-30T04:25:26.0000000+00:00</time></trkpt><trkpt lat="20.957241" lon="107.050522"><ele>42.8</ele><time>2011-04-30T04:25:31.0000000+00:00</time></trkpt><trkpt lat="20.957245" lon="107.050522"><ele>42.7</ele><time>2011-04-30T04:25:36.0000000+00:00</time></trkpt><trkpt lat="20.957243" lon="107.050522"><ele>42.7</ele><time>2011-04-30T04:25:41.0000000+00:00</time></trkpt><trkpt lat="20.957241" lon="107.050522"><ele>42.6</ele><time>2011-04-30T04:25:46.0000000+00:00</time></trkpt><trkpt lat="20.957237" lon="107.050522"><ele>42.6</ele><time>2011-04-30T04:25:51.0000000+00:00</time></trkpt><trkpt lat="20.957243" lon="107.050499"><ele>43.1</ele><time>2011-04-30T04:25:56.0000000+00:00</time></trkpt><trkpt lat="20.957245" lon="107.050484"><ele>43.6</ele><time>2011-04-30T04:26:01.0000000+00:00</time></trkpt><trkpt lat="20.957233" lon="107.050491"><ele>43.7</ele><time>2011-04-30T04:26:06.0000000+00:00</time></trkpt><trkpt lat="20.95726" lon="107.050476"><ele>43.8</ele><time>2011-04-30T04:26:11.0000000+00:00</time></trkpt><trkpt lat="20.957296" lon="107.050491"><ele>43.8</ele><time>2011-04-30T04:26:16.0000000+00:00</time></trkpt><trkpt lat="20.957314" lon="107.050537"><ele>43.7</ele><time>2011-04-30T04:26:21.0000000+00:00</time></trkpt><trkpt lat="20.957304" lon="107.050468"><ele>43.7</ele><time>2011-04-30T04:26:26.0000000+00:00</time></trkpt><trkpt lat="20.957369" lon="107.050385"><ele>43.2</ele><time>2011-04-30T04:26:31.0000000+00:00</time></trkpt><trkpt lat="20.957367" lon="107.050392"><ele>43.1</ele><time>2011-04-30T04:26:36.0000000+00:00</time></trkpt><trkpt lat="20.957409" lon="107.050392"><ele>42.4</ele><time>2011-04-30T04:26:41.0000000+00:00</time></trkpt><trkpt lat="20.957417" lon="107.050346"><ele>40.8</ele><time>2011-04-30T04:26:46.0000000+00:00</time></trkpt><trkpt lat="20.957397" lon="107.050346"><ele>40.1</ele><time>2011-04-30T04:26:51.0000000+00:00</time></trkpt><trkpt lat="20.957376" lon="107.050323"><ele>40.4</ele><time>2011-04-30T04:26:56.0000000+00:00</time></trkpt><trkpt lat="20.95735" lon="107.050301"><ele>40.5</ele><time>2011-04-30T04:27:01.0000000+00:00</time></trkpt><trkpt lat="20.957315" lon="107.050285"><ele>40.7</ele><time>2011-04-30T04:27:06.0000000+00:00</time></trkpt><trkpt lat="20.957289" lon="107.050285"><ele>41.0</ele><time>2011-04-30T04:27:11.0000000+00:00</time></trkpt><trkpt lat="20.957275" lon="107.050285"><ele>38.0</ele><time>2011-04-30T04:27:16.0000000+00:00</time></trkpt><trkpt lat="20.957258" lon="107.05027"><ele>37.4</ele><time>2011-04-30T04:27:21.0000000+00:00</time></trkpt><trkpt lat="20.957256" lon="107.05027"><ele>37.6</ele><time>2011-04-30T04:27:26.0000000+00:00</time></trkpt><trkpt lat="20.957254" lon="107.05027"><ele>37.6</ele><time>2011-04-30T04:27:31.0000000+00:00</time></trkpt><trkpt lat="20.957247" lon="107.050247"><ele>35.7</ele><time>2011-04-30T04:27:36.0000000+00:00</time></trkpt><trkpt lat="20.957247" lon="107.050247"><ele>35.6</ele><time>2011-04-30T04:27:41.0000000+00:00</time></trkpt><trkpt lat="20.957249" lon="107.050247"><ele>35.5</ele><time>2011-04-30T04:27:46.0000000+00:00</time></trkpt><trkpt lat="20.957249" lon="107.050247"><ele>35.5</ele><time>2011-04-30T04:27:51.0000000+00:00</time></trkpt><trkpt lat="20.957249" lon="107.050247"><ele>35.4</ele><time>2011-04-30T04:27:56.0000000+00:00</time></trkpt><trkpt lat="20.957249" lon="107.050247"><ele>35.4</ele><time>2011-04-30T04:28:01.0000000+00:00</time></trkpt><trkpt lat="20.957247" lon="107.050247"><ele>35.4</ele><time>2011-04-30T04:28:06.0000000+00:00</time></trkpt><trkpt lat="20.957222" lon="107.050209"><ele>34.7</ele><time>2011-04-30T04:28:11.0000000+00:00</time></trkpt><trkpt lat="20.957216" lon="107.050186"><ele>34.2</ele><time>2011-04-30T04:28:16.0000000+00:00</time></trkpt><trkpt lat="20.957191" lon="107.050148"><ele>36.0</ele><time>2011-04-30T04:28:21.0000000+00:00</time></trkpt><trkpt lat="20.957184" lon="107.050156"><ele>36.6</ele><time>2011-04-30T04:28:26.0000000+00:00</time></trkpt><trkpt lat="20.957174" lon="107.050163"><ele>37.0</ele><time>2011-04-30T04:28:31.0000000+00:00</time></trkpt><trkpt lat="20.957153" lon="107.050156"><ele>37.2</ele><time>2011-04-30T04:28:36.0000000+00:00</time></trkpt><trkpt lat="20.957134" lon="107.05014"><ele>37.2</ele><time>2011-04-30T04:28:41.0000000+00:00</time></trkpt><trkpt lat="20.957098" lon="107.050156"><ele>37.3</ele><time>2011-04-30T04:28:46.0000000+00:00</time></trkpt><trkpt lat="20.957064" lon="107.050171"><ele>37.4</ele><time>2011-04-30T04:28:51.0000000+00:00</time></trkpt><trkpt lat="20.95705" lon="107.050201"><ele>37.3</ele><time>2011-04-30T04:28:56.0000000+00:00</time></trkpt><trkpt lat="20.957026" lon="107.050232"><ele>37.3</ele><time>2011-04-30T04:29:01.0000000+00:00</time></trkpt><trkpt lat="20.956999" lon="107.050255"><ele>37.3</ele><time>2011-04-30T04:29:06.0000000+00:00</time></trkpt><trkpt lat="20.956972" lon="107.050255"><ele>37.3</ele><time>2011-04-30T04:29:11.0000000+00:00</time></trkpt><trkpt lat="20.956964" lon="107.050232"><ele>37.3</ele><time>2011-04-30T04:29:16.0000000+00:00</time></trkpt><trkpt lat="20.956964" lon="107.050217"><ele>37.2</ele><time>2011-04-30T04:29:21.0000000+00:00</time></trkpt><trkpt lat="20.956964" lon="107.050217"><ele>37.3</ele><time>2011-04-30T04:29:26.0000000+00:00</time></trkpt><trkpt lat="20.956989" lon="107.050186"><ele>37.3</ele><time>2011-04-30T04:29:31.0000000+00:00</time></trkpt><trkpt lat="20.957056" lon="107.050102"><ele>37.2</ele><time>2011-04-30T04:29:36.0000000+00:00</time></trkpt><trkpt lat="20.957094" lon="107.050056"><ele>37.2</ele><time>2011-04-30T04:29:41.0000000+00:00</time></trkpt><trkpt lat="20.957117" lon="107.050041"><ele>37.2</ele><time>2011-04-30T04:29:46.0000000+00:00</time></trkpt><trkpt lat="20.957117" lon="107.050018"><ele>37.2</ele><time>2011-04-30T04:29:51.0000000+00:00</time></trkpt><trkpt lat="20.957113" lon="107.050049"><ele>37.2</ele><time>2011-04-30T04:29:56.0000000+00:00</time></trkpt><trkpt lat="20.957132" lon="107.050041"><ele>37.1</ele><time>2011-04-30T04:30:01.0000000+00:00</time></trkpt><trkpt lat="20.957111" lon="107.05027"><ele>36.8</ele><time>2011-04-30T04:30:14.0000000+00:00</time></trkpt><trkpt lat="20.957109" lon="107.050316"><ele>36.8</ele><time>2011-04-30T04:30:19.0000000+00:00</time></trkpt><trkpt lat="20.9571" lon="107.050316"><ele>36.7</ele><time>2011-04-30T04:30:24.0000000+00:00</time></trkpt><trkpt lat="20.957102" lon="107.050308"><ele>36.7</ele><time>2011-04-30T04:30:29.0000000+00:00</time></trkpt><trkpt lat="20.9571" lon="107.050293"><ele>36.7</ele><time>2011-04-30T04:30:34.0000000+00:00</time></trkpt><trkpt lat="20.957094" lon="107.050293"><ele>36.7</ele><time>2011-04-30T04:30:39.0000000+00:00</time></trkpt><trkpt lat="20.957088" lon="107.050285"><ele>36.7</ele><time>2011-04-30T04:30:44.0000000+00:00</time></trkpt><trkpt lat="20.957064" lon="107.050224"><ele>35.8</ele><time>2011-04-30T04:30:49.0000000+00:00</time></trkpt><trkpt lat="20.957056" lon="107.050156"><ele>35.2</ele><time>2011-04-30T04:30:54.0000000+00:00</time></trkpt><trkpt lat="20.957067" lon="107.05011"><ele>34.8</ele><time>2011-04-30T04:30:59.0000000+00:00</time></trkpt><trkpt lat="20.957085" lon="107.050056"><ele>34.2</ele><time>2011-04-30T04:31:04.0000000+00:00</time></trkpt><trkpt lat="20.957104" lon="107.049973"><ele>33.3</ele><time>2011-04-30T04:31:09.0000000+00:00</time></trkpt><trkpt lat="20.957096" lon="107.049889"><ele>32.6</ele><time>2011-04-30T04:31:14.0000000+00:00</time></trkpt><trkpt lat="20.957088" lon="107.049858"><ele>32.1</ele><time>2011-04-30T04:31:19.0000000+00:00</time></trkpt><trkpt lat="20.957073" lon="107.04985"><ele>31.7</ele><time>2011-04-30T04:31:24.0000000+00:00</time></trkpt><trkpt lat="20.956722" lon="107.050003"><ele>38.3</ele><time>2011-04-30T04:34:06.0000000+00:00</time></trkpt><trkpt lat="20.956745" lon="107.050049"><ele>37.1</ele><time>2011-04-30T04:34:11.0000000+00:00</time></trkpt><trkpt lat="20.956778" lon="107.050102"><ele>37.0</ele><time>2011-04-30T04:34:16.0000000+00:00</time></trkpt><trkpt lat="20.956772" lon="107.050125"><ele>36.7</ele><time>2011-04-30T04:34:21.0000000+00:00</time></trkpt><trkpt lat="20.956764" lon="107.050163"><ele>36.8</ele><time>2011-04-30T04:34:26.0000000+00:00</time></trkpt><trkpt lat="20.956736" lon="107.050255"><ele>36.9</ele><time>2011-04-30T04:34:31.0000000+00:00</time></trkpt><trkpt lat="20.956715" lon="107.050339"><ele>37.0</ele><time>2011-04-30T04:34:36.0000000+00:00</time></trkpt><trkpt lat="20.956713" lon="107.050407"><ele>37.0</ele><time>2011-04-30T04:34:41.0000000+00:00</time></trkpt><trkpt lat="20.957964" lon="107.049736"><ele>24.3</ele><time>2011-04-30T04:49:36.0000000+00:00</time></trkpt><trkpt lat="20.957367" lon="107.050323"><ele>32.9</ele><time>2011-04-30T05:01:29.0000000+00:00</time></trkpt><trkpt lat="20.957445" lon="107.050446"><ele>35.5</ele><time>2011-04-30T05:01:34.0000000+00:00</time></trkpt><trkpt lat="20.957458" lon="107.050621"><ele>36.0</ele><time>2011-04-30T05:01:39.0000000+00:00</time></trkpt><trkpt lat="20.957426" lon="107.050728"><ele>36.3</ele><time>2011-04-30T05:01:44.0000000+00:00</time></trkpt><trkpt lat="20.95738" lon="107.050781"><ele>36.4</ele><time>2011-04-30T05:01:49.0000000+00:00</time></trkpt><trkpt lat="20.957357" lon="107.050804"><ele>36.5</ele><time>2011-04-30T05:01:54.0000000+00:00</time></trkpt><trkpt lat="20.957354" lon="107.050835"><ele>36.6</ele><time>2011-04-30T05:01:59.0000000+00:00</time></trkpt><trkpt lat="20.957394" lon="107.050888"><ele>36.7</ele><time>2011-04-30T05:02:04.0000000+00:00</time></trkpt><trkpt lat="20.957438" lon="107.05085"><ele>36.8</ele><time>2011-04-30T05:02:09.0000000+00:00</time></trkpt><trkpt lat="20.957443" lon="107.050873"><ele>36.8</ele><time>2011-04-30T05:02:14.0000000+00:00</time></trkpt><trkpt lat="20.957386" lon="107.050873"><ele>36.9</ele><time>2011-04-30T05:02:19.0000000+00:00</time></trkpt><trkpt lat="20.957394" lon="107.050713"><ele>38.3</ele><time>2011-04-30T05:02:24.0000000+00:00</time></trkpt><trkpt lat="20.957468" lon="107.049858"><ele>35.5</ele><time>2011-04-30T05:02:29.0000000+00:00</time></trkpt><trkpt lat="20.957506" lon="107.04953"><ele>34.4</ele><time>2011-04-30T05:02:34.0000000+00:00</time></trkpt><trkpt lat="20.957541" lon="107.049553"><ele>33.7</ele><time>2011-04-30T05:02:39.0000000+00:00</time></trkpt><trkpt lat="20.957613" lon="107.049583"><ele>33.2</ele><time>2011-04-30T05:02:44.0000000+00:00</time></trkpt><trkpt lat="20.957508" lon="107.049675"><ele>33.4</ele><time>2011-04-30T05:02:49.0000000+00:00</time></trkpt><trkpt lat="20.957359" lon="107.050041"><ele>34.5</ele><time>2011-04-30T05:02:54.0000000+00:00</time></trkpt><trkpt lat="20.95726" lon="107.050423"><ele>36.4</ele><time>2011-04-30T05:02:59.0000000+00:00</time></trkpt><trkpt lat="20.957266" lon="107.050369"><ele>38.0</ele><time>2011-04-30T05:03:04.0000000+00:00</time></trkpt><trkpt lat="20.957308" lon="107.050186"><ele>41.5</ele><time>2011-04-30T05:03:09.0000000+00:00</time></trkpt><trkpt lat="20.95742" lon="107.049812"><ele>42.8</ele><time>2011-04-30T05:03:14.0000000+00:00</time></trkpt><trkpt lat="20.957527" lon="107.049408"><ele>44.1</ele><time>2011-04-30T05:03:19.0000000+00:00</time></trkpt><trkpt lat="20.957705" lon="107.048874"><ele>45.4</ele><time>2011-04-30T05:03:24.0000000+00:00</time></trkpt><trkpt lat="20.957941" lon="107.048233"><ele>46.6</ele><time>2011-04-30T05:03:29.0000000+00:00</time></trkpt><trkpt lat="20.958218" lon="107.0476"><ele>47.7</ele><time>2011-04-30T05:03:34.0000000+00:00</time></trkpt><trkpt lat="20.958368" lon="107.046806"><ele>48.9</ele><time>2011-04-30T05:03:39.0000000+00:00</time></trkpt><trkpt lat="20.958593" lon="107.046013"><ele>50.1</ele><time>2011-04-30T05:03:44.0000000+00:00</time></trkpt><trkpt lat="20.958826" lon="107.045174"><ele>51.4</ele><time>2011-04-30T05:03:49.0000000+00:00</time></trkpt><trkpt lat="20.959093" lon="107.044304"><ele>52.7</ele><time>2011-04-30T05:03:54.0000000+00:00</time></trkpt><trkpt lat="20.957157" lon="107.049927"><ele>35.0</ele><time>2011-04-30T05:04:55.0000000+00:00</time></trkpt><trkpt lat="20.957144" lon="107.050049"><ele>35.3</ele><time>2011-04-30T05:05:00.0000000+00:00</time></trkpt><trkpt lat="20.957136" lon="107.050056"><ele>34.1</ele><time>2011-04-30T05:05:05.0000000+00:00</time></trkpt><trkpt lat="20.957136" lon="107.050056"><ele>33.9</ele><time>2011-04-30T05:05:10.0000000+00:00</time></trkpt><trkpt lat="20.957142" lon="107.050056"><ele>33.7</ele><time>2011-04-30T05:05:15.0000000+00:00</time></trkpt><trkpt lat="20.957146" lon="107.050049"><ele>33.5</ele><time>2011-04-30T05:05:20.0000000+00:00</time></trkpt><trkpt lat="20.957146" lon="107.050026"><ele>33.4</ele><time>2011-04-30T05:05:25.0000000+00:00</time></trkpt><trkpt lat="20.957142" lon="107.050003"><ele>33.3</ele><time>2011-04-30T05:05:30.0000000+00:00</time></trkpt><trkpt lat="20.957144" lon="107.050003"><ele>33.2</ele><time>2011-04-30T05:05:35.0000000+00:00</time></trkpt><trkpt lat="20.957115" lon="107.049995"><ele>33.5</ele><time>2011-04-30T05:05:40.0000000+00:00</time></trkpt><trkpt lat="20.95709" lon="107.04998"><ele>33.9</ele><time>2011-04-30T05:05:45.0000000+00:00</time></trkpt><trkpt lat="20.957048" lon="107.049988"><ele>31.9</ele><time>2011-04-30T05:05:50.0000000+00:00</time></trkpt><trkpt lat="20.956964" lon="107.049965"><ele>29.8</ele><time>2011-04-30T05:05:55.0000000+00:00</time></trkpt><trkpt lat="20.956902" lon="107.049957"><ele>30.3</ele><time>2011-04-30T05:06:00.0000000+00:00</time></trkpt><trkpt lat="20.95685" lon="107.049957"><ele>33.6</ele><time>2011-04-30T05:06:05.0000000+00:00</time></trkpt><trkpt lat="20.95681" lon="107.049988"><ele>31.7</ele><time>2011-04-30T05:06:10.0000000+00:00</time></trkpt><trkpt lat="20.95677" lon="107.049957"><ele>38.2</ele><time>2011-04-30T05:06:15.0000000+00:00</time></trkpt><trkpt lat="20.956718" lon="107.04995"><ele>42.1</ele><time>2011-04-30T05:06:20.0000000+00:00</time></trkpt><trkpt lat="20.956665" lon="107.049973"><ele>42.3</ele><time>2011-04-30T05:06:25.0000000+00:00</time></trkpt><trkpt lat="20.956646" lon="107.050064"><ele>41.4</ele><time>2011-04-30T05:06:30.0000000+00:00</time></trkpt><trkpt lat="20.95661" lon="107.050117"><ele>36.8</ele><time>2011-04-30T05:06:35.0000000+00:00</time></trkpt><trkpt lat="20.956566" lon="107.050133"><ele>33.7</ele><time>2011-04-30T05:06:40.0000000+00:00</time></trkpt><trkpt lat="20.956537" lon="107.05014"><ele>32.3</ele><time>2011-04-30T05:06:45.0000000+00:00</time></trkpt><trkpt lat="20.956524" lon="107.05014"><ele>31.6</ele><time>2011-04-30T05:06:50.0000000+00:00</time></trkpt><trkpt lat="20.956522" lon="107.05014"><ele>31.6</ele><time>2011-04-30T05:06:55.0000000+00:00</time></trkpt><trkpt lat="20.956469" lon="107.050156"><ele>29.1</ele><time>2011-04-30T05:07:00.0000000+00:00</time></trkpt><trkpt lat="20.956392" lon="107.050179"><ele>26.6</ele><time>2011-04-30T05:07:05.0000000+00:00</time></trkpt><trkpt lat="20.956364" lon="107.050217"><ele>26.6</ele><time>2011-04-30T05:07:10.0000000+00:00</time></trkpt><trkpt lat="20.956331" lon="107.050255"><ele>27.3</ele><time>2011-04-30T05:07:15.0000000+00:00</time></trkpt><trkpt lat="20.956282" lon="107.050262"><ele>24.8</ele><time>2011-04-30T05:07:20.0000000+00:00</time></trkpt><trkpt lat="20.956244" lon="107.05024"><ele>24.4</ele><time>2011-04-30T05:07:25.0000000+00:00</time></trkpt><trkpt lat="20.956196" lon="107.050224"><ele>23.6</ele><time>2011-04-30T05:07:30.0000000+00:00</time></trkpt><trkpt lat="20.956179" lon="107.050209"><ele>21.8</ele><time>2011-04-30T05:07:35.0000000+00:00</time></trkpt><trkpt lat="20.956167" lon="107.050209"><ele>22.1</ele><time>2011-04-30T05:07:40.0000000+00:00</time></trkpt><trkpt lat="20.956173" lon="107.050201"><ele>22.2</ele><time>2011-04-30T05:07:45.0000000+00:00</time></trkpt><trkpt lat="20.956165" lon="107.050194"><ele>21.5</ele><time>2011-04-30T05:07:50.0000000+00:00</time></trkpt><trkpt lat="20.956144" lon="107.050179"><ele>21.2</ele><time>2011-04-30T05:07:55.0000000+00:00</time></trkpt><trkpt lat="20.956123" lon="107.050163"><ele>20.6</ele><time>2011-04-30T05:08:00.0000000+00:00</time></trkpt><trkpt lat="20.956108" lon="107.050148"><ele>20.7</ele><time>2011-04-30T05:08:05.0000000+00:00</time></trkpt><trkpt lat="20.956087" lon="107.050125"><ele>18.6</ele><time>2011-04-30T05:08:10.0000000+00:00</time></trkpt><trkpt lat="20.956093" lon="107.05011"><ele>18.6</ele><time>2011-04-30T05:08:15.0000000+00:00</time></trkpt><trkpt lat="20.956085" lon="107.050072"><ele>16.1</ele><time>2011-04-30T05:08:20.0000000+00:00</time></trkpt><trkpt lat="20.956072" lon="107.050026"><ele>14.7</ele><time>2011-04-30T05:08:25.0000000+00:00</time></trkpt><trkpt lat="20.95606" lon="107.049995"><ele>14.2</ele><time>2011-04-30T05:08:30.0000000+00:00</time></trkpt><trkpt lat="20.956057" lon="107.049995"><ele>13.5</ele><time>2011-04-30T05:08:35.0000000+00:00</time></trkpt><trkpt lat="20.956055" lon="107.04998"><ele>14.2</ele><time>2011-04-30T05:08:40.0000000+00:00</time></trkpt><trkpt lat="20.956051" lon="107.049942"><ele>15.0</ele><time>2011-04-30T05:08:45.0000000+00:00</time></trkpt><trkpt lat="20.956024" lon="107.049911"><ele>16.2</ele><time>2011-04-30T05:08:50.0000000+00:00</time></trkpt><trkpt lat="20.955999" lon="107.049873"><ele>15.8</ele><time>2011-04-30T05:08:55.0000000+00:00</time></trkpt><trkpt lat="20.955978" lon="107.049835"><ele>15.0</ele><time>2011-04-30T05:09:00.0000000+00:00</time></trkpt><trkpt lat="20.955976" lon="107.049782"><ele>13.6</ele><time>2011-04-30T05:09:05.0000000+00:00</time></trkpt><trkpt lat="20.955967" lon="107.049736"><ele>12.9</ele><time>2011-04-30T05:09:10.0000000+00:00</time></trkpt><trkpt lat="20.955942" lon="107.049698"><ele>12.9</ele><time>2011-04-30T05:09:15.0000000+00:00</time></trkpt><trkpt lat="20.955904" lon="107.049713"><ele>15.7</ele><time>2011-04-30T05:09:20.0000000+00:00</time></trkpt><trkpt lat="20.955872" lon="107.049713"><ele>17.3</ele><time>2011-04-30T05:09:25.0000000+00:00</time></trkpt><trkpt lat="20.955845" lon="107.049683"><ele>17.8</ele><time>2011-04-30T05:09:30.0000000+00:00</time></trkpt><trkpt lat="20.955835" lon="107.049675"><ele>17.4</ele><time>2011-04-30T05:09:35.0000000+00:00</time></trkpt><trkpt lat="20.955841" lon="107.049667"><ele>16.6</ele><time>2011-04-30T05:09:40.0000000+00:00</time></trkpt><trkpt lat="20.955833" lon="107.049667"><ele>16.2</ele><time>2011-04-30T05:09:45.0000000+00:00</time></trkpt><trkpt lat="20.95582" lon="107.04966"><ele>14.8</ele><time>2011-04-30T05:09:50.0000000+00:00</time></trkpt><trkpt lat="20.955828" lon="107.049652"><ele>14.1</ele><time>2011-04-30T05:09:55.0000000+00:00</time></trkpt><trkpt lat="20.955832" lon="107.049652"><ele>13.8</ele><time>2011-04-30T05:10:00.0000000+00:00</time></trkpt><trkpt lat="20.955832" lon="107.049652"><ele>13.9</ele><time>2011-04-30T05:10:05.0000000+00:00</time></trkpt><trkpt lat="20.955816" lon="107.049629"><ele>12.6</ele><time>2011-04-30T05:10:10.0000000+00:00</time></trkpt><trkpt lat="20.955795" lon="107.049591"><ele>10.7</ele><time>2011-04-30T05:10:15.0000000+00:00</time></trkpt><trkpt lat="20.955782" lon="107.049591"><ele>10.5</ele><time>2011-04-30T05:10:20.0000000+00:00</time></trkpt><trkpt lat="20.955776" lon="107.049583"><ele>10.0</ele><time>2011-04-30T05:10:25.0000000+00:00</time></trkpt><trkpt lat="20.955778" lon="107.049583"><ele>10.2</ele><time>2011-04-30T05:10:30.0000000+00:00</time></trkpt><trkpt lat="20.955778" lon="107.049583"><ele>10.2</ele><time>2011-04-30T05:10:35.0000000+00:00</time></trkpt><trkpt lat="20.95577" lon="107.049599"><ele>9.6</ele><time>2011-04-30T05:10:40.0000000+00:00</time></trkpt><trkpt lat="20.955767" lon="107.049644"><ele>10.1</ele><time>2011-04-30T05:10:45.0000000+00:00</time></trkpt><trkpt lat="20.955782" lon="107.049637"><ele>8.7</ele><time>2011-04-30T05:10:50.0000000+00:00</time></trkpt><trkpt lat="20.955782" lon="107.049637"><ele>8.8</ele><time>2011-04-30T05:10:55.0000000+00:00</time></trkpt><trkpt lat="20.955778" lon="107.049629"><ele>8.9</ele><time>2011-04-30T05:11:00.0000000+00:00</time></trkpt><trkpt lat="20.955778" lon="107.049637"><ele>8.7</ele><time>2011-04-30T05:11:05.0000000+00:00</time></trkpt><trkpt lat="20.955759" lon="107.049606"><ele>8.8</ele><time>2011-04-30T05:11:10.0000000+00:00</time></trkpt><trkpt lat="20.955711" lon="107.049599"><ele>9.1</ele><time>2011-04-30T05:11:15.0000000+00:00</time></trkpt><trkpt lat="20.955671" lon="107.049599"><ele>9.9</ele><time>2011-04-30T05:11:20.0000000+00:00</time></trkpt><trkpt lat="20.955618" lon="107.049614"><ele>9.2</ele><time>2011-04-30T05:11:25.0000000+00:00</time></trkpt><trkpt lat="20.955576" lon="107.049622"><ele>10.1</ele><time>2011-04-30T05:11:30.0000000+00:00</time></trkpt><trkpt lat="20.955544" lon="107.049637"><ele>10.7</ele><time>2011-04-30T05:11:35.0000000+00:00</time></trkpt><trkpt lat="20.9555" lon="107.049622"><ele>9.8</ele><time>2011-04-30T05:11:40.0000000+00:00</time></trkpt><trkpt lat="20.955488" lon="107.049568"><ele>8.7</ele><time>2011-04-30T05:11:45.0000000+00:00</time></trkpt><trkpt lat="20.955473" lon="107.04953"><ele>7.4</ele><time>2011-04-30T05:11:50.0000000+00:00</time></trkpt><trkpt lat="20.955462" lon="107.049492"><ele>6.5</ele><time>2011-04-30T05:11:55.0000000+00:00</time></trkpt><trkpt lat="20.955448" lon="107.049454"><ele>7.2</ele><time>2011-04-30T05:12:00.0000000+00:00</time></trkpt><trkpt lat="20.955423" lon="107.049408"><ele>5.9</ele><time>2011-04-30T05:12:05.0000000+00:00</time></trkpt><trkpt lat="20.9554" lon="107.049355"><ele>3.7</ele><time>2011-04-30T05:12:10.0000000+00:00</time></trkpt><trkpt lat="20.955397" lon="107.049324"><ele>3.5</ele><time>2011-04-30T05:12:15.0000000+00:00</time></trkpt><trkpt lat="20.955395" lon="107.049294"><ele>3.6</ele><time>2011-04-30T05:12:20.0000000+00:00</time></trkpt><trkpt lat="20.955397" lon="107.049286"><ele>4.4</ele><time>2011-04-30T05:12:25.0000000+00:00</time></trkpt><trkpt lat="20.955385" lon="107.049271"><ele>4.3</ele><time>2011-04-30T05:12:30.0000000+00:00</time></trkpt><trkpt lat="20.95537" lon="107.04924"><ele>3.4</ele><time>2011-04-30T05:12:35.0000000+00:00</time></trkpt><trkpt lat="20.955364" lon="107.049225"><ele>2.8</ele><time>2011-04-30T05:12:40.0000000+00:00</time></trkpt><trkpt lat="20.955364" lon="107.049225"><ele>2.9</ele><time>2011-04-30T05:12:45.0000000+00:00</time></trkpt><trkpt lat="20.955366" lon="107.049225"><ele>2.9</ele><time>2011-04-30T05:12:50.0000000+00:00</time></trkpt><trkpt lat="20.955351" lon="107.049232"><ele>4.6</ele><time>2011-04-30T05:12:55.0000000+00:00</time></trkpt><trkpt lat="20.95532" lon="107.049248"><ele>6.4</ele><time>2011-04-30T05:13:00.0000000+00:00</time></trkpt><trkpt lat="20.955275" lon="107.049263"><ele>8.3</ele><time>2011-04-30T05:13:05.0000000+00:00</time></trkpt><trkpt lat="20.955246" lon="107.049294"><ele>10.3</ele><time>2011-04-30T05:13:10.0000000+00:00</time></trkpt><trkpt lat="20.9552" lon="107.049316"><ele>11.0</ele><time>2011-04-30T05:13:15.0000000+00:00</time></trkpt><trkpt lat="20.955156" lon="107.049309"><ele>14.4</ele><time>2011-04-30T05:13:20.0000000+00:00</time></trkpt><trkpt lat="20.955109" lon="107.049316"><ele>15.0</ele><time>2011-04-30T05:13:25.0000000+00:00</time></trkpt><trkpt lat="20.955059" lon="107.049324"><ele>14.4</ele><time>2011-04-30T05:13:30.0000000+00:00</time></trkpt><trkpt lat="20.955023" lon="107.049339"><ele>14.6</ele><time>2011-04-30T05:13:35.0000000+00:00</time></trkpt><trkpt lat="20.954964" lon="107.049332"><ele>12.8</ele><time>2011-04-30T05:13:40.0000000+00:00</time></trkpt><trkpt lat="20.954945" lon="107.049301"><ele>11.8</ele><time>2011-04-30T05:13:45.0000000+00:00</time></trkpt><trkpt lat="20.954918" lon="107.049232"><ele>8.4</ele><time>2011-04-30T05:13:50.0000000+00:00</time></trkpt><trkpt lat="20.954924" lon="107.049179"><ele>6.4</ele><time>2011-04-30T05:13:55.0000000+00:00</time></trkpt><trkpt lat="20.95492" lon="107.049141"><ele>5.6</ele><time>2011-04-30T05:14:00.0000000+00:00</time></trkpt><trkpt lat="20.954908" lon="107.049103"><ele>5.3</ele><time>2011-04-30T05:14:05.0000000+00:00</time></trkpt><trkpt lat="20.954891" lon="107.04908"><ele>5.4</ele><time>2011-04-30T05:14:10.0000000+00:00</time></trkpt><trkpt lat="20.954878" lon="107.049034"><ele>5.3</ele><time>2011-04-30T05:14:15.0000000+00:00</time></trkpt><trkpt lat="20.954874" lon="107.048981"><ele>4.7</ele><time>2011-04-30T05:14:20.0000000+00:00</time></trkpt><trkpt lat="20.954884" lon="107.048927"><ele>3.5</ele><time>2011-04-30T05:14:25.0000000+00:00</time></trkpt><trkpt lat="20.954878" lon="107.048866"><ele>2.2</ele><time>2011-04-30T05:14:30.0000000+00:00</time></trkpt><trkpt lat="20.954868" lon="107.04882"><ele>2.6</ele><time>2011-04-30T05:14:35.0000000+00:00</time></trkpt><trkpt lat="20.954859" lon="107.048798"><ele>3.7</ele><time>2011-04-30T05:14:40.0000000+00:00</time></trkpt><trkpt lat="20.954838" lon="107.048752"><ele>4.8</ele><time>2011-04-30T05:14:45.0000000+00:00</time></trkpt><trkpt lat="20.954817" lon="107.048698"><ele>5.3</ele><time>2011-04-30T05:14:50.0000000+00:00</time></trkpt><trkpt lat="20.954792" lon="107.048668"><ele>7.0</ele><time>2011-04-30T05:14:55.0000000+00:00</time></trkpt><trkpt lat="20.954775" lon="107.048622"><ele>8.0</ele><time>2011-04-30T05:15:00.0000000+00:00</time></trkpt><trkpt lat="20.954762" lon="107.048576"><ele>8.5</ele><time>2011-04-30T05:15:05.0000000+00:00</time></trkpt><trkpt lat="20.954731" lon="107.048546"><ele>5.7</ele><time>2011-04-30T05:15:10.0000000+00:00</time></trkpt><trkpt lat="20.954706" lon="107.048523"><ele>4.1</ele><time>2011-04-30T05:15:15.0000000+00:00</time></trkpt><trkpt lat="20.954693" lon="107.0485"><ele>2.7</ele><time>2011-04-30T05:15:20.0000000+00:00</time></trkpt><trkpt lat="20.954676" lon="107.048454"><ele>2.2</ele><time>2011-04-30T05:15:25.0000000+00:00</time></trkpt><trkpt lat="20.95466" lon="107.048431"><ele>1.6</ele><time>2011-04-30T05:15:30.0000000+00:00</time></trkpt><trkpt lat="20.954655" lon="107.048431"><ele>1.3</ele><time>2011-04-30T05:15:35.0000000+00:00</time></trkpt><trkpt lat="20.954655" lon="107.048431"><ele>1.4</ele><time>2011-04-30T05:15:40.0000000+00:00</time></trkpt><trkpt lat="20.954662" lon="107.048454"><ele>1.2</ele><time>2011-04-30T05:15:45.0000000+00:00</time></trkpt><trkpt lat="20.954666" lon="107.048485"><ele>1.9</ele><time>2011-04-30T05:15:50.0000000+00:00</time></trkpt><trkpt lat="20.95467" lon="107.048492"><ele>1.7</ele><time>2011-04-30T05:15:55.0000000+00:00</time></trkpt><trkpt lat="20.95467" lon="107.048492"><ele>1.8</ele><time>2011-04-30T05:16:00.0000000+00:00</time></trkpt><trkpt lat="20.954666" lon="107.04847"><ele>1.4</ele><time>2011-04-30T05:16:05.0000000+00:00</time></trkpt><trkpt lat="20.954649" lon="107.048431"><ele>2.1</ele><time>2011-04-30T05:16:10.0000000+00:00</time></trkpt><trkpt lat="20.954657" lon="107.048416"><ele>1.4</ele><time>2011-04-30T05:16:15.0000000+00:00</time></trkpt><trkpt lat="20.954655" lon="107.048409"><ele>0.9</ele><time>2011-04-30T05:16:20.0000000+00:00</time></trkpt><trkpt lat="20.954653" lon="107.048409"><ele>1.1</ele><time>2011-04-30T05:16:25.0000000+00:00</time></trkpt><trkpt lat="20.954653" lon="107.048409"><ele>1.2</ele><time>2011-04-30T05:16:30.0000000+00:00</time></trkpt><trkpt lat="20.954653" lon="107.048409"><ele>1.1</ele><time>2011-04-30T05:16:35.0000000+00:00</time></trkpt><trkpt lat="20.954653" lon="107.048409"><ele>1.1</ele><time>2011-04-30T05:16:40.0000000+00:00</time></trkpt><trkpt lat="20.954653" lon="107.048409"><ele>1.1</ele><time>2011-04-30T05:16:45.0000000+00:00</time></trkpt><trkpt lat="20.954653" lon="107.048409"><ele>1.1</ele><time>2011-04-30T05:16:50.0000000+00:00</time></trkpt><trkpt lat="20.954653" lon="107.048409"><ele>1.1</ele><time>2011-04-30T05:16:55.0000000+00:00</time></trkpt><trkpt lat="20.954653" lon="107.048409"><ele>1.1</ele><time>2011-04-30T05:17:00.0000000+00:00</time></trkpt><trkpt lat="20.954653" lon="107.048409"><ele>1.0</ele><time>2011-04-30T05:17:05.0000000+00:00</time></trkpt><trkpt lat="20.954647" lon="107.048409"><ele>1.1</ele><time>2011-04-30T05:17:10.0000000+00:00</time></trkpt><trkpt lat="20.954659" lon="107.048416"><ele>1.8</ele><time>2011-04-30T05:17:15.0000000+00:00</time></trkpt><trkpt lat="20.95466" lon="107.048424"><ele>2.1</ele><time>2011-04-30T05:17:20.0000000+00:00</time></trkpt><trkpt lat="20.954662" lon="107.048424"><ele>2.2</ele><time>2011-04-30T05:17:25.0000000+00:00</time></trkpt><trkpt lat="20.954662" lon="107.048424"><ele>2.2</ele><time>2011-04-30T05:17:30.0000000+00:00</time></trkpt><trkpt lat="20.954662" lon="107.048424"><ele>2.2</ele><time>2011-04-30T05:17:35.0000000+00:00</time></trkpt><trkpt lat="20.954653" lon="107.048401"><ele>2.3</ele><time>2011-04-30T05:17:40.0000000+00:00</time></trkpt><trkpt lat="20.954649" lon="107.04837"><ele>4.2</ele><time>2011-04-30T05:17:45.0000000+00:00</time></trkpt><trkpt lat="20.954639" lon="107.048355"><ele>4.9</ele><time>2011-04-30T05:17:50.0000000+00:00</time></trkpt><trkpt lat="20.954617" lon="107.048317"><ele>3.8</ele><time>2011-04-30T05:17:55.0000000+00:00</time></trkpt><trkpt lat="20.954601" lon="107.048286"><ele>4.3</ele><time>2011-04-30T05:18:00.0000000+00:00</time></trkpt><trkpt lat="20.954584" lon="107.048248"><ele>3.3</ele><time>2011-04-30T05:18:05.0000000+00:00</time></trkpt><trkpt lat="20.954559" lon="107.048225"><ele>2.7</ele><time>2011-04-30T05:18:10.0000000+00:00</time></trkpt><trkpt lat="20.954535" lon="107.048187"><ele>0.9</ele><time>2011-04-30T05:18:15.0000000+00:00</time></trkpt><trkpt lat="20.95454" lon="107.048172"><ele>0.3</ele><time>2011-04-30T05:18:20.0000000+00:00</time></trkpt><trkpt lat="20.954514" lon="107.048134"><ele>0.8</ele><time>2011-04-30T05:18:25.0000000+00:00</time></trkpt><trkpt lat="20.9545" lon="107.048111"><ele>1.2</ele><time>2011-04-30T05:18:30.0000000+00:00</time></trkpt><trkpt lat="20.95451" lon="107.048111"><ele>1.9</ele><time>2011-04-30T05:18:35.0000000+00:00</time></trkpt><trkpt lat="20.954512" lon="107.048119"><ele>2.4</ele><time>2011-04-30T05:18:40.0000000+00:00</time></trkpt><trkpt lat="20.954514" lon="107.048119"><ele>3.0</ele><time>2011-04-30T05:18:45.0000000+00:00</time></trkpt><trkpt lat="20.954514" lon="107.048119"><ele>3.5</ele><time>2011-04-30T05:18:50.0000000+00:00</time></trkpt><trkpt lat="20.954514" lon="107.048119"><ele>3.9</ele><time>2011-04-30T05:18:55.0000000+00:00</time></trkpt><trkpt lat="20.954515" lon="107.048119"><ele>4.4</ele><time>2011-04-30T05:19:00.0000000+00:00</time></trkpt><trkpt lat="20.954517" lon="107.048119"><ele>5.0</ele><time>2011-04-30T05:19:05.0000000+00:00</time></trkpt><trkpt lat="20.954517" lon="107.048126"><ele>5.4</ele><time>2011-04-30T05:19:10.0000000+00:00</time></trkpt><trkpt lat="20.954523" lon="107.048126"><ele>5.7</ele><time>2011-04-30T05:19:15.0000000+00:00</time></trkpt><trkpt lat="20.954527" lon="107.048126"><ele>5.9</ele><time>2011-04-30T05:19:20.0000000+00:00</time></trkpt><trkpt lat="20.954527" lon="107.048119"><ele>6.0</ele><time>2011-04-30T05:19:25.0000000+00:00</time></trkpt><trkpt lat="20.954523" lon="107.048111"><ele>6.1</ele><time>2011-04-30T05:19:30.0000000+00:00</time></trkpt><trkpt lat="20.954512" lon="107.048103"><ele>6.2</ele><time>2011-04-30T05:19:35.0000000+00:00</time></trkpt><trkpt lat="20.954512" lon="107.048103"><ele>6.9</ele><time>2011-04-30T05:19:40.0000000+00:00</time></trkpt><trkpt lat="20.954491" lon="107.048065"><ele>7.6</ele><time>2011-04-30T05:19:45.0000000+00:00</time></trkpt><trkpt lat="20.954451" lon="107.048035"><ele>7.9</ele><time>2011-04-30T05:19:50.0000000+00:00</time></trkpt><trkpt lat="20.954418" lon="107.047981"><ele>8.3</ele><time>2011-04-30T05:19:55.0000000+00:00</time></trkpt><trkpt lat="20.95439" lon="107.047928"><ele>8.0</ele><time>2011-04-30T05:20:00.0000000+00:00</time></trkpt><trkpt lat="20.954361" lon="107.047882"><ele>7.5</ele><time>2011-04-30T05:20:05.0000000+00:00</time></trkpt><trkpt lat="20.954319" lon="107.047882"><ele>7.8</ele><time>2011-04-30T05:20:10.0000000+00:00</time></trkpt><trkpt lat="20.954264" lon="107.047882"><ele>8.6</ele><time>2011-04-30T05:20:15.0000000+00:00</time></trkpt><trkpt lat="20.954212" lon="107.047897"><ele>8.8</ele><time>2011-04-30T05:20:20.0000000+00:00</time></trkpt><trkpt lat="20.954161" lon="107.047928"><ele>9.2</ele><time>2011-04-30T05:20:25.0000000+00:00</time></trkpt><trkpt lat="20.954102" lon="107.047958"><ele>9.0</ele><time>2011-04-30T05:20:30.0000000+00:00</time></trkpt><trkpt lat="20.954048" lon="107.047989"><ele>9.6</ele><time>2011-04-30T05:20:35.0000000+00:00</time></trkpt><trkpt lat="20.953995" lon="107.048012"><ele>9.9</ele><time>2011-04-30T05:20:40.0000000+00:00</time></trkpt><trkpt lat="20.953945" lon="107.048042"><ele>9.9</ele><time>2011-04-30T05:20:45.0000000+00:00</time></trkpt><trkpt lat="20.95389" lon="107.048065"><ele>9.5</ele><time>2011-04-30T05:20:50.0000000+00:00</time></trkpt><trkpt lat="20.953836" lon="107.048088"><ele>8.6</ele><time>2011-04-30T05:20:55.0000000+00:00</time></trkpt><trkpt lat="20.953785" lon="107.048119"><ele>7.4</ele><time>2011-04-30T05:21:00.0000000+00:00</time></trkpt><trkpt lat="20.95373" lon="107.048149"><ele>6.2</ele><time>2011-04-30T05:21:05.0000000+00:00</time></trkpt><trkpt lat="20.953676" lon="107.04818"><ele>5.3</ele><time>2011-04-30T05:21:10.0000000+00:00</time></trkpt><trkpt lat="20.953625" lon="107.048203"><ele>5.3</ele><time>2011-04-30T05:21:15.0000000+00:00</time></trkpt><trkpt lat="20.953573" lon="107.048225"><ele>5.3</ele><time>2011-04-30T05:21:20.0000000+00:00</time></trkpt><trkpt lat="20.95352" lon="107.048256"><ele>5.0</ele><time>2011-04-30T05:21:25.0000000+00:00</time></trkpt><trkpt lat="20.953459" lon="107.048286"><ele>4.3</ele><time>2011-04-30T05:21:30.0000000+00:00</time></trkpt><trkpt lat="20.953405" lon="107.048317"><ele>4.1</ele><time>2011-04-30T05:21:35.0000000+00:00</time></trkpt><trkpt lat="20.953358" lon="107.048347"><ele>3.9</ele><time>2011-04-30T05:21:40.0000000+00:00</time></trkpt><trkpt lat="20.953314" lon="107.04837"><ele>3.7</ele><time>2011-04-30T05:21:45.0000000+00:00</time></trkpt><trkpt lat="20.953262" lon="107.048401"><ele>3.7</ele><time>2011-04-30T05:21:50.0000000+00:00</time></trkpt><trkpt lat="20.953211" lon="107.048431"><ele>3.6</ele><time>2011-04-30T05:21:55.0000000+00:00</time></trkpt><trkpt lat="20.953165" lon="107.048454"><ele>3.7</ele><time>2011-04-30T05:22:00.0000000+00:00</time></trkpt><trkpt lat="20.953117" lon="107.048485"><ele>4.0</ele><time>2011-04-30T05:22:05.0000000+00:00</time></trkpt><trkpt lat="20.953068" lon="107.048508"><ele>4.1</ele><time>2011-04-30T05:22:10.0000000+00:00</time></trkpt><trkpt lat="20.953018" lon="107.048538"><ele>3.5</ele><time>2011-04-30T05:22:15.0000000+00:00</time></trkpt><trkpt lat="20.952967" lon="107.048576"><ele>3.4</ele><time>2011-04-30T05:22:20.0000000+00:00</time></trkpt><trkpt lat="20.952915" lon="107.048599"><ele>3.1</ele><time>2011-04-30T05:22:25.0000000+00:00</time></trkpt><trkpt lat="20.952864" lon="107.04863"><ele>2.6</ele><time>2011-04-30T05:22:30.0000000+00:00</time></trkpt><trkpt lat="20.95281" lon="107.04866"><ele>2.5</ele><time>2011-04-30T05:22:35.0000000+00:00</time></trkpt><trkpt lat="20.952757" lon="107.048698"><ele>2.3</ele><time>2011-04-30T05:22:40.0000000+00:00</time></trkpt><trkpt lat="20.952713" lon="107.048729"><ele>1.9</ele><time>2011-04-30T05:22:45.0000000+00:00</time></trkpt><trkpt lat="20.952671" lon="107.048744"><ele>1.3</ele><time>2011-04-30T05:22:50.0000000+00:00</time></trkpt><trkpt lat="20.952635" lon="107.048767"><ele>0.9</ele><time>2011-04-30T05:22:55.0000000+00:00</time></trkpt><trkpt lat="20.9526" lon="107.04879"><ele>0.9</ele><time>2011-04-30T05:23:00.0000000+00:00</time></trkpt><trkpt lat="20.952604" lon="107.048805"><ele>0.3</ele><time>2011-04-30T05:23:05.0000000+00:00</time></trkpt><trkpt lat="20.95262" lon="107.048798"><ele>0.2</ele><time>2011-04-30T05:23:10.0000000+00:00</time></trkpt><trkpt lat="20.95262" lon="107.048798"><ele>0.2</ele><time>2011-04-30T05:23:15.0000000+00:00</time></trkpt><trkpt lat="20.952621" lon="107.048798"><ele>0.2</ele><time>2011-04-30T05:23:20.0000000+00:00</time></trkpt><trkpt lat="20.952621" lon="107.048798"><ele>0.2</ele><time>2011-04-30T05:23:25.0000000+00:00</time></trkpt><trkpt lat="20.952621" lon="107.048798"><ele>0.2</ele><time>2011-04-30T05:23:30.0000000+00:00</time></trkpt><trkpt lat="20.952621" lon="107.048798"><ele>0.2</ele><time>2011-04-30T05:23:35.0000000+00:00</time></trkpt><trkpt lat="20.952621" lon="107.048798"><ele>0.2</ele><time>2011-04-30T05:23:40.0000000+00:00</time></trkpt><trkpt lat="20.952621" lon="107.048798"><ele>0.2</ele><time>2011-04-30T05:23:45.0000000+00:00</time></trkpt><trkpt lat="20.952621" lon="107.048798"><ele>0.1</ele><time>2011-04-30T05:23:50.0000000+00:00</time></trkpt><trkpt lat="20.952621" lon="107.048798"><ele>0.1</ele><time>2011-04-30T05:23:55.0000000+00:00</time></trkpt><trkpt lat="20.952621" lon="107.048798"><ele>0.1</ele><time>2011-04-30T05:24:00.0000000+00:00</time></trkpt><trkpt lat="20.952621" lon="107.048798"><ele>0.1</ele><time>2011-04-30T05:24:05.0000000+00:00</time></trkpt><trkpt lat="20.952621" lon="107.048798"><ele>0.1</ele><time>2011-04-30T05:24:10.0000000+00:00</time></trkpt><trkpt lat="20.952621" lon="107.048798"><ele>0.1</ele><time>2011-04-30T05:24:15.0000000+00:00</time></trkpt><trkpt lat="20.952662" lon="107.048759"><ele>-0.7</ele><time>2011-04-30T05:24:20.0000000+00:00</time></trkpt><trkpt lat="20.952702" lon="107.048737"><ele>-1.6</ele><time>2011-04-30T05:24:25.0000000+00:00</time></trkpt><trkpt lat="20.952738" lon="107.048706"><ele>-2.4</ele><time>2011-04-30T05:24:30.0000000+00:00</time></trkpt><trkpt lat="20.952772" lon="107.048676"><ele>-3.1</ele><time>2011-04-30T05:24:35.0000000+00:00</time></trkpt><trkpt lat="20.95282" lon="107.048637"><ele>-3.3</ele><time>2011-04-30T05:24:40.0000000+00:00</time></trkpt><trkpt lat="20.952885" lon="107.048607"><ele>-3.7</ele><time>2011-04-30T05:24:45.0000000+00:00</time></trkpt><trkpt lat="20.952948" lon="107.048576"><ele>-3.7</ele><time>2011-04-30T05:24:50.0000000+00:00</time></trkpt><trkpt lat="20.953001" lon="107.048546"><ele>-3.9</ele><time>2011-04-30T05:24:55.0000000+00:00</time></trkpt><trkpt lat="20.953037" lon="107.048523"><ele>-4.3</ele><time>2011-04-30T05:25:00.0000000+00:00</time></trkpt><trkpt lat="20.95306" lon="107.048515"><ele>-4.0</ele><time>2011-04-30T05:25:05.0000000+00:00</time></trkpt><trkpt lat="20.953066" lon="107.048515"><ele>-4.4</ele><time>2011-04-30T05:25:10.0000000+00:00</time></trkpt><trkpt lat="20.953068" lon="107.048508"><ele>-4.4</ele><time>2011-04-30T05:25:15.0000000+00:00</time></trkpt><trkpt lat="20.953068" lon="107.048515"><ele>-4.4</ele><time>2011-04-30T05:25:20.0000000+00:00</time></trkpt><trkpt lat="20.953068" lon="107.048515"><ele>-4.4</ele><time>2011-04-30T05:25:25.0000000+00:00</time></trkpt><trkpt lat="20.953068" lon="107.048515"><ele>-4.4</ele><time>2011-04-30T05:25:30.0000000+00:00</time></trkpt><trkpt lat="20.953068" lon="107.048515"><ele>-4.4</ele><time>2011-04-30T05:25:35.0000000+00:00</time></trkpt><trkpt lat="20.953068" lon="107.048515"><ele>-4.4</ele><time>2011-04-30T05:25:40.0000000+00:00</time></trkpt><trkpt lat="20.953068" lon="107.048515"><ele>-4.4</ele><time>2011-04-30T05:25:45.0000000+00:00</time></trkpt><trkpt lat="20.953068" lon="107.048515"><ele>-4.4</ele><time>2011-04-30T05:25:50.0000000+00:00</time></trkpt><trkpt lat="20.953068" lon="107.048515"><ele>-4.4</ele><time>2011-04-30T05:25:55.0000000+00:00</time></trkpt><trkpt lat="20.953068" lon="107.048515"><ele>-4.4</ele><time>2011-04-30T05:26:00.0000000+00:00</time></trkpt><trkpt lat="20.953068" lon="107.048515"><ele>-4.4</ele><time>2011-04-30T05:26:05.0000000+00:00</time></trkpt><trkpt lat="20.953068" lon="107.048515"><ele>-4.4</ele><time>2011-04-30T05:26:10.0000000+00:00</time></trkpt><trkpt lat="20.953068" lon="107.048515"><ele>-4.4</ele><time>2011-04-30T05:26:15.0000000+00:00</time></trkpt><trkpt lat="20.953161" lon="107.048462"><ele>-3.6</ele><time>2011-04-30T05:26:20.0000000+00:00</time></trkpt><trkpt lat="20.953299" lon="107.04837"><ele>-4.3</ele><time>2011-04-30T05:26:25.0000000+00:00</time></trkpt><trkpt lat="20.953436" lon="107.048294"><ele>-4.1</ele><time>2011-04-30T05:26:30.0000000+00:00</time></trkpt><trkpt lat="20.953562" lon="107.048218"><ele>-4.0</ele><time>2011-04-30T05:26:35.0000000+00:00</time></trkpt><trkpt lat="20.953707" lon="107.048119"><ele>-5.0</ele><time>2011-04-30T05:26:40.0000000+00:00</time></trkpt><trkpt lat="20.953869" lon="107.048042"><ele>-5.2</ele><time>2011-04-30T05:26:45.0000000+00:00</time></trkpt><trkpt lat="20.953979" lon="107.047966"><ele>-6.1</ele><time>2011-04-30T05:26:50.0000000+00:00</time></trkpt><trkpt lat="20.954048" lon="107.047935"><ele>-5.9</ele><time>2011-04-30T05:26:55.0000000+00:00</time></trkpt><trkpt lat="20.954062" lon="107.04792"><ele>-5.9</ele><time>2011-04-30T05:27:00.0000000+00:00</time></trkpt><trkpt lat="20.954058" lon="107.04792"><ele>-5.9</ele><time>2011-04-30T05:27:05.0000000+00:00</time></trkpt><trkpt lat="20.954048" lon="107.04792"><ele>-5.9</ele><time>2011-04-30T05:27:10.0000000+00:00</time></trkpt><trkpt lat="20.954044" lon="107.04792"><ele>-5.9</ele><time>2011-04-30T05:27:15.0000000+00:00</time></trkpt><trkpt lat="20.954042" lon="107.04792"><ele>-5.9</ele><time>2011-04-30T05:27:20.0000000+00:00</time></trkpt><trkpt lat="20.954044" lon="107.04792"><ele>-5.9</ele><time>2011-04-30T05:27:25.0000000+00:00</time></trkpt><trkpt lat="20.954042" lon="107.04792"><ele>-5.8</ele><time>2011-04-30T05:27:30.0000000+00:00</time></trkpt><trkpt lat="20.954042" lon="107.04792"><ele>-5.8</ele><time>2011-04-30T05:27:35.0000000+00:00</time></trkpt><trkpt lat="20.954042" lon="107.04792"><ele>-5.8</ele><time>2011-04-30T05:27:40.0000000+00:00</time></trkpt><trkpt lat="20.954042" lon="107.04792"><ele>-5.9</ele><time>2011-04-30T05:27:45.0000000+00:00</time></trkpt><trkpt lat="20.954042" lon="107.04792"><ele>-5.9</ele><time>2011-04-30T05:27:50.0000000+00:00</time></trkpt><trkpt lat="20.954042" lon="107.04792"><ele>-5.9</ele><time>2011-04-30T05:27:55.0000000+00:00</time></trkpt><trkpt lat="20.954042" lon="107.04792"><ele>-5.9</ele><time>2011-04-30T05:28:00.0000000+00:00</time></trkpt><trkpt lat="20.954042" lon="107.04792"><ele>-5.8</ele><time>2011-04-30T05:28:05.0000000+00:00</time></trkpt><trkpt lat="20.954042" lon="107.04792"><ele>-5.8</ele><time>2011-04-30T05:28:10.0000000+00:00</time></trkpt><trkpt lat="20.954042" lon="107.04792"><ele>-5.8</ele><time>2011-04-30T05:28:15.0000000+00:00</time></trkpt><trkpt lat="20.954042" lon="107.04792"><ele>-5.8</ele><time>2011-04-30T05:28:20.0000000+00:00</time></trkpt><trkpt lat="20.954042" lon="107.04792"><ele>-5.8</ele><time>2011-04-30T05:28:25.0000000+00:00</time></trkpt><trkpt lat="20.954042" lon="107.04792"><ele>-5.9</ele><time>2011-04-30T05:28:30.0000000+00:00</time></trkpt><trkpt lat="20.954042" lon="107.047928"><ele>-5.9</ele><time>2011-04-30T05:28:35.0000000+00:00</time></trkpt><trkpt lat="20.954041" lon="107.04792"><ele>-5.8</ele><time>2011-04-30T05:28:40.0000000+00:00</time></trkpt><trkpt lat="20.954042" lon="107.047943"><ele>-5.5</ele><time>2011-04-30T05:28:45.0000000+00:00</time></trkpt><trkpt lat="20.95401" lon="107.047974"><ele>-4.7</ele><time>2011-04-30T05:28:50.0000000+00:00</time></trkpt><trkpt lat="20.953978" lon="107.047989"><ele>-3.5</ele><time>2011-04-30T05:28:55.0000000+00:00</time></trkpt><trkpt lat="20.953934" lon="107.048027"><ele>-2.4</ele><time>2011-04-30T05:29:00.0000000+00:00</time></trkpt><trkpt lat="20.953897" lon="107.04805"><ele>-1.4</ele><time>2011-04-30T05:29:05.0000000+00:00</time></trkpt><trkpt lat="20.953842" lon="107.048073"><ele>-1.8</ele><time>2011-04-30T05:29:10.0000000+00:00</time></trkpt><trkpt lat="20.953781" lon="107.048111"><ele>-0.2</ele><time>2011-04-30T05:29:15.0000000+00:00</time></trkpt><trkpt lat="20.953726" lon="107.048141"><ele>2.4</ele><time>2011-04-30T05:29:20.0000000+00:00</time></trkpt><trkpt lat="20.953669" lon="107.048172"><ele>4.6</ele><time>2011-04-30T05:29:25.0000000+00:00</time></trkpt><trkpt lat="20.953608" lon="107.048195"><ele>6.4</ele><time>2011-04-30T05:29:30.0000000+00:00</time></trkpt><trkpt lat="20.95355" lon="107.048225"><ele>6.9</ele><time>2011-04-30T05:29:35.0000000+00:00</time></trkpt><trkpt lat="20.953482" lon="107.048279"><ele>6.4</ele><time>2011-04-30T05:29:40.0000000+00:00</time></trkpt><trkpt lat="20.953434" lon="107.048309"><ele>6.4</ele><time>2011-04-30T05:29:45.0000000+00:00</time></trkpt><trkpt lat="20.953386" lon="107.048332"><ele>6.1</ele><time>2011-04-30T05:29:50.0000000+00:00</time></trkpt><trkpt lat="20.953331" lon="107.04837"><ele>6.6</ele><time>2011-04-30T05:29:55.0000000+00:00</time></trkpt><trkpt lat="20.953272" lon="107.048386"><ele>6.3</ele><time>2011-04-30T05:30:00.0000000+00:00</time></trkpt><trkpt lat="20.95323" lon="107.048409"><ele>5.6</ele><time>2011-04-30T05:30:05.0000000+00:00</time></trkpt><trkpt lat="20.95318" lon="107.048439"><ele>5.9</ele><time>2011-04-30T05:30:10.0000000+00:00</time></trkpt><trkpt lat="20.953136" lon="107.04847"><ele>7.8</ele><time>2011-04-30T05:30:15.0000000+00:00</time></trkpt><trkpt lat="20.953115" lon="107.04847"><ele>5.9</ele><time>2011-04-30T05:30:20.0000000+00:00</time></trkpt><trkpt lat="20.953114" lon="107.04847"><ele>5.4</ele><time>2011-04-30T05:30:25.0000000+00:00</time></trkpt><trkpt lat="20.953114" lon="107.04847"><ele>5.4</ele><time>2011-04-30T05:30:30.0000000+00:00</time></trkpt><trkpt lat="20.953114" lon="107.04847"><ele>5.3</ele><time>2011-04-30T05:30:35.0000000+00:00</time></trkpt><trkpt lat="20.953114" lon="107.04847"><ele>5.3</ele><time>2011-04-30T05:30:40.0000000+00:00</time></trkpt><trkpt lat="20.953114" lon="107.04847"><ele>5.3</ele><time>2011-04-30T05:30:45.0000000+00:00</time></trkpt><trkpt lat="20.953114" lon="107.04847"><ele>5.3</ele><time>2011-04-30T05:30:50.0000000+00:00</time></trkpt><trkpt lat="20.953121" lon="107.048462"><ele>5.2</ele><time>2011-04-30T05:30:55.0000000+00:00</time></trkpt><trkpt lat="20.953175" lon="107.048424"><ele>3.2</ele><time>2011-04-30T05:31:00.0000000+00:00</time></trkpt><trkpt lat="20.95323" lon="107.048393"><ele>2.6</ele><time>2011-04-30T05:31:05.0000000+00:00</time></trkpt><trkpt lat="20.953279" lon="107.048363"><ele>1.8</ele><time>2011-04-30T05:31:10.0000000+00:00</time></trkpt><trkpt lat="20.953329" lon="107.04834"><ele>0.7</ele><time>2011-04-30T05:31:15.0000000+00:00</time></trkpt><trkpt lat="20.953384" lon="107.048309"><ele>0.0</ele><time>2011-04-30T05:31:20.0000000+00:00</time></trkpt><trkpt lat="20.95344" lon="107.048279"><ele>-0.8</ele><time>2011-04-30T05:31:25.0000000+00:00</time></trkpt><trkpt lat="20.95348" lon="107.048256"><ele>0.1</ele><time>2011-04-30T05:31:30.0000000+00:00</time></trkpt><trkpt lat="20.953537" lon="107.048241"><ele>-0.5</ele><time>2011-04-30T05:31:35.0000000+00:00</time></trkpt><trkpt lat="20.953588" lon="107.04821"><ele>-1.1</ele><time>2011-04-30T05:31:40.0000000+00:00</time></trkpt><trkpt lat="20.953627" lon="107.04818"><ele>-1.3</ele><time>2011-04-30T05:31:45.0000000+00:00</time></trkpt><trkpt lat="20.953676" lon="107.048157"><ele>-1.6</ele><time>2011-04-30T05:31:50.0000000+00:00</time></trkpt><trkpt lat="20.953728" lon="107.048119"><ele>-2.0</ele><time>2011-04-30T05:31:55.0000000+00:00</time></trkpt><trkpt lat="20.953773" lon="107.048088"><ele>-1.6</ele><time>2011-04-30T05:32:00.0000000+00:00</time></trkpt><trkpt lat="20.953817" lon="107.048073"><ele>-1.4</ele><time>2011-04-30T05:32:05.0000000+00:00</time></trkpt><trkpt lat="20.95385" lon="107.04805"><ele>-2.3</ele><time>2011-04-30T05:32:10.0000000+00:00</time></trkpt><trkpt lat="20.953875" lon="107.048027"><ele>-2.4</ele><time>2011-04-30T05:32:15.0000000+00:00</time></trkpt><trkpt lat="20.953918" lon="107.047997"><ele>-2.3</ele><time>2011-04-30T05:32:20.0000000+00:00</time></trkpt><trkpt lat="20.95397" lon="107.047974"><ele>-1.4</ele><time>2011-04-30T05:32:25.0000000+00:00</time></trkpt><trkpt lat="20.954025" lon="107.047943"><ele>-0.5</ele><time>2011-04-30T05:32:30.0000000+00:00</time></trkpt><trkpt lat="20.954075" lon="107.047905"><ele>-0.6</ele><time>2011-04-30T05:32:35.0000000+00:00</time></trkpt><trkpt lat="20.954103" lon="107.04789"><ele>-0.3</ele><time>2011-04-30T05:32:40.0000000+00:00</time></trkpt><trkpt lat="20.954142" lon="107.047874"><ele>-1.5</ele><time>2011-04-30T05:32:45.0000000+00:00</time></trkpt><trkpt lat="20.954185" lon="107.047844"><ele>-1.9</ele><time>2011-04-30T05:32:50.0000000+00:00</time></trkpt><trkpt lat="20.954208" lon="107.047836"><ele>-1.7</ele><time>2011-04-30T05:32:55.0000000+00:00</time></trkpt><trkpt lat="20.954239" lon="107.047836"><ele>-2.4</ele><time>2011-04-30T05:33:00.0000000+00:00</time></trkpt><trkpt lat="20.954264" lon="107.047821"><ele>-2.7</ele><time>2011-04-30T05:33:05.0000000+00:00</time></trkpt><trkpt lat="20.954283" lon="107.047821"><ele>-1.6</ele><time>2011-04-30T05:33:10.0000000+00:00</time></trkpt><trkpt lat="20.95429" lon="107.047798"><ele>-0.7</ele><time>2011-04-30T05:33:15.0000000+00:00</time></trkpt><trkpt lat="20.954287" lon="107.047791"><ele>-0.4</ele><time>2011-04-30T05:33:20.0000000+00:00</time></trkpt><trkpt lat="20.95429" lon="107.047745"><ele>0.7</ele><time>2011-04-30T05:33:25.0000000+00:00</time></trkpt><trkpt lat="20.954277" lon="107.047714"><ele>1.7</ele><time>2011-04-30T05:33:30.0000000+00:00</time></trkpt><trkpt lat="20.95425" lon="107.047691"><ele>1.0</ele><time>2011-04-30T05:33:35.0000000+00:00</time></trkpt><trkpt lat="20.954241" lon="107.047691"><ele>1.3</ele><time>2011-04-30T05:33:40.0000000+00:00</time></trkpt><trkpt lat="20.954239" lon="107.047691"><ele>1.5</ele><time>2011-04-30T05:33:45.0000000+00:00</time></trkpt><trkpt lat="20.954237" lon="107.047714"><ele>1.7</ele><time>2011-04-30T05:33:50.0000000+00:00</time></trkpt><trkpt lat="20.954237" lon="107.047714"><ele>0.1</ele><time>2011-04-30T05:33:55.0000000+00:00</time></trkpt><trkpt lat="20.954235" lon="107.047714"><ele>0.0</ele><time>2011-04-30T05:34:00.0000000+00:00</time></trkpt><trkpt lat="20.954233" lon="107.047714"><ele>-0.0</ele><time>2011-04-30T05:34:05.0000000+00:00</time></trkpt><trkpt lat="20.954226" lon="107.047699"><ele>-0.1</ele><time>2011-04-30T05:34:10.0000000+00:00</time></trkpt><trkpt lat="20.954227" lon="107.047676"><ele>1.2</ele><time>2011-04-30T05:34:15.0000000+00:00</time></trkpt><trkpt lat="20.954254" lon="107.047676"><ele>0.6</ele><time>2011-04-30T05:34:20.0000000+00:00</time></trkpt><trkpt lat="20.954277" lon="107.047691"><ele>0.2</ele><time>2011-04-30T05:34:25.0000000+00:00</time></trkpt><trkpt lat="20.954258" lon="107.047699"><ele>-0.1</ele><time>2011-04-30T05:34:30.0000000+00:00</time></trkpt><trkpt lat="20.954248" lon="107.047707"><ele>-0.2</ele><time>2011-04-30T05:34:35.0000000+00:00</time></trkpt><trkpt lat="20.954245" lon="107.047714"><ele>-0.2</ele><time>2011-04-30T05:34:40.0000000+00:00</time></trkpt><trkpt lat="20.954231" lon="107.047714"><ele>-0.2</ele><time>2011-04-30T05:34:45.0000000+00:00</time></trkpt><trkpt lat="20.954241" lon="107.047707"><ele>-0.3</ele><time>2011-04-30T05:34:50.0000000+00:00</time></trkpt><trkpt lat="20.954237" lon="107.047707"><ele>-0.3</ele><time>2011-04-30T05:34:55.0000000+00:00</time></trkpt><trkpt lat="20.954233" lon="107.047699"><ele>-0.3</ele><time>2011-04-30T05:35:00.0000000+00:00</time></trkpt><trkpt lat="20.954229" lon="107.047691"><ele>-0.3</ele><time>2011-04-30T05:35:05.0000000+00:00</time></trkpt><trkpt lat="20.954226" lon="107.047691"><ele>-0.3</ele><time>2011-04-30T05:35:10.0000000+00:00</time></trkpt><trkpt lat="20.954222" lon="107.047691"><ele>-0.3</ele><time>2011-04-30T05:35:15.0000000+00:00</time></trkpt><trkpt lat="20.954224" lon="107.047691"><ele>-0.3</ele><time>2011-04-30T05:35:20.0000000+00:00</time></trkpt><trkpt lat="20.954256" lon="107.047684"><ele>0.2</ele><time>2011-04-30T05:35:25.0000000+00:00</time></trkpt><trkpt lat="20.954275" lon="107.047661"><ele>1.4</ele><time>2011-04-30T05:35:30.0000000+00:00</time></trkpt><trkpt lat="20.954269" lon="107.047668"><ele>1.5</ele><time>2011-04-30T05:35:35.0000000+00:00</time></trkpt><trkpt lat="20.954275" lon="107.047707"><ele>3.1</ele><time>2011-04-30T05:35:40.0000000+00:00</time></trkpt><trkpt lat="20.954306" lon="107.047676"><ele>3.6</ele><time>2011-04-30T05:35:45.0000000+00:00</time></trkpt><trkpt lat="20.954355" lon="107.047691"><ele>2.9</ele><time>2011-04-30T05:35:50.0000000+00:00</time></trkpt><trkpt lat="20.954456" lon="107.047691"><ele>0.9</ele><time>2011-04-30T05:35:55.0000000+00:00</time></trkpt><trkpt lat="20.954502" lon="107.047638"><ele>2.8</ele><time>2011-04-30T05:36:00.0000000+00:00</time></trkpt><trkpt lat="20.954542" lon="107.047615"><ele>3.7</ele><time>2011-04-30T05:36:05.0000000+00:00</time></trkpt><trkpt lat="20.954588" lon="107.0476"><ele>4.2</ele><time>2011-04-30T05:36:10.0000000+00:00</time></trkpt><trkpt lat="20.954626" lon="107.047592"><ele>4.3</ele><time>2011-04-30T05:36:15.0000000+00:00</time></trkpt><trkpt lat="20.954668" lon="107.047577"><ele>4.1</ele><time>2011-04-30T05:36:20.0000000+00:00</time></trkpt><trkpt lat="20.954702" lon="107.047615"><ele>4.3</ele><time>2011-04-30T05:36:25.0000000+00:00</time></trkpt><trkpt lat="20.954756" lon="107.047661"><ele>5.6</ele><time>2011-04-30T05:36:30.0000000+00:00</time></trkpt><trkpt lat="20.954798" lon="107.047707"><ele>6.7</ele><time>2011-04-30T05:36:35.0000000+00:00</time></trkpt><trkpt lat="20.954842" lon="107.047745"><ele>9.2</ele><time>2011-04-30T05:36:40.0000000+00:00</time></trkpt><trkpt lat="20.954859" lon="107.047806"><ele>10.4</ele><time>2011-04-30T05:36:45.0000000+00:00</time></trkpt><trkpt lat="20.954861" lon="107.047867"><ele>9.6</ele><time>2011-04-30T05:36:50.0000000+00:00</time></trkpt><trkpt lat="20.954868" lon="107.047905"><ele>8.2</ele><time>2011-04-30T05:36:55.0000000+00:00</time></trkpt><trkpt lat="20.954891" lon="107.047905"><ele>7.3</ele><time>2011-04-30T05:37:00.0000000+00:00</time></trkpt><trkpt lat="20.954893" lon="107.047905"><ele>7.0</ele><time>2011-04-30T05:37:05.0000000+00:00</time></trkpt><trkpt lat="20.954891" lon="107.047905"><ele>6.4</ele><time>2011-04-30T05:37:10.0000000+00:00</time></trkpt><trkpt lat="20.954891" lon="107.047905"><ele>6.3</ele><time>2011-04-30T05:37:15.0000000+00:00</time></trkpt><trkpt lat="20.954891" lon="107.047905"><ele>6.2</ele><time>2011-04-30T05:37:20.0000000+00:00</time></trkpt><trkpt lat="20.954887" lon="107.047905"><ele>6.3</ele><time>2011-04-30T05:37:25.0000000+00:00</time></trkpt><trkpt lat="20.954887" lon="107.047905"><ele>6.3</ele><time>2011-04-30T05:37:30.0000000+00:00</time></trkpt><trkpt lat="20.954893" lon="107.047905"><ele>6.7</ele><time>2011-04-30T05:37:35.0000000+00:00</time></trkpt><trkpt lat="20.954897" lon="107.047958"><ele>8.1</ele><time>2011-04-30T05:37:40.0000000+00:00</time></trkpt><trkpt lat="20.954908" lon="107.048004"><ele>9.3</ele><time>2011-04-30T05:37:45.0000000+00:00</time></trkpt><trkpt lat="20.954941" lon="107.048035"><ele>10.9</ele><time>2011-04-30T05:37:50.0000000+00:00</time></trkpt><trkpt lat="20.954985" lon="107.048073"><ele>12.5</ele><time>2011-04-30T05:37:55.0000000+00:00</time></trkpt><trkpt lat="20.955019" lon="107.048119"><ele>14.1</ele><time>2011-04-30T05:38:00.0000000+00:00</time></trkpt><trkpt lat="20.95503" lon="107.048157"><ele>15.8</ele><time>2011-04-30T05:38:05.0000000+00:00</time></trkpt><trkpt lat="20.955048" lon="107.048203"><ele>16.6</ele><time>2011-04-30T05:38:10.0000000+00:00</time></trkpt><trkpt lat="20.955065" lon="107.048248"><ele>18.0</ele><time>2011-04-30T05:38:15.0000000+00:00</time></trkpt><trkpt lat="20.955065" lon="107.048309"><ele>16.9</ele><time>2011-04-30T05:38:20.0000000+00:00</time></trkpt><trkpt lat="20.955061" lon="107.04837"><ele>16.0</ele><time>2011-04-30T05:38:25.0000000+00:00</time></trkpt><trkpt lat="20.955078" lon="107.048424"><ele>14.7</ele><time>2011-04-30T05:38:30.0000000+00:00</time></trkpt><trkpt lat="20.955111" lon="107.048477"><ele>14.3</ele><time>2011-04-30T05:38:35.0000000+00:00</time></trkpt><trkpt lat="20.955137" lon="107.048546"><ele>14.9</ele><time>2011-04-30T05:38:40.0000000+00:00</time></trkpt><trkpt lat="20.955177" lon="107.048592"><ele>14.4</ele><time>2011-04-30T05:38:45.0000000+00:00</time></trkpt><trkpt lat="20.9552" lon="107.048653"><ele>13.6</ele><time>2011-04-30T05:38:50.0000000+00:00</time></trkpt><trkpt lat="20.955225" lon="107.048706"><ele>12.6</ele><time>2011-04-30T05:38:55.0000000+00:00</time></trkpt><trkpt lat="20.955265" lon="107.048737"><ele>10.6</ele><time>2011-04-30T05:39:00.0000000+00:00</time></trkpt><trkpt lat="20.95525" lon="107.048775"><ele>10.3</ele><time>2011-04-30T05:39:05.0000000+00:00</time></trkpt><trkpt lat="20.955267" lon="107.048752"><ele>10.2</ele><time>2011-04-30T05:39:10.0000000+00:00</time></trkpt><trkpt lat="20.955263" lon="107.048714"><ele>9.7</ele><time>2011-04-30T05:39:15.0000000+00:00</time></trkpt><trkpt lat="20.955229" lon="107.048752"><ele>9.0</ele><time>2011-04-30T05:39:20.0000000+00:00</time></trkpt><trkpt lat="20.955177" lon="107.048737"><ele>8.3</ele><time>2011-04-30T05:39:25.0000000+00:00</time></trkpt><trkpt lat="20.955109" lon="107.048653"><ele>7.1</ele><time>2011-04-30T05:39:30.0000000+00:00</time></trkpt><trkpt lat="20.955086" lon="107.048691"><ele>5.8</ele><time>2011-04-30T05:39:35.0000000+00:00</time></trkpt><trkpt lat="20.95509" lon="107.048775"><ele>5.0</ele><time>2011-04-30T05:39:40.0000000+00:00</time></trkpt><trkpt lat="20.955099" lon="107.048759"><ele>5.0</ele><time>2011-04-30T05:39:45.0000000+00:00</time></trkpt><trkpt lat="20.955097" lon="107.048706"><ele>4.4</ele><time>2011-04-30T05:39:50.0000000+00:00</time></trkpt><trkpt lat="20.955099" lon="107.048698"><ele>4.0</ele><time>2011-04-30T05:39:55.0000000+00:00</time></trkpt><trkpt lat="20.955099" lon="107.048698"><ele>4.0</ele><time>2011-04-30T05:40:00.0000000+00:00</time></trkpt><trkpt lat="20.955095" lon="107.048691"><ele>4.0</ele><time>2011-04-30T05:40:05.0000000+00:00</time></trkpt><trkpt lat="20.955099" lon="107.048683"><ele>4.0</ele><time>2011-04-30T05:40:10.0000000+00:00</time></trkpt><trkpt lat="20.955097" lon="107.048691"><ele>4.0</ele><time>2011-04-30T05:40:15.0000000+00:00</time></trkpt><trkpt lat="20.955095" lon="107.048691"><ele>4.0</ele><time>2011-04-30T05:40:20.0000000+00:00</time></trkpt><trkpt lat="20.955091" lon="107.048691"><ele>4.0</ele><time>2011-04-30T05:40:25.0000000+00:00</time></trkpt><trkpt lat="20.955095" lon="107.048683"><ele>4.0</ele><time>2011-04-30T05:40:30.0000000+00:00</time></trkpt><trkpt lat="20.955118" lon="107.048683"><ele>3.8</ele><time>2011-04-30T05:40:35.0000000+00:00</time></trkpt><trkpt lat="20.955141" lon="107.048653"><ele>2.9</ele><time>2011-04-30T05:40:40.0000000+00:00</time></trkpt><trkpt lat="20.955145" lon="107.048653"><ele>2.8</ele><time>2011-04-30T05:40:45.0000000+00:00</time></trkpt><trkpt lat="20.955145" lon="107.048645"><ele>2.8</ele><time>2011-04-30T05:40:50.0000000+00:00</time></trkpt><trkpt lat="20.955151" lon="107.04863"><ele>2.2</ele><time>2011-04-30T05:40:55.0000000+00:00</time></trkpt><trkpt lat="20.955164" lon="107.048607"><ele>1.7</ele><time>2011-04-30T05:41:00.0000000+00:00</time></trkpt><trkpt lat="20.955162" lon="107.04863"><ele>1.4</ele><time>2011-04-30T05:41:05.0000000+00:00</time></trkpt><trkpt lat="20.955164" lon="107.048622"><ele>1.4</ele><time>2011-04-30T05:41:10.0000000+00:00</time></trkpt><trkpt lat="20.955166" lon="107.048615"><ele>1.4</ele><time>2011-04-30T05:41:15.0000000+00:00</time></trkpt><trkpt lat="20.955162" lon="107.048622"><ele>1.4</ele><time>2011-04-30T05:41:20.0000000+00:00</time></trkpt><trkpt lat="20.955145" lon="107.048668"><ele>1.4</ele><time>2011-04-30T05:41:25.0000000+00:00</time></trkpt><trkpt lat="20.955135" lon="107.048706"><ele>1.3</ele><time>2011-04-30T05:41:30.0000000+00:00</time></trkpt><trkpt lat="20.955082" lon="107.048782"><ele>1.0</ele><time>2011-04-30T05:41:35.0000000+00:00</time></trkpt><trkpt lat="20.955076" lon="107.048813"><ele>0.8</ele><time>2011-04-30T05:41:40.0000000+00:00</time></trkpt><trkpt lat="20.955097" lon="107.048805"><ele>0.2</ele><time>2011-04-30T05:41:45.0000000+00:00</time></trkpt><trkpt lat="20.955124" lon="107.048813"><ele>-0.3</ele><time>2011-04-30T05:41:50.0000000+00:00</time></trkpt><trkpt lat="20.955137" lon="107.04882"><ele>-1.0</ele><time>2011-04-30T05:41:55.0000000+00:00</time></trkpt><trkpt lat="20.955135" lon="107.04882"><ele>-1.1</ele><time>2011-04-30T05:42:00.0000000+00:00</time></trkpt><trkpt lat="20.955133" lon="107.04882"><ele>-1.1</ele><time>2011-04-30T05:42:05.0000000+00:00</time></trkpt><trkpt lat="20.955109" lon="107.048775"><ele>-1.0</ele><time>2011-04-30T05:42:10.0000000+00:00</time></trkpt><trkpt lat="20.955099" lon="107.048767"><ele>-1.0</ele><time>2011-04-30T05:42:15.0000000+00:00</time></trkpt><trkpt lat="20.955107" lon="107.048759"><ele>-1.0</ele><time>2011-04-30T05:42:20.0000000+00:00</time></trkpt><trkpt lat="20.955091" lon="107.048714"><ele>-1.3</ele><time>2011-04-30T05:42:25.0000000+00:00</time></trkpt><trkpt lat="20.955086" lon="107.048683"><ele>-1.6</ele><time>2011-04-30T05:42:30.0000000+00:00</time></trkpt><trkpt lat="20.955112" lon="107.048622"><ele>-2.3</ele><time>2011-04-30T05:42:35.0000000+00:00</time></trkpt><trkpt lat="20.955122" lon="107.048615"><ele>-4.1</ele><time>2011-04-30T05:42:40.0000000+00:00</time></trkpt><trkpt lat="20.95513" lon="107.048599"><ele>-4.3</ele><time>2011-04-30T05:42:45.0000000+00:00</time></trkpt><trkpt lat="20.955158" lon="107.048599"><ele>-4.8</ele><time>2011-04-30T05:42:50.0000000+00:00</time></trkpt><trkpt lat="20.955185" lon="107.048599"><ele>-5.9</ele><time>2011-04-30T05:42:55.0000000+00:00</time></trkpt><trkpt lat="20.9552" lon="107.048592"><ele>-6.5</ele><time>2011-04-30T05:43:00.0000000+00:00</time></trkpt><trkpt lat="20.955214" lon="107.048599"><ele>-7.9</ele><time>2011-04-30T05:43:05.0000000+00:00</time></trkpt><trkpt lat="20.955204" lon="107.048592"><ele>-8.1</ele><time>2011-04-30T05:43:10.0000000+00:00</time></trkpt><trkpt lat="20.955196" lon="107.048599"><ele>-8.4</ele><time>2011-04-30T05:43:15.0000000+00:00</time></trkpt><trkpt lat="20.955206" lon="107.048599"><ele>-8.4</ele><time>2011-04-30T05:43:20.0000000+00:00</time></trkpt><trkpt lat="20.955206" lon="107.048599"><ele>-8.4</ele><time>2011-04-30T05:43:25.0000000+00:00</time></trkpt><trkpt lat="20.9552" lon="107.048607"><ele>-8.4</ele><time>2011-04-30T05:43:30.0000000+00:00</time></trkpt><trkpt lat="20.955175" lon="107.04863"><ele>-7.8</ele><time>2011-04-30T05:43:35.0000000+00:00</time></trkpt><trkpt lat="20.955149" lon="107.048683"><ele>-7.6</ele><time>2011-04-30T05:43:40.0000000+00:00</time></trkpt><trkpt lat="20.955149" lon="107.048729"><ele>-7.8</ele><time>2011-04-30T05:43:45.0000000+00:00</time></trkpt><trkpt lat="20.955137" lon="107.04879"><ele>-7.1</ele><time>2011-04-30T05:43:50.0000000+00:00</time></trkpt><trkpt lat="20.955122" lon="107.048851"><ele>-7.2</ele><time>2011-04-30T05:43:55.0000000+00:00</time></trkpt><trkpt lat="20.955133" lon="107.04882"><ele>-7.3</ele><time>2011-04-30T05:44:00.0000000+00:00</time></trkpt><trkpt lat="20.955141" lon="107.04882"><ele>-7.4</ele><time>2011-04-30T05:44:05.0000000+00:00</time></trkpt><trkpt lat="20.955135" lon="107.048843"><ele>-7.2</ele><time>2011-04-30T05:44:10.0000000+00:00</time></trkpt><trkpt lat="20.955147" lon="107.048851"><ele>-7.2</ele><time>2011-04-30T05:44:15.0000000+00:00</time></trkpt><trkpt lat="20.955141" lon="107.048859"><ele>-7.2</ele><time>2011-04-30T05:44:20.0000000+00:00</time></trkpt><trkpt lat="20.955137" lon="107.048866"><ele>-7.2</ele><time>2011-04-30T05:44:25.0000000+00:00</time></trkpt><trkpt lat="20.955133" lon="107.048874"><ele>-7.2</ele><time>2011-04-30T05:44:30.0000000+00:00</time></trkpt><trkpt lat="20.955202" lon="107.048843"><ele>-5.6</ele><time>2011-04-30T05:44:35.0000000+00:00</time></trkpt><trkpt lat="20.955278" lon="107.048843"><ele>1.5</ele><time>2011-04-30T05:44:40.0000000+00:00</time></trkpt><trkpt lat="20.955317" lon="107.048805"><ele>4.6</ele><time>2011-04-30T05:44:45.0000000+00:00</time></trkpt><trkpt lat="20.955328" lon="107.048782"><ele>4.6</ele><time>2011-04-30T05:44:50.0000000+00:00</time></trkpt><trkpt lat="20.955353" lon="107.048752"><ele>5.3</ele><time>2011-04-30T05:44:55.0000000+00:00</time></trkpt><trkpt lat="20.955359" lon="107.048729"><ele>5.4</ele><time>2011-04-30T05:45:00.0000000+00:00</time></trkpt><trkpt lat="20.955345" lon="107.048721"><ele>5.4</ele><time>2011-04-30T05:45:05.0000000+00:00</time></trkpt><trkpt lat="20.955343" lon="107.048714"><ele>4.7</ele><time>2011-04-30T05:45:10.0000000+00:00</time></trkpt><trkpt lat="20.955355" lon="107.048714"><ele>3.5</ele><time>2011-04-30T05:45:15.0000000+00:00</time></trkpt><trkpt lat="20.955381" lon="107.048714"><ele>1.7</ele><time>2011-04-30T05:45:20.0000000+00:00</time></trkpt><trkpt lat="20.955395" lon="107.048714"><ele>0.1</ele><time>2011-04-30T05:45:25.0000000+00:00</time></trkpt><trkpt lat="20.9554" lon="107.048691"><ele>-0.2</ele><time>2011-04-30T05:45:30.0000000+00:00</time></trkpt><trkpt lat="20.955404" lon="107.048683"><ele>-0.3</ele><time>2011-04-30T05:45:35.0000000+00:00</time></trkpt><trkpt lat="20.955414" lon="107.048691"><ele>-0.2</ele><time>2011-04-30T05:45:40.0000000+00:00</time></trkpt><trkpt lat="20.955414" lon="107.048698"><ele>-0.3</ele><time>2011-04-30T05:45:45.0000000+00:00</time></trkpt><trkpt lat="20.955427" lon="107.048721"><ele>-0.3</ele><time>2011-04-30T05:45:50.0000000+00:00</time></trkpt><trkpt lat="20.955433" lon="107.048744"><ele>-0.4</ele><time>2011-04-30T05:45:55.0000000+00:00</time></trkpt><trkpt lat="20.955442" lon="107.048752"><ele>-0.5</ele><time>2011-04-30T05:46:00.0000000+00:00</time></trkpt><trkpt lat="20.955441" lon="107.048752"><ele>-0.5</ele><time>2011-04-30T05:46:05.0000000+00:00</time></trkpt><trkpt lat="20.955492" lon="107.048782"><ele>-0.6</ele><time>2011-04-30T05:46:10.0000000+00:00</time></trkpt><trkpt lat="20.955671" lon="107.048973"><ele>-0.8</ele><time>2011-04-30T05:46:15.0000000+00:00</time></trkpt><trkpt lat="20.955935" lon="107.049248"><ele>-1.0</ele><time>2011-04-30T05:46:20.0000000+00:00</time></trkpt><trkpt lat="20.95616" lon="107.049545"><ele>-1.2</ele><time>2011-04-30T05:46:25.0000000+00:00</time></trkpt><trkpt lat="20.956324" lon="107.050026"><ele>-1.2</ele><time>2011-04-30T05:46:30.0000000+00:00</time></trkpt><trkpt lat="20.9564" lon="107.050613"><ele>-1.6</ele><time>2011-04-30T05:46:35.0000000+00:00</time></trkpt><trkpt lat="20.956394" lon="107.051331"><ele>-2.2</ele><time>2011-04-30T05:46:40.0000000+00:00</time></trkpt><trkpt lat="20.956318" lon="107.052124"><ele>-2.4</ele><time>2011-04-30T05:46:45.0000000+00:00</time></trkpt><trkpt lat="20.956247" lon="107.052994"><ele>-2.3</ele><time>2011-04-30T05:46:50.0000000+00:00</time></trkpt><trkpt lat="20.956137" lon="107.053871"><ele>-2.5</ele><time>2011-04-30T05:46:55.0000000+00:00</time></trkpt><trkpt lat="20.956177" lon="107.054649"><ele>-2.8</ele><time>2011-04-30T05:47:00.0000000+00:00</time></trkpt><trkpt lat="20.95635" lon="107.055405"><ele>-3.9</ele><time>2011-04-30T05:47:05.0000000+00:00</time></trkpt><trkpt lat="20.956537" lon="107.056023"><ele>-4.3</ele><time>2011-04-30T05:47:10.0000000+00:00</time></trkpt><trkpt lat="20.95657" lon="107.056274"><ele>-4.0</ele><time>2011-04-30T05:47:15.0000000+00:00</time></trkpt><trkpt lat="20.956631" lon="107.056519"><ele>-4.0</ele><time>2011-04-30T05:47:20.0000000+00:00</time></trkpt><trkpt lat="20.956713" lon="107.0569"><ele>-4.3</ele><time>2011-04-30T05:47:25.0000000+00:00</time></trkpt><trkpt lat="20.9568" lon="107.057243"><ele>-4.8</ele><time>2011-04-30T05:47:30.0000000+00:00</time></trkpt><trkpt lat="20.956858" lon="107.057487"><ele>-5.4</ele><time>2011-04-30T05:47:35.0000000+00:00</time></trkpt><trkpt lat="20.956907" lon="107.057503"><ele>-9.0</ele><time>2011-04-30T05:47:40.0000000+00:00</time></trkpt><trkpt lat="20.956903" lon="107.057495"><ele>-9.2</ele><time>2011-04-30T05:47:45.0000000+00:00</time></trkpt><trkpt lat="20.956902" lon="107.05748"><ele>-9.1</ele><time>2011-04-30T05:47:50.0000000+00:00</time></trkpt><trkpt lat="20.956905" lon="107.057526"><ele>-7.5</ele><time>2011-04-30T05:47:55.0000000+00:00</time></trkpt><trkpt lat="20.956911" lon="107.057579"><ele>-7.2</ele><time>2011-04-30T05:48:00.0000000+00:00</time></trkpt><trkpt lat="20.9569" lon="107.057648"><ele>-6.5</ele><time>2011-04-30T05:48:05.0000000+00:00</time></trkpt><trkpt lat="20.956911" lon="107.057701"><ele>-6.6</ele><time>2011-04-30T05:48:10.0000000+00:00</time></trkpt><trkpt lat="20.956909" lon="107.057755"><ele>-4.8</ele><time>2011-04-30T05:48:15.0000000+00:00</time></trkpt><trkpt lat="20.956903" lon="107.05777"><ele>-4.7</ele><time>2011-04-30T05:48:20.0000000+00:00</time></trkpt><trkpt lat="20.956903" lon="107.05777"><ele>-4.6</ele><time>2011-04-30T05:48:25.0000000+00:00</time></trkpt><trkpt lat="20.956903" lon="107.05777"><ele>-4.5</ele><time>2011-04-30T05:48:30.0000000+00:00</time></trkpt><trkpt lat="20.956903" lon="107.05777"><ele>-4.5</ele><time>2011-04-30T05:48:35.0000000+00:00</time></trkpt><trkpt lat="20.956903" lon="107.05777"><ele>-4.6</ele><time>2011-04-30T05:48:40.0000000+00:00</time></trkpt><trkpt lat="20.956903" lon="107.05777"><ele>-4.6</ele><time>2011-04-30T05:48:45.0000000+00:00</time></trkpt><trkpt lat="20.956903" lon="107.05777"><ele>-4.6</ele><time>2011-04-30T05:48:50.0000000+00:00</time></trkpt><trkpt lat="20.956903" lon="107.05777"><ele>-4.6</ele><time>2011-04-30T05:48:55.0000000+00:00</time></trkpt><trkpt lat="20.956903" lon="107.05777"><ele>-4.5</ele><time>2011-04-30T05:49:00.0000000+00:00</time></trkpt><trkpt lat="20.956903" lon="107.05777"><ele>-4.5</ele><time>2011-04-30T05:49:05.0000000+00:00</time></trkpt><trkpt lat="20.956903" lon="107.05777"><ele>-4.5</ele><time>2011-04-30T05:49:10.0000000+00:00</time></trkpt><trkpt lat="20.956903" lon="107.05777"><ele>-4.5</ele><time>2011-04-30T05:49:15.0000000+00:00</time></trkpt><trkpt lat="20.956903" lon="107.05777"><ele>-4.5</ele><time>2011-04-30T05:49:20.0000000+00:00</time></trkpt><trkpt lat="20.956903" lon="107.05777"><ele>-4.5</ele><time>2011-04-30T05:49:25.0000000+00:00</time></trkpt><trkpt lat="20.956903" lon="107.05777"><ele>-4.5</ele><time>2011-04-30T05:49:30.0000000+00:00</time></trkpt><trkpt lat="20.956903" lon="107.05777"><ele>-4.5</ele><time>2011-04-30T05:49:35.0000000+00:00</time></trkpt><trkpt lat="20.956903" lon="107.05777"><ele>-4.5</ele><time>2011-04-30T05:49:40.0000000+00:00</time></trkpt><trkpt lat="20.956903" lon="107.05777"><ele>-4.5</ele><time>2011-04-30T05:49:45.0000000+00:00</time></trkpt><trkpt lat="20.956903" lon="107.05777"><ele>-4.5</ele><time>2011-04-30T05:49:50.0000000+00:00</time></trkpt><trkpt lat="20.956903" lon="107.05777"><ele>-4.5</ele><time>2011-04-30T05:49:55.0000000+00:00</time></trkpt><trkpt lat="20.956903" lon="107.05777"><ele>-4.5</ele><time>2011-04-30T05:50:00.0000000+00:00</time></trkpt><trkpt lat="20.956903" lon="107.05777"><ele>-4.5</ele><time>2011-04-30T05:50:05.0000000+00:00</time></trkpt><trkpt lat="20.956903" lon="107.05777"><ele>-4.5</ele><time>2011-04-30T05:50:10.0000000+00:00</time></trkpt><trkpt lat="20.956905" lon="107.05777"><ele>-4.5</ele><time>2011-04-30T05:50:15.0000000+00:00</time></trkpt><trkpt lat="20.956905" lon="107.05777"><ele>-4.5</ele><time>2011-04-30T05:50:20.0000000+00:00</time></trkpt><trkpt lat="20.956905" lon="107.05777"><ele>-4.5</ele><time>2011-04-30T05:50:25.0000000+00:00</time></trkpt><trkpt lat="20.956905" lon="107.05777"><ele>-4.5</ele><time>2011-04-30T05:50:30.0000000+00:00</time></trkpt><trkpt lat="20.956905" lon="107.05777"><ele>-4.5</ele><time>2011-04-30T05:50:35.0000000+00:00</time></trkpt><trkpt lat="20.956905" lon="107.05777"><ele>-4.5</ele><time>2011-04-30T05:50:40.0000000+00:00</time></trkpt><trkpt lat="20.956905" lon="107.05777"><ele>-4.5</ele><time>2011-04-30T05:50:45.0000000+00:00</time></trkpt><trkpt lat="20.956905" lon="107.05777"><ele>-4.5</ele><time>2011-04-30T05:50:50.0000000+00:00</time></trkpt><trkpt lat="20.956903" lon="107.05777"><ele>-4.5</ele><time>2011-04-30T05:50:55.0000000+00:00</time></trkpt><trkpt lat="20.956903" lon="107.057777"><ele>-4.3</ele><time>2011-04-30T05:51:00.0000000+00:00</time></trkpt><trkpt lat="20.956894" lon="107.057785"><ele>-3.8</ele><time>2011-04-30T05:51:05.0000000+00:00</time></trkpt><trkpt lat="20.956894" lon="107.0578"><ele>-3.7</ele><time>2011-04-30T05:51:10.0000000+00:00</time></trkpt><trkpt lat="20.956896" lon="107.057808"><ele>-3.6</ele><time>2011-04-30T05:51:15.0000000+00:00</time></trkpt><trkpt lat="20.9569" lon="107.057808"><ele>-3.5</ele><time>2011-04-30T05:51:20.0000000+00:00</time></trkpt><trkpt lat="20.956903" lon="107.0578"><ele>-3.5</ele><time>2011-04-30T05:51:25.0000000+00:00</time></trkpt><trkpt lat="20.956886" lon="107.057808"><ele>-3.5</ele><time>2011-04-30T05:51:30.0000000+00:00</time></trkpt><trkpt lat="20.956821" lon="107.057846"><ele>-3.5</ele><time>2011-04-30T05:51:35.0000000+00:00</time></trkpt><trkpt lat="20.956808" lon="107.057869"><ele>-3.6</ele><time>2011-04-30T05:51:40.0000000+00:00</time></trkpt><trkpt lat="20.956816" lon="107.057915"><ele>-3.6</ele><time>2011-04-30T05:51:45.0000000+00:00</time></trkpt><trkpt lat="20.956839" lon="107.057953"><ele>-3.6</ele><time>2011-04-30T05:51:50.0000000+00:00</time></trkpt><trkpt lat="20.95681" lon="107.057976"><ele>-3.7</ele><time>2011-04-30T05:51:55.0000000+00:00</time></trkpt><trkpt lat="20.95681" lon="107.057953"><ele>-3.6</ele><time>2011-04-30T05:52:00.0000000+00:00</time></trkpt><trkpt lat="20.956833" lon="107.057983"><ele>-4.5</ele><time>2011-04-30T05:52:05.0000000+00:00</time></trkpt><trkpt lat="20.956867" lon="107.058006"><ele>-5.5</ele><time>2011-04-30T05:52:10.0000000+00:00</time></trkpt><trkpt lat="20.956879" lon="107.058022"><ele>-5.9</ele><time>2011-04-30T05:52:15.0000000+00:00</time></trkpt><trkpt lat="20.956863" lon="107.058037"><ele>-5.9</ele><time>2011-04-30T05:52:20.0000000+00:00</time></trkpt><trkpt lat="20.956869" lon="107.058014"><ele>-5.9</ele><time>2011-04-30T05:52:25.0000000+00:00</time></trkpt><trkpt lat="20.956867" lon="107.058014"><ele>-6.0</ele><time>2011-04-30T05:52:30.0000000+00:00</time></trkpt><trkpt lat="20.956867" lon="107.058022"><ele>-6.0</ele><time>2011-04-30T05:52:35.0000000+00:00</time></trkpt><trkpt lat="20.956905" lon="107.057983"><ele>-5.9</ele><time>2011-04-30T05:52:40.0000000+00:00</time></trkpt><trkpt lat="20.956945" lon="107.057961"><ele>-5.9</ele><time>2011-04-30T05:52:45.0000000+00:00</time></trkpt><trkpt lat="20.956932" lon="107.057884"><ele>-5.9</ele><time>2011-04-30T05:52:50.0000000+00:00</time></trkpt><trkpt lat="20.956903" lon="107.057861"><ele>-5.9</ele><time>2011-04-30T05:52:55.0000000+00:00</time></trkpt><trkpt lat="20.956844" lon="107.057846"><ele>-5.9</ele><time>2011-04-30T05:53:00.0000000+00:00</time></trkpt><trkpt lat="20.956829" lon="107.057838"><ele>-6.0</ele><time>2011-04-30T05:53:05.0000000+00:00</time></trkpt><trkpt lat="20.956829" lon="107.057808"><ele>-6.0</ele><time>2011-04-30T05:53:10.0000000+00:00</time></trkpt><trkpt lat="20.956827" lon="107.0578"><ele>-6.0</ele><time>2011-04-30T05:53:15.0000000+00:00</time></trkpt><trkpt lat="20.956835" lon="107.057793"><ele>-6.0</ele><time>2011-04-30T05:53:20.0000000+00:00</time></trkpt><trkpt lat="20.956823" lon="107.05777"><ele>-6.0</ele><time>2011-04-30T05:53:25.0000000+00:00</time></trkpt><trkpt lat="20.956831" lon="107.05777"><ele>-6.1</ele><time>2011-04-30T05:53:30.0000000+00:00</time></trkpt><trkpt lat="20.956839" lon="107.057793"><ele>-6.1</ele><time>2011-04-30T05:53:35.0000000+00:00</time></trkpt><trkpt lat="20.956839" lon="107.0578"><ele>-6.1</ele><time>2011-04-30T05:53:40.0000000+00:00</time></trkpt><trkpt lat="20.956852" lon="107.057831"><ele>-6.1</ele><time>2011-04-30T05:53:45.0000000+00:00</time></trkpt><trkpt lat="20.956863" lon="107.057846"><ele>-6.2</ele><time>2011-04-30T05:53:50.0000000+00:00</time></trkpt><trkpt lat="20.956886" lon="107.057816"><ele>-6.2</ele><time>2011-04-30T05:53:55.0000000+00:00</time></trkpt><trkpt lat="20.956892" lon="107.057816"><ele>-6.2</ele><time>2011-04-30T05:54:00.0000000+00:00</time></trkpt><trkpt lat="20.956894" lon="107.057816"><ele>-6.2</ele><time>2011-04-30T05:54:05.0000000+00:00</time></trkpt><trkpt lat="20.956905" lon="107.057777"><ele>-6.1</ele><time>2011-04-30T05:54:10.0000000+00:00</time></trkpt><trkpt lat="20.956871" lon="107.0578"><ele>-6.2</ele><time>2011-04-30T05:54:15.0000000+00:00</time></trkpt><trkpt lat="20.956867" lon="107.057869"><ele>-6.1</ele><time>2011-04-30T05:54:20.0000000+00:00</time></trkpt><trkpt lat="20.956844" lon="107.057938"><ele>-6.1</ele><time>2011-04-30T05:54:25.0000000+00:00</time></trkpt><trkpt lat="20.956854" lon="107.057976"><ele>-6.0</ele><time>2011-04-30T05:54:30.0000000+00:00</time></trkpt><trkpt lat="20.956835" lon="107.058037"><ele>-5.9</ele><time>2011-04-30T05:54:35.0000000+00:00</time></trkpt><trkpt lat="20.95682" lon="107.058083"><ele>-5.9</ele><time>2011-04-30T05:54:40.0000000+00:00</time></trkpt><trkpt lat="20.956816" lon="107.05809"><ele>-5.7</ele><time>2011-04-30T05:54:45.0000000+00:00</time></trkpt><trkpt lat="20.956869" lon="107.058022"><ele>-5.5</ele><time>2011-04-30T05:54:50.0000000+00:00</time></trkpt><trkpt lat="20.956882" lon="107.058022"><ele>-5.4</ele><time>2011-04-30T05:54:55.0000000+00:00</time></trkpt><trkpt lat="20.956926" lon="107.057976"><ele>-5.3</ele><time>2011-04-30T05:55:00.0000000+00:00</time></trkpt><trkpt lat="20.956944" lon="107.057976"><ele>-5.1</ele><time>2011-04-30T05:55:05.0000000+00:00</time></trkpt><trkpt lat="20.956938" lon="107.057953"><ele>-5.1</ele><time>2011-04-30T05:55:10.0000000+00:00</time></trkpt><trkpt lat="20.956936" lon="107.057961"><ele>-5.0</ele><time>2011-04-30T05:55:15.0000000+00:00</time></trkpt><trkpt lat="20.956911" lon="107.057953"><ele>-4.9</ele><time>2011-04-30T05:55:20.0000000+00:00</time></trkpt><trkpt lat="20.956909" lon="107.057938"><ele>-4.8</ele><time>2011-04-30T05:55:25.0000000+00:00</time></trkpt><trkpt lat="20.956917" lon="107.05793"><ele>-4.8</ele><time>2011-04-30T05:55:30.0000000+00:00</time></trkpt><trkpt lat="20.956917" lon="107.057922"><ele>-4.8</ele><time>2011-04-30T05:55:35.0000000+00:00</time></trkpt><trkpt lat="20.956921" lon="107.057938"><ele>-4.8</ele><time>2011-04-30T05:55:40.0000000+00:00</time></trkpt><trkpt lat="20.95693" lon="107.057938"><ele>-4.7</ele><time>2011-04-30T05:55:45.0000000+00:00</time></trkpt><trkpt lat="20.956913" lon="107.057938"><ele>-4.6</ele><time>2011-04-30T05:55:50.0000000+00:00</time></trkpt><trkpt lat="20.956913" lon="107.057938"><ele>-4.6</ele><time>2011-04-30T05:55:55.0000000+00:00</time></trkpt><trkpt lat="20.95689" lon="107.057892"><ele>-4.7</ele><time>2011-04-30T05:56:00.0000000+00:00</time></trkpt><trkpt lat="20.956877" lon="107.057854"><ele>-4.9</ele><time>2011-04-30T05:56:05.0000000+00:00</time></trkpt><trkpt lat="20.956839" lon="107.057838"><ele>-5.2</ele><time>2011-04-30T05:56:10.0000000+00:00</time></trkpt><trkpt lat="20.956856" lon="107.057816"><ele>-5.3</ele><time>2011-04-30T05:56:15.0000000+00:00</time></trkpt><trkpt lat="20.956869" lon="107.057785"><ele>-5.2</ele><time>2011-04-30T05:56:20.0000000+00:00</time></trkpt><trkpt lat="20.956892" lon="107.057808"><ele>-4.6</ele><time>2011-04-30T05:56:25.0000000+00:00</time></trkpt><trkpt lat="20.956915" lon="107.057823"><ele>-4.3</ele><time>2011-04-30T05:56:30.0000000+00:00</time></trkpt><trkpt lat="20.956921" lon="107.057838"><ele>-4.0</ele><time>2011-04-30T05:56:35.0000000+00:00</time></trkpt><trkpt lat="20.956926" lon="107.057846"><ele>-3.8</ele><time>2011-04-30T05:56:40.0000000+00:00</time></trkpt><trkpt lat="20.9569" lon="107.057877"><ele>-3.5</ele><time>2011-04-30T05:56:45.0000000+00:00</time></trkpt><trkpt lat="20.956896" lon="107.057915"><ele>-3.5</ele><time>2011-04-30T05:56:50.0000000+00:00</time></trkpt><trkpt lat="20.956886" lon="107.057945"><ele>-3.6</ele><time>2011-04-30T05:56:55.0000000+00:00</time></trkpt><trkpt lat="20.956869" lon="107.057938"><ele>-3.5</ele><time>2011-04-30T05:57:00.0000000+00:00</time></trkpt><trkpt lat="20.956861" lon="107.057922"><ele>-3.4</ele><time>2011-04-30T05:57:05.0000000+00:00</time></trkpt><trkpt lat="20.956833" lon="107.057907"><ele>-3.4</ele><time>2011-04-30T05:57:10.0000000+00:00</time></trkpt><trkpt lat="20.956799" lon="107.057915"><ele>-3.4</ele><time>2011-04-30T05:57:15.0000000+00:00</time></trkpt><trkpt lat="20.956779" lon="107.057846"><ele>-3.2</ele><time>2011-04-30T05:57:20.0000000+00:00</time></trkpt><trkpt lat="20.956785" lon="107.057823"><ele>-3.2</ele><time>2011-04-30T05:57:25.0000000+00:00</time></trkpt><trkpt lat="20.956779" lon="107.0578"><ele>-3.1</ele><time>2011-04-30T05:57:30.0000000+00:00</time></trkpt><trkpt lat="20.956787" lon="107.057755"><ele>-3.1</ele><time>2011-04-30T05:57:35.0000000+00:00</time></trkpt><trkpt lat="20.956839" lon="107.057747"><ele>-3.1</ele><time>2011-04-30T05:57:40.0000000+00:00</time></trkpt><trkpt lat="20.956886" lon="107.057747"><ele>-3.2</ele><time>2011-04-30T05:57:45.0000000+00:00</time></trkpt><trkpt lat="20.956835" lon="107.057793"><ele>-3.4</ele><time>2011-04-30T05:57:50.0000000+00:00</time></trkpt><trkpt lat="20.956835" lon="107.0578"><ele>-3.7</ele><time>2011-04-30T05:57:55.0000000+00:00</time></trkpt><trkpt lat="20.956873" lon="107.057785"><ele>-3.7</ele><time>2011-04-30T05:58:00.0000000+00:00</time></trkpt><trkpt lat="20.956879" lon="107.057793"><ele>-3.7</ele><time>2011-04-30T05:58:05.0000000+00:00</time></trkpt><trkpt lat="20.956886" lon="107.057777"><ele>-3.6</ele><time>2011-04-30T05:58:10.0000000+00:00</time></trkpt><trkpt lat="20.95689" lon="107.057777"><ele>-3.6</ele><time>2011-04-30T05:58:15.0000000+00:00</time></trkpt><trkpt lat="20.956879" lon="107.057831"><ele>-3.4</ele><time>2011-04-30T05:58:20.0000000+00:00</time></trkpt><trkpt lat="20.956888" lon="107.057884"><ele>-2.6</ele><time>2011-04-30T05:58:25.0000000+00:00</time></trkpt><trkpt lat="20.956896" lon="107.057846"><ele>-2.0</ele><time>2011-04-30T05:58:30.0000000+00:00</time></trkpt><trkpt lat="20.956861" lon="107.057861"><ele>-1.7</ele><time>2011-04-30T05:58:35.0000000+00:00</time></trkpt><trkpt lat="20.956823" lon="107.057884"><ele>-1.0</ele><time>2011-04-30T05:58:40.0000000+00:00</time></trkpt><trkpt lat="20.956825" lon="107.057861"><ele>-0.9</ele><time>2011-04-30T05:58:45.0000000+00:00</time></trkpt><trkpt lat="20.956839" lon="107.057854"><ele>-0.8</ele><time>2011-04-30T05:58:50.0000000+00:00</time></trkpt><trkpt lat="20.956856" lon="107.057861"><ele>-1.4</ele><time>2011-04-30T05:58:55.0000000+00:00</time></trkpt><trkpt lat="20.956844" lon="107.057869"><ele>-1.2</ele><time>2011-04-30T05:59:00.0000000+00:00</time></trkpt><trkpt lat="20.956842" lon="107.057892"><ele>-0.9</ele><time>2011-04-30T05:59:05.0000000+00:00</time></trkpt><trkpt lat="20.956841" lon="107.057892"><ele>-0.9</ele><time>2011-04-30T05:59:10.0000000+00:00</time></trkpt><trkpt lat="20.956831" lon="107.057884"><ele>-0.9</ele><time>2011-04-30T05:59:15.0000000+00:00</time></trkpt><trkpt lat="20.956818" lon="107.057838"><ele>-1.0</ele><time>2011-04-30T05:59:20.0000000+00:00</time></trkpt><trkpt lat="20.956823" lon="107.057861"><ele>-1.1</ele><time>2011-04-30T05:59:25.0000000+00:00</time></trkpt><trkpt lat="20.956802" lon="107.057846"><ele>-1.2</ele><time>2011-04-30T05:59:30.0000000+00:00</time></trkpt><trkpt lat="20.956835" lon="107.057877"><ele>-0.5</ele><time>2011-04-30T05:59:35.0000000+00:00</time></trkpt><trkpt lat="20.956898" lon="107.057831"><ele>-0.2</ele><time>2011-04-30T05:59:40.0000000+00:00</time></trkpt><trkpt lat="20.95693" lon="107.057869"><ele>1.3</ele><time>2011-04-30T05:59:45.0000000+00:00</time></trkpt><trkpt lat="20.956953" lon="107.057907"><ele>2.6</ele><time>2011-04-30T05:59:50.0000000+00:00</time></trkpt><trkpt lat="20.956982" lon="107.057953"><ele>3.4</ele><time>2011-04-30T05:59:55.0000000+00:00</time></trkpt><trkpt lat="20.957005" lon="107.057976"><ele>4.0</ele><time>2011-04-30T06:00:00.0000000+00:00</time></trkpt><trkpt lat="20.957035" lon="107.057976"><ele>5.0</ele><time>2011-04-30T06:00:05.0000000+00:00</time></trkpt><trkpt lat="20.957037" lon="107.057968"><ele>5.8</ele><time>2011-04-30T06:00:10.0000000+00:00</time></trkpt><trkpt lat="20.957006" lon="107.057961"><ele>6.6</ele><time>2011-04-30T06:00:15.0000000+00:00</time></trkpt><trkpt lat="20.956951" lon="107.057953"><ele>7.5</ele><time>2011-04-30T06:00:20.0000000+00:00</time></trkpt><trkpt lat="20.956898" lon="107.057892"><ele>8.1</ele><time>2011-04-30T06:00:25.0000000+00:00</time></trkpt><trkpt lat="20.956898" lon="107.057915"><ele>8.5</ele><time>2011-04-30T06:00:30.0000000+00:00</time></trkpt><trkpt lat="20.956907" lon="107.057915"><ele>8.5</ele><time>2011-04-30T06:00:35.0000000+00:00</time></trkpt><trkpt lat="20.956907" lon="107.057899"><ele>8.7</ele><time>2011-04-30T06:00:40.0000000+00:00</time></trkpt><trkpt lat="20.956919" lon="107.057892"><ele>9.6</ele><time>2011-04-30T06:00:45.0000000+00:00</time></trkpt><trkpt lat="20.956944" lon="107.057892"><ele>10.5</ele><time>2011-04-30T06:00:50.0000000+00:00</time></trkpt><trkpt lat="20.956942" lon="107.057846"><ele>10.9</ele><time>2011-04-30T06:00:55.0000000+00:00</time></trkpt><trkpt lat="20.956989" lon="107.057846"><ele>11.5</ele><time>2011-04-30T06:01:00.0000000+00:00</time></trkpt><trkpt lat="20.957039" lon="107.057808"><ele>12.3</ele><time>2011-04-30T06:01:05.0000000+00:00</time></trkpt><trkpt lat="20.957045" lon="107.0578"><ele>12.4</ele><time>2011-04-30T06:01:10.0000000+00:00</time></trkpt><trkpt lat="20.957033" lon="107.057831"><ele>12.6</ele><time>2011-04-30T06:01:15.0000000+00:00</time></trkpt><trkpt lat="20.956999" lon="107.057846"><ele>13.2</ele><time>2011-04-30T06:01:20.0000000+00:00</time></trkpt><trkpt lat="20.956966" lon="107.057907"><ele>13.5</ele><time>2011-04-30T06:01:25.0000000+00:00</time></trkpt><trkpt lat="20.956909" lon="107.057915"><ele>11.5</ele><time>2011-04-30T06:01:30.0000000+00:00</time></trkpt><trkpt lat="20.956852" lon="107.057892"><ele>9.7</ele><time>2011-04-30T06:01:35.0000000+00:00</time></trkpt><trkpt lat="20.956854" lon="107.057892"><ele>9.1</ele><time>2011-04-30T06:01:40.0000000+00:00</time></trkpt><trkpt lat="20.956848" lon="107.057838"><ele>9.0</ele><time>2011-04-30T06:01:45.0000000+00:00</time></trkpt><trkpt lat="20.956841" lon="107.057793"><ele>9.0</ele><time>2011-04-30T06:01:50.0000000+00:00</time></trkpt><trkpt lat="20.956818" lon="107.057785"><ele>9.0</ele><time>2011-04-30T06:01:55.0000000+00:00</time></trkpt><trkpt lat="20.956791" lon="107.057793"><ele>9.0</ele><time>2011-04-30T06:02:00.0000000+00:00</time></trkpt><trkpt lat="20.956776" lon="107.05777"><ele>9.3</ele><time>2011-04-30T06:02:05.0000000+00:00</time></trkpt><trkpt lat="20.956789" lon="107.05777"><ele>9.8</ele><time>2011-04-30T06:02:10.0000000+00:00</time></trkpt><trkpt lat="20.956781" lon="107.057724"><ele>10.4</ele><time>2011-04-30T06:02:15.0000000+00:00</time></trkpt><trkpt lat="20.956835" lon="107.057716"><ele>10.6</ele><time>2011-04-30T06:02:20.0000000+00:00</time></trkpt><trkpt lat="20.956837" lon="107.057716"><ele>11.1</ele><time>2011-04-30T06:02:25.0000000+00:00</time></trkpt><trkpt lat="20.956852" lon="107.057716"><ele>11.4</ele><time>2011-04-30T06:02:30.0000000+00:00</time></trkpt><trkpt lat="20.956848" lon="107.057739"><ele>11.8</ele><time>2011-04-30T06:02:35.0000000+00:00</time></trkpt><trkpt lat="20.956837" lon="107.057762"><ele>12.1</ele><time>2011-04-30T06:02:40.0000000+00:00</time></trkpt><trkpt lat="20.956863" lon="107.0578"><ele>12.9</ele><time>2011-04-30T06:02:45.0000000+00:00</time></trkpt><trkpt lat="20.956886" lon="107.05777"><ele>13.4</ele><time>2011-04-30T06:02:50.0000000+00:00</time></trkpt><trkpt lat="20.956858" lon="107.057808"><ele>13.5</ele><time>2011-04-30T06:02:55.0000000+00:00</time></trkpt><trkpt lat="20.956894" lon="107.057892"><ele>13.4</ele><time>2011-04-30T06:03:00.0000000+00:00</time></trkpt><trkpt lat="20.956873" lon="107.057968"><ele>13.3</ele><time>2011-04-30T06:03:05.0000000+00:00</time></trkpt><trkpt lat="20.956886" lon="107.057991"><ele>13.1</ele><time>2011-04-30T06:03:10.0000000+00:00</time></trkpt><trkpt lat="20.956972" lon="107.057892"><ele>13.0</ele><time>2011-04-30T06:03:15.0000000+00:00</time></trkpt><trkpt lat="20.956938" lon="107.057922"><ele>13.0</ele><time>2011-04-30T06:03:20.0000000+00:00</time></trkpt><trkpt lat="20.956783" lon="107.057899"><ele>13.1</ele><time>2011-04-30T06:03:25.0000000+00:00</time></trkpt><trkpt lat="20.956652" lon="107.057922"><ele>13.7</ele><time>2011-04-30T06:03:30.0000000+00:00</time></trkpt><trkpt lat="20.956602" lon="107.057953"><ele>14.0</ele><time>2011-04-30T06:03:35.0000000+00:00</time></trkpt><trkpt lat="20.956612" lon="107.058075"><ele>10.3</ele><time>2011-04-30T06:03:40.0000000+00:00</time></trkpt><trkpt lat="20.956656" lon="107.058121"><ele>9.0</ele><time>2011-04-30T06:03:45.0000000+00:00</time></trkpt><trkpt lat="20.95673" lon="107.05806"><ele>9.4</ele><time>2011-04-30T06:03:50.0000000+00:00</time></trkpt><trkpt lat="20.956783" lon="107.058037"><ele>10.6</ele><time>2011-04-30T06:03:55.0000000+00:00</time></trkpt><trkpt lat="20.956802" lon="107.058014"><ele>9.1</ele><time>2011-04-30T06:04:00.0000000+00:00</time></trkpt><trkpt lat="20.9568" lon="107.058014"><ele>8.2</ele><time>2011-04-30T06:04:05.0000000+00:00</time></trkpt><trkpt lat="20.95681" lon="107.058006"><ele>8.6</ele><time>2011-04-30T06:04:10.0000000+00:00</time></trkpt><trkpt lat="20.956856" lon="107.058044"><ele>7.8</ele><time>2011-04-30T06:04:15.0000000+00:00</time></trkpt><trkpt lat="20.956858" lon="107.058067"><ele>8.4</ele><time>2011-04-30T06:04:20.0000000+00:00</time></trkpt><trkpt lat="20.956848" lon="107.057961"><ele>9.7</ele><time>2011-04-30T06:04:25.0000000+00:00</time></trkpt><trkpt lat="20.956785" lon="107.057785"><ele>13.3</ele><time>2011-04-30T06:04:30.0000000+00:00</time></trkpt><trkpt lat="20.956787" lon="107.05777"><ele>15.4</ele><time>2011-04-30T06:04:35.0000000+00:00</time></trkpt><trkpt lat="20.956762" lon="107.057701"><ele>16.7</ele><time>2011-04-30T06:04:40.0000000+00:00</time></trkpt><trkpt lat="20.956745" lon="107.057678"><ele>17.3</ele><time>2011-04-30T06:04:45.0000000+00:00</time></trkpt><trkpt lat="20.956768" lon="107.057755"><ele>18.0</ele><time>2011-04-30T06:04:50.0000000+00:00</time></trkpt><trkpt lat="20.956718" lon="107.057877"><ele>18.3</ele><time>2011-04-30T06:04:55.0000000+00:00</time></trkpt><trkpt lat="20.95673" lon="107.057938"><ele>19.0</ele><time>2011-04-30T06:05:00.0000000+00:00</time></trkpt><trkpt lat="20.956722" lon="107.057968"><ele>19.6</ele><time>2011-04-30T06:05:05.0000000+00:00</time></trkpt><trkpt lat="20.956703" lon="107.057983"><ele>19.5</ele><time>2011-04-30T06:05:10.0000000+00:00</time></trkpt><trkpt lat="20.956696" lon="107.058006"><ele>18.7</ele><time>2011-04-30T06:05:15.0000000+00:00</time></trkpt><trkpt lat="20.956707" lon="107.057991"><ele>17.8</ele><time>2011-04-30T06:05:20.0000000+00:00</time></trkpt><trkpt lat="20.956726" lon="107.058022"><ele>16.7</ele><time>2011-04-30T06:05:25.0000000+00:00</time></trkpt><trkpt lat="20.956711" lon="107.057991"><ele>15.1</ele><time>2011-04-30T06:05:30.0000000+00:00</time></trkpt><trkpt lat="20.956715" lon="107.058006"><ele>13.2</ele><time>2011-04-30T06:05:35.0000000+00:00</time></trkpt><trkpt lat="20.95673" lon="107.057999"><ele>12.5</ele><time>2011-04-30T06:05:40.0000000+00:00</time></trkpt><trkpt lat="20.95673" lon="107.057983"><ele>12.1</ele><time>2011-04-30T06:05:45.0000000+00:00</time></trkpt><trkpt lat="20.956738" lon="107.057968"><ele>12.5</ele><time>2011-04-30T06:05:50.0000000+00:00</time></trkpt><trkpt lat="20.956787" lon="107.057976"><ele>12.6</ele><time>2011-04-30T06:05:55.0000000+00:00</time></trkpt><trkpt lat="20.956795" lon="107.057983"><ele>11.8</ele><time>2011-04-30T06:06:00.0000000+00:00</time></trkpt><trkpt lat="20.956808" lon="107.057999"><ele>8.5</ele><time>2011-04-30T06:06:05.0000000+00:00</time></trkpt><trkpt lat="20.956789" lon="107.057976"><ele>7.3</ele><time>2011-04-30T06:06:10.0000000+00:00</time></trkpt><trkpt lat="20.956778" lon="107.057961"><ele>6.9</ele><time>2011-04-30T06:06:15.0000000+00:00</time></trkpt><trkpt lat="20.956799" lon="107.057945"><ele>7.4</ele><time>2011-04-30T06:06:20.0000000+00:00</time></trkpt><trkpt lat="20.956797" lon="107.058037"><ele>7.5</ele><time>2011-04-30T06:06:25.0000000+00:00</time></trkpt><trkpt lat="20.956753" lon="107.058044"><ele>7.6</ele><time>2011-04-30T06:06:30.0000000+00:00</time></trkpt><trkpt lat="20.956741" lon="107.058052"><ele>8.7</ele><time>2011-04-30T06:06:35.0000000+00:00</time></trkpt><trkpt lat="20.956757" lon="107.058075"><ele>8.4</ele><time>2011-04-30T06:06:40.0000000+00:00</time></trkpt><trkpt lat="20.956787" lon="107.058052"><ele>7.9</ele><time>2011-04-30T06:06:45.0000000+00:00</time></trkpt><trkpt lat="20.956736" lon="107.058075"><ele>7.2</ele><time>2011-04-30T06:06:50.0000000+00:00</time></trkpt><trkpt lat="20.956671" lon="107.058098"><ele>6.5</ele><time>2011-04-30T06:06:55.0000000+00:00</time></trkpt><trkpt lat="20.956732" lon="107.058121"><ele>6.6</ele><time>2011-04-30T06:07:00.0000000+00:00</time></trkpt><trkpt lat="20.956749" lon="107.058098"><ele>7.1</ele><time>2011-04-30T06:07:05.0000000+00:00</time></trkpt><trkpt lat="20.95673" lon="107.058029"><ele>7.2</ele><time>2011-04-30T06:07:10.0000000+00:00</time></trkpt><trkpt lat="20.956686" lon="107.058029"><ele>7.5</ele><time>2011-04-30T06:07:15.0000000+00:00</time></trkpt><trkpt lat="20.956667" lon="107.057968"><ele>7.0</ele><time>2011-04-30T06:07:20.0000000+00:00</time></trkpt><trkpt lat="20.956661" lon="107.057945"><ele>6.7</ele><time>2011-04-30T06:07:25.0000000+00:00</time></trkpt><trkpt lat="20.956678" lon="107.057945"><ele>3.0</ele><time>2011-04-30T06:07:30.0000000+00:00</time></trkpt><trkpt lat="20.956669" lon="107.057945"><ele>0.7</ele><time>2011-04-30T06:07:35.0000000+00:00</time></trkpt><trkpt lat="20.956633" lon="107.057961"><ele>1.4</ele><time>2011-04-30T06:07:40.0000000+00:00</time></trkpt><trkpt lat="20.956589" lon="107.057961"><ele>-0.2</ele><time>2011-04-30T06:07:45.0000000+00:00</time></trkpt><trkpt lat="20.956491" lon="107.057945"><ele>-5.0</ele><time>2011-04-30T06:07:50.0000000+00:00</time></trkpt><trkpt lat="20.956491" lon="107.05793"><ele>-8.5</ele><time>2011-04-30T06:07:55.0000000+00:00</time></trkpt><trkpt lat="20.95643" lon="107.057945"><ele>-12.0</ele><time>2011-04-30T06:08:00.0000000+00:00</time></trkpt><trkpt lat="20.956408" lon="107.057983"><ele>-13.3</ele><time>2011-04-30T06:08:05.0000000+00:00</time></trkpt><trkpt lat="20.956404" lon="107.057976"><ele>-13.6</ele><time>2011-04-30T06:08:10.0000000+00:00</time></trkpt><trkpt lat="20.9564" lon="107.057961"><ele>-13.6</ele><time>2011-04-30T06:08:15.0000000+00:00</time></trkpt><trkpt lat="20.956379" lon="107.057961"><ele>-13.9</ele><time>2011-04-30T06:08:20.0000000+00:00</time></trkpt><trkpt lat="20.956345" lon="107.057968"><ele>-12.9</ele><time>2011-04-30T06:08:25.0000000+00:00</time></trkpt><trkpt lat="20.956352" lon="107.057945"><ele>-13.2</ele><time>2011-04-30T06:08:30.0000000+00:00</time></trkpt><trkpt lat="20.956347" lon="107.057892"><ele>-14.0</ele><time>2011-04-30T06:08:35.0000000+00:00</time></trkpt><trkpt lat="20.956291" lon="107.057846"><ele>-13.9</ele><time>2011-04-30T06:08:40.0000000+00:00</time></trkpt><trkpt lat="20.956205" lon="107.0578"><ele>-13.9</ele><time>2011-04-30T06:08:45.0000000+00:00</time></trkpt><trkpt lat="20.956125" lon="107.057701"><ele>-14.2</ele><time>2011-04-30T06:08:50.0000000+00:00</time></trkpt><trkpt lat="20.956106" lon="107.057709"><ele>-13.4</ele><time>2011-04-30T06:08:55.0000000+00:00</time></trkpt><trkpt lat="20.956036" lon="107.05761"><ele>-12.7</ele><time>2011-04-30T06:09:00.0000000+00:00</time></trkpt><trkpt lat="20.955957" lon="107.05748"><ele>-7.6</ele><time>2011-04-30T06:09:05.0000000+00:00</time></trkpt><trkpt lat="20.955898" lon="107.057343"><ele>-5.3</ele><time>2011-04-30T06:09:10.0000000+00:00</time></trkpt><trkpt lat="20.955839" lon="107.057236"><ele>-4.3</ele><time>2011-04-30T06:09:15.0000000+00:00</time></trkpt><trkpt lat="20.955778" lon="107.057159"><ele>-2.8</ele><time>2011-04-30T06:09:20.0000000+00:00</time></trkpt><trkpt lat="20.955719" lon="107.057098"><ele>-1.9</ele><time>2011-04-30T06:09:25.0000000+00:00</time></trkpt><trkpt lat="20.95565" lon="107.057045"><ele>-1.7</ele><time>2011-04-30T06:09:30.0000000+00:00</time></trkpt><trkpt lat="20.955584" lon="107.056984"><ele>-2.4</ele><time>2011-04-30T06:09:35.0000000+00:00</time></trkpt><trkpt lat="20.955509" lon="107.056915"><ele>-3.2</ele><time>2011-04-30T06:09:40.0000000+00:00</time></trkpt><trkpt lat="20.955425" lon="107.05687"><ele>-3.4</ele><time>2011-04-30T06:09:45.0000000+00:00</time></trkpt><trkpt lat="20.955336" lon="107.056816"><ele>-3.2</ele><time>2011-04-30T06:09:50.0000000+00:00</time></trkpt><trkpt lat="20.955244" lon="107.05677"><ele>-3.0</ele><time>2011-04-30T06:09:55.0000000+00:00</time></trkpt><trkpt lat="20.955154" lon="107.056732"><ele>-3.1</ele><time>2011-04-30T06:10:00.0000000+00:00</time></trkpt><trkpt lat="20.955055" lon="107.056709"><ele>-3.2</ele><time>2011-04-30T06:10:05.0000000+00:00</time></trkpt><trkpt lat="20.954964" lon="107.056664"><ele>-3.4</ele><time>2011-04-30T06:10:10.0000000+00:00</time></trkpt><trkpt lat="20.954872" lon="107.056602"><ele>-3.4</ele><time>2011-04-30T06:10:15.0000000+00:00</time></trkpt><trkpt lat="20.954784" lon="107.056534"><ele>-3.7</ele><time>2011-04-30T06:10:20.0000000+00:00</time></trkpt><trkpt lat="20.954699" lon="107.056458"><ele>-4.2</ele><time>2011-04-30T06:10:25.0000000+00:00</time></trkpt><trkpt lat="20.954624" lon="107.056412"><ele>-4.2</ele><time>2011-04-30T06:10:30.0000000+00:00</time></trkpt><trkpt lat="20.954546" lon="107.056343"><ele>-4.5</ele><time>2011-04-30T06:10:35.0000000+00:00</time></trkpt><trkpt lat="20.954458" lon="107.056267"><ele>-6.8</ele><time>2011-04-30T06:10:40.0000000+00:00</time></trkpt><trkpt lat="20.954376" lon="107.056183"><ele>-7.3</ele><time>2011-04-30T06:10:45.0000000+00:00</time></trkpt><trkpt lat="20.954294" lon="107.056107"><ele>-9.3</ele><time>2011-04-30T06:10:50.0000000+00:00</time></trkpt><trkpt lat="20.95421" lon="107.05603"><ele>-10.5</ele><time>2011-04-30T06:10:55.0000000+00:00</time></trkpt><trkpt lat="20.954138" lon="107.055992"><ele>-10.6</ele><time>2011-04-30T06:11:00.0000000+00:00</time></trkpt><trkpt lat="20.954062" lon="107.055916"><ele>-10.8</ele><time>2011-04-30T06:11:05.0000000+00:00</time></trkpt><trkpt lat="20.953995" lon="107.055824"><ele>-9.1</ele><time>2011-04-30T06:11:10.0000000+00:00</time></trkpt><trkpt lat="20.953924" lon="107.055733"><ele>-7.0</ele><time>2011-04-30T06:11:15.0000000+00:00</time></trkpt><trkpt lat="20.95385" lon="107.055664"><ele>-6.7</ele><time>2011-04-30T06:11:20.0000000+00:00</time></trkpt><trkpt lat="20.953779" lon="107.055573"><ele>-5.1</ele><time>2011-04-30T06:11:25.0000000+00:00</time></trkpt><trkpt lat="20.953711" lon="107.055496"><ele>-3.8</ele><time>2011-04-30T06:11:30.0000000+00:00</time></trkpt><trkpt lat="20.953634" lon="107.055428"><ele>-3.6</ele><time>2011-04-30T06:11:35.0000000+00:00</time></trkpt><trkpt lat="20.953556" lon="107.055374"><ele>-3.4</ele><time>2011-04-30T06:11:40.0000000+00:00</time></trkpt><trkpt lat="20.953474" lon="107.055321"><ele>-3.5</ele><time>2011-04-30T06:11:45.0000000+00:00</time></trkpt><trkpt lat="20.95339" lon="107.05526"><ele>-3.2</ele><time>2011-04-30T06:11:50.0000000+00:00</time></trkpt><trkpt lat="20.95331" lon="107.055199"><ele>-3.8</ele><time>2011-04-30T06:11:55.0000000+00:00</time></trkpt><trkpt lat="20.953226" lon="107.05513"><ele>-4.1</ele><time>2011-04-30T06:12:00.0000000+00:00</time></trkpt><trkpt lat="20.953148" lon="107.055069"><ele>-4.9</ele><time>2011-04-30T06:12:05.0000000+00:00</time></trkpt><trkpt lat="20.953066" lon="107.055"><ele>-5.4</ele><time>2011-04-30T06:12:10.0000000+00:00</time></trkpt><trkpt lat="20.952986" lon="107.054932"><ele>-6.7</ele><time>2011-04-30T06:12:15.0000000+00:00</time></trkpt><trkpt lat="20.952902" lon="107.054863"><ele>-7.3</ele><time>2011-04-30T06:12:20.0000000+00:00</time></trkpt><trkpt lat="20.952824" lon="107.054787"><ele>-7.8</ele><time>2011-04-30T06:12:25.0000000+00:00</time></trkpt><trkpt lat="20.952744" lon="107.05471"><ele>-9.2</ele><time>2011-04-30T06:12:30.0000000+00:00</time></trkpt><trkpt lat="20.952669" lon="107.054642"><ele>-8.8</ele><time>2011-04-30T06:12:35.0000000+00:00</time></trkpt><trkpt lat="20.952597" lon="107.054581"><ele>-6.7</ele><time>2011-04-30T06:12:40.0000000+00:00</time></trkpt><trkpt lat="20.95252" lon="107.05452"><ele>-6.1</ele><time>2011-04-30T06:12:45.0000000+00:00</time></trkpt><trkpt lat="20.952446" lon="107.054443"><ele>-4.3</ele><time>2011-04-30T06:12:50.0000000+00:00</time></trkpt><trkpt lat="20.952372" lon="107.054359"><ele>-4.1</ele><time>2011-04-30T06:12:55.0000000+00:00</time></trkpt><trkpt lat="20.952297" lon="107.054291"><ele>-4.5</ele><time>2011-04-30T06:13:00.0000000+00:00</time></trkpt><trkpt lat="20.952225" lon="107.054214"><ele>-5.0</ele><time>2011-04-30T06:13:05.0000000+00:00</time></trkpt><trkpt lat="20.952145" lon="107.054146"><ele>-6.1</ele><time>2011-04-30T06:13:10.0000000+00:00</time></trkpt><trkpt lat="20.952066" lon="107.05407"><ele>-6.3</ele><time>2011-04-30T06:13:15.0000000+00:00</time></trkpt><trkpt lat="20.951982" lon="107.054031"><ele>-5.6</ele><time>2011-04-30T06:13:20.0000000+00:00</time></trkpt><trkpt lat="20.951899" lon="107.053978"><ele>-5.5</ele><time>2011-04-30T06:13:25.0000000+00:00</time></trkpt><trkpt lat="20.951809" lon="107.053932"><ele>-5.5</ele><time>2011-04-30T06:13:30.0000000+00:00</time></trkpt><trkpt lat="20.951719" lon="107.053871"><ele>-6.1</ele><time>2011-04-30T06:13:35.0000000+00:00</time></trkpt><trkpt lat="20.951633" lon="107.053802"><ele>-7.7</ele><time>2011-04-30T06:13:40.0000000+00:00</time></trkpt><trkpt lat="20.951559" lon="107.053741"><ele>-7.5</ele><time>2011-04-30T06:13:45.0000000+00:00</time></trkpt><trkpt lat="20.951479" lon="107.05368"><ele>-7.4</ele><time>2011-04-30T06:13:50.0000000+00:00</time></trkpt><trkpt lat="20.951405" lon="107.053612"><ele>-7.3</ele><time>2011-04-30T06:13:55.0000000+00:00</time></trkpt><trkpt lat="20.951336" lon="107.053566"><ele>-6.1</ele><time>2011-04-30T06:14:00.0000000+00:00</time></trkpt><trkpt lat="20.951254" lon="107.053497"><ele>-5.2</ele><time>2011-04-30T06:14:05.0000000+00:00</time></trkpt><trkpt lat="20.951172" lon="107.053413"><ele>-4.6</ele><time>2011-04-30T06:14:10.0000000+00:00</time></trkpt><trkpt lat="20.951094" lon="107.053337"><ele>-5.3</ele><time>2011-04-30T06:14:15.0000000+00:00</time></trkpt><trkpt lat="20.951012" lon="107.053253"><ele>-6.1</ele><time>2011-04-30T06:14:20.0000000+00:00</time></trkpt><trkpt lat="20.950933" lon="107.053192"><ele>-5.9</ele><time>2011-04-30T06:14:25.0000000+00:00</time></trkpt><trkpt lat="20.950861" lon="107.053131"><ele>-5.5</ele><time>2011-04-30T06:14:30.0000000+00:00</time></trkpt><trkpt lat="20.950781" lon="107.053062"><ele>-6.0</ele><time>2011-04-30T06:14:35.0000000+00:00</time></trkpt><trkpt lat="20.950703" lon="107.052994"><ele>-5.7</ele><time>2011-04-30T06:14:40.0000000+00:00</time></trkpt><trkpt lat="20.950621" lon="107.052917"><ele>-5.6</ele><time>2011-04-30T06:14:45.0000000+00:00</time></trkpt><trkpt lat="20.950539" lon="107.052849"><ele>-6.1</ele><time>2011-04-30T06:14:50.0000000+00:00</time></trkpt><trkpt lat="20.950457" lon="107.05278"><ele>-6.4</ele><time>2011-04-30T06:14:55.0000000+00:00</time></trkpt><trkpt lat="20.95038" lon="107.052719"><ele>-5.5</ele><time>2011-04-30T06:15:00.0000000+00:00</time></trkpt><trkpt lat="20.950302" lon="107.05265"><ele>-5.4</ele><time>2011-04-30T06:15:05.0000000+00:00</time></trkpt><trkpt lat="20.950218" lon="107.052574"><ele>-5.5</ele><time>2011-04-30T06:15:10.0000000+00:00</time></trkpt><trkpt lat="20.950138" lon="107.052513"><ele>-5.2</ele><time>2011-04-30T06:15:15.0000000+00:00</time></trkpt><trkpt lat="20.950054" lon="107.052437"><ele>-5.3</ele><time>2011-04-30T06:15:20.0000000+00:00</time></trkpt><trkpt lat="20.94997" lon="107.052361"><ele>-5.2</ele><time>2011-04-30T06:15:25.0000000+00:00</time></trkpt><trkpt lat="20.949888" lon="107.052299"><ele>-4.8</ele><time>2011-04-30T06:15:30.0000000+00:00</time></trkpt><trkpt lat="20.949806" lon="107.052238"><ele>-4.9</ele><time>2011-04-30T06:15:35.0000000+00:00</time></trkpt><trkpt lat="20.949726" lon="107.052162"><ele>-5.6</ele><time>2011-04-30T06:15:40.0000000+00:00</time></trkpt><trkpt lat="20.949631" lon="107.052101"><ele>-4.2</ele><time>2011-04-30T06:15:45.0000000+00:00</time></trkpt><trkpt lat="20.949547" lon="107.05204"><ele>-3.9</ele><time>2011-04-30T06:15:50.0000000+00:00</time></trkpt><trkpt lat="20.949467" lon="107.051979"><ele>-3.4</ele><time>2011-04-30T06:15:55.0000000+00:00</time></trkpt><trkpt lat="20.949377" lon="107.051903"><ele>-3.7</ele><time>2011-04-30T06:16:00.0000000+00:00</time></trkpt><trkpt lat="20.949295" lon="107.051834"><ele>-3.0</ele><time>2011-04-30T06:16:05.0000000+00:00</time></trkpt><trkpt lat="20.949217" lon="107.051765"><ele>-2.7</ele><time>2011-04-30T06:16:10.0000000+00:00</time></trkpt><trkpt lat="20.949141" lon="107.051689"><ele>-2.8</ele><time>2011-04-30T06:16:15.0000000+00:00</time></trkpt><trkpt lat="20.949059" lon="107.05162"><ele>-2.6</ele><time>2011-04-30T06:16:20.0000000+00:00</time></trkpt><trkpt lat="20.948977" lon="107.051552"><ele>-3.3</ele><time>2011-04-30T06:16:25.0000000+00:00</time></trkpt><trkpt lat="20.948891" lon="107.051483"><ele>-3.6</ele><time>2011-04-30T06:16:30.0000000+00:00</time></trkpt><trkpt lat="20.948814" lon="107.05143"><ele>-3.6</ele><time>2011-04-30T06:16:35.0000000+00:00</time></trkpt><trkpt lat="20.948729" lon="107.051353"><ele>-4.7</ele><time>2011-04-30T06:16:40.0000000+00:00</time></trkpt><trkpt lat="20.948647" lon="107.0513"><ele>-4.1</ele><time>2011-04-30T06:16:45.0000000+00:00</time></trkpt><trkpt lat="20.948563" lon="107.051231"><ele>-3.9</ele><time>2011-04-30T06:16:50.0000000+00:00</time></trkpt><trkpt lat="20.948471" lon="107.05114"><ele>-5.4</ele><time>2011-04-30T06:16:55.0000000+00:00</time></trkpt><trkpt lat="20.948391" lon="107.051056"><ele>-6.7</ele><time>2011-04-30T06:17:00.0000000+00:00</time></trkpt><trkpt lat="20.948315" lon="107.05098"><ele>-6.8</ele><time>2011-04-30T06:17:05.0000000+00:00</time></trkpt><trkpt lat="20.94824" lon="107.050896"><ele>-6.9</ele><time>2011-04-30T06:17:10.0000000+00:00</time></trkpt><trkpt lat="20.948164" lon="107.050819"><ele>-7.4</ele><time>2011-04-30T06:17:15.0000000+00:00</time></trkpt><trkpt lat="20.948092" lon="107.050743"><ele>-7.4</ele><time>2011-04-30T06:17:20.0000000+00:00</time></trkpt><trkpt lat="20.948019" lon="107.050667"><ele>-7.3</ele><time>2011-04-30T06:17:25.0000000+00:00</time></trkpt><trkpt lat="20.947947" lon="107.050591"><ele>-7.4</ele><time>2011-04-30T06:17:30.0000000+00:00</time></trkpt><trkpt lat="20.947874" lon="107.050514"><ele>-7.3</ele><time>2011-04-30T06:17:35.0000000+00:00</time></trkpt><trkpt lat="20.947809" lon="107.05043"><ele>-6.9</ele><time>2011-04-30T06:17:40.0000000+00:00</time></trkpt><trkpt lat="20.947746" lon="107.050362"><ele>-6.5</ele><time>2011-04-30T06:17:45.0000000+00:00</time></trkpt><trkpt lat="20.947674" lon="107.050285"><ele>-5.9</ele><time>2011-04-30T06:17:50.0000000+00:00</time></trkpt><trkpt lat="20.947599" lon="107.050209"><ele>-5.8</ele><time>2011-04-30T06:17:55.0000000+00:00</time></trkpt><trkpt lat="20.947525" lon="107.050125"><ele>-6.3</ele><time>2011-04-30T06:18:00.0000000+00:00</time></trkpt><trkpt lat="20.947454" lon="107.050049"><ele>-6.5</ele><time>2011-04-30T06:18:05.0000000+00:00</time></trkpt><trkpt lat="20.94738" lon="107.049973"><ele>-6.8</ele><time>2011-04-30T06:18:10.0000000+00:00</time></trkpt><trkpt lat="20.947309" lon="107.049896"><ele>-7.2</ele><time>2011-04-30T06:18:15.0000000+00:00</time></trkpt><trkpt lat="20.947229" lon="107.04982"><ele>-7.2</ele><time>2011-04-30T06:18:20.0000000+00:00</time></trkpt><trkpt lat="20.947151" lon="107.049736"><ele>-7.2</ele><time>2011-04-30T06:18:25.0000000+00:00</time></trkpt><trkpt lat="20.947075" lon="107.049667"><ele>-8.2</ele><time>2011-04-30T06:18:30.0000000+00:00</time></trkpt><trkpt lat="20.946993" lon="107.049591"><ele>-8.0</ele><time>2011-04-30T06:18:35.0000000+00:00</time></trkpt><trkpt lat="20.946917" lon="107.049522"><ele>-8.0</ele><time>2011-04-30T06:18:40.0000000+00:00</time></trkpt><trkpt lat="20.946836" lon="107.049461"><ele>-7.1</ele><time>2011-04-30T06:18:45.0000000+00:00</time></trkpt><trkpt lat="20.946756" lon="107.0494"><ele>-6.7</ele><time>2011-04-30T06:18:50.0000000+00:00</time></trkpt><trkpt lat="20.946676" lon="107.049332"><ele>-5.2</ele><time>2011-04-30T06:18:55.0000000+00:00</time></trkpt><trkpt lat="20.946594" lon="107.049271"><ele>-5.0</ele><time>2011-04-30T06:19:00.0000000+00:00</time></trkpt><trkpt lat="20.946508" lon="107.049202"><ele>-4.5</ele><time>2011-04-30T06:19:05.0000000+00:00</time></trkpt><trkpt lat="20.946428" lon="107.049141"><ele>-4.9</ele><time>2011-04-30T06:19:10.0000000+00:00</time></trkpt><trkpt lat="20.946344" lon="107.049057"><ele>-5.6</ele><time>2011-04-30T06:19:15.0000000+00:00</time></trkpt><trkpt lat="20.94627" lon="107.048996"><ele>-5.1</ele><time>2011-04-30T06:19:20.0000000+00:00</time></trkpt><trkpt lat="20.946188" lon="107.048927"><ele>-4.9</ele><time>2011-04-30T06:19:25.0000000+00:00</time></trkpt><trkpt lat="20.946112" lon="107.048859"><ele>-4.4</ele><time>2011-04-30T06:19:30.0000000+00:00</time></trkpt><trkpt lat="20.946041" lon="107.048782"><ele>-4.1</ele><time>2011-04-30T06:19:35.0000000+00:00</time></trkpt><trkpt lat="20.945959" lon="107.048706"><ele>-3.2</ele><time>2011-04-30T06:19:40.0000000+00:00</time></trkpt><trkpt lat="20.945885" lon="107.04863"><ele>-2.7</ele><time>2011-04-30T06:19:45.0000000+00:00</time></trkpt><trkpt lat="20.945801" lon="107.048553"><ele>-1.9</ele><time>2011-04-30T06:19:50.0000000+00:00</time></trkpt><trkpt lat="20.945723" lon="107.048492"><ele>-1.3</ele><time>2011-04-30T06:19:55.0000000+00:00</time></trkpt><trkpt lat="20.945641" lon="107.048424"><ele>-1.4</ele><time>2011-04-30T06:20:00.0000000+00:00</time></trkpt><trkpt lat="20.945562" lon="107.048355"><ele>-1.2</ele><time>2011-04-30T06:20:05.0000000+00:00</time></trkpt><trkpt lat="20.945488" lon="107.048286"><ele>-1.9</ele><time>2011-04-30T06:20:10.0000000+00:00</time></trkpt><trkpt lat="20.945408" lon="107.048225"><ele>-1.8</ele><time>2011-04-30T06:20:15.0000000+00:00</time></trkpt><trkpt lat="20.945324" lon="107.048164"><ele>-1.7</ele><time>2011-04-30T06:20:20.0000000+00:00</time></trkpt><trkpt lat="20.945238" lon="107.048096"><ele>-1.3</ele><time>2011-04-30T06:20:25.0000000+00:00</time></trkpt><trkpt lat="20.945154" lon="107.048027"><ele>-0.5</ele><time>2011-04-30T06:20:30.0000000+00:00</time></trkpt><trkpt lat="20.945076" lon="107.047958"><ele>0.2</ele><time>2011-04-30T06:20:35.0000000+00:00</time></trkpt><trkpt lat="20.944998" lon="107.04789"><ele>-0.4</ele><time>2011-04-30T06:20:40.0000000+00:00</time></trkpt><trkpt lat="20.944914" lon="107.047829"><ele>-0.2</ele><time>2011-04-30T06:20:45.0000000+00:00</time></trkpt><trkpt lat="20.944828" lon="107.047745"><ele>-0.6</ele><time>2011-04-30T06:20:50.0000000+00:00</time></trkpt><trkpt lat="20.944746" lon="107.047676"><ele>-0.9</ele><time>2011-04-30T06:20:55.0000000+00:00</time></trkpt><trkpt lat="20.944664" lon="107.0476"><ele>-1.6</ele><time>2011-04-30T06:21:00.0000000+00:00</time></trkpt><trkpt lat="20.944582" lon="107.047516"><ele>-1.6</ele><time>2011-04-30T06:21:05.0000000+00:00</time></trkpt><trkpt lat="20.944498" lon="107.047447"><ele>-1.5</ele><time>2011-04-30T06:21:10.0000000+00:00</time></trkpt><trkpt lat="20.944422" lon="107.047379"><ele>-1.3</ele><time>2011-04-30T06:21:15.0000000+00:00</time></trkpt><trkpt lat="20.944344" lon="107.047302"><ele>-0.3</ele><time>2011-04-30T06:21:20.0000000+00:00</time></trkpt><trkpt lat="20.944269" lon="107.047226"><ele>0.1</ele><time>2011-04-30T06:21:25.0000000+00:00</time></trkpt><trkpt lat="20.944197" lon="107.047157"><ele>-0.6</ele><time>2011-04-30T06:21:30.0000000+00:00</time></trkpt><trkpt lat="20.944122" lon="107.047089"><ele>-1.1</ele><time>2011-04-30T06:21:35.0000000+00:00</time></trkpt><trkpt lat="20.944042" lon="107.047005"><ele>-1.2</ele><time>2011-04-30T06:21:40.0000000+00:00</time></trkpt><trkpt lat="20.943972" lon="107.046936"><ele>-1.1</ele><time>2011-04-30T06:21:45.0000000+00:00</time></trkpt><trkpt lat="20.94389" lon="107.046867"><ele>-0.9</ele><time>2011-04-30T06:21:50.0000000+00:00</time></trkpt><trkpt lat="20.943806" lon="107.046799"><ele>-1.2</ele><time>2011-04-30T06:21:55.0000000+00:00</time></trkpt><trkpt lat="20.943729" lon="107.04673"><ele>-1.9</ele><time>2011-04-30T06:22:00.0000000+00:00</time></trkpt><trkpt lat="20.943651" lon="107.046661"><ele>-2.5</ele><time>2011-04-30T06:22:05.0000000+00:00</time></trkpt><trkpt lat="20.943571" lon="107.0466"><ele>-1.4</ele><time>2011-04-30T06:22:10.0000000+00:00</time></trkpt><trkpt lat="20.943489" lon="107.046532"><ele>-1.2</ele><time>2011-04-30T06:22:15.0000000+00:00</time></trkpt><trkpt lat="20.943409" lon="107.046463"><ele>-1.1</ele><time>2011-04-30T06:22:20.0000000+00:00</time></trkpt><trkpt lat="20.943329" lon="107.046394"><ele>-1.1</ele><time>2011-04-30T06:22:25.0000000+00:00</time></trkpt><trkpt lat="20.943249" lon="107.046326"><ele>-0.8</ele><time>2011-04-30T06:22:30.0000000+00:00</time></trkpt><trkpt lat="20.943167" lon="107.046257"><ele>-1.0</ele><time>2011-04-30T06:22:35.0000000+00:00</time></trkpt><trkpt lat="20.94309" lon="107.046188"><ele>-0.9</ele><time>2011-04-30T06:22:40.0000000+00:00</time></trkpt><trkpt lat="20.943014" lon="107.04612"><ele>-1.2</ele><time>2011-04-30T06:22:45.0000000+00:00</time></trkpt><trkpt lat="20.942934" lon="107.046051"><ele>-0.9</ele><time>2011-04-30T06:22:50.0000000+00:00</time></trkpt><trkpt lat="20.942863" lon="107.045982"><ele>-0.8</ele><time>2011-04-30T06:22:55.0000000+00:00</time></trkpt><trkpt lat="20.942787" lon="107.045914"><ele>-0.6</ele><time>2011-04-30T06:23:00.0000000+00:00</time></trkpt><trkpt lat="20.942713" lon="107.04583"><ele>-0.9</ele><time>2011-04-30T06:23:05.0000000+00:00</time></trkpt><trkpt lat="20.94264" lon="107.045746"><ele>-0.7</ele><time>2011-04-30T06:23:10.0000000+00:00</time></trkpt><trkpt lat="20.942568" lon="107.045662"><ele>-0.7</ele><time>2011-04-30T06:23:15.0000000+00:00</time></trkpt><trkpt lat="20.942495" lon="107.045578"><ele>-1.7</ele><time>2011-04-30T06:23:20.0000000+00:00</time></trkpt><trkpt lat="20.942427" lon="107.045502"><ele>-1.6</ele><time>2011-04-30T06:23:25.0000000+00:00</time></trkpt><trkpt lat="20.942352" lon="107.045433"><ele>-1.2</ele><time>2011-04-30T06:23:30.0000000+00:00</time></trkpt><trkpt lat="20.942278" lon="107.045364"><ele>-1.0</ele><time>2011-04-30T06:23:35.0000000+00:00</time></trkpt><trkpt lat="20.9422" lon="107.045296"><ele>-0.8</ele><time>2011-04-30T06:23:40.0000000+00:00</time></trkpt><trkpt lat="20.942123" lon="107.045227"><ele>-0.8</ele><time>2011-04-30T06:23:45.0000000+00:00</time></trkpt><trkpt lat="20.942045" lon="107.045158"><ele>-0.8</ele><time>2011-04-30T06:23:50.0000000+00:00</time></trkpt><trkpt lat="20.941971" lon="107.045097"><ele>-0.7</ele><time>2011-04-30T06:23:55.0000000+00:00</time></trkpt><trkpt lat="20.941889" lon="107.045021"><ele>-1.4</ele><time>2011-04-30T06:24:00.0000000+00:00</time></trkpt><trkpt lat="20.941803" lon="107.04496"><ele>-2.4</ele><time>2011-04-30T06:24:05.0000000+00:00</time></trkpt><trkpt lat="20.941721" lon="107.044891"><ele>-2.6</ele><time>2011-04-30T06:24:10.0000000+00:00</time></trkpt><trkpt lat="20.941637" lon="107.04483"><ele>-2.6</ele><time>2011-04-30T06:24:15.0000000+00:00</time></trkpt><trkpt lat="20.941555" lon="107.044777"><ele>-2.3</ele><time>2011-04-30T06:24:20.0000000+00:00</time></trkpt><trkpt lat="20.941467" lon="107.044731"><ele>-1.4</ele><time>2011-04-30T06:24:25.0000000+00:00</time></trkpt><trkpt lat="20.941381" lon="107.04467"><ele>-1.0</ele><time>2011-04-30T06:24:30.0000000+00:00</time></trkpt><trkpt lat="20.941294" lon="107.044624"><ele>0.1</ele><time>2011-04-30T06:24:35.0000000+00:00</time></trkpt><trkpt lat="20.941202" lon="107.044586"><ele>2.1</ele><time>2011-04-30T06:24:40.0000000+00:00</time></trkpt><trkpt lat="20.941116" lon="107.044518"><ele>2.2</ele><time>2011-04-30T06:24:45.0000000+00:00</time></trkpt><trkpt lat="20.941032" lon="107.044441"><ele>0.2</ele><time>2011-04-30T06:24:50.0000000+00:00</time></trkpt><trkpt lat="20.940948" lon="107.044373"><ele>-0.4</ele><time>2011-04-30T06:24:55.0000000+00:00</time></trkpt><trkpt lat="20.94087" lon="107.044304"><ele>-0.6</ele><time>2011-04-30T06:25:00.0000000+00:00</time></trkpt><trkpt lat="20.940788" lon="107.044243"><ele>-0.3</ele><time>2011-04-30T06:25:05.0000000+00:00</time></trkpt><trkpt lat="20.940708" lon="107.044174"><ele>-0.3</ele><time>2011-04-30T06:25:10.0000000+00:00</time></trkpt><trkpt lat="20.940626" lon="107.044106"><ele>-0.9</ele><time>2011-04-30T06:25:15.0000000+00:00</time></trkpt><trkpt lat="20.940542" lon="107.044037"><ele>-1.0</ele><time>2011-04-30T06:25:20.0000000+00:00</time></trkpt><trkpt lat="20.940458" lon="107.043961"><ele>-1.4</ele><time>2011-04-30T06:25:25.0000000+00:00</time></trkpt><trkpt lat="20.940371" lon="107.043907"><ele>-0.4</ele><time>2011-04-30T06:25:30.0000000+00:00</time></trkpt><trkpt lat="20.940287" lon="107.043854"><ele>0.0</ele><time>2011-04-30T06:25:35.0000000+00:00</time></trkpt><trkpt lat="20.940201" lon="107.0438"><ele>1.0</ele><time>2011-04-30T06:25:40.0000000+00:00</time></trkpt><trkpt lat="20.940117" lon="107.043739"><ele>1.6</ele><time>2011-04-30T06:25:45.0000000+00:00</time></trkpt><trkpt lat="20.940039" lon="107.043678"><ele>1.7</ele><time>2011-04-30T06:25:50.0000000+00:00</time></trkpt><trkpt lat="20.93996" lon="107.043617"><ele>1.8</ele><time>2011-04-30T06:25:55.0000000+00:00</time></trkpt><trkpt lat="20.939878" lon="107.043556"><ele>2.9</ele><time>2011-04-30T06:26:00.0000000+00:00</time></trkpt><trkpt lat="20.939796" lon="107.043503"><ele>3.2</ele><time>2011-04-30T06:26:05.0000000+00:00</time></trkpt><trkpt lat="20.939713" lon="107.043457"><ele>4.2</ele><time>2011-04-30T06:26:10.0000000+00:00</time></trkpt><trkpt lat="20.939634" lon="107.043396"><ele>4.4</ele><time>2011-04-30T06:26:15.0000000+00:00</time></trkpt><trkpt lat="20.93955" lon="107.043335"><ele>4.1</ele><time>2011-04-30T06:26:20.0000000+00:00</time></trkpt><trkpt lat="20.939466" lon="107.043282"><ele>4.8</ele><time>2011-04-30T06:26:25.0000000+00:00</time></trkpt><trkpt lat="20.939383" lon="107.043213"><ele>4.6</ele><time>2011-04-30T06:26:30.0000000+00:00</time></trkpt><trkpt lat="20.939304" lon="107.043144"><ele>4.7</ele><time>2011-04-30T06:26:35.0000000+00:00</time></trkpt><trkpt lat="20.93922" lon="107.043068"><ele>3.6</ele><time>2011-04-30T06:26:40.0000000+00:00</time></trkpt><trkpt lat="20.939138" lon="107.043007"><ele>4.2</ele><time>2011-04-30T06:26:45.0000000+00:00</time></trkpt><trkpt lat="20.939054" lon="107.042946"><ele>5.2</ele><time>2011-04-30T06:26:50.0000000+00:00</time></trkpt><trkpt lat="20.938967" lon="107.042877"><ele>5.7</ele><time>2011-04-30T06:26:55.0000000+00:00</time></trkpt><trkpt lat="20.938885" lon="107.042809"><ele>6.2</ele><time>2011-04-30T06:27:00.0000000+00:00</time></trkpt><trkpt lat="20.938803" lon="107.042747"><ele>6.0</ele><time>2011-04-30T06:27:05.0000000+00:00</time></trkpt><trkpt lat="20.938725" lon="107.042679"><ele>5.6</ele><time>2011-04-30T06:27:10.0000000+00:00</time></trkpt><trkpt lat="20.938646" lon="107.04261"><ele>5.7</ele><time>2011-04-30T06:27:15.0000000+00:00</time></trkpt><trkpt lat="20.938564" lon="107.042542"><ele>5.6</ele><time>2011-04-30T06:27:20.0000000+00:00</time></trkpt><trkpt lat="20.938484" lon="107.042473"><ele>5.4</ele><time>2011-04-30T06:27:25.0000000+00:00</time></trkpt><trkpt lat="20.938404" lon="107.042404"><ele>5.5</ele><time>2011-04-30T06:27:30.0000000+00:00</time></trkpt><trkpt lat="20.938322" lon="107.042343"><ele>5.6</ele><time>2011-04-30T06:27:35.0000000+00:00</time></trkpt><trkpt lat="20.93824" lon="107.042282"><ele>6.1</ele><time>2011-04-30T06:27:40.0000000+00:00</time></trkpt><trkpt lat="20.938156" lon="107.042221"><ele>6.3</ele><time>2011-04-30T06:27:45.0000000+00:00</time></trkpt><trkpt lat="20.93807" lon="107.042152"><ele>6.3</ele><time>2011-04-30T06:27:50.0000000+00:00</time></trkpt><trkpt lat="20.937986" lon="107.042084"><ele>6.0</ele><time>2011-04-30T06:27:55.0000000+00:00</time></trkpt><trkpt lat="20.93791" lon="107.042007"><ele>6.2</ele><time>2011-04-30T06:28:00.0000000+00:00</time></trkpt><trkpt lat="20.937828" lon="107.041946"><ele>6.9</ele><time>2011-04-30T06:28:05.0000000+00:00</time></trkpt><trkpt lat="20.937752" lon="107.04187"><ele>6.6</ele><time>2011-04-30T06:28:10.0000000+00:00</time></trkpt><trkpt lat="20.937674" lon="107.041794"><ele>5.8</ele><time>2011-04-30T06:28:15.0000000+00:00</time></trkpt><trkpt lat="20.937592" lon="107.041725"><ele>5.7</ele><time>2011-04-30T06:28:20.0000000+00:00</time></trkpt><trkpt lat="20.937508" lon="107.041664"><ele>5.8</ele><time>2011-04-30T06:28:25.0000000+00:00</time></trkpt><trkpt lat="20.937426" lon="107.041595"><ele>6.0</ele><time>2011-04-30T06:28:30.0000000+00:00</time></trkpt><trkpt lat="20.937344" lon="107.041534"><ele>6.1</ele><time>2011-04-30T06:28:35.0000000+00:00</time></trkpt><trkpt lat="20.937263" lon="107.041473"><ele>6.5</ele><time>2011-04-30T06:28:40.0000000+00:00</time></trkpt><trkpt lat="20.937185" lon="107.041412"><ele>6.5</ele><time>2011-04-30T06:28:45.0000000+00:00</time></trkpt><trkpt lat="20.937113" lon="107.041351"><ele>6.4</ele><time>2011-04-30T06:28:50.0000000+00:00</time></trkpt><trkpt lat="20.937035" lon="107.041283"><ele>5.6</ele><time>2011-04-30T06:28:55.0000000+00:00</time></trkpt><trkpt lat="20.936956" lon="107.041214"><ele>4.6</ele><time>2011-04-30T06:29:00.0000000+00:00</time></trkpt><trkpt lat="20.936872" lon="107.041145"><ele>4.5</ele><time>2011-04-30T06:29:05.0000000+00:00</time></trkpt><trkpt lat="20.936796" lon="107.041077"><ele>4.3</ele><time>2011-04-30T06:29:10.0000000+00:00</time></trkpt><trkpt lat="20.936724" lon="107.041"><ele>3.4</ele><time>2011-04-30T06:29:15.0000000+00:00</time></trkpt><trkpt lat="20.936647" lon="107.040932"><ele>3.3</ele><time>2011-04-30T06:29:20.0000000+00:00</time></trkpt><trkpt lat="20.936571" lon="107.040878"><ele>4.3</ele><time>2011-04-30T06:29:25.0000000+00:00</time></trkpt><trkpt lat="20.936495" lon="107.040817"><ele>4.2</ele><time>2011-04-30T06:29:30.0000000+00:00</time></trkpt><trkpt lat="20.936417" lon="107.040764"><ele>3.9</ele><time>2011-04-30T06:29:35.0000000+00:00</time></trkpt><trkpt lat="20.93634" lon="107.040695"><ele>2.5</ele><time>2011-04-30T06:29:40.0000000+00:00</time></trkpt><trkpt lat="20.936262" lon="107.040634"><ele>2.0</ele><time>2011-04-30T06:29:45.0000000+00:00</time></trkpt><trkpt lat="20.936178" lon="107.040558"><ele>1.4</ele><time>2011-04-30T06:29:50.0000000+00:00</time></trkpt><trkpt lat="20.936096" lon="107.040482"><ele>1.2</ele><time>2011-04-30T06:29:55.0000000+00:00</time></trkpt><trkpt lat="20.936018" lon="107.040413"><ele>0.7</ele><time>2011-04-30T06:30:00.0000000+00:00</time></trkpt><trkpt lat="20.935946" lon="107.040337"><ele>1.3</ele><time>2011-04-30T06:30:05.0000000+00:00</time></trkpt><trkpt lat="20.935871" lon="107.040268"><ele>2.3</ele><time>2011-04-30T06:30:10.0000000+00:00</time></trkpt><trkpt lat="20.935797" lon="107.040192"><ele>4.3</ele><time>2011-04-30T06:30:15.0000000+00:00</time></trkpt><trkpt lat="20.935726" lon="107.040131"><ele>2.4</ele><time>2011-04-30T06:30:20.0000000+00:00</time></trkpt><trkpt lat="20.935656" lon="107.040062"><ele>2.7</ele><time>2011-04-30T06:30:25.0000000+00:00</time></trkpt><trkpt lat="20.935574" lon="107.040001"><ele>2.6</ele><time>2011-04-30T06:30:30.0000000+00:00</time></trkpt><trkpt lat="20.935495" lon="107.039932"><ele>2.0</ele><time>2011-04-30T06:30:35.0000000+00:00</time></trkpt><trkpt lat="20.935419" lon="107.039864"><ele>2.1</ele><time>2011-04-30T06:30:40.0000000+00:00</time></trkpt><trkpt lat="20.935337" lon="107.039795"><ele>2.1</ele><time>2011-04-30T06:30:45.0000000+00:00</time></trkpt><trkpt lat="20.935259" lon="107.039726"><ele>2.5</ele><time>2011-04-30T06:30:50.0000000+00:00</time></trkpt><trkpt lat="20.935179" lon="107.039658"><ele>2.6</ele><time>2011-04-30T06:30:55.0000000+00:00</time></trkpt><trkpt lat="20.93511" lon="107.039581"><ele>1.4</ele><time>2011-04-30T06:31:00.0000000+00:00</time></trkpt><trkpt lat="20.935032" lon="107.039513"><ele>0.5</ele><time>2011-04-30T06:31:05.0000000+00:00</time></trkpt><trkpt lat="20.934959" lon="107.039459"><ele>1.5</ele><time>2011-04-30T06:31:10.0000000+00:00</time></trkpt><trkpt lat="20.934885" lon="107.039375"><ele>1.2</ele><time>2011-04-30T06:31:15.0000000+00:00</time></trkpt><trkpt lat="20.934811" lon="107.039307"><ele>1.0</ele><time>2011-04-30T06:31:20.0000000+00:00</time></trkpt><trkpt lat="20.934738" lon="107.039238"><ele>0.7</ele><time>2011-04-30T06:31:25.0000000+00:00</time></trkpt><trkpt lat="20.93466" lon="107.039162"><ele>-0.2</ele><time>2011-04-30T06:31:30.0000000+00:00</time></trkpt><trkpt lat="20.934586" lon="107.039085"><ele>-0.8</ele><time>2011-04-30T06:31:35.0000000+00:00</time></trkpt><trkpt lat="20.934515" lon="107.039009"><ele>0.2</ele><time>2011-04-30T06:31:40.0000000+00:00</time></trkpt><trkpt lat="20.934435" lon="107.03894"><ele>0.0</ele><time>2011-04-30T06:31:45.0000000+00:00</time></trkpt><trkpt lat="20.934364" lon="107.038879"><ele>1.5</ele><time>2011-04-30T06:31:50.0000000+00:00</time></trkpt><trkpt lat="20.934288" lon="107.038818"><ele>2.0</ele><time>2011-04-30T06:31:55.0000000+00:00</time></trkpt><trkpt lat="20.934206" lon="107.03875"><ele>2.4</ele><time>2011-04-30T06:32:00.0000000+00:00</time></trkpt><trkpt lat="20.934126" lon="107.038681"><ele>2.1</ele><time>2011-04-30T06:32:05.0000000+00:00</time></trkpt><trkpt lat="20.934042" lon="107.03862"><ele>1.4</ele><time>2011-04-30T06:32:10.0000000+00:00</time></trkpt><trkpt lat="20.933964" lon="107.038551"><ele>0.8</ele><time>2011-04-30T06:32:15.0000000+00:00</time></trkpt><trkpt lat="20.933878" lon="107.03849"><ele>1.1</ele><time>2011-04-30T06:32:20.0000000+00:00</time></trkpt><trkpt lat="20.933798" lon="107.038437"><ele>1.0</ele><time>2011-04-30T06:32:25.0000000+00:00</time></trkpt><trkpt lat="20.93372" lon="107.038368"><ele>0.5</ele><time>2011-04-30T06:32:30.0000000+00:00</time></trkpt><trkpt lat="20.933641" lon="107.038307"><ele>0.5</ele><time>2011-04-30T06:32:35.0000000+00:00</time></trkpt><trkpt lat="20.933563" lon="107.038231"><ele>0.3</ele><time>2011-04-30T06:32:40.0000000+00:00</time></trkpt><trkpt lat="20.933485" lon="107.038155"><ele>0.0</ele><time>2011-04-30T06:32:45.0000000+00:00</time></trkpt><trkpt lat="20.933399" lon="107.038086"><ele>-0.2</ele><time>2011-04-30T06:32:50.0000000+00:00</time></trkpt><trkpt lat="20.933319" lon="107.038033"><ele>0.7</ele><time>2011-04-30T06:32:55.0000000+00:00</time></trkpt><trkpt lat="20.933243" lon="107.037971"><ele>1.2</ele><time>2011-04-30T06:33:00.0000000+00:00</time></trkpt><trkpt lat="20.933161" lon="107.03791"><ele>1.9</ele><time>2011-04-30T06:33:05.0000000+00:00</time></trkpt><trkpt lat="20.933073" lon="107.037834"><ele>2.5</ele><time>2011-04-30T06:33:10.0000000+00:00</time></trkpt><trkpt lat="20.93298" lon="107.037781"><ele>1.4</ele><time>2011-04-30T06:33:15.0000000+00:00</time></trkpt><trkpt lat="20.93289" lon="107.037727"><ele>0.9</ele><time>2011-04-30T06:33:20.0000000+00:00</time></trkpt><trkpt lat="20.932796" lon="107.037689"><ele>0.4</ele><time>2011-04-30T06:33:25.0000000+00:00</time></trkpt><trkpt lat="20.932701" lon="107.037659"><ele>0.8</ele><time>2011-04-30T06:33:30.0000000+00:00</time></trkpt><trkpt lat="20.932606" lon="107.037621"><ele>0.2</ele><time>2011-04-30T06:33:35.0000000+00:00</time></trkpt><trkpt lat="20.932512" lon="107.037582"><ele>-0.4</ele><time>2011-04-30T06:33:40.0000000+00:00</time></trkpt><trkpt lat="20.932415" lon="107.037552"><ele>-1.1</ele><time>2011-04-30T06:33:45.0000000+00:00</time></trkpt><trkpt lat="20.932318" lon="107.037514"><ele>-1.3</ele><time>2011-04-30T06:33:50.0000000+00:00</time></trkpt><trkpt lat="20.932219" lon="107.037468"><ele>-1.2</ele><time>2011-04-30T06:33:55.0000000+00:00</time></trkpt><trkpt lat="20.932119" lon="107.03743"><ele>-1.8</ele><time>2011-04-30T06:34:00.0000000+00:00</time></trkpt><trkpt lat="20.932022" lon="107.037384"><ele>-1.7</ele><time>2011-04-30T06:34:05.0000000+00:00</time></trkpt><trkpt lat="20.931923" lon="107.037346"><ele>-1.6</ele><time>2011-04-30T06:34:10.0000000+00:00</time></trkpt><trkpt lat="20.931822" lon="107.0373"><ele>-1.9</ele><time>2011-04-30T06:34:15.0000000+00:00</time></trkpt><trkpt lat="20.931732" lon="107.037254"><ele>-2.1</ele><time>2011-04-30T06:34:20.0000000+00:00</time></trkpt><trkpt lat="20.931641" lon="107.037193"><ele>-1.8</ele><time>2011-04-30T06:34:25.0000000+00:00</time></trkpt><trkpt lat="20.931555" lon="107.037125"><ele>-1.9</ele><time>2011-04-30T06:34:30.0000000+00:00</time></trkpt><trkpt lat="20.931473" lon="107.037071"><ele>-0.5</ele><time>2011-04-30T06:34:35.0000000+00:00</time></trkpt><trkpt lat="20.931396" lon="107.037003"><ele>0.0</ele><time>2011-04-30T06:34:40.0000000+00:00</time></trkpt><trkpt lat="20.931334" lon="107.036934"><ele>0.6</ele><time>2011-04-30T06:34:45.0000000+00:00</time></trkpt><trkpt lat="20.931263" lon="107.036865"><ele>1.4</ele><time>2011-04-30T06:34:50.0000000+00:00</time></trkpt><trkpt lat="20.931181" lon="107.036781"><ele>1.2</ele><time>2011-04-30T06:34:55.0000000+00:00</time></trkpt><trkpt lat="20.931105" lon="107.036713"><ele>1.4</ele><time>2011-04-30T06:35:00.0000000+00:00</time></trkpt><trkpt lat="20.931026" lon="107.036644"><ele>2.2</ele><time>2011-04-30T06:35:05.0000000+00:00</time></trkpt><trkpt lat="20.930941" lon="107.036575"><ele>2.6</ele><time>2011-04-30T06:35:10.0000000+00:00</time></trkpt><trkpt lat="20.930859" lon="107.036499"><ele>2.1</ele><time>2011-04-30T06:35:15.0000000+00:00</time></trkpt><trkpt lat="20.930773" lon="107.03643"><ele>2.6</ele><time>2011-04-30T06:35:20.0000000+00:00</time></trkpt><trkpt lat="20.930693" lon="107.036362"><ele>2.6</ele><time>2011-04-30T06:35:25.0000000+00:00</time></trkpt><trkpt lat="20.930618" lon="107.036293"><ele>3.0</ele><time>2011-04-30T06:35:30.0000000+00:00</time></trkpt><trkpt lat="20.930538" lon="107.036224"><ele>2.8</ele><time>2011-04-30T06:35:35.0000000+00:00</time></trkpt><trkpt lat="20.93045" lon="107.036156"><ele>2.8</ele><time>2011-04-30T06:35:40.0000000+00:00</time></trkpt><trkpt lat="20.930372" lon="107.036079"><ele>2.2</ele><time>2011-04-30T06:35:45.0000000+00:00</time></trkpt><trkpt lat="20.930296" lon="107.036011"><ele>2.0</ele><time>2011-04-30T06:35:50.0000000+00:00</time></trkpt><trkpt lat="20.93022" lon="107.035942"><ele>1.9</ele><time>2011-04-30T06:35:55.0000000+00:00</time></trkpt><trkpt lat="20.930143" lon="107.035866"><ele>1.9</ele><time>2011-04-30T06:36:00.0000000+00:00</time></trkpt><trkpt lat="20.930065" lon="107.035797"><ele>2.2</ele><time>2011-04-30T06:36:05.0000000+00:00</time></trkpt><trkpt lat="20.929987" lon="107.035728"><ele>2.1</ele><time>2011-04-30T06:36:10.0000000+00:00</time></trkpt><trkpt lat="20.929911" lon="107.03566"><ele>2.1</ele><time>2011-04-30T06:36:15.0000000+00:00</time></trkpt><trkpt lat="20.929831" lon="107.035591"><ele>2.0</ele><time>2011-04-30T06:36:20.0000000+00:00</time></trkpt><trkpt lat="20.92975" lon="107.035522"><ele>2.4</ele><time>2011-04-30T06:36:25.0000000+00:00</time></trkpt><trkpt lat="20.92967" lon="107.035461"><ele>2.9</ele><time>2011-04-30T06:36:30.0000000+00:00</time></trkpt><trkpt lat="20.92959" lon="107.035393"><ele>3.1</ele><time>2011-04-30T06:36:35.0000000+00:00</time></trkpt><trkpt lat="20.929514" lon="107.035324"><ele>3.3</ele><time>2011-04-30T06:36:40.0000000+00:00</time></trkpt><trkpt lat="20.92944" lon="107.035255"><ele>3.2</ele><time>2011-04-30T06:36:45.0000000+00:00</time></trkpt><trkpt lat="20.929352" lon="107.035187"><ele>3.4</ele><time>2011-04-30T06:36:50.0000000+00:00</time></trkpt><trkpt lat="20.929272" lon="107.035118"><ele>3.8</ele><time>2011-04-30T06:36:55.0000000+00:00</time></trkpt><trkpt lat="20.929195" lon="107.035049"><ele>4.2</ele><time>2011-04-30T06:37:00.0000000+00:00</time></trkpt><trkpt lat="20.929123" lon="107.034973"><ele>3.7</ele><time>2011-04-30T06:37:05.0000000+00:00</time></trkpt><trkpt lat="20.929045" lon="107.034904"><ele>3.9</ele><time>2011-04-30T06:37:10.0000000+00:00</time></trkpt><trkpt lat="20.928968" lon="107.034828"><ele>3.8</ele><time>2011-04-30T06:37:15.0000000+00:00</time></trkpt><trkpt lat="20.92889" lon="107.03476"><ele>3.7</ele><time>2011-04-30T06:37:20.0000000+00:00</time></trkpt><trkpt lat="20.928816" lon="107.034691"><ele>3.7</ele><time>2011-04-30T06:37:25.0000000+00:00</time></trkpt><trkpt lat="20.92874" lon="107.034622"><ele>3.7</ele><time>2011-04-30T06:37:30.0000000+00:00</time></trkpt><trkpt lat="20.928665" lon="107.034546"><ele>3.3</ele><time>2011-04-30T06:37:35.0000000+00:00</time></trkpt><trkpt lat="20.928589" lon="107.034477"><ele>3.9</ele><time>2011-04-30T06:37:40.0000000+00:00</time></trkpt><trkpt lat="20.928511" lon="107.034401"><ele>3.7</ele><time>2011-04-30T06:37:45.0000000+00:00</time></trkpt><trkpt lat="20.928432" lon="107.034332"><ele>3.9</ele><time>2011-04-30T06:37:50.0000000+00:00</time></trkpt><trkpt lat="20.928354" lon="107.034256"><ele>3.4</ele><time>2011-04-30T06:37:55.0000000+00:00</time></trkpt><trkpt lat="20.92828" lon="107.034187"><ele>3.7</ele><time>2011-04-30T06:38:00.0000000+00:00</time></trkpt><trkpt lat="20.928207" lon="107.034111"><ele>3.7</ele><time>2011-04-30T06:38:05.0000000+00:00</time></trkpt><trkpt lat="20.928135" lon="107.034042"><ele>3.7</ele><time>2011-04-30T06:38:10.0000000+00:00</time></trkpt><trkpt lat="20.928062" lon="107.033966"><ele>3.7</ele><time>2011-04-30T06:38:15.0000000+00:00</time></trkpt><trkpt lat="20.927984" lon="107.033897"><ele>3.8</ele><time>2011-04-30T06:38:20.0000000+00:00</time></trkpt><trkpt lat="20.92791" lon="107.033821"><ele>3.4</ele><time>2011-04-30T06:38:25.0000000+00:00</time></trkpt><trkpt lat="20.927837" lon="107.03376"><ele>3.7</ele><time>2011-04-30T06:38:30.0000000+00:00</time></trkpt><trkpt lat="20.927757" lon="107.033691"><ele>4.5</ele><time>2011-04-30T06:38:35.0000000+00:00</time></trkpt><trkpt lat="20.927687" lon="107.033623"><ele>4.5</ele><time>2011-04-30T06:38:40.0000000+00:00</time></trkpt><trkpt lat="20.927618" lon="107.033554"><ele>4.8</ele><time>2011-04-30T06:38:45.0000000+00:00</time></trkpt><trkpt lat="20.92754" lon="107.033485"><ele>4.7</ele><time>2011-04-30T06:38:50.0000000+00:00</time></trkpt><trkpt lat="20.927464" lon="107.033409"><ele>4.8</ele><time>2011-04-30T06:38:55.0000000+00:00</time></trkpt><trkpt lat="20.927387" lon="107.03334"><ele>5.0</ele><time>2011-04-30T06:39:00.0000000+00:00</time></trkpt><trkpt lat="20.927307" lon="107.033279"><ele>5.4</ele><time>2011-04-30T06:39:05.0000000+00:00</time></trkpt><trkpt lat="20.927227" lon="107.033211"><ele>5.2</ele><time>2011-04-30T06:39:10.0000000+00:00</time></trkpt><trkpt lat="20.927145" lon="107.03315"><ele>5.3</ele><time>2011-04-30T06:39:15.0000000+00:00</time></trkpt><trkpt lat="20.927063" lon="107.033081"><ele>5.9</ele><time>2011-04-30T06:39:20.0000000+00:00</time></trkpt><trkpt lat="20.926979" lon="107.03302"><ele>6.9</ele><time>2011-04-30T06:39:25.0000000+00:00</time></trkpt><trkpt lat="20.926905" lon="107.032959"><ele>6.6</ele><time>2011-04-30T06:39:30.0000000+00:00</time></trkpt><trkpt lat="20.92683" lon="107.03289"><ele>5.4</ele><time>2011-04-30T06:39:35.0000000+00:00</time></trkpt><trkpt lat="20.926762" lon="107.032822"><ele>4.5</ele><time>2011-04-30T06:39:40.0000000+00:00</time></trkpt><trkpt lat="20.926683" lon="107.032761"><ele>3.3</ele><time>2011-04-30T06:39:45.0000000+00:00</time></trkpt><trkpt lat="20.926613" lon="107.032692"><ele>2.7</ele><time>2011-04-30T06:39:50.0000000+00:00</time></trkpt><trkpt lat="20.926535" lon="107.032631"><ele>2.6</ele><time>2011-04-30T06:39:55.0000000+00:00</time></trkpt><trkpt lat="20.926458" lon="107.032562"><ele>2.3</ele><time>2011-04-30T06:40:00.0000000+00:00</time></trkpt><trkpt lat="20.926382" lon="107.032509"><ele>2.3</ele><time>2011-04-30T06:40:05.0000000+00:00</time></trkpt><trkpt lat="20.926306" lon="107.032455"><ele>2.7</ele><time>2011-04-30T06:40:10.0000000+00:00</time></trkpt><trkpt lat="20.926229" lon="107.03241"><ele>3.0</ele><time>2011-04-30T06:40:15.0000000+00:00</time></trkpt><trkpt lat="20.926155" lon="107.032341"><ele>2.8</ele><time>2011-04-30T06:40:20.0000000+00:00</time></trkpt><trkpt lat="20.926083" lon="107.032288"><ele>3.1</ele><time>2011-04-30T06:40:25.0000000+00:00</time></trkpt><trkpt lat="20.926003" lon="107.032242"><ele>3.0</ele><time>2011-04-30T06:40:30.0000000+00:00</time></trkpt><trkpt lat="20.925926" lon="107.032188"><ele>2.7</ele><time>2011-04-30T06:40:35.0000000+00:00</time></trkpt><trkpt lat="20.92585" lon="107.032135"><ele>3.8</ele><time>2011-04-30T06:40:40.0000000+00:00</time></trkpt><trkpt lat="20.925772" lon="107.032089"><ele>3.7</ele><time>2011-04-30T06:40:45.0000000+00:00</time></trkpt><trkpt lat="20.925695" lon="107.032028"><ele>3.3</ele><time>2011-04-30T06:40:50.0000000+00:00</time></trkpt><trkpt lat="20.925623" lon="107.031982"><ele>3.4</ele><time>2011-04-30T06:40:55.0000000+00:00</time></trkpt><trkpt lat="20.92555" lon="107.031914"><ele>3.9</ele><time>2011-04-30T06:41:00.0000000+00:00</time></trkpt><trkpt lat="20.925472" lon="107.03186"><ele>4.4</ele><time>2011-04-30T06:41:05.0000000+00:00</time></trkpt><trkpt lat="20.925392" lon="107.031792"><ele>3.6</ele><time>2011-04-30T06:41:10.0000000+00:00</time></trkpt><trkpt lat="20.925308" lon="107.031723"><ele>3.3</ele><time>2011-04-30T06:41:15.0000000+00:00</time></trkpt><trkpt lat="20.925234" lon="107.031677"><ele>4.0</ele><time>2011-04-30T06:41:20.0000000+00:00</time></trkpt><trkpt lat="20.925156" lon="107.031609"><ele>3.9</ele><time>2011-04-30T06:41:25.0000000+00:00</time></trkpt><trkpt lat="20.925083" lon="107.031548"><ele>3.6</ele><time>2011-04-30T06:41:30.0000000+00:00</time></trkpt><trkpt lat="20.925005" lon="107.031479"><ele>2.9</ele><time>2011-04-30T06:41:35.0000000+00:00</time></trkpt><trkpt lat="20.924925" lon="107.031418"><ele>2.6</ele><time>2011-04-30T06:41:40.0000000+00:00</time></trkpt><trkpt lat="20.924845" lon="107.031349"><ele>1.8</ele><time>2011-04-30T06:41:45.0000000+00:00</time></trkpt><trkpt lat="20.924765" lon="107.031296"><ele>2.2</ele><time>2011-04-30T06:41:50.0000000+00:00</time></trkpt><trkpt lat="20.924683" lon="107.031235"><ele>1.9</ele><time>2011-04-30T06:41:55.0000000+00:00</time></trkpt><trkpt lat="20.924606" lon="107.031174"><ele>2.0</ele><time>2011-04-30T06:42:00.0000000+00:00</time></trkpt><trkpt lat="20.924522" lon="107.03112"><ele>2.1</ele><time>2011-04-30T06:42:05.0000000+00:00</time></trkpt><trkpt lat="20.924446" lon="107.031059"><ele>2.4</ele><time>2011-04-30T06:42:10.0000000+00:00</time></trkpt><trkpt lat="20.924366" lon="107.030991"><ele>3.0</ele><time>2011-04-30T06:42:15.0000000+00:00</time></trkpt><trkpt lat="20.924288" lon="107.03093"><ele>3.1</ele><time>2011-04-30T06:42:20.0000000+00:00</time></trkpt><trkpt lat="20.924206" lon="107.030861"><ele>3.4</ele><time>2011-04-30T06:42:25.0000000+00:00</time></trkpt><trkpt lat="20.924126" lon="107.0308"><ele>4.0</ele><time>2011-04-30T06:42:30.0000000+00:00</time></trkpt><trkpt lat="20.924053" lon="107.030731"><ele>4.3</ele><time>2011-04-30T06:42:35.0000000+00:00</time></trkpt><trkpt lat="20.923977" lon="107.03067"><ele>4.4</ele><time>2011-04-30T06:42:40.0000000+00:00</time></trkpt><trkpt lat="20.923904" lon="107.030609"><ele>4.3</ele><time>2011-04-30T06:42:45.0000000+00:00</time></trkpt><trkpt lat="20.923834" lon="107.030533"><ele>4.1</ele><time>2011-04-30T06:42:50.0000000+00:00</time></trkpt><trkpt lat="20.923759" lon="107.030464"><ele>3.8</ele><time>2011-04-30T06:42:55.0000000+00:00</time></trkpt><trkpt lat="20.923685" lon="107.030388"><ele>3.9</ele><time>2011-04-30T06:43:00.0000000+00:00</time></trkpt><trkpt lat="20.923611" lon="107.030312"><ele>3.8</ele><time>2011-04-30T06:43:05.0000000+00:00</time></trkpt><trkpt lat="20.923544" lon="107.030235"><ele>3.4</ele><time>2011-04-30T06:43:10.0000000+00:00</time></trkpt><trkpt lat="20.923479" lon="107.030167"><ele>3.3</ele><time>2011-04-30T06:43:15.0000000+00:00</time></trkpt><trkpt lat="20.923412" lon="107.03009"><ele>3.3</ele><time>2011-04-30T06:43:20.0000000+00:00</time></trkpt><trkpt lat="20.923351" lon="107.030014"><ele>3.1</ele><time>2011-04-30T06:43:25.0000000+00:00</time></trkpt><trkpt lat="20.923277" lon="107.029938"><ele>2.9</ele><time>2011-04-30T06:43:30.0000000+00:00</time></trkpt><trkpt lat="20.923208" lon="107.029861"><ele>2.9</ele><time>2011-04-30T06:43:35.0000000+00:00</time></trkpt><trkpt lat="20.92313" lon="107.0298"><ele>3.2</ele><time>2011-04-30T06:43:40.0000000+00:00</time></trkpt><trkpt lat="20.923059" lon="107.029724"><ele>3.6</ele><time>2011-04-30T06:43:45.0000000+00:00</time></trkpt><trkpt lat="20.922987" lon="107.029648"><ele>3.4</ele><time>2011-04-30T06:43:50.0000000+00:00</time></trkpt><trkpt lat="20.922909" lon="107.029579"><ele>3.6</ele><time>2011-04-30T06:43:55.0000000+00:00</time></trkpt><trkpt lat="20.922829" lon="107.029503"><ele>3.6</ele><time>2011-04-30T06:44:00.0000000+00:00</time></trkpt><trkpt lat="20.922758" lon="107.029434"><ele>3.5</ele><time>2011-04-30T06:44:05.0000000+00:00</time></trkpt><trkpt lat="20.922686" lon="107.029358"><ele>3.5</ele><time>2011-04-30T06:44:10.0000000+00:00</time></trkpt><trkpt lat="20.922611" lon="107.029289"><ele>3.8</ele><time>2011-04-30T06:44:15.0000000+00:00</time></trkpt><trkpt lat="20.922539" lon="107.029205"><ele>3.5</ele><time>2011-04-30T06:44:20.0000000+00:00</time></trkpt><trkpt lat="20.922464" lon="107.029129"><ele>3.2</ele><time>2011-04-30T06:44:25.0000000+00:00</time></trkpt><trkpt lat="20.922401" lon="107.02906"><ele>3.6</ele><time>2011-04-30T06:44:30.0000000+00:00</time></trkpt><trkpt lat="20.922338" lon="107.028984"><ele>3.4</ele><time>2011-04-30T06:44:35.0000000+00:00</time></trkpt><trkpt lat="20.922266" lon="107.028915"><ele>3.8</ele><time>2011-04-30T06:44:40.0000000+00:00</time></trkpt><trkpt lat="20.922194" lon="107.028847"><ele>3.8</ele><time>2011-04-30T06:44:45.0000000+00:00</time></trkpt><trkpt lat="20.922125" lon="107.02877"><ele>4.1</ele><time>2011-04-30T06:44:50.0000000+00:00</time></trkpt><trkpt lat="20.922064" lon="107.028687"><ele>3.1</ele><time>2011-04-30T06:44:55.0000000+00:00</time></trkpt><trkpt lat="20.922001" lon="107.028603"><ele>2.7</ele><time>2011-04-30T06:45:00.0000000+00:00</time></trkpt><trkpt lat="20.921928" lon="107.028534"><ele>3.9</ele><time>2011-04-30T06:45:05.0000000+00:00</time></trkpt><trkpt lat="20.92186" lon="107.028465"><ele>4.7</ele><time>2011-04-30T06:45:10.0000000+00:00</time></trkpt><trkpt lat="20.921797" lon="107.028389"><ele>4.9</ele><time>2011-04-30T06:45:15.0000000+00:00</time></trkpt><trkpt lat="20.92173" lon="107.028305"><ele>4.5</ele><time>2011-04-30T06:45:20.0000000+00:00</time></trkpt><trkpt lat="20.921669" lon="107.028214"><ele>3.6</ele><time>2011-04-30T06:45:25.0000000+00:00</time></trkpt><trkpt lat="20.921608" lon="107.02813"><ele>3.3</ele><time>2011-04-30T06:45:30.0000000+00:00</time></trkpt><trkpt lat="20.921535" lon="107.028061"><ele>3.3</ele><time>2011-04-30T06:45:35.0000000+00:00</time></trkpt><trkpt lat="20.921476" lon="107.027977"><ele>2.9</ele><time>2011-04-30T06:45:40.0000000+00:00</time></trkpt><trkpt lat="20.921415" lon="107.027901"><ele>3.0</ele><time>2011-04-30T06:45:45.0000000+00:00</time></trkpt><trkpt lat="20.921347" lon="107.027832"><ele>3.4</ele><time>2011-04-30T06:45:50.0000000+00:00</time></trkpt><trkpt lat="20.92128" lon="107.027748"><ele>3.4</ele><time>2011-04-30T06:45:55.0000000+00:00</time></trkpt><trkpt lat="20.921209" lon="107.027679"><ele>3.8</ele><time>2011-04-30T06:46:00.0000000+00:00</time></trkpt><trkpt lat="20.921144" lon="107.027611"><ele>4.3</ele><time>2011-04-30T06:46:05.0000000+00:00</time></trkpt><trkpt lat="20.921074" lon="107.027534"><ele>4.6</ele><time>2011-04-30T06:46:10.0000000+00:00</time></trkpt><trkpt lat="20.921007" lon="107.027451"><ele>4.4</ele><time>2011-04-30T06:46:15.0000000+00:00</time></trkpt><trkpt lat="20.920944" lon="107.027374"><ele>4.4</ele><time>2011-04-30T06:46:20.0000000+00:00</time></trkpt><trkpt lat="20.920877" lon="107.027298"><ele>4.3</ele><time>2011-04-30T06:46:25.0000000+00:00</time></trkpt><trkpt lat="20.920815" lon="107.027229"><ele>5.5</ele><time>2011-04-30T06:46:30.0000000+00:00</time></trkpt><trkpt lat="20.920752" lon="107.027153"><ele>5.4</ele><time>2011-04-30T06:46:35.0000000+00:00</time></trkpt><trkpt lat="20.920689" lon="107.027069"><ele>5.3</ele><time>2011-04-30T06:46:40.0000000+00:00</time></trkpt><trkpt lat="20.920624" lon="107.026993"><ele>5.4</ele><time>2011-04-30T06:46:45.0000000+00:00</time></trkpt><trkpt lat="20.920563" lon="107.026909"><ele>5.6</ele><time>2011-04-30T06:46:50.0000000+00:00</time></trkpt><trkpt lat="20.920498" lon="107.026825"><ele>5.4</ele><time>2011-04-30T06:46:55.0000000+00:00</time></trkpt><trkpt lat="20.920429" lon="107.026749"><ele>5.4</ele><time>2011-04-30T06:47:00.0000000+00:00</time></trkpt><trkpt lat="20.920362" lon="107.026672"><ele>5.5</ele><time>2011-04-30T06:47:05.0000000+00:00</time></trkpt><trkpt lat="20.920286" lon="107.026596"><ele>5.3</ele><time>2011-04-30T06:47:10.0000000+00:00</time></trkpt><trkpt lat="20.920216" lon="107.02652"><ele>5.2</ele><time>2011-04-30T06:47:15.0000000+00:00</time></trkpt><trkpt lat="20.920149" lon="107.026443"><ele>5.0</ele><time>2011-04-30T06:47:20.0000000+00:00</time></trkpt><trkpt lat="20.920073" lon="107.026367"><ele>5.3</ele><time>2011-04-30T06:47:25.0000000+00:00</time></trkpt><trkpt lat="20.920002" lon="107.026291"><ele>5.4</ele><time>2011-04-30T06:47:30.0000000+00:00</time></trkpt><trkpt lat="20.91993" lon="107.026215"><ele>5.4</ele><time>2011-04-30T06:47:35.0000000+00:00</time></trkpt><trkpt lat="20.919855" lon="107.026146"><ele>5.5</ele><time>2011-04-30T06:47:40.0000000+00:00</time></trkpt><trkpt lat="20.919785" lon="107.026077"><ele>5.6</ele><time>2011-04-30T06:47:45.0000000+00:00</time></trkpt><trkpt lat="20.919716" lon="107.026001"><ele>5.6</ele><time>2011-04-30T06:47:50.0000000+00:00</time></trkpt><trkpt lat="20.919651" lon="107.025925"><ele>5.5</ele><time>2011-04-30T06:47:55.0000000+00:00</time></trkpt><trkpt lat="20.919588" lon="107.025841"><ele>5.4</ele><time>2011-04-30T06:48:00.0000000+00:00</time></trkpt><trkpt lat="20.919519" lon="107.025772"><ele>5.6</ele><time>2011-04-30T06:48:05.0000000+00:00</time></trkpt><trkpt lat="20.91946" lon="107.025688"><ele>5.4</ele><time>2011-04-30T06:48:10.0000000+00:00</time></trkpt><trkpt lat="20.919395" lon="107.025604"><ele>5.0</ele><time>2011-04-30T06:48:15.0000000+00:00</time></trkpt><trkpt lat="20.919329" lon="107.02552"><ele>4.3</ele><time>2011-04-30T06:48:20.0000000+00:00</time></trkpt><trkpt lat="20.919254" lon="107.025459"><ele>5.3</ele><time>2011-04-30T06:48:25.0000000+00:00</time></trkpt><trkpt lat="20.919182" lon="107.025391"><ele>6.3</ele><time>2011-04-30T06:48:30.0000000+00:00</time></trkpt><trkpt lat="20.919109" lon="107.025314"><ele>6.6</ele><time>2011-04-30T06:48:35.0000000+00:00</time></trkpt><trkpt lat="20.919037" lon="107.025246"><ele>7.0</ele><time>2011-04-30T06:48:40.0000000+00:00</time></trkpt><trkpt lat="20.918964" lon="107.025177"><ele>7.2</ele><time>2011-04-30T06:48:45.0000000+00:00</time></trkpt><trkpt lat="20.91889" lon="107.025093"><ele>7.3</ele><time>2011-04-30T06:48:50.0000000+00:00</time></trkpt><trkpt lat="20.918818" lon="107.025024"><ele>7.1</ele><time>2011-04-30T06:48:55.0000000+00:00</time></trkpt><trkpt lat="20.918755" lon="107.024948"><ele>7.0</ele><time>2011-04-30T06:49:00.0000000+00:00</time></trkpt><trkpt lat="20.918684" lon="107.024872"><ele>7.1</ele><time>2011-04-30T06:49:05.0000000+00:00</time></trkpt><trkpt lat="20.918612" lon="107.024803"><ele>7.3</ele><time>2011-04-30T06:49:10.0000000+00:00</time></trkpt><trkpt lat="20.918541" lon="107.024727"><ele>7.6</ele><time>2011-04-30T06:49:15.0000000+00:00</time></trkpt><trkpt lat="20.918472" lon="107.024651"><ele>7.9</ele><time>2011-04-30T06:49:20.0000000+00:00</time></trkpt><trkpt lat="20.918404" lon="107.024574"><ele>7.9</ele><time>2011-04-30T06:49:25.0000000+00:00</time></trkpt><trkpt lat="20.918339" lon="107.024506"><ele>7.7</ele><time>2011-04-30T06:49:30.0000000+00:00</time></trkpt><trkpt lat="20.918274" lon="107.024422"><ele>7.8</ele><time>2011-04-30T06:49:35.0000000+00:00</time></trkpt><trkpt lat="20.918203" lon="107.024345"><ele>8.2</ele><time>2011-04-30T06:49:40.0000000+00:00</time></trkpt><trkpt lat="20.918139" lon="107.024269"><ele>8.4</ele><time>2011-04-30T06:49:45.0000000+00:00</time></trkpt><trkpt lat="20.918064" lon="107.024193"><ele>8.9</ele><time>2011-04-30T06:49:50.0000000+00:00</time></trkpt><trkpt lat="20.917997" lon="107.024109"><ele>9.3</ele><time>2011-04-30T06:49:55.0000000+00:00</time></trkpt><trkpt lat="20.917931" lon="107.024025"><ele>8.7</ele><time>2011-04-30T06:50:00.0000000+00:00</time></trkpt><trkpt lat="20.917862" lon="107.023949"><ele>8.7</ele><time>2011-04-30T06:50:05.0000000+00:00</time></trkpt><trkpt lat="20.917793" lon="107.023872"><ele>8.7</ele><time>2011-04-30T06:50:10.0000000+00:00</time></trkpt><trkpt lat="20.91773" lon="107.023796"><ele>8.4</ele><time>2011-04-30T06:50:15.0000000+00:00</time></trkpt><trkpt lat="20.917664" lon="107.023727"><ele>8.3</ele><time>2011-04-30T06:50:20.0000000+00:00</time></trkpt><trkpt lat="20.917595" lon="107.023651"><ele>8.2</ele><time>2011-04-30T06:50:25.0000000+00:00</time></trkpt><trkpt lat="20.917517" lon="107.023575"><ele>8.1</ele><time>2011-04-30T06:50:30.0000000+00:00</time></trkpt><trkpt lat="20.917433" lon="107.023506"><ele>8.6</ele><time>2011-04-30T06:50:35.0000000+00:00</time></trkpt><trkpt lat="20.917356" lon="107.02343"><ele>7.9</ele><time>2011-04-30T06:50:40.0000000+00:00</time></trkpt><trkpt lat="20.917278" lon="107.023369"><ele>8.5</ele><time>2011-04-30T06:50:45.0000000+00:00</time></trkpt><trkpt lat="20.917196" lon="107.023315"><ele>8.7</ele><time>2011-04-30T06:50:50.0000000+00:00</time></trkpt><trkpt lat="20.91711" lon="107.023254"><ele>8.7</ele><time>2011-04-30T06:50:55.0000000+00:00</time></trkpt><trkpt lat="20.917007" lon="107.023193"><ele>9.0</ele><time>2011-04-30T06:51:00.0000000+00:00</time></trkpt><trkpt lat="20.916922" lon="107.023132"><ele>9.7</ele><time>2011-04-30T06:51:05.0000000+00:00</time></trkpt><trkpt lat="20.916838" lon="107.023064"><ele>9.6</ele><time>2011-04-30T06:51:10.0000000+00:00</time></trkpt><trkpt lat="20.916763" lon="107.023003"><ele>10.3</ele><time>2011-04-30T06:51:15.0000000+00:00</time></trkpt><trkpt lat="20.916681" lon="107.022942"><ele>10.6</ele><time>2011-04-30T06:51:20.0000000+00:00</time></trkpt><trkpt lat="20.916594" lon="107.022873"><ele>11.2</ele><time>2011-04-30T06:51:25.0000000+00:00</time></trkpt><trkpt lat="20.916512" lon="107.022812"><ele>11.3</ele><time>2011-04-30T06:51:30.0000000+00:00</time></trkpt><trkpt lat="20.916437" lon="107.022736"><ele>11.2</ele><time>2011-04-30T06:51:35.0000000+00:00</time></trkpt><trkpt lat="20.916361" lon="107.022667"><ele>10.3</ele><time>2011-04-30T06:51:40.0000000+00:00</time></trkpt><trkpt lat="20.916285" lon="107.022598"><ele>10.7</ele><time>2011-04-30T06:51:45.0000000+00:00</time></trkpt><trkpt lat="20.916203" lon="107.02253"><ele>10.9</ele><time>2011-04-30T06:51:50.0000000+00:00</time></trkpt><trkpt lat="20.916121" lon="107.022453"><ele>10.9</ele><time>2011-04-30T06:51:55.0000000+00:00</time></trkpt><trkpt lat="20.916048" lon="107.022369"><ele>10.9</ele><time>2011-04-30T06:52:00.0000000+00:00</time></trkpt><trkpt lat="20.915974" lon="107.022293"><ele>10.8</ele><time>2011-04-30T06:52:05.0000000+00:00</time></trkpt><trkpt lat="20.915907" lon="107.022202"><ele>10.1</ele><time>2011-04-30T06:52:10.0000000+00:00</time></trkpt><trkpt lat="20.915838" lon="107.02211"><ele>10.1</ele><time>2011-04-30T06:52:15.0000000+00:00</time></trkpt><trkpt lat="20.915775" lon="107.022018"><ele>10.2</ele><time>2011-04-30T06:52:20.0000000+00:00</time></trkpt><trkpt lat="20.915716" lon="107.021919"><ele>9.8</ele><time>2011-04-30T06:52:25.0000000+00:00</time></trkpt><trkpt lat="20.915661" lon="107.021812"><ele>9.9</ele><time>2011-04-30T06:52:30.0000000+00:00</time></trkpt><trkpt lat="20.9156" lon="107.021713"><ele>10.2</ele><time>2011-04-30T06:52:35.0000000+00:00</time></trkpt><trkpt lat="20.915543" lon="107.021622"><ele>10.2</ele><time>2011-04-30T06:52:40.0000000+00:00</time></trkpt><trkpt lat="20.915483" lon="107.021523"><ele>9.7</ele><time>2011-04-30T06:52:45.0000000+00:00</time></trkpt><trkpt lat="20.91543" lon="107.021431"><ele>9.0</ele><time>2011-04-30T06:52:50.0000000+00:00</time></trkpt><trkpt lat="20.915365" lon="107.021332"><ele>8.8</ele><time>2011-04-30T06:52:55.0000000+00:00</time></trkpt><trkpt lat="20.915298" lon="107.02124"><ele>8.9</ele><time>2011-04-30T06:53:00.0000000+00:00</time></trkpt><trkpt lat="20.915228" lon="107.021149"><ele>8.7</ele><time>2011-04-30T06:53:05.0000000+00:00</time></trkpt><trkpt lat="20.915161" lon="107.021049"><ele>8.4</ele><time>2011-04-30T06:53:10.0000000+00:00</time></trkpt><trkpt lat="20.915098" lon="107.02095"><ele>8.5</ele><time>2011-04-30T06:53:15.0000000+00:00</time></trkpt><trkpt lat="20.915035" lon="107.020851"><ele>8.8</ele><time>2011-04-30T06:53:20.0000000+00:00</time></trkpt><trkpt lat="20.91497" lon="107.02076"><ele>8.8</ele><time>2011-04-30T06:53:25.0000000+00:00</time></trkpt><trkpt lat="20.914904" lon="107.020676"><ele>9.3</ele><time>2011-04-30T06:53:30.0000000+00:00</time></trkpt><trkpt lat="20.914827" lon="107.020599"><ele>9.0</ele><time>2011-04-30T06:53:35.0000000+00:00</time></trkpt><trkpt lat="20.914749" lon="107.020523"><ele>8.8</ele><time>2011-04-30T06:53:40.0000000+00:00</time></trkpt><trkpt lat="20.914665" lon="107.020454"><ele>8.8</ele><time>2011-04-30T06:53:45.0000000+00:00</time></trkpt><trkpt lat="20.91456" lon="107.020386"><ele>8.8</ele><time>2011-04-30T06:53:50.0000000+00:00</time></trkpt><trkpt lat="20.914473" lon="107.020325"><ele>9.2</ele><time>2011-04-30T06:53:55.0000000+00:00</time></trkpt><trkpt lat="20.914394" lon="107.020264"><ele>10.4</ele><time>2011-04-30T06:54:00.0000000+00:00</time></trkpt><trkpt lat="20.914316" lon="107.020203"><ele>11.2</ele><time>2011-04-30T06:54:05.0000000+00:00</time></trkpt><trkpt lat="20.91424" lon="107.020126"><ele>10.8</ele><time>2011-04-30T06:54:10.0000000+00:00</time></trkpt><trkpt lat="20.914171" lon="107.020058"><ele>10.2</ele><time>2011-04-30T06:54:15.0000000+00:00</time></trkpt><trkpt lat="20.914106" lon="107.019989"><ele>10.5</ele><time>2011-04-30T06:54:20.0000000+00:00</time></trkpt><trkpt lat="20.914061" lon="107.019913"><ele>10.2</ele><time>2011-04-30T06:54:25.0000000+00:00</time></trkpt><trkpt lat="20.913992" lon="107.019836"><ele>10.8</ele><time>2011-04-30T06:54:30.0000000+00:00</time></trkpt><trkpt lat="20.913929" lon="107.019753"><ele>9.9</ele><time>2011-04-30T06:54:35.0000000+00:00</time></trkpt><trkpt lat="20.913864" lon="107.019669"><ele>9.3</ele><time>2011-04-30T06:54:40.0000000+00:00</time></trkpt><trkpt lat="20.913807" lon="107.019577"><ele>8.3</ele><time>2011-04-30T06:54:45.0000000+00:00</time></trkpt><trkpt lat="20.913744" lon="107.019493"><ele>7.5</ele><time>2011-04-30T06:54:50.0000000+00:00</time></trkpt><trkpt lat="20.913675" lon="107.019402"><ele>6.5</ele><time>2011-04-30T06:54:55.0000000+00:00</time></trkpt><trkpt lat="20.913622" lon="107.019318"><ele>6.8</ele><time>2011-04-30T06:55:00.0000000+00:00</time></trkpt><trkpt lat="20.913553" lon="107.019241"><ele>6.9</ele><time>2011-04-30T06:55:05.0000000+00:00</time></trkpt><trkpt lat="20.913494" lon="107.01915"><ele>6.8</ele><time>2011-04-30T06:55:10.0000000+00:00</time></trkpt><trkpt lat="20.913437" lon="107.019073"><ele>7.2</ele><time>2011-04-30T06:55:15.0000000+00:00</time></trkpt><trkpt lat="20.913382" lon="107.018997"><ele>7.4</ele><time>2011-04-30T06:55:20.0000000+00:00</time></trkpt><trkpt lat="20.913328" lon="107.018906"><ele>7.9</ele><time>2011-04-30T06:55:25.0000000+00:00</time></trkpt><trkpt lat="20.913271" lon="107.018829"><ele>8.6</ele><time>2011-04-30T06:55:30.0000000+00:00</time></trkpt><trkpt lat="20.913239" lon="107.01873"><ele>8.7</ele><time>2011-04-30T06:55:35.0000000+00:00</time></trkpt><trkpt lat="20.913177" lon="107.018661"><ele>9.1</ele><time>2011-04-30T06:55:40.0000000+00:00</time></trkpt><trkpt lat="20.913139" lon="107.018555"><ele>9.2</ele><time>2011-04-30T06:55:45.0000000+00:00</time></trkpt><trkpt lat="20.913078" lon="107.018494"><ele>9.8</ele><time>2011-04-30T06:55:50.0000000+00:00</time></trkpt><trkpt lat="20.913038" lon="107.018417"><ele>9.9</ele><time>2011-04-30T06:55:55.0000000+00:00</time></trkpt><trkpt lat="20.912983" lon="107.018364"><ele>9.3</ele><time>2011-04-30T06:56:00.0000000+00:00</time></trkpt><trkpt lat="20.912947" lon="107.018295"><ele>9.7</ele><time>2011-04-30T06:56:05.0000000+00:00</time></trkpt><trkpt lat="20.912922" lon="107.01825"><ele>10.0</ele><time>2011-04-30T06:56:10.0000000+00:00</time></trkpt><trkpt lat="20.912899" lon="107.018204"><ele>9.6</ele><time>2011-04-30T06:56:15.0000000+00:00</time></trkpt><trkpt lat="20.912876" lon="107.018158"><ele>9.9</ele><time>2011-04-30T06:56:20.0000000+00:00</time></trkpt><trkpt lat="20.912848" lon="107.018112"><ele>10.6</ele><time>2011-04-30T06:56:25.0000000+00:00</time></trkpt><trkpt lat="20.912815" lon="107.018059"><ele>10.5</ele><time>2011-04-30T06:56:30.0000000+00:00</time></trkpt><trkpt lat="20.912798" lon="107.018021"><ele>10.0</ele><time>2011-04-30T06:56:35.0000000+00:00</time></trkpt><trkpt lat="20.912783" lon="107.018005"><ele>9.3</ele><time>2011-04-30T06:56:40.0000000+00:00</time></trkpt><trkpt lat="20.912764" lon="107.01799"><ele>9.7</ele><time>2011-04-30T06:56:45.0000000+00:00</time></trkpt><trkpt lat="20.912746" lon="107.017975"><ele>10.3</ele><time>2011-04-30T06:56:50.0000000+00:00</time></trkpt><trkpt lat="20.912727" lon="107.01796"><ele>10.3</ele><time>2011-04-30T06:56:55.0000000+00:00</time></trkpt><trkpt lat="20.912704" lon="107.017944"><ele>10.4</ele><time>2011-04-30T06:57:00.0000000+00:00</time></trkpt><trkpt lat="20.912691" lon="107.017937"><ele>10.1</ele><time>2011-04-30T06:57:05.0000000+00:00</time></trkpt><trkpt lat="20.912678" lon="107.017929"><ele>9.9</ele><time>2011-04-30T06:57:10.0000000+00:00</time></trkpt><trkpt lat="20.912674" lon="107.017906"><ele>9.7</ele><time>2011-04-30T06:57:15.0000000+00:00</time></trkpt><trkpt lat="20.912674" lon="107.017891"><ele>9.9</ele><time>2011-04-30T06:57:20.0000000+00:00</time></trkpt><trkpt lat="20.912663" lon="107.01786"><ele>10.1</ele><time>2011-04-30T06:57:25.0000000+00:00</time></trkpt><trkpt lat="20.912655" lon="107.017838"><ele>10.3</ele><time>2011-04-30T06:57:30.0000000+00:00</time></trkpt><trkpt lat="20.912655" lon="107.017792"><ele>8.4</ele><time>2011-04-30T06:57:35.0000000+00:00</time></trkpt><trkpt lat="20.912659" lon="107.017761"><ele>7.4</ele><time>2011-04-30T06:57:40.0000000+00:00</time></trkpt><trkpt lat="20.912659" lon="107.017761"><ele>7.3</ele><time>2011-04-30T06:57:45.0000000+00:00</time></trkpt><trkpt lat="20.912657" lon="107.017754"><ele>7.2</ele><time>2011-04-30T06:57:50.0000000+00:00</time></trkpt><trkpt lat="20.912657" lon="107.017746"><ele>7.1</ele><time>2011-04-30T06:57:55.0000000+00:00</time></trkpt><trkpt lat="20.912659" lon="107.017738"><ele>7.0</ele><time>2011-04-30T06:58:00.0000000+00:00</time></trkpt><trkpt lat="20.912659" lon="107.017738"><ele>7.0</ele><time>2011-04-30T06:58:05.0000000+00:00</time></trkpt><trkpt lat="20.912657" lon="107.017731"><ele>7.0</ele><time>2011-04-30T06:58:10.0000000+00:00</time></trkpt><trkpt lat="20.912655" lon="107.017723"><ele>6.9</ele><time>2011-04-30T06:58:15.0000000+00:00</time></trkpt><trkpt lat="20.912653" lon="107.017715"><ele>6.7</ele><time>2011-04-30T06:58:20.0000000+00:00</time></trkpt><trkpt lat="20.912647" lon="107.0177"><ele>7.6</ele><time>2011-04-30T06:58:25.0000000+00:00</time></trkpt><trkpt lat="20.912638" lon="107.017693"><ele>8.0</ele><time>2011-04-30T06:58:30.0000000+00:00</time></trkpt><trkpt lat="20.91264" lon="107.017685"><ele>7.5</ele><time>2011-04-30T06:58:35.0000000+00:00</time></trkpt><trkpt lat="20.912651" lon="107.017662"><ele>7.3</ele><time>2011-04-30T06:58:40.0000000+00:00</time></trkpt><trkpt lat="20.912655" lon="107.017632"><ele>7.1</ele><time>2011-04-30T06:58:45.0000000+00:00</time></trkpt><trkpt lat="20.912645" lon="107.017601"><ele>7.8</ele><time>2011-04-30T06:58:50.0000000+00:00</time></trkpt><trkpt lat="20.912649" lon="107.017609"><ele>8.7</ele><time>2011-04-30T06:58:55.0000000+00:00</time></trkpt><trkpt lat="20.912661" lon="107.017632"><ele>8.9</ele><time>2011-04-30T06:59:00.0000000+00:00</time></trkpt><trkpt lat="20.912661" lon="107.017647"><ele>9.2</ele><time>2011-04-30T06:59:05.0000000+00:00</time></trkpt><trkpt lat="20.912659" lon="107.017647"><ele>9.5</ele><time>2011-04-30T06:59:10.0000000+00:00</time></trkpt><trkpt lat="20.912664" lon="107.017639"><ele>9.7</ele><time>2011-04-30T06:59:15.0000000+00:00</time></trkpt><trkpt lat="20.912659" lon="107.017632"><ele>8.7</ele><time>2011-04-30T06:59:20.0000000+00:00</time></trkpt><trkpt lat="20.912647" lon="107.017586"><ele>10.0</ele><time>2011-04-30T06:59:25.0000000+00:00</time></trkpt><trkpt lat="20.91263" lon="107.017548"><ele>10.6</ele><time>2011-04-30T06:59:30.0000000+00:00</time></trkpt><trkpt lat="20.912624" lon="107.017525"><ele>10.9</ele><time>2011-04-30T06:59:35.0000000+00:00</time></trkpt><trkpt lat="20.912624" lon="107.017509"><ele>10.8</ele><time>2011-04-30T06:59:40.0000000+00:00</time></trkpt><trkpt lat="20.912621" lon="107.017502"><ele>10.4</ele><time>2011-04-30T06:59:45.0000000+00:00</time></trkpt><trkpt lat="20.912624" lon="107.017487"><ele>10.3</ele><time>2011-04-30T06:59:50.0000000+00:00</time></trkpt><trkpt lat="20.912609" lon="107.017464"><ele>10.3</ele><time>2011-04-30T06:59:55.0000000+00:00</time></trkpt><trkpt lat="20.912622" lon="107.017456"><ele>10.4</ele><time>2011-04-30T07:00:00.0000000+00:00</time></trkpt><trkpt lat="20.912678" lon="107.017426"><ele>10.6</ele><time>2011-04-30T07:00:05.0000000+00:00</time></trkpt><trkpt lat="20.912691" lon="107.01741"><ele>11.6</ele><time>2011-04-30T07:00:10.0000000+00:00</time></trkpt><trkpt lat="20.912699" lon="107.01741"><ele>11.9</ele><time>2011-04-30T07:00:15.0000000+00:00</time></trkpt><trkpt lat="20.912703" lon="107.017418"><ele>12.2</ele><time>2011-04-30T07:00:20.0000000+00:00</time></trkpt><trkpt lat="20.912703" lon="107.017433"><ele>12.7</ele><time>2011-04-30T07:00:25.0000000+00:00</time></trkpt><trkpt lat="20.91272" lon="107.017448"><ele>13.2</ele><time>2011-04-30T07:00:30.0000000+00:00</time></trkpt><trkpt lat="20.912722" lon="107.017448"><ele>13.6</ele><time>2011-04-30T07:00:35.0000000+00:00</time></trkpt><trkpt lat="20.912727" lon="107.017448"><ele>14.0</ele><time>2011-04-30T07:00:40.0000000+00:00</time></trkpt><trkpt lat="20.912729" lon="107.017448"><ele>14.5</ele><time>2011-04-30T07:00:45.0000000+00:00</time></trkpt><trkpt lat="20.912733" lon="107.017448"><ele>15.0</ele><time>2011-04-30T07:00:50.0000000+00:00</time></trkpt><trkpt lat="20.912739" lon="107.017448"><ele>15.7</ele><time>2011-04-30T07:00:55.0000000+00:00</time></trkpt><trkpt lat="20.912746" lon="107.017448"><ele>16.4</ele><time>2011-04-30T07:01:00.0000000+00:00</time></trkpt><trkpt lat="20.912754" lon="107.017456"><ele>17.2</ele><time>2011-04-30T07:01:05.0000000+00:00</time></trkpt><trkpt lat="20.912754" lon="107.017448"><ele>18.0</ele><time>2011-04-30T07:01:10.0000000+00:00</time></trkpt><trkpt lat="20.912762" lon="107.017448"><ele>18.7</ele><time>2011-04-30T07:01:15.0000000+00:00</time></trkpt><trkpt lat="20.912767" lon="107.017448"><ele>19.5</ele><time>2011-04-30T07:01:20.0000000+00:00</time></trkpt><trkpt lat="20.912771" lon="107.017448"><ele>20.2</ele><time>2011-04-30T07:01:25.0000000+00:00</time></trkpt><trkpt lat="20.912773" lon="107.017448"><ele>20.9</ele><time>2011-04-30T07:01:30.0000000+00:00</time></trkpt><trkpt lat="20.912777" lon="107.017448"><ele>21.6</ele><time>2011-04-30T07:01:35.0000000+00:00</time></trkpt><trkpt lat="20.912775" lon="107.017456"><ele>22.4</ele><time>2011-04-30T07:01:40.0000000+00:00</time></trkpt><trkpt lat="20.912773" lon="107.017456"><ele>23.1</ele><time>2011-04-30T07:01:45.0000000+00:00</time></trkpt><trkpt lat="20.912764" lon="107.017456"><ele>23.6</ele><time>2011-04-30T07:01:50.0000000+00:00</time></trkpt><trkpt lat="20.912764" lon="107.017426"><ele>23.5</ele><time>2011-04-30T07:01:55.0000000+00:00</time></trkpt><trkpt lat="20.912762" lon="107.017433"><ele>23.0</ele><time>2011-04-30T07:02:00.0000000+00:00</time></trkpt><trkpt lat="20.912766" lon="107.017433"><ele>23.0</ele><time>2011-04-30T07:02:05.0000000+00:00</time></trkpt><trkpt lat="20.912771" lon="107.017441"><ele>23.0</ele><time>2011-04-30T07:02:10.0000000+00:00</time></trkpt><trkpt lat="20.912777" lon="107.017441"><ele>23.0</ele><time>2011-04-30T07:02:15.0000000+00:00</time></trkpt><trkpt lat="20.912769" lon="107.017433"><ele>22.7</ele><time>2011-04-30T07:02:20.0000000+00:00</time></trkpt><trkpt lat="20.91275" lon="107.017418"><ele>23.0</ele><time>2011-04-30T07:02:25.0000000+00:00</time></trkpt><trkpt lat="20.91275" lon="107.017395"><ele>23.0</ele><time>2011-04-30T07:02:30.0000000+00:00</time></trkpt><trkpt lat="20.912745" lon="107.01738"><ele>23.1</ele><time>2011-04-30T07:02:35.0000000+00:00</time></trkpt><trkpt lat="20.912737" lon="107.017365"><ele>23.0</ele><time>2011-04-30T07:02:40.0000000+00:00</time></trkpt><trkpt lat="20.912745" lon="107.017334"><ele>23.0</ele><time>2011-04-30T07:02:45.0000000+00:00</time></trkpt><trkpt lat="20.912752" lon="107.017319"><ele>23.3</ele><time>2011-04-30T07:02:50.0000000+00:00</time></trkpt><trkpt lat="20.912725" lon="107.017296"><ele>23.5</ele><time>2011-04-30T07:02:55.0000000+00:00</time></trkpt><trkpt lat="20.912685" lon="107.017303"><ele>24.1</ele><time>2011-04-30T07:03:00.0000000+00:00</time></trkpt><trkpt lat="20.912668" lon="107.017296"><ele>26.1</ele><time>2011-04-30T07:03:05.0000000+00:00</time></trkpt><trkpt lat="20.912647" lon="107.017288"><ele>27.0</ele><time>2011-04-30T07:03:10.0000000+00:00</time></trkpt><trkpt lat="20.912649" lon="107.017281"><ele>27.6</ele><time>2011-04-30T07:03:15.0000000+00:00</time></trkpt><trkpt lat="20.912642" lon="107.017281"><ele>28.4</ele><time>2011-04-30T07:03:20.0000000+00:00</time></trkpt><trkpt lat="20.912659" lon="107.017273"><ele>29.0</ele><time>2011-04-30T07:03:25.0000000+00:00</time></trkpt><trkpt lat="20.912661" lon="107.017265"><ele>29.6</ele><time>2011-04-30T07:03:30.0000000+00:00</time></trkpt><trkpt lat="20.912655" lon="107.017265"><ele>30.3</ele><time>2011-04-30T07:03:35.0000000+00:00</time></trkpt><trkpt lat="20.912655" lon="107.017265"><ele>31.0</ele><time>2011-04-30T07:03:40.0000000+00:00</time></trkpt><trkpt lat="20.912657" lon="107.017258"><ele>31.8</ele><time>2011-04-30T07:03:45.0000000+00:00</time></trkpt><trkpt lat="20.912655" lon="107.017258"><ele>32.6</ele><time>2011-04-30T07:03:50.0000000+00:00</time></trkpt><trkpt lat="20.91259" lon="107.017288"><ele>32.8</ele><time>2011-04-30T07:03:55.0000000+00:00</time></trkpt><trkpt lat="20.912573" lon="107.017281"><ele>33.4</ele><time>2011-04-30T07:04:00.0000000+00:00</time></trkpt><trkpt lat="20.912569" lon="107.01725"><ele>34.6</ele><time>2011-04-30T07:04:05.0000000+00:00</time></trkpt><trkpt lat="20.912565" lon="107.017235"><ele>35.5</ele><time>2011-04-30T07:04:10.0000000+00:00</time></trkpt><trkpt lat="20.912556" lon="107.017235"><ele>35.9</ele><time>2011-04-30T07:04:15.0000000+00:00</time></trkpt><trkpt lat="20.91255" lon="107.017242"><ele>36.6</ele><time>2011-04-30T07:04:20.0000000+00:00</time></trkpt><trkpt lat="20.912577" lon="107.017235"><ele>37.1</ele><time>2011-04-30T07:04:25.0000000+00:00</time></trkpt><trkpt lat="20.912582" lon="107.017258"><ele>37.7</ele><time>2011-04-30T07:04:30.0000000+00:00</time></trkpt><trkpt lat="20.912563" lon="107.017242"><ele>38.2</ele><time>2011-04-30T07:04:35.0000000+00:00</time></trkpt><trkpt lat="20.912556" lon="107.017227"><ele>38.8</ele><time>2011-04-30T07:04:40.0000000+00:00</time></trkpt><trkpt lat="20.912548" lon="107.017204"><ele>39.4</ele><time>2011-04-30T07:04:45.0000000+00:00</time></trkpt><trkpt lat="20.912535" lon="107.017189"><ele>39.9</ele><time>2011-04-30T07:04:50.0000000+00:00</time></trkpt><trkpt lat="20.912518" lon="107.017174"><ele>40.5</ele><time>2011-04-30T07:04:55.0000000+00:00</time></trkpt><trkpt lat="20.911943" lon="107.017647"><ele>39.4</ele><time>2011-04-30T07:33:40.0000000+00:00</time></trkpt><trkpt lat="20.912045" lon="107.017609"><ele>38.1</ele><time>2011-04-30T07:33:45.0000000+00:00</time></trkpt><trkpt lat="20.912037" lon="107.017624"><ele>36.6</ele><time>2011-04-30T07:33:50.0000000+00:00</time></trkpt><trkpt lat="20.911905" lon="107.017525"><ele>31.1</ele><time>2011-04-30T07:33:55.0000000+00:00</time></trkpt><trkpt lat="20.911909" lon="107.017525"><ele>27.8</ele><time>2011-04-30T07:34:00.0000000+00:00</time></trkpt><trkpt lat="20.911951" lon="107.017586"><ele>26.4</ele><time>2011-04-30T07:34:05.0000000+00:00</time></trkpt><trkpt lat="20.911943" lon="107.017601"><ele>22.8</ele><time>2011-04-30T07:34:10.0000000+00:00</time></trkpt><trkpt lat="20.911915" lon="107.017639"><ele>22.6</ele><time>2011-04-30T07:34:15.0000000+00:00</time></trkpt><trkpt lat="20.911886" lon="107.017647"><ele>22.8</ele><time>2011-04-30T07:34:20.0000000+00:00</time></trkpt><trkpt lat="20.911879" lon="107.017654"><ele>22.8</ele><time>2011-04-30T07:34:25.0000000+00:00</time></trkpt><trkpt lat="20.911892" lon="107.017616"><ele>23.0</ele><time>2011-04-30T07:34:30.0000000+00:00</time></trkpt><trkpt lat="20.91188" lon="107.017616"><ele>23.1</ele><time>2011-04-30T07:34:35.0000000+00:00</time></trkpt><trkpt lat="20.911875" lon="107.017616"><ele>23.1</ele><time>2011-04-30T07:34:40.0000000+00:00</time></trkpt><trkpt lat="20.911873" lon="107.017609"><ele>23.6</ele><time>2011-04-30T07:34:45.0000000+00:00</time></trkpt><trkpt lat="20.911825" lon="107.017609"><ele>23.3</ele><time>2011-04-30T07:34:50.0000000+00:00</time></trkpt><trkpt lat="20.911854" lon="107.017632"><ele>23.1</ele><time>2011-04-30T07:34:55.0000000+00:00</time></trkpt><trkpt lat="20.911865" lon="107.017632"><ele>22.5</ele><time>2011-04-30T07:35:00.0000000+00:00</time></trkpt><trkpt lat="20.911865" lon="107.017662"><ele>22.8</ele><time>2011-04-30T07:35:05.0000000+00:00</time></trkpt><trkpt lat="20.911903" lon="107.017685"><ele>21.8</ele><time>2011-04-30T07:35:10.0000000+00:00</time></trkpt><trkpt lat="20.911901" lon="107.017715"><ele>21.4</ele><time>2011-04-30T07:35:15.0000000+00:00</time></trkpt><trkpt lat="20.911921" lon="107.017754"><ele>20.8</ele><time>2011-04-30T07:35:20.0000000+00:00</time></trkpt><trkpt lat="20.911903" lon="107.017761"><ele>20.2</ele><time>2011-04-30T07:35:25.0000000+00:00</time></trkpt><trkpt lat="20.911905" lon="107.017784"><ele>20.0</ele><time>2011-04-30T07:35:30.0000000+00:00</time></trkpt><trkpt lat="20.911898" lon="107.017799"><ele>19.7</ele><time>2011-04-30T07:35:35.0000000+00:00</time></trkpt><trkpt lat="20.91185" lon="107.017815"><ele>18.9</ele><time>2011-04-30T07:35:40.0000000+00:00</time></trkpt><trkpt lat="20.911816" lon="107.017838"><ele>19.1</ele><time>2011-04-30T07:35:45.0000000+00:00</time></trkpt><trkpt lat="20.911793" lon="107.017845"><ele>19.6</ele><time>2011-04-30T07:35:50.0000000+00:00</time></trkpt><trkpt lat="20.911791" lon="107.017853"><ele>20.8</ele><time>2011-04-30T07:35:55.0000000+00:00</time></trkpt><trkpt lat="20.911825" lon="107.017876"><ele>22.3</ele><time>2011-04-30T07:36:00.0000000+00:00</time></trkpt><trkpt lat="20.911835" lon="107.017921"><ele>24.9</ele><time>2011-04-30T07:36:05.0000000+00:00</time></trkpt><trkpt lat="20.911821" lon="107.01799"><ele>27.6</ele><time>2011-04-30T07:36:10.0000000+00:00</time></trkpt><trkpt lat="20.911724" lon="107.018051"><ele>31.5</ele><time>2011-04-30T07:36:15.0000000+00:00</time></trkpt><trkpt lat="20.911724" lon="107.018135"><ele>34.0</ele><time>2011-04-30T07:36:20.0000000+00:00</time></trkpt><trkpt lat="20.911701" lon="107.018173"><ele>37.1</ele><time>2011-04-30T07:36:25.0000000+00:00</time></trkpt><trkpt lat="20.911694" lon="107.018188"><ele>36.8</ele><time>2011-04-30T07:36:30.0000000+00:00</time></trkpt><trkpt lat="20.911674" lon="107.01825"><ele>36.1</ele><time>2011-04-30T07:36:35.0000000+00:00</time></trkpt><trkpt lat="20.911655" lon="107.018295"><ele>35.3</ele><time>2011-04-30T07:36:40.0000000+00:00</time></trkpt><trkpt lat="20.911655" lon="107.018349"><ele>33.9</ele><time>2011-04-30T07:36:45.0000000+00:00</time></trkpt><trkpt lat="20.911642" lon="107.018379"><ele>32.5</ele><time>2011-04-30T07:36:50.0000000+00:00</time></trkpt><trkpt lat="20.911579" lon="107.01841"><ele>31.5</ele><time>2011-04-30T07:36:55.0000000+00:00</time></trkpt><trkpt lat="20.911543" lon="107.01844"><ele>30.4</ele><time>2011-04-30T07:37:00.0000000+00:00</time></trkpt><trkpt lat="20.911509" lon="107.018456"><ele>29.1</ele><time>2011-04-30T07:37:05.0000000+00:00</time></trkpt><trkpt lat="20.911463" lon="107.018456"><ele>27.8</ele><time>2011-04-30T07:37:10.0000000+00:00</time></trkpt><trkpt lat="20.911411" lon="107.018463"><ele>26.3</ele><time>2011-04-30T07:37:15.0000000+00:00</time></trkpt><trkpt lat="20.911377" lon="107.018478"><ele>25.2</ele><time>2011-04-30T07:37:20.0000000+00:00</time></trkpt><trkpt lat="20.911327" lon="107.018471"><ele>23.3</ele><time>2011-04-30T07:37:25.0000000+00:00</time></trkpt><trkpt lat="20.911297" lon="107.018463"><ele>22.4</ele><time>2011-04-30T07:37:30.0000000+00:00</time></trkpt><trkpt lat="20.911266" lon="107.018471"><ele>21.9</ele><time>2011-04-30T07:37:35.0000000+00:00</time></trkpt><trkpt lat="20.911222" lon="107.018456"><ele>22.3</ele><time>2011-04-30T07:37:40.0000000+00:00</time></trkpt><trkpt lat="20.911188" lon="107.018471"><ele>22.6</ele><time>2011-04-30T07:37:45.0000000+00:00</time></trkpt><trkpt lat="20.91115" lon="107.018486"><ele>22.4</ele><time>2011-04-30T07:37:50.0000000+00:00</time></trkpt><trkpt lat="20.911123" lon="107.018494"><ele>22.1</ele><time>2011-04-30T07:37:55.0000000+00:00</time></trkpt><trkpt lat="20.911055" lon="107.018478"><ele>21.8</ele><time>2011-04-30T07:38:00.0000000+00:00</time></trkpt><trkpt lat="20.911043" lon="107.018509"><ele>22.0</ele><time>2011-04-30T07:38:05.0000000+00:00</time></trkpt><trkpt lat="20.911104" lon="107.018547"><ele>21.3</ele><time>2011-04-30T07:38:10.0000000+00:00</time></trkpt><trkpt lat="20.91111" lon="107.018562"><ele>21.4</ele><time>2011-04-30T07:38:15.0000000+00:00</time></trkpt><trkpt lat="20.911116" lon="107.01857"><ele>21.7</ele><time>2011-04-30T07:38:20.0000000+00:00</time></trkpt><trkpt lat="20.911121" lon="107.018578"><ele>21.9</ele><time>2011-04-30T07:38:25.0000000+00:00</time></trkpt><trkpt lat="20.911114" lon="107.018616"><ele>22.0</ele><time>2011-04-30T07:38:30.0000000+00:00</time></trkpt><trkpt lat="20.911116" lon="107.018669"><ele>22.0</ele><time>2011-04-30T07:38:35.0000000+00:00</time></trkpt><trkpt lat="20.911074" lon="107.018715"><ele>21.8</ele><time>2011-04-30T07:38:40.0000000+00:00</time></trkpt><trkpt lat="20.911047" lon="107.018723"><ele>22.0</ele><time>2011-04-30T07:38:45.0000000+00:00</time></trkpt><trkpt lat="20.911064" lon="107.018776"><ele>23.0</ele><time>2011-04-30T07:38:50.0000000+00:00</time></trkpt><trkpt lat="20.911081" lon="107.018814"><ele>23.2</ele><time>2011-04-30T07:38:55.0000000+00:00</time></trkpt><trkpt lat="20.91107" lon="107.018845"><ele>23.5</ele><time>2011-04-30T07:39:00.0000000+00:00</time></trkpt><trkpt lat="20.911026" lon="107.01886"><ele>23.3</ele><time>2011-04-30T07:39:05.0000000+00:00</time></trkpt><trkpt lat="20.910995" lon="107.018867"><ele>23.2</ele><time>2011-04-30T07:39:10.0000000+00:00</time></trkpt><trkpt lat="20.911045" lon="107.01889"><ele>22.2</ele><time>2011-04-30T07:39:15.0000000+00:00</time></trkpt><trkpt lat="20.91111" lon="107.018921"><ele>21.4</ele><time>2011-04-30T07:39:20.0000000+00:00</time></trkpt><trkpt lat="20.911129" lon="107.018898"><ele>20.9</ele><time>2011-04-30T07:39:25.0000000+00:00</time></trkpt><trkpt lat="20.911161" lon="107.018852"><ele>22.3</ele><time>2011-04-30T07:39:30.0000000+00:00</time></trkpt><trkpt lat="20.911173" lon="107.018791"><ele>23.1</ele><time>2011-04-30T07:39:35.0000000+00:00</time></trkpt><trkpt lat="20.911188" lon="107.018723"><ele>24.2</ele><time>2011-04-30T07:39:40.0000000+00:00</time></trkpt><trkpt lat="20.911226" lon="107.01873"><ele>26.3</ele><time>2011-04-30T07:39:45.0000000+00:00</time></trkpt><trkpt lat="20.911257" lon="107.01873"><ele>27.3</ele><time>2011-04-30T07:39:50.0000000+00:00</time></trkpt><trkpt lat="20.91128" lon="107.018738"><ele>30.4</ele><time>2011-04-30T07:39:55.0000000+00:00</time></trkpt><trkpt lat="20.911287" lon="107.01873"><ele>31.5</ele><time>2011-04-30T07:40:00.0000000+00:00</time></trkpt><trkpt lat="20.911303" lon="107.018738"><ele>32.2</ele><time>2011-04-30T07:40:05.0000000+00:00</time></trkpt><trkpt lat="20.91131" lon="107.018761"><ele>33.0</ele><time>2011-04-30T07:40:10.0000000+00:00</time></trkpt><trkpt lat="20.911314" lon="107.01873"><ele>33.1</ele><time>2011-04-30T07:40:15.0000000+00:00</time></trkpt><trkpt lat="20.911308" lon="107.018738"><ele>33.2</ele><time>2011-04-30T07:40:20.0000000+00:00</time></trkpt><trkpt lat="20.911303" lon="107.018723"><ele>32.9</ele><time>2011-04-30T07:40:25.0000000+00:00</time></trkpt><trkpt lat="20.911327" lon="107.018684"><ele>33.5</ele><time>2011-04-30T07:40:30.0000000+00:00</time></trkpt><trkpt lat="20.91132" lon="107.018661"><ele>34.0</ele><time>2011-04-30T07:40:35.0000000+00:00</time></trkpt><trkpt lat="20.911314" lon="107.018661"><ele>34.6</ele><time>2011-04-30T07:40:40.0000000+00:00</time></trkpt><trkpt lat="20.91132" lon="107.018661"><ele>34.6</ele><time>2011-04-30T07:40:45.0000000+00:00</time></trkpt><trkpt lat="20.911324" lon="107.018661"><ele>34.8</ele><time>2011-04-30T07:40:50.0000000+00:00</time></trkpt><trkpt lat="20.911316" lon="107.018661"><ele>35.1</ele><time>2011-04-30T07:40:55.0000000+00:00</time></trkpt><trkpt lat="20.911427" lon="107.018646"><ele>37.7</ele><time>2011-04-30T07:41:00.0000000+00:00</time></trkpt><trkpt lat="20.91139" lon="107.01873"><ele>39.9</ele><time>2011-04-30T07:41:05.0000000+00:00</time></trkpt><trkpt lat="20.91139" lon="107.018745"><ele>40.6</ele><time>2011-04-30T07:41:10.0000000+00:00</time></trkpt><trkpt lat="20.911396" lon="107.018784"><ele>40.4</ele><time>2011-04-30T07:41:15.0000000+00:00</time></trkpt><trkpt lat="20.911404" lon="107.018799"><ele>40.4</ele><time>2011-04-30T07:41:20.0000000+00:00</time></trkpt><trkpt lat="20.911409" lon="107.018806"><ele>40.2</ele><time>2011-04-30T07:41:25.0000000+00:00</time></trkpt><trkpt lat="20.911413" lon="107.018829"><ele>40.0</ele><time>2011-04-30T07:41:30.0000000+00:00</time></trkpt><trkpt lat="20.911419" lon="107.018852"><ele>39.7</ele><time>2011-04-30T07:41:35.0000000+00:00</time></trkpt><trkpt lat="20.91143" lon="107.018875"><ele>39.4</ele><time>2011-04-30T07:41:40.0000000+00:00</time></trkpt><trkpt lat="20.91143" lon="107.018921"><ele>39.5</ele><time>2011-04-30T07:41:45.0000000+00:00</time></trkpt><trkpt lat="20.911432" lon="107.018936"><ele>39.5</ele><time>2011-04-30T07:41:50.0000000+00:00</time></trkpt><trkpt lat="20.911451" lon="107.018936"><ele>39.4</ele><time>2011-04-30T07:41:55.0000000+00:00</time></trkpt><trkpt lat="20.911461" lon="107.018967"><ele>39.0</ele><time>2011-04-30T07:42:00.0000000+00:00</time></trkpt><trkpt lat="20.911518" lon="107.019043"><ele>36.9</ele><time>2011-04-30T07:42:05.0000000+00:00</time></trkpt><trkpt lat="20.91153" lon="107.019058"><ele>36.2</ele><time>2011-04-30T07:42:10.0000000+00:00</time></trkpt><trkpt lat="20.91153" lon="107.019058"><ele>36.1</ele><time>2011-04-30T07:42:15.0000000+00:00</time></trkpt><trkpt lat="20.911531" lon="107.019058"><ele>36.0</ele><time>2011-04-30T07:42:20.0000000+00:00</time></trkpt><trkpt lat="20.911533" lon="107.019051"><ele>35.9</ele><time>2011-04-30T07:42:25.0000000+00:00</time></trkpt><trkpt lat="20.911528" lon="107.019058"><ele>35.9</ele><time>2011-04-30T07:42:30.0000000+00:00</time></trkpt><trkpt lat="20.911524" lon="107.019058"><ele>35.9</ele><time>2011-04-30T07:42:35.0000000+00:00</time></trkpt><trkpt lat="20.911524" lon="107.019058"><ele>35.8</ele><time>2011-04-30T07:42:40.0000000+00:00</time></trkpt><trkpt lat="20.911528" lon="107.019058"><ele>35.8</ele><time>2011-04-30T07:42:45.0000000+00:00</time></trkpt><trkpt lat="20.91153" lon="107.019058"><ele>35.7</ele><time>2011-04-30T07:42:50.0000000+00:00</time></trkpt><trkpt lat="20.911526" lon="107.019058"><ele>35.7</ele><time>2011-04-30T07:42:55.0000000+00:00</time></trkpt><trkpt lat="20.911524" lon="107.019058"><ele>35.7</ele><time>2011-04-30T07:43:00.0000000+00:00</time></trkpt><trkpt lat="20.911512" lon="107.019073"><ele>35.2</ele><time>2011-04-30T07:43:05.0000000+00:00</time></trkpt><trkpt lat="20.911516" lon="107.019119"><ele>33.8</ele><time>2011-04-30T07:43:10.0000000+00:00</time></trkpt><trkpt lat="20.91151" lon="107.019119"><ele>32.1</ele><time>2011-04-30T07:43:15.0000000+00:00</time></trkpt><trkpt lat="20.911505" lon="107.019119"><ele>32.0</ele><time>2011-04-30T07:43:20.0000000+00:00</time></trkpt><trkpt lat="20.911503" lon="107.019112"><ele>31.8</ele><time>2011-04-30T07:43:25.0000000+00:00</time></trkpt><trkpt lat="20.911507" lon="107.019104"><ele>31.5</ele><time>2011-04-30T07:43:30.0000000+00:00</time></trkpt><trkpt lat="20.911509" lon="107.019089"><ele>31.2</ele><time>2011-04-30T07:43:35.0000000+00:00</time></trkpt><trkpt lat="20.91151" lon="107.019081"><ele>30.8</ele><time>2011-04-30T07:43:40.0000000+00:00</time></trkpt><trkpt lat="20.91151" lon="107.019081"><ele>30.4</ele><time>2011-04-30T07:43:45.0000000+00:00</time></trkpt><trkpt lat="20.911514" lon="107.019066"><ele>29.9</ele><time>2011-04-30T07:43:50.0000000+00:00</time></trkpt><trkpt lat="20.911514" lon="107.019058"><ele>29.4</ele><time>2011-04-30T07:43:55.0000000+00:00</time></trkpt><trkpt lat="20.911516" lon="107.019043"><ele>28.9</ele><time>2011-04-30T07:44:00.0000000+00:00</time></trkpt><trkpt lat="20.91151" lon="107.019035"><ele>27.9</ele><time>2011-04-30T07:44:05.0000000+00:00</time></trkpt><trkpt lat="20.911514" lon="107.019028"><ele>26.9</ele><time>2011-04-30T07:44:10.0000000+00:00</time></trkpt><trkpt lat="20.911509" lon="107.019012"><ele>26.2</ele><time>2011-04-30T07:44:15.0000000+00:00</time></trkpt><trkpt lat="20.911512" lon="107.019005"><ele>25.5</ele><time>2011-04-30T07:44:20.0000000+00:00</time></trkpt><trkpt lat="20.911522" lon="107.018982"><ele>24.5</ele><time>2011-04-30T07:44:25.0000000+00:00</time></trkpt><trkpt lat="20.911539" lon="107.018936"><ele>22.9</ele><time>2011-04-30T07:44:30.0000000+00:00</time></trkpt><trkpt lat="20.911535" lon="107.018921"><ele>21.1</ele><time>2011-04-30T07:44:35.0000000+00:00</time></trkpt><trkpt lat="20.911528" lon="107.018921"><ele>19.6</ele><time>2011-04-30T07:44:40.0000000+00:00</time></trkpt><trkpt lat="20.911522" lon="107.018913"><ele>18.9</ele><time>2011-04-30T07:44:45.0000000+00:00</time></trkpt><trkpt lat="20.911518" lon="107.018913"><ele>18.2</ele><time>2011-04-30T07:44:50.0000000+00:00</time></trkpt><trkpt lat="20.911514" lon="107.018913"><ele>17.4</ele><time>2011-04-30T07:44:55.0000000+00:00</time></trkpt><trkpt lat="20.911507" lon="107.018913"><ele>16.7</ele><time>2011-04-30T07:45:00.0000000+00:00</time></trkpt><trkpt lat="20.911499" lon="107.018906"><ele>15.9</ele><time>2011-04-30T07:45:05.0000000+00:00</time></trkpt><trkpt lat="20.911499" lon="107.018898"><ele>15.2</ele><time>2011-04-30T07:45:10.0000000+00:00</time></trkpt><trkpt lat="20.911497" lon="107.01889"><ele>14.5</ele><time>2011-04-30T07:45:15.0000000+00:00</time></trkpt><trkpt lat="20.911499" lon="107.01889"><ele>13.8</ele><time>2011-04-30T07:45:20.0000000+00:00</time></trkpt><trkpt lat="20.911501" lon="107.01889"><ele>13.2</ele><time>2011-04-30T07:45:25.0000000+00:00</time></trkpt><trkpt lat="20.911507" lon="107.018898"><ele>12.6</ele><time>2011-04-30T07:45:30.0000000+00:00</time></trkpt><trkpt lat="20.911512" lon="107.018906"><ele>11.9</ele><time>2011-04-30T07:45:35.0000000+00:00</time></trkpt><trkpt lat="20.911518" lon="107.018913"><ele>11.3</ele><time>2011-04-30T07:45:40.0000000+00:00</time></trkpt><trkpt lat="20.911524" lon="107.018913"><ele>10.7</ele><time>2011-04-30T07:45:45.0000000+00:00</time></trkpt><trkpt lat="20.91153" lon="107.018929"><ele>10.1</ele><time>2011-04-30T07:45:50.0000000+00:00</time></trkpt><trkpt lat="20.911541" lon="107.018936"><ele>9.3</ele><time>2011-04-30T07:45:55.0000000+00:00</time></trkpt><trkpt lat="20.911568" lon="107.018944"><ele>8.2</ele><time>2011-04-30T07:46:00.0000000+00:00</time></trkpt><trkpt lat="20.91157" lon="107.018967"><ele>6.6</ele><time>2011-04-30T07:46:05.0000000+00:00</time></trkpt><trkpt lat="20.91157" lon="107.018967"><ele>5.9</ele><time>2011-04-30T07:46:10.0000000+00:00</time></trkpt><trkpt lat="20.911572" lon="107.018974"><ele>5.3</ele><time>2011-04-30T07:46:15.0000000+00:00</time></trkpt><trkpt lat="20.911572" lon="107.018967"><ele>4.6</ele><time>2011-04-30T07:46:20.0000000+00:00</time></trkpt><trkpt lat="20.911568" lon="107.018967"><ele>3.9</ele><time>2011-04-30T07:46:25.0000000+00:00</time></trkpt><trkpt lat="20.911566" lon="107.018959"><ele>3.1</ele><time>2011-04-30T07:46:30.0000000+00:00</time></trkpt><trkpt lat="20.91157" lon="107.018959"><ele>2.3</ele><time>2011-04-30T07:46:35.0000000+00:00</time></trkpt><trkpt lat="20.911615" lon="107.018967"><ele>0.9</ele><time>2011-04-30T07:46:40.0000000+00:00</time></trkpt><trkpt lat="20.911659" lon="107.018974"><ele>-0.6</ele><time>2011-04-30T07:46:45.0000000+00:00</time></trkpt><trkpt lat="20.911724" lon="107.018974"><ele>-1.0</ele><time>2011-04-30T07:46:50.0000000+00:00</time></trkpt><trkpt lat="20.911787" lon="107.01899"><ele>-2.2</ele><time>2011-04-30T07:46:55.0000000+00:00</time></trkpt><trkpt lat="20.911865" lon="107.019005"><ele>-2.8</ele><time>2011-04-30T07:47:00.0000000+00:00</time></trkpt><trkpt lat="20.91194" lon="107.019028"><ele>-4.6</ele><time>2011-04-30T07:47:05.0000000+00:00</time></trkpt><trkpt lat="20.912046" lon="107.01899"><ele>-14.1</ele><time>2011-04-30T07:47:10.0000000+00:00</time></trkpt><trkpt lat="20.91213" lon="107.019043"><ele>-12.1</ele><time>2011-04-30T07:47:15.0000000+00:00</time></trkpt><trkpt lat="20.912235" lon="107.019035"><ele>-18.7</ele><time>2011-04-30T07:47:20.0000000+00:00</time></trkpt><trkpt lat="20.912327" lon="107.019073"><ele>-18.9</ele><time>2011-04-30T07:47:25.0000000+00:00</time></trkpt><trkpt lat="20.912428" lon="107.019104"><ele>-20.5</ele><time>2011-04-30T07:47:30.0000000+00:00</time></trkpt><trkpt lat="20.912531" lon="107.019127"><ele>-21.7</ele><time>2011-04-30T07:47:35.0000000+00:00</time></trkpt><trkpt lat="20.912636" lon="107.019157"><ele>-23.1</ele><time>2011-04-30T07:47:40.0000000+00:00</time></trkpt><trkpt lat="20.912746" lon="107.019196"><ele>-22.6</ele><time>2011-04-30T07:47:45.0000000+00:00</time></trkpt><trkpt lat="20.912855" lon="107.019226"><ele>-23.0</ele><time>2011-04-30T07:47:50.0000000+00:00</time></trkpt><trkpt lat="20.912968" lon="107.019257"><ele>-22.8</ele><time>2011-04-30T07:47:55.0000000+00:00</time></trkpt><trkpt lat="20.913082" lon="107.019287"><ele>-23.1</ele><time>2011-04-30T07:48:00.0000000+00:00</time></trkpt><trkpt lat="20.913206" lon="107.019272"><ele>-28.9</ele><time>2011-04-30T07:48:05.0000000+00:00</time></trkpt><trkpt lat="20.913315" lon="107.01931"><ele>-26.7</ele><time>2011-04-30T07:48:10.0000000+00:00</time></trkpt><trkpt lat="20.913424" lon="107.019348"><ele>-23.3</ele><time>2011-04-30T07:48:15.0000000+00:00</time></trkpt><trkpt lat="20.913528" lon="107.019333"><ele>-26.6</ele><time>2011-04-30T07:48:20.0000000+00:00</time></trkpt><trkpt lat="20.913639" lon="107.019318"><ele>-28.0</ele><time>2011-04-30T07:48:25.0000000+00:00</time></trkpt><trkpt lat="20.913746" lon="107.01931"><ele>-28.1</ele><time>2011-04-30T07:48:30.0000000+00:00</time></trkpt><trkpt lat="20.913843" lon="107.019295"><ele>-28.7</ele><time>2011-04-30T07:48:35.0000000+00:00</time></trkpt><trkpt lat="20.913942" lon="107.019287"><ele>-27.3</ele><time>2011-04-30T07:48:40.0000000+00:00</time></trkpt><trkpt lat="20.914051" lon="107.019264"><ele>-27.0</ele><time>2011-04-30T07:48:45.0000000+00:00</time></trkpt><trkpt lat="20.914156" lon="107.019226"><ele>-28.2</ele><time>2011-04-30T07:48:50.0000000+00:00</time></trkpt><trkpt lat="20.914265" lon="107.019203"><ele>-26.0</ele><time>2011-04-30T07:48:55.0000000+00:00</time></trkpt><trkpt lat="20.914364" lon="107.019142"><ele>-27.5</ele><time>2011-04-30T07:49:00.0000000+00:00</time></trkpt><trkpt lat="20.914467" lon="107.019058"><ele>-30.9</ele><time>2011-04-30T07:49:05.0000000+00:00</time></trkpt><trkpt lat="20.914558" lon="107.01899"><ele>-31.4</ele><time>2011-04-30T07:49:10.0000000+00:00</time></trkpt><trkpt lat="20.914639" lon="107.018913"><ele>-32.2</ele><time>2011-04-30T07:49:15.0000000+00:00</time></trkpt><trkpt lat="20.914713" lon="107.018845"><ele>-32.5</ele><time>2011-04-30T07:49:20.0000000+00:00</time></trkpt><trkpt lat="20.914785" lon="107.018761"><ele>-31.9</ele><time>2011-04-30T07:49:25.0000000+00:00</time></trkpt><trkpt lat="20.914846" lon="107.018692"><ele>-31.1</ele><time>2011-04-30T07:49:30.0000000+00:00</time></trkpt><trkpt lat="20.914904" lon="107.018639"><ele>-28.6</ele><time>2011-04-30T07:49:35.0000000+00:00</time></trkpt><trkpt lat="20.914955" lon="107.018547"><ele>-28.3</ele><time>2011-04-30T07:49:40.0000000+00:00</time></trkpt><trkpt lat="20.915003" lon="107.018448"><ele>-27.7</ele><time>2011-04-30T07:49:45.0000000+00:00</time></trkpt><trkpt lat="20.915033" lon="107.018356"><ele>-27.0</ele><time>2011-04-30T07:49:50.0000000+00:00</time></trkpt><trkpt lat="20.915039" lon="107.018265"><ele>-23.7</ele><time>2011-04-30T07:49:55.0000000+00:00</time></trkpt><trkpt lat="20.915054" lon="107.01815"><ele>-22.5</ele><time>2011-04-30T07:50:00.0000000+00:00</time></trkpt><trkpt lat="20.915083" lon="107.018051"><ele>-21.2</ele><time>2011-04-30T07:50:05.0000000+00:00</time></trkpt><trkpt lat="20.915104" lon="107.017944"><ele>-20.8</ele><time>2011-04-30T07:50:10.0000000+00:00</time></trkpt><trkpt lat="20.915112" lon="107.017838"><ele>-19.9</ele><time>2011-04-30T07:50:15.0000000+00:00</time></trkpt><trkpt lat="20.91511" lon="107.017738"><ele>-19.6</ele><time>2011-04-30T07:50:20.0000000+00:00</time></trkpt><trkpt lat="20.915098" lon="107.017632"><ele>-18.8</ele><time>2011-04-30T07:50:25.0000000+00:00</time></trkpt><trkpt lat="20.915089" lon="107.017525"><ele>-15.7</ele><time>2011-04-30T07:50:30.0000000+00:00</time></trkpt><trkpt lat="20.915083" lon="107.017403"><ele>-17.7</ele><time>2011-04-30T07:50:35.0000000+00:00</time></trkpt><trkpt lat="20.915073" lon="107.017303"><ele>-17.5</ele><time>2011-04-30T07:50:40.0000000+00:00</time></trkpt><trkpt lat="20.915051" lon="107.017204"><ele>-17.6</ele><time>2011-04-30T07:50:45.0000000+00:00</time></trkpt><trkpt lat="20.91502" lon="107.017113"><ele>-17.2</ele><time>2011-04-30T07:50:50.0000000+00:00</time></trkpt><trkpt lat="20.914988" lon="107.017021"><ele>-17.0</ele><time>2011-04-30T07:50:55.0000000+00:00</time></trkpt><trkpt lat="20.914925" lon="107.016922"><ele>-15.4</ele><time>2011-04-30T07:51:00.0000000+00:00</time></trkpt><trkpt lat="20.914875" lon="107.016838"><ele>-15.1</ele><time>2011-04-30T07:51:05.0000000+00:00</time></trkpt><trkpt lat="20.914829" lon="107.016762"><ele>-14.6</ele><time>2011-04-30T07:51:10.0000000+00:00</time></trkpt><trkpt lat="20.914774" lon="107.01667"><ele>-14.5</ele><time>2011-04-30T07:51:15.0000000+00:00</time></trkpt><trkpt lat="20.914707" lon="107.016586"><ele>-15.3</ele><time>2011-04-30T07:51:20.0000000+00:00</time></trkpt><trkpt lat="20.914631" lon="107.01651"><ele>-16.0</ele><time>2011-04-30T07:51:25.0000000+00:00</time></trkpt><trkpt lat="20.91456" lon="107.016441"><ele>-15.8</ele><time>2011-04-30T07:51:30.0000000+00:00</time></trkpt><trkpt lat="20.914473" lon="107.016373"><ele>-15.1</ele><time>2011-04-30T07:51:35.0000000+00:00</time></trkpt><trkpt lat="20.914389" lon="107.016312"><ele>-15.2</ele><time>2011-04-30T07:51:40.0000000+00:00</time></trkpt><trkpt lat="20.914303" lon="107.016258"><ele>-14.6</ele><time>2011-04-30T07:51:45.0000000+00:00</time></trkpt><trkpt lat="20.914227" lon="107.016205"><ele>-13.4</ele><time>2011-04-30T07:51:50.0000000+00:00</time></trkpt><trkpt lat="20.914141" lon="107.016151"><ele>-12.7</ele><time>2011-04-30T07:51:55.0000000+00:00</time></trkpt><trkpt lat="20.914053" lon="107.01609"><ele>-12.8</ele><time>2011-04-30T07:52:00.0000000+00:00</time></trkpt><trkpt lat="20.91395" lon="107.016037"><ele>-12.3</ele><time>2011-04-30T07:52:05.0000000+00:00</time></trkpt><trkpt lat="20.913853" lon="107.015991"><ele>-11.9</ele><time>2011-04-30T07:52:10.0000000+00:00</time></trkpt><trkpt lat="20.913752" lon="107.015945"><ele>-11.9</ele><time>2011-04-30T07:52:15.0000000+00:00</time></trkpt><trkpt lat="20.91366" lon="107.015892"><ele>-11.4</ele><time>2011-04-30T07:52:20.0000000+00:00</time></trkpt><trkpt lat="20.913549" lon="107.015839"><ele>-11.2</ele><time>2011-04-30T07:52:25.0000000+00:00</time></trkpt><trkpt lat="20.91345" lon="107.015793"><ele>-11.5</ele><time>2011-04-30T07:52:30.0000000+00:00</time></trkpt><trkpt lat="20.913351" lon="107.015739"><ele>-11.1</ele><time>2011-04-30T07:52:35.0000000+00:00</time></trkpt><trkpt lat="20.913248" lon="107.015701"><ele>-10.6</ele><time>2011-04-30T07:52:40.0000000+00:00</time></trkpt><trkpt lat="20.913147" lon="107.015663"><ele>-10.2</ele><time>2011-04-30T07:52:45.0000000+00:00</time></trkpt><trkpt lat="20.913052" lon="107.015625"><ele>-9.6</ele><time>2011-04-30T07:52:50.0000000+00:00</time></trkpt><trkpt lat="20.912939" lon="107.015579"><ele>-9.0</ele><time>2011-04-30T07:52:55.0000000+00:00</time></trkpt><trkpt lat="20.912838" lon="107.015549"><ele>-8.6</ele><time>2011-04-30T07:53:00.0000000+00:00</time></trkpt><trkpt lat="20.912731" lon="107.015511"><ele>-8.3</ele><time>2011-04-30T07:53:05.0000000+00:00</time></trkpt><trkpt lat="20.91263" lon="107.015465"><ele>-8.1</ele><time>2011-04-30T07:53:10.0000000+00:00</time></trkpt><trkpt lat="20.91254" lon="107.015427"><ele>-8.1</ele><time>2011-04-30T07:53:15.0000000+00:00</time></trkpt><trkpt lat="20.912434" lon="107.015381"><ele>-8.2</ele><time>2011-04-30T07:53:20.0000000+00:00</time></trkpt><trkpt lat="20.912327" lon="107.015335"><ele>-8.4</ele><time>2011-04-30T07:53:25.0000000+00:00</time></trkpt><trkpt lat="20.912224" lon="107.015282"><ele>-7.8</ele><time>2011-04-30T07:53:30.0000000+00:00</time></trkpt><trkpt lat="20.912115" lon="107.015251"><ele>-7.4</ele><time>2011-04-30T07:53:35.0000000+00:00</time></trkpt><trkpt lat="20.912012" lon="107.015205"><ele>-6.5</ele><time>2011-04-30T07:53:40.0000000+00:00</time></trkpt><trkpt lat="20.911896" lon="107.015175"><ele>-5.9</ele><time>2011-04-30T07:53:45.0000000+00:00</time></trkpt><trkpt lat="20.911787" lon="107.015106"><ele>-6.5</ele><time>2011-04-30T07:53:50.0000000+00:00</time></trkpt><trkpt lat="20.911674" lon="107.015045"><ele>-6.7</ele><time>2011-04-30T07:53:55.0000000+00:00</time></trkpt><trkpt lat="20.911572" lon="107.014984"><ele>-7.0</ele><time>2011-04-30T07:54:00.0000000+00:00</time></trkpt><trkpt lat="20.911465" lon="107.014946"><ele>-6.9</ele><time>2011-04-30T07:54:05.0000000+00:00</time></trkpt><trkpt lat="20.911352" lon="107.014893"><ele>-7.4</ele><time>2011-04-30T07:54:10.0000000+00:00</time></trkpt><trkpt lat="20.911251" lon="107.014854"><ele>-7.9</ele><time>2011-04-30T07:54:15.0000000+00:00</time></trkpt><trkpt lat="20.911154" lon="107.014793"><ele>-8.9</ele><time>2011-04-30T07:54:20.0000000+00:00</time></trkpt><trkpt lat="20.911047" lon="107.014763"><ele>-8.8</ele><time>2011-04-30T07:54:25.0000000+00:00</time></trkpt><trkpt lat="20.910944" lon="107.014725"><ele>-9.7</ele><time>2011-04-30T07:54:30.0000000+00:00</time></trkpt><trkpt lat="20.910841" lon="107.014694"><ele>-10.0</ele><time>2011-04-30T07:54:35.0000000+00:00</time></trkpt><trkpt lat="20.910725" lon="107.014671"><ele>-8.9</ele><time>2011-04-30T07:54:40.0000000+00:00</time></trkpt><trkpt lat="20.910625" lon="107.014626"><ele>-8.1</ele><time>2011-04-30T07:54:45.0000000+00:00</time></trkpt><trkpt lat="20.910526" lon="107.014572"><ele>-9.7</ele><time>2011-04-30T07:54:50.0000000+00:00</time></trkpt><trkpt lat="20.910435" lon="107.014526"><ele>-10.6</ele><time>2011-04-30T07:54:55.0000000+00:00</time></trkpt><trkpt lat="20.910341" lon="107.014481"><ele>-11.0</ele><time>2011-04-30T07:55:00.0000000+00:00</time></trkpt><trkpt lat="20.91025" lon="107.014412"><ele>-11.6</ele><time>2011-04-30T07:55:05.0000000+00:00</time></trkpt><trkpt lat="20.910147" lon="107.014359"><ele>-12.7</ele><time>2011-04-30T07:55:10.0000000+00:00</time></trkpt><trkpt lat="20.910038" lon="107.014313"><ele>-12.9</ele><time>2011-04-30T07:55:15.0000000+00:00</time></trkpt><trkpt lat="20.909939" lon="107.014252"><ele>-12.6</ele><time>2011-04-30T07:55:20.0000000+00:00</time></trkpt><trkpt lat="20.909838" lon="107.014206"><ele>-13.1</ele><time>2011-04-30T07:55:25.0000000+00:00</time></trkpt><trkpt lat="20.909729" lon="107.014153"><ele>-12.7</ele><time>2011-04-30T07:55:30.0000000+00:00</time></trkpt><trkpt lat="20.909632" lon="107.014107"><ele>-13.4</ele><time>2011-04-30T07:55:35.0000000+00:00</time></trkpt><trkpt lat="20.909534" lon="107.014053"><ele>-14.3</ele><time>2011-04-30T07:55:40.0000000+00:00</time></trkpt><trkpt lat="20.909445" lon="107.014015"><ele>-14.1</ele><time>2011-04-30T07:55:45.0000000+00:00</time></trkpt><trkpt lat="20.909351" lon="107.013954"><ele>-13.7</ele><time>2011-04-30T07:55:50.0000000+00:00</time></trkpt><trkpt lat="20.909243" lon="107.013901"><ele>-13.9</ele><time>2011-04-30T07:55:55.0000000+00:00</time></trkpt><trkpt lat="20.909105" lon="107.013855"><ele>-15.2</ele><time>2011-04-30T07:56:00.0000000+00:00</time></trkpt><trkpt lat="20.908964" lon="107.013824"><ele>-16.4</ele><time>2011-04-30T07:56:05.0000000+00:00</time></trkpt><trkpt lat="20.90885" lon="107.013794"><ele>-15.1</ele><time>2011-04-30T07:56:10.0000000+00:00</time></trkpt><trkpt lat="20.908737" lon="107.013756"><ele>-15.5</ele><time>2011-04-30T07:56:15.0000000+00:00</time></trkpt><trkpt lat="20.908627" lon="107.013725"><ele>-16.6</ele><time>2011-04-30T07:56:20.0000000+00:00</time></trkpt><trkpt lat="20.90851" lon="107.01371"><ele>-17.4</ele><time>2011-04-30T07:56:25.0000000+00:00</time></trkpt><trkpt lat="20.908396" lon="107.013702"><ele>-17.7</ele><time>2011-04-30T07:56:30.0000000+00:00</time></trkpt><trkpt lat="20.908279" lon="107.013718"><ele>-16.9</ele><time>2011-04-30T07:56:35.0000000+00:00</time></trkpt><trkpt lat="20.908169" lon="107.013733"><ele>-15.3</ele><time>2011-04-30T07:56:40.0000000+00:00</time></trkpt><trkpt lat="20.908054" lon="107.013748"><ele>-14.3</ele><time>2011-04-30T07:56:45.0000000+00:00</time></trkpt><trkpt lat="20.907936" lon="107.013771"><ele>-13.0</ele><time>2011-04-30T07:56:50.0000000+00:00</time></trkpt><trkpt lat="20.90782" lon="107.013802"><ele>-11.6</ele><time>2011-04-30T07:56:55.0000000+00:00</time></trkpt><trkpt lat="20.907703" lon="107.013817"><ele>-9.1</ele><time>2011-04-30T07:57:00.0000000+00:00</time></trkpt><trkpt lat="20.907585" lon="107.013809"><ele>-8.4</ele><time>2011-04-30T07:57:05.0000000+00:00</time></trkpt><trkpt lat="20.907469" lon="107.013817"><ele>-7.0</ele><time>2011-04-30T07:57:10.0000000+00:00</time></trkpt><trkpt lat="20.907352" lon="107.013832"><ele>-5.9</ele><time>2011-04-30T07:57:15.0000000+00:00</time></trkpt><trkpt lat="20.907228" lon="107.013847"><ele>-5.3</ele><time>2011-04-30T07:57:20.0000000+00:00</time></trkpt><trkpt lat="20.907108" lon="107.01387"><ele>-5.3</ele><time>2011-04-30T07:57:25.0000000+00:00</time></trkpt><trkpt lat="20.906982" lon="107.013901"><ele>-4.9</ele><time>2011-04-30T07:57:30.0000000+00:00</time></trkpt><trkpt lat="20.906868" lon="107.013939"><ele>-3.4</ele><time>2011-04-30T07:57:35.0000000+00:00</time></trkpt><trkpt lat="20.906757" lon="107.013954"><ele>-2.8</ele><time>2011-04-30T07:57:40.0000000+00:00</time></trkpt><trkpt lat="20.906633" lon="107.013977"><ele>-3.4</ele><time>2011-04-30T07:57:45.0000000+00:00</time></trkpt><trkpt lat="20.906509" lon="107.014015"><ele>-2.0</ele><time>2011-04-30T07:57:50.0000000+00:00</time></trkpt><trkpt lat="20.906385" lon="107.01403"><ele>-0.1</ele><time>2011-04-30T07:57:55.0000000+00:00</time></trkpt><trkpt lat="20.906267" lon="107.014046"><ele>0.1</ele><time>2011-04-30T07:58:00.0000000+00:00</time></trkpt><trkpt lat="20.906149" lon="107.014061"><ele>-0.1</ele><time>2011-04-30T07:58:05.0000000+00:00</time></trkpt><trkpt lat="20.906033" lon="107.014053"><ele>0.2</ele><time>2011-04-30T07:58:10.0000000+00:00</time></trkpt><trkpt lat="20.905916" lon="107.014091"><ele>0.4</ele><time>2011-04-30T07:58:15.0000000+00:00</time></trkpt><trkpt lat="20.905798" lon="107.014114"><ele>0.5</ele><time>2011-04-30T07:58:20.0000000+00:00</time></trkpt><trkpt lat="20.905678" lon="107.01413"><ele>1.3</ele><time>2011-04-30T07:58:25.0000000+00:00</time></trkpt><trkpt lat="20.905567" lon="107.014168"><ele>2.9</ele><time>2011-04-30T07:58:30.0000000+00:00</time></trkpt><trkpt lat="20.905453" lon="107.014191"><ele>3.0</ele><time>2011-04-30T07:58:35.0000000+00:00</time></trkpt><trkpt lat="20.905344" lon="107.014229"><ele>3.2</ele><time>2011-04-30T07:58:40.0000000+00:00</time></trkpt><trkpt lat="20.905251" lon="107.014282"><ele>2.7</ele><time>2011-04-30T07:58:45.0000000+00:00</time></trkpt><trkpt lat="20.905155" lon="107.014343"><ele>2.2</ele><time>2011-04-30T07:58:50.0000000+00:00</time></trkpt><trkpt lat="20.90506" lon="107.014397"><ele>1.6</ele><time>2011-04-30T07:58:55.0000000+00:00</time></trkpt><trkpt lat="20.904953" lon="107.014465"><ele>1.2</ele><time>2011-04-30T07:59:00.0000000+00:00</time></trkpt><trkpt lat="20.904854" lon="107.014519"><ele>2.4</ele><time>2011-04-30T07:59:05.0000000+00:00</time></trkpt><trkpt lat="20.904768" lon="107.01458"><ele>2.6</ele><time>2011-04-30T07:59:10.0000000+00:00</time></trkpt><trkpt lat="20.904665" lon="107.014648"><ele>2.2</ele><time>2011-04-30T07:59:15.0000000+00:00</time></trkpt><trkpt lat="20.904575" lon="107.014725"><ele>2.7</ele><time>2011-04-30T07:59:20.0000000+00:00</time></trkpt><trkpt lat="20.904472" lon="107.014786"><ele>2.6</ele><time>2011-04-30T07:59:25.0000000+00:00</time></trkpt><trkpt lat="20.904381" lon="107.01487"><ele>1.8</ele><time>2011-04-30T07:59:30.0000000+00:00</time></trkpt><trkpt lat="20.90428" lon="107.014946"><ele>1.2</ele><time>2011-04-30T07:59:35.0000000+00:00</time></trkpt><trkpt lat="20.904184" lon="107.015015"><ele>1.0</ele><time>2011-04-30T07:59:40.0000000+00:00</time></trkpt><trkpt lat="20.904091" lon="107.015083"><ele>2.2</ele><time>2011-04-30T07:59:45.0000000+00:00</time></trkpt><trkpt lat="20.904009" lon="107.015167"><ele>2.3</ele><time>2011-04-30T07:59:50.0000000+00:00</time></trkpt><trkpt lat="20.903927" lon="107.015236"><ele>1.7</ele><time>2011-04-30T07:59:55.0000000+00:00</time></trkpt><trkpt lat="20.903843" lon="107.015312"><ele>1.7</ele><time>2011-04-30T08:00:00.0000000+00:00</time></trkpt><trkpt lat="20.903759" lon="107.015396"><ele>0.7</ele><time>2011-04-30T08:00:05.0000000+00:00</time></trkpt><trkpt lat="20.903675" lon="107.015465"><ele>-0.3</ele><time>2011-04-30T08:00:10.0000000+00:00</time></trkpt><trkpt lat="20.903599" lon="107.015564"><ele>-1.3</ele><time>2011-04-30T08:00:15.0000000+00:00</time></trkpt><trkpt lat="20.903515" lon="107.015633"><ele>-2.6</ele><time>2011-04-30T08:00:20.0000000+00:00</time></trkpt><trkpt lat="20.90344" lon="107.015686"><ele>-4.3</ele><time>2011-04-30T08:00:25.0000000+00:00</time></trkpt><trkpt lat="20.903378" lon="107.015762"><ele>-4.7</ele><time>2011-04-30T08:00:30.0000000+00:00</time></trkpt><trkpt lat="20.903313" lon="107.015808"><ele>-4.2</ele><time>2011-04-30T08:00:35.0000000+00:00</time></trkpt><trkpt lat="20.903248" lon="107.015862"><ele>-2.8</ele><time>2011-04-30T08:00:40.0000000+00:00</time></trkpt><trkpt lat="20.903173" lon="107.015953"><ele>-0.4</ele><time>2011-04-30T08:00:45.0000000+00:00</time></trkpt><trkpt lat="20.90312" lon="107.016029"><ele>4.3</ele><time>2011-04-30T08:00:50.0000000+00:00</time></trkpt><trkpt lat="20.903078" lon="107.016075"><ele>0.2</ele><time>2011-04-30T08:00:55.0000000+00:00</time></trkpt><trkpt lat="20.903048" lon="107.016113"><ele>1.2</ele><time>2011-04-30T08:01:00.0000000+00:00</time></trkpt><trkpt lat="20.903027" lon="107.016159"><ele>0.6</ele><time>2011-04-30T08:01:05.0000000+00:00</time></trkpt><trkpt lat="20.903013" lon="107.016197"><ele>0.1</ele><time>2011-04-30T08:01:10.0000000+00:00</time></trkpt><trkpt lat="20.903002" lon="107.016197"><ele>-1.3</ele><time>2011-04-30T08:01:15.0000000+00:00</time></trkpt><trkpt lat="20.902987" lon="107.016205"><ele>-2.0</ele><time>2011-04-30T08:01:20.0000000+00:00</time></trkpt><trkpt lat="20.902979" lon="107.016212"><ele>-2.0</ele><time>2011-04-30T08:01:25.0000000+00:00</time></trkpt><trkpt lat="20.902975" lon="107.01622"><ele>-1.9</ele><time>2011-04-30T08:01:30.0000000+00:00</time></trkpt><trkpt lat="20.902973" lon="107.016228"><ele>-2.0</ele><time>2011-04-30T08:01:35.0000000+00:00</time></trkpt><trkpt lat="20.902979" lon="107.016235"><ele>-2.0</ele><time>2011-04-30T08:01:40.0000000+00:00</time></trkpt><trkpt lat="20.902981" lon="107.016235"><ele>-2.1</ele><time>2011-04-30T08:01:45.0000000+00:00</time></trkpt><trkpt lat="20.902981" lon="107.016243"><ele>-1.9</ele><time>2011-04-30T08:01:50.0000000+00:00</time></trkpt><trkpt lat="20.902975" lon="107.016243"><ele>-1.8</ele><time>2011-04-30T08:01:55.0000000+00:00</time></trkpt><trkpt lat="20.902975" lon="107.016251"><ele>-2.6</ele><time>2011-04-30T08:02:00.0000000+00:00</time></trkpt><trkpt lat="20.902981" lon="107.016243"><ele>-1.9</ele><time>2011-04-30T08:02:05.0000000+00:00</time></trkpt><trkpt lat="20.902985" lon="107.016243"><ele>-1.6</ele><time>2011-04-30T08:02:10.0000000+00:00</time></trkpt><trkpt lat="20.90299" lon="107.016243"><ele>-1.5</ele><time>2011-04-30T08:02:15.0000000+00:00</time></trkpt><trkpt lat="20.90299" lon="107.01622"><ele>-1.0</ele><time>2011-04-30T08:02:20.0000000+00:00</time></trkpt><trkpt lat="20.902992" lon="107.016212"><ele>-2.6</ele><time>2011-04-30T08:02:25.0000000+00:00</time></trkpt><trkpt lat="20.903002" lon="107.016212"><ele>-4.5</ele><time>2011-04-30T08:02:30.0000000+00:00</time></trkpt><trkpt lat="20.903002" lon="107.016212"><ele>-4.5</ele><time>2011-04-30T08:02:35.0000000+00:00</time></trkpt><trkpt lat="20.903002" lon="107.016212"><ele>-4.5</ele><time>2011-04-30T08:02:40.0000000+00:00</time></trkpt><trkpt lat="20.903002" lon="107.016212"><ele>-4.6</ele><time>2011-04-30T08:02:45.0000000+00:00</time></trkpt><trkpt lat="20.903002" lon="107.016212"><ele>-4.6</ele><time>2011-04-30T08:02:50.0000000+00:00</time></trkpt><trkpt lat="20.903002" lon="107.016212"><ele>-4.6</ele><time>2011-04-30T08:02:55.0000000+00:00</time></trkpt><trkpt lat="20.903002" lon="107.016212"><ele>-4.6</ele><time>2011-04-30T08:03:00.0000000+00:00</time></trkpt><trkpt lat="20.903002" lon="107.016212"><ele>-4.6</ele><time>2011-04-30T08:03:05.0000000+00:00</time></trkpt><trkpt lat="20.903002" lon="107.016212"><ele>-4.6</ele><time>2011-04-30T08:03:10.0000000+00:00</time></trkpt><trkpt lat="20.903002" lon="107.016212"><ele>-4.6</ele><time>2011-04-30T08:03:15.0000000+00:00</time></trkpt><trkpt lat="20.903002" lon="107.016212"><ele>-4.6</ele><time>2011-04-30T08:03:20.0000000+00:00</time></trkpt><trkpt lat="20.903002" lon="107.016212"><ele>-4.5</ele><time>2011-04-30T08:03:25.0000000+00:00</time></trkpt><trkpt lat="20.903002" lon="107.016212"><ele>-4.5</ele><time>2011-04-30T08:03:30.0000000+00:00</time></trkpt><trkpt lat="20.903002" lon="107.016212"><ele>-4.5</ele><time>2011-04-30T08:03:35.0000000+00:00</time></trkpt><trkpt lat="20.903002" lon="107.016212"><ele>-4.5</ele><time>2011-04-30T08:03:40.0000000+00:00</time></trkpt><trkpt lat="20.903002" lon="107.016212"><ele>-4.5</ele><time>2011-04-30T08:03:45.0000000+00:00</time></trkpt><trkpt lat="20.903002" lon="107.016212"><ele>-4.5</ele><time>2011-04-30T08:03:50.0000000+00:00</time></trkpt><trkpt lat="20.903002" lon="107.016212"><ele>-4.5</ele><time>2011-04-30T08:03:55.0000000+00:00</time></trkpt><trkpt lat="20.903002" lon="107.016212"><ele>-4.5</ele><time>2011-04-30T08:04:00.0000000+00:00</time></trkpt><trkpt lat="20.903002" lon="107.016212"><ele>-4.5</ele><time>2011-04-30T08:04:05.0000000+00:00</time></trkpt><trkpt lat="20.903002" lon="107.016212"><ele>-4.5</ele><time>2011-04-30T08:04:10.0000000+00:00</time></trkpt><trkpt lat="20.903002" lon="107.016212"><ele>-4.4</ele><time>2011-04-30T08:04:15.0000000+00:00</time></trkpt><trkpt lat="20.903002" lon="107.016212"><ele>-4.4</ele><time>2011-04-30T08:04:20.0000000+00:00</time></trkpt><trkpt lat="20.903002" lon="107.016212"><ele>-4.4</ele><time>2011-04-30T08:04:25.0000000+00:00</time></trkpt><trkpt lat="20.903004" lon="107.016212"><ele>-4.4</ele><time>2011-04-30T08:04:30.0000000+00:00</time></trkpt><trkpt lat="20.903004" lon="107.016212"><ele>-4.5</ele><time>2011-04-30T08:04:35.0000000+00:00</time></trkpt><trkpt lat="20.903004" lon="107.016212"><ele>-4.5</ele><time>2011-04-30T08:04:40.0000000+00:00</time></trkpt><trkpt lat="20.903004" lon="107.016212"><ele>-4.5</ele><time>2011-04-30T08:04:45.0000000+00:00</time></trkpt><trkpt lat="20.903004" lon="107.016212"><ele>-4.5</ele><time>2011-04-30T08:04:50.0000000+00:00</time></trkpt><trkpt lat="20.903004" lon="107.016212"><ele>-4.5</ele><time>2011-04-30T08:04:55.0000000+00:00</time></trkpt><trkpt lat="20.903004" lon="107.016212"><ele>-4.5</ele><time>2011-04-30T08:05:00.0000000+00:00</time></trkpt><trkpt lat="20.903004" lon="107.016212"><ele>-4.5</ele><time>2011-04-30T08:05:05.0000000+00:00</time></trkpt><trkpt lat="20.903004" lon="107.016212"><ele>-4.5</ele><time>2011-04-30T08:05:10.0000000+00:00</time></trkpt><trkpt lat="20.903002" lon="107.016212"><ele>-4.8</ele><time>2011-04-30T08:05:15.0000000+00:00</time></trkpt><trkpt lat="20.903006" lon="107.016205"><ele>-5.0</ele><time>2011-04-30T08:05:20.0000000+00:00</time></trkpt><trkpt lat="20.903006" lon="107.01619"><ele>-3.5</ele><time>2011-04-30T08:05:25.0000000+00:00</time></trkpt><trkpt lat="20.903008" lon="107.016205"><ele>-3.1</ele><time>2011-04-30T08:05:30.0000000+00:00</time></trkpt><trkpt lat="20.903004" lon="107.01619"><ele>-3.5</ele><time>2011-04-30T08:05:35.0000000+00:00</time></trkpt><trkpt lat="20.903004" lon="107.016197"><ele>-4.0</ele><time>2011-04-30T08:05:40.0000000+00:00</time></trkpt><trkpt lat="20.903009" lon="107.016205"><ele>-3.7</ele><time>2011-04-30T08:05:45.0000000+00:00</time></trkpt><trkpt lat="20.903011" lon="107.016205"><ele>-4.3</ele><time>2011-04-30T08:05:50.0000000+00:00</time></trkpt><trkpt lat="20.903009" lon="107.016205"><ele>-4.9</ele><time>2011-04-30T08:05:55.0000000+00:00</time></trkpt><trkpt lat="20.903009" lon="107.016205"><ele>-4.9</ele><time>2011-04-30T08:06:00.0000000+00:00</time></trkpt><trkpt lat="20.903009" lon="107.016205"><ele>-4.9</ele><time>2011-04-30T08:06:05.0000000+00:00</time></trkpt><trkpt lat="20.903009" lon="107.016205"><ele>-4.9</ele><time>2011-04-30T08:06:10.0000000+00:00</time></trkpt><trkpt lat="20.903009" lon="107.016205"><ele>-4.9</ele><time>2011-04-30T08:06:15.0000000+00:00</time></trkpt><trkpt lat="20.903009" lon="107.016205"><ele>-5.0</ele><time>2011-04-30T08:06:20.0000000+00:00</time></trkpt><trkpt lat="20.903009" lon="107.016205"><ele>-5.0</ele><time>2011-04-30T08:06:25.0000000+00:00</time></trkpt><trkpt lat="20.903009" lon="107.016205"><ele>-5.0</ele><time>2011-04-30T08:06:30.0000000+00:00</time></trkpt><trkpt lat="20.903009" lon="107.016205"><ele>-5.0</ele><time>2011-04-30T08:06:35.0000000+00:00</time></trkpt><trkpt lat="20.903009" lon="107.016205"><ele>-5.0</ele><time>2011-04-30T08:06:40.0000000+00:00</time></trkpt><trkpt lat="20.903009" lon="107.016205"><ele>-5.0</ele><time>2011-04-30T08:06:45.0000000+00:00</time></trkpt><trkpt lat="20.903009" lon="107.016205"><ele>-5.0</ele><time>2011-04-30T08:06:50.0000000+00:00</time></trkpt><trkpt lat="20.903009" lon="107.016205"><ele>-5.0</ele><time>2011-04-30T08:06:55.0000000+00:00</time></trkpt><trkpt lat="20.903009" lon="107.016205"><ele>-4.9</ele><time>2011-04-30T08:07:00.0000000+00:00</time></trkpt><trkpt lat="20.903009" lon="107.016205"><ele>-4.9</ele><time>2011-04-30T08:07:05.0000000+00:00</time></trkpt><trkpt lat="20.903009" lon="107.016205"><ele>-4.9</ele><time>2011-04-30T08:07:10.0000000+00:00</time></trkpt><trkpt lat="20.903009" lon="107.016205"><ele>-4.9</ele><time>2011-04-30T08:07:15.0000000+00:00</time></trkpt><trkpt lat="20.903009" lon="107.016205"><ele>-4.9</ele><time>2011-04-30T08:07:20.0000000+00:00</time></trkpt><trkpt lat="20.903009" lon="107.016205"><ele>-4.8</ele><time>2011-04-30T08:07:25.0000000+00:00</time></trkpt><trkpt lat="20.903009" lon="107.016205"><ele>-4.9</ele><time>2011-04-30T08:07:30.0000000+00:00</time></trkpt><trkpt lat="20.903009" lon="107.016205"><ele>-4.9</ele><time>2011-04-30T08:07:35.0000000+00:00</time></trkpt><trkpt lat="20.903009" lon="107.016205"><ele>-4.9</ele><time>2011-04-30T08:07:40.0000000+00:00</time></trkpt><trkpt lat="20.903009" lon="107.016205"><ele>-4.9</ele><time>2011-04-30T08:07:45.0000000+00:00</time></trkpt><trkpt lat="20.903009" lon="107.016205"><ele>-4.9</ele><time>2011-04-30T08:07:50.0000000+00:00</time></trkpt><trkpt lat="20.903011" lon="107.016205"><ele>-4.9</ele><time>2011-04-30T08:07:55.0000000+00:00</time></trkpt><trkpt lat="20.903011" lon="107.016205"><ele>-4.9</ele><time>2011-04-30T08:08:00.0000000+00:00</time></trkpt><trkpt lat="20.903009" lon="107.016205"><ele>-4.9</ele><time>2011-04-30T08:08:05.0000000+00:00</time></trkpt><trkpt lat="20.903009" lon="107.016205"><ele>-4.9</ele><time>2011-04-30T08:08:10.0000000+00:00</time></trkpt><trkpt lat="20.903009" lon="107.016205"><ele>-4.9</ele><time>2011-04-30T08:08:15.0000000+00:00</time></trkpt><trkpt lat="20.903009" lon="107.016205"><ele>-4.9</ele><time>2011-04-30T08:08:20.0000000+00:00</time></trkpt><trkpt lat="20.903009" lon="107.016205"><ele>-4.8</ele><time>2011-04-30T08:08:25.0000000+00:00</time></trkpt><trkpt lat="20.903009" lon="107.016205"><ele>-4.8</ele><time>2011-04-30T08:08:30.0000000+00:00</time></trkpt><trkpt lat="20.903009" lon="107.016205"><ele>-4.8</ele><time>2011-04-30T08:08:35.0000000+00:00</time></trkpt><trkpt lat="20.903009" lon="107.016205"><ele>-4.8</ele><time>2011-04-30T08:08:40.0000000+00:00</time></trkpt><trkpt lat="20.903009" lon="107.016205"><ele>-4.8</ele><time>2011-04-30T08:08:45.0000000+00:00</time></trkpt><trkpt lat="20.903009" lon="107.016205"><ele>-4.8</ele><time>2011-04-30T08:08:50.0000000+00:00</time></trkpt><trkpt lat="20.903009" lon="107.016205"><ele>-4.8</ele><time>2011-04-30T08:08:55.0000000+00:00</time></trkpt><trkpt lat="20.903009" lon="107.016205"><ele>-4.8</ele><time>2011-04-30T08:09:00.0000000+00:00</time></trkpt><trkpt lat="20.903009" lon="107.016205"><ele>-4.8</ele><time>2011-04-30T08:09:05.0000000+00:00</time></trkpt><trkpt lat="20.903009" lon="107.016205"><ele>-4.8</ele><time>2011-04-30T08:09:10.0000000+00:00</time></trkpt><trkpt lat="20.903009" lon="107.016205"><ele>-4.8</ele><time>2011-04-30T08:09:15.0000000+00:00</time></trkpt><trkpt lat="20.903009" lon="107.016205"><ele>-4.8</ele><time>2011-04-30T08:09:20.0000000+00:00</time></trkpt><trkpt lat="20.903009" lon="107.016205"><ele>-4.8</ele><time>2011-04-30T08:09:25.0000000+00:00</time></trkpt><trkpt lat="20.903011" lon="107.016205"><ele>-4.7</ele><time>2011-04-30T08:09:30.0000000+00:00</time></trkpt><trkpt lat="20.903011" lon="107.016205"><ele>-4.7</ele><time>2011-04-30T08:09:35.0000000+00:00</time></trkpt><trkpt lat="20.903011" lon="107.016205"><ele>-4.7</ele><time>2011-04-30T08:09:40.0000000+00:00</time></trkpt><trkpt lat="20.903011" lon="107.016205"><ele>-4.7</ele><time>2011-04-30T08:09:45.0000000+00:00</time></trkpt><trkpt lat="20.903011" lon="107.016205"><ele>-4.7</ele><time>2011-04-30T08:09:50.0000000+00:00</time></trkpt><trkpt lat="20.903011" lon="107.016205"><ele>-4.7</ele><time>2011-04-30T08:09:55.0000000+00:00</time></trkpt><trkpt lat="20.903011" lon="107.016205"><ele>-4.8</ele><time>2011-04-30T08:10:00.0000000+00:00</time></trkpt><trkpt lat="20.903011" lon="107.016205"><ele>-4.8</ele><time>2011-04-30T08:10:05.0000000+00:00</time></trkpt><trkpt lat="20.903011" lon="107.016205"><ele>-4.8</ele><time>2011-04-30T08:10:10.0000000+00:00</time></trkpt><trkpt lat="20.903011" lon="107.016205"><ele>-4.8</ele><time>2011-04-30T08:10:15.0000000+00:00</time></trkpt><trkpt lat="20.903011" lon="107.016205"><ele>-4.8</ele><time>2011-04-30T08:10:20.0000000+00:00</time></trkpt><trkpt lat="20.903011" lon="107.016205"><ele>-4.8</ele><time>2011-04-30T08:10:25.0000000+00:00</time></trkpt><trkpt lat="20.903011" lon="107.016205"><ele>-4.8</ele><time>2011-04-30T08:10:30.0000000+00:00</time></trkpt><trkpt lat="20.903011" lon="107.016205"><ele>-4.8</ele><time>2011-04-30T08:10:35.0000000+00:00</time></trkpt><trkpt lat="20.903011" lon="107.016205"><ele>-4.8</ele><time>2011-04-30T08:10:40.0000000+00:00</time></trkpt><trkpt lat="20.903011" lon="107.016205"><ele>-4.8</ele><time>2011-04-30T08:10:45.0000000+00:00</time></trkpt><trkpt lat="20.903011" lon="107.016205"><ele>-4.8</ele><time>2011-04-30T08:10:50.0000000+00:00</time></trkpt><trkpt lat="20.903011" lon="107.016205"><ele>-4.8</ele><time>2011-04-30T08:10:55.0000000+00:00</time></trkpt><trkpt lat="20.903011" lon="107.016205"><ele>-4.8</ele><time>2011-04-30T08:11:00.0000000+00:00</time></trkpt><trkpt lat="20.903011" lon="107.016205"><ele>-4.8</ele><time>2011-04-30T08:11:05.0000000+00:00</time></trkpt><trkpt lat="20.903011" lon="107.016205"><ele>-4.8</ele><time>2011-04-30T08:11:10.0000000+00:00</time></trkpt><trkpt lat="20.903011" lon="107.016205"><ele>-4.8</ele><time>2011-04-30T08:11:15.0000000+00:00</time></trkpt><trkpt lat="20.903011" lon="107.016205"><ele>-4.8</ele><time>2011-04-30T08:11:20.0000000+00:00</time></trkpt><trkpt lat="20.903011" lon="107.016205"><ele>-4.8</ele><time>2011-04-30T08:11:25.0000000+00:00</time></trkpt><trkpt lat="20.903011" lon="107.016205"><ele>-4.8</ele><time>2011-04-30T08:11:30.0000000+00:00</time></trkpt><trkpt lat="20.902994" lon="107.016228"><ele>-5.1</ele><time>2011-04-30T08:11:35.0000000+00:00</time></trkpt><trkpt lat="20.902954" lon="107.016296"><ele>-5.8</ele><time>2011-04-30T08:11:40.0000000+00:00</time></trkpt><trkpt lat="20.902905" lon="107.01635"><ele>-5.6</ele><time>2011-04-30T08:11:45.0000000+00:00</time></trkpt><trkpt lat="20.902843" lon="107.016426"><ele>-4.4</ele><time>2011-04-30T08:11:50.0000000+00:00</time></trkpt><trkpt lat="20.902758" lon="107.016464"><ele>-5.4</ele><time>2011-04-30T08:11:55.0000000+00:00</time></trkpt><trkpt lat="20.902662" lon="107.016502"><ele>-7.1</ele><time>2011-04-30T08:12:00.0000000+00:00</time></trkpt><trkpt lat="20.90258" lon="107.016548"><ele>-10.8</ele><time>2011-04-30T08:12:05.0000000+00:00</time></trkpt><trkpt lat="20.902485" lon="107.016571"><ele>-14.7</ele><time>2011-04-30T08:12:10.0000000+00:00</time></trkpt><trkpt lat="20.902384" lon="107.016586"><ele>-16.0</ele><time>2011-04-30T08:12:15.0000000+00:00</time></trkpt><trkpt lat="20.902283" lon="107.016602"><ele>-17.6</ele><time>2011-04-30T08:12:20.0000000+00:00</time></trkpt><trkpt lat="20.902168" lon="107.016624"><ele>-18.7</ele><time>2011-04-30T08:12:25.0000000+00:00</time></trkpt><trkpt lat="20.902058" lon="107.016647"><ele>-17.8</ele><time>2011-04-30T08:12:30.0000000+00:00</time></trkpt><trkpt lat="20.901945" lon="107.016663"><ele>-17.0</ele><time>2011-04-30T08:12:35.0000000+00:00</time></trkpt><trkpt lat="20.901819" lon="107.016678"><ele>-17.2</ele><time>2011-04-30T08:12:40.0000000+00:00</time></trkpt><trkpt lat="20.90169" lon="107.016685"><ele>-18.1</ele><time>2011-04-30T08:12:45.0000000+00:00</time></trkpt><trkpt lat="20.90156" lon="107.016693"><ele>-16.5</ele><time>2011-04-30T08:12:50.0000000+00:00</time></trkpt><trkpt lat="20.901432" lon="107.016701"><ele>-15.9</ele><time>2011-04-30T08:12:55.0000000+00:00</time></trkpt><trkpt lat="20.901289" lon="107.016693"><ele>-14.8</ele><time>2011-04-30T08:13:00.0000000+00:00</time></trkpt><trkpt lat="20.901161" lon="107.016701"><ele>-11.0</ele><time>2011-04-30T08:13:05.0000000+00:00</time></trkpt><trkpt lat="20.901018" lon="107.016716"><ele>-10.3</ele><time>2011-04-30T08:13:10.0000000+00:00</time></trkpt><trkpt lat="20.900885" lon="107.016739"><ele>-9.1</ele><time>2011-04-30T08:13:15.0000000+00:00</time></trkpt><trkpt lat="20.900751" lon="107.016762"><ele>-9.8</ele><time>2011-04-30T08:13:20.0000000+00:00</time></trkpt><trkpt lat="20.900625" lon="107.016769"><ele>-9.4</ele><time>2011-04-30T08:13:25.0000000+00:00</time></trkpt><trkpt lat="20.900488" lon="107.016777"><ele>-9.6</ele><time>2011-04-30T08:13:30.0000000+00:00</time></trkpt><trkpt lat="20.900358" lon="107.016785"><ele>-9.9</ele><time>2011-04-30T08:13:35.0000000+00:00</time></trkpt><trkpt lat="20.900234" lon="107.0168"><ele>-11.2</ele><time>2011-04-30T08:13:40.0000000+00:00</time></trkpt><trkpt lat="20.900101" lon="107.016808"><ele>-11.2</ele><time>2011-04-30T08:13:45.0000000+00:00</time></trkpt><trkpt lat="20.899973" lon="107.016815"><ele>-10.3</ele><time>2011-04-30T08:13:50.0000000+00:00</time></trkpt><trkpt lat="20.899847" lon="107.016823"><ele>-9.8</ele><time>2011-04-30T08:13:55.0000000+00:00</time></trkpt><trkpt lat="20.899714" lon="107.016823"><ele>-9.0</ele><time>2011-04-30T08:14:00.0000000+00:00</time></trkpt><trkpt lat="20.89958" lon="107.016815"><ele>-8.6</ele><time>2011-04-30T08:14:05.0000000+00:00</time></trkpt><trkpt lat="20.89945" lon="107.016808"><ele>-8.4</ele><time>2011-04-30T08:14:10.0000000+00:00</time></trkpt><trkpt lat="20.899307" lon="107.016785"><ele>-11.0</ele><time>2011-04-30T08:14:15.0000000+00:00</time></trkpt><trkpt lat="20.899178" lon="107.016777"><ele>-11.8</ele><time>2011-04-30T08:14:20.0000000+00:00</time></trkpt><trkpt lat="20.899044" lon="107.016762"><ele>-11.2</ele><time>2011-04-30T08:14:25.0000000+00:00</time></trkpt><trkpt lat="20.898905" lon="107.016754"><ele>-11.5</ele><time>2011-04-30T08:14:30.0000000+00:00</time></trkpt><trkpt lat="20.898767" lon="107.016739"><ele>-11.9</ele><time>2011-04-30T08:14:35.0000000+00:00</time></trkpt><trkpt lat="20.898638" lon="107.016739"><ele>-11.7</ele><time>2011-04-30T08:14:40.0000000+00:00</time></trkpt><trkpt lat="20.898506" lon="107.016724"><ele>-13.2</ele><time>2011-04-30T08:14:45.0000000+00:00</time></trkpt><trkpt lat="20.898376" lon="107.016724"><ele>-13.0</ele><time>2011-04-30T08:14:50.0000000+00:00</time></trkpt><trkpt lat="20.898247" lon="107.016724"><ele>-13.1</ele><time>2011-04-30T08:14:55.0000000+00:00</time></trkpt><trkpt lat="20.898125" lon="107.016731"><ele>-15.8</ele><time>2011-04-30T08:15:00.0000000+00:00</time></trkpt><trkpt lat="20.897999" lon="107.016739"><ele>-17.7</ele><time>2011-04-30T08:15:05.0000000+00:00</time></trkpt><trkpt lat="20.897879" lon="107.016747"><ele>-19.7</ele><time>2011-04-30T08:15:10.0000000+00:00</time></trkpt><trkpt lat="20.897749" lon="107.016754"><ele>-21.6</ele><time>2011-04-30T08:15:15.0000000+00:00</time></trkpt><trkpt lat="20.89761" lon="107.016777"><ele>-22.4</ele><time>2011-04-30T08:15:20.0000000+00:00</time></trkpt><trkpt lat="20.897478" lon="107.016792"><ele>-24.7</ele><time>2011-04-30T08:15:25.0000000+00:00</time></trkpt><trkpt lat="20.897356" lon="107.016808"><ele>-26.4</ele><time>2011-04-30T08:15:30.0000000+00:00</time></trkpt><trkpt lat="20.897228" lon="107.016823"><ele>-27.4</ele><time>2011-04-30T08:15:35.0000000+00:00</time></trkpt><trkpt lat="20.897104" lon="107.016846"><ele>-28.7</ele><time>2011-04-30T08:15:40.0000000+00:00</time></trkpt><trkpt lat="20.896975" lon="107.016869"><ele>-28.4</ele><time>2011-04-30T08:15:45.0000000+00:00</time></trkpt><trkpt lat="20.896847" lon="107.016891"><ele>-27.4</ele><time>2011-04-30T08:15:50.0000000+00:00</time></trkpt><trkpt lat="20.896725" lon="107.016914"><ele>-26.0</ele><time>2011-04-30T08:15:55.0000000+00:00</time></trkpt><trkpt lat="20.896599" lon="107.016945"><ele>-25.7</ele><time>2011-04-30T08:16:00.0000000+00:00</time></trkpt><trkpt lat="20.896467" lon="107.016983"><ele>-26.3</ele><time>2011-04-30T08:16:05.0000000+00:00</time></trkpt><trkpt lat="20.896349" lon="107.017021"><ele>-26.6</ele><time>2011-04-30T08:16:10.0000000+00:00</time></trkpt><trkpt lat="20.896227" lon="107.017052"><ele>-26.8</ele><time>2011-04-30T08:16:15.0000000+00:00</time></trkpt><trkpt lat="20.896099" lon="107.017097"><ele>-25.9</ele><time>2011-04-30T08:16:20.0000000+00:00</time></trkpt><trkpt lat="20.895939" lon="107.017159"><ele>-19.5</ele><time>2011-04-30T08:16:25.0000000+00:00</time></trkpt><trkpt lat="20.895807" lon="107.017212"><ele>-17.3</ele><time>2011-04-30T08:16:30.0000000+00:00</time></trkpt><trkpt lat="20.895683" lon="107.017281"><ele>-15.6</ele><time>2011-04-30T08:16:35.0000000+00:00</time></trkpt><trkpt lat="20.895555" lon="107.017342"><ele>-14.3</ele><time>2011-04-30T08:16:40.0000000+00:00</time></trkpt><trkpt lat="20.895428" lon="107.017418"><ele>-12.8</ele><time>2011-04-30T08:16:45.0000000+00:00</time></trkpt><trkpt lat="20.895302" lon="107.017487"><ele>-10.4</ele><time>2011-04-30T08:16:50.0000000+00:00</time></trkpt><trkpt lat="20.89518" lon="107.017563"><ele>-8.3</ele><time>2011-04-30T08:16:55.0000000+00:00</time></trkpt><trkpt lat="20.89509" lon="107.017647"><ele>-10.9</ele><time>2011-04-30T08:17:00.0000000+00:00</time></trkpt><trkpt lat="20.894989" lon="107.017723"><ele>-11.8</ele><time>2011-04-30T08:17:05.0000000+00:00</time></trkpt><trkpt lat="20.894882" lon="107.017807"><ele>-11.2</ele><time>2011-04-30T08:17:10.0000000+00:00</time></trkpt><trkpt lat="20.894775" lon="107.017914"><ele>-10.0</ele><time>2011-04-30T08:17:15.0000000+00:00</time></trkpt><trkpt lat="20.89468" lon="107.018013"><ele>-10.5</ele><time>2011-04-30T08:17:20.0000000+00:00</time></trkpt><trkpt lat="20.894588" lon="107.018105"><ele>-11.1</ele><time>2011-04-30T08:17:25.0000000+00:00</time></trkpt><trkpt lat="20.894501" lon="107.018204"><ele>-11.9</ele><time>2011-04-30T08:17:30.0000000+00:00</time></trkpt><trkpt lat="20.894417" lon="107.018311"><ele>-12.1</ele><time>2011-04-30T08:17:35.0000000+00:00</time></trkpt><trkpt lat="20.894339" lon="107.018425"><ele>-12.7</ele><time>2011-04-30T08:17:40.0000000+00:00</time></trkpt><trkpt lat="20.894264" lon="107.018539"><ele>-12.7</ele><time>2011-04-30T08:17:45.0000000+00:00</time></trkpt><trkpt lat="20.894184" lon="107.018654"><ele>-13.1</ele><time>2011-04-30T08:17:50.0000000+00:00</time></trkpt><trkpt lat="20.894112" lon="107.018761"><ele>-13.7</ele><time>2011-04-30T08:17:55.0000000+00:00</time></trkpt><trkpt lat="20.894039" lon="107.018867"><ele>-13.8</ele><time>2011-04-30T08:18:00.0000000+00:00</time></trkpt><trkpt lat="20.89397" lon="107.01899"><ele>-14.2</ele><time>2011-04-30T08:18:05.0000000+00:00</time></trkpt><trkpt lat="20.893904" lon="107.019127"><ele>-13.3</ele><time>2011-04-30T08:18:10.0000000+00:00</time></trkpt><trkpt lat="20.893835" lon="107.019272"><ele>-12.9</ele><time>2011-04-30T08:18:15.0000000+00:00</time></trkpt><trkpt lat="20.893751" lon="107.019417"><ele>-12.5</ele><time>2011-04-30T08:18:20.0000000+00:00</time></trkpt><trkpt lat="20.89369" lon="107.019547"><ele>-12.2</ele><time>2011-04-30T08:18:25.0000000+00:00</time></trkpt><trkpt lat="20.893621" lon="107.019684"><ele>-11.9</ele><time>2011-04-30T08:18:30.0000000+00:00</time></trkpt><trkpt lat="20.893559" lon="107.019814"><ele>-11.8</ele><time>2011-04-30T08:18:35.0000000+00:00</time></trkpt><trkpt lat="20.893494" lon="107.019951"><ele>-12.2</ele><time>2011-04-30T08:18:40.0000000+00:00</time></trkpt><trkpt lat="20.893435" lon="107.020065"><ele>-12.2</ele><time>2011-04-30T08:18:45.0000000+00:00</time></trkpt><trkpt lat="20.893372" lon="107.020195"><ele>-12.2</ele><time>2011-04-30T08:18:50.0000000+00:00</time></trkpt><trkpt lat="20.893316" lon="107.020309"><ele>-13.4</ele><time>2011-04-30T08:18:55.0000000+00:00</time></trkpt><trkpt lat="20.893265" lon="107.020416"><ele>-15.9</ele><time>2011-04-30T08:19:00.0000000+00:00</time></trkpt><trkpt lat="20.893217" lon="107.020523"><ele>-16.4</ele><time>2011-04-30T08:19:05.0000000+00:00</time></trkpt><trkpt lat="20.893175" lon="107.020638"><ele>-16.7</ele><time>2011-04-30T08:19:10.0000000+00:00</time></trkpt><trkpt lat="20.893164" lon="107.020752"><ele>-18.2</ele><time>2011-04-30T08:19:15.0000000+00:00</time></trkpt><trkpt lat="20.893173" lon="107.020851"><ele>-21.0</ele><time>2011-04-30T08:19:20.0000000+00:00</time></trkpt><trkpt lat="20.893177" lon="107.020973"><ele>-21.7</ele><time>2011-04-30T08:19:25.0000000+00:00</time></trkpt><trkpt lat="20.893223" lon="107.021088"><ele>-21.2</ele><time>2011-04-30T08:19:30.0000000+00:00</time></trkpt><trkpt lat="20.893272" lon="107.021194"><ele>-20.5</ele><time>2011-04-30T08:19:35.0000000+00:00</time></trkpt><trkpt lat="20.893332" lon="107.021286"><ele>-19.8</ele><time>2011-04-30T08:19:40.0000000+00:00</time></trkpt><trkpt lat="20.89341" lon="107.021378"><ele>-17.4</ele><time>2011-04-30T08:19:45.0000000+00:00</time></trkpt><trkpt lat="20.893488" lon="107.021477"><ele>-17.8</ele><time>2011-04-30T08:19:50.0000000+00:00</time></trkpt><trkpt lat="20.893574" lon="107.021576"><ele>-18.6</ele><time>2011-04-30T08:19:55.0000000+00:00</time></trkpt><trkpt lat="20.893652" lon="107.021667"><ele>-18.6</ele><time>2011-04-30T08:20:00.0000000+00:00</time></trkpt><trkpt lat="20.893736" lon="107.021744"><ele>-16.6</ele><time>2011-04-30T08:20:05.0000000+00:00</time></trkpt><trkpt lat="20.893824" lon="107.021835"><ele>-15.8</ele><time>2011-04-30T08:20:10.0000000+00:00</time></trkpt><trkpt lat="20.893911" lon="107.021919"><ele>-15.0</ele><time>2011-04-30T08:20:15.0000000+00:00</time></trkpt><trkpt lat="20.894003" lon="107.022003"><ele>-13.8</ele><time>2011-04-30T08:20:20.0000000+00:00</time></trkpt><trkpt lat="20.894112" lon="107.022095"><ele>-13.9</ele><time>2011-04-30T08:20:25.0000000+00:00</time></trkpt><trkpt lat="20.894205" lon="107.022163"><ele>-14.1</ele><time>2011-04-30T08:20:30.0000000+00:00</time></trkpt><trkpt lat="20.894297" lon="107.022232"><ele>-12.0</ele><time>2011-04-30T08:20:35.0000000+00:00</time></trkpt><trkpt lat="20.894398" lon="107.022301"><ele>-10.8</ele><time>2011-04-30T08:20:40.0000000+00:00</time></trkpt><trkpt lat="20.894497" lon="107.022377"><ele>-9.8</ele><time>2011-04-30T08:20:45.0000000+00:00</time></trkpt><trkpt lat="20.894611" lon="107.022453"><ele>-10.7</ele><time>2011-04-30T08:20:50.0000000+00:00</time></trkpt><trkpt lat="20.894709" lon="107.02253"><ele>-13.3</ele><time>2011-04-30T08:20:55.0000000+00:00</time></trkpt><trkpt lat="20.894821" lon="107.022606"><ele>-15.7</ele><time>2011-04-30T08:21:00.0000000+00:00</time></trkpt><trkpt lat="20.894913" lon="107.022675"><ele>-13.6</ele><time>2011-04-30T08:21:05.0000000+00:00</time></trkpt><trkpt lat="20.895021" lon="107.022751"><ele>-15.0</ele><time>2011-04-30T08:21:10.0000000+00:00</time></trkpt><trkpt lat="20.895107" lon="107.022812"><ele>-18.6</ele><time>2011-04-30T08:21:15.0000000+00:00</time></trkpt><trkpt lat="20.895205" lon="107.022873"><ele>-19.3</ele><time>2011-04-30T08:21:20.0000000+00:00</time></trkpt><trkpt lat="20.895306" lon="107.022942"><ele>-17.9</ele><time>2011-04-30T08:21:25.0000000+00:00</time></trkpt><trkpt lat="20.895412" lon="107.022995"><ele>-13.9</ele><time>2011-04-30T08:21:30.0000000+00:00</time></trkpt><trkpt lat="20.89551" lon="107.023056"><ele>-14.2</ele><time>2011-04-30T08:21:35.0000000+00:00</time></trkpt><trkpt lat="20.895622" lon="107.023117"><ele>-14.5</ele><time>2011-04-30T08:21:40.0000000+00:00</time></trkpt><trkpt lat="20.895729" lon="107.02317"><ele>-14.9</ele><time>2011-04-30T08:21:45.0000000+00:00</time></trkpt><trkpt lat="20.895838" lon="107.023232"><ele>-13.6</ele><time>2011-04-30T08:21:50.0000000+00:00</time></trkpt><trkpt lat="20.89596" lon="107.023277"><ele>-13.9</ele><time>2011-04-30T08:21:55.0000000+00:00</time></trkpt><trkpt lat="20.896074" lon="107.023323"><ele>-14.5</ele><time>2011-04-30T08:22:00.0000000+00:00</time></trkpt><trkpt lat="20.896194" lon="107.023376"><ele>-15.1</ele><time>2011-04-30T08:22:05.0000000+00:00</time></trkpt><trkpt lat="20.896313" lon="107.023415"><ele>-14.2</ele><time>2011-04-30T08:22:10.0000000+00:00</time></trkpt><trkpt lat="20.896423" lon="107.023468"><ele>-12.2</ele><time>2011-04-30T08:22:15.0000000+00:00</time></trkpt><trkpt lat="20.896542" lon="107.023514"><ele>-9.9</ele><time>2011-04-30T08:22:20.0000000+00:00</time></trkpt><trkpt lat="20.896658" lon="107.02356"><ele>-9.2</ele><time>2011-04-30T08:22:25.0000000+00:00</time></trkpt><trkpt lat="20.896774" lon="107.023613"><ele>-10.8</ele><time>2011-04-30T08:22:30.0000000+00:00</time></trkpt><trkpt lat="20.896891" lon="107.023659"><ele>-10.4</ele><time>2011-04-30T08:22:35.0000000+00:00</time></trkpt><trkpt lat="20.897009" lon="107.02372"><ele>-9.5</ele><time>2011-04-30T08:22:40.0000000+00:00</time></trkpt><trkpt lat="20.897116" lon="107.023773"><ele>-9.1</ele><time>2011-04-30T08:22:45.0000000+00:00</time></trkpt><trkpt lat="20.89723" lon="107.023819"><ele>-9.7</ele><time>2011-04-30T08:22:50.0000000+00:00</time></trkpt><trkpt lat="20.89736" lon="107.023865"><ele>-11.3</ele><time>2011-04-30T08:22:55.0000000+00:00</time></trkpt><trkpt lat="20.897472" lon="107.023911"><ele>-12.4</ele><time>2011-04-30T08:23:00.0000000+00:00</time></trkpt><trkpt lat="20.897589" lon="107.023956"><ele>-12.4</ele><time>2011-04-30T08:23:05.0000000+00:00</time></trkpt><trkpt lat="20.897707" lon="107.02401"><ele>-12.8</ele><time>2011-04-30T08:23:10.0000000+00:00</time></trkpt><trkpt lat="20.89781" lon="107.024048"><ele>-13.3</ele><time>2011-04-30T08:23:15.0000000+00:00</time></trkpt><trkpt lat="20.897928" lon="107.024094"><ele>-14.6</ele><time>2011-04-30T08:23:20.0000000+00:00</time></trkpt><trkpt lat="20.898048" lon="107.024155"><ele>-13.7</ele><time>2011-04-30T08:23:25.0000000+00:00</time></trkpt><trkpt lat="20.898159" lon="107.024208"><ele>-13.7</ele><time>2011-04-30T08:23:30.0000000+00:00</time></trkpt><trkpt lat="20.898268" lon="107.024254"><ele>-15.0</ele><time>2011-04-30T08:23:35.0000000+00:00</time></trkpt><trkpt lat="20.898397" lon="107.024307"><ele>-13.4</ele><time>2011-04-30T08:23:40.0000000+00:00</time></trkpt><trkpt lat="20.89851" lon="107.024361"><ele>-13.6</ele><time>2011-04-30T08:23:45.0000000+00:00</time></trkpt><trkpt lat="20.898617" lon="107.024406"><ele>-13.6</ele><time>2011-04-30T08:23:50.0000000+00:00</time></trkpt><trkpt lat="20.898727" lon="107.024467"><ele>-14.2</ele><time>2011-04-30T08:23:55.0000000+00:00</time></trkpt><trkpt lat="20.898834" lon="107.024513"><ele>-12.9</ele><time>2011-04-30T08:24:00.0000000+00:00</time></trkpt><trkpt lat="20.89892" lon="107.024567"><ele>-17.5</ele><time>2011-04-30T08:24:05.0000000+00:00</time></trkpt><trkpt lat="20.899033" lon="107.024612"><ele>-19.6</ele><time>2011-04-30T08:24:10.0000000+00:00</time></trkpt><trkpt lat="20.899145" lon="107.024666"><ele>-20.0</ele><time>2011-04-30T08:24:15.0000000+00:00</time></trkpt><trkpt lat="20.899258" lon="107.024727"><ele>-20.5</ele><time>2011-04-30T08:24:20.0000000+00:00</time></trkpt><trkpt lat="20.899376" lon="107.02478"><ele>-20.3</ele><time>2011-04-30T08:24:25.0000000+00:00</time></trkpt><trkpt lat="20.899485" lon="107.024826"><ele>-21.9</ele><time>2011-04-30T08:24:30.0000000+00:00</time></trkpt><trkpt lat="20.899599" lon="107.024872"><ele>-22.6</ele><time>2011-04-30T08:24:35.0000000+00:00</time></trkpt><trkpt lat="20.899717" lon="107.024925"><ele>-22.4</ele><time>2011-04-30T08:24:40.0000000+00:00</time></trkpt><trkpt lat="20.899837" lon="107.024979"><ele>-23.5</ele><time>2011-04-30T08:24:45.0000000+00:00</time></trkpt><trkpt lat="20.89995" lon="107.025032"><ele>-23.5</ele><time>2011-04-30T08:24:50.0000000+00:00</time></trkpt><trkpt lat="20.900061" lon="107.025085"><ele>-22.2</ele><time>2011-04-30T08:24:55.0000000+00:00</time></trkpt><trkpt lat="20.900171" lon="107.025146"><ele>-20.9</ele><time>2011-04-30T08:25:00.0000000+00:00</time></trkpt><trkpt lat="20.900286" lon="107.025192"><ele>-20.8</ele><time>2011-04-30T08:25:05.0000000+00:00</time></trkpt><trkpt lat="20.900404" lon="107.025246"><ele>-20.4</ele><time>2011-04-30T08:25:10.0000000+00:00</time></trkpt><trkpt lat="20.900518" lon="107.025291"><ele>-21.3</ele><time>2011-04-30T08:25:15.0000000+00:00</time></trkpt><trkpt lat="20.900623" lon="107.025345"><ele>-22.4</ele><time>2011-04-30T08:25:20.0000000+00:00</time></trkpt><trkpt lat="20.900738" lon="107.025398"><ele>-22.5</ele><time>2011-04-30T08:25:25.0000000+00:00</time></trkpt><trkpt lat="20.900845" lon="107.025452"><ele>-23.0</ele><time>2011-04-30T08:25:30.0000000+00:00</time></trkpt><trkpt lat="20.900951" lon="107.025505"><ele>-23.8</ele><time>2011-04-30T08:25:35.0000000+00:00</time></trkpt><trkpt lat="20.90106" lon="107.025551"><ele>-23.8</ele><time>2011-04-30T08:25:40.0000000+00:00</time></trkpt><trkpt lat="20.901167" lon="107.025612"><ele>-23.3</ele><time>2011-04-30T08:25:45.0000000+00:00</time></trkpt><trkpt lat="20.901276" lon="107.025658"><ele>-22.3</ele><time>2011-04-30T08:25:50.0000000+00:00</time></trkpt><trkpt lat="20.901386" lon="107.025711"><ele>-22.1</ele><time>2011-04-30T08:25:55.0000000+00:00</time></trkpt><trkpt lat="20.901497" lon="107.025757"><ele>-21.6</ele><time>2011-04-30T08:26:00.0000000+00:00</time></trkpt><trkpt lat="20.901613" lon="107.025818"><ele>-22.0</ele><time>2011-04-30T08:26:05.0000000+00:00</time></trkpt><trkpt lat="20.901726" lon="107.025871"><ele>-22.5</ele><time>2011-04-30T08:26:10.0000000+00:00</time></trkpt><trkpt lat="20.90184" lon="107.025932"><ele>-22.9</ele><time>2011-04-30T08:26:15.0000000+00:00</time></trkpt><trkpt lat="20.901953" lon="107.025993"><ele>-24.0</ele><time>2011-04-30T08:26:20.0000000+00:00</time></trkpt><trkpt lat="20.902056" lon="107.026062"><ele>-24.4</ele><time>2011-04-30T08:26:25.0000000+00:00</time></trkpt><trkpt lat="20.902174" lon="107.026115"><ele>-24.0</ele><time>2011-04-30T08:26:30.0000000+00:00</time></trkpt><trkpt lat="20.902288" lon="107.026169"><ele>-23.6</ele><time>2011-04-30T08:26:35.0000000+00:00</time></trkpt><trkpt lat="20.902401" lon="107.026222"><ele>-23.3</ele><time>2011-04-30T08:26:40.0000000+00:00</time></trkpt><trkpt lat="20.902502" lon="107.026276"><ele>-24.4</ele><time>2011-04-30T08:26:45.0000000+00:00</time></trkpt><trkpt lat="20.902617" lon="107.026321"><ele>-25.4</ele><time>2011-04-30T08:26:50.0000000+00:00</time></trkpt><trkpt lat="20.902729" lon="107.026375"><ele>-25.6</ele><time>2011-04-30T08:26:55.0000000+00:00</time></trkpt><trkpt lat="20.902838" lon="107.026428"><ele>-25.1</ele><time>2011-04-30T08:27:00.0000000+00:00</time></trkpt><trkpt lat="20.902948" lon="107.026489"><ele>-24.8</ele><time>2011-04-30T08:27:05.0000000+00:00</time></trkpt><trkpt lat="20.903061" lon="107.026535"><ele>-24.5</ele><time>2011-04-30T08:27:10.0000000+00:00</time></trkpt><trkpt lat="20.903173" lon="107.026588"><ele>-24.2</ele><time>2011-04-30T08:27:15.0000000+00:00</time></trkpt><trkpt lat="20.90328" lon="107.026657"><ele>-23.4</ele><time>2011-04-30T08:27:20.0000000+00:00</time></trkpt><trkpt lat="20.903393" lon="107.026718"><ele>-22.7</ele><time>2011-04-30T08:27:25.0000000+00:00</time></trkpt><trkpt lat="20.903502" lon="107.026764"><ele>-23.8</ele><time>2011-04-30T08:27:30.0000000+00:00</time></trkpt><trkpt lat="20.90361" lon="107.026817"><ele>-23.9</ele><time>2011-04-30T08:27:35.0000000+00:00</time></trkpt><trkpt lat="20.903717" lon="107.026878"><ele>-23.4</ele><time>2011-04-30T08:27:40.0000000+00:00</time></trkpt><trkpt lat="20.90383" lon="107.026932"><ele>-23.3</ele><time>2011-04-30T08:27:45.0000000+00:00</time></trkpt><trkpt lat="20.903936" lon="107.026993"><ele>-22.7</ele><time>2011-04-30T08:27:50.0000000+00:00</time></trkpt><trkpt lat="20.904047" lon="107.027039"><ele>-23.0</ele><time>2011-04-30T08:27:55.0000000+00:00</time></trkpt><trkpt lat="20.904156" lon="107.027092"><ele>-24.3</ele><time>2011-04-30T08:28:00.0000000+00:00</time></trkpt><trkpt lat="20.904266" lon="107.027145"><ele>-23.2</ele><time>2011-04-30T08:28:05.0000000+00:00</time></trkpt><trkpt lat="20.904375" lon="107.027199"><ele>-24.6</ele><time>2011-04-30T08:28:10.0000000+00:00</time></trkpt><trkpt lat="20.904484" lon="107.027245"><ele>-25.9</ele><time>2011-04-30T08:28:15.0000000+00:00</time></trkpt><trkpt lat="20.904593" lon="107.027298"><ele>-26.5</ele><time>2011-04-30T08:28:20.0000000+00:00</time></trkpt><trkpt lat="20.904697" lon="107.027359"><ele>-26.7</ele><time>2011-04-30T08:28:25.0000000+00:00</time></trkpt><trkpt lat="20.9048" lon="107.027428"><ele>-27.1</ele><time>2011-04-30T08:28:30.0000000+00:00</time></trkpt><trkpt lat="20.904907" lon="107.027489"><ele>-27.9</ele><time>2011-04-30T08:28:35.0000000+00:00</time></trkpt><trkpt lat="20.905014" lon="107.027542"><ele>-27.2</ele><time>2011-04-30T08:28:40.0000000+00:00</time></trkpt><trkpt lat="20.905113" lon="107.027611"><ele>-27.3</ele><time>2011-04-30T08:28:45.0000000+00:00</time></trkpt><trkpt lat="20.905216" lon="107.027664"><ele>-27.4</ele><time>2011-04-30T08:28:50.0000000+00:00</time></trkpt><trkpt lat="20.905323" lon="107.027725"><ele>-26.4</ele><time>2011-04-30T08:28:55.0000000+00:00</time></trkpt><trkpt lat="20.905422" lon="107.027786"><ele>-26.2</ele><time>2011-04-30T08:29:00.0000000+00:00</time></trkpt><trkpt lat="20.905525" lon="107.027847"><ele>-25.4</ele><time>2011-04-30T08:29:05.0000000+00:00</time></trkpt><trkpt lat="20.905628" lon="107.027908"><ele>-25.0</ele><time>2011-04-30T08:29:10.0000000+00:00</time></trkpt><trkpt lat="20.905731" lon="107.027962"><ele>-24.6</ele><time>2011-04-30T08:29:15.0000000+00:00</time></trkpt><trkpt lat="20.905842" lon="107.028015"><ele>-23.6</ele><time>2011-04-30T08:29:20.0000000+00:00</time></trkpt><trkpt lat="20.905949" lon="107.028069"><ele>-21.9</ele><time>2011-04-30T08:29:25.0000000+00:00</time></trkpt><trkpt lat="20.906057" lon="107.028122"><ele>-20.7</ele><time>2011-04-30T08:29:30.0000000+00:00</time></trkpt><trkpt lat="20.906168" lon="107.028175"><ele>-20.5</ele><time>2011-04-30T08:29:35.0000000+00:00</time></trkpt><trkpt lat="20.906277" lon="107.028221"><ele>-20.8</ele><time>2011-04-30T08:29:40.0000000+00:00</time></trkpt><trkpt lat="20.90638" lon="107.028282"><ele>-20.1</ele><time>2011-04-30T08:29:45.0000000+00:00</time></trkpt><trkpt lat="20.906492" lon="107.028336"><ele>-18.9</ele><time>2011-04-30T08:29:50.0000000+00:00</time></trkpt><trkpt lat="20.906603" lon="107.028389"><ele>-18.9</ele><time>2011-04-30T08:29:55.0000000+00:00</time></trkpt><trkpt lat="20.906712" lon="107.028442"><ele>-19.6</ele><time>2011-04-30T08:30:00.0000000+00:00</time></trkpt><trkpt lat="20.906818" lon="107.028496"><ele>-19.1</ele><time>2011-04-30T08:30:05.0000000+00:00</time></trkpt><trkpt lat="20.906927" lon="107.028542"><ele>-19.4</ele><time>2011-04-30T08:30:10.0000000+00:00</time></trkpt><trkpt lat="20.907038" lon="107.028587"><ele>-18.8</ele><time>2011-04-30T08:30:15.0000000+00:00</time></trkpt><trkpt lat="20.907146" lon="107.028648"><ele>-18.2</ele><time>2011-04-30T08:30:20.0000000+00:00</time></trkpt><trkpt lat="20.907253" lon="107.028702"><ele>-17.4</ele><time>2011-04-30T08:30:25.0000000+00:00</time></trkpt><trkpt lat="20.907364" lon="107.028763"><ele>-15.8</ele><time>2011-04-30T08:30:30.0000000+00:00</time></trkpt><trkpt lat="20.907473" lon="107.028816"><ele>-16.6</ele><time>2011-04-30T08:30:35.0000000+00:00</time></trkpt><trkpt lat="20.907578" lon="107.02887"><ele>-17.0</ele><time>2011-04-30T08:30:40.0000000+00:00</time></trkpt><trkpt lat="20.907681" lon="107.028923"><ele>-18.8</ele><time>2011-04-30T08:30:45.0000000+00:00</time></trkpt><trkpt lat="20.907789" lon="107.028976"><ele>-18.5</ele><time>2011-04-30T08:30:50.0000000+00:00</time></trkpt><trkpt lat="20.907902" lon="107.02903"><ele>-15.5</ele><time>2011-04-30T08:30:55.0000000+00:00</time></trkpt><trkpt lat="20.908001" lon="107.029083"><ele>-17.0</ele><time>2011-04-30T08:31:00.0000000+00:00</time></trkpt><trkpt lat="20.90811" lon="107.029144"><ele>-15.8</ele><time>2011-04-30T08:31:05.0000000+00:00</time></trkpt><trkpt lat="20.908211" lon="107.029205"><ele>-15.3</ele><time>2011-04-30T08:31:10.0000000+00:00</time></trkpt><trkpt lat="20.908314" lon="107.029266"><ele>-14.5</ele><time>2011-04-30T08:31:15.0000000+00:00</time></trkpt><trkpt lat="20.908421" lon="107.029335"><ele>-11.8</ele><time>2011-04-30T08:31:20.0000000+00:00</time></trkpt><trkpt lat="20.90852" lon="107.029396"><ele>-13.1</ele><time>2011-04-30T08:31:25.0000000+00:00</time></trkpt><trkpt lat="20.908623" lon="107.029457"><ele>-12.6</ele><time>2011-04-30T08:31:30.0000000+00:00</time></trkpt><trkpt lat="20.908724" lon="107.029518"><ele>-14.0</ele><time>2011-04-30T08:31:35.0000000+00:00</time></trkpt><trkpt lat="20.908831" lon="107.029564"><ele>-14.6</ele><time>2011-04-30T08:31:40.0000000+00:00</time></trkpt><trkpt lat="20.908943" lon="107.029625"><ele>-14.1</ele><time>2011-04-30T08:31:45.0000000+00:00</time></trkpt><trkpt lat="20.909058" lon="107.029678"><ele>-13.3</ele><time>2011-04-30T08:31:50.0000000+00:00</time></trkpt><trkpt lat="20.909168" lon="107.029732"><ele>-14.7</ele><time>2011-04-30T08:31:55.0000000+00:00</time></trkpt><trkpt lat="20.909273" lon="107.029785"><ele>-15.6</ele><time>2011-04-30T08:32:00.0000000+00:00</time></trkpt><trkpt lat="20.90938" lon="107.029831"><ele>-16.3</ele><time>2011-04-30T08:32:05.0000000+00:00</time></trkpt><trkpt lat="20.909487" lon="107.029884"><ele>-16.7</ele><time>2011-04-30T08:32:10.0000000+00:00</time></trkpt><trkpt lat="20.909595" lon="107.029945"><ele>-17.4</ele><time>2011-04-30T08:32:15.0000000+00:00</time></trkpt><trkpt lat="20.909702" lon="107.029999"><ele>-16.4</ele><time>2011-04-30T08:32:20.0000000+00:00</time></trkpt><trkpt lat="20.909813" lon="107.030052"><ele>-15.6</ele><time>2011-04-30T08:32:25.0000000+00:00</time></trkpt><trkpt lat="20.909914" lon="107.030113"><ele>-16.1</ele><time>2011-04-30T08:32:30.0000000+00:00</time></trkpt><trkpt lat="20.910021" lon="107.030174"><ele>-16.7</ele><time>2011-04-30T08:32:35.0000000+00:00</time></trkpt><trkpt lat="20.91013" lon="107.030228"><ele>-16.0</ele><time>2011-04-30T08:32:40.0000000+00:00</time></trkpt><trkpt lat="20.910236" lon="107.030281"><ele>-16.4</ele><time>2011-04-30T08:32:45.0000000+00:00</time></trkpt><trkpt lat="20.910339" lon="107.030334"><ele>-16.0</ele><time>2011-04-30T08:32:50.0000000+00:00</time></trkpt><trkpt lat="20.910442" lon="107.030396"><ele>-16.5</ele><time>2011-04-30T08:32:55.0000000+00:00</time></trkpt><trkpt lat="20.910551" lon="107.030449"><ele>-15.9</ele><time>2011-04-30T08:33:00.0000000+00:00</time></trkpt><trkpt lat="20.910652" lon="107.03051"><ele>-16.7</ele><time>2011-04-30T08:33:05.0000000+00:00</time></trkpt><trkpt lat="20.910761" lon="107.030563"><ele>-16.6</ele><time>2011-04-30T08:33:10.0000000+00:00</time></trkpt><trkpt lat="20.910868" lon="107.030617"><ele>-16.7</ele><time>2011-04-30T08:33:15.0000000+00:00</time></trkpt><trkpt lat="20.910971" lon="107.030678"><ele>-16.4</ele><time>2011-04-30T08:33:20.0000000+00:00</time></trkpt><trkpt lat="20.91107" lon="107.030731"><ele>-16.0</ele><time>2011-04-30T08:33:25.0000000+00:00</time></trkpt><trkpt lat="20.911165" lon="107.0308"><ele>-16.4</ele><time>2011-04-30T08:33:30.0000000+00:00</time></trkpt><trkpt lat="20.911266" lon="107.030861"><ele>-17.1</ele><time>2011-04-30T08:33:35.0000000+00:00</time></trkpt><trkpt lat="20.911367" lon="107.030922"><ele>-16.9</ele><time>2011-04-30T08:33:40.0000000+00:00</time></trkpt><trkpt lat="20.91147" lon="107.030983"><ele>-16.3</ele><time>2011-04-30T08:33:45.0000000+00:00</time></trkpt><trkpt lat="20.911573" lon="107.031036"><ele>-15.6</ele><time>2011-04-30T08:33:50.0000000+00:00</time></trkpt><trkpt lat="20.91168" lon="107.03109"><ele>-16.6</ele><time>2011-04-30T08:33:55.0000000+00:00</time></trkpt><trkpt lat="20.911783" lon="107.031151"><ele>-16.4</ele><time>2011-04-30T08:34:00.0000000+00:00</time></trkpt><trkpt lat="20.911888" lon="107.031204"><ele>-17.1</ele><time>2011-04-30T08:34:05.0000000+00:00</time></trkpt><trkpt lat="20.911997" lon="107.031258"><ele>-17.1</ele><time>2011-04-30T08:34:10.0000000+00:00</time></trkpt><trkpt lat="20.912104" lon="107.031319"><ele>-17.5</ele><time>2011-04-30T08:34:15.0000000+00:00</time></trkpt><trkpt lat="20.912207" lon="107.031372"><ele>-17.4</ele><time>2011-04-30T08:34:20.0000000+00:00</time></trkpt><trkpt lat="20.91231" lon="107.031418"><ele>-19.1</ele><time>2011-04-30T08:34:25.0000000+00:00</time></trkpt><trkpt lat="20.912415" lon="107.031471"><ele>-19.5</ele><time>2011-04-30T08:34:30.0000000+00:00</time></trkpt><trkpt lat="20.912519" lon="107.031548"><ele>-21.1</ele><time>2011-04-30T08:34:35.0000000+00:00</time></trkpt><trkpt lat="20.912628" lon="107.031609"><ele>-20.2</ele><time>2011-04-30T08:34:40.0000000+00:00</time></trkpt><trkpt lat="20.912733" lon="107.031662"><ele>-19.5</ele><time>2011-04-30T08:34:45.0000000+00:00</time></trkpt><trkpt lat="20.912836" lon="107.031731"><ele>-19.0</ele><time>2011-04-30T08:34:50.0000000+00:00</time></trkpt><trkpt lat="20.912933" lon="107.031792"><ele>-17.9</ele><time>2011-04-30T08:34:55.0000000+00:00</time></trkpt><trkpt lat="20.913033" lon="107.03186"><ele>-17.0</ele><time>2011-04-30T08:35:00.0000000+00:00</time></trkpt><trkpt lat="20.913134" lon="107.031921"><ele>-15.9</ele><time>2011-04-30T08:35:05.0000000+00:00</time></trkpt><trkpt lat="20.913233" lon="107.03199"><ele>-14.4</ele><time>2011-04-30T08:35:10.0000000+00:00</time></trkpt><trkpt lat="20.913334" lon="107.032043"><ele>-13.1</ele><time>2011-04-30T08:35:15.0000000+00:00</time></trkpt><trkpt lat="20.913435" lon="107.032104"><ele>-13.2</ele><time>2011-04-30T08:35:20.0000000+00:00</time></trkpt><trkpt lat="20.913536" lon="107.032181"><ele>-13.3</ele><time>2011-04-30T08:35:25.0000000+00:00</time></trkpt><trkpt lat="20.913631" lon="107.032257"><ele>-11.5</ele><time>2011-04-30T08:35:30.0000000+00:00</time></trkpt><trkpt lat="20.913733" lon="107.032318"><ele>-12.0</ele><time>2011-04-30T08:35:35.0000000+00:00</time></trkpt><trkpt lat="20.913837" lon="107.032379"><ele>-10.7</ele><time>2011-04-30T08:35:40.0000000+00:00</time></trkpt><trkpt lat="20.91394" lon="107.03244"><ele>-10.6</ele><time>2011-04-30T08:35:45.0000000+00:00</time></trkpt><trkpt lat="20.914045" lon="107.032501"><ele>-11.6</ele><time>2011-04-30T08:35:50.0000000+00:00</time></trkpt><trkpt lat="20.91415" lon="107.032555"><ele>-13.4</ele><time>2011-04-30T08:35:55.0000000+00:00</time></trkpt><trkpt lat="20.914249" lon="107.032608"><ele>-13.3</ele><time>2011-04-30T08:36:00.0000000+00:00</time></trkpt><trkpt lat="20.914351" lon="107.032661"><ele>-13.5</ele><time>2011-04-30T08:36:05.0000000+00:00</time></trkpt><trkpt lat="20.914454" lon="107.032715"><ele>-13.4</ele><time>2011-04-30T08:36:10.0000000+00:00</time></trkpt><trkpt lat="20.914557" lon="107.032776"><ele>-12.7</ele><time>2011-04-30T08:36:15.0000000+00:00</time></trkpt><trkpt lat="20.914663" lon="107.032845"><ele>-12.8</ele><time>2011-04-30T08:36:20.0000000+00:00</time></trkpt><trkpt lat="20.914764" lon="107.032898"><ele>-14.8</ele><time>2011-04-30T08:36:25.0000000+00:00</time></trkpt><trkpt lat="20.914869" lon="107.032967"><ele>-15.3</ele><time>2011-04-30T08:36:30.0000000+00:00</time></trkpt><trkpt lat="20.914961" lon="107.033043"><ele>-14.7</ele><time>2011-04-30T08:36:35.0000000+00:00</time></trkpt><trkpt lat="20.915062" lon="107.033112"><ele>-13.4</ele><time>2011-04-30T08:36:40.0000000+00:00</time></trkpt><trkpt lat="20.915161" lon="107.033165"><ele>-13.3</ele><time>2011-04-30T08:36:45.0000000+00:00</time></trkpt><trkpt lat="20.915257" lon="107.033218"><ele>-14.6</ele><time>2011-04-30T08:36:50.0000000+00:00</time></trkpt><trkpt lat="20.915354" lon="107.033272"><ele>-16.7</ele><time>2011-04-30T08:36:55.0000000+00:00</time></trkpt><trkpt lat="20.915451" lon="107.033348"><ele>-17.1</ele><time>2011-04-30T08:37:00.0000000+00:00</time></trkpt><trkpt lat="20.91555" lon="107.033417"><ele>-17.5</ele><time>2011-04-30T08:37:05.0000000+00:00</time></trkpt><trkpt lat="20.915636" lon="107.033493"><ele>-17.4</ele><time>2011-04-30T08:37:10.0000000+00:00</time></trkpt><trkpt lat="20.915731" lon="107.033569"><ele>-17.0</ele><time>2011-04-30T08:37:15.0000000+00:00</time></trkpt><trkpt lat="20.915815" lon="107.033646"><ele>-15.3</ele><time>2011-04-30T08:37:20.0000000+00:00</time></trkpt><trkpt lat="20.915907" lon="107.033722"><ele>-16.6</ele><time>2011-04-30T08:37:25.0000000+00:00</time></trkpt><trkpt lat="20.915995" lon="107.033813"><ele>-16.8</ele><time>2011-04-30T08:37:30.0000000+00:00</time></trkpt><trkpt lat="20.916084" lon="107.033905"><ele>-15.6</ele><time>2011-04-30T08:37:35.0000000+00:00</time></trkpt><trkpt lat="20.916182" lon="107.033989"><ele>-14.6</ele><time>2011-04-30T08:37:40.0000000+00:00</time></trkpt><trkpt lat="20.916286" lon="107.034058"><ele>-16.5</ele><time>2011-04-30T08:37:45.0000000+00:00</time></trkpt><trkpt lat="20.916384" lon="107.034126"><ele>-16.8</ele><time>2011-04-30T08:37:50.0000000+00:00</time></trkpt><trkpt lat="20.916479" lon="107.034187"><ele>-17.7</ele><time>2011-04-30T08:37:55.0000000+00:00</time></trkpt><trkpt lat="20.916584" lon="107.034248"><ele>-18.1</ele><time>2011-04-30T08:38:00.0000000+00:00</time></trkpt><trkpt lat="20.916689" lon="107.034309"><ele>-19.5</ele><time>2011-04-30T08:38:05.0000000+00:00</time></trkpt><trkpt lat="20.916794" lon="107.034378"><ele>-18.9</ele><time>2011-04-30T08:38:10.0000000+00:00</time></trkpt><trkpt lat="20.916897" lon="107.034447"><ele>-19.8</ele><time>2011-04-30T08:38:15.0000000+00:00</time></trkpt><trkpt lat="20.916992" lon="107.034523"><ele>-21.5</ele><time>2011-04-30T08:38:20.0000000+00:00</time></trkpt><trkpt lat="20.917105" lon="107.034599"><ele>-22.3</ele><time>2011-04-30T08:38:25.0000000+00:00</time></trkpt><trkpt lat="20.917206" lon="107.034668"><ele>-23.8</ele><time>2011-04-30T08:38:30.0000000+00:00</time></trkpt><trkpt lat="20.917303" lon="107.034737"><ele>-24.2</ele><time>2011-04-30T08:38:35.0000000+00:00</time></trkpt><trkpt lat="20.917414" lon="107.034798"><ele>-24.2</ele><time>2011-04-30T08:38:40.0000000+00:00</time></trkpt><trkpt lat="20.917519" lon="107.034874"><ele>-23.9</ele><time>2011-04-30T08:38:45.0000000+00:00</time></trkpt><trkpt lat="20.917614" lon="107.034943"><ele>-23.2</ele><time>2011-04-30T08:38:50.0000000+00:00</time></trkpt><trkpt lat="20.917711" lon="107.035019"><ele>-22.9</ele><time>2011-04-30T08:38:55.0000000+00:00</time></trkpt><trkpt lat="20.917814" lon="107.035088"><ele>-21.4</ele><time>2011-04-30T08:39:00.0000000+00:00</time></trkpt><trkpt lat="20.917912" lon="107.035156"><ele>-20.5</ele><time>2011-04-30T08:39:05.0000000+00:00</time></trkpt><trkpt lat="20.918015" lon="107.035225"><ele>-18.9</ele><time>2011-04-30T08:39:10.0000000+00:00</time></trkpt><trkpt lat="20.918114" lon="107.035294"><ele>-18.1</ele><time>2011-04-30T08:39:15.0000000+00:00</time></trkpt><trkpt lat="20.918217" lon="107.035362"><ele>-18.2</ele><time>2011-04-30T08:39:20.0000000+00:00</time></trkpt><trkpt lat="20.918322" lon="107.035423"><ele>-18.8</ele><time>2011-04-30T08:39:25.0000000+00:00</time></trkpt><trkpt lat="20.918421" lon="107.035492"><ele>-18.4</ele><time>2011-04-30T08:39:30.0000000+00:00</time></trkpt><trkpt lat="20.918526" lon="107.035561"><ele>-17.4</ele><time>2011-04-30T08:39:35.0000000+00:00</time></trkpt><trkpt lat="20.918627" lon="107.035614"><ele>-18.8</ele><time>2011-04-30T08:39:40.0000000+00:00</time></trkpt><trkpt lat="20.918732" lon="107.035675"><ele>-18.9</ele><time>2011-04-30T08:39:45.0000000+00:00</time></trkpt><trkpt lat="20.91884" lon="107.035736"><ele>-17.5</ele><time>2011-04-30T08:39:50.0000000+00:00</time></trkpt><trkpt lat="20.918943" lon="107.035797"><ele>-17.2</ele><time>2011-04-30T08:39:55.0000000+00:00</time></trkpt><trkpt lat="20.919048" lon="107.035851"><ele>-16.7</ele><time>2011-04-30T08:40:00.0000000+00:00</time></trkpt><trkpt lat="20.919153" lon="107.035912"><ele>-15.7</ele><time>2011-04-30T08:40:05.0000000+00:00</time></trkpt><trkpt lat="20.91925" lon="107.035965"><ele>-16.0</ele><time>2011-04-30T08:40:10.0000000+00:00</time></trkpt><trkpt lat="20.919346" lon="107.036018"><ele>-15.3</ele><time>2011-04-30T08:40:15.0000000+00:00</time></trkpt><trkpt lat="20.919447" lon="107.036087"><ele>-15.1</ele><time>2011-04-30T08:40:20.0000000+00:00</time></trkpt><trkpt lat="20.91955" lon="107.036163"><ele>-15.5</ele><time>2011-04-30T08:40:25.0000000+00:00</time></trkpt><trkpt lat="20.919647" lon="107.03624"><ele>-16.8</ele><time>2011-04-30T08:40:30.0000000+00:00</time></trkpt><trkpt lat="20.91975" lon="107.036301"><ele>-18.8</ele><time>2011-04-30T08:40:35.0000000+00:00</time></trkpt><trkpt lat="20.919859" lon="107.036369"><ele>-19.8</ele><time>2011-04-30T08:40:40.0000000+00:00</time></trkpt><trkpt lat="20.919962" lon="107.036438"><ele>-19.4</ele><time>2011-04-30T08:40:45.0000000+00:00</time></trkpt><trkpt lat="20.920065" lon="107.036499"><ele>-19.0</ele><time>2011-04-30T08:40:50.0000000+00:00</time></trkpt><trkpt lat="20.920172" lon="107.03656"><ele>-19.2</ele><time>2011-04-30T08:40:55.0000000+00:00</time></trkpt><trkpt lat="20.920277" lon="107.036621"><ele>-19.3</ele><time>2011-04-30T08:41:00.0000000+00:00</time></trkpt><trkpt lat="20.920387" lon="107.03669"><ele>-19.0</ele><time>2011-04-30T08:41:05.0000000+00:00</time></trkpt><trkpt lat="20.92049" lon="107.036751"><ele>-18.2</ele><time>2011-04-30T08:41:10.0000000+00:00</time></trkpt><trkpt lat="20.920589" lon="107.036819"><ele>-18.7</ele><time>2011-04-30T08:41:15.0000000+00:00</time></trkpt><trkpt lat="20.920694" lon="107.03688"><ele>-18.7</ele><time>2011-04-30T08:41:20.0000000+00:00</time></trkpt><trkpt lat="20.920799" lon="107.036949"><ele>-18.3</ele><time>2011-04-30T08:41:25.0000000+00:00</time></trkpt><trkpt lat="20.920895" lon="107.037025"><ele>-18.8</ele><time>2011-04-30T08:41:30.0000000+00:00</time></trkpt><trkpt lat="20.920992" lon="107.037102"><ele>-18.8</ele><time>2011-04-30T08:41:35.0000000+00:00</time></trkpt><trkpt lat="20.921089" lon="107.03717"><ele>-18.8</ele><time>2011-04-30T08:41:40.0000000+00:00</time></trkpt><trkpt lat="20.92119" lon="107.037247"><ele>-18.5</ele><time>2011-04-30T08:41:45.0000000+00:00</time></trkpt><trkpt lat="20.921293" lon="107.037315"><ele>-18.1</ele><time>2011-04-30T08:41:50.0000000+00:00</time></trkpt><trkpt lat="20.9214" lon="107.037392"><ele>-18.0</ele><time>2011-04-30T08:41:55.0000000+00:00</time></trkpt><trkpt lat="20.921505" lon="107.03746"><ele>-17.4</ele><time>2011-04-30T08:42:00.0000000+00:00</time></trkpt><trkpt lat="20.921614" lon="107.037529"><ele>-18.2</ele><time>2011-04-30T08:42:05.0000000+00:00</time></trkpt><trkpt lat="20.921717" lon="107.037598"><ele>-18.1</ele><time>2011-04-30T08:42:10.0000000+00:00</time></trkpt><trkpt lat="20.921825" lon="107.037659"><ele>-19.2</ele><time>2011-04-30T08:42:15.0000000+00:00</time></trkpt><trkpt lat="20.921934" lon="107.03772"><ele>-19.5</ele><time>2011-04-30T08:42:20.0000000+00:00</time></trkpt><trkpt lat="20.922039" lon="107.037781"><ele>-19.2</ele><time>2011-04-30T08:42:25.0000000+00:00</time></trkpt><trkpt lat="20.92214" lon="107.037849"><ele>-20.4</ele><time>2011-04-30T08:42:30.0000000+00:00</time></trkpt><trkpt lat="20.922241" lon="107.037926"><ele>-20.7</ele><time>2011-04-30T08:42:35.0000000+00:00</time></trkpt><trkpt lat="20.922342" lon="107.038002"><ele>-21.3</ele><time>2011-04-30T08:42:40.0000000+00:00</time></trkpt><trkpt lat="20.922441" lon="107.038078"><ele>-21.1</ele><time>2011-04-30T08:42:45.0000000+00:00</time></trkpt><trkpt lat="20.922548" lon="107.038147"><ele>-20.8</ele><time>2011-04-30T08:42:50.0000000+00:00</time></trkpt><trkpt lat="20.922646" lon="107.038216"><ele>-20.9</ele><time>2011-04-30T08:42:55.0000000+00:00</time></trkpt><trkpt lat="20.922749" lon="107.038284"><ele>-20.4</ele><time>2011-04-30T08:43:00.0000000+00:00</time></trkpt><trkpt lat="20.922853" lon="107.038368"><ele>-20.8</ele><time>2011-04-30T08:43:05.0000000+00:00</time></trkpt><trkpt lat="20.922958" lon="107.038437"><ele>-21.1</ele><time>2011-04-30T08:43:10.0000000+00:00</time></trkpt><trkpt lat="20.923061" lon="107.038506"><ele>-20.7</ele><time>2011-04-30T08:43:15.0000000+00:00</time></trkpt><trkpt lat="20.923162" lon="107.038582"><ele>-20.3</ele><time>2011-04-30T08:43:20.0000000+00:00</time></trkpt><trkpt lat="20.92326" lon="107.038658"><ele>-20.7</ele><time>2011-04-30T08:43:25.0000000+00:00</time></trkpt><trkpt lat="20.923355" lon="107.038742"><ele>-20.4</ele><time>2011-04-30T08:43:30.0000000+00:00</time></trkpt><trkpt lat="20.923458" lon="107.038811"><ele>-20.2</ele><time>2011-04-30T08:43:35.0000000+00:00</time></trkpt><trkpt lat="20.923563" lon="107.038879"><ele>-20.6</ele><time>2011-04-30T08:43:40.0000000+00:00</time></trkpt><trkpt lat="20.923664" lon="107.038956"><ele>-21.5</ele><time>2011-04-30T08:43:45.0000000+00:00</time></trkpt><trkpt lat="20.923765" lon="107.039032"><ele>-22.0</ele><time>2011-04-30T08:43:50.0000000+00:00</time></trkpt><trkpt lat="20.923866" lon="107.039108"><ele>-21.3</ele><time>2011-04-30T08:43:55.0000000+00:00</time></trkpt><trkpt lat="20.923969" lon="107.039169"><ele>-20.8</ele><time>2011-04-30T08:44:00.0000000+00:00</time></trkpt><trkpt lat="20.924074" lon="107.039246"><ele>-21.9</ele><time>2011-04-30T08:44:05.0000000+00:00</time></trkpt><trkpt lat="20.924179" lon="107.039307"><ele>-21.5</ele><time>2011-04-30T08:44:10.0000000+00:00</time></trkpt><trkpt lat="20.924288" lon="107.039375"><ele>-20.5</ele><time>2011-04-30T08:44:15.0000000+00:00</time></trkpt><trkpt lat="20.924391" lon="107.039452"><ele>-20.8</ele><time>2011-04-30T08:44:20.0000000+00:00</time></trkpt><trkpt lat="20.92449" lon="107.039528"><ele>-21.0</ele><time>2011-04-30T08:44:25.0000000+00:00</time></trkpt><trkpt lat="20.924599" lon="107.039597"><ele>-20.8</ele><time>2011-04-30T08:44:30.0000000+00:00</time></trkpt><trkpt lat="20.924702" lon="107.039673"><ele>-19.6</ele><time>2011-04-30T08:44:35.0000000+00:00</time></trkpt><trkpt lat="20.924807" lon="107.039742"><ele>-19.0</ele><time>2011-04-30T08:44:40.0000000+00:00</time></trkpt><trkpt lat="20.924911" lon="107.039818"><ele>-19.9</ele><time>2011-04-30T08:44:45.0000000+00:00</time></trkpt><trkpt lat="20.92502" lon="107.039886"><ele>-19.1</ele><time>2011-04-30T08:44:50.0000000+00:00</time></trkpt><trkpt lat="20.925125" lon="107.039955"><ele>-20.0</ele><time>2011-04-30T08:44:55.0000000+00:00</time></trkpt><trkpt lat="20.925234" lon="107.040016"><ele>-18.0</ele><time>2011-04-30T08:45:00.0000000+00:00</time></trkpt><trkpt lat="20.92535" lon="107.04007"><ele>-16.1</ele><time>2011-04-30T08:45:05.0000000+00:00</time></trkpt><trkpt lat="20.925465" lon="107.040123"><ele>-14.7</ele><time>2011-04-30T08:45:10.0000000+00:00</time></trkpt><trkpt lat="20.925577" lon="107.040176"><ele>-13.0</ele><time>2011-04-30T08:45:15.0000000+00:00</time></trkpt><trkpt lat="20.925692" lon="107.04023"><ele>-12.6</ele><time>2011-04-30T08:45:20.0000000+00:00</time></trkpt><trkpt lat="20.925804" lon="107.040283"><ele>-10.4</ele><time>2011-04-30T08:45:25.0000000+00:00</time></trkpt><trkpt lat="20.925919" lon="107.040337"><ele>-11.3</ele><time>2011-04-30T08:45:30.0000000+00:00</time></trkpt><trkpt lat="20.926035" lon="107.040398"><ele>-11.9</ele><time>2011-04-30T08:45:35.0000000+00:00</time></trkpt><trkpt lat="20.926147" lon="107.040451"><ele>-14.6</ele><time>2011-04-30T08:45:40.0000000+00:00</time></trkpt><trkpt lat="20.926258" lon="107.040512"><ele>-14.9</ele><time>2011-04-30T08:45:45.0000000+00:00</time></trkpt><trkpt lat="20.926365" lon="107.040573"><ele>-14.3</ele><time>2011-04-30T08:45:50.0000000+00:00</time></trkpt><trkpt lat="20.926479" lon="107.040634"><ele>-15.1</ele><time>2011-04-30T08:45:55.0000000+00:00</time></trkpt><trkpt lat="20.926588" lon="107.040688"><ele>-14.5</ele><time>2011-04-30T08:46:00.0000000+00:00</time></trkpt><trkpt lat="20.926699" lon="107.040756"><ele>-14.9</ele><time>2011-04-30T08:46:05.0000000+00:00</time></trkpt><trkpt lat="20.926807" lon="107.040817"><ele>-14.6</ele><time>2011-04-30T08:46:10.0000000+00:00</time></trkpt><trkpt lat="20.92691" lon="107.040894"><ele>-15.7</ele><time>2011-04-30T08:46:15.0000000+00:00</time></trkpt><trkpt lat="20.927013" lon="107.04097"><ele>-15.6</ele><time>2011-04-30T08:46:20.0000000+00:00</time></trkpt><trkpt lat="20.927118" lon="107.041039"><ele>-16.2</ele><time>2011-04-30T08:46:25.0000000+00:00</time></trkpt><trkpt lat="20.927217" lon="107.041115"><ele>-16.7</ele><time>2011-04-30T08:46:30.0000000+00:00</time></trkpt><trkpt lat="20.927319" lon="107.041199"><ele>-17.0</ele><time>2011-04-30T08:46:35.0000000+00:00</time></trkpt><trkpt lat="20.927423" lon="107.041275"><ele>-17.6</ele><time>2011-04-30T08:46:40.0000000+00:00</time></trkpt><trkpt lat="20.927528" lon="107.041344"><ele>-17.4</ele><time>2011-04-30T08:46:45.0000000+00:00</time></trkpt><trkpt lat="20.927631" lon="107.04142"><ele>-17.8</ele><time>2011-04-30T08:46:50.0000000+00:00</time></trkpt><trkpt lat="20.927736" lon="107.041489"><ele>-17.9</ele><time>2011-04-30T08:46:55.0000000+00:00</time></trkpt><trkpt lat="20.927853" lon="107.041542"><ele>-16.9</ele><time>2011-04-30T08:47:00.0000000+00:00</time></trkpt><trkpt lat="20.927963" lon="107.041603"><ele>-16.1</ele><time>2011-04-30T08:47:05.0000000+00:00</time></trkpt><trkpt lat="20.92807" lon="107.041664"><ele>-16.5</ele><time>2011-04-30T08:47:10.0000000+00:00</time></trkpt><trkpt lat="20.928181" lon="107.041718"><ele>-14.8</ele><time>2011-04-30T08:47:15.0000000+00:00</time></trkpt><trkpt lat="20.928288" lon="107.041779"><ele>-14.7</ele><time>2011-04-30T08:47:20.0000000+00:00</time></trkpt><trkpt lat="20.928404" lon="107.04184"><ele>-14.1</ele><time>2011-04-30T08:47:25.0000000+00:00</time></trkpt><trkpt lat="20.928511" lon="107.041893"><ele>-13.9</ele><time>2011-04-30T08:47:30.0000000+00:00</time></trkpt><trkpt lat="20.928616" lon="107.041954"><ele>-13.2</ele><time>2011-04-30T08:47:35.0000000+00:00</time></trkpt><trkpt lat="20.928726" lon="107.042015"><ele>-13.0</ele><time>2011-04-30T08:47:40.0000000+00:00</time></trkpt><trkpt lat="20.928835" lon="107.042076"><ele>-13.6</ele><time>2011-04-30T08:47:45.0000000+00:00</time></trkpt><trkpt lat="20.928944" lon="107.042137"><ele>-12.6</ele><time>2011-04-30T08:47:50.0000000+00:00</time></trkpt><trkpt lat="20.92905" lon="107.042198"><ele>-13.2</ele><time>2011-04-30T08:47:55.0000000+00:00</time></trkpt><trkpt lat="20.929161" lon="107.042252"><ele>-13.5</ele><time>2011-04-30T08:48:00.0000000+00:00</time></trkpt><trkpt lat="20.929272" lon="107.04232"><ele>-13.0</ele><time>2011-04-30T08:48:05.0000000+00:00</time></trkpt><trkpt lat="20.92938" lon="107.042381"><ele>-13.4</ele><time>2011-04-30T08:48:10.0000000+00:00</time></trkpt><trkpt lat="20.929485" lon="107.04245"><ele>-14.0</ele><time>2011-04-30T08:48:15.0000000+00:00</time></trkpt><trkpt lat="20.929592" lon="107.042511"><ele>-15.0</ele><time>2011-04-30T08:48:20.0000000+00:00</time></trkpt><trkpt lat="20.929688" lon="107.042587"><ele>-16.3</ele><time>2011-04-30T08:48:25.0000000+00:00</time></trkpt><trkpt lat="20.929789" lon="107.042664"><ele>-17.2</ele><time>2011-04-30T08:48:30.0000000+00:00</time></trkpt><trkpt lat="20.929892" lon="107.042732"><ele>-18.1</ele><time>2011-04-30T08:48:35.0000000+00:00</time></trkpt><trkpt lat="20.929995" lon="107.042801"><ele>-19.5</ele><time>2011-04-30T08:48:40.0000000+00:00</time></trkpt><trkpt lat="20.930107" lon="107.04287"><ele>-19.4</ele><time>2011-04-30T08:48:45.0000000+00:00</time></trkpt><trkpt lat="20.930223" lon="107.042931"><ele>-18.3</ele><time>2011-04-30T08:48:50.0000000+00:00</time></trkpt><trkpt lat="20.930342" lon="107.042984"><ele>-17.8</ele><time>2011-04-30T08:48:55.0000000+00:00</time></trkpt><trkpt lat="20.93045" lon="107.043045"><ele>-17.2</ele><time>2011-04-30T08:49:00.0000000+00:00</time></trkpt><trkpt lat="20.930561" lon="107.043106"><ele>-16.2</ele><time>2011-04-30T08:49:05.0000000+00:00</time></trkpt><trkpt lat="20.930668" lon="107.043159"><ele>-15.1</ele><time>2011-04-30T08:49:10.0000000+00:00</time></trkpt><trkpt lat="20.930777" lon="107.043221"><ele>-15.4</ele><time>2011-04-30T08:49:15.0000000+00:00</time></trkpt><trkpt lat="20.930885" lon="107.043289"><ele>-15.0</ele><time>2011-04-30T08:49:20.0000000+00:00</time></trkpt><trkpt lat="20.930994" lon="107.04335"><ele>-14.3</ele><time>2011-04-30T08:49:25.0000000+00:00</time></trkpt><trkpt lat="20.931095" lon="107.043411"><ele>-16.1</ele><time>2011-04-30T08:49:30.0000000+00:00</time></trkpt><trkpt lat="20.931198" lon="107.04348"><ele>-16.0</ele><time>2011-04-30T08:49:35.0000000+00:00</time></trkpt><trkpt lat="20.931297" lon="107.043549"><ele>-16.6</ele><time>2011-04-30T08:49:40.0000000+00:00</time></trkpt><trkpt lat="20.9314" lon="107.043617"><ele>-17.8</ele><time>2011-04-30T08:49:45.0000000+00:00</time></trkpt><trkpt lat="20.931505" lon="107.043686"><ele>-18.9</ele><time>2011-04-30T08:49:50.0000000+00:00</time></trkpt><trkpt lat="20.931602" lon="107.043747"><ele>-20.4</ele><time>2011-04-30T08:49:55.0000000+00:00</time></trkpt><trkpt lat="20.931705" lon="107.043816"><ele>-20.4</ele><time>2011-04-30T08:50:00.0000000+00:00</time></trkpt><trkpt lat="20.931805" lon="107.043877"><ele>-20.5</ele><time>2011-04-30T08:50:05.0000000+00:00</time></trkpt><trkpt lat="20.931906" lon="107.043938"><ele>-20.7</ele><time>2011-04-30T08:50:10.0000000+00:00</time></trkpt><trkpt lat="20.932011" lon="107.044006"><ele>-20.2</ele><time>2011-04-30T08:50:15.0000000+00:00</time></trkpt><trkpt lat="20.932117" lon="107.044067"><ele>-20.0</ele><time>2011-04-30T08:50:20.0000000+00:00</time></trkpt><trkpt lat="20.932222" lon="107.044136"><ele>-18.8</ele><time>2011-04-30T08:50:25.0000000+00:00</time></trkpt><trkpt lat="20.93232" lon="107.044197"><ele>-19.0</ele><time>2011-04-30T08:50:30.0000000+00:00</time></trkpt><trkpt lat="20.932428" lon="107.044258"><ele>-18.2</ele><time>2011-04-30T08:50:35.0000000+00:00</time></trkpt><trkpt lat="20.932533" lon="107.044319"><ele>-18.4</ele><time>2011-04-30T08:50:40.0000000+00:00</time></trkpt><trkpt lat="20.932638" lon="107.044388"><ele>-19.0</ele><time>2011-04-30T08:50:45.0000000+00:00</time></trkpt><trkpt lat="20.932737" lon="107.044456"><ele>-19.1</ele><time>2011-04-30T08:50:50.0000000+00:00</time></trkpt><trkpt lat="20.93284" lon="107.044518"><ele>-19.1</ele><time>2011-04-30T08:50:55.0000000+00:00</time></trkpt><trkpt lat="20.932945" lon="107.044586"><ele>-19.2</ele><time>2011-04-30T08:51:00.0000000+00:00</time></trkpt><trkpt lat="20.933054" lon="107.044655"><ele>-19.3</ele><time>2011-04-30T08:51:05.0000000+00:00</time></trkpt><trkpt lat="20.933161" lon="107.044716"><ele>-19.8</ele><time>2011-04-30T08:51:10.0000000+00:00</time></trkpt><trkpt lat="20.933268" lon="107.044777"><ele>-20.7</ele><time>2011-04-30T08:51:15.0000000+00:00</time></trkpt><trkpt lat="20.933378" lon="107.044838"><ele>-21.5</ele><time>2011-04-30T08:51:20.0000000+00:00</time></trkpt><trkpt lat="20.933489" lon="107.044891"><ele>-20.7</ele><time>2011-04-30T08:51:25.0000000+00:00</time></trkpt><trkpt lat="20.933592" lon="107.044945"><ele>-20.1</ele><time>2011-04-30T08:51:30.0000000+00:00</time></trkpt><trkpt lat="20.933701" lon="107.044998"><ele>-19.8</ele><time>2011-04-30T08:51:35.0000000+00:00</time></trkpt><trkpt lat="20.933811" lon="107.045052"><ele>-18.3</ele><time>2011-04-30T08:51:40.0000000+00:00</time></trkpt><trkpt lat="20.933916" lon="107.045113"><ele>-17.6</ele><time>2011-04-30T08:51:45.0000000+00:00</time></trkpt><trkpt lat="20.934029" lon="107.045166"><ele>-17.0</ele><time>2011-04-30T08:51:50.0000000+00:00</time></trkpt><trkpt lat="20.934137" lon="107.045219"><ele>-18.2</ele><time>2011-04-30T08:51:55.0000000+00:00</time></trkpt><trkpt lat="20.934252" lon="107.045265"><ele>-16.0</ele><time>2011-04-30T08:52:00.0000000+00:00</time></trkpt><trkpt lat="20.934362" lon="107.045319"><ele>-14.6</ele><time>2011-04-30T08:52:05.0000000+00:00</time></trkpt><trkpt lat="20.934471" lon="107.045372"><ele>-14.8</ele><time>2011-04-30T08:52:10.0000000+00:00</time></trkpt><trkpt lat="20.934582" lon="107.045433"><ele>-15.1</ele><time>2011-04-30T08:52:15.0000000+00:00</time></trkpt><trkpt lat="20.934687" lon="107.045486"><ele>-15.4</ele><time>2011-04-30T08:52:20.0000000+00:00</time></trkpt><trkpt lat="20.934795" lon="107.045532"><ele>-16.0</ele><time>2011-04-30T08:52:25.0000000+00:00</time></trkpt><trkpt lat="20.934902" lon="107.045593"><ele>-17.1</ele><time>2011-04-30T08:52:30.0000000+00:00</time></trkpt><trkpt lat="20.935011" lon="107.045647"><ele>-17.0</ele><time>2011-04-30T08:52:35.0000000+00:00</time></trkpt><trkpt lat="20.935123" lon="107.0457"><ele>-16.8</ele><time>2011-04-30T08:52:40.0000000+00:00</time></trkpt><trkpt lat="20.935232" lon="107.045753"><ele>-16.1</ele><time>2011-04-30T08:52:45.0000000+00:00</time></trkpt><trkpt lat="20.935349" lon="107.045815"><ele>-14.6</ele><time>2011-04-30T08:52:50.0000000+00:00</time></trkpt><trkpt lat="20.935453" lon="107.045868"><ele>-14.5</ele><time>2011-04-30T08:52:55.0000000+00:00</time></trkpt><trkpt lat="20.935562" lon="107.045914"><ele>-15.1</ele><time>2011-04-30T08:53:00.0000000+00:00</time></trkpt><trkpt lat="20.935678" lon="107.045967"><ele>-14.2</ele><time>2011-04-30T08:53:05.0000000+00:00</time></trkpt><trkpt lat="20.935791" lon="107.046021"><ele>-14.4</ele><time>2011-04-30T08:53:10.0000000+00:00</time></trkpt><trkpt lat="20.9359" lon="107.046082"><ele>-15.0</ele><time>2011-04-30T08:53:15.0000000+00:00</time></trkpt><trkpt lat="20.936005" lon="107.046143"><ele>-14.9</ele><time>2011-04-30T08:53:20.0000000+00:00</time></trkpt><trkpt lat="20.93611" lon="107.046204"><ele>-15.5</ele><time>2011-04-30T08:53:25.0000000+00:00</time></trkpt><trkpt lat="20.936207" lon="107.046272"><ele>-17.6</ele><time>2011-04-30T08:53:30.0000000+00:00</time></trkpt><trkpt lat="20.936312" lon="107.046333"><ele>-18.4</ele><time>2011-04-30T08:53:35.0000000+00:00</time></trkpt><trkpt lat="20.936426" lon="107.046394"><ele>-17.7</ele><time>2011-04-30T08:53:40.0000000+00:00</time></trkpt><trkpt lat="20.936541" lon="107.046463"><ele>-17.3</ele><time>2011-04-30T08:53:45.0000000+00:00</time></trkpt><trkpt lat="20.936649" lon="107.046524"><ele>-17.6</ele><time>2011-04-30T08:53:50.0000000+00:00</time></trkpt><trkpt lat="20.93676" lon="107.046585"><ele>-17.5</ele><time>2011-04-30T08:53:55.0000000+00:00</time></trkpt><trkpt lat="20.936869" lon="107.046654"><ele>-17.9</ele><time>2011-04-30T08:54:00.0000000+00:00</time></trkpt><trkpt lat="20.936975" lon="107.046707"><ele>-18.0</ele><time>2011-04-30T08:54:05.0000000+00:00</time></trkpt><trkpt lat="20.937078" lon="107.046761"><ele>-17.5</ele><time>2011-04-30T08:54:10.0000000+00:00</time></trkpt><trkpt lat="20.937193" lon="107.046814"><ele>-17.4</ele><time>2011-04-30T08:54:15.0000000+00:00</time></trkpt><trkpt lat="20.9373" lon="107.04686"><ele>-17.6</ele><time>2011-04-30T08:54:20.0000000+00:00</time></trkpt><trkpt lat="20.937414" lon="107.046913"><ele>-17.8</ele><time>2011-04-30T08:54:25.0000000+00:00</time></trkpt><trkpt lat="20.937527" lon="107.046967"><ele>-17.6</ele><time>2011-04-30T08:54:30.0000000+00:00</time></trkpt><trkpt lat="20.93763" lon="107.047028"><ele>-18.1</ele><time>2011-04-30T08:54:35.0000000+00:00</time></trkpt><trkpt lat="20.937731" lon="107.047089"><ele>-18.5</ele><time>2011-04-30T08:54:40.0000000+00:00</time></trkpt><trkpt lat="20.93784" lon="107.04715"><ele>-18.4</ele><time>2011-04-30T08:54:45.0000000+00:00</time></trkpt><trkpt lat="20.937954" lon="107.047203"><ele>-18.0</ele><time>2011-04-30T08:54:50.0000000+00:00</time></trkpt><trkpt lat="20.938068" lon="107.047256"><ele>-17.5</ele><time>2011-04-30T08:54:55.0000000+00:00</time></trkpt><trkpt lat="20.938175" lon="107.047318"><ele>-17.4</ele><time>2011-04-30T08:55:00.0000000+00:00</time></trkpt><trkpt lat="20.938286" lon="107.047371"><ele>-16.4</ele><time>2011-04-30T08:55:05.0000000+00:00</time></trkpt><trkpt lat="20.938402" lon="107.047424"><ele>-16.0</ele><time>2011-04-30T08:55:10.0000000+00:00</time></trkpt><trkpt lat="20.938509" lon="107.047478"><ele>-15.9</ele><time>2011-04-30T08:55:15.0000000+00:00</time></trkpt><trkpt lat="20.938625" lon="107.047531"><ele>-15.2</ele><time>2011-04-30T08:55:20.0000000+00:00</time></trkpt><trkpt lat="20.938736" lon="107.047585"><ele>-14.6</ele><time>2011-04-30T08:55:25.0000000+00:00</time></trkpt><trkpt lat="20.938845" lon="107.04763"><ele>-13.8</ele><time>2011-04-30T08:55:30.0000000+00:00</time></trkpt><trkpt lat="20.938951" lon="107.047684"><ele>-13.3</ele><time>2011-04-30T08:55:35.0000000+00:00</time></trkpt><trkpt lat="20.939064" lon="107.047745"><ele>-13.4</ele><time>2011-04-30T08:55:40.0000000+00:00</time></trkpt><trkpt lat="20.939175" lon="107.047798"><ele>-13.1</ele><time>2011-04-30T08:55:45.0000000+00:00</time></trkpt><trkpt lat="20.939281" lon="107.047859"><ele>-12.6</ele><time>2011-04-30T08:55:50.0000000+00:00</time></trkpt><trkpt lat="20.939392" lon="107.047913"><ele>-12.4</ele><time>2011-04-30T08:55:55.0000000+00:00</time></trkpt><trkpt lat="20.939501" lon="107.047958"><ele>-12.1</ele><time>2011-04-30T08:56:00.0000000+00:00</time></trkpt><trkpt lat="20.939613" lon="107.048012"><ele>-12.4</ele><time>2011-04-30T08:56:05.0000000+00:00</time></trkpt><trkpt lat="20.939728" lon="107.048058"><ele>-11.4</ele><time>2011-04-30T08:56:10.0000000+00:00</time></trkpt><trkpt lat="20.939842" lon="107.048111"><ele>-11.4</ele><time>2011-04-30T08:56:15.0000000+00:00</time></trkpt><trkpt lat="20.939955" lon="107.048164"><ele>-11.7</ele><time>2011-04-30T08:56:20.0000000+00:00</time></trkpt><trkpt lat="20.940065" lon="107.048218"><ele>-11.9</ele><time>2011-04-30T08:56:25.0000000+00:00</time></trkpt><trkpt lat="20.940182" lon="107.048279"><ele>-11.4</ele><time>2011-04-30T08:56:30.0000000+00:00</time></trkpt><trkpt lat="20.940296" lon="107.04834"><ele>-11.4</ele><time>2011-04-30T08:56:35.0000000+00:00</time></trkpt><trkpt lat="20.940401" lon="107.048393"><ele>-11.2</ele><time>2011-04-30T08:56:40.0000000+00:00</time></trkpt><trkpt lat="20.940512" lon="107.048454"><ele>-12.2</ele><time>2011-04-30T08:56:45.0000000+00:00</time></trkpt><trkpt lat="20.940622" lon="107.048515"><ele>-11.9</ele><time>2011-04-30T08:56:50.0000000+00:00</time></trkpt><trkpt lat="20.940725" lon="107.048576"><ele>-12.2</ele><time>2011-04-30T08:56:55.0000000+00:00</time></trkpt><trkpt lat="20.940844" lon="107.048645"><ele>-11.1</ele><time>2011-04-30T08:57:00.0000000+00:00</time></trkpt><trkpt lat="20.940948" lon="107.048714"><ele>-10.1</ele><time>2011-04-30T08:57:05.0000000+00:00</time></trkpt><trkpt lat="20.941053" lon="107.048782"><ele>-8.2</ele><time>2011-04-30T08:57:10.0000000+00:00</time></trkpt><trkpt lat="20.94116" lon="107.048851"><ele>-7.4</ele><time>2011-04-30T08:57:15.0000000+00:00</time></trkpt><trkpt lat="20.941269" lon="107.048912"><ele>-8.4</ele><time>2011-04-30T08:57:20.0000000+00:00</time></trkpt><trkpt lat="20.94138" lon="107.048965"><ele>-9.3</ele><time>2011-04-30T08:57:25.0000000+00:00</time></trkpt><trkpt lat="20.941486" lon="107.049026"><ele>-8.4</ele><time>2011-04-30T08:57:30.0000000+00:00</time></trkpt><trkpt lat="20.941597" lon="107.04908"><ele>-7.6</ele><time>2011-04-30T08:57:35.0000000+00:00</time></trkpt><trkpt lat="20.941711" lon="107.049133"><ele>-6.8</ele><time>2011-04-30T08:57:40.0000000+00:00</time></trkpt><trkpt lat="20.94182" lon="107.049187"><ele>-6.5</ele><time>2011-04-30T08:57:45.0000000+00:00</time></trkpt><trkpt lat="20.941935" lon="107.049232"><ele>-6.3</ele><time>2011-04-30T08:57:50.0000000+00:00</time></trkpt><trkpt lat="20.942045" lon="107.049286"><ele>-6.7</ele><time>2011-04-30T08:57:55.0000000+00:00</time></trkpt><trkpt lat="20.942156" lon="107.049332"><ele>-5.6</ele><time>2011-04-30T08:58:00.0000000+00:00</time></trkpt><trkpt lat="20.942274" lon="107.049377"><ele>-7.2</ele><time>2011-04-30T08:58:05.0000000+00:00</time></trkpt><trkpt lat="20.942389" lon="107.049423"><ele>-7.6</ele><time>2011-04-30T08:58:10.0000000+00:00</time></trkpt><trkpt lat="20.942503" lon="107.049469"><ele>-9.3</ele><time>2011-04-30T08:58:15.0000000+00:00</time></trkpt><trkpt lat="20.942621" lon="107.049515"><ele>-12.7</ele><time>2011-04-30T08:58:20.0000000+00:00</time></trkpt><trkpt lat="20.942738" lon="107.049561"><ele>-13.2</ele><time>2011-04-30T08:58:25.0000000+00:00</time></trkpt><trkpt lat="20.942852" lon="107.049622"><ele>-15.2</ele><time>2011-04-30T08:58:30.0000000+00:00</time></trkpt><trkpt lat="20.942968" lon="107.049683"><ele>-13.8</ele><time>2011-04-30T08:58:35.0000000+00:00</time></trkpt><trkpt lat="20.943083" lon="107.049728"><ele>-14.1</ele><time>2011-04-30T08:58:40.0000000+00:00</time></trkpt><trkpt lat="20.94319" lon="107.049789"><ele>-12.8</ele><time>2011-04-30T08:58:45.0000000+00:00</time></trkpt><trkpt lat="20.943302" lon="107.04985"><ele>-13.1</ele><time>2011-04-30T08:58:50.0000000+00:00</time></trkpt><trkpt lat="20.943415" lon="107.049911"><ele>-12.4</ele><time>2011-04-30T08:58:55.0000000+00:00</time></trkpt><trkpt lat="20.943525" lon="107.049973"><ele>-12.7</ele><time>2011-04-30T08:59:00.0000000+00:00</time></trkpt><trkpt lat="20.943636" lon="107.050034"><ele>-15.6</ele><time>2011-04-30T08:59:05.0000000+00:00</time></trkpt><trkpt lat="20.943754" lon="107.050095"><ele>-14.2</ele><time>2011-04-30T08:59:10.0000000+00:00</time></trkpt><trkpt lat="20.943863" lon="107.050163"><ele>-13.7</ele><time>2011-04-30T08:59:15.0000000+00:00</time></trkpt><trkpt lat="20.943977" lon="107.050217"><ele>-13.2</ele><time>2011-04-30T08:59:20.0000000+00:00</time></trkpt><trkpt lat="20.944094" lon="107.050262"><ele>-18.8</ele><time>2011-04-30T08:59:25.0000000+00:00</time></trkpt><trkpt lat="20.944202" lon="107.050316"><ele>-18.7</ele><time>2011-04-30T08:59:30.0000000+00:00</time></trkpt><trkpt lat="20.944315" lon="107.050377"><ele>-18.5</ele><time>2011-04-30T08:59:35.0000000+00:00</time></trkpt><trkpt lat="20.944422" lon="107.050438"><ele>-18.3</ele><time>2011-04-30T08:59:40.0000000+00:00</time></trkpt><trkpt lat="20.944523" lon="107.050514"><ele>-21.1</ele><time>2011-04-30T08:59:45.0000000+00:00</time></trkpt><trkpt lat="20.944637" lon="107.050575"><ele>-21.5</ele><time>2011-04-30T08:59:50.0000000+00:00</time></trkpt><trkpt lat="20.944748" lon="107.050636"><ele>-21.3</ele><time>2011-04-30T08:59:55.0000000+00:00</time></trkpt><trkpt lat="20.944859" lon="107.050697"><ele>-21.2</ele><time>2011-04-30T09:00:00.0000000+00:00</time></trkpt><trkpt lat="20.944967" lon="107.050774"><ele>-21.7</ele><time>2011-04-30T09:00:05.0000000+00:00</time></trkpt><trkpt lat="20.945072" lon="107.050842"><ele>-22.7</ele><time>2011-04-30T09:00:10.0000000+00:00</time></trkpt><trkpt lat="20.945181" lon="107.050903"><ele>-21.2</ele><time>2011-04-30T09:00:15.0000000+00:00</time></trkpt><trkpt lat="20.945288" lon="107.050964"><ele>-20.8</ele><time>2011-04-30T09:00:20.0000000+00:00</time></trkpt><trkpt lat="20.9454" lon="107.051018"><ele>-21.9</ele><time>2011-04-30T09:00:25.0000000+00:00</time></trkpt><trkpt lat="20.945511" lon="107.051086"><ele>-21.6</ele><time>2011-04-30T09:00:30.0000000+00:00</time></trkpt><trkpt lat="20.945625" lon="107.05114"><ele>-22.6</ele><time>2011-04-30T09:00:35.0000000+00:00</time></trkpt><trkpt lat="20.945738" lon="107.051193"><ele>-23.1</ele><time>2011-04-30T09:00:40.0000000+00:00</time></trkpt><trkpt lat="20.945848" lon="107.051247"><ele>-23.9</ele><time>2011-04-30T09:00:45.0000000+00:00</time></trkpt><trkpt lat="20.945967" lon="107.051292"><ele>-23.0</ele><time>2011-04-30T09:00:50.0000000+00:00</time></trkpt><trkpt lat="20.946079" lon="107.051346"><ele>-22.4</ele><time>2011-04-30T09:00:55.0000000+00:00</time></trkpt><trkpt lat="20.946196" lon="107.051392"><ele>-22.5</ele><time>2011-04-30T09:01:00.0000000+00:00</time></trkpt><trkpt lat="20.94631" lon="107.051445"><ele>-23.0</ele><time>2011-04-30T09:01:05.0000000+00:00</time></trkpt><trkpt lat="20.94643" lon="107.051491"><ele>-21.8</ele><time>2011-04-30T09:01:10.0000000+00:00</time></trkpt><trkpt lat="20.946552" lon="107.051529"><ele>-22.6</ele><time>2011-04-30T09:01:15.0000000+00:00</time></trkpt><trkpt lat="20.946667" lon="107.051575"><ele>-23.8</ele><time>2011-04-30T09:01:20.0000000+00:00</time></trkpt><trkpt lat="20.946775" lon="107.05162"><ele>-23.5</ele><time>2011-04-30T09:01:25.0000000+00:00</time></trkpt><trkpt lat="20.946896" lon="107.051674"><ele>-24.0</ele><time>2011-04-30T09:01:30.0000000+00:00</time></trkpt><trkpt lat="20.947006" lon="107.051727"><ele>-23.8</ele><time>2011-04-30T09:01:35.0000000+00:00</time></trkpt><trkpt lat="20.947124" lon="107.051773"><ele>-24.2</ele><time>2011-04-30T09:01:40.0000000+00:00</time></trkpt><trkpt lat="20.947239" lon="107.051819"><ele>-24.7</ele><time>2011-04-30T09:01:45.0000000+00:00</time></trkpt><trkpt lat="20.947351" lon="107.051872"><ele>-24.1</ele><time>2011-04-30T09:01:50.0000000+00:00</time></trkpt><trkpt lat="20.947466" lon="107.051926"><ele>-22.7</ele><time>2011-04-30T09:01:55.0000000+00:00</time></trkpt><trkpt lat="20.947578" lon="107.051979"><ele>-21.9</ele><time>2011-04-30T09:02:00.0000000+00:00</time></trkpt><trkpt lat="20.947693" lon="107.052032"><ele>-20.9</ele><time>2011-04-30T09:02:05.0000000+00:00</time></trkpt><trkpt lat="20.947807" lon="107.052086"><ele>-20.2</ele><time>2011-04-30T09:02:10.0000000+00:00</time></trkpt><trkpt lat="20.947926" lon="107.052132"><ele>-20.0</ele><time>2011-04-30T09:02:15.0000000+00:00</time></trkpt><trkpt lat="20.94804" lon="107.052185"><ele>-18.6</ele><time>2011-04-30T09:02:20.0000000+00:00</time></trkpt><trkpt lat="20.948153" lon="107.052231"><ele>-17.2</ele><time>2011-04-30T09:02:25.0000000+00:00</time></trkpt><trkpt lat="20.948267" lon="107.052277"><ele>-18.7</ele><time>2011-04-30T09:02:30.0000000+00:00</time></trkpt><trkpt lat="20.948381" lon="107.05233"><ele>-18.0</ele><time>2011-04-30T09:02:35.0000000+00:00</time></trkpt><trkpt lat="20.948494" lon="107.052376"><ele>-17.5</ele><time>2011-04-30T09:02:40.0000000+00:00</time></trkpt><trkpt lat="20.948608" lon="107.052429"><ele>-17.0</ele><time>2011-04-30T09:02:45.0000000+00:00</time></trkpt><trkpt lat="20.948725" lon="107.05249"><ele>-17.8</ele><time>2011-04-30T09:02:50.0000000+00:00</time></trkpt><trkpt lat="20.948837" lon="107.052536"><ele>-19.6</ele><time>2011-04-30T09:02:55.0000000+00:00</time></trkpt><trkpt lat="20.948954" lon="107.052582"><ele>-19.4</ele><time>2011-04-30T09:03:00.0000000+00:00</time></trkpt><trkpt lat="20.949066" lon="107.052635"><ele>-18.4</ele><time>2011-04-30T09:03:05.0000000+00:00</time></trkpt><trkpt lat="20.949181" lon="107.052689"><ele>-18.6</ele><time>2011-04-30T09:03:10.0000000+00:00</time></trkpt><trkpt lat="20.949297" lon="107.052734"><ele>-18.9</ele><time>2011-04-30T09:03:15.0000000+00:00</time></trkpt><trkpt lat="20.949413" lon="107.052788"><ele>-19.2</ele><time>2011-04-30T09:03:20.0000000+00:00</time></trkpt><trkpt lat="20.949526" lon="107.052849"><ele>-18.9</ele><time>2011-04-30T09:03:25.0000000+00:00</time></trkpt><trkpt lat="20.949642" lon="107.052895"><ele>-18.5</ele><time>2011-04-30T09:03:30.0000000+00:00</time></trkpt><trkpt lat="20.949759" lon="107.05294"><ele>-17.7</ele><time>2011-04-30T09:03:35.0000000+00:00</time></trkpt><trkpt lat="20.949873" lon="107.052994"><ele>-17.5</ele><time>2011-04-30T09:03:40.0000000+00:00</time></trkpt><trkpt lat="20.949989" lon="107.053047"><ele>-15.9</ele><time>2011-04-30T09:03:45.0000000+00:00</time></trkpt><trkpt lat="20.950108" lon="107.053093"><ele>-15.2</ele><time>2011-04-30T09:03:50.0000000+00:00</time></trkpt><trkpt lat="20.950224" lon="107.053139"><ele>-15.0</ele><time>2011-04-30T09:03:55.0000000+00:00</time></trkpt><trkpt lat="20.95034" lon="107.053185"><ele>-15.0</ele><time>2011-04-30T09:04:00.0000000+00:00</time></trkpt><trkpt lat="20.950457" lon="107.05323"><ele>-14.5</ele><time>2011-04-30T09:04:05.0000000+00:00</time></trkpt><trkpt lat="20.950569" lon="107.053284"><ele>-15.1</ele><time>2011-04-30T09:04:10.0000000+00:00</time></trkpt><trkpt lat="20.950682" lon="107.053337"><ele>-15.3</ele><time>2011-04-30T09:04:15.0000000+00:00</time></trkpt><trkpt lat="20.950802" lon="107.053383"><ele>-12.8</ele><time>2011-04-30T09:04:20.0000000+00:00</time></trkpt><trkpt lat="20.95092" lon="107.053436"><ele>-10.3</ele><time>2011-04-30T09:04:25.0000000+00:00</time></trkpt><trkpt lat="20.951036" lon="107.053482"><ele>-8.3</ele><time>2011-04-30T09:04:30.0000000+00:00</time></trkpt><trkpt lat="20.951151" lon="107.05352"><ele>-6.8</ele><time>2011-04-30T09:04:35.0000000+00:00</time></trkpt><trkpt lat="20.951256" lon="107.053558"><ele>-8.3</ele><time>2011-04-30T09:04:40.0000000+00:00</time></trkpt><trkpt lat="20.951363" lon="107.053596"><ele>-8.8</ele><time>2011-04-30T09:04:45.0000000+00:00</time></trkpt><trkpt lat="20.951466" lon="107.053642"><ele>-7.3</ele><time>2011-04-30T09:04:50.0000000+00:00</time></trkpt><trkpt lat="20.951567" lon="107.053696"><ele>-6.3</ele><time>2011-04-30T09:04:55.0000000+00:00</time></trkpt><trkpt lat="20.951675" lon="107.053749"><ele>-4.2</ele><time>2011-04-30T09:05:00.0000000+00:00</time></trkpt><trkpt lat="20.951788" lon="107.053787"><ele>-4.3</ele><time>2011-04-30T09:05:05.0000000+00:00</time></trkpt><trkpt lat="20.951893" lon="107.053825"><ele>-5.1</ele><time>2011-04-30T09:05:10.0000000+00:00</time></trkpt><trkpt lat="20.951996" lon="107.053871"><ele>-7.4</ele><time>2011-04-30T09:05:15.0000000+00:00</time></trkpt><trkpt lat="20.952087" lon="107.053909"><ele>-10.5</ele><time>2011-04-30T09:05:20.0000000+00:00</time></trkpt><trkpt lat="20.952187" lon="107.053947"><ele>-11.0</ele><time>2011-04-30T09:05:25.0000000+00:00</time></trkpt><trkpt lat="20.952286" lon="107.053986"><ele>-8.5</ele><time>2011-04-30T09:05:30.0000000+00:00</time></trkpt><trkpt lat="20.952393" lon="107.054024"><ele>-5.9</ele><time>2011-04-30T09:05:35.0000000+00:00</time></trkpt><trkpt lat="20.952499" lon="107.05407"><ele>-7.4</ele><time>2011-04-30T09:05:40.0000000+00:00</time></trkpt><trkpt lat="20.952602" lon="107.054115"><ele>-8.1</ele><time>2011-04-30T09:05:45.0000000+00:00</time></trkpt><trkpt lat="20.952705" lon="107.054161"><ele>-5.6</ele><time>2011-04-30T09:05:50.0000000+00:00</time></trkpt><trkpt lat="20.952808" lon="107.054199"><ele>-6.6</ele><time>2011-04-30T09:05:55.0000000+00:00</time></trkpt><trkpt lat="20.952919" lon="107.054237"><ele>-4.1</ele><time>2011-04-30T09:06:00.0000000+00:00</time></trkpt><trkpt lat="20.95303" lon="107.054276"><ele>-2.1</ele><time>2011-04-30T09:06:05.0000000+00:00</time></trkpt><trkpt lat="20.953133" lon="107.054314"><ele>-3.3</ele><time>2011-04-30T09:06:10.0000000+00:00</time></trkpt><trkpt lat="20.953241" lon="107.054352"><ele>-5.2</ele><time>2011-04-30T09:06:15.0000000+00:00</time></trkpt><trkpt lat="20.953356" lon="107.054382"><ele>-7.1</ele><time>2011-04-30T09:06:20.0000000+00:00</time></trkpt><trkpt lat="20.953466" lon="107.054405"><ele>-7.7</ele><time>2011-04-30T09:06:25.0000000+00:00</time></trkpt><trkpt lat="20.953579" lon="107.054428"><ele>-8.7</ele><time>2011-04-30T09:06:30.0000000+00:00</time></trkpt><trkpt lat="20.953684" lon="107.054451"><ele>-9.1</ele><time>2011-04-30T09:06:35.0000000+00:00</time></trkpt><trkpt lat="20.953775" lon="107.054466"><ele>-8.7</ele><time>2011-04-30T09:06:40.0000000+00:00</time></trkpt><trkpt lat="20.953861" lon="107.054482"><ele>-8.7</ele><time>2011-04-30T09:06:45.0000000+00:00</time></trkpt><trkpt lat="20.953932" lon="107.054497"><ele>-8.6</ele><time>2011-04-30T09:06:50.0000000+00:00</time></trkpt><trkpt lat="20.954012" lon="107.05452"><ele>-10.9</ele><time>2011-04-30T09:06:55.0000000+00:00</time></trkpt><trkpt lat="20.954079" lon="107.054558"><ele>-11.8</ele><time>2011-04-30T09:07:00.0000000+00:00</time></trkpt><trkpt lat="20.954149" lon="107.054611"><ele>-11.5</ele><time>2011-04-30T09:07:05.0000000+00:00</time></trkpt><trkpt lat="20.954212" lon="107.054672"><ele>-11.9</ele><time>2011-04-30T09:07:10.0000000+00:00</time></trkpt><trkpt lat="20.954269" lon="107.054741"><ele>-12.8</ele><time>2011-04-30T09:07:15.0000000+00:00</time></trkpt><trkpt lat="20.954321" lon="107.054817"><ele>-13.1</ele><time>2011-04-30T09:07:20.0000000+00:00</time></trkpt><trkpt lat="20.954372" lon="107.054893"><ele>-13.6</ele><time>2011-04-30T09:07:25.0000000+00:00</time></trkpt><trkpt lat="20.954433" lon="107.054977"><ele>-14.8</ele><time>2011-04-30T09:07:30.0000000+00:00</time></trkpt><trkpt lat="20.954493" lon="107.055061"><ele>-14.3</ele><time>2011-04-30T09:07:35.0000000+00:00</time></trkpt><trkpt lat="20.954556" lon="107.055145"><ele>-15.1</ele><time>2011-04-30T09:07:40.0000000+00:00</time></trkpt><trkpt lat="20.954618" lon="107.055229"><ele>-15.8</ele><time>2011-04-30T09:07:45.0000000+00:00</time></trkpt><trkpt lat="20.954678" lon="107.055313"><ele>-16.4</ele><time>2011-04-30T09:07:50.0000000+00:00</time></trkpt><trkpt lat="20.954735" lon="107.055397"><ele>-15.5</ele><time>2011-04-30T09:07:55.0000000+00:00</time></trkpt><trkpt lat="20.9548" lon="107.055489"><ele>-15.0</ele><time>2011-04-30T09:08:00.0000000+00:00</time></trkpt><trkpt lat="20.954859" lon="107.055565"><ele>-15.3</ele><time>2011-04-30T09:08:05.0000000+00:00</time></trkpt><trkpt lat="20.954918" lon="107.055641"><ele>-16.0</ele><time>2011-04-30T09:08:10.0000000+00:00</time></trkpt><trkpt lat="20.954966" lon="107.055717"><ele>-14.1</ele><time>2011-04-30T09:08:15.0000000+00:00</time></trkpt><trkpt lat="20.955011" lon="107.055779"><ele>-13.8</ele><time>2011-04-30T09:08:20.0000000+00:00</time></trkpt><trkpt lat="20.955055" lon="107.05584"><ele>-12.4</ele><time>2011-04-30T09:08:25.0000000+00:00</time></trkpt><trkpt lat="20.955103" lon="107.055893"><ele>-11.7</ele><time>2011-04-30T09:08:30.0000000+00:00</time></trkpt><trkpt lat="20.955149" lon="107.055931"><ele>-11.1</ele><time>2011-04-30T09:08:35.0000000+00:00</time></trkpt><trkpt lat="20.955198" lon="107.055977"><ele>-10.9</ele><time>2011-04-30T09:08:40.0000000+00:00</time></trkpt><trkpt lat="20.955257" lon="107.056015"><ele>-11.0</ele><time>2011-04-30T09:08:45.0000000+00:00</time></trkpt><trkpt lat="20.955328" lon="107.05603"><ele>-9.9</ele><time>2011-04-30T09:08:50.0000000+00:00</time></trkpt><trkpt lat="20.955393" lon="107.056038"><ele>-9.5</ele><time>2011-04-30T09:08:55.0000000+00:00</time></trkpt><trkpt lat="20.955456" lon="107.05603"><ele>-9.3</ele><time>2011-04-30T09:09:00.0000000+00:00</time></trkpt><trkpt lat="20.955515" lon="107.056023"><ele>-9.5</ele><time>2011-04-30T09:09:05.0000000+00:00</time></trkpt><trkpt lat="20.95558" lon="107.056015"><ele>-9.9</ele><time>2011-04-30T09:09:10.0000000+00:00</time></trkpt><trkpt lat="20.955637" lon="107.055984"><ele>-11.7</ele><time>2011-04-30T09:09:15.0000000+00:00</time></trkpt><trkpt lat="20.9557" lon="107.055962"><ele>-12.9</ele><time>2011-04-30T09:09:20.0000000+00:00</time></trkpt><trkpt lat="20.955769" lon="107.055923"><ele>-13.1</ele><time>2011-04-30T09:09:25.0000000+00:00</time></trkpt><trkpt lat="20.955824" lon="107.055893"><ele>-14.6</ele><time>2011-04-30T09:09:30.0000000+00:00</time></trkpt><trkpt lat="20.955891" lon="107.055862"><ele>-15.2</ele><time>2011-04-30T09:09:35.0000000+00:00</time></trkpt><trkpt lat="20.955956" lon="107.055824"><ele>-16.5</ele><time>2011-04-30T09:09:40.0000000+00:00</time></trkpt><trkpt lat="20.956018" lon="107.055794"><ele>-17.5</ele><time>2011-04-30T09:09:45.0000000+00:00</time></trkpt><trkpt lat="20.956083" lon="107.055763"><ele>-18.9</ele><time>2011-04-30T09:09:50.0000000+00:00</time></trkpt><trkpt lat="20.956142" lon="107.055733"><ele>-19.7</ele><time>2011-04-30T09:09:55.0000000+00:00</time></trkpt><trkpt lat="20.956184" lon="107.05571"><ele>-19.6</ele><time>2011-04-30T09:10:00.0000000+00:00</time></trkpt><trkpt lat="20.956223" lon="107.055695"><ele>-19.1</ele><time>2011-04-30T09:10:05.0000000+00:00</time></trkpt><trkpt lat="20.956244" lon="107.055679"><ele>-18.7</ele><time>2011-04-30T09:10:10.0000000+00:00</time></trkpt><trkpt lat="20.956257" lon="107.055672"><ele>-17.3</ele><time>2011-04-30T09:10:15.0000000+00:00</time></trkpt><trkpt lat="20.956266" lon="107.055679"><ele>-15.7</ele><time>2011-04-30T09:10:20.0000000+00:00</time></trkpt><trkpt lat="20.956276" lon="107.055656"><ele>-13.1</ele><time>2011-04-30T09:10:25.0000000+00:00</time></trkpt><trkpt lat="20.956268" lon="107.055634"><ele>-9.2</ele><time>2011-04-30T09:10:30.0000000+00:00</time></trkpt><trkpt lat="20.956253" lon="107.055634"><ele>-8.0</ele><time>2011-04-30T09:10:35.0000000+00:00</time></trkpt><trkpt lat="20.956251" lon="107.055611"><ele>-7.4</ele><time>2011-04-30T09:10:40.0000000+00:00</time></trkpt><trkpt lat="20.956253" lon="107.055618"><ele>-7.4</ele><time>2011-04-30T09:10:45.0000000+00:00</time></trkpt><trkpt lat="20.956253" lon="107.055618"><ele>-7.3</ele><time>2011-04-30T09:10:50.0000000+00:00</time></trkpt><trkpt lat="20.956249" lon="107.055618"><ele>-7.3</ele><time>2011-04-30T09:10:55.0000000+00:00</time></trkpt><trkpt lat="20.956251" lon="107.055618"><ele>-7.3</ele><time>2011-04-30T09:11:00.0000000+00:00</time></trkpt><trkpt lat="20.956251" lon="107.055618"><ele>-7.3</ele><time>2011-04-30T09:11:05.0000000+00:00</time></trkpt><trkpt lat="20.956266" lon="107.055603"><ele>-8.1</ele><time>2011-04-30T09:11:10.0000000+00:00</time></trkpt><trkpt lat="20.956276" lon="107.055603"><ele>-8.3</ele><time>2011-04-30T09:11:15.0000000+00:00</time></trkpt><trkpt lat="20.956284" lon="107.055595"><ele>-7.6</ele><time>2011-04-30T09:11:20.0000000+00:00</time></trkpt><trkpt lat="20.95628" lon="107.055603"><ele>-7.0</ele><time>2011-04-30T09:11:25.0000000+00:00</time></trkpt><trkpt lat="20.956282" lon="107.055603"><ele>-6.7</ele><time>2011-04-30T09:11:30.0000000+00:00</time></trkpt><trkpt lat="20.956291" lon="107.055588"><ele>-6.4</ele><time>2011-04-30T09:11:35.0000000+00:00</time></trkpt><trkpt lat="20.956295" lon="107.055573"><ele>-6.9</ele><time>2011-04-30T09:11:40.0000000+00:00</time></trkpt><trkpt lat="20.956293" lon="107.055573"><ele>-6.6</ele><time>2011-04-30T09:11:45.0000000+00:00</time></trkpt><trkpt lat="20.956301" lon="107.055565"><ele>-6.6</ele><time>2011-04-30T09:11:50.0000000+00:00</time></trkpt><trkpt lat="20.956324" lon="107.055565"><ele>-7.1</ele><time>2011-04-30T09:11:55.0000000+00:00</time></trkpt><trkpt lat="20.956341" lon="107.055542"><ele>-7.1</ele><time>2011-04-30T09:12:00.0000000+00:00</time></trkpt><trkpt lat="20.956345" lon="107.055565"><ele>-5.4</ele><time>2011-04-30T09:12:05.0000000+00:00</time></trkpt><trkpt lat="20.956362" lon="107.055588"><ele>-5.2</ele><time>2011-04-30T09:12:10.0000000+00:00</time></trkpt><trkpt lat="20.956362" lon="107.055595"><ele>-4.2</ele><time>2011-04-30T09:12:15.0000000+00:00</time></trkpt><trkpt lat="20.956369" lon="107.055595"><ele>-3.6</ele><time>2011-04-30T09:12:20.0000000+00:00</time></trkpt><trkpt lat="20.956377" lon="107.055641"><ele>-3.0</ele><time>2011-04-30T09:12:25.0000000+00:00</time></trkpt><trkpt lat="20.956392" lon="107.055695"><ele>0.5</ele><time>2011-04-30T09:12:30.0000000+00:00</time></trkpt><trkpt lat="20.956392" lon="107.055733"><ele>1.7</ele><time>2011-04-30T09:12:35.0000000+00:00</time></trkpt><trkpt lat="20.956394" lon="107.055763"><ele>2.1</ele><time>2011-04-30T09:12:40.0000000+00:00</time></trkpt><trkpt lat="20.956388" lon="107.055779"><ele>2.7</ele><time>2011-04-30T09:12:45.0000000+00:00</time></trkpt><trkpt lat="20.956383" lon="107.055779"><ele>2.8</ele><time>2011-04-30T09:12:50.0000000+00:00</time></trkpt><trkpt lat="20.956385" lon="107.055779"><ele>2.7</ele><time>2011-04-30T09:12:55.0000000+00:00</time></trkpt><trkpt lat="20.956385" lon="107.055779"><ele>2.9</ele><time>2011-04-30T09:13:00.0000000+00:00</time></trkpt><trkpt lat="20.956381" lon="107.055794"><ele>3.2</ele><time>2011-04-30T09:13:05.0000000+00:00</time></trkpt><trkpt lat="20.956377" lon="107.055809"><ele>3.7</ele><time>2011-04-30T09:13:10.0000000+00:00</time></trkpt><trkpt lat="20.956377" lon="107.055817"><ele>3.6</ele><time>2011-04-30T09:13:15.0000000+00:00</time></trkpt><trkpt lat="20.956381" lon="107.055817"><ele>3.8</ele><time>2011-04-30T09:13:20.0000000+00:00</time></trkpt><trkpt lat="20.956379" lon="107.055832"><ele>4.0</ele><time>2011-04-30T09:13:25.0000000+00:00</time></trkpt><trkpt lat="20.956379" lon="107.05584"><ele>4.0</ele><time>2011-04-30T09:13:30.0000000+00:00</time></trkpt><trkpt lat="20.956375" lon="107.05584"><ele>4.2</ele><time>2011-04-30T09:13:35.0000000+00:00</time></trkpt><trkpt lat="20.956379" lon="107.055862"><ele>3.6</ele><time>2011-04-30T09:13:40.0000000+00:00</time></trkpt><trkpt lat="20.956379" lon="107.055878"><ele>3.2</ele><time>2011-04-30T09:13:45.0000000+00:00</time></trkpt><trkpt lat="20.956379" lon="107.055878"><ele>3.2</ele><time>2011-04-30T09:13:50.0000000+00:00</time></trkpt><trkpt lat="20.956383" lon="107.05587"><ele>2.6</ele><time>2011-04-30T09:13:55.0000000+00:00</time></trkpt><trkpt lat="20.956381" lon="107.05587"><ele>2.5</ele><time>2011-04-30T09:14:00.0000000+00:00</time></trkpt><trkpt lat="20.956379" lon="107.05587"><ele>2.4</ele><time>2011-04-30T09:14:05.0000000+00:00</time></trkpt><trkpt lat="20.956377" lon="107.05587"><ele>2.4</ele><time>2011-04-30T09:14:10.0000000+00:00</time></trkpt><trkpt lat="20.956377" lon="107.05587"><ele>2.4</ele><time>2011-04-30T09:14:15.0000000+00:00</time></trkpt><trkpt lat="20.956379" lon="107.05587"><ele>2.3</ele><time>2011-04-30T09:14:20.0000000+00:00</time></trkpt><trkpt lat="20.956377" lon="107.05587"><ele>2.3</ele><time>2011-04-30T09:14:25.0000000+00:00</time></trkpt><trkpt lat="20.956379" lon="107.05587"><ele>2.3</ele><time>2011-04-30T09:14:30.0000000+00:00</time></trkpt><trkpt lat="20.956375" lon="107.055893"><ele>2.6</ele><time>2011-04-30T09:14:35.0000000+00:00</time></trkpt><trkpt lat="20.956377" lon="107.055908"><ele>1.3</ele><time>2011-04-30T09:14:40.0000000+00:00</time></trkpt><trkpt lat="20.956377" lon="107.055908"><ele>1.3</ele><time>2011-04-30T09:14:45.0000000+00:00</time></trkpt><trkpt lat="20.956377" lon="107.055908"><ele>1.3</ele><time>2011-04-30T09:14:50.0000000+00:00</time></trkpt><trkpt lat="20.956377" lon="107.055908"><ele>1.3</ele><time>2011-04-30T09:14:55.0000000+00:00</time></trkpt><trkpt lat="20.956377" lon="107.055908"><ele>1.3</ele><time>2011-04-30T09:15:00.0000000+00:00</time></trkpt><trkpt lat="20.956375" lon="107.055908"><ele>1.3</ele><time>2011-04-30T09:15:05.0000000+00:00</time></trkpt><trkpt lat="20.956377" lon="107.055916"><ele>1.3</ele><time>2011-04-30T09:15:10.0000000+00:00</time></trkpt><trkpt lat="20.956375" lon="107.055916"><ele>1.3</ele><time>2011-04-30T09:15:15.0000000+00:00</time></trkpt><trkpt lat="20.956375" lon="107.055916"><ele>1.3</ele><time>2011-04-30T09:15:20.0000000+00:00</time></trkpt><trkpt lat="20.956375" lon="107.055916"><ele>1.3</ele><time>2011-04-30T09:15:25.0000000+00:00</time></trkpt><trkpt lat="20.956375" lon="107.055916"><ele>1.3</ele><time>2011-04-30T09:15:30.0000000+00:00</time></trkpt><trkpt lat="20.956375" lon="107.055916"><ele>1.3</ele><time>2011-04-30T09:15:35.0000000+00:00</time></trkpt><trkpt lat="20.956375" lon="107.055916"><ele>1.3</ele><time>2011-04-30T09:15:40.0000000+00:00</time></trkpt><trkpt lat="20.956375" lon="107.055916"><ele>1.3</ele><time>2011-04-30T09:15:45.0000000+00:00</time></trkpt><trkpt lat="20.956375" lon="107.055916"><ele>1.3</ele><time>2011-04-30T09:15:50.0000000+00:00</time></trkpt><trkpt lat="20.956375" lon="107.055916"><ele>1.3</ele><time>2011-04-30T09:15:55.0000000+00:00</time></trkpt><trkpt lat="20.956375" lon="107.055916"><ele>1.3</ele><time>2011-04-30T09:16:00.0000000+00:00</time></trkpt><trkpt lat="20.956375" lon="107.055916"><ele>1.3</ele><time>2011-04-30T09:16:05.0000000+00:00</time></trkpt><trkpt lat="20.956375" lon="107.055916"><ele>1.3</ele><time>2011-04-30T09:16:10.0000000+00:00</time></trkpt><trkpt lat="20.956375" lon="107.055916"><ele>1.3</ele><time>2011-04-30T09:16:15.0000000+00:00</time></trkpt><trkpt lat="20.956373" lon="107.055908"><ele>1.3</ele><time>2011-04-30T09:16:20.0000000+00:00</time></trkpt><trkpt lat="20.956387" lon="107.055893"><ele>0.6</ele><time>2011-04-30T09:16:25.0000000+00:00</time></trkpt><trkpt lat="20.956379" lon="107.055885"><ele>0.7</ele><time>2011-04-30T09:16:30.0000000+00:00</time></trkpt><trkpt lat="20.956377" lon="107.055878"><ele>0.7</ele><time>2011-04-30T09:16:35.0000000+00:00</time></trkpt><trkpt lat="20.956377" lon="107.055885"><ele>0.7</ele><time>2011-04-30T09:16:40.0000000+00:00</time></trkpt><trkpt lat="20.956373" lon="107.055885"><ele>0.5</ele><time>2011-04-30T09:16:45.0000000+00:00</time></trkpt><trkpt lat="20.956383" lon="107.055885"><ele>-0.1</ele><time>2011-04-30T09:16:50.0000000+00:00</time></trkpt><trkpt lat="20.95639" lon="107.055908"><ele>1.0</ele><time>2011-04-30T09:16:55.0000000+00:00</time></trkpt><trkpt lat="20.956385" lon="107.055916"><ele>1.8</ele><time>2011-04-30T09:17:00.0000000+00:00</time></trkpt><trkpt lat="20.956383" lon="107.055923"><ele>2.0</ele><time>2011-04-30T09:17:05.0000000+00:00</time></trkpt><trkpt lat="20.956385" lon="107.055923"><ele>2.1</ele><time>2011-04-30T09:17:10.0000000+00:00</time></trkpt><trkpt lat="20.956381" lon="107.055916"><ele>2.2</ele><time>2011-04-30T09:17:15.0000000+00:00</time></trkpt><trkpt lat="20.956375" lon="107.055916"><ele>2.4</ele><time>2011-04-30T09:17:20.0000000+00:00</time></trkpt><trkpt lat="20.956375" lon="107.055908"><ele>2.4</ele><time>2011-04-30T09:17:25.0000000+00:00</time></trkpt><trkpt lat="20.956371" lon="107.055908"><ele>2.4</ele><time>2011-04-30T09:17:30.0000000+00:00</time></trkpt><trkpt lat="20.956362" lon="107.055923"><ele>2.7</ele><time>2011-04-30T09:17:35.0000000+00:00</time></trkpt><trkpt lat="20.95636" lon="107.055923"><ele>3.0</ele><time>2011-04-30T09:17:40.0000000+00:00</time></trkpt><trkpt lat="20.956356" lon="107.055923"><ele>3.2</ele><time>2011-04-30T09:17:45.0000000+00:00</time></trkpt><trkpt lat="20.956367" lon="107.055939"><ele>3.3</ele><time>2011-04-30T09:17:50.0000000+00:00</time></trkpt><trkpt lat="20.956413" lon="107.055977"><ele>2.7</ele><time>2011-04-30T09:17:55.0000000+00:00</time></trkpt><trkpt lat="20.956434" lon="107.05603"><ele>2.4</ele><time>2011-04-30T09:18:00.0000000+00:00</time></trkpt><trkpt lat="20.956459" lon="107.056068"><ele>3.2</ele><time>2011-04-30T09:18:05.0000000+00:00</time></trkpt><trkpt lat="20.956459" lon="107.056099"><ele>4.2</ele><time>2011-04-30T09:18:10.0000000+00:00</time></trkpt><trkpt lat="20.956451" lon="107.056122"><ele>4.8</ele><time>2011-04-30T09:18:15.0000000+00:00</time></trkpt><trkpt lat="20.956455" lon="107.056145"><ele>3.9</ele><time>2011-04-30T09:18:20.0000000+00:00</time></trkpt><trkpt lat="20.956488" lon="107.05619"><ele>2.5</ele><time>2011-04-30T09:18:25.0000000+00:00</time></trkpt><trkpt lat="20.956493" lon="107.056244"><ele>1.0</ele><time>2011-04-30T09:18:30.0000000+00:00</time></trkpt><trkpt lat="20.956503" lon="107.056274"><ele>0.3</ele><time>2011-04-30T09:18:35.0000000+00:00</time></trkpt><trkpt lat="20.956512" lon="107.056305"><ele>-0.6</ele><time>2011-04-30T09:18:40.0000000+00:00</time></trkpt><trkpt lat="20.956512" lon="107.056343"><ele>-0.5</ele><time>2011-04-30T09:18:45.0000000+00:00</time></trkpt><trkpt lat="20.956516" lon="107.05632"><ele>-1.0</ele><time>2011-04-30T09:18:50.0000000+00:00</time></trkpt><trkpt lat="20.956522" lon="107.056313"><ele>-0.2</ele><time>2011-04-30T09:18:55.0000000+00:00</time></trkpt><trkpt lat="20.956522" lon="107.05632"><ele>-0.2</ele><time>2011-04-30T09:19:00.0000000+00:00</time></trkpt><trkpt lat="20.956512" lon="107.056328"><ele>-0.6</ele><time>2011-04-30T09:19:05.0000000+00:00</time></trkpt><trkpt lat="20.956512" lon="107.056335"><ele>-1.2</ele><time>2011-04-30T09:19:10.0000000+00:00</time></trkpt><trkpt lat="20.956511" lon="107.056335"><ele>-1.6</ele><time>2011-04-30T09:19:15.0000000+00:00</time></trkpt><trkpt lat="20.956543" lon="107.056404"><ele>-2.6</ele><time>2011-04-30T09:19:20.0000000+00:00</time></trkpt><trkpt lat="20.956551" lon="107.05645"><ele>-2.2</ele><time>2011-04-30T09:19:25.0000000+00:00</time></trkpt><trkpt lat="20.956537" lon="107.05648"><ele>-1.3</ele><time>2011-04-30T09:19:30.0000000+00:00</time></trkpt><trkpt lat="20.956553" lon="107.056496"><ele>-0.9</ele><time>2011-04-30T09:19:35.0000000+00:00</time></trkpt><trkpt lat="20.956558" lon="107.056526"><ele>0.8</ele><time>2011-04-30T09:19:40.0000000+00:00</time></trkpt><trkpt lat="20.95657" lon="107.056549"><ele>0.3</ele><time>2011-04-30T09:19:45.0000000+00:00</time></trkpt><trkpt lat="20.956575" lon="107.056572"><ele>-0.9</ele><time>2011-04-30T09:19:50.0000000+00:00</time></trkpt><trkpt lat="20.956577" lon="107.056572"><ele>-1.3</ele><time>2011-04-30T09:19:55.0000000+00:00</time></trkpt><trkpt lat="20.956573" lon="107.05658"><ele>-1.4</ele><time>2011-04-30T09:20:00.0000000+00:00</time></trkpt><trkpt lat="20.956562" lon="107.056572"><ele>-1.1</ele><time>2011-04-30T09:20:05.0000000+00:00</time></trkpt><trkpt lat="20.956558" lon="107.05658"><ele>-0.7</ele><time>2011-04-30T09:20:10.0000000+00:00</time></trkpt><trkpt lat="20.956583" lon="107.05661"><ele>-0.4</ele><time>2011-04-30T09:20:15.0000000+00:00</time></trkpt><trkpt lat="20.9566" lon="107.056641"><ele>-0.3</ele><time>2011-04-30T09:20:20.0000000+00:00</time></trkpt><trkpt lat="20.956623" lon="107.056671"><ele>-1.5</ele><time>2011-04-30T09:20:25.0000000+00:00</time></trkpt><trkpt lat="20.95664" lon="107.056717"><ele>-1.3</ele><time>2011-04-30T09:20:30.0000000+00:00</time></trkpt><trkpt lat="20.956633" lon="107.056755"><ele>-0.9</ele><time>2011-04-30T09:20:35.0000000+00:00</time></trkpt><trkpt lat="20.956627" lon="107.056763"><ele>-0.6</ele><time>2011-04-30T09:20:40.0000000+00:00</time></trkpt><trkpt lat="20.956617" lon="107.056755"><ele>-0.3</ele><time>2011-04-30T09:20:45.0000000+00:00</time></trkpt><trkpt lat="20.956614" lon="107.056755"><ele>-0.2</ele><time>2011-04-30T09:20:50.0000000+00:00</time></trkpt><trkpt lat="20.956612" lon="107.056755"><ele>-0.1</ele><time>2011-04-30T09:20:55.0000000+00:00</time></trkpt><trkpt lat="20.956621" lon="107.05677"><ele>-0.4</ele><time>2011-04-30T09:21:00.0000000+00:00</time></trkpt><trkpt lat="20.956627" lon="107.056778"><ele>-1.2</ele><time>2011-04-30T09:21:05.0000000+00:00</time></trkpt><trkpt lat="20.956648" lon="107.056816"><ele>-1.5</ele><time>2011-04-30T09:21:10.0000000+00:00</time></trkpt><trkpt lat="20.956652" lon="107.056831"><ele>-1.4</ele><time>2011-04-30T09:21:15.0000000+00:00</time></trkpt><trkpt lat="20.956659" lon="107.056877"><ele>-1.8</ele><time>2011-04-30T09:21:20.0000000+00:00</time></trkpt><trkpt lat="20.956671" lon="107.056915"><ele>-2.1</ele><time>2011-04-30T09:21:25.0000000+00:00</time></trkpt><trkpt lat="20.956661" lon="107.056923"><ele>-2.4</ele><time>2011-04-30T09:21:30.0000000+00:00</time></trkpt><trkpt lat="20.956657" lon="107.056923"><ele>-2.4</ele><time>2011-04-30T09:21:35.0000000+00:00</time></trkpt><trkpt lat="20.956657" lon="107.056923"><ele>-2.5</ele><time>2011-04-30T09:21:40.0000000+00:00</time></trkpt><trkpt lat="20.956656" lon="107.056923"><ele>-2.5</ele><time>2011-04-30T09:21:45.0000000+00:00</time></trkpt><trkpt lat="20.956656" lon="107.056923"><ele>-2.5</ele><time>2011-04-30T09:21:50.0000000+00:00</time></trkpt><trkpt lat="20.956656" lon="107.056923"><ele>-2.5</ele><time>2011-04-30T09:21:55.0000000+00:00</time></trkpt><trkpt lat="20.956656" lon="107.056923"><ele>-2.5</ele><time>2011-04-30T09:22:00.0000000+00:00</time></trkpt><trkpt lat="20.956656" lon="107.056931"><ele>-2.5</ele><time>2011-04-30T09:22:05.0000000+00:00</time></trkpt><trkpt lat="20.956656" lon="107.056931"><ele>-2.5</ele><time>2011-04-30T09:22:10.0000000+00:00</time></trkpt><trkpt lat="20.956656" lon="107.056931"><ele>-2.5</ele><time>2011-04-30T09:22:15.0000000+00:00</time></trkpt><trkpt lat="20.956657" lon="107.056923"><ele>-2.5</ele><time>2011-04-30T09:22:20.0000000+00:00</time></trkpt><trkpt lat="20.956676" lon="107.056908"><ele>-1.8</ele><time>2011-04-30T09:22:25.0000000+00:00</time></trkpt><trkpt lat="20.956673" lon="107.056892"><ele>-1.2</ele><time>2011-04-30T09:22:30.0000000+00:00</time></trkpt><trkpt lat="20.95668" lon="107.056892"><ele>-1.3</ele><time>2011-04-30T09:22:35.0000000+00:00</time></trkpt><trkpt lat="20.95668" lon="107.05687"><ele>-0.7</ele><time>2011-04-30T09:22:40.0000000+00:00</time></trkpt><trkpt lat="20.956675" lon="107.056854"><ele>-0.8</ele><time>2011-04-30T09:22:45.0000000+00:00</time></trkpt><trkpt lat="20.956688" lon="107.056831"><ele>-0.9</ele><time>2011-04-30T09:22:50.0000000+00:00</time></trkpt><trkpt lat="20.956688" lon="107.056816"><ele>-1.4</ele><time>2011-04-30T09:22:55.0000000+00:00</time></trkpt><trkpt lat="20.956692" lon="107.056816"><ele>-1.2</ele><time>2011-04-30T09:23:00.0000000+00:00</time></trkpt><trkpt lat="20.956705" lon="107.056778"><ele>-0.4</ele><time>2011-04-30T09:23:05.0000000+00:00</time></trkpt><trkpt lat="20.956718" lon="107.05674"><ele>0.8</ele><time>2011-04-30T09:23:10.0000000+00:00</time></trkpt><trkpt lat="20.956758" lon="107.056709"><ele>0.9</ele><time>2011-04-30T09:23:15.0000000+00:00</time></trkpt><trkpt lat="20.956776" lon="107.056709"><ele>0.2</ele><time>2011-04-30T09:23:20.0000000+00:00</time></trkpt><trkpt lat="20.956783" lon="107.056709"><ele>0.4</ele><time>2011-04-30T09:23:25.0000000+00:00</time></trkpt><trkpt lat="20.956785" lon="107.056702"><ele>0.3</ele><time>2011-04-30T09:23:30.0000000+00:00</time></trkpt><trkpt lat="20.956787" lon="107.056686"><ele>-0.3</ele><time>2011-04-30T09:23:35.0000000+00:00</time></trkpt><trkpt lat="20.956776" lon="107.056648"><ele>-0.7</ele><time>2011-04-30T09:23:40.0000000+00:00</time></trkpt><trkpt lat="20.956778" lon="107.056595"><ele>-0.6</ele><time>2011-04-30T09:23:45.0000000+00:00</time></trkpt><trkpt lat="20.956783" lon="107.056564"><ele>-0.0</ele><time>2011-04-30T09:23:50.0000000+00:00</time></trkpt><trkpt lat="20.956781" lon="107.056557"><ele>0.7</ele><time>2011-04-30T09:23:55.0000000+00:00</time></trkpt><trkpt lat="20.956793" lon="107.056557"><ele>1.4</ele><time>2011-04-30T09:24:00.0000000+00:00</time></trkpt><trkpt lat="20.9568" lon="107.056557"><ele>1.5</ele><time>2011-04-30T09:24:05.0000000+00:00</time></trkpt><trkpt lat="20.956778" lon="107.056541"><ele>1.7</ele><time>2011-04-30T09:24:10.0000000+00:00</time></trkpt><trkpt lat="20.956793" lon="107.056541"><ele>2.0</ele><time>2011-04-30T09:24:15.0000000+00:00</time></trkpt><trkpt lat="20.956791" lon="107.056526"><ele>2.5</ele><time>2011-04-30T09:24:20.0000000+00:00</time></trkpt><trkpt lat="20.956762" lon="107.056511"><ele>3.9</ele><time>2011-04-30T09:24:25.0000000+00:00</time></trkpt><trkpt lat="20.956743" lon="107.056534"><ele>5.5</ele><time>2011-04-30T09:24:30.0000000+00:00</time></trkpt><trkpt lat="20.956724" lon="107.056549"><ele>6.4</ele><time>2011-04-30T09:24:35.0000000+00:00</time></trkpt><trkpt lat="20.956709" lon="107.056549"><ele>6.5</ele><time>2011-04-30T09:24:40.0000000+00:00</time></trkpt><trkpt lat="20.956709" lon="107.056549"><ele>6.8</ele><time>2011-04-30T09:24:45.0000000+00:00</time></trkpt><trkpt lat="20.956669" lon="107.056557"><ele>6.8</ele><time>2011-04-30T09:24:50.0000000+00:00</time></trkpt><trkpt lat="20.956644" lon="107.056557"><ele>6.4</ele><time>2011-04-30T09:24:55.0000000+00:00</time></trkpt><trkpt lat="20.956646" lon="107.056557"><ele>6.5</ele><time>2011-04-30T09:25:00.0000000+00:00</time></trkpt><trkpt lat="20.956623" lon="107.056526"><ele>5.9</ele><time>2011-04-30T09:25:05.0000000+00:00</time></trkpt><trkpt lat="20.956606" lon="107.056519"><ele>6.1</ele><time>2011-04-30T09:25:10.0000000+00:00</time></trkpt><trkpt lat="20.956606" lon="107.056519"><ele>6.1</ele><time>2011-04-30T09:25:15.0000000+00:00</time></trkpt><trkpt lat="20.956602" lon="107.056526"><ele>6.0</ele><time>2011-04-30T09:25:20.0000000+00:00</time></trkpt><trkpt lat="20.956591" lon="107.056534"><ele>5.8</ele><time>2011-04-30T09:25:25.0000000+00:00</time></trkpt><trkpt lat="20.956608" lon="107.056496"><ele>4.5</ele><time>2011-04-30T09:25:30.0000000+00:00</time></trkpt><trkpt lat="20.956596" lon="107.056465"><ele>4.0</ele><time>2011-04-30T09:25:35.0000000+00:00</time></trkpt><trkpt lat="20.956594" lon="107.056458"><ele>3.1</ele><time>2011-04-30T09:25:40.0000000+00:00</time></trkpt><trkpt lat="20.956585" lon="107.056427"><ele>2.5</ele><time>2011-04-30T09:25:45.0000000+00:00</time></trkpt><trkpt lat="20.956572" lon="107.056366"><ele>1.9</ele><time>2011-04-30T09:25:50.0000000+00:00</time></trkpt><trkpt lat="20.95656" lon="107.056313"><ele>1.9</ele><time>2011-04-30T09:25:55.0000000+00:00</time></trkpt><trkpt lat="20.956543" lon="107.056252"><ele>2.0</ele><time>2011-04-30T09:26:00.0000000+00:00</time></trkpt><trkpt lat="20.956535" lon="107.056213"><ele>2.1</ele><time>2011-04-30T09:26:05.0000000+00:00</time></trkpt><trkpt lat="20.956524" lon="107.056183"><ele>1.8</ele><time>2011-04-30T09:26:10.0000000+00:00</time></trkpt><trkpt lat="20.956532" lon="107.056152"><ele>3.7</ele><time>2011-04-30T09:26:15.0000000+00:00</time></trkpt><trkpt lat="20.956503" lon="107.056114"><ele>6.0</ele><time>2011-04-30T09:26:20.0000000+00:00</time></trkpt><trkpt lat="20.95648" lon="107.056076"><ele>7.9</ele><time>2011-04-30T09:26:25.0000000+00:00</time></trkpt><trkpt lat="20.95648" lon="107.056068"><ele>7.5</ele><time>2011-04-30T09:26:30.0000000+00:00</time></trkpt><trkpt lat="20.956495" lon="107.056076"><ele>7.8</ele><time>2011-04-30T09:26:35.0000000+00:00</time></trkpt><trkpt lat="20.956495" lon="107.056076"><ele>7.8</ele><time>2011-04-30T09:26:40.0000000+00:00</time></trkpt><trkpt lat="20.956493" lon="107.056076"><ele>7.6</ele><time>2011-04-30T09:26:45.0000000+00:00</time></trkpt><trkpt lat="20.956499" lon="107.056076"><ele>7.5</ele><time>2011-04-30T09:26:50.0000000+00:00</time></trkpt><trkpt lat="20.956501" lon="107.056046"><ele>7.9</ele><time>2011-04-30T09:26:55.0000000+00:00</time></trkpt><trkpt lat="20.956501" lon="107.056046"><ele>8.0</ele><time>2011-04-30T09:27:00.0000000+00:00</time></trkpt><trkpt lat="20.956493" lon="107.056053"><ele>7.2</ele><time>2011-04-30T09:27:05.0000000+00:00</time></trkpt><trkpt lat="20.956499" lon="107.056061"><ele>6.9</ele><time>2011-04-30T09:27:10.0000000+00:00</time></trkpt><trkpt lat="20.956501" lon="107.056061"><ele>6.9</ele><time>2011-04-30T09:27:15.0000000+00:00</time></trkpt><trkpt lat="20.956501" lon="107.056061"><ele>6.9</ele><time>2011-04-30T09:27:20.0000000+00:00</time></trkpt><trkpt lat="20.956497" lon="107.056061"><ele>6.9</ele><time>2011-04-30T09:27:25.0000000+00:00</time></trkpt><trkpt lat="20.956497" lon="107.056068"><ele>6.9</ele><time>2011-04-30T09:27:30.0000000+00:00</time></trkpt><trkpt lat="20.956472" lon="107.056061"><ele>5.6</ele><time>2011-04-30T09:27:35.0000000+00:00</time></trkpt><trkpt lat="20.956461" lon="107.056053"><ele>5.8</ele><time>2011-04-30T09:27:40.0000000+00:00</time></trkpt><trkpt lat="20.956457" lon="107.056053"><ele>6.0</ele><time>2011-04-30T09:27:45.0000000+00:00</time></trkpt><trkpt lat="20.956455" lon="107.056053"><ele>6.2</ele><time>2011-04-30T09:27:50.0000000+00:00</time></trkpt><trkpt lat="20.956455" lon="107.056053"><ele>6.1</ele><time>2011-04-30T09:27:55.0000000+00:00</time></trkpt><trkpt lat="20.956455" lon="107.056053"><ele>6.1</ele><time>2011-04-30T09:28:00.0000000+00:00</time></trkpt><trkpt lat="20.956455" lon="107.056053"><ele>6.1</ele><time>2011-04-30T09:28:05.0000000+00:00</time></trkpt><trkpt lat="20.956455" lon="107.056053"><ele>6.1</ele><time>2011-04-30T09:28:10.0000000+00:00</time></trkpt><trkpt lat="20.956455" lon="107.056053"><ele>6.1</ele><time>2011-04-30T09:28:15.0000000+00:00</time></trkpt><trkpt lat="20.956459" lon="107.056038"><ele>5.8</ele><time>2011-04-30T09:28:20.0000000+00:00</time></trkpt><trkpt lat="20.956461" lon="107.055984"><ele>6.7</ele><time>2011-04-30T09:28:25.0000000+00:00</time></trkpt><trkpt lat="20.956469" lon="107.055946"><ele>7.1</ele><time>2011-04-30T09:28:30.0000000+00:00</time></trkpt><trkpt lat="20.956457" lon="107.055893"><ele>7.1</ele><time>2011-04-30T09:28:35.0000000+00:00</time></trkpt><trkpt lat="20.956446" lon="107.055832"><ele>6.9</ele><time>2011-04-30T09:28:40.0000000+00:00</time></trkpt><trkpt lat="20.956444" lon="107.055794"><ele>8.2</ele><time>2011-04-30T09:28:45.0000000+00:00</time></trkpt><trkpt lat="20.956444" lon="107.055733"><ele>8.9</ele><time>2011-04-30T09:28:50.0000000+00:00</time></trkpt><trkpt lat="20.956417" lon="107.055687"><ele>11.7</ele><time>2011-04-30T09:28:55.0000000+00:00</time></trkpt><trkpt lat="20.956398" lon="107.055641"><ele>13.6</ele><time>2011-04-30T09:29:00.0000000+00:00</time></trkpt><trkpt lat="20.95639" lon="107.05558"><ele>14.3</ele><time>2011-04-30T09:29:05.0000000+00:00</time></trkpt><trkpt lat="20.956373" lon="107.055519"><ele>14.7</ele><time>2011-04-30T09:29:10.0000000+00:00</time></trkpt><trkpt lat="20.956367" lon="107.055458"><ele>14.6</ele><time>2011-04-30T09:29:15.0000000+00:00</time></trkpt><trkpt lat="20.956347" lon="107.055412"><ele>14.8</ele><time>2011-04-30T09:29:20.0000000+00:00</time></trkpt><trkpt lat="20.956331" lon="107.055367"><ele>15.8</ele><time>2011-04-30T09:29:25.0000000+00:00</time></trkpt><trkpt lat="20.956339" lon="107.055313"><ele>16.0</ele><time>2011-04-30T09:29:30.0000000+00:00</time></trkpt><trkpt lat="20.956316" lon="107.05526"><ele>16.5</ele><time>2011-04-30T09:29:35.0000000+00:00</time></trkpt><trkpt lat="20.956295" lon="107.055206"><ele>16.7</ele><time>2011-04-30T09:29:40.0000000+00:00</time></trkpt><trkpt lat="20.956285" lon="107.055168"><ele>15.6</ele><time>2011-04-30T09:29:45.0000000+00:00</time></trkpt><trkpt lat="20.956263" lon="107.055115"><ele>16.9</ele><time>2011-04-30T09:29:50.0000000+00:00</time></trkpt><trkpt lat="20.956263" lon="107.055084"><ele>16.0</ele><time>2011-04-30T09:29:55.0000000+00:00</time></trkpt><trkpt lat="20.956261" lon="107.055038"><ele>16.1</ele><time>2011-04-30T09:30:00.0000000+00:00</time></trkpt><trkpt lat="20.956247" lon="107.054977"><ele>16.3</ele><time>2011-04-30T09:30:05.0000000+00:00</time></trkpt><trkpt lat="20.956217" lon="107.054939"><ele>16.7</ele><time>2011-04-30T09:30:10.0000000+00:00</time></trkpt><trkpt lat="20.956188" lon="107.054886"><ele>16.9</ele><time>2011-04-30T09:30:15.0000000+00:00</time></trkpt><trkpt lat="20.956177" lon="107.05484"><ele>19.8</ele><time>2011-04-30T09:30:20.0000000+00:00</time></trkpt><trkpt lat="20.956171" lon="107.054817"><ele>19.5</ele><time>2011-04-30T09:30:25.0000000+00:00</time></trkpt><trkpt lat="20.956152" lon="107.054764"><ele>20.0</ele><time>2011-04-30T09:30:30.0000000+00:00</time></trkpt><trkpt lat="20.956137" lon="107.05471"><ele>21.3</ele><time>2011-04-30T09:30:35.0000000+00:00</time></trkpt><trkpt lat="20.956125" lon="107.054657"><ele>22.8</ele><time>2011-04-30T09:30:40.0000000+00:00</time></trkpt><trkpt lat="20.956121" lon="107.054619"><ele>24.3</ele><time>2011-04-30T09:30:45.0000000+00:00</time></trkpt><trkpt lat="20.95611" lon="107.054573"><ele>23.9</ele><time>2011-04-30T09:30:50.0000000+00:00</time></trkpt><trkpt lat="20.956097" lon="107.054527"><ele>23.9</ele><time>2011-04-30T09:30:55.0000000+00:00</time></trkpt><trkpt lat="20.956085" lon="107.054482"><ele>24.9</ele><time>2011-04-30T09:31:00.0000000+00:00</time></trkpt><trkpt lat="20.956068" lon="107.054428"><ele>24.5</ele><time>2011-04-30T09:31:05.0000000+00:00</time></trkpt><trkpt lat="20.956068" lon="107.054382"><ele>25.0</ele><time>2011-04-30T09:31:10.0000000+00:00</time></trkpt><trkpt lat="20.956072" lon="107.054314"><ele>24.5</ele><time>2011-04-30T09:31:15.0000000+00:00</time></trkpt><trkpt lat="20.956062" lon="107.05426"><ele>25.3</ele><time>2011-04-30T09:31:20.0000000+00:00</time></trkpt><trkpt lat="20.95606" lon="107.054214"><ele>27.0</ele><time>2011-04-30T09:31:25.0000000+00:00</time></trkpt><trkpt lat="20.956074" lon="107.054161"><ele>26.6</ele><time>2011-04-30T09:31:30.0000000+00:00</time></trkpt><trkpt lat="20.956072" lon="107.054108"><ele>26.0</ele><time>2011-04-30T09:31:35.0000000+00:00</time></trkpt><trkpt lat="20.956066" lon="107.054054"><ele>26.9</ele><time>2011-04-30T09:31:40.0000000+00:00</time></trkpt><trkpt lat="20.956068" lon="107.054016"><ele>27.9</ele><time>2011-04-30T09:31:45.0000000+00:00</time></trkpt><trkpt lat="20.956078" lon="107.05397"><ele>28.1</ele><time>2011-04-30T09:31:50.0000000+00:00</time></trkpt><trkpt lat="20.956081" lon="107.053902"><ele>28.3</ele><time>2011-04-30T09:31:55.0000000+00:00</time></trkpt><trkpt lat="20.956087" lon="107.053825"><ele>24.9</ele><time>2011-04-30T09:32:00.0000000+00:00</time></trkpt><trkpt lat="20.956102" lon="107.05378"><ele>24.9</ele><time>2011-04-30T09:32:05.0000000+00:00</time></trkpt><trkpt lat="20.95611" lon="107.053711"><ele>23.9</ele><time>2011-04-30T09:32:10.0000000+00:00</time></trkpt><trkpt lat="20.956121" lon="107.053665"><ele>23.7</ele><time>2011-04-30T09:32:15.0000000+00:00</time></trkpt><trkpt lat="20.956118" lon="107.053589"><ele>21.7</ele><time>2011-04-30T09:32:20.0000000+00:00</time></trkpt><trkpt lat="20.956114" lon="107.053528"><ele>19.3</ele><time>2011-04-30T09:32:25.0000000+00:00</time></trkpt><trkpt lat="20.956116" lon="107.053474"><ele>19.0</ele><time>2011-04-30T09:32:30.0000000+00:00</time></trkpt><trkpt lat="20.956116" lon="107.053406"><ele>18.7</ele><time>2011-04-30T09:32:35.0000000+00:00</time></trkpt><trkpt lat="20.956114" lon="107.053329"><ele>16.5</ele><time>2011-04-30T09:32:40.0000000+00:00</time></trkpt><trkpt lat="20.956123" lon="107.053284"><ele>16.3</ele><time>2011-04-30T09:32:45.0000000+00:00</time></trkpt><trkpt lat="20.956129" lon="107.053223"><ele>15.7</ele><time>2011-04-30T09:32:50.0000000+00:00</time></trkpt><trkpt lat="20.956146" lon="107.053185"><ele>15.9</ele><time>2011-04-30T09:32:55.0000000+00:00</time></trkpt><trkpt lat="20.95615" lon="107.053123"><ele>15.4</ele><time>2011-04-30T09:33:00.0000000+00:00</time></trkpt><trkpt lat="20.95616" lon="107.053085"><ele>15.3</ele><time>2011-04-30T09:33:05.0000000+00:00</time></trkpt><trkpt lat="20.956165" lon="107.05304"><ele>15.1</ele><time>2011-04-30T09:33:10.0000000+00:00</time></trkpt><trkpt lat="20.95616" lon="107.052971"><ele>14.9</ele><time>2011-04-30T09:33:15.0000000+00:00</time></trkpt><trkpt lat="20.956173" lon="107.052925"><ele>14.3</ele><time>2011-04-30T09:33:20.0000000+00:00</time></trkpt><trkpt lat="20.956177" lon="107.052849"><ele>14.3</ele><time>2011-04-30T09:33:25.0000000+00:00</time></trkpt><trkpt lat="20.95619" lon="107.052803"><ele>13.5</ele><time>2011-04-30T09:33:30.0000000+00:00</time></trkpt><trkpt lat="20.956194" lon="107.052734"><ele>13.3</ele><time>2011-04-30T09:33:35.0000000+00:00</time></trkpt><trkpt lat="20.956194" lon="107.052696"><ele>14.2</ele><time>2011-04-30T09:33:40.0000000+00:00</time></trkpt><trkpt lat="20.9562" lon="107.052643"><ele>13.4</ele><time>2011-04-30T09:33:45.0000000+00:00</time></trkpt><trkpt lat="20.956192" lon="107.052605"><ele>12.2</ele><time>2011-04-30T09:33:50.0000000+00:00</time></trkpt><trkpt lat="20.956211" lon="107.052567"><ele>11.1</ele><time>2011-04-30T09:33:55.0000000+00:00</time></trkpt><trkpt lat="20.956228" lon="107.052536"><ele>9.9</ele><time>2011-04-30T09:34:00.0000000+00:00</time></trkpt><trkpt lat="20.956234" lon="107.052483"><ele>8.5</ele><time>2011-04-30T09:34:05.0000000+00:00</time></trkpt><trkpt lat="20.95623" lon="107.052422"><ele>8.4</ele><time>2011-04-30T09:34:10.0000000+00:00</time></trkpt><trkpt lat="20.956238" lon="107.052368"><ele>8.1</ele><time>2011-04-30T09:34:15.0000000+00:00</time></trkpt><trkpt lat="20.95624" lon="107.052315"><ele>8.8</ele><time>2011-04-30T09:34:20.0000000+00:00</time></trkpt><trkpt lat="20.956238" lon="107.052277"><ele>9.7</ele><time>2011-04-30T09:34:25.0000000+00:00</time></trkpt><trkpt lat="20.956249" lon="107.052216"><ele>9.5</ele><time>2011-04-30T09:34:30.0000000+00:00</time></trkpt><trkpt lat="20.956249" lon="107.052177"><ele>10.1</ele><time>2011-04-30T09:34:35.0000000+00:00</time></trkpt><trkpt lat="20.956257" lon="107.052116"><ele>10.6</ele><time>2011-04-30T09:34:40.0000000+00:00</time></trkpt><trkpt lat="20.956268" lon="107.052055"><ele>11.8</ele><time>2011-04-30T09:34:45.0000000+00:00</time></trkpt><trkpt lat="20.956272" lon="107.052002"><ele>11.9</ele><time>2011-04-30T09:34:50.0000000+00:00</time></trkpt><trkpt lat="20.956278" lon="107.051933"><ele>12.0</ele><time>2011-04-30T09:34:55.0000000+00:00</time></trkpt><trkpt lat="20.956278" lon="107.051872"><ele>12.5</ele><time>2011-04-30T09:35:00.0000000+00:00</time></trkpt><trkpt lat="20.956278" lon="107.051826"><ele>11.8</ele><time>2011-04-30T09:35:05.0000000+00:00</time></trkpt><trkpt lat="20.95628" lon="107.051765"><ele>11.8</ele><time>2011-04-30T09:35:10.0000000+00:00</time></trkpt><trkpt lat="20.956284" lon="107.05172"><ele>12.2</ele><time>2011-04-30T09:35:15.0000000+00:00</time></trkpt><trkpt lat="20.956291" lon="107.051659"><ele>13.2</ele><time>2011-04-30T09:35:20.0000000+00:00</time></trkpt><trkpt lat="20.956308" lon="107.051605"><ele>13.9</ele><time>2011-04-30T09:35:25.0000000+00:00</time></trkpt><trkpt lat="20.956322" lon="107.051544"><ele>15.5</ele><time>2011-04-30T09:35:30.0000000+00:00</time></trkpt><trkpt lat="20.956331" lon="107.051498"><ele>15.5</ele><time>2011-04-30T09:35:35.0000000+00:00</time></trkpt><trkpt lat="20.956333" lon="107.051445"><ele>15.7</ele><time>2011-04-30T09:35:40.0000000+00:00</time></trkpt><trkpt lat="20.956345" lon="107.051407"><ele>15.6</ele><time>2011-04-30T09:35:45.0000000+00:00</time></trkpt><trkpt lat="20.956347" lon="107.051369"><ele>14.7</ele><time>2011-04-30T09:35:50.0000000+00:00</time></trkpt><trkpt lat="20.956352" lon="107.051323"><ele>12.6</ele><time>2011-04-30T09:35:55.0000000+00:00</time></trkpt><trkpt lat="20.956364" lon="107.051292"><ele>11.5</ele><time>2011-04-30T09:36:00.0000000+00:00</time></trkpt><trkpt lat="20.956377" lon="107.051254"><ele>12.9</ele><time>2011-04-30T09:36:05.0000000+00:00</time></trkpt><trkpt lat="20.956385" lon="107.051216"><ele>15.2</ele><time>2011-04-30T09:36:10.0000000+00:00</time></trkpt><trkpt lat="20.956358" lon="107.051178"><ele>15.6</ele><time>2011-04-30T09:36:15.0000000+00:00</time></trkpt><trkpt lat="20.956347" lon="107.051147"><ele>16.3</ele><time>2011-04-30T09:36:20.0000000+00:00</time></trkpt><trkpt lat="20.956356" lon="107.051125"><ele>17.8</ele><time>2011-04-30T09:36:25.0000000+00:00</time></trkpt><trkpt lat="20.956367" lon="107.051094"><ele>18.5</ele><time>2011-04-30T09:36:30.0000000+00:00</time></trkpt><trkpt lat="20.956364" lon="107.051064"><ele>19.8</ele><time>2011-04-30T09:36:35.0000000+00:00</time></trkpt><trkpt lat="20.95636" lon="107.05101"><ele>21.2</ele><time>2011-04-30T09:36:40.0000000+00:00</time></trkpt><trkpt lat="20.956377" lon="107.050949"><ele>22.7</ele><time>2011-04-30T09:36:45.0000000+00:00</time></trkpt><trkpt lat="20.956379" lon="107.050873"><ele>23.2</ele><time>2011-04-30T09:36:50.0000000+00:00</time></trkpt><trkpt lat="20.956394" lon="107.050797"><ele>21.3</ele><time>2011-04-30T09:36:55.0000000+00:00</time></trkpt><trkpt lat="20.956417" lon="107.050728"><ele>20.0</ele><time>2011-04-30T09:37:00.0000000+00:00</time></trkpt><trkpt lat="20.956425" lon="107.050674"><ele>18.7</ele><time>2011-04-30T09:37:05.0000000+00:00</time></trkpt><trkpt lat="20.95643" lon="107.050606"><ele>17.7</ele><time>2011-04-30T09:37:10.0000000+00:00</time></trkpt><trkpt lat="20.956442" lon="107.050537"><ele>17.1</ele><time>2011-04-30T09:37:15.0000000+00:00</time></trkpt><trkpt lat="20.956427" lon="107.050484"><ele>17.2</ele><time>2011-04-30T09:37:20.0000000+00:00</time></trkpt><trkpt lat="20.956415" lon="107.050438"><ele>17.9</ele><time>2011-04-30T09:37:25.0000000+00:00</time></trkpt><trkpt lat="20.956388" lon="107.050369"><ele>18.9</ele><time>2011-04-30T09:37:30.0000000+00:00</time></trkpt><trkpt lat="20.956377" lon="107.050323"><ele>19.3</ele><time>2011-04-30T09:37:35.0000000+00:00</time></trkpt><trkpt lat="20.956373" lon="107.050316"><ele>18.5</ele><time>2011-04-30T09:37:40.0000000+00:00</time></trkpt><trkpt lat="20.956371" lon="107.050301"><ele>18.9</ele><time>2011-04-30T09:37:45.0000000+00:00</time></trkpt><trkpt lat="20.956371" lon="107.05027"><ele>18.4</ele><time>2011-04-30T09:37:50.0000000+00:00</time></trkpt><trkpt lat="20.956339" lon="107.050285"><ele>19.3</ele><time>2011-04-30T09:37:55.0000000+00:00</time></trkpt><trkpt lat="20.956318" lon="107.050278"><ele>19.1</ele><time>2011-04-30T09:38:00.0000000+00:00</time></trkpt><trkpt lat="20.956305" lon="107.050293"><ele>19.0</ele><time>2011-04-30T09:38:05.0000000+00:00</time></trkpt><trkpt lat="20.956305" lon="107.050293"><ele>18.9</ele><time>2011-04-30T09:38:10.0000000+00:00</time></trkpt><trkpt lat="20.956305" lon="107.050293"><ele>18.9</ele><time>2011-04-30T09:38:15.0000000+00:00</time></trkpt><trkpt lat="20.956305" lon="107.050293"><ele>18.9</ele><time>2011-04-30T09:38:20.0000000+00:00</time></trkpt><trkpt lat="20.956305" lon="107.050293"><ele>18.9</ele><time>2011-04-30T09:38:25.0000000+00:00</time></trkpt><trkpt lat="20.956303" lon="107.050293"><ele>18.9</ele><time>2011-04-30T09:38:30.0000000+00:00</time></trkpt><trkpt lat="20.956303" lon="107.050293"><ele>18.8</ele><time>2011-04-30T09:38:35.0000000+00:00</time></trkpt><trkpt lat="20.956303" lon="107.050293"><ele>18.8</ele><time>2011-04-30T09:38:40.0000000+00:00</time></trkpt><trkpt lat="20.956303" lon="107.050293"><ele>18.7</ele><time>2011-04-30T09:38:45.0000000+00:00</time></trkpt><trkpt lat="20.956303" lon="107.050293"><ele>18.7</ele><time>2011-04-30T09:38:50.0000000+00:00</time></trkpt><trkpt lat="20.956303" lon="107.050293"><ele>18.6</ele><time>2011-04-30T09:38:55.0000000+00:00</time></trkpt><trkpt lat="20.956303" lon="107.050293"><ele>18.4</ele><time>2011-04-30T09:39:00.0000000+00:00</time></trkpt><trkpt lat="20.956306" lon="107.050301"><ele>18.4</ele><time>2011-04-30T09:39:05.0000000+00:00</time></trkpt><trkpt lat="20.956306" lon="107.050301"><ele>18.3</ele><time>2011-04-30T09:39:10.0000000+00:00</time></trkpt><trkpt lat="20.956308" lon="107.050301"><ele>18.3</ele><time>2011-04-30T09:39:15.0000000+00:00</time></trkpt><trkpt lat="20.95631" lon="107.050301"><ele>18.3</ele><time>2011-04-30T09:39:20.0000000+00:00</time></trkpt><trkpt lat="20.95631" lon="107.050308"><ele>18.3</ele><time>2011-04-30T09:39:25.0000000+00:00</time></trkpt><trkpt lat="20.956312" lon="107.050308"><ele>18.2</ele><time>2011-04-30T09:39:30.0000000+00:00</time></trkpt><trkpt lat="20.956312" lon="107.050308"><ele>18.2</ele><time>2011-04-30T09:39:35.0000000+00:00</time></trkpt><trkpt lat="20.956312" lon="107.050308"><ele>18.2</ele><time>2011-04-30T09:39:40.0000000+00:00</time></trkpt><trkpt lat="20.956312" lon="107.050308"><ele>18.2</ele><time>2011-04-30T09:39:45.0000000+00:00</time></trkpt><trkpt lat="20.956312" lon="107.050308"><ele>18.2</ele><time>2011-04-30T09:39:50.0000000+00:00</time></trkpt><trkpt lat="20.956312" lon="107.050308"><ele>18.2</ele><time>2011-04-30T09:39:55.0000000+00:00</time></trkpt><trkpt lat="20.956312" lon="107.050308"><ele>18.2</ele><time>2011-04-30T09:40:00.0000000+00:00</time></trkpt><trkpt lat="20.956312" lon="107.050308"><ele>18.1</ele><time>2011-04-30T09:40:05.0000000+00:00</time></trkpt><trkpt lat="20.956312" lon="107.050308"><ele>18.1</ele><time>2011-04-30T09:40:10.0000000+00:00</time></trkpt><trkpt lat="20.956312" lon="107.050308"><ele>18.1</ele><time>2011-04-30T09:40:15.0000000+00:00</time></trkpt><trkpt lat="20.956312" lon="107.050308"><ele>18.1</ele><time>2011-04-30T09:40:20.0000000+00:00</time></trkpt><trkpt lat="20.956312" lon="107.050308"><ele>18.1</ele><time>2011-04-30T09:40:25.0000000+00:00</time></trkpt><trkpt lat="20.956316" lon="107.050316"><ele>18.1</ele><time>2011-04-30T09:40:30.0000000+00:00</time></trkpt><trkpt lat="20.956322" lon="107.050323"><ele>18.1</ele><time>2011-04-30T09:40:35.0000000+00:00</time></trkpt><trkpt lat="20.956327" lon="107.050323"><ele>18.0</ele><time>2011-04-30T09:40:40.0000000+00:00</time></trkpt><trkpt lat="20.956331" lon="107.050323"><ele>18.0</ele><time>2011-04-30T09:40:45.0000000+00:00</time></trkpt><trkpt lat="20.956337" lon="107.050323"><ele>17.9</ele><time>2011-04-30T09:40:50.0000000+00:00</time></trkpt><trkpt lat="20.956341" lon="107.050323"><ele>17.7</ele><time>2011-04-30T09:40:55.0000000+00:00</time></trkpt><trkpt lat="20.956345" lon="107.050323"><ele>17.5</ele><time>2011-04-30T09:41:00.0000000+00:00</time></trkpt><trkpt lat="20.956347" lon="107.050316"><ele>17.2</ele><time>2011-04-30T09:41:05.0000000+00:00</time></trkpt><trkpt lat="20.956347" lon="107.050316"><ele>17.1</ele><time>2011-04-30T09:41:10.0000000+00:00</time></trkpt><trkpt lat="20.956347" lon="107.050316"><ele>16.3</ele><time>2011-04-30T09:41:15.0000000+00:00</time></trkpt><trkpt lat="20.95636" lon="107.050308"><ele>16.2</ele><time>2011-04-30T09:41:20.0000000+00:00</time></trkpt><trkpt lat="20.95636" lon="107.050301"><ele>16.3</ele><time>2011-04-30T09:41:25.0000000+00:00</time></trkpt><trkpt lat="20.956373" lon="107.050308"><ele>15.7</ele><time>2011-04-30T09:41:30.0000000+00:00</time></trkpt><trkpt lat="20.956373" lon="107.050308"><ele>15.7</ele><time>2011-04-30T09:41:35.0000000+00:00</time></trkpt><trkpt lat="20.956375" lon="107.050308"><ele>15.8</ele><time>2011-04-30T09:41:40.0000000+00:00</time></trkpt><trkpt lat="20.956375" lon="107.050301"><ele>15.8</ele><time>2011-04-30T09:41:45.0000000+00:00</time></trkpt><trkpt lat="20.956385" lon="107.050301"><ele>15.7</ele><time>2011-04-30T09:41:50.0000000+00:00</time></trkpt><trkpt lat="20.956388" lon="107.050301"><ele>15.7</ele><time>2011-04-30T09:41:55.0000000+00:00</time></trkpt><trkpt lat="20.95639" lon="107.050301"><ele>15.7</ele><time>2011-04-30T09:42:00.0000000+00:00</time></trkpt><trkpt lat="20.956392" lon="107.050293"><ele>15.7</ele><time>2011-04-30T09:42:05.0000000+00:00</time></trkpt><trkpt lat="20.956396" lon="107.050301"><ele>15.7</ele><time>2011-04-30T09:42:10.0000000+00:00</time></trkpt><trkpt lat="20.956398" lon="107.050293"><ele>15.7</ele><time>2011-04-30T09:42:15.0000000+00:00</time></trkpt><trkpt lat="20.9564" lon="107.050293"><ele>15.7</ele><time>2011-04-30T09:42:20.0000000+00:00</time></trkpt><trkpt lat="20.9564" lon="107.050293"><ele>15.7</ele><time>2011-04-30T09:42:25.0000000+00:00</time></trkpt><trkpt lat="20.9564" lon="107.050293"><ele>15.7</ele><time>2011-04-30T09:42:30.0000000+00:00</time></trkpt><trkpt lat="20.956398" lon="107.050293"><ele>15.7</ele><time>2011-04-30T09:42:35.0000000+00:00</time></trkpt><trkpt lat="20.956398" lon="107.050285"><ele>15.7</ele><time>2011-04-30T09:42:40.0000000+00:00</time></trkpt><trkpt lat="20.9564" lon="107.050285"><ele>15.8</ele><time>2011-04-30T09:42:45.0000000+00:00</time></trkpt><trkpt lat="20.9564" lon="107.050285"><ele>15.8</ele><time>2011-04-30T09:42:50.0000000+00:00</time></trkpt><trkpt lat="20.956396" lon="107.050285"><ele>15.9</ele><time>2011-04-30T09:42:55.0000000+00:00</time></trkpt><trkpt lat="20.956394" lon="107.050278"><ele>15.9</ele><time>2011-04-30T09:43:00.0000000+00:00</time></trkpt><trkpt lat="20.956392" lon="107.05027"><ele>16.0</ele><time>2011-04-30T09:43:05.0000000+00:00</time></trkpt><trkpt lat="20.95639" lon="107.050278"><ele>15.9</ele><time>2011-04-30T09:43:10.0000000+00:00</time></trkpt><trkpt lat="20.95639" lon="107.050278"><ele>15.9</ele><time>2011-04-30T09:43:15.0000000+00:00</time></trkpt><trkpt lat="20.956392" lon="107.050278"><ele>15.9</ele><time>2011-04-30T09:43:20.0000000+00:00</time></trkpt><trkpt lat="20.95639" lon="107.050278"><ele>15.9</ele><time>2011-04-30T09:43:25.0000000+00:00</time></trkpt><trkpt lat="20.956388" lon="107.050278"><ele>15.9</ele><time>2011-04-30T09:43:30.0000000+00:00</time></trkpt><trkpt lat="20.95639" lon="107.050278"><ele>15.9</ele><time>2011-04-30T09:43:35.0000000+00:00</time></trkpt><trkpt lat="20.95639" lon="107.050278"><ele>15.9</ele><time>2011-04-30T09:43:40.0000000+00:00</time></trkpt><trkpt lat="20.956371" lon="107.050293"><ele>17.2</ele><time>2011-04-30T09:43:45.0000000+00:00</time></trkpt><trkpt lat="20.956356" lon="107.050301"><ele>16.3</ele><time>2011-04-30T09:43:50.0000000+00:00</time></trkpt><trkpt lat="20.956366" lon="107.050301"><ele>16.4</ele><time>2011-04-30T09:43:55.0000000+00:00</time></trkpt><trkpt lat="20.95635" lon="107.050293"><ele>16.7</ele><time>2011-04-30T09:44:00.0000000+00:00</time></trkpt><trkpt lat="20.95635" lon="107.05027"><ele>16.7</ele><time>2011-04-30T09:44:05.0000000+00:00</time></trkpt><trkpt lat="20.956324" lon="107.050255"><ele>16.5</ele><time>2011-04-30T09:44:10.0000000+00:00</time></trkpt><trkpt lat="20.956303" lon="107.05024"><ele>16.6</ele><time>2011-04-30T09:44:15.0000000+00:00</time></trkpt><trkpt lat="20.956291" lon="107.050232"><ele>16.5</ele><time>2011-04-30T09:44:20.0000000+00:00</time></trkpt><trkpt lat="20.956268" lon="107.050209"><ele>16.1</ele><time>2011-04-30T09:44:25.0000000+00:00</time></trkpt><trkpt lat="20.95624" lon="107.050194"><ele>16.3</ele><time>2011-04-30T09:44:30.0000000+00:00</time></trkpt><trkpt lat="20.956211" lon="107.050163"><ele>16.4</ele><time>2011-04-30T09:44:35.0000000+00:00</time></trkpt><trkpt lat="20.956163" lon="107.050148"><ele>16.1</ele><time>2011-04-30T09:44:40.0000000+00:00</time></trkpt><trkpt lat="20.956158" lon="107.050125"><ele>16.1</ele><time>2011-04-30T09:44:45.0000000+00:00</time></trkpt><trkpt lat="20.956163" lon="107.050117"><ele>16.1</ele><time>2011-04-30T09:44:50.0000000+00:00</time></trkpt><trkpt lat="20.956144" lon="107.050117"><ele>15.8</ele><time>2011-04-30T09:44:55.0000000+00:00</time></trkpt><trkpt lat="20.956142" lon="107.050102"><ele>15.9</ele><time>2011-04-30T09:45:00.0000000+00:00</time></trkpt><trkpt lat="20.956125" lon="107.050087"><ele>16.8</ele><time>2011-04-30T09:45:05.0000000+00:00</time></trkpt><trkpt lat="20.95611" lon="107.050087"><ele>16.3</ele><time>2011-04-30T09:45:10.0000000+00:00</time></trkpt><trkpt lat="20.956099" lon="107.050056"><ele>15.7</ele><time>2011-04-30T09:45:15.0000000+00:00</time></trkpt><trkpt lat="20.956091" lon="107.050026"><ele>15.0</ele><time>2011-04-30T09:45:20.0000000+00:00</time></trkpt><trkpt lat="20.956091" lon="107.049995"><ele>14.5</ele><time>2011-04-30T09:45:25.0000000+00:00</time></trkpt><trkpt lat="20.956091" lon="107.049995"><ele>14.5</ele><time>2011-04-30T09:45:30.0000000+00:00</time></trkpt><trkpt lat="20.956081" lon="107.049957"><ele>14.0</ele><time>2011-04-30T09:45:35.0000000+00:00</time></trkpt><trkpt lat="20.956049" lon="107.049934"><ele>13.7</ele><time>2011-04-30T09:45:40.0000000+00:00</time></trkpt><trkpt lat="20.956051" lon="107.049934"><ele>13.3</ele><time>2011-04-30T09:45:45.0000000+00:00</time></trkpt><trkpt lat="20.956041" lon="107.049927"><ele>12.8</ele><time>2011-04-30T09:45:50.0000000+00:00</time></trkpt><trkpt lat="20.956045" lon="107.049919"><ele>12.9</ele><time>2011-04-30T09:45:55.0000000+00:00</time></trkpt><trkpt lat="20.956045" lon="107.049919"><ele>12.8</ele><time>2011-04-30T09:46:00.0000000+00:00</time></trkpt><trkpt lat="20.956043" lon="107.049911"><ele>12.5</ele><time>2011-04-30T09:46:05.0000000+00:00</time></trkpt><trkpt lat="20.956026" lon="107.049904"><ele>12.3</ele><time>2011-04-30T09:46:10.0000000+00:00</time></trkpt><trkpt lat="20.956017" lon="107.049896"><ele>13.0</ele><time>2011-04-30T09:46:15.0000000+00:00</time></trkpt><trkpt lat="20.956011" lon="107.049889"><ele>13.5</ele><time>2011-04-30T09:46:20.0000000+00:00</time></trkpt><trkpt lat="20.956005" lon="107.049881"><ele>14.3</ele><time>2011-04-30T09:46:25.0000000+00:00</time></trkpt><trkpt lat="20.955986" lon="107.04985"><ele>15.3</ele><time>2011-04-30T09:46:30.0000000+00:00</time></trkpt><trkpt lat="20.95598" lon="107.049828"><ele>14.6</ele><time>2011-04-30T09:46:35.0000000+00:00</time></trkpt><trkpt lat="20.955988" lon="107.049789"><ele>15.6</ele><time>2011-04-30T09:46:40.0000000+00:00</time></trkpt><trkpt lat="20.955969" lon="107.049759"><ele>16.0</ele><time>2011-04-30T09:46:45.0000000+00:00</time></trkpt><trkpt lat="20.955936" lon="107.049759"><ele>16.4</ele><time>2011-04-30T09:46:50.0000000+00:00</time></trkpt><trkpt lat="20.955919" lon="107.049744"><ele>16.4</ele><time>2011-04-30T09:46:55.0000000+00:00</time></trkpt><trkpt lat="20.955915" lon="107.049736"><ele>16.5</ele><time>2011-04-30T09:47:00.0000000+00:00</time></trkpt><trkpt lat="20.955912" lon="107.049728"><ele>16.5</ele><time>2011-04-30T09:47:05.0000000+00:00</time></trkpt><trkpt lat="20.955879" lon="107.049721"><ele>16.3</ele><time>2011-04-30T09:47:10.0000000+00:00</time></trkpt><trkpt lat="20.955826" lon="107.049706"><ele>16.6</ele><time>2011-04-30T09:47:15.0000000+00:00</time></trkpt><trkpt lat="20.955795" lon="107.049721"><ele>16.1</ele><time>2011-04-30T09:47:20.0000000+00:00</time></trkpt><trkpt lat="20.955772" lon="107.049759"><ele>17.1</ele><time>2011-04-30T09:47:25.0000000+00:00</time></trkpt><trkpt lat="20.95573" lon="107.049774"><ele>16.8</ele><time>2011-04-30T09:47:30.0000000+00:00</time></trkpt><trkpt lat="20.955698" lon="107.049774"><ele>16.1</ele><time>2011-04-30T09:47:35.0000000+00:00</time></trkpt><trkpt lat="20.955664" lon="107.049767"><ele>15.7</ele><time>2011-04-30T09:47:40.0000000+00:00</time></trkpt><trkpt lat="20.955654" lon="107.049744"><ele>15.6</ele><time>2011-04-30T09:47:45.0000000+00:00</time></trkpt><trkpt lat="20.955645" lon="107.049728"><ele>14.9</ele><time>2011-04-30T09:47:50.0000000+00:00</time></trkpt><trkpt lat="20.955641" lon="107.049728"><ele>14.6</ele><time>2011-04-30T09:47:55.0000000+00:00</time></trkpt><trkpt lat="20.955637" lon="107.049713"><ele>13.9</ele><time>2011-04-30T09:48:00.0000000+00:00</time></trkpt><trkpt lat="20.955614" lon="107.049706"><ele>13.6</ele><time>2011-04-30T09:48:05.0000000+00:00</time></trkpt><trkpt lat="20.955591" lon="107.04969"><ele>13.8</ele><time>2011-04-30T09:48:10.0000000+00:00</time></trkpt><trkpt lat="20.955576" lon="107.04966"><ele>13.4</ele><time>2011-04-30T09:48:15.0000000+00:00</time></trkpt><trkpt lat="20.955568" lon="107.049637"><ele>13.5</ele><time>2011-04-30T09:48:20.0000000+00:00</time></trkpt><trkpt lat="20.955561" lon="107.049629"><ele>12.9</ele><time>2011-04-30T09:48:25.0000000+00:00</time></trkpt><trkpt lat="20.955574" lon="107.049614"><ele>12.8</ele><time>2011-04-30T09:48:30.0000000+00:00</time></trkpt><trkpt lat="20.955566" lon="107.049591"><ele>12.8</ele><time>2011-04-30T09:48:35.0000000+00:00</time></trkpt><trkpt lat="20.955532" lon="107.049561"><ele>12.7</ele><time>2011-04-30T09:48:40.0000000+00:00</time></trkpt><trkpt lat="20.955494" lon="107.049553"><ele>13.1</ele><time>2011-04-30T09:48:45.0000000+00:00</time></trkpt><trkpt lat="20.955458" lon="107.049561"><ele>14.6</ele><time>2011-04-30T09:48:50.0000000+00:00</time></trkpt><trkpt lat="20.955429" lon="107.049538"><ele>13.3</ele><time>2011-04-30T09:48:55.0000000+00:00</time></trkpt><trkpt lat="20.955427" lon="107.049515"><ele>13.3</ele><time>2011-04-30T09:49:00.0000000+00:00</time></trkpt><trkpt lat="20.955427" lon="107.049507"><ele>13.7</ele><time>2011-04-30T09:49:05.0000000+00:00</time></trkpt><trkpt lat="20.955427" lon="107.049461"><ele>12.2</ele><time>2011-04-30T09:49:10.0000000+00:00</time></trkpt><trkpt lat="20.955437" lon="107.049438"><ele>10.9</ele><time>2011-04-30T09:49:15.0000000+00:00</time></trkpt><trkpt lat="20.955427" lon="107.049431"><ele>10.7</ele><time>2011-04-30T09:49:20.0000000+00:00</time></trkpt><trkpt lat="20.955427" lon="107.0494"><ele>9.9</ele><time>2011-04-30T09:49:25.0000000+00:00</time></trkpt><trkpt lat="20.955416" lon="107.0494"><ele>9.7</ele><time>2011-04-30T09:49:30.0000000+00:00</time></trkpt><trkpt lat="20.955402" lon="107.04937"><ele>9.9</ele><time>2011-04-30T09:49:35.0000000+00:00</time></trkpt><trkpt lat="20.955397" lon="107.049339"><ele>9.1</ele><time>2011-04-30T09:49:40.0000000+00:00</time></trkpt><trkpt lat="20.955391" lon="107.049324"><ele>9.5</ele><time>2011-04-30T09:49:45.0000000+00:00</time></trkpt><trkpt lat="20.955383" lon="107.049301"><ele>9.8</ele><time>2011-04-30T09:49:50.0000000+00:00</time></trkpt><trkpt lat="20.955374" lon="107.049278"><ele>9.3</ele><time>2011-04-30T09:49:55.0000000+00:00</time></trkpt><trkpt lat="20.955379" lon="107.049263"><ele>8.8</ele><time>2011-04-30T09:50:00.0000000+00:00</time></trkpt><trkpt lat="20.955372" lon="107.049248"><ele>8.6</ele><time>2011-04-30T09:50:05.0000000+00:00</time></trkpt><trkpt lat="20.955376" lon="107.049248"><ele>8.5</ele><time>2011-04-30T09:50:10.0000000+00:00</time></trkpt><trkpt lat="20.955374" lon="107.049248"><ele>8.4</ele><time>2011-04-30T09:50:15.0000000+00:00</time></trkpt><trkpt lat="20.955372" lon="107.049232"><ele>8.4</ele><time>2011-04-30T09:50:20.0000000+00:00</time></trkpt><trkpt lat="20.955378" lon="107.049232"><ele>8.4</ele><time>2011-04-30T09:50:25.0000000+00:00</time></trkpt><trkpt lat="20.955378" lon="107.049217"><ele>8.2</ele><time>2011-04-30T09:50:30.0000000+00:00</time></trkpt><trkpt lat="20.955395" lon="107.04921"><ele>7.8</ele><time>2011-04-30T09:50:35.0000000+00:00</time></trkpt><trkpt lat="20.955395" lon="107.04921"><ele>7.7</ele><time>2011-04-30T09:50:40.0000000+00:00</time></trkpt><trkpt lat="20.955402" lon="107.04921"><ele>7.5</ele><time>2011-04-30T09:50:45.0000000+00:00</time></trkpt><trkpt lat="20.955425" lon="107.04921"><ele>8.9</ele><time>2011-04-30T09:50:50.0000000+00:00</time></trkpt><trkpt lat="20.955427" lon="107.04921"><ele>9.2</ele><time>2011-04-30T09:50:55.0000000+00:00</time></trkpt><trkpt lat="20.955431" lon="107.04921"><ele>9.3</ele><time>2011-04-30T09:51:00.0000000+00:00</time></trkpt><trkpt lat="20.955431" lon="107.049202"><ele>9.4</ele><time>2011-04-30T09:51:05.0000000+00:00</time></trkpt><trkpt lat="20.955437" lon="107.04921"><ele>9.6</ele><time>2011-04-30T09:51:10.0000000+00:00</time></trkpt><trkpt lat="20.955444" lon="107.049217"><ele>9.5</ele><time>2011-04-30T09:51:15.0000000+00:00</time></trkpt><trkpt lat="20.955444" lon="107.049217"><ele>9.4</ele><time>2011-04-30T09:51:20.0000000+00:00</time></trkpt><trkpt lat="20.955444" lon="107.049217"><ele>9.4</ele><time>2011-04-30T09:51:25.0000000+00:00</time></trkpt><trkpt lat="20.95545" lon="107.049217"><ele>9.5</ele><time>2011-04-30T09:51:30.0000000+00:00</time></trkpt><trkpt lat="20.955448" lon="107.049217"><ele>9.8</ele><time>2011-04-30T09:51:35.0000000+00:00</time></trkpt><trkpt lat="20.955446" lon="107.049217"><ele>9.9</ele><time>2011-04-30T09:51:40.0000000+00:00</time></trkpt><trkpt lat="20.955446" lon="107.049217"><ele>9.9</ele><time>2011-04-30T09:51:45.0000000+00:00</time></trkpt><trkpt lat="20.955448" lon="107.04921"><ele>9.9</ele><time>2011-04-30T09:51:50.0000000+00:00</time></trkpt><trkpt lat="20.95545" lon="107.049202"><ele>9.9</ele><time>2011-04-30T09:51:55.0000000+00:00</time></trkpt><trkpt lat="20.955448" lon="107.04921"><ele>9.9</ele><time>2011-04-30T09:52:00.0000000+00:00</time></trkpt><trkpt lat="20.95546" lon="107.04921"><ele>9.7</ele><time>2011-04-30T09:52:05.0000000+00:00</time></trkpt><trkpt lat="20.955473" lon="107.04921"><ele>9.6</ele><time>2011-04-30T09:52:10.0000000+00:00</time></trkpt><trkpt lat="20.955473" lon="107.049225"><ele>9.9</ele><time>2011-04-30T09:52:15.0000000+00:00</time></trkpt><trkpt lat="20.95549" lon="107.049232"><ele>9.4</ele><time>2011-04-30T09:52:20.0000000+00:00</time></trkpt><trkpt lat="20.955496" lon="107.049232"><ele>8.9</ele><time>2011-04-30T09:52:25.0000000+00:00</time></trkpt><trkpt lat="20.9555" lon="107.049225"><ele>7.9</ele><time>2011-04-30T09:52:30.0000000+00:00</time></trkpt><trkpt lat="20.955507" lon="107.04924"><ele>7.0</ele><time>2011-04-30T09:52:35.0000000+00:00</time></trkpt><trkpt lat="20.955511" lon="107.049255"><ele>6.2</ele><time>2011-04-30T09:52:40.0000000+00:00</time></trkpt><trkpt lat="20.955511" lon="107.049263"><ele>5.0</ele><time>2011-04-30T09:52:45.0000000+00:00</time></trkpt><trkpt lat="20.955502" lon="107.049263"><ele>5.0</ele><time>2011-04-30T09:52:50.0000000+00:00</time></trkpt><trkpt lat="20.955505" lon="107.049263"><ele>4.9</ele><time>2011-04-30T09:52:55.0000000+00:00</time></trkpt><trkpt lat="20.955505" lon="107.049263"><ele>4.8</ele><time>2011-04-30T09:53:00.0000000+00:00</time></trkpt><trkpt lat="20.955505" lon="107.049263"><ele>4.8</ele><time>2011-04-30T09:53:05.0000000+00:00</time></trkpt><trkpt lat="20.955509" lon="107.049263"><ele>4.5</ele><time>2011-04-30T09:53:10.0000000+00:00</time></trkpt><trkpt lat="20.955513" lon="107.049232"><ele>5.1</ele><time>2011-04-30T09:53:15.0000000+00:00</time></trkpt><trkpt lat="20.955513" lon="107.049217"><ele>6.2</ele><time>2011-04-30T09:53:20.0000000+00:00</time></trkpt><trkpt lat="20.955524" lon="107.049217"><ele>6.8</ele><time>2011-04-30T09:53:25.0000000+00:00</time></trkpt><trkpt lat="20.95553" lon="107.049202"><ele>6.9</ele><time>2011-04-30T09:53:30.0000000+00:00</time></trkpt><trkpt lat="20.955532" lon="107.049194"><ele>7.3</ele><time>2011-04-30T09:53:35.0000000+00:00</time></trkpt><trkpt lat="20.95553" lon="107.049194"><ele>7.4</ele><time>2011-04-30T09:53:40.0000000+00:00</time></trkpt><trkpt lat="20.95553" lon="107.049194"><ele>7.4</ele><time>2011-04-30T09:53:45.0000000+00:00</time></trkpt><trkpt lat="20.95553" lon="107.049194"><ele>7.4</ele><time>2011-04-30T09:53:50.0000000+00:00</time></trkpt><trkpt lat="20.95553" lon="107.049194"><ele>7.4</ele><time>2011-04-30T09:53:55.0000000+00:00</time></trkpt><trkpt lat="20.95553" lon="107.049194"><ele>7.5</ele><time>2011-04-30T09:54:00.0000000+00:00</time></trkpt><trkpt lat="20.955544" lon="107.049164"><ele>7.5</ele><time>2011-04-30T09:54:05.0000000+00:00</time></trkpt><trkpt lat="20.955545" lon="107.049141"><ele>8.4</ele><time>2011-04-30T09:54:10.0000000+00:00</time></trkpt><trkpt lat="20.955536" lon="107.049133"><ele>8.7</ele><time>2011-04-30T09:54:15.0000000+00:00</time></trkpt><trkpt lat="20.955534" lon="107.049133"><ele>8.8</ele><time>2011-04-30T09:54:20.0000000+00:00</time></trkpt><trkpt lat="20.955532" lon="107.049126"><ele>8.9</ele><time>2011-04-30T09:54:25.0000000+00:00</time></trkpt><trkpt lat="20.955532" lon="107.049126"><ele>9.0</ele><time>2011-04-30T09:54:30.0000000+00:00</time></trkpt><trkpt lat="20.955532" lon="107.049126"><ele>9.0</ele><time>2011-04-30T09:54:35.0000000+00:00</time></trkpt><trkpt lat="20.955532" lon="107.049126"><ele>9.0</ele><time>2011-04-30T09:54:40.0000000+00:00</time></trkpt><trkpt lat="20.955564" lon="107.049126"><ele>9.3</ele><time>2011-04-30T09:54:45.0000000+00:00</time></trkpt><trkpt lat="20.95558" lon="107.049118"><ele>8.8</ele><time>2011-04-30T09:54:50.0000000+00:00</time></trkpt><trkpt lat="20.955578" lon="107.04911"><ele>9.4</ele><time>2011-04-30T09:54:55.0000000+00:00</time></trkpt><trkpt lat="20.955572" lon="107.04908"><ele>12.2</ele><time>2011-04-30T09:55:00.0000000+00:00</time></trkpt><trkpt lat="20.95557" lon="107.049088"><ele>13.2</ele><time>2011-04-30T09:55:05.0000000+00:00</time></trkpt><trkpt lat="20.95557" lon="107.049095"><ele>13.6</ele><time>2011-04-30T09:55:10.0000000+00:00</time></trkpt><trkpt lat="20.955572" lon="107.049095"><ele>13.6</ele><time>2011-04-30T09:55:15.0000000+00:00</time></trkpt><trkpt lat="20.955572" lon="107.049095"><ele>13.6</ele><time>2011-04-30T09:55:20.0000000+00:00</time></trkpt><trkpt lat="20.955574" lon="107.049095"><ele>13.6</ele><time>2011-04-30T09:55:25.0000000+00:00</time></trkpt><trkpt lat="20.955585" lon="107.049103"><ele>13.5</ele><time>2011-04-30T09:55:30.0000000+00:00</time></trkpt><trkpt lat="20.955589" lon="107.049095"><ele>14.3</ele><time>2011-04-30T09:55:35.0000000+00:00</time></trkpt><trkpt lat="20.955576" lon="107.049103"><ele>14.1</ele><time>2011-04-30T09:55:40.0000000+00:00</time></trkpt><trkpt lat="20.955549" lon="107.049103"><ele>14.9</ele><time>2011-04-30T09:55:45.0000000+00:00</time></trkpt><trkpt lat="20.955549" lon="107.049103"><ele>14.9</ele><time>2011-04-30T09:55:50.0000000+00:00</time></trkpt><trkpt lat="20.95554" lon="107.049095"><ele>15.7</ele><time>2011-04-30T09:55:55.0000000+00:00</time></trkpt><trkpt lat="20.955521" lon="107.049095"><ele>15.9</ele><time>2011-04-30T09:56:00.0000000+00:00</time></trkpt><trkpt lat="20.955513" lon="107.049095"><ele>15.8</ele><time>2011-04-30T09:56:05.0000000+00:00</time></trkpt><trkpt lat="20.9555" lon="107.049103"><ele>15.6</ele><time>2011-04-30T09:56:10.0000000+00:00</time></trkpt><trkpt lat="20.955492" lon="107.049095"><ele>15.2</ele><time>2011-04-30T09:56:15.0000000+00:00</time></trkpt><trkpt lat="20.955484" lon="107.049095"><ele>14.5</ele><time>2011-04-30T09:56:20.0000000+00:00</time></trkpt><trkpt lat="20.955484" lon="107.049095"><ele>14.4</ele><time>2011-04-30T09:56:25.0000000+00:00</time></trkpt><trkpt lat="20.955486" lon="107.049095"><ele>14.3</ele><time>2011-04-30T09:56:30.0000000+00:00</time></trkpt><trkpt lat="20.955488" lon="107.049088"><ele>14.2</ele><time>2011-04-30T09:56:35.0000000+00:00</time></trkpt><trkpt lat="20.955492" lon="107.049095"><ele>14.0</ele><time>2011-04-30T09:56:40.0000000+00:00</time></trkpt><trkpt lat="20.95549" lon="107.049088"><ele>13.9</ele><time>2011-04-30T09:56:45.0000000+00:00</time></trkpt><trkpt lat="20.955488" lon="107.049095"><ele>14.2</ele><time>2011-04-30T09:56:50.0000000+00:00</time></trkpt><trkpt lat="20.955494" lon="107.049088"><ele>14.1</ele><time>2011-04-30T09:56:55.0000000+00:00</time></trkpt><trkpt lat="20.955494" lon="107.049088"><ele>14.1</ele><time>2011-04-30T09:57:00.0000000+00:00</time></trkpt><trkpt lat="20.955494" lon="107.049088"><ele>14.2</ele><time>2011-04-30T09:57:05.0000000+00:00</time></trkpt><trkpt lat="20.955492" lon="107.049095"><ele>14.1</ele><time>2011-04-30T09:57:10.0000000+00:00</time></trkpt><trkpt lat="20.955471" lon="107.049141"><ele>14.2</ele><time>2011-04-30T09:57:15.0000000+00:00</time></trkpt><trkpt lat="20.955482" lon="107.049141"><ele>14.2</ele><time>2011-04-30T09:57:20.0000000+00:00</time></trkpt><trkpt lat="20.955482" lon="107.049133"><ele>14.3</ele><time>2011-04-30T09:57:25.0000000+00:00</time></trkpt><trkpt lat="20.955486" lon="107.049133"><ele>14.4</ele><time>2011-04-30T09:57:30.0000000+00:00</time></trkpt><trkpt lat="20.955486" lon="107.049126"><ele>14.5</ele><time>2011-04-30T09:57:35.0000000+00:00</time></trkpt><trkpt lat="20.955462" lon="107.049141"><ele>13.3</ele><time>2011-04-30T09:57:40.0000000+00:00</time></trkpt><trkpt lat="20.955471" lon="107.049149"><ele>13.3</ele><time>2011-04-30T09:57:45.0000000+00:00</time></trkpt><trkpt lat="20.955471" lon="107.049141"><ele>13.4</ele><time>2011-04-30T09:57:50.0000000+00:00</time></trkpt><trkpt lat="20.955463" lon="107.049133"><ele>13.6</ele><time>2011-04-30T09:57:55.0000000+00:00</time></trkpt><trkpt lat="20.955452" lon="107.049126"><ele>13.9</ele><time>2011-04-30T09:58:00.0000000+00:00</time></trkpt><trkpt lat="20.955444" lon="107.049133"><ele>14.0</ele><time>2011-04-30T09:58:05.0000000+00:00</time></trkpt><trkpt lat="20.955441" lon="107.049126"><ele>13.9</ele><time>2011-04-30T09:58:10.0000000+00:00</time></trkpt><trkpt lat="20.955442" lon="107.049126"><ele>13.7</ele><time>2011-04-30T09:58:15.0000000+00:00</time></trkpt><trkpt lat="20.955406" lon="107.049126"><ele>13.0</ele><time>2011-04-30T09:58:20.0000000+00:00</time></trkpt><trkpt lat="20.955378" lon="107.049126"><ele>12.0</ele><time>2011-04-30T09:58:25.0000000+00:00</time></trkpt><trkpt lat="20.955374" lon="107.049126"><ele>11.8</ele><time>2011-04-30T09:58:30.0000000+00:00</time></trkpt><trkpt lat="20.955372" lon="107.049133"><ele>11.7</ele><time>2011-04-30T09:58:35.0000000+00:00</time></trkpt><trkpt lat="20.955372" lon="107.049133"><ele>11.7</ele><time>2011-04-30T09:58:40.0000000+00:00</time></trkpt><trkpt lat="20.955368" lon="107.049141"><ele>11.7</ele><time>2011-04-30T09:58:45.0000000+00:00</time></trkpt><trkpt lat="20.95537" lon="107.049133"><ele>11.7</ele><time>2011-04-30T09:58:50.0000000+00:00</time></trkpt><trkpt lat="20.955353" lon="107.049141"><ele>11.8</ele><time>2011-04-30T09:58:55.0000000+00:00</time></trkpt><trkpt lat="20.95532" lon="107.049141"><ele>12.6</ele><time>2011-04-30T09:59:00.0000000+00:00</time></trkpt><trkpt lat="20.955297" lon="107.049149"><ele>12.9</ele><time>2011-04-30T09:59:05.0000000+00:00</time></trkpt><trkpt lat="20.955297" lon="107.049149"><ele>12.9</ele><time>2011-04-30T09:59:10.0000000+00:00</time></trkpt><trkpt lat="20.955292" lon="107.049179"><ele>13.7</ele><time>2011-04-30T09:59:15.0000000+00:00</time></trkpt><trkpt lat="20.955286" lon="107.049179"><ele>13.6</ele><time>2011-04-30T09:59:20.0000000+00:00</time></trkpt><trkpt lat="20.955284" lon="107.049179"><ele>13.6</ele><time>2011-04-30T09:59:25.0000000+00:00</time></trkpt><trkpt lat="20.955292" lon="107.049179"><ele>13.7</ele><time>2011-04-30T09:59:30.0000000+00:00</time></trkpt><trkpt lat="20.955288" lon="107.049171"><ele>13.8</ele><time>2011-04-30T09:59:35.0000000+00:00</time></trkpt><trkpt lat="20.95528" lon="107.049164"><ele>13.9</ele><time>2011-04-30T09:59:40.0000000+00:00</time></trkpt><trkpt lat="20.955261" lon="107.049179"><ele>14.2</ele><time>2011-04-30T09:59:45.0000000+00:00</time></trkpt><trkpt lat="20.955267" lon="107.049202"><ele>12.5</ele><time>2011-04-30T09:59:50.0000000+00:00</time></trkpt><trkpt lat="20.955261" lon="107.04921"><ele>11.6</ele><time>2011-04-30T09:59:55.0000000+00:00</time></trkpt><trkpt lat="20.955259" lon="107.049202"><ele>11.5</ele><time>2011-04-30T10:00:00.0000000+00:00</time></trkpt><trkpt lat="20.955259" lon="107.049202"><ele>11.5</ele><time>2011-04-30T10:00:05.0000000+00:00</time></trkpt><trkpt lat="20.955263" lon="107.049202"><ele>11.4</ele><time>2011-04-30T10:00:10.0000000+00:00</time></trkpt><trkpt lat="20.955265" lon="107.049194"><ele>11.6</ele><time>2011-04-30T10:00:15.0000000+00:00</time></trkpt><trkpt lat="20.955267" lon="107.049179"><ele>12.1</ele><time>2011-04-30T10:00:20.0000000+00:00</time></trkpt><trkpt lat="20.955267" lon="107.049164"><ele>12.6</ele><time>2011-04-30T10:00:25.0000000+00:00</time></trkpt><trkpt lat="20.955269" lon="107.049171"><ele>12.6</ele><time>2011-04-30T10:00:30.0000000+00:00</time></trkpt><trkpt lat="20.955269" lon="107.049171"><ele>12.7</ele><time>2011-04-30T10:00:35.0000000+00:00</time></trkpt><trkpt lat="20.955269" lon="107.049164"><ele>13.0</ele><time>2011-04-30T10:00:40.0000000+00:00</time></trkpt><trkpt lat="20.955269" lon="107.049164"><ele>13.4</ele><time>2011-04-30T10:00:45.0000000+00:00</time></trkpt><trkpt lat="20.955269" lon="107.049164"><ele>13.7</ele><time>2011-04-30T10:00:50.0000000+00:00</time></trkpt><trkpt lat="20.955276" lon="107.049156"><ele>13.7</ele><time>2011-04-30T10:00:55.0000000+00:00</time></trkpt><trkpt lat="20.955286" lon="107.049133"><ele>13.6</ele><time>2011-04-30T10:01:00.0000000+00:00</time></trkpt><trkpt lat="20.955282" lon="107.049133"><ele>13.9</ele><time>2011-04-30T10:01:05.0000000+00:00</time></trkpt><trkpt lat="20.95528" lon="107.049141"><ele>13.9</ele><time>2011-04-30T10:01:10.0000000+00:00</time></trkpt><trkpt lat="20.955282" lon="107.049141"><ele>13.7</ele><time>2011-04-30T10:01:15.0000000+00:00</time></trkpt><trkpt lat="20.955305" lon="107.049141"><ele>13.5</ele><time>2011-04-30T10:01:20.0000000+00:00</time></trkpt><trkpt lat="20.95532" lon="107.049118"><ele>13.3</ele><time>2011-04-30T10:01:25.0000000+00:00</time></trkpt><trkpt lat="20.955336" lon="107.049103"><ele>12.5</ele><time>2011-04-30T10:01:30.0000000+00:00</time></trkpt><trkpt lat="20.955332" lon="107.049095"><ele>12.5</ele><time>2011-04-30T10:01:35.0000000+00:00</time></trkpt><trkpt lat="20.955349" lon="107.049088"><ele>12.4</ele><time>2011-04-30T10:01:40.0000000+00:00</time></trkpt><trkpt lat="20.955368" lon="107.04908"><ele>12.3</ele><time>2011-04-30T10:01:45.0000000+00:00</time></trkpt><trkpt lat="20.955397" lon="107.049065"><ele>11.9</ele><time>2011-04-30T10:01:50.0000000+00:00</time></trkpt><trkpt lat="20.955427" lon="107.049042"><ele>12.1</ele><time>2011-04-30T10:01:55.0000000+00:00</time></trkpt><trkpt lat="20.95545" lon="107.049042"><ele>12.2</ele><time>2011-04-30T10:02:00.0000000+00:00</time></trkpt><trkpt lat="20.955456" lon="107.049034"><ele>12.1</ele><time>2011-04-30T10:02:05.0000000+00:00</time></trkpt><trkpt lat="20.955463" lon="107.049026"><ele>12.1</ele><time>2011-04-30T10:02:10.0000000+00:00</time></trkpt><trkpt lat="20.955454" lon="107.049042"><ele>12.1</ele><time>2011-04-30T10:02:15.0000000+00:00</time></trkpt><trkpt lat="20.955462" lon="107.049034"><ele>11.7</ele><time>2011-04-30T10:02:20.0000000+00:00</time></trkpt><trkpt lat="20.955465" lon="107.049034"><ele>11.4</ele><time>2011-04-30T10:02:25.0000000+00:00</time></trkpt><trkpt lat="20.955463" lon="107.049034"><ele>11.4</ele><time>2011-04-30T10:02:30.0000000+00:00</time></trkpt><trkpt lat="20.95546" lon="107.049034"><ele>11.3</ele><time>2011-04-30T10:02:35.0000000+00:00</time></trkpt><trkpt lat="20.955454" lon="107.049034"><ele>11.3</ele><time>2011-04-30T10:02:40.0000000+00:00</time></trkpt><trkpt lat="20.955471" lon="107.049049"><ele>10.1</ele><time>2011-04-30T10:02:45.0000000+00:00</time></trkpt><trkpt lat="20.955473" lon="107.049057"><ele>9.6</ele><time>2011-04-30T10:02:50.0000000+00:00</time></trkpt><trkpt lat="20.955479" lon="107.049034"><ele>9.9</ele><time>2011-04-30T10:02:55.0000000+00:00</time></trkpt><trkpt lat="20.955479" lon="107.049026"><ele>9.9</ele><time>2011-04-30T10:03:00.0000000+00:00</time></trkpt><trkpt lat="20.955471" lon="107.049019"><ele>10.1</ele><time>2011-04-30T10:03:05.0000000+00:00</time></trkpt><trkpt lat="20.955475" lon="107.049004"><ele>10.6</ele><time>2011-04-30T10:03:10.0000000+00:00</time></trkpt><trkpt lat="20.955479" lon="107.048996"><ele>10.7</ele><time>2011-04-30T10:03:15.0000000+00:00</time></trkpt><trkpt lat="20.955479" lon="107.048996"><ele>11.0</ele><time>2011-04-30T10:03:20.0000000+00:00</time></trkpt><trkpt lat="20.955477" lon="107.048996"><ele>11.1</ele><time>2011-04-30T10:03:25.0000000+00:00</time></trkpt><trkpt lat="20.955475" lon="107.048996"><ele>11.3</ele><time>2011-04-30T10:03:30.0000000+00:00</time></trkpt><trkpt lat="20.955475" lon="107.048996"><ele>11.4</ele><time>2011-04-30T10:03:35.0000000+00:00</time></trkpt><trkpt lat="20.955475" lon="107.048996"><ele>11.4</ele><time>2011-04-30T10:03:40.0000000+00:00</time></trkpt><trkpt lat="20.955475" lon="107.048988"><ele>11.4</ele><time>2011-04-30T10:03:45.0000000+00:00</time></trkpt><trkpt lat="20.955475" lon="107.048988"><ele>11.5</ele><time>2011-04-30T10:03:50.0000000+00:00</time></trkpt><trkpt lat="20.955475" lon="107.048988"><ele>11.5</ele><time>2011-04-30T10:03:55.0000000+00:00</time></trkpt><trkpt lat="20.955475" lon="107.048988"><ele>11.6</ele><time>2011-04-30T10:04:00.0000000+00:00</time></trkpt><trkpt lat="20.955475" lon="107.048988"><ele>11.5</ele><time>2011-04-30T10:04:05.0000000+00:00</time></trkpt><trkpt lat="20.955475" lon="107.048988"><ele>11.6</ele><time>2011-04-30T10:04:10.0000000+00:00</time></trkpt><trkpt lat="20.955473" lon="107.048988"><ele>11.6</ele><time>2011-04-30T10:04:15.0000000+00:00</time></trkpt><trkpt lat="20.955471" lon="107.048988"><ele>11.7</ele><time>2011-04-30T10:04:20.0000000+00:00</time></trkpt><trkpt lat="20.955471" lon="107.048996"><ele>11.8</ele><time>2011-04-30T10:04:25.0000000+00:00</time></trkpt><trkpt lat="20.955467" lon="107.048996"><ele>11.9</ele><time>2011-04-30T10:04:30.0000000+00:00</time></trkpt><trkpt lat="20.955463" lon="107.049004"><ele>12.1</ele><time>2011-04-30T10:04:35.0000000+00:00</time></trkpt><trkpt lat="20.955462" lon="107.049011"><ele>12.5</ele><time>2011-04-30T10:04:40.0000000+00:00</time></trkpt><trkpt lat="20.95546" lon="107.049019"><ele>13.1</ele><time>2011-04-30T10:04:45.0000000+00:00</time></trkpt><trkpt lat="20.95546" lon="107.049011"><ele>13.7</ele><time>2011-04-30T10:04:50.0000000+00:00</time></trkpt><trkpt lat="20.955458" lon="107.049011"><ele>14.3</ele><time>2011-04-30T10:04:55.0000000+00:00</time></trkpt><trkpt lat="20.955448" lon="107.049011"><ele>14.9</ele><time>2011-04-30T10:05:00.0000000+00:00</time></trkpt><trkpt lat="20.955442" lon="107.049011"><ele>15.1</ele><time>2011-04-30T10:05:05.0000000+00:00</time></trkpt><trkpt lat="20.955429" lon="107.049049"><ele>13.6</ele><time>2011-04-30T10:05:10.0000000+00:00</time></trkpt><trkpt lat="20.955425" lon="107.049049"><ele>13.6</ele><time>2011-04-30T10:05:15.0000000+00:00</time></trkpt><trkpt lat="20.955397" lon="107.049103"><ele>12.5</ele><time>2011-04-30T10:05:20.0000000+00:00</time></trkpt><trkpt lat="20.955395" lon="107.049118"><ele>12.6</ele><time>2011-04-30T10:05:25.0000000+00:00</time></trkpt><trkpt lat="20.955391" lon="107.049126"><ele>12.6</ele><time>2011-04-30T10:05:30.0000000+00:00</time></trkpt><trkpt lat="20.955387" lon="107.049133"><ele>12.6</ele><time>2011-04-30T10:05:35.0000000+00:00</time></trkpt><trkpt lat="20.955387" lon="107.049141"><ele>12.5</ele><time>2011-04-30T10:05:40.0000000+00:00</time></trkpt><trkpt lat="20.955288" lon="107.049202"><ele>13.1</ele><time>2011-04-30T10:05:45.0000000+00:00</time></trkpt><trkpt lat="20.955276" lon="107.04921"><ele>14.0</ele><time>2011-04-30T10:05:50.0000000+00:00</time></trkpt><trkpt lat="20.955303" lon="107.049217"><ele>14.5</ele><time>2011-04-30T10:05:55.0000000+00:00</time></trkpt><trkpt lat="20.955309" lon="107.049217"><ele>14.4</ele><time>2011-04-30T10:06:00.0000000+00:00</time></trkpt><trkpt lat="20.955313" lon="107.049202"><ele>15.0</ele><time>2011-04-30T10:06:05.0000000+00:00</time></trkpt><trkpt lat="20.955307" lon="107.04921"><ele>15.1</ele><time>2011-04-30T10:06:10.0000000+00:00</time></trkpt><trkpt lat="20.955282" lon="107.049187"><ele>15.2</ele><time>2011-04-30T10:06:15.0000000+00:00</time></trkpt><trkpt lat="20.955288" lon="107.049149"><ele>15.5</ele><time>2011-04-30T10:06:20.0000000+00:00</time></trkpt><trkpt lat="20.955313" lon="107.049141"><ele>15.9</ele><time>2011-04-30T10:06:25.0000000+00:00</time></trkpt><trkpt lat="20.955315" lon="107.049149"><ele>16.6</ele><time>2011-04-30T10:06:30.0000000+00:00</time></trkpt><trkpt lat="20.955315" lon="107.049156"><ele>16.6</ele><time>2011-04-30T10:06:35.0000000+00:00</time></trkpt><trkpt lat="20.955313" lon="107.049156"><ele>16.4</ele><time>2011-04-30T10:06:40.0000000+00:00</time></trkpt><trkpt lat="20.955307" lon="107.049202"><ele>16.4</ele><time>2011-04-30T10:06:45.0000000+00:00</time></trkpt><trkpt lat="20.955301" lon="107.049225"><ele>17.0</ele><time>2011-04-30T10:06:50.0000000+00:00</time></trkpt><trkpt lat="20.955299" lon="107.049225"><ele>17.2</ele><time>2011-04-30T10:06:55.0000000+00:00</time></trkpt><trkpt lat="20.955299" lon="107.049232"><ele>17.1</ele><time>2011-04-30T10:07:00.0000000+00:00</time></trkpt><trkpt lat="20.955299" lon="107.049232"><ele>16.9</ele><time>2011-04-30T10:07:05.0000000+00:00</time></trkpt><trkpt lat="20.955299" lon="107.049232"><ele>16.9</ele><time>2011-04-30T10:07:10.0000000+00:00</time></trkpt><trkpt lat="20.955297" lon="107.049232"><ele>17.1</ele><time>2011-04-30T10:07:15.0000000+00:00</time></trkpt><trkpt lat="20.955294" lon="107.04924"><ele>17.3</ele><time>2011-04-30T10:07:20.0000000+00:00</time></trkpt><trkpt lat="20.955288" lon="107.049232"><ele>16.9</ele><time>2011-04-30T10:07:25.0000000+00:00</time></trkpt><trkpt lat="20.955275" lon="107.049232"><ele>17.3</ele><time>2011-04-30T10:07:30.0000000+00:00</time></trkpt><trkpt lat="20.955254" lon="107.049232"><ele>18.4</ele><time>2011-04-30T10:07:35.0000000+00:00</time></trkpt><trkpt lat="20.95525" lon="107.049255"><ele>18.8</ele><time>2011-04-30T10:07:40.0000000+00:00</time></trkpt><trkpt lat="20.955252" lon="107.049263"><ele>19.5</ele><time>2011-04-30T10:07:45.0000000+00:00</time></trkpt><trkpt lat="20.955233" lon="107.049255"><ele>20.4</ele><time>2011-04-30T10:07:50.0000000+00:00</time></trkpt><trkpt lat="20.955185" lon="107.049255"><ele>21.4</ele><time>2011-04-30T10:07:55.0000000+00:00</time></trkpt><trkpt lat="20.955177" lon="107.049263"><ele>21.8</ele><time>2011-04-30T10:08:00.0000000+00:00</time></trkpt><trkpt lat="20.95517" lon="107.049271"><ele>21.8</ele><time>2011-04-30T10:08:05.0000000+00:00</time></trkpt><trkpt lat="20.955172" lon="107.049278"><ele>21.6</ele><time>2011-04-30T10:08:10.0000000+00:00</time></trkpt><trkpt lat="20.955172" lon="107.049271"><ele>21.5</ele><time>2011-04-30T10:08:15.0000000+00:00</time></trkpt><trkpt lat="20.955172" lon="107.049271"><ele>21.5</ele><time>2011-04-30T10:08:20.0000000+00:00</time></trkpt><trkpt lat="20.955168" lon="107.049271"><ele>21.6</ele><time>2011-04-30T10:08:25.0000000+00:00</time></trkpt><trkpt lat="20.955168" lon="107.049271"><ele>21.6</ele><time>2011-04-30T10:08:30.0000000+00:00</time></trkpt><trkpt lat="20.955166" lon="107.049278"><ele>21.5</ele><time>2011-04-30T10:08:35.0000000+00:00</time></trkpt><trkpt lat="20.955153" lon="107.049263"><ele>22.1</ele><time>2011-04-30T10:08:40.0000000+00:00</time></trkpt><trkpt lat="20.955156" lon="107.049263"><ele>22.1</ele><time>2011-04-30T10:08:45.0000000+00:00</time></trkpt><trkpt lat="20.955151" lon="107.049263"><ele>22.0</ele><time>2011-04-30T10:08:50.0000000+00:00</time></trkpt><trkpt lat="20.955141" lon="107.049263"><ele>22.0</ele><time>2011-04-30T10:08:55.0000000+00:00</time></trkpt><trkpt lat="20.955143" lon="107.049271"><ele>21.7</ele><time>2011-04-30T10:09:00.0000000+00:00</time></trkpt><trkpt lat="20.955145" lon="107.049278"><ele>21.7</ele><time>2011-04-30T10:09:05.0000000+00:00</time></trkpt><trkpt lat="20.955143" lon="107.049278"><ele>21.6</ele><time>2011-04-30T10:09:10.0000000+00:00</time></trkpt><trkpt lat="20.955143" lon="107.049278"><ele>21.6</ele><time>2011-04-30T10:09:15.0000000+00:00</time></trkpt><trkpt lat="20.955143" lon="107.049278"><ele>21.7</ele><time>2011-04-30T10:09:20.0000000+00:00</time></trkpt><trkpt lat="20.955145" lon="107.049286"><ele>21.5</ele><time>2011-04-30T10:09:25.0000000+00:00</time></trkpt><trkpt lat="20.955151" lon="107.049309"><ele>21.9</ele><time>2011-04-30T10:09:30.0000000+00:00</time></trkpt><trkpt lat="20.955151" lon="107.049309"><ele>21.9</ele><time>2011-04-30T10:09:35.0000000+00:00</time></trkpt><trkpt lat="20.955133" lon="107.049309"><ele>21.1</ele><time>2011-04-30T10:09:40.0000000+00:00</time></trkpt><trkpt lat="20.95513" lon="107.049316"><ele>19.1</ele><time>2011-04-30T10:09:45.0000000+00:00</time></trkpt><trkpt lat="20.955122" lon="107.049316"><ele>19.5</ele><time>2011-04-30T10:09:50.0000000+00:00</time></trkpt><trkpt lat="20.955097" lon="107.049301"><ele>20.1</ele><time>2011-04-30T10:09:55.0000000+00:00</time></trkpt><trkpt lat="20.955091" lon="107.049301"><ele>20.1</ele><time>2011-04-30T10:10:00.0000000+00:00</time></trkpt><trkpt lat="20.955103" lon="107.049286"><ele>20.6</ele><time>2011-04-30T10:10:05.0000000+00:00</time></trkpt><trkpt lat="20.955118" lon="107.049271"><ele>21.3</ele><time>2011-04-30T10:10:10.0000000+00:00</time></trkpt><trkpt lat="20.955122" lon="107.049263"><ele>21.7</ele><time>2011-04-30T10:10:15.0000000+00:00</time></trkpt><trkpt lat="20.955122" lon="107.049263"><ele>21.7</ele><time>2011-04-30T10:10:20.0000000+00:00</time></trkpt><trkpt lat="20.95512" lon="107.049263"><ele>21.8</ele><time>2011-04-30T10:10:25.0000000+00:00</time></trkpt><trkpt lat="20.955107" lon="107.049255"><ele>21.4</ele><time>2011-04-30T10:10:30.0000000+00:00</time></trkpt><trkpt lat="20.955109" lon="107.049255"><ele>21.0</ele><time>2011-04-30T10:10:35.0000000+00:00</time></trkpt><trkpt lat="20.955112" lon="107.049263"><ele>19.5</ele><time>2011-04-30T10:10:40.0000000+00:00</time></trkpt><trkpt lat="20.955118" lon="107.049271"><ele>19.2</ele><time>2011-04-30T10:10:45.0000000+00:00</time></trkpt><trkpt lat="20.95512" lon="107.049271"><ele>19.1</ele><time>2011-04-30T10:10:50.0000000+00:00</time></trkpt><trkpt lat="20.955124" lon="107.049263"><ele>19.0</ele><time>2011-04-30T10:10:55.0000000+00:00</time></trkpt><trkpt lat="20.955137" lon="107.049263"><ele>18.9</ele><time>2011-04-30T10:11:00.0000000+00:00</time></trkpt><trkpt lat="20.955137" lon="107.049263"><ele>19.3</ele><time>2011-04-30T10:11:05.0000000+00:00</time></trkpt><trkpt lat="20.955139" lon="107.049271"><ele>19.4</ele><time>2011-04-30T10:11:10.0000000+00:00</time></trkpt><trkpt lat="20.955139" lon="107.049271"><ele>19.2</ele><time>2011-04-30T10:11:15.0000000+00:00</time></trkpt><trkpt lat="20.955137" lon="107.049271"><ele>19.1</ele><time>2011-04-30T10:11:20.0000000+00:00</time></trkpt><trkpt lat="20.955145" lon="107.049263"><ele>19.0</ele><time>2011-04-30T10:11:25.0000000+00:00</time></trkpt><trkpt lat="20.955149" lon="107.049263"><ele>18.6</ele><time>2011-04-30T10:11:30.0000000+00:00</time></trkpt><trkpt lat="20.955135" lon="107.04924"><ele>18.0</ele><time>2011-04-30T10:11:35.0000000+00:00</time></trkpt><trkpt lat="20.955135" lon="107.049225"><ele>18.2</ele><time>2011-04-30T10:11:40.0000000+00:00</time></trkpt><trkpt lat="20.955141" lon="107.04921"><ele>17.7</ele><time>2011-04-30T10:11:45.0000000+00:00</time></trkpt><trkpt lat="20.955147" lon="107.04921"><ele>17.0</ele><time>2011-04-30T10:11:50.0000000+00:00</time></trkpt><trkpt lat="20.955154" lon="107.049217"><ele>16.4</ele><time>2011-04-30T10:11:55.0000000+00:00</time></trkpt><trkpt lat="20.95516" lon="107.049217"><ele>16.8</ele><time>2011-04-30T10:12:00.0000000+00:00</time></trkpt><trkpt lat="20.955173" lon="107.049232"><ele>16.7</ele><time>2011-04-30T10:12:05.0000000+00:00</time></trkpt><trkpt lat="20.955172" lon="107.049232"><ele>16.9</ele><time>2011-04-30T10:12:10.0000000+00:00</time></trkpt><trkpt lat="20.955181" lon="107.049232"><ele>16.7</ele><time>2011-04-30T10:12:15.0000000+00:00</time></trkpt><trkpt lat="20.955173" lon="107.049232"><ele>16.3</ele><time>2011-04-30T10:12:20.0000000+00:00</time></trkpt><trkpt lat="20.955175" lon="107.049225"><ele>15.2</ele><time>2011-04-30T10:12:25.0000000+00:00</time></trkpt><trkpt lat="20.955193" lon="107.04921"><ele>15.2</ele><time>2011-04-30T10:12:30.0000000+00:00</time></trkpt><trkpt lat="20.955206" lon="107.04921"><ele>15.0</ele><time>2011-04-30T10:12:35.0000000+00:00</time></trkpt><trkpt lat="20.955215" lon="107.049202"><ele>15.1</ele><time>2011-04-30T10:12:40.0000000+00:00</time></trkpt><trkpt lat="20.955214" lon="107.049202"><ele>15.2</ele><time>2011-04-30T10:12:45.0000000+00:00</time></trkpt><trkpt lat="20.955215" lon="107.049202"><ele>15.2</ele><time>2011-04-30T10:12:50.0000000+00:00</time></trkpt><trkpt lat="20.955212" lon="107.049194"><ele>15.2</ele><time>2011-04-30T10:12:55.0000000+00:00</time></trkpt><trkpt lat="20.955196" lon="107.049187"><ele>15.7</ele><time>2011-04-30T10:13:00.0000000+00:00</time></trkpt><trkpt lat="20.955194" lon="107.049187"><ele>15.8</ele><time>2011-04-30T10:13:05.0000000+00:00</time></trkpt><trkpt lat="20.955191" lon="107.049179"><ele>15.9</ele><time>2011-04-30T10:13:10.0000000+00:00</time></trkpt><trkpt lat="20.955193" lon="107.049187"><ele>16.0</ele><time>2011-04-30T10:13:15.0000000+00:00</time></trkpt><trkpt lat="20.955194" lon="107.049187"><ele>16.1</ele><time>2011-04-30T10:13:20.0000000+00:00</time></trkpt><trkpt lat="20.955212" lon="107.049194"><ele>15.9</ele><time>2011-04-30T10:13:25.0000000+00:00</time></trkpt><trkpt lat="20.955214" lon="107.049194"><ele>15.7</ele><time>2011-04-30T10:13:30.0000000+00:00</time></trkpt><trkpt lat="20.955221" lon="107.049179"><ele>16.6</ele><time>2011-04-30T10:13:35.0000000+00:00</time></trkpt><trkpt lat="20.955223" lon="107.049171"><ele>16.9</ele><time>2011-04-30T10:13:40.0000000+00:00</time></trkpt><trkpt lat="20.955223" lon="107.049171"><ele>16.8</ele><time>2011-04-30T10:13:45.0000000+00:00</time></trkpt><trkpt lat="20.955225" lon="107.049171"><ele>16.8</ele><time>2011-04-30T10:13:50.0000000+00:00</time></trkpt><trkpt lat="20.955225" lon="107.049171"><ele>16.8</ele><time>2011-04-30T10:13:55.0000000+00:00</time></trkpt><trkpt lat="20.955225" lon="107.049171"><ele>16.8</ele><time>2011-04-30T10:14:00.0000000+00:00</time></trkpt><trkpt lat="20.955225" lon="107.049171"><ele>16.7</ele><time>2011-04-30T10:14:05.0000000+00:00</time></trkpt><trkpt lat="20.955225" lon="107.049171"><ele>16.7</ele><time>2011-04-30T10:14:10.0000000+00:00</time></trkpt><trkpt lat="20.955229" lon="107.049171"><ele>16.7</ele><time>2011-04-30T10:14:15.0000000+00:00</time></trkpt><trkpt lat="20.955217" lon="107.049164"><ele>16.9</ele><time>2011-04-30T10:14:20.0000000+00:00</time></trkpt><trkpt lat="20.955221" lon="107.049156"><ele>17.6</ele><time>2011-04-30T10:14:25.0000000+00:00</time></trkpt><trkpt lat="20.955229" lon="107.049179"><ele>17.3</ele><time>2011-04-30T10:14:30.0000000+00:00</time></trkpt><trkpt lat="20.955221" lon="107.049194"><ele>17.4</ele><time>2011-04-30T10:14:35.0000000+00:00</time></trkpt><trkpt lat="20.955221" lon="107.049194"><ele>17.5</ele><time>2011-04-30T10:14:40.0000000+00:00</time></trkpt><trkpt lat="20.955219" lon="107.04921"><ele>18.3</ele><time>2011-04-30T10:14:45.0000000+00:00</time></trkpt><trkpt lat="20.955173" lon="107.049232"><ele>17.5</ele><time>2011-04-30T10:14:50.0000000+00:00</time></trkpt><trkpt lat="20.955151" lon="107.049248"><ele>18.3</ele><time>2011-04-30T10:14:55.0000000+00:00</time></trkpt><trkpt lat="20.955128" lon="107.049255"><ele>18.5</ele><time>2011-04-30T10:15:00.0000000+00:00</time></trkpt><trkpt lat="20.955116" lon="107.049278"><ele>17.9</ele><time>2011-04-30T10:15:05.0000000+00:00</time></trkpt><trkpt lat="20.955116" lon="107.049271"><ele>17.8</ele><time>2011-04-30T10:15:10.0000000+00:00</time></trkpt><trkpt lat="20.955114" lon="107.049278"><ele>17.8</ele><time>2011-04-30T10:15:15.0000000+00:00</time></trkpt><trkpt lat="20.95513" lon="107.049271"><ele>17.9</ele><time>2011-04-30T10:15:20.0000000+00:00</time></trkpt><trkpt lat="20.955147" lon="107.049263"><ele>17.9</ele><time>2011-04-30T10:15:25.0000000+00:00</time></trkpt><trkpt lat="20.955149" lon="107.049263"><ele>17.9</ele><time>2011-04-30T10:15:30.0000000+00:00</time></trkpt><trkpt lat="20.955147" lon="107.049255"><ele>18.4</ele><time>2011-04-30T10:15:35.0000000+00:00</time></trkpt><trkpt lat="20.955145" lon="107.04924"><ele>17.9</ele><time>2011-04-30T10:15:40.0000000+00:00</time></trkpt><trkpt lat="20.955139" lon="107.049248"><ele>17.6</ele><time>2011-04-30T10:15:45.0000000+00:00</time></trkpt><trkpt lat="20.955141" lon="107.049255"><ele>18.9</ele><time>2011-04-30T10:15:50.0000000+00:00</time></trkpt><trkpt lat="20.955145" lon="107.049263"><ele>18.1</ele><time>2011-04-30T10:15:55.0000000+00:00</time></trkpt><trkpt lat="20.955145" lon="107.049255"><ele>18.2</ele><time>2011-04-30T10:16:00.0000000+00:00</time></trkpt><trkpt lat="20.955137" lon="107.049255"><ele>18.0</ele><time>2011-04-30T10:16:05.0000000+00:00</time></trkpt><trkpt lat="20.955141" lon="107.049263"><ele>18.1</ele><time>2011-04-30T10:16:10.0000000+00:00</time></trkpt><trkpt lat="20.955164" lon="107.049248"><ele>17.8</ele><time>2011-04-30T10:16:15.0000000+00:00</time></trkpt><trkpt lat="20.955183" lon="107.049217"><ele>18.1</ele><time>2011-04-30T10:16:20.0000000+00:00</time></trkpt><trkpt lat="20.955202" lon="107.049194"><ele>18.1</ele><time>2011-04-30T10:16:25.0000000+00:00</time></trkpt><trkpt lat="20.955217" lon="107.049171"><ele>18.4</ele><time>2011-04-30T10:16:30.0000000+00:00</time></trkpt><trkpt lat="20.955219" lon="107.049164"><ele>18.4</ele><time>2011-04-30T10:16:35.0000000+00:00</time></trkpt><trkpt lat="20.955217" lon="107.049156"><ele>18.3</ele><time>2011-04-30T10:16:40.0000000+00:00</time></trkpt><trkpt lat="20.955206" lon="107.049126"><ele>18.6</ele><time>2011-04-30T10:16:45.0000000+00:00</time></trkpt><trkpt lat="20.955194" lon="107.04911"><ele>18.8</ele><time>2011-04-30T10:16:50.0000000+00:00</time></trkpt><trkpt lat="20.955193" lon="107.049095"><ele>18.9</ele><time>2011-04-30T10:16:55.0000000+00:00</time></trkpt><trkpt lat="20.955172" lon="107.04911"><ele>19.3</ele><time>2011-04-30T10:17:00.0000000+00:00</time></trkpt><trkpt lat="20.955164" lon="107.049118"><ele>19.5</ele><time>2011-04-30T10:17:05.0000000+00:00</time></trkpt><trkpt lat="20.955162" lon="107.049118"><ele>19.8</ele><time>2011-04-30T10:17:10.0000000+00:00</time></trkpt><trkpt lat="20.955143" lon="107.049118"><ele>20.2</ele><time>2011-04-30T10:17:15.0000000+00:00</time></trkpt><trkpt lat="20.955126" lon="107.049141"><ele>20.8</ele><time>2011-04-30T10:17:20.0000000+00:00</time></trkpt><trkpt lat="20.955122" lon="107.049149"><ele>21.5</ele><time>2011-04-30T10:17:25.0000000+00:00</time></trkpt><trkpt lat="20.955126" lon="107.049171"><ele>23.9</ele><time>2011-04-30T10:17:30.0000000+00:00</time></trkpt><trkpt lat="20.955111" lon="107.049187"><ele>25.9</ele><time>2011-04-30T10:17:35.0000000+00:00</time></trkpt><trkpt lat="20.955105" lon="107.049187"><ele>25.8</ele><time>2011-04-30T10:17:40.0000000+00:00</time></trkpt><trkpt lat="20.95508" lon="107.049179"><ele>27.1</ele><time>2011-04-30T10:17:45.0000000+00:00</time></trkpt><trkpt lat="20.955076" lon="107.049171"><ele>27.1</ele><time>2011-04-30T10:17:50.0000000+00:00</time></trkpt><trkpt lat="20.955072" lon="107.049141"><ele>25.5</ele><time>2011-04-30T10:17:55.0000000+00:00</time></trkpt><trkpt lat="20.955069" lon="107.04911"><ele>24.2</ele><time>2011-04-30T10:18:00.0000000+00:00</time></trkpt><trkpt lat="20.955055" lon="107.049103"><ele>23.9</ele><time>2011-04-30T10:18:05.0000000+00:00</time></trkpt><trkpt lat="20.955057" lon="107.049095"><ele>24.0</ele><time>2011-04-30T10:18:10.0000000+00:00</time></trkpt><trkpt lat="20.95507" lon="107.04911"><ele>23.5</ele><time>2011-04-30T10:18:15.0000000+00:00</time></trkpt><trkpt lat="20.955076" lon="107.049118"><ele>23.9</ele><time>2011-04-30T10:18:20.0000000+00:00</time></trkpt><trkpt lat="20.955074" lon="107.049126"><ele>24.0</ele><time>2011-04-30T10:18:25.0000000+00:00</time></trkpt><trkpt lat="20.95508" lon="107.049126"><ele>24.0</ele><time>2011-04-30T10:18:30.0000000+00:00</time></trkpt><trkpt lat="20.955086" lon="107.049118"><ele>24.0</ele><time>2011-04-30T10:18:35.0000000+00:00</time></trkpt><trkpt lat="20.95509" lon="107.049095"><ele>24.6</ele><time>2011-04-30T10:18:40.0000000+00:00</time></trkpt><trkpt lat="20.955107" lon="107.049042"><ele>25.8</ele><time>2011-04-30T10:18:45.0000000+00:00</time></trkpt><trkpt lat="20.95512" lon="107.049019"><ele>25.2</ele><time>2011-04-30T10:18:50.0000000+00:00</time></trkpt><trkpt lat="20.955097" lon="107.049019"><ele>24.8</ele><time>2011-04-30T10:18:55.0000000+00:00</time></trkpt><trkpt lat="20.955105" lon="107.049034"><ele>24.9</ele><time>2011-04-30T10:19:00.0000000+00:00</time></trkpt><trkpt lat="20.955118" lon="107.049057"><ele>25.4</ele><time>2011-04-30T10:19:05.0000000+00:00</time></trkpt><trkpt lat="20.955147" lon="107.049088"><ele>26.3</ele><time>2011-04-30T10:19:10.0000000+00:00</time></trkpt><trkpt lat="20.955181" lon="107.049126"><ele>27.0</ele><time>2011-04-30T10:19:15.0000000+00:00</time></trkpt><trkpt lat="20.955259" lon="107.049126"><ele>30.9</ele><time>2011-04-30T10:19:20.0000000+00:00</time></trkpt><trkpt lat="20.955301" lon="107.049164"><ele>33.3</ele><time>2011-04-30T10:19:25.0000000+00:00</time></trkpt><trkpt lat="20.955313" lon="107.049217"><ele>34.6</ele><time>2011-04-30T10:19:30.0000000+00:00</time></trkpt><trkpt lat="20.955334" lon="107.049271"><ele>34.1</ele><time>2011-04-30T10:19:35.0000000+00:00</time></trkpt><trkpt lat="20.955374" lon="107.049263"><ele>35.4</ele><time>2011-04-30T10:19:40.0000000+00:00</time></trkpt><trkpt lat="20.955362" lon="107.049255"><ele>37.6</ele><time>2011-04-30T10:19:45.0000000+00:00</time></trkpt><trkpt lat="20.955359" lon="107.049248"><ele>38.4</ele><time>2011-04-30T10:19:50.0000000+00:00</time></trkpt><trkpt lat="20.955357" lon="107.049248"><ele>38.6</ele><time>2011-04-30T10:19:55.0000000+00:00</time></trkpt><trkpt lat="20.955355" lon="107.049248"><ele>38.8</ele><time>2011-04-30T10:20:00.0000000+00:00</time></trkpt><trkpt lat="20.955355" lon="107.049255"><ele>38.9</ele><time>2011-04-30T10:20:05.0000000+00:00</time></trkpt><trkpt lat="20.955311" lon="107.049294"><ele>39.0</ele><time>2011-04-30T10:20:10.0000000+00:00</time></trkpt><trkpt lat="20.955336" lon="107.049286"><ele>39.2</ele><time>2011-04-30T10:20:15.0000000+00:00</time></trkpt><trkpt lat="20.955412" lon="107.049332"><ele>40.2</ele><time>2011-04-30T10:20:20.0000000+00:00</time></trkpt><trkpt lat="20.95546" lon="107.049339"><ele>38.6</ele><time>2011-04-30T10:20:25.0000000+00:00</time></trkpt><trkpt lat="20.955467" lon="107.049332"><ele>37.6</ele><time>2011-04-30T10:20:30.0000000+00:00</time></trkpt><trkpt lat="20.955458" lon="107.049324"><ele>36.0</ele><time>2011-04-30T10:20:35.0000000+00:00</time></trkpt><trkpt lat="20.955433" lon="107.049309"><ele>35.9</ele><time>2011-04-30T10:20:40.0000000+00:00</time></trkpt><trkpt lat="20.955423" lon="107.049309"><ele>35.8</ele><time>2011-04-30T10:20:45.0000000+00:00</time></trkpt><trkpt lat="20.955425" lon="107.049309"><ele>35.7</ele><time>2011-04-30T10:20:50.0000000+00:00</time></trkpt><trkpt lat="20.955414" lon="107.049316"><ele>35.0</ele><time>2011-04-30T10:20:55.0000000+00:00</time></trkpt><trkpt lat="20.955406" lon="107.049339"><ele>34.3</ele><time>2011-04-30T10:21:00.0000000+00:00</time></trkpt><trkpt lat="20.955402" lon="107.04937"><ele>34.3</ele><time>2011-04-30T10:21:05.0000000+00:00</time></trkpt><trkpt lat="20.955406" lon="107.049416"><ele>33.9</ele><time>2011-04-30T10:21:10.0000000+00:00</time></trkpt><trkpt lat="20.955462" lon="107.049438"><ele>34.0</ele><time>2011-04-30T10:21:15.0000000+00:00</time></trkpt><trkpt lat="20.955492" lon="107.049492"><ele>34.4</ele><time>2011-04-30T10:21:20.0000000+00:00</time></trkpt><trkpt lat="20.955479" lon="107.04953"><ele>32.1</ele><time>2011-04-30T10:21:25.0000000+00:00</time></trkpt><trkpt lat="20.955463" lon="107.049568"><ele>30.7</ele><time>2011-04-30T10:21:30.0000000+00:00</time></trkpt><trkpt lat="20.955452" lon="107.049591"><ele>30.9</ele><time>2011-04-30T10:21:35.0000000+00:00</time></trkpt><trkpt lat="20.955435" lon="107.049606"><ele>31.3</ele><time>2011-04-30T10:21:40.0000000+00:00</time></trkpt><trkpt lat="20.955473" lon="107.049591"><ele>30.1</ele><time>2011-04-30T10:21:45.0000000+00:00</time></trkpt><trkpt lat="20.955509" lon="107.049583"><ele>28.7</ele><time>2011-04-30T10:21:50.0000000+00:00</time></trkpt><trkpt lat="20.955563" lon="107.049591"><ele>28.1</ele><time>2011-04-30T10:21:55.0000000+00:00</time></trkpt><trkpt lat="20.955616" lon="107.049576"><ele>28.4</ele><time>2011-04-30T10:22:00.0000000+00:00</time></trkpt><trkpt lat="20.955677" lon="107.049568"><ele>27.7</ele><time>2011-04-30T10:22:05.0000000+00:00</time></trkpt><trkpt lat="20.955706" lon="107.049545"><ele>27.0</ele><time>2011-04-30T10:22:10.0000000+00:00</time></trkpt><trkpt lat="20.955736" lon="107.049553"><ele>25.6</ele><time>2011-04-30T10:22:15.0000000+00:00</time></trkpt><trkpt lat="20.955776" lon="107.049545"><ele>25.6</ele><time>2011-04-30T10:22:20.0000000+00:00</time></trkpt><trkpt lat="20.955828" lon="107.049538"><ele>26.2</ele><time>2011-04-30T10:22:25.0000000+00:00</time></trkpt><trkpt lat="20.955864" lon="107.049484"><ele>25.4</ele><time>2011-04-30T10:22:30.0000000+00:00</time></trkpt><trkpt lat="20.955917" lon="107.049461"><ele>27.3</ele><time>2011-04-30T10:22:35.0000000+00:00</time></trkpt><trkpt lat="20.955959" lon="107.049469"><ele>27.8</ele><time>2011-04-30T10:22:40.0000000+00:00</time></trkpt><trkpt lat="20.955976" lon="107.049492"><ele>29.4</ele><time>2011-04-30T10:22:45.0000000+00:00</time></trkpt><trkpt lat="20.956011" lon="107.049522"><ele>30.2</ele><time>2011-04-30T10:22:50.0000000+00:00</time></trkpt><trkpt lat="20.956032" lon="107.049553"><ele>30.2</ele><time>2011-04-30T10:22:55.0000000+00:00</time></trkpt><trkpt lat="20.956055" lon="107.049599"><ele>32.3</ele><time>2011-04-30T10:23:00.0000000+00:00</time></trkpt><trkpt lat="20.956068" lon="107.049667"><ele>33.6</ele><time>2011-04-30T10:23:05.0000000+00:00</time></trkpt><trkpt lat="20.956106" lon="107.049706"><ele>34.9</ele><time>2011-04-30T10:23:10.0000000+00:00</time></trkpt><trkpt lat="20.956152" lon="107.049751"><ele>35.7</ele><time>2011-04-30T10:23:15.0000000+00:00</time></trkpt><trkpt lat="20.956263" lon="107.049789"><ele>36.4</ele><time>2011-04-30T10:23:20.0000000+00:00</time></trkpt><trkpt lat="20.956314" lon="107.049812"><ele>32.9</ele><time>2011-04-30T10:23:25.0000000+00:00</time></trkpt><trkpt lat="20.956379" lon="107.049805"><ele>31.6</ele><time>2011-04-30T10:23:30.0000000+00:00</time></trkpt><trkpt lat="20.956446" lon="107.049812"><ele>31.6</ele><time>2011-04-30T10:23:35.0000000+00:00</time></trkpt><trkpt lat="20.956507" lon="107.04985"><ele>32.3</ele><time>2011-04-30T10:23:40.0000000+00:00</time></trkpt><trkpt lat="20.956587" lon="107.049873"><ele>32.7</ele><time>2011-04-30T10:23:45.0000000+00:00</time></trkpt><trkpt lat="20.956656" lon="107.049896"><ele>32.8</ele><time>2011-04-30T10:23:50.0000000+00:00</time></trkpt><trkpt lat="20.956734" lon="107.049904"><ele>34.3</ele><time>2011-04-30T10:23:55.0000000+00:00</time></trkpt><trkpt lat="20.956791" lon="107.049919"><ele>35.5</ele><time>2011-04-30T10:24:00.0000000+00:00</time></trkpt><trkpt lat="20.956861" lon="107.049957"><ele>36.0</ele><time>2011-04-30T10:24:05.0000000+00:00</time></trkpt><trkpt lat="20.956913" lon="107.049942"><ele>37.5</ele><time>2011-04-30T10:24:10.0000000+00:00</time></trkpt><trkpt lat="20.956964" lon="107.049957"><ele>40.1</ele><time>2011-04-30T10:24:15.0000000+00:00</time></trkpt><trkpt lat="20.956985" lon="107.050003"><ele>40.1</ele><time>2011-04-30T10:24:20.0000000+00:00</time></trkpt><trkpt lat="20.957026" lon="107.050049"><ele>36.1</ele><time>2011-04-30T10:24:25.0000000+00:00</time></trkpt><trkpt lat="20.957056" lon="107.050095"><ele>32.5</ele><time>2011-04-30T10:24:30.0000000+00:00</time></trkpt><trkpt lat="20.957098" lon="107.050133"><ele>35.3</ele><time>2011-04-30T10:24:35.0000000+00:00</time></trkpt><trkpt lat="20.957108" lon="107.050171"><ele>36.0</ele><time>2011-04-30T10:24:40.0000000+00:00</time></trkpt><trkpt lat="20.957104" lon="107.050209"><ele>36.9</ele><time>2011-04-30T10:24:45.0000000+00:00</time></trkpt><trkpt lat="20.957134" lon="107.050278"><ele>37.1</ele><time>2011-04-30T10:24:50.0000000+00:00</time></trkpt><trkpt lat="20.957155" lon="107.050339"><ele>38.5</ele><time>2011-04-30T10:24:55.0000000+00:00</time></trkpt><trkpt lat="20.957157" lon="107.050354"><ele>39.1</ele><time>2011-04-30T10:25:00.0000000+00:00</time></trkpt><trkpt lat="20.957151" lon="107.050392"><ele>39.1</ele><time>2011-04-30T10:25:05.0000000+00:00</time></trkpt><trkpt lat="20.95714" lon="107.050468"><ele>38.8</ele><time>2011-04-30T10:25:10.0000000+00:00</time></trkpt><trkpt lat="20.95713" lon="107.050522"><ele>38.9</ele><time>2011-04-30T10:25:15.0000000+00:00</time></trkpt><trkpt lat="20.957142" lon="107.05056"><ele>39.0</ele><time>2011-04-30T10:25:20.0000000+00:00</time></trkpt><trkpt lat="20.957136" lon="107.050598"><ele>39.3</ele><time>2011-04-30T10:25:25.0000000+00:00</time></trkpt><trkpt lat="20.957142" lon="107.050652"><ele>39.6</ele><time>2011-04-30T10:25:30.0000000+00:00</time></trkpt><trkpt lat="20.95697" lon="107.050583"><ele>41.6</ele><time>2011-04-30T10:25:47.0000000+00:00</time></trkpt><trkpt lat="20.957008" lon="107.050705"><ele>46.0</ele><time>2011-04-30T10:25:52.0000000+00:00</time></trkpt><trkpt lat="20.957262" lon="107.050552"><ele>53.4</ele><time>2011-04-30T10:25:57.0000000+00:00</time></trkpt><trkpt lat="20.957394" lon="107.050369"><ele>53.2</ele><time>2011-04-30T10:26:02.0000000+00:00</time></trkpt><trkpt lat="20.957405" lon="107.050362"><ele>53.3</ele><time>2011-04-30T10:26:07.0000000+00:00</time></trkpt><trkpt lat="20.957403" lon="107.050377"><ele>53.4</ele><time>2011-04-30T10:26:12.0000000+00:00</time></trkpt><trkpt lat="20.957403" lon="107.050407"><ele>53.6</ele><time>2011-04-30T10:26:17.0000000+00:00</time></trkpt><trkpt lat="20.95739" lon="107.050476"><ele>53.6</ele><time>2011-04-30T10:26:22.0000000+00:00</time></trkpt><trkpt lat="20.957352" lon="107.050522"><ele>53.6</ele><time>2011-04-30T10:26:27.0000000+00:00</time></trkpt><trkpt lat="20.957317" lon="107.050537"><ele>53.6</ele><time>2011-04-30T10:26:32.0000000+00:00</time></trkpt><trkpt lat="20.957296" lon="107.050537"><ele>53.6</ele><time>2011-04-30T10:26:37.0000000+00:00</time></trkpt><trkpt lat="20.957306" lon="107.050514"><ele>53.7</ele><time>2011-04-30T10:26:42.0000000+00:00</time></trkpt><trkpt lat="20.957302" lon="107.050514"><ele>53.8</ele><time>2011-04-30T10:26:47.0000000+00:00</time></trkpt><trkpt lat="20.957302" lon="107.050514"><ele>53.8</ele><time>2011-04-30T10:26:52.0000000+00:00</time></trkpt><trkpt lat="20.957302" lon="107.050514"><ele>53.8</ele><time>2011-04-30T10:26:57.0000000+00:00</time></trkpt><trkpt lat="20.957304" lon="107.050491"><ele>53.7</ele><time>2011-04-30T10:27:02.0000000+00:00</time></trkpt><trkpt lat="20.95734" lon="107.050407"><ele>53.7</ele><time>2011-04-30T10:27:07.0000000+00:00</time></trkpt><trkpt lat="20.957348" lon="107.050385"><ele>53.6</ele><time>2011-04-30T10:27:12.0000000+00:00</time></trkpt><trkpt lat="20.957359" lon="107.050385"><ele>53.5</ele><time>2011-04-30T10:27:17.0000000+00:00</time></trkpt><trkpt lat="20.957371" lon="107.050346"><ele>53.4</ele><time>2011-04-30T10:27:22.0000000+00:00</time></trkpt><trkpt lat="20.957373" lon="107.050346"><ele>53.2</ele><time>2011-04-30T10:27:27.0000000+00:00</time></trkpt><trkpt lat="20.957396" lon="107.050301"><ele>53.0</ele><time>2011-04-30T10:27:32.0000000+00:00</time></trkpt><trkpt lat="20.957392" lon="107.050301"><ele>52.9</ele><time>2011-04-30T10:27:37.0000000+00:00</time></trkpt><trkpt lat="20.957396" lon="107.050301"><ele>52.9</ele><time>2011-04-30T10:27:42.0000000+00:00</time></trkpt><trkpt lat="20.957426" lon="107.050278"><ele>52.7</ele><time>2011-04-30T10:27:47.0000000+00:00</time></trkpt><trkpt lat="20.957439" lon="107.05027"><ele>52.4</ele><time>2011-04-30T10:27:52.0000000+00:00</time></trkpt><trkpt lat="20.957457" lon="107.050255"><ele>52.1</ele><time>2011-04-30T10:27:57.0000000+00:00</time></trkpt><trkpt lat="20.957474" lon="107.050247"><ele>52.1</ele><time>2011-04-30T10:28:02.0000000+00:00</time></trkpt><trkpt lat="20.957481" lon="107.05024"><ele>52.0</ele><time>2011-04-30T10:28:07.0000000+00:00</time></trkpt><trkpt lat="20.957455" lon="107.05027"><ele>51.9</ele><time>2011-04-30T10:28:12.0000000+00:00</time></trkpt><trkpt lat="20.957453" lon="107.05027"><ele>51.9</ele><time>2011-04-30T10:28:17.0000000+00:00</time></trkpt><trkpt lat="20.957428" lon="107.050301"><ele>51.8</ele><time>2011-04-30T10:28:22.0000000+00:00</time></trkpt><trkpt lat="20.957405" lon="107.050323"><ele>51.7</ele><time>2011-04-30T10:28:27.0000000+00:00</time></trkpt><trkpt lat="20.957394" lon="107.050377"><ele>51.5</ele><time>2011-04-30T10:28:32.0000000+00:00</time></trkpt><trkpt lat="20.957405" lon="107.050407"><ele>51.3</ele><time>2011-04-30T10:28:37.0000000+00:00</time></trkpt><trkpt lat="20.957426" lon="107.050446"><ele>51.3</ele><time>2011-04-30T10:28:42.0000000+00:00</time></trkpt><trkpt lat="20.957418" lon="107.050491"><ele>51.2</ele><time>2011-04-30T10:28:47.0000000+00:00</time></trkpt><trkpt lat="20.957415" lon="107.050507"><ele>51.1</ele><time>2011-04-30T10:28:52.0000000+00:00</time></trkpt><trkpt lat="20.957397" lon="107.050499"><ele>51.0</ele><time>2011-04-30T10:28:57.0000000+00:00</time></trkpt><trkpt lat="20.957396" lon="107.050499"><ele>51.0</ele><time>2011-04-30T10:29:02.0000000+00:00</time></trkpt><trkpt lat="20.957403" lon="107.050461"><ele>50.9</ele><time>2011-04-30T10:29:07.0000000+00:00</time></trkpt><trkpt lat="20.957407" lon="107.050415"><ele>50.9</ele><time>2011-04-30T10:29:12.0000000+00:00</time></trkpt><trkpt lat="20.95742" lon="107.050392"><ele>51.0</ele><time>2011-04-30T10:29:17.0000000+00:00</time></trkpt><trkpt lat="20.95743" lon="107.050369"><ele>51.0</ele><time>2011-04-30T10:29:22.0000000+00:00</time></trkpt><trkpt lat="20.957434" lon="107.050346"><ele>50.9</ele><time>2011-04-30T10:29:27.0000000+00:00</time></trkpt><trkpt lat="20.95743" lon="107.050339"><ele>50.8</ele><time>2011-04-30T10:29:32.0000000+00:00</time></trkpt><trkpt lat="20.957422" lon="107.050339"><ele>50.8</ele><time>2011-04-30T10:29:37.0000000+00:00</time></trkpt><trkpt lat="20.957409" lon="107.050331"><ele>50.7</ele><time>2011-04-30T10:29:42.0000000+00:00</time></trkpt><trkpt lat="20.957415" lon="107.050323"><ele>50.7</ele><time>2011-04-30T10:29:47.0000000+00:00</time></trkpt><trkpt lat="20.957415" lon="107.050316"><ele>50.7</ele><time>2011-04-30T10:29:52.0000000+00:00</time></trkpt><trkpt lat="20.95743" lon="107.050316"><ele>50.7</ele><time>2011-04-30T10:29:57.0000000+00:00</time></trkpt><trkpt lat="20.957464" lon="107.050316"><ele>51.0</ele><time>2011-04-30T10:30:02.0000000+00:00</time></trkpt><trkpt lat="20.957508" lon="107.050323"><ele>51.5</ele><time>2011-04-30T10:30:07.0000000+00:00</time></trkpt><trkpt lat="20.957527" lon="107.050323"><ele>52.0</ele><time>2011-04-30T10:30:12.0000000+00:00</time></trkpt><trkpt lat="20.957531" lon="107.050339"><ele>52.5</ele><time>2011-04-30T10:30:17.0000000+00:00</time></trkpt><trkpt lat="20.95751" lon="107.050354"><ele>52.7</ele><time>2011-04-30T10:30:22.0000000+00:00</time></trkpt><trkpt lat="20.957491" lon="107.050354"><ele>53.0</ele><time>2011-04-30T10:30:27.0000000+00:00</time></trkpt><trkpt lat="20.957478" lon="107.050346"><ele>53.1</ele><time>2011-04-30T10:30:32.0000000+00:00</time></trkpt><trkpt lat="20.957472" lon="107.050339"><ele>53.1</ele><time>2011-04-30T10:30:37.0000000+00:00</time></trkpt><trkpt lat="20.957458" lon="107.050331"><ele>53.1</ele><time>2011-04-30T10:30:42.0000000+00:00</time></trkpt><trkpt lat="20.957443" lon="107.050323"><ele>53.2</ele><time>2011-04-30T10:30:47.0000000+00:00</time></trkpt><trkpt lat="20.957436" lon="107.050301"><ele>53.3</ele><time>2011-04-30T10:30:52.0000000+00:00</time></trkpt><trkpt lat="20.957426" lon="107.050308"><ele>53.2</ele><time>2011-04-30T10:30:57.0000000+00:00</time></trkpt><trkpt lat="20.957417" lon="107.050308"><ele>53.2</ele><time>2011-04-30T10:31:02.0000000+00:00</time></trkpt><trkpt lat="20.957411" lon="107.050316"><ele>53.2</ele><time>2011-04-30T10:31:07.0000000+00:00</time></trkpt><trkpt lat="20.957397" lon="107.050308"><ele>53.2</ele><time>2011-04-30T10:31:12.0000000+00:00</time></trkpt><trkpt lat="20.957378" lon="107.050323"><ele>53.3</ele><time>2011-04-30T10:31:17.0000000+00:00</time></trkpt><trkpt lat="20.957384" lon="107.050301"><ele>53.4</ele><time>2011-04-30T10:31:22.0000000+00:00</time></trkpt><trkpt lat="20.957384" lon="107.050301"><ele>53.4</ele><time>2011-04-30T10:31:27.0000000+00:00</time></trkpt><trkpt lat="20.957378" lon="107.050308"><ele>53.4</ele><time>2011-04-30T10:31:32.0000000+00:00</time></trkpt><trkpt lat="20.957371" lon="107.050346"><ele>53.4</ele><time>2011-04-30T10:31:37.0000000+00:00</time></trkpt><trkpt lat="20.957369" lon="107.050369"><ele>53.5</ele><time>2011-04-30T10:31:42.0000000+00:00</time></trkpt><trkpt lat="20.957382" lon="107.050415"><ele>53.7</ele><time>2011-04-30T10:31:47.0000000+00:00</time></trkpt><trkpt lat="20.95738" lon="107.050423"><ele>53.6</ele><time>2011-04-30T10:31:52.0000000+00:00</time></trkpt><trkpt lat="20.957376" lon="107.050438"><ele>53.5</ele><time>2011-04-30T10:31:57.0000000+00:00</time></trkpt><trkpt lat="20.957397" lon="107.050461"><ele>54.0</ele><time>2011-04-30T10:32:02.0000000+00:00</time></trkpt><trkpt lat="20.95742" lon="107.050461"><ele>54.8</ele><time>2011-04-30T10:32:07.0000000+00:00</time></trkpt><trkpt lat="20.95742" lon="107.050468"><ele>55.3</ele><time>2011-04-30T10:32:12.0000000+00:00</time></trkpt><trkpt lat="20.95742" lon="107.050476"><ele>55.3</ele><time>2011-04-30T10:32:17.0000000+00:00</time></trkpt><trkpt lat="20.957418" lon="107.050468"><ele>55.2</ele><time>2011-04-30T10:32:22.0000000+00:00</time></trkpt><trkpt lat="20.957428" lon="107.050461"><ele>55.2</ele><time>2011-04-30T10:32:27.0000000+00:00</time></trkpt><trkpt lat="20.957426" lon="107.050461"><ele>55.2</ele><time>2011-04-30T10:32:32.0000000+00:00</time></trkpt><trkpt lat="20.957411" lon="107.050438"><ele>55.0</ele><time>2011-04-30T10:32:37.0000000+00:00</time></trkpt><trkpt lat="20.957401" lon="107.050446"><ele>54.7</ele><time>2011-04-30T10:32:42.0000000+00:00</time></trkpt><trkpt lat="20.957411" lon="107.050423"><ele>54.7</ele><time>2011-04-30T10:32:47.0000000+00:00</time></trkpt><trkpt lat="20.957407" lon="107.050446"><ele>54.9</ele><time>2011-04-30T10:32:52.0000000+00:00</time></trkpt><trkpt lat="20.957409" lon="107.050446"><ele>54.8</ele><time>2011-04-30T10:32:57.0000000+00:00</time></trkpt><trkpt lat="20.957403" lon="107.050438"><ele>54.8</ele><time>2011-04-30T10:33:02.0000000+00:00</time></trkpt><trkpt lat="20.957457" lon="107.050453"><ele>55.0</ele><time>2011-04-30T10:33:07.0000000+00:00</time></trkpt><trkpt lat="20.957476" lon="107.050484"><ele>55.2</ele><time>2011-04-30T10:33:12.0000000+00:00</time></trkpt><trkpt lat="20.957504" lon="107.050491"><ele>55.5</ele><time>2011-04-30T10:33:17.0000000+00:00</time></trkpt><trkpt lat="20.957495" lon="107.050484"><ele>55.6</ele><time>2011-04-30T10:33:22.0000000+00:00</time></trkpt><trkpt lat="20.957497" lon="107.050468"><ele>55.8</ele><time>2011-04-30T10:33:27.0000000+00:00</time></trkpt><trkpt lat="20.957495" lon="107.050468"><ele>55.8</ele><time>2011-04-30T10:33:32.0000000+00:00</time></trkpt><trkpt lat="20.957489" lon="107.050476"><ele>55.8</ele><time>2011-04-30T10:33:37.0000000+00:00</time></trkpt><trkpt lat="20.957485" lon="107.050476"><ele>55.9</ele><time>2011-04-30T10:33:42.0000000+00:00</time></trkpt><trkpt lat="20.957489" lon="107.050453"><ele>55.9</ele><time>2011-04-30T10:33:47.0000000+00:00</time></trkpt><trkpt lat="20.957483" lon="107.050415"><ele>55.5</ele><time>2011-04-30T10:33:52.0000000+00:00</time></trkpt><trkpt lat="20.957499" lon="107.050407"><ele>55.0</ele><time>2011-04-30T10:33:57.0000000+00:00</time></trkpt><trkpt lat="20.957539" lon="107.050385"><ele>53.8</ele><time>2011-04-30T10:34:02.0000000+00:00</time></trkpt><trkpt lat="20.957546" lon="107.050415"><ele>52.8</ele><time>2011-04-30T10:34:07.0000000+00:00</time></trkpt><trkpt lat="20.957546" lon="107.050407"><ele>52.0</ele><time>2011-04-30T10:34:12.0000000+00:00</time></trkpt><trkpt lat="20.957542" lon="107.050407"><ele>51.6</ele><time>2011-04-30T10:34:17.0000000+00:00</time></trkpt><trkpt lat="20.957542" lon="107.050415"><ele>51.7</ele><time>2011-04-30T10:34:22.0000000+00:00</time></trkpt><trkpt lat="20.957542" lon="107.050423"><ele>51.7</ele><time>2011-04-30T10:34:27.0000000+00:00</time></trkpt><trkpt lat="20.957537" lon="107.05043"><ele>51.7</ele><time>2011-04-30T10:34:32.0000000+00:00</time></trkpt><trkpt lat="20.957525" lon="107.050446"><ele>51.4</ele><time>2011-04-30T10:34:37.0000000+00:00</time></trkpt><trkpt lat="20.957527" lon="107.05043"><ele>50.8</ele><time>2011-04-30T10:34:42.0000000+00:00</time></trkpt><trkpt lat="20.957523" lon="107.050423"><ele>50.8</ele><time>2011-04-30T10:34:47.0000000+00:00</time></trkpt><trkpt lat="20.9575" lon="107.050377"><ele>50.0</ele><time>2011-04-30T10:34:52.0000000+00:00</time></trkpt><trkpt lat="20.957504" lon="107.050323"><ele>48.7</ele><time>2011-04-30T10:34:57.0000000+00:00</time></trkpt><trkpt lat="20.957512" lon="107.050293"><ele>47.6</ele><time>2011-04-30T10:35:02.0000000+00:00</time></trkpt><trkpt lat="20.9575" lon="107.05027"><ele>46.3</ele><time>2011-04-30T10:35:07.0000000+00:00</time></trkpt><trkpt lat="20.957506" lon="107.050278"><ele>45.1</ele><time>2011-04-30T10:35:12.0000000+00:00</time></trkpt><trkpt lat="20.957491" lon="107.050293"><ele>45.1</ele><time>2011-04-30T10:35:17.0000000+00:00</time></trkpt><trkpt lat="20.957485" lon="107.050285"><ele>45.1</ele><time>2011-04-30T10:35:22.0000000+00:00</time></trkpt><trkpt lat="20.957481" lon="107.050293"><ele>45.1</ele><time>2011-04-30T10:35:27.0000000+00:00</time></trkpt><trkpt lat="20.957472" lon="107.050293"><ele>45.2</ele><time>2011-04-30T10:35:32.0000000+00:00</time></trkpt><trkpt lat="20.957472" lon="107.050293"><ele>45.2</ele><time>2011-04-30T10:35:37.0000000+00:00</time></trkpt><trkpt lat="20.957472" lon="107.050301"><ele>45.2</ele><time>2011-04-30T10:35:42.0000000+00:00</time></trkpt><trkpt lat="20.957472" lon="107.050301"><ele>45.2</ele><time>2011-04-30T10:35:47.0000000+00:00</time></trkpt><trkpt lat="20.957468" lon="107.050323"><ele>45.8</ele><time>2011-04-30T10:35:52.0000000+00:00</time></trkpt><trkpt lat="20.957455" lon="107.050346"><ele>46.4</ele><time>2011-04-30T10:35:57.0000000+00:00</time></trkpt><trkpt lat="20.957451" lon="107.050362"><ele>46.3</ele><time>2011-04-30T10:36:02.0000000+00:00</time></trkpt><trkpt lat="20.957438" lon="107.050346"><ele>46.4</ele><time>2011-04-30T10:36:07.0000000+00:00</time></trkpt><trkpt lat="20.957436" lon="107.050346"><ele>46.4</ele><time>2011-04-30T10:36:12.0000000+00:00</time></trkpt><trkpt lat="20.957441" lon="107.050346"><ele>46.4</ele><time>2011-04-30T10:36:17.0000000+00:00</time></trkpt><trkpt lat="20.957439" lon="107.050362"><ele>47.1</ele><time>2011-04-30T10:36:22.0000000+00:00</time></trkpt><trkpt lat="20.957443" lon="107.0504"><ele>48.0</ele><time>2011-04-30T10:36:27.0000000+00:00</time></trkpt><trkpt lat="20.957462" lon="107.050423"><ele>48.6</ele><time>2011-04-30T10:36:32.0000000+00:00</time></trkpt><trkpt lat="20.95746" lon="107.050423"><ele>49.3</ele><time>2011-04-30T10:36:37.0000000+00:00</time></trkpt><trkpt lat="20.957468" lon="107.050407"><ele>49.9</ele><time>2011-04-30T10:36:42.0000000+00:00</time></trkpt><trkpt lat="20.95746" lon="107.050392"><ele>51.3</ele><time>2011-04-30T10:36:47.0000000+00:00</time></trkpt><trkpt lat="20.957462" lon="107.050385"><ele>52.3</ele><time>2011-04-30T10:36:52.0000000+00:00</time></trkpt><trkpt lat="20.95746" lon="107.050385"><ele>52.5</ele><time>2011-04-30T10:36:57.0000000+00:00</time></trkpt><trkpt lat="20.957464" lon="107.050377"><ele>52.6</ele><time>2011-04-30T10:37:02.0000000+00:00</time></trkpt><trkpt lat="20.957462" lon="107.050369"><ele>52.6</ele><time>2011-04-30T10:37:07.0000000+00:00</time></trkpt><trkpt lat="20.95746" lon="107.050362"><ele>52.7</ele><time>2011-04-30T10:37:12.0000000+00:00</time></trkpt><trkpt lat="20.957462" lon="107.050362"><ele>52.8</ele><time>2011-04-30T10:37:17.0000000+00:00</time></trkpt><trkpt lat="20.95746" lon="107.050362"><ele>52.8</ele><time>2011-04-30T10:37:22.0000000+00:00</time></trkpt><trkpt lat="20.957458" lon="107.050369"><ele>52.8</ele><time>2011-04-30T10:37:27.0000000+00:00</time></trkpt><trkpt lat="20.957483" lon="107.050346"><ele>52.2</ele><time>2011-04-30T10:37:32.0000000+00:00</time></trkpt><trkpt lat="20.957485" lon="107.050346"><ele>52.1</ele><time>2011-04-30T10:37:37.0000000+00:00</time></trkpt><trkpt lat="20.957483" lon="107.050346"><ele>52.0</ele><time>2011-04-30T10:37:42.0000000+00:00</time></trkpt><trkpt lat="20.957478" lon="107.050362"><ele>53.0</ele><time>2011-04-30T10:37:47.0000000+00:00</time></trkpt><trkpt lat="20.957491" lon="107.050362"><ele>53.5</ele><time>2011-04-30T10:37:52.0000000+00:00</time></trkpt><trkpt lat="20.957495" lon="107.050362"><ele>53.5</ele><time>2011-04-30T10:37:57.0000000+00:00</time></trkpt><trkpt lat="20.957502" lon="107.050354"><ele>53.6</ele><time>2011-04-30T10:38:02.0000000+00:00</time></trkpt><trkpt lat="20.957493" lon="107.050354"><ele>53.5</ele><time>2011-04-30T10:38:07.0000000+00:00</time></trkpt><trkpt lat="20.957491" lon="107.050346"><ele>53.5</ele><time>2011-04-30T10:38:12.0000000+00:00</time></trkpt><trkpt lat="20.957476" lon="107.050369"><ele>53.6</ele><time>2011-04-30T10:38:17.0000000+00:00</time></trkpt><trkpt lat="20.957457" lon="107.05043"><ele>52.6</ele><time>2011-04-30T10:38:22.0000000+00:00</time></trkpt><trkpt lat="20.957443" lon="107.050468"><ele>52.2</ele><time>2011-04-30T10:38:27.0000000+00:00</time></trkpt><trkpt lat="20.957447" lon="107.050484"><ele>51.4</ele><time>2011-04-30T10:38:32.0000000+00:00</time></trkpt><trkpt lat="20.957455" lon="107.050468"><ele>51.3</ele><time>2011-04-30T10:38:37.0000000+00:00</time></trkpt><trkpt lat="20.957458" lon="107.050453"><ele>50.7</ele><time>2011-04-30T10:38:42.0000000+00:00</time></trkpt><trkpt lat="20.95746" lon="107.050446"><ele>50.7</ele><time>2011-04-30T10:38:47.0000000+00:00</time></trkpt><trkpt lat="20.957466" lon="107.050438"><ele>50.7</ele><time>2011-04-30T10:38:52.0000000+00:00</time></trkpt><trkpt lat="20.957479" lon="107.0504"><ele>50.8</ele><time>2011-04-30T10:38:57.0000000+00:00</time></trkpt><trkpt lat="20.957491" lon="107.050354"><ele>50.9</ele><time>2011-04-30T10:39:02.0000000+00:00</time></trkpt><trkpt lat="20.957493" lon="107.050308"><ele>51.4</ele><time>2011-04-30T10:39:07.0000000+00:00</time></trkpt><trkpt lat="20.957493" lon="107.050301"><ele>51.4</ele><time>2011-04-30T10:39:12.0000000+00:00</time></trkpt><trkpt lat="20.9575" lon="107.050293"><ele>51.3</ele><time>2011-04-30T10:39:17.0000000+00:00</time></trkpt><trkpt lat="20.957497" lon="107.050285"><ele>51.3</ele><time>2011-04-30T10:39:22.0000000+00:00</time></trkpt><trkpt lat="20.957491" lon="107.050285"><ele>51.2</ele><time>2011-04-30T10:39:27.0000000+00:00</time></trkpt><trkpt lat="20.957487" lon="107.050285"><ele>51.2</ele><time>2011-04-30T10:39:32.0000000+00:00</time></trkpt><trkpt lat="20.957485" lon="107.050293"><ele>51.2</ele><time>2011-04-30T10:39:37.0000000+00:00</time></trkpt><trkpt lat="20.957489" lon="107.050301"><ele>51.2</ele><time>2011-04-30T10:39:42.0000000+00:00</time></trkpt><trkpt lat="20.957485" lon="107.050293"><ele>50.9</ele><time>2011-04-30T10:39:47.0000000+00:00</time></trkpt><trkpt lat="20.957479" lon="107.050293"><ele>50.9</ele><time>2011-04-30T10:39:52.0000000+00:00</time></trkpt><trkpt lat="20.957479" lon="107.050293"><ele>50.9</ele><time>2011-04-30T10:39:57.0000000+00:00</time></trkpt><trkpt lat="20.957481" lon="107.050293"><ele>50.8</ele><time>2011-04-30T10:40:02.0000000+00:00</time></trkpt><trkpt lat="20.957481" lon="107.050293"><ele>50.8</ele><time>2011-04-30T10:40:07.0000000+00:00</time></trkpt><trkpt lat="20.957478" lon="107.050293"><ele>50.8</ele><time>2011-04-30T10:40:12.0000000+00:00</time></trkpt><trkpt lat="20.957479" lon="107.050293"><ele>50.9</ele><time>2011-04-30T10:40:17.0000000+00:00</time></trkpt><trkpt lat="20.957481" lon="107.050301"><ele>50.9</ele><time>2011-04-30T10:40:22.0000000+00:00</time></trkpt><trkpt lat="20.957481" lon="107.050308"><ele>50.8</ele><time>2011-04-30T10:40:27.0000000+00:00</time></trkpt><trkpt lat="20.957481" lon="107.050331"><ele>51.1</ele><time>2011-04-30T10:40:32.0000000+00:00</time></trkpt><trkpt lat="20.957478" lon="107.050354"><ele>51.4</ele><time>2011-04-30T10:40:37.0000000+00:00</time></trkpt><trkpt lat="20.957478" lon="107.050354"><ele>51.6</ele><time>2011-04-30T10:40:42.0000000+00:00</time></trkpt><trkpt lat="20.957479" lon="107.050362"><ele>51.6</ele><time>2011-04-30T10:40:47.0000000+00:00</time></trkpt><trkpt lat="20.957479" lon="107.050362"><ele>51.6</ele><time>2011-04-30T10:40:52.0000000+00:00</time></trkpt><trkpt lat="20.957479" lon="107.050362"><ele>51.7</ele><time>2011-04-30T10:40:57.0000000+00:00</time></trkpt><trkpt lat="20.957474" lon="107.050362"><ele>51.7</ele><time>2011-04-30T10:41:02.0000000+00:00</time></trkpt><trkpt lat="20.957478" lon="107.050362"><ele>51.7</ele><time>2011-04-30T10:41:07.0000000+00:00</time></trkpt><trkpt lat="20.957483" lon="107.050377"><ele>51.8</ele><time>2011-04-30T10:41:12.0000000+00:00</time></trkpt><trkpt lat="20.957487" lon="107.050385"><ele>51.8</ele><time>2011-04-30T10:41:17.0000000+00:00</time></trkpt><trkpt lat="20.957487" lon="107.050385"><ele>51.9</ele><time>2011-04-30T10:41:22.0000000+00:00</time></trkpt><trkpt lat="20.957483" lon="107.050392"><ele>51.9</ele><time>2011-04-30T10:41:27.0000000+00:00</time></trkpt><trkpt lat="20.957481" lon="107.050392"><ele>52.0</ele><time>2011-04-30T10:41:32.0000000+00:00</time></trkpt><trkpt lat="20.957479" lon="107.0504"><ele>52.1</ele><time>2011-04-30T10:41:37.0000000+00:00</time></trkpt><trkpt lat="20.957479" lon="107.0504"><ele>52.2</ele><time>2011-04-30T10:41:42.0000000+00:00</time></trkpt><trkpt lat="20.957478" lon="107.0504"><ele>52.2</ele><time>2011-04-30T10:41:47.0000000+00:00</time></trkpt><trkpt lat="20.957478" lon="107.050392"><ele>52.3</ele><time>2011-04-30T10:41:52.0000000+00:00</time></trkpt><trkpt lat="20.957476" lon="107.0504"><ele>52.4</ele><time>2011-04-30T10:41:57.0000000+00:00</time></trkpt><trkpt lat="20.957472" lon="107.050407"><ele>52.5</ele><time>2011-04-30T10:42:02.0000000+00:00</time></trkpt><trkpt lat="20.957472" lon="107.050407"><ele>52.5</ele><time>2011-04-30T10:42:07.0000000+00:00</time></trkpt><trkpt lat="20.957468" lon="107.0504"><ele>52.6</ele><time>2011-04-30T10:42:12.0000000+00:00</time></trkpt><trkpt lat="20.957466" lon="107.050392"><ele>52.7</ele><time>2011-04-30T10:42:17.0000000+00:00</time></trkpt><trkpt lat="20.95747" lon="107.050385"><ele>52.7</ele><time>2011-04-30T10:42:22.0000000+00:00</time></trkpt><trkpt lat="20.95747" lon="107.050377"><ele>52.7</ele><time>2011-04-30T10:42:27.0000000+00:00</time></trkpt><trkpt lat="20.957468" lon="107.050369"><ele>52.7</ele><time>2011-04-30T10:42:32.0000000+00:00</time></trkpt><trkpt lat="20.957462" lon="107.050369"><ele>52.8</ele><time>2011-04-30T10:42:37.0000000+00:00</time></trkpt><trkpt lat="20.95746" lon="107.050362"><ele>52.8</ele><time>2011-04-30T10:42:42.0000000+00:00</time></trkpt><trkpt lat="20.957457" lon="107.050354"><ele>52.9</ele><time>2011-04-30T10:42:47.0000000+00:00</time></trkpt><trkpt lat="20.957453" lon="107.050354"><ele>52.9</ele><time>2011-04-30T10:42:52.0000000+00:00</time></trkpt><trkpt lat="20.957451" lon="107.050354"><ele>52.9</ele><time>2011-04-30T10:42:57.0000000+00:00</time></trkpt><trkpt lat="20.957453" lon="107.050346"><ele>52.9</ele><time>2011-04-30T10:43:02.0000000+00:00</time></trkpt><trkpt lat="20.957449" lon="107.050354"><ele>52.9</ele><time>2011-04-30T10:43:07.0000000+00:00</time></trkpt><trkpt lat="20.957447" lon="107.050362"><ele>52.9</ele><time>2011-04-30T10:43:12.0000000+00:00</time></trkpt><trkpt lat="20.957445" lon="107.050354"><ele>52.9</ele><time>2011-04-30T10:43:17.0000000+00:00</time></trkpt><trkpt lat="20.957445" lon="107.050354"><ele>53.0</ele><time>2011-04-30T10:43:22.0000000+00:00</time></trkpt><trkpt lat="20.957439" lon="107.050362"><ele>53.1</ele><time>2011-04-30T10:43:27.0000000+00:00</time></trkpt><trkpt lat="20.957441" lon="107.050354"><ele>53.1</ele><time>2011-04-30T10:43:32.0000000+00:00</time></trkpt><trkpt lat="20.957441" lon="107.050346"><ele>53.1</ele><time>2011-04-30T10:43:37.0000000+00:00</time></trkpt><trkpt lat="20.957439" lon="107.050346"><ele>53.1</ele><time>2011-04-30T10:43:42.0000000+00:00</time></trkpt><trkpt lat="20.957443" lon="107.050346"><ele>53.1</ele><time>2011-04-30T10:43:47.0000000+00:00</time></trkpt><trkpt lat="20.957445" lon="107.050346"><ele>53.1</ele><time>2011-04-30T10:43:52.0000000+00:00</time></trkpt><trkpt lat="20.957443" lon="107.050346"><ele>53.2</ele><time>2011-04-30T10:43:57.0000000+00:00</time></trkpt><trkpt lat="20.957443" lon="107.050362"><ele>53.2</ele><time>2011-04-30T10:44:02.0000000+00:00</time></trkpt><trkpt lat="20.957453" lon="107.050377"><ele>54.1</ele><time>2011-04-30T10:44:07.0000000+00:00</time></trkpt><trkpt lat="20.957455" lon="107.050385"><ele>54.1</ele><time>2011-04-30T10:44:12.0000000+00:00</time></trkpt><trkpt lat="20.957458" lon="107.050392"><ele>54.2</ele><time>2011-04-30T10:44:17.0000000+00:00</time></trkpt><trkpt lat="20.957453" lon="107.0504"><ele>54.2</ele><time>2011-04-30T10:44:22.0000000+00:00</time></trkpt><trkpt lat="20.957449" lon="107.050407"><ele>54.3</ele><time>2011-04-30T10:44:27.0000000+00:00</time></trkpt><trkpt lat="20.957447" lon="107.050407"><ele>54.3</ele><time>2011-04-30T10:44:32.0000000+00:00</time></trkpt><trkpt lat="20.957439" lon="107.050415"><ele>54.3</ele><time>2011-04-30T10:44:37.0000000+00:00</time></trkpt><trkpt lat="20.957439" lon="107.050415"><ele>54.3</ele><time>2011-04-30T10:44:42.0000000+00:00</time></trkpt><trkpt lat="20.957443" lon="107.05043"><ele>54.3</ele><time>2011-04-30T10:44:47.0000000+00:00</time></trkpt><trkpt lat="20.957453" lon="107.050423"><ele>54.6</ele><time>2011-04-30T10:44:52.0000000+00:00</time></trkpt><trkpt lat="20.957447" lon="107.050415"><ele>54.9</ele><time>2011-04-30T10:44:57.0000000+00:00</time></trkpt><trkpt lat="20.957445" lon="107.050415"><ele>55.0</ele><time>2011-04-30T10:45:02.0000000+00:00</time></trkpt><trkpt lat="20.957438" lon="107.050415"><ele>55.0</ele><time>2011-04-30T10:45:07.0000000+00:00</time></trkpt><trkpt lat="20.957436" lon="107.050415"><ele>55.0</ele><time>2011-04-30T10:45:12.0000000+00:00</time></trkpt><trkpt lat="20.957438" lon="107.050423"><ele>55.0</ele><time>2011-04-30T10:45:17.0000000+00:00</time></trkpt><trkpt lat="20.95743" lon="107.05043"><ele>54.9</ele><time>2011-04-30T10:45:22.0000000+00:00</time></trkpt><trkpt lat="20.95742" lon="107.05043"><ele>54.9</ele><time>2011-04-30T10:45:27.0000000+00:00</time></trkpt><trkpt lat="20.957418" lon="107.050407"><ele>54.7</ele><time>2011-04-30T10:45:32.0000000+00:00</time></trkpt><trkpt lat="20.957411" lon="107.050407"><ele>54.3</ele><time>2011-04-30T10:45:37.0000000+00:00</time></trkpt><trkpt lat="20.957384" lon="107.050407"><ele>53.9</ele><time>2011-04-30T10:45:42.0000000+00:00</time></trkpt><trkpt lat="20.957348" lon="107.0504"><ele>53.1</ele><time>2011-04-30T10:45:47.0000000+00:00</time></trkpt><trkpt lat="20.957346" lon="107.050392"><ele>53.0</ele><time>2011-04-30T10:45:52.0000000+00:00</time></trkpt><trkpt lat="20.957338" lon="107.050392"><ele>53.0</ele><time>2011-04-30T10:45:57.0000000+00:00</time></trkpt><trkpt lat="20.957338" lon="107.050392"><ele>53.0</ele><time>2011-04-30T10:46:02.0000000+00:00</time></trkpt><trkpt lat="20.957352" lon="107.050392"><ele>52.9</ele><time>2011-04-30T10:46:07.0000000+00:00</time></trkpt><trkpt lat="20.957378" lon="107.050377"><ele>52.3</ele><time>2011-04-30T10:46:12.0000000+00:00</time></trkpt><trkpt lat="20.957355" lon="107.050407"><ele>51.6</ele><time>2011-04-30T10:46:17.0000000+00:00</time></trkpt><trkpt lat="20.957363" lon="107.050407"><ele>51.6</ele><time>2011-04-30T10:46:22.0000000+00:00</time></trkpt><trkpt lat="20.957371" lon="107.050407"><ele>51.5</ele><time>2011-04-30T10:46:27.0000000+00:00</time></trkpt><trkpt lat="20.957357" lon="107.050415"><ele>51.4</ele><time>2011-04-30T10:46:32.0000000+00:00</time></trkpt><trkpt lat="20.957348" lon="107.050423"><ele>51.2</ele><time>2011-04-30T10:46:37.0000000+00:00</time></trkpt><trkpt lat="20.957327" lon="107.050415"><ele>50.9</ele><time>2011-04-30T10:46:42.0000000+00:00</time></trkpt><trkpt lat="20.957323" lon="107.050423"><ele>50.7</ele><time>2011-04-30T10:46:47.0000000+00:00</time></trkpt><trkpt lat="20.957314" lon="107.05043"><ele>50.7</ele><time>2011-04-30T10:46:52.0000000+00:00</time></trkpt><trkpt lat="20.957312" lon="107.05043"><ele>50.7</ele><time>2011-04-30T10:46:57.0000000+00:00</time></trkpt><trkpt lat="20.957294" lon="107.050446"><ele>51.0</ele><time>2011-04-30T10:47:02.0000000+00:00</time></trkpt><trkpt lat="20.9573" lon="107.050438"><ele>51.1</ele><time>2011-04-30T10:47:07.0000000+00:00</time></trkpt><trkpt lat="20.957298" lon="107.05043"><ele>51.1</ele><time>2011-04-30T10:47:12.0000000+00:00</time></trkpt><trkpt lat="20.957296" lon="107.050423"><ele>51.1</ele><time>2011-04-30T10:47:17.0000000+00:00</time></trkpt><trkpt lat="20.957296" lon="107.050423"><ele>51.1</ele><time>2011-04-30T10:47:22.0000000+00:00</time></trkpt><trkpt lat="20.957293" lon="107.050438"><ele>51.6</ele><time>2011-04-30T10:47:27.0000000+00:00</time></trkpt><trkpt lat="20.957289" lon="107.050438"><ele>51.7</ele><time>2011-04-30T10:47:32.0000000+00:00</time></trkpt><trkpt lat="20.957281" lon="107.050446"><ele>52.4</ele><time>2011-04-30T10:47:37.0000000+00:00</time></trkpt><trkpt lat="20.957262" lon="107.050453"><ele>52.7</ele><time>2011-04-30T10:47:42.0000000+00:00</time></trkpt><trkpt lat="20.957251" lon="107.050461"><ele>52.8</ele><time>2011-04-30T10:47:47.0000000+00:00</time></trkpt><trkpt lat="20.957193" lon="107.050529"><ele>53.6</ele><time>2011-04-30T10:47:52.0000000+00:00</time></trkpt><trkpt lat="20.957176" lon="107.050552"><ele>54.4</ele><time>2011-04-30T10:47:57.0000000+00:00</time></trkpt><trkpt lat="20.957155" lon="107.050606"><ele>54.8</ele><time>2011-04-30T10:48:02.0000000+00:00</time></trkpt><trkpt lat="20.957169" lon="107.050575"><ele>55.3</ele><time>2011-04-30T10:48:07.0000000+00:00</time></trkpt><trkpt lat="20.957167" lon="107.050575"><ele>55.4</ele><time>2011-04-30T10:48:12.0000000+00:00</time></trkpt><trkpt lat="20.957191" lon="107.050568"><ele>54.9</ele><time>2011-04-30T10:48:17.0000000+00:00</time></trkpt><trkpt lat="20.957201" lon="107.050552"><ele>54.9</ele><time>2011-04-30T10:48:22.0000000+00:00</time></trkpt><trkpt lat="20.957232" lon="107.050529"><ele>54.8</ele><time>2011-04-30T10:48:27.0000000+00:00</time></trkpt><trkpt lat="20.957315" lon="107.050529"><ele>54.6</ele><time>2011-04-30T10:48:32.0000000+00:00</time></trkpt><trkpt lat="20.957365" lon="107.050529"><ele>54.2</ele><time>2011-04-30T10:48:37.0000000+00:00</time></trkpt><trkpt lat="20.957369" lon="107.050468"><ele>54.5</ele><time>2011-04-30T10:48:42.0000000+00:00</time></trkpt><trkpt lat="20.957359" lon="107.050407"><ele>54.6</ele><time>2011-04-30T10:48:47.0000000+00:00</time></trkpt><trkpt lat="20.957365" lon="107.050377"><ele>55.2</ele><time>2011-04-30T10:48:52.0000000+00:00</time></trkpt><trkpt lat="20.957373" lon="107.050362"><ele>55.2</ele><time>2011-04-30T10:48:57.0000000+00:00</time></trkpt><trkpt lat="20.957386" lon="107.050285"><ele>55.1</ele><time>2011-04-30T10:49:02.0000000+00:00</time></trkpt><trkpt lat="20.957371" lon="107.050285"><ele>54.6</ele><time>2011-04-30T10:49:07.0000000+00:00</time></trkpt><trkpt lat="20.957375" lon="107.05027"><ele>54.5</ele><time>2011-04-30T10:49:12.0000000+00:00</time></trkpt><trkpt lat="20.957378" lon="107.050262"><ele>54.5</ele><time>2011-04-30T10:49:17.0000000+00:00</time></trkpt><trkpt lat="20.957382" lon="107.050255"><ele>54.5</ele><time>2011-04-30T10:49:22.0000000+00:00</time></trkpt><trkpt lat="20.95738" lon="107.050247"><ele>54.4</ele><time>2011-04-30T10:49:27.0000000+00:00</time></trkpt><trkpt lat="20.957382" lon="107.050247"><ele>54.4</ele><time>2011-04-30T10:49:32.0000000+00:00</time></trkpt><trkpt lat="20.957378" lon="107.050247"><ele>54.4</ele><time>2011-04-30T10:49:37.0000000+00:00</time></trkpt><trkpt lat="20.957382" lon="107.050255"><ele>54.4</ele><time>2011-04-30T10:49:42.0000000+00:00</time></trkpt><trkpt lat="20.957388" lon="107.050255"><ele>54.4</ele><time>2011-04-30T10:49:47.0000000+00:00</time></trkpt><trkpt lat="20.957411" lon="107.05024"><ele>54.1</ele><time>2011-04-30T10:49:52.0000000+00:00</time></trkpt><trkpt lat="20.957417" lon="107.050247"><ele>53.8</ele><time>2011-04-30T10:49:57.0000000+00:00</time></trkpt><trkpt lat="20.957409" lon="107.050247"><ele>53.7</ele><time>2011-04-30T10:50:02.0000000+00:00</time></trkpt><trkpt lat="20.957401" lon="107.050247"><ele>53.7</ele><time>2011-04-30T10:50:07.0000000+00:00</time></trkpt><trkpt lat="20.957396" lon="107.050278"><ele>53.4</ele><time>2011-04-30T10:50:12.0000000+00:00</time></trkpt><trkpt lat="20.957396" lon="107.050278"><ele>53.2</ele><time>2011-04-30T10:50:17.0000000+00:00</time></trkpt><trkpt lat="20.957394" lon="107.050278"><ele>53.2</ele><time>2011-04-30T10:50:22.0000000+00:00</time></trkpt><trkpt lat="20.95739" lon="107.050293"><ele>53.2</ele><time>2011-04-30T10:50:27.0000000+00:00</time></trkpt><trkpt lat="20.957397" lon="107.050323"><ele>53.2</ele><time>2011-04-30T10:50:32.0000000+00:00</time></trkpt><trkpt lat="20.957401" lon="107.050316"><ele>53.6</ele><time>2011-04-30T10:50:37.0000000+00:00</time></trkpt><trkpt lat="20.957401" lon="107.050331"><ele>53.9</ele><time>2011-04-30T10:50:42.0000000+00:00</time></trkpt><trkpt lat="20.957415" lon="107.050331"><ele>54.1</ele><time>2011-04-30T10:50:47.0000000+00:00</time></trkpt><trkpt lat="20.957417" lon="107.050362"><ele>55.3</ele><time>2011-04-30T10:50:52.0000000+00:00</time></trkpt><trkpt lat="20.957418" lon="107.050392"><ele>56.3</ele><time>2011-04-30T10:50:57.0000000+00:00</time></trkpt><trkpt lat="20.957428" lon="107.0504"><ele>56.9</ele><time>2011-04-30T10:51:02.0000000+00:00</time></trkpt><trkpt lat="20.957417" lon="107.050377"><ele>58.7</ele><time>2011-04-30T10:51:07.0000000+00:00</time></trkpt><trkpt lat="20.957403" lon="107.050407"><ele>60.5</ele><time>2011-04-30T10:51:12.0000000+00:00</time></trkpt><trkpt lat="20.957397" lon="107.050438"><ele>61.3</ele><time>2011-04-30T10:51:17.0000000+00:00</time></trkpt><trkpt lat="20.957396" lon="107.050461"><ele>61.8</ele><time>2011-04-30T10:51:22.0000000+00:00</time></trkpt><trkpt lat="20.957388" lon="107.050507"><ele>62.3</ele><time>2011-04-30T10:51:27.0000000+00:00</time></trkpt><trkpt lat="20.957403" lon="107.050575"><ele>63.1</ele><time>2011-04-30T10:51:32.0000000+00:00</time></trkpt><trkpt lat="20.957397" lon="107.050598"><ele>64.0</ele><time>2011-04-30T10:51:37.0000000+00:00</time></trkpt><trkpt lat="20.957405" lon="107.050598"><ele>64.3</ele><time>2011-04-30T10:51:42.0000000+00:00</time></trkpt><trkpt lat="20.957407" lon="107.050598"><ele>64.5</ele><time>2011-04-30T10:51:47.0000000+00:00</time></trkpt><trkpt lat="20.957409" lon="107.050575"><ele>64.4</ele><time>2011-04-30T10:51:52.0000000+00:00</time></trkpt><trkpt lat="20.957397" lon="107.05056"><ele>64.6</ele><time>2011-04-30T10:51:57.0000000+00:00</time></trkpt><trkpt lat="20.957399" lon="107.050552"><ele>65.2</ele><time>2011-04-30T10:52:02.0000000+00:00</time></trkpt><trkpt lat="20.957394" lon="107.05056"><ele>65.3</ele><time>2011-04-30T10:52:07.0000000+00:00</time></trkpt><trkpt lat="20.957378" lon="107.050568"><ele>65.6</ele><time>2011-04-30T10:52:12.0000000+00:00</time></trkpt><trkpt lat="20.957375" lon="107.050529"><ele>65.9</ele><time>2011-04-30T10:52:17.0000000+00:00</time></trkpt><trkpt lat="20.957373" lon="107.050529"><ele>65.9</ele><time>2011-04-30T10:52:22.0000000+00:00</time></trkpt><trkpt lat="20.957361" lon="107.050545"><ele>66.3</ele><time>2011-04-30T10:52:27.0000000+00:00</time></trkpt><trkpt lat="20.957355" lon="107.050545"><ele>66.3</ele><time>2011-04-30T10:52:32.0000000+00:00</time></trkpt><trkpt lat="20.957352" lon="107.05056"><ele>66.3</ele><time>2011-04-30T10:52:37.0000000+00:00</time></trkpt><trkpt lat="20.957348" lon="107.050583"><ele>68.0</ele><time>2011-04-30T10:52:42.0000000+00:00</time></trkpt><trkpt lat="20.957346" lon="107.050583"><ele>68.5</ele><time>2011-04-30T10:52:47.0000000+00:00</time></trkpt><trkpt lat="20.957348" lon="107.050552"><ele>69.0</ele><time>2011-04-30T10:52:52.0000000+00:00</time></trkpt><trkpt lat="20.95735" lon="107.050522"><ele>69.4</ele><time>2011-04-30T10:52:57.0000000+00:00</time></trkpt><trkpt lat="20.957378" lon="107.050491"><ele>70.2</ele><time>2011-04-30T10:53:02.0000000+00:00</time></trkpt><trkpt lat="20.957386" lon="107.050484"><ele>70.9</ele><time>2011-04-30T10:53:07.0000000+00:00</time></trkpt><trkpt lat="20.957403" lon="107.050453"><ele>72.5</ele><time>2011-04-30T10:53:12.0000000+00:00</time></trkpt><trkpt lat="20.957413" lon="107.05043"><ele>73.5</ele><time>2011-04-30T10:53:17.0000000+00:00</time></trkpt><trkpt lat="20.957411" lon="107.0504"><ele>74.3</ele><time>2011-04-30T10:53:22.0000000+00:00</time></trkpt><trkpt lat="20.957417" lon="107.050369"><ele>75.4</ele><time>2011-04-30T10:53:27.0000000+00:00</time></trkpt><trkpt lat="20.95742" lon="107.050362"><ele>75.8</ele><time>2011-04-30T10:53:32.0000000+00:00</time></trkpt><trkpt lat="20.957418" lon="107.050369"><ele>76.5</ele><time>2011-04-30T10:53:37.0000000+00:00</time></trkpt><trkpt lat="20.957424" lon="107.050362"><ele>76.5</ele><time>2011-04-30T10:53:42.0000000+00:00</time></trkpt><trkpt lat="20.957424" lon="107.050362"><ele>76.5</ele><time>2011-04-30T10:53:47.0000000+00:00</time></trkpt><trkpt lat="20.957422" lon="107.050369"><ele>76.5</ele><time>2011-04-30T10:53:52.0000000+00:00</time></trkpt><trkpt lat="20.957426" lon="107.050354"><ele>76.6</ele><time>2011-04-30T10:53:57.0000000+00:00</time></trkpt><trkpt lat="20.957434" lon="107.050354"><ele>76.9</ele><time>2011-04-30T10:54:02.0000000+00:00</time></trkpt><trkpt lat="20.957424" lon="107.050316"><ele>77.1</ele><time>2011-04-30T10:54:07.0000000+00:00</time></trkpt><trkpt lat="20.957409" lon="107.050331"><ele>77.5</ele><time>2011-04-30T10:54:12.0000000+00:00</time></trkpt><trkpt lat="20.957403" lon="107.050331"><ele>77.7</ele><time>2011-04-30T10:54:17.0000000+00:00</time></trkpt><trkpt lat="20.957396" lon="107.050354"><ele>77.4</ele><time>2011-04-30T10:54:22.0000000+00:00</time></trkpt><trkpt lat="20.957392" lon="107.050362"><ele>77.4</ele><time>2011-04-30T10:54:27.0000000+00:00</time></trkpt><trkpt lat="20.95739" lon="107.050369"><ele>77.6</ele><time>2011-04-30T10:54:32.0000000+00:00</time></trkpt><trkpt lat="20.957396" lon="107.050377"><ele>77.7</ele><time>2011-04-30T10:54:37.0000000+00:00</time></trkpt><trkpt lat="20.957399" lon="107.050385"><ele>77.7</ele><time>2011-04-30T10:54:42.0000000+00:00</time></trkpt><trkpt lat="20.957397" lon="107.050385"><ele>77.7</ele><time>2011-04-30T10:54:47.0000000+00:00</time></trkpt><trkpt lat="20.957394" lon="107.050377"><ele>77.7</ele><time>2011-04-30T10:54:52.0000000+00:00</time></trkpt><trkpt lat="20.957386" lon="107.050423"><ele>77.9</ele><time>2011-04-30T10:54:57.0000000+00:00</time></trkpt><trkpt lat="20.957382" lon="107.050468"><ele>78.1</ele><time>2011-04-30T10:55:02.0000000+00:00</time></trkpt><trkpt lat="20.957373" lon="107.050484"><ele>78.2</ele><time>2011-04-30T10:55:07.0000000+00:00</time></trkpt><trkpt lat="20.957367" lon="107.050484"><ele>78.3</ele><time>2011-04-30T10:55:12.0000000+00:00</time></trkpt><trkpt lat="20.957363" lon="107.050507"><ele>78.3</ele><time>2011-04-30T10:55:17.0000000+00:00</time></trkpt><trkpt lat="20.957384" lon="107.050522"><ele>78.2</ele><time>2011-04-30T10:55:22.0000000+00:00</time></trkpt><trkpt lat="20.95739" lon="107.050514"><ele>78.2</ele><time>2011-04-30T10:55:27.0000000+00:00</time></trkpt><trkpt lat="20.957394" lon="107.050514"><ele>78.2</ele><time>2011-04-30T10:55:32.0000000+00:00</time></trkpt><trkpt lat="20.957394" lon="107.050514"><ele>78.2</ele><time>2011-04-30T10:55:37.0000000+00:00</time></trkpt><trkpt lat="20.95739" lon="107.050514"><ele>78.2</ele><time>2011-04-30T10:55:42.0000000+00:00</time></trkpt><trkpt lat="20.957386" lon="107.050514"><ele>78.2</ele><time>2011-04-30T10:55:47.0000000+00:00</time></trkpt><trkpt lat="20.957386" lon="107.050514"><ele>78.1</ele><time>2011-04-30T10:55:52.0000000+00:00</time></trkpt><trkpt lat="20.957373" lon="107.050514"><ele>78.0</ele><time>2011-04-30T10:55:57.0000000+00:00</time></trkpt><trkpt lat="20.957354" lon="107.050529"><ele>77.7</ele><time>2011-04-30T10:56:02.0000000+00:00</time></trkpt><trkpt lat="20.957352" lon="107.050537"><ele>77.5</ele><time>2011-04-30T10:56:07.0000000+00:00</time></trkpt><trkpt lat="20.957342" lon="107.050545"><ele>77.5</ele><time>2011-04-30T10:56:12.0000000+00:00</time></trkpt><trkpt lat="20.957336" lon="107.05056"><ele>77.1</ele><time>2011-04-30T10:56:17.0000000+00:00</time></trkpt><trkpt lat="20.95734" lon="107.050552"><ele>76.8</ele><time>2011-04-30T10:56:22.0000000+00:00</time></trkpt><trkpt lat="20.957333" lon="107.050552"><ele>76.8</ele><time>2011-04-30T10:56:27.0000000+00:00</time></trkpt><trkpt lat="20.957279" lon="107.050583"><ele>76.8</ele><time>2011-04-30T10:56:32.0000000+00:00</time></trkpt><trkpt lat="20.957235" lon="107.050606"><ele>76.8</ele><time>2011-04-30T10:56:37.0000000+00:00</time></trkpt><trkpt lat="20.957241" lon="107.050583"><ele>76.7</ele><time>2011-04-30T10:56:42.0000000+00:00</time></trkpt><trkpt lat="20.957266" lon="107.050568"><ele>76.7</ele><time>2011-04-30T10:56:47.0000000+00:00</time></trkpt><trkpt lat="20.957256" lon="107.050568"><ele>76.6</ele><time>2011-04-30T10:56:52.0000000+00:00</time></trkpt><trkpt lat="20.957249" lon="107.050568"><ele>76.6</ele><time>2011-04-30T10:56:57.0000000+00:00</time></trkpt><trkpt lat="20.957247" lon="107.05056"><ele>76.5</ele><time>2011-04-30T10:57:02.0000000+00:00</time></trkpt><trkpt lat="20.957249" lon="107.05056"><ele>76.5</ele><time>2011-04-30T10:57:07.0000000+00:00</time></trkpt><trkpt lat="20.957251" lon="107.050552"><ele>76.4</ele><time>2011-04-30T10:57:12.0000000+00:00</time></trkpt><trkpt lat="20.957262" lon="107.050537"><ele>76.4</ele><time>2011-04-30T10:57:17.0000000+00:00</time></trkpt><trkpt lat="20.957315" lon="107.050514"><ele>76.3</ele><time>2011-04-30T10:57:22.0000000+00:00</time></trkpt><trkpt lat="20.95735" lon="107.050507"><ele>76.2</ele><time>2011-04-30T10:57:27.0000000+00:00</time></trkpt><trkpt lat="20.957369" lon="107.050499"><ele>76.0</ele><time>2011-04-30T10:57:32.0000000+00:00</time></trkpt><trkpt lat="20.957369" lon="107.050491"><ele>75.8</ele><time>2011-04-30T10:57:37.0000000+00:00</time></trkpt><trkpt lat="20.957376" lon="107.050484"><ele>75.7</ele><time>2011-04-30T10:57:42.0000000+00:00</time></trkpt><trkpt lat="20.95738" lon="107.050491"><ele>75.7</ele><time>2011-04-30T10:57:47.0000000+00:00</time></trkpt><trkpt lat="20.957378" lon="107.050491"><ele>75.6</ele><time>2011-04-30T10:57:52.0000000+00:00</time></trkpt><trkpt lat="20.957375" lon="107.050499"><ele>75.5</ele><time>2011-04-30T10:57:57.0000000+00:00</time></trkpt><trkpt lat="20.957367" lon="107.050499"><ele>75.4</ele><time>2011-04-30T10:58:02.0000000+00:00</time></trkpt><trkpt lat="20.957361" lon="107.050507"><ele>75.3</ele><time>2011-04-30T10:58:07.0000000+00:00</time></trkpt><trkpt lat="20.957354" lon="107.050507"><ele>75.1</ele><time>2011-04-30T10:58:12.0000000+00:00</time></trkpt><trkpt lat="20.957348" lon="107.050514"><ele>75.0</ele><time>2011-04-30T10:58:17.0000000+00:00</time></trkpt><trkpt lat="20.957348" lon="107.050514"><ele>74.8</ele><time>2011-04-30T10:58:22.0000000+00:00</time></trkpt><trkpt lat="20.957346" lon="107.050514"><ele>74.6</ele><time>2011-04-30T10:58:27.0000000+00:00</time></trkpt><trkpt lat="20.95734" lon="107.050514"><ele>74.4</ele><time>2011-04-30T10:58:32.0000000+00:00</time></trkpt><trkpt lat="20.957338" lon="107.050514"><ele>74.2</ele><time>2011-04-30T10:58:37.0000000+00:00</time></trkpt><trkpt lat="20.957346" lon="107.050507"><ele>73.9</ele><time>2011-04-30T10:58:42.0000000+00:00</time></trkpt><trkpt lat="20.957367" lon="107.050476"><ele>73.7</ele><time>2011-04-30T10:58:47.0000000+00:00</time></trkpt><trkpt lat="20.957405" lon="107.050453"><ele>72.3</ele><time>2011-04-30T10:58:52.0000000+00:00</time></trkpt><trkpt lat="20.957426" lon="107.050446"><ele>71.0</ele><time>2011-04-30T10:58:57.0000000+00:00</time></trkpt><trkpt lat="20.957434" lon="107.05043"><ele>69.6</ele><time>2011-04-30T10:59:02.0000000+00:00</time></trkpt><trkpt lat="20.957439" lon="107.050453"><ele>68.4</ele><time>2011-04-30T10:59:07.0000000+00:00</time></trkpt><trkpt lat="20.957439" lon="107.050453"><ele>67.5</ele><time>2011-04-30T10:59:12.0000000+00:00</time></trkpt><trkpt lat="20.957443" lon="107.050461"><ele>67.0</ele><time>2011-04-30T10:59:17.0000000+00:00</time></trkpt><trkpt lat="20.957447" lon="107.050453"><ele>66.6</ele><time>2011-04-30T10:59:22.0000000+00:00</time></trkpt><trkpt lat="20.957447" lon="107.050446"><ele>66.3</ele><time>2011-04-30T10:59:27.0000000+00:00</time></trkpt><trkpt lat="20.957449" lon="107.050438"><ele>65.9</ele><time>2011-04-30T10:59:32.0000000+00:00</time></trkpt><trkpt lat="20.957451" lon="107.050423"><ele>65.6</ele><time>2011-04-30T10:59:37.0000000+00:00</time></trkpt><trkpt lat="20.957453" lon="107.05043"><ele>64.2</ele><time>2011-04-30T10:59:42.0000000+00:00</time></trkpt><trkpt lat="20.957445" lon="107.050415"><ele>64.0</ele><time>2011-04-30T10:59:47.0000000+00:00</time></trkpt><trkpt lat="20.957443" lon="107.050407"><ele>63.6</ele><time>2011-04-30T10:59:52.0000000+00:00</time></trkpt><trkpt lat="20.957443" lon="107.050392"><ele>63.2</ele><time>2011-04-30T10:59:57.0000000+00:00</time></trkpt><trkpt lat="20.957445" lon="107.050385"><ele>62.8</ele><time>2011-04-30T11:00:02.0000000+00:00</time></trkpt><trkpt lat="20.957447" lon="107.050369"><ele>62.4</ele><time>2011-04-30T11:00:07.0000000+00:00</time></trkpt><trkpt lat="20.957447" lon="107.050362"><ele>62.0</ele><time>2011-04-30T11:00:12.0000000+00:00</time></trkpt><trkpt lat="20.957445" lon="107.050362"><ele>61.7</ele><time>2011-04-30T11:00:17.0000000+00:00</time></trkpt><trkpt lat="20.957453" lon="107.050362"><ele>62.3</ele><time>2011-04-30T11:00:22.0000000+00:00</time></trkpt><trkpt lat="20.957453" lon="107.050369"><ele>62.9</ele><time>2011-04-30T11:00:27.0000000+00:00</time></trkpt><trkpt lat="20.957458" lon="107.050369"><ele>63.1</ele><time>2011-04-30T11:00:32.0000000+00:00</time></trkpt><trkpt lat="20.957457" lon="107.050385"><ele>63.1</ele><time>2011-04-30T11:00:37.0000000+00:00</time></trkpt><trkpt lat="20.957462" lon="107.050377"><ele>63.1</ele><time>2011-04-30T11:00:42.0000000+00:00</time></trkpt><trkpt lat="20.957474" lon="107.050346"><ele>63.2</ele><time>2011-04-30T11:00:47.0000000+00:00</time></trkpt><trkpt lat="20.957428" lon="107.050323"><ele>63.2</ele><time>2011-04-30T11:00:52.0000000+00:00</time></trkpt><trkpt lat="20.957407" lon="107.050323"><ele>63.2</ele><time>2011-04-30T11:00:57.0000000+00:00</time></trkpt><trkpt lat="20.957287" lon="107.050377"><ele>59.0</ele><time>2011-04-30T11:01:03.0000000+00:00</time></trkpt><trkpt lat="20.957331" lon="107.050415"><ele>55.5</ele><time>2011-04-30T11:01:08.0000000+00:00</time></trkpt><trkpt lat="20.957348" lon="107.050461"><ele>61.0</ele><time>2011-04-30T11:01:13.0000000+00:00</time></trkpt><trkpt lat="20.957346" lon="107.050461"><ele>61.0</ele><time>2011-04-30T11:01:18.0000000+00:00</time></trkpt><trkpt lat="20.957344" lon="107.050453"><ele>60.9</ele><time>2011-04-30T11:01:23.0000000+00:00</time></trkpt><trkpt lat="20.95731" lon="107.050476"><ele>60.9</ele><time>2011-04-30T11:01:28.0000000+00:00</time></trkpt><trkpt lat="20.957233" lon="107.050476"><ele>62.0</ele><time>2011-04-30T11:01:33.0000000+00:00</time></trkpt><trkpt lat="20.957195" lon="107.050438"><ele>63.4</ele><time>2011-04-30T11:01:38.0000000+00:00</time></trkpt><trkpt lat="20.957161" lon="107.050362"><ele>63.3</ele><time>2011-04-30T11:01:43.0000000+00:00</time></trkpt><trkpt lat="20.957109" lon="107.050285"><ele>63.1</ele><time>2011-04-30T11:01:48.0000000+00:00</time></trkpt><trkpt lat="20.957062" lon="107.050217"><ele>62.4</ele><time>2011-04-30T11:01:53.0000000+00:00</time></trkpt><trkpt lat="20.957067" lon="107.050117"><ele>62.9</ele><time>2011-04-30T11:01:58.0000000+00:00</time></trkpt><trkpt lat="20.957085" lon="107.050041"><ele>55.8</ele><time>2011-04-30T11:02:03.0000000+00:00</time></trkpt><trkpt lat="20.957098" lon="107.050003"><ele>49.6</ele><time>2011-04-30T11:02:08.0000000+00:00</time></trkpt><trkpt lat="20.957064" lon="107.050011"><ele>47.3</ele><time>2011-04-30T11:02:13.0000000+00:00</time></trkpt><trkpt lat="20.95702" lon="107.050049"><ele>49.1</ele><time>2011-04-30T11:02:18.0000000+00:00</time></trkpt><trkpt lat="20.95697" lon="107.050041"><ele>53.0</ele><time>2011-04-30T11:02:23.0000000+00:00</time></trkpt><trkpt lat="20.956921" lon="107.050026"><ele>55.5</ele><time>2011-04-30T11:02:28.0000000+00:00</time></trkpt><trkpt lat="20.956852" lon="107.050026"><ele>51.0</ele><time>2011-04-30T11:02:33.0000000+00:00</time></trkpt><trkpt lat="20.956802" lon="107.050056"><ele>50.8</ele><time>2011-04-30T11:02:38.0000000+00:00</time></trkpt><trkpt lat="20.956741" lon="107.050003"><ele>52.0</ele><time>2011-04-30T11:02:43.0000000+00:00</time></trkpt><trkpt lat="20.956688" lon="107.049965"><ele>53.3</ele><time>2011-04-30T11:02:48.0000000+00:00</time></trkpt><trkpt lat="20.956621" lon="107.04995"><ele>53.3</ele><time>2011-04-30T11:02:53.0000000+00:00</time></trkpt><trkpt lat="20.956543" lon="107.049942"><ele>53.6</ele><time>2011-04-30T11:02:58.0000000+00:00</time></trkpt><trkpt lat="20.95647" lon="107.049934"><ele>52.2</ele><time>2011-04-30T11:03:03.0000000+00:00</time></trkpt><trkpt lat="20.956434" lon="107.049881"><ele>52.2</ele><time>2011-04-30T11:03:08.0000000+00:00</time></trkpt><trkpt lat="20.956404" lon="107.04982"><ele>52.0</ele><time>2011-04-30T11:03:13.0000000+00:00</time></trkpt><trkpt lat="20.956379" lon="107.049759"><ele>52.0</ele><time>2011-04-30T11:03:18.0000000+00:00</time></trkpt><trkpt lat="20.956348" lon="107.049706"><ele>48.8</ele><time>2011-04-30T11:03:23.0000000+00:00</time></trkpt><trkpt lat="20.956303" lon="107.049667"><ele>45.9</ele><time>2011-04-30T11:03:28.0000000+00:00</time></trkpt><trkpt lat="20.95611" lon="107.049698"><ele>15.4</ele><time>2011-04-30T11:03:33.0000000+00:00</time></trkpt><trkpt lat="20.956108" lon="107.049736"><ele>18.3</ele><time>2011-04-30T11:03:38.0000000+00:00</time></trkpt><trkpt lat="20.956083" lon="107.049721"><ele>19.9</ele><time>2011-04-30T11:03:43.0000000+00:00</time></trkpt><trkpt lat="20.95602" lon="107.049713"><ele>18.1</ele><time>2011-04-30T11:03:48.0000000+00:00</time></trkpt><trkpt lat="20.955959" lon="107.049721"><ele>17.6</ele><time>2011-04-30T11:03:53.0000000+00:00</time></trkpt><trkpt lat="20.955889" lon="107.049728"><ele>14.9</ele><time>2011-04-30T11:03:58.0000000+00:00</time></trkpt><trkpt lat="20.955824" lon="107.049767"><ele>14.2</ele><time>2011-04-30T11:04:03.0000000+00:00</time></trkpt><trkpt lat="20.955761" lon="107.049789"><ele>13.4</ele><time>2011-04-30T11:04:08.0000000+00:00</time></trkpt><trkpt lat="20.955715" lon="107.049789"><ele>13.2</ele><time>2011-04-30T11:04:13.0000000+00:00</time></trkpt><trkpt lat="20.955687" lon="107.049782"><ele>13.0</ele><time>2011-04-30T11:04:18.0000000+00:00</time></trkpt><trkpt lat="20.955662" lon="107.049751"><ele>13.7</ele><time>2011-04-30T11:04:23.0000000+00:00</time></trkpt><trkpt lat="20.955627" lon="107.049713"><ele>14.0</ele><time>2011-04-30T11:04:28.0000000+00:00</time></trkpt><trkpt lat="20.955597" lon="107.049683"><ele>15.8</ele><time>2011-04-30T11:04:33.0000000+00:00</time></trkpt><trkpt lat="20.955545" lon="107.049637"><ele>16.2</ele><time>2011-04-30T11:04:38.0000000+00:00</time></trkpt><trkpt lat="20.955519" lon="107.049591"><ele>17.0</ele><time>2011-04-30T11:04:43.0000000+00:00</time></trkpt><trkpt lat="20.955486" lon="107.049538"><ele>17.8</ele><time>2011-04-30T11:04:48.0000000+00:00</time></trkpt><trkpt lat="20.95545" lon="107.049461"><ele>17.6</ele><time>2011-04-30T11:04:53.0000000+00:00</time></trkpt><trkpt lat="20.955431" lon="107.049393"><ele>17.4</ele><time>2011-04-30T11:04:58.0000000+00:00</time></trkpt><trkpt lat="20.955416" lon="107.049339"><ele>16.1</ele><time>2011-04-30T11:05:03.0000000+00:00</time></trkpt><trkpt lat="20.955399" lon="107.049278"><ele>13.8</ele><time>2011-04-30T11:05:08.0000000+00:00</time></trkpt><trkpt lat="20.955423" lon="107.049248"><ele>13.8</ele><time>2011-04-30T11:05:13.0000000+00:00</time></trkpt><trkpt lat="20.955441" lon="107.049225"><ele>13.4</ele><time>2011-04-30T11:05:18.0000000+00:00</time></trkpt><trkpt lat="20.955448" lon="107.04921"><ele>14.0</ele><time>2011-04-30T11:05:23.0000000+00:00</time></trkpt><trkpt lat="20.955452" lon="107.049187"><ele>12.4</ele><time>2011-04-30T11:05:28.0000000+00:00</time></trkpt><trkpt lat="20.955452" lon="107.049187"><ele>12.4</ele><time>2011-04-30T11:05:33.0000000+00:00</time></trkpt><trkpt lat="20.955452" lon="107.049179"><ele>12.4</ele><time>2011-04-30T11:05:38.0000000+00:00</time></trkpt><trkpt lat="20.955452" lon="107.049179"><ele>12.4</ele><time>2011-04-30T11:05:43.0000000+00:00</time></trkpt><trkpt lat="20.955452" lon="107.049171"><ele>12.7</ele><time>2011-04-30T11:05:48.0000000+00:00</time></trkpt><trkpt lat="20.955452" lon="107.049171"><ele>12.7</ele><time>2011-04-30T11:05:53.0000000+00:00</time></trkpt><trkpt lat="20.95545" lon="107.049171"><ele>12.8</ele><time>2011-04-30T11:05:58.0000000+00:00</time></trkpt><trkpt lat="20.95545" lon="107.049171"><ele>12.8</ele><time>2011-04-30T11:06:03.0000000+00:00</time></trkpt><trkpt lat="20.955452" lon="107.049171"><ele>12.8</ele><time>2011-04-30T11:06:08.0000000+00:00</time></trkpt><trkpt lat="20.955452" lon="107.049171"><ele>12.9</ele><time>2011-04-30T11:06:13.0000000+00:00</time></trkpt><trkpt lat="20.955452" lon="107.049179"><ele>12.9</ele><time>2011-04-30T11:06:18.0000000+00:00</time></trkpt><trkpt lat="20.955454" lon="107.049179"><ele>12.9</ele><time>2011-04-30T11:06:23.0000000+00:00</time></trkpt><trkpt lat="20.955454" lon="107.049179"><ele>12.9</ele><time>2011-04-30T11:06:28.0000000+00:00</time></trkpt><trkpt lat="20.955454" lon="107.049179"><ele>12.9</ele><time>2011-04-30T11:06:33.0000000+00:00</time></trkpt><trkpt lat="20.955454" lon="107.049179"><ele>12.9</ele><time>2011-04-30T11:06:38.0000000+00:00</time></trkpt><trkpt lat="20.955454" lon="107.049179"><ele>12.9</ele><time>2011-04-30T11:06:43.0000000+00:00</time></trkpt><trkpt lat="20.955454" lon="107.049179"><ele>12.9</ele><time>2011-04-30T11:06:48.0000000+00:00</time></trkpt><trkpt lat="20.955454" lon="107.049179"><ele>13.0</ele><time>2011-04-30T11:06:53.0000000+00:00</time></trkpt><trkpt lat="20.955454" lon="107.049179"><ele>13.0</ele><time>2011-04-30T11:06:58.0000000+00:00</time></trkpt><trkpt lat="20.955454" lon="107.049179"><ele>13.0</ele><time>2011-04-30T11:07:03.0000000+00:00</time></trkpt><trkpt lat="20.955454" lon="107.049179"><ele>13.0</ele><time>2011-04-30T11:07:08.0000000+00:00</time></trkpt><trkpt lat="20.955454" lon="107.049179"><ele>13.0</ele><time>2011-04-30T11:07:13.0000000+00:00</time></trkpt><trkpt lat="20.955454" lon="107.049171"><ele>13.1</ele><time>2011-04-30T11:07:18.0000000+00:00</time></trkpt><trkpt lat="20.955456" lon="107.049164"><ele>13.1</ele><time>2011-04-30T11:07:23.0000000+00:00</time></trkpt><trkpt lat="20.955458" lon="107.049156"><ele>13.3</ele><time>2011-04-30T11:07:28.0000000+00:00</time></trkpt><trkpt lat="20.955448" lon="107.049126"><ele>13.3</ele><time>2011-04-30T11:07:33.0000000+00:00</time></trkpt><trkpt lat="20.955452" lon="107.049126"><ele>14.0</ele><time>2011-04-30T11:07:38.0000000+00:00</time></trkpt><trkpt lat="20.955463" lon="107.049133"><ele>14.9</ele><time>2011-04-30T11:07:43.0000000+00:00</time></trkpt><trkpt lat="20.955469" lon="107.049141"><ele>15.8</ele><time>2011-04-30T11:07:48.0000000+00:00</time></trkpt><trkpt lat="20.955473" lon="107.049141"><ele>16.7</ele><time>2011-04-30T11:07:53.0000000+00:00</time></trkpt><trkpt lat="20.955475" lon="107.049141"><ele>16.6</ele><time>2011-04-30T11:07:58.0000000+00:00</time></trkpt><trkpt lat="20.955475" lon="107.049141"><ele>16.2</ele><time>2011-04-30T11:08:03.0000000+00:00</time></trkpt><trkpt lat="20.955473" lon="107.049141"><ele>16.1</ele><time>2011-04-30T11:08:08.0000000+00:00</time></trkpt><trkpt lat="20.955471" lon="107.049133"><ele>16.6</ele><time>2011-04-30T11:08:13.0000000+00:00</time></trkpt><trkpt lat="20.955481" lon="107.049126"><ele>17.5</ele><time>2011-04-30T11:08:18.0000000+00:00</time></trkpt><trkpt lat="20.955479" lon="107.049118"><ele>18.7</ele><time>2011-04-30T11:08:23.0000000+00:00</time></trkpt><trkpt lat="20.955484" lon="107.049118"><ele>19.2</ele><time>2011-04-30T11:08:28.0000000+00:00</time></trkpt><trkpt lat="20.955481" lon="107.04911"><ele>20.3</ele><time>2011-04-30T11:08:33.0000000+00:00</time></trkpt><trkpt lat="20.955471" lon="107.049103"><ele>20.9</ele><time>2011-04-30T11:08:38.0000000+00:00</time></trkpt><trkpt lat="20.95546" lon="107.049103"><ele>20.4</ele><time>2011-04-30T11:08:43.0000000+00:00</time></trkpt><trkpt lat="20.955454" lon="107.049095"><ele>20.1</ele><time>2011-04-30T11:08:48.0000000+00:00</time></trkpt><trkpt lat="20.955448" lon="107.049088"><ele>20.4</ele><time>2011-04-30T11:08:53.0000000+00:00</time></trkpt><trkpt lat="20.95545" lon="107.049088"><ele>20.3</ele><time>2011-04-30T11:08:58.0000000+00:00</time></trkpt><trkpt lat="20.955454" lon="107.049088"><ele>20.6</ele><time>2011-04-30T11:09:03.0000000+00:00</time></trkpt><trkpt lat="20.95546" lon="107.049095"><ele>20.8</ele><time>2011-04-30T11:09:08.0000000+00:00</time></trkpt><trkpt lat="20.95546" lon="107.049103"><ele>20.3</ele><time>2011-04-30T11:09:13.0000000+00:00</time></trkpt><trkpt lat="20.955456" lon="107.049088"><ele>19.7</ele><time>2011-04-30T11:09:18.0000000+00:00</time></trkpt><trkpt lat="20.955452" lon="107.04908"><ele>19.9</ele><time>2011-04-30T11:09:23.0000000+00:00</time></trkpt><trkpt lat="20.955439" lon="107.049049"><ele>20.9</ele><time>2011-04-30T11:09:28.0000000+00:00</time></trkpt><trkpt lat="20.955439" lon="107.049057"><ele>20.7</ele><time>2011-04-30T11:09:33.0000000+00:00</time></trkpt><trkpt lat="20.955435" lon="107.049065"><ele>19.6</ele><time>2011-04-30T11:09:38.0000000+00:00</time></trkpt><trkpt lat="20.955433" lon="107.049065"><ele>18.0</ele><time>2011-04-30T11:09:43.0000000+00:00</time></trkpt><trkpt lat="20.955437" lon="107.049072"><ele>18.1</ele><time>2011-04-30T11:09:48.0000000+00:00</time></trkpt><trkpt lat="20.955441" lon="107.049072"><ele>18.5</ele><time>2011-04-30T11:09:53.0000000+00:00</time></trkpt><trkpt lat="20.955446" lon="107.049088"><ele>18.7</ele><time>2011-04-30T11:09:58.0000000+00:00</time></trkpt><trkpt lat="20.955456" lon="107.04911"><ele>18.8</ele><time>2011-04-30T11:10:03.0000000+00:00</time></trkpt><trkpt lat="20.955454" lon="107.049095"><ele>19.6</ele><time>2011-04-30T11:10:08.0000000+00:00</time></trkpt><trkpt lat="20.955446" lon="107.04908"><ele>20.1</ele><time>2011-04-30T11:10:13.0000000+00:00</time></trkpt><trkpt lat="20.955446" lon="107.049072"><ele>20.0</ele><time>2011-04-30T11:10:18.0000000+00:00</time></trkpt><trkpt lat="20.955446" lon="107.04908"><ele>19.6</ele><time>2011-04-30T11:10:23.0000000+00:00</time></trkpt><trkpt lat="20.95545" lon="107.049095"><ele>19.0</ele><time>2011-04-30T11:10:28.0000000+00:00</time></trkpt><trkpt lat="20.955452" lon="107.049095"><ele>18.7</ele><time>2011-04-30T11:10:33.0000000+00:00</time></trkpt><trkpt lat="20.955458" lon="107.049088"><ele>17.8</ele><time>2011-04-30T11:10:38.0000000+00:00</time></trkpt><trkpt lat="20.955471" lon="107.049103"><ele>18.8</ele><time>2011-04-30T11:10:43.0000000+00:00</time></trkpt><trkpt lat="20.955458" lon="107.049065"><ele>20.5</ele><time>2011-04-30T11:10:48.0000000+00:00</time></trkpt><trkpt lat="20.95545" lon="107.049065"><ele>20.2</ele><time>2011-04-30T11:10:53.0000000+00:00</time></trkpt><trkpt lat="20.955456" lon="107.04908"><ele>20.7</ele><time>2011-04-30T11:10:58.0000000+00:00</time></trkpt><trkpt lat="20.955454" lon="107.04908"><ele>21.6</ele><time>2011-04-30T11:11:03.0000000+00:00</time></trkpt><trkpt lat="20.955456" lon="107.049088"><ele>21.5</ele><time>2011-04-30T11:11:08.0000000+00:00</time></trkpt><trkpt lat="20.955454" lon="107.049088"><ele>21.3</ele><time>2011-04-30T11:11:13.0000000+00:00</time></trkpt><trkpt lat="20.955444" lon="107.049065"><ele>21.7</ele><time>2011-04-30T11:11:18.0000000+00:00</time></trkpt><trkpt lat="20.955454" lon="107.049065"><ele>22.8</ele><time>2011-04-30T11:11:23.0000000+00:00</time></trkpt><trkpt lat="20.955454" lon="107.049065"><ele>22.8</ele><time>2011-04-30T11:11:28.0000000+00:00</time></trkpt><trkpt lat="20.955452" lon="107.049065"><ele>22.6</ele><time>2011-04-30T11:11:33.0000000+00:00</time></trkpt><trkpt lat="20.955465" lon="107.049095"><ele>21.2</ele><time>2011-04-30T11:11:38.0000000+00:00</time></trkpt><trkpt lat="20.955462" lon="107.049095"><ele>20.8</ele><time>2011-04-30T11:11:43.0000000+00:00</time></trkpt><trkpt lat="20.955462" lon="107.049126"><ele>20.4</ele><time>2011-04-30T11:11:48.0000000+00:00</time></trkpt><trkpt lat="20.955454" lon="107.049126"><ele>19.5</ele><time>2011-04-30T11:11:53.0000000+00:00</time></trkpt><trkpt lat="20.955448" lon="107.04911"><ele>20.3</ele><time>2011-04-30T11:11:58.0000000+00:00</time></trkpt><trkpt lat="20.955452" lon="107.049118"><ele>21.4</ele><time>2011-04-30T11:12:03.0000000+00:00</time></trkpt><trkpt lat="20.955463" lon="107.049141"><ele>22.0</ele><time>2011-04-30T11:12:08.0000000+00:00</time></trkpt><trkpt lat="20.955458" lon="107.049133"><ele>21.6</ele><time>2011-04-30T11:12:13.0000000+00:00</time></trkpt><trkpt lat="20.955448" lon="107.049103"><ele>22.8</ele><time>2011-04-30T11:12:18.0000000+00:00</time></trkpt><trkpt lat="20.955442" lon="107.049095"><ele>23.5</ele><time>2011-04-30T11:12:23.0000000+00:00</time></trkpt><trkpt lat="20.955442" lon="107.049095"><ele>23.4</ele><time>2011-04-30T11:12:28.0000000+00:00</time></trkpt><trkpt lat="20.955448" lon="107.04911"><ele>23.5</ele><time>2011-04-30T11:12:33.0000000+00:00</time></trkpt><trkpt lat="20.95546" lon="107.049141"><ele>24.4</ele><time>2011-04-30T11:12:38.0000000+00:00</time></trkpt><trkpt lat="20.955463" lon="107.049149"><ele>25.0</ele><time>2011-04-30T11:12:43.0000000+00:00</time></trkpt><trkpt lat="20.955463" lon="107.049141"><ele>24.7</ele><time>2011-04-30T11:12:48.0000000+00:00</time></trkpt><trkpt lat="20.955465" lon="107.049141"><ele>24.4</ele><time>2011-04-30T11:12:53.0000000+00:00</time></trkpt><trkpt lat="20.955469" lon="107.049149"><ele>23.3</ele><time>2011-04-30T11:12:58.0000000+00:00</time></trkpt><trkpt lat="20.955454" lon="107.04911"><ele>24.1</ele><time>2011-04-30T11:13:03.0000000+00:00</time></trkpt><trkpt lat="20.955446" lon="107.049095"><ele>23.6</ele><time>2011-04-30T11:13:08.0000000+00:00</time></trkpt><trkpt lat="20.955448" lon="107.049095"><ele>23.4</ele><time>2011-04-30T11:13:13.0000000+00:00</time></trkpt><trkpt lat="20.955448" lon="107.049088"><ele>21.5</ele><time>2011-04-30T11:13:18.0000000+00:00</time></trkpt><trkpt lat="20.955454" lon="107.049095"><ele>21.0</ele><time>2011-04-30T11:13:23.0000000+00:00</time></trkpt><trkpt lat="20.955456" lon="107.04908"><ele>21.1</ele><time>2011-04-30T11:13:28.0000000+00:00</time></trkpt><trkpt lat="20.955458" lon="107.049103"><ele>19.7</ele><time>2011-04-30T11:13:33.0000000+00:00</time></trkpt><trkpt lat="20.955456" lon="107.049103"><ele>19.3</ele><time>2011-04-30T11:13:38.0000000+00:00</time></trkpt><trkpt lat="20.955456" lon="107.049103"><ele>19.3</ele><time>2011-04-30T11:13:43.0000000+00:00</time></trkpt><trkpt lat="20.955456" lon="107.049103"><ele>19.3</ele><time>2011-04-30T11:13:48.0000000+00:00</time></trkpt><trkpt lat="20.955456" lon="107.049103"><ele>19.3</ele><time>2011-04-30T11:13:53.0000000+00:00</time></trkpt><trkpt lat="20.955456" lon="107.049103"><ele>19.3</ele><time>2011-04-30T11:13:58.0000000+00:00</time></trkpt><trkpt lat="20.955456" lon="107.049103"><ele>19.4</ele><time>2011-04-30T11:14:03.0000000+00:00</time></trkpt><trkpt lat="20.955456" lon="107.049103"><ele>19.4</ele><time>2011-04-30T11:14:08.0000000+00:00</time></trkpt><trkpt lat="20.955456" lon="107.049103"><ele>19.4</ele><time>2011-04-30T11:14:13.0000000+00:00</time></trkpt><trkpt lat="20.955458" lon="107.049103"><ele>19.5</ele><time>2011-04-30T11:14:18.0000000+00:00</time></trkpt><trkpt lat="20.955458" lon="107.04911"><ele>19.5</ele><time>2011-04-30T11:14:23.0000000+00:00</time></trkpt><trkpt lat="20.955458" lon="107.04911"><ele>19.5</ele><time>2011-04-30T11:14:28.0000000+00:00</time></trkpt><trkpt lat="20.955458" lon="107.04911"><ele>19.5</ele><time>2011-04-30T11:14:33.0000000+00:00</time></trkpt><trkpt lat="20.955458" lon="107.04911"><ele>19.5</ele><time>2011-04-30T11:14:38.0000000+00:00</time></trkpt><trkpt lat="20.955458" lon="107.04911"><ele>19.5</ele><time>2011-04-30T11:14:43.0000000+00:00</time></trkpt><trkpt lat="20.955458" lon="107.04911"><ele>19.5</ele><time>2011-04-30T11:14:48.0000000+00:00</time></trkpt><trkpt lat="20.955458" lon="107.04911"><ele>19.6</ele><time>2011-04-30T11:14:53.0000000+00:00</time></trkpt><trkpt lat="20.95546" lon="107.04911"><ele>19.6</ele><time>2011-04-30T11:14:58.0000000+00:00</time></trkpt><trkpt lat="20.95546" lon="107.04911"><ele>19.7</ele><time>2011-04-30T11:15:03.0000000+00:00</time></trkpt><trkpt lat="20.95546" lon="107.04911"><ele>19.7</ele><time>2011-04-30T11:15:08.0000000+00:00</time></trkpt><trkpt lat="20.95546" lon="107.04911"><ele>19.7</ele><time>2011-04-30T11:15:13.0000000+00:00</time></trkpt><trkpt lat="20.95546" lon="107.04911"><ele>19.7</ele><time>2011-04-30T11:15:18.0000000+00:00</time></trkpt><trkpt lat="20.95546" lon="107.04911"><ele>19.7</ele><time>2011-04-30T11:15:23.0000000+00:00</time></trkpt><trkpt lat="20.955462" lon="107.04911"><ele>19.6</ele><time>2011-04-30T11:15:28.0000000+00:00</time></trkpt><trkpt lat="20.955462" lon="107.049103"><ele>19.6</ele><time>2011-04-30T11:15:33.0000000+00:00</time></trkpt><trkpt lat="20.955462" lon="107.049103"><ele>19.6</ele><time>2011-04-30T11:15:38.0000000+00:00</time></trkpt><trkpt lat="20.955462" lon="107.049103"><ele>19.6</ele><time>2011-04-30T11:15:43.0000000+00:00</time></trkpt><trkpt lat="20.955462" lon="107.049103"><ele>19.6</ele><time>2011-04-30T11:15:48.0000000+00:00</time></trkpt><trkpt lat="20.95546" lon="107.049103"><ele>19.5</ele><time>2011-04-30T11:15:53.0000000+00:00</time></trkpt><trkpt lat="20.95546" lon="107.049103"><ele>19.5</ele><time>2011-04-30T11:15:58.0000000+00:00</time></trkpt><trkpt lat="20.95546" lon="107.049103"><ele>19.5</ele><time>2011-04-30T11:16:03.0000000+00:00</time></trkpt><trkpt lat="20.95546" lon="107.049103"><ele>19.5</ele><time>2011-04-30T11:16:08.0000000+00:00</time></trkpt><trkpt lat="20.955458" lon="107.049103"><ele>19.5</ele><time>2011-04-30T11:16:13.0000000+00:00</time></trkpt><trkpt lat="20.955458" lon="107.049103"><ele>19.5</ele><time>2011-04-30T11:16:18.0000000+00:00</time></trkpt><trkpt lat="20.955458" lon="107.049103"><ele>19.4</ele><time>2011-04-30T11:16:23.0000000+00:00</time></trkpt><trkpt lat="20.95546" lon="107.049103"><ele>19.3</ele><time>2011-04-30T11:16:28.0000000+00:00</time></trkpt><trkpt lat="20.95549" lon="107.049103"><ele>18.2</ele><time>2011-04-30T11:16:33.0000000+00:00</time></trkpt><trkpt lat="20.955524" lon="107.049103"><ele>18.0</ele><time>2011-04-30T11:16:38.0000000+00:00</time></trkpt><trkpt lat="20.955538" lon="107.049118"><ele>18.4</ele><time>2011-04-30T11:16:43.0000000+00:00</time></trkpt><trkpt lat="20.955534" lon="107.049103"><ele>17.0</ele><time>2011-04-30T11:16:48.0000000+00:00</time></trkpt><trkpt lat="20.955538" lon="107.049095"><ele>15.2</ele><time>2011-04-30T11:16:53.0000000+00:00</time></trkpt><trkpt lat="20.955536" lon="107.049088"><ele>14.6</ele><time>2011-04-30T11:16:58.0000000+00:00</time></trkpt><trkpt lat="20.955534" lon="107.049065"><ele>14.0</ele><time>2011-04-30T11:17:03.0000000+00:00</time></trkpt><trkpt lat="20.955528" lon="107.049042"><ele>13.5</ele><time>2011-04-30T11:17:08.0000000+00:00</time></trkpt><trkpt lat="20.955509" lon="107.049042"><ele>12.7</ele><time>2011-04-30T11:17:13.0000000+00:00</time></trkpt><trkpt lat="20.955502" lon="107.049042"><ele>11.3</ele><time>2011-04-30T11:17:18.0000000+00:00</time></trkpt><trkpt lat="20.955463" lon="107.049057"><ele>10.7</ele><time>2011-04-30T11:17:23.0000000+00:00</time></trkpt><trkpt lat="20.955442" lon="107.049065"><ele>10.2</ele><time>2011-04-30T11:17:28.0000000+00:00</time></trkpt><trkpt lat="20.955393" lon="107.049088"><ele>11.0</ele><time>2011-04-30T11:17:33.0000000+00:00</time></trkpt><trkpt lat="20.955366" lon="107.049118"><ele>12.2</ele><time>2011-04-30T11:17:38.0000000+00:00</time></trkpt><trkpt lat="20.955343" lon="107.049141"><ele>13.5</ele><time>2011-04-30T11:17:43.0000000+00:00</time></trkpt><trkpt lat="20.955292" lon="107.049141"><ele>12.6</ele><time>2011-04-30T11:17:48.0000000+00:00</time></trkpt><trkpt lat="20.955252" lon="107.049118"><ele>10.9</ele><time>2011-04-30T11:17:53.0000000+00:00</time></trkpt><trkpt lat="20.955229" lon="107.049095"><ele>10.1</ele><time>2011-04-30T11:17:58.0000000+00:00</time></trkpt><trkpt lat="20.955187" lon="107.049103"><ele>9.6</ele><time>2011-04-30T11:18:03.0000000+00:00</time></trkpt><trkpt lat="20.955151" lon="107.049126"><ele>9.6</ele><time>2011-04-30T11:18:08.0000000+00:00</time></trkpt><trkpt lat="20.955116" lon="107.049141"><ele>10.4</ele><time>2011-04-30T11:18:13.0000000+00:00</time></trkpt><trkpt lat="20.955078" lon="107.049149"><ele>10.7</ele><time>2011-04-30T11:18:18.0000000+00:00</time></trkpt><trkpt lat="20.955046" lon="107.049118"><ele>10.2</ele><time>2011-04-30T11:18:23.0000000+00:00</time></trkpt><trkpt lat="20.955027" lon="107.04908"><ele>10.5</ele><time>2011-04-30T11:18:28.0000000+00:00</time></trkpt><trkpt lat="20.955002" lon="107.049049"><ele>10.4</ele><time>2011-04-30T11:18:33.0000000+00:00</time></trkpt><trkpt lat="20.955009" lon="107.049026"><ele>11.0</ele><time>2011-04-30T11:18:38.0000000+00:00</time></trkpt><trkpt lat="20.955017" lon="107.049004"><ele>10.4</ele><time>2011-04-30T11:18:43.0000000+00:00</time></trkpt><trkpt lat="20.95504" lon="107.048988"><ele>10.3</ele><time>2011-04-30T11:18:48.0000000+00:00</time></trkpt><trkpt lat="20.955057" lon="107.048988"><ele>10.8</ele><time>2011-04-30T11:18:53.0000000+00:00</time></trkpt><trkpt lat="20.955059" lon="107.048958"><ele>10.4</ele><time>2011-04-30T11:18:58.0000000+00:00</time></trkpt><trkpt lat="20.955053" lon="107.048943"><ele>10.1</ele><time>2011-04-30T11:19:03.0000000+00:00</time></trkpt><trkpt lat="20.95504" lon="107.048904"><ele>9.6</ele><time>2011-04-30T11:19:08.0000000+00:00</time></trkpt><trkpt lat="20.955048" lon="107.048882"><ele>9.3</ele><time>2011-04-30T11:19:13.0000000+00:00</time></trkpt><trkpt lat="20.955038" lon="107.048843"><ele>8.8</ele><time>2011-04-30T11:19:18.0000000+00:00</time></trkpt><trkpt lat="20.955021" lon="107.04882"><ele>8.6</ele><time>2011-04-30T11:19:23.0000000+00:00</time></trkpt><trkpt lat="20.955021" lon="107.048813"><ele>8.7</ele><time>2011-04-30T11:19:28.0000000+00:00</time></trkpt><trkpt lat="20.955002" lon="107.048805"><ele>6.6</ele><time>2011-04-30T11:19:33.0000000+00:00</time></trkpt><trkpt lat="20.955008" lon="107.048813"><ele>5.6</ele><time>2011-04-30T11:19:38.0000000+00:00</time></trkpt><trkpt lat="20.955" lon="107.048813"><ele>4.3</ele><time>2011-04-30T11:19:43.0000000+00:00</time></trkpt><trkpt lat="20.954994" lon="107.048813"><ele>2.9</ele><time>2011-04-30T11:19:48.0000000+00:00</time></trkpt><trkpt lat="20.954994" lon="107.048813"><ele>2.9</ele><time>2011-04-30T11:19:53.0000000+00:00</time></trkpt><trkpt lat="20.954994" lon="107.048813"><ele>2.8</ele><time>2011-04-30T11:19:58.0000000+00:00</time></trkpt><trkpt lat="20.954994" lon="107.048813"><ele>2.8</ele><time>2011-04-30T11:20:03.0000000+00:00</time></trkpt><trkpt lat="20.954994" lon="107.048813"><ele>2.8</ele><time>2011-04-30T11:20:08.0000000+00:00</time></trkpt><trkpt lat="20.954994" lon="107.048813"><ele>2.8</ele><time>2011-04-30T11:20:13.0000000+00:00</time></trkpt><trkpt lat="20.954994" lon="107.048813"><ele>2.7</ele><time>2011-04-30T11:20:18.0000000+00:00</time></trkpt><trkpt lat="20.954994" lon="107.048813"><ele>2.7</ele><time>2011-04-30T11:20:23.0000000+00:00</time></trkpt><trkpt lat="20.954994" lon="107.048813"><ele>2.7</ele><time>2011-04-30T11:20:28.0000000+00:00</time></trkpt><trkpt lat="20.954994" lon="107.048813"><ele>2.7</ele><time>2011-04-30T11:20:33.0000000+00:00</time></trkpt><trkpt lat="20.954994" lon="107.048813"><ele>2.6</ele><time>2011-04-30T11:20:38.0000000+00:00</time></trkpt><trkpt lat="20.954996" lon="107.048813"><ele>2.6</ele><time>2011-04-30T11:20:43.0000000+00:00</time></trkpt><trkpt lat="20.954996" lon="107.048813"><ele>2.6</ele><time>2011-04-30T11:20:48.0000000+00:00</time></trkpt><trkpt lat="20.954996" lon="107.048813"><ele>2.5</ele><time>2011-04-30T11:20:53.0000000+00:00</time></trkpt><trkpt lat="20.954996" lon="107.048813"><ele>2.5</ele><time>2011-04-30T11:20:58.0000000+00:00</time></trkpt><trkpt lat="20.954996" lon="107.048813"><ele>2.5</ele><time>2011-04-30T11:21:03.0000000+00:00</time></trkpt><trkpt lat="20.954996" lon="107.048813"><ele>2.5</ele><time>2011-04-30T11:21:08.0000000+00:00</time></trkpt><trkpt lat="20.954996" lon="107.048813"><ele>2.5</ele><time>2011-04-30T11:21:13.0000000+00:00</time></trkpt><trkpt lat="20.954996" lon="107.048813"><ele>2.5</ele><time>2011-04-30T11:21:18.0000000+00:00</time></trkpt><trkpt lat="20.954996" lon="107.048813"><ele>2.5</ele><time>2011-04-30T11:21:23.0000000+00:00</time></trkpt><trkpt lat="20.954996" lon="107.048813"><ele>2.6</ele><time>2011-04-30T11:21:28.0000000+00:00</time></trkpt><trkpt lat="20.954996" lon="107.048805"><ele>2.6</ele><time>2011-04-30T11:21:33.0000000+00:00</time></trkpt><trkpt lat="20.954998" lon="107.048805"><ele>2.6</ele><time>2011-04-30T11:21:38.0000000+00:00</time></trkpt><trkpt lat="20.954998" lon="107.048805"><ele>2.6</ele><time>2011-04-30T11:21:43.0000000+00:00</time></trkpt><trkpt lat="20.954998" lon="107.048805"><ele>2.6</ele><time>2011-04-30T11:21:48.0000000+00:00</time></trkpt><trkpt lat="20.954998" lon="107.048805"><ele>2.6</ele><time>2011-04-30T11:21:53.0000000+00:00</time></trkpt><trkpt lat="20.954998" lon="107.048805"><ele>2.6</ele><time>2011-04-30T11:21:58.0000000+00:00</time></trkpt><trkpt lat="20.955" lon="107.048805"><ele>2.6</ele><time>2011-04-30T11:22:03.0000000+00:00</time></trkpt><trkpt lat="20.955" lon="107.048805"><ele>2.6</ele><time>2011-04-30T11:22:08.0000000+00:00</time></trkpt><trkpt lat="20.955" lon="107.048805"><ele>2.6</ele><time>2011-04-30T11:22:13.0000000+00:00</time></trkpt><trkpt lat="20.955" lon="107.048805"><ele>2.6</ele><time>2011-04-30T11:22:18.0000000+00:00</time></trkpt><trkpt lat="20.955" lon="107.048805"><ele>2.6</ele><time>2011-04-30T11:22:23.0000000+00:00</time></trkpt><trkpt lat="20.955" lon="107.048805"><ele>2.6</ele><time>2011-04-30T11:22:28.0000000+00:00</time></trkpt><trkpt lat="20.955" lon="107.048805"><ele>2.6</ele><time>2011-04-30T11:22:33.0000000+00:00</time></trkpt><trkpt lat="20.955" lon="107.048805"><ele>2.6</ele><time>2011-04-30T11:22:38.0000000+00:00</time></trkpt><trkpt lat="20.955002" lon="107.048805"><ele>2.6</ele><time>2011-04-30T11:22:43.0000000+00:00</time></trkpt><trkpt lat="20.955002" lon="107.048805"><ele>2.6</ele><time>2011-04-30T11:22:48.0000000+00:00</time></trkpt><trkpt lat="20.955002" lon="107.048805"><ele>2.6</ele><time>2011-04-30T11:22:53.0000000+00:00</time></trkpt><trkpt lat="20.955002" lon="107.048805"><ele>2.6</ele><time>2011-04-30T11:22:58.0000000+00:00</time></trkpt><trkpt lat="20.955002" lon="107.048805"><ele>2.6</ele><time>2011-04-30T11:23:03.0000000+00:00</time></trkpt><trkpt lat="20.955004" lon="107.048805"><ele>2.6</ele><time>2011-04-30T11:23:08.0000000+00:00</time></trkpt><trkpt lat="20.955004" lon="107.048805"><ele>2.6</ele><time>2011-04-30T11:23:13.0000000+00:00</time></trkpt><trkpt lat="20.955004" lon="107.048805"><ele>2.6</ele><time>2011-04-30T11:23:18.0000000+00:00</time></trkpt><trkpt lat="20.955004" lon="107.048805"><ele>2.6</ele><time>2011-04-30T11:23:23.0000000+00:00</time></trkpt><trkpt lat="20.955004" lon="107.048805"><ele>2.6</ele><time>2011-04-30T11:23:28.0000000+00:00</time></trkpt><trkpt lat="20.955004" lon="107.048805"><ele>2.6</ele><time>2011-04-30T11:23:33.0000000+00:00</time></trkpt><trkpt lat="20.954987" lon="107.048798"><ele>2.0</ele><time>2011-04-30T11:23:38.0000000+00:00</time></trkpt><trkpt lat="20.954956" lon="107.04879"><ele>2.1</ele><time>2011-04-30T11:23:43.0000000+00:00</time></trkpt><trkpt lat="20.954937" lon="107.04879"><ele>1.4</ele><time>2011-04-30T11:23:48.0000000+00:00</time></trkpt><trkpt lat="20.954929" lon="107.048744"><ele>1.6</ele><time>2011-04-30T11:23:53.0000000+00:00</time></trkpt><trkpt lat="20.954914" lon="107.048721"><ele>2.4</ele><time>2011-04-30T11:23:58.0000000+00:00</time></trkpt><trkpt lat="20.954912" lon="107.048691"><ele>3.3</ele><time>2011-04-30T11:24:03.0000000+00:00</time></trkpt><trkpt lat="20.954895" lon="107.048668"><ele>3.5</ele><time>2011-04-30T11:24:08.0000000+00:00</time></trkpt><trkpt lat="20.954903" lon="107.048637"><ele>3.5</ele><time>2011-04-30T11:24:13.0000000+00:00</time></trkpt><trkpt lat="20.954895" lon="107.048622"><ele>3.0</ele><time>2011-04-30T11:24:18.0000000+00:00</time></trkpt><trkpt lat="20.954899" lon="107.048622"><ele>2.7</ele><time>2011-04-30T11:24:23.0000000+00:00</time></trkpt><trkpt lat="20.954899" lon="107.048622"><ele>2.6</ele><time>2011-04-30T11:24:28.0000000+00:00</time></trkpt><trkpt lat="20.954899" lon="107.048622"><ele>2.6</ele><time>2011-04-30T11:24:33.0000000+00:00</time></trkpt><trkpt lat="20.954901" lon="107.048615"><ele>2.6</ele><time>2011-04-30T11:24:38.0000000+00:00</time></trkpt><trkpt lat="20.954924" lon="107.048592"><ele>2.8</ele><time>2011-04-30T11:24:43.0000000+00:00</time></trkpt><trkpt lat="20.954939" lon="107.048561"><ele>3.3</ele><time>2011-04-30T11:24:48.0000000+00:00</time></trkpt><trkpt lat="20.954943" lon="107.048523"><ele>2.8</ele><time>2011-04-30T11:24:53.0000000+00:00</time></trkpt><trkpt lat="20.954947" lon="107.0485"><ele>3.2</ele><time>2011-04-30T11:24:58.0000000+00:00</time></trkpt><trkpt lat="20.954945" lon="107.048477"><ele>2.7</ele><time>2011-04-30T11:25:03.0000000+00:00</time></trkpt><trkpt lat="20.954935" lon="107.048447"><ele>2.3</ele><time>2011-04-30T11:25:08.0000000+00:00</time></trkpt><trkpt lat="20.954918" lon="107.048424"><ele>1.9</ele><time>2011-04-30T11:25:13.0000000+00:00</time></trkpt><trkpt lat="20.954901" lon="107.048401"><ele>2.1</ele><time>2011-04-30T11:25:18.0000000+00:00</time></trkpt><trkpt lat="20.954901" lon="107.048386"><ele>2.1</ele><time>2011-04-30T11:25:23.0000000+00:00</time></trkpt><trkpt lat="20.954905" lon="107.048386"><ele>2.7</ele><time>2011-04-30T11:25:28.0000000+00:00</time></trkpt><trkpt lat="20.954906" lon="107.048386"><ele>3.1</ele><time>2011-04-30T11:25:33.0000000+00:00</time></trkpt><trkpt lat="20.954905" lon="107.04837"><ele>3.4</ele><time>2011-04-30T11:25:38.0000000+00:00</time></trkpt><trkpt lat="20.954891" lon="107.04834"><ele>2.6</ele><time>2011-04-30T11:25:43.0000000+00:00</time></trkpt><trkpt lat="20.954884" lon="107.048309"><ele>2.7</ele><time>2011-04-30T11:25:48.0000000+00:00</time></trkpt><trkpt lat="20.954861" lon="107.048279"><ele>2.7</ele><time>2011-04-30T11:25:53.0000000+00:00</time></trkpt><trkpt lat="20.954853" lon="107.048264"><ele>1.8</ele><time>2011-04-30T11:25:58.0000000+00:00</time></trkpt><trkpt lat="20.95484" lon="107.048233"><ele>0.5</ele><time>2011-04-30T11:26:03.0000000+00:00</time></trkpt><trkpt lat="20.954819" lon="107.048225"><ele>0.8</ele><time>2011-04-30T11:26:08.0000000+00:00</time></trkpt><trkpt lat="20.954811" lon="107.048218"><ele>0.9</ele><time>2011-04-30T11:26:13.0000000+00:00</time></trkpt><trkpt lat="20.954803" lon="107.048164"><ele>0.9</ele><time>2011-04-30T11:26:18.0000000+00:00</time></trkpt><trkpt lat="20.954771" lon="107.048134"><ele>1.0</ele><time>2011-04-30T11:26:23.0000000+00:00</time></trkpt><trkpt lat="20.954752" lon="107.048103"><ele>2.0</ele><time>2011-04-30T11:26:28.0000000+00:00</time></trkpt><trkpt lat="20.954739" lon="107.048073"><ele>3.4</ele><time>2011-04-30T11:26:33.0000000+00:00</time></trkpt><trkpt lat="20.954708" lon="107.048027"><ele>3.9</ele><time>2011-04-30T11:26:38.0000000+00:00</time></trkpt><trkpt lat="20.95467" lon="107.047981"><ele>4.5</ele><time>2011-04-30T11:26:43.0000000+00:00</time></trkpt><trkpt lat="20.954641" lon="107.047951"><ele>4.9</ele><time>2011-04-30T11:26:48.0000000+00:00</time></trkpt><trkpt lat="20.954634" lon="107.04792"><ele>4.8</ele><time>2011-04-30T11:26:53.0000000+00:00</time></trkpt><trkpt lat="20.954626" lon="107.04789"><ele>5.0</ele><time>2011-04-30T11:26:58.0000000+00:00</time></trkpt><trkpt lat="20.954617" lon="107.047874"><ele>5.2</ele><time>2011-04-30T11:27:03.0000000+00:00</time></trkpt><trkpt lat="20.954597" lon="107.047829"><ele>4.7</ele><time>2011-04-30T11:27:08.0000000+00:00</time></trkpt><trkpt lat="20.954596" lon="107.047798"><ele>4.4</ele><time>2011-04-30T11:27:13.0000000+00:00</time></trkpt><trkpt lat="20.954586" lon="107.04776"><ele>3.7</ele><time>2011-04-30T11:27:18.0000000+00:00</time></trkpt><trkpt lat="20.954569" lon="107.047722"><ele>3.5</ele><time>2011-04-30T11:27:23.0000000+00:00</time></trkpt><trkpt lat="20.954531" lon="107.047707"><ele>3.8</ele><time>2011-04-30T11:27:28.0000000+00:00</time></trkpt><trkpt lat="20.954527" lon="107.047714"><ele>4.3</ele><time>2011-04-30T11:27:33.0000000+00:00</time></trkpt><trkpt lat="20.954515" lon="107.047722"><ele>4.4</ele><time>2011-04-30T11:27:38.0000000+00:00</time></trkpt><trkpt lat="20.954399" lon="107.047745"><ele>3.5</ele><time>2011-04-30T11:27:43.0000000+00:00</time></trkpt><trkpt lat="20.954329" lon="107.047752"><ele>3.6</ele><time>2011-04-30T11:27:48.0000000+00:00</time></trkpt><trkpt lat="20.954359" lon="107.047737"><ele>4.0</ele><time>2011-04-30T11:27:53.0000000+00:00</time></trkpt><trkpt lat="20.954374" lon="107.047729"><ele>4.7</ele><time>2011-04-30T11:27:58.0000000+00:00</time></trkpt><trkpt lat="20.954409" lon="107.047722"><ele>4.9</ele><time>2011-04-30T11:28:03.0000000+00:00</time></trkpt><trkpt lat="20.954475" lon="107.047691"><ele>4.9</ele><time>2011-04-30T11:28:08.0000000+00:00</time></trkpt><trkpt lat="20.954502" lon="107.047699"><ele>5.1</ele><time>2011-04-30T11:28:13.0000000+00:00</time></trkpt><trkpt lat="20.954525" lon="107.047707"><ele>4.4</ele><time>2011-04-30T11:28:18.0000000+00:00</time></trkpt><trkpt lat="20.954525" lon="107.047707"><ele>4.2</ele><time>2011-04-30T11:28:23.0000000+00:00</time></trkpt><trkpt lat="20.954525" lon="107.047707"><ele>4.3</ele><time>2011-04-30T11:28:28.0000000+00:00</time></trkpt><trkpt lat="20.954525" lon="107.047707"><ele>4.3</ele><time>2011-04-30T11:28:33.0000000+00:00</time></trkpt><trkpt lat="20.954525" lon="107.047707"><ele>4.3</ele><time>2011-04-30T11:28:38.0000000+00:00</time></trkpt><trkpt lat="20.954527" lon="107.047707"><ele>4.3</ele><time>2011-04-30T11:28:43.0000000+00:00</time></trkpt><trkpt lat="20.954525" lon="107.047707"><ele>4.3</ele><time>2011-04-30T11:28:48.0000000+00:00</time></trkpt><trkpt lat="20.954527" lon="107.047707"><ele>4.3</ele><time>2011-04-30T11:28:53.0000000+00:00</time></trkpt><trkpt lat="20.954527" lon="107.047707"><ele>4.4</ele><time>2011-04-30T11:28:58.0000000+00:00</time></trkpt><trkpt lat="20.954527" lon="107.047707"><ele>4.4</ele><time>2011-04-30T11:29:03.0000000+00:00</time></trkpt><trkpt lat="20.954527" lon="107.047707"><ele>4.4</ele><time>2011-04-30T11:29:08.0000000+00:00</time></trkpt><trkpt lat="20.954527" lon="107.047707"><ele>4.4</ele><time>2011-04-30T11:29:13.0000000+00:00</time></trkpt><trkpt lat="20.954542" lon="107.047722"><ele>5.6</ele><time>2011-04-30T11:29:18.0000000+00:00</time></trkpt><trkpt lat="20.954554" lon="107.047737"><ele>6.9</ele><time>2011-04-30T11:29:23.0000000+00:00</time></trkpt><trkpt lat="20.954559" lon="107.047729"><ele>7.4</ele><time>2011-04-30T11:29:28.0000000+00:00</time></trkpt><trkpt lat="20.954559" lon="107.047729"><ele>7.4</ele><time>2011-04-30T11:29:33.0000000+00:00</time></trkpt><trkpt lat="20.954559" lon="107.047729"><ele>7.4</ele><time>2011-04-30T11:29:38.0000000+00:00</time></trkpt><trkpt lat="20.954559" lon="107.047729"><ele>7.5</ele><time>2011-04-30T11:29:43.0000000+00:00</time></trkpt><trkpt lat="20.954559" lon="107.047722"><ele>7.5</ele><time>2011-04-30T11:29:48.0000000+00:00</time></trkpt><trkpt lat="20.954559" lon="107.047722"><ele>7.5</ele><time>2011-04-30T11:29:53.0000000+00:00</time></trkpt><trkpt lat="20.954559" lon="107.047722"><ele>7.5</ele><time>2011-04-30T11:29:58.0000000+00:00</time></trkpt><trkpt lat="20.954559" lon="107.047722"><ele>7.5</ele><time>2011-04-30T11:30:03.0000000+00:00</time></trkpt><trkpt lat="20.954559" lon="107.047729"><ele>6.4</ele><time>2011-04-30T11:30:08.0000000+00:00</time></trkpt><trkpt lat="20.954575" lon="107.047768"><ele>6.1</ele><time>2011-04-30T11:30:13.0000000+00:00</time></trkpt><trkpt lat="20.954601" lon="107.047806"><ele>7.0</ele><time>2011-04-30T11:30:18.0000000+00:00</time></trkpt><trkpt lat="20.954611" lon="107.047844"><ele>8.2</ele><time>2011-04-30T11:30:23.0000000+00:00</time></trkpt><trkpt lat="20.954615" lon="107.047905"><ele>10.7</ele><time>2011-04-30T11:30:28.0000000+00:00</time></trkpt><trkpt lat="20.954575" lon="107.047951"><ele>5.9</ele><time>2011-04-30T11:30:33.0000000+00:00</time></trkpt><trkpt lat="20.954567" lon="107.047974"><ele>5.9</ele><time>2011-04-30T11:30:38.0000000+00:00</time></trkpt><trkpt lat="20.954546" lon="107.047997"><ele>5.4</ele><time>2011-04-30T11:30:43.0000000+00:00</time></trkpt><trkpt lat="20.954538" lon="107.048019"><ele>6.4</ele><time>2011-04-30T11:30:48.0000000+00:00</time></trkpt><trkpt lat="20.954538" lon="107.04805"><ele>6.9</ele><time>2011-04-30T11:30:53.0000000+00:00</time></trkpt><trkpt lat="20.954559" lon="107.048088"><ele>6.7</ele><time>2011-04-30T11:30:58.0000000+00:00</time></trkpt><trkpt lat="20.954575" lon="107.048103"><ele>7.0</ele><time>2011-04-30T11:31:03.0000000+00:00</time></trkpt><trkpt lat="20.954575" lon="107.048103"><ele>7.2</ele><time>2011-04-30T11:31:08.0000000+00:00</time></trkpt><trkpt lat="20.95458" lon="107.048103"><ele>7.6</ele><time>2011-04-30T11:31:13.0000000+00:00</time></trkpt><trkpt lat="20.954582" lon="107.048103"><ele>7.7</ele><time>2011-04-30T11:31:18.0000000+00:00</time></trkpt><trkpt lat="20.954584" lon="107.048103"><ele>7.9</ele><time>2011-04-30T11:31:23.0000000+00:00</time></trkpt><trkpt lat="20.954573" lon="107.048126"><ele>10.0</ele><time>2011-04-30T11:31:28.0000000+00:00</time></trkpt><trkpt lat="20.954573" lon="107.048149"><ele>12.4</ele><time>2011-04-30T11:31:33.0000000+00:00</time></trkpt><trkpt lat="20.954576" lon="107.04818"><ele>12.3</ele><time>2011-04-30T11:31:38.0000000+00:00</time></trkpt><trkpt lat="20.95459" lon="107.048187"><ele>12.4</ele><time>2011-04-30T11:31:43.0000000+00:00</time></trkpt><trkpt lat="20.95462" lon="107.048218"><ele>11.5</ele><time>2011-04-30T11:31:48.0000000+00:00</time></trkpt><trkpt lat="20.954628" lon="107.048218"><ele>11.1</ele><time>2011-04-30T11:31:53.0000000+00:00</time></trkpt><trkpt lat="20.954634" lon="107.048218"><ele>10.9</ele><time>2011-04-30T11:31:58.0000000+00:00</time></trkpt><trkpt lat="20.954626" lon="107.048233"><ele>11.9</ele><time>2011-04-30T11:32:03.0000000+00:00</time></trkpt><trkpt lat="20.954639" lon="107.048271"><ele>13.1</ele><time>2011-04-30T11:32:08.0000000+00:00</time></trkpt><trkpt lat="20.954647" lon="107.048294"><ele>13.5</ele><time>2011-04-30T11:32:13.0000000+00:00</time></trkpt><trkpt lat="20.954653" lon="107.048332"><ele>14.9</ele><time>2011-04-30T11:32:18.0000000+00:00</time></trkpt><trkpt lat="20.954672" lon="107.04837"><ele>16.4</ele><time>2011-04-30T11:32:23.0000000+00:00</time></trkpt><trkpt lat="20.95472" lon="107.048409"><ele>13.9</ele><time>2011-04-30T11:32:28.0000000+00:00</time></trkpt><trkpt lat="20.954773" lon="107.048409"><ele>12.4</ele><time>2011-04-30T11:32:33.0000000+00:00</time></trkpt><trkpt lat="20.954815" lon="107.048409"><ele>11.0</ele><time>2011-04-30T11:32:38.0000000+00:00</time></trkpt><trkpt lat="20.954823" lon="107.048424"><ele>12.1</ele><time>2011-04-30T11:32:43.0000000+00:00</time></trkpt><trkpt lat="20.954847" lon="107.048439"><ele>11.4</ele><time>2011-04-30T11:32:48.0000000+00:00</time></trkpt><trkpt lat="20.954863" lon="107.04847"><ele>10.4</ele><time>2011-04-30T11:32:53.0000000+00:00</time></trkpt><trkpt lat="20.95487" lon="107.0485"><ele>12.8</ele><time>2011-04-30T11:32:58.0000000+00:00</time></trkpt><trkpt lat="20.954891" lon="107.048523"><ele>13.8</ele><time>2011-04-30T11:33:03.0000000+00:00</time></trkpt><trkpt lat="20.954912" lon="107.048553"><ele>12.2</ele><time>2011-04-30T11:33:08.0000000+00:00</time></trkpt><trkpt lat="20.954952" lon="107.048538"><ele>11.0</ele><time>2011-04-30T11:33:13.0000000+00:00</time></trkpt><trkpt lat="20.954987" lon="107.048523"><ele>9.2</ele><time>2011-04-30T11:33:18.0000000+00:00</time></trkpt><trkpt lat="20.95499" lon="107.048531"><ele>8.6</ele><time>2011-04-30T11:33:23.0000000+00:00</time></trkpt><trkpt lat="20.954987" lon="107.048523"><ele>7.4</ele><time>2011-04-30T11:33:28.0000000+00:00</time></trkpt><trkpt lat="20.955" lon="107.048515"><ele>6.9</ele><time>2011-04-30T11:33:33.0000000+00:00</time></trkpt><trkpt lat="20.955042" lon="107.048508"><ele>5.3</ele><time>2011-04-30T11:33:38.0000000+00:00</time></trkpt><trkpt lat="20.95507" lon="107.048492"><ele>4.8</ele><time>2011-04-30T11:33:43.0000000+00:00</time></trkpt><trkpt lat="20.955082" lon="107.0485"><ele>5.8</ele><time>2011-04-30T11:33:48.0000000+00:00</time></trkpt><trkpt lat="20.955088" lon="107.0485"><ele>6.6</ele><time>2011-04-30T11:33:53.0000000+00:00</time></trkpt><trkpt lat="20.955095" lon="107.048523"><ele>8.6</ele><time>2011-04-30T11:33:58.0000000+00:00</time></trkpt><trkpt lat="20.955099" lon="107.048546"><ele>8.9</ele><time>2011-04-30T11:34:03.0000000+00:00</time></trkpt><trkpt lat="20.955105" lon="107.048553"><ele>8.7</ele><time>2011-04-30T11:34:08.0000000+00:00</time></trkpt><trkpt lat="20.955107" lon="107.048553"><ele>8.7</ele><time>2011-04-30T11:34:13.0000000+00:00</time></trkpt><trkpt lat="20.955107" lon="107.048553"><ele>8.7</ele><time>2011-04-30T11:34:18.0000000+00:00</time></trkpt><trkpt lat="20.955107" lon="107.048553"><ele>8.7</ele><time>2011-04-30T11:34:23.0000000+00:00</time></trkpt><trkpt lat="20.955107" lon="107.048553"><ele>8.7</ele><time>2011-04-30T11:34:28.0000000+00:00</time></trkpt><trkpt lat="20.955107" lon="107.048553"><ele>8.7</ele><time>2011-04-30T11:34:33.0000000+00:00</time></trkpt><trkpt lat="20.955109" lon="107.048553"><ele>8.7</ele><time>2011-04-30T11:34:38.0000000+00:00</time></trkpt><trkpt lat="20.955109" lon="107.048553"><ele>8.7</ele><time>2011-04-30T11:34:43.0000000+00:00</time></trkpt><trkpt lat="20.955109" lon="107.048553"><ele>8.7</ele><time>2011-04-30T11:34:48.0000000+00:00</time></trkpt><trkpt lat="20.955109" lon="107.048553"><ele>8.6</ele><time>2011-04-30T11:34:53.0000000+00:00</time></trkpt><trkpt lat="20.955109" lon="107.048553"><ele>8.6</ele><time>2011-04-30T11:34:58.0000000+00:00</time></trkpt><trkpt lat="20.955111" lon="107.048553"><ele>8.7</ele><time>2011-04-30T11:35:03.0000000+00:00</time></trkpt><trkpt lat="20.955111" lon="107.048553"><ele>8.7</ele><time>2011-04-30T11:35:08.0000000+00:00</time></trkpt><trkpt lat="20.955111" lon="107.048553"><ele>8.7</ele><time>2011-04-30T11:35:13.0000000+00:00</time></trkpt><trkpt lat="20.955111" lon="107.048553"><ele>8.7</ele><time>2011-04-30T11:35:18.0000000+00:00</time></trkpt><trkpt lat="20.955111" lon="107.048553"><ele>8.7</ele><time>2011-04-30T11:35:23.0000000+00:00</time></trkpt><trkpt lat="20.955111" lon="107.048553"><ele>8.7</ele><time>2011-04-30T11:35:28.0000000+00:00</time></trkpt><trkpt lat="20.955111" lon="107.048553"><ele>8.6</ele><time>2011-04-30T11:35:33.0000000+00:00</time></trkpt><trkpt lat="20.955111" lon="107.048553"><ele>8.6</ele><time>2011-04-30T11:35:38.0000000+00:00</time></trkpt><trkpt lat="20.955111" lon="107.048553"><ele>8.6</ele><time>2011-04-30T11:35:43.0000000+00:00</time></trkpt><trkpt lat="20.955111" lon="107.048553"><ele>8.5</ele><time>2011-04-30T11:35:48.0000000+00:00</time></trkpt><trkpt lat="20.955111" lon="107.048553"><ele>8.5</ele><time>2011-04-30T11:35:53.0000000+00:00</time></trkpt><trkpt lat="20.955111" lon="107.048553"><ele>8.4</ele><time>2011-04-30T11:35:58.0000000+00:00</time></trkpt><trkpt lat="20.955111" lon="107.048553"><ele>8.4</ele><time>2011-04-30T11:36:03.0000000+00:00</time></trkpt><trkpt lat="20.955111" lon="107.048553"><ele>8.4</ele><time>2011-04-30T11:36:08.0000000+00:00</time></trkpt><trkpt lat="20.955111" lon="107.048553"><ele>8.4</ele><time>2011-04-30T11:36:13.0000000+00:00</time></trkpt><trkpt lat="20.955111" lon="107.048553"><ele>8.3</ele><time>2011-04-30T11:36:18.0000000+00:00</time></trkpt><trkpt lat="20.955111" lon="107.048553"><ele>8.3</ele><time>2011-04-30T11:36:23.0000000+00:00</time></trkpt><trkpt lat="20.955111" lon="107.048553"><ele>8.3</ele><time>2011-04-30T11:36:28.0000000+00:00</time></trkpt><trkpt lat="20.955111" lon="107.048553"><ele>8.3</ele><time>2011-04-30T11:36:33.0000000+00:00</time></trkpt><trkpt lat="20.955112" lon="107.048553"><ele>8.3</ele><time>2011-04-30T11:36:38.0000000+00:00</time></trkpt><trkpt lat="20.955112" lon="107.048553"><ele>8.3</ele><time>2011-04-30T11:36:43.0000000+00:00</time></trkpt><trkpt lat="20.955112" lon="107.048561"><ele>8.3</ele><time>2011-04-30T11:36:48.0000000+00:00</time></trkpt><trkpt lat="20.955112" lon="107.048561"><ele>8.3</ele><time>2011-04-30T11:36:53.0000000+00:00</time></trkpt><trkpt lat="20.955112" lon="107.048561"><ele>8.2</ele><time>2011-04-30T11:36:58.0000000+00:00</time></trkpt><trkpt lat="20.955112" lon="107.048561"><ele>8.2</ele><time>2011-04-30T11:37:03.0000000+00:00</time></trkpt><trkpt lat="20.955112" lon="107.048561"><ele>8.2</ele><time>2011-04-30T11:37:08.0000000+00:00</time></trkpt><trkpt lat="20.955112" lon="107.048561"><ele>8.2</ele><time>2011-04-30T11:37:13.0000000+00:00</time></trkpt><trkpt lat="20.955114" lon="107.048561"><ele>8.2</ele><time>2011-04-30T11:37:18.0000000+00:00</time></trkpt><trkpt lat="20.955114" lon="107.048561"><ele>8.2</ele><time>2011-04-30T11:37:23.0000000+00:00</time></trkpt><trkpt lat="20.955114" lon="107.048561"><ele>8.1</ele><time>2011-04-30T11:37:28.0000000+00:00</time></trkpt><trkpt lat="20.955114" lon="107.048561"><ele>8.1</ele><time>2011-04-30T11:37:33.0000000+00:00</time></trkpt><trkpt lat="20.955116" lon="107.048561"><ele>8.1</ele><time>2011-04-30T11:37:38.0000000+00:00</time></trkpt><trkpt lat="20.955116" lon="107.048561"><ele>8.1</ele><time>2011-04-30T11:37:43.0000000+00:00</time></trkpt><trkpt lat="20.955116" lon="107.048561"><ele>8.1</ele><time>2011-04-30T11:37:48.0000000+00:00</time></trkpt><trkpt lat="20.955116" lon="107.048561"><ele>8.1</ele><time>2011-04-30T11:37:53.0000000+00:00</time></trkpt><trkpt lat="20.955116" lon="107.048561"><ele>8.1</ele><time>2011-04-30T11:37:58.0000000+00:00</time></trkpt><trkpt lat="20.955116" lon="107.048561"><ele>8.1</ele><time>2011-04-30T11:38:03.0000000+00:00</time></trkpt><trkpt lat="20.955116" lon="107.048561"><ele>8.0</ele><time>2011-04-30T11:38:08.0000000+00:00</time></trkpt><trkpt lat="20.955116" lon="107.048561"><ele>8.0</ele><time>2011-04-30T11:38:13.0000000+00:00</time></trkpt><trkpt lat="20.955116" lon="107.048561"><ele>7.9</ele><time>2011-04-30T11:38:18.0000000+00:00</time></trkpt><trkpt lat="20.955116" lon="107.048561"><ele>7.9</ele><time>2011-04-30T11:38:23.0000000+00:00</time></trkpt><trkpt lat="20.955116" lon="107.048561"><ele>7.9</ele><time>2011-04-30T11:38:28.0000000+00:00</time></trkpt><trkpt lat="20.955116" lon="107.048561"><ele>7.8</ele><time>2011-04-30T11:38:33.0000000+00:00</time></trkpt><trkpt lat="20.955116" lon="107.048561"><ele>7.8</ele><time>2011-04-30T11:38:38.0000000+00:00</time></trkpt><trkpt lat="20.955116" lon="107.048561"><ele>7.7</ele><time>2011-04-30T11:38:43.0000000+00:00</time></trkpt><trkpt lat="20.955116" lon="107.048561"><ele>7.7</ele><time>2011-04-30T11:38:48.0000000+00:00</time></trkpt><trkpt lat="20.955116" lon="107.048561"><ele>7.7</ele><time>2011-04-30T11:38:53.0000000+00:00</time></trkpt><trkpt lat="20.955116" lon="107.048561"><ele>7.6</ele><time>2011-04-30T11:38:58.0000000+00:00</time></trkpt><trkpt lat="20.955116" lon="107.048561"><ele>7.6</ele><time>2011-04-30T11:39:03.0000000+00:00</time></trkpt><trkpt lat="20.955116" lon="107.048561"><ele>7.6</ele><time>2011-04-30T11:39:08.0000000+00:00</time></trkpt><trkpt lat="20.955116" lon="107.048561"><ele>7.6</ele><time>2011-04-30T11:39:13.0000000+00:00</time></trkpt><trkpt lat="20.955116" lon="107.048561"><ele>7.6</ele><time>2011-04-30T11:39:18.0000000+00:00</time></trkpt><trkpt lat="20.955116" lon="107.048561"><ele>7.7</ele><time>2011-04-30T11:39:23.0000000+00:00</time></trkpt><trkpt lat="20.955116" lon="107.048561"><ele>7.7</ele><time>2011-04-30T11:39:28.0000000+00:00</time></trkpt><trkpt lat="20.955116" lon="107.048561"><ele>7.7</ele><time>2011-04-30T11:39:33.0000000+00:00</time></trkpt><trkpt lat="20.955116" lon="107.048561"><ele>7.7</ele><time>2011-04-30T11:39:38.0000000+00:00</time></trkpt><trkpt lat="20.955116" lon="107.048561"><ele>7.6</ele><time>2011-04-30T11:39:43.0000000+00:00</time></trkpt><trkpt lat="20.955118" lon="107.048561"><ele>7.6</ele><time>2011-04-30T11:39:48.0000000+00:00</time></trkpt><trkpt lat="20.955118" lon="107.048561"><ele>7.6</ele><time>2011-04-30T11:39:53.0000000+00:00</time></trkpt><trkpt lat="20.955118" lon="107.048561"><ele>7.6</ele><time>2011-04-30T11:39:58.0000000+00:00</time></trkpt><trkpt lat="20.955116" lon="107.048561"><ele>7.5</ele><time>2011-04-30T11:40:03.0000000+00:00</time></trkpt><trkpt lat="20.955112" lon="107.048561"><ele>7.3</ele><time>2011-04-30T11:40:08.0000000+00:00</time></trkpt><trkpt lat="20.955112" lon="107.048561"><ele>7.2</ele><time>2011-04-30T11:40:13.0000000+00:00</time></trkpt><trkpt lat="20.955112" lon="107.048561"><ele>7.2</ele><time>2011-04-30T11:40:18.0000000+00:00</time></trkpt><trkpt lat="20.955112" lon="107.048561"><ele>7.2</ele><time>2011-04-30T11:40:23.0000000+00:00</time></trkpt><trkpt lat="20.955112" lon="107.048561"><ele>7.1</ele><time>2011-04-30T11:40:28.0000000+00:00</time></trkpt><trkpt lat="20.955112" lon="107.048561"><ele>7.1</ele><time>2011-04-30T11:40:33.0000000+00:00</time></trkpt><trkpt lat="20.955112" lon="107.048561"><ele>7.1</ele><time>2011-04-30T11:40:38.0000000+00:00</time></trkpt><trkpt lat="20.955112" lon="107.048561"><ele>7.0</ele><time>2011-04-30T11:40:43.0000000+00:00</time></trkpt><trkpt lat="20.955112" lon="107.048561"><ele>7.0</ele><time>2011-04-30T11:40:48.0000000+00:00</time></trkpt><trkpt lat="20.955112" lon="107.048561"><ele>6.9</ele><time>2011-04-30T11:40:53.0000000+00:00</time></trkpt><trkpt lat="20.955122" lon="107.048546"><ele>5.6</ele><time>2011-04-30T11:40:58.0000000+00:00</time></trkpt><trkpt lat="20.95512" lon="107.048546"><ele>4.1</ele><time>2011-04-30T11:41:03.0000000+00:00</time></trkpt><trkpt lat="20.95512" lon="107.048546"><ele>4.1</ele><time>2011-04-30T11:41:08.0000000+00:00</time></trkpt><trkpt lat="20.95512" lon="107.048546"><ele>4.1</ele><time>2011-04-30T11:41:13.0000000+00:00</time></trkpt><trkpt lat="20.95512" lon="107.048546"><ele>4.1</ele><time>2011-04-30T11:41:18.0000000+00:00</time></trkpt><trkpt lat="20.95512" lon="107.048546"><ele>4.1</ele><time>2011-04-30T11:41:23.0000000+00:00</time></trkpt><trkpt lat="20.95512" lon="107.048538"><ele>4.0</ele><time>2011-04-30T11:41:28.0000000+00:00</time></trkpt><trkpt lat="20.955118" lon="107.048538"><ele>4.1</ele><time>2011-04-30T11:41:33.0000000+00:00</time></trkpt><trkpt lat="20.955116" lon="107.048538"><ele>4.4</ele><time>2011-04-30T11:41:38.0000000+00:00</time></trkpt><trkpt lat="20.955114" lon="107.048538"><ele>4.3</ele><time>2011-04-30T11:41:43.0000000+00:00</time></trkpt><trkpt lat="20.955114" lon="107.048538"><ele>4.3</ele><time>2011-04-30T11:41:48.0000000+00:00</time></trkpt><trkpt lat="20.955114" lon="107.048538"><ele>4.3</ele><time>2011-04-30T11:41:53.0000000+00:00</time></trkpt><trkpt lat="20.955114" lon="107.048538"><ele>4.3</ele><time>2011-04-30T11:41:58.0000000+00:00</time></trkpt><trkpt lat="20.955114" lon="107.048538"><ele>4.3</ele><time>2011-04-30T11:42:03.0000000+00:00</time></trkpt><trkpt lat="20.955112" lon="107.048538"><ele>4.3</ele><time>2011-04-30T11:42:08.0000000+00:00</time></trkpt><trkpt lat="20.955107" lon="107.048546"><ele>4.5</ele><time>2011-04-30T11:42:13.0000000+00:00</time></trkpt><trkpt lat="20.955074" lon="107.048569"><ele>4.3</ele><time>2011-04-30T11:42:18.0000000+00:00</time></trkpt><trkpt lat="20.955042" lon="107.048599"><ele>5.1</ele><time>2011-04-30T11:42:23.0000000+00:00</time></trkpt><trkpt lat="20.955029" lon="107.048599"><ele>4.2</ele><time>2011-04-30T11:42:28.0000000+00:00</time></trkpt><trkpt lat="20.955" lon="107.04863"><ele>4.7</ele><time>2011-04-30T11:42:33.0000000+00:00</time></trkpt><trkpt lat="20.955" lon="107.04866"><ele>4.9</ele><time>2011-04-30T11:42:38.0000000+00:00</time></trkpt><trkpt lat="20.955008" lon="107.048691"><ele>5.6</ele><time>2011-04-30T11:42:43.0000000+00:00</time></trkpt><trkpt lat="20.955013" lon="107.048714"><ele>5.1</ele><time>2011-04-30T11:42:48.0000000+00:00</time></trkpt><trkpt lat="20.955017" lon="107.048729"><ele>5.1</ele><time>2011-04-30T11:42:53.0000000+00:00</time></trkpt><trkpt lat="20.955017" lon="107.048744"><ele>5.0</ele><time>2011-04-30T11:42:58.0000000+00:00</time></trkpt><trkpt lat="20.955029" lon="107.048767"><ele>5.4</ele><time>2011-04-30T11:43:03.0000000+00:00</time></trkpt><trkpt lat="20.955036" lon="107.048805"><ele>5.8</ele><time>2011-04-30T11:43:08.0000000+00:00</time></trkpt><trkpt lat="20.955032" lon="107.04882"><ele>5.5</ele><time>2011-04-30T11:43:13.0000000+00:00</time></trkpt><trkpt lat="20.955048" lon="107.048836"><ele>5.5</ele><time>2011-04-30T11:43:18.0000000+00:00</time></trkpt><trkpt lat="20.955059" lon="107.048859"><ele>4.6</ele><time>2011-04-30T11:43:23.0000000+00:00</time></trkpt><trkpt lat="20.955074" lon="107.048897"><ele>4.5</ele><time>2011-04-30T11:43:28.0000000+00:00</time></trkpt><trkpt lat="20.95509" lon="107.048935"><ele>4.6</ele><time>2011-04-30T11:43:33.0000000+00:00</time></trkpt><trkpt lat="20.955111" lon="107.048973"><ele>4.9</ele><time>2011-04-30T11:43:38.0000000+00:00</time></trkpt><trkpt lat="20.955128" lon="107.048988"><ele>4.7</ele><time>2011-04-30T11:43:43.0000000+00:00</time></trkpt><trkpt lat="20.955145" lon="107.048996"><ele>4.4</ele><time>2011-04-30T11:43:48.0000000+00:00</time></trkpt><trkpt lat="20.955147" lon="107.048996"><ele>4.6</ele><time>2011-04-30T11:43:53.0000000+00:00</time></trkpt><trkpt lat="20.955143" lon="107.049004"><ele>4.5</ele><time>2011-04-30T11:43:58.0000000+00:00</time></trkpt><trkpt lat="20.955143" lon="107.049004"><ele>4.4</ele><time>2011-04-30T11:44:03.0000000+00:00</time></trkpt><trkpt lat="20.955143" lon="107.049004"><ele>4.4</ele><time>2011-04-30T11:44:08.0000000+00:00</time></trkpt><trkpt lat="20.955143" lon="107.049004"><ele>4.4</ele><time>2011-04-30T11:44:13.0000000+00:00</time></trkpt><trkpt lat="20.955143" lon="107.049004"><ele>4.3</ele><time>2011-04-30T11:44:18.0000000+00:00</time></trkpt><trkpt lat="20.955143" lon="107.049004"><ele>4.3</ele><time>2011-04-30T11:44:23.0000000+00:00</time></trkpt><trkpt lat="20.955143" lon="107.049004"><ele>4.4</ele><time>2011-04-30T11:44:28.0000000+00:00</time></trkpt><trkpt lat="20.955145" lon="107.049004"><ele>4.2</ele><time>2011-04-30T11:44:33.0000000+00:00</time></trkpt><trkpt lat="20.955143" lon="107.049004"><ele>4.2</ele><time>2011-04-30T11:44:38.0000000+00:00</time></trkpt><trkpt lat="20.955143" lon="107.049004"><ele>4.2</ele><time>2011-04-30T11:44:43.0000000+00:00</time></trkpt><trkpt lat="20.955145" lon="107.049004"><ele>4.3</ele><time>2011-04-30T11:44:48.0000000+00:00</time></trkpt><trkpt lat="20.955149" lon="107.049011"><ele>4.4</ele><time>2011-04-30T11:44:53.0000000+00:00</time></trkpt><trkpt lat="20.955151" lon="107.049049"><ele>4.2</ele><time>2011-04-30T11:44:58.0000000+00:00</time></trkpt><trkpt lat="20.955156" lon="107.049065"><ele>4.4</ele><time>2011-04-30T11:45:03.0000000+00:00</time></trkpt><trkpt lat="20.95517" lon="107.049072"><ele>4.4</ele><time>2011-04-30T11:45:08.0000000+00:00</time></trkpt><trkpt lat="20.955172" lon="107.04911"><ele>4.0</ele><time>2011-04-30T11:45:13.0000000+00:00</time></trkpt><trkpt lat="20.955187" lon="107.049141"><ele>4.3</ele><time>2011-04-30T11:45:18.0000000+00:00</time></trkpt><trkpt lat="20.955198" lon="107.049164"><ele>3.6</ele><time>2011-04-30T11:45:23.0000000+00:00</time></trkpt><trkpt lat="20.955217" lon="107.049194"><ele>4.1</ele><time>2011-04-30T11:45:28.0000000+00:00</time></trkpt><trkpt lat="20.955244" lon="107.049202"><ele>4.5</ele><time>2011-04-30T11:45:33.0000000+00:00</time></trkpt><trkpt lat="20.955265" lon="107.049217"><ele>4.9</ele><time>2011-04-30T11:45:38.0000000+00:00</time></trkpt><trkpt lat="20.955273" lon="107.049232"><ele>5.2</ele><time>2011-04-30T11:45:43.0000000+00:00</time></trkpt><trkpt lat="20.95528" lon="107.049255"><ele>5.5</ele><time>2011-04-30T11:45:48.0000000+00:00</time></trkpt><trkpt lat="20.955296" lon="107.049286"><ele>4.7</ele><time>2011-04-30T11:45:53.0000000+00:00</time></trkpt><trkpt lat="20.955307" lon="107.049324"><ele>4.3</ele><time>2011-04-30T11:45:58.0000000+00:00</time></trkpt><trkpt lat="20.95532" lon="107.04937"><ele>4.3</ele><time>2011-04-30T11:46:03.0000000+00:00</time></trkpt><trkpt lat="20.955334" lon="107.0494"><ele>4.7</ele><time>2011-04-30T11:46:08.0000000+00:00</time></trkpt><trkpt lat="20.955353" lon="107.049431"><ele>5.1</ele><time>2011-04-30T11:46:13.0000000+00:00</time></trkpt><trkpt lat="20.955368" lon="107.049461"><ele>5.4</ele><time>2011-04-30T11:46:18.0000000+00:00</time></trkpt><trkpt lat="20.955379" lon="107.0495"><ele>6.1</ele><time>2011-04-30T11:46:23.0000000+00:00</time></trkpt><trkpt lat="20.955383" lon="107.04953"><ele>6.8</ele><time>2011-04-30T11:46:28.0000000+00:00</time></trkpt><trkpt lat="20.955395" lon="107.049576"><ele>6.4</ele><time>2011-04-30T11:46:33.0000000+00:00</time></trkpt><trkpt lat="20.955416" lon="107.049606"><ele>5.5</ele><time>2011-04-30T11:46:38.0000000+00:00</time></trkpt><trkpt lat="20.955429" lon="107.049637"><ele>6.1</ele><time>2011-04-30T11:46:43.0000000+00:00</time></trkpt><trkpt lat="20.955446" lon="107.049667"><ele>6.1</ele><time>2011-04-30T11:46:48.0000000+00:00</time></trkpt><trkpt lat="20.955471" lon="107.049675"><ele>7.0</ele><time>2011-04-30T11:46:53.0000000+00:00</time></trkpt><trkpt lat="20.955486" lon="107.04969"><ele>6.8</ele><time>2011-04-30T11:46:58.0000000+00:00</time></trkpt><trkpt lat="20.955509" lon="107.049728"><ele>7.0</ele><time>2011-04-30T11:47:03.0000000+00:00</time></trkpt><trkpt lat="20.955536" lon="107.049751"><ele>7.2</ele><time>2011-04-30T11:47:08.0000000+00:00</time></trkpt><trkpt lat="20.955557" lon="107.049789"><ele>7.5</ele><time>2011-04-30T11:47:13.0000000+00:00</time></trkpt><trkpt lat="20.955593" lon="107.04982"><ele>7.4</ele><time>2011-04-30T11:47:18.0000000+00:00</time></trkpt><trkpt lat="20.955618" lon="107.049835"><ele>6.6</ele><time>2011-04-30T11:47:23.0000000+00:00</time></trkpt><trkpt lat="20.955645" lon="107.049873"><ele>6.5</ele><time>2011-04-30T11:47:28.0000000+00:00</time></trkpt><trkpt lat="20.955679" lon="107.049904"><ele>6.2</ele><time>2011-04-30T11:47:33.0000000+00:00</time></trkpt><trkpt lat="20.955688" lon="107.049919"><ele>7.5</ele><time>2011-04-30T11:47:38.0000000+00:00</time></trkpt><trkpt lat="20.955706" lon="107.049934"><ele>9.5</ele><time>2011-04-30T11:47:43.0000000+00:00</time></trkpt><trkpt lat="20.955751" lon="107.049942"><ele>9.5</ele><time>2011-04-30T11:47:48.0000000+00:00</time></trkpt><trkpt lat="20.95577" lon="107.049957"><ele>10.2</ele><time>2011-04-30T11:47:53.0000000+00:00</time></trkpt><trkpt lat="20.955795" lon="107.04998"><ele>9.6</ele><time>2011-04-30T11:47:58.0000000+00:00</time></trkpt><trkpt lat="20.95582" lon="107.049995"><ele>8.8</ele><time>2011-04-30T11:48:03.0000000+00:00</time></trkpt><trkpt lat="20.955839" lon="107.049995"><ele>8.7</ele><time>2011-04-30T11:48:08.0000000+00:00</time></trkpt><trkpt lat="20.955828" lon="107.050011"><ele>9.1</ele><time>2011-04-30T11:48:13.0000000+00:00</time></trkpt><trkpt lat="20.955835" lon="107.050003"><ele>8.9</ele><time>2011-04-30T11:48:18.0000000+00:00</time></trkpt><trkpt lat="20.955841" lon="107.050003"><ele>9.4</ele><time>2011-04-30T11:48:23.0000000+00:00</time></trkpt><trkpt lat="20.955841" lon="107.050011"><ele>10.1</ele><time>2011-04-30T11:48:28.0000000+00:00</time></trkpt><trkpt lat="20.955841" lon="107.050003"><ele>9.1</ele><time>2011-04-30T11:48:33.0000000+00:00</time></trkpt><trkpt lat="20.955835" lon="107.050011"><ele>8.6</ele><time>2011-04-30T11:48:38.0000000+00:00</time></trkpt><trkpt lat="20.955832" lon="107.050003"><ele>7.9</ele><time>2011-04-30T11:48:43.0000000+00:00</time></trkpt><trkpt lat="20.955824" lon="107.050011"><ele>7.5</ele><time>2011-04-30T11:48:48.0000000+00:00</time></trkpt><trkpt lat="20.955812" lon="107.050011"><ele>7.7</ele><time>2011-04-30T11:48:53.0000000+00:00</time></trkpt><trkpt lat="20.955832" lon="107.050018"><ele>7.8</ele><time>2011-04-30T11:48:58.0000000+00:00</time></trkpt><trkpt lat="20.955822" lon="107.050049"><ele>8.1</ele><time>2011-04-30T11:49:03.0000000+00:00</time></trkpt><trkpt lat="20.955843" lon="107.050087"><ele>7.3</ele><time>2011-04-30T11:49:08.0000000+00:00</time></trkpt><trkpt lat="20.955856" lon="107.050102"><ele>7.4</ele><time>2011-04-30T11:49:13.0000000+00:00</time></trkpt><trkpt lat="20.955875" lon="107.050102"><ele>8.2</ele><time>2011-04-30T11:49:18.0000000+00:00</time></trkpt><trkpt lat="20.955902" lon="107.05011"><ele>8.3</ele><time>2011-04-30T11:49:23.0000000+00:00</time></trkpt><trkpt lat="20.955933" lon="107.05011"><ele>9.2</ele><time>2011-04-30T11:49:28.0000000+00:00</time></trkpt><trkpt lat="20.955959" lon="107.050095"><ele>10.2</ele><time>2011-04-30T11:49:33.0000000+00:00</time></trkpt><trkpt lat="20.955961" lon="107.050087"><ele>9.5</ele><time>2011-04-30T11:49:38.0000000+00:00</time></trkpt><trkpt lat="20.955965" lon="107.050087"><ele>9.7</ele><time>2011-04-30T11:49:43.0000000+00:00</time></trkpt><trkpt lat="20.955986" lon="107.050087"><ele>8.9</ele><time>2011-04-30T11:49:48.0000000+00:00</time></trkpt><trkpt lat="20.956007" lon="107.050125"><ele>9.4</ele><time>2011-04-30T11:49:53.0000000+00:00</time></trkpt><trkpt lat="20.95603" lon="107.050148"><ele>9.7</ele><time>2011-04-30T11:49:58.0000000+00:00</time></trkpt><trkpt lat="20.956028" lon="107.050148"><ele>9.1</ele><time>2011-04-30T11:50:03.0000000+00:00</time></trkpt><trkpt lat="20.956009" lon="107.050179"><ele>9.7</ele><time>2011-04-30T11:50:08.0000000+00:00</time></trkpt><trkpt lat="20.955999" lon="107.050186"><ele>9.9</ele><time>2011-04-30T11:50:13.0000000+00:00</time></trkpt><trkpt lat="20.955982" lon="107.050201"><ele>9.5</ele><time>2011-04-30T11:50:18.0000000+00:00</time></trkpt><trkpt lat="20.955986" lon="107.050217"><ele>8.5</ele><time>2011-04-30T11:50:23.0000000+00:00</time></trkpt><trkpt lat="20.955982" lon="107.050232"><ele>6.9</ele><time>2011-04-30T11:50:28.0000000+00:00</time></trkpt><trkpt lat="20.955982" lon="107.050224"><ele>6.3</ele><time>2011-04-30T11:50:33.0000000+00:00</time></trkpt><trkpt lat="20.955982" lon="107.050224"><ele>6.1</ele><time>2011-04-30T11:50:38.0000000+00:00</time></trkpt><trkpt lat="20.955982" lon="107.050224"><ele>6.0</ele><time>2011-04-30T11:50:43.0000000+00:00</time></trkpt><trkpt lat="20.955982" lon="107.050224"><ele>6.0</ele><time>2011-04-30T11:50:48.0000000+00:00</time></trkpt><trkpt lat="20.955982" lon="107.050224"><ele>5.9</ele><time>2011-04-30T11:50:53.0000000+00:00</time></trkpt><trkpt lat="20.955982" lon="107.050224"><ele>5.9</ele><time>2011-04-30T11:50:58.0000000+00:00</time></trkpt><trkpt lat="20.955982" lon="107.050224"><ele>5.9</ele><time>2011-04-30T11:51:03.0000000+00:00</time></trkpt><trkpt lat="20.955982" lon="107.050232"><ele>5.9</ele><time>2011-04-30T11:51:08.0000000+00:00</time></trkpt><trkpt lat="20.955982" lon="107.050232"><ele>5.9</ele><time>2011-04-30T11:51:13.0000000+00:00</time></trkpt><trkpt lat="20.955982" lon="107.050232"><ele>5.9</ele><time>2011-04-30T11:51:18.0000000+00:00</time></trkpt><trkpt lat="20.955982" lon="107.050232"><ele>5.8</ele><time>2011-04-30T11:51:23.0000000+00:00</time></trkpt><trkpt lat="20.955982" lon="107.050232"><ele>5.8</ele><time>2011-04-30T11:51:28.0000000+00:00</time></trkpt><trkpt lat="20.955982" lon="107.050232"><ele>5.8</ele><time>2011-04-30T11:51:33.0000000+00:00</time></trkpt><trkpt lat="20.955982" lon="107.050232"><ele>5.8</ele><time>2011-04-30T11:51:38.0000000+00:00</time></trkpt><trkpt lat="20.955982" lon="107.050232"><ele>5.8</ele><time>2011-04-30T11:51:43.0000000+00:00</time></trkpt><trkpt lat="20.955982" lon="107.050232"><ele>5.8</ele><time>2011-04-30T11:51:48.0000000+00:00</time></trkpt><trkpt lat="20.955982" lon="107.050232"><ele>5.7</ele><time>2011-04-30T11:51:53.0000000+00:00</time></trkpt><trkpt lat="20.955982" lon="107.050232"><ele>5.7</ele><time>2011-04-30T11:51:58.0000000+00:00</time></trkpt><trkpt lat="20.955982" lon="107.050232"><ele>5.6</ele><time>2011-04-30T11:52:03.0000000+00:00</time></trkpt><trkpt lat="20.955982" lon="107.050232"><ele>5.6</ele><time>2011-04-30T11:52:08.0000000+00:00</time></trkpt><trkpt lat="20.955982" lon="107.050232"><ele>5.6</ele><time>2011-04-30T11:52:13.0000000+00:00</time></trkpt><trkpt lat="20.955982" lon="107.050232"><ele>5.6</ele><time>2011-04-30T11:52:18.0000000+00:00</time></trkpt><trkpt lat="20.955982" lon="107.050232"><ele>5.6</ele><time>2011-04-30T11:52:23.0000000+00:00</time></trkpt><trkpt lat="20.955982" lon="107.050232"><ele>5.6</ele><time>2011-04-30T11:52:28.0000000+00:00</time></trkpt><trkpt lat="20.955982" lon="107.050232"><ele>5.6</ele><time>2011-04-30T11:52:33.0000000+00:00</time></trkpt><trkpt lat="20.955982" lon="107.050232"><ele>5.6</ele><time>2011-04-30T11:52:38.0000000+00:00</time></trkpt><trkpt lat="20.955982" lon="107.050232"><ele>5.6</ele><time>2011-04-30T11:52:43.0000000+00:00</time></trkpt><trkpt lat="20.955982" lon="107.050232"><ele>5.6</ele><time>2011-04-30T11:52:48.0000000+00:00</time></trkpt><trkpt lat="20.955982" lon="107.050232"><ele>5.6</ele><time>2011-04-30T11:52:53.0000000+00:00</time></trkpt><trkpt lat="20.955982" lon="107.050232"><ele>5.6</ele><time>2011-04-30T11:52:58.0000000+00:00</time></trkpt><trkpt lat="20.955982" lon="107.050232"><ele>5.6</ele><time>2011-04-30T11:53:03.0000000+00:00</time></trkpt><trkpt lat="20.955982" lon="107.050232"><ele>5.5</ele><time>2011-04-30T11:53:08.0000000+00:00</time></trkpt><trkpt lat="20.955982" lon="107.050232"><ele>5.5</ele><time>2011-04-30T11:53:13.0000000+00:00</time></trkpt><trkpt lat="20.955982" lon="107.050232"><ele>5.5</ele><time>2011-04-30T11:53:18.0000000+00:00</time></trkpt><trkpt lat="20.955982" lon="107.050232"><ele>5.5</ele><time>2011-04-30T11:53:23.0000000+00:00</time></trkpt><trkpt lat="20.95598" lon="107.050232"><ele>5.5</ele><time>2011-04-30T11:53:28.0000000+00:00</time></trkpt><trkpt lat="20.95598" lon="107.050232"><ele>5.4</ele><time>2011-04-30T11:53:33.0000000+00:00</time></trkpt><trkpt lat="20.95598" lon="107.050232"><ele>5.4</ele><time>2011-04-30T11:53:38.0000000+00:00</time></trkpt><trkpt lat="20.95598" lon="107.050232"><ele>5.4</ele><time>2011-04-30T11:53:43.0000000+00:00</time></trkpt><trkpt lat="20.95598" lon="107.050232"><ele>5.3</ele><time>2011-04-30T11:53:48.0000000+00:00</time></trkpt><trkpt lat="20.95598" lon="107.050232"><ele>5.3</ele><time>2011-04-30T11:53:53.0000000+00:00</time></trkpt><trkpt lat="20.95598" lon="107.050232"><ele>5.3</ele><time>2011-04-30T11:53:58.0000000+00:00</time></trkpt><trkpt lat="20.95598" lon="107.050232"><ele>5.2</ele><time>2011-04-30T11:54:03.0000000+00:00</time></trkpt><trkpt lat="20.95598" lon="107.050232"><ele>5.2</ele><time>2011-04-30T11:54:08.0000000+00:00</time></trkpt><trkpt lat="20.95598" lon="107.050232"><ele>5.2</ele><time>2011-04-30T11:54:13.0000000+00:00</time></trkpt><trkpt lat="20.95598" lon="107.050232"><ele>5.2</ele><time>2011-04-30T11:54:18.0000000+00:00</time></trkpt><trkpt lat="20.95598" lon="107.050232"><ele>5.1</ele><time>2011-04-30T11:54:23.0000000+00:00</time></trkpt><trkpt lat="20.95598" lon="107.050232"><ele>5.2</ele><time>2011-04-30T11:54:28.0000000+00:00</time></trkpt><trkpt lat="20.95598" lon="107.050232"><ele>5.2</ele><time>2011-04-30T11:54:33.0000000+00:00</time></trkpt><trkpt lat="20.95598" lon="107.050232"><ele>5.2</ele><time>2011-04-30T11:54:38.0000000+00:00</time></trkpt><trkpt lat="20.955978" lon="107.050232"><ele>5.2</ele><time>2011-04-30T11:54:43.0000000+00:00</time></trkpt><trkpt lat="20.95598" lon="107.050232"><ele>5.2</ele><time>2011-04-30T11:54:48.0000000+00:00</time></trkpt><trkpt lat="20.955975" lon="107.050224"><ele>5.1</ele><time>2011-04-30T11:54:53.0000000+00:00</time></trkpt><trkpt lat="20.955971" lon="107.050217"><ele>5.1</ele><time>2011-04-30T11:54:58.0000000+00:00</time></trkpt><trkpt lat="20.955967" lon="107.050209"><ele>5.1</ele><time>2011-04-30T11:55:03.0000000+00:00</time></trkpt><trkpt lat="20.955965" lon="107.050209"><ele>5.1</ele><time>2011-04-30T11:55:08.0000000+00:00</time></trkpt><trkpt lat="20.955963" lon="107.050201"><ele>5.2</ele><time>2011-04-30T11:55:13.0000000+00:00</time></trkpt><trkpt lat="20.955963" lon="107.050209"><ele>5.2</ele><time>2011-04-30T11:55:18.0000000+00:00</time></trkpt><trkpt lat="20.955963" lon="107.050209"><ele>5.2</ele><time>2011-04-30T11:55:23.0000000+00:00</time></trkpt><trkpt lat="20.955963" lon="107.050224"><ele>5.1</ele><time>2011-04-30T11:55:28.0000000+00:00</time></trkpt><trkpt lat="20.955961" lon="107.050232"><ele>4.7</ele><time>2011-04-30T11:55:33.0000000+00:00</time></trkpt><trkpt lat="20.955954" lon="107.05024"><ele>4.2</ele><time>2011-04-30T11:55:38.0000000+00:00</time></trkpt><trkpt lat="20.955948" lon="107.05024"><ele>3.7</ele><time>2011-04-30T11:55:43.0000000+00:00</time></trkpt><trkpt lat="20.955946" lon="107.05024"><ele>3.3</ele><time>2011-04-30T11:55:48.0000000+00:00</time></trkpt><trkpt lat="20.955946" lon="107.05024"><ele>3.0</ele><time>2011-04-30T11:55:53.0000000+00:00</time></trkpt><trkpt lat="20.955948" lon="107.050247"><ele>2.9</ele><time>2011-04-30T11:55:58.0000000+00:00</time></trkpt><trkpt lat="20.955948" lon="107.050247"><ele>2.9</ele><time>2011-04-30T11:56:03.0000000+00:00</time></trkpt><trkpt lat="20.955946" lon="107.050247"><ele>3.0</ele><time>2011-04-30T11:56:08.0000000+00:00</time></trkpt><trkpt lat="20.955948" lon="107.050247"><ele>2.9</ele><time>2011-04-30T11:56:13.0000000+00:00</time></trkpt><trkpt lat="20.955948" lon="107.050247"><ele>2.9</ele><time>2011-04-30T11:56:18.0000000+00:00</time></trkpt><trkpt lat="20.955948" lon="107.050247"><ele>2.9</ele><time>2011-04-30T11:56:23.0000000+00:00</time></trkpt><trkpt lat="20.955948" lon="107.050247"><ele>2.9</ele><time>2011-04-30T11:56:28.0000000+00:00</time></trkpt><trkpt lat="20.955948" lon="107.050247"><ele>2.9</ele><time>2011-04-30T11:56:33.0000000+00:00</time></trkpt><trkpt lat="20.955948" lon="107.050247"><ele>2.9</ele><time>2011-04-30T11:56:38.0000000+00:00</time></trkpt><trkpt lat="20.955948" lon="107.050247"><ele>2.9</ele><time>2011-04-30T11:56:43.0000000+00:00</time></trkpt><trkpt lat="20.955948" lon="107.050247"><ele>2.8</ele><time>2011-04-30T11:56:48.0000000+00:00</time></trkpt><trkpt lat="20.955948" lon="107.050247"><ele>2.8</ele><time>2011-04-30T11:56:53.0000000+00:00</time></trkpt><trkpt lat="20.955946" lon="107.050255"><ele>2.8</ele><time>2011-04-30T11:56:58.0000000+00:00</time></trkpt><trkpt lat="20.955948" lon="107.050255"><ele>2.8</ele><time>2011-04-30T11:57:03.0000000+00:00</time></trkpt><trkpt lat="20.955948" lon="107.050255"><ele>2.8</ele><time>2011-04-30T11:57:08.0000000+00:00</time></trkpt><trkpt lat="20.955948" lon="107.050255"><ele>2.8</ele><time>2011-04-30T11:57:13.0000000+00:00</time></trkpt><trkpt lat="20.955948" lon="107.050255"><ele>2.8</ele><time>2011-04-30T11:57:18.0000000+00:00</time></trkpt><trkpt lat="20.955948" lon="107.050255"><ele>2.8</ele><time>2011-04-30T11:57:23.0000000+00:00</time></trkpt><trkpt lat="20.95595" lon="107.050255"><ele>2.8</ele><time>2011-04-30T11:57:28.0000000+00:00</time></trkpt><trkpt lat="20.95595" lon="107.050255"><ele>2.8</ele><time>2011-04-30T11:57:33.0000000+00:00</time></trkpt><trkpt lat="20.95595" lon="107.050255"><ele>2.8</ele><time>2011-04-30T11:57:38.0000000+00:00</time></trkpt><trkpt lat="20.95595" lon="107.050255"><ele>2.8</ele><time>2011-04-30T11:57:43.0000000+00:00</time></trkpt><trkpt lat="20.95595" lon="107.050255"><ele>2.7</ele><time>2011-04-30T11:57:48.0000000+00:00</time></trkpt><trkpt lat="20.95595" lon="107.050255"><ele>2.7</ele><time>2011-04-30T11:57:53.0000000+00:00</time></trkpt><trkpt lat="20.95595" lon="107.050255"><ele>2.7</ele><time>2011-04-30T11:57:58.0000000+00:00</time></trkpt><trkpt lat="20.95595" lon="107.050255"><ele>2.7</ele><time>2011-04-30T11:58:03.0000000+00:00</time></trkpt><trkpt lat="20.95595" lon="107.050255"><ele>2.7</ele><time>2011-04-30T11:58:08.0000000+00:00</time></trkpt><trkpt lat="20.95595" lon="107.050255"><ele>2.7</ele><time>2011-04-30T11:58:13.0000000+00:00</time></trkpt><trkpt lat="20.95595" lon="107.050255"><ele>2.7</ele><time>2011-04-30T11:58:18.0000000+00:00</time></trkpt><trkpt lat="20.955952" lon="107.050255"><ele>2.7</ele><time>2011-04-30T11:58:23.0000000+00:00</time></trkpt><trkpt lat="20.955952" lon="107.050255"><ele>2.7</ele><time>2011-04-30T11:58:28.0000000+00:00</time></trkpt><trkpt lat="20.955952" lon="107.050255"><ele>2.7</ele><time>2011-04-30T11:58:33.0000000+00:00</time></trkpt><trkpt lat="20.955952" lon="107.050255"><ele>2.7</ele><time>2011-04-30T11:58:38.0000000+00:00</time></trkpt><trkpt lat="20.955952" lon="107.050255"><ele>2.7</ele><time>2011-04-30T11:58:43.0000000+00:00</time></trkpt><trkpt lat="20.955952" lon="107.050255"><ele>2.6</ele><time>2011-04-30T11:58:48.0000000+00:00</time></trkpt><trkpt lat="20.955952" lon="107.050255"><ele>2.6</ele><time>2011-04-30T11:58:53.0000000+00:00</time></trkpt><trkpt lat="20.955952" lon="107.050255"><ele>2.5</ele><time>2011-04-30T11:58:58.0000000+00:00</time></trkpt><trkpt lat="20.955952" lon="107.050255"><ele>2.5</ele><time>2011-04-30T11:59:03.0000000+00:00</time></trkpt><trkpt lat="20.955952" lon="107.050255"><ele>2.5</ele><time>2011-04-30T11:59:08.0000000+00:00</time></trkpt><trkpt lat="20.955952" lon="107.050255"><ele>2.4</ele><time>2011-04-30T11:59:13.0000000+00:00</time></trkpt><trkpt lat="20.955952" lon="107.050255"><ele>2.4</ele><time>2011-04-30T11:59:18.0000000+00:00</time></trkpt><trkpt lat="20.955952" lon="107.050255"><ele>2.4</ele><time>2011-04-30T11:59:23.0000000+00:00</time></trkpt><trkpt lat="20.955952" lon="107.050255"><ele>2.4</ele><time>2011-04-30T11:59:28.0000000+00:00</time></trkpt><trkpt lat="20.955952" lon="107.050255"><ele>2.4</ele><time>2011-04-30T11:59:33.0000000+00:00</time></trkpt><trkpt lat="20.955952" lon="107.050255"><ele>2.4</ele><time>2011-04-30T11:59:38.0000000+00:00</time></trkpt><trkpt lat="20.955952" lon="107.050255"><ele>2.4</ele><time>2011-04-30T11:59:43.0000000+00:00</time></trkpt><trkpt lat="20.95595" lon="107.050255"><ele>2.4</ele><time>2011-04-30T11:59:48.0000000+00:00</time></trkpt><trkpt lat="20.95595" lon="107.050255"><ele>2.4</ele><time>2011-04-30T11:59:53.0000000+00:00</time></trkpt><trkpt lat="20.95595" lon="107.050255"><ele>2.3</ele><time>2011-04-30T11:59:58.0000000+00:00</time></trkpt><trkpt lat="20.95595" lon="107.050255"><ele>2.3</ele><time>2011-04-30T12:00:03.0000000+00:00</time></trkpt><trkpt lat="20.95595" lon="107.050255"><ele>2.3</ele><time>2011-04-30T12:00:08.0000000+00:00</time></trkpt><trkpt lat="20.95595" lon="107.050255"><ele>2.3</ele><time>2011-04-30T12:00:13.0000000+00:00</time></trkpt><trkpt lat="20.95595" lon="107.050255"><ele>2.3</ele><time>2011-04-30T12:00:18.0000000+00:00</time></trkpt><trkpt lat="20.95595" lon="107.050255"><ele>2.3</ele><time>2011-04-30T12:00:23.0000000+00:00</time></trkpt><trkpt lat="20.95595" lon="107.050255"><ele>2.3</ele><time>2011-04-30T12:00:28.0000000+00:00</time></trkpt><trkpt lat="20.95595" lon="107.050255"><ele>2.2</ele><time>2011-04-30T12:00:33.0000000+00:00</time></trkpt><trkpt lat="20.95595" lon="107.050255"><ele>2.2</ele><time>2011-04-30T12:00:38.0000000+00:00</time></trkpt><trkpt lat="20.95595" lon="107.050255"><ele>2.2</ele><time>2011-04-30T12:00:43.0000000+00:00</time></trkpt><trkpt lat="20.95595" lon="107.050255"><ele>2.1</ele><time>2011-04-30T12:00:48.0000000+00:00</time></trkpt><trkpt lat="20.95595" lon="107.050255"><ele>2.1</ele><time>2011-04-30T12:00:53.0000000+00:00</time></trkpt><trkpt lat="20.95595" lon="107.050255"><ele>2.1</ele><time>2011-04-30T12:00:58.0000000+00:00</time></trkpt><trkpt lat="20.95595" lon="107.050255"><ele>2.1</ele><time>2011-04-30T12:01:03.0000000+00:00</time></trkpt><trkpt lat="20.95595" lon="107.050255"><ele>2.1</ele><time>2011-04-30T12:01:08.0000000+00:00</time></trkpt><trkpt lat="20.95595" lon="107.050255"><ele>2.1</ele><time>2011-04-30T12:01:13.0000000+00:00</time></trkpt><trkpt lat="20.955948" lon="107.050255"><ele>2.0</ele><time>2011-04-30T12:01:18.0000000+00:00</time></trkpt><trkpt lat="20.955948" lon="107.050255"><ele>2.0</ele><time>2011-04-30T12:01:23.0000000+00:00</time></trkpt><trkpt lat="20.955948" lon="107.050255"><ele>2.0</ele><time>2011-04-30T12:01:28.0000000+00:00</time></trkpt><trkpt lat="20.955948" lon="107.050255"><ele>2.0</ele><time>2011-04-30T12:01:33.0000000+00:00</time></trkpt><trkpt lat="20.955948" lon="107.050255"><ele>2.0</ele><time>2011-04-30T12:01:38.0000000+00:00</time></trkpt><trkpt lat="20.955948" lon="107.050255"><ele>2.0</ele><time>2011-04-30T12:01:43.0000000+00:00</time></trkpt><trkpt lat="20.955948" lon="107.050255"><ele>2.0</ele><time>2011-04-30T12:01:48.0000000+00:00</time></trkpt><trkpt lat="20.955948" lon="107.050255"><ele>2.0</ele><time>2011-04-30T12:01:53.0000000+00:00</time></trkpt><trkpt lat="20.955948" lon="107.050262"><ele>2.1</ele><time>2011-04-30T12:01:58.0000000+00:00</time></trkpt><trkpt lat="20.955946" lon="107.050262"><ele>2.1</ele><time>2011-04-30T12:02:03.0000000+00:00</time></trkpt><trkpt lat="20.955946" lon="107.050262"><ele>2.1</ele><time>2011-04-30T12:02:08.0000000+00:00</time></trkpt><trkpt lat="20.955946" lon="107.050262"><ele>2.1</ele><time>2011-04-30T12:02:13.0000000+00:00</time></trkpt><trkpt lat="20.955946" lon="107.050262"><ele>2.1</ele><time>2011-04-30T12:02:18.0000000+00:00</time></trkpt><trkpt lat="20.955944" lon="107.050262"><ele>2.1</ele><time>2011-04-30T12:02:23.0000000+00:00</time></trkpt><trkpt lat="20.955944" lon="107.050262"><ele>2.2</ele><time>2011-04-30T12:02:28.0000000+00:00</time></trkpt><trkpt lat="20.955944" lon="107.050262"><ele>2.2</ele><time>2011-04-30T12:02:33.0000000+00:00</time></trkpt><trkpt lat="20.955944" lon="107.050262"><ele>2.2</ele><time>2011-04-30T12:02:38.0000000+00:00</time></trkpt><trkpt lat="20.955944" lon="107.050262"><ele>2.2</ele><time>2011-04-30T12:02:43.0000000+00:00</time></trkpt><trkpt lat="20.955944" lon="107.050262"><ele>2.2</ele><time>2011-04-30T12:02:48.0000000+00:00</time></trkpt><trkpt lat="20.955944" lon="107.050262"><ele>2.2</ele><time>2011-04-30T12:02:53.0000000+00:00</time></trkpt><trkpt lat="20.955942" lon="107.050262"><ele>2.2</ele><time>2011-04-30T12:02:58.0000000+00:00</time></trkpt><trkpt lat="20.955942" lon="107.050262"><ele>2.2</ele><time>2011-04-30T12:03:03.0000000+00:00</time></trkpt><trkpt lat="20.955942" lon="107.050262"><ele>2.2</ele><time>2011-04-30T12:03:08.0000000+00:00</time></trkpt><trkpt lat="20.955942" lon="107.050262"><ele>2.3</ele><time>2011-04-30T12:03:13.0000000+00:00</time></trkpt><trkpt lat="20.955942" lon="107.050262"><ele>2.3</ele><time>2011-04-30T12:03:18.0000000+00:00</time></trkpt><trkpt lat="20.955942" lon="107.050262"><ele>2.3</ele><time>2011-04-30T12:03:23.0000000+00:00</time></trkpt><trkpt lat="20.955942" lon="107.050262"><ele>2.3</ele><time>2011-04-30T12:03:28.0000000+00:00</time></trkpt><trkpt lat="20.95594" lon="107.050262"><ele>2.3</ele><time>2011-04-30T12:03:33.0000000+00:00</time></trkpt><trkpt lat="20.95594" lon="107.050262"><ele>2.3</ele><time>2011-04-30T12:03:38.0000000+00:00</time></trkpt><trkpt lat="20.95594" lon="107.050262"><ele>2.3</ele><time>2011-04-30T12:03:43.0000000+00:00</time></trkpt><trkpt lat="20.95594" lon="107.050262"><ele>2.3</ele><time>2011-04-30T12:03:48.0000000+00:00</time></trkpt><trkpt lat="20.95594" lon="107.050262"><ele>2.2</ele><time>2011-04-30T12:03:53.0000000+00:00</time></trkpt><trkpt lat="20.95594" lon="107.05027"><ele>2.2</ele><time>2011-04-30T12:03:58.0000000+00:00</time></trkpt><trkpt lat="20.95594" lon="107.05027"><ele>2.2</ele><time>2011-04-30T12:04:03.0000000+00:00</time></trkpt><trkpt lat="20.95594" lon="107.05027"><ele>2.2</ele><time>2011-04-30T12:04:08.0000000+00:00</time></trkpt><trkpt lat="20.95594" lon="107.05027"><ele>2.2</ele><time>2011-04-30T12:04:13.0000000+00:00</time></trkpt><trkpt lat="20.955938" lon="107.05027"><ele>2.2</ele><time>2011-04-30T12:04:18.0000000+00:00</time></trkpt><trkpt lat="20.955938" lon="107.05027"><ele>2.1</ele><time>2011-04-30T12:04:23.0000000+00:00</time></trkpt><trkpt lat="20.955938" lon="107.05027"><ele>2.1</ele><time>2011-04-30T12:04:28.0000000+00:00</time></trkpt><trkpt lat="20.955938" lon="107.05027"><ele>2.1</ele><time>2011-04-30T12:04:33.0000000+00:00</time></trkpt><trkpt lat="20.955938" lon="107.05027"><ele>2.1</ele><time>2011-04-30T12:04:38.0000000+00:00</time></trkpt><trkpt lat="20.955938" lon="107.05027"><ele>2.1</ele><time>2011-04-30T12:04:43.0000000+00:00</time></trkpt><trkpt lat="20.955938" lon="107.05027"><ele>2.1</ele><time>2011-04-30T12:04:48.0000000+00:00</time></trkpt><trkpt lat="20.955938" lon="107.05027"><ele>2.1</ele><time>2011-04-30T12:04:53.0000000+00:00</time></trkpt><trkpt lat="20.955938" lon="107.05027"><ele>2.0</ele><time>2011-04-30T12:04:58.0000000+00:00</time></trkpt><trkpt lat="20.955938" lon="107.05027"><ele>2.0</ele><time>2011-04-30T12:05:03.0000000+00:00</time></trkpt><trkpt lat="20.955938" lon="107.05027"><ele>2.0</ele><time>2011-04-30T12:05:08.0000000+00:00</time></trkpt><trkpt lat="20.955938" lon="107.05027"><ele>2.0</ele><time>2011-04-30T12:05:13.0000000+00:00</time></trkpt><trkpt lat="20.955938" lon="107.05027"><ele>2.0</ele><time>2011-04-30T12:05:18.0000000+00:00</time></trkpt><trkpt lat="20.955938" lon="107.05027"><ele>2.0</ele><time>2011-04-30T12:05:23.0000000+00:00</time></trkpt><trkpt lat="20.955938" lon="107.05027"><ele>2.0</ele><time>2011-04-30T12:05:28.0000000+00:00</time></trkpt><trkpt lat="20.955938" lon="107.05027"><ele>2.0</ele><time>2011-04-30T12:05:33.0000000+00:00</time></trkpt><trkpt lat="20.955938" lon="107.05027"><ele>2.0</ele><time>2011-04-30T12:05:38.0000000+00:00</time></trkpt><trkpt lat="20.955938" lon="107.05027"><ele>1.9</ele><time>2011-04-30T12:05:43.0000000+00:00</time></trkpt><trkpt lat="20.955938" lon="107.05027"><ele>1.9</ele><time>2011-04-30T12:05:48.0000000+00:00</time></trkpt><trkpt lat="20.955938" lon="107.05027"><ele>1.9</ele><time>2011-04-30T12:05:53.0000000+00:00</time></trkpt><trkpt lat="20.95594" lon="107.05027"><ele>1.9</ele><time>2011-04-30T12:05:58.0000000+00:00</time></trkpt><trkpt lat="20.95594" lon="107.05027"><ele>1.9</ele><time>2011-04-30T12:06:03.0000000+00:00</time></trkpt><trkpt lat="20.95594" lon="107.05027"><ele>1.9</ele><time>2011-04-30T12:06:08.0000000+00:00</time></trkpt><trkpt lat="20.95594" lon="107.05027"><ele>1.9</ele><time>2011-04-30T12:06:13.0000000+00:00</time></trkpt><trkpt lat="20.95594" lon="107.05027"><ele>1.9</ele><time>2011-04-30T12:06:18.0000000+00:00</time></trkpt><trkpt lat="20.955938" lon="107.05027"><ele>1.9</ele><time>2011-04-30T12:06:23.0000000+00:00</time></trkpt><trkpt lat="20.955938" lon="107.05027"><ele>1.8</ele><time>2011-04-30T12:06:28.0000000+00:00</time></trkpt><trkpt lat="20.955938" lon="107.05027"><ele>1.8</ele><time>2011-04-30T12:06:33.0000000+00:00</time></trkpt><trkpt lat="20.955938" lon="107.05027"><ele>1.8</ele><time>2011-04-30T12:06:38.0000000+00:00</time></trkpt><trkpt lat="20.955938" lon="107.05027"><ele>1.8</ele><time>2011-04-30T12:06:43.0000000+00:00</time></trkpt><trkpt lat="20.955938" lon="107.05027"><ele>1.8</ele><time>2011-04-30T12:06:48.0000000+00:00</time></trkpt><trkpt lat="20.955938" lon="107.05027"><ele>1.8</ele><time>2011-04-30T12:06:53.0000000+00:00</time></trkpt><trkpt lat="20.955938" lon="107.05027"><ele>1.7</ele><time>2011-04-30T12:06:58.0000000+00:00</time></trkpt><trkpt lat="20.955938" lon="107.05027"><ele>1.7</ele><time>2011-04-30T12:07:03.0000000+00:00</time></trkpt><trkpt lat="20.955938" lon="107.05027"><ele>1.7</ele><time>2011-04-30T12:07:08.0000000+00:00</time></trkpt><trkpt lat="20.955936" lon="107.05027"><ele>1.7</ele><time>2011-04-30T12:07:13.0000000+00:00</time></trkpt><trkpt lat="20.955936" lon="107.05027"><ele>1.7</ele><time>2011-04-30T12:07:18.0000000+00:00</time></trkpt><trkpt lat="20.955936" lon="107.05027"><ele>1.7</ele><time>2011-04-30T12:07:23.0000000+00:00</time></trkpt><trkpt lat="20.955936" lon="107.05027"><ele>1.7</ele><time>2011-04-30T12:07:28.0000000+00:00</time></trkpt><trkpt lat="20.955936" lon="107.05027"><ele>1.7</ele><time>2011-04-30T12:07:33.0000000+00:00</time></trkpt><trkpt lat="20.955936" lon="107.05027"><ele>1.7</ele><time>2011-04-30T12:07:38.0000000+00:00</time></trkpt><trkpt lat="20.955936" lon="107.05027"><ele>1.6</ele><time>2011-04-30T12:07:43.0000000+00:00</time></trkpt><trkpt lat="20.955936" lon="107.05027"><ele>1.6</ele><time>2011-04-30T12:07:48.0000000+00:00</time></trkpt><trkpt lat="20.955936" lon="107.05027"><ele>1.6</ele><time>2011-04-30T12:07:53.0000000+00:00</time></trkpt><trkpt lat="20.955936" lon="107.05027"><ele>1.6</ele><time>2011-04-30T12:07:58.0000000+00:00</time></trkpt><trkpt lat="20.955936" lon="107.05027"><ele>1.5</ele><time>2011-04-30T12:08:03.0000000+00:00</time></trkpt><trkpt lat="20.955936" lon="107.05027"><ele>1.5</ele><time>2011-04-30T12:08:08.0000000+00:00</time></trkpt><trkpt lat="20.955936" lon="107.05027"><ele>1.5</ele><time>2011-04-30T12:08:13.0000000+00:00</time></trkpt><trkpt lat="20.955935" lon="107.05027"><ele>1.4</ele><time>2011-04-30T12:08:18.0000000+00:00</time></trkpt><trkpt lat="20.955935" lon="107.05027"><ele>1.4</ele><time>2011-04-30T12:08:23.0000000+00:00</time></trkpt><trkpt lat="20.955935" lon="107.05027"><ele>1.4</ele><time>2011-04-30T12:08:28.0000000+00:00</time></trkpt><trkpt lat="20.955935" lon="107.05027"><ele>1.3</ele><time>2011-04-30T12:08:33.0000000+00:00</time></trkpt><trkpt lat="20.955935" lon="107.05027"><ele>1.3</ele><time>2011-04-30T12:08:38.0000000+00:00</time></trkpt><trkpt lat="20.955935" lon="107.05027"><ele>1.3</ele><time>2011-04-30T12:08:43.0000000+00:00</time></trkpt><trkpt lat="20.955935" lon="107.05027"><ele>1.3</ele><time>2011-04-30T12:08:48.0000000+00:00</time></trkpt><trkpt lat="20.955933" lon="107.05027"><ele>1.3</ele><time>2011-04-30T12:08:53.0000000+00:00</time></trkpt><trkpt lat="20.955933" lon="107.05027"><ele>1.3</ele><time>2011-04-30T12:08:58.0000000+00:00</time></trkpt><trkpt lat="20.955933" lon="107.05027"><ele>1.4</ele><time>2011-04-30T12:09:03.0000000+00:00</time></trkpt><trkpt lat="20.955933" lon="107.05027"><ele>1.4</ele><time>2011-04-30T12:09:08.0000000+00:00</time></trkpt><trkpt lat="20.955933" lon="107.05027"><ele>1.4</ele><time>2011-04-30T12:09:13.0000000+00:00</time></trkpt><trkpt lat="20.955933" lon="107.050278"><ele>1.4</ele><time>2011-04-30T12:09:18.0000000+00:00</time></trkpt><trkpt lat="20.955933" lon="107.05027"><ele>1.5</ele><time>2011-04-30T12:09:23.0000000+00:00</time></trkpt><trkpt lat="20.955933" lon="107.05027"><ele>1.5</ele><time>2011-04-30T12:09:28.0000000+00:00</time></trkpt><trkpt lat="20.955933" lon="107.05027"><ele>1.5</ele><time>2011-04-30T12:09:33.0000000+00:00</time></trkpt><trkpt lat="20.955935" lon="107.05027"><ele>1.5</ele><time>2011-04-30T12:09:38.0000000+00:00</time></trkpt><trkpt lat="20.955935" lon="107.05027"><ele>1.5</ele><time>2011-04-30T12:09:43.0000000+00:00</time></trkpt><trkpt lat="20.955935" lon="107.05027"><ele>1.5</ele><time>2011-04-30T12:09:48.0000000+00:00</time></trkpt><trkpt lat="20.955935" lon="107.05027"><ele>1.5</ele><time>2011-04-30T12:09:53.0000000+00:00</time></trkpt><trkpt lat="20.955935" lon="107.05027"><ele>1.4</ele><time>2011-04-30T12:09:58.0000000+00:00</time></trkpt><trkpt lat="20.955935" lon="107.05027"><ele>1.3</ele><time>2011-04-30T12:10:03.0000000+00:00</time></trkpt><trkpt lat="20.955935" lon="107.05027"><ele>1.3</ele><time>2011-04-30T12:10:08.0000000+00:00</time></trkpt><trkpt lat="20.955935" lon="107.05027"><ele>1.3</ele><time>2011-04-30T12:10:13.0000000+00:00</time></trkpt><trkpt lat="20.955935" lon="107.05027"><ele>1.3</ele><time>2011-04-30T12:10:18.0000000+00:00</time></trkpt><trkpt lat="20.955935" lon="107.05027"><ele>1.3</ele><time>2011-04-30T12:10:23.0000000+00:00</time></trkpt><trkpt lat="20.955935" lon="107.05027"><ele>1.2</ele><time>2011-04-30T12:10:28.0000000+00:00</time></trkpt><trkpt lat="20.955935" lon="107.05027"><ele>1.2</ele><time>2011-04-30T12:10:33.0000000+00:00</time></trkpt><trkpt lat="20.955935" lon="107.05027"><ele>1.2</ele><time>2011-04-30T12:10:38.0000000+00:00</time></trkpt><trkpt lat="20.955935" lon="107.05027"><ele>1.2</ele><time>2011-04-30T12:10:43.0000000+00:00</time></trkpt><trkpt lat="20.955935" lon="107.05027"><ele>1.2</ele><time>2011-04-30T12:10:48.0000000+00:00</time></trkpt><trkpt lat="20.955935" lon="107.05027"><ele>1.2</ele><time>2011-04-30T12:10:53.0000000+00:00</time></trkpt><trkpt lat="20.955935" lon="107.05027"><ele>1.1</ele><time>2011-04-30T12:10:58.0000000+00:00</time></trkpt><trkpt lat="20.955935" lon="107.05027"><ele>1.1</ele><time>2011-04-30T12:11:03.0000000+00:00</time></trkpt><trkpt lat="20.955935" lon="107.05027"><ele>1.1</ele><time>2011-04-30T12:11:08.0000000+00:00</time></trkpt><trkpt lat="20.955935" lon="107.05027"><ele>1.1</ele><time>2011-04-30T12:11:13.0000000+00:00</time></trkpt><trkpt lat="20.955935" lon="107.05027"><ele>1.1</ele><time>2011-04-30T12:11:18.0000000+00:00</time></trkpt><trkpt lat="20.955935" lon="107.05027"><ele>1.1</ele><time>2011-04-30T12:11:23.0000000+00:00</time></trkpt><trkpt lat="20.955935" lon="107.05027"><ele>1.0</ele><time>2011-04-30T12:11:28.0000000+00:00</time></trkpt><trkpt lat="20.955935" lon="107.05027"><ele>1.0</ele><time>2011-04-30T12:11:33.0000000+00:00</time></trkpt><trkpt lat="20.955935" lon="107.05027"><ele>1.0</ele><time>2011-04-30T12:11:38.0000000+00:00</time></trkpt><trkpt lat="20.955935" lon="107.05027"><ele>0.9</ele><time>2011-04-30T12:11:43.0000000+00:00</time></trkpt><trkpt lat="20.955935" lon="107.05027"><ele>0.9</ele><time>2011-04-30T12:11:48.0000000+00:00</time></trkpt><trkpt lat="20.955935" lon="107.05027"><ele>0.9</ele><time>2011-04-30T12:11:53.0000000+00:00</time></trkpt><trkpt lat="20.955936" lon="107.05027"><ele>0.9</ele><time>2011-04-30T12:11:58.0000000+00:00</time></trkpt><trkpt lat="20.955936" lon="107.05027"><ele>0.9</ele><time>2011-04-30T12:12:03.0000000+00:00</time></trkpt><trkpt lat="20.955936" lon="107.05027"><ele>0.9</ele><time>2011-04-30T12:12:08.0000000+00:00</time></trkpt><trkpt lat="20.955936" lon="107.05027"><ele>0.8</ele><time>2011-04-30T12:12:13.0000000+00:00</time></trkpt><trkpt lat="20.955938" lon="107.05027"><ele>0.8</ele><time>2011-04-30T12:12:18.0000000+00:00</time></trkpt><trkpt lat="20.955938" lon="107.05027"><ele>0.8</ele><time>2011-04-30T12:12:23.0000000+00:00</time></trkpt><trkpt lat="20.955938" lon="107.05027"><ele>0.8</ele><time>2011-04-30T12:12:28.0000000+00:00</time></trkpt><trkpt lat="20.955938" lon="107.05027"><ele>0.8</ele><time>2011-04-30T12:12:33.0000000+00:00</time></trkpt><trkpt lat="20.955938" lon="107.05027"><ele>0.8</ele><time>2011-04-30T12:12:38.0000000+00:00</time></trkpt><trkpt lat="20.955938" lon="107.050262"><ele>0.8</ele><time>2011-04-30T12:12:43.0000000+00:00</time></trkpt><trkpt lat="20.955938" lon="107.050262"><ele>0.8</ele><time>2011-04-30T12:12:48.0000000+00:00</time></trkpt><trkpt lat="20.95594" lon="107.050262"><ele>0.7</ele><time>2011-04-30T12:12:53.0000000+00:00</time></trkpt><trkpt lat="20.95594" lon="107.050262"><ele>0.6</ele><time>2011-04-30T12:12:58.0000000+00:00</time></trkpt><trkpt lat="20.95594" lon="107.050262"><ele>0.6</ele><time>2011-04-30T12:13:03.0000000+00:00</time></trkpt><trkpt lat="20.95594" lon="107.050262"><ele>0.5</ele><time>2011-04-30T12:13:08.0000000+00:00</time></trkpt><trkpt lat="20.95594" lon="107.050262"><ele>0.5</ele><time>2011-04-30T12:13:13.0000000+00:00</time></trkpt><trkpt lat="20.95594" lon="107.050262"><ele>0.4</ele><time>2011-04-30T12:13:18.0000000+00:00</time></trkpt><trkpt lat="20.95594" lon="107.050262"><ele>0.4</ele><time>2011-04-30T12:13:23.0000000+00:00</time></trkpt><trkpt lat="20.95594" lon="107.050262"><ele>0.4</ele><time>2011-04-30T12:13:28.0000000+00:00</time></trkpt><trkpt lat="20.955938" lon="107.050262"><ele>0.4</ele><time>2011-04-30T12:13:33.0000000+00:00</time></trkpt><trkpt lat="20.95594" lon="107.050262"><ele>0.5</ele><time>2011-04-30T12:13:38.0000000+00:00</time></trkpt><trkpt lat="20.95594" lon="107.050262"><ele>0.5</ele><time>2011-04-30T12:13:43.0000000+00:00</time></trkpt><trkpt lat="20.95594" lon="107.050262"><ele>0.6</ele><time>2011-04-30T12:13:48.0000000+00:00</time></trkpt><trkpt lat="20.95594" lon="107.050262"><ele>0.6</ele><time>2011-04-30T12:13:53.0000000+00:00</time></trkpt><trkpt lat="20.95594" lon="107.050262"><ele>0.6</ele><time>2011-04-30T12:13:58.0000000+00:00</time></trkpt><trkpt lat="20.95594" lon="107.050262"><ele>0.6</ele><time>2011-04-30T12:14:03.0000000+00:00</time></trkpt><trkpt lat="20.95594" lon="107.050262"><ele>0.6</ele><time>2011-04-30T12:14:08.0000000+00:00</time></trkpt><trkpt lat="20.95594" lon="107.050262"><ele>0.6</ele><time>2011-04-30T12:14:13.0000000+00:00</time></trkpt><trkpt lat="20.95594" lon="107.050262"><ele>0.6</ele><time>2011-04-30T12:14:18.0000000+00:00</time></trkpt><trkpt lat="20.95594" lon="107.050262"><ele>0.6</ele><time>2011-04-30T12:14:23.0000000+00:00</time></trkpt><trkpt lat="20.955942" lon="107.050262"><ele>0.5</ele><time>2011-04-30T12:14:28.0000000+00:00</time></trkpt><trkpt lat="20.955942" lon="107.050262"><ele>0.5</ele><time>2011-04-30T12:14:33.0000000+00:00</time></trkpt><trkpt lat="20.955942" lon="107.050262"><ele>0.4</ele><time>2011-04-30T12:14:38.0000000+00:00</time></trkpt><trkpt lat="20.95594" lon="107.050262"><ele>0.4</ele><time>2011-04-30T12:14:43.0000000+00:00</time></trkpt><trkpt lat="20.95594" lon="107.050262"><ele>0.4</ele><time>2011-04-30T12:14:48.0000000+00:00</time></trkpt><trkpt lat="20.95594" lon="107.050262"><ele>0.3</ele><time>2011-04-30T12:14:53.0000000+00:00</time></trkpt><trkpt lat="20.95594" lon="107.050262"><ele>0.3</ele><time>2011-04-30T12:14:58.0000000+00:00</time></trkpt><trkpt lat="20.95594" lon="107.050262"><ele>0.3</ele><time>2011-04-30T12:15:03.0000000+00:00</time></trkpt><trkpt lat="20.955942" lon="107.050262"><ele>0.3</ele><time>2011-04-30T12:15:08.0000000+00:00</time></trkpt><trkpt lat="20.955942" lon="107.050262"><ele>0.3</ele><time>2011-04-30T12:15:13.0000000+00:00</time></trkpt><trkpt lat="20.955942" lon="107.050262"><ele>0.3</ele><time>2011-04-30T12:15:18.0000000+00:00</time></trkpt><trkpt lat="20.955942" lon="107.050262"><ele>0.3</ele><time>2011-04-30T12:15:23.0000000+00:00</time></trkpt><trkpt lat="20.955942" lon="107.050262"><ele>0.3</ele><time>2011-04-30T12:15:28.0000000+00:00</time></trkpt><trkpt lat="20.955942" lon="107.050262"><ele>0.3</ele><time>2011-04-30T12:15:33.0000000+00:00</time></trkpt><trkpt lat="20.955942" lon="107.050262"><ele>0.4</ele><time>2011-04-30T12:15:38.0000000+00:00</time></trkpt><trkpt lat="20.955942" lon="107.050262"><ele>0.4</ele><time>2011-04-30T12:15:43.0000000+00:00</time></trkpt><trkpt lat="20.955942" lon="107.050262"><ele>0.3</ele><time>2011-04-30T12:15:48.0000000+00:00</time></trkpt><trkpt lat="20.955946" lon="107.050262"><ele>0.3</ele><time>2011-04-30T12:15:53.0000000+00:00</time></trkpt><trkpt lat="20.955948" lon="107.050262"><ele>0.3</ele><time>2011-04-30T12:15:58.0000000+00:00</time></trkpt><trkpt lat="20.95595" lon="107.050262"><ele>0.3</ele><time>2011-04-30T12:16:03.0000000+00:00</time></trkpt><trkpt lat="20.95595" lon="107.050262"><ele>0.3</ele><time>2011-04-30T12:16:08.0000000+00:00</time></trkpt><trkpt lat="20.95595" lon="107.050262"><ele>0.3</ele><time>2011-04-30T12:16:13.0000000+00:00</time></trkpt><trkpt lat="20.95595" lon="107.050262"><ele>0.4</ele><time>2011-04-30T12:16:18.0000000+00:00</time></trkpt><trkpt lat="20.955952" lon="107.050262"><ele>0.4</ele><time>2011-04-30T12:16:23.0000000+00:00</time></trkpt><trkpt lat="20.955952" lon="107.050262"><ele>0.4</ele><time>2011-04-30T12:16:28.0000000+00:00</time></trkpt><trkpt lat="20.955952" lon="107.050262"><ele>0.4</ele><time>2011-04-30T12:16:33.0000000+00:00</time></trkpt><trkpt lat="20.955952" lon="107.050262"><ele>0.4</ele><time>2011-04-30T12:16:38.0000000+00:00</time></trkpt><trkpt lat="20.955952" lon="107.050262"><ele>0.4</ele><time>2011-04-30T12:16:43.0000000+00:00</time></trkpt><trkpt lat="20.955952" lon="107.050262"><ele>0.4</ele><time>2011-04-30T12:16:48.0000000+00:00</time></trkpt><trkpt lat="20.955952" lon="107.050262"><ele>0.4</ele><time>2011-04-30T12:16:53.0000000+00:00</time></trkpt><trkpt lat="20.955954" lon="107.050262"><ele>0.4</ele><time>2011-04-30T12:16:58.0000000+00:00</time></trkpt><trkpt lat="20.955954" lon="107.050262"><ele>0.4</ele><time>2011-04-30T12:17:03.0000000+00:00</time></trkpt><trkpt lat="20.955954" lon="107.050262"><ele>0.5</ele><time>2011-04-30T12:17:08.0000000+00:00</time></trkpt><trkpt lat="20.955954" lon="107.050262"><ele>0.5</ele><time>2011-04-30T12:17:13.0000000+00:00</time></trkpt><trkpt lat="20.955954" lon="107.050262"><ele>0.5</ele><time>2011-04-30T12:17:18.0000000+00:00</time></trkpt><trkpt lat="20.955954" lon="107.050262"><ele>0.5</ele><time>2011-04-30T12:17:23.0000000+00:00</time></trkpt><trkpt lat="20.955954" lon="107.050262"><ele>0.5</ele><time>2011-04-30T12:17:28.0000000+00:00</time></trkpt><trkpt lat="20.955954" lon="107.050262"><ele>0.5</ele><time>2011-04-30T12:17:33.0000000+00:00</time></trkpt><trkpt lat="20.955954" lon="107.050262"><ele>0.5</ele><time>2011-04-30T12:17:38.0000000+00:00</time></trkpt><trkpt lat="20.955954" lon="107.050262"><ele>0.5</ele><time>2011-04-30T12:17:43.0000000+00:00</time></trkpt><trkpt lat="20.955954" lon="107.050262"><ele>0.5</ele><time>2011-04-30T12:17:48.0000000+00:00</time></trkpt><trkpt lat="20.955954" lon="107.050262"><ele>0.5</ele><time>2011-04-30T12:17:53.0000000+00:00</time></trkpt><trkpt lat="20.955954" lon="107.050262"><ele>0.6</ele><time>2011-04-30T12:17:58.0000000+00:00</time></trkpt><trkpt lat="20.955954" lon="107.050262"><ele>0.6</ele><time>2011-04-30T12:18:03.0000000+00:00</time></trkpt><trkpt lat="20.955954" lon="107.050262"><ele>0.6</ele><time>2011-04-30T12:18:08.0000000+00:00</time></trkpt><trkpt lat="20.955956" lon="107.050262"><ele>0.8</ele><time>2011-04-30T12:18:13.0000000+00:00</time></trkpt><trkpt lat="20.955956" lon="107.050262"><ele>0.8</ele><time>2011-04-30T12:18:18.0000000+00:00</time></trkpt><trkpt lat="20.955956" lon="107.050262"><ele>0.8</ele><time>2011-04-30T12:18:23.0000000+00:00</time></trkpt><trkpt lat="20.955956" lon="107.050262"><ele>0.8</ele><time>2011-04-30T12:18:28.0000000+00:00</time></trkpt><trkpt lat="20.955956" lon="107.050262"><ele>0.8</ele><time>2011-04-30T12:18:33.0000000+00:00</time></trkpt><trkpt lat="20.955957" lon="107.050262"><ele>0.9</ele><time>2011-04-30T12:18:38.0000000+00:00</time></trkpt><trkpt lat="20.955957" lon="107.050262"><ele>0.9</ele><time>2011-04-30T12:18:43.0000000+00:00</time></trkpt><trkpt lat="20.955957" lon="107.050262"><ele>0.9</ele><time>2011-04-30T12:18:48.0000000+00:00</time></trkpt><trkpt lat="20.955959" lon="107.050262"><ele>0.9</ele><time>2011-04-30T12:18:53.0000000+00:00</time></trkpt><trkpt lat="20.955961" lon="107.050255"><ele>1.0</ele><time>2011-04-30T12:18:58.0000000+00:00</time></trkpt><trkpt lat="20.955961" lon="107.050255"><ele>1.1</ele><time>2011-04-30T12:19:03.0000000+00:00</time></trkpt><trkpt lat="20.955961" lon="107.050255"><ele>1.1</ele><time>2011-04-30T12:19:08.0000000+00:00</time></trkpt><trkpt lat="20.955961" lon="107.050255"><ele>1.1</ele><time>2011-04-30T12:19:13.0000000+00:00</time></trkpt><trkpt lat="20.955975" lon="107.05024"><ele>3.6</ele><time>2011-04-30T12:19:18.0000000+00:00</time></trkpt><trkpt lat="20.95598" lon="107.050232"><ele>3.2</ele><time>2011-04-30T12:19:23.0000000+00:00</time></trkpt><trkpt lat="20.95598" lon="107.050232"><ele>3.3</ele><time>2011-04-30T12:19:28.0000000+00:00</time></trkpt><trkpt lat="20.95598" lon="107.050232"><ele>3.3</ele><time>2011-04-30T12:19:33.0000000+00:00</time></trkpt><trkpt lat="20.95598" lon="107.050232"><ele>3.2</ele><time>2011-04-30T12:19:38.0000000+00:00</time></trkpt><trkpt lat="20.95598" lon="107.050232"><ele>3.2</ele><time>2011-04-30T12:19:43.0000000+00:00</time></trkpt><trkpt lat="20.95598" lon="107.050232"><ele>3.2</ele><time>2011-04-30T12:19:48.0000000+00:00</time></trkpt><trkpt lat="20.955982" lon="107.050232"><ele>3.2</ele><time>2011-04-30T12:19:53.0000000+00:00</time></trkpt><trkpt lat="20.955982" lon="107.050232"><ele>3.1</ele><time>2011-04-30T12:19:58.0000000+00:00</time></trkpt><trkpt lat="20.955982" lon="107.050232"><ele>3.1</ele><time>2011-04-30T12:20:03.0000000+00:00</time></trkpt><trkpt lat="20.955982" lon="107.050232"><ele>3.2</ele><time>2011-04-30T12:20:08.0000000+00:00</time></trkpt><trkpt lat="20.955982" lon="107.050232"><ele>3.2</ele><time>2011-04-30T12:20:13.0000000+00:00</time></trkpt><trkpt lat="20.955982" lon="107.050232"><ele>3.2</ele><time>2011-04-30T12:20:18.0000000+00:00</time></trkpt><trkpt lat="20.955986" lon="107.050232"><ele>3.0</ele><time>2011-04-30T12:20:23.0000000+00:00</time></trkpt><trkpt lat="20.956015" lon="107.050209"><ele>3.1</ele><time>2011-04-30T12:20:28.0000000+00:00</time></trkpt><trkpt lat="20.956026" lon="107.050179"><ele>5.0</ele><time>2011-04-30T12:20:33.0000000+00:00</time></trkpt><trkpt lat="20.95603" lon="107.050179"><ele>5.4</ele><time>2011-04-30T12:20:38.0000000+00:00</time></trkpt><trkpt lat="20.956038" lon="107.050156"><ele>5.7</ele><time>2011-04-30T12:20:43.0000000+00:00</time></trkpt><trkpt lat="20.956039" lon="107.050148"><ele>4.6</ele><time>2011-04-30T12:20:48.0000000+00:00</time></trkpt><trkpt lat="20.956068" lon="107.050133"><ele>4.7</ele><time>2011-04-30T12:20:53.0000000+00:00</time></trkpt><trkpt lat="20.956072" lon="107.050125"><ele>4.8</ele><time>2011-04-30T12:20:58.0000000+00:00</time></trkpt><trkpt lat="20.956074" lon="107.050102"><ele>4.6</ele><time>2011-04-30T12:21:03.0000000+00:00</time></trkpt><trkpt lat="20.956066" lon="107.050072"><ele>4.2</ele><time>2011-04-30T12:21:08.0000000+00:00</time></trkpt><trkpt lat="20.956064" lon="107.050026"><ele>3.6</ele><time>2011-04-30T12:21:13.0000000+00:00</time></trkpt><trkpt lat="20.95606" lon="107.04998"><ele>4.7</ele><time>2011-04-30T12:21:18.0000000+00:00</time></trkpt><trkpt lat="20.956045" lon="107.049934"><ele>5.8</ele><time>2011-04-30T12:21:23.0000000+00:00</time></trkpt><trkpt lat="20.95603" lon="107.049889"><ele>6.6</ele><time>2011-04-30T12:21:28.0000000+00:00</time></trkpt><trkpt lat="20.955994" lon="107.04985"><ele>6.7</ele><time>2011-04-30T12:21:33.0000000+00:00</time></trkpt><trkpt lat="20.955982" lon="107.04982"><ele>7.6</ele><time>2011-04-30T12:21:38.0000000+00:00</time></trkpt><trkpt lat="20.95599" lon="107.049812"><ele>7.6</ele><time>2011-04-30T12:21:43.0000000+00:00</time></trkpt><trkpt lat="20.95599" lon="107.049812"><ele>7.8</ele><time>2011-04-30T12:21:48.0000000+00:00</time></trkpt><trkpt lat="20.955992" lon="107.049812"><ele>7.9</ele><time>2011-04-30T12:21:53.0000000+00:00</time></trkpt><trkpt lat="20.955992" lon="107.049812"><ele>7.9</ele><time>2011-04-30T12:21:58.0000000+00:00</time></trkpt><trkpt lat="20.955992" lon="107.049812"><ele>7.9</ele><time>2011-04-30T12:22:03.0000000+00:00</time></trkpt><trkpt lat="20.955967" lon="107.049835"><ele>7.7</ele><time>2011-04-30T12:22:08.0000000+00:00</time></trkpt><trkpt lat="20.95594" lon="107.04985"><ele>8.7</ele><time>2011-04-30T12:22:13.0000000+00:00</time></trkpt><trkpt lat="20.95591" lon="107.049889"><ele>10.4</ele><time>2011-04-30T12:22:18.0000000+00:00</time></trkpt><trkpt lat="20.955883" lon="107.049919"><ele>10.8</ele><time>2011-04-30T12:22:23.0000000+00:00</time></trkpt><trkpt lat="20.955875" lon="107.04995"><ele>10.6</ele><time>2011-04-30T12:22:28.0000000+00:00</time></trkpt><trkpt lat="20.955872" lon="107.04998"><ele>10.9</ele><time>2011-04-30T12:22:33.0000000+00:00</time></trkpt><trkpt lat="20.955868" lon="107.050011"><ele>11.5</ele><time>2011-04-30T12:22:38.0000000+00:00</time></trkpt><trkpt lat="20.955873" lon="107.050018"><ele>10.9</ele><time>2011-04-30T12:22:43.0000000+00:00</time></trkpt><trkpt lat="20.95587" lon="107.050018"><ele>10.8</ele><time>2011-04-30T12:22:48.0000000+00:00</time></trkpt><trkpt lat="20.955853" lon="107.050003"><ele>10.9</ele><time>2011-04-30T12:22:53.0000000+00:00</time></trkpt><trkpt lat="20.955837" lon="107.049995"><ele>10.7</ele><time>2011-04-30T12:22:58.0000000+00:00</time></trkpt><trkpt lat="20.955839" lon="107.049995"><ele>10.3</ele><time>2011-04-30T12:23:03.0000000+00:00</time></trkpt><trkpt lat="20.955847" lon="107.050003"><ele>9.4</ele><time>2011-04-30T12:23:08.0000000+00:00</time></trkpt><trkpt lat="20.955845" lon="107.050003"><ele>9.4</ele><time>2011-04-30T12:23:13.0000000+00:00</time></trkpt><trkpt lat="20.955864" lon="107.049995"><ele>9.7</ele><time>2011-04-30T12:23:18.0000000+00:00</time></trkpt><trkpt lat="20.95586" lon="107.04998"><ele>10.5</ele><time>2011-04-30T12:23:23.0000000+00:00</time></trkpt><trkpt lat="20.955866" lon="107.050003"><ele>11.0</ele><time>2011-04-30T12:23:28.0000000+00:00</time></trkpt><trkpt lat="20.955858" lon="107.050026"><ele>12.2</ele><time>2011-04-30T12:23:33.0000000+00:00</time></trkpt><trkpt lat="20.955854" lon="107.050026"><ele>12.7</ele><time>2011-04-30T12:23:38.0000000+00:00</time></trkpt><trkpt lat="20.955851" lon="107.049973"><ele>13.3</ele><time>2011-04-30T12:23:43.0000000+00:00</time></trkpt><trkpt lat="20.955843" lon="107.049942"><ele>14.2</ele><time>2011-04-30T12:23:48.0000000+00:00</time></trkpt><trkpt lat="20.955818" lon="107.049942"><ele>14.5</ele><time>2011-04-30T12:23:53.0000000+00:00</time></trkpt><trkpt lat="20.955809" lon="107.04995"><ele>13.6</ele><time>2011-04-30T12:23:58.0000000+00:00</time></trkpt><trkpt lat="20.955799" lon="107.04995"><ele>12.8</ele><time>2011-04-30T12:24:03.0000000+00:00</time></trkpt><trkpt lat="20.955795" lon="107.04995"><ele>12.8</ele><time>2011-04-30T12:24:08.0000000+00:00</time></trkpt><trkpt lat="20.955793" lon="107.04995"><ele>12.8</ele><time>2011-04-30T12:24:13.0000000+00:00</time></trkpt><trkpt lat="20.955793" lon="107.04995"><ele>12.8</ele><time>2011-04-30T12:24:18.0000000+00:00</time></trkpt><trkpt lat="20.955793" lon="107.04995"><ele>12.8</ele><time>2011-04-30T12:24:23.0000000+00:00</time></trkpt><trkpt lat="20.955793" lon="107.04995"><ele>12.8</ele><time>2011-04-30T12:24:28.0000000+00:00</time></trkpt><trkpt lat="20.955793" lon="107.04995"><ele>12.8</ele><time>2011-04-30T12:24:33.0000000+00:00</time></trkpt><trkpt lat="20.955793" lon="107.04995"><ele>12.8</ele><time>2011-04-30T12:24:38.0000000+00:00</time></trkpt><trkpt lat="20.955793" lon="107.04995"><ele>12.8</ele><time>2011-04-30T12:24:43.0000000+00:00</time></trkpt><trkpt lat="20.955793" lon="107.04995"><ele>12.8</ele><time>2011-04-30T12:24:48.0000000+00:00</time></trkpt><trkpt lat="20.955793" lon="107.04995"><ele>12.8</ele><time>2011-04-30T12:24:53.0000000+00:00</time></trkpt><trkpt lat="20.955791" lon="107.04995"><ele>12.8</ele><time>2011-04-30T12:24:58.0000000+00:00</time></trkpt><trkpt lat="20.955791" lon="107.04995"><ele>12.8</ele><time>2011-04-30T12:25:03.0000000+00:00</time></trkpt><trkpt lat="20.955791" lon="107.04995"><ele>12.8</ele><time>2011-04-30T12:25:08.0000000+00:00</time></trkpt><trkpt lat="20.955791" lon="107.04995"><ele>12.8</ele><time>2011-04-30T12:25:13.0000000+00:00</time></trkpt><trkpt lat="20.955791" lon="107.04995"><ele>12.8</ele><time>2011-04-30T12:25:18.0000000+00:00</time></trkpt><trkpt lat="20.955791" lon="107.04995"><ele>12.8</ele><time>2011-04-30T12:25:23.0000000+00:00</time></trkpt><trkpt lat="20.955791" lon="107.04995"><ele>12.8</ele><time>2011-04-30T12:25:28.0000000+00:00</time></trkpt><trkpt lat="20.955795" lon="107.04995"><ele>12.9</ele><time>2011-04-30T12:25:33.0000000+00:00</time></trkpt><trkpt lat="20.955797" lon="107.049942"><ele>13.0</ele><time>2011-04-30T12:25:38.0000000+00:00</time></trkpt><trkpt lat="20.955799" lon="107.049942"><ele>13.0</ele><time>2011-04-30T12:25:43.0000000+00:00</time></trkpt><trkpt lat="20.955801" lon="107.049942"><ele>13.0</ele><time>2011-04-30T12:25:48.0000000+00:00</time></trkpt><trkpt lat="20.955811" lon="107.049942"><ele>14.2</ele><time>2011-04-30T12:25:53.0000000+00:00</time></trkpt><trkpt lat="20.955824" lon="107.049965"><ele>15.1</ele><time>2011-04-30T12:25:58.0000000+00:00</time></trkpt><trkpt lat="20.95583" lon="107.04998"><ele>14.6</ele><time>2011-04-30T12:26:03.0000000+00:00</time></trkpt><trkpt lat="20.955832" lon="107.04998"><ele>13.5</ele><time>2011-04-30T12:26:08.0000000+00:00</time></trkpt><trkpt lat="20.95583" lon="107.04998"><ele>13.3</ele><time>2011-04-30T12:26:13.0000000+00:00</time></trkpt><trkpt lat="20.95583" lon="107.04998"><ele>13.1</ele><time>2011-04-30T12:26:18.0000000+00:00</time></trkpt><trkpt lat="20.95583" lon="107.04998"><ele>13.1</ele><time>2011-04-30T12:26:23.0000000+00:00</time></trkpt><trkpt lat="20.95583" lon="107.04998"><ele>13.1</ele><time>2011-04-30T12:26:28.0000000+00:00</time></trkpt><trkpt lat="20.955832" lon="107.04998"><ele>13.1</ele><time>2011-04-30T12:26:33.0000000+00:00</time></trkpt><trkpt lat="20.955832" lon="107.04998"><ele>13.1</ele><time>2011-04-30T12:26:38.0000000+00:00</time></trkpt><trkpt lat="20.955832" lon="107.04998"><ele>13.1</ele><time>2011-04-30T12:26:43.0000000+00:00</time></trkpt><trkpt lat="20.955832" lon="107.04998"><ele>13.1</ele><time>2011-04-30T12:26:48.0000000+00:00</time></trkpt><trkpt lat="20.95583" lon="107.04998"><ele>13.1</ele><time>2011-04-30T12:26:53.0000000+00:00</time></trkpt><trkpt lat="20.95583" lon="107.04998"><ele>13.1</ele><time>2011-04-30T12:26:58.0000000+00:00</time></trkpt><trkpt lat="20.95583" lon="107.04998"><ele>13.1</ele><time>2011-04-30T12:27:03.0000000+00:00</time></trkpt><trkpt lat="20.95583" lon="107.04998"><ele>13.0</ele><time>2011-04-30T12:27:08.0000000+00:00</time></trkpt><trkpt lat="20.95583" lon="107.04998"><ele>13.0</ele><time>2011-04-30T12:27:13.0000000+00:00</time></trkpt><trkpt lat="20.95583" lon="107.049988"><ele>13.0</ele><time>2011-04-30T12:27:18.0000000+00:00</time></trkpt><trkpt lat="20.95583" lon="107.049988"><ele>13.0</ele><time>2011-04-30T12:27:23.0000000+00:00</time></trkpt><trkpt lat="20.955828" lon="107.049988"><ele>12.9</ele><time>2011-04-30T12:27:28.0000000+00:00</time></trkpt><trkpt lat="20.955828" lon="107.049988"><ele>12.8</ele><time>2011-04-30T12:27:33.0000000+00:00</time></trkpt><trkpt lat="20.95583" lon="107.049988"><ele>12.8</ele><time>2011-04-30T12:27:38.0000000+00:00</time></trkpt><trkpt lat="20.95583" lon="107.049988"><ele>12.7</ele><time>2011-04-30T12:27:43.0000000+00:00</time></trkpt><trkpt lat="20.95583" lon="107.049988"><ele>12.7</ele><time>2011-04-30T12:27:48.0000000+00:00</time></trkpt><trkpt lat="20.95583" lon="107.049988"><ele>12.6</ele><time>2011-04-30T12:27:53.0000000+00:00</time></trkpt><trkpt lat="20.95583" lon="107.049988"><ele>12.6</ele><time>2011-04-30T12:27:58.0000000+00:00</time></trkpt><trkpt lat="20.95583" lon="107.049988"><ele>12.6</ele><time>2011-04-30T12:28:03.0000000+00:00</time></trkpt><trkpt lat="20.95583" lon="107.049988"><ele>12.6</ele><time>2011-04-30T12:28:08.0000000+00:00</time></trkpt><trkpt lat="20.95583" lon="107.049988"><ele>12.6</ele><time>2011-04-30T12:28:13.0000000+00:00</time></trkpt><trkpt lat="20.955832" lon="107.049988"><ele>12.6</ele><time>2011-04-30T12:28:18.0000000+00:00</time></trkpt><trkpt lat="20.955832" lon="107.049988"><ele>12.6</ele><time>2011-04-30T12:28:23.0000000+00:00</time></trkpt><trkpt lat="20.955833" lon="107.049988"><ele>12.6</ele><time>2011-04-30T12:28:28.0000000+00:00</time></trkpt><trkpt lat="20.955832" lon="107.04998"><ele>12.6</ele><time>2011-04-30T12:28:33.0000000+00:00</time></trkpt><trkpt lat="20.955832" lon="107.04998"><ele>12.5</ele><time>2011-04-30T12:28:38.0000000+00:00</time></trkpt><trkpt lat="20.955832" lon="107.04998"><ele>12.5</ele><time>2011-04-30T12:28:43.0000000+00:00</time></trkpt><trkpt lat="20.955832" lon="107.04998"><ele>12.5</ele><time>2011-04-30T12:28:48.0000000+00:00</time></trkpt><trkpt lat="20.955832" lon="107.04998"><ele>12.5</ele><time>2011-04-30T12:28:53.0000000+00:00</time></trkpt><trkpt lat="20.955832" lon="107.04998"><ele>12.5</ele><time>2011-04-30T12:28:58.0000000+00:00</time></trkpt><trkpt lat="20.955832" lon="107.04998"><ele>12.4</ele><time>2011-04-30T12:29:03.0000000+00:00</time></trkpt><trkpt lat="20.955832" lon="107.04998"><ele>12.4</ele><time>2011-04-30T12:29:08.0000000+00:00</time></trkpt><trkpt lat="20.955832" lon="107.04998"><ele>12.3</ele><time>2011-04-30T12:29:13.0000000+00:00</time></trkpt><trkpt lat="20.955832" lon="107.04998"><ele>12.2</ele><time>2011-04-30T12:29:18.0000000+00:00</time></trkpt><trkpt lat="20.955832" lon="107.04998"><ele>12.2</ele><time>2011-04-30T12:29:23.0000000+00:00</time></trkpt><trkpt lat="20.955832" lon="107.04998"><ele>12.2</ele><time>2011-04-30T12:29:28.0000000+00:00</time></trkpt><trkpt lat="20.955833" lon="107.04998"><ele>12.1</ele><time>2011-04-30T12:29:33.0000000+00:00</time></trkpt><trkpt lat="20.955833" lon="107.04998"><ele>12.0</ele><time>2011-04-30T12:29:38.0000000+00:00</time></trkpt><trkpt lat="20.955833" lon="107.04998"><ele>12.0</ele><time>2011-04-30T12:29:43.0000000+00:00</time></trkpt><trkpt lat="20.955833" lon="107.04998"><ele>12.0</ele><time>2011-04-30T12:29:48.0000000+00:00</time></trkpt><trkpt lat="20.955833" lon="107.04998"><ele>11.9</ele><time>2011-04-30T12:29:53.0000000+00:00</time></trkpt><trkpt lat="20.955833" lon="107.04998"><ele>11.9</ele><time>2011-04-30T12:29:58.0000000+00:00</time></trkpt><trkpt lat="20.955833" lon="107.04998"><ele>11.9</ele><time>2011-04-30T12:30:03.0000000+00:00</time></trkpt><trkpt lat="20.955833" lon="107.04998"><ele>11.8</ele><time>2011-04-30T12:30:08.0000000+00:00</time></trkpt><trkpt lat="20.955833" lon="107.04998"><ele>11.8</ele><time>2011-04-30T12:30:13.0000000+00:00</time></trkpt><trkpt lat="20.955833" lon="107.04998"><ele>11.7</ele><time>2011-04-30T12:30:18.0000000+00:00</time></trkpt><trkpt lat="20.955833" lon="107.04998"><ele>11.7</ele><time>2011-04-30T12:30:23.0000000+00:00</time></trkpt><trkpt lat="20.955833" lon="107.04998"><ele>11.7</ele><time>2011-04-30T12:30:28.0000000+00:00</time></trkpt><trkpt lat="20.955833" lon="107.04998"><ele>11.7</ele><time>2011-04-30T12:30:33.0000000+00:00</time></trkpt><trkpt lat="20.955833" lon="107.049973"><ele>11.6</ele><time>2011-04-30T12:30:38.0000000+00:00</time></trkpt><trkpt lat="20.955833" lon="107.049973"><ele>11.6</ele><time>2011-04-30T12:30:43.0000000+00:00</time></trkpt><trkpt lat="20.955833" lon="107.049973"><ele>11.5</ele><time>2011-04-30T12:30:48.0000000+00:00</time></trkpt><trkpt lat="20.955833" lon="107.049973"><ele>11.5</ele><time>2011-04-30T12:30:53.0000000+00:00</time></trkpt><trkpt lat="20.955833" lon="107.049973"><ele>11.4</ele><time>2011-04-30T12:30:58.0000000+00:00</time></trkpt><trkpt lat="20.955833" lon="107.049973"><ele>11.3</ele><time>2011-04-30T12:31:03.0000000+00:00</time></trkpt><trkpt lat="20.955833" lon="107.049973"><ele>11.2</ele><time>2011-04-30T12:31:08.0000000+00:00</time></trkpt><trkpt lat="20.955833" lon="107.049973"><ele>11.1</ele><time>2011-04-30T12:31:13.0000000+00:00</time></trkpt><trkpt lat="20.955833" lon="107.049973"><ele>11.1</ele><time>2011-04-30T12:31:18.0000000+00:00</time></trkpt><trkpt lat="20.955833" lon="107.049973"><ele>11.0</ele><time>2011-04-30T12:31:23.0000000+00:00</time></trkpt><trkpt lat="20.955833" lon="107.049973"><ele>11.0</ele><time>2011-04-30T12:31:28.0000000+00:00</time></trkpt><trkpt lat="20.955833" lon="107.049973"><ele>11.0</ele><time>2011-04-30T12:31:33.0000000+00:00</time></trkpt><trkpt lat="20.955833" lon="107.049973"><ele>10.9</ele><time>2011-04-30T12:31:38.0000000+00:00</time></trkpt><trkpt lat="20.955833" lon="107.049973"><ele>10.8</ele><time>2011-04-30T12:31:43.0000000+00:00</time></trkpt><trkpt lat="20.955833" lon="107.049973"><ele>10.7</ele><time>2011-04-30T12:31:48.0000000+00:00</time></trkpt><trkpt lat="20.955833" lon="107.049973"><ele>10.6</ele><time>2011-04-30T12:31:53.0000000+00:00</time></trkpt><trkpt lat="20.955833" lon="107.049973"><ele>10.5</ele><time>2011-04-30T12:31:58.0000000+00:00</time></trkpt><trkpt lat="20.955833" lon="107.049973"><ele>10.4</ele><time>2011-04-30T12:32:03.0000000+00:00</time></trkpt><trkpt lat="20.955833" lon="107.049973"><ele>10.4</ele><time>2011-04-30T12:32:08.0000000+00:00</time></trkpt><trkpt lat="20.955833" lon="107.049973"><ele>10.3</ele><time>2011-04-30T12:32:13.0000000+00:00</time></trkpt><trkpt lat="20.955833" lon="107.049973"><ele>10.3</ele><time>2011-04-30T12:32:18.0000000+00:00</time></trkpt><trkpt lat="20.955833" lon="107.049973"><ele>10.2</ele><time>2011-04-30T12:32:23.0000000+00:00</time></trkpt><trkpt lat="20.955833" lon="107.049973"><ele>10.1</ele><time>2011-04-30T12:32:28.0000000+00:00</time></trkpt><trkpt lat="20.955833" lon="107.049973"><ele>10.1</ele><time>2011-04-30T12:32:33.0000000+00:00</time></trkpt><trkpt lat="20.955833" lon="107.049973"><ele>10.1</ele><time>2011-04-30T12:32:38.0000000+00:00</time></trkpt><trkpt lat="20.955833" lon="107.049973"><ele>10.0</ele><time>2011-04-30T12:32:43.0000000+00:00</time></trkpt><trkpt lat="20.955833" lon="107.049973"><ele>9.9</ele><time>2011-04-30T12:32:48.0000000+00:00</time></trkpt><trkpt lat="20.955833" lon="107.049973"><ele>9.8</ele><time>2011-04-30T12:32:53.0000000+00:00</time></trkpt><trkpt lat="20.955833" lon="107.049973"><ele>9.8</ele><time>2011-04-30T12:32:58.0000000+00:00</time></trkpt><trkpt lat="20.955833" lon="107.049973"><ele>9.7</ele><time>2011-04-30T12:33:03.0000000+00:00</time></trkpt><trkpt lat="20.955833" lon="107.049973"><ele>9.7</ele><time>2011-04-30T12:33:08.0000000+00:00</time></trkpt><trkpt lat="20.955833" lon="107.049973"><ele>9.6</ele><time>2011-04-30T12:33:13.0000000+00:00</time></trkpt><trkpt lat="20.955833" lon="107.049973"><ele>9.6</ele><time>2011-04-30T12:33:18.0000000+00:00</time></trkpt><trkpt lat="20.955833" lon="107.049973"><ele>9.5</ele><time>2011-04-30T12:33:23.0000000+00:00</time></trkpt><trkpt lat="20.955833" lon="107.049973"><ele>9.5</ele><time>2011-04-30T12:33:28.0000000+00:00</time></trkpt><trkpt lat="20.955833" lon="107.049973"><ele>9.5</ele><time>2011-04-30T12:33:33.0000000+00:00</time></trkpt><trkpt lat="20.955833" lon="107.049973"><ele>9.4</ele><time>2011-04-30T12:33:38.0000000+00:00</time></trkpt><trkpt lat="20.955833" lon="107.049973"><ele>9.4</ele><time>2011-04-30T12:33:43.0000000+00:00</time></trkpt><trkpt lat="20.955833" lon="107.049973"><ele>9.4</ele><time>2011-04-30T12:33:48.0000000+00:00</time></trkpt><trkpt lat="20.955832" lon="107.049973"><ele>9.4</ele><time>2011-04-30T12:33:53.0000000+00:00</time></trkpt><trkpt lat="20.955832" lon="107.049973"><ele>9.3</ele><time>2011-04-30T12:33:58.0000000+00:00</time></trkpt><trkpt lat="20.955832" lon="107.049973"><ele>9.3</ele><time>2011-04-30T12:34:03.0000000+00:00</time></trkpt><trkpt lat="20.955832" lon="107.049973"><ele>9.3</ele><time>2011-04-30T12:34:08.0000000+00:00</time></trkpt><trkpt lat="20.955832" lon="107.049973"><ele>9.2</ele><time>2011-04-30T12:34:13.0000000+00:00</time></trkpt><trkpt lat="20.955832" lon="107.049973"><ele>9.2</ele><time>2011-04-30T12:34:18.0000000+00:00</time></trkpt><trkpt lat="20.955832" lon="107.049973"><ele>9.2</ele><time>2011-04-30T12:34:23.0000000+00:00</time></trkpt><trkpt lat="20.955832" lon="107.049973"><ele>9.1</ele><time>2011-04-30T12:34:28.0000000+00:00</time></trkpt><trkpt lat="20.955832" lon="107.049973"><ele>9.1</ele><time>2011-04-30T12:34:33.0000000+00:00</time></trkpt><trkpt lat="20.955832" lon="107.049973"><ele>9.1</ele><time>2011-04-30T12:34:38.0000000+00:00</time></trkpt><trkpt lat="20.955832" lon="107.049973"><ele>9.1</ele><time>2011-04-30T12:34:43.0000000+00:00</time></trkpt><trkpt lat="20.955832" lon="107.049973"><ele>9.1</ele><time>2011-04-30T12:34:48.0000000+00:00</time></trkpt><trkpt lat="20.955832" lon="107.049973"><ele>9.1</ele><time>2011-04-30T12:34:53.0000000+00:00</time></trkpt><trkpt lat="20.955832" lon="107.049973"><ele>9.1</ele><time>2011-04-30T12:34:58.0000000+00:00</time></trkpt><trkpt lat="20.955832" lon="107.049973"><ele>9.1</ele><time>2011-04-30T12:35:03.0000000+00:00</time></trkpt><trkpt lat="20.955832" lon="107.049973"><ele>9.0</ele><time>2011-04-30T12:35:08.0000000+00:00</time></trkpt><trkpt lat="20.955832" lon="107.049973"><ele>9.0</ele><time>2011-04-30T12:35:13.0000000+00:00</time></trkpt><trkpt lat="20.955832" lon="107.049973"><ele>9.0</ele><time>2011-04-30T12:35:18.0000000+00:00</time></trkpt><trkpt lat="20.955832" lon="107.049973"><ele>9.0</ele><time>2011-04-30T12:35:23.0000000+00:00</time></trkpt><trkpt lat="20.955832" lon="107.049973"><ele>9.0</ele><time>2011-04-30T12:35:28.0000000+00:00</time></trkpt><trkpt lat="20.955832" lon="107.049973"><ele>8.9</ele><time>2011-04-30T12:35:33.0000000+00:00</time></trkpt><trkpt lat="20.955832" lon="107.049973"><ele>8.9</ele><time>2011-04-30T12:35:38.0000000+00:00</time></trkpt><trkpt lat="20.955832" lon="107.049973"><ele>8.9</ele><time>2011-04-30T12:35:43.0000000+00:00</time></trkpt><trkpt lat="20.955832" lon="107.049973"><ele>8.9</ele><time>2011-04-30T12:35:48.0000000+00:00</time></trkpt><trkpt lat="20.955832" lon="107.049973"><ele>8.9</ele><time>2011-04-30T12:35:53.0000000+00:00</time></trkpt><trkpt lat="20.955832" lon="107.049973"><ele>8.9</ele><time>2011-04-30T12:35:58.0000000+00:00</time></trkpt><trkpt lat="20.95583" lon="107.049973"><ele>8.9</ele><time>2011-04-30T12:36:03.0000000+00:00</time></trkpt><trkpt lat="20.95583" lon="107.049973"><ele>8.8</ele><time>2011-04-30T12:36:08.0000000+00:00</time></trkpt><trkpt lat="20.95583" lon="107.049973"><ele>8.8</ele><time>2011-04-30T12:36:13.0000000+00:00</time></trkpt><trkpt lat="20.95583" lon="107.049973"><ele>8.8</ele><time>2011-04-30T12:36:18.0000000+00:00</time></trkpt><trkpt lat="20.95583" lon="107.049973"><ele>8.8</ele><time>2011-04-30T12:36:23.0000000+00:00</time></trkpt><trkpt lat="20.95583" lon="107.049973"><ele>8.8</ele><time>2011-04-30T12:36:28.0000000+00:00</time></trkpt><trkpt lat="20.95583" lon="107.049973"><ele>8.7</ele><time>2011-04-30T12:36:33.0000000+00:00</time></trkpt><trkpt lat="20.95583" lon="107.049973"><ele>8.7</ele><time>2011-04-30T12:36:38.0000000+00:00</time></trkpt><trkpt lat="20.95583" lon="107.049973"><ele>8.6</ele><time>2011-04-30T12:36:43.0000000+00:00</time></trkpt><trkpt lat="20.95583" lon="107.04998"><ele>8.6</ele><time>2011-04-30T12:36:48.0000000+00:00</time></trkpt><trkpt lat="20.95583" lon="107.04998"><ele>8.6</ele><time>2011-04-30T12:36:53.0000000+00:00</time></trkpt><trkpt lat="20.95583" lon="107.04998"><ele>8.6</ele><time>2011-04-30T12:36:58.0000000+00:00</time></trkpt><trkpt lat="20.95583" lon="107.04998"><ele>8.6</ele><time>2011-04-30T12:37:03.0000000+00:00</time></trkpt><trkpt lat="20.95583" lon="107.049973"><ele>8.6</ele><time>2011-04-30T12:37:08.0000000+00:00</time></trkpt><trkpt lat="20.95583" lon="107.049973"><ele>8.6</ele><time>2011-04-30T12:37:13.0000000+00:00</time></trkpt><trkpt lat="20.95583" lon="107.049973"><ele>8.5</ele><time>2011-04-30T12:37:18.0000000+00:00</time></trkpt><trkpt lat="20.95583" lon="107.049973"><ele>8.5</ele><time>2011-04-30T12:37:23.0000000+00:00</time></trkpt><trkpt lat="20.95583" lon="107.049973"><ele>8.5</ele><time>2011-04-30T12:37:28.0000000+00:00</time></trkpt><trkpt lat="20.95583" lon="107.049973"><ele>8.5</ele><time>2011-04-30T12:37:33.0000000+00:00</time></trkpt><trkpt lat="20.95583" lon="107.049973"><ele>8.5</ele><time>2011-04-30T12:37:38.0000000+00:00</time></trkpt><trkpt lat="20.95583" lon="107.049973"><ele>8.5</ele><time>2011-04-30T12:37:43.0000000+00:00</time></trkpt><trkpt lat="20.95583" lon="107.049973"><ele>8.5</ele><time>2011-04-30T12:37:48.0000000+00:00</time></trkpt><trkpt lat="20.95583" lon="107.049973"><ele>8.5</ele><time>2011-04-30T12:37:53.0000000+00:00</time></trkpt><trkpt lat="20.955832" lon="107.049973"><ele>8.4</ele><time>2011-04-30T12:37:58.0000000+00:00</time></trkpt><trkpt lat="20.955832" lon="107.049973"><ele>8.4</ele><time>2011-04-30T12:38:03.0000000+00:00</time></trkpt><trkpt lat="20.955832" lon="107.049973"><ele>8.4</ele><time>2011-04-30T12:38:08.0000000+00:00</time></trkpt><trkpt lat="20.955832" lon="107.049973"><ele>8.4</ele><time>2011-04-30T12:38:13.0000000+00:00</time></trkpt><trkpt lat="20.955832" lon="107.049973"><ele>8.4</ele><time>2011-04-30T12:38:18.0000000+00:00</time></trkpt><trkpt lat="20.955832" lon="107.049973"><ele>8.4</ele><time>2011-04-30T12:38:23.0000000+00:00</time></trkpt><trkpt lat="20.955832" lon="107.049973"><ele>8.4</ele><time>2011-04-30T12:38:28.0000000+00:00</time></trkpt><trkpt lat="20.955832" lon="107.049973"><ele>8.4</ele><time>2011-04-30T12:38:33.0000000+00:00</time></trkpt><trkpt lat="20.955832" lon="107.049973"><ele>8.3</ele><time>2011-04-30T12:38:38.0000000+00:00</time></trkpt><trkpt lat="20.955832" lon="107.049973"><ele>8.3</ele><time>2011-04-30T12:38:43.0000000+00:00</time></trkpt><trkpt lat="20.955832" lon="107.049973"><ele>8.3</ele><time>2011-04-30T12:38:48.0000000+00:00</time></trkpt><trkpt lat="20.955832" lon="107.04998"><ele>8.3</ele><time>2011-04-30T12:38:53.0000000+00:00</time></trkpt><trkpt lat="20.955832" lon="107.04998"><ele>8.2</ele><time>2011-04-30T12:38:58.0000000+00:00</time></trkpt><trkpt lat="20.955832" lon="107.04998"><ele>8.2</ele><time>2011-04-30T12:39:03.0000000+00:00</time></trkpt><trkpt lat="20.955832" lon="107.04998"><ele>8.2</ele><time>2011-04-30T12:39:08.0000000+00:00</time></trkpt><trkpt lat="20.955832" lon="107.04998"><ele>8.1</ele><time>2011-04-30T12:39:13.0000000+00:00</time></trkpt><trkpt lat="20.955833" lon="107.04998"><ele>8.1</ele><time>2011-04-30T12:39:18.0000000+00:00</time></trkpt><trkpt lat="20.955833" lon="107.04998"><ele>8.1</ele><time>2011-04-30T12:39:23.0000000+00:00</time></trkpt><trkpt lat="20.955833" lon="107.04998"><ele>8.0</ele><time>2011-04-30T12:39:28.0000000+00:00</time></trkpt><trkpt lat="20.955833" lon="107.04998"><ele>8.0</ele><time>2011-04-30T12:39:33.0000000+00:00</time></trkpt><trkpt lat="20.955833" lon="107.04998"><ele>7.9</ele><time>2011-04-30T12:39:38.0000000+00:00</time></trkpt><trkpt lat="20.955833" lon="107.04998"><ele>7.7</ele><time>2011-04-30T12:39:43.0000000+00:00</time></trkpt><trkpt lat="20.955833" lon="107.04998"><ele>7.6</ele><time>2011-04-30T12:39:48.0000000+00:00</time></trkpt><trkpt lat="20.955833" lon="107.04998"><ele>7.6</ele><time>2011-04-30T12:39:53.0000000+00:00</time></trkpt><trkpt lat="20.955833" lon="107.04998"><ele>7.6</ele><time>2011-04-30T12:39:58.0000000+00:00</time></trkpt><trkpt lat="20.955833" lon="107.04998"><ele>7.6</ele><time>2011-04-30T12:40:03.0000000+00:00</time></trkpt><trkpt lat="20.955833" lon="107.04998"><ele>7.6</ele><time>2011-04-30T12:40:08.0000000+00:00</time></trkpt><trkpt lat="20.955833" lon="107.04998"><ele>7.6</ele><time>2011-04-30T12:40:13.0000000+00:00</time></trkpt><trkpt lat="20.955833" lon="107.04998"><ele>7.6</ele><time>2011-04-30T12:40:18.0000000+00:00</time></trkpt><trkpt lat="20.955833" lon="107.04998"><ele>7.5</ele><time>2011-04-30T12:40:23.0000000+00:00</time></trkpt><trkpt lat="20.955833" lon="107.04998"><ele>7.5</ele><time>2011-04-30T12:40:28.0000000+00:00</time></trkpt><trkpt lat="20.955833" lon="107.04998"><ele>7.5</ele><time>2011-04-30T12:40:33.0000000+00:00</time></trkpt><trkpt lat="20.955833" lon="107.04998"><ele>7.5</ele><time>2011-04-30T12:40:38.0000000+00:00</time></trkpt><trkpt lat="20.955833" lon="107.04998"><ele>7.4</ele><time>2011-04-30T12:40:43.0000000+00:00</time></trkpt><trkpt lat="20.955833" lon="107.049988"><ele>7.4</ele><time>2011-04-30T12:40:48.0000000+00:00</time></trkpt><trkpt lat="20.955839" lon="107.04998"><ele>8.0</ele><time>2011-04-30T12:40:53.0000000+00:00</time></trkpt><trkpt lat="20.955835" lon="107.049988"><ele>8.1</ele><time>2011-04-30T12:40:58.0000000+00:00</time></trkpt><trkpt lat="20.955833" lon="107.049988"><ele>8.3</ele><time>2011-04-30T12:41:03.0000000+00:00</time></trkpt><trkpt lat="20.955835" lon="107.049988"><ele>8.5</ele><time>2011-04-30T12:41:08.0000000+00:00</time></trkpt><trkpt lat="20.955839" lon="107.049988"><ele>8.3</ele><time>2011-04-30T12:41:13.0000000+00:00</time></trkpt><trkpt lat="20.955841" lon="107.049973"><ele>7.5</ele><time>2011-04-30T12:41:18.0000000+00:00</time></trkpt><trkpt lat="20.955839" lon="107.049973"><ele>7.5</ele><time>2011-04-30T12:41:23.0000000+00:00</time></trkpt><trkpt lat="20.955845" lon="107.049957"><ele>6.8</ele><time>2011-04-30T12:41:28.0000000+00:00</time></trkpt><trkpt lat="20.955837" lon="107.049934"><ele>7.1</ele><time>2011-04-30T12:41:33.0000000+00:00</time></trkpt><trkpt lat="20.955826" lon="107.049889"><ele>6.7</ele><time>2011-04-30T12:41:38.0000000+00:00</time></trkpt><trkpt lat="20.955826" lon="107.049873"><ele>7.2</ele><time>2011-04-30T12:41:43.0000000+00:00</time></trkpt><trkpt lat="20.955818" lon="107.049858"><ele>7.2</ele><time>2011-04-30T12:41:48.0000000+00:00</time></trkpt><trkpt lat="20.955818" lon="107.049873"><ele>7.0</ele><time>2011-04-30T12:41:53.0000000+00:00</time></trkpt><trkpt lat="20.955811" lon="107.049904"><ele>8.1</ele><time>2011-04-30T12:41:58.0000000+00:00</time></trkpt><trkpt lat="20.955811" lon="107.049904"><ele>8.2</ele><time>2011-04-30T12:42:03.0000000+00:00</time></trkpt><trkpt lat="20.955797" lon="107.049911"><ele>8.8</ele><time>2011-04-30T12:42:08.0000000+00:00</time></trkpt><trkpt lat="20.955793" lon="107.049904"><ele>8.6</ele><time>2011-04-30T12:42:13.0000000+00:00</time></trkpt><trkpt lat="20.955793" lon="107.049904"><ele>8.6</ele><time>2011-04-30T12:42:18.0000000+00:00</time></trkpt><trkpt lat="20.955793" lon="107.049904"><ele>8.6</ele><time>2011-04-30T12:42:23.0000000+00:00</time></trkpt><trkpt lat="20.955791" lon="107.049904"><ele>8.6</ele><time>2011-04-30T12:42:28.0000000+00:00</time></trkpt><trkpt lat="20.955791" lon="107.049904"><ele>8.5</ele><time>2011-04-30T12:42:33.0000000+00:00</time></trkpt><trkpt lat="20.955791" lon="107.049904"><ele>8.4</ele><time>2011-04-30T12:42:38.0000000+00:00</time></trkpt><trkpt lat="20.955784" lon="107.049919"><ele>8.4</ele><time>2011-04-30T12:42:43.0000000+00:00</time></trkpt><trkpt lat="20.955769" lon="107.049927"><ele>8.7</ele><time>2011-04-30T12:42:48.0000000+00:00</time></trkpt><trkpt lat="20.95575" lon="107.049911"><ele>8.5</ele><time>2011-04-30T12:42:53.0000000+00:00</time></trkpt><trkpt lat="20.955753" lon="107.049942"><ele>8.6</ele><time>2011-04-30T12:42:58.0000000+00:00</time></trkpt><trkpt lat="20.955769" lon="107.049988"><ele>8.4</ele><time>2011-04-30T12:43:03.0000000+00:00</time></trkpt><trkpt lat="20.955784" lon="107.050026"><ele>7.8</ele><time>2011-04-30T12:43:08.0000000+00:00</time></trkpt><trkpt lat="20.955791" lon="107.050049"><ele>7.6</ele><time>2011-04-30T12:43:13.0000000+00:00</time></trkpt><trkpt lat="20.955797" lon="107.050064"><ele>7.4</ele><time>2011-04-30T12:43:18.0000000+00:00</time></trkpt><trkpt lat="20.955799" lon="107.050079"><ele>6.4</ele><time>2011-04-30T12:43:23.0000000+00:00</time></trkpt><trkpt lat="20.955797" lon="107.050079"><ele>5.8</ele><time>2011-04-30T12:43:28.0000000+00:00</time></trkpt><trkpt lat="20.95579" lon="107.050087"><ele>6.2</ele><time>2011-04-30T12:43:33.0000000+00:00</time></trkpt><trkpt lat="20.955788" lon="107.050117"><ele>5.9</ele><time>2011-04-30T12:43:38.0000000+00:00</time></trkpt><trkpt lat="20.955795" lon="107.050148"><ele>6.0</ele><time>2011-04-30T12:43:43.0000000+00:00</time></trkpt><trkpt lat="20.955816" lon="107.050186"><ele>5.2</ele><time>2011-04-30T12:43:48.0000000+00:00</time></trkpt><trkpt lat="20.955839" lon="107.050217"><ele>4.4</ele><time>2011-04-30T12:43:53.0000000+00:00</time></trkpt><trkpt lat="20.955864" lon="107.050224"><ele>3.9</ele><time>2011-04-30T12:43:58.0000000+00:00</time></trkpt><trkpt lat="20.955908" lon="107.050232"><ele>4.9</ele><time>2011-04-30T12:44:03.0000000+00:00</time></trkpt><trkpt lat="20.955948" lon="107.050232"><ele>4.3</ele><time>2011-04-30T12:44:08.0000000+00:00</time></trkpt><trkpt lat="20.955973" lon="107.050201"><ele>4.8</ele><time>2011-04-30T12:44:13.0000000+00:00</time></trkpt><trkpt lat="20.955978" lon="107.050163"><ele>6.4</ele><time>2011-04-30T12:44:18.0000000+00:00</time></trkpt><trkpt lat="20.956018" lon="107.050148"><ele>7.0</ele><time>2011-04-30T12:44:23.0000000+00:00</time></trkpt><trkpt lat="20.956036" lon="107.050133"><ele>6.9</ele><time>2011-04-30T12:44:28.0000000+00:00</time></trkpt><trkpt lat="20.956034" lon="107.050125"><ele>6.9</ele><time>2011-04-30T12:44:33.0000000+00:00</time></trkpt><trkpt lat="20.956028" lon="107.050125"><ele>6.9</ele><time>2011-04-30T12:44:38.0000000+00:00</time></trkpt><trkpt lat="20.95602" lon="107.050133"><ele>6.5</ele><time>2011-04-30T12:44:43.0000000+00:00</time></trkpt><trkpt lat="20.95602" lon="107.050133"><ele>6.5</ele><time>2011-04-30T12:44:48.0000000+00:00</time></trkpt><trkpt lat="20.956022" lon="107.050125"><ele>6.4</ele><time>2011-04-30T12:44:53.0000000+00:00</time></trkpt><trkpt lat="20.956022" lon="107.050125"><ele>6.4</ele><time>2011-04-30T12:44:58.0000000+00:00</time></trkpt><trkpt lat="20.956022" lon="107.050125"><ele>6.4</ele><time>2011-04-30T12:45:03.0000000+00:00</time></trkpt><trkpt lat="20.956022" lon="107.050125"><ele>6.4</ele><time>2011-04-30T12:45:08.0000000+00:00</time></trkpt><trkpt lat="20.956022" lon="107.050125"><ele>6.3</ele><time>2011-04-30T12:45:13.0000000+00:00</time></trkpt><trkpt lat="20.956022" lon="107.050125"><ele>6.3</ele><time>2011-04-30T12:45:18.0000000+00:00</time></trkpt><trkpt lat="20.956022" lon="107.050125"><ele>6.3</ele><time>2011-04-30T12:45:23.0000000+00:00</time></trkpt><trkpt lat="20.956022" lon="107.050125"><ele>6.3</ele><time>2011-04-30T12:45:28.0000000+00:00</time></trkpt><trkpt lat="20.95602" lon="107.050133"><ele>6.2</ele><time>2011-04-30T12:45:33.0000000+00:00</time></trkpt><trkpt lat="20.956018" lon="107.050133"><ele>6.1</ele><time>2011-04-30T12:45:38.0000000+00:00</time></trkpt><trkpt lat="20.956015" lon="107.050133"><ele>6.0</ele><time>2011-04-30T12:45:43.0000000+00:00</time></trkpt><trkpt lat="20.95602" lon="107.050133"><ele>5.9</ele><time>2011-04-30T12:45:48.0000000+00:00</time></trkpt><trkpt lat="20.956043" lon="107.050117"><ele>5.6</ele><time>2011-04-30T12:45:53.0000000+00:00</time></trkpt><trkpt lat="20.95606" lon="107.050125"><ele>6.2</ele><time>2011-04-30T12:45:58.0000000+00:00</time></trkpt><trkpt lat="20.956068" lon="107.05014"><ele>5.6</ele><time>2011-04-30T12:46:03.0000000+00:00</time></trkpt><trkpt lat="20.956072" lon="107.050148"><ele>4.7</ele><time>2011-04-30T12:46:08.0000000+00:00</time></trkpt><trkpt lat="20.956072" lon="107.050148"><ele>4.6</ele><time>2011-04-30T12:46:13.0000000+00:00</time></trkpt><trkpt lat="20.956072" lon="107.050148"><ele>4.6</ele><time>2011-04-30T12:46:18.0000000+00:00</time></trkpt><trkpt lat="20.956072" lon="107.050148"><ele>4.6</ele><time>2011-04-30T12:46:23.0000000+00:00</time></trkpt><trkpt lat="20.956072" lon="107.050148"><ele>4.6</ele><time>2011-04-30T12:46:28.0000000+00:00</time></trkpt><trkpt lat="20.956072" lon="107.050148"><ele>4.6</ele><time>2011-04-30T12:46:33.0000000+00:00</time></trkpt><trkpt lat="20.956072" lon="107.050148"><ele>4.5</ele><time>2011-04-30T12:46:38.0000000+00:00</time></trkpt><trkpt lat="20.956072" lon="107.050148"><ele>4.5</ele><time>2011-04-30T12:46:43.0000000+00:00</time></trkpt><trkpt lat="20.956074" lon="107.050148"><ele>4.5</ele><time>2011-04-30T12:46:48.0000000+00:00</time></trkpt><trkpt lat="20.956072" lon="107.050148"><ele>4.5</ele><time>2011-04-30T12:46:53.0000000+00:00</time></trkpt><trkpt lat="20.956074" lon="107.050148"><ele>4.5</ele><time>2011-04-30T12:46:58.0000000+00:00</time></trkpt><trkpt lat="20.956074" lon="107.050148"><ele>4.5</ele><time>2011-04-30T12:47:03.0000000+00:00</time></trkpt><trkpt lat="20.956074" lon="107.050148"><ele>4.5</ele><time>2011-04-30T12:47:08.0000000+00:00</time></trkpt><trkpt lat="20.956074" lon="107.050148"><ele>4.5</ele><time>2011-04-30T12:47:13.0000000+00:00</time></trkpt><trkpt lat="20.956074" lon="107.050148"><ele>4.4</ele><time>2011-04-30T12:47:18.0000000+00:00</time></trkpt><trkpt lat="20.956059" lon="107.05014"><ele>6.1</ele><time>2011-04-30T12:47:23.0000000+00:00</time></trkpt><trkpt lat="20.956059" lon="107.05014"><ele>6.4</ele><time>2011-04-30T12:47:28.0000000+00:00</time></trkpt><trkpt lat="20.956055" lon="107.05014"><ele>6.4</ele><time>2011-04-30T12:47:33.0000000+00:00</time></trkpt><trkpt lat="20.956055" lon="107.050125"><ele>6.7</ele><time>2011-04-30T12:47:38.0000000+00:00</time></trkpt><trkpt lat="20.956053" lon="107.050125"><ele>6.7</ele><time>2011-04-30T12:47:43.0000000+00:00</time></trkpt><trkpt lat="20.956043" lon="107.050133"><ele>6.8</ele><time>2011-04-30T12:47:48.0000000+00:00</time></trkpt><trkpt lat="20.956038" lon="107.050133"><ele>6.8</ele><time>2011-04-30T12:47:53.0000000+00:00</time></trkpt><trkpt lat="20.956034" lon="107.050125"><ele>6.9</ele><time>2011-04-30T12:47:58.0000000+00:00</time></trkpt><trkpt lat="20.956036" lon="107.050125"><ele>6.9</ele><time>2011-04-30T12:48:03.0000000+00:00</time></trkpt><trkpt lat="20.956034" lon="107.050125"><ele>6.9</ele><time>2011-04-30T12:48:08.0000000+00:00</time></trkpt><trkpt lat="20.956034" lon="107.050125"><ele>6.9</ele><time>2011-04-30T12:48:13.0000000+00:00</time></trkpt><trkpt lat="20.956036" lon="107.050125"><ele>6.9</ele><time>2011-04-30T12:48:18.0000000+00:00</time></trkpt><trkpt lat="20.956034" lon="107.050125"><ele>6.9</ele><time>2011-04-30T12:48:23.0000000+00:00</time></trkpt><trkpt lat="20.956034" lon="107.050125"><ele>6.9</ele><time>2011-04-30T12:48:28.0000000+00:00</time></trkpt><trkpt lat="20.956032" lon="107.050125"><ele>7.0</ele><time>2011-04-30T12:48:33.0000000+00:00</time></trkpt><trkpt lat="20.956047" lon="107.050133"><ele>6.8</ele><time>2011-04-30T12:48:38.0000000+00:00</time></trkpt><trkpt lat="20.956078" lon="107.05011"><ele>6.1</ele><time>2011-04-30T12:48:43.0000000+00:00</time></trkpt><trkpt lat="20.956079" lon="107.050072"><ele>6.8</ele><time>2011-04-30T12:48:48.0000000+00:00</time></trkpt><trkpt lat="20.956074" lon="107.050056"><ele>7.6</ele><time>2011-04-30T12:48:53.0000000+00:00</time></trkpt><trkpt lat="20.956066" lon="107.050026"><ele>7.1</ele><time>2011-04-30T12:48:58.0000000+00:00</time></trkpt><trkpt lat="20.956059" lon="107.050011"><ele>7.1</ele><time>2011-04-30T12:49:03.0000000+00:00</time></trkpt><trkpt lat="20.956062" lon="107.049995"><ele>6.9</ele><time>2011-04-30T12:49:08.0000000+00:00</time></trkpt><trkpt lat="20.956055" lon="107.049988"><ele>7.4</ele><time>2011-04-30T12:49:13.0000000+00:00</time></trkpt><trkpt lat="20.956055" lon="107.049988"><ele>7.5</ele><time>2011-04-30T12:49:18.0000000+00:00</time></trkpt><trkpt lat="20.956053" lon="107.04998"><ele>7.5</ele><time>2011-04-30T12:49:23.0000000+00:00</time></trkpt><trkpt lat="20.956053" lon="107.04998"><ele>7.5</ele><time>2011-04-30T12:49:28.0000000+00:00</time></trkpt><trkpt lat="20.956053" lon="107.04998"><ele>7.5</ele><time>2011-04-30T12:49:33.0000000+00:00</time></trkpt><trkpt lat="20.956047" lon="107.04998"><ele>7.5</ele><time>2011-04-30T12:49:38.0000000+00:00</time></trkpt><trkpt lat="20.956041" lon="107.049973"><ele>7.1</ele><time>2011-04-30T12:49:43.0000000+00:00</time></trkpt><trkpt lat="20.956026" lon="107.049973"><ele>7.0</ele><time>2011-04-30T12:49:48.0000000+00:00</time></trkpt><trkpt lat="20.956013" lon="107.04998"><ele>7.8</ele><time>2011-04-30T12:49:53.0000000+00:00</time></trkpt><trkpt lat="20.956011" lon="107.04998"><ele>7.5</ele><time>2011-04-30T12:49:58.0000000+00:00</time></trkpt><trkpt lat="20.956003" lon="107.049965"><ele>5.6</ele><time>2011-04-30T12:50:03.0000000+00:00</time></trkpt><trkpt lat="20.956003" lon="107.049965"><ele>5.4</ele><time>2011-04-30T12:50:08.0000000+00:00</time></trkpt><trkpt lat="20.956001" lon="107.049965"><ele>5.1</ele><time>2011-04-30T12:50:13.0000000+00:00</time></trkpt><trkpt lat="20.955999" lon="107.049965"><ele>4.9</ele><time>2011-04-30T12:50:18.0000000+00:00</time></trkpt><trkpt lat="20.955999" lon="107.049965"><ele>4.9</ele><time>2011-04-30T12:50:23.0000000+00:00</time></trkpt><trkpt lat="20.955999" lon="107.049965"><ele>4.9</ele><time>2011-04-30T12:50:28.0000000+00:00</time></trkpt><trkpt lat="20.955999" lon="107.049965"><ele>4.9</ele><time>2011-04-30T12:50:33.0000000+00:00</time></trkpt><trkpt lat="20.955999" lon="107.049965"><ele>4.9</ele><time>2011-04-30T12:50:38.0000000+00:00</time></trkpt><trkpt lat="20.956001" lon="107.049965"><ele>4.9</ele><time>2011-04-30T12:50:43.0000000+00:00</time></trkpt><trkpt lat="20.955999" lon="107.049965"><ele>4.9</ele><time>2011-04-30T12:50:48.0000000+00:00</time></trkpt><trkpt lat="20.955997" lon="107.049965"><ele>4.9</ele><time>2011-04-30T12:50:53.0000000+00:00</time></trkpt><trkpt lat="20.955997" lon="107.049957"><ele>4.9</ele><time>2011-04-30T12:50:58.0000000+00:00</time></trkpt><trkpt lat="20.955997" lon="107.049957"><ele>4.9</ele><time>2011-04-30T12:51:03.0000000+00:00</time></trkpt><trkpt lat="20.955996" lon="107.04995"><ele>4.9</ele><time>2011-04-30T12:51:08.0000000+00:00</time></trkpt><trkpt lat="20.955994" lon="107.04995"><ele>4.9</ele><time>2011-04-30T12:51:13.0000000+00:00</time></trkpt><trkpt lat="20.955997" lon="107.04995"><ele>4.9</ele><time>2011-04-30T12:51:18.0000000+00:00</time></trkpt><trkpt lat="20.955997" lon="107.04995"><ele>4.9</ele><time>2011-04-30T12:51:23.0000000+00:00</time></trkpt><trkpt lat="20.955997" lon="107.049957"><ele>4.9</ele><time>2011-04-30T12:51:28.0000000+00:00</time></trkpt><trkpt lat="20.955996" lon="107.049957"><ele>4.9</ele><time>2011-04-30T12:51:33.0000000+00:00</time></trkpt><trkpt lat="20.955997" lon="107.049965"><ele>4.7</ele><time>2011-04-30T12:51:38.0000000+00:00</time></trkpt><trkpt lat="20.955996" lon="107.049965"><ele>4.7</ele><time>2011-04-30T12:51:43.0000000+00:00</time></trkpt><trkpt lat="20.955994" lon="107.049965"><ele>4.7</ele><time>2011-04-30T12:51:48.0000000+00:00</time></trkpt><trkpt lat="20.95599" lon="107.049965"><ele>4.7</ele><time>2011-04-30T12:51:53.0000000+00:00</time></trkpt><trkpt lat="20.95599" lon="107.049965"><ele>4.7</ele><time>2011-04-30T12:51:58.0000000+00:00</time></trkpt><trkpt lat="20.95599" lon="107.049957"><ele>4.7</ele><time>2011-04-30T12:52:03.0000000+00:00</time></trkpt><trkpt lat="20.95599" lon="107.049957"><ele>4.7</ele><time>2011-04-30T12:52:08.0000000+00:00</time></trkpt><trkpt lat="20.95599" lon="107.04995"><ele>4.7</ele><time>2011-04-30T12:52:13.0000000+00:00</time></trkpt><trkpt lat="20.955986" lon="107.049957"><ele>4.7</ele><time>2011-04-30T12:52:18.0000000+00:00</time></trkpt><trkpt lat="20.955988" lon="107.04995"><ele>4.7</ele><time>2011-04-30T12:52:23.0000000+00:00</time></trkpt><trkpt lat="20.955988" lon="107.04995"><ele>4.7</ele><time>2011-04-30T12:52:28.0000000+00:00</time></trkpt><trkpt lat="20.955986" lon="107.049957"><ele>4.7</ele><time>2011-04-30T12:52:33.0000000+00:00</time></trkpt><trkpt lat="20.955984" lon="107.049957"><ele>4.7</ele><time>2011-04-30T12:52:38.0000000+00:00</time></trkpt><trkpt lat="20.955986" lon="107.049957"><ele>4.7</ele><time>2011-04-30T12:52:43.0000000+00:00</time></trkpt><trkpt lat="20.955986" lon="107.049965"><ele>4.7</ele><time>2011-04-30T12:52:48.0000000+00:00</time></trkpt><trkpt lat="20.955986" lon="107.049965"><ele>4.7</ele><time>2011-04-30T12:52:53.0000000+00:00</time></trkpt><trkpt lat="20.955986" lon="107.049965"><ele>4.6</ele><time>2011-04-30T12:52:58.0000000+00:00</time></trkpt><trkpt lat="20.955986" lon="107.049965"><ele>4.6</ele><time>2011-04-30T12:53:03.0000000+00:00</time></trkpt><trkpt lat="20.955984" lon="107.049965"><ele>4.6</ele><time>2011-04-30T12:53:08.0000000+00:00</time></trkpt><trkpt lat="20.955984" lon="107.049965"><ele>4.6</ele><time>2011-04-30T12:53:13.0000000+00:00</time></trkpt><trkpt lat="20.955984" lon="107.049965"><ele>4.6</ele><time>2011-04-30T12:53:18.0000000+00:00</time></trkpt><trkpt lat="20.955984" lon="107.049965"><ele>4.6</ele><time>2011-04-30T12:53:23.0000000+00:00</time></trkpt><trkpt lat="20.955984" lon="107.049965"><ele>4.6</ele><time>2011-04-30T12:53:28.0000000+00:00</time></trkpt><trkpt lat="20.955984" lon="107.049965"><ele>4.6</ele><time>2011-04-30T12:53:33.0000000+00:00</time></trkpt><trkpt lat="20.955984" lon="107.049965"><ele>4.5</ele><time>2011-04-30T12:53:38.0000000+00:00</time></trkpt><trkpt lat="20.955984" lon="107.049965"><ele>4.5</ele><time>2011-04-30T12:53:43.0000000+00:00</time></trkpt><trkpt lat="20.955984" lon="107.049965"><ele>4.5</ele><time>2011-04-30T12:53:48.0000000+00:00</time></trkpt><trkpt lat="20.955984" lon="107.049965"><ele>4.6</ele><time>2011-04-30T12:53:53.0000000+00:00</time></trkpt><trkpt lat="20.955984" lon="107.049965"><ele>4.6</ele><time>2011-04-30T12:53:58.0000000+00:00</time></trkpt><trkpt lat="20.955984" lon="107.049965"><ele>4.6</ele><time>2011-04-30T12:54:03.0000000+00:00</time></trkpt><trkpt lat="20.955984" lon="107.049965"><ele>4.5</ele><time>2011-04-30T12:54:08.0000000+00:00</time></trkpt><trkpt lat="20.955984" lon="107.049965"><ele>4.5</ele><time>2011-04-30T12:54:13.0000000+00:00</time></trkpt><trkpt lat="20.955984" lon="107.049965"><ele>4.4</ele><time>2011-04-30T12:54:18.0000000+00:00</time></trkpt><trkpt lat="20.955984" lon="107.049965"><ele>4.4</ele><time>2011-04-30T12:54:23.0000000+00:00</time></trkpt><trkpt lat="20.955984" lon="107.049965"><ele>4.4</ele><time>2011-04-30T12:54:28.0000000+00:00</time></trkpt><trkpt lat="20.955984" lon="107.049965"><ele>4.4</ele><time>2011-04-30T12:54:33.0000000+00:00</time></trkpt><trkpt lat="20.955984" lon="107.049965"><ele>4.4</ele><time>2011-04-30T12:54:38.0000000+00:00</time></trkpt><trkpt lat="20.955984" lon="107.049965"><ele>4.5</ele><time>2011-04-30T12:54:43.0000000+00:00</time></trkpt><trkpt lat="20.955984" lon="107.049965"><ele>4.5</ele><time>2011-04-30T12:54:48.0000000+00:00</time></trkpt><trkpt lat="20.955984" lon="107.049965"><ele>4.6</ele><time>2011-04-30T12:54:53.0000000+00:00</time></trkpt><trkpt lat="20.955984" lon="107.049965"><ele>4.6</ele><time>2011-04-30T12:54:58.0000000+00:00</time></trkpt><trkpt lat="20.955984" lon="107.049965"><ele>4.7</ele><time>2011-04-30T12:55:03.0000000+00:00</time></trkpt><trkpt lat="20.955982" lon="107.049965"><ele>4.7</ele><time>2011-04-30T12:55:08.0000000+00:00</time></trkpt><trkpt lat="20.955982" lon="107.049965"><ele>4.8</ele><time>2011-04-30T12:55:13.0000000+00:00</time></trkpt><trkpt lat="20.955982" lon="107.049965"><ele>4.8</ele><time>2011-04-30T12:55:18.0000000+00:00</time></trkpt><trkpt lat="20.955982" lon="107.049965"><ele>4.8</ele><time>2011-04-30T12:55:23.0000000+00:00</time></trkpt><trkpt lat="20.955982" lon="107.049965"><ele>4.8</ele><time>2011-04-30T12:55:28.0000000+00:00</time></trkpt><trkpt lat="20.955982" lon="107.049965"><ele>4.9</ele><time>2011-04-30T12:55:33.0000000+00:00</time></trkpt><trkpt lat="20.955982" lon="107.049965"><ele>4.9</ele><time>2011-04-30T12:55:38.0000000+00:00</time></trkpt><trkpt lat="20.955982" lon="107.049965"><ele>5.0</ele><time>2011-04-30T12:55:43.0000000+00:00</time></trkpt><trkpt lat="20.955982" lon="107.049965"><ele>5.0</ele><time>2011-04-30T12:55:48.0000000+00:00</time></trkpt><trkpt lat="20.955982" lon="107.049965"><ele>5.0</ele><time>2011-04-30T12:55:53.0000000+00:00</time></trkpt><trkpt lat="20.955982" lon="107.049965"><ele>5.0</ele><time>2011-04-30T12:55:58.0000000+00:00</time></trkpt><trkpt lat="20.955982" lon="107.049965"><ele>5.0</ele><time>2011-04-30T12:56:03.0000000+00:00</time></trkpt><trkpt lat="20.955982" lon="107.049965"><ele>5.0</ele><time>2011-04-30T12:56:08.0000000+00:00</time></trkpt><trkpt lat="20.955982" lon="107.049965"><ele>5.0</ele><time>2011-04-30T12:56:13.0000000+00:00</time></trkpt><trkpt lat="20.955982" lon="107.049965"><ele>5.1</ele><time>2011-04-30T12:56:18.0000000+00:00</time></trkpt><trkpt lat="20.955982" lon="107.049965"><ele>5.1</ele><time>2011-04-30T12:56:23.0000000+00:00</time></trkpt><trkpt lat="20.955982" lon="107.049965"><ele>5.1</ele><time>2011-04-30T12:56:28.0000000+00:00</time></trkpt><trkpt lat="20.955982" lon="107.049965"><ele>5.2</ele><time>2011-04-30T12:56:33.0000000+00:00</time></trkpt><trkpt lat="20.955982" lon="107.049965"><ele>5.2</ele><time>2011-04-30T12:56:38.0000000+00:00</time></trkpt><trkpt lat="20.955982" lon="107.049965"><ele>5.3</ele><time>2011-04-30T12:56:43.0000000+00:00</time></trkpt><trkpt lat="20.955982" lon="107.049965"><ele>5.3</ele><time>2011-04-30T12:56:48.0000000+00:00</time></trkpt><trkpt lat="20.955982" lon="107.049965"><ele>5.3</ele><time>2011-04-30T12:56:53.0000000+00:00</time></trkpt><trkpt lat="20.955982" lon="107.049965"><ele>5.3</ele><time>2011-04-30T12:56:58.0000000+00:00</time></trkpt><trkpt lat="20.955982" lon="107.049965"><ele>5.3</ele><time>2011-04-30T12:57:03.0000000+00:00</time></trkpt><trkpt lat="20.955982" lon="107.049965"><ele>5.3</ele><time>2011-04-30T12:57:08.0000000+00:00</time></trkpt><trkpt lat="20.955982" lon="107.049965"><ele>5.3</ele><time>2011-04-30T12:57:13.0000000+00:00</time></trkpt><trkpt lat="20.955982" lon="107.049965"><ele>5.3</ele><time>2011-04-30T12:57:18.0000000+00:00</time></trkpt><trkpt lat="20.955982" lon="107.049965"><ele>5.3</ele><time>2011-04-30T12:57:23.0000000+00:00</time></trkpt><trkpt lat="20.955982" lon="107.049965"><ele>5.3</ele><time>2011-04-30T12:57:28.0000000+00:00</time></trkpt><trkpt lat="20.955982" lon="107.049965"><ele>5.3</ele><time>2011-04-30T12:57:33.0000000+00:00</time></trkpt><trkpt lat="20.955982" lon="107.049965"><ele>5.3</ele><time>2011-04-30T12:57:38.0000000+00:00</time></trkpt><trkpt lat="20.95598" lon="107.049965"><ele>5.4</ele><time>2011-04-30T12:57:43.0000000+00:00</time></trkpt><trkpt lat="20.95598" lon="107.049965"><ele>5.4</ele><time>2011-04-30T12:57:48.0000000+00:00</time></trkpt><trkpt lat="20.95598" lon="107.049965"><ele>5.4</ele><time>2011-04-30T12:57:53.0000000+00:00</time></trkpt><trkpt lat="20.95598" lon="107.049965"><ele>5.4</ele><time>2011-04-30T12:57:58.0000000+00:00</time></trkpt><trkpt lat="20.95598" lon="107.049965"><ele>5.4</ele><time>2011-04-30T12:58:03.0000000+00:00</time></trkpt><trkpt lat="20.95598" lon="107.049965"><ele>5.3</ele><time>2011-04-30T12:58:08.0000000+00:00</time></trkpt><trkpt lat="20.95598" lon="107.049965"><ele>5.3</ele><time>2011-04-30T12:58:13.0000000+00:00</time></trkpt><trkpt lat="20.95598" lon="107.049965"><ele>5.2</ele><time>2011-04-30T12:58:18.0000000+00:00</time></trkpt><trkpt lat="20.95598" lon="107.049965"><ele>5.1</ele><time>2011-04-30T12:58:23.0000000+00:00</time></trkpt><trkpt lat="20.95598" lon="107.049965"><ele>5.0</ele><time>2011-04-30T12:58:28.0000000+00:00</time></trkpt><trkpt lat="20.95598" lon="107.049965"><ele>5.0</ele><time>2011-04-30T12:58:33.0000000+00:00</time></trkpt><trkpt lat="20.95598" lon="107.049965"><ele>5.0</ele><time>2011-04-30T12:58:38.0000000+00:00</time></trkpt><trkpt lat="20.95598" lon="107.049965"><ele>4.9</ele><time>2011-04-30T12:58:43.0000000+00:00</time></trkpt><trkpt lat="20.95598" lon="107.049965"><ele>4.9</ele><time>2011-04-30T12:58:48.0000000+00:00</time></trkpt><trkpt lat="20.95598" lon="107.049965"><ele>4.9</ele><time>2011-04-30T12:58:53.0000000+00:00</time></trkpt><trkpt lat="20.95598" lon="107.049965"><ele>4.8</ele><time>2011-04-30T12:58:58.0000000+00:00</time></trkpt><trkpt lat="20.95598" lon="107.049965"><ele>4.8</ele><time>2011-04-30T12:59:03.0000000+00:00</time></trkpt><trkpt lat="20.95598" lon="107.049965"><ele>4.7</ele><time>2011-04-30T12:59:08.0000000+00:00</time></trkpt><trkpt lat="20.95598" lon="107.049965"><ele>4.7</ele><time>2011-04-30T12:59:13.0000000+00:00</time></trkpt><trkpt lat="20.95598" lon="107.049965"><ele>4.7</ele><time>2011-04-30T12:59:18.0000000+00:00</time></trkpt><trkpt lat="20.95598" lon="107.049965"><ele>4.7</ele><time>2011-04-30T12:59:23.0000000+00:00</time></trkpt><trkpt lat="20.95598" lon="107.049965"><ele>4.7</ele><time>2011-04-30T12:59:28.0000000+00:00</time></trkpt><trkpt lat="20.95598" lon="107.049965"><ele>4.6</ele><time>2011-04-30T12:59:33.0000000+00:00</time></trkpt><trkpt lat="20.955982" lon="107.049965"><ele>4.6</ele><time>2011-04-30T12:59:38.0000000+00:00</time></trkpt><trkpt lat="20.95598" lon="107.049965"><ele>4.6</ele><time>2011-04-30T12:59:43.0000000+00:00</time></trkpt><trkpt lat="20.95598" lon="107.049965"><ele>4.6</ele><time>2011-04-30T12:59:48.0000000+00:00</time></trkpt><trkpt lat="20.95598" lon="107.049965"><ele>4.6</ele><time>2011-04-30T12:59:53.0000000+00:00</time></trkpt><trkpt lat="20.95598" lon="107.049965"><ele>4.5</ele><time>2011-04-30T12:59:58.0000000+00:00</time></trkpt><trkpt lat="20.95598" lon="107.049965"><ele>4.5</ele><time>2011-04-30T13:00:03.0000000+00:00</time></trkpt><trkpt lat="20.95598" lon="107.049965"><ele>4.5</ele><time>2011-04-30T13:00:08.0000000+00:00</time></trkpt><trkpt lat="20.95598" lon="107.049965"><ele>4.5</ele><time>2011-04-30T13:00:13.0000000+00:00</time></trkpt><trkpt lat="20.95598" lon="107.049965"><ele>4.5</ele><time>2011-04-30T13:00:18.0000000+00:00</time></trkpt><trkpt lat="20.95598" lon="107.049965"><ele>4.5</ele><time>2011-04-30T13:00:23.0000000+00:00</time></trkpt><trkpt lat="20.95598" lon="107.049965"><ele>4.4</ele><time>2011-04-30T13:00:28.0000000+00:00</time></trkpt><trkpt lat="20.95598" lon="107.049965"><ele>4.5</ele><time>2011-04-30T13:00:33.0000000+00:00</time></trkpt><trkpt lat="20.95598" lon="107.049965"><ele>4.5</ele><time>2011-04-30T13:00:38.0000000+00:00</time></trkpt><trkpt lat="20.95598" lon="107.049965"><ele>4.5</ele><time>2011-04-30T13:00:43.0000000+00:00</time></trkpt><trkpt lat="20.95598" lon="107.049965"><ele>4.5</ele><time>2011-04-30T13:00:48.0000000+00:00</time></trkpt><trkpt lat="20.95598" lon="107.049965"><ele>4.5</ele><time>2011-04-30T13:00:53.0000000+00:00</time></trkpt><trkpt lat="20.95598" lon="107.049965"><ele>4.5</ele><time>2011-04-30T13:00:58.0000000+00:00</time></trkpt><trkpt lat="20.95598" lon="107.049965"><ele>4.5</ele><time>2011-04-30T13:01:03.0000000+00:00</time></trkpt><trkpt lat="20.95598" lon="107.049965"><ele>4.5</ele><time>2011-04-30T13:01:08.0000000+00:00</time></trkpt><trkpt lat="20.95598" lon="107.049965"><ele>4.5</ele><time>2011-04-30T13:01:13.0000000+00:00</time></trkpt><trkpt lat="20.95598" lon="107.049965"><ele>4.5</ele><time>2011-04-30T13:01:18.0000000+00:00</time></trkpt><trkpt lat="20.95598" lon="107.049965"><ele>4.6</ele><time>2011-04-30T13:01:23.0000000+00:00</time></trkpt><trkpt lat="20.95598" lon="107.049965"><ele>4.6</ele><time>2011-04-30T13:01:28.0000000+00:00</time></trkpt><trkpt lat="20.95598" lon="107.049965"><ele>4.6</ele><time>2011-04-30T13:01:33.0000000+00:00</time></trkpt><trkpt lat="20.95598" lon="107.049965"><ele>4.5</ele><time>2011-04-30T13:01:38.0000000+00:00</time></trkpt><trkpt lat="20.95598" lon="107.049965"><ele>4.5</ele><time>2011-04-30T13:01:43.0000000+00:00</time></trkpt><trkpt lat="20.95598" lon="107.049965"><ele>4.5</ele><time>2011-04-30T13:01:48.0000000+00:00</time></trkpt><trkpt lat="20.95598" lon="107.049965"><ele>4.5</ele><time>2011-04-30T13:01:53.0000000+00:00</time></trkpt><trkpt lat="20.95598" lon="107.049965"><ele>4.6</ele><time>2011-04-30T13:01:58.0000000+00:00</time></trkpt><trkpt lat="20.95598" lon="107.049965"><ele>4.6</ele><time>2011-04-30T13:02:03.0000000+00:00</time></trkpt><trkpt lat="20.95598" lon="107.049965"><ele>4.6</ele><time>2011-04-30T13:02:08.0000000+00:00</time></trkpt><trkpt lat="20.95598" lon="107.049965"><ele>4.6</ele><time>2011-04-30T13:02:13.0000000+00:00</time></trkpt><trkpt lat="20.95598" lon="107.049965"><ele>4.6</ele><time>2011-04-30T13:02:18.0000000+00:00</time></trkpt><trkpt lat="20.95598" lon="107.049965"><ele>4.6</ele><time>2011-04-30T13:02:23.0000000+00:00</time></trkpt><trkpt lat="20.955982" lon="107.049965"><ele>4.7</ele><time>2011-04-30T13:02:28.0000000+00:00</time></trkpt><trkpt lat="20.955982" lon="107.049965"><ele>4.7</ele><time>2011-04-30T13:02:33.0000000+00:00</time></trkpt><trkpt lat="20.955982" lon="107.049965"><ele>4.7</ele><time>2011-04-30T13:02:38.0000000+00:00</time></trkpt><trkpt lat="20.955982" lon="107.049965"><ele>4.7</ele><time>2011-04-30T13:02:43.0000000+00:00</time></trkpt><trkpt lat="20.955982" lon="107.049965"><ele>4.8</ele><time>2011-04-30T13:02:48.0000000+00:00</time></trkpt><trkpt lat="20.955982" lon="107.049965"><ele>4.8</ele><time>2011-04-30T13:02:53.0000000+00:00</time></trkpt><trkpt lat="20.955982" lon="107.049965"><ele>4.8</ele><time>2011-04-30T13:02:58.0000000+00:00</time></trkpt><trkpt lat="20.955982" lon="107.049965"><ele>4.8</ele><time>2011-04-30T13:03:03.0000000+00:00</time></trkpt><trkpt lat="20.955982" lon="107.049965"><ele>4.8</ele><time>2011-04-30T13:03:08.0000000+00:00</time></trkpt><trkpt lat="20.955982" lon="107.049965"><ele>4.8</ele><time>2011-04-30T13:03:13.0000000+00:00</time></trkpt><trkpt lat="20.955982" lon="107.049965"><ele>4.7</ele><time>2011-04-30T13:03:18.0000000+00:00</time></trkpt><trkpt lat="20.955984" lon="107.049965"><ele>4.8</ele><time>2011-04-30T13:03:23.0000000+00:00</time></trkpt><trkpt lat="20.955984" lon="107.049965"><ele>4.8</ele><time>2011-04-30T13:03:28.0000000+00:00</time></trkpt><trkpt lat="20.955984" lon="107.049965"><ele>4.8</ele><time>2011-04-30T13:03:33.0000000+00:00</time></trkpt><trkpt lat="20.955984" lon="107.049965"><ele>4.8</ele><time>2011-04-30T13:03:38.0000000+00:00</time></trkpt><trkpt lat="20.955984" lon="107.049965"><ele>4.8</ele><time>2011-04-30T13:03:43.0000000+00:00</time></trkpt><trkpt lat="20.955984" lon="107.049965"><ele>4.8</ele><time>2011-04-30T13:03:48.0000000+00:00</time></trkpt><trkpt lat="20.955984" lon="107.049965"><ele>4.8</ele><time>2011-04-30T13:03:53.0000000+00:00</time></trkpt><trkpt lat="20.955982" lon="107.049973"><ele>4.9</ele><time>2011-04-30T13:03:58.0000000+00:00</time></trkpt><trkpt lat="20.955984" lon="107.049965"><ele>5.1</ele><time>2011-04-30T13:04:03.0000000+00:00</time></trkpt><trkpt lat="20.955978" lon="107.049965"><ele>4.7</ele><time>2011-04-30T13:04:08.0000000+00:00</time></trkpt><trkpt lat="20.95598" lon="107.049965"><ele>4.8</ele><time>2011-04-30T13:04:13.0000000+00:00</time></trkpt><trkpt lat="20.955984" lon="107.049957"><ele>4.6</ele><time>2011-04-30T13:04:18.0000000+00:00</time></trkpt><trkpt lat="20.955986" lon="107.049957"><ele>4.6</ele><time>2011-04-30T13:04:23.0000000+00:00</time></trkpt><trkpt lat="20.955982" lon="107.049957"><ele>4.8</ele><time>2011-04-30T13:04:28.0000000+00:00</time></trkpt><trkpt lat="20.955984" lon="107.049957"><ele>4.7</ele><time>2011-04-30T13:04:33.0000000+00:00</time></trkpt><trkpt lat="20.955984" lon="107.049957"><ele>4.6</ele><time>2011-04-30T13:04:38.0000000+00:00</time></trkpt><trkpt lat="20.955984" lon="107.049957"><ele>4.6</ele><time>2011-04-30T13:04:43.0000000+00:00</time></trkpt><trkpt lat="20.955984" lon="107.049957"><ele>4.6</ele><time>2011-04-30T13:04:48.0000000+00:00</time></trkpt><trkpt lat="20.955984" lon="107.049957"><ele>4.6</ele><time>2011-04-30T13:04:53.0000000+00:00</time></trkpt><trkpt lat="20.95598" lon="107.049957"><ele>4.6</ele><time>2011-04-30T13:04:58.0000000+00:00</time></trkpt><trkpt lat="20.955963" lon="107.049957"><ele>4.7</ele><time>2011-04-30T13:05:03.0000000+00:00</time></trkpt><trkpt lat="20.95595" lon="107.049957"><ele>4.7</ele><time>2011-04-30T13:05:08.0000000+00:00</time></trkpt><trkpt lat="20.955952" lon="107.04995"><ele>4.7</ele><time>2011-04-30T13:05:13.0000000+00:00</time></trkpt><trkpt lat="20.955954" lon="107.04995"><ele>4.8</ele><time>2011-04-30T13:05:18.0000000+00:00</time></trkpt><trkpt lat="20.955959" lon="107.04995"><ele>5.0</ele><time>2011-04-30T13:05:23.0000000+00:00</time></trkpt><trkpt lat="20.955959" lon="107.04995"><ele>4.9</ele><time>2011-04-30T13:05:28.0000000+00:00</time></trkpt><trkpt lat="20.955948" lon="107.049965"><ele>5.4</ele><time>2011-04-30T13:05:33.0000000+00:00</time></trkpt><trkpt lat="20.955938" lon="107.049988"><ele>5.7</ele><time>2011-04-30T13:05:38.0000000+00:00</time></trkpt><trkpt lat="20.955906" lon="107.050018"><ele>6.3</ele><time>2011-04-30T13:05:43.0000000+00:00</time></trkpt><trkpt lat="20.95586" lon="107.04998"><ele>5.6</ele><time>2011-04-30T13:05:48.0000000+00:00</time></trkpt><trkpt lat="20.955849" lon="107.049942"><ele>5.7</ele><time>2011-04-30T13:05:53.0000000+00:00</time></trkpt><trkpt lat="20.955881" lon="107.049904"><ele>6.2</ele><time>2011-04-30T13:05:58.0000000+00:00</time></trkpt><trkpt lat="20.955914" lon="107.049866"><ele>6.5</ele><time>2011-04-30T13:06:03.0000000+00:00</time></trkpt><trkpt lat="20.955935" lon="107.049835"><ele>6.2</ele><time>2011-04-30T13:06:08.0000000+00:00</time></trkpt><trkpt lat="20.955933" lon="107.049835"><ele>5.8</ele><time>2011-04-30T13:06:13.0000000+00:00</time></trkpt><trkpt lat="20.955921" lon="107.049835"><ele>5.6</ele><time>2011-04-30T13:06:18.0000000+00:00</time></trkpt><trkpt lat="20.955906" lon="107.04982"><ele>4.8</ele><time>2011-04-30T13:06:23.0000000+00:00</time></trkpt><trkpt lat="20.955908" lon="107.049789"><ele>5.4</ele><time>2011-04-30T13:06:28.0000000+00:00</time></trkpt><trkpt lat="20.955896" lon="107.049767"><ele>6.3</ele><time>2011-04-30T13:06:33.0000000+00:00</time></trkpt><trkpt lat="20.955879" lon="107.049744"><ele>6.3</ele><time>2011-04-30T13:06:38.0000000+00:00</time></trkpt><trkpt lat="20.955879" lon="107.049728"><ele>6.0</ele><time>2011-04-30T13:06:43.0000000+00:00</time></trkpt><trkpt lat="20.955854" lon="107.049728"><ele>6.2</ele><time>2011-04-30T13:06:48.0000000+00:00</time></trkpt><trkpt lat="20.955835" lon="107.049728"><ele>6.2</ele><time>2011-04-30T13:06:53.0000000+00:00</time></trkpt><trkpt lat="20.955818" lon="107.049706"><ele>5.8</ele><time>2011-04-30T13:06:58.0000000+00:00</time></trkpt><trkpt lat="20.955814" lon="107.04969"><ele>5.5</ele><time>2011-04-30T13:07:03.0000000+00:00</time></trkpt><trkpt lat="20.955805" lon="107.049683"><ele>5.8</ele><time>2011-04-30T13:07:08.0000000+00:00</time></trkpt><trkpt lat="20.955797" lon="107.049675"><ele>4.2</ele><time>2011-04-30T13:07:13.0000000+00:00</time></trkpt><trkpt lat="20.955799" lon="107.049675"><ele>4.1</ele><time>2011-04-30T13:07:18.0000000+00:00</time></trkpt><trkpt lat="20.955793" lon="107.049683"><ele>3.7</ele><time>2011-04-30T13:07:23.0000000+00:00</time></trkpt><trkpt lat="20.955791" lon="107.04969"><ele>3.3</ele><time>2011-04-30T13:07:28.0000000+00:00</time></trkpt><trkpt lat="20.95579" lon="107.04969"><ele>1.9</ele><time>2011-04-30T13:07:33.0000000+00:00</time></trkpt><trkpt lat="20.95579" lon="107.049698"><ele>1.8</ele><time>2011-04-30T13:07:38.0000000+00:00</time></trkpt><trkpt lat="20.95579" lon="107.049683"><ele>0.6</ele><time>2011-04-30T13:07:43.0000000+00:00</time></trkpt><trkpt lat="20.955791" lon="107.04966"><ele>0.9</ele><time>2011-04-30T13:07:48.0000000+00:00</time></trkpt><trkpt lat="20.955778" lon="107.049644"><ele>0.9</ele><time>2011-04-30T13:07:53.0000000+00:00</time></trkpt><trkpt lat="20.955765" lon="107.049637"><ele>0.9</ele><time>2011-04-30T13:07:58.0000000+00:00</time></trkpt><trkpt lat="20.95574" lon="107.049629"><ele>0.6</ele><time>2011-04-30T13:08:03.0000000+00:00</time></trkpt><trkpt lat="20.95574" lon="107.049622"><ele>0.8</ele><time>2011-04-30T13:08:08.0000000+00:00</time></trkpt><trkpt lat="20.955734" lon="107.049629"><ele>0.9</ele><time>2011-04-30T13:08:13.0000000+00:00</time></trkpt><trkpt lat="20.955721" lon="107.049637"><ele>1.1</ele><time>2011-04-30T13:08:18.0000000+00:00</time></trkpt><trkpt lat="20.955704" lon="107.049652"><ele>1.1</ele><time>2011-04-30T13:08:23.0000000+00:00</time></trkpt><trkpt lat="20.955681" lon="107.049675"><ele>1.2</ele><time>2011-04-30T13:08:28.0000000+00:00</time></trkpt><trkpt lat="20.955658" lon="107.049683"><ele>1.1</ele><time>2011-04-30T13:08:33.0000000+00:00</time></trkpt><trkpt lat="20.955631" lon="107.04969"><ele>0.1</ele><time>2011-04-30T13:08:38.0000000+00:00</time></trkpt><trkpt lat="20.955606" lon="107.049675"><ele>-1.6</ele><time>2011-04-30T13:08:43.0000000+00:00</time></trkpt><trkpt lat="20.955576" lon="107.049667"><ele>-3.3</ele><time>2011-04-30T13:08:48.0000000+00:00</time></trkpt><trkpt lat="20.955551" lon="107.049675"><ele>-4.2</ele><time>2011-04-30T13:08:53.0000000+00:00</time></trkpt><trkpt lat="20.955544" lon="107.049667"><ele>-5.0</ele><time>2011-04-30T13:08:58.0000000+00:00</time></trkpt><trkpt lat="20.955517" lon="107.049667"><ele>-5.4</ele><time>2011-04-30T13:09:03.0000000+00:00</time></trkpt><trkpt lat="20.955492" lon="107.049652"><ele>-5.6</ele><time>2011-04-30T13:09:08.0000000+00:00</time></trkpt><trkpt lat="20.955477" lon="107.049644"><ele>-5.9</ele><time>2011-04-30T13:09:13.0000000+00:00</time></trkpt><trkpt lat="20.955442" lon="107.04966"><ele>-6.4</ele><time>2011-04-30T13:09:18.0000000+00:00</time></trkpt><trkpt lat="20.955412" lon="107.049644"><ele>-6.4</ele><time>2011-04-30T13:09:23.0000000+00:00</time></trkpt><trkpt lat="20.955389" lon="107.049637"><ele>-6.2</ele><time>2011-04-30T13:09:28.0000000+00:00</time></trkpt><trkpt lat="20.955402" lon="107.049629"><ele>-6.6</ele><time>2011-04-30T13:09:33.0000000+00:00</time></trkpt><trkpt lat="20.95541" lon="107.049622"><ele>-7.2</ele><time>2011-04-30T13:09:38.0000000+00:00</time></trkpt><trkpt lat="20.9554" lon="107.049629"><ele>-7.4</ele><time>2011-04-30T13:09:43.0000000+00:00</time></trkpt><trkpt lat="20.955402" lon="107.049629"><ele>-7.3</ele><time>2011-04-30T13:09:48.0000000+00:00</time></trkpt><trkpt lat="20.955404" lon="107.049629"><ele>-7.2</ele><time>2011-04-30T13:09:53.0000000+00:00</time></trkpt><trkpt lat="20.955402" lon="107.049629"><ele>-7.3</ele><time>2011-04-30T13:09:58.0000000+00:00</time></trkpt><trkpt lat="20.955402" lon="107.049629"><ele>-7.3</ele><time>2011-04-30T13:10:03.0000000+00:00</time></trkpt><trkpt lat="20.955402" lon="107.049629"><ele>-7.3</ele><time>2011-04-30T13:10:08.0000000+00:00</time></trkpt><trkpt lat="20.955402" lon="107.049629"><ele>-7.3</ele><time>2011-04-30T13:10:13.0000000+00:00</time></trkpt><trkpt lat="20.955402" lon="107.049629"><ele>-7.3</ele><time>2011-04-30T13:10:18.0000000+00:00</time></trkpt><trkpt lat="20.955402" lon="107.049629"><ele>-7.3</ele><time>2011-04-30T13:10:23.0000000+00:00</time></trkpt><trkpt lat="20.955391" lon="107.049614"><ele>-7.1</ele><time>2011-04-30T13:10:28.0000000+00:00</time></trkpt><trkpt lat="20.9554" lon="107.049606"><ele>-6.3</ele><time>2011-04-30T13:10:33.0000000+00:00</time></trkpt><trkpt lat="20.9554" lon="107.049606"><ele>-5.8</ele><time>2011-04-30T13:10:38.0000000+00:00</time></trkpt><trkpt lat="20.9554" lon="107.049606"><ele>-5.5</ele><time>2011-04-30T13:10:43.0000000+00:00</time></trkpt><trkpt lat="20.9554" lon="107.049606"><ele>-5.5</ele><time>2011-04-30T13:10:48.0000000+00:00</time></trkpt><trkpt lat="20.9554" lon="107.049606"><ele>-5.5</ele><time>2011-04-30T13:10:53.0000000+00:00</time></trkpt><trkpt lat="20.9554" lon="107.049606"><ele>-5.5</ele><time>2011-04-30T13:10:58.0000000+00:00</time></trkpt><trkpt lat="20.9554" lon="107.049606"><ele>-5.5</ele><time>2011-04-30T13:11:03.0000000+00:00</time></trkpt><trkpt lat="20.9554" lon="107.049606"><ele>-5.6</ele><time>2011-04-30T13:11:08.0000000+00:00</time></trkpt><trkpt lat="20.9554" lon="107.049606"><ele>-5.6</ele><time>2011-04-30T13:11:13.0000000+00:00</time></trkpt><trkpt lat="20.9554" lon="107.049606"><ele>-5.6</ele><time>2011-04-30T13:11:18.0000000+00:00</time></trkpt><trkpt lat="20.9554" lon="107.049606"><ele>-5.6</ele><time>2011-04-30T13:11:23.0000000+00:00</time></trkpt><trkpt lat="20.9554" lon="107.049606"><ele>-5.6</ele><time>2011-04-30T13:11:28.0000000+00:00</time></trkpt><trkpt lat="20.9554" lon="107.049606"><ele>-5.6</ele><time>2011-04-30T13:11:33.0000000+00:00</time></trkpt><trkpt lat="20.9554" lon="107.049606"><ele>-5.6</ele><time>2011-04-30T13:11:38.0000000+00:00</time></trkpt><trkpt lat="20.9554" lon="107.049606"><ele>-5.6</ele><time>2011-04-30T13:11:43.0000000+00:00</time></trkpt><trkpt lat="20.9554" lon="107.049606"><ele>-5.7</ele><time>2011-04-30T13:11:48.0000000+00:00</time></trkpt><trkpt lat="20.9554" lon="107.049606"><ele>-5.7</ele><time>2011-04-30T13:11:53.0000000+00:00</time></trkpt><trkpt lat="20.9554" lon="107.049606"><ele>-5.7</ele><time>2011-04-30T13:11:58.0000000+00:00</time></trkpt><trkpt lat="20.9554" lon="107.049606"><ele>-5.7</ele><time>2011-04-30T13:12:03.0000000+00:00</time></trkpt><trkpt lat="20.9554" lon="107.049606"><ele>-5.8</ele><time>2011-04-30T13:12:08.0000000+00:00</time></trkpt><trkpt lat="20.9554" lon="107.049606"><ele>-5.8</ele><time>2011-04-30T13:12:13.0000000+00:00</time></trkpt><trkpt lat="20.9554" lon="107.049606"><ele>-5.8</ele><time>2011-04-30T13:12:18.0000000+00:00</time></trkpt><trkpt lat="20.9554" lon="107.049606"><ele>-5.8</ele><time>2011-04-30T13:12:23.0000000+00:00</time></trkpt><trkpt lat="20.9554" lon="107.049606"><ele>-5.8</ele><time>2011-04-30T13:12:28.0000000+00:00</time></trkpt><trkpt lat="20.9554" lon="107.049606"><ele>-5.8</ele><time>2011-04-30T13:12:33.0000000+00:00</time></trkpt><trkpt lat="20.9554" lon="107.049606"><ele>-5.8</ele><time>2011-04-30T13:12:38.0000000+00:00</time></trkpt><trkpt lat="20.9554" lon="107.049606"><ele>-5.8</ele><time>2011-04-30T13:12:43.0000000+00:00</time></trkpt><trkpt lat="20.9554" lon="107.049606"><ele>-5.8</ele><time>2011-04-30T13:12:48.0000000+00:00</time></trkpt><trkpt lat="20.9554" lon="107.049606"><ele>-5.8</ele><time>2011-04-30T13:12:53.0000000+00:00</time></trkpt><trkpt lat="20.9554" lon="107.049606"><ele>-5.8</ele><time>2011-04-30T13:12:58.0000000+00:00</time></trkpt><trkpt lat="20.9554" lon="107.049606"><ele>-5.8</ele><time>2011-04-30T13:13:03.0000000+00:00</time></trkpt><trkpt lat="20.9554" lon="107.049606"><ele>-5.8</ele><time>2011-04-30T13:13:08.0000000+00:00</time></trkpt><trkpt lat="20.9554" lon="107.049606"><ele>-5.8</ele><time>2011-04-30T13:13:13.0000000+00:00</time></trkpt><trkpt lat="20.9554" lon="107.049606"><ele>-5.8</ele><time>2011-04-30T13:13:18.0000000+00:00</time></trkpt><trkpt lat="20.9554" lon="107.049606"><ele>-5.8</ele><time>2011-04-30T13:13:23.0000000+00:00</time></trkpt><trkpt lat="20.9554" lon="107.049606"><ele>-5.8</ele><time>2011-04-30T13:13:28.0000000+00:00</time></trkpt><trkpt lat="20.9554" lon="107.049606"><ele>-5.8</ele><time>2011-04-30T13:13:33.0000000+00:00</time></trkpt><trkpt lat="20.9554" lon="107.049606"><ele>-5.8</ele><time>2011-04-30T13:13:38.0000000+00:00</time></trkpt><trkpt lat="20.9554" lon="107.049606"><ele>-5.8</ele><time>2011-04-30T13:13:43.0000000+00:00</time></trkpt><trkpt lat="20.9554" lon="107.049606"><ele>-5.8</ele><time>2011-04-30T13:13:48.0000000+00:00</time></trkpt><trkpt lat="20.9554" lon="107.049606"><ele>-5.8</ele><time>2011-04-30T13:13:53.0000000+00:00</time></trkpt><trkpt lat="20.9554" lon="107.049606"><ele>-5.7</ele><time>2011-04-30T13:13:58.0000000+00:00</time></trkpt><trkpt lat="20.9554" lon="107.049606"><ele>-5.7</ele><time>2011-04-30T13:14:03.0000000+00:00</time></trkpt><trkpt lat="20.9554" lon="107.049606"><ele>-5.7</ele><time>2011-04-30T13:14:08.0000000+00:00</time></trkpt><trkpt lat="20.9554" lon="107.049606"><ele>-5.7</ele><time>2011-04-30T13:14:13.0000000+00:00</time></trkpt><trkpt lat="20.9554" lon="107.049606"><ele>-5.7</ele><time>2011-04-30T13:14:18.0000000+00:00</time></trkpt><trkpt lat="20.955402" lon="107.049606"><ele>-5.7</ele><time>2011-04-30T13:14:23.0000000+00:00</time></trkpt><trkpt lat="20.955402" lon="107.049606"><ele>-5.7</ele><time>2011-04-30T13:14:28.0000000+00:00</time></trkpt><trkpt lat="20.9554" lon="107.049606"><ele>-5.7</ele><time>2011-04-30T13:14:33.0000000+00:00</time></trkpt><trkpt lat="20.9554" lon="107.049606"><ele>-5.7</ele><time>2011-04-30T13:14:38.0000000+00:00</time></trkpt><trkpt lat="20.9554" lon="107.049606"><ele>-5.7</ele><time>2011-04-30T13:14:43.0000000+00:00</time></trkpt><trkpt lat="20.9554" lon="107.049606"><ele>-5.7</ele><time>2011-04-30T13:14:48.0000000+00:00</time></trkpt><trkpt lat="20.9554" lon="107.049606"><ele>-5.7</ele><time>2011-04-30T13:14:53.0000000+00:00</time></trkpt><trkpt lat="20.9554" lon="107.049606"><ele>-5.7</ele><time>2011-04-30T13:14:58.0000000+00:00</time></trkpt><trkpt lat="20.9554" lon="107.049606"><ele>-5.7</ele><time>2011-04-30T13:15:03.0000000+00:00</time></trkpt><trkpt lat="20.9554" lon="107.049606"><ele>-5.7</ele><time>2011-04-30T13:15:08.0000000+00:00</time></trkpt><trkpt lat="20.9554" lon="107.049606"><ele>-5.7</ele><time>2011-04-30T13:15:13.0000000+00:00</time></trkpt><trkpt lat="20.9554" lon="107.049606"><ele>-5.7</ele><time>2011-04-30T13:15:18.0000000+00:00</time></trkpt><trkpt lat="20.9554" lon="107.049606"><ele>-5.7</ele><time>2011-04-30T13:15:23.0000000+00:00</time></trkpt><trkpt lat="20.9554" lon="107.049606"><ele>-5.7</ele><time>2011-04-30T13:15:28.0000000+00:00</time></trkpt><trkpt lat="20.9554" lon="107.049606"><ele>-5.6</ele><time>2011-04-30T13:15:33.0000000+00:00</time></trkpt><trkpt lat="20.9554" lon="107.049606"><ele>-5.6</ele><time>2011-04-30T13:15:38.0000000+00:00</time></trkpt><trkpt lat="20.955399" lon="107.049606"><ele>-5.5</ele><time>2011-04-30T13:15:43.0000000+00:00</time></trkpt><trkpt lat="20.955399" lon="107.049606"><ele>-5.4</ele><time>2011-04-30T13:15:48.0000000+00:00</time></trkpt><trkpt lat="20.9554" lon="107.049606"><ele>-5.5</ele><time>2011-04-30T13:15:53.0000000+00:00</time></trkpt><trkpt lat="20.9554" lon="107.049606"><ele>-5.5</ele><time>2011-04-30T13:15:58.0000000+00:00</time></trkpt><trkpt lat="20.9554" lon="107.049606"><ele>-5.5</ele><time>2011-04-30T13:16:03.0000000+00:00</time></trkpt><trkpt lat="20.9554" lon="107.049606"><ele>-5.5</ele><time>2011-04-30T13:16:08.0000000+00:00</time></trkpt><trkpt lat="20.9554" lon="107.049606"><ele>-5.5</ele><time>2011-04-30T13:16:13.0000000+00:00</time></trkpt><trkpt lat="20.9554" lon="107.049606"><ele>-5.5</ele><time>2011-04-30T13:16:18.0000000+00:00</time></trkpt><trkpt lat="20.9554" lon="107.049606"><ele>-5.4</ele><time>2011-04-30T13:16:23.0000000+00:00</time></trkpt><trkpt lat="20.9554" lon="107.049606"><ele>-5.4</ele><time>2011-04-30T13:16:28.0000000+00:00</time></trkpt><trkpt lat="20.9554" lon="107.049606"><ele>-5.5</ele><time>2011-04-30T13:16:33.0000000+00:00</time></trkpt><trkpt lat="20.9554" lon="107.049606"><ele>-5.5</ele><time>2011-04-30T13:16:38.0000000+00:00</time></trkpt><trkpt lat="20.9554" lon="107.049606"><ele>-5.5</ele><time>2011-04-30T13:16:43.0000000+00:00</time></trkpt><trkpt lat="20.9554" lon="107.049606"><ele>-5.5</ele><time>2011-04-30T13:16:48.0000000+00:00</time></trkpt><trkpt lat="20.9554" lon="107.049606"><ele>-5.5</ele><time>2011-04-30T13:16:53.0000000+00:00</time></trkpt><trkpt lat="20.9554" lon="107.049606"><ele>-5.5</ele><time>2011-04-30T13:16:58.0000000+00:00</time></trkpt><trkpt lat="20.9554" lon="107.049606"><ele>-5.5</ele><time>2011-04-30T13:17:03.0000000+00:00</time></trkpt><trkpt lat="20.955402" lon="107.049606"><ele>-5.6</ele><time>2011-04-30T13:17:08.0000000+00:00</time></trkpt><trkpt lat="20.955402" lon="107.049606"><ele>-5.6</ele><time>2011-04-30T13:17:13.0000000+00:00</time></trkpt><trkpt lat="20.9554" lon="107.049606"><ele>-5.6</ele><time>2011-04-30T13:17:18.0000000+00:00</time></trkpt><trkpt lat="20.955402" lon="107.049606"><ele>-5.5</ele><time>2011-04-30T13:17:23.0000000+00:00</time></trkpt><trkpt lat="20.955402" lon="107.049606"><ele>-5.6</ele><time>2011-04-30T13:17:28.0000000+00:00</time></trkpt><trkpt lat="20.955402" lon="107.049606"><ele>-5.6</ele><time>2011-04-30T13:17:33.0000000+00:00</time></trkpt><trkpt lat="20.955402" lon="107.049606"><ele>-5.6</ele><time>2011-04-30T13:17:38.0000000+00:00</time></trkpt><trkpt lat="20.955402" lon="107.049606"><ele>-5.6</ele><time>2011-04-30T13:17:43.0000000+00:00</time></trkpt><trkpt lat="20.955402" lon="107.049606"><ele>-5.6</ele><time>2011-04-30T13:17:48.0000000+00:00</time></trkpt><trkpt lat="20.955402" lon="107.049606"><ele>-5.6</ele><time>2011-04-30T13:17:53.0000000+00:00</time></trkpt><trkpt lat="20.955402" lon="107.049606"><ele>-5.7</ele><time>2011-04-30T13:17:58.0000000+00:00</time></trkpt><trkpt lat="20.955402" lon="107.049606"><ele>-5.7</ele><time>2011-04-30T13:18:03.0000000+00:00</time></trkpt><trkpt lat="20.955402" lon="107.049606"><ele>-5.7</ele><time>2011-04-30T13:18:08.0000000+00:00</time></trkpt><trkpt lat="20.955402" lon="107.049606"><ele>-5.7</ele><time>2011-04-30T13:18:13.0000000+00:00</time></trkpt><trkpt lat="20.955402" lon="107.049606"><ele>-5.8</ele><time>2011-04-30T13:18:18.0000000+00:00</time></trkpt><trkpt lat="20.955402" lon="107.049606"><ele>-5.8</ele><time>2011-04-30T13:18:23.0000000+00:00</time></trkpt><trkpt lat="20.955404" lon="107.049606"><ele>-5.8</ele><time>2011-04-30T13:18:28.0000000+00:00</time></trkpt><trkpt lat="20.955404" lon="107.049606"><ele>-5.8</ele><time>2011-04-30T13:18:33.0000000+00:00</time></trkpt><trkpt lat="20.955402" lon="107.049606"><ele>-5.9</ele><time>2011-04-30T13:18:38.0000000+00:00</time></trkpt><trkpt lat="20.955402" lon="107.049606"><ele>-5.9</ele><time>2011-04-30T13:18:43.0000000+00:00</time></trkpt><trkpt lat="20.955402" lon="107.049606"><ele>-6.0</ele><time>2011-04-30T13:18:48.0000000+00:00</time></trkpt><trkpt lat="20.955402" lon="107.049606"><ele>-6.0</ele><time>2011-04-30T13:18:53.0000000+00:00</time></trkpt><trkpt lat="20.955402" lon="107.049606"><ele>-6.0</ele><time>2011-04-30T13:18:58.0000000+00:00</time></trkpt><trkpt lat="20.955402" lon="107.049606"><ele>-6.1</ele><time>2011-04-30T13:19:03.0000000+00:00</time></trkpt><trkpt lat="20.955404" lon="107.049606"><ele>-6.1</ele><time>2011-04-30T13:19:08.0000000+00:00</time></trkpt><trkpt lat="20.955404" lon="107.049606"><ele>-6.1</ele><time>2011-04-30T13:19:13.0000000+00:00</time></trkpt><trkpt lat="20.955404" lon="107.049606"><ele>-6.1</ele><time>2011-04-30T13:19:18.0000000+00:00</time></trkpt><trkpt lat="20.955404" lon="107.049606"><ele>-6.1</ele><time>2011-04-30T13:19:23.0000000+00:00</time></trkpt><trkpt lat="20.955404" lon="107.049606"><ele>-6.1</ele><time>2011-04-30T13:19:28.0000000+00:00</time></trkpt><trkpt lat="20.955404" lon="107.049606"><ele>-6.1</ele><time>2011-04-30T13:19:33.0000000+00:00</time></trkpt><trkpt lat="20.955404" lon="107.049606"><ele>-6.1</ele><time>2011-04-30T13:19:38.0000000+00:00</time></trkpt><trkpt lat="20.955404" lon="107.049606"><ele>-6.1</ele><time>2011-04-30T13:19:43.0000000+00:00</time></trkpt><trkpt lat="20.955404" lon="107.049606"><ele>-6.1</ele><time>2011-04-30T13:19:48.0000000+00:00</time></trkpt><trkpt lat="20.955404" lon="107.049606"><ele>-6.1</ele><time>2011-04-30T13:19:53.0000000+00:00</time></trkpt><trkpt lat="20.955404" lon="107.049606"><ele>-6.1</ele><time>2011-04-30T13:19:58.0000000+00:00</time></trkpt><trkpt lat="20.955404" lon="107.049606"><ele>-6.2</ele><time>2011-04-30T13:20:03.0000000+00:00</time></trkpt><trkpt lat="20.955404" lon="107.049606"><ele>-6.2</ele><time>2011-04-30T13:20:08.0000000+00:00</time></trkpt><trkpt lat="20.955404" lon="107.049606"><ele>-6.2</ele><time>2011-04-30T13:20:13.0000000+00:00</time></trkpt><trkpt lat="20.955404" lon="107.049606"><ele>-6.2</ele><time>2011-04-30T13:20:18.0000000+00:00</time></trkpt><trkpt lat="20.955404" lon="107.049606"><ele>-6.2</ele><time>2011-04-30T13:20:23.0000000+00:00</time></trkpt><trkpt lat="20.955406" lon="107.049606"><ele>-6.2</ele><time>2011-04-30T13:20:28.0000000+00:00</time></trkpt><trkpt lat="20.955406" lon="107.049606"><ele>-6.3</ele><time>2011-04-30T13:20:33.0000000+00:00</time></trkpt><trkpt lat="20.955406" lon="107.049606"><ele>-6.3</ele><time>2011-04-30T13:20:38.0000000+00:00</time></trkpt><trkpt lat="20.955406" lon="107.049606"><ele>-6.3</ele><time>2011-04-30T13:20:43.0000000+00:00</time></trkpt><trkpt lat="20.955406" lon="107.049606"><ele>-6.3</ele><time>2011-04-30T13:20:48.0000000+00:00</time></trkpt><trkpt lat="20.955406" lon="107.049606"><ele>-6.3</ele><time>2011-04-30T13:20:53.0000000+00:00</time></trkpt><trkpt lat="20.955406" lon="107.049606"><ele>-6.3</ele><time>2011-04-30T13:20:58.0000000+00:00</time></trkpt><trkpt lat="20.955406" lon="107.049606"><ele>-6.3</ele><time>2011-04-30T13:21:03.0000000+00:00</time></trkpt><trkpt lat="20.955406" lon="107.049606"><ele>-6.3</ele><time>2011-04-30T13:21:08.0000000+00:00</time></trkpt><trkpt lat="20.955406" lon="107.049606"><ele>-6.3</ele><time>2011-04-30T13:21:13.0000000+00:00</time></trkpt><trkpt lat="20.955406" lon="107.049606"><ele>-6.3</ele><time>2011-04-30T13:21:18.0000000+00:00</time></trkpt><trkpt lat="20.955406" lon="107.049606"><ele>-6.3</ele><time>2011-04-30T13:21:23.0000000+00:00</time></trkpt><trkpt lat="20.955406" lon="107.049606"><ele>-6.4</ele><time>2011-04-30T13:21:28.0000000+00:00</time></trkpt><trkpt lat="20.955406" lon="107.049606"><ele>-6.4</ele><time>2011-04-30T13:21:33.0000000+00:00</time></trkpt><trkpt lat="20.955406" lon="107.049606"><ele>-6.4</ele><time>2011-04-30T13:21:38.0000000+00:00</time></trkpt><trkpt lat="20.955406" lon="107.049606"><ele>-6.5</ele><time>2011-04-30T13:21:43.0000000+00:00</time></trkpt><trkpt lat="20.955406" lon="107.049606"><ele>-6.5</ele><time>2011-04-30T13:21:48.0000000+00:00</time></trkpt><trkpt lat="20.955406" lon="107.049606"><ele>-6.5</ele><time>2011-04-30T13:21:53.0000000+00:00</time></trkpt><trkpt lat="20.955406" lon="107.049599"><ele>-6.5</ele><time>2011-04-30T13:21:58.0000000+00:00</time></trkpt><trkpt lat="20.955406" lon="107.049599"><ele>-6.6</ele><time>2011-04-30T13:22:03.0000000+00:00</time></trkpt><trkpt lat="20.955406" lon="107.049599"><ele>-6.6</ele><time>2011-04-30T13:22:08.0000000+00:00</time></trkpt><trkpt lat="20.955406" lon="107.049599"><ele>-6.6</ele><time>2011-04-30T13:22:13.0000000+00:00</time></trkpt><trkpt lat="20.955406" lon="107.049599"><ele>-6.6</ele><time>2011-04-30T13:22:18.0000000+00:00</time></trkpt><trkpt lat="20.955406" lon="107.049599"><ele>-6.7</ele><time>2011-04-30T13:22:23.0000000+00:00</time></trkpt><trkpt lat="20.955406" lon="107.049599"><ele>-6.7</ele><time>2011-04-30T13:22:28.0000000+00:00</time></trkpt><trkpt lat="20.955406" lon="107.049599"><ele>-6.7</ele><time>2011-04-30T13:22:33.0000000+00:00</time></trkpt><trkpt lat="20.955406" lon="107.049599"><ele>-6.7</ele><time>2011-04-30T13:22:38.0000000+00:00</time></trkpt><trkpt lat="20.955406" lon="107.049599"><ele>-6.7</ele><time>2011-04-30T13:22:43.0000000+00:00</time></trkpt><trkpt lat="20.955406" lon="107.049599"><ele>-6.7</ele><time>2011-04-30T13:22:48.0000000+00:00</time></trkpt><trkpt lat="20.955406" lon="107.049599"><ele>-6.8</ele><time>2011-04-30T13:22:53.0000000+00:00</time></trkpt><trkpt lat="20.955406" lon="107.049599"><ele>-6.8</ele><time>2011-04-30T13:22:58.0000000+00:00</time></trkpt><trkpt lat="20.955406" lon="107.049599"><ele>-6.8</ele><time>2011-04-30T13:23:03.0000000+00:00</time></trkpt><trkpt lat="20.955406" lon="107.049599"><ele>-6.8</ele><time>2011-04-30T13:23:08.0000000+00:00</time></trkpt><trkpt lat="20.955404" lon="107.049606"><ele>-6.8</ele><time>2011-04-30T13:23:13.0000000+00:00</time></trkpt><trkpt lat="20.955404" lon="107.049606"><ele>-6.9</ele><time>2011-04-30T13:23:18.0000000+00:00</time></trkpt><trkpt lat="20.955402" lon="107.049606"><ele>-6.9</ele><time>2011-04-30T13:23:23.0000000+00:00</time></trkpt><trkpt lat="20.955402" lon="107.049599"><ele>-6.9</ele><time>2011-04-30T13:23:28.0000000+00:00</time></trkpt><trkpt lat="20.955402" lon="107.049599"><ele>-6.9</ele><time>2011-04-30T13:23:33.0000000+00:00</time></trkpt><trkpt lat="20.955402" lon="107.049599"><ele>-6.9</ele><time>2011-04-30T13:23:38.0000000+00:00</time></trkpt><trkpt lat="20.955402" lon="107.049599"><ele>-6.9</ele><time>2011-04-30T13:23:43.0000000+00:00</time></trkpt><trkpt lat="20.955402" lon="107.049606"><ele>-7.0</ele><time>2011-04-30T13:23:48.0000000+00:00</time></trkpt><trkpt lat="20.955402" lon="107.049606"><ele>-7.0</ele><time>2011-04-30T13:23:53.0000000+00:00</time></trkpt><trkpt lat="20.955402" lon="107.049606"><ele>-7.0</ele><time>2011-04-30T13:23:58.0000000+00:00</time></trkpt><trkpt lat="20.955402" lon="107.049606"><ele>-7.0</ele><time>2011-04-30T13:24:03.0000000+00:00</time></trkpt><trkpt lat="20.955402" lon="107.049606"><ele>-7.0</ele><time>2011-04-30T13:24:08.0000000+00:00</time></trkpt><trkpt lat="20.955402" lon="107.049606"><ele>-7.0</ele><time>2011-04-30T13:24:13.0000000+00:00</time></trkpt><trkpt lat="20.955402" lon="107.049606"><ele>-7.0</ele><time>2011-04-30T13:24:18.0000000+00:00</time></trkpt><trkpt lat="20.955402" lon="107.049606"><ele>-7.0</ele><time>2011-04-30T13:24:23.0000000+00:00</time></trkpt><trkpt lat="20.9554" lon="107.049606"><ele>-7.0</ele><time>2011-04-30T13:24:28.0000000+00:00</time></trkpt><trkpt lat="20.9554" lon="107.049606"><ele>-7.0</ele><time>2011-04-30T13:24:33.0000000+00:00</time></trkpt><trkpt lat="20.9554" lon="107.049606"><ele>-7.1</ele><time>2011-04-30T13:24:38.0000000+00:00</time></trkpt><trkpt lat="20.9554" lon="107.049606"><ele>-7.1</ele><time>2011-04-30T13:24:43.0000000+00:00</time></trkpt><trkpt lat="20.9554" lon="107.049606"><ele>-7.1</ele><time>2011-04-30T13:24:48.0000000+00:00</time></trkpt><trkpt lat="20.9554" lon="107.049606"><ele>-7.1</ele><time>2011-04-30T13:24:53.0000000+00:00</time></trkpt><trkpt lat="20.9554" lon="107.049606"><ele>-7.1</ele><time>2011-04-30T13:24:58.0000000+00:00</time></trkpt><trkpt lat="20.9554" lon="107.049606"><ele>-7.1</ele><time>2011-04-30T13:25:03.0000000+00:00</time></trkpt><trkpt lat="20.9554" lon="107.049606"><ele>-7.1</ele><time>2011-04-30T13:25:08.0000000+00:00</time></trkpt><trkpt lat="20.9554" lon="107.049606"><ele>-7.1</ele><time>2011-04-30T13:25:13.0000000+00:00</time></trkpt><trkpt lat="20.9554" lon="107.049606"><ele>-7.1</ele><time>2011-04-30T13:25:18.0000000+00:00</time></trkpt><trkpt lat="20.9554" lon="107.049606"><ele>-7.1</ele><time>2011-04-30T13:25:23.0000000+00:00</time></trkpt><trkpt lat="20.9554" lon="107.049606"><ele>-7.1</ele><time>2011-04-30T13:25:28.0000000+00:00</time></trkpt><trkpt lat="20.9554" lon="107.049606"><ele>-7.0</ele><time>2011-04-30T13:25:33.0000000+00:00</time></trkpt><trkpt lat="20.9554" lon="107.049606"><ele>-7.0</ele><time>2011-04-30T13:25:38.0000000+00:00</time></trkpt><trkpt lat="20.9554" lon="107.049606"><ele>-7.0</ele><time>2011-04-30T13:25:43.0000000+00:00</time></trkpt><trkpt lat="20.955399" lon="107.049606"><ele>-7.0</ele><time>2011-04-30T13:25:48.0000000+00:00</time></trkpt><trkpt lat="20.955399" lon="107.049606"><ele>-7.0</ele><time>2011-04-30T13:25:53.0000000+00:00</time></trkpt><trkpt lat="20.955399" lon="107.049606"><ele>-7.0</ele><time>2011-04-30T13:25:58.0000000+00:00</time></trkpt><trkpt lat="20.955399" lon="107.049606"><ele>-7.0</ele><time>2011-04-30T13:26:03.0000000+00:00</time></trkpt><trkpt lat="20.955399" lon="107.049606"><ele>-7.0</ele><time>2011-04-30T13:26:08.0000000+00:00</time></trkpt><trkpt lat="20.955399" lon="107.049606"><ele>-7.1</ele><time>2011-04-30T13:26:13.0000000+00:00</time></trkpt><trkpt lat="20.955399" lon="107.049606"><ele>-7.1</ele><time>2011-04-30T13:26:18.0000000+00:00</time></trkpt><trkpt lat="20.955399" lon="107.049606"><ele>-7.1</ele><time>2011-04-30T13:26:23.0000000+00:00</time></trkpt><trkpt lat="20.9554" lon="107.049606"><ele>-7.1</ele><time>2011-04-30T13:26:28.0000000+00:00</time></trkpt><trkpt lat="20.9554" lon="107.049606"><ele>-7.1</ele><time>2011-04-30T13:26:33.0000000+00:00</time></trkpt><trkpt lat="20.9554" lon="107.049606"><ele>-7.1</ele><time>2011-04-30T13:26:38.0000000+00:00</time></trkpt><trkpt lat="20.955399" lon="107.049606"><ele>-7.1</ele><time>2011-04-30T13:26:43.0000000+00:00</time></trkpt><trkpt lat="20.955399" lon="107.049606"><ele>-7.1</ele><time>2011-04-30T13:26:48.0000000+00:00</time></trkpt><trkpt lat="20.955399" lon="107.049606"><ele>-7.1</ele><time>2011-04-30T13:26:53.0000000+00:00</time></trkpt><trkpt lat="20.9554" lon="107.049606"><ele>-7.1</ele><time>2011-04-30T13:26:58.0000000+00:00</time></trkpt><trkpt lat="20.9554" lon="107.049606"><ele>-7.1</ele><time>2011-04-30T13:27:03.0000000+00:00</time></trkpt><trkpt lat="20.9554" lon="107.049606"><ele>-7.1</ele><time>2011-04-30T13:27:08.0000000+00:00</time></trkpt><trkpt lat="20.9554" lon="107.049606"><ele>-7.1</ele><time>2011-04-30T13:27:13.0000000+00:00</time></trkpt><trkpt lat="20.9554" lon="107.049606"><ele>-7.1</ele><time>2011-04-30T13:27:18.0000000+00:00</time></trkpt><trkpt lat="20.9554" lon="107.049606"><ele>-7.1</ele><time>2011-04-30T13:27:23.0000000+00:00</time></trkpt><trkpt lat="20.9554" lon="107.049606"><ele>-7.1</ele><time>2011-04-30T13:27:28.0000000+00:00</time></trkpt><trkpt lat="20.9554" lon="107.049606"><ele>-7.2</ele><time>2011-04-30T13:27:33.0000000+00:00</time></trkpt><trkpt lat="20.9554" lon="107.049606"><ele>-7.1</ele><time>2011-04-30T13:27:38.0000000+00:00</time></trkpt><trkpt lat="20.9554" lon="107.049606"><ele>-7.1</ele><time>2011-04-30T13:27:43.0000000+00:00</time></trkpt><trkpt lat="20.9554" lon="107.049606"><ele>-7.1</ele><time>2011-04-30T13:27:48.0000000+00:00</time></trkpt><trkpt lat="20.9554" lon="107.049606"><ele>-7.1</ele><time>2011-04-30T13:27:53.0000000+00:00</time></trkpt><trkpt lat="20.9554" lon="107.049606"><ele>-7.1</ele><time>2011-04-30T13:27:58.0000000+00:00</time></trkpt><trkpt lat="20.9554" lon="107.049606"><ele>-7.1</ele><time>2011-04-30T13:28:03.0000000+00:00</time></trkpt><trkpt lat="20.9554" lon="107.049606"><ele>-7.1</ele><time>2011-04-30T13:28:08.0000000+00:00</time></trkpt><trkpt lat="20.9554" lon="107.049606"><ele>-7.1</ele><time>2011-04-30T13:28:13.0000000+00:00</time></trkpt><trkpt lat="20.9554" lon="107.049606"><ele>-7.0</ele><time>2011-04-30T13:28:18.0000000+00:00</time></trkpt><trkpt lat="20.9554" lon="107.049606"><ele>-7.0</ele><time>2011-04-30T13:28:23.0000000+00:00</time></trkpt><trkpt lat="20.9554" lon="107.049606"><ele>-6.9</ele><time>2011-04-30T13:28:28.0000000+00:00</time></trkpt><trkpt lat="20.955399" lon="107.049606"><ele>-6.8</ele><time>2011-04-30T13:28:33.0000000+00:00</time></trkpt><trkpt lat="20.955399" lon="107.049606"><ele>-6.7</ele><time>2011-04-30T13:28:38.0000000+00:00</time></trkpt><trkpt lat="20.955399" lon="107.049606"><ele>-6.6</ele><time>2011-04-30T13:28:43.0000000+00:00</time></trkpt><trkpt lat="20.955399" lon="107.049606"><ele>-6.5</ele><time>2011-04-30T13:28:48.0000000+00:00</time></trkpt><trkpt lat="20.955399" lon="107.049606"><ele>-6.4</ele><time>2011-04-30T13:28:53.0000000+00:00</time></trkpt><trkpt lat="20.955399" lon="107.049606"><ele>-6.4</ele><time>2011-04-30T13:28:58.0000000+00:00</time></trkpt><trkpt lat="20.955399" lon="107.049606"><ele>-6.3</ele><time>2011-04-30T13:29:03.0000000+00:00</time></trkpt><trkpt lat="20.955399" lon="107.049606"><ele>-6.3</ele><time>2011-04-30T13:29:08.0000000+00:00</time></trkpt><trkpt lat="20.955399" lon="107.049606"><ele>-6.2</ele><time>2011-04-30T13:29:13.0000000+00:00</time></trkpt><trkpt lat="20.955399" lon="107.049606"><ele>-6.2</ele><time>2011-04-30T13:29:18.0000000+00:00</time></trkpt><trkpt lat="20.955399" lon="107.049606"><ele>-6.1</ele><time>2011-04-30T13:29:23.0000000+00:00</time></trkpt><trkpt lat="20.955397" lon="107.049606"><ele>-6.1</ele><time>2011-04-30T13:29:28.0000000+00:00</time></trkpt><trkpt lat="20.955397" lon="107.049614"><ele>-6.0</ele><time>2011-04-30T13:29:33.0000000+00:00</time></trkpt><trkpt lat="20.955397" lon="107.049614"><ele>-6.0</ele><time>2011-04-30T13:29:38.0000000+00:00</time></trkpt><trkpt lat="20.955397" lon="107.049614"><ele>-5.9</ele><time>2011-04-30T13:29:43.0000000+00:00</time></trkpt><trkpt lat="20.955395" lon="107.049614"><ele>-5.9</ele><time>2011-04-30T13:29:48.0000000+00:00</time></trkpt><trkpt lat="20.955395" lon="107.049614"><ele>-5.8</ele><time>2011-04-30T13:29:53.0000000+00:00</time></trkpt><trkpt lat="20.955395" lon="107.049614"><ele>-5.7</ele><time>2011-04-30T13:29:58.0000000+00:00</time></trkpt><trkpt lat="20.955395" lon="107.049614"><ele>-5.7</ele><time>2011-04-30T13:30:03.0000000+00:00</time></trkpt><trkpt lat="20.955395" lon="107.049614"><ele>-5.6</ele><time>2011-04-30T13:30:08.0000000+00:00</time></trkpt><trkpt lat="20.955395" lon="107.049614"><ele>-5.6</ele><time>2011-04-30T13:30:13.0000000+00:00</time></trkpt><trkpt lat="20.955395" lon="107.049614"><ele>-5.5</ele><time>2011-04-30T13:30:18.0000000+00:00</time></trkpt><trkpt lat="20.955395" lon="107.049614"><ele>-5.5</ele><time>2011-04-30T13:30:23.0000000+00:00</time></trkpt><trkpt lat="20.955393" lon="107.049614"><ele>-5.5</ele><time>2011-04-30T13:30:28.0000000+00:00</time></trkpt><trkpt lat="20.955393" lon="107.049614"><ele>-5.5</ele><time>2011-04-30T13:30:33.0000000+00:00</time></trkpt><trkpt lat="20.955393" lon="107.049614"><ele>-5.5</ele><time>2011-04-30T13:30:38.0000000+00:00</time></trkpt><trkpt lat="20.955393" lon="107.049614"><ele>-5.4</ele><time>2011-04-30T13:30:43.0000000+00:00</time></trkpt><trkpt lat="20.955393" lon="107.049614"><ele>-5.4</ele><time>2011-04-30T13:30:48.0000000+00:00</time></trkpt><trkpt lat="20.955391" lon="107.049614"><ele>-5.3</ele><time>2011-04-30T13:30:53.0000000+00:00</time></trkpt><trkpt lat="20.955391" lon="107.049614"><ele>-5.3</ele><time>2011-04-30T13:30:58.0000000+00:00</time></trkpt><trkpt lat="20.955391" lon="107.049614"><ele>-5.3</ele><time>2011-04-30T13:31:03.0000000+00:00</time></trkpt><trkpt lat="20.955399" lon="107.049614"><ele>-5.2</ele><time>2011-04-30T13:31:08.0000000+00:00</time></trkpt><trkpt lat="20.955418" lon="107.049606"><ele>-5.5</ele><time>2011-04-30T13:31:13.0000000+00:00</time></trkpt><trkpt lat="20.955431" lon="107.049606"><ele>-5.4</ele><time>2011-04-30T13:31:18.0000000+00:00</time></trkpt><trkpt lat="20.955454" lon="107.049614"><ele>-4.5</ele><time>2011-04-30T13:31:23.0000000+00:00</time></trkpt><trkpt lat="20.955439" lon="107.049606"><ele>-5.2</ele><time>2011-04-30T13:31:28.0000000+00:00</time></trkpt><trkpt lat="20.955441" lon="107.049606"><ele>-4.9</ele><time>2011-04-30T13:31:33.0000000+00:00</time></trkpt><trkpt lat="20.955439" lon="107.049599"><ele>-5.6</ele><time>2011-04-30T13:31:38.0000000+00:00</time></trkpt><trkpt lat="20.955435" lon="107.049583"><ele>-6.5</ele><time>2011-04-30T13:31:43.0000000+00:00</time></trkpt><trkpt lat="20.955433" lon="107.049576"><ele>-6.5</ele><time>2011-04-30T13:31:48.0000000+00:00</time></trkpt><trkpt lat="20.955446" lon="107.049561"><ele>-6.5</ele><time>2011-04-30T13:31:53.0000000+00:00</time></trkpt><trkpt lat="20.955469" lon="107.049583"><ele>-5.3</ele><time>2011-04-30T13:31:58.0000000+00:00</time></trkpt><trkpt lat="20.955496" lon="107.049583"><ele>-4.2</ele><time>2011-04-30T13:32:03.0000000+00:00</time></trkpt><trkpt lat="20.955515" lon="107.049576"><ele>-3.2</ele><time>2011-04-30T13:32:08.0000000+00:00</time></trkpt><trkpt lat="20.955538" lon="107.049553"><ele>-1.9</ele><time>2011-04-30T13:32:13.0000000+00:00</time></trkpt><trkpt lat="20.955572" lon="107.04953"><ele>-0.2</ele><time>2011-04-30T13:32:18.0000000+00:00</time></trkpt><trkpt lat="20.955616" lon="107.049515"><ele>0.4</ele><time>2011-04-30T13:32:23.0000000+00:00</time></trkpt><trkpt lat="20.955635" lon="107.049522"><ele>0.6</ele><time>2011-04-30T13:32:28.0000000+00:00</time></trkpt><trkpt lat="20.955656" lon="107.049515"><ele>-0.1</ele><time>2011-04-30T13:32:33.0000000+00:00</time></trkpt><trkpt lat="20.95569" lon="107.049484"><ele>-0.5</ele><time>2011-04-30T13:32:38.0000000+00:00</time></trkpt><trkpt lat="20.955717" lon="107.049461"><ele>-0.2</ele><time>2011-04-30T13:32:43.0000000+00:00</time></trkpt><trkpt lat="20.95574" lon="107.049423"><ele>-0.2</ele><time>2011-04-30T13:32:48.0000000+00:00</time></trkpt><trkpt lat="20.955753" lon="107.049393"><ele>0.2</ele><time>2011-04-30T13:32:53.0000000+00:00</time></trkpt><trkpt lat="20.955812" lon="107.04937"><ele>-1.7</ele><time>2011-04-30T13:32:58.0000000+00:00</time></trkpt><trkpt lat="20.955839" lon="107.049355"><ele>-1.2</ele><time>2011-04-30T13:33:03.0000000+00:00</time></trkpt><trkpt lat="20.955851" lon="107.049339"><ele>-0.3</ele><time>2011-04-30T13:33:08.0000000+00:00</time></trkpt><trkpt lat="20.955885" lon="107.049339"><ele>0.7</ele><time>2011-04-30T13:33:13.0000000+00:00</time></trkpt><trkpt lat="20.955938" lon="107.049362"><ele>0.8</ele><time>2011-04-30T13:33:18.0000000+00:00</time></trkpt><trkpt lat="20.955984" lon="107.049393"><ele>-0.0</ele><time>2011-04-30T13:33:23.0000000+00:00</time></trkpt><trkpt lat="20.95602" lon="107.049416"><ele>0.8</ele><time>2011-04-30T13:33:28.0000000+00:00</time></trkpt><trkpt lat="20.956055" lon="107.049431"><ele>2.3</ele><time>2011-04-30T13:33:33.0000000+00:00</time></trkpt><trkpt lat="20.956068" lon="107.049438"><ele>3.0</ele><time>2011-04-30T13:33:38.0000000+00:00</time></trkpt><trkpt lat="20.956099" lon="107.049454"><ele>4.6</ele><time>2011-04-30T13:33:43.0000000+00:00</time></trkpt><trkpt lat="20.956127" lon="107.049469"><ele>7.0</ele><time>2011-04-30T13:33:48.0000000+00:00</time></trkpt><trkpt lat="20.95615" lon="107.049484"><ele>8.5</ele><time>2011-04-30T13:33:53.0000000+00:00</time></trkpt><trkpt lat="20.956184" lon="107.049522"><ele>9.8</ele><time>2011-04-30T13:33:58.0000000+00:00</time></trkpt><trkpt lat="20.956213" lon="107.049553"><ele>10.3</ele><time>2011-04-30T13:34:03.0000000+00:00</time></trkpt><trkpt lat="20.956226" lon="107.049599"><ele>10.4</ele><time>2011-04-30T13:34:08.0000000+00:00</time></trkpt><trkpt lat="20.956244" lon="107.049667"><ele>8.7</ele><time>2011-04-30T13:34:13.0000000+00:00</time></trkpt><trkpt lat="20.956284" lon="107.049698"><ele>7.4</ele><time>2011-04-30T13:34:18.0000000+00:00</time></trkpt><trkpt lat="20.956327" lon="107.049698"><ele>6.1</ele><time>2011-04-30T13:34:23.0000000+00:00</time></trkpt><trkpt lat="20.956345" lon="107.04969"><ele>4.9</ele><time>2011-04-30T13:34:28.0000000+00:00</time></trkpt><trkpt lat="20.956383" lon="107.04969"><ele>5.3</ele><time>2011-04-30T13:34:33.0000000+00:00</time></trkpt><trkpt lat="20.956387" lon="107.04969"><ele>5.6</ele><time>2011-04-30T13:34:38.0000000+00:00</time></trkpt><trkpt lat="20.956425" lon="107.049706"><ele>5.1</ele><time>2011-04-30T13:34:43.0000000+00:00</time></trkpt><trkpt lat="20.95647" lon="107.049736"><ele>4.1</ele><time>2011-04-30T13:34:48.0000000+00:00</time></trkpt><trkpt lat="20.956507" lon="107.049751"><ele>2.3</ele><time>2011-04-30T13:34:53.0000000+00:00</time></trkpt><trkpt lat="20.956549" lon="107.049767"><ele>1.1</ele><time>2011-04-30T13:34:58.0000000+00:00</time></trkpt><trkpt lat="20.956579" lon="107.049782"><ele>2.1</ele><time>2011-04-30T13:35:03.0000000+00:00</time></trkpt><trkpt lat="20.956606" lon="107.049767"><ele>2.4</ele><time>2011-04-30T13:35:08.0000000+00:00</time></trkpt><trkpt lat="20.956654" lon="107.049789"><ele>1.5</ele><time>2011-04-30T13:35:13.0000000+00:00</time></trkpt><trkpt lat="20.956688" lon="107.049812"><ele>2.4</ele><time>2011-04-30T13:35:18.0000000+00:00</time></trkpt><trkpt lat="20.95673" lon="107.04985"><ele>3.7</ele><time>2011-04-30T13:35:23.0000000+00:00</time></trkpt><trkpt lat="20.956785" lon="107.049889"><ele>4.6</ele><time>2011-04-30T13:35:28.0000000+00:00</time></trkpt><trkpt lat="20.956831" lon="107.049934"><ele>6.3</ele><time>2011-04-30T13:35:33.0000000+00:00</time></trkpt><trkpt lat="20.956861" lon="107.04998"><ele>10.9</ele><time>2011-04-30T13:35:38.0000000+00:00</time></trkpt><trkpt lat="20.95689" lon="107.050034"><ele>14.8</ele><time>2011-04-30T13:35:43.0000000+00:00</time></trkpt><trkpt lat="20.95693" lon="107.050079"><ele>19.5</ele><time>2011-04-30T13:35:48.0000000+00:00</time></trkpt><trkpt lat="20.956968" lon="107.050117"><ele>23.3</ele><time>2011-04-30T13:35:53.0000000+00:00</time></trkpt><trkpt lat="20.956995" lon="107.050125"><ele>28.3</ele><time>2011-04-30T13:35:58.0000000+00:00</time></trkpt><trkpt lat="20.95701" lon="107.050148"><ele>30.0</ele><time>2011-04-30T13:36:03.0000000+00:00</time></trkpt><trkpt lat="20.957054" lon="107.050125"><ele>31.5</ele><time>2011-04-30T13:36:08.0000000+00:00</time></trkpt><trkpt lat="20.957098" lon="107.050087"><ele>34.5</ele><time>2011-04-30T13:36:13.0000000+00:00</time></trkpt><trkpt lat="20.957094" lon="107.050087"><ele>35.1</ele><time>2011-04-30T13:36:18.0000000+00:00</time></trkpt><trkpt lat="20.957106" lon="107.050102"><ele>36.1</ele><time>2011-04-30T13:36:23.0000000+00:00</time></trkpt><trkpt lat="20.957153" lon="107.05011"><ele>37.7</ele><time>2011-04-30T13:36:28.0000000+00:00</time></trkpt><trkpt lat="20.957155" lon="107.050125"><ele>38.5</ele><time>2011-04-30T13:36:33.0000000+00:00</time></trkpt><trkpt lat="20.95719" lon="107.050125"><ele>36.6</ele><time>2011-04-30T13:36:38.0000000+00:00</time></trkpt><trkpt lat="20.957247" lon="107.050163"><ele>37.0</ele><time>2011-04-30T13:36:43.0000000+00:00</time></trkpt><trkpt lat="20.957256" lon="107.050171"><ele>37.0</ele><time>2011-04-30T13:36:48.0000000+00:00</time></trkpt><trkpt lat="20.957262" lon="107.050186"><ele>36.5</ele><time>2011-04-30T13:36:53.0000000+00:00</time></trkpt><trkpt lat="20.957281" lon="107.050209"><ele>35.3</ele><time>2011-04-30T13:36:58.0000000+00:00</time></trkpt><trkpt lat="20.957291" lon="107.050209"><ele>34.8</ele><time>2011-04-30T13:37:03.0000000+00:00</time></trkpt><trkpt lat="20.957298" lon="107.050217"><ele>34.4</ele><time>2011-04-30T13:37:08.0000000+00:00</time></trkpt><trkpt lat="20.957293" lon="107.050217"><ele>33.9</ele><time>2011-04-30T13:37:13.0000000+00:00</time></trkpt><trkpt lat="20.9573" lon="107.050224"><ele>33.0</ele><time>2011-04-30T13:37:18.0000000+00:00</time></trkpt><trkpt lat="20.957294" lon="107.050232"><ele>32.3</ele><time>2011-04-30T13:37:23.0000000+00:00</time></trkpt><trkpt lat="20.957293" lon="107.050232"><ele>31.8</ele><time>2011-04-30T13:37:28.0000000+00:00</time></trkpt><trkpt lat="20.957291" lon="107.05024"><ele>31.4</ele><time>2011-04-30T13:37:33.0000000+00:00</time></trkpt><trkpt lat="20.957291" lon="107.05024"><ele>30.9</ele><time>2011-04-30T13:37:38.0000000+00:00</time></trkpt><trkpt lat="20.957273" lon="107.050224"><ele>29.3</ele><time>2011-04-30T13:37:43.0000000+00:00</time></trkpt><trkpt lat="20.957266" lon="107.050217"><ele>28.4</ele><time>2011-04-30T13:37:48.0000000+00:00</time></trkpt><trkpt lat="20.957279" lon="107.05024"><ele>26.8</ele><time>2011-04-30T13:37:53.0000000+00:00</time></trkpt><trkpt lat="20.957291" lon="107.050255"><ele>27.3</ele><time>2011-04-30T13:37:58.0000000+00:00</time></trkpt><trkpt lat="20.957308" lon="107.050255"><ele>28.2</ele><time>2011-04-30T13:38:03.0000000+00:00</time></trkpt><trkpt lat="20.957312" lon="107.050262"><ele>28.3</ele><time>2011-04-30T13:38:08.0000000+00:00</time></trkpt><trkpt lat="20.95731" lon="107.050262"><ele>28.3</ele><time>2011-04-30T13:38:13.0000000+00:00</time></trkpt><trkpt lat="20.95731" lon="107.050262"><ele>28.2</ele><time>2011-04-30T13:38:18.0000000+00:00</time></trkpt><trkpt lat="20.95731" lon="107.05027"><ele>28.3</ele><time>2011-04-30T13:38:23.0000000+00:00</time></trkpt><trkpt lat="20.957308" lon="107.050278"><ele>28.4</ele><time>2011-04-30T13:38:28.0000000+00:00</time></trkpt><trkpt lat="20.957306" lon="107.050285"><ele>28.4</ele><time>2011-04-30T13:38:33.0000000+00:00</time></trkpt><trkpt lat="20.957304" lon="107.050293"><ele>28.4</ele><time>2011-04-30T13:38:38.0000000+00:00</time></trkpt><trkpt lat="20.957298" lon="107.050301"><ele>28.5</ele><time>2011-04-30T13:38:43.0000000+00:00</time></trkpt><trkpt lat="20.957293" lon="107.050301"><ele>28.6</ele><time>2011-04-30T13:38:48.0000000+00:00</time></trkpt><trkpt lat="20.957306" lon="107.050331"><ele>28.7</ele><time>2011-04-30T13:38:53.0000000+00:00</time></trkpt><trkpt lat="20.957308" lon="107.050346"><ele>28.7</ele><time>2011-04-30T13:38:58.0000000+00:00</time></trkpt><trkpt lat="20.957306" lon="107.050354"><ele>28.7</ele><time>2011-04-30T13:39:03.0000000+00:00</time></trkpt><trkpt lat="20.95731" lon="107.050392"><ele>28.6</ele><time>2011-04-30T13:39:08.0000000+00:00</time></trkpt><trkpt lat="20.957336" lon="107.050507"><ele>28.5</ele><time>2011-04-30T13:39:13.0000000+00:00</time></trkpt><trkpt lat="20.957342" lon="107.050613"><ele>28.5</ele><time>2011-04-30T13:39:18.0000000+00:00</time></trkpt><trkpt lat="20.957327" lon="107.050636"><ele>28.4</ele><time>2011-04-30T13:39:23.0000000+00:00</time></trkpt><trkpt lat="20.957302" lon="107.050636"><ele>28.3</ele><time>2011-04-30T13:39:28.0000000+00:00</time></trkpt><trkpt lat="20.957279" lon="107.050621"><ele>28.2</ele><time>2011-04-30T13:39:33.0000000+00:00</time></trkpt><trkpt lat="20.957243" lon="107.050644"><ele>28.2</ele><time>2011-04-30T13:39:38.0000000+00:00</time></trkpt><trkpt lat="20.957232" lon="107.050652"><ele>28.1</ele><time>2011-04-30T13:39:43.0000000+00:00</time></trkpt><trkpt lat="20.957207" lon="107.050652"><ele>28.1</ele><time>2011-04-30T13:39:48.0000000+00:00</time></trkpt><trkpt lat="20.957195" lon="107.050629"><ele>28.1</ele><time>2011-04-30T13:39:53.0000000+00:00</time></trkpt><trkpt lat="20.957203" lon="107.050621"><ele>28.1</ele><time>2011-04-30T13:39:58.0000000+00:00</time></trkpt><trkpt lat="20.957195" lon="107.050613"><ele>28.2</ele><time>2011-04-30T13:40:03.0000000+00:00</time></trkpt><trkpt lat="20.957191" lon="107.050606"><ele>28.2</ele><time>2011-04-30T13:40:08.0000000+00:00</time></trkpt><trkpt lat="20.957191" lon="107.050598"><ele>28.2</ele><time>2011-04-30T13:40:13.0000000+00:00</time></trkpt><trkpt lat="20.957191" lon="107.050591"><ele>28.2</ele><time>2011-04-30T13:40:18.0000000+00:00</time></trkpt><trkpt lat="20.957193" lon="107.050591"><ele>28.3</ele><time>2011-04-30T13:40:23.0000000+00:00</time></trkpt><trkpt lat="20.957197" lon="107.050591"><ele>28.3</ele><time>2011-04-30T13:40:28.0000000+00:00</time></trkpt><trkpt lat="20.957197" lon="107.050591"><ele>28.3</ele><time>2011-04-30T13:40:33.0000000+00:00</time></trkpt><trkpt lat="20.957199" lon="107.050598"><ele>28.3</ele><time>2011-04-30T13:40:38.0000000+00:00</time></trkpt><trkpt lat="20.957199" lon="107.050598"><ele>28.4</ele><time>2011-04-30T13:40:43.0000000+00:00</time></trkpt><trkpt lat="20.957197" lon="107.050606"><ele>28.4</ele><time>2011-04-30T13:40:48.0000000+00:00</time></trkpt><trkpt lat="20.957193" lon="107.050613"><ele>28.4</ele><time>2011-04-30T13:40:53.0000000+00:00</time></trkpt><trkpt lat="20.957191" lon="107.050621"><ele>28.5</ele><time>2011-04-30T13:40:58.0000000+00:00</time></trkpt><trkpt lat="20.957197" lon="107.050629"><ele>28.5</ele><time>2011-04-30T13:41:03.0000000+00:00</time></trkpt><trkpt lat="20.957199" lon="107.050629"><ele>28.5</ele><time>2011-04-30T13:41:08.0000000+00:00</time></trkpt><trkpt lat="20.957203" lon="107.050613"><ele>28.5</ele><time>2011-04-30T13:41:13.0000000+00:00</time></trkpt><trkpt lat="20.957209" lon="107.050545"><ele>28.8</ele><time>2011-04-30T13:41:18.0000000+00:00</time></trkpt><trkpt lat="20.957214" lon="107.050499"><ele>29.0</ele><time>2011-04-30T13:41:23.0000000+00:00</time></trkpt><trkpt lat="20.95722" lon="107.050514"><ele>29.3</ele><time>2011-04-30T13:41:28.0000000+00:00</time></trkpt><trkpt lat="20.957226" lon="107.050537"><ele>29.5</ele><time>2011-04-30T13:41:33.0000000+00:00</time></trkpt><trkpt lat="20.957228" lon="107.050537"><ele>29.6</ele><time>2011-04-30T13:41:38.0000000+00:00</time></trkpt><trkpt lat="20.957232" lon="107.050537"><ele>29.7</ele><time>2011-04-30T13:41:43.0000000+00:00</time></trkpt><trkpt lat="20.957228" lon="107.050545"><ele>29.8</ele><time>2011-04-30T13:41:48.0000000+00:00</time></trkpt><trkpt lat="20.957218" lon="107.050537"><ele>29.9</ele><time>2011-04-30T13:41:53.0000000+00:00</time></trkpt><trkpt lat="20.95718" lon="107.050552"><ele>29.9</ele><time>2011-04-30T13:41:58.0000000+00:00</time></trkpt><trkpt lat="20.957167" lon="107.050545"><ele>29.9</ele><time>2011-04-30T13:42:03.0000000+00:00</time></trkpt><trkpt lat="20.957167" lon="107.050552"><ele>29.5</ele><time>2011-04-30T13:42:08.0000000+00:00</time></trkpt><trkpt lat="20.957159" lon="107.050552"><ele>29.3</ele><time>2011-04-30T13:42:13.0000000+00:00</time></trkpt><trkpt lat="20.95715" lon="107.050552"><ele>29.3</ele><time>2011-04-30T13:42:18.0000000+00:00</time></trkpt><trkpt lat="20.957144" lon="107.05056"><ele>29.3</ele><time>2011-04-30T13:42:23.0000000+00:00</time></trkpt><trkpt lat="20.957142" lon="107.05056"><ele>29.3</ele><time>2011-04-30T13:42:28.0000000+00:00</time></trkpt><trkpt lat="20.957146" lon="107.05056"><ele>29.3</ele><time>2011-04-30T13:42:33.0000000+00:00</time></trkpt><trkpt lat="20.957153" lon="107.050552"><ele>29.3</ele><time>2011-04-30T13:42:38.0000000+00:00</time></trkpt><trkpt lat="20.957163" lon="107.050552"><ele>29.4</ele><time>2011-04-30T13:42:43.0000000+00:00</time></trkpt><trkpt lat="20.95717" lon="107.050545"><ele>29.5</ele><time>2011-04-30T13:42:48.0000000+00:00</time></trkpt><trkpt lat="20.957172" lon="107.050545"><ele>29.6</ele><time>2011-04-30T13:42:53.0000000+00:00</time></trkpt><trkpt lat="20.957191" lon="107.05056"><ele>29.6</ele><time>2011-04-30T13:42:58.0000000+00:00</time></trkpt><trkpt lat="20.95723" lon="107.050591"><ele>29.7</ele><time>2011-04-30T13:43:03.0000000+00:00</time></trkpt><trkpt lat="20.957266" lon="107.050621"><ele>29.8</ele><time>2011-04-30T13:43:08.0000000+00:00</time></trkpt><trkpt lat="20.960104" lon="107.050331"><ele>29.4</ele><time>2011-04-30T13:44:20.0000000+00:00</time></trkpt><trkpt lat="20.957525" lon="107.050301"><ele>29.2</ele><time>2011-04-30T13:44:25.0000000+00:00</time></trkpt><trkpt lat="20.95726" lon="107.050362"><ele>28.9</ele><time>2011-04-30T13:44:30.0000000+00:00</time></trkpt><trkpt lat="20.957096" lon="107.050461"><ele>28.9</ele><time>2011-04-30T13:44:35.0000000+00:00</time></trkpt><trkpt lat="20.957067" lon="107.050621"><ele>28.3</ele><time>2011-04-30T13:44:40.0000000+00:00</time></trkpt><trkpt lat="20.95715" lon="107.050598"><ele>28.4</ele><time>2011-04-30T13:44:45.0000000+00:00</time></trkpt><trkpt lat="20.957188" lon="107.050575"><ele>28.2</ele><time>2011-04-30T13:44:50.0000000+00:00</time></trkpt><trkpt lat="20.957182" lon="107.050575"><ele>28.2</ele><time>2011-04-30T13:44:55.0000000+00:00</time></trkpt><trkpt lat="20.957186" lon="107.050575"><ele>28.2</ele><time>2011-04-30T13:45:00.0000000+00:00</time></trkpt><trkpt lat="20.957186" lon="107.050568"><ele>28.2</ele><time>2011-04-30T13:45:05.0000000+00:00</time></trkpt><trkpt lat="20.957184" lon="107.050568"><ele>28.1</ele><time>2011-04-30T13:45:10.0000000+00:00</time></trkpt><trkpt lat="20.957178" lon="107.05056"><ele>28.1</ele><time>2011-04-30T13:45:15.0000000+00:00</time></trkpt><trkpt lat="20.957172" lon="107.050552"><ele>28.0</ele><time>2011-04-30T13:45:20.0000000+00:00</time></trkpt><trkpt lat="20.957163" lon="107.050529"><ele>27.5</ele><time>2011-04-30T13:45:25.0000000+00:00</time></trkpt><trkpt lat="20.957123" lon="107.050522"><ele>27.0</ele><time>2011-04-30T13:45:30.0000000+00:00</time></trkpt><trkpt lat="20.957108" lon="107.050499"><ele>26.0</ele><time>2011-04-30T13:45:35.0000000+00:00</time></trkpt><trkpt lat="20.95709" lon="107.050453"><ele>25.2</ele><time>2011-04-30T13:45:40.0000000+00:00</time></trkpt><trkpt lat="20.957073" lon="107.050415"><ele>24.7</ele><time>2011-04-30T13:45:45.0000000+00:00</time></trkpt><trkpt lat="20.957067" lon="107.0504"><ele>24.6</ele><time>2011-04-30T13:45:50.0000000+00:00</time></trkpt><trkpt lat="20.957048" lon="107.050415"><ele>24.6</ele><time>2011-04-30T13:45:55.0000000+00:00</time></trkpt><trkpt lat="20.957018" lon="107.050392"><ele>24.6</ele><time>2011-04-30T13:46:00.0000000+00:00</time></trkpt><trkpt lat="20.956972" lon="107.050331"><ele>24.6</ele><time>2011-04-30T13:46:05.0000000+00:00</time></trkpt><trkpt lat="20.956974" lon="107.050293"><ele>24.3</ele><time>2011-04-30T13:46:10.0000000+00:00</time></trkpt><trkpt lat="20.957085" lon="107.050285"><ele>23.8</ele><time>2011-04-30T13:46:15.0000000+00:00</time></trkpt><trkpt lat="20.957197" lon="107.050186"><ele>23.0</ele><time>2011-04-30T13:46:20.0000000+00:00</time></trkpt><trkpt lat="20.957279" lon="107.050056"><ele>20.9</ele><time>2011-04-30T13:46:25.0000000+00:00</time></trkpt><trkpt lat="20.957296" lon="107.049957"><ele>17.0</ele><time>2011-04-30T13:46:30.0000000+00:00</time></trkpt><trkpt lat="20.957369" lon="107.04985"><ele>14.0</ele><time>2011-04-30T13:46:35.0000000+00:00</time></trkpt><trkpt lat="20.957415" lon="107.04982"><ele>11.3</ele><time>2011-04-30T13:46:40.0000000+00:00</time></trkpt><trkpt lat="20.957441" lon="107.049881"><ele>9.4</ele><time>2011-04-30T13:46:45.0000000+00:00</time></trkpt><trkpt lat="20.957447" lon="107.050011"><ele>6.7</ele><time>2011-04-30T13:46:50.0000000+00:00</time></trkpt><trkpt lat="20.957436" lon="107.050034"><ele>4.9</ele><time>2011-04-30T13:46:55.0000000+00:00</time></trkpt><trkpt lat="20.957434" lon="107.050049"><ele>3.2</ele><time>2011-04-30T13:47:00.0000000+00:00</time></trkpt><trkpt lat="20.957432" lon="107.050064"><ele>1.4</ele><time>2011-04-30T13:47:05.0000000+00:00</time></trkpt><trkpt lat="20.95743" lon="107.050102"><ele>-0.5</ele><time>2011-04-30T13:47:10.0000000+00:00</time></trkpt><trkpt lat="20.957464" lon="107.050171"><ele>-1.4</ele><time>2011-04-30T13:47:15.0000000+00:00</time></trkpt><trkpt lat="20.95747" lon="107.050194"><ele>-2.7</ele><time>2011-04-30T13:47:20.0000000+00:00</time></trkpt><trkpt lat="20.957514" lon="107.050262"><ele>-3.5</ele><time>2011-04-30T13:47:25.0000000+00:00</time></trkpt><trkpt lat="20.957561" lon="107.050308"><ele>-3.9</ele><time>2011-04-30T13:47:30.0000000+00:00</time></trkpt><trkpt lat="20.957603" lon="107.050308"><ele>-3.8</ele><time>2011-04-30T13:47:35.0000000+00:00</time></trkpt><trkpt lat="20.957546" lon="107.050415"><ele>-2.3</ele><time>2011-04-30T13:47:40.0000000+00:00</time></trkpt><trkpt lat="20.9575" lon="107.050507"><ele>-1.3</ele><time>2011-04-30T13:47:45.0000000+00:00</time></trkpt><trkpt lat="20.957468" lon="107.050568"><ele>-0.5</ele><time>2011-04-30T13:47:50.0000000+00:00</time></trkpt><trkpt lat="20.957466" lon="107.050537"><ele>0.8</ele><time>2011-04-30T13:47:55.0000000+00:00</time></trkpt><trkpt lat="20.957434" lon="107.050507"><ele>5.5</ele><time>2011-04-30T13:48:00.0000000+00:00</time></trkpt><trkpt lat="20.957455" lon="107.050522"><ele>11.3</ele><time>2011-04-30T13:48:05.0000000+00:00</time></trkpt><trkpt lat="20.957424" lon="107.050522"><ele>17.6</ele><time>2011-04-30T13:48:10.0000000+00:00</time></trkpt><trkpt lat="20.957388" lon="107.050537"><ele>23.7</ele><time>2011-04-30T13:48:15.0000000+00:00</time></trkpt><trkpt lat="20.957357" lon="107.050514"><ele>28.7</ele><time>2011-04-30T13:48:20.0000000+00:00</time></trkpt><trkpt lat="20.95739" lon="107.050446"><ele>32.1</ele><time>2011-04-30T13:48:25.0000000+00:00</time></trkpt><trkpt lat="20.957411" lon="107.050392"><ele>34.5</ele><time>2011-04-30T13:48:30.0000000+00:00</time></trkpt><trkpt lat="20.957407" lon="107.050392"><ele>35.2</ele><time>2011-04-30T13:48:35.0000000+00:00</time></trkpt><trkpt lat="20.95743" lon="107.050407"><ele>35.2</ele><time>2011-04-30T13:48:40.0000000+00:00</time></trkpt><trkpt lat="20.95743" lon="107.050415"><ele>35.6</ele><time>2011-04-30T13:48:45.0000000+00:00</time></trkpt><trkpt lat="20.95743" lon="107.050392"><ele>35.8</ele><time>2011-04-30T13:48:50.0000000+00:00</time></trkpt><trkpt lat="20.957434" lon="107.050392"><ele>35.8</ele><time>2011-04-30T13:48:55.0000000+00:00</time></trkpt><trkpt lat="20.957436" lon="107.0504"><ele>35.4</ele><time>2011-04-30T13:49:00.0000000+00:00</time></trkpt><trkpt lat="20.957422" lon="107.050446"><ele>35.2</ele><time>2011-04-30T13:49:05.0000000+00:00</time></trkpt><trkpt lat="20.957428" lon="107.050438"><ele>35.2</ele><time>2011-04-30T13:49:10.0000000+00:00</time></trkpt><trkpt lat="20.957434" lon="107.05043"><ele>35.3</ele><time>2011-04-30T13:49:15.0000000+00:00</time></trkpt><trkpt lat="20.95743" lon="107.05043"><ele>35.3</ele><time>2011-04-30T13:49:20.0000000+00:00</time></trkpt><trkpt lat="20.957403" lon="107.050453"><ele>35.0</ele><time>2011-04-30T13:49:25.0000000+00:00</time></trkpt><trkpt lat="20.957348" lon="107.050461"><ele>34.5</ele><time>2011-04-30T13:49:30.0000000+00:00</time></trkpt><trkpt lat="20.957293" lon="107.050484"><ele>34.6</ele><time>2011-04-30T13:49:35.0000000+00:00</time></trkpt><trkpt lat="20.957245" lon="107.050484"><ele>36.6</ele><time>2011-04-30T13:49:40.0000000+00:00</time></trkpt><trkpt lat="20.957216" lon="107.050461"><ele>37.9</ele><time>2011-04-30T13:49:45.0000000+00:00</time></trkpt><trkpt lat="20.957205" lon="107.050484"><ele>38.5</ele><time>2011-04-30T13:49:50.0000000+00:00</time></trkpt><trkpt lat="20.957205" lon="107.050484"><ele>39.0</ele><time>2011-04-30T13:49:55.0000000+00:00</time></trkpt><trkpt lat="20.957207" lon="107.050484"><ele>39.0</ele><time>2011-04-30T13:50:00.0000000+00:00</time></trkpt><trkpt lat="20.957212" lon="107.050491"><ele>39.0</ele><time>2011-04-30T13:50:05.0000000+00:00</time></trkpt><trkpt lat="20.957216" lon="107.050499"><ele>39.4</ele><time>2011-04-30T13:50:10.0000000+00:00</time></trkpt><trkpt lat="20.957212" lon="107.050499"><ele>39.5</ele><time>2011-04-30T13:50:15.0000000+00:00</time></trkpt><trkpt lat="20.957209" lon="107.050491"><ele>39.2</ele><time>2011-04-30T13:50:20.0000000+00:00</time></trkpt><trkpt lat="20.957214" lon="107.050499"><ele>38.6</ele><time>2011-04-30T13:50:25.0000000+00:00</time></trkpt><trkpt lat="20.957237" lon="107.050484"><ele>37.9</ele><time>2011-04-30T13:50:30.0000000+00:00</time></trkpt><trkpt lat="20.95727" lon="107.050461"><ele>37.9</ele><time>2011-04-30T13:50:35.0000000+00:00</time></trkpt><trkpt lat="20.957319" lon="107.050415"><ele>38.3</ele><time>2011-04-30T13:50:40.0000000+00:00</time></trkpt><trkpt lat="20.957325" lon="107.050415"><ele>38.7</ele><time>2011-04-30T13:50:45.0000000+00:00</time></trkpt><trkpt lat="20.957335" lon="107.05043"><ele>39.1</ele><time>2011-04-30T13:50:50.0000000+00:00</time></trkpt><trkpt lat="20.957336" lon="107.05043"><ele>39.1</ele><time>2011-04-30T13:50:55.0000000+00:00</time></trkpt><trkpt lat="20.957336" lon="107.050438"><ele>39.1</ele><time>2011-04-30T13:51:00.0000000+00:00</time></trkpt><trkpt lat="20.957331" lon="107.050446"><ele>39.1</ele><time>2011-04-30T13:51:05.0000000+00:00</time></trkpt><trkpt lat="20.957298" lon="107.050484"><ele>39.0</ele><time>2011-04-30T13:51:10.0000000+00:00</time></trkpt><trkpt lat="20.957275" lon="107.050529"><ele>38.7</ele><time>2011-04-30T13:51:15.0000000+00:00</time></trkpt><trkpt lat="20.957239" lon="107.050598"><ele>38.6</ele><time>2011-04-30T13:51:20.0000000+00:00</time></trkpt><trkpt lat="20.957235" lon="107.050606"><ele>38.6</ele><time>2011-04-30T13:51:25.0000000+00:00</time></trkpt><trkpt lat="20.957218" lon="107.050621"><ele>38.4</ele><time>2011-04-30T13:51:30.0000000+00:00</time></trkpt><trkpt lat="20.957174" lon="107.050652"><ele>37.5</ele><time>2011-04-30T13:51:35.0000000+00:00</time></trkpt><trkpt lat="20.957142" lon="107.050667"><ele>36.8</ele><time>2011-04-30T13:51:40.0000000+00:00</time></trkpt><trkpt lat="20.95713" lon="107.050674"><ele>36.2</ele><time>2011-04-30T13:51:45.0000000+00:00</time></trkpt><trkpt lat="20.957127" lon="107.050674"><ele>36.2</ele><time>2011-04-30T13:51:50.0000000+00:00</time></trkpt><trkpt lat="20.95713" lon="107.050674"><ele>36.1</ele><time>2011-04-30T13:51:55.0000000+00:00</time></trkpt><trkpt lat="20.957138" lon="107.050751"><ele>35.2</ele><time>2011-04-30T13:52:00.0000000+00:00</time></trkpt><trkpt lat="20.957138" lon="107.050743"><ele>35.2</ele><time>2011-04-30T13:52:05.0000000+00:00</time></trkpt><trkpt lat="20.957136" lon="107.050751"><ele>35.2</ele><time>2011-04-30T13:52:10.0000000+00:00</time></trkpt><trkpt lat="20.957148" lon="107.050758"><ele>34.5</ele><time>2011-04-30T13:52:15.0000000+00:00</time></trkpt><trkpt lat="20.957138" lon="107.050743"><ele>34.0</ele><time>2011-04-30T13:52:20.0000000+00:00</time></trkpt><trkpt lat="20.95713" lon="107.05072"><ele>33.5</ele><time>2011-04-30T13:52:25.0000000+00:00</time></trkpt><trkpt lat="20.957129" lon="107.05072"><ele>33.5</ele><time>2011-04-30T13:52:30.0000000+00:00</time></trkpt><trkpt lat="20.957125" lon="107.05072"><ele>33.5</ele><time>2011-04-30T13:52:35.0000000+00:00</time></trkpt><trkpt lat="20.957132" lon="107.050697"><ele>33.1</ele><time>2011-04-30T13:52:40.0000000+00:00</time></trkpt><trkpt lat="20.95714" lon="107.050682"><ele>32.6</ele><time>2011-04-30T13:52:45.0000000+00:00</time></trkpt><trkpt lat="20.957151" lon="107.050667"><ele>32.7</ele><time>2011-04-30T13:52:50.0000000+00:00</time></trkpt><trkpt lat="20.957209" lon="107.050606"><ele>32.9</ele><time>2011-04-30T13:52:55.0000000+00:00</time></trkpt><trkpt lat="20.957279" lon="107.050552"><ele>32.9</ele><time>2011-04-30T13:53:00.0000000+00:00</time></trkpt><trkpt lat="20.957325" lon="107.050514"><ele>32.7</ele><time>2011-04-30T13:53:05.0000000+00:00</time></trkpt><trkpt lat="20.957378" lon="107.050446"><ele>32.9</ele><time>2011-04-30T13:53:10.0000000+00:00</time></trkpt><trkpt lat="20.957415" lon="107.050423"><ele>33.3</ele><time>2011-04-30T13:53:15.0000000+00:00</time></trkpt><trkpt lat="20.957399" lon="107.050461"><ele>34.0</ele><time>2011-04-30T13:53:20.0000000+00:00</time></trkpt><trkpt lat="20.957401" lon="107.050468"><ele>34.2</ele><time>2011-04-30T13:53:25.0000000+00:00</time></trkpt><trkpt lat="20.957388" lon="107.050491"><ele>34.4</ele><time>2011-04-30T13:53:30.0000000+00:00</time></trkpt><trkpt lat="20.957361" lon="107.050476"><ele>34.7</ele><time>2011-04-30T13:53:35.0000000+00:00</time></trkpt><trkpt lat="20.957378" lon="107.050468"><ele>34.6</ele><time>2011-04-30T13:53:40.0000000+00:00</time></trkpt><trkpt lat="20.957397" lon="107.050476"><ele>34.6</ele><time>2011-04-30T13:53:45.0000000+00:00</time></trkpt><trkpt lat="20.957413" lon="107.050476"><ele>34.5</ele><time>2011-04-30T13:53:50.0000000+00:00</time></trkpt><trkpt lat="20.957415" lon="107.050476"><ele>34.5</ele><time>2011-04-30T13:53:55.0000000+00:00</time></trkpt><trkpt lat="20.95742" lon="107.050484"><ele>34.5</ele><time>2011-04-30T13:54:00.0000000+00:00</time></trkpt><trkpt lat="20.957426" lon="107.050484"><ele>34.5</ele><time>2011-04-30T13:54:05.0000000+00:00</time></trkpt><trkpt lat="20.957441" lon="107.050484"><ele>34.3</ele><time>2011-04-30T13:54:10.0000000+00:00</time></trkpt><trkpt lat="20.957457" lon="107.050476"><ele>34.3</ele><time>2011-04-30T13:54:15.0000000+00:00</time></trkpt><trkpt lat="20.957487" lon="107.050476"><ele>34.3</ele><time>2011-04-30T13:54:20.0000000+00:00</time></trkpt><trkpt lat="20.957485" lon="107.050468"><ele>34.2</ele><time>2011-04-30T13:54:25.0000000+00:00</time></trkpt><trkpt lat="20.957487" lon="107.050491"><ele>33.9</ele><time>2011-04-30T13:54:30.0000000+00:00</time></trkpt><trkpt lat="20.957493" lon="107.050476"><ele>33.9</ele><time>2011-04-30T13:54:35.0000000+00:00</time></trkpt><trkpt lat="20.957478" lon="107.050461"><ele>34.1</ele><time>2011-04-30T13:54:40.0000000+00:00</time></trkpt><trkpt lat="20.957478" lon="107.050446"><ele>34.1</ele><time>2011-04-30T13:54:45.0000000+00:00</time></trkpt><trkpt lat="20.957476" lon="107.050446"><ele>34.1</ele><time>2011-04-30T13:54:50.0000000+00:00</time></trkpt><trkpt lat="20.957439" lon="107.050499"><ele>34.6</ele><time>2011-04-30T13:54:55.0000000+00:00</time></trkpt><trkpt lat="20.957388" lon="107.050537"><ele>35.2</ele><time>2011-04-30T13:55:00.0000000+00:00</time></trkpt><trkpt lat="20.957361" lon="107.05056"><ele>35.4</ele><time>2011-04-30T13:55:05.0000000+00:00</time></trkpt><trkpt lat="20.957371" lon="107.05056"><ele>35.5</ele><time>2011-04-30T13:55:10.0000000+00:00</time></trkpt><trkpt lat="20.95738" lon="107.050545"><ele>35.5</ele><time>2011-04-30T13:55:15.0000000+00:00</time></trkpt><trkpt lat="20.957401" lon="107.050529"><ele>35.2</ele><time>2011-04-30T13:55:20.0000000+00:00</time></trkpt><trkpt lat="20.957396" lon="107.050529"><ele>35.0</ele><time>2011-04-30T13:55:25.0000000+00:00</time></trkpt><trkpt lat="20.957396" lon="107.050522"><ele>34.7</ele><time>2011-04-30T13:55:30.0000000+00:00</time></trkpt><trkpt lat="20.957407" lon="107.050507"><ele>34.7</ele><time>2011-04-30T13:55:35.0000000+00:00</time></trkpt><trkpt lat="20.957409" lon="107.050499"><ele>34.7</ele><time>2011-04-30T13:55:40.0000000+00:00</time></trkpt><trkpt lat="20.957417" lon="107.050507"><ele>35.6</ele><time>2011-04-30T13:55:45.0000000+00:00</time></trkpt><trkpt lat="20.957418" lon="107.050507"><ele>35.6</ele><time>2011-04-30T13:55:50.0000000+00:00</time></trkpt><trkpt lat="20.957394" lon="107.050491"><ele>36.0</ele><time>2011-04-30T13:55:55.0000000+00:00</time></trkpt><trkpt lat="20.957382" lon="107.050484"><ele>36.1</ele><time>2011-04-30T13:56:00.0000000+00:00</time></trkpt><trkpt lat="20.957373" lon="107.050476"><ele>37.1</ele><time>2011-04-30T13:56:05.0000000+00:00</time></trkpt><trkpt lat="20.957386" lon="107.050453"><ele>37.6</ele><time>2011-04-30T13:56:10.0000000+00:00</time></trkpt><trkpt lat="20.957397" lon="107.05043"><ele>37.9</ele><time>2011-04-30T13:56:15.0000000+00:00</time></trkpt><trkpt lat="20.957392" lon="107.050423"><ele>39.8</ele><time>2011-04-30T13:56:20.0000000+00:00</time></trkpt><trkpt lat="20.957411" lon="107.050415"><ele>40.6</ele><time>2011-04-30T13:56:25.0000000+00:00</time></trkpt><trkpt lat="20.957409" lon="107.05043"><ele>41.3</ele><time>2011-04-30T13:56:30.0000000+00:00</time></trkpt><trkpt lat="20.957417" lon="107.050446"><ele>41.1</ele><time>2011-04-30T13:56:35.0000000+00:00</time></trkpt><trkpt lat="20.957401" lon="107.050438"><ele>41.0</ele><time>2011-04-30T13:56:40.0000000+00:00</time></trkpt><trkpt lat="20.95739" lon="107.050369"><ele>40.6</ele><time>2011-04-30T13:56:45.0000000+00:00</time></trkpt><trkpt lat="20.957384" lon="107.050293"><ele>40.2</ele><time>2011-04-30T13:56:50.0000000+00:00</time></trkpt><trkpt lat="20.957392" lon="107.050278"><ele>40.6</ele><time>2011-04-30T13:56:55.0000000+00:00</time></trkpt><trkpt lat="20.957397" lon="107.050308"><ele>41.2</ele><time>2011-04-30T13:57:00.0000000+00:00</time></trkpt><trkpt lat="20.957376" lon="107.050346"><ele>40.9</ele><time>2011-04-30T13:57:05.0000000+00:00</time></trkpt><trkpt lat="20.957348" lon="107.050392"><ele>40.5</ele><time>2011-04-30T13:57:10.0000000+00:00</time></trkpt><trkpt lat="20.957355" lon="107.050423"><ele>39.7</ele><time>2011-04-30T13:57:15.0000000+00:00</time></trkpt><trkpt lat="20.957359" lon="107.050446"><ele>38.9</ele><time>2011-04-30T13:57:20.0000000+00:00</time></trkpt><trkpt lat="20.957386" lon="107.050423"><ele>38.0</ele><time>2011-04-30T13:57:25.0000000+00:00</time></trkpt><trkpt lat="20.957394" lon="107.050407"><ele>37.9</ele><time>2011-04-30T13:57:30.0000000+00:00</time></trkpt><trkpt lat="20.957399" lon="107.050392"><ele>38.0</ele><time>2011-04-30T13:57:35.0000000+00:00</time></trkpt><trkpt lat="20.957403" lon="107.0504"><ele>38.0</ele><time>2011-04-30T13:57:40.0000000+00:00</time></trkpt><trkpt lat="20.957407" lon="107.0504"><ele>38.1</ele><time>2011-04-30T13:57:45.0000000+00:00</time></trkpt><trkpt lat="20.957411" lon="107.050407"><ele>38.1</ele><time>2011-04-30T13:57:50.0000000+00:00</time></trkpt><trkpt lat="20.957405" lon="107.050415"><ele>37.9</ele><time>2011-04-30T13:57:55.0000000+00:00</time></trkpt><trkpt lat="20.957415" lon="107.050423"><ele>37.6</ele><time>2011-04-30T13:58:00.0000000+00:00</time></trkpt><trkpt lat="20.957422" lon="107.050423"><ele>37.5</ele><time>2011-04-30T13:58:05.0000000+00:00</time></trkpt><trkpt lat="20.957422" lon="107.050415"><ele>36.8</ele><time>2011-04-30T13:58:10.0000000+00:00</time></trkpt><trkpt lat="20.957418" lon="107.0504"><ele>36.8</ele><time>2011-04-30T13:58:15.0000000+00:00</time></trkpt><trkpt lat="20.957417" lon="107.0504"><ele>36.7</ele><time>2011-04-30T13:58:20.0000000+00:00</time></trkpt><trkpt lat="20.957413" lon="107.0504"><ele>36.8</ele><time>2011-04-30T13:58:25.0000000+00:00</time></trkpt><trkpt lat="20.957403" lon="107.050407"><ele>36.8</ele><time>2011-04-30T13:58:30.0000000+00:00</time></trkpt><trkpt lat="20.957367" lon="107.05043"><ele>37.0</ele><time>2011-04-30T13:58:35.0000000+00:00</time></trkpt><trkpt lat="20.957335" lon="107.050453"><ele>36.5</ele><time>2011-04-30T13:58:40.0000000+00:00</time></trkpt><trkpt lat="20.95731" lon="107.050438"><ele>36.3</ele><time>2011-04-30T13:58:45.0000000+00:00</time></trkpt><trkpt lat="20.957325" lon="107.050415"><ele>36.6</ele><time>2011-04-30T13:58:50.0000000+00:00</time></trkpt><trkpt lat="20.95735" lon="107.050407"><ele>37.3</ele><time>2011-04-30T13:58:55.0000000+00:00</time></trkpt><trkpt lat="20.957352" lon="107.050407"><ele>37.4</ele><time>2011-04-30T13:59:00.0000000+00:00</time></trkpt><trkpt lat="20.957388" lon="107.050423"><ele>38.2</ele><time>2011-04-30T13:59:05.0000000+00:00</time></trkpt><trkpt lat="20.957405" lon="107.050446"><ele>39.0</ele><time>2011-04-30T13:59:10.0000000+00:00</time></trkpt><trkpt lat="20.957432" lon="107.050453"><ele>39.9</ele><time>2011-04-30T13:59:15.0000000+00:00</time></trkpt><trkpt lat="20.957439" lon="107.050476"><ele>40.3</ele><time>2011-04-30T13:59:20.0000000+00:00</time></trkpt><trkpt lat="20.957417" lon="107.050461"><ele>40.4</ele><time>2011-04-30T13:59:25.0000000+00:00</time></trkpt><trkpt lat="20.957417" lon="107.0504"><ele>40.3</ele><time>2011-04-30T13:59:30.0000000+00:00</time></trkpt><trkpt lat="20.957382" lon="107.050301"><ele>40.3</ele><time>2011-04-30T13:59:35.0000000+00:00</time></trkpt><trkpt lat="20.957327" lon="107.050262"><ele>40.3</ele><time>2011-04-30T13:59:40.0000000+00:00</time></trkpt><trkpt lat="20.957277" lon="107.050186"><ele>40.4</ele><time>2011-04-30T13:59:45.0000000+00:00</time></trkpt><trkpt lat="20.95723" lon="107.050179"><ele>40.4</ele><time>2011-04-30T13:59:50.0000000+00:00</time></trkpt><trkpt lat="20.95723" lon="107.050163"><ele>39.8</ele><time>2011-04-30T13:59:55.0000000+00:00</time></trkpt><trkpt lat="20.957241" lon="107.050163"><ele>39.3</ele><time>2011-04-30T14:00:00.0000000+00:00</time></trkpt><trkpt lat="20.957233" lon="107.050186"><ele>39.1</ele><time>2011-04-30T14:00:05.0000000+00:00</time></trkpt><trkpt lat="20.957262" lon="107.050201"><ele>39.3</ele><time>2011-04-30T14:00:10.0000000+00:00</time></trkpt><trkpt lat="20.957285" lon="107.050262"><ele>39.6</ele><time>2011-04-30T14:00:15.0000000+00:00</time></trkpt><trkpt lat="20.957249" lon="107.050354"><ele>38.5</ele><time>2011-04-30T14:00:20.0000000+00:00</time></trkpt><trkpt lat="20.95722" lon="107.050438"><ele>36.1</ele><time>2011-04-30T14:00:25.0000000+00:00</time></trkpt><trkpt lat="20.95719" lon="107.050491"><ele>34.5</ele><time>2011-04-30T14:00:30.0000000+00:00</time></trkpt><trkpt lat="20.957184" lon="107.05056"><ele>33.3</ele><time>2011-04-30T14:00:35.0000000+00:00</time></trkpt><trkpt lat="20.957226" lon="107.050598"><ele>32.5</ele><time>2011-04-30T14:00:40.0000000+00:00</time></trkpt><trkpt lat="20.957207" lon="107.050621"><ele>32.0</ele><time>2011-04-30T14:00:45.0000000+00:00</time></trkpt><trkpt lat="20.95723" lon="107.050636"><ele>31.3</ele><time>2011-04-30T14:00:50.0000000+00:00</time></trkpt><trkpt lat="20.957209" lon="107.050674"><ele>29.8</ele><time>2011-04-30T14:00:55.0000000+00:00</time></trkpt><trkpt lat="20.957218" lon="107.050697"><ele>28.4</ele><time>2011-04-30T14:01:00.0000000+00:00</time></trkpt><trkpt lat="20.957205" lon="107.050674"><ele>28.2</ele><time>2011-04-30T14:01:05.0000000+00:00</time></trkpt><trkpt lat="20.957205" lon="107.050652"><ele>28.4</ele><time>2011-04-30T14:01:10.0000000+00:00</time></trkpt><trkpt lat="20.957235" lon="107.050598"><ele>29.1</ele><time>2011-04-30T14:01:15.0000000+00:00</time></trkpt><trkpt lat="20.957273" lon="107.050545"><ele>29.4</ele><time>2011-04-30T14:01:20.0000000+00:00</time></trkpt><trkpt lat="20.957354" lon="107.050461"><ele>28.8</ele><time>2011-04-30T14:01:25.0000000+00:00</time></trkpt><trkpt lat="20.957441" lon="107.050385"><ele>28.2</ele><time>2011-04-30T14:01:30.0000000+00:00</time></trkpt><trkpt lat="20.957506" lon="107.050331"><ele>27.2</ele><time>2011-04-30T14:01:35.0000000+00:00</time></trkpt><trkpt lat="20.957525" lon="107.050346"><ele>27.3</ele><time>2011-04-30T14:01:40.0000000+00:00</time></trkpt><trkpt lat="20.957554" lon="107.050354"><ele>27.1</ele><time>2011-04-30T14:01:45.0000000+00:00</time></trkpt></trkseg></trk></gpx>